/* DATA DESCRIPTION:
Citation:	Wacker, Stefan (2026): Radiosonde measurements from station Lindenberg (2023-09) [dataset]. Meteorologisches Observatorium Lindenberg - Richard-Aßmann-Observatorium, PANGAEA, https://doi.org/10.1594/PANGAEA.993502
Other version:	Wacker, Stefan (2026): BSRN Station-to-archive file for station Lindenberg (2023-09) [dataset]. ftp://ftp.bsrn.awi.de/lin/lin0923.dat.gz
Project(s):	Baseline Surface Radiation Network (BSRN) (URI: https://bsrn.awi.de/)
Coverage:	LATITUDE: 52.210000 * LONGITUDE: 14.122000
	DATE/TIME START: 2023-09-01T00:00:00 * DATE/TIME END: 2023-09-30T18:00:00
	MINIMUM ALTITUDE: -999 m * MAXIMUM ALTITUDE: 38170 m
Event(s):	LIN (Lindenberg) (URI: http://www.dwd.de/DE/forschung/atmosphaerenbeob/lindenbergersaeule/mol/mol_node.html) * LATITUDE: 52.210000 * LONGITUDE: 14.122000 * DATE/TIME: 1994-09-01T00:00:00 * ELEVATION: 125.0 m * LOCATION: Germany * METHOD/DEVICE: Monitoring station (MONS) * COMMENT: BSRN station no: 12; Surface type: cultivated; Topography type: hilly, rural; Horizon: doi:10.1594/PANGAEA.669521; Station scientist: Stefan Wacker (Stefan.Wacker@dwd.de)
Comment:	*C0006
Parameter(s):	DATE/TIME (Date/Time) * GEOCODE * PI: Wacker, Stefan (Stefan.Wacker@dwd.de)
	ALTITUDE [m] (Altitude) * GEOCODE * PI: Wacker, Stefan (Stefan.Wacker@dwd.de)
	Pressure, at given altitude [hPa] (PPPP) * PI: Wacker, Stefan (Stefan.Wacker@dwd.de) * METHOD/DEVICE: Radiosonde, Vaisala, RS41 (URI: http://www.vaisala.com/en/products/soundingsystemsandradiosondes/radiosondes/Pages/RS41.aspx)
	Temperature, air [°C] (TTT) * PI: Wacker, Stefan (Stefan.Wacker@dwd.de) * METHOD/DEVICE: Radiosonde, Vaisala, RS41 (URI: http://www.vaisala.com/en/products/soundingsystemsandradiosondes/radiosondes/Pages/RS41.aspx)
	Dew/frost point [°C] (TdTdTd) * PI: Wacker, Stefan (Stefan.Wacker@dwd.de) * METHOD/DEVICE: Radiosonde, Vaisala, RS41 (URI: http://www.vaisala.com/en/products/soundingsystemsandradiosondes/radiosondes/Pages/RS41.aspx)
	Wind direction [deg] (dd) * PI: Wacker, Stefan (Stefan.Wacker@dwd.de) * METHOD/DEVICE: Radiosonde, Vaisala, RS41 (URI: http://www.vaisala.com/en/products/soundingsystemsandradiosondes/radiosondes/Pages/RS41.aspx)
	Wind speed [m/s] (ff) * PI: Wacker, Stefan (Stefan.Wacker@dwd.de) * METHOD/DEVICE: Radiosonde, Vaisala, RS41 (URI: http://www.vaisala.com/en/products/soundingsystemsandradiosondes/radiosondes/Pages/RS41.aspx)
License:	Baseline Surface Radiation Network License 1.0 (BSRN-1.0) (URI: https://bsrn.awi.de/data/conditions-of-data-release/)
Status:	Curation Level: Enhanced curation (URI: https://wiki.pangaea.de/wiki/Curation_levels)
Size:	805287 data points
*/
Date/Time	Altitude [m]	PPPP [hPa]	TTT [°C]	TdTdTd [°C]	dd [deg]	ff [m/s]
2023-09-01T00:00	112	999	11.3	9.9	220	4
2023-09-01T00:00	141	996	11.8	9.9	237	4
2023-09-01T00:00	166	993	11.7	9.6	235	6
2023-09-01T00:00	195	990	11.7	9.5	235	7
2023-09-01T00:00	225	986	12.0	9.2	236	9
2023-09-01T00:00	253	983	11.7	9.1	239	10
2023-09-01T00:00	278	980	11.7	9.0	243	10
2023-09-01T00:00	303	977	11.4	9.0	248	11
2023-09-01T00:00	327	974	11.3	8.5	253	11
2023-09-01T00:00	350	971	11.8	7.9	257	12
2023-09-01T00:00	376	969	11.8	7.6	261	12
2023-09-01T00:00	397	966	11.7	7.4	264	13
2023-09-01T00:00	424	963	11.8	7.5	267	13
2023-09-01T00:00	446	960	11.6	7.4	270	14
2023-09-01T00:00	475	957	11.5	7.5	273	14
2023-09-01T00:00	506	954	11.5	7.5	276	14
2023-09-01T00:00	529	951	11.5	7.7	279	14
2023-09-01T00:00	556	948	11.6	7.5	282	14
2023-09-01T00:00	580	945	11.4	7.4	284	13
2023-09-01T00:00	597	943	11.3	7.3	284	13
2023-09-01T00:00	623	940	11.1	6.7	284	13
2023-09-01T00:00	643	938	11.0	6.3	283	13
2023-09-01T00:00	665	936	10.8	6.1	284	12
2023-09-01T00:00	688	933	10.6	5.7	284	12
2023-09-01T00:00	712	930	10.4	5.3	285	12
2023-09-01T00:00	735	928	10.3	5.1	285	12
2023-09-01T00:00	761	925	10.1	4.6	285	11
2023-09-01T00:00	786	922	9.9	4.4	284	11
2023-09-01T00:00	814	919	9.6	4.2	283	11
2023-09-01T00:00	838	916	9.5	4.0	282	11
2023-09-01T00:00	866	913	9.3	3.4	281	11
2023-09-01T00:00	890	911	9.2	3.3	279	11
2023-09-01T00:00	911	908	9.0	3.4	277	11
2023-09-01T00:00	935	906	8.9	3.3	275	11
2023-09-01T00:00	957	903	8.8	3.3	275	11
2023-09-01T00:00	982	900	8.7	3.0	275	12
2023-09-01T00:00	1006	898	8.5	2.9	275	12
2023-09-01T00:00	1030	895	8.3	2.8	276	12
2023-09-01T00:00	1056	893	8.0	2.7	277	12
2023-09-01T00:00	1078	890	7.8	2.6	278	12
2023-09-01T00:00	1105	887	7.6	2.3	278	12
2023-09-01T00:00	1127	885	7.3	2.6	278	12
2023-09-01T00:00	1156	882	7.1	3.3	277	12
2023-09-01T00:00	1179	879	7.0	2.9	276	13
2023-09-01T00:00	1203	877	6.8	2.4	276	13
2023-09-01T00:00	1228	874	6.6	2.2	275	13
2023-09-01T00:00	1255	871	6.5	2.0	275	13
2023-09-01T00:00	1283	868	6.3		274	13
2023-09-01T00:00	1310	865	6.2	1.5	273	13
2023-09-01T00:00	1339	862	5.9	2.0	272	13
2023-09-01T00:00	1365	860	5.7	1.8	272	12
2023-09-01T00:00	1392	857	5.5	1.2	272	12
2023-09-01T00:00	1417	854	5.3	1.1	272	12
2023-09-01T00:00	1446	851	5.0	1.0	273	12
2023-09-01T00:00	1474	848	4.8	1.5	274	13
2023-09-01T00:00	1502	845	4.6	1.5	275	13
2023-09-01T00:00	1531	843	4.6	0.9	275	13
2023-09-01T00:00	1553	840	4.3	0.6	276	14
2023-09-01T00:00	1578	838	4.1	0.3	275	14
2023-09-01T00:00	1599	835	3.9	0.3	275	13
2023-09-01T00:00	1624	833	3.7	0.2	273	13
2023-09-01T00:00	1645	830	3.5	0.2	271	13
2023-09-01T00:00	1669	828	3.3	0.1	269	12
2023-09-01T00:00	1694	826	3.1	0.0	267	12
2023-09-01T00:00	1719	823	2.9	0.0	265	13
2023-09-01T00:00	1745	820	2.7	0.1	265	13
2023-09-01T00:00	1776	818	2.4		265	13
2023-09-01T00:00	1798	815	2.2	0.3	265	14
2023-09-01T00:00	1821	813	2.0	0.5	266	14
2023-09-01T00:00	1852	810	2.0	0.2	266	14
2023-09-01T00:00	1880	807	1.8	-0.4	267	14
2023-09-01T00:00	1908	804	1.5	-0.3	267	14
2023-09-01T00:00	1936	801	1.2	-0.5	268	14
2023-09-01T00:00	1959	799	1.0	-0.5	268	14
2023-09-01T00:00	1981	797	0.9	-1.1	269	14
2023-09-01T00:00	2007	794	0.8	-1.3	270	14
2023-09-01T00:00	2035	791	0.6	-1.5	271	13
2023-09-01T00:00	2059	789	0.4	-1.6	272	13
2023-09-01T00:00	2078	787	0.2	-1.7	272	13
2023-09-01T00:00	2101	785	0.0	-1.7	271	13
2023-09-01T00:00	2121	783	-0.1	-1.8	271	14
2023-09-01T00:00	2143	781	-0.3	-1.9	271	14
2023-09-01T00:00	2167	778	-0.5	-1.9	272	14
2023-09-01T00:00	2192	776	-0.7	-2.0	274	15
2023-09-01T00:00	2219	774	-0.9	-2.3	275	15
2023-09-01T00:00	2239	772	-1.1	-2.5	275	15
2023-09-01T00:00	2261	770	-1.2	-2.6	274	16
2023-09-01T00:00	2281	767	-1.4	-2.7	272	17
2023-09-01T00:00	2302	765	-1.5	-2.7	271	17
2023-09-01T00:00	2324	763	-1.7	-2.8	272	17
2023-09-01T00:00	2345	761	-1.7	-2.9	273	17
2023-09-01T00:00	2365	759	-1.7	-3.2	276	17
2023-09-01T00:00	2389	757	-1.7	-3.5	278	16
2023-09-01T00:00	2416	755	-1.7	-3.8	280	15
2023-09-01T00:00	2444	752	-1.8	-4.1	281	15
2023-09-01T00:00	2467	750	-2.0	-4.2	281	14
2023-09-01T00:00	2494	747	-2.2	-4.3	281	14
2023-09-01T00:00	2518	745	-2.4	-4.5	281	13
2023-09-01T00:00	2538	743	-2.6	-4.4	281	13
2023-09-01T00:00	2560	741	-2.8	-4.4	281	12
2023-09-01T00:00	2582	739	-3.0	-4.5	281	12
2023-09-01T00:00	2611	736	-3.3	-4.7	281	13
2023-09-01T00:00	2632	734	-3.4	-4.7	280	13
2023-09-01T00:00	2657	732	-3.5	-5.1	280	13
2023-09-01T00:00	2679	730	-3.5	-5.1	279	14
2023-09-01T00:00	2708	727	-3.6	-5.5	279	14
2023-09-01T00:00	2730	725	-3.7	-5.6	280	14
2023-09-01T00:00	2756	723	-3.9	-5.8	281	14
2023-09-01T00:00	2783	721	-4.2	-6.0	282	15
2023-09-01T00:00	2801	719	-4.3	-6.1	282	15
2023-09-01T00:00	2828	716	-4.5	-6.1	281	15
2023-09-01T00:00	2852	714	-4.8	-6.2	281	16
2023-09-01T00:00	2879	712	-5.0	-6.2	280	16
2023-09-01T00:00	2907	709	-5.3	-6.4	280	16
2023-09-01T00:00	2936	707	-5.5	-6.5	280	16
2023-09-01T00:00	2959	704	-5.7	-6.7	280	16
2023-09-01T00:00	2984	702	-5.9	-7.0	279	16
2023-09-01T00:00	3010	700	-6.1	-7.1	278	16
2023-09-01T00:00	3036	698	-6.1	-7.5	277	17
2023-09-01T00:00	3056	696	-6.1	-8.5	276	17
2023-09-01T00:00	3087	693	-6.1	-8.3	275	18
2023-09-01T00:00	3107	691	-6.2	-8.7	274	18
2023-09-01T00:00	3136	689	-6.4	-9.1	274	17
2023-09-01T00:00	3168	686	-6.6	-9.6	274	17
2023-09-01T00:00	3195	684	-6.8	-9.8	274	16
2023-09-01T00:00	3218	682	-7.0	-10.1	273	16
2023-09-01T00:00	3238	680	-7.1	-10.2	272	15
2023-09-01T00:00	3259	678	-7.3	-10.4	272	15
2023-09-01T00:00	3285	676	-7.5	-10.1	272	16
2023-09-01T00:00	3315	673	-7.8	-9.9	272	16
2023-09-01T00:00	3340	671	-8.1	-10.4	273	17
2023-09-01T00:00	3363	669	-8.2	-10.6	274	17
2023-09-01T00:00	3392	666	-8.3	-10.6	276	18
2023-09-01T00:00	3420	664	-8.5	-10.3	277	18
2023-09-01T00:00	3451	661	-8.7	-10.0	278	19
2023-09-01T00:00	3481	659	-8.7	-11.5	278	19
2023-09-01T00:00	3511	656	-9.0	-11.4	277	19
2023-09-01T00:00	3545	654	-9.2	-11.3	277	19
2023-09-01T00:00	3574	651	-9.4	-12.4	277	18
2023-09-01T00:00	3601	649	-9.5	-12.7	277	18
2023-09-01T00:00	3624	647	-9.7	-13.6	278	18
2023-09-01T00:00	3646	645	-9.9	-13.4	279	18
2023-09-01T00:00	3680	642	-10.1	-13.2	279	18
2023-09-01T00:00	3705	640	-10.3	-12.6	279	18
2023-09-01T00:00	3733	638	-10.5	-12.4	279	17
2023-09-01T00:00	3760	636	-10.6	-11.6	279	17
2023-09-01T00:00	3784	634	-10.6	-11.9	278	17
2023-09-01T00:00	3809	631	-10.8	-12.1	278	17
2023-09-01T00:00	3835	629	-10.9	-12.2	277	17
2023-09-01T00:00	3860	627	-11.1	-12.3	276	17
2023-09-01T00:00	3886	625	-11.3	-12.6	274	18
2023-09-01T00:00	3905	623	-11.5	-12.8	273	18
2023-09-01T00:00	3932	621	-11.5	-14.1	273	19
2023-09-01T00:00	3960	619	-11.6	-17.9	272	19
2023-09-01T00:00	3983	617	-11.8	-15.2	271	19
2023-09-01T00:00	4009	615	-11.9	-19.1	271	20
2023-09-01T00:00	4026	614	-12.0	-19.5	270	20
2023-09-01T00:00	4043	612	-12.2	-19.5	270	20
2023-09-01T00:00	4076	610	-12.4	-20.6	270	20
2023-09-01T00:00	4105	608	-12.7	-17.0	270	20
2023-09-01T00:00	4129	606	-12.9	-15.7	270	21
2023-09-01T00:00	4148	604	-13.1	-15.6	270	21
2023-09-01T00:00	4171	602	-13.2	-15.8	270	21
2023-09-01T00:00	4199	600	-13.4	-17.4	270	20
2023-09-01T00:00	4223	598	-13.6	-17.1	271	20
2023-09-01T00:00	4251	596	-13.9	-16.9	272	20
2023-09-01T00:00	4278	594	-14.1	-17.5	274	19
2023-09-01T00:00	4306	592	-14.3	-16.6	275	19
2023-09-01T00:00	4331	590	-14.4	-16.0	276	19
2023-09-01T00:00	4358	588	-14.6	-15.9	276	18
2023-09-01T00:00	4386	586	-14.8	-16.0	276	18
2023-09-01T00:00	4405	584	-15.0	-16.1	276	18
2023-09-01T00:00	4436	582	-15.0	-16.6	276	19
2023-09-01T00:00	4462	580	-15.1	-16.8	277	19
2023-09-01T00:00	4488	578	-15.4	-16.9	278	20
2023-09-01T00:00	4505	576	-15.5	-16.8	279	20
2023-09-01T00:00	4527	575	-15.7	-16.8	279	21
2023-09-01T00:00	4559	572	-16.0	-17.1	280	21
2023-09-01T00:00	4585	570	-16.1	-17.3	280	21
2023-09-01T00:00	4607	569	-16.3	-17.3	280	21
2023-09-01T00:00	4628	567	-16.5	-17.4	280	21
2023-09-01T00:00	4651	565	-16.7	-17.6	280	22
2023-09-01T00:00	4678	563	-16.8	-18.3	280	22
2023-09-01T00:00	4702	561	-16.9	-19.5	280	22
2023-09-01T00:00	4730	559	-17.1	-19.7	279	21
2023-09-01T00:00	4758	557	-17.4	-19.8	279	21
2023-09-01T00:00	4783	555	-17.6	-20.3	279	21
2023-09-01T00:00	4808	554	-17.8	-20.2	279	21
2023-09-01T00:00	4832	552	-18.0	-21.0	279	21
2023-09-01T00:00	4856	550	-18.2	-20.8	279	22
2023-09-01T00:00	4887	548	-18.5	-19.3	279	22
2023-09-01T00:00	4905	546	-18.7	-19.5	278	22
2023-09-01T00:00	4930	545	-18.9	-19.6	278	22
2023-09-01T00:00	4956	543	-19.0	-20.2	277	22
2023-09-01T00:00	4980	541	-19.1	-20.7	275	22
2023-09-01T00:00	5004	539	-19.2	-21.0	274	22
2023-09-01T00:00	5024	538	-19.3	-21.0	273	21
2023-09-01T00:00	5043	536	-19.4	-21.6	272	22
2023-09-01T00:00	5076	534	-19.7	-21.7	272	22
2023-09-01T00:00	5107	532	-20.0	-21.8	273	22
2023-09-01T00:00	5133	530	-20.2	-21.8	275	22
2023-09-01T00:00	5159	528	-20.5	-22.1	277	23
2023-09-01T00:00	5188	526	-20.7	-22.2	279	23
2023-09-01T00:00	5213	524	-20.9	-22.6	279	23
2023-09-01T00:00	5230	523	-21.1	-22.6	279	23
2023-09-01T00:00	5256	521	-21.3	-23.0	278	23
2023-09-01T00:00	5273	520	-21.4	-23.1	277	23
2023-09-01T00:00	5304	518	-21.7	-23.3	276	24
2023-09-01T00:00	5334	516	-22.0	-23.5	276	24
2023-09-01T00:00	5358	514	-22.2	-23.6	276	24
2023-09-01T00:00	5380	513	-22.4	-23.7	276	23
2023-09-01T00:00	5401	511	-22.6	-23.8	275	23
2023-09-01T00:00	5430	509	-22.8	-23.9	272	22
2023-09-01T00:00	5454	507	-23.0	-24.5	270	22
2023-09-01T00:00	5473	506	-23.0	-24.0	268	21
2023-09-01T00:00	5500	504	-23.1	-25.2	266	22
2023-09-01T00:00	5522	503	-23.1	-28.5	266	22
2023-09-01T00:00	5548	501	-23.1	-28.2	267	22
2023-09-01T00:00	5575	499	-23.3	-26.5	268	22
2023-09-01T00:00	5610	497	-23.5	-27.6	269	21
2023-09-01T00:00	5637	495	-23.7	-28.7	269	21
2023-09-01T00:00	5659	493	-23.9	-29.1	269	22
2023-09-01T00:00	5689	491	-24.2	-28.6	269	22
2023-09-01T00:00	5713	490	-24.4	-28.6	269	22
2023-09-01T00:00	5736	488	-24.6	-28.9	269	22
2023-09-01T00:00	5754	487	-24.7	-28.9	270	22
2023-09-01T00:00	5785	485	-25.0	-28.9	270	22
2023-09-01T00:00	5806	483	-25.3	-29.3	271	22
2023-09-01T00:00	5831	482	-25.5	-29.4	271	22
2023-09-01T00:00	5850	480	-25.7	-29.3	271	21
2023-09-01T00:00	5878	479	-25.9	-29.5	271	21
2023-09-01T00:00	5905	477	-26.2	-29.9	271	21
2023-09-01T00:00	5930	475	-26.4	-30.2	271	21
2023-09-01T00:00	5957	474	-26.6	-30.9	272	21
2023-09-01T00:00	5974	472	-26.8	-31.4	272	21
2023-09-01T00:00	5994	471	-26.9	-31.6	271	21
2023-09-01T00:00	6024	469	-27.2	-31.3	271	21
2023-09-01T00:00	6045	468	-27.3	-31.5	269	21
2023-09-01T00:00	6072	466	-27.6	-32.0	268	21
2023-09-01T00:00	6097	464	-27.8	-31.9	268	21
2023-09-01T00:00	6120	463	-28.0	-32.0	269	21
2023-09-01T00:00	6140	462	-28.2	-32.0	269	22
2023-09-01T00:00	6165	460	-28.5	-32.2	270	22
2023-09-01T00:00	6190	459	-28.7	-32.3	270	22
2023-09-01T00:00	6211	457	-28.9	-32.2	270	21
2023-09-01T00:00	6239	455	-29.1	-31.8	269	21
2023-09-01T00:00	6269	453	-29.3	-32.3	269	21
2023-09-01T00:00	6288	452	-29.4	-32.1	269	21
2023-09-01T00:00	6309	451	-29.6	-32.5	270	21
2023-09-01T00:00	6337	449	-29.8	-33.3	270	21
2023-09-01T00:00	6366	447	-30.1	-33.6	269	22
2023-09-01T00:00	6387	446	-30.2	-33.6	269	22
2023-09-01T00:00	6419	444	-30.5	-33.5	269	22
2023-09-01T00:00	6445	442	-30.8	-33.8	269	23
2023-09-01T00:00	6460	441	-31.0	-33.8	269	23
2023-09-01T00:00	6493	439	-31.2	-33.7	269	23
2023-09-01T00:00	6531	437	-31.6	-33.8	269	22
2023-09-01T00:00	6556	435	-31.8	-34.0	270	22
2023-09-01T00:00	6579	434	-32.0	-34.0	270	22
2023-09-01T00:00	6601	433	-32.2	-34.4	271	22
2023-09-01T00:00	6628	431	-32.4	-34.4	271	22
2023-09-01T00:00	6646	430	-32.6	-34.9	270	22
2023-09-01T00:00	6664	429	-32.7	-36.3	270	22
2023-09-01T00:00	6684	427	-32.8	-37.3	269	23
2023-09-01T00:00	6710	426	-32.9	-38.6	267	23
2023-09-01T00:00	6734	425	-33.1	-39.1	266	23
2023-09-01T00:00	6758	423	-33.3	-39.7	265	23
2023-09-01T00:00	6780	422	-33.4	-40.0	265	24
2023-09-01T00:00	6808	420	-33.7	-40.4	265	24
2023-09-01T00:00	6838	418	-33.9	-40.6	266	24
2023-09-01T00:00	6868	417	-34.1	-41.0	267	24
2023-09-01T00:00	6887	415	-34.3	-41.1	269	24
2023-09-01T00:00	6905	414	-34.5	-41.0	270	24
2023-09-01T00:00	6927	413	-34.7	-40.9	270	24
2023-09-01T00:00	6955	411	-34.9	-41.1	271	24
2023-09-01T00:00	6981	410	-35.1	-41.6	271	23
2023-09-01T00:00	7013	408	-35.3	-42.6	271	23
2023-09-01T00:00	7033	407	-35.5	-42.6	271	23
2023-09-01T00:00	7053	406	-35.6	-42.6	271	23
2023-09-01T00:00	7074	404	-35.8	-42.8	271	23
2023-09-01T00:00	7106	403	-36.0	-43.3	271	23
2023-09-01T00:00	7124	401	-36.1	-42.4	270	24
2023-09-01T00:00	7147	400	-36.4	-41.5	270	24
2023-09-01T00:00	7176	399	-36.6	-40.6	270	25
2023-09-01T00:00	7193	398	-36.8	-40.6	270	25
2023-09-01T00:00	7212	396	-36.9	-40.4	270	26
2023-09-01T00:00	7230	395	-37.0	-40.0	270	26
2023-09-01T00:00	7249	394	-37.2	-40.7	270	26
2023-09-01T00:00	7268	393	-37.3	-40.9	270	25
2023-09-01T00:00	7287	392	-37.5	-41.3	269	26
2023-09-01T00:00	7307	391	-37.6	-41.9	269	26
2023-09-01T00:00	7337	389	-37.8	-42.0	268	27
2023-09-01T00:00	7364	388	-37.8	-44.1	268	28
2023-09-01T00:00	7383	387	-37.7	-45.0	269	29
2023-09-01T00:00	7416	385	-37.9	-44.9	270	30
2023-09-01T00:00	7439	384	-38.0	-45.3	272	30
2023-09-01T00:00	7460	382	-38.0	-46.1	273	31
2023-09-01T00:00	7481	381	-38.0	-47.3	274	32
2023-09-01T00:00	7503	380	-37.9	-48.3	274	32
2023-09-01T00:00	7531	379	-38.0	-48.9	274	33
2023-09-01T00:00	7561	377	-38.2	-49.7	274	34
2023-09-01T00:00	7590	375	-38.1	-51.7	274	35
2023-09-01T00:00	7626	373	-37.5	-56.5	274	35
2023-09-01T00:00	7652	372	-37.2	-56.7	275	36
2023-09-01T00:00	7671	371	-37.1	-56.3	276	36
2023-09-01T00:00	7692	370	-37.2	-56.4	276	36
2023-09-01T00:00	7710	369	-37.0	-56.8	276	36
2023-09-01T00:00	7731	368	-36.7	-57.6	275	36
2023-09-01T00:00	7752	367	-36.6	-57.8	275	36
2023-09-01T00:00	7772	365	-36.5	-57.9	275	36
2023-09-01T00:00	7798	364	-36.7	-58.1	275	36
2023-09-01T00:00	7831	362	-36.7	-58.1	275	36
2023-09-01T00:00	7871	360	-36.8	-58.1	275	36
2023-09-01T00:00	7897	359	-37.0	-58.4	276	35
2023-09-01T00:00	7918	358	-37.1	-58.3	276	35
2023-09-01T00:00	7948	356	-37.3	-58.3	276	35
2023-09-01T00:00	7971	355	-37.5	-58.4	276	35
2023-09-01T00:00	7991	354	-37.7	-58.6	276	35
2023-09-01T00:00	8010	353	-37.9	-58.6	276	35
2023-09-01T00:00	8030	352	-38.0	-58.7	276	35
2023-09-01T00:00	8052	351	-38.0	-58.9	275	35
2023-09-01T00:00	8069	350	-38.0	-59.0	275	35
2023-09-01T00:00	8089	349	-37.9	-59.1	275	34
2023-09-01T00:00	8109	348	-37.9	-59.3	275	34
2023-09-01T00:00	8130	347	-38.0	-59.5	275	33
2023-09-01T00:00	8157	346	-38.1	-59.5	276	33
2023-09-01T00:00	8188	344	-38.4	-59.6	276	33
2023-09-01T00:00	8215	343	-38.5	-59.7	277	34
2023-09-01T00:00	8252	341	-38.8	-59.7	278	34
2023-09-01T00:00	8276	340	-39.0	-59.7	279	35
2023-09-01T00:00	8297	339	-39.1	-59.8	280	35
2023-09-01T00:00	8318	338	-39.1	-60.2	280	35
2023-09-01T00:00	8343	336	-39.0	-60.9	281	36
2023-09-01T00:00	8370	335	-38.9	-61.2	281	36
2023-09-01T00:00	8405	334	-38.9	-61.3	281	37
2023-09-01T00:00	8421	333	-39.0	-61.5	281	37
2023-09-01T00:00	8446	331	-38.9	-61.6	281	37
2023-09-01T00:00	8467	330	-38.8	-61.7	281	37
2023-09-01T00:00	8490	329	-38.7	-62.1	281	36
2023-09-01T00:00	8511	328	-38.4	-62.4	281	36
2023-09-01T00:00	8532	327	-38.4	-62.4	281	36
2023-09-01T00:00	8553	326	-38.6	-62.4	281	36
2023-09-01T00:00	8575	325	-38.8	-62.7	281	36
2023-09-01T00:00	8598	324	-38.7	-63.2	281	36
2023-09-01T00:00	8623	323	-38.5	-63.5	281	36
2023-09-01T00:00	8651	322	-38.7	-63.7	280	36
2023-09-01T00:00	8690	320	-38.8	-63.9	280	36
2023-09-01T00:00	8718	319	-39.0	-64.1	279	36
2023-09-01T00:00	8739	318	-39.2	-64.1	279	37
2023-09-01T00:00	8760	316	-39.4	-64.1	279	37
2023-09-01T00:00	8792	315	-39.6	-64.2	279	37
2023-09-01T00:00	8811	314	-39.7	-64.3	279	38
2023-09-01T00:00	8831	313	-39.8	-64.5	279	38
2023-09-01T00:00	8853	312	-39.9	-64.5	279	39
2023-09-01T00:00	8873	311	-40.1	-64.5	279	39
2023-09-01T00:00	8894	310	-40.3	-64.6	279	39
2023-09-01T00:00	8924	309	-40.3	-64.9	279	39
2023-09-01T00:00	8946	308	-40.2	-65.4	279	40
2023-09-01T00:00	8971	307	-40.2	-65.5	280	40
2023-09-01T00:00	8996	306	-40.2	-65.7	281	41
2023-09-01T00:00	9017	305	-40.1	-65.8	281	41
2023-09-01T00:00	9043	304	-40.1	-66.0	282	42
2023-09-01T00:00	9076	302	-40.0	-66.5	282	42
2023-09-01T00:00	9101	301	-40.0	-66.9	283	41
2023-09-01T00:00	9129	300	-40.0	-67.1	284	41
2023-09-01T00:00	9161	299	-40.0	-67.4	284	42
2023-09-01T00:00	9188	297	-40.1	-67.5	285	42
2023-09-01T00:00	9217	296	-40.1	-67.9	285	42
2023-09-01T00:00	9249	295	-40.2	-68.3	285	42
2023-09-01T00:00	9279	293	-40.3	-68.3	285	41
2023-09-01T00:00	9310	292	-40.5	-68.7	284	41
2023-09-01T00:00	9331	291	-40.5	-68.7	284	40
2023-09-01T00:00	9358	290	-40.7	-68.9	283	38
2023-09-01T00:00	9376	289	-40.8	-69.0	282	37
2023-09-01T00:00	9395	288	-40.5	-69.0	282	37
2023-09-01T00:00	9416	288	-39.9	-68.8	282	36
2023-09-01T00:00	9436	287	-39.9	-68.5	282	36
2023-09-01T00:00	9455	286	-40.0	-68.6	282	36
2023-09-01T00:00	9474	285	-40.0	-68.6	282	35
2023-09-01T00:00	9493	284	-40.0	-68.9	282	35
2023-09-01T00:00	9514	283	-40.1	-69.3	283	34
2023-09-01T00:00	9535	283	-40.1	-69.9	283	34
2023-09-01T00:00	9553	282	-40.2	-70.3	283	33
2023-09-01T00:00	9573	281	-40.1	-70.2	283	33
2023-09-01T00:00	9592	280	-40.2	-70.6	284	33
2023-09-01T00:00	9612	279	-40.2	-70.6	283	32
2023-09-01T00:00	9631	279	-40.2	-71.0	282	32
2023-09-01T00:00	9651	278	-40.3	-71.1	281	32
2023-09-01T00:00	9685	277	-40.1	-70.9	279	31
2023-09-01T00:00	9707	276	-40.1	-70.9	278	31
2023-09-01T00:00	9729	275	-40.1	-70.9	277	31
2023-09-01T00:00	9751	274	-40.3	-71.1	276	30
2023-09-01T00:00	9771	273	-40.4	-71.1	275	29
2023-09-01T00:00	9790	272	-40.4	-71.1	274	29
2023-09-01T00:00	9810	271	-40.3	-71.4	274	28
2023-09-01T00:00	9831	271	-40.2	-71.4	273	28
2023-09-01T00:00	9851	270	-40.3	-71.8	273	28
2023-09-01T00:00	9872	269	-40.4	-71.9	273	28
2023-09-01T00:00	9892	268	-40.4	-71.5	273	28
2023-09-01T00:00	9913	267	-40.5	-72.0	273	28
2023-09-01T00:00	9933	267	-40.6	-71.7	274	28
2023-09-01T00:00	9950	266	-40.7	-71.7	274	28
2023-09-01T00:00	9972	265	-40.8	-71.8	275	28
2023-09-01T00:00	9989	264	-40.9	-71.9	276	27
2023-09-01T00:00	10012	264	-41.0	-72.0	277	27
2023-09-01T00:00	10034	263	-40.9	-71.9	278	27
2023-09-01T00:00	10053	262	-41.0	-72.0	279	26
2023-09-01T00:00	10076	261	-40.8	-71.8	280	26
2023-09-01T00:00	10097	260	-40.8	-72.2	280	26
2023-09-01T00:00	10117	259	-40.9	-72.3	281	26
2023-09-01T00:00	10137	259	-40.9	-72.7	281	26
2023-09-01T00:00	10158	258	-41.0	-72.8	280	25
2023-09-01T00:00	10179	257	-41.1	-72.9	280	25
2023-09-01T00:00	10200	256	-41.1	-72.9	278	25
2023-09-01T00:00	10221	256	-41.2	-72.9	277	25
2023-09-01T00:00	10241	255	-41.0	-73.2	276	24
2023-09-01T00:00	10262	254	-41.1	-73.3	274	24
2023-09-01T00:00	10282	253	-41.1	-73.3	273	24
2023-09-01T00:00	10304	252	-41.2	-73.4	272	24
2023-09-01T00:00	10326	252	-41.3	-73.5	271	24
2023-09-01T00:00	10347	251	-41.4	-73.5	270	24
2023-09-01T00:00	10369	250	-41.4	-73.5	269	24
2023-09-01T00:00	10387	249	-41.4	-74.0	268	25
2023-09-01T00:00	10409	249	-41.4	-73.5	267	25
2023-09-01T00:00	10429	248	-41.5	-73.6	267	25
2023-09-01T00:00	10449	247	-41.3	-73.5	266	25
2023-09-01T00:00	10474	246	-41.3	-73.5	266	26
2023-09-01T00:00	10512	245	-41.4	-74.0	266	26
2023-09-01T00:00	10537	244	-41.6	-74.2	266	26
2023-09-01T00:00	10557	243	-41.8	-74.3	266	26
2023-09-01T00:00	10576	242	-41.9	-74.4	266	27
2023-09-01T00:00	10597	242	-42.0	-74.5	266	27
2023-09-01T00:00	10617	241	-42.0	-75.0	267	27
2023-09-01T00:00	10638	240	-42.0	-75.0	268	27
2023-09-01T00:00	10658	240	-42.0	-75.0	269	26
2023-09-01T00:00	10679	239	-42.0	-75.0	271	26
2023-09-01T00:00	10701	238	-41.9	-74.9	271	25
2023-09-01T00:00	10726	237	-41.6	-74.7	272	24
2023-09-01T00:00	10750	236	-41.3	-75.0	273	23
2023-09-01T00:00	10769	236	-41.0	-74.2	273	22
2023-09-01T00:00	10789	235	-40.9	-74.2	273	22
2023-09-01T00:00	10809	234	-40.9	-74.7	274	21
2023-09-01T00:00	10832	234	-40.7	-74.6	274	20
2023-09-01T00:00	10856	233	-40.7	-74.6	274	20
2023-09-01T00:00	10876	232	-40.6	-74.5	273	19
2023-09-01T00:00	10896	231	-40.4	-75.0	272	19
2023-09-01T00:00	10917	231	-40.4	-75.0	272	19
2023-09-01T00:00	10937	230	-40.5	-75.0	272	18
2023-09-01T00:00	10957	229	-40.6	-75.1	272	18
2023-09-01T00:00	10977	229	-40.7	-75.2	272	19
2023-09-01T00:00	10999	228	-40.9	-75.3	271	19
2023-09-01T00:00	11022	227	-40.9	-75.3	270	19
2023-09-01T00:00	11046	226	-41.0	-74.8	270	20
2023-09-01T00:00	11072	225	-41.2	-74.9	269	20
2023-09-01T00:00	11096	225	-41.4	-75.1	269	20
2023-09-01T00:00	11122	224	-41.6	-75.2	268	20
2023-09-01T00:00	11143	223	-41.8	-75.4	268	20
2023-09-01T00:00	11166	222	-42.0	-75.5	267	21
2023-09-01T00:00	11186	222	-42.2	-75.7	265	21
2023-09-01T00:00	11209	221	-42.3	-75.8	264	21
2023-09-01T00:00	11230	220	-42.4	-75.8	263	21
2023-09-01T00:00	11253	220	-42.5	-75.9	263	22
2023-09-01T00:00	11276	219	-42.6	-76.0	264	22
2023-09-01T00:00	11297	218	-42.7	-76.0	265	22
2023-09-01T00:00	11319	217	-42.8	-76.1	267	22
2023-09-01T00:00	11341	217	-42.8	-75.6	268	22
2023-09-01T00:00	11362	216	-42.9	-75.6	269	22
2023-09-01T00:00	11382	215	-42.9	-75.6	270	22
2023-09-01T00:00	11403	215	-43.0	-75.7	270	22
2023-09-01T00:00	11425	214	-43.1	-75.8	270	23
2023-09-01T00:00	11444	213	-43.0	-75.7	269	23
2023-09-01T00:00	11464	213	-42.8	-75.6	269	23
2023-09-01T00:00	11485	212	-42.9	-75.6	268	23
2023-09-01T00:00	11505	211	-43.1	-75.8	268	23
2023-09-01T00:00	11523	211	-43.2	-75.9	268	23
2023-09-01T00:00	11544	210	-43.1	-75.8	269	23
2023-09-01T00:00	11562	210	-43.2	-75.9	269	22
2023-09-01T00:00	11581	209	-42.9	-76.2	270	22
2023-09-01T00:00	11602	208	-42.9	-76.2	271	22
2023-09-01T00:00	11623	208	-42.8	-76.1	271	22
2023-09-01T00:00	11640	207	-42.5	-75.9	272	21
2023-09-01T00:00	11661	207	-42.3	-76.4	273	21
2023-09-01T00:00	11682	206	-42.4	-76.4	274	21
2023-09-01T00:00	11699	205	-42.5	-76.5	275	21
2023-09-01T00:00	11716	205	-42.5	-75.9	276	21
2023-09-01T00:00	11737	204	-42.7	-76.0	277	21
2023-09-01T00:00	11757	204	-42.8	-76.7	278	21
2023-09-01T00:00	11775	203	-42.8	-76.7	278	21
2023-09-01T00:00	11797	202	-42.8	-76.7	278	21
2023-09-01T00:00	11817	202	-42.9	-76.8	278	20
2023-09-01T00:00	11839	201	-42.8	-76.7	277	20
2023-09-01T00:00	11860	201	-42.8	-76.7	276	20
2023-09-01T00:00	11880	200	-42.9	-76.8	275	19
2023-09-01T00:00	11901	199	-43.0	-76.9	274	19
2023-09-01T00:00	11922	199	-43.1	-76.9	273	19
2023-09-01T00:00	11942	198	-43.2	-77.0	272	18
2023-09-01T00:00	11963	198	-43.4	-77.2	272	18
2023-09-01T00:00	11985	197	-43.4	-77.2	271	18
2023-09-01T00:00	12004	196	-43.3	-77.1	271	18
2023-09-01T00:00	12026	196	-43.3	-77.1	270	18
2023-09-01T00:00	12045	195	-43.4	-77.2	269	18
2023-09-01T00:00	12066	195	-43.4	-77.2	268	17
2023-09-01T00:00	12089	194	-43.4	-77.2	267	17
2023-09-01T00:00	12110	193	-43.4	-77.2	266	17
2023-09-01T00:00	12132	193	-43.4	-77.2	265	17
2023-09-01T00:00	12152	192	-43.4	-77.8	265	17
2023-09-01T00:00	12172	191	-43.5	-77.9	265	17
2023-09-01T00:00	12197	191	-43.4	-77.8	265	17
2023-09-01T00:00	12218	190	-43.6	-78.0	264	18
2023-09-01T00:00	12242	190	-43.8	-77.4	264	18
2023-09-01T00:00	12264	189	-44.0	-77.6	264	18
2023-09-01T00:00	12285	188	-44.1	-77.7	264	19
2023-09-01T00:00	12308	188	-44.2	-77.7	263	19
2023-09-01T00:00	12329	187	-44.3	-77.8	263	19
2023-09-01T00:00	12349	186	-44.4	-77.9	264	19
2023-09-01T00:00	12371	186	-44.6	-78.0	264	19
2023-09-01T00:00	12392	185	-44.8	-78.2	264	20
2023-09-01T00:00	12413	185	-45.0	-77.7	264	19
2023-09-01T00:00	12438	184	-45.0	-77.7	264	19
2023-09-01T00:00	12459	183	-45.2	-77.9	264	19
2023-09-01T00:00	12484	183	-45.2	-77.9	264	19
2023-09-01T00:00	12509	182	-45.3	-78.0	264	19
2023-09-01T00:00	12530	182	-45.4	-78.0	263	19
2023-09-01T00:00	12551	181	-45.5	-78.1	263	20
2023-09-01T00:00	12575	180	-45.7	-78.2	263	20
2023-09-01T00:00	12600	180	-45.9	-78.4	263	20
2023-09-01T00:00	12622	179	-46.1	-78.5	263	20
2023-09-01T00:00	12644	178	-46.2	-78.1	263	20
2023-09-01T00:00	12668	178	-46.4	-78.2	263	19
2023-09-01T00:00	12689	177	-46.4	-78.8	263	19
2023-09-01T00:00	12710	177	-46.5	-78.8	263	18
2023-09-01T00:00	12731	176	-46.1	-79.1	263	18
2023-09-01T00:00	12753	176	-46.0	-79.1	263	18
2023-09-01T00:00	12773	175	-46.2	-79.2	262	19
2023-09-01T00:00	12795	174	-46.1	-79.1	262	19
2023-09-01T00:00	12817	174	-45.8	-78.9	261	19
2023-09-01T00:00	12837	173	-45.9	-78.4	261	18
2023-09-01T00:00	12859	173	-45.7	-78.2	261	18
2023-09-01T00:00	12877	172	-45.6	-78.8	262	17
2023-09-01T00:00	12897	172	-45.6	-78.8	262	17
2023-09-01T00:00	12918	171	-45.6	-78.8	263	16
2023-09-01T00:00	12939	171	-45.7	-78.8	264	16
2023-09-01T00:00	12959	170	-45.4	-79.3	265	16
2023-09-01T00:00	12979	170	-44.8	-78.8	267	16
2023-09-01T00:00	13001	169	-44.7	-78.8	268	16
2023-09-01T00:00	13021	169	-44.6	-78.7	270	15
2023-09-01T00:00	13041	168	-44.6	-78.7	271	15
2023-09-01T00:00	13060	168	-44.7	-78.8	272	15
2023-09-01T00:00	13081	167	-44.8	-78.8	273	15
2023-09-01T00:00	13102	167	-44.9	-78.9	273	15
2023-09-01T00:00	13124	166	-45.0	-79.0	272	15
2023-09-01T00:00	13147	165	-45.2	-79.1	272	14
2023-09-01T00:00	13167	165	-45.3	-79.2	271	14
2023-09-01T00:00	13188	164	-45.5	-79.3	271	14
2023-09-01T00:00	13210	164	-45.7	-79.5	271	14
2023-09-01T00:00	13230	163	-45.9	-79.6	270	14
2023-09-01T00:00	13252	163	-45.9	-79.6	270	13
2023-09-01T00:00	13273	162	-46.0	-79.7	269	13
2023-09-01T00:00	13296	162	-46.2	-79.8	267	12
2023-09-01T00:00	13319	161	-46.0	-79.7	266	12
2023-09-01T00:00	13339	161	-46.1	-79.8	264	12
2023-09-01T00:00	13358	160	-46.2	-79.8	262	12
2023-09-01T00:00	13380	160	-46.4	-80.0	259	12
2023-09-01T00:00	13404	159	-46.6	-80.1	258	12
2023-09-01T00:00	13422	159	-46.8	-80.3	257	12
2023-09-01T00:00	13445	158	-47.0	-79.8	257	12
2023-09-01T00:00	13467	158	-47.1	-79.9	257	12
2023-09-01T00:00	13487	157	-47.1	-79.9	256	12
2023-09-01T00:00	13506	157	-47.2	-80.6	255	12
2023-09-01T00:00	13529	156	-47.2	-80.6	253	12
2023-09-01T00:00	13547	156	-47.1	-80.5	251	12
2023-09-01T00:00	13570	155	-47.2	-80.6	249	12
2023-09-01T00:00	13590	155	-47.2	-80.6	246	12
2023-09-01T00:00	13609	154	-47.3	-80.6	245	12
2023-09-01T00:00	13630	154	-47.4	-80.7	244	13
2023-09-01T00:00	13651	153	-47.6	-80.2	244	13
2023-09-01T00:00	13670	153	-47.6	-80.2	244	13
2023-09-01T00:00	13691	152	-47.7	-80.3	245	13
2023-09-01T00:00	13711	152	-47.8	-80.4	246	13
2023-09-01T00:00	13733	151	-48.0	-81.2	248	13
2023-09-01T00:00	13752	151	-47.9	-81.1	249	13
2023-09-01T00:00	13775	151	-47.8	-81.0	250	14
2023-09-01T00:00	13798	150	-47.7	-80.9	251	14
2023-09-01T00:00	13819	150	-47.8	-81.0	252	14
2023-09-01T00:00	13842	149	-47.6	-80.9	252	14
2023-09-01T00:00	13862	149	-47.4	-80.7	253	14
2023-09-01T00:00	13885	148	-47.6	-80.9	254	14
2023-09-01T00:00	13908	148	-47.5	-80.8	256	14
2023-09-01T00:00	13930	147	-47.6	-80.9	258	14
2023-09-01T00:00	13952	147	-47.7	-80.9	260	14
2023-09-01T00:00	13974	146	-47.8	-81.0	262	14
2023-09-01T00:00	13998	146	-47.8	-81.0	263	13
2023-09-01T00:00	14020	145	-47.7	-80.9	263	13
2023-09-01T00:00	14042	145	-47.8	-81.0	263	13
2023-09-01T00:00	14067	144	-47.6	-80.9	263	13
2023-09-01T00:00	14090	144	-47.8	-81.0	263	13
2023-09-01T00:00	14111	143	-47.9	-81.1	263	13
2023-09-01T00:00	14135	143	-47.8	-81.0	262	14
2023-09-01T00:00	14158	142	-47.8	-81.0	262	14
2023-09-01T00:00	14179	142	-47.9	-81.1	261	14
2023-09-01T00:00	14203	141	-47.9	-81.1	261	14
2023-09-01T00:00	14225	141	-48.1	-81.2	261	15
2023-09-01T00:00	14247	140	-48.0	-81.2	261	15
2023-09-01T00:00	14269	140	-48.0	-81.2	262	15
2023-09-01T00:00	14291	139	-47.7	-81.6	263	15
2023-09-01T00:00	14312	139	-47.5	-81.5	264	14
2023-09-01T00:00	14338	138	-47.4	-81.4	265	14
2023-09-01T00:00	14359	138	-47.4	-81.4	266	13
2023-09-01T00:00	14384	137	-47.6	-81.6	267	13
2023-09-01T00:00	14408	137	-47.7	-81.6	268	12
2023-09-01T00:00	14432	136	-47.7	-81.6	268	11
2023-09-01T00:00	14452	136	-47.8	-81.7	267	11
2023-09-01T00:00	14478	135	-48.1	-81.9	267	10
2023-09-01T00:00	14502	135	-48.0	-81.9	266	10
2023-09-01T00:00	14524	134	-48.2	-82.0	265	9
2023-09-01T00:00	14548	134	-48.3	-82.1	265	9
2023-09-01T00:00	14571	133	-48.4	-81.4	264	8
2023-09-01T00:00	14595	133	-48.6	-81.6	263	8
2023-09-01T00:00	14616	132	-48.7	-81.7	262	8
2023-09-01T00:00	14640	132	-48.9	-81.8	261	8
2023-09-01T00:00	14661	132	-49.1	-82.0	261	8
2023-09-01T00:00	14681	131	-49.1	-82.0	260	8
2023-09-01T00:00	14703	131	-49.2	-82.0	260	8
2023-09-01T00:00	14724	130	-49.0	-81.9	258	8
2023-09-01T00:00	14748	130	-49.1	-82.0	256	8
2023-09-01T00:00	14770	129	-48.9	-82.5	253	9
2023-09-01T00:00	14796	129	-48.8	-82.4	250	9
2023-09-01T00:00	14816	129	-48.7	-82.4	249	9
2023-09-01T00:00	14838	128	-48.9	-82.5	248	9
2023-09-01T00:00	14862	128	-49.0	-82.6	248	9
2023-09-01T00:00	14885	127	-49.2	-82.7	250	10
2023-09-01T00:00	14908	127	-48.7	-82.4	252	10
2023-09-01T00:00	14931	126	-48.6	-82.3	254	10
2023-09-01T00:00	14955	126	-48.3	-82.1	257	10
2023-09-01T00:00	14976	125	-48.2	-82.0	258	10
2023-09-01T00:00	15000	125	-48.3	-82.1	259	9
2023-09-01T00:00	15022	125	-48.3	-82.1	259	9
2023-09-01T00:00	15049	124	-48.3	-82.1	257	8
2023-09-01T00:00	15073	124	-47.9	-82.6	255	8
2023-09-01T00:00	15097	123	-47.8	-82.5	253	7
2023-09-01T00:00	15119	123	-47.9	-81.8	251	7
2023-09-01T00:00	15143	122	-48.0	-81.9	251	7
2023-09-01T00:00	15165	122	-48.2	-82.0	250	8
2023-09-01T00:00	15190	121	-48.4	-82.2	249	8
2023-09-01T00:00	15218	121	-48.6	-82.3	247	9
2023-09-01T00:00	15247	120	-48.8	-82.4	245	9
2023-09-01T00:00	15271	120	-49.0	-82.6	244	10
2023-09-01T00:00	15293	120	-49.2	-82.7	242	10
2023-09-01T00:00	15320	119	-49.5	-82.3	242	11
2023-09-01T00:00	15343	119	-49.7	-82.4	241	11
2023-09-01T00:00	15368	118	-49.8	-82.5	240	10
2023-09-01T00:00	15389	118	-49.9	-82.5	240	10
2023-09-01T00:00	15412	117	-50.1	-82.7	240	9
2023-09-01T00:00	15434	117	-49.9	-83.2	239	9
2023-09-01T00:00	15456	117	-49.4	-82.9	238	8
2023-09-01T00:00	15480	116	-49.1	-82.7	236	7
2023-09-01T00:00	15502	116	-49.1	-82.7	234	7
2023-09-01T00:00	15525	115	-49.1	-82.7	230	6
2023-09-01T00:00	15551	115	-49.0	-82.6	225	6
2023-09-01T00:00	15572	115	-49.0	-82.6	220	6
2023-09-01T00:00	15596	114	-49.2	-82.7	215	6
2023-09-01T00:00	15617	114	-49.4	-82.2	211	6
2023-09-01T00:00	15639	113	-49.5	-82.3	208	6
2023-09-01T00:00	15661	113	-49.7	-82.4	206	6
2023-09-01T00:00	15682	113	-49.9	-82.5	207	7
2023-09-01T00:00	15704	112	-50.1	-82.7	208	7
2023-09-01T00:00	15725	112	-50.2	-82.8	211	7
2023-09-01T00:00	15746	112	-50.4	-82.9	214	7
2023-09-01T00:00	15767	111	-50.4	-82.9	218	7
2023-09-01T00:00	15786	111	-50.6	-83.1	221	7
2023-09-01T00:00	15807	110	-50.6	-83.1	223	7
2023-09-01T00:00	15827	110	-50.5	-83.0	224	8
2023-09-01T00:00	15850	110	-50.4	-82.9	222	8
2023-09-01T00:00	15871	109	-50.4	-82.9	220	8
2023-09-01T00:00	15892	109	-50.4	-82.9	218	8
2023-09-01T00:00	15912	109	-50.2	-83.5	217	9
2023-09-01T00:00	15933	108	-50.1	-83.4	217	9
2023-09-01T00:00	15954	108	-50.2	-83.5	219	9
2023-09-01T00:00	15979	108	-49.9	-83.2	221	9
2023-09-01T00:00	15998	107	-49.8	-83.2	222	9
2023-09-01T00:00	16017	107	-49.6	-83.0	223	9
2023-09-01T00:00	16041	107	-49.7	-83.1	224	9
2023-09-01T00:00	16063	106	-49.8	-83.2	224	9
2023-09-01T00:00	16087	106	-49.6	-83.0	225	9
2023-09-01T00:00	16109	106	-49.4	-83.7	224	8
2023-09-01T00:00	16133	105	-49.5	-83.7	223	7
2023-09-01T00:00	16154	105	-49.3	-83.6	221	6
2023-09-01T00:00	16179	104	-49.0	-83.4	219	6
2023-09-01T00:00	16202	104	-48.9	-83.3	218	5
2023-09-01T00:00	16225	104	-48.6	-83.1	220	5
2023-09-01T00:00	16251	103	-48.6	-83.1	223	5
2023-09-01T00:00	16272	103	-48.6	-83.1	226	5
2023-09-01T00:00	16295	103	-48.7	-83.2	229	6
2023-09-01T00:00	16318	102	-48.8	-83.2	232	6
2023-09-01T00:00	16343	102	-48.9	-83.3	233	6
2023-09-01T00:00	16365	101	-49.0	-83.4	234	6
2023-09-01T00:00	16388	101	-49.1	-82.7	235	6
2023-09-01T00:00	16410	101	-49.4	-82.9	236	6
2023-09-01T00:00	16437	100	-49.6	-83.0	236	7
2023-09-01T00:00	16461	100	-49.7	-83.1	236	7
2023-09-01T00:00	16486	100	-50.0	-83.3	235	7
2023-09-01T00:00	16511	99	-50.1	-83.4	234	7
2023-09-01T00:00	16536	99	-50.3	-83.5	232	7
2023-09-01T00:00	16558	99	-50.5	-83.7	230	7
2023-09-01T00:00	16582	98	-50.6	-83.7	229	7
2023-09-01T00:00	16607	98	-50.6	-83.7	228	7
2023-09-01T00:00	16633	97	-50.8	-83.9	227	7
2023-09-01T00:00	16655	97	-51.0	-84.0	227	7
2023-09-01T00:00	16677	97	-51.1	-84.1	226	6
2023-09-01T00:00	16700	96	-51.2	-84.2	225	6
2023-09-01T00:00	16725	96	-51.2	-84.2	224	6
2023-09-01T00:00	16748	96	-51.3	-84.3	223	6
2023-09-01T00:00	16772	95	-51.3	-83.6	221	6
2023-09-01T00:00	16797	95	-51.4	-83.6	218	6
2023-09-01T00:00	16822	95	-51.5	-83.7	216	6
2023-09-01T00:00	16845	94	-51.7	-83.9	214	6
2023-09-01T00:00	16868	94	-51.9	-84.0	214	6
2023-09-01T00:00	16894	94	-51.9	-84.0	214	7
2023-09-01T00:00	16917	93	-51.9	-84.7	216	7
2023-09-01T00:00	16941	93	-51.6	-84.5	218	7
2023-09-01T00:00	16964	93	-51.4	-84.3	222	7
2023-09-01T00:00	16986	92	-51.5	-84.4	226	7
2023-09-01T00:00	17007	92	-51.3	-84.3	230	8
2023-09-01T00:00	17030	92	-51.3	-84.3	234	8
2023-09-01T00:00	17055	91	-51.5	-84.4	238	7
2023-09-01T00:00	17077	91	-51.6	-84.5	242	7
2023-09-01T00:00	17100	91	-51.7	-84.5	247	7
2023-09-01T00:00	17124	90	-51.5	-84.4	251	7
2023-09-01T00:00	17147	90	-51.4	-84.3	254	6
2023-09-01T00:00	17169	90	-51.2	-84.2	256	6
2023-09-01T00:00	17194	89	-51.0	-84.8	256	5
2023-09-01T00:00	17222	89	-50.6	-84.5	255	4
2023-09-01T00:00	17250	89	-50.5	-84.5	252	4
2023-09-01T00:00	17275	88	-50.5	-84.5	246	3
2023-09-01T00:00	17303	88	-50.5	-83.7	237	2
2023-09-01T00:00	17328	88	-50.7	-83.8	225	2
2023-09-01T00:00	17350	87	-50.9	-84.0	214	2
2023-09-01T00:00	17373	87	-51.1	-84.1	207	3
2023-09-01T00:00	17396	87	-51.2	-84.2	202	3
2023-09-01T00:00	17419	86	-51.3	-84.3	199	3
2023-09-01T00:00	17442	86	-51.5	-84.4	196	4
2023-09-01T00:00	17467	86	-51.6	-84.5	195	4
2023-09-01T00:00	17488	85	-51.7	-84.5	194	4
2023-09-01T00:00	17510	85	-51.7	-84.5	194	5
2023-09-01T00:00	17537	85	-51.9	-84.7	195	5
2023-09-01T00:00	17560	84	-51.9	-84.7	197	5
2023-09-01T00:00	17582	84	-51.9	-84.7	201	4
2023-09-01T00:00	17606	84	-51.9	-84.7	205	4
2023-09-01T00:00	17627	84	-51.9	-84.7	210	4
2023-09-01T00:00	17652	83	-51.9	-84.7	214	4
2023-09-01T00:00	17675	83	-51.8	-84.6	218	4
2023-09-01T00:00	17699	83	-51.7	-84.5	219	4
2023-09-01T00:00	17720	82	-51.6	-84.5	220	4
2023-09-01T00:00	17747	82	-51.4	-84.3	218	4
2023-09-01T00:00	17769	82	-51.6	-84.5	216	4
2023-09-01T00:00	17795	81	-51.7	-84.5	212	4
2023-09-01T00:00	17818	81	-51.8	-84.6	206	4
2023-09-01T00:00	17843	81	-51.9	-84.7	200	4
2023-09-01T00:00	17870	81	-52.0	-84.8	194	4
2023-09-01T00:00	17892	80	-52.1	-84.2	190	5
2023-09-01T00:00	17917	80	-52.3	-84.3	187	5
2023-09-01T00:00	17943	80	-52.5	-84.4	186	5
2023-09-01T00:00	17961	79	-52.7	-84.6	186	5
2023-09-01T00:00	17987	79	-52.8	-84.7	187	5
2023-09-01T00:00	18011	79	-52.7	-84.6	189	5
2023-09-01T00:00	18033	78	-52.7	-84.6	190	4
2023-09-01T00:00	18058	78	-52.5	-84.4	191	4
2023-09-01T00:00	18079	78	-52.5	-85.1	190	4
2023-09-01T00:00	18102	78	-52.5	-85.1	189	5
2023-09-01T00:00	18125	77	-52.5	-85.1	187	5
2023-09-01T00:00	18150	77	-52.6	-85.2	185	5
2023-09-01T00:00	18173	77	-52.5	-85.1	183	5
2023-09-01T00:00	18197	77	-52.5	-85.1	182	5
2023-09-01T00:00	18220	76	-52.6	-85.2	182	5
2023-09-01T00:00	18244	76	-52.6	-85.2	183	5
2023-09-01T00:00	18266	76	-52.7	-85.3	187	5
2023-09-01T00:00	18289	75	-52.7	-84.6	192	5
2023-09-01T00:00	18313	75	-52.9	-84.7	199	5
2023-09-01T00:00	18336	75	-52.9	-84.7	205	5
2023-09-01T00:00	18357	75	-52.9	-84.7	212	5
2023-09-01T00:00	18381	74	-53.0	-84.8	217	5
2023-09-01T00:00	18405	74	-53.1	-84.9	221	5
2023-09-01T00:00	18429	74	-53.1	-84.9	224	5
2023-09-01T00:00	18446	74	-53.0	-85.5	227	5
2023-09-01T00:00	18475	73	-52.9	-85.4	230	5
2023-09-01T00:00	18497	73	-52.8	-85.3	234	5
2023-09-01T00:00	18519	73	-52.8	-85.3	236	5
2023-09-01T00:00	18545	73	-52.5	-85.1	237	4
2023-09-01T00:00	18570	72	-52.5	-85.1	236	4
2023-09-01T00:00	18590	72	-52.5	-85.1	233	4
2023-09-01T00:00	18614	72	-52.6	-85.2	226	4
2023-09-01T00:00	18635	71	-52.8	-85.3	219	3
2023-09-01T00:00	18660	71	-52.8	-85.3	212	4
2023-09-01T00:00	18683	71	-52.7	-85.3	207	4
2023-09-01T00:00	18708	71	-52.5	-85.1	202	4
2023-09-01T00:00	18729	70	-52.4	-85.1	198	4
2023-09-01T00:00	18751	70	-52.6	-85.2	195	5
2023-09-01T00:00	18775	70	-52.8	-85.3	193	5
2023-09-01T00:00	18800	70	-52.9	-85.4	192	5
2023-09-01T00:00	18820	69	-53.0	-85.5	192	6
2023-09-01T00:00	18841	69	-53.1	-85.6	194	6
2023-09-01T00:00	18870	69	-53.3	-85.7	196	6
2023-09-01T00:00	18894	69	-53.3	-85.7	200	6
2023-09-01T00:00	18917	68	-53.1	-85.6	204	5
2023-09-01T00:00	18939	68	-52.6	-85.2	210	5
2023-09-01T00:00	18963	68	-52.3	-85.0	217	4
2023-09-01T00:00	18983	68	-52.1	-85.6	225	4
2023-09-01T00:00	19009	67	-52.2	-85.7	234	4
2023-09-01T00:00	19032	67	-52.3	-85.0	242	3
2023-09-01T00:00	19059	67	-52.3	-85.0	250	3
2023-09-01T00:00	19081	67	-52.3	-85.0	256	3
2023-09-01T00:00	19106	66	-52.4	-85.1	260	3
2023-09-01T00:00	19129	66	-52.2	-84.9	262	3
2023-09-01T00:00	19158	66	-52.1	-84.8	260	3
2023-09-01T00:00	19181	66	-52.3	-85.0	254	2
2023-09-01T00:00	19211	65	-52.2	-84.9	242	2
2023-09-01T00:00	19234	65	-52.2	-84.9	218	1
2023-09-01T00:00	19258	65	-52.3	-85.0	187	1
2023-09-01T00:00	19283	65	-52.4	-85.1	168	2
2023-09-01T00:00	19306	64	-52.4	-85.1	160	2
2023-09-01T00:00	19333	64	-52.4	-85.1	160	3
2023-09-01T00:00	19359	64	-52.4	-85.1	162	3
2023-09-01T00:00	19383	64	-52.2	-84.9	165	4
2023-09-01T00:00	19405	63	-52.0	-84.8	169	4
2023-09-01T00:00	19430	63	-52.0	-84.8	173	5
2023-09-01T00:00	19453	63	-52.1	-84.8	176	5
2023-09-01T00:00	19478	63	-52.3	-85.0	179	6
2023-09-01T00:00	19505	63	-52.4	-85.1	182	6
2023-09-01T00:00	19528	62	-52.6	-85.2	185	6
2023-09-01T00:00	19557	62	-52.8	-85.3	190	7
2023-09-01T00:00	19578	62	-53.0	-85.5	196	7
2023-09-01T00:00	19602	62	-52.7	-85.3	203	7
2023-09-01T00:00	19624	61	-52.5	-85.1	211	7
2023-09-01T00:00	19651	61	-52.4	-85.1	218	7
2023-09-01T00:00	19676	61	-52.4	-85.1	226	7
2023-09-01T00:00	19698	61	-52.3	-85.8	233	6
2023-09-01T00:00	19721	60	-52.2	-85.7	241	6
2023-09-01T00:00	19748	60	-51.9	-85.5	248	6
2023-09-01T00:00	19772	60	-51.8	-85.4	254	5
2023-09-01T00:00	19793	60	-51.6	-85.2	259	5
2023-09-01T00:00	19819	60	-51.4	-85.1	262	4
2023-09-01T00:00	19841	59	-51.4	-85.1	263	4
2023-09-01T00:00	19868	59	-51.3	-85.0	262	3
2023-09-01T00:00	19893	59	-51.4	-85.1	259	3
2023-09-01T00:00	19917	59	-51.5	-85.2	254	2
2023-09-01T00:00	19939	58	-51.6	-85.2	247	2
2023-09-01T00:00	19963	58	-51.7	-85.3	233	1
2023-09-01T00:00	19989	58	-51.7	-85.3	207	1
2023-09-01T00:00	20013	58	-51.8	-85.4	182	1
2023-09-01T00:00	20037	58	-51.8	-85.4	170	1
2023-09-01T00:00	20061	57	-51.8	-85.4	166	2
2023-09-01T00:00	20083	57	-51.7	-85.3	166	2
2023-09-01T00:00	20110	57	-51.6	-85.2	163	2
2023-09-01T00:00	20130	57	-51.5	-85.2	157	2
2023-09-01T00:00	20155	57	-51.4	-85.1	147	2
2023-09-01T00:00	20179	56	-51.2	-85.0	134	2
2023-09-01T00:00	20203	56	-51.1	-84.9	117	1
2023-09-01T00:00	20229	56	-51.1	-84.9	87	1
2023-09-01T00:00	20251	56	-50.9	-84.7	37	1
2023-09-01T00:00	20274	56	-50.8	-84.7	4	1
2023-09-01T00:00	20301	55	-50.8	-84.7	353	1
2023-09-01T00:00	20324	55	-50.9	-84.7	353	1
2023-09-01T00:00	20352	55	-50.7	-84.6	1	1
2023-09-01T00:00	20376	55	-50.7	-84.6	19	1
2023-09-01T00:00	20402	54	-50.8	-84.7	54	1
2023-09-01T00:00	20426	54	-50.9	-84.7	95	1
2023-09-01T00:00	20453	54	-51.1	-84.9	118	2
2023-09-01T00:00	20476	54	-51.3	-85.0	128	2
2023-09-01T00:00	20503	54	-51.2	-85.0	132	3
2023-09-01T00:00	20530	53	-51.0	-84.8	135	4
2023-09-01T00:00	20558	53	-51.1	-84.9	137	5
2023-09-01T00:00	20581	53	-51.3	-85.0	139	6
2023-09-01T00:00	20601	53	-51.3	-85.0	142	6
2023-09-01T00:00	20629	53	-51.3	-85.0	145	6
2023-09-01T00:00	20657	52	-51.1	-84.9	149	6
2023-09-01T00:00	20681	52	-50.9	-84.7	153	6
2023-09-01T00:00	20705	52	-50.9	-84.7	157	5
2023-09-01T00:00	20731	52	-50.9	-84.7	161	5
2023-09-01T00:00	20760	52	-51.0	-84.8	166	4
2023-09-01T00:00	20784	51	-50.9	-84.7	170	4
2023-09-01T00:00	20812	51	-51.0	-84.8	173	3
2023-09-01T00:00	20838	51	-51.1	-84.9	175	3
2023-09-01T00:00	20860	51	-51.1	-84.9	176	3
2023-09-01T00:00	20886	51	-51.1	-84.9	178	2
2023-09-01T00:00	20916	50	-51.3	-85.0	181	2
2023-09-01T00:00	20941	50	-51.4	-85.1	185	2
2023-09-01T00:00	20968	50	-51.4	-85.1	190	2
2023-09-01T00:00	20993	50	-51.5	-85.2	196	2
2023-09-01T00:00	21019	50	-51.3	-85.0	207	2
2023-09-01T00:00	21048	49	-51.2	-85.0	226	1
2023-09-01T00:00	21071	49	-51.1	-84.9	256	1
2023-09-01T00:00	21100	49	-51.1	-84.9	288	1
2023-09-01T00:00	21127	49	-51.2	-85.0	310	1
2023-09-01T00:00	21151	49	-51.1	-84.9	330	1
2023-09-01T00:00	21175	48	-51.1	-84.9	358	1
2023-09-01T00:00	21200	48	-51.2	-85.0	36	1
2023-09-01T00:00	21225	48	-51.2	-85.0	61	1
2023-09-01T00:00	21250	48	-51.2	-85.0	67	2
2023-09-01T00:00	21275	48	-51.2	-85.0	65	2
2023-09-01T00:00	21298	47	-51.3	-85.0	60	3
2023-09-01T00:00	21324	47	-51.5	-85.2	56	3
2023-09-01T00:00	21351	47	-51.6	-85.2	54	4
2023-09-01T00:00	21377	47	-51.7	-85.3	56	4
2023-09-01T00:00	21403	47	-51.8	-85.4	60	4
2023-09-01T00:00	21427	46	-52.0	-85.5	66	5
2023-09-01T00:00	21457	46	-52.2	-85.7	73	5
2023-09-01T00:00	21481	46	-52.2	-85.7	81	5
2023-09-01T00:00	21504	46	-52.0	-85.5	89	5
2023-09-01T00:00	21530	46	-51.9	-85.5	97	5
2023-09-01T00:00	21557	46	-51.9	-85.5	104	4
2023-09-01T00:00	21584	45	-52.0	-85.5	111	4
2023-09-01T00:00	21610	45	-52.1	-85.6	117	4
2023-09-01T00:00	21638	45	-52.3	-85.8	122	3
2023-09-01T00:00	21661	45	-52.4	-85.8	125	3
2023-09-01T00:00	21685	45	-52.1	-85.6	127	3
2023-09-01T00:00	21713	45	-51.9	-85.5	126	3
2023-09-01T00:00	21737	44	-51.9	-85.5	125	3
2023-09-01T00:00	21766	44	-51.8	-85.4	124	3
2023-09-01T00:00	21790	44	-51.8	-85.4	125	4
2023-09-01T00:00	21811	44	-51.8	-85.4	129	4
2023-09-01T00:00	21842	44	-51.7	-85.3	136	4
2023-09-01T00:00	21862	43	-51.7	-85.3	143	4
2023-09-01T00:00	21892	43	-51.8	-85.4	150	4
2023-09-01T00:00	21917	43	-51.9	-85.5	156	4
2023-09-01T00:00	21940	43	-51.8	-85.4	161	4
2023-09-01T00:00	21965	43	-51.7	-85.3	166	4
2023-09-01T00:00	21994	43	-51.7	-85.3	170	4
2023-09-01T00:00	22021	42	-51.9	-85.5	174	4
2023-09-01T00:00	22043	42	-51.9	-85.5	177	4
2023-09-01T00:00	22070	42	-51.9	-85.5	178	4
2023-09-01T00:00	22098	42	-51.9	-85.5	177	4
2023-09-01T00:00	22124	42	-51.9	-85.5	176	4
2023-09-01T00:00	22148	42	-51.9	-85.5	175	4
2023-09-01T00:00	22178	41	-51.8	-85.4	176	3
2023-09-01T00:00	22204	41	-51.8	-85.4	179	3
2023-09-01T00:00	22227	41	-51.7	-85.3	183	3
2023-09-01T00:00	22259	41	-51.7	-85.3	187	3
2023-09-01T00:00	22285	41	-51.7	-85.3	190	3
2023-09-01T00:00	22307	41	-51.6	-85.2	191	3
2023-09-01T00:00	22337	40	-51.5	-85.2	192	3
2023-09-01T00:00	22365	40	-51.6	-85.2	193	3
2023-09-01T00:00	22391	40	-51.6	-85.2	195	4
2023-09-01T00:00	22418	40	-51.6	-85.2	197	4
2023-09-01T00:00	22443	40	-51.7	-85.3	199	5
2023-09-01T00:00	22469	40	-51.8	-85.4	201	5
2023-09-01T00:00	22496	39	-51.7	-85.3	201	5
2023-09-01T00:00	22519	39	-51.5	-85.2	201	4
2023-09-01T00:00	22541	39	-51.4	-85.1	201	4
2023-09-01T00:00	22570	39	-51.5	-85.2	202	3
2023-09-01T00:00	22599	39	-51.7	-85.3	204	3
2023-09-01T00:00	22621	39	-51.6	-85.2	206	3
2023-09-01T00:00	22648	39	-51.7	-85.3	208	3
2023-09-01T00:00	22670	38	-51.7	-85.3	210	3
2023-09-01T00:00	22695	38	-51.7	-85.3	211	3
2023-09-01T00:00	22724	38	-51.7	-85.3	212	3
2023-09-01T00:00	22747	38	-51.7	-85.3	214	3
2023-09-01T00:00	22775	38	-51.6	-85.2	216	3
2023-09-01T00:00	22800	38	-51.6	-85.2	218	2
2023-09-01T00:00	22824	37	-51.8	-85.4	219	2
2023-09-01T00:00	22851	37	-51.9	-85.5	216	1
2023-09-01T00:00	22877	37	-51.8	-85.4	204	1
2023-09-01T00:00	22901	37	-51.7	-85.3	184	1
2023-09-01T00:00	22928	37	-51.7	-85.3	167	1
2023-09-01T00:00	22949	37	-51.5	-86.1	155	1
2023-09-01T00:00	22977	37	-51.4	-86.0	141	1
2023-09-01T00:00	23004	36	-51.3	-85.9	122	1
2023-09-01T00:00	23029	36	-51.2	-85.8	100	1
2023-09-01T00:00	23049	36	-51.3	-85.9	83	2
2023-09-01T00:00	23076	36	-51.3	-85.9	73	2
2023-09-01T00:00	23101	36	-51.4	-86.0	68	2
2023-09-01T00:00	23125	36	-51.2	-85.8	67	2
2023-09-01T00:00	23154	36	-51.2	-85.8	68	3
2023-09-01T00:00	23175	36	-51.1	-85.8	71	3
2023-09-01T00:00	23196	35	-51.1	-85.8	75	3
2023-09-01T00:00	23220	35	-51.0	-85.7	82	3
2023-09-01T00:00	23247	35	-50.9	-85.6	93	3
2023-09-01T00:00	23271	35	-50.8	-85.6	105	3
2023-09-01T00:00	23296	35	-50.8	-85.6	117	3
2023-09-01T00:00	23320	35	-50.8	-85.6	128	3
2023-09-01T00:00	23348	35	-50.9	-85.6	138	3
2023-09-01T00:00	23373	34	-51.0	-85.7	150	3
2023-09-01T00:00	23390	34	-50.7	-85.5	163	2
2023-09-01T00:00	23413	34	-50.5	-85.3	178	2
2023-09-01T00:00	23443	34	-50.3	-85.2	191	2
2023-09-01T00:00	23468	34	-50.2	-85.1	201	2
2023-09-01T00:00	23494	34	-50.1	-85.1	209	2
2023-09-01T00:00	23518	34	-50.1	-85.1	216	1
2023-09-01T00:00	23545	34	-50.1	-85.1	229	1
2023-09-01T00:00	23569	33	-49.9	-84.9	326	0
2023-09-01T00:00	23597	33	-49.9	-84.9	21	1
2023-09-01T00:00	23617	33	-49.8	-84.8	34	1
2023-09-01T00:00	23643	33	-49.9	-84.9	46	2
2023-09-01T00:00	23667	33	-50.1	-85.1	59	2
2023-09-01T00:00	23701	33	-50.1	-85.1	72	3
2023-09-01T00:00	23726	33	-50.0	-85.0	83	3
2023-09-01T00:00	23752	33	-49.5	-84.6	93	4
2023-09-01T00:00	23780	32	-49.3	-84.5	101	4
2023-09-01T00:00	23805	32	-49.4	-84.6	108	5
2023-09-01T00:00	23835	32	-49.5	-84.6	113	5
2023-09-01T00:00	23863	32	-49.7	-84.8	118	6
2023-09-01T00:00	23891	32	-49.7	-84.8	121	6
2023-09-01T00:00	23914	32	-49.7	-84.8	124	6
2023-09-01T00:00	23943	32	-49.6	-84.7	126	6
2023-09-01T00:00	23976	31	-49.3	-85.5	129	7
2023-09-01T00:00	24003	31	-49.0	-85.3	133	7
2023-09-01T00:00	24034	31	-49.0	-85.3	138	7
2023-09-01T00:00	24060	31	-49.0	-85.3	143	8
2023-09-01T00:00	24088	31	-49.1	-85.4	150	9
2023-09-01T00:00	24121	31	-49.0	-85.3	156	9
2023-09-01T00:00	24145	31	-48.8	-85.2	161	9
2023-09-01T00:00	24177	30	-48.7	-85.1	166	9
2023-09-01T00:00	24205	30	-48.9	-85.3	170	10
2023-09-01T00:00	24233	30	-49.0	-85.3	173	10
2023-09-01T00:00	24267	30	-49.1	-85.4	175	9
2023-09-01T00:00	24291	30	-49.0	-85.3	177	9
2023-09-01T00:00	24322	30	-48.9	-85.3	179	8
2023-09-01T00:00	24347	30	-48.8	-85.2	183	7
2023-09-01T00:00	24384	30	-48.9	-85.3	188	6
2023-09-01T00:00	24407	29	-48.9	-85.3	193	5
2023-09-01T00:00	24437	29	-48.9	-85.3	198	5
2023-09-01T00:00	24464	29	-48.9	-85.3	201	5
2023-09-01T00:00	24488	29	-48.9	-85.3	202	5
2023-09-01T00:00	24518	29	-48.8	-85.2	203	6
2023-09-01T00:00	24539	29	-48.8	-85.2	204	6
2023-09-01T00:00	24570	29	-48.9	-85.3	205	6
2023-09-01T00:00	24596	29	-48.7	-85.1	206	5
2023-09-01T00:00	24621	28	-48.4	-84.9	207	5
2023-09-01T00:00	24647	28	-48.3	-84.8	207	4
2023-09-01T00:00	24672	28	-48.1	-84.7	206	4
2023-09-01T00:00	24702	28	-47.8	-84.5	206	4
2023-09-01T00:00	24726	28	-48.0	-84.6	206	4
2023-09-01T00:00	24755	28	-48.2	-84.8	206	4
2023-09-01T00:00	24775	28	-48.5	-85.0	207	4
2023-09-01T00:00	24804	28	-48.7	-85.1	209	4
2023-09-01T00:00	24828	28	-48.8	-85.2	211	4
2023-09-01T00:00	24858	27	-48.7	-85.1	214	4
2023-09-01T00:00	24882	27	-48.6	-85.0	217	5
2023-09-01T00:00	24910	27	-48.7	-85.1	220	5
2023-09-01T00:00	24934	27	-48.7	-85.1	223	5
2023-09-01T00:00	24958	27	-48.7	-85.1	225	5
2023-09-01T00:00	24980	27	-48.7	-85.1	225	5
2023-09-01T00:00	25010	27	-48.6	-85.0	224	5
2023-09-01T00:00	25035	27	-48.7	-85.1	223	5
2023-09-01T00:00	25070	27	-48.6	-85.0	222	5
2023-09-01T00:00	25090	27	-48.3	-84.8	220	5
2023-09-01T00:00	25119	26	-48.0	-84.6	218	5
2023-09-01T00:00	25143	26	-47.9	-84.6	217	5
2023-09-01T00:00	25166	26	-47.9	-84.6	217	5
2023-09-01T00:00	25197	26	-48.0	-84.6	218	6
2023-09-01T00:00	25225	26	-47.9	-84.6	220	6
2023-09-01T00:00	25249	26	-47.8	-84.5	222	6
2023-09-01T00:00	25278	26	-47.8	-84.5	225	6
2023-09-01T00:00	25299	26	-47.8	-84.5	228	7
2023-09-01T00:00	25332	26	-47.8	-84.5	230	7
2023-09-01T00:00	25356	25	-47.8	-84.5	231	8
2023-09-01T00:00	25386	25	-47.9	-84.6	232	8
2023-09-01T00:00	25416	25	-47.8	-84.5	233	8
2023-09-01T00:00	25437	25	-47.9	-84.6	234	8
2023-09-01T00:00	25461	25	-47.8	-84.5	235	8
2023-09-01T00:00	25499	25	-47.6	-84.3	237	7
2023-09-01T00:00	25522	25	-47.6	-84.3	240	7
2023-09-01T00:00	25548	25	-47.6	-84.3	244	7
2023-09-01T00:00	25576	25	-47.6	-84.3	248	7
2023-09-01T00:00	25607	25	-47.4	-84.2	252	7
2023-09-01T00:00	25634	24	-47.2	-84.1	256	7
2023-09-01T00:00	25665	24	-47.0	-83.9	260	7
2023-09-01T00:00	25690	24	-47.0	-83.9	263	7
2023-09-01T00:00	25723	24	-47.0	-83.9	267	8
2023-09-01T00:00	25744	24	-47.0	-83.9	271	8
2023-09-01T00:00	25774	24	-47.2	-84.1	274	7
2023-09-01T00:00	25806	24	-47.3	-84.1	278	7
2023-09-01T00:00	25830	24	-47.4	-84.2	281	7
2023-09-01T00:00	25861	24	-47.3	-84.1	284	7
2023-09-01T00:00	25883	24	-47.3	-84.1	288	6
2023-09-01T00:00	25913	23	-47.3	-84.1	291	6
2023-09-01T00:00	25933	23	-47.2	-84.1	294	6
2023-09-01T00:00	25966	23	-47.1	-84.0	297	5
2023-09-01T00:00	25986	23	-47.1	-84.0	300	5
2023-09-01T00:00	26024	23	-47.1	-84.0	303	5
2023-09-01T00:00	26046	23	-47.0	-83.9	306	4
2023-09-01T00:00	26074	23	-47.0	-83.9	310	4
2023-09-01T00:00	26100	23	-47.0	-83.9	315	4
2023-09-01T00:00	26126	23	-46.9	-83.9	321	3
2023-09-01T00:00	26163	23	-46.8	-83.8	327	3
2023-09-01T00:00	26187	22	-46.5	-83.6	335	2
2023-09-01T00:00	26209	22	-46.3	-83.4	349	1
2023-09-01T00:00	26234	22	-46.2	-83.4	21	1
2023-09-01T00:00	26267	22	-46.1	-83.3	61	1
2023-09-01T00:00	26296	22	-46.0	-83.2	76	1
2023-09-01T00:00	26321	22	-46.1	-83.3	80	1
2023-09-01T00:00	26351	22	-46.0	-83.2	82	1
2023-09-01T00:00	26379	22	-46.1	-83.3	87	1
2023-09-01T00:00	26403	22	-46.2	-83.4	101	1
2023-09-01T00:00	26439	22	-46.3	-83.4	121	1
2023-09-01T00:00	26455	22	-46.3	-83.4	137	1
2023-09-01T00:00	26490	21	-46.3	-83.4	151	1
2023-09-01T00:00	26514	21	-46.4	-83.5	181	0
2023-09-01T00:00	26548	21	-46.1	-83.3	307	0
2023-09-01T00:00	26573	21	-46.1	-83.3	325	1
2023-09-01T00:00	26606	21	-45.9	-83.2	334	1
2023-09-01T00:00	26631	21	-45.8	-83.1	343	2
2023-09-01T00:00	26657	21	-45.6	-82.9	354	2
2023-09-01T00:00	26683	21	-45.6	-82.9	10	2
2023-09-01T00:00	26719	21	-45.5	-82.9	32	2
2023-09-01T00:00	26739	21	-45.1	-82.6	60	2
2023-09-01T00:00	26765	21	-45.2	-82.7	86	2
2023-09-01T00:00	26806	21	-45.2	-82.7	101	3
2023-09-01T00:00	26830	20	-45.2	-82.7	106	3
2023-09-01T00:00	26856	20	-45.3	-82.7	105	3
2023-09-01T00:00	26888	20	-45.2	-82.7	98	3
2023-09-01T00:00	26911	20	-44.8	-82.4	84	3
2023-09-01T00:00	26942	20	-44.6	-82.2	65	2
2023-09-01T00:00	26970	20	-44.6	-82.2	49	3
2023-09-01T00:00	26986	20	-44.7	-82.3	41	3
2023-09-01T00:00	27029	20	-44.8	-82.4	42	3
2023-09-01T00:00	27051	20	-44.7	-82.3	51	3
2023-09-01T00:00	27074	20	-44.6	-82.2	65	3
2023-09-01T00:00	27117	20	-44.3	-82.0	80	4
2023-09-01T00:00	27132	20	-44.2	-82.0	94	4
2023-09-01T00:00	27168	19	-44.2	-82.0	105	5
2023-09-01T00:00	27192	19	-44.3	-82.0	115	5
2023-09-01T00:00	27223	19	-44.3	-82.0	123	5
2023-09-01T00:00	27254	19	-44.3	-82.0	131	6
2023-09-01T00:00	27276	19	-44.4	-82.1	138	6
2023-09-01T00:00	27315	19	-44.2	-82.0	143	6
2023-09-01T00:00	27341	19	-44.3	-82.0	147	6
2023-09-01T00:00	27368	19	-44.5	-82.2	149	6
2023-09-01T00:00	27397	19	-44.6	-82.2	150	6
2023-09-01T00:00	27424	19	-44.4	-82.1	149	6
2023-09-01T00:00	27454	19	-44.2	-82.0	148	5
2023-09-01T00:00	27477	19	-44.3	-82.0	148	5
2023-09-01T00:00	27505	18	-44.3	-82.0	150	5
2023-09-01T00:00	27535	18	-43.9	-81.8	153	6
2023-09-01T00:00	27560	18	-43.9	-81.8	157	6
2023-09-01T00:00	27588	18	-44.0	-81.8	161	6
2023-09-01T00:00	27629	18	-44.1	-81.9	164	7
2023-09-01T00:00	27648	18	-44.3	-82.0	167	7
2023-09-01T00:00	27689	18	-44.5	-82.2	170	7
2023-09-01T00:00	27713	18	-44.7	-82.3	173	8
2023-09-01T00:00	27740	18	-44.8	-82.4	175	8
2023-09-01T00:00	27777	18	-45.0	-82.5	178	8
2023-09-01T00:00	27802	18	-45.1	-82.6	181	9
2023-09-01T00:00	27837	18	-45.3	-82.7	184	9
2023-09-01T00:00	27864	18	-45.5	-82.9	188	9
2023-09-01T00:00	27891	17	-45.7	-83.0	192	8
2023-09-01T00:00	27923	17	-45.8	-83.1	196	8
2023-09-01T00:00	27951	17	-45.8	-83.1	202	7
2023-09-01T00:00	27984	17	-45.8	-83.1	208	7
2023-09-01T00:00	28009	17	-45.8	-83.1	217	6
2023-09-01T00:00	28048	17	-45.8	-83.1	227	5
2023-09-01T00:00	28072	17	-45.5	-82.9	240	5
2023-09-01T00:00	28104	17	-45.1	-82.6	256	4
2023-09-01T00:00	28134	17	-44.8	-82.4	274	4
2023-09-01T00:00	28162	17	-44.3	-82.0	293	3
2023-09-01T00:00	28189	17	-44.2	-82.0	310	3
2023-09-01T00:00	28218	17	-44.1	-81.9	328	2
2023-09-01T00:00	28247	17	-44.0	-81.8	349	2
2023-09-01T00:00	28271	16	-43.4	-81.4	13	2
2023-09-01T00:00	28305	16	-43.3	-81.3	35	2
2023-09-01T00:00	28334	16	-43.1	-81.2	50	2
2023-09-01T00:00	28360	16	-42.9	-81.1	61	2
2023-09-01T00:00	28386	16	-42.6	-80.8	72	2
2023-09-01T00:00	28418	16	-42.6	-80.8	90	1
2023-09-01T00:00	28447	16	-42.7	-80.9	125	1
2023-09-01T00:00	28472	16	-42.9	-81.1	166	1
2023-09-01T00:00	28499	16	-43.1	-81.2	190	2
2023-09-01T00:00	28536	16	-43.3	-81.3	201	3
2023-09-01T00:00	28551	16	-43.4	-81.4	208	3
2023-09-01T00:00	28582	16	-43.6	-81.5	213	4
2023-09-01T00:00	28615	16	-43.8	-81.7	216	5
2023-09-01T00:00	28637	16	-44.0	-81.8	218	5
2023-09-01T00:00	28681	16	-44.1	-81.9	219	5
2023-09-01T00:00	28698	15	-44.1	-81.9	219	5
2023-09-01T00:00	28730	15	-43.9	-81.8	218	5
2023-09-01T00:00	28752	15	-43.8	-81.7	215	4
2023-09-01T00:00	28782	15	-43.9	-81.8	209	4
2023-09-01T00:00	28817	15	-43.8	-81.7	201	3
2023-09-01T00:00	28837	15	-44.0	-81.8	194	3
2023-09-01T00:00	28866	15	-44.0	-81.8	189	3
2023-09-01T00:00	28906	15	-44.0	-81.8	187	4
2023-09-01T00:00	28921	15	-43.7	-81.6	187	4
2023-09-01T00:00	28962	15	-43.4	-81.4	190	4
2023-09-01T00:00	28983	15	-43.4	-81.4	193	4
2023-09-01T00:00	29008	15	-43.4	-81.4	197	4
2023-09-01T00:00	29034	15	-43.4	-81.4	200	4
2023-09-01T00:00	29072	15	-43.5	-81.5	202	4
2023-09-01T00:00	29095	15	-43.5	-81.5	202	3
2023-09-01T00:00	29125	15	-43.4	-81.4	196	3
2023-09-01T00:00	29156	14	-43.4	-81.4	179	2
2023-09-01T00:00	29173	14	-43.4	-81.4	151	2
2023-09-01T00:00	29210	14	-43.4	-81.4	127	3
2023-09-01T00:00	29241	14	-43.4	-81.4	116	4
2023-09-01T00:00	29271	14	-43.3	-81.3	113	5
2023-09-01T00:00	29303	14	-42.9	-81.1	114	6
2023-09-01T00:00	29326	14	-42.8	-81.0	117	6
2023-09-01T00:00	29351	14	-42.7	-80.9	121	7
2023-09-01T00:00	29387	14	-42.8	-81.0	125	7
2023-09-01T00:00	29420	14	-42.9	-81.1	129	7
2023-09-01T00:00	29438	14	-43.1	-81.2	133	8
2023-09-01T00:00	29478	14	-43.2	-81.3	136	8
2023-09-01T00:00	29506	14	-43.4	-81.4	138	7
2023-09-01T00:00	29528	14	-43.5	-81.5	141	7
2023-09-01T00:00	29559	14	-43.6	-81.5	145	7
2023-09-01T00:00	29593	14	-43.7	-81.6	149	7
2023-09-01T00:00	29610	13	-44.0	-81.8	154	6
2023-09-01T00:00	29648	13	-44.1	-81.9	158	6
2023-09-01T00:00	29672	13	-44.2	-82.0	163	6
2023-09-01T00:00	29712	13	-44.4	-82.1	168	5
2023-09-01T00:00	29736	13	-44.6	-82.2	173	5
2023-09-01T00:00	29764	13	-44.7	-82.3	178	4
2023-09-01T00:00	29799	13	-44.9	-82.5	181	4
2023-09-01T00:00	29819	13	-44.9	-82.5	180	4
2023-09-01T00:00	29852	13	-44.9	-82.5	178	4
2023-09-01T00:00	29883	13	-44.5	-82.2	175	4
2023-09-01T00:00	29903	13	-44.6	-82.2	174	4
2023-09-01T00:00	29940	13	-44.7	-82.3	176	4
2023-09-01T00:00	29978	13	-44.6	-82.2	180	4
2023-09-01T00:00	30005	13	-44.4	-82.1	187	4
2023-09-01T00:00	30017	13	-44.4	-82.1	196	4
2023-09-01T00:00	30064	13	-44.4	-82.1	207	3
2023-09-01T00:00	30090	13	-44.5	-82.2	223	3
2023-09-01T00:00	30110	13	-44.5	-82.2	244	3
2023-09-01T00:00	30140	12	-44.2	-82.0	268	3
2023-09-01T00:00	30174	12	-43.9	-81.8	290	3
2023-09-01T00:00	30198	12	-43.7	-81.6	305	4
2023-09-01T00:00	30226	12	-43.4	-81.4	316	4
2023-09-01T00:00	30252	12	-42.9	-81.1	324	5
2023-09-01T00:00	30278	12	-42.7	-80.9	332	5
2023-09-01T00:00	30304	12	-42.5	-80.8	339	5
2023-09-01T00:00	30331	12	-42.4	-80.7	346	6
2023-09-01T00:00	30345	12	-42.1	-80.5	353	6
2023-09-01T00:00	30389	12	-41.9	-80.4	359	6
2023-09-01T00:00	30407	12	-41.7	-80.2	5	6
2023-09-01T00:00	30441	12	-41.5	-80.1	12	6
2023-09-01T00:00	30464	12	-40.9	-79.7	21	5
2023-09-01T00:00	30500	12	-40.9	-79.7	31	5
2023-09-01T00:00	30506	12	-40.9	-79.7	44	5
2023-09-01T00:00	30549	12	-40.8	-79.6	58	4
2023-09-01T00:00	30575	12	-40.8	-79.6	72	4
2023-09-01T00:00	30616	12	-40.9	-79.7	87	4
2023-09-01T00:00	30632	12	-41.1	-79.8	101	4
2023-09-01T00:00	30657	12	-41.1	-79.8	115	4
2023-09-01T00:00	30695	12	-41.2	-79.9	127	4
2023-09-01T00:00	30710	11	-41.1	-79.8	138	4
2023-09-01T00:00	30750	11	-41.1	-79.8	146	4
2023-09-01T00:00	30778	11	-41.1	-79.8	152	5
2023-09-01T00:00	30804	11	-41.0	-79.7	155	5
2023-09-01T00:00	30829	11	-41.1	-79.8	157	6
2023-09-01T00:00	30861	11	-41.3	-79.9	160	6
2023-09-01T00:00	30892	11	-41.4	-80.0	162	6
2023-09-01T00:00	30906	11	-41.6	-80.1	163	6
2023-09-01T00:00	30958	11	-41.8	-80.3	164	6
2023-09-01T00:00	30966	11	-42.0	-80.4	163	5
2023-09-01T00:00	31008	11	-42.1	-80.5	161	5
2023-09-01T00:00	31033	11	-42.2	-80.6	157	4
2023-09-01T00:00	31054	11	-42.1	-80.5	151	4
2023-09-01T00:00	31090	11	-41.8	-80.3	142	3
2023-09-01T00:00	31112	11	-41.7	-80.2	131	3
2023-09-01T00:00	31151	11	-41.6	-80.1	119	3
2023-09-01T00:00	31176	11	-41.4	-80.0	110	3
2023-09-01T00:00	31203	11	-40.8	-79.6	105	3
2023-09-01T00:00	31232	11	-40.7	-79.5	106	3
2023-09-01T00:00	31269	11	-40.5	-79.4	112	4
2023-09-01T00:00	31278	11	-40.4	-79.3	120	4
2023-09-01T00:00	31323	10	-40.3	-79.2	129	4
2023-09-01T00:00	31357	10	-40.3	-79.2	137	5
2023-09-01T00:00	31366	10	-40.4	-79.3	143	5
2023-09-01T00:00	31409	10	-40.5	-79.4	148	6
2023-09-01T00:00	31424	10	-40.6	-79.5	152	6
2023-09-01T00:00	31473	10	-40.7	-79.5	155	7
2023-09-01T00:00	31492	10	-40.9	-79.7	158	7
2023-09-01T00:00	31521	10	-41.0	-79.7	161	8
2023-09-01T00:00	31557	10	-41.2	-79.9	164	8
2023-09-01T00:00	31575	10	-41.0	-79.7	166	8
2023-09-01T00:00	31591	10	-40.9	-79.7	168	7
2023-09-01T00:00	31620	10	-40.9	-79.7	170	7
2023-09-01T00:00	31655	10	-41.0	-79.7	171	6
2023-09-01T00:00	31686	10	-41.0	-79.7	173	6
2023-09-01T00:00	31715	10	-41.0	-79.7	173	5
2023-09-01T00:00	31752	10	-41.1	-79.8	173	5
2023-09-01T00:00	31770	10	-41.2	-79.9	170	5
2023-09-01T00:00	31801	10	-41.3	-79.9	167	4
2023-09-01T00:00	31827	10	-41.3	-79.9	164	4
2023-09-01T00:00	31857	10	-41.3	-79.9	162	4
2023-09-01T00:00	31887	10	-41.3	-79.9	164	3
2023-09-01T00:00	31928	10	-41.2	-79.9	173	3
2023-09-01T00:00	31951	10	-40.9	-79.7	190	2
2023-09-01T00:00	31966	10	-40.6	-79.5	214	2
2023-09-01T00:00	32011	9	-40.4	-79.3	234	2
2023-09-01T00:00	32028	9	-40.2	-79.2	249	3
2023-09-01T00:00	32052	9	-40.2	-79.2	260	3
2023-09-01T00:00	32091	9	-40.2	-79.2	271	3
2023-09-01T00:00	32126	9	-40.0	-79.0	281	3
2023-09-01T00:00	32138	9	-40.0	-79.0	292	3
2023-09-01T00:00	32163	9	-40.0	-79.0	304	3
2023-09-01T00:00	32200	9	-39.9	-79.0	317	3
2023-09-01T00:00	32230	9	-39.7	-78.8	333	3
2023-09-01T00:00	32246	9	-39.6	-78.8	348	3
2023-09-01T00:00	32270	9	-39.7	-78.8	1	3
2023-09-01T00:00	32291	9	-39.7	-78.8	12	3
2023-09-01T00:00	32336	9	-39.5	-78.7	21	3
2023-09-01T00:00	32347	9	-39.4	-78.6	29	4
2023-09-01T00:00	32367	9	-39.3	-78.5	36	4
2023-09-01T00:00	32403	9	-39.3	-78.5	42	4
2023-09-01T00:00	32444	9	-39.2	-78.5	48	4
2023-09-01T00:00	32447	9	-39.3	-78.5	52	5
2023-09-01T00:00	32476	9	-39.1	-78.4	57	5
2023-09-01T00:00	32492	9	-39.0	-78.3	62	5
2023-09-01T00:00	32533	9	-39.1	-78.4	67	5
2023-09-01T00:00	32559	9	-39.1	-78.4	71	5
2023-09-01T00:00	32588	9	-39.1	-78.4	76	6
2023-09-01T00:00	32606	9	-39.0	-78.3	81	6
2023-09-01T00:00	32636	9	-38.7	-78.1	85	6
2023-09-01T00:00	32665	9	-38.7	-78.1	89	7
2023-09-01T00:00	32695	9	-38.8	-78.2	92	7
2023-09-01T00:00	32738	9	-38.9	-78.3	96	7
2023-09-01T00:00	32771	8	-39.1	-78.4	102	7
2023-09-01T00:00	32807	8	-39.1	-78.4	105	7
2023-09-01T00:00	32824	8	-39.2	-78.5	108	7
2023-09-01T00:00	32851	8	-39.2	-78.5	111	7
2023-09-01T00:00	32888	8	-39.3	-78.5	115	7
2023-09-01T00:00	32929	8	-39.5	-78.7	119	7
2023-09-01T00:00	32940	8	-39.7	-78.8	122	7
2023-09-01T00:00	32965	8	-39.9	-79.0	126	7
2023-09-01T00:00	33001	8	-40.1	-79.1	130	7
2023-09-01T00:00	33021	8	-40.2	-79.2	134	6
2023-09-01T00:00	33043	8	-40.5	-79.4	139	6
2023-09-01T00:00	33071	8	-40.6	-79.5	145	6
2023-09-01T00:00	33096	8	-40.8	-79.6	150	6
2023-09-01T00:00	33137	8	-40.9	-79.7	155	5
2023-09-01T00:00	33181	8	-41.1	-79.8	159	5
2023-09-01T00:00	33206	8	-41.1	-79.8	162	4
2023-09-01T00:00	33221	8	-41.0	-79.7	164	4
2023-09-01T00:00	33255	8	-40.7	-79.5	164	3
2023-09-01T00:00	33291	8	-40.6	-79.5	161	3
2023-09-01T00:00	33305	8	-40.5	-79.4	155	3
2023-09-01T00:00	33337	8	-40.5	-79.4	146	2
2023-09-01T00:00	33379	8	-40.2	-79.2	135	2
2023-09-01T00:00	33415	8	-40.2	-79.2	127	2
2023-09-01T06:00	113	1000	9.2	9.2	239	3
2023-09-01T06:00	143	997	9.8	9.1	243	5
2023-09-01T06:00	170	993	10.6	9.0	244	6
2023-09-01T06:00	193	990	11.9	8.8	247	7
2023-09-01T06:00	222	987	12.1	8.8	251	8
2023-09-01T06:00	248	984	12.6	8.4	255	8
2023-09-01T06:00	265	982	12.4	8.5	259	9
2023-09-01T06:00	288	980	12.3	8.4	264	8
2023-09-01T06:00	312	977	12.5	8.4	268	8
2023-09-01T06:00	337	974	12.4	8.5	272	8
2023-09-01T06:00	362	971	12.2	8.5	274	9
2023-09-01T06:00	382	968	12.2	8.6	276	9
2023-09-01T06:00	405	966	12.4		277	9
2023-09-01T06:00	429	963	12.3	8.5	277	9
2023-09-01T06:00	455	960	12.1	8.3	277	9
2023-09-01T06:00	479	957	12.0	8.3	277	9
2023-09-01T06:00	501	955	11.8	8.3	277	9
2023-09-01T06:00	528	952	11.5	8.2	277	9
2023-09-01T06:00	557	949	11.3	8.2	277	9
2023-09-01T06:00	581	946	11.1	8.1	276	9
2023-09-01T06:00	603	943	10.9	8.0	276	9
2023-09-01T06:00	631	940	10.7	7.7	276	9
2023-09-01T06:00	654	938	10.5	7.6	276	9
2023-09-01T06:00	675	935	10.3	7.4	276	9
2023-09-01T06:00	701	932	10.1	7.4	275	9
2023-09-01T06:00	723	930	9.9	7.4	276	9
2023-09-01T06:00	751	927	9.6	7.3	276	9
2023-09-01T06:00	776	924	9.4	7.2	277	10
2023-09-01T06:00	799	921	9.2	7.1	279	10
2023-09-01T06:00	823	919	9.0	7.1	281	10
2023-09-01T06:00	848	916	8.7	7.0	282	10
2023-09-01T06:00	873	913	8.6	7.0	282	10
2023-09-01T06:00	896	911	8.4	6.7	281	10
2023-09-01T06:00	918	908	8.2	6.8	279	10
2023-09-01T06:00	940	906	8.0	6.9	276	10
2023-09-01T06:00	964	903	7.8	6.8	273	10
2023-09-01T06:00	991	900	7.7	6.1	270	10
2023-09-01T06:00	1019	897	7.5	5.5	268	11
2023-09-01T06:00	1044	895	7.4	5.2	266	11
2023-09-01T06:00	1069	892	7.3	4.8	265	11
2023-09-01T06:00	1094	889	7.1	5.2	263	11
2023-09-01T06:00	1116	887	6.9	5.0	263	11
2023-09-01T06:00	1140	884	6.7	4.9	262	11
2023-09-01T06:00	1165	881	6.5	4.9	261	11
2023-09-01T06:00	1191	879	6.3	4.9	260	11
2023-09-01T06:00	1213	876	6.1	4.4	259	10
2023-09-01T06:00	1237	874	5.9	4.2	258	10
2023-09-01T06:00	1261	871	5.8	3.9	257	10
2023-09-01T06:00	1284	869	5.7	3.5	256	10
2023-09-01T06:00	1310	866	5.6	3.7	255	10
2023-09-01T06:00	1335	863	5.5	3.1	254	10
2023-09-01T06:00	1358	861	5.3	2.8	253	10
2023-09-01T06:00	1382	858	5.1	2.5	253	10
2023-09-01T06:00	1405	856	5.0	2.4	253	10
2023-09-01T06:00	1424	854	4.9	1.9	255	10
2023-09-01T06:00	1448	852	4.7	1.4	257	11
2023-09-01T06:00	1470	849	4.7	-0.4	260	11
2023-09-01T06:00	1493	847	4.6	-0.5	261	12
2023-09-01T06:00	1513	845	4.5	-1.8	262	12
2023-09-01T06:00	1535	842	4.5	-2.7	264	12
2023-09-01T06:00	1558	840	4.5	-3.9	265	13
2023-09-01T06:00	1582	837	4.4	-4.9	266	13
2023-09-01T06:00	1609	835	4.2	-4.4	267	13
2023-09-01T06:00	1631	833	4.1	-4.0	267	13
2023-09-01T06:00	1656	830	3.9	-3.8	266	13
2023-09-01T06:00	1679	828	3.8	-4.1	265	13
2023-09-01T06:00	1703	825	3.9	-5.9	264	13
2023-09-01T06:00	1727	823	3.8	-6.6	265	13
2023-09-01T06:00	1752	820	3.7	-7.0	268	13
2023-09-01T06:00	1779	818	3.6	-7.3	272	13
2023-09-01T06:00	1806	815	3.5	-7.9	276	13
2023-09-01T06:00	1829	812	3.4	-8.4	279	13
2023-09-01T06:00	1853	810	3.4	-8.5	281	13
2023-09-01T06:00	1879	808	3.3	-8.6	281	13
2023-09-01T06:00	1905	805	3.2	-8.7	280	13
2023-09-01T06:00	1929	803	3.1	-8.9	278	13
2023-09-01T06:00	1949	801	3.0	-9.3	276	13
2023-09-01T06:00	1971	798	2.9	-10.9	273	13
2023-09-01T06:00	1993	796	2.9	-13.7	271	13
2023-09-01T06:00	2016	794	2.8	-13.3	270	13
2023-09-01T06:00	2043	791	2.7	-13.5	271	13
2023-09-01T06:00	2067	789	2.6	-13.3	273	13
2023-09-01T06:00	2091	787	2.5	-11.6	275	13
2023-09-01T06:00	2119	784	2.1	-8.8	278	13
2023-09-01T06:00	2141	782	1.9	-8.6	281	13
2023-09-01T06:00	2166	779	1.6	-8.4	282	13
2023-09-01T06:00	2191	777	1.4	-7.3	282	13
2023-09-01T06:00	2221	774	1.1	-6.7	281	13
2023-09-01T06:00	2244	772	1.1	-7.0	278	14
2023-09-01T06:00	2266	770	1.0	-7.3	276	14
2023-09-01T06:00	2291	767	0.8	-7.6	274	15
2023-09-01T06:00	2317	765	0.6	-7.9	274	15
2023-09-01T06:00	2342	762	0.5	-8.2	273	15
2023-09-01T06:00	2369	760	0.3		273	15
2023-09-01T06:00	2400	757	0.1	-9.3	274	15
2023-09-01T06:00	2426	754	-0.1	-9.9	274	15
2023-09-01T06:00	2452	752	-0.3	-8.6	274	15
2023-09-01T06:00	2479	750	-0.4	-9.0	273	15
2023-09-01T06:00	2506	747	-0.5	-8.3	273	14
2023-09-01T06:00	2529	745	-0.8	-7.7	273	14
2023-09-01T06:00	2556	742	-1.0	-8.0	274	14
2023-09-01T06:00	2581	740	-1.1	-8.5	274	14
2023-09-01T06:00	2610	737	-1.2	-8.8	275	13
2023-09-01T06:00	2638	735	-1.5	-6.9	276	13
2023-09-01T06:00	2669	732	-1.7	-8.2	277	13
2023-09-01T06:00	2694	730	-1.8	-8.7	278	13
2023-09-01T06:00	2723	727	-2.0	-8.9	278	13
2023-09-01T06:00	2743	725	-2.1	-9.7	277	13
2023-09-01T06:00	2772	722	-2.3	-10.9	277	13
2023-09-01T06:00	2801	720	-2.3	-12.7	277	14
2023-09-01T06:00	2826	718	-2.5	-12.3	278	14
2023-09-01T06:00	2852	715	-2.5	-13.5	279	14
2023-09-01T06:00	2875	713	-2.5	-15.5	281	14
2023-09-01T06:00	2902	711	-2.6	-15.6	281	14
2023-09-01T06:00	2926	709	-2.7	-16.3	281	14
2023-09-01T06:00	2949	706	-2.8	-16.8	280	14
2023-09-01T06:00	2977	704	-3.0	-17.7	278	15
2023-09-01T06:00	3003	702	-3.0	-18.2	278	15
2023-09-01T06:00	3028	699	-3.1	-18.9	277	15
2023-09-01T06:00	3056	697	-3.2	-21.0	278	15
2023-09-01T06:00	3083	695	-3.4	-22.0	278	15
2023-09-01T06:00	3107	692	-3.6	-19.9	278	15
2023-09-01T06:00	3135	690	-3.8	-17.1	278	14
2023-09-01T06:00	3163	688	-3.9	-15.6	278	14
2023-09-01T06:00	3189	686	-3.9	-21.8	278	14
2023-09-01T06:00	3210	684	-4.2	-19.3	279	14
2023-09-01T06:00	3233	682	-4.4	-18.0	280	14
2023-09-01T06:00	3256	680	-4.7	-15.5	282	15
2023-09-01T06:00	3276	678	-4.8	-16.9	283	15
2023-09-01T06:00	3301	676	-4.9	-15.1	285	15
2023-09-01T06:00	3325	674	-5.1	-15.0	285	15
2023-09-01T06:00	3350	672	-5.3	-14.8	286	15
2023-09-01T06:00	3373	670	-5.4	-14.5	285	15
2023-09-01T06:00	3398	667	-5.6	-13.2	285	15
2023-09-01T06:00	3421	665	-5.7	-13.0	285	15
2023-09-01T06:00	3449	663	-5.9	-12.8	285	15
2023-09-01T06:00	3471	661	-6.0	-12.9	284	15
2023-09-01T06:00	3493	659	-6.1	-12.9	283	14
2023-09-01T06:00	3517	657	-6.3	-13.1	281	14
2023-09-01T06:00	3539	655	-6.5	-13.2	280	14
2023-09-01T06:00	3562	654	-6.7	-13.4	278	14
2023-09-01T06:00	3588	651	-6.8	-14.4	278	14
2023-09-01T06:00	3615	649	-7.0	-15.8	279	14
2023-09-01T06:00	3640	647	-6.9	-17.8	280	14
2023-09-01T06:00	3660	645	-6.9	-17.6	281	14
2023-09-01T06:00	3683	644	-7.0	-17.7	282	14
2023-09-01T06:00	3704	642	-7.0	-19.6	281	14
2023-09-01T06:00	3728	640	-7.1	-20.1	281	15
2023-09-01T06:00	3752	638	-7.2	-21.0	282	15
2023-09-01T06:00	3778	636	-7.4	-21.0	283	15
2023-09-01T06:00	3805	634	-7.6	-20.8	285	15
2023-09-01T06:00	3831	631	-7.7	-23.2	287	15
2023-09-01T06:00	3856	629	-7.8	-23.5	287	16
2023-09-01T06:00	3883	627	-7.9	-24.9	288	16
2023-09-01T06:00	3912	625	-8.0	-24.0	288	16
2023-09-01T06:00	3931	623	-8.1	-24.7	288	16
2023-09-01T06:00	3956	621	-8.1	-27.8	289	17
2023-09-01T06:00	3979	620	-8.0	-27.9	290	17
2023-09-01T06:00	4000	618	-8.1	-25.2	291	17
2023-09-01T06:00	4020	616	-8.1	-26.8	292	17
2023-09-01T06:00	4039	615	-8.2	-27.7	292	17
2023-09-01T06:00	4064	613	-8.3	-29.3	293	16
2023-09-01T06:00	4096	610	-8.5	-31.0	293	16
2023-09-01T06:00	4124	608	-8.6	-33.3	293	16
2023-09-01T06:00	4147	606	-8.7	-33.3	292	16
2023-09-01T06:00	4174	604	-8.9	-31.8	291	16
2023-09-01T06:00	4198	602	-9.0	-28.0	289	16
2023-09-01T06:00	4221	600	-9.2	-25.8	287	16
2023-09-01T06:00	4253	598	-9.5	-24.0	286	16
2023-09-01T06:00	4284	596	-9.8	-21.8	285	16
2023-09-01T06:00	4305	594	-10.0	-21.1	285	16
2023-09-01T06:00	4332	592	-10.3	-20.5	285	16
2023-09-01T06:00	4350	590	-10.4	-21.1	285	16
2023-09-01T06:00	4373	589	-10.6	-19.3	285	17
2023-09-01T06:00	4399	587	-10.9	-17.4	284	17
2023-09-01T06:00	4426	585	-11.0	-16.8	284	17
2023-09-01T06:00	4452	583	-11.1	-17.0	285	17
2023-09-01T06:00	4478	581	-11.1	-17.5	286	18
2023-09-01T06:00	4502	579	-11.2	-18.0	288	18
2023-09-01T06:00	4530	577	-11.3	-18.1	291	19
2023-09-01T06:00	4558	575	-11.3	-18.7	293	19
2023-09-01T06:00	4586	573	-11.5	-19.0	295	19
2023-09-01T06:00	4615	570	-11.7	-19.2	297	19
2023-09-01T06:00	4644	568	-11.9	-19.6	297	19
2023-09-01T06:00	4673	566	-12.1	-19.7	296	19
2023-09-01T06:00	4700	564	-12.3	-19.9	295	19
2023-09-01T06:00	4722	562	-12.5	-20.0	294	20
2023-09-01T06:00	4751	560	-12.8		294	20
2023-09-01T06:00	4774	559	-12.9	-21.3	294	20
2023-09-01T06:00	4797	557	-13.1	-21.6	294	21
2023-09-01T06:00	4820	555	-13.2	-21.3	295	21
2023-09-01T06:00	4841	554	-13.4	-21.0	295	21
2023-09-01T06:00	4867	552	-13.6	-20.9	294	21
2023-09-01T06:00	4896	550	-13.8	-21.4	294	21
2023-09-01T06:00	4919	548	-14.0	-21.4	294	21
2023-09-01T06:00	4943	546	-14.2	-21.7	294	21
2023-09-01T06:00	4969	545	-14.4	-23.1	294	21
2023-09-01T06:00	4993	543	-14.6	-23.0	295	21
2023-09-01T06:00	5022	541	-14.8	-21.1	295	22
2023-09-01T06:00	5049	539	-15.0	-20.7	296	22
2023-09-01T06:00	5071	537	-15.2	-20.7	297	23
2023-09-01T06:00	5101	535	-15.4	-20.9	298	22
2023-09-01T06:00	5132	533	-15.6	-21.5	299	22
2023-09-01T06:00	5160	531	-15.7	-22.5	300	22
2023-09-01T06:00	5189	529	-15.9	-22.6	301	22
2023-09-01T06:00	5220	527	-16.2	-22.8	301	22
2023-09-01T06:00	5244	525	-16.4	-23.0	300	22
2023-09-01T06:00	5267	523	-16.5	-23.6	299	22
2023-09-01T06:00	5290	522	-16.6	-24.6	298	21
2023-09-01T06:00	5313	520	-16.8	-24.7	298	21
2023-09-01T06:00	5343	518	-16.9	-26.1	298	21
2023-09-01T06:00	5365	517	-17.0	-26.2	299	21
2023-09-01T06:00	5389	515	-17.3	-26.2	300	21
2023-09-01T06:00	5413	513	-17.4		301	21
2023-09-01T06:00	5442	511	-17.7	-27.5	301	21
2023-09-01T06:00	5470	509	-17.9	-27.8	301	21
2023-09-01T06:00	5496	508	-18.1	-27.8	301	21
2023-09-01T06:00	5522	506	-18.4	-27.9	301	21
2023-09-01T06:00	5551	504	-18.6	-28.3	300	21
2023-09-01T06:00	5587	502	-18.9	-29.3	300	21
2023-09-01T06:00	5615	500	-19.1	-29.7	299	21
2023-09-01T06:00	5641	498	-19.3	-29.7	299	22
2023-09-01T06:00	5668	496	-19.6	-29.8	299	22
2023-09-01T06:00	5691	495	-19.8	-30.0	299	22
2023-09-01T06:00	5715	493	-20.0	-30.0	299	23
2023-09-01T06:00	5741	491	-20.2		300	23
2023-09-01T06:00	5768	489	-20.5	-30.0	300	23
2023-09-01T06:00	5795	488	-20.7	-30.3	301	23
2023-09-01T06:00	5823	486	-21.0	-30.4	301	23
2023-09-01T06:00	5850	484	-21.2	-30.6	302	23
2023-09-01T06:00	5868	483	-21.3	-30.8	302	23
2023-09-01T06:00	5890	481	-21.5	-31.0	302	23
2023-09-01T06:00	5914	480	-21.7	-31.2	302	23
2023-09-01T06:00	5938	478	-21.9	-32.1	301	23
2023-09-01T06:00	5963	477	-22.1	-32.2	301	23
2023-09-01T06:00	5987	475	-22.3	-32.5	301	23
2023-09-01T06:00	6013	473	-22.5	-32.6	301	23
2023-09-01T06:00	6043	472	-22.8	-33.0	301	23
2023-09-01T06:00	6066	470	-23.0	-33.3	301	23
2023-09-01T06:00	6092	468	-23.2	-33.4	300	24
2023-09-01T06:00	6116	467	-23.4	-33.3	300	24
2023-09-01T06:00	6140	465	-23.5	-32.0	300	24
2023-09-01T06:00	6166	464	-23.8	-31.6	300	25
2023-09-01T06:00	6191	462	-24.0	-31.1	301	25
2023-09-01T06:00	6222	460	-24.2	-30.9	301	25
2023-09-01T06:00	6253	458	-24.4	-31.3	301	26
2023-09-01T06:00	6285	456	-24.8	-31.7	301	26
2023-09-01T06:00	6307	455	-24.9	-32.0	301	27
2023-09-01T06:00	6333	453	-25.0	-33.8	301	27
2023-09-01T06:00	6360	452	-25.1	-34.3	301	27
2023-09-01T06:00	6382	450	-25.3	-34.6	301	27
2023-09-01T06:00	6406	449	-25.5	-35.4	301	27
2023-09-01T06:00	6432	447	-25.8	-36.1	301	27
2023-09-01T06:00	6461	445	-26.0	-36.4	301	27
2023-09-01T06:00	6485	444	-26.2	-37.0	301	27
2023-09-01T06:00	6514	442	-26.4	-37.8	301	27
2023-09-01T06:00	6549	440	-26.7	-38.8	301	28
2023-09-01T06:00	6580	438	-27.0	-39.6	301	28
2023-09-01T06:00	6610	436	-27.3	-40.6	301	28
2023-09-01T06:00	6638	435	-27.5	-41.2	301	28
2023-09-01T06:00	6657	433	-27.7	-41.4	301	28
2023-09-01T06:00	6677	432	-27.9	-40.0	301	27
2023-09-01T06:00	6699	431	-28.0	-37.4	301	27
2023-09-01T06:00	6722	429	-28.2	-37.2	301	27
2023-09-01T06:00	6751	428	-28.5	-37.3	301	27
2023-09-01T06:00	6779	426	-28.7	-37.4	300	27
2023-09-01T06:00	6814	424	-29.0	-38.0	299	27
2023-09-01T06:00	6843	422	-29.2	-40.1	298	27
2023-09-01T06:00	6869	421	-29.4	-41.7	298	27
2023-09-01T06:00	6897	419	-29.6	-39.8	298	27
2023-09-01T06:00	6925	417	-29.9	-39.8	298	27
2023-09-01T06:00	6954	416	-30.1	-40.7	298	27
2023-09-01T06:00	6980	414	-30.3	-41.6	298	27
2023-09-01T06:00	7003	413	-30.5	-41.7	298	27
2023-09-01T06:00	7022	412	-30.6	-41.8	298	27
2023-09-01T06:00	7043	410	-30.8	-41.8	297	27
2023-09-01T06:00	7068	409	-31.1	-41.9	297	27
2023-09-01T06:00	7097	407	-31.3	-42.1	297	26
2023-09-01T06:00	7127	406	-31.6	-42.2	296	26
2023-09-01T06:00	7156	404	-31.9	-42.3	296	26
2023-09-01T06:00	7179	403	-32.1	-42.5	296	26
2023-09-01T06:00	7199	402	-32.3	-42.5	295	26
2023-09-01T06:00	7218	400	-32.5	-42.5	295	26
2023-09-01T06:00	7239	399	-32.6	-42.5	295	26
2023-09-01T06:00	7264	398	-32.9	-43.0	294	26
2023-09-01T06:00	7291	396	-33.1	-44.4	294	26
2023-09-01T06:00	7312	395	-33.3	-45.0	293	26
2023-09-01T06:00	7330	394	-33.5	-45.6	293	26
2023-09-01T06:00	7351	393	-33.7		292	27
2023-09-01T06:00	7372	392	-33.9	-44.7	292	27
2023-09-01T06:00	7392	391	-34.0	-43.8	293	27
2023-09-01T06:00	7417	389	-34.3	-43.9	293	27
2023-09-01T06:00	7439	388	-34.5	-44.1	293	27
2023-09-01T06:00	7460	387	-34.7	-44.1	293	27
2023-09-01T06:00	7483	386	-34.9	-44.0	292	27
2023-09-01T06:00	7507	384	-35.1	-44.1	292	27
2023-09-01T06:00	7533	383	-35.4	-44.2	291	27
2023-09-01T06:00	7566	381	-35.7	-44.4	290	27
2023-09-01T06:00	7595	380	-35.9	-44.6	289	27
2023-09-01T06:00	7616	378	-36.1	-44.9	288	27
2023-09-01T06:00	7643	377	-36.4		287	27
2023-09-01T06:00	7674	375	-36.6	-46.0	286	27
2023-09-01T06:00	7697	374	-36.8	-48.8	286	28
2023-09-01T06:00	7719	373	-36.9	-47.8	286	28
2023-09-01T06:00	7743	371	-36.9	-50.3	287	29
2023-09-01T06:00	7771	370	-36.9	-51.4	288	30
2023-09-01T06:00	7797	369	-36.6	-51.4	289	31
2023-09-01T06:00	7816	367	-36.6	-50.2	290	32
2023-09-01T06:00	7838	366	-36.6	-48.5	291	34
2023-09-01T06:00	7861	365	-36.5	-47.6	291	35
2023-09-01T06:00	7883	364	-36.4	-46.9	291	36
2023-09-01T06:00	7906	363	-36.4	-44.8	291	37
2023-09-01T06:00	7938	361	-36.3	-43.7	291	37
2023-09-01T06:00	7962	360	-36.4	-42.0	291	38
2023-09-01T06:00	7987	359	-36.4	-40.0	291	38
2023-09-01T06:00	8008	358	-36.6		291	38
2023-09-01T06:00	8029	356	-36.8	-39.8	292	39
2023-09-01T06:00	8050	355	-37.0	-39.7	292	39
2023-09-01T06:00	8069	354	-37.2	-39.7	292	39
2023-09-01T06:00	8093	353	-37.3	-39.7	291	39
2023-09-01T06:00	8114	352	-37.4	-40.8	291	39
2023-09-01T06:00	8133	351	-37.5	-41.8	291	39
2023-09-01T06:00	8152	350	-37.7	-42.5	291	39
2023-09-01T06:00	8172	349	-37.8	-43.6	290	39
2023-09-01T06:00	8193	348	-38.0	-44.2	290	40
2023-09-01T06:00	8217	347	-38.2	-45.9	291	40
2023-09-01T06:00	8236	346	-38.3	-46.6	291	40
2023-09-01T06:00	8257	345	-38.3	-45.6	291	40
2023-09-01T06:00	8276	344	-38.5	-43.6	291	41
2023-09-01T06:00	8300	343	-38.6	-41.2	291	41
2023-09-01T06:00	8318	342	-38.8	-41.6	291	41
2023-09-01T06:00	8341	341	-39.0	-41.8	291	41
2023-09-01T06:00	8361	340	-39.2	-42.3	291	41
2023-09-01T06:00	8380	339	-39.4	-42.4	291	41
2023-09-01T06:00	8401	338	-39.6	-42.8	291	41
2023-09-01T06:00	8422	337	-39.8	-43.0	291	40
2023-09-01T06:00	8445	335	-40.0	-43.2	291	40
2023-09-01T06:00	8467	334	-40.2	-43.6	292	40
2023-09-01T06:00	8489	333	-40.3	-44.2	292	39
2023-09-01T06:00	8514	332	-40.5	-47.4	292	39
2023-09-01T06:00	8537	331	-40.5	-51.3	292	39
2023-09-01T06:00	8562	330	-40.6	-52.1	292	39
2023-09-01T06:00	8584	329	-40.8	-50.6	292	39
2023-09-01T06:00	8605	328	-40.9	-50.1	292	39
2023-09-01T06:00	8626	327	-41.1	-49.7	292	39
2023-09-01T06:00	8646	326	-41.2	-47.7	292	39
2023-09-01T06:00	8665	325	-41.4	-48.9	292	39
2023-09-01T06:00	8686	324	-41.5	-53.1	292	39
2023-09-01T06:00	8705	323	-41.7	-54.7	292	39
2023-09-01T06:00	8729	322	-41.8	-54.1	292	39
2023-09-01T06:00	8749	321	-42.0	-54.0	292	40
2023-09-01T06:00	8770	320	-42.1	-54.0	292	40
2023-09-01T06:00	8789	319	-42.3	-54.2	292	39
2023-09-01T06:00	8810	318	-42.4	-54.7	292	39
2023-09-01T06:00	8832	317	-42.6	-54.8	292	39
2023-09-01T06:00	8852	316	-42.8	-54.8	292	39
2023-09-01T06:00	8877	315	-43.0	-54.9	291	39
2023-09-01T06:00	8905	314	-43.1	-55.3	291	40
2023-09-01T06:00	8933	312	-43.4	-55.3	291	40
2023-09-01T06:00	8959	311	-43.6	-55.1	291	39
2023-09-01T06:00	8981	310	-43.8	-54.6	291	39
2023-09-01T06:00	9002	309	-43.8	-53.6	291	39
2023-09-01T06:00	9023	308	-44.0	-54.4	292	39
2023-09-01T06:00	9045	307	-44.1	-56.1	292	39
2023-09-01T06:00	9066	306	-44.1	-57.5	292	38
2023-09-01T06:00	9090	305	-44.1	-54.7	292	38
2023-09-01T06:00	9115	304	-44.2	-52.3	292	38
2023-09-01T06:00	9137	303	-44.1	-54.0	291	38
2023-09-01T06:00	9162	302	-44.0	-52.6	291	38
2023-09-01T06:00	9184	301	-44.2	-53.8	290	38
2023-09-01T06:00	9205	300	-44.4	-55.6	290	38
2023-09-01T06:00	9229	299	-44.5	-55.9	289	39
2023-09-01T06:00	9247	298	-44.7	-56.6	289	39
2023-09-01T06:00	9270	297	-44.9	-57.4	289	39
2023-09-01T06:00	9291	296	-44.9	-57.6	289	39
2023-09-01T06:00	9314	295	-45.1	-58.0	289	39
2023-09-01T06:00	9338	294	-45.3		290	39
2023-09-01T06:00	9361	293	-45.5	-58.0	290	39
2023-09-01T06:00	9385	292	-45.7	-58.0	290	39
2023-09-01T06:00	9406	291	-46.0	-58.2	290	39
2023-09-01T06:00	9428	290	-46.1	-58.4	291	39
2023-09-01T06:00	9450	289	-46.3	-58.8	291	39
2023-09-01T06:00	9474	288	-46.5	-58.7	291	39
2023-09-01T06:00	9500	287	-46.7	-58.7	291	39
2023-09-01T06:00	9524	286	-46.8	-57.9	292	38
2023-09-01T06:00	9546	285	-47.0	-57.3	292	38
2023-09-01T06:00	9572	284	-47.3	-57.3	292	38
2023-09-01T06:00	9596	283	-47.5	-57.4	292	37
2023-09-01T06:00	9618	282	-47.7	-56.9	293	37
2023-09-01T06:00	9639	281	-47.8	-54.5	293	37
2023-09-01T06:00	9659	280	-48.0	-53.3	293	37
2023-09-01T06:00	9682	279	-48.2	-53.5	293	37
2023-09-01T06:00	9702	278	-48.4	-53.7	293	37
2023-09-01T06:00	9722	277	-48.5	-54.3	293	37
2023-09-01T06:00	9744	276	-48.7	-55.0	293	37
2023-09-01T06:00	9767	275	-48.8	-55.0	293	37
2023-09-01T06:00	9789	275	-49.0	-54.7	294	37
2023-09-01T06:00	9812	274	-49.1	-54.2	294	37
2023-09-01T06:00	9832	273	-49.3	-54.2	294	37
2023-09-01T06:00	9853	272	-49.4	-54.6	294	37
2023-09-01T06:00	9874	271	-49.6	-55.5	295	37
2023-09-01T06:00	9896	270	-49.7	-57.1	295	36
2023-09-01T06:00	9917	269	-49.7	-58.5	296	36
2023-09-01T06:00	9939	268	-49.6	-58.3	296	36
2023-09-01T06:00	9962	267	-49.2	-60.0	297	36
2023-09-01T06:00	9981	267	-49.0	-61.1	297	35
2023-09-01T06:00	10001	266	-49.1	-60.1	298	35
2023-09-01T06:00	10022	265	-49.2	-59.5	297	34
2023-09-01T06:00	10043	264	-49.0	-59.4	297	34
2023-09-01T06:00	10064	263	-48.7	-60.2	297	33
2023-09-01T06:00	10087	262	-48.4	-61.0	297	33
2023-09-01T06:00	10110	261	-48.5	-61.5	297	33
2023-09-01T06:00	10131	261	-48.6	-61.6	297	33
2023-09-01T06:00	10156	260	-48.7	-61.7	297	32
2023-09-01T06:00	10182	259	-48.8	-61.9	297	32
2023-09-01T06:00	10213	257	-49.0	-62.1	296	32
2023-09-01T06:00	10238	256	-49.1	-62.3	295	32
2023-09-01T06:00	10261	255	-49.2	-62.4	295	32
2023-09-01T06:00	10285	255	-49.3	-62.5	294	32
2023-09-01T06:00	10310	254	-49.4	-62.7	293	32
2023-09-01T06:00	10332	253	-49.4	-63.0	292	32
2023-09-01T06:00	10353	252	-49.3	-63.0	291	32
2023-09-01T06:00	10373	251	-49.3	-63.0	291	32
2023-09-01T06:00	10395	250	-49.3	-63.0	290	32
2023-09-01T06:00	10415	250	-49.3	-62.9	290	32
2023-09-01T06:00	10436	249	-49.4	-62.8	290	32
2023-09-01T06:00	10456	248	-49.5	-63.0	290	32
2023-09-01T06:00	10476	247	-49.4	-63.4	290	32
2023-09-01T06:00	10499	246	-49.2	-64.1	291	31
2023-09-01T06:00	10520	246	-48.8	-64.5	292	31
2023-09-01T06:00	10540	245	-48.5	-65.0	293	31
2023-09-01T06:00	10560	244	-48.3	-65.4	293	30
2023-09-01T06:00	10582	243	-48.3	-65.6	293	30
2023-09-01T06:00	10602	243	-48.2	-65.8	293	29
2023-09-01T06:00	10622	242	-48.0	-66.4	292	29
2023-09-01T06:00	10641	241	-47.8	-66.9	291	28
2023-09-01T06:00	10662	240	-47.6	-67.3	290	28
2023-09-01T06:00	10681	240	-47.6	-67.5	289	28
2023-09-01T06:00	10702	239	-47.6	-67.7	288	28
2023-09-01T06:00	10723	238	-47.5	-67.8	286	28
2023-09-01T06:00	10744	237	-47.3	-68.0	286	28
2023-09-01T06:00	10763	237	-47.0	-68.3	285	28
2023-09-01T06:00	10784	236	-47.0	-68.5	285	28
2023-09-01T06:00	10801	235	-47.0	-68.5	284	27
2023-09-01T06:00	10822	235	-47.1	-68.7	283	27
2023-09-01T06:00	10841	234	-47.1	-68.8	282	27
2023-09-01T06:00	10862	233	-47.0	-69.2	282	28
2023-09-01T06:00	10881	232	-46.6	-69.6	281	28
2023-09-01T06:00	10901	232	-46.3	-69.8	281	28
2023-09-01T06:00	10922	231	-46.3	-69.9	282	28
2023-09-01T06:00	10942	230	-46.5	-69.9	282	28
2023-09-01T06:00	10965	230	-46.7	-69.9	283	29
2023-09-01T06:00	10983	229	-46.8	-70.2	283	29
2023-09-01T06:00	11003	228	-46.9	-70.2	283	29
2023-09-01T06:00	11023	228	-47.0	-70.5	283	30
2023-09-01T06:00	11044	227	-46.9	-70.7	283	30
2023-09-01T06:00	11065	226	-46.7	-70.9	283	29
2023-09-01T06:00	11086	225	-46.4	-71.0	284	29
2023-09-01T06:00	11108	225	-46.0	-71.2	284	28
2023-09-01T06:00	11126	224	-45.9	-71.6	284	28
2023-09-01T06:00	11145	223	-45.7	-71.8	285	27
2023-09-01T06:00	11167	223	-45.8	-72.4	286	27
2023-09-01T06:00	11189	222	-45.6	-72.4	287	26
2023-09-01T06:00	11210	221	-45.2	-72.6	288	26
2023-09-01T06:00	11232	221	-45.0	-72.8	288	26
2023-09-01T06:00	11253	220	-45.0	-72.8	288	25
2023-09-01T06:00	11276	219	-45.1	-73.1	287	25
2023-09-01T06:00	11295	218	-44.6	-73.0	287	25
2023-09-01T06:00	11316	218	-44.4	-73.2	286	25
2023-09-01T06:00	11336	217	-44.4	-73.2	286	25
2023-09-01T06:00	11356	216	-44.4	-73.5	287	25
2023-09-01T06:00	11377	216	-44.1	-73.6	288	24
2023-09-01T06:00	11396	215	-43.8	-73.7	289	24
2023-09-01T06:00	11419	214	-43.8	-73.7	290	24
2023-09-01T06:00	11440	214	-43.7	-73.6	290	23
2023-09-01T06:00	11465	213	-43.8	-73.7	291	23
2023-09-01T06:00	11490	212	-44.0	-73.9	291	23
2023-09-01T06:00	11514	211	-44.1	-74.3	291	23
2023-09-01T06:00	11538	211	-44.1	-74.3	290	23
2023-09-01T06:00	11563	210	-44.2	-74.4	290	23
2023-09-01T06:00	11582	209	-44.3	-74.1	289	23
2023-09-01T06:00	11603	209	-44.4	-74.5	289	24
2023-09-01T06:00	11622	208	-44.5	-74.6	289	23
2023-09-01T06:00	11642	207	-44.6	-74.7	288	23
2023-09-01T06:00	11663	207	-44.4	-74.5	288	22
2023-09-01T06:00	11682	206	-43.8	-74.5	287	22
2023-09-01T06:00	11702	206	-43.8	-74.5	287	21
2023-09-01T06:00	11720	205	-43.9	-75.0	286	21
2023-09-01T06:00	11739	204	-43.9	-75.0	286	21
2023-09-01T06:00	11758	204	-43.5	-74.7	286	21
2023-09-01T06:00	11777	203	-43.3	-75.0	286	21
2023-09-01T06:00	11796	203	-43.3	-75.0	287	22
2023-09-01T06:00	11817	202	-43.4	-75.0	287	22
2023-09-01T06:00	11836	202	-43.6	-74.7	287	22
2023-09-01T06:00	11854	201	-43.7	-74.8	287	22
2023-09-01T06:00	11874	200	-43.8	-74.9	287	22
2023-09-01T06:00	11894	200	-43.9	-75.0	287	22
2023-09-01T06:00	11912	199	-44.0	-75.0	287	21
2023-09-01T06:00	11933	199	-44.0	-75.0	286	21
2023-09-01T06:00	11953	198	-43.9	-75.0	285	21
2023-09-01T06:00	11972	197	-43.9	-75.0	285	21
2023-09-01T06:00	11994	197	-43.9	-75.0	284	20
2023-09-01T06:00	12011	196	-44.1	-75.5	283	20
2023-09-01T06:00	12033	196	-44.2	-75.6	282	20
2023-09-01T06:00	12052	195	-44.4	-75.8	282	20
2023-09-01T06:00	12074	195	-44.5	-75.8	281	20
2023-09-01T06:00	12092	194	-44.4	-75.8	279	20
2023-09-01T06:00	12115	193	-44.2	-75.6	278	20
2023-09-01T06:00	12135	193	-44.2	-75.6	277	20
2023-09-01T06:00	12154	192	-44.2	-76.1	276	20
2023-09-01T06:00	12174	192	-44.3	-76.2	275	20
2023-09-01T06:00	12194	191	-44.3	-76.2	275	20
2023-09-01T06:00	12213	191	-44.1	-76.0	275	19
2023-09-01T06:00	12234	190	-44.1	-76.0	275	19
2023-09-01T06:00	12252	189	-44.2	-76.1	274	19
2023-09-01T06:00	12275	189	-44.2	-76.1	274	19
2023-09-01T06:00	12292	188	-44.3	-76.2	275	19
2023-09-01T06:00	12316	188	-44.4	-76.2	276	19
2023-09-01T06:00	12335	187	-44.6	-76.4	277	19
2023-09-01T06:00	12356	187	-44.5	-76.3	278	19
2023-09-01T06:00	12375	186	-44.6	-76.4	279	19
2023-09-01T06:00	12398	185	-44.7	-76.5	279	19
2023-09-01T06:00	12418	185	-44.7	-76.5	280	19
2023-09-01T06:00	12442	184	-44.9	-76.6	280	19
2023-09-01T06:00	12465	183	-45.1	-76.3	281	19
2023-09-01T06:00	12487	183	-45.3	-76.4	282	19
2023-09-01T06:00	12512	182	-45.5	-76.6	282	19
2023-09-01T06:00	12538	181	-45.7	-76.7	283	19
2023-09-01T06:00	12561	181	-45.9	-76.9	283	19
2023-09-01T06:00	12581	180	-46.0	-77.0	282	18
2023-09-01T06:00	12604	180	-46.0	-77.0	282	18
2023-09-01T06:00	12623	179	-46.1	-77.0	282	18
2023-09-01T06:00	12644	179	-46.2	-77.1	282	18
2023-09-01T06:00	12663	178	-46.3	-77.2	282	18
2023-09-01T06:00	12685	178	-46.4	-77.3	283	18
2023-09-01T06:00	12706	177	-46.5	-77.3	284	18
2023-09-01T06:00	12727	176	-46.3	-77.7	284	18
2023-09-01T06:00	12748	176	-46.4	-77.7	284	18
2023-09-01T06:00	12769	175	-46.6	-77.9	284	18
2023-09-01T06:00	12790	175	-46.7	-77.5	284	18
2023-09-01T06:00	12813	174	-46.8	-77.6	284	18
2023-09-01T06:00	12835	174	-46.9	-77.6	284	18
2023-09-01T06:00	12854	173	-47.0	-77.7	284	18
2023-09-01T06:00	12878	172	-47.1	-77.8	284	18
2023-09-01T06:00	12897	172	-47.2	-77.9	285	19
2023-09-01T06:00	12918	171	-47.3	-77.9	285	19
2023-09-01T06:00	12941	171	-47.5	-78.1	285	19
2023-09-01T06:00	12962	170	-47.5	-78.1	285	18
2023-09-01T06:00	12982	170	-47.3	-78.4	285	18
2023-09-01T06:00	13005	169	-47.4	-78.5	285	18
2023-09-01T06:00	13024	169	-47.4	-78.5	285	17
2023-09-01T06:00	13047	168	-47.2	-78.3	286	17
2023-09-01T06:00	13067	168	-47.0	-78.2	287	17
2023-09-01T06:00	13090	167	-47.0	-78.2	287	17
2023-09-01T06:00	13112	166	-46.9	-78.1	287	16
2023-09-01T06:00	13133	166	-47.1	-78.3	287	16
2023-09-01T06:00	13155	165	-47.3	-78.4	287	16
2023-09-01T06:00	13177	165	-47.4	-78.5	288	15
2023-09-01T06:00	13200	164	-47.3	-78.4	289	15
2023-09-01T06:00	13223	164	-47.3	-78.4	289	14
2023-09-01T06:00	13245	163	-47.4	-78.5	290	14
2023-09-01T06:00	13267	163	-47.6	-78.6	290	14
2023-09-01T06:00	13290	162	-47.8	-78.3	290	14
2023-09-01T06:00	13310	162	-48.0	-78.5	290	13
2023-09-01T06:00	13331	161	-48.2	-78.6	289	13
2023-09-01T06:00	13355	160	-48.3	-78.7	288	13
2023-09-01T06:00	13378	160	-48.5	-78.8	286	13
2023-09-01T06:00	13402	159	-48.6	-78.9	284	13
2023-09-01T06:00	13423	159	-48.7	-79.0	282	13
2023-09-01T06:00	13444	158	-48.9	-78.7	280	13
2023-09-01T06:00	13466	158	-49.0	-78.8	279	13
2023-09-01T06:00	13488	157	-49.1	-78.9	278	14
2023-09-01T06:00	13510	157	-49.2	-78.9	277	14
2023-09-01T06:00	13532	156	-49.3	-79.0	276	14
2023-09-01T06:00	13553	156	-49.4	-79.1	275	14
2023-09-01T06:00	13578	155	-49.4	-79.1	274	14
2023-09-01T06:00	13597	155	-49.4	-79.1	274	14
2023-09-01T06:00	13618	154	-49.3	-79.0	275	14
2023-09-01T06:00	13640	154	-49.3	-79.4	276	15
2023-09-01T06:00	13665	153	-49.3	-79.4	277	15
2023-09-01T06:00	13685	153	-49.1	-79.3	278	15
2023-09-01T06:00	13706	152	-49.0	-79.2	279	15
2023-09-01T06:00	13727	152	-48.9	-79.1	279	15
2023-09-01T06:00	13747	151	-48.7	-78.6	279	15
2023-09-01T06:00	13770	151	-48.8		278	15
2023-09-01T06:00	13791	150	-48.8		277	15
2023-09-01T06:00	13813	150	-48.9	-78.7	276	14
2023-09-01T06:00	13836	149	-49.1	-78.9	274	14
2023-09-01T06:00	13856	149	-49.0	-78.8	273	14
2023-09-01T06:00	13878	148	-49.1	-78.9	273	14
2023-09-01T06:00	13900	148	-49.1	-78.9	272	14
2023-09-01T06:00	13921	147	-49.1	-78.9	273	14
2023-09-01T06:00	13939	147	-49.1	-78.9	273	14
2023-09-01T06:00	13959	146	-49.3	-79.0	274	14
2023-09-01T06:00	13984	146	-49.4	-79.1	275	14
2023-09-01T06:00	14004	145	-49.6	-79.2	275	14
2023-09-01T06:00	14025	145	-49.7	-79.3	275	13
2023-09-01T06:00	14046	144	-49.6	-79.2	274	13
2023-09-01T06:00	14065	144	-49.7	-79.3	274	13
2023-09-01T06:00	14087	144	-49.8	-79.4	273	12
2023-09-01T06:00	14106	143	-49.9	-79.9	273	12
2023-09-01T06:00	14125	143	-49.8	-79.8	272	12
2023-09-01T06:00	14143	142	-49.7	-79.7	272	12
2023-09-01T06:00	14166	142	-49.8	-79.8	272	12
2023-09-01T06:00	14187	141	-49.9	-79.9	271	11
2023-09-01T06:00	14209	141	-50.0	-80.0	270	11
2023-09-01T06:00	14229	140	-50.1	-80.0	270	11
2023-09-01T06:00	14249	140	-50.2	-80.1	269	11
2023-09-01T06:00	14268	140	-50.2	-80.1	270	12
2023-09-01T06:00	14288	139	-50.2	-80.1	270	12
2023-09-01T06:00	14307	139	-50.3	-80.2	271	12
2023-09-01T06:00	14329	138	-50.3	-80.2	271	12
2023-09-01T06:00	14350	138	-50.4	-80.3	271	12
2023-09-01T06:00	14367	137	-50.5	-80.3	271	12
2023-09-01T06:00	14390	137	-50.6	-80.4	271	12
2023-09-01T06:00	14411	137	-50.6	-80.4	271	12
2023-09-01T06:00	14431	136	-50.6	-80.4	272	12
2023-09-01T06:00	14453	136	-50.6	-80.4	273	12
2023-09-01T06:00	14472	135	-50.6	-80.4	274	12
2023-09-01T06:00	14490	135	-50.4	-80.7	276	12
2023-09-01T06:00	14513	134	-50.3	-80.6	278	12
2023-09-01T06:00	14532	134	-50.1	-81.0	281	11
2023-09-01T06:00	14554	134	-50.0	-80.9	283	11
2023-09-01T06:00	14574	133	-50.1	-81.0	285	11
2023-09-01T06:00	14594	133	-50.1	-81.0	288	11
2023-09-01T06:00	14616	132	-49.9	-80.8	291	10
2023-09-01T06:00	14638	132	-49.7	-80.7	293	10
2023-09-01T06:00	14656	131	-49.8	-80.8	295	10
2023-09-01T06:00	14679	131	-49.7	-80.7	297	10
2023-09-01T06:00	14703	131	-49.7	-80.7	298	9
2023-09-01T06:00	14723	130	-49.6	-80.6	298	9
2023-09-01T06:00	14745	130	-49.7	-80.7	298	8
2023-09-01T06:00	14765	129	-49.5	-81.1	298	8
2023-09-01T06:00	14787	129	-49.5	-80.5	296	8
2023-09-01T06:00	14809	128	-49.7	-80.7	293	7
2023-09-01T06:00	14831	128	-49.8	-80.8	289	7
2023-09-01T06:00	14854	128	-49.9	-80.8	285	7
2023-09-01T06:00	14873	127	-50.0	-80.9	281	7
2023-09-01T06:00	14897	127	-50.2	-81.0	277	7
2023-09-01T06:00	14921	126	-50.4	-81.2	273	7
2023-09-01T06:00	14944	126	-50.5	-81.3	270	8
2023-09-01T06:00	14967	125	-50.6	-81.3	268	8
2023-09-01T06:00	14988	125	-50.8	-81.5	268	8
2023-09-01T06:00	15008	125	-50.8	-81.5	269	8
2023-09-01T06:00	15032	124	-50.6	-81.3	270	8
2023-09-01T06:00	15053	124	-50.5	-81.3	272	8
2023-09-01T06:00	15074	123	-50.5	-81.3	274	8
2023-09-01T06:00	15097	123	-50.4	-81.7	274	7
2023-09-01T06:00	15119	122	-50.4	-81.7	273	7
2023-09-01T06:00	15143	122	-50.2		270	7
2023-09-01T06:00	15164	122	-49.8	-81.3	268	7
2023-09-01T06:00	15187	121	-49.8	-81.3	265	7
2023-09-01T06:00	15211	121	-49.8	-81.3	263	7
2023-09-01T06:00	15233	120	-49.9	-81.3	262	7
2023-09-01T06:00	15255	120	-50.0	-81.4	263	7
2023-09-01T06:00	15278	120	-50.1	-81.5	263	7
2023-09-01T06:00	15300	119	-50.0	-81.4	264	7
2023-09-01T06:00	15321	119	-50.1	-81.5	265	7
2023-09-01T06:00	15345	118	-50.2		265	7
2023-09-01T06:00	15366	118	-50.2		267	7
2023-09-01T06:00	15387	118	-50.3	-81.6	268	7
2023-09-01T06:00	15410	117	-50.4	-81.7	270	7
2023-09-01T06:00	15431	117	-50.5	-81.8	271	6
2023-09-01T06:00	15452	116	-50.3	-81.6	270	6
2023-09-01T06:00	15474	116	-49.8	-81.3	268	5
2023-09-01T06:00	15497	116	-49.8	-81.8	264	5
2023-09-01T06:00	15518	115	-49.8	-81.8	259	5
2023-09-01T06:00	15542	115	-49.8	-81.3	254	4
2023-09-01T06:00	15563	114	-49.9	-81.3	249	4
2023-09-01T06:00	15585	114	-50.0	-81.4	245	4
2023-09-01T06:00	15608	114	-50.1	-81.5	242	4
2023-09-01T06:00	15633	113	-50.3	-81.6	241	5
2023-09-01T06:00	15654	113	-50.5	-81.8	241	5
2023-09-01T06:00	15679	112	-50.7		241	6
2023-09-01T06:00	15700	112	-50.7		242	6
2023-09-01T06:00	15724	112	-50.4	-81.7	241	6
2023-09-01T06:00	15746	111	-50.3	-81.6	240	7
2023-09-01T06:00	15767	111	-50.3	-81.6	237	7
2023-09-01T06:00	15790	111	-50.4	-81.7	233	7
2023-09-01T06:00	15811	110	-50.4	-81.7	229	7
2023-09-01T06:00	15838	110	-50.4	-81.7	226	7
2023-09-01T06:00	15859	109	-50.4	-81.7	224	8
2023-09-01T06:00	15881	109	-50.5	-81.8	224	8
2023-09-01T06:00	15904	109	-50.7		225	9
2023-09-01T06:00	15927	108	-50.9	-82.1	226	9
2023-09-01T06:00	15950	108	-51.1	-82.2	229	10
2023-09-01T06:00	15972	108	-51.2	-82.3	232	11
2023-09-01T06:00	15993	107	-50.9	-82.1	235	11
2023-09-01T06:00	16018	107	-50.6	-81.9	237	12
2023-09-01T06:00	16041	106	-50.1	-82.1	239	12
2023-09-01T06:00	16062	106	-49.9	-81.9	241	11
2023-09-01T06:00	16086	106	-49.7	-81.8	244	11
2023-09-01T06:00	16109	105	-49.8	-81.8	246	10
2023-09-01T06:00	16132	105	-49.8	-81.8	249	9
2023-09-01T06:00	16155	105	-49.9	-81.9	252	8
2023-09-01T06:00	16177	104	-50.1	-81.5	255	8
2023-09-01T06:00	16201	104	-50.1	-81.5	258	7
2023-09-01T06:00	16222	103	-50.3	-81.6	258	6
2023-09-01T06:00	16243	103	-50.4	-81.7	257	6
2023-09-01T06:00	16266	103	-50.5	-81.8	253	5
2023-09-01T06:00	16290	102	-50.4	-82.3	246	5
2023-09-01T06:00	16311	102	-50.0	-82.0	237	5
2023-09-01T06:00	16335	102	-49.8	-81.8	228	5
2023-09-01T06:00	16358	101	-49.7	-81.8	222	5
2023-09-01T06:00	16383	101	-49.7	-81.8	219	6
2023-09-01T06:00	16405	101	-49.7	-81.8	219	6
2023-09-01T06:00	16426	100	-49.8	-81.8	222	6
2023-09-01T06:00	16450	100	-49.8	-81.8	225	5
2023-09-01T06:00	16473	100	-49.7	-81.8	230	5
2023-09-01T06:00	16494	99	-49.5	-82.3	235	5
2023-09-01T06:00	16517	99	-49.4	-82.2	239	5
2023-09-01T06:00	16542	99	-49.4	-81.6	242	4
2023-09-01T06:00	16566	98	-49.5	-81.6	243	4
2023-09-01T06:00	16587	98	-49.6	-81.7	242	4
2023-09-01T06:00	16611	97	-49.5	-81.6	238	4
2023-09-01T06:00	16636	97	-49.6	-81.7	232	3
2023-09-01T06:00	16662	97	-49.8	-81.8	225	3
2023-09-01T06:00	16681	96	-49.9	-81.9	218	3
2023-09-01T06:00	16707	96	-50.1	-82.1	213	3
2023-09-01T06:00	16732	96	-50.3	-82.2	211	4
2023-09-01T06:00	16751	95	-50.3	-82.2	210	4
2023-09-01T06:00	16777	95	-50.4	-82.3	210	4
2023-09-01T06:00	16797	95	-50.5		209	4
2023-09-01T06:00	16822	94	-50.7		208	5
2023-09-01T06:00	16842	94	-50.9	-82.1	206	5
2023-09-01T06:00	16870	94	-51.1	-82.2	204	5
2023-09-01T06:00	16893	93	-51.3	-82.4	203	6
2023-09-01T06:00	16915	93	-51.2	-82.3	203	6
2023-09-01T06:00	16941	93	-51.1	-82.2	204	6
2023-09-01T06:00	16965	92	-51.2	-82.3	206	6
2023-09-01T06:00	16987	92	-51.3	-82.4	208	6
2023-09-01T06:00	17014	92	-51.4	-82.5	211	6
2023-09-01T06:00	17036	91	-51.6	-82.6	214	6
2023-09-01T06:00	17059	91	-51.8	-82.8	217	6
2023-09-01T06:00	17082	91	-52.0	-82.9	218	7
2023-09-01T06:00	17107	90	-52.1	-83.0	219	7
2023-09-01T06:00	17126	90	-52.2	-83.1	220	7
2023-09-01T06:00	17150	90	-52.1	-83.0	219	7
2023-09-01T06:00	17175	89	-52.1	-83.0	219	6
2023-09-01T06:00	17198	89	-52.2	-83.1	218	6
2023-09-01T06:00	17220	89	-52.4	-83.2	217	5
2023-09-01T06:00	17245	88	-52.5	-83.3	215	4
2023-09-01T06:00	17272	88	-52.6	-83.3	211	4
2023-09-01T06:00	17297	88	-52.5	-83.3	203	3
2023-09-01T06:00	17319	87	-52.3	-83.1	192	3
2023-09-01T06:00	17344	87	-52.3	-83.1	182	3
2023-09-01T06:00	17366	87	-52.3	-83.1	176	4
2023-09-01T06:00	17392	86	-52.5	-83.3	173	4
2023-09-01T06:00	17417	86	-52.6	-83.3	174	5
2023-09-01T06:00	17440	86	-52.4	-83.2	177	5
2023-09-01T06:00	17462	85	-52.6	-83.3	182	5
2023-09-01T06:00	17486	85	-52.4	-83.2	187	6
2023-09-01T06:00	17509	85	-52.4	-83.2	192	6
2023-09-01T06:00	17533	85	-52.3	-83.1	197	7
2023-09-01T06:00	17556	84	-52.5	-83.3	202	7
2023-09-01T06:00	17579	84	-52.5	-83.3	207	7
2023-09-01T06:00	17605	84	-52.4	-83.2	213	8
2023-09-01T06:00	17625	83	-52.4	-83.2	218	8
2023-09-01T06:00	17649	83	-52.4	-83.2	222	8
2023-09-01T06:00	17674	83	-52.4	-83.8	226	8
2023-09-01T06:00	17696	82	-52.4	-83.8	228	7
2023-09-01T06:00	17719	82	-52.1	-83.5	230	7
2023-09-01T06:00	17740	82	-51.6	-83.2	232	6
2023-09-01T06:00	17763	82	-51.6	-83.2	233	6
2023-09-01T06:00	17789	81	-51.6	-83.2	233	6
2023-09-01T06:00	17810	81	-51.7	-83.2	233	6
2023-09-01T06:00	17835	81	-51.7	-83.2	233	6
2023-09-01T06:00	17856	80	-51.7	-83.2	234	6
2023-09-01T06:00	17881	80	-51.7	-83.2	235	6
2023-09-01T06:00	17902	80	-51.6	-83.2	238	6
2023-09-01T06:00	17925	80	-51.6	-83.2	241	7
2023-09-01T06:00	17947	79	-51.7	-83.2	245	7
2023-09-01T06:00	17968	79	-51.9	-83.4	247	7
2023-09-01T06:00	17993	79	-51.9	-83.4	249	7
2023-09-01T06:00	18015	79	-52.0	-83.5	250	7
2023-09-01T06:00	18036	78	-51.9	-83.4	251	7
2023-09-01T06:00	18061	78	-51.8	-83.3	251	6
2023-09-01T06:00	18081	78	-51.7	-83.2	252	6
2023-09-01T06:00	18101	77	-51.7	-83.2	254	6
2023-09-01T06:00	18128	77	-51.7	-83.2	257	6
2023-09-01T06:00	18151	77	-51.6	-83.2	262	5
2023-09-01T06:00	18170	77	-51.5	-83.1	266	5
2023-09-01T06:00	18198	76	-51.2	-82.9	270	4
2023-09-01T06:00	18220	76	-51.1	-83.4	271	4
2023-09-01T06:00	18241	76	-51.1	-83.4	271	3
2023-09-01T06:00	18265	76	-51.2	-82.9	270	3
2023-09-01T06:00	18288	75	-51.3	-82.9	268	3
2023-09-01T06:00	18310	75	-51.4	-83.0	268	2
2023-09-01T06:00	18335	75	-51.4	-83.0	269	2
2023-09-01T06:00	18357	74	-51.6	-83.2	271	2
2023-09-01T06:00	18378	74	-51.7	-83.2	270	2
2023-09-01T06:00	18401	74	-51.8	-83.3	264	2
2023-09-01T06:00	18425	74	-51.9	-83.4	254	2
2023-09-01T06:00	18452	73	-52.0	-83.5	240	2
2023-09-01T06:00	18476	73	-52.0	-83.5	227	3
2023-09-01T06:00	18498	73	-52.0	-83.5	218	3
2023-09-01T06:00	18524	73	-52.1	-83.5	213	3
2023-09-01T06:00	18545	72	-52.3	-83.7	212	4
2023-09-01T06:00	18572	72	-52.3	-83.7	215	4
2023-09-01T06:00	18593	72	-52.3	-83.7	222	3
2023-09-01T06:00	18616	72	-52.1	-83.5	233	3
2023-09-01T06:00	18636	71	-51.8	-83.3	245	3
2023-09-01T06:00	18659	71	-51.6	-83.2	258	3
2023-09-01T06:00	18685	71	-51.5	-83.7	269	2
2023-09-01T06:00	18706	71	-51.6	-83.2	277	2
2023-09-01T06:00	18729	70	-51.7	-83.2	278	2
2023-09-01T06:00	18753	70	-51.7	-83.2	270	1
2023-09-01T06:00	18780	70	-51.7	-83.2	251	1
2023-09-01T06:00	18802	70	-51.8	-83.3	230	1
2023-09-01T06:00	18828	69	-51.7	-83.2	215	2
2023-09-01T06:00	18848	69	-51.6	-83.2	207	2
2023-09-01T06:00	18872	69	-51.6	-83.8	200	2
2023-09-01T06:00	18897	69	-51.6	-83.8	193	2
2023-09-01T06:00	18918	68	-51.5	-83.7	185	2
2023-09-01T06:00	18942	68	-51.4	-83.6	176	3
2023-09-01T06:00	18968	68	-51.3	-83.6	170	3
2023-09-01T06:00	18994	68	-51.2	-83.5	166	3
2023-09-01T06:00	19020	67	-51.2	-83.5	165	3
2023-09-01T06:00	19039	67	-51.2	-83.5	167	4
2023-09-01T06:00	19060	67	-51.3	-82.9	172	4
2023-09-01T06:00	19088	67	-51.4	-83.0	179	4
2023-09-01T06:00	19111	66	-51.5	-83.1	190	4
2023-09-01T06:00	19134	66	-51.7	-83.2	201	4
2023-09-01T06:00	19159	66	-51.7	-83.2	212	4
2023-09-01T06:00	19180	66	-51.7	-83.2	219	5
2023-09-01T06:00	19205	65	-51.8	-83.3	225	5
2023-09-01T06:00	19229	65	-51.8	-83.3	229	5
2023-09-01T06:00	19252	65	-51.7	-83.2	233	5
2023-09-01T06:00	19276	65	-51.8	-83.3	237	6
2023-09-01T06:00	19302	64	-51.8	-83.3	241	6
2023-09-01T06:00	19328	64	-51.7	-83.2	245	6
2023-09-01T06:00	19351	64	-51.5	-83.7	249	5
2023-09-01T06:00	19372	64	-51.4	-83.6	254	5
2023-09-01T06:00	19394	63	-51.5	-83.7	260	5
2023-09-01T06:00	19420	63	-51.4	-83.6	266	4
2023-09-01T06:00	19446	63	-51.4	-83.6	272	3
2023-09-01T06:00	19472	63	-51.3	-83.6	281	3
2023-09-01T06:00	19496	62	-51.2	-83.5	295	2
2023-09-01T06:00	19523	62	-51.2	-83.5	327	1
2023-09-01T06:00	19549	62	-51.2	-83.5	18	1
2023-09-01T06:00	19572	62	-51.2	-83.5	48	2
2023-09-01T06:00	19595	62	-51.0	-83.3	63	2
2023-09-01T06:00	19620	61	-50.9	-83.3	72	3
2023-09-01T06:00	19643	61	-50.9	-83.3	80	3
2023-09-01T06:00	19670	61	-51.0	-83.3	86	3
2023-09-01T06:00	19691	61	-51.1	-83.4	92	3
2023-09-01T06:00	19720	60	-51.3	-82.9	100	3
2023-09-01T06:00	19743	60	-51.4	-83.0	110	3
2023-09-01T06:00	19765	60	-51.6	-83.2	121	3
2023-09-01T06:00	19792	60	-51.7	-83.2	132	3
2023-09-01T06:00	19813	60	-51.8	-83.3	142	4
2023-09-01T06:00	19841	59	-51.9	-83.4	150	4
2023-09-01T06:00	19860	59	-51.9	-83.4	157	4
2023-09-01T06:00	19889	59	-51.8	-83.3	164	4
2023-09-01T06:00	19914	59	-51.7	-83.2	171	4
2023-09-01T06:00	19938	58	-51.8	-83.3	181	4
2023-09-01T06:00	19961	58	-51.8	-83.3	192	4
2023-09-01T06:00	19986	58	-51.8	-83.3	204	4
2023-09-01T06:00	20010	58	-51.8	-83.3	212	4
2023-09-01T06:00	20035	58	-51.8	-83.3	217	5
2023-09-01T06:00	20059	57	-51.9	-83.4	220	5
2023-09-01T06:00	20084	57	-51.8	-83.3	222	5
2023-09-01T06:00	20110	57	-51.6	-83.8	224	5
2023-09-01T06:00	20133	57	-51.5	-83.7	225	5
2023-09-01T06:00	20161	56	-51.5	-83.7	226	5
2023-09-01T06:00	20185	56	-51.7	-83.2	225	5
2023-09-01T06:00	20212	56	-51.8	-83.3	222	5
2023-09-01T06:00	20232	56	-51.9	-83.4	219	5
2023-09-01T06:00	20257	56	-51.9	-83.4	215	5
2023-09-01T06:00	20285	55	-52.0	-83.5	211	5
2023-09-01T06:00	20311	55	-52.0	-83.5	206	4
2023-09-01T06:00	20336	55	-51.9	-83.4	199	4
2023-09-01T06:00	20366	55	-51.9	-83.4	190	4
2023-09-01T06:00	20386	54	-52.0	-83.5	181	4
2023-09-01T06:00	20414	54	-52.1	-83.5	173	4
2023-09-01T06:00	20440	54	-52.3	-83.7	169	4
2023-09-01T06:00	20460	54	-52.3	-83.7	170	4
2023-09-01T06:00	20485	54	-52.2	-83.6	174	4
2023-09-01T06:00	20511	53	-52.0	-83.5	179	5
2023-09-01T06:00	20535	53	-51.9	-83.4	184	5
2023-09-01T06:00	20562	53	-52.0	-83.5	190	5
2023-09-01T06:00	20587	53	-52.1	-83.5	195	5
2023-09-01T06:00	20610	53	-52.2	-83.6	201	5
2023-09-01T06:00	20637	52	-52.3	-83.7	207	5
2023-09-01T06:00	20662	52	-52.5	-83.8	212	5
2023-09-01T06:00	20682	52	-52.5	-83.8	217	5
2023-09-01T06:00	20711	52	-52.5	-83.8	219	4
2023-09-01T06:00	20735	52	-52.4	-83.8	219	4
2023-09-01T06:00	20761	51	-52.3	-83.7	214	3
2023-09-01T06:00	20785	51	-52.3	-83.7	197	2
2023-09-01T06:00	20809	51	-52.4	-83.8	155	1
2023-09-01T06:00	20842	51	-52.4	-83.8	122	2
2023-09-01T06:00	20862	51	-52.3	-83.7	110	2
2023-09-01T06:00	20887	50	-52.2	-84.2	108	3
2023-09-01T06:00	20912	50	-52.0	-84.1	108	3
2023-09-01T06:00	20936	50	-51.9	-84.0	109	3
2023-09-01T06:00	20958	50	-51.9	-84.0	109	3
2023-09-01T06:00	20985	50	-51.8	-83.9	109	2
2023-09-01T06:00	21011	49	-51.8	-83.9	108	2
2023-09-01T06:00	21038	49	-51.9	-84.0	107	3
2023-09-01T06:00	21061	49	-51.9	-84.0	107	3
2023-09-01T06:00	21085	49	-51.8	-83.9	109	3
2023-09-01T06:00	21114	49	-51.8	-83.3	114	4
2023-09-01T06:00	21142	48	-51.9	-83.4	120	4
2023-09-01T06:00	21165	48	-51.9	-83.4	127	4
2023-09-01T06:00	21190	48	-52.0	-83.5	134	5
2023-09-01T06:00	21224	48	-52.2	-83.6	140	5
2023-09-01T06:00	21246	48	-52.3	-83.7	144	5
2023-09-01T06:00	21272	48	-52.4	-83.8	149	6
2023-09-01T06:00	21298	47	-52.4	-83.8	153	6
2023-09-01T06:00	21322	47	-52.5	-83.8	157	6
2023-09-01T06:00	21351	47	-52.4	-83.8	162	6
2023-09-01T06:00	21377	47	-52.3	-83.7	168	6
2023-09-01T06:00	21404	47	-52.2	-84.2	175	6
2023-09-01T06:00	21435	46	-52.0	-84.1	183	5
2023-09-01T06:00	21454	46	-51.9	-84.0	191	4
2023-09-01T06:00	21485	46	-51.9	-84.0	199	4
2023-09-01T06:00	21510	46	-51.9	-84.0	204	4
2023-09-01T06:00	21536	46	-51.9	-84.0	208	3
2023-09-01T06:00	21556	45	-51.8	-83.9	209	3
2023-09-01T06:00	21590	45	-51.9	-84.0	209	2
2023-09-01T06:00	21612	45	-51.9	-84.0	209	2
2023-09-01T06:00	21641	45	-51.9	-84.0	210	2
2023-09-01T06:00	21664	45	-52.0	-83.5	213	2
2023-09-01T06:00	21691	45	-52.0	-83.5	219	1
2023-09-01T06:00	21715	44	-52.0	-83.5	228	1
2023-09-01T06:00	21742	44	-52.1	-84.2	246	1
2023-09-01T06:00	21769	44	-52.1	-84.2	272	1
2023-09-01T06:00	21792	44	-52.0	-84.1	291	1
2023-09-01T06:00	21818	44	-51.9	-84.0	297	1
2023-09-01T06:00	21841	44	-51.8	-83.9	293	2
2023-09-01T06:00	21868	43	-51.8	-83.9	286	2
2023-09-01T06:00	21889	43	-51.8	-83.9	279	2
2023-09-01T06:00	21916	43	-51.8	-83.9	276	2
2023-09-01T06:00	21940	43	-51.9	-83.4	276	3
2023-09-01T06:00	21960	43	-51.9	-83.4	279	3
2023-09-01T06:00	21988	43	-52.0	-83.5	282	3
2023-09-01T06:00	22011	42	-52.1	-83.5	284	4
2023-09-01T06:00	22040	42	-52.2	-83.6	285	4
2023-09-01T06:00	22065	42	-52.2	-83.6	285	4
2023-09-01T06:00	22089	42	-52.2	-84.2	286	3
2023-09-01T06:00	22119	42	-52.1	-84.2	287	3
2023-09-01T06:00	22139	42	-51.9	-84.0	288	2
2023-09-01T06:00	22165	41	-51.9	-84.0	289	2
2023-09-01T06:00	22191	41	-51.9	-84.0	288	2
2023-09-01T06:00	22218	41	-51.9	-84.0	286	2
2023-09-01T06:00	22241	41	-51.9	-84.0	286	2
2023-09-01T06:00	22265	41	-51.9	-84.0	288	3
2023-09-01T06:00	22295	41	-51.9	-84.0	293	3
2023-09-01T06:00	22322	40	-51.8	-83.9	301	3
2023-09-01T06:00	22345	40	-51.6	-83.8	309	3
2023-09-01T06:00	22370	40	-51.5	-83.7	317	3
2023-09-01T06:00	22396	40	-51.5	-83.7	325	3
2023-09-01T06:00	22428	40	-51.4	-83.6	331	2
2023-09-01T06:00	22454	40	-51.3	-83.6	337	2
2023-09-01T06:00	22479	39	-51.3	-83.6	346	1
2023-09-01T06:00	22503	39	-51.1	-84.1	7	0
2023-09-01T06:00	22530	39	-50.9	-84.0	86	0
2023-09-01T06:00	22560	39	-50.7	-83.8	119	1
2023-09-01T06:00	22583	39	-50.7	-83.8	128	1
2023-09-01T06:00	22614	39	-50.8	-83.9	132	2
2023-09-01T06:00	22642	38	-50.8	-83.9	136	3
2023-09-01T06:00	22667	38	-50.8	-83.2	140	3
2023-09-01T06:00	22692	38	-50.6	-83.1	144	3
2023-09-01T06:00	22720	38	-50.5	-83.0	148	3
2023-09-01T06:00	22746	38	-50.6	-83.1	150	3
2023-09-01T06:00	22772	38	-50.7	-83.1	150	2
2023-09-01T06:00	22804	38	-50.8	-83.2	148	2
2023-09-01T06:00	22831	37	-50.8	-83.2	146	2
2023-09-01T06:00	22860	37	-50.7	-83.8	144	2
2023-09-01T06:00	22888	37	-50.4	-83.6	145	3
2023-09-01T06:00	22913	37	-50.4	-83.6	148	3
2023-09-01T06:00	22945	37	-50.3	-83.5	152	4
2023-09-01T06:00	22971	37	-50.3	-83.5	156	4
2023-09-01T06:00	22995	36	-50.3	-83.5	160	4
2023-09-01T06:00	23028	36	-50.4	-83.6	164	5
2023-09-01T06:00	23054	36	-50.4	-82.9	168	5
2023-09-01T06:00	23084	36	-50.5	-83.0	174	5
2023-09-01T06:00	23109	36	-50.5	-83.0	180	5
2023-09-01T06:00	23137	36	-50.6	-83.1	187	4
2023-09-01T06:00	23163	36	-50.6	-83.1	193	4
2023-09-01T06:00	23198	35	-50.6	-83.1	199	4
2023-09-01T06:00	23220	35	-50.6	-83.1	204	3
2023-09-01T06:00	23251	35	-50.7	-83.1	208	3
2023-09-01T06:00	23282	35	-50.7	-83.1	213	3
2023-09-01T06:00	23302	35	-50.7	-83.1	217	2
2023-09-01T06:00	23331	35	-50.7	-83.1	219	2
2023-09-01T06:00	23369	34	-50.8	-83.2	217	1
2023-09-01T06:00	23391	34	-50.9	-83.3	196	1
2023-09-01T06:00	23416	34	-51.1	-83.4	120	0
2023-09-01T06:00	23447	34	-51.1	-83.4	95	1
2023-09-01T06:00	23471	34	-51.2	-83.5	94	1
2023-09-01T06:00	23502	34	-51.3	-83.6	99	2
2023-09-01T06:00	23529	34	-51.2	-83.5	108	2
2023-09-01T06:00	23557	33	-51.2	-83.5	119	3
2023-09-01T06:00	23580	33	-51.1	-83.4	130	3
2023-09-01T06:00	23602	33	-51.0	-83.3	140	4
2023-09-01T06:00	23631	33	-51.0	-83.3	148	4
2023-09-01T06:00	23661	33	-51.0	-84.0	155	5
2023-09-01T06:00	23686	33	-50.9	-84.0	161	5
2023-09-01T06:00	23719	33	-50.8	-83.9	167	5
2023-09-01T06:00	23742	32	-50.8	-83.9	175	5
2023-09-01T06:00	23771	32	-50.5	-83.7	185	5
2023-09-01T06:00	23797	32	-50.3	-83.5	197	5
2023-09-01T06:00	23818	32	-50.3	-83.5	208	5
2023-09-01T06:00	23845	32	-50.2	-83.5	216	6
2023-09-01T06:00	23876	32	-50.0	-83.3	221	6
2023-09-01T06:00	23903	32	-49.8	-83.2	225	7
2023-09-01T06:00	23923	32	-49.7	-83.1	229	7
2023-09-01T06:00	23956	31	-49.7	-83.1	232	7
2023-09-01T06:00	23986	31	-49.8	-83.2	235	7
2023-09-01T06:00	24011	31	-49.8	-83.2	238	6
2023-09-01T06:00	24030	31	-49.8	-83.2	242	6
2023-09-01T06:00	24061	31	-49.7	-83.1	247	5
2023-09-01T06:00	24082	31	-49.6	-83.0	251	5
2023-09-01T06:00	24110	31	-49.7	-83.1	254	4
2023-09-01T06:00	24140	31	-49.7	-83.1	257	4
2023-09-01T06:00	24169	30	-49.4	-83.7	258	4
2023-09-01T06:00	24194	30	-49.0	-83.4	259	4
2023-09-01T06:00	24224	30	-48.6	-83.1	261	4
2023-09-01T06:00	24246	30	-48.2	-82.8	262	4
2023-09-01T06:00	24272	30	-48.0	-82.7	263	5
2023-09-01T06:00	24300	30	-47.8	-82.5	262	5
2023-09-01T06:00	24331	30	-47.6	-82.4	261	5
2023-09-01T06:00	24355	30	-47.4	-83.1	262	5
2023-09-01T06:00	24377	29	-47.1	-82.9	264	5
2023-09-01T06:00	24416	29	-46.8	-82.7	267	5
2023-09-01T06:00	24437	29	-46.6	-82.6	271	6
2023-09-01T06:00	24463	29	-46.6	-81.7	274	6
2023-09-01T06:00	24495	29	-46.8	-81.8	276	6
2023-09-01T06:00	24517	29	-46.8	-81.8	278	6
2023-09-01T06:00	24544	29	-46.9	-81.9	280	6
2023-09-01T06:00	24581	29	-47.0	-81.9	284	6
2023-09-01T06:00	24598	29	-47.1	-82.0	289	6
2023-09-01T06:00	24623	28	-47.1	-82.0	295	6
2023-09-01T06:00	24656	28	-47.0	-81.9	302	6
2023-09-01T06:00	24688	28	-47.0	-81.9	309	6
2023-09-01T06:00	24707	28	-47.1	-82.0	316	6
2023-09-01T06:00	24729	28	-47.1	-82.0	324	5
2023-09-01T06:00	24762	28	-47.1	-82.0	331	5
2023-09-01T06:00	24783	28	-47.0	-81.9	338	5
2023-09-01T06:00	24810	28	-47.0	-81.9	344	5
2023-09-01T06:00	24837	28	-47.0	-81.9	349	4
2023-09-01T06:00	24864	27	-47.1	-82.0	353	4
2023-09-01T06:00	24889	27	-47.2	-82.1	357	4
2023-09-01T06:00	24922	27	-47.3	-82.2	360	4
2023-09-01T06:00	24956	27	-47.3	-82.2	4	3
2023-09-01T06:00	24975	27	-47.4	-82.2	9	3
2023-09-01T06:00	25008	27	-47.4	-82.2	16	3
2023-09-01T06:00	25035	27	-47.5	-82.3	22	3
2023-09-01T06:00	25061	27	-47.5	-82.3	26	3
2023-09-01T06:00	25081	27	-47.3	-82.2	29	3
2023-09-01T06:00	25107	26	-47.1	-82.0	30	3
2023-09-01T06:00	25137	26	-47.0	-81.9	29	4
2023-09-01T06:00	25168	26	-46.9	-81.9	28	4
2023-09-01T06:00	25194	26	-47.0	-81.9	27	4
2023-09-01T06:00	25225	26	-47.0	-81.9	26	4
2023-09-01T06:00	25253	26	-47.1	-82.0	26	5
2023-09-01T06:00	25282	26	-47.2	-82.1	28	5
2023-09-01T06:00	25313	26	-47.0	-81.9	31	5
2023-09-01T06:00	25340	26	-46.6	-82.6	35	4
2023-09-01T06:00	25363	25	-46.3	-82.4	41	4
2023-09-01T06:00	25394	25	-46.2	-82.3	46	4
2023-09-01T06:00	25411	25	-46.2	-82.3	51	4
2023-09-01T06:00	25450	25	-46.2	-82.3	55	4
2023-09-01T06:00	25467	25	-46.1	-82.2	59	5
2023-09-01T06:00	25493	25	-46.2	-82.3	62	5
2023-09-01T06:00	25531	25	-46.3	-81.4	66	5
2023-09-01T06:00	25550	25	-46.4	-81.5	71	5
2023-09-01T06:00	25584	25	-46.6	-81.7	75	5
2023-09-01T06:00	25609	24	-46.7	-81.7	80	6
2023-09-01T06:00	25643	24	-46.8	-81.8	84	6
2023-09-01T06:00	25670	24	-46.9	-81.9	89	6
2023-09-01T06:00	25692	24	-46.9	-81.9	93	5
2023-09-01T06:00	25728	24	-47.1	-82.0	97	5
2023-09-01T06:00	25748	24	-47.1	-82.0	99	5
2023-09-01T06:00	25786	24	-47.1	-82.0	100	5
2023-09-01T06:00	25813	24	-47.1	-82.0	103	5
2023-09-01T06:00	25848	24	-47.2	-82.1	106	5
2023-09-01T06:00	25872	24	-47.3	-82.2	112	5
2023-09-01T06:00	25898	23	-47.3	-82.2	118	5
2023-09-01T06:00	25927	23	-47.3	-82.2	123	5
2023-09-01T06:00	25949	23	-47.2	-82.1	128	5
2023-09-01T06:00	25988	23	-47.3	-82.2	131	6
2023-09-01T06:00	26015	23	-47.2	-82.1	134	6
2023-09-01T06:00	26045	23	-47.2	-82.1	137	6
2023-09-01T06:00	26068	23	-47.2	-82.1	141	5
2023-09-01T06:00	26107	23	-47.3	-82.2	145	5
2023-09-01T06:00	26139	23	-47.4	-82.2	150	5
2023-09-01T06:00	26166	23	-47.4	-82.2	154	5
2023-09-01T06:00	26195	22	-47.5	-82.3	159	5
2023-09-01T06:00	26214	22	-47.5	-82.3	165	5
2023-09-01T06:00	26250	22	-47.6	-82.4	172	5
2023-09-01T06:00	26275	22	-47.6	-82.4	180	5
2023-09-01T06:00	26310	22	-47.6	-82.4	189	5
2023-09-01T06:00	26338	22	-47.6	-82.4	197	5
2023-09-01T06:00	26362	22	-47.7	-82.4	204	5
2023-09-01T06:00	26392	22	-47.8	-82.5	208	5
2023-09-01T06:00	26430	22	-47.9	-82.6	209	5
2023-09-01T06:00	26449	22	-47.9	-82.6	208	5
2023-09-01T06:00	26490	21	-47.7	-82.4	205	5
2023-09-01T06:00	26512	21	-47.5	-82.3	200	5
2023-09-01T06:00	26536	21	-47.5	-82.3	195	5
2023-09-01T06:00	26573	21	-47.6	-82.4	189	5
2023-09-01T06:00	26598	21	-47.8	-82.5	183	5
2023-09-01T06:00	26621	21	-48.0	-82.7	177	5
2023-09-01T06:00	26645	21	-48.0	-82.7	172	5
2023-09-01T06:00	26676	21	-47.9	-82.6	170	5
2023-09-01T06:00	26708	21	-47.8	-82.5	169	5
2023-09-01T06:00	26744	21	-47.8	-82.5	172	5
2023-09-01T06:00	26772	21	-47.8	-82.5	176	6
2023-09-01T06:00	26802	20	-47.7	-82.4	181	6
2023-09-01T06:00	26830	20	-47.8	-82.5	188	6
2023-09-01T06:00	26852	20	-47.8	-82.5	193	6
2023-09-01T06:00	26886	20	-47.9	-82.6	199	6
2023-09-01T06:00	26902	20	-48.0	-82.7	203	6
2023-09-01T06:00	26930	20	-47.9	-82.6	206	6
2023-09-01T06:00	26956	20	-47.6	-83.3	209	6
2023-09-01T06:00	26982	20	-47.3	-83.1	211	6
2023-09-01T06:00	27009	20	-47.0	-82.9	213	6
2023-09-01T06:00	27044	20	-46.8	-82.7	215	7
2023-09-01T06:00	27063	20	-46.6	-82.6	217	7
2023-09-01T06:00	27099	20	-46.5	-82.5	220	7
2023-09-01T06:00	27124	19	-46.4	-82.4	224	8
2023-09-01T06:00	27167	19	-46.2	-82.3	228	8
2023-09-01T06:00	27176	19	-46.0	-82.1	233	8
2023-09-01T06:00	27212	19	-46.0	-82.1	237	8
2023-09-01T06:00	27232	19	-46.1	-82.2	239	8
2023-09-01T06:00	27265	19	-46.2	-82.3	241	8
2023-09-01T06:00	27296	19	-46.3	-82.4	241	8
2023-09-01T06:00	27317	19	-46.2	-82.3	241	7
2023-09-01T06:00	27353	19	-46.0	-82.1	242	7
2023-09-01T06:00	27383	19	-45.7	-81.9	244	6
2023-09-01T06:00	27415	19	-45.7	-81.9	247	6
2023-09-01T06:00	27445	19	-45.6	-81.9	252	5
2023-09-01T06:00	27464	19	-45.5	-81.8	256	5
2023-09-01T12:00	-999					
2023-09-01T12:00	138	998	18.4	9.0	248	3
2023-09-01T12:00	170	995	18.0	8.7	242	4
2023-09-01T12:00	202	991	17.7	8.5	238	5
2023-09-01T12:00	241	986	17.0	8.1	236	6
2023-09-01T12:00	280	982	16.6	8.0	235	6
2023-09-01T12:00	309	979	16.2	7.7	236	6
2023-09-01T12:00	332	976	16.0	7.8	238	6
2023-09-01T12:00	355	973	15.7	7.7	241	6
2023-09-01T12:00	378	971	15.5	7.7	244	7
2023-09-01T12:00	398	968	15.3	7.8	247	7
2023-09-01T12:00	420	966	15.1	7.7	249	7
2023-09-01T12:00	448	963	14.8	7.6	251	7
2023-09-01T12:00	475	960	14.6	7.6	253	6
2023-09-01T12:00	498	957	14.4	7.3	255	7
2023-09-01T12:00	520	954	14.1	7.4	257	7
2023-09-01T12:00	546	952	13.8	7.4	259	7
2023-09-01T12:00	568	949	13.6	7.4	259	7
2023-09-01T12:00	586	947	13.5	7.1	258	8
2023-09-01T12:00	607	945	13.3	7.0	256	8
2023-09-01T12:00	622	943	13.3	6.7	255	8
2023-09-01T12:00	639	941	13.2	6.4	254	9
2023-09-01T12:00	666	938	12.9	6.4	255	8
2023-09-01T12:00	692	935	12.6	6.8	257	8
2023-09-01T12:00	711	933	12.3	6.9	257	8
2023-09-01T12:00	736	930	12.1	7.0	256	8
2023-09-01T12:00	761	928	11.8	6.8	254	8
2023-09-01T12:00	783	925	11.7	6.6	251	8
2023-09-01T12:00	806	922	11.5	6.8	248	8
2023-09-01T12:00	834	920	11.3	6.0	245	8
2023-09-01T12:00	858	917	11.0	6.0	245	8
2023-09-01T12:00	885	914	10.8	5.8	245	8
2023-09-01T12:00	907	911	10.6	5.8	245	8
2023-09-01T12:00	929	909	10.4	5.9	246	8
2023-09-01T12:00	955	906	10.2	5.7	248	8
2023-09-01T12:00	985	903	9.9	5.8	249	8
2023-09-01T12:00	1011	900	9.6	5.5	251	8
2023-09-01T12:00	1036	897	9.3	5.6	254	8
2023-09-01T12:00	1062	895	9.1	5.7	256	8
2023-09-01T12:00	1089	892	8.9	5.4	258	8
2023-09-01T12:00	1118	889	8.6	5.3	259	8
2023-09-01T12:00	1145	886	8.4	5.4	259	9
2023-09-01T12:00	1171	883	8.1	5.2	258	9
2023-09-01T12:00	1194	881	7.9	5.0	257	9
2023-09-01T12:00	1217	878	7.7	4.9	258	9
2023-09-01T12:00	1245	875	7.5	4.7	259	9
2023-09-01T12:00	1272	872	7.3	4.6	261	9
2023-09-01T12:00	1305	869	7.0	4.5	263	8
2023-09-01T12:00	1331	866	6.7	4.5	263	8
2023-09-01T12:00	1354	864	6.5	4.4	263	8
2023-09-01T12:00	1374	861	6.3	4.4	261	8
2023-09-01T12:00	1397	859	6.1	4.5	260	9
2023-09-01T12:00	1419	857	5.9	4.4	258	9
2023-09-01T12:00	1443	854	5.7	4.4	257	9
2023-09-01T12:00	1463	852	5.5	4.2	257	9
2023-09-01T12:00	1485	850	5.3	4.4	256	9
2023-09-01T12:00	1508	847	5.0	4.4	256	9
2023-09-01T12:00	1536	845	5.0	3.3	256	10
2023-09-01T12:00	1562	842	4.9	2.7	256	11
2023-09-01T12:00	1581	840	4.7	3.1	258	11
2023-09-01T12:00	1605	838	4.5	2.5	261	11
2023-09-01T12:00	1627	835	4.3	2.4	264	11
2023-09-01T12:00	1653	833	4.5	1.4	267	11
2023-09-01T12:00	1676	830	4.6	0.9	269	11
2023-09-01T12:00	1697	828	4.6	0.8	269	11
2023-09-01T12:00	1716	826	4.4	0.8	269	11
2023-09-01T12:00	1740	824	4.2	0.5	268	11
2023-09-01T12:00	1761	822	4.1	0.2	268	11
2023-09-01T12:00	1781	820	4.0	-0.3	269	11
2023-09-01T12:00	1805	817	3.9	-0.5	270	11
2023-09-01T12:00	1836	814	3.7	-0.8	270	11
2023-09-01T12:00	1861	812	3.7	-1.9	269	10
2023-09-01T12:00	1888	809	3.7	-2.0	266	10
2023-09-01T12:00	1919	806	3.8	-3.1	262	9
2023-09-01T12:00	1944	803	3.7	-3.6	258	9
2023-09-01T12:00	1973	801	3.6	-5.8	255	9
2023-09-01T12:00	1998	798	3.4	-6.8	252	9
2023-09-01T12:00	2019	796	3.3	-7.9	249	9
2023-09-01T12:00	2036	794	3.2	-8.2	246	9
2023-09-01T12:00	2055	792	3.1	-8.8	246	9
2023-09-01T12:00	2074	790	3.1	-10.3	247	10
2023-09-01T12:00	2095	789	3.1	-12.3	249	10
2023-09-01T12:00	2114	787	3.0	-13.1	252	11
2023-09-01T12:00	2132	785	2.9	-13.0	254	11
2023-09-01T12:00	2150	783	3.0	-13.9	254	12
2023-09-01T12:00	2168	781	2.9	-14.3	254	12
2023-09-01T12:00	2186	780	2.8	-14.7	253	12
2023-09-01T12:00	2203	778	2.7	-15.0	253	11
2023-09-01T12:00	2224	776	2.6	-13.8	254	11
2023-09-01T12:00	2245	774	2.4	-10.9	258	10
2023-09-01T12:00	2262	772	2.4	-10.2	262	10
2023-09-01T12:00	2294	770	2.3	-9.7	267	10
2023-09-01T12:00	2313	767	2.2	-10.1	271	10
2023-09-01T12:00	2337	765	2.1	-11.4	272	9
2023-09-01T12:00	2373	762	2.0	-12.6	273	9
2023-09-01T12:00	2403	759	2.0	-12.7	273	9
2023-09-01T12:00	2428	757	1.9	-12.9	274	9
2023-09-01T12:00	2448	755	1.8	-13.0	275	9
2023-09-01T12:00	2470	753	1.7	-12.9	276	9
2023-09-01T12:00	2498	750	1.4	-13.3	277	8
2023-09-01T12:00	2529	747	1.2	-14.8	276	8
2023-09-01T12:00	2558	744	1.2	-6.6	275	8
2023-09-01T12:00	2590	742	1.1	-7.1	274	8
2023-09-01T12:00	2617	739	1.0	-7.2	274	8
2023-09-01T12:00	2643	737	1.0	-7.5	275	8
2023-09-01T12:00	2671	734	1.1	-10.4	276	8
2023-09-01T12:00	2695	732	1.5	-14.9	278	9
2023-09-01T12:00	2719	730	1.7	-15.2	280	9
2023-09-01T12:00	2753	727	1.5	-14.7	280	10
2023-09-01T12:00	2782	724	1.4	-15.1	280	10
2023-09-01T12:00	2808	722	1.3	-14.7	280	10
2023-09-01T12:00	2836	719	1.1	-14.0	279	10
2023-09-01T12:00	2869	716	0.9	-14.4	278	10
2023-09-01T12:00	2897	714	0.7	-13.8	278	10
2023-09-01T12:00	2922	711	0.5	-14.1	279	10
2023-09-01T12:00	2949	709	0.3	-12.3	280	10
2023-09-01T12:00	2972	707	0.2	-12.7	282	10
2023-09-01T12:00	2997	705	0.1	-14.0	283	11
2023-09-01T12:00	3026	702	-0.1	-15.0	285	11
2023-09-01T12:00	3049	700	-0.2	-13.5	285	11
2023-09-01T12:00	3081	697	-0.4	-15.1	285	11
2023-09-01T12:00	3116	695	-0.7	-15.0	285	11
2023-09-01T12:00	3147	692	-0.8	-16.0	284	11
2023-09-01T12:00	3176	689	-0.9	-16.4	283	11
2023-09-01T12:00	3210	686	-1.2	-16.6	282	12
2023-09-01T12:00	3241	684	-1.5	-16.8	280	12
2023-09-01T12:00	3264	682	-1.7	-16.8	279	12
2023-09-01T12:00	3296	679	-2.0	-16.9	278	12
2023-09-01T12:00	3326	676	-2.2	-16.9	277	11
2023-09-01T12:00	3353	674	-2.4	-17.0	277	10
2023-09-01T12:00	3377	672	-2.6	-17.7	278	10
2023-09-01T12:00	3411	669	-2.3	-24.6	280	9
2023-09-01T12:00	3440	667	-2.3	-22.9	282	9
2023-09-01T12:00	3467	665	-2.5	-22.4	284	10
2023-09-01T12:00	3489	663	-2.7	-22.1	285	11
2023-09-01T12:00	3513	661	-2.8	-20.7	285	11
2023-09-01T12:00	3537	659	-3.0	-20.5	285	12
2023-09-01T12:00	3561	657	-3.1	-20.7	285	12
2023-09-01T12:00	3579	655	-3.3	-20.8	284	12
2023-09-01T12:00	3609	653	-3.6	-20.7	283	12
2023-09-01T12:00	3633	651	-3.8	-20.7	283	12
2023-09-01T12:00	3663	648	-4.0	-20.5	282	12
2023-09-01T12:00	3693	646	-4.3	-20.4	282	12
2023-09-01T12:00	3723	643	-4.6	-20.5	281	11
2023-09-01T12:00	3752	641	-4.9	-20.4	280	11
2023-09-01T12:00	3778	639	-5.1	-19.4	279	10
2023-09-01T12:00	3802	637	-5.1	-17.4	279	10
2023-09-01T12:00	3821	635	-5.3	-17.5	279	9
2023-09-01T12:00	3841	634	-5.4	-17.6	281	9
2023-09-01T12:00	3862	632	-5.6	-17.9	284	9
2023-09-01T12:00	3892	630	-5.8	-18.8	287	10
2023-09-01T12:00	3912	628	-6.0	-19.2	288	10
2023-09-01T12:00	3937	626	-6.2	-19.3	288	10
2023-09-01T12:00	3958	624	-6.4	-19.3	287	11
2023-09-01T12:00	3988	622	-6.7	-17.7	286	11
2023-09-01T12:00	4021	619	-6.9	-18.0	286	11
2023-09-01T12:00	4049	617	-7.1		287	12
2023-09-01T12:00	4069	616	-7.2	-17.7	288	12
2023-09-01T12:00	4089	614	-7.3	-18.0	289	13
2023-09-01T12:00	4113	612	-7.5	-18.5	289	13
2023-09-01T12:00	4132	611	-7.6	-18.5	288	14
2023-09-01T12:00	4154	609	-7.6	-18.3	287	14
2023-09-01T12:00	4181	607	-7.8	-18.6	287	14
2023-09-01T12:00	4196	605	-7.8	-19.0	286	14
2023-09-01T12:00	4225	603	-7.8	-19.8	287	14
2023-09-01T12:00	4255	601	-7.9	-20.5	287	15
2023-09-01T12:00	4281	599	-7.8		288	15
2023-09-01T12:00	4306	597	-7.7	-23.4	289	15
2023-09-01T12:00	4333	595	-7.8	-24.0	290	15
2023-09-01T12:00	4351	594	-8.0	-24.0	290	14
2023-09-01T12:00	4367	592	-8.1	-23.9	290	14
2023-09-01T12:00	4384	591	-8.3	-23.9	288	14
2023-09-01T12:00	4404	589	-8.5	-23.9	286	14
2023-09-01T12:00	4435	587	-8.7	-24.5	284	14
2023-09-01T12:00	4457	586	-8.7	-25.9	282	14
2023-09-01T12:00	4475	584	-8.8	-26.0	281	13
2023-09-01T12:00	4500	582	-8.9	-25.9	281	13
2023-09-01T12:00	4523	581	-9.1	-25.8	282	13
2023-09-01T12:00	4545	579	-9.3	-25.8	284	13
2023-09-01T12:00	4566	577	-9.6	-25.9	286	13
2023-09-01T12:00	4595	575	-9.8	-26.0	287	14
2023-09-01T12:00	4616	574	-10.0	-26.1	288	14
2023-09-01T12:00	4636	572	-10.2	-26.2	288	15
2023-09-01T12:00	4665	570	-10.5	-26.3	286	14
2023-09-01T12:00	4689	568	-10.7	-26.1	285	14
2023-09-01T12:00	4719	566	-11.0	-26.3	283	14
2023-09-01T12:00	4739	564	-11.2	-26.4	282	14
2023-09-01T12:00	4769	562	-11.4	-26.4	282	14
2023-09-01T12:00	4793	561	-11.6	-27.1	282	14
2023-09-01T12:00	4813	559	-11.7	-27.6	281	14
2023-09-01T12:00	4836	557	-11.9	-28.1	280	14
2023-09-01T12:00	4863	556	-12.2	-28.8	279	15
2023-09-01T12:00	4886	554	-12.4	-29.0	279	15
2023-09-01T12:00	4910	552	-12.6	-29.0	279	15
2023-09-01T12:00	4933	550	-12.8	-29.5	280	15
2023-09-01T12:00	4963	548	-13.0	-28.6	281	15
2023-09-01T12:00	4983	547	-13.2	-28.4	282	15
2023-09-01T12:00	5001	545	-13.3	-28.1	282	15
2023-09-01T12:00	5021	544	-13.5	-27.8	282	15
2023-09-01T12:00	5053	542	-13.7	-27.5	282	15
2023-09-01T12:00	5079	540	-13.9	-29.2	281	16
2023-09-01T12:00	5104	538	-14.1	-30.3	280	16
2023-09-01T12:00	5130	536	-14.2	-32.6	279	16
2023-09-01T12:00	5148	535	-14.3	-32.7	279	16
2023-09-01T12:00	5163	534	-14.4	-32.2	278	16
2023-09-01T12:00	5181	533	-14.6	-31.3	277	16
2023-09-01T12:00	5209	531	-14.8	-31.1	275	16
2023-09-01T12:00	5240	529	-15.1	-30.6	274	16
2023-09-01T12:00	5258	527	-15.2	-32.0	274	16
2023-09-01T12:00	5277	526	-15.4	-32.7	275	16
2023-09-01T12:00	5301	524	-15.6	-33.0	277	16
2023-09-01T12:00	5326	523	-15.8	-34.1	279	17
2023-09-01T12:00	5350	521	-16.0	-34.9	280	17
2023-09-01T12:00	5370	519	-16.1	-33.9	279	17
2023-09-01T12:00	5398	518	-16.3	-31.0	279	18
2023-09-01T12:00	5429	516	-16.5	-30.4	277	18
2023-09-01T12:00	5450	514	-16.7	-30.6	276	18
2023-09-01T12:00	5469	513	-16.9	-30.6	276	18
2023-09-01T12:00	5498	511	-17.2	-30.7	277	18
2023-09-01T12:00	5531	509	-17.3	-31.5	278	18
2023-09-01T12:00	5550	507	-17.5	-31.4	279	18
2023-09-01T12:00	5570	506	-17.7	-31.5	280	17
2023-09-01T12:00	5589	504	-17.8	-31.5	281	17
2023-09-01T12:00	5615	503	-18.0	-31.6	280	17
2023-09-01T12:00	5642	501	-18.2	-32.1	280	17
2023-09-01T12:00	5664	499	-18.3	-32.8	280	17
2023-09-01T12:00	5694	498	-18.6	-33.7	281	16
2023-09-01T12:00	5717	496	-18.7	-34.9	282	16
2023-09-01T12:00	5740	494	-18.9	-35.3	283	16
2023-09-01T12:00	5765	493	-19.0	-36.0	283	15
2023-09-01T12:00	5793	491	-19.2	-37.1	283	15
2023-09-01T12:00	5812	490	-19.3	-37.9	282	16
2023-09-01T12:00	5832	488	-19.4	-37.9	281	16
2023-09-01T12:00	5854	487	-19.5	-37.7	280	16
2023-09-01T12:00	5884	485	-19.8	-37.9	279	17
2023-09-01T12:00	5903	484	-19.9	-37.8	280	18
2023-09-01T12:00	5932	482	-20.2	-37.8	280	18
2023-09-01T12:00	5962	480	-20.4	-38.4	281	19
2023-09-01T12:00	5980	479	-20.5	-38.2	281	19
2023-09-01T12:00	5998	477	-20.5	-38.2	281	19
2023-09-01T12:00	6025	476	-20.7	-39.0	281	19
2023-09-01T12:00	6060	474	-20.9	-39.9	281	20
2023-09-01T12:00	6098	471	-21.0	-39.6	281	20
2023-09-01T12:00	6126	469	-21.3	-38.6	281	20
2023-09-01T12:00	6147	468	-21.5	-38.9	282	20
2023-09-01T12:00	6166	467	-21.6		283	20
2023-09-01T12:00	6198	465	-21.8	-36.9	284	20
2023-09-01T12:00	6219	463	-22.0	-36.8	286	19
2023-09-01T12:00	6245	462	-22.2	-36.9	287	19
2023-09-01T12:00	6264	461	-22.3	-37.3	288	20
2023-09-01T12:00	6284	459	-22.4	-37.3	288	20
2023-09-01T12:00	6306	458	-22.6	-38.2	288	20
2023-09-01T12:00	6335	456	-22.8	-41.2	287	20
2023-09-01T12:00	6367	454	-23.0	-44.8	286	20
2023-09-01T12:00	6398	452	-23.0	-44.3	284	21
2023-09-01T12:00	6421	451	-23.1	-42.5	282	21
2023-09-01T12:00	6459	449	-23.2	-40.1	281	22
2023-09-01T12:00	6484	447	-23.5	-39.9	280	23
2023-09-01T12:00	6507	446	-23.7	-38.8	279	24
2023-09-01T12:00	6528	444	-23.8	-36.3	279	24
2023-09-01T12:00	6556	443	-24.0	-33.3	279	25
2023-09-01T12:00	6585	441	-24.2	-32.0	279	26
2023-09-01T12:00	6606	440	-24.4	-31.8	280	26
2023-09-01T12:00	6628	438	-24.6	-31.3	280	26
2023-09-01T12:00	6649	437	-24.8	-31.1	282	26
2023-09-01T12:00	6672	435	-25.0	-30.2	283	26
2023-09-01T12:00	6706	434	-25.3	-30.8	284	26
2023-09-01T12:00	6732	432	-25.5	-30.8	285	26
2023-09-01T12:00	6752	431	-25.7	-30.4	286	26
2023-09-01T12:00	6789	429	-25.9	-30.0	287	26
2023-09-01T12:00	6808	427	-26.1	-30.3	288	26
2023-09-01T12:00	6828	426	-26.3	-30.2	288	26
2023-09-01T12:00	6851	425	-26.5	-30.3	288	25
2023-09-01T12:00	6882	423	-26.7	-30.3	288	25
2023-09-01T12:00	6915	421	-27.0	-31.0	289	25
2023-09-01T12:00	6933	420	-27.2	-31.1	289	25
2023-09-01T12:00	6953	419	-27.3	-31.3	289	25
2023-09-01T12:00	6974	418	-27.5	-31.5	289	25
2023-09-01T12:00	6999	416	-27.6	-32.8	289	25
2023-09-01T12:00	7031	415	-27.9	-34.3	288	25
2023-09-01T12:00	7061	413	-28.1	-34.5	288	25
2023-09-01T12:00	7085	411	-28.3	-34.8	288	24
2023-09-01T12:00	7110	410	-28.5	-35.6	288	24
2023-09-01T12:00	7142	408	-28.6	-38.0	289	25
2023-09-01T12:00	7169	407	-28.9	-39.5	290	25
2023-09-01T12:00	7190	405	-29.1	-39.6	290	26
2023-09-01T12:00	7211	404	-29.3	-40.4	290	27
2023-09-01T12:00	7229	403	-29.4	-40.4	289	27
2023-09-01T12:00	7251	402	-29.6	-40.5	288	28
2023-09-01T12:00	7278	400	-29.9	-41.0	287	28
2023-09-01T12:00	7314	399	-30.0	-43.2	287	28
2023-09-01T12:00	7333	397	-30.1	-44.9	287	29
2023-09-01T12:00	7352	396	-30.1	-46.0	287	29
2023-09-01T12:00	7371	395	-30.2	-46.8	288	29
2023-09-01T12:00	7392	394	-30.3	-46.5	289	30
2023-09-01T12:00	7421	392	-30.5	-46.7	290	30
2023-09-01T12:00	7459	391	-30.6	-48.0	290	30
2023-09-01T12:00	7477	389	-30.6	-48.4	290	30
2023-09-01T12:00	7499	388	-30.7	-47.2	290	31
2023-09-01T12:00	7528	387	-30.9	-47.0	290	31
2023-09-01T12:00	7559	385	-31.1	-46.5	289	31
2023-09-01T12:00	7599	383	-31.4	-45.9	290	31
2023-09-01T12:00	7616	382	-31.5	-46.1	290	31
2023-09-01T12:00	7633	381	-31.6	-46.6	291	31
2023-09-01T12:00	7651	380	-31.7	-47.2	291	32
2023-09-01T12:00	7668	379	-31.8	-47.5	292	32
2023-09-01T12:00	7689	378	-32.0	-47.9	292	32
2023-09-01T12:00	7706	377	-32.2	-48.3	292	33
2023-09-01T12:00	7726	376	-32.3	-48.3	291	33
2023-09-01T12:00	7748	375	-32.5	-48.0	291	33
2023-09-01T12:00	7769	374	-32.7	-47.6	291	33
2023-09-01T12:00	7792	372	-32.9	-47.2	291	33
2023-09-01T12:00	7816	371	-33.2	-47.1	290	33
2023-09-01T12:00	7847	370	-33.4	-46.9	290	33
2023-09-01T12:00	7874	368	-33.6	-43.6	290	33
2023-09-01T12:00	7905	366	-33.9	-43.9	289	33
2023-09-01T12:00	7932	365	-34.1	-44.1	288	34
2023-09-01T12:00	7960	364	-34.3	-42.3	287	35
2023-09-01T12:00	7991	362	-34.4	-39.8	287	36
2023-09-01T12:00	8019	361	-34.2	-38.2	286	37
2023-09-01T12:00	8053	359	-34.1	-37.6	287	37
2023-09-01T12:00	8082	357	-34.1	-38.0	287	38
2023-09-01T12:00	8104	356	-34.2	-37.8	289	38
2023-09-01T12:00	8132	355	-34.4	-38.0	290	38
2023-09-01T12:00	8160	353	-34.6	-38.3	290	38
2023-09-01T12:00	8187	352	-34.9	-38.4	291	39
2023-09-01T12:00	8214	351	-35.0	-38.8	290	39
2023-09-01T12:00	8239	349	-35.2	-38.8	289	39
2023-09-01T12:00	8265	348	-35.4	-39.0	289	40
2023-09-01T12:00	8294	347	-35.7	-39.4	289	40
2023-09-01T12:00	8327	345	-36.0	-39.9	290	40
2023-09-01T12:00	8361	343	-36.3	-39.8	291	40
2023-09-01T12:00	8378	342	-36.5	-40.0	291	40
2023-09-01T12:00	8399	341	-36.6	-40.1	291	41
2023-09-01T12:00	8419	340	-36.8		291	41
2023-09-01T12:00	8440	339	-37.0	-40.5	291	42
2023-09-01T12:00	8464	338	-37.1	-40.6	291	42
2023-09-01T12:00	8487	337	-37.3	-40.8	290	42
2023-09-01T12:00	8517	336	-37.6	-40.8	290	42
2023-09-01T12:00	8557	334	-38.0	-41.2	290	42
2023-09-01T12:00	8582	333	-38.2	-41.5	289	41
2023-09-01T12:00	8601	331	-38.4	-41.3	290	41
2023-09-01T12:00	8628	330	-38.7	-41.4	290	41
2023-09-01T12:00	8654	329	-38.9	-41.6	290	41
2023-09-01T12:00	8688	327	-39.2	-42.1	290	41
2023-09-01T12:00	8719	326	-39.4	-42.6	289	41
2023-09-01T12:00	8755	324	-39.7	-43.4	289	41
2023-09-01T12:00	8788	323	-40.0	-43.1	289	41
2023-09-01T12:00	8822	321	-40.3	-43.3	289	41
2023-09-01T12:00	8838	320	-40.5	-43.6	289	41
2023-09-01T12:00	8860	319	-40.7	-43.7	290	41
2023-09-01T12:00	8900	318	-41.0	-43.9	290	40
2023-09-01T12:00	8928	316	-41.2	-45.9	291	40
2023-09-01T12:00	8959	315	-41.5	-46.6	291	40
2023-09-01T12:00	8990	313	-41.8	-46.5	291	40
2023-09-01T12:00	9010	312	-42.0	-46.4	291	40
2023-09-01T12:00	9031	311	-42.2	-46.2	290	41
2023-09-01T12:00	9056	310	-42.4	-46.0	290	41
2023-09-01T12:00	9080	309	-42.7	-46.4	290	42
2023-09-01T12:00	9103	308	-42.9	-46.6	291	42
2023-09-01T12:00	9131	307	-43.2	-46.7	292	43
2023-09-01T12:00	9159	306	-43.4	-46.7	293	43
2023-09-01T12:00	9181	304	-43.6	-46.8	294	43
2023-09-01T12:00	9203	303	-43.9	-46.8	295	43
2023-09-01T12:00	9231	302	-44.1	-46.7	294	42
2023-09-01T12:00	9263	301	-44.4	-47.0	293	42
2023-09-01T12:00	9291	300	-44.7	-47.4	292	42
2023-09-01T12:00	9319	298	-45.0	-47.5	291	42
2023-09-01T12:00	9346	297	-45.2	-47.6	291	42
2023-09-01T12:00	9369	296	-45.5	-47.9	291	43
2023-09-01T12:00	9395	295	-45.7	-48.5	292	43
2023-09-01T12:00	9414	294	-45.8	-48.8	293	44
2023-09-01T12:00	9435	293	-46.0	-48.8	293	44
2023-09-01T12:00	9456	292	-46.2	-48.8	294	44
2023-09-01T12:00	9474	291	-46.4	-48.8	294	43
2023-09-01T12:00	9499	290	-46.6	-49.1	294	43
2023-09-01T12:00	9527	289	-46.9	-49.6	294	43
2023-09-01T12:00	9563	288	-47.2	-50.5	294	44
2023-09-01T12:00	9592	286	-47.4	-50.9	294	44
2023-09-01T12:00	9615	285	-47.6	-51.0	294	44
2023-09-01T12:00	9637	284	-47.8	-51.5	295	45
2023-09-01T12:00	9664	283	-48.0	-51.9	295	46
2023-09-01T12:00	9704	282	-48.4	-52.0	296	46
2023-09-01T12:00	9737	280	-48.7	-52.3	296	47
2023-09-01T12:00	9754	279	-48.8	-52.3	297	47
2023-09-01T12:00	9778	278	-49.0	-52.3	298	47
2023-09-01T12:00	9804	277	-49.2	-52.7	298	47
2023-09-01T12:00	9842	276	-49.3	-53.4	298	46
2023-09-01T12:00	9876	274	-49.6	-54.4	297	45
2023-09-01T12:00	9905	273	-49.8	-54.6	297	45
2023-09-01T12:00	9932	272	-50.0	-54.8	296	44
2023-09-01T12:00	9958	271	-50.2	-55.8	296	43
2023-09-01T12:00	9982	270	-50.3	-57.5	295	42
2023-09-01T12:00	10001	269	-50.3	-59.4	295	42
2023-09-01T12:00	10021	268	-50.4	-59.7	295	41
2023-09-01T12:00	10038	267	-50.5	-59.2	296	41
2023-09-01T12:00	10056	267	-50.6	-58.9	296	41
2023-09-01T12:00	10076	266	-50.7	-58.8	296	42
2023-09-01T12:00	10098	265	-50.8	-59.1	297	42
2023-09-01T12:00	10123	264	-50.9	-59.9	297	43
2023-09-01T12:00	10143	263	-51.0	-60.5	297	43
2023-09-01T12:00	10166	262	-51.0	-60.7	298	43
2023-09-01T12:00	10192	261	-51.0	-60.6	298	43
2023-09-01T12:00	10218	260	-51.2	-60.6	297	43
2023-09-01T12:00	10249	259	-51.3	-60.8	296	42
2023-09-01T12:00	10282	258	-51.3	-61.3	294	42
2023-09-01T12:00	10322	256	-51.1	-61.7	292	41
2023-09-01T12:00	10352	255	-51.0	-62.1	290	40
2023-09-01T12:00	10372	254	-50.9	-62.4	289	40
2023-09-01T12:00	10392	253	-50.7	-62.7	287	40
2023-09-01T12:00	10419	252	-50.7	-62.9	287	40
2023-09-01T12:00	10440	251	-50.6	-63.1	286	40
2023-09-01T12:00	10460	251	-50.5	-63.3	285	40
2023-09-01T12:00	10482	250	-50.2	-63.5	283	40
2023-09-01T12:00	10500	249	-50.1	-63.8	281	41
2023-09-01T12:00	10529	248	-50.2	-63.7	279	41
2023-09-01T12:00	10563	247	-50.2	-63.5	277	42
2023-09-01T12:00	10592	246	-50.1	-63.4	276	43
2023-09-01T12:00	10619	245	-50.3	-63.5	276	43
2023-09-01T12:00	10640	244	-50.4	-63.5	276	44
2023-09-01T12:00	10663	243	-50.6	-63.5	276	44
2023-09-01T12:00	10687	242	-50.7	-63.4	277	44
2023-09-01T12:00	10712	241	-50.8	-63.2	277	44
2023-09-01T12:00	10736	240	-51.0	-63.2	278	44
2023-09-01T12:00	10757	239	-51.2	-63.2	279	44
2023-09-01T12:00	10780	239	-51.3	-63.2	280	44
2023-09-01T12:00	10805	238	-51.5	-63.8	282	43
2023-09-01T12:00	10843	236	-51.0	-64.8	284	42
2023-09-01T12:00	10883	235	-50.3	-66.5	286	41
2023-09-01T12:00	10921	234	-49.9	-68.1	288	39
2023-09-01T12:00	10951	232	-49.8	-68.8	290	38
2023-09-01T12:00	10985	231	-50.0	-68.8	291	37
2023-09-01T12:00	11019	230	-50.3	-68.9	291	36
2023-09-01T12:00	11041	229	-50.4	-69.1	291	35
2023-09-01T12:00	11072	228	-50.5	-69.3	291	35
2023-09-01T12:00	11098	227	-50.7	-69.5	291	34
2023-09-01T12:00	11120	226	-50.8	-69.6	291	34
2023-09-01T12:00	11151	225	-51.0	-69.9	291	34
2023-09-01T12:00	11183	224	-51.2	-70.0	290	34
2023-09-01T12:00	11211	223	-51.4	-70.1	289	33
2023-09-01T12:00	11253	222	-51.6	-70.3	287	32
2023-09-01T12:00	11280	221	-51.8	-70.5	286	31
2023-09-01T12:00	11300	220	-51.8	-70.7	284	30
2023-09-01T12:00	11325	219	-51.8	-71.1	283	29
2023-09-01T12:00	11352	219	-51.6	-71.7	283	29
2023-09-01T12:00	11372	218	-51.2	-72.6	283	29
2023-09-01T12:00	11394	217	-50.3	-73.8	283	29
2023-09-01T12:00	11416	216	-49.4	-74.7	284	29
2023-09-01T12:00	11438	216	-49.4	-75.0	284	30
2023-09-01T12:00	11458	215	-49.5	-75.0	285	30
2023-09-01T12:00	11481	214	-49.7	-75.2	286	30
2023-09-01T12:00	11501	214	-49.5	-75.0	286	29
2023-09-01T12:00	11524	213	-49.4	-75.2	286	28
2023-09-01T12:00	11545	212	-49.3	-75.3	286	28
2023-09-01T12:00	11568	211	-49.1	-75.4	285	27
2023-09-01T12:00	11587	211	-49.0	-75.6	285	26
2023-09-01T12:00	11608	210	-49.0	-75.9	284	26
2023-09-01T12:00	11633	209	-48.9	-76.3	285	25
2023-09-01T12:00	11654	209	-48.5	-76.6	285	24
2023-09-01T12:00	11674	208	-47.8	-76.7	285	24
2023-09-01T12:00	11694	207	-47.6	-77.0	285	23
2023-09-01T12:00	11717	207	-47.6	-77.0	285	23
2023-09-01T12:00	11739	206	-47.6	-77.0	285	22
2023-09-01T12:00	11758	205	-47.5	-77.3	286	22
2023-09-01T12:00	11777	205	-47.2	-77.0	286	22
2023-09-01T12:00	11796	204	-47.1	-77.0	286	22
2023-09-01T12:00	11818	204	-46.9	-77.2	286	22
2023-09-01T12:00	11843	203	-46.7	-77.1	285	21
2023-09-01T12:00	11866	202	-46.7	-77.5	284	21
2023-09-01T12:00	11887	201	-46.5	-77.3	283	22
2023-09-01T12:00	11910	201	-46.6	-77.0	282	22
2023-09-01T12:00	11931	200	-46.8	-77.1	281	22
2023-09-01T12:00	11950	200	-46.9	-77.2	281	22
2023-09-01T12:00	11972	199	-47.1	-77.4	281	22
2023-09-01T12:00	11993	198	-47.1	-77.4	281	21
2023-09-01T12:00	12012	198	-47.2	-77.4	281	21
2023-09-01T12:00	12034	197	-47.3	-77.5	282	21
2023-09-01T12:00	12056	196	-47.4	-77.6	281	21
2023-09-01T12:00	12077	196	-47.5	-77.7	280	21
2023-09-01T12:00	12095	195	-47.6	-77.7	279	20
2023-09-01T12:00	12120	195	-47.8	-77.9	278	20
2023-09-01T12:00	12143	194	-47.8	-77.9	277	20
2023-09-01T12:00	12164	193	-47.7	-77.8	275	20
2023-09-01T12:00	12185	193	-47.7	-77.8	274	20
2023-09-01T12:00	12208	192	-47.7	-77.8	273	20
2023-09-01T12:00	12230	191	-47.8	-77.9	272	20
2023-09-01T12:00	12251	191	-47.7	-77.8	272	21
2023-09-01T12:00	12273	190	-47.8	-78.3	271	21
2023-09-01T12:00	12290	190	-47.8	-77.9	271	22
2023-09-01T12:00	12313	189	-47.8	-77.9	270	22
2023-09-01T12:00	12333	188	-48.0	-78.0	270	22
2023-09-01T12:00	12352	188	-48.1	-78.1	269	22
2023-09-01T12:00	12372	187	-48.2	-78.2	269	21
2023-09-01T12:00	12392	187	-48.2	-78.2	268	21
2023-09-01T12:00	12412	186	-47.9	-78.4	268	21
2023-09-01T12:00	12433	185	-47.7	-78.2	268	20
2023-09-01T12:00	12454	185	-47.6	-77.7	268	20
2023-09-01T12:00	12473	184	-47.6	-77.7	268	19
2023-09-01T12:00	12492	184	-47.6	-77.7	268	19
2023-09-01T12:00	12512	183	-47.7	-77.8	268	19
2023-09-01T12:00	12531	183	-47.9	-77.6	268	19
2023-09-01T12:00	12551	182	-48.0	-77.6	268	20
2023-09-01T12:00	12570	182	-48.2	-77.8	268	20
2023-09-01T12:00	12592	181	-48.3	-77.5	268	20
2023-09-01T12:00	12611	181	-48.4	-77.6	269	20
2023-09-01T12:00	12632	180	-48.4	-77.9	270	20
2023-09-01T12:00	12654	179	-48.5	-78.0	271	20
2023-09-01T12:00	12673	179	-48.5	-78.0	273	20
2023-09-01T12:00	12693	178	-48.6	-78.1	275	20
2023-09-01T12:00	12713	178	-48.6	-78.1	277	20
2023-09-01T12:00	12734	177	-48.6	-78.1	280	20
2023-09-01T12:00	12756	177	-48.4	-78.3	282	20
2023-09-01T12:00	12780	176	-48.2	-78.2	284	19
2023-09-01T12:00	12797	176	-48.0	-78.0	285	19
2023-09-01T12:00	12818	175	-47.9	-78.0	285	18
2023-09-01T12:00	12839	174	-47.8	-77.9	284	18
2023-09-01T12:00	12861	174	-47.8	-77.9	283	18
2023-09-01T12:00	12880	173	-47.9	-78.0	282	17
2023-09-01T12:00	12902	173	-48.1	-77.7	281	17
2023-09-01T12:00	12924	172	-48.3	-77.9	280	17
2023-09-01T12:00	12945	172	-48.4	-77.9	278	17
2023-09-01T12:00	12965	171	-48.5	-78.0	276	17
2023-09-01T12:00	12984	171	-48.6	-78.1	273	17
2023-09-01T12:00	13005	170	-48.8	-78.2	271	17
2023-09-01T12:00	13026	170	-48.9	-77.9	268	18
2023-09-01T12:00	13046	169	-48.9	-77.9	266	18
2023-09-01T12:00	13067	168	-48.8	-78.2	264	18
2023-09-01T12:00	13088	168	-48.8	-78.2	262	19
2023-09-01T12:00	13109	167	-48.8	-78.2	262	19
2023-09-01T12:00	13128	167	-48.8	-78.2	263	19
2023-09-01T12:00	13147	166	-48.8	-78.2	264	19
2023-09-01T12:00	13168	166	-48.6	-78.5	266	19
2023-09-01T12:00	13190	165	-48.6	-78.5	268	20
2023-09-01T12:00	13210	165	-48.6	-78.5	270	20
2023-09-01T12:00	13230	164	-48.6	-78.5	273	20
2023-09-01T12:00	13250	164	-48.6	-78.5	275	20
2023-09-01T12:00	13274	163	-48.4	-78.3	276	19
2023-09-01T12:00	13295	163	-48.3	-78.7	277	19
2023-09-01T12:00	13315	162	-48.3	-78.7	278	18
2023-09-01T12:00	13336	162	-48.4	-78.8	279	18
2023-09-01T12:00	13357	161	-48.4	-78.8	278	17
2023-09-01T12:00	13378	161	-48.3	-78.7	278	17
2023-09-01T12:00	13400	160	-48.2	-78.6	277	16
2023-09-01T12:00	13420	160	-48.3	-78.7	276	16
2023-09-01T12:00	13440	159	-48.3	-78.7	276	16
2023-09-01T12:00	13462	159	-48.2	-78.6	275	16
2023-09-01T12:00	13484	158	-48.3	-78.7	276	16
2023-09-01T12:00	13505	158	-48.3	-78.7	276	16
2023-09-01T12:00	13527	157	-48.3	-78.7	277	15
2023-09-01T12:00	13550	157	-48.4	-79.2	278	15
2023-09-01T12:00	13574	156	-48.4	-79.2	278	15
2023-09-01T12:00	13594	155	-48.5	-79.3	278	15
2023-09-01T12:00	13616	155	-48.6	-79.4	279	15
2023-09-01T12:00	13637	154	-48.7	-79.4	278	15
2023-09-01T12:00	13660	154	-48.8	-79.5	278	15
2023-09-01T12:00	13682	153	-49.0	-79.7	278	15
2023-09-01T12:00	13701	153	-49.1	-79.3	278	15
2023-09-01T12:00	13721	153	-49.1	-79.7	279	14
2023-09-01T12:00	13742	152	-48.9	-79.6	279	14
2023-09-01T12:00	13764	152	-48.8	-79.5	280	14
2023-09-01T12:00	13785	151	-48.6	-79.4	280	14
2023-09-01T12:00	13807	151	-48.6	-79.9	281	14
2023-09-01T12:00	13829	150	-48.8	-80.0	281	15
2023-09-01T12:00	13852	150	-49.0	-79.7	281	14
2023-09-01T12:00	13873	149	-49.1	-79.7	281	14
2023-09-01T12:00	13892	149	-49.3	-79.9	281	14
2023-09-01T12:00	13916	148	-49.2	-79.8	280	14
2023-09-01T12:00	13935	148	-49.3	-79.9	280	13
2023-09-01T12:00	13956	147	-49.5	-80.0	279	13
2023-09-01T12:00	13976	147	-49.7	-80.2	279	13
2023-09-01T12:00	13999	146	-49.9	-80.3	278	13
2023-09-01T12:00	14023	146	-50.0	-80.4	277	13
2023-09-01T12:00	14044	145	-49.8	-80.3	276	13
2023-09-01T12:00	14063	145	-49.4	-80.0	275	13
2023-09-01T12:00	14083	144	-49.3	-79.9	273	13
2023-09-01T12:00	14106	144	-49.4	-80.0	271	13
2023-09-01T12:00	14124	143	-49.5	-80.0	269	13
2023-09-01T12:00	14145	143	-49.6	-80.1	267	13
2023-09-01T12:00	14165	143	-49.7	-80.2	265	13
2023-09-01T12:00	14188	142	-49.9	-80.3	263	13
2023-09-01T12:00	14207	142	-49.9	-79.9	261	13
2023-09-01T12:00	14230	141	-50.0	-80.0	260	13
2023-09-01T12:00	14251	141	-50.2	-80.1	258	13
2023-09-01T12:00	14273	140	-50.2	-80.1	257	14
2023-09-01T12:00	14295	140	-50.3	-80.2	255	14
2023-09-01T12:00	14316	139	-50.4	-80.3	254	14
2023-09-01T12:00	14336	139	-50.5	-80.3	254	14
2023-09-01T12:00	14360	138	-50.6	-80.4	254	15
2023-09-01T12:00	14382	138	-50.6	-80.4	254	15
2023-09-01T12:00	14403	137	-50.6	-80.4	255	15
2023-09-01T12:00	14426	137	-50.5	-80.3	256	15
2023-09-01T12:00	14448	136	-50.5	-80.3	257	14
2023-09-01T12:00	14468	136	-50.6	-80.4	258	14
2023-09-01T12:00	14490	136	-50.6	-80.4	258	14
2023-09-01T12:00	14513	135	-50.5	-80.3	257	14
2023-09-01T12:00	14534	135	-50.4	-80.3	256	13
2023-09-01T12:00	14554	134	-50.4	-80.7	255	13
2023-09-01T12:00	14577	134	-50.3	-80.6	255	13
2023-09-01T12:00	14597	133	-50.3	-80.6	255	14
2023-09-01T12:00	14620	133	-50.4	-80.7	255	14
2023-09-01T12:00	14643	132	-50.6	-80.9	256	14
2023-09-01T12:00	14665	132	-50.7	-80.9	257	14
2023-09-01T12:00	14687	132	-50.7	-80.9	258	14
2023-09-01T12:00	14706	131	-50.7	-80.9	260	14
2023-09-01T12:00	14729	131	-50.7	-80.9	262	14
2023-09-01T12:00	14750	130	-50.8	-81.0	264	14
2023-09-01T12:00	14770	130	-50.9	-81.1	267	14
2023-09-01T12:00	14794	129	-50.9	-81.1	269	14
2023-09-01T12:00	14813	129	-50.8	-81.0	271	15
2023-09-01T12:00	14837	129	-50.9	-81.1	272	15
2023-09-01T12:00	14859	128	-50.9	-81.1	272	15
2023-09-01T12:00	14880	128	-50.9	-81.1	272	15
2023-09-01T12:00	14903	127	-51.0	-80.7	271	15
2023-09-01T12:00	14926	127	-50.9	-80.6	271	14
2023-09-01T12:00	14947	126	-50.9	-80.6	269	14
2023-09-01T12:00	14970	126	-50.9	-80.6	268	14
2023-09-01T12:00	14994	126	-51.1	-81.2	267	15
2023-09-01T12:00	15016	125	-51.2	-81.3	266	15
2023-09-01T12:00	15039	125	-51.3	-81.4	265	15
2023-09-01T12:00	15061	124	-51.3	-81.4	265	15
2023-09-01T12:00	15085	124	-51.3	-81.4	266	15
2023-09-01T12:00	15109	123	-51.4	-81.5	267	15
2023-09-01T12:00	15131	123	-51.5	-81.5	268	15
2023-09-01T12:00	15153	122	-51.7	-81.7	270	14
2023-09-01T12:00	15178	122	-51.7	-81.7	271	14
2023-09-01T12:00	15198	122	-51.6	-81.6	271	14
2023-09-01T12:00	15220	121	-51.5	-81.5	270	14
2023-09-01T12:00	15240	121	-51.6	-81.6	270	13
2023-09-01T12:00	15263	120	-51.7	-81.7	269	13
2023-09-01T12:00	15287	120	-51.8	-81.8	268	13
2023-09-01T12:00	15308	120	-51.9	-81.8	267	13
2023-09-01T12:00	15331	119	-52.1	-82.0	266	13
2023-09-01T12:00	15351	119	-52.2	-81.6	266	13
2023-09-01T12:00	15375	118	-52.2	-81.6	266	13
2023-09-01T12:00	15398	118	-52.3	-81.7	267	13
2023-09-01T12:00	15421	118	-52.5	-81.8	267	13
2023-09-01T12:00	15441	117	-52.6	-81.9	267	13
2023-09-01T12:00	15467	117	-52.7	-82.0	267	12
2023-09-01T12:00	15490	116	-52.7	-82.0	267	12
2023-09-01T12:00	15513	116	-52.6	-82.4	268	12
2023-09-01T12:00	15535	115	-52.4	-82.2	268	12
2023-09-01T12:00	15557	115	-52.2	-82.1	268	12
2023-09-01T12:00	15577	115	-52.2	-82.5	268	11
2023-09-01T12:00	15599	114	-52.3	-82.6	268	11
2023-09-01T12:00	15623	114	-52.3	-82.6	269	11
2023-09-01T12:00	15645	114	-52.3	-82.6	269	10
2023-09-01T12:00	15667	113	-52.1	-82.5	269	10
2023-09-01T12:00	15691	113	-51.8	-82.2	269	10
2023-09-01T12:00	15714	112	-51.6	-82.6	268	9
2023-09-01T12:00	15735	112	-51.6	-82.6	267	9
2023-09-01T12:00	15759	112	-51.6	-82.6	266	9
2023-09-01T12:00	15779	111	-51.6	-82.6	264	9
2023-09-01T12:00	15802	111	-51.7	-82.2	263	9
2023-09-01T12:00	15825	110	-51.8	-82.2	261	9
2023-09-01T12:00	15847	110	-51.9	-82.3	259	10
2023-09-01T12:00	15867	110	-51.8	-82.2	258	10
2023-09-01T12:00	15893	109	-51.8	-82.2	258	10
2023-09-01T12:00	15912	109	-51.8	-82.2	258	11
2023-09-01T12:00	15933	109	-51.9	-82.3	258	11
2023-09-01T12:00	15957	108	-51.9	-82.8	258	12
2023-09-01T12:00	15977	108	-51.8	-82.8	259	12
2023-09-01T12:00	16001	107	-51.7	-82.7	259	12
2023-09-01T12:00	16022	107	-51.8	-82.8	260	12
2023-09-01T12:00	16046	107	-51.5	-82.5	262	12
2023-09-01T12:00	16068	106	-51.3	-82.4	264	12
2023-09-01T12:00	16089	106	-51.2	-82.3	266	11
2023-09-01T12:00	16113	106	-51.2	-82.3	269	11
2023-09-01T12:00	16133	105	-51.2	-82.3	272	11
2023-09-01T12:00	16157	105	-51.2	-82.3	274	11
2023-09-01T12:00	16180	105	-51.2	-82.3	276	10
2023-09-01T12:00	16199	104	-51.2	-82.3	276	9
2023-09-01T12:00	16223	104	-51.3	-82.9	276	9
2023-09-01T12:00	16245	103	-51.2	-82.9	275	8
2023-09-01T12:00	16266	103	-50.9	-82.7	274	7
2023-09-01T12:00	16288	103	-50.9	-82.7	274	7
2023-09-01T12:00	16308	102	-50.9	-82.7	273	6
2023-09-01T12:00	16330	102	-50.8	-82.6	273	5
2023-09-01T12:00	16348	102	-50.9	-82.7	272	5
2023-09-01T12:00	16372	101	-51.1	-82.8	270	4
2023-09-01T12:00	16395	101	-51.1	-82.2	267	4
2023-09-01T12:00	16417	101	-51.1	-82.2	263	4
2023-09-01T12:00	16439	100	-51.3	-82.4	259	4
2023-09-01T12:00	16461	100	-51.4	-82.5	256	5
2023-09-01T12:00	16482	100	-51.5	-82.5	254	5
2023-09-01T12:00	16507	99	-51.5	-82.5	254	6
2023-09-01T12:00	16530	99	-51.7	-82.7	255	6
2023-09-01T12:00	16552	99	-51.8	-82.8	255	7
2023-09-01T12:00	16572	98	-51.8	-82.8	256	7
2023-09-01T12:00	16594	98	-51.8	-82.8	256	7
2023-09-01T12:00	16617	98	-51.8	-82.8	255	7
2023-09-01T12:00	16639	97	-51.7	-82.7	255	7
2023-09-01T12:00	16662	97	-51.5	-83.1	255	7
2023-09-01T12:00	16681	97	-51.4	-83.0	256	6
2023-09-01T12:00	16704	96	-51.4	-83.0	257	6
2023-09-01T12:00	16729	96	-51.1	-82.8	259	6
2023-09-01T12:00	16750	96	-50.9	-82.7	261	6
2023-09-01T12:00	16774	95	-50.9	-82.7	261	5
2023-09-01T12:00	16796	95	-50.6	-82.4	261	5
2023-09-01T12:00	16817	95	-50.5		261	4
2023-09-01T12:00	16841	94	-50.6	-82.4	259	4
2023-09-01T12:00	16863	94	-50.7	-82.5	256	3
2023-09-01T12:00	16887	94	-50.9	-82.7	252	3
2023-09-01T12:00	16907	93	-51.0	-82.7	243	2
2023-09-01T12:00	16929	93	-51.2	-82.3	230	2
2023-09-01T12:00	16955	93	-51.3	-82.4	215	2
2023-09-01T12:00	16974	92	-51.5	-82.5	203	3
2023-09-01T12:00	16999	92	-51.6	-82.6	197	3
2023-09-01T12:00	17022	92	-51.8	-82.8	195	4
2023-09-01T12:00	17046	92	-51.9	-82.8	194	4
2023-09-01T12:00	17064	91	-51.8	-82.8	196	4
2023-09-01T12:00	17090	91	-51.5	-83.1	199	4
2023-09-01T12:00	17112	91	-51.5	-83.1	204	4
2023-09-01T12:00	17135	90	-51.6	-83.2	210	4
2023-09-01T12:00	17154	90	-51.7	-83.2	216	4
2023-09-01T12:00	17182	90	-51.7	-83.2	223	4
2023-09-01T12:00	17202	89	-51.8	-83.3	228	4
2023-09-01T12:00	17227	89	-51.9	-83.4	234	4
2023-09-01T12:00	17248	89	-51.8	-83.3	238	4
2023-09-01T12:00	17272	88	-51.6	-83.2	241	5
2023-09-01T12:00	17293	88	-51.6	-83.2	244	5
2023-09-01T12:00	17315	88	-51.7	-83.2	245	5
2023-09-01T12:00	17337	87	-51.7	-83.2	245	5
2023-09-01T12:00	17358	87	-51.7	-83.2	243	5
2023-09-01T12:00	17381	87	-51.5	-83.1	239	5
2023-09-01T12:00	17403	87	-51.5	-83.1	233	5
2023-09-01T12:00	17429	86	-51.6	-83.2	227	5
2023-09-01T12:00	17451	86	-51.6	-83.2	222	6
2023-09-01T12:00	17471	86	-51.6	-83.2	219	6
2023-09-01T12:00	17494	85	-51.8	-83.3	218	6
2023-09-01T12:00	17514	85	-51.9	-83.4	220	7
2023-09-01T12:00	17536	85	-52.0	-83.5	222	7
2023-09-01T12:00	17559	85	-52.0	-83.5	225	7
2023-09-01T12:00	17583	84	-51.9	-83.4	228	7
2023-09-01T12:00	17602	84	-51.7	-83.2	232	7
2023-09-01T12:00	17624	84	-51.5	-83.1	236	7
2023-09-01T12:00	17648	83	-51.3	-82.9	239	7
2023-09-01T12:00	17671	83	-51.3	-82.9	242	7
2023-09-01T12:00	17688	83	-51.3	-82.9	245	6
2023-09-01T12:00	17711	83	-51.2	-82.9	247	6
2023-09-01T12:00	17733	82	-51.1	-83.4	250	5
2023-09-01T12:00	17757	82	-51.0	-83.3	253	5
2023-09-01T12:00	17779	82	-51.0	-83.3	259	5
2023-09-01T12:00	17804	81	-50.9	-83.3	266	4
2023-09-01T12:00	17829	81	-51.0	-82.7	275	4
2023-09-01T12:00	17853	81	-51.0	-82.7	285	4
2023-09-01T12:00	17881	80	-51.0	-83.3	297	3
2023-09-01T12:00	17902	80	-50.8	-83.2	309	2
2023-09-01T12:00	17928	80	-50.7	-83.1	323	2
2023-09-01T12:00	17952	80	-50.8	-82.6	338	2
2023-09-01T12:00	17976	79	-50.9	-82.7	356	1
2023-09-01T12:00	17997	79	-51.0	-82.7	19	1
2023-09-01T12:00	18023	79	-51.2	-82.9	56	1
2023-09-01T12:00	18045	78	-51.4	-83.0	97	1
2023-09-01T12:00	18071	78	-51.4	-83.0	122	1
2023-09-01T12:00	18092	78	-51.6	-83.2	135	2
2023-09-01T12:00	18117	78	-51.8	-83.3	144	2
2023-09-01T12:00	18141	77	-51.9	-82.8	151	2
2023-09-01T12:00	18166	77	-52.1	-83.0	157	3
2023-09-01T12:00	18189	77	-52.3	-83.1	163	3
2023-09-01T12:00	18210	76	-52.5	-83.3	168	3
2023-09-01T12:00	18231	76	-52.6	-83.9	173	3
2023-09-01T12:00	18257	76	-52.5	-83.8	177	3
2023-09-01T12:00	18279	76	-52.4	-83.8	180	3
2023-09-01T12:00	18305	75	-52.2	-83.6	183	3
2023-09-01T12:00	18326	75	-52.1	-83.5	183	3
2023-09-01T12:00	18349	75	-51.9	-83.4	183	3
2023-09-01T12:00	18368	75	-51.8	-83.3	182	3
2023-09-01T12:00	18394	74	-51.8	-83.3	181	3
2023-09-01T12:00	18419	74	-52.0	-83.5	181	3
2023-09-01T12:00	18441	74	-52.2	-83.6	183	4
2023-09-01T12:00	18464	74	-52.4	-83.8	185	4
2023-09-01T12:00	18489	73	-52.4	-83.2	189	4
2023-09-01T12:00	18510	73	-52.6	-83.3	193	4
2023-09-01T12:00	18535	73	-52.7	-83.4	199	4
2023-09-01T12:00	18560	72	-52.7	-83.4	205	4
2023-09-01T12:00	18582	72	-52.7	-84.0	211	4
2023-09-01T12:00	18605	72	-52.5	-83.8	217	4
2023-09-01T12:00	18631	72	-52.5	-83.8	221	4
2023-09-01T12:00	18652	71	-52.6	-83.9	225	4
2023-09-01T12:00	18680	71	-52.7	-84.0	226	4
2023-09-01T12:00	18700	71	-52.7	-84.0	226	4
2023-09-01T12:00	18727	71	-52.6	-83.9	223	4
2023-09-01T12:00	18748	70	-52.3	-83.7	220	4
2023-09-01T12:00	18771	70	-52.2	-83.6	217	4
2023-09-01T12:00	18796	70	-52.2	-83.6	215	5
2023-09-01T12:00	18818	70	-52.2	-83.6	214	5
2023-09-01T12:00	18841	69	-52.2	-83.6	214	5
2023-09-01T12:00	18868	69	-52.1	-83.5	216	5
2023-09-01T12:00	18891	69	-52.1	-83.5	219	5
2023-09-01T12:00	18912	69	-51.9	-84.0	222	5
2023-09-01T12:00	18933	68	-51.9	-84.0	226	5
2023-09-01T12:00	18957	68	-51.8	-83.9	230	5
2023-09-01T12:00	18979	68	-51.7	-83.9	233	5
2023-09-01T12:00	18999	68	-51.6	-83.8	234	4
2023-09-01T12:00	19027	67	-51.7	-83.9	236	4
2023-09-01T12:00	19051	67	-51.7	-83.9	238	5
2023-09-01T12:00	19073	67	-51.6	-83.8	242	5
2023-09-01T12:00	19097	67	-51.6	-83.8	246	5
2023-09-01T12:00	19124	66	-51.7	-83.2	251	5
2023-09-01T12:00	19146	66	-51.8	-83.3	256	5
2023-09-01T12:00	19170	66	-51.9	-83.4	261	5
2023-09-01T12:00	19196	66	-52.1	-83.5	266	5
2023-09-01T12:00	19219	65	-52.2	-83.6	270	4
2023-09-01T12:00	19240	65	-52.3	-83.7	274	4
2023-09-01T12:00	19263	65	-52.4	-83.8	278	3
2023-09-01T12:00	19286	65	-52.3	-83.7	282	2
2023-09-01T12:00	19308	65	-52.1	-83.5	286	2
2023-09-01T12:00	19334	64	-51.9	-84.0	292	1
2023-09-01T12:00	19358	64	-51.9	-84.0	300	1
2023-09-01T12:00	19377	64	-51.8	-83.9	311	1
2023-09-01T12:00	19400	64	-51.8	-83.9	320	0
2023-09-01T12:00	19425	63	-51.8	-83.9	322	0
2023-09-01T12:00	19447	63	-51.9	-83.4	161	0
2023-09-01T12:00	19469	63	-52.0	-83.5	159	1
2023-09-01T12:00	19495	63	-52.1	-83.5	159	2
2023-09-01T12:00	19515	63	-52.2	-83.6	160	2
2023-09-01T12:00	19538	62	-52.1	-83.5	161	3
2023-09-01T12:00	19560	62	-52.2	-83.6	163	4
2023-09-01T12:00	19581	62	-52.2	-83.6	167	5
2023-09-01T12:00	19611	62	-52.3	-83.7	172	5
2023-09-01T12:00	19634	61	-52.3	-83.7	177	5
2023-09-01T12:00	19656	61	-52.4	-83.8	183	6
2023-09-01T12:00	19680	61	-52.4	-83.8	189	6
2023-09-01T12:00	19705	61	-52.3	-83.7	195	6
2023-09-01T12:00	19730	60	-52.0	-83.5	199	7
2023-09-01T12:00	19754	60	-52.1	-84.2	204	7
2023-09-01T12:00	19781	60	-52.2	-84.2	207	7
2023-09-01T12:00	19801	60	-52.0	-84.1	209	8
2023-09-01T12:00	19827	60	-51.9	-84.0	211	8
2023-09-01T12:00	19848	59	-52.0	-84.1	211	8
2023-09-01T12:00	19873	59	-52.0	-84.1	211	8
2023-09-01T12:00	19895	59	-51.7	-83.9	210	7
2023-09-01T12:00	19921	59	-51.6	-83.8	209	7
2023-09-01T12:00	19944	59	-51.6	-83.8	209	6
2023-09-01T12:00	19961	58	-51.6	-83.8	209	5
2023-09-01T12:00	19990	58	-51.7	-83.9	210	4
2023-09-01T12:00	20016	58	-51.8	-83.9	212	3
2023-09-01T12:00	20040	58	-51.9	-84.0	215	2
2023-09-01T12:00	20061	57	-51.8	-83.9	218	2
2023-09-01T12:00	20089	57	-51.6	-83.8	221	1
2023-09-01T12:00	20111	57	-51.6	-83.8	219	1
2023-09-01T12:00	20135	57	-51.6	-83.8	208	1
2023-09-01T12:00	20159	57	-51.5	-83.7	193	1
2023-09-01T12:00	20183	56	-51.6	-83.8	189	1
2023-09-01T12:00	20207	56	-51.6	-83.8	195	1
2023-09-01T12:00	20234	56	-51.6	-83.8	204	2
2023-09-01T12:00	20255	56	-51.6	-83.8	214	2
2023-09-01T12:00	20279	56	-51.5	-83.7	221	3
2023-09-01T12:00	20303	55	-51.4	-83.6	225	3
2023-09-01T12:00	20326	55	-51.2	-83.5	229	4
2023-09-01T12:00	20352	55	-51.2	-83.5	232	4
2023-09-01T12:00	20373	55	-51.2	-83.5	236	4
2023-09-01T12:00	20396	55	-51.2	-83.5	242	4
2023-09-01T12:00	20424	54	-51.3	-83.6	250	4
2023-09-01T12:00	20445	54	-51.1	-83.4	261	4
2023-09-01T12:00	20470	54	-50.9	-83.3	277	3
2023-09-01T12:00	20493	54	-50.8	-83.2	297	3
2023-09-01T12:00	20514	54	-50.8	-83.2	316	3
2023-09-01T12:00	20542	53	-50.8	-83.2	332	3
2023-09-01T12:00	20558	53	-50.8	-83.2	344	3
2023-09-01T12:00	20581	53	-50.9	-83.3	353	3
2023-09-01T12:00	20609	53	-50.9	-83.3	0	2
2023-09-01T12:00	20631	53	-50.9	-83.3	7	2
2023-09-01T12:00	20655	52	-50.9	-83.3	15	1
2023-09-01T12:00	20678	52	-51.0	-83.3	30	1
2023-09-01T12:00	20702	52	-51.0	-83.3	80	0
2023-09-01T12:00	20720	52	-51.0	-83.3	148	1
2023-09-01T12:00	20750	52	-51.1	-83.4	170	1
2023-09-01T12:00	20771	52	-51.1	-83.4	181	2
2023-09-01T12:00	20797	51	-51.0	-83.3	187	2
2023-09-01T12:00	20816	51	-50.9	-83.3	191	3
2023-09-01T12:00	20844	51	-50.9	-83.3	194	3
2023-09-01T12:00	20868	51	-50.9	-83.3	196	3
2023-09-01T12:00	20891	51	-50.9	-83.3	199	3
2023-09-01T12:00	20920	50	-50.9	-83.3	203	3
2023-09-01T12:00	20941	50	-50.9	-83.3	208	3
2023-09-01T12:00	20964	50	-50.8	-83.2	213	3
2023-09-01T12:00	20990	50	-50.9	-83.3	216	3
2023-09-01T12:00	21015	50	-50.9	-83.3	219	4
2023-09-01T12:00	21041	49	-51.0	-83.3	221	4
2023-09-01T12:00	21063	49	-51.1	-83.4	223	4
2023-09-01T12:00	21090	49	-51.2	-83.5	226	4
2023-09-01T12:00	21111	49	-51.3	-83.6	231	4
2023-09-01T12:00	21140	49	-51.4	-83.6	238	4
2023-09-01T12:00	21165	48	-51.4	-83.6	246	4
2023-09-01T12:00	21189	48	-51.3	-83.6	254	4
2023-09-01T12:00	21215	48	-51.3	-83.6	261	4
2023-09-01T12:00	21238	48	-51.2	-83.5	266	4
2023-09-01T12:00	21262	48	-51.1	-83.4	270	5
2023-09-01T12:00	21283	48	-51.2	-83.5	274	5
2023-09-01T12:00	21310	47	-51.1	-83.4	280	4
2023-09-01T12:00	21338	47	-51.1	-83.4	287	4
2023-09-01T12:00	21363	47	-51.1	-83.4	297	4
2023-09-01T12:00	21391	47	-51.1	-83.4	309	4
2023-09-01T12:00	21417	47	-51.1	-83.4	322	3
2023-09-01T12:00	21441	46	-51.1	-83.4	335	3
2023-09-01T12:00	21463	46	-51.2	-83.5	347	4
2023-09-01T12:00	21491	46	-51.3	-83.6	359	4
2023-09-01T12:00	21516	46	-51.4	-83.6	9	4
2023-09-01T12:00	21546	46	-51.4	-83.6	19	4
2023-09-01T12:00	21569	46	-51.5	-83.7	27	3
2023-09-01T12:00	21594	45	-51.5	-83.7	34	3
2023-09-01T12:00	21623	45	-51.6	-83.8	38	3
2023-09-01T12:00	21647	45	-51.6	-83.8	42	3
2023-09-01T12:00	21672	45	-51.6	-83.8	45	2
2023-09-01T12:00	21699	45	-51.6	-83.8	50	2
2023-09-01T12:00	21724	44	-51.6	-83.8	57	1
2023-09-01T12:00	21748	44	-51.5	-83.7	70	1
2023-09-01T12:00	21778	44	-51.4	-83.6	83	1
2023-09-01T12:00	21803	44	-51.3	-83.6	92	1
2023-09-01T12:00	21829	44	-51.4	-83.6	96	2
2023-09-01T12:00	21857	44	-51.5	-83.7	98	2
2023-09-01T12:00	21877	43	-51.5	-83.7	97	3
2023-09-01T12:00	21904	43	-51.5	-83.7	94	3
2023-09-01T12:00	21927	43	-51.6	-83.8	91	4
2023-09-01T12:00	21953	43	-51.7	-83.9	89	4
2023-09-01T12:00	21976	43	-51.6	-83.8	88	4
2023-09-01T12:00	22004	43	-51.7	-83.9	89	5
2023-09-01T12:00	22027	42	-51.7	-83.9	91	5
2023-09-01T12:00	22054	42	-51.8	-83.9	95	5
2023-09-01T12:00	22081	42	-51.8	-83.9	99	5
2023-09-01T12:00	22111	42	-51.7	-83.9	103	5
2023-09-01T12:00	22133	42	-51.8	-83.9	109	4
2023-09-01T12:00	22162	42	-51.7	-83.9	114	4
2023-09-01T12:00	22181	41	-51.7	-83.9	119	4
2023-09-01T12:00	22212	41	-51.7	-83.9	122	4
2023-09-01T12:00	22231	41	-51.7	-83.9	124	5
2023-09-01T12:00	22260	41	-51.6	-83.8	126	5
2023-09-01T12:00	22282	41	-51.6	-83.8	130	5
2023-09-01T12:00	22307	41	-51.7	-83.9	135	5
2023-09-01T12:00	22332	41	-51.8	-83.9	140	5
2023-09-01T12:00	22357	40	-51.7	-83.9	144	6
2023-09-01T12:00	22383	40	-51.7	-83.9	146	6
2023-09-01T12:00	22413	40	-51.7	-83.9	146	6
2023-09-01T12:00	22434	40	-51.7	-83.9	145	7
2023-09-01T12:00	22462	40	-51.8	-83.9	144	7
2023-09-01T12:00	22485	40	-52.0	-84.1	144	7
2023-09-01T12:00	22510	39	-52.0	-84.1	144	7
2023-09-01T12:00	22534	39	-51.9	-84.0	146	7
2023-09-01T12:00	22559	39	-52.0	-84.1	148	7
2023-09-01T12:00	22584	39	-52.0	-84.1	152	6
2023-09-01T12:00	22610	39	-51.8	-83.9	158	6
2023-09-01T12:00	22630	39	-51.7	-83.9	164	6
2023-09-01T12:00	22652	39	-51.6	-83.8	170	6
2023-09-01T12:00	22680	38	-51.6	-83.8	175	6
2023-09-01T12:00	22704	38	-51.5	-83.7	178	6
2023-09-01T12:00	22722	38	-51.6	-83.8	180	6
2023-09-01T12:00	22752	38	-51.8	-83.9	182	5
2023-09-01T12:00	22776	38	-51.8	-83.9	183	5
2023-09-01T12:00	22798	38	-51.7	-83.9	186	4
2023-09-01T12:00	22828	38	-51.7	-83.9	190	4
2023-09-01T12:00	22855	37	-51.6	-84.5	195	4
2023-09-01T12:00	22880	37	-51.4	-84.3	201	3
2023-09-01T12:00	22904	37	-51.3	-84.3	206	3
2023-09-01T12:00	22923	37	-51.2	-84.2	211	3
2023-09-01T12:00	22952	37	-51.0	-84.0	217	3
2023-09-01T12:00	22975	37	-51.0	-84.0	224	3
2023-09-01T12:00	23003	37	-50.9	-84.0	233	3
2023-09-01T12:00	23028	36	-50.9	-84.0	244	3
2023-09-01T12:00	23052	36	-50.9	-84.0	255	3
2023-09-01T12:00	23076	36	-50.8	-83.9	265	3
2023-09-01T12:00	23099	36	-50.6	-83.7	274	3
2023-09-01T12:00	23129	36	-50.5	-83.7	280	3
2023-09-01T12:00	23155	36	-50.5	-83.7	286	3
2023-09-01T12:00	23175	36	-50.4	-83.6	290	2
2023-09-01T12:00	23204	35	-50.4	-83.6	294	2
2023-09-01T12:00	23230	35	-50.4	-83.6	298	1
2023-09-01T12:00	23253	35	-50.4	-83.6	304	1
2023-09-01T12:00	23280	35	-50.2	-83.5	309	0
2023-09-01T12:00	23300	35	-50.2	-83.5	248	0
2023-09-01T12:00	23331	35	-50.1	-83.4	178	0
2023-09-01T12:00	23355	35	-50.1	-83.4	185	1
2023-09-01T12:00	23381	34	-50.2	-83.5	195	1
2023-09-01T12:00	23407	34	-50.2	-83.5	205	2
2023-09-01T12:00	23430	34	-50.1	-83.4	217	2
2023-09-01T12:00	23452	34	-50.1	-83.4	229	3
2023-09-01T12:00	23488	34	-49.9	-83.2	241	3
2023-09-01T12:00	23508	34	-49.7	-83.9	252	3
2023-09-01T12:00	23533	34	-49.6	-83.8	261	4
2023-09-01T12:00	23556	34	-49.7	-83.1	269	4
2023-09-01T12:00	23588	33	-49.8	-83.2	275	4
2023-09-01T12:00	23613	33	-49.9	-83.2	280	5
2023-09-01T12:00	23636	33	-50.0	-83.3	284	5
2023-09-01T12:00	23666	33	-50.1	-83.4	289	5
2023-09-01T12:00	23693	33	-50.2	-83.5	295	5
2023-09-01T12:00	23721	33	-50.2	-83.5	302	5
2023-09-01T12:00	23747	33	-50.2	-83.5	310	5
2023-09-01T12:00	23773	32	-50.2	-83.5	321	4
2023-09-01T12:00	23797	32	-50.1	-83.4	334	4
2023-09-01T12:00	23827	32	-50.0	-84.1	349	4
2023-09-01T12:00	23852	32	-49.8	-84.0	3	4
2023-09-01T12:00	23880	32	-49.5	-83.7	16	4
2023-09-01T12:00	23901	32	-49.2	-83.5	26	5
2023-09-01T12:00	23927	32	-49.1	-83.4	35	5
2023-09-01T12:00	23953	32	-49.1	-83.4	43	5
2023-09-01T12:00	23981	31	-49.1	-83.4	50	5
2023-09-01T12:00	24009	31	-49.2	-83.5	58	5
2023-09-01T12:00	24032	31	-49.2	-83.5	65	5
2023-09-01T12:00	24059	31	-49.2	-83.5	72	5
2023-09-01T12:00	24082	31	-49.2	-83.5	77	5
2023-09-01T12:00	24110	31	-49.2	-83.5	81	4
2023-09-01T12:00	24140	31	-49.2	-83.5	83	4
2023-09-01T12:00	24166	31	-49.2	-83.5	84	4
2023-09-01T12:00	24187	30	-49.2	-83.5	83	4
2023-09-01T12:00	24213	30	-49.3	-83.6	82	4
2023-09-01T12:00	24241	30	-49.4	-83.7	83	4
2023-09-01T12:00	24269	30	-49.5	-82.9	86	3
2023-09-01T12:00	24290	30	-49.6	-83.0	91	4
2023-09-01T12:00	24321	30	-49.6	-83.0	98	4
2023-09-01T12:00	24342	30	-49.6	-83.0	105	4
2023-09-01T12:00	24365	30	-49.6	-83.0	112	3
2023-09-01T12:00	24389	30	-49.7	-83.1	120	3
2023-09-01T12:00	24413	29	-49.8	-83.2	129	3
2023-09-01T12:00	24443	29	-49.7	-83.9	136	3
2023-09-01T12:00	24470	29	-49.6	-83.8	140	4
2023-09-01T12:00	24495	29	-49.7	-83.9	141	4
2023-09-01T12:00	24519	29	-49.7	-83.9	142	4
2023-09-01T12:00	24543	29	-49.6	-83.8	143	4
2023-09-01T12:00	24570	29	-49.5	-83.7	144	4
2023-09-01T12:00	24601	29	-49.3	-83.6	147	3
2023-09-01T12:00	24625	29	-49.3	-83.6	152	3
2023-09-01T12:00	24645	28	-49.3	-83.6	158	3
2023-09-01T12:00	24668	28	-49.1	-83.4	165	3
2023-09-01T12:00	24701	28	-48.8	-83.2	170	3
2023-09-01T12:00	24723	28	-48.4	-82.9	174	3
2023-09-01T12:00	24749	28	-48.2	-83.7	178	3
2023-09-01T12:00	24779	28	-48.1	-83.6	180	4
2023-09-01T12:00	24807	28	-48.1	-83.6	181	5
2023-09-01T12:00	24833	28	-47.9	-83.5	182	6
2023-09-01T12:00	24855	28	-47.9	-83.5	183	7
2023-09-01T12:00	24879	27	-47.7	-83.4	185	7
2023-09-01T12:00	24916	27	-47.6	-83.3	188	7
2023-09-01T12:00	24938	27	-47.6	-82.4	192	7
2023-09-01T12:00	24969	27	-47.6	-82.4	196	7
2023-09-01T12:00	24998	27	-47.7	-82.4	201	7
2023-09-01T12:00	25026	27	-47.9	-82.6	205	7
2023-09-01T12:00	25050	27	-48.0	-82.7	207	7
2023-09-01T12:00	25077	27	-47.9	-82.6	207	7
2023-09-01T12:00	25106	27	-47.8	-82.5	206	7
2023-09-01T12:00	25128	26	-47.9	-82.6	204	8
2023-09-01T12:00	25156	26	-47.7	-82.4	203	8
2023-09-01T12:00	25185	26	-47.6	-82.4	201	8
2023-09-01T12:00	25211	26	-47.7	-83.4	198	9
2023-09-01T12:00	25233	26	-47.7	-83.4	196	9
2023-09-01T12:00	25259	26	-47.5	-83.2	193	9
2023-09-01T12:00	25293	26	-47.5	-83.2	191	10
2023-09-01T12:00	25322	26	-47.7	-82.4	191	10
2023-09-01T12:00	25353	26	-47.7	-82.4	192	10
2023-09-01T12:00	25372	25	-47.7	-83.4	194	10
2023-09-01T12:00	25399	25	-47.7	-83.4	198	9
2023-09-01T12:00	25425	25	-47.6	-83.3	201	9
2023-09-01T12:00	25458	25	-47.5	-83.2	203	9
2023-09-01T12:00	25476	25	-47.5	-83.2	206	9
2023-09-01T12:00	25506	25	-47.5	-83.2	208	10
2023-09-01T12:00	25526	25	-47.2	-83.0	209	10
2023-09-01T12:00	25557	25	-47.0	-82.9	211	11
2023-09-01T12:00	25582	25	-46.9	-82.8	213	11
2023-09-01T12:00	25611	25	-47.0	-82.9	215	11
2023-09-01T12:00	25631	24	-47.0	-82.9	217	11
2023-09-01T12:00	25657	24	-47.0	-82.9	218	11
2023-09-01T12:00	25683	24	-46.9	-82.8	220	10
2023-09-01T12:00	25714	24	-46.8	-82.7	223	10
2023-09-01T12:00	25736	24	-46.8	-82.7	226	9
2023-09-01T12:00	25760	24	-46.8	-82.7	229	9
2023-09-01T12:00	25795	24	-46.8	-82.7	233	8
2023-09-01T12:00	25813	24	-46.7	-82.6	237	8
2023-09-01T12:00	25839	24	-46.5	-82.5	240	8
2023-09-01T12:00	25861	24	-46.4	-82.4	242	8
2023-09-01T12:00	25890	24	-46.4	-82.4	244	8
2023-09-01T12:00	25922	23	-46.4	-82.4	246	8
2023-09-01T12:00	25947	23	-46.4	-82.4	248	8
2023-09-01T12:00	25973	23	-46.5	-82.5	250	7
2023-09-01T12:00	25994	23	-46.5	-82.5	252	7
2023-09-01T12:00	26024	23	-46.3	-82.4	254	6
2023-09-01T12:00	26051	23	-46.3	-82.4	257	5
2023-09-01T12:00	26078	23	-46.2	-82.3	261	5
2023-09-01T12:00	26106	23	-46.1	-82.2	267	4
2023-09-01T12:00	26133	23	-46.0	-82.1	273	4
2023-09-01T12:00	26157	23	-46.0	-82.1	281	4
2023-09-01T12:00	26186	23	-46.0	-82.1	289	4
2023-09-01T12:00	26218	22	-46.0	-82.1	297	4
2023-09-01T12:00	26232	22	-46.1	-82.2	304	4
2023-09-01T12:00	26268	22	-46.2	-82.3	308	4
2023-09-01T12:00	26295	22	-46.3	-82.4	311	4
2023-09-01T12:00	26319	22	-46.4	-82.4	312	4
2023-09-01T12:00	26349	22	-46.4	-82.4	313	3
2023-09-01T12:00	26372	22	-46.3	-82.4	312	3
2023-09-01T12:00	26403	22	-46.3	-82.4	308	2
2023-09-01T12:00	26428	22	-46.2	-82.3	299	2
2023-09-01T12:00	26461	22	-46.2	-82.3	287	2
2023-09-01T12:00	26497	22	-46.1	-82.2	276	2
2023-09-01T12:00	26514	21	-46.1	-82.2	270	2
2023-09-01T12:00	26547	21	-46.0	-82.1	269	2
2023-09-01T12:00	26577	21	-45.9	-82.1	273	2
2023-09-01T12:00	26601	21	-45.8	-82.0	282	2
2023-09-01T12:00	26633	21	-45.7	-83.0	294	2
2023-09-01T12:00	26652	21	-45.7	-83.0	309	2
2023-09-01T12:00	26678	21	-45.7	-83.0	324	2
2023-09-01T12:00	26711	21	-45.7	-83.0	337	3
2023-09-01T12:00	26734	21	-45.6	-81.9	347	3
2023-09-01T12:00	26762	21	-45.6	-81.9	356	3
2023-09-01T12:00	26786	21	-45.5	-81.8	2	4
2023-09-01T12:00	26823	20	-45.5	-81.8	7	4
2023-09-01T12:00	26842	20	-45.5	-81.8	10	4
2023-09-01T12:00	26875	20	-45.6	-81.9	12	3
2023-09-01T12:00	26906	20	-45.7	-81.9	13	3
2023-09-01T12:00	26936	20	-45.7	-81.9	11	3
2023-09-01T12:00	26965	20	-45.6	-81.9	7	3
2023-09-01T12:00	26993	20	-45.6	-81.9	3	3
2023-09-01T12:00	27017	20	-45.5	-81.8	358	2
2023-09-01T12:00	27043	20	-45.5	-81.8	354	2
2023-09-01T12:00	27071	20	-45.5	-81.8	351	2
2023-09-01T12:00	27107	20	-45.6	-81.9	352	2
2023-09-01T12:00	27135	20	-45.7	-81.9	357	2
2023-09-01T12:00	27161	19	-45.8	-82.0	7	2
2023-09-01T12:00	27176	19	-45.8	-82.0	22	2
2023-09-01T12:00	27212	19	-45.6	-82.9	42	2
2023-09-01T12:00	27247	19	-45.5	-82.9	61	2
2023-09-01T12:00	27267	19	-45.4	-82.8	75	3
2023-09-01T12:00	27293	19	-45.4	-82.8	83	3
2023-09-01T12:00	27328	19	-45.4	-82.8	88	4
2023-09-01T12:00	27355	19	-45.4	-82.8	92	4
2023-09-01T12:00	27386	19	-45.5	-82.9	95	4
2023-09-01T12:00	27415	19	-45.3	-82.7	98	4
2023-09-01T12:00	27431	19	-45.1	-82.6	99	4
2023-09-01T12:00	27464	19	-45.0	-82.5	99	4
2023-09-01T12:00	27490	19	-45.0	-82.5	98	4
2023-09-01T12:00	27520	18	-45.1	-82.6	97	4
2023-09-01T12:00	27537	18	-45.3	-82.7	96	4
2023-09-01T12:00	27574	18	-45.4	-82.8	98	4
2023-09-01T12:00	27601	18	-45.5	-82.9	102	4
2023-09-01T12:00	27630	18	-45.6	-82.9	106	4
2023-09-01T12:00	27656	18	-45.5	-82.9	112	5
2023-09-01T12:00	27683	18	-45.3	-82.7	118	5
2023-09-01T12:00	27710	18	-45.2	-82.7	125	5
2023-09-01T12:00	27736	18	-45.2	-82.7	131	5
2023-09-01T12:00	27772	18	-45.3	-82.7	137	6
2023-09-01T12:00	27802	18	-45.5	-82.9	142	6
2023-09-01T12:00	27825	18	-45.6	-82.9	148	6
2023-09-01T12:00	27851	18	-45.7	-81.9	153	6
2023-09-01T12:00	27881	17	-45.9	-82.1	159	7
2023-09-01T12:00	27912	17	-46.1	-82.2	165	7
2023-09-01T12:00	27946	17	-46.3	-82.4	170	7
2023-09-01T12:00	27973	17	-46.5	-82.5	176	7
2023-09-01T12:00	28011	17	-46.4	-82.4	182	6
2023-09-01T12:00	28030	17	-46.3	-82.4	189	6
2023-09-01T12:00	28058	17	-46.3	-83.4	198	5
2023-09-01T12:00	28088	17	-46.2	-83.4	208	5
2023-09-01T12:00	28120	17	-46.1	-83.3	219	5
2023-09-01T12:00	28151	17	-46.0	-83.2	230	5
2023-09-01T12:00	28184	17	-45.9	-83.2	239	5
2023-09-01T12:00	28206	17	-45.7	-83.0	245	6
2023-09-01T12:00	28234	17	-45.6	-82.9	249	6
2023-09-01T12:00	28277	16	-45.3	-82.7	250	6
2023-09-01T12:00	28291	16	-45.0	-82.5	250	6
2023-09-01T12:00	28330	16	-44.7	-82.3	250	5
2023-09-01T12:00	28359	16	-44.3	-82.0	250	5
2023-09-01T12:00	28390	16	-44.1	-81.9	251	5
2023-09-01T12:00	28409	16	-44.2	-82.0	252	4
2023-09-01T12:00	28445	16	-44.3	-82.0	252	4
2023-09-01T12:00	28472	16	-44.4	-82.1	250	4
2023-09-01T12:00	28513	16	-44.5	-82.2	245	4
2023-09-01T12:00	28533	16	-44.6	-82.2	238	4
2023-09-01T12:00	28561	16	-44.7	-82.3	232	5
2023-09-01T12:00	28585	16	-44.8	-82.4	228	5
2023-09-01T12:00	28613	16	-44.9	-82.5	228	6
2023-09-01T12:00	28643	16	-44.9	-82.5	231	6
2023-09-01T12:00	28673	16	-44.9	-82.5	237	6
2023-09-01T12:00	28706	15	-44.8	-82.4	244	6
2023-09-01T12:00	28722	15	-44.7	-82.3	251	6
2023-09-01T12:00	28752	15	-44.7	-82.3	259	6
2023-09-01T12:00	28783	15	-44.7	-82.3	266	5
2023-09-01T12:00	28817	15	-44.6	-82.2	273	5
2023-09-01T12:00	28848	15	-44.5	-82.2	277	4
2023-09-01T12:00	28861	15	-44.3	-82.0	279	3
2023-09-01T12:00	28892	15	-44.0	-81.8	277	3
2023-09-01T12:00	28916	15	-43.8	-81.7	271	3
2023-09-01T12:00	28928	15	-43.7	-81.6	265	3
2023-09-01T12:00	28979	15	-43.6	-81.5	259	3
2023-09-01T12:00	29004	15	-43.5	-81.5	255	3
2023-09-01T12:00	29020	15	-43.4	-81.4	252	3
2023-09-01T12:00	29059	15	-43.4	-81.4	251	3
2023-09-01T12:00	29084	15	-43.3	-81.3	251	3
2023-09-01T12:00	29111	15	-43.2	-81.3	253	3
2023-09-01T12:00	29144	14	-43.1	-81.2	257	2
2023-09-01T12:00	29161	14	-43.0	-81.1	263	2
2023-09-01T12:00	29195	14	-42.9	-81.1	273	1
2023-09-01T12:00	29218	14	-42.8	-81.0	284	1
2023-09-01T12:00	29239	14	-42.8	-81.0	294	1
2023-09-01T12:00	29273	14	-42.8	-81.0	302	1
2023-09-01T12:00	29296	14	-42.9	-81.1	309	1
2023-09-01T12:00	29319	14	-43.0	-81.1	319	1
2023-09-01T12:00	29356	14	-43.1	-81.2	344	0
2023-09-01T12:00	29375	14	-43.0	-81.1	74	0
2023-09-01T12:00	29413	14	-43.1	-81.2	101	1
2023-09-01T12:00	29429	14	-43.1	-81.2	108	1
2023-09-01T12:00	29453	14	-43.2	-81.3	110	1
2023-09-01T12:00	29479	14	-43.3	-81.3	113	1
2023-09-01T12:00	29504	14	-43.3	-81.3	118	1
2023-09-01T12:00	29536	14	-43.4	-81.4	126	2
2023-09-01T12:00	29562	14	-43.5	-81.5	134	2
2023-09-01T12:00	29593	14	-43.7	-81.6	138	2
2023-09-01T12:00	29625	13	-43.8	-81.7	139	3
2023-09-01T12:00	29653	13	-43.8	-81.7	137	3
2023-09-01T12:00	29676	13	-43.7	-81.6	135	3
2023-09-01T12:00	29692	13	-43.7	-81.6	132	3
2023-09-01T12:00	29729	13	-43.7	-81.6	130	3
2023-09-01T12:00	29753	13	-43.8	-81.7	130	3
2023-09-01T12:00	29785	13	-43.9	-81.8	132	3
2023-09-01T12:00	29817	13	-43.9	-81.8	134	3
2023-09-01T12:00	29845	13	-43.9	-81.8	136	2
2023-09-01T12:00	29877	13	-43.9	-81.8	140	2
2023-09-01T12:00	29904	13	-43.9	-81.8	148	2
2023-09-01T12:00	29928	13	-44.0	-81.8	165	1
2023-09-01T12:00	29958	13	-44.0	-81.8	202	1
2023-09-01T12:00	29985	13	-44.2	-82.0	242	1
2023-09-01T12:00	30015	13	-44.3	-82.0	265	1
2023-09-01T12:00	30041	13	-44.4	-82.1	285	1
2023-09-01T12:00	30070	13	-44.5	-82.2	356	0
2023-09-01T12:00	30087	13	-44.6	-82.2	71	1
2023-09-01T12:00	30120	13	-44.5	-82.2	85	2
2023-09-01T12:00	30145	12	-44.3	-82.0	91	2
2023-09-01T12:00	30169	12	-44.0	-81.8	94	3
2023-09-01T12:00	30220	12	-43.8	-81.7	97	3
2023-09-01T12:00	30235	12	-43.7	-81.6	98	4
2023-09-01T12:00	30257	12	-43.5	-81.5	99	4
2023-09-01T12:00	30279	12	-43.4	-81.4	98	4
2023-09-01T12:00	30321	12	-43.4	-81.4	96	4
2023-09-01T12:00	30334	12	-43.3	-81.3	92	4
2023-09-01T12:00	30369	12	-43.2	-81.3	86	3
2023-09-01T12:00	30399	12	-43.0	-81.1	82	3
2023-09-01T12:00	30437	12	-42.9	-81.1	79	4
2023-09-01T12:00	30451	12	-42.8	-81.0	78	4
2023-09-01T12:00	30492	12	-42.6	-80.8	79	4
2023-09-01T12:00	30509	12	-42.3	-80.6	80	5
2023-09-01T12:00	30540	12	-42.1	-80.5	83	5
2023-09-01T12:00	30568	12	-42.1	-80.5	86	6
2023-09-01T12:00	30595	12	-42.1	-80.5	92	6
2023-09-01T12:00	30624	12	-42.2	-80.6	99	6
2023-09-01T12:00	30650	12	-42.2	-80.6	106	6
2023-09-01T12:00	30684	12	-42.1	-80.5	114	7
2023-09-01T12:00	30695	11	-42.1	-80.5	120	8
2023-09-01T12:00	30737	11	-42.0	-80.4	125	8
2023-09-01T12:00	30767	11	-41.9	-80.4	129	8
2023-09-01T12:00	30786	11	-41.9	-80.4	132	9
2023-09-01T12:00	30832	11	-42.1	-80.5	135	9
2023-09-01T12:00	30844	11	-42.2	-80.6	137	9
2023-09-01T12:00	30886	11	-42.4	-80.7	140	9
2023-09-01T12:00	30911	11	-42.6	-80.8	144	8
2023-09-01T12:00	30937	11	-42.8	-81.0	148	8
2023-09-01T12:00	30962	11	-42.9	-81.1	152	8
2023-09-01T12:00	30994	11	-42.8	-81.0	156	7
2023-09-01T12:00	31014	11	-42.7	-80.9	160	7
2023-09-01T12:00	31065	11	-42.6	-80.8	164	6
2023-09-01T12:00	31105	11	-42.2	-80.6	165	5
2023-09-01T12:00	31129	11	-41.9	-80.4	163	4
2023-09-01T12:00	31153	11	-41.7	-80.2	158	4
2023-09-01T12:00	31193	11	-41.5	-80.1	152	4
2023-09-01T12:00	31218	11	-41.4	-80.0	145	4
2023-09-01T12:00	31239	11	-41.3	-79.9	139	4
2023-09-01T12:00	31259	11	-41.2	-79.9	136	4
2023-09-01T12:00	31298	11	-41.1	-79.8	135	5
2023-09-01T12:00	31302	11	-41.0	-79.7	136	5
2023-09-01T12:00	31349	10	-41.1	-79.8	138	6
2023-09-01T12:00	31378	10	-41.0	-79.7	140	7
2023-09-01T12:00	31387	10	-40.7	-79.5	143	8
2023-09-01T12:00	31429	10	-40.6	-79.5	146	8
2023-09-01T12:00	31453	10	-40.6	-79.5	149	8
2023-09-01T12:00	31477	10	-40.6	-79.5	152	9
2023-09-01T12:00	31504	10	-40.7	-79.5	156	8
2023-09-01T12:00	31536	10	-40.9	-79.7	161	8
2023-09-01T12:00	31556	10	-40.8	-79.6	166	8
2023-09-01T12:00	31574	10	-40.6	-79.5	173	8
2023-09-01T12:00	31619	10	-40.6	-79.5	179	7
2023-09-01T12:00	31642	10	-40.6	-79.5	184	7
2023-09-01T12:00	31654	10	-40.7	-79.5	186	7
2023-09-01T12:00	31682	10	-40.5	-79.4	185	6
2023-09-01T12:00	31713	10	-40.4	-79.3	181	6
2023-09-01T12:00	31741	10	-40.3	-79.2	176	5
2023-09-01T12:00	31762	10	-40.3	-79.2	171	5
2023-09-01T12:00	31790	10	-40.3	-79.2	169	5
2023-09-01T12:00	31826	10	-40.4	-79.3	170	5
2023-09-01T12:00	31844	10	-40.5	-79.4	173	5
2023-09-01T12:00	31881	10	-40.5	-79.4	178	6
2023-09-01T12:00	31910	10	-40.5	-79.4	190	6
2023-09-01T12:00	31954	10	-40.4	-79.3	197	6
2023-09-01T12:00	31978	10	-40.3	-79.2	203	6
2023-09-01T12:00	31996	10	-40.3	-79.2	208	6
2023-09-01T12:00	32029	9	-40.4	-79.3	212	7
2023-09-01T12:00	32046	9	-40.5	-79.4	216	7
2023-09-01T12:00	32068	9	-40.6	-79.5	219	8
2023-09-01T12:00	32081	9	-40.8	-79.6	221	8
2023-09-01T12:00	32128	9	-40.7	-79.5	223	7
2023-09-01T12:00	32150	9	-40.7	-79.5	225	7
2023-09-01T12:00	32173	9	-40.6	-79.5	225	6
2023-09-01T12:00	32205	9	-40.5	-79.4	225	5
2023-09-01T12:00	32229	9	-40.4	-79.3	224	4
2023-09-01T12:00	32258	9	-40.3	-79.2	223	4
2023-09-01T12:00	32285	9	-40.3	-79.2	223	3
2023-09-01T12:00	32310	9	-40.3	-79.2	223	3
2023-09-01T12:00	32317	9	-40.4	-79.3	224	2
2023-09-01T12:00	32355	9	-40.3	-79.2	224	2
2023-09-01T12:00	32385	9	-40.3	-79.2	222	2
2023-09-01T12:00	32425	9	-40.3	-79.2	217	2
2023-09-01T12:00	32442	9	-40.3	-79.2	209	1
2023-09-01T12:00	32445	9	-40.2	-79.2	200	1
2023-09-01T12:00	32491	9	-40.1	-79.1	192	1
2023-09-01T12:00	32515	9	-40.1	-79.1	186	1
2023-09-01T12:00	32534	9	-40.1	-79.1	183	1
2023-09-01T12:00	32567	9	-40.1	-79.1	182	1
2023-09-01T12:00	32602	9	-40.1	-79.1	182	1
2023-09-01T12:00	32611	9	-40.1	-79.1	180	1
2023-09-01T12:00	32649	9	-40.2	-79.2	174	1
2023-09-01T12:00	32687	9	-40.1	-79.1	164	1
2023-09-01T12:00	32706	9	-40.0	-79.0	161	1
2023-09-01T12:00	32713	9	-40.1	-79.1	171	1
2023-09-01T18:00	112	1001	18.0	11.6	360	1
2023-09-01T18:00	137	998	18.6	11.1	10	2
2023-09-01T18:00	161	996	18.8	9.6	9	2
2023-09-01T18:00	186	993	18.6	9.3	5	2
2023-09-01T18:00	211	990	18.5	8.9	2	2
2023-09-01T18:00	236	987	18.2	8.9	358	2
2023-09-01T18:00	263	984	18.0	9.1	355	2
2023-09-01T18:00	290	981	17.7	9.2	353	2
2023-09-01T18:00	318	978	17.4	9.1	349	2
2023-09-01T18:00	345	974	17.2	9.2	344	2
2023-09-01T18:00	373	971	17.0	9.0	336	1
2023-09-01T18:00	400	968	16.8	8.8	326	1
2023-09-01T18:00	425	966	16.5	8.6	315	1
2023-09-01T18:00	451	963	16.3	8.6	304	1
2023-09-01T18:00	475	960	16.1	8.6	293	1
2023-09-01T18:00	502	957	15.9	8.5	282	1
2023-09-01T18:00	530	954	15.6	8.3	273	2
2023-09-01T18:00	556	951	15.4	8.4	266	2
2023-09-01T18:00	583	948	15.2	8.4	261	2
2023-09-01T18:00	611	945	14.9	8.4	258	2
2023-09-01T18:00	638	941	14.7	8.4	255	2
2023-09-01T18:00	666	938	14.4	8.3	252	2
2023-09-01T18:00	697	935	14.1	8.1	250	2
2023-09-01T18:00	726	932	13.8		249	2
2023-09-01T18:00	757	928	13.6	8.0	248	3
2023-09-01T18:00	784	925	13.3	7.9	249	3
2023-09-01T18:00	811	922	13.1	7.7	249	3
2023-09-01T18:00	840	919	12.9	7.3	249	3
2023-09-01T18:00	867	916	12.6	6.9	248	3
2023-09-01T18:00	892	914	12.4	6.8	245	4
2023-09-01T18:00	919	911	12.2	6.8	242	4
2023-09-01T18:00	949	908	11.9	6.8	240	4
2023-09-01T18:00	974	905	11.7	6.8	238	4
2023-09-01T18:00	1002	902	11.4	6.8	236	4
2023-09-01T18:00	1030	899	11.1	6.7	236	4
2023-09-01T18:00	1056	896	10.9	6.7	235	4
2023-09-01T18:00	1084	893	10.6	6.6	235	4
2023-09-01T18:00	1111	890	10.4	6.6	236	4
2023-09-01T18:00	1137	887	10.1	6.5	237	4
2023-09-01T18:00	1166	884	9.9	6.5	238	4
2023-09-01T18:00	1194	881	9.6	6.4	238	5
2023-09-01T18:00	1223	878	9.3	6.3	238	5
2023-09-01T18:00	1252	875	9.1	6.3	236	5
2023-09-01T18:00	1280	872	8.8	6.3	233	5
2023-09-01T18:00	1309	869	8.6	6.4	230	6
2023-09-01T18:00	1336	866	8.3	6.3	228	6
2023-09-01T18:00	1363	863	8.1	6.2	227	6
2023-09-01T18:00	1388	861	7.9	6.0	227	6
2023-09-01T18:00	1415	858	7.6	6.0	229	6
2023-09-01T18:00	1446	855	7.4	5.6	230	6
2023-09-01T18:00	1473	852	7.2	5.1	233	6
2023-09-01T18:00	1501	849	6.9	4.6	234	6
2023-09-01T18:00	1527	846	6.8	4.1	236	6
2023-09-01T18:00	1556	843	6.6	3.8	236	6
2023-09-01T18:00	1584	840	6.3	3.7	236	6
2023-09-01T18:00	1612	838	6.1	3.4	236	6
2023-09-01T18:00	1641	835	5.9	3.3	235	6
2023-09-01T18:00	1668	832	5.7	3.1	235	7
2023-09-01T18:00	1699	829	5.5	3.1	236	7
2023-09-01T18:00	1726	826	5.2	2.7	237	7
2023-09-01T18:00	1755	823	5.0	2.5	237	7
2023-09-01T18:00	1779	821	4.9	1.9	238	8
2023-09-01T18:00	1806	818	4.7	1.6	238	8
2023-09-01T18:00	1833	815	4.5	1.3	238	8
2023-09-01T18:00	1857	813	4.4	1.0	238	8
2023-09-01T18:00	1881	810	4.2	0.9	239	8
2023-09-01T18:00	1906	808	4.2	-0.6	240	9
2023-09-01T18:00	1931	805	4.2	-1.1	241	9
2023-09-01T18:00	1957	803	4.1	-1.5	243	9
2023-09-01T18:00	1979	801	3.9	-1.6	245	9
2023-09-01T18:00	2004	798	3.7	-1.6	248	9
2023-09-01T18:00	2031	796	3.7	-3.2	252	8
2023-09-01T18:00	2060	793	3.8	-4.7	256	8
2023-09-01T18:00	2092	790	3.7	-5.8	259	8
2023-09-01T18:00	2124	787	3.7		262	7
2023-09-01T18:00	2154	784	3.8	-9.0	265	7
2023-09-01T18:00	2182	781	3.9	-11.6	268	6
2023-09-01T18:00	2212	778	4.1	-15.0	269	6
2023-09-01T18:00	2239	775	4.2	-17.5	271	7
2023-09-01T18:00	2269	773	4.1	-17.4	271	7
2023-09-01T18:00	2300	770	4.0	-18.3	271	8
2023-09-01T18:00	2327	767	4.1	-15.7	270	8
2023-09-01T18:00	2358	764	3.9	-15.1	269	8
2023-09-01T18:00	2389	762	3.8	-15.0	269	9
2023-09-01T18:00	2417	759	3.6	-15.2	269	9
2023-09-01T18:00	2450	756	3.4	-15.2	269	9
2023-09-01T18:00	2480	753	3.2	-15.4	270	9
2023-09-01T18:00	2510	750	3.0	-15.5	270	9
2023-09-01T18:00	2540	747	2.8	-15.5	269	10
2023-09-01T18:00	2571	744	2.6	-16.1	269	10
2023-09-01T18:00	2606	741	2.4	-16.5	269	10
2023-09-01T18:00	2636	739	2.2	-17.0	269	10
2023-09-01T18:00	2667	736	2.1	-18.4	269	10
2023-09-01T18:00	2699	733	2.0	-19.8	269	10
2023-09-01T18:00	2730	730	1.7	-21.0	270	10
2023-09-01T18:00	2763	727	1.7	-25.0	272	10
2023-09-01T18:00	2797	724	1.7	-26.5	274	10
2023-09-01T18:00	2827	721	1.7	-26.9	276	11
2023-09-01T18:00	2858	718	1.5	-27.0	278	11
2023-09-01T18:00	2889	716	1.4	-29.1	279	12
2023-09-01T18:00	2918	713	1.4	-28.9	279	12
2023-09-01T18:00	2950	710	1.2	-29.0	279	12
2023-09-01T18:00	2981	707	1.0		278	12
2023-09-01T18:00	3012	705	0.7	-28.8	276	12
2023-09-01T18:00	3042	702	0.5	-27.1	274	12
2023-09-01T18:00	3070	700	0.3		272	12
2023-09-01T18:00	3101	697	0.1	-15.6	270	12
2023-09-01T18:00	3131	694	-0.1	-12.6	268	12
2023-09-01T18:00	3161	692	-0.3	-12.7	267	11
2023-09-01T18:00	3189	689	-0.2	-13.8	267	11
2023-09-01T18:00	3218	687	-0.3	-13.3	267	11
2023-09-01T18:00	3246	684	-0.4	-13.5	267	11
2023-09-01T18:00	3276	682	-0.5	-14.0	266	12
2023-09-01T18:00	3305	679	-0.6	-15.3	265	12
2023-09-01T18:00	3335	677	-0.5	-15.3	264	12
2023-09-01T18:00	3363	674	-0.8	-15.3	263	12
2023-09-01T18:00	3393	672	-0.9	-15.0	262	12
2023-09-01T18:00	3422	670	-1.0	-14.2	261	12
2023-09-01T18:00	3450	667	-1.3	-10.8	261	12
2023-09-01T18:00	3479	665	-1.6	-10.1	261	12
2023-09-01T18:00	3509	662	-1.8	-10.0	262	12
2023-09-01T18:00	3538	660	-2.1	-11.0	263	12
2023-09-01T18:00	3567	657	-2.0	-13.6	265	12
2023-09-01T18:00	3599	655	-2.1	-13.3	266	12
2023-09-01T18:00	3629	652	-2.2	-18.2	267	12
2023-09-01T18:00	3658	650	-2.5	-17.1	268	11
2023-09-01T18:00	3690	647	-2.7	-18.4	269	11
2023-09-01T18:00	3721	645	-3.0	-17.5	269	11
2023-09-01T18:00	3752	642	-3.3	-14.9	270	11
2023-09-01T18:00	3784	640	-3.6	-13.1	271	11
2023-09-01T18:00	3815	637	-3.9	-12.2	271	11
2023-09-01T18:00	3847	635	-4.2	-11.9	272	11
2023-09-01T18:00	3875	632	-4.3	-11.5	272	11
2023-09-01T18:00	3902	630	-4.6	-11.6	271	10
2023-09-01T18:00	3931	628	-4.8	-11.6	271	10
2023-09-01T18:00	3959	626	-5.0	-11.6	272	9
2023-09-01T18:00	3994	623	-5.3	-11.8	272	9
2023-09-01T18:00	4029	620	-5.6	-11.8	273	9
2023-09-01T18:00	4059	618	-5.8	-11.7	275	8
2023-09-01T18:00	4090	615	-6.1	-11.8	276	8
2023-09-01T18:00	4122	613	-6.5	-12.0	278	8
2023-09-01T18:00	4153	610	-6.8	-12.1	279	8
2023-09-01T18:00	4186	608	-7.1	-12.2	282	9
2023-09-01T18:00	4218	605	-7.4	-12.2	284	9
2023-09-01T18:00	4250	603	-7.7	-12.3	287	9
2023-09-01T18:00	4286	600	-8.1	-12.4	289	9
2023-09-01T18:00	4319	598	-8.4	-12.5	291	9
2023-09-01T18:00	4352	595	-8.7	-12.5	292	9
2023-09-01T18:00	4380	593	-9.0	-12.7	293	10
2023-09-01T18:00	4414	590	-9.3	-12.8	293	10
2023-09-01T18:00	4444	588	-9.6	-12.8	294	10
2023-09-01T18:00	4470	586	-9.9	-13.0	297	10
2023-09-01T18:00	4506	583	-10.2	-13.4	300	10
2023-09-01T18:00	4535	581	-10.4	-13.6	303	10
2023-09-01T18:00	4566	579	-10.6	-13.6	307	10
2023-09-01T18:00	4592	577	-10.8	-13.7	309	10
2023-09-01T18:00	4620	575	-10.9	-13.8	310	10
2023-09-01T18:00	4647	573	-11.0	-13.7	309	10
2023-09-01T18:00	4674	571	-11.2	-13.8	307	10
2023-09-01T18:00	4700	569	-11.1	-13.7	303	10
2023-09-01T18:00	4728	567	-11.2	-13.7	298	9
2023-09-01T18:00	4756	564	-11.2	-13.7	294	9
2023-09-01T18:00	4784	562	-11.3	-13.6	290	9
2023-09-01T18:00	4813	560	-11.4	-13.5	287	9
2023-09-01T18:00	4841	558	-11.6	-13.6	285	9
2023-09-01T18:00	4871	556	-11.9	-13.7	283	9
2023-09-01T18:00	4898	554	-12.1	-13.8	281	9
2023-09-01T18:00	4926	552	-12.2	-14.0	279	9
2023-09-01T18:00	4959	550	-12.3	-14.1	276	8
2023-09-01T18:00	4989	548	-12.5	-14.3	273	8
2023-09-01T18:00	5017	546	-12.7	-14.4	270	8
2023-09-01T18:00	5046	544	-12.9	-14.6	266	8
2023-09-01T18:00	5076	541	-13.1	-14.8	263	8
2023-09-01T18:00	5107	539	-13.4	-14.9	260	9
2023-09-01T18:00	5139	537	-13.6	-15.1	258	9
2023-09-01T18:00	5169	535	-13.8	-15.2	257	9
2023-09-01T18:00	5198	533	-14.0	-15.3	257	9
2023-09-01T18:00	5229	531	-14.2	-15.5	257	10
2023-09-01T18:00	5256	529	-14.4	-15.7	259	10
2023-09-01T18:00	5284	527	-14.5	-15.9	260	10
2023-09-01T18:00	5314	525	-14.6	-16.1	261	10
2023-09-01T18:00	5341	523	-14.7	-16.2	261	10
2023-09-01T18:00	5376	521	-14.9	-16.4	260	10
2023-09-01T18:00	5405	518	-15.2	-16.6	259	10
2023-09-01T18:00	5438	516	-15.4	-16.8	258	10
2023-09-01T18:00	5467	514	-15.6	-17.0	256	10
2023-09-01T18:00	5500	512	-15.8	-17.2	255	10
2023-09-01T18:00	5529	510	-16.0	-17.5	255	10
2023-09-01T18:00	5558	508	-16.1	-17.8	256	11
2023-09-01T18:00	5585	506	-16.2	-18.1	257	11
2023-09-01T18:00	5615	504	-16.3	-18.3	258	12
2023-09-01T18:00	5644	502	-16.4	-18.4	259	13
2023-09-01T18:00	5674	500	-16.6		260	13
2023-09-01T18:00	5704	498	-16.7	-18.8	260	14
2023-09-01T18:00	5736	496	-16.8	-18.8	259	15
2023-09-01T18:00	5766	494	-16.9	-18.8	258	16
2023-09-01T18:00	5800	492	-17.0	-18.9	258	17
2023-09-01T18:00	5833	490	-17.1	-18.9	257	18
2023-09-01T18:00	5865	488	-17.0	-18.8	257	19
2023-09-01T18:00	5898	486	-17.2	-18.9	257	20
2023-09-01T18:00	5928	484	-17.4	-18.8	258	21
2023-09-01T18:00	5961	482	-17.6		259	22
2023-09-01T18:00	5992	480	-17.7	-19.0	259	22
2023-09-01T18:00	6026	477	-17.9	-19.0	259	23
2023-09-01T18:00	6063	475	-18.1	-19.1	260	24
2023-09-01T18:00	6095	473	-18.2	-19.4	261	24
2023-09-01T18:00	6127	471	-18.3	-19.7	262	24
2023-09-01T18:00	6160	469	-18.6	-19.8	263	25
2023-09-01T18:00	6190	467	-18.9	-19.8	264	25
2023-09-01T18:00	6221	465	-19.1	-20.2	265	25
2023-09-01T18:00	6254	463	-19.2	-20.7	266	26
2023-09-01T18:00	6284	461	-19.4	-20.8	267	26
2023-09-01T18:00	6315	459	-19.6	-21.1	267	26
2023-09-01T18:00	6347	457	-19.9	-21.3	267	26
2023-09-01T18:00	6379	455	-20.1	-21.5	268	27
2023-09-01T18:00	6409	453	-20.3	-21.7	268	28
2023-09-01T18:00	6442	451	-20.6	-21.8	268	28
2023-09-01T18:00	6475	449	-20.7	-22.0	268	29
2023-09-01T18:00	6507	447	-20.8	-22.2	269	29
2023-09-01T18:00	6538	446	-21.1	-22.4	269	29
2023-09-01T18:00	6569	444	-21.3	-22.9	269	29
2023-09-01T18:00	6599	442	-21.5	-22.9	270	29
2023-09-01T18:00	6629	440	-21.8	-23.1	270	29
2023-09-01T18:00	6659	438	-22.0	-23.3	270	29
2023-09-01T18:00	6686	437	-22.2	-23.4	270	30
2023-09-01T18:00	6718	435	-22.5	-23.7	269	30
2023-09-01T18:00	6748	433	-22.7	-23.7	269	30
2023-09-01T18:00	6778	431	-23.0	-23.9	269	31
2023-09-01T18:00	6809	429	-23.2	-23.9	268	30
2023-09-01T18:00	6839	428	-23.5	-24.2	268	30
2023-09-01T18:00	6871	426	-23.7	-24.4	268	30
2023-09-01T18:00	6902	424	-24.0	-25.1	269	30
2023-09-01T18:00	6932	422	-24.2	-25.2	269	29
2023-09-01T18:00	6961	421	-24.3	-25.3	269	29
2023-09-01T18:00	6991	419	-24.5	-25.4	270	29
2023-09-01T18:00	7024	417	-24.7	-25.7	270	29
2023-09-01T18:00	7056	415	-24.9	-25.9	271	29
2023-09-01T18:00	7089	413	-25.2	-26.3	271	29
2023-09-01T18:00	7121	412	-25.4	-26.8	272	29
2023-09-01T18:00	7151	410	-25.6	-26.7	272	30
2023-09-01T18:00	7187	408	-25.9	-27.0	273	30
2023-09-01T18:00	7217	406	-26.2	-27.5	273	30
2023-09-01T18:00	7250	404	-26.4	-27.8	273	30
2023-09-01T18:00	7282	402	-26.7	-28.0	273	30
2023-09-01T18:00	7318	400	-26.9	-28.3	273	30
2023-09-01T18:00	7351	399	-27.2	-28.7	273	30
2023-09-01T18:00	7383	397	-27.4	-29.0	273	30
2023-09-01T18:00	7419	395	-27.6	-29.1	273	30
2023-09-01T18:00	7453	393	-27.9	-29.4	273	30
2023-09-01T18:00	7483	391	-28.1	-29.6	272	30
2023-09-01T18:00	7516	390	-28.4	-30.0	272	30
2023-09-01T18:00	7551	388	-28.7	-30.2	272	30
2023-09-01T18:00	7581	386	-28.9	-30.2	272	30
2023-09-01T18:00	7617	384	-29.2	-30.6	272	30
2023-09-01T18:00	7649	382	-29.5	-31.0	272	30
2023-09-01T18:00	7685	380	-29.8	-31.5	272	30
2023-09-01T18:00	7719	379	-30.1	-31.8	272	30
2023-09-01T18:00	7749	377	-30.4	-32.1	272	30
2023-09-01T18:00	7783	375	-30.7	-32.2	272	30
2023-09-01T18:00	7816	374	-30.9	-32.4	271	30
2023-09-01T18:00	7848	372	-31.2	-32.5	271	31
2023-09-01T18:00	7879	370	-31.4	-32.7	271	31
2023-09-01T18:00	7915	368	-31.8	-33.1	271	31
2023-09-01T18:00	7948	367	-32.0	-33.3	271	31
2023-09-01T18:00	7979	365	-32.3	-33.7	271	31
2023-09-01T18:00	8012	363	-32.5	-33.9	271	31
2023-09-01T18:00	8037	362	-32.8	-34.1	271	31
2023-09-01T18:00	8066	360	-33.0	-34.2	270	31
2023-09-01T18:00	8100	359	-33.3	-34.3	269	30
2023-09-01T18:00	8129	357	-33.5	-34.5	268	31
2023-09-01T18:00	8157	356	-33.8	-35.0	268	31
2023-09-01T18:00	8185	354	-34.0		268	31
2023-09-01T18:00	8212	353	-34.2	-35.7	268	31
2023-09-01T18:00	8244	351	-34.5	-36.3	268	31
2023-09-01T18:00	8275	350	-34.7	-36.5	267	31
2023-09-01T18:00	8308	348	-35.0	-36.7	267	31
2023-09-01T18:00	8338	347	-35.3	-36.8	268	32
2023-09-01T18:00	8371	345	-35.6	-37.0	268	32
2023-09-01T18:00	8405	343	-35.8	-37.4	268	32
2023-09-01T18:00	8437	342	-36.1	-37.7	268	32
2023-09-01T18:00	8473	340	-36.4	-37.9	269	32
2023-09-01T18:00	8504	339	-36.7	-38.3	269	32
2023-09-01T18:00	8537	337	-37.0	-38.4	269	32
2023-09-01T18:00	8569	335	-37.3	-38.9	269	32
2023-09-01T18:00	8605	334	-37.6	-39.3	269	32
2023-09-01T18:00	8637	332	-37.9	-39.5	269	32
2023-09-01T18:00	8671	331	-38.2	-39.8	269	32
2023-09-01T18:00	8701	329	-38.5	-40.1	269	31
2023-09-01T18:00	8736	327	-38.8		269	31
2023-09-01T18:00	8771	326	-39.2	-41.0	269	31
2023-09-01T18:00	8803	324	-39.5	-41.6	268	30
2023-09-01T18:00	8830	323	-39.7	-41.8	268	30
2023-09-01T18:00	8860	322	-39.9	-42.0	268	30
2023-09-01T18:00	8889	320	-40.2	-42.5	268	31
2023-09-01T18:00	8923	319	-40.5	-43.3	268	31
2023-09-01T18:00	8951	317	-40.7	-43.1	269	31
2023-09-01T18:00	8978	316	-41.0	-43.2	270	31
2023-09-01T18:00	9013	314	-41.3	-43.4	270	31
2023-09-01T18:00	9034	313	-41.5	-43.7	271	31
2023-09-01T18:00	9068	312	-41.8	-43.9	271	31
2023-09-01T18:00	9095	311	-42.1	-44.4	271	31
2023-09-01T18:00	9122	309	-42.3	-45.2	271	31
2023-09-01T18:00	9154	308	-42.6	-45.2	271	32
2023-09-01T18:00	9177	307	-42.9	-45.5	271	32
2023-09-01T18:00	9208	306	-43.1	-45.7	270	32
2023-09-01T18:00	9234	304	-43.4	-45.7	270	32
2023-09-01T18:00	9266	303	-43.7	-45.7	269	32
2023-09-01T18:00	9300	301	-44.0	-45.7	268	32
2023-09-01T18:00	9336	300	-44.3	-45.9	268	32
2023-09-01T18:00	9367	298	-44.6	-46.1	268	32
2023-09-01T18:00	9399	297	-44.9	-46.3	269	31
2023-09-01T18:00	9425	296	-45.1	-46.5	269	31
2023-09-01T18:00	9449	295	-45.3	-46.9	269	31
2023-09-01T18:00	9479	293	-45.6	-47.4	269	31
2023-09-01T18:00	9506	292	-45.9	-47.8	269	31
2023-09-01T18:00	9535	291	-46.1	-48.3	268	31
2023-09-01T18:00	9559	290	-46.4	-48.5	267	32
2023-09-01T18:00	9588	289	-46.6	-48.5	266	32
2023-09-01T18:00	9614	287	-46.8	-49.0	266	32
2023-09-01T18:00	9645	286	-47.1	-49.8	265	32
2023-09-01T18:00	9673	285	-47.4	-50.0	265	32
2023-09-01T18:00	9704	284	-47.7	-50.1	265	32
2023-09-01T18:00	9735	282	-48.0	-50.6	265	32
2023-09-01T18:00	9760	281	-48.2	-50.8	265	32
2023-09-01T18:00	9789	280	-48.5	-51.1	266	32
2023-09-01T18:00	9815	279	-48.8	-51.8	266	32
2023-09-01T18:00	9851	277	-49.1	-52.2	266	32
2023-09-01T18:00	9875	276	-49.4	-52.4	266	32
2023-09-01T18:00	9910	275	-49.7	-52.3	267	32
2023-09-01T18:00	9936	274	-49.9	-52.2	267	32
2023-09-01T18:00	9965	272	-50.2	-52.4	267	32
2023-09-01T18:00	9997	271	-50.5	-52.7	267	32
2023-09-01T18:00	10026	270	-50.8	-53.0	267	32
2023-09-01T18:00	10050	269	-51.0	-53.1	266	32
2023-09-01T18:00	10077	268	-51.2	-53.4	266	32
2023-09-01T18:00	10104	267	-51.5	-54.1	266	32
2023-09-01T18:00	10131	266	-51.7	-54.6	266	32
2023-09-01T18:00	10161	264	-52.0	-55.0	266	32
2023-09-01T18:00	10189	263	-52.3	-55.3	266	32
2023-09-01T18:00	10220	262	-52.5	-55.4	266	32
2023-09-01T18:00	10245	261	-52.7	-55.3	267	32
2023-09-01T18:00	10271	260	-53.0	-55.3	267	32
2023-09-01T18:00	10295	259	-53.1	-55.2	267	32
2023-09-01T18:00	10322	258	-53.3	-55.5	268	32
2023-09-01T18:00	10348	257	-53.5	-55.9	268	32
2023-09-01T18:00	10374	256	-53.8	-56.3	269	31
2023-09-01T18:00	10402	255	-54.1	-56.5	269	31
2023-09-01T18:00	10430	254	-54.3	-56.6	269	31
2023-09-01T18:00	10456	253	-54.6	-56.8	269	31
2023-09-01T18:00	10485	251	-54.8	-57.0	269	32
2023-09-01T18:00	10518	250	-55.1	-57.5	269	32
2023-09-01T18:00	10546	249	-55.3	-58.1	269	32
2023-09-01T18:00	10571	248	-55.6	-58.8	269	32
2023-09-01T18:00	10593	247	-55.7	-58.8	269	33
2023-09-01T18:00	10617	246	-55.8	-59.0	270	33
2023-09-01T18:00	10648	245	-56.1	-59.4	270	33
2023-09-01T18:00	10674	244	-56.3	-59.2	270	34
2023-09-01T18:00	10707	243	-56.4	-58.8	269	34
2023-09-01T18:00	10738	242	-56.2	-59.0	269	35
2023-09-01T18:00	10756	241	-55.4	-59.7	269	36
2023-09-01T18:00	10778	240	-55.3	-61.0	269	37
2023-09-01T18:00	10800	239	-55.3	-61.3	270	38
2023-09-01T18:00	10822	238	-55.3	-61.4	271	38
2023-09-01T18:00	10846	238	-55.2	-61.6	272	39
2023-09-01T18:00	10872	237	-55.2	-62.0	273	39
2023-09-01T18:00	10893	236	-55.1	-62.3	274	39
2023-09-01T18:00	10915	235	-55.0	-62.7	275	38
2023-09-01T18:00	10948	234	-55.0	-63.7	276	37
2023-09-01T18:00	10979	233	-54.4	-64.7	276	36
2023-09-01T18:00	11006	232	-54.1	-66.1	276	34
2023-09-01T18:00	11036	231	-53.8	-67.5	275	33
2023-09-01T18:00	11063	230	-53.3	-68.5	273	31
2023-09-01T18:00	11087	229	-52.9	-68.9	272	30
2023-09-01T18:00	11107	228	-51.9	-68.9	272	29
2023-09-01T18:00	11131	227	-51.4	-69.5	272	29
2023-09-01T18:00	11154	226	-51.2	-69.8	271	29
2023-09-01T18:00	11181	225	-50.9	-70.1	271	29
2023-09-01T18:00	11202	225	-51.0	-70.9	271	29
2023-09-01T18:00	11228	224	-50.9	-70.9	270	29
2023-09-01T18:00	11256	223	-50.8	-70.8	270	29
2023-09-01T18:00	11282	222	-50.6	-70.9	270	29
2023-09-01T18:00	11305	221	-50.7	-70.6	270	29
2023-09-01T18:00	11326	220	-50.8	-70.5	270	28
2023-09-01T18:00	11348	220	-50.8	-70.8	271	28
2023-09-01T18:00	11375	219	-50.8	-70.9	272	28
2023-09-01T18:00	11398	218	-50.8	-71.0	273	28
2023-09-01T18:00	11420	217	-50.8	-71.2	273	28
2023-09-01T18:00	11443	217	-50.9	-71.4	273	28
2023-09-01T18:00	11468	216	-51.1	-71.8	273	28
2023-09-01T18:00	11491	215	-51.2	-72.1	273	28
2023-09-01T18:00	11521	214	-51.2	-72.7	272	28
2023-09-01T18:00	11553	213	-50.6	-73.4	270	28
2023-09-01T18:00	11581	212	-50.6	-74.0	269	29
2023-09-01T18:00	11604	211	-50.7	-74.1	269	29
2023-09-01T18:00	11631	210	-50.7	-73.9	269	29
2023-09-01T18:00	11658	209	-50.6	-74.2	271	30
2023-09-01T18:00	11694	208	-50.5	-74.6	273	30
2023-09-01T18:00	11722	207	-50.0	-74.8	276	30
2023-09-01T18:00	11752	207	-49.6	-74.5	278	29
2023-09-01T18:00	11783	206	-49.3	-74.2	279	28
2023-09-01T18:00	11817	205	-49.4	-74.3	280	28
2023-09-01T18:00	11846	204	-49.6	-74.9	280	27
2023-09-01T18:00	11873	203	-49.6	-74.9	280	26
2023-09-01T18:00	11897	202	-49.7	-74.8	280	25
2023-09-01T18:00	11919	201	-49.8	-74.8	279	25
2023-09-01T18:00	11944	201	-49.7	-75.0	278	24
2023-09-01T18:00	11967	200	-49.8	-74.8	277	24
2023-09-01T18:00	11992	199	-50.0	-75.2	277	24
2023-09-01T18:00	12019	198	-50.1	-75.7	277	24
2023-09-01T18:00	12046	197	-49.8	-76.0	277	23
2023-09-01T18:00	12075	197	-48.8	-75.7	277	23
2023-09-01T18:00	12105	196	-48.6	-75.8	278	23
2023-09-01T18:00	12129	195	-48.7	-76.2	278	23
2023-09-01T18:00	12155	194	-48.7	-76.8	279	22
2023-09-01T18:00	12181	193	-48.4	-76.9	280	22
2023-09-01T18:00	12204	193	-48.3	-76.8	280	21
2023-09-01T18:00	12230	192	-48.4	-76.9	279	20
2023-09-01T18:00	12259	191	-48.5	-77.3	277	19
2023-09-01T18:00	12286	190	-48.2	-77.1	274	18
2023-09-01T18:00	12311	190	-48.3	-77.5	271	18
2023-09-01T18:00	12335	189	-48.4	-77.6	268	18
2023-09-01T18:00	12358	188	-48.4	-77.6	266	18
2023-09-01T18:00	12384	188	-48.4	-77.6	264	18
2023-09-01T18:00	12408	187	-48.5	-77.6	262	19
2023-09-01T18:00	12430	186	-48.6	-77.7	262	19
2023-09-01T18:00	12455	186	-48.7	-77.8	262	20
2023-09-01T18:00	12481	185	-48.6	-77.7	263	20
2023-09-01T18:00	12506	184	-48.9	-77.6	265	21
2023-09-01T18:00	12529	183	-48.9	-77.6	267	21
2023-09-01T18:00	12554	183	-48.7	-77.4	269	21
2023-09-01T18:00	12579	182	-48.4	-77.6	271	21
2023-09-01T18:00	12607	181	-48.3	-77.9	273	21
2023-09-01T18:00	12633	181	-48.4	-77.9	274	20
2023-09-01T18:00	12659	180	-48.3	-78.3	275	20
2023-09-01T18:00	12684	179	-48.4	-78.3	276	19
2023-09-01T18:00	12707	179	-48.4	-78.3	277	19
2023-09-01T18:00	12732	178	-48.5	-78.4	278	18
2023-09-01T18:00	12755	177	-48.6	-78.5	278	18
2023-09-01T18:00	12780	177	-48.8		278	18
2023-09-01T18:00	12804	176	-49.0	-78.8	278	18
2023-09-01T18:00	12831	175	-49.1	-78.9	277	18
2023-09-01T18:00	12855	175	-49.0	-78.8	277	18
2023-09-01T18:00	12876	174	-48.8		277	18
2023-09-01T18:00	12897	173	-48.8		276	19
2023-09-01T18:00	12920	173	-48.8		276	19
2023-09-01T18:00	12943	172	-48.8		275	20
2023-09-01T18:00	12963	172	-48.8		275	20
2023-09-01T18:00	12987	171	-48.6	-78.5	274	20
2023-09-01T18:00	13008	171	-48.6	-78.5	273	20
2023-09-01T18:00	13031	170	-48.6	-78.5	273	20
2023-09-01T18:00	13051	169	-48.8		273	19
2023-09-01T18:00	13074	169	-48.8		273	19
2023-09-01T18:00	13098	168	-48.5	-78.4	274	19
2023-09-01T18:00	13119	168	-48.6	-78.5	274	19
2023-09-01T18:00	13141	167	-48.5	-78.4	275	18
2023-09-01T18:00	13162	167	-48.6	-78.5	274	18
2023-09-01T18:00	13185	166	-48.6	-78.5	273	18
2023-09-01T18:00	13210	165	-48.8		271	18
2023-09-01T18:00	13232	165	-48.8		269	18
2023-09-01T18:00	13250	164	-48.6	-78.9	267	18
2023-09-01T18:00	13274	164	-48.5	-78.8	266	19
2023-09-01T18:00	13299	163	-48.5	-78.8	265	19
2023-09-01T18:00	13321	163	-48.6	-78.9	265	20
2023-09-01T18:00	13347	162	-48.4	-78.8	265	20
2023-09-01T18:00	13370	161	-48.3	-78.7	265	21
2023-09-01T18:00	13395	161	-48.4	-78.8	265	21
2023-09-01T18:00	13415	160	-48.5	-78.8	266	22
2023-09-01T18:00	13437	160	-48.6	-78.9	267	22
2023-09-01T18:00	13460	159	-48.6	-78.9	268	22
2023-09-01T18:00	13481	159	-48.5	-78.8	270	22
2023-09-01T18:00	13505	158	-48.4	-78.8	271	22
2023-09-01T18:00	13528	158	-48.4	-78.8	273	22
2023-09-01T18:00	13551	157	-48.5	-78.8	274	22
2023-09-01T18:00	13572	157	-48.6	-78.9	275	22
2023-09-01T18:00	13595	156	-48.8	-79.1	276	22
2023-09-01T18:00	13616	156	-48.9	-79.1	277	23
2023-09-01T18:00	13636	155	-49.0	-79.2	278	23
2023-09-01T18:00	13661	154	-49.0	-79.2	279	23
2023-09-01T18:00	13681	154	-49.0	-79.2	280	22
2023-09-01T18:00	13703	153	-49.0	-79.2	281	22
2023-09-01T18:00	13729	153	-49.0	-79.2	282	22
2023-09-01T18:00	13752	152	-49.2	-79.4	283	21
2023-09-01T18:00	13778	152	-49.3	-79.4	284	20
2023-09-01T18:00	13803	151	-49.5	-79.6	284	20
2023-09-01T18:00	13826	151	-49.6	-79.2	284	19
2023-09-01T18:00	13853	150	-49.7	-79.3	284	19
2023-09-01T18:00	13876	149	-49.9	-79.5	284	18
2023-09-01T18:00	13902	149	-50.0	-79.5	284	18
2023-09-01T18:00	13925	148	-50.1	-79.6	283	18
2023-09-01T18:00	13949	148	-50.3	-79.8	283	17
2023-09-01T18:00	13974	147	-50.4	-79.8	282	16
2023-09-01T18:00	13997	147	-50.6	-80.0	281	16
2023-09-01T18:00	14024	146	-50.7	-80.1	280	15
2023-09-01T18:00	14048	146	-50.8	-80.1	279	14
2023-09-01T18:00	14071	145	-50.8	-80.1	278	14
2023-09-01T18:00	14095	145	-50.7	-80.5	278	14
2023-09-01T18:00	14117	144	-50.6	-80.4	279	14
2023-09-01T18:00	14140	144	-50.5	-80.3	279	14
2023-09-01T18:00	14164	143	-50.5	-80.3	279	15
2023-09-01T18:00	14189	142	-50.5	-80.3	279	15
2023-09-01T18:00	14213	142	-50.2	-80.6	278	15
2023-09-01T18:00	14237	141	-50.0	-80.4	276	15
2023-09-01T18:00	14259	141	-50.1	-80.5	276	15
2023-09-01T18:00	14287	140	-50.3	-80.6	276	15
2023-09-01T18:00	14310	140	-50.5	-80.8	276	15
2023-09-01T18:00	14336	139	-50.0	-80.4	277	15
2023-09-01T18:00	14361	139	-49.9	-80.3	277	14
2023-09-01T18:00	14388	138	-50.1	-80.5	277	13
2023-09-01T18:00	14415	138	-50.2	-80.6	276	13
2023-09-01T18:00	14439	137	-50.4	-80.3	274	12
2023-09-01T18:00	14461	137	-50.5	-80.3	272	12
2023-09-01T18:00	14484	136	-50.6	-80.4	270	12
2023-09-01T18:00	14507	136	-50.6	-80.4	268	12
2023-09-01T18:00	14531	135	-50.7	-80.5	267	13
2023-09-01T18:00	14551	135	-50.7	-80.5	266	13
2023-09-01T18:00	14574	134	-50.7	-80.5	267	13
2023-09-01T18:00	14596	134	-50.8	-80.6	268	13
2023-09-01T18:00	14618	133	-50.8	-80.6	270	13
2023-09-01T18:00	14640	133	-50.6	-80.4	272	13
2023-09-01T18:00	14662	132	-50.7	-80.5	274	13
2023-09-01T18:00	14685	132	-50.7	-80.5	275	13
2023-09-01T18:00	14711	132	-50.9	-80.6	276	13
2023-09-01T18:00	14732	131	-50.9	-80.6	276	13
2023-09-01T18:00	14758	131	-50.7	-80.5	276	13
2023-09-01T18:00	14779	130	-50.6	-80.4	276	13
2023-09-01T18:00	14805	130	-50.6	-80.4	277	12
2023-09-01T18:00	14830	129	-50.5	-80.3	277	12
2023-09-01T18:00	14851	129	-50.5	-80.3	277	12
2023-09-01T18:00	14875	128	-50.6	-80.4	277	11
2023-09-01T18:00	14897	128	-50.6	-80.4	276	11
2023-09-01T18:00	14922	127	-50.8	-80.6	276	11
2023-09-01T18:00	14946	127	-50.8	-80.6	275	11
2023-09-01T18:00	14969	126	-50.8	-80.6	275	11
2023-09-01T18:00	14993	126	-50.6	-80.9	276	11
2023-09-01T18:00	15017	126	-50.6	-80.9	276	11
2023-09-01T18:00	15038	125	-50.5	-80.8	276	11
2023-09-01T18:00	15063	125	-50.6	-80.9	276	11
2023-09-01T18:00	15085	124	-50.9	-81.1	277	11
2023-09-01T18:00	15110	124	-51.1	-81.2	278	11
2023-09-01T18:00	15135	123	-51.2	-81.3	279	10
2023-09-01T18:00	15164	123	-51.3	-80.9	280	9
2023-09-01T18:00	15189	122	-51.4	-81.0	282	9
2023-09-01T18:00	15214	122	-51.6	-81.2	284	8
2023-09-01T18:00	15240	121	-51.6	-81.2	284	8
2023-09-01T18:00	15265	121	-51.6	-81.2	283	8
2023-09-01T18:00	15290	120	-51.8	-81.3	281	8
2023-09-01T18:00	15313	120	-51.9	-81.4	278	8
2023-09-01T18:00	15336	119	-52.0	-81.5	276	8
2023-09-01T18:00	15363	119	-51.8	-80.9	274	8
2023-09-01T18:00	15387	119	-51.7	-80.8	273	9
2023-09-01T18:00	15411	118	-51.6	-81.2	272	9
2023-09-01T18:00	15431	118	-51.7	-81.2	271	9
2023-09-01T18:00	15458	117	-51.8	-81.3	270	9
2023-09-01T18:00	15480	117	-51.4	-81.0	269	10
2023-09-01T18:00	15507	116	-51.4	-81.0	268	10
2023-09-01T18:00	15530	116	-51.5	-81.1	267	10
2023-09-01T18:00	15555	116	-51.7	-81.2	266	10
2023-09-01T18:00	15579	115	-51.8	-81.3	265	10
2023-09-01T18:00	15606	115	-51.7	-81.7	264	10
2023-09-01T18:00	15630	114	-51.6	-81.6	262	10
2023-09-01T18:00	15655	114	-51.8	-81.8	261	10
2023-09-01T18:00	15681	113	-52.0	-81.9	260	10
2023-09-01T18:00	15706	113	-52.2	-82.1	258	10
2023-09-01T18:00	15733	112	-52.5	-81.8	256	10
2023-09-01T18:00	15757	112	-52.6	-81.9	254	10
2023-09-01T18:00	15781	112	-52.8	-82.1	253	10
2023-09-01T18:00	15803	111	-52.9	-82.1	252	10
2023-09-01T18:00	15829	111	-52.8	-82.5	253	10
2023-09-01T18:00	15855	110	-52.7	-82.4	255	10
2023-09-01T18:00	15881	110	-52.7	-82.4	257	9
2023-09-01T18:00	15908	109	-52.8	-82.5	260	9
2023-09-01T18:00	15934	109	-52.8	-82.5	263	8
2023-09-01T18:00	15959	109	-52.5	-82.3	265	8
2023-09-01T18:00	15982	108	-52.6	-82.4	267	7
2023-09-01T18:00	16007	108	-52.6	-82.8	269	7
2023-09-01T18:00	16032	107	-52.2	-82.5	270	7
2023-09-01T18:00	16058	107	-52.0	-82.4	271	8
2023-09-01T18:00	16083	106	-52.2	-82.5	272	8
2023-09-01T18:00	16103	106	-52.3	-82.6	273	8
2023-09-01T18:00	16130	106	-52.5	-82.8	275	8
2023-09-01T18:00	16154	105	-52.5	-82.8	276	8
2023-09-01T18:00	16178	105	-52.5	-82.8	279	8
2023-09-01T18:00	16201	105	-52.5	-82.8	281	8
2023-09-01T18:00	16227	104	-52.5	-82.8	284	7
2023-09-01T18:00	16250	104	-52.3	-82.6	286	7
2023-09-01T18:00	16274	103	-52.3	-82.6	287	7
2023-09-01T18:00	16298	103	-52.3	-82.6	287	6
2023-09-01T18:00	16320	103	-52.5	-82.8	284	6
2023-09-01T18:00	16344	102	-52.6	-82.8	280	5
2023-09-01T18:00	16368	102	-52.5	-82.8	274	5
2023-09-01T18:00	16393	101	-52.4	-82.7	267	5
2023-09-01T18:00	16414	101	-52.5	-82.8	258	5
2023-09-01T18:00	16439	101	-52.5	-82.8	249	5
2023-09-01T18:00	16462	100	-52.5	-82.8	241	5
2023-09-01T18:00	16485	100	-52.4	-83.2	235	6
2023-09-01T18:00	16508	100	-52.2	-83.1	232	6
2023-09-01T18:00	16528	99	-52.0	-82.9	232	7
2023-09-01T18:00	16551	99	-51.8	-82.8	233	7
2023-09-01T18:00	16572	99	-51.7	-82.7	235	7
2023-09-01T18:00	16595	98	-51.4	-83.0	238	6
2023-09-01T18:00	16618	98	-51.0	-82.7	243	6
2023-09-01T18:00	16638	98	-51.0	-82.7	249	6
2023-09-01T18:00	16661	97	-51.0	-82.7	255	6
2023-09-01T18:00	16685	97	-51.1	-82.8	259	6
2023-09-01T18:00	16708	97	-51.2	-82.3	260	6
2023-09-01T18:00	16732	96	-51.2	-82.3	259	6
2023-09-01T18:00	16756	96	-51.3	-82.4	258	6
2023-09-01T18:00	16781	96	-51.2	-82.3	257	6
2023-09-01T18:00	16805	95	-51.2	-82.3	256	6
2023-09-01T18:00	16830	95	-51.3	-82.4	256	6
2023-09-01T18:00	16857	94	-51.4	-82.5	256	6
2023-09-01T18:00	16882	94	-51.5	-82.5	256	6
2023-09-01T18:00	16903	94	-51.7	-82.7	256	6
2023-09-01T18:00	16929	93	-51.8	-82.8	255	6
2023-09-01T18:00	16956	93	-51.8	-82.8	253	7
2023-09-01T18:00	16980	93	-51.8	-82.8	252	7
2023-09-01T18:00	17005	92	-51.9	-82.8	251	7
2023-09-01T18:00	17030	92	-51.6	-82.6	249	7
2023-09-01T18:00	17055	92	-51.4	-82.5	248	6
2023-09-01T18:00	17080	91	-51.4	-82.5	248	6
2023-09-01T18:00	17105	91	-51.4	-82.5	247	6
2023-09-01T18:00	17129	91	-51.6	-83.2	247	6
2023-09-01T18:00	17155	90	-51.7	-83.2	248	6
2023-09-01T18:00	17180	90	-51.5	-83.1	249	6
2023-09-01T18:00	17202	90	-51.3	-82.9	251	6
2023-09-01T18:00	17228	89	-51.3	-82.9	254	6
2023-09-01T18:00	17254	89	-51.2	-82.9	257	6
2023-09-01T18:00	17278	89	-51.3	-82.9	260	7
2023-09-01T18:00	17302	88	-51.4	-83.0	263	7
2023-09-01T18:00	17327	88	-51.5	-83.1	264	7
2023-09-01T18:00	17352	88	-51.6	-83.2	265	6
2023-09-01T18:00	17377	87	-51.4	-83.0	265	6
2023-09-01T18:00	17401	87	-51.3	-82.9	264	5
2023-09-01T18:00	17424	87	-51.3	-82.9	261	5
2023-09-01T18:00	17452	86	-51.4	-83.0	257	4
2023-09-01T18:00	17475	86	-51.5	-83.1	251	4
2023-09-01T18:00	17504	86	-51.5	-83.1	244	4
2023-09-01T18:00	17526	85	-51.7	-82.7	236	4
2023-09-01T18:00	17553	85	-51.7	-82.7	229	4
2023-09-01T18:00	17577	85	-51.7	-82.7	225	4
2023-09-01T18:00	17600	84	-51.7	-82.7	222	4
2023-09-01T18:00	17625	84	-51.8	-82.8	222	5
2023-09-01T18:00	17652	84	-51.8	-82.8	222	5
2023-09-01T18:00	17680	83	-51.8	-83.3	223	5
2023-09-01T18:00	17702	83	-51.8	-83.3	224	5
2023-09-01T18:00	17725	83	-51.8	-83.3	225	5
2023-09-01T18:00	17753	82	-51.9	-83.4	226	5
2023-09-01T18:00	17779	82	-51.9	-83.4	226	4
2023-09-01T18:00	17807	82	-51.9	-83.4	223	4
2023-09-01T18:00	17829	81	-51.8	-83.3	218	3
2023-09-01T18:00	17854	81	-51.7	-83.2	210	3
2023-09-01T18:00	17879	81	-51.7	-83.2	203	3
2023-09-01T18:00	17904	80	-51.6	-83.2	199	3
2023-09-01T18:00	17929	80	-51.7	-83.2	199	3
2023-09-01T18:00	17954	80	-51.9	-83.4	201	3
2023-09-01T18:00	17975	79	-52.0	-82.9	202	4
2023-09-01T18:00	18001	79	-52.1	-83.0	204	4
2023-09-01T18:00	18024	79	-52.2	-83.1	205	4
2023-09-01T18:00	18051	79	-52.4	-83.2	208	5
2023-09-01T18:00	18077	78	-52.6	-83.3	211	5
2023-09-01T18:00	18106	78	-52.6	-83.3	214	5
2023-09-01T18:00	18129	78	-52.5	-83.3	219	5
2023-09-01T18:00	18152	77	-52.2	-83.6	225	5
2023-09-01T18:00	18179	77	-51.9	-83.4	232	5
2023-09-01T18:00	18200	77	-51.9	-83.4	239	5
2023-09-01T18:00	18227	76	-51.8	-83.3	245	5
2023-09-01T18:00	18252	76	-51.7	-83.2	250	5
2023-09-01T18:00	18278	76	-51.6	-83.2	253	5
2023-09-01T18:00	18306	76	-51.5	-83.1	255	5
2023-09-01T18:00	18333	75	-51.5	-83.1	256	4
2023-09-01T18:00	18356	75	-51.7	-83.2	256	4
2023-09-01T18:00	18383	75	-51.9	-83.4	254	4
2023-09-01T18:00	18409	74	-52.0	-83.5	252	4
2023-09-01T18:00	18436	74	-52.1	-83.0	250	4
2023-09-01T18:00	18461	74	-52.2	-83.1	250	5
2023-09-01T18:00	18482	73	-52.2	-83.1	251	5
2023-09-01T18:00	18509	73	-52.2	-83.6	253	5
2023-09-01T18:00	18534	73	-52.1	-83.5	256	6
2023-09-01T18:00	18562	73	-52.0	-83.5	259	6
2023-09-01T18:00	18588	72	-52.0	-83.5	262	6
2023-09-01T18:00	18614	72	-52.0	-83.5	265	6
2023-09-01T18:00	18639	72	-52.2	-83.6	268	7
2023-09-01T18:00	18667	71	-52.3	-83.7	272	7
2023-09-01T18:00	18693	71	-52.4	-83.8	276	7
2023-09-01T18:00	18719	71	-52.2	-83.6	280	7
2023-09-01T18:00	18746	71	-52.1	-83.5	284	6
2023-09-01T18:00	18770	70	-52.1	-83.5	288	6
2023-09-01T18:00	18797	70	-51.8	-83.3	293	5
2023-09-01T18:00	18827	70	-51.9	-83.4	298	4
2023-09-01T18:00	18853	69	-52.1	-83.5	303	4
2023-09-01T18:00	18880	69	-52.2	-83.6	307	3
2023-09-01T18:00	18908	69	-52.2	-83.6	309	2
2023-09-01T18:00	18935	69	-52.1	-83.5	307	2
2023-09-01T18:00	18958	68	-52.2	-83.6	299	1
2023-09-01T18:00	18984	68	-52.3	-83.7	274	1
2023-09-01T18:00	19010	68	-52.3	-83.7	206	1
2023-09-01T18:00	19042	67	-52.1	-83.5	169	1
2023-09-01T18:00	19065	67	-52.1	-83.5	157	1
2023-09-01T18:00	19096	67	-51.9	-83.4	154	2
2023-09-01T18:00	19120	67	-51.7	-83.2	156	2
2023-09-01T18:00	19143	66	-51.7	-83.2	162	2
2023-09-01T18:00	19170	66	-51.7	-83.2	172	2
2023-09-01T18:00	19199	66	-51.7	-83.2	181	2
2023-09-01T18:00	19221	66	-51.7	-83.2	187	2
2023-09-01T18:00	19250	65	-51.8	-83.3	188	2
2023-09-01T18:00	19277	65	-51.9	-83.4	187	3
2023-09-01T18:00	19305	65	-52.0	-83.5	185	3
2023-09-01T18:00	19333	64	-52.1	-83.5	184	4
2023-09-01T18:00	19357	64	-52.3	-83.7	185	4
2023-09-01T18:00	19384	64	-52.4	-83.8	187	5
2023-09-01T18:00	19412	64	-52.4	-83.8	192	5
2023-09-01T18:00	19434	63	-52.4	-83.8	198	5
2023-09-01T18:00	19460	63	-52.4	-83.8	205	5
2023-09-01T18:00	19488	63	-52.2	-83.6	212	5
2023-09-01T18:00	19512	63	-52.1	-83.5	218	5
2023-09-01T18:00	19535	62	-52.1	-83.5	225	5
2023-09-01T18:00	19562	62	-52.2	-83.6	232	5
2023-09-01T18:00	19587	62	-52.4	-83.8	240	5
2023-09-01T18:00	19614	62	-52.4	-83.8	249	4
2023-09-01T18:00	19639	61	-52.4	-83.8	259	4
2023-09-01T18:00	19663	61	-52.3	-83.7	270	4
2023-09-01T18:00	19687	61	-52.2	-83.6	279	4
2023-09-01T18:00	19716	61	-52.2	-83.6	287	4
2023-09-01T18:00	19746	61	-52.0	-83.5	294	4
2023-09-01T18:00	19766	60	-51.9	-83.4	301	4
2023-09-01T18:00	19793	60	-51.8	-83.3	307	4
2023-09-01T18:00	19821	60	-51.7	-83.9	313	4
2023-09-01T18:00	19843	60	-51.7	-83.2	320	4
2023-09-01T18:00	19869	59	-51.7	-83.2	328	4
2023-09-01T18:00	19891	59	-51.7	-83.2	334	4
2023-09-01T18:00	19920	59	-51.7	-83.2	340	4
2023-09-01T18:00	19943	59	-51.7	-83.2	345	3
2023-09-01T18:00	19969	58	-51.7	-83.2	349	3
2023-09-01T18:00	19994	58	-51.6	-83.2	354	3
2023-09-01T18:00	20023	58	-51.7	-83.2	1	2
2023-09-01T18:00	20047	58	-51.7	-83.2	11	2
2023-09-01T18:00	20071	58	-51.7	-83.2	27	1
2023-09-01T18:00	20098	57	-51.6	-83.2	47	1
2023-09-01T18:00	20124	57	-51.5	-83.7	66	1
2023-09-01T18:00	20150	57	-51.5	-83.7	78	1
2023-09-01T18:00	20175	57	-51.6	-83.8	78	0
2023-09-01T18:00	20200	56	-51.5	-83.7	321	0
2023-09-01T18:00	20231	56	-51.5	-83.7	313	1
2023-09-01T18:00	20254	56	-51.5	-83.7	319	1
2023-09-01T18:00	20280	56	-51.5	-83.7	325	2
2023-09-01T18:00	20310	55	-51.4	-83.0	329	2
2023-09-01T18:00	20335	55	-51.5	-83.1	331	3
2023-09-01T18:00	20364	55	-51.6	-83.2	334	3
2023-09-01T18:00	20388	55	-51.7	-83.2	338	3
2023-09-01T18:00	20415	55	-51.8	-83.3	346	3
2023-09-01T18:00	20439	54	-51.7	-83.2	358	3
2023-09-01T18:00	20469	54	-51.8	-83.3	13	2
2023-09-01T18:00	20494	54	-51.8	-83.3	29	2
2023-09-01T18:00	20521	54	-51.7	-83.2	44	2
2023-09-01T18:00	20547	53	-51.8	-83.3	61	2
2023-09-01T18:00	20571	53	-51.9	-83.4	79	2
2023-09-01T18:00	20597	53	-51.8	-83.3	101	2
2023-09-01T18:00	20628	53	-51.9	-83.4	123	2
2023-09-01T18:00	20652	53	-52.0	-83.5	142	2
2023-09-01T18:00	20685	52	-52.2	-83.6	158	3
2023-09-01T18:00	20712	52	-52.3	-83.7	173	3
2023-09-01T18:00	20737	52	-52.4	-83.8	187	3
2023-09-01T18:00	20765	52	-52.4	-83.8	203	2
2023-09-01T18:00	20793	51	-52.1	-83.5	224	2
2023-09-01T18:00	20819	51	-52.0	-83.5	254	2
2023-09-01T18:00	20843	51	-52.0	-84.1	281	2
2023-09-01T18:00	20869	51	-52.0	-83.5	294	2
2023-09-01T18:00	20893	51	-51.9	-83.4	296	2
2023-09-01T18:00	20920	50	-52.0	-83.5	287	2
2023-09-01T18:00	20944	50	-52.1	-83.5	271	2
2023-09-01T18:00	20976	50	-52.0	-83.5	253	2
2023-09-01T18:00	21004	50	-52.1	-83.5	239	3
2023-09-01T18:00	21027	50	-52.1	-83.5	229	3
2023-09-01T18:00	21050	49	-52.0	-84.1	222	3
2023-09-01T18:00	21080	49	-51.8	-83.9	216	3
2023-09-01T18:00	21105	49	-51.5	-83.7	209	3
2023-09-01T18:00	21136	49	-51.3	-83.6	200	2
2023-09-01T18:00	21162	49	-51.4	-83.6	190	2
2023-09-01T18:00	21189	48	-51.5	-83.7	181	2
2023-09-01T18:00	21218	48	-51.5	-83.7	174	2
2023-09-01T18:00	21244	48	-51.4	-83.6	170	2
2023-09-01T18:00	21270	48	-51.5	-83.7	169	2
2023-09-01T18:00	21299	48	-51.5	-83.7	169	2
2023-09-01T18:00	21325	47	-51.6	-83.8	171	3
2023-09-01T18:00	21358	47	-51.6	-83.8	174	3
2023-09-01T18:00	21382	47	-51.5	-83.7	177	4
2023-09-01T18:00	21412	47	-51.5	-83.7	180	5
2023-09-01T18:00	21436	47	-51.5	-83.7	182	6
2023-09-01T18:00	21466	46	-51.5	-83.7	185	6
2023-09-01T18:00	21492	46	-51.5	-83.7	189	7
2023-09-01T18:00	21520	46	-51.6	-83.8	193	7
2023-09-01T18:00	21546	46	-51.4	-83.6	198	7
2023-09-01T18:00	21572	46	-51.3	-83.6	203	6
2023-09-01T18:00	21600	45	-51.4	-83.6	207	6
2023-09-01T18:00	21620	45	-51.4	-83.6	212	5
2023-09-01T18:00	21646	45	-51.3	-83.6	216	5
2023-09-01T18:00	21674	45	-51.4	-83.6	222	4
2023-09-01T18:00	21698	45	-51.5	-83.7	227	4
2023-09-01T18:00	21725	45	-51.6	-83.8	232	4
2023-09-01T18:00	21753	44	-51.7	-83.9	234	3
2023-09-01T18:00	21777	44	-51.7	-83.9	234	3
2023-09-01T18:00	21800	44	-51.7	-83.2	232	3
2023-09-01T18:00	21830	44	-51.8	-83.3	229	3
2023-09-01T18:00	21857	44	-51.9	-83.4	227	4
2023-09-01T18:00	21880	44	-51.9	-84.0	226	4
2023-09-01T18:00	21905	43	-51.9	-84.0	226	5
2023-09-01T18:00	21931	43	-51.8	-83.9	225	5
2023-09-01T18:00	21963	43	-51.8	-83.9	226	6
2023-09-01T18:00	21983	43	-51.9	-84.0	227	6
2023-09-01T18:00	22008	43	-51.9	-84.0	229	6
2023-09-01T18:00	22033	43	-51.8	-83.9	233	6
2023-09-01T18:00	22062	42	-51.7	-83.9	237	5
2023-09-01T18:00	22089	42	-51.7	-83.9	243	5
2023-09-01T18:00	22111	42	-51.6	-83.8	249	5
2023-09-01T18:00	22134	42	-51.6	-83.8	255	5
2023-09-01T18:00	22165	42	-51.5	-83.7	260	5
2023-09-01T18:00	22194	41	-51.6	-83.8	264	4
2023-09-01T18:00	22217	41	-51.7	-83.9	265	4
2023-09-01T18:00	22243	41	-51.7	-83.9	266	4
2023-09-01T18:00	22274	41	-51.5	-83.7	268	4
2023-09-01T18:00	22302	41	-51.5	-83.7	271	5
2023-09-01T18:00	22325	41	-51.5	-83.7	276	5
2023-09-01T18:00	22349	40	-51.5	-83.7	281	6
2023-09-01T18:00	22378	40	-51.5	-83.7	286	6
2023-09-01T18:00	22409	40	-51.4	-83.6	291	6
2023-09-01T18:00	22433	40	-51.3	-83.6	296	6
2023-09-01T18:00	22464	40	-51.2	-83.5	302	6
2023-09-01T18:00	22492	40	-51.1	-83.4	309	5
2023-09-01T18:00	22518	39	-51.1	-83.4	315	5
2023-09-01T18:00	22547	39	-51.1	-83.4	321	4
2023-09-01T18:00	22573	39	-51.0	-83.3	324	4
2023-09-01T18:00	22601	39	-50.7	-83.8	324	4
2023-09-01T18:00	22628	39	-50.5	-83.7	323	4
2023-09-01T18:00	22649	39	-50.5	-83.7	324	4
2023-09-01T18:00	22681	38	-50.5	-83.7	326	4
2023-09-01T18:00	22709	38	-50.3	-83.5	330	4
2023-09-01T18:00	22735	38	-50.2	-83.5	334	3
2023-09-01T18:00	22765	38	-50.3	-83.5	339	3
2023-09-01T18:00	22794	38	-50.4	-83.6	346	3
2023-09-01T18:00	22824	38	-50.3	-83.5	354	3
2023-09-01T18:00	22848	38	-50.2	-83.5	6	3
2023-09-01T18:00	22872	37	-50.1	-83.4	18	3
2023-09-01T18:00	22900	37	-49.9	-83.2	30	4
2023-09-01T18:00	22934	37	-49.9	-83.2	40	4
2023-09-01T18:00	22961	37	-50.0	-83.3	48	5
2023-09-01T18:00	22984	37	-50.2	-83.5	54	5
2023-09-01T18:00	23015	37	-50.4	-83.6	59	5
2023-09-01T18:00	23041	36	-50.5	-83.0	64	6
2023-09-01T18:00	23061	36	-50.5	-83.7	68	5
2023-09-01T18:00	23089	36	-50.3	-83.5	73	5
2023-09-01T18:00	23119	36	-50.2	-83.5	78	4
2023-09-01T18:00	23147	36	-50.2	-83.5	83	4
2023-09-01T18:00	23175	36	-50.0	-83.3	90	3
2023-09-01T18:00	23205	36	-49.8	-83.2	95	3
2023-09-01T18:00	23231	35	-49.8	-83.2	99	2
2023-09-01T18:00	23258	35	-49.9	-83.2	99	2
2023-09-01T18:00	23284	35	-49.7	-83.1	93	1
2023-09-01T18:00	23315	35	-49.5	-82.9	75	1
2023-09-01T18:00	23339	35	-49.6	-83.0	50	1
2023-09-01T18:00	23369	35	-49.8	-83.2	38	1
2023-09-01T18:00	23398	34	-49.9	-83.2	38	1
2023-09-01T18:00	23431	34	-49.9	-83.2	42	2
2023-09-01T18:00	23453	34	-49.8	-83.2	45	2
2023-09-01T18:00	23487	34	-49.5	-82.9	44	2
2023-09-01T18:00	23509	34	-49.5	-82.9	40	2
2023-09-01T18:00	23532	34	-49.6	-83.0	33	2
2023-09-01T18:00	23562	34	-49.8	-83.2	29	2
2023-09-01T18:00	23590	33	-50.0	-83.3	28	2
2023-09-01T18:00	23613	33	-50.0	-83.3	31	2
2023-09-01T18:00	23649	33	-50.2	-83.5	40	2
2023-09-01T18:00	23671	33	-50.2	-83.5	55	2
2023-09-01T18:00	23693	33	-50.2	-83.5	74	2
2023-09-01T18:00	23717	33	-50.2	-83.5	95	2
2023-09-01T18:00	23744	33	-50.3	-83.5	112	3
2023-09-01T18:00	23771	33	-50.5	-83.7	124	3
2023-09-01T18:00	23804	32	-50.5	-83.0	135	4
2023-09-01T18:00	23829	32	-50.5	-83.0	144	4
2023-09-01T18:00	23856	32	-50.6	-83.1	154	4
2023-09-01T18:00	23889	32	-50.7	-83.1	166	4
2023-09-01T18:00	23916	32	-50.8	-83.2	177	4
2023-09-01T18:00	23939	32	-50.9	-83.3	188	4
2023-09-01T18:00	23973	32	-50.8	-83.9	195	4
2023-09-01T18:00	24005	31	-50.8	-83.9	200	5
2023-09-01T18:00	24030	31	-50.8	-83.9	204	5
2023-09-01T18:00	24058	31	-50.8	-83.9	209	5
2023-09-01T18:00	24086	31	-50.6	-83.7	214	5
2023-09-01T18:00	24116	31	-50.5	-83.7	222	5
2023-09-01T18:00	24143	31	-50.6	-83.7	230	4
2023-09-01T18:00	24172	31	-50.6	-83.7	239	4
2023-09-01T18:00	24197	31	-50.8	-83.9	248	4
2023-09-01T18:00	24226	30	-50.7	-83.8	255	4
2023-09-01T18:00	24252	30	-50.6	-83.7	261	3
2023-09-01T18:00	24284	30	-50.5	-83.7	266	3
2023-09-01T18:00	24316	30	-50.5	-83.7	270	4
2023-09-01T18:00	24349	30	-50.5	-83.7	273	4
2023-09-01T18:00	24371	30	-50.4	-83.6	276	4
2023-09-01T18:00	24402	30	-50.3	-83.5	280	4
2023-09-01T18:00	24425	29	-50.0	-83.3	284	4
2023-09-01T18:00	24454	29	-49.9	-83.2	289	4
2023-09-01T18:00	24479	29	-49.9	-84.0	294	4
2023-09-01T18:00	24512	29	-49.5	-83.7	298	4
2023-09-01T18:00	24539	29	-49.3	-83.6	301	4
2023-09-01T18:00	24566	29	-49.4	-83.7	303	4
2023-09-01T18:00	24597	29	-49.1	-83.4	303	3
2023-09-01T18:00	24623	29	-48.7	-83.2	303	3
2023-09-01T18:00	24649	28	-48.7	-83.2	302	3
2023-09-01T18:00	24682	28	-48.7	-83.2	301	3
2023-09-01T18:00	24710	28	-48.6	-83.1	300	4
2023-09-01T18:00	24735	28	-48.3	-82.9	298	4
2023-09-01T18:00	24765	28	-48.3	-82.9	296	5
2023-09-01T18:00	24791	28	-48.3	-82.9	294	6
2023-09-01T18:00	24820	28	-48.3	-82.9	293	7
2023-09-01T18:00	24844	28	-48.4	-82.9	292	7
2023-09-01T18:00	24873	28	-48.5	-83.0	292	8
2023-09-01T18:00	24899	27	-48.6	-83.1	293	9
2023-09-01T18:00	24919	27	-48.8	-83.2	294	9
2023-09-01T18:00	24957	27	-48.6	-83.1	296	9
2023-09-01T18:00	24986	27	-48.5	-83.0	299	9
2023-09-01T18:00	25017	27	-48.5	-83.0	303	8
2023-09-01T18:00	25032	27	-48.5	-83.0	307	8
2023-09-01T18:00	25066	27	-48.4	-82.9	311	8
2023-09-01T18:00	25094	27	-48.4	-82.9	315	8
2023-09-01T18:00	25119	27	-48.4	-82.9	317	8
2023-09-01T18:00	25144	26	-48.3	-82.9	320	8
2023-09-01T18:00	25176	26	-48.1	-82.7	322	8
2023-09-01T18:00	25206	26	-47.7	-82.4	324	8
2023-09-01T18:00	25236	26	-47.5	-82.3	325	8
2023-09-01T18:00	25266	26	-47.4	-82.2	326	8
2023-09-01T18:00	25297	26	-47.6	-82.4	325	8
2023-09-01T18:00	25321	26	-47.6	-82.4	323	8
2023-09-01T18:00	25356	26	-47.6	-82.4	320	8
2023-09-01T18:00	25382	25	-47.5	-82.3	316	8
2023-09-01T18:00	25403	25	-47.6	-82.4	314	9
2023-09-01T18:00	25442	25	-47.5	-82.3	312	9
2023-09-01T18:00	25470	25	-47.5	-82.3	312	9
2023-09-01T18:00	25494	25	-47.4	-82.2	313	9
2023-09-01T18:00	25517	25	-47.3	-82.2	316	9
2023-09-01T18:00	25557	25	-47.3	-82.2	320	9
2023-09-01T18:00	25590	25	-47.4	-82.2	325	9
2023-09-01T18:00	25609	25	-47.3	-82.2	331	9
2023-09-01T18:00	25641	25	-47.2	-82.1	337	9
2023-09-01T18:00	25671	24	-47.1	-82.0	344	9
2023-09-01T18:00	25689	24	-46.9	-81.9	350	8
2023-09-01T18:00	25728	24	-46.9	-82.8	355	8
2023-09-01T18:00	25754	24	-46.9	-82.8	360	7
2023-09-01T18:00	25777	24	-46.9	-82.8	4	7
2023-09-01T18:00	25812	24	-46.6	-82.6	6	6
2023-09-01T18:00	25839	24	-46.5	-82.5	8	5
2023-09-01T18:00	25870	24	-46.5	-82.5	8	5
2023-09-01T18:00	25901	24	-46.5	-82.5	10	5
2023-09-01T18:00	25925	23	-46.5	-82.5	13	5
2023-09-01T18:00	25954	23	-46.6	-82.6	18	5
2023-09-01T18:00	25988	23	-46.6	-81.7	25	5
2023-09-01T18:00	26015	23	-46.7	-81.7	34	5
2023-09-01T18:00	26045	23	-46.9	-81.9	45	5
2023-09-01T18:00	26075	23	-47.0	-81.9	58	5
2023-09-01T18:00	26090	23	-47.1	-82.0	72	5
2023-09-01T18:00	26130	23	-47.0	-81.9	85	5
2023-09-01T18:00	26161	23	-47.0	-81.9	96	5
2023-09-01T18:00	26197	23	-46.8	-82.7	104	5
2023-09-01T18:00	26204	23	-46.5	-82.5	109	5
2023-09-01T18:00	26239	22	-46.3	-82.4	111	5
2023-09-01T18:00	26276	22	-46.3	-82.4	112	5
2023-09-01T18:00	26299	22	-46.1	-82.2	111	4
2023-09-01T18:00	26321	22	-45.9	-82.1	110	4
2023-09-01T18:00	26354	22	-45.8	-82.0	110	3
2023-09-01T18:00	26386	22	-45.7	-81.9	108	3
2023-09-01T18:00	26414	22	-45.7	-81.9	103	2
2023-09-01T18:00	26439	22	-45.7	-81.9	94	2
2023-09-01T18:00	26464	22	-45.7	-81.9	85	2
2023-09-01T18:00	26496	22	-45.6	-81.9	79	3
2023-09-01T18:00	26523	21	-45.6	-81.9	79	3
2023-09-01T18:00	26560	21	-45.6	-81.9	84	3
2023-09-01T18:00	26577	21	-45.7	-81.9	92	3
2023-09-01T18:00	26609	21	-45.6	-81.9	101	3
2023-09-01T18:00	26639	21	-45.5	-81.8	111	3
2023-09-01T18:00	26669	21	-45.7	-81.9	123	3
2023-09-01T18:00	26699	21	-45.8	-82.0	136	3
2023-09-01T18:00	26720	21	-45.9	-82.1	149	3
2023-09-01T18:00	26748	21	-46.0	-82.1	159	3
2023-09-01T18:00	26775	21	-45.9	-82.1	167	3
2023-09-01T18:00	26804	21	-45.9	-82.1	172	3
2023-09-01T18:00	26832	20	-45.8	-82.0	174	3
2023-09-01T18:00	26864	20	-45.8	-82.0	176	3
2023-09-01T18:00	26900	20	-45.7	-81.9	176	3
2023-09-01T18:00	26928	20	-45.7	-81.9	175	3
2023-09-01T18:00	26954	20	-45.7	-81.9	172	3
2023-09-01T18:00	26972	20	-45.7	-81.9	168	3
2023-09-01T18:00	27014	20	-45.5	-81.8	165	3
2023-09-01T18:00	27041	20	-45.4	-81.7	165	3
2023-09-01T18:00	27067	20	-45.4	-81.7	169	3
2023-09-01T18:00	27101	20	-45.4	-81.7	178	3
2023-09-01T18:00	27125	20	-45.5	-81.8	189	3
2023-09-01T18:00	27156	20	-45.5	-81.8	198	4
2023-09-01T18:00	27188	19	-45.6	-81.9	204	4
2023-09-01T18:00	27216	19	-45.7	-81.9	205	5
2023-09-01T18:00	27251	19	-45.6	-81.9	205	5
2023-09-01T18:00	27273	19	-45.7	-81.9	204	6
2023-09-01T18:00	27307	19	-45.8	-82.0	203	6
2023-09-01T18:00	27336	19	-45.7	-81.9	204	5
2023-09-01T18:00	27353	19	-45.7	-81.9	206	5
2023-09-01T18:00	27404	19	-45.6	-81.9	209	5
2023-09-01T18:00	27431	19	-45.5	-81.8	213	5
2023-09-01T18:00	27456	19	-45.3	-81.6	219	5
2023-09-01T18:00	27478	19	-45.3	-81.6	225	5
2023-09-01T18:00	27518	18	-45.3	-81.6	232	5
2023-09-01T18:00	27548	18	-45.3	-81.6	240	5
2023-09-01T18:00	27583	18	-45.4	-81.7	249	5
2023-09-01T18:00	27607	18	-45.4	-81.7	258	4
2023-09-01T18:00	27646	18	-45.4	-81.7	267	4
2023-09-01T18:00	27666	18	-45.3	-81.6	276	5
2023-09-01T18:00	27702	18	-45.3	-81.6	282	5
2023-09-01T18:00	27726	18	-45.4	-81.7	288	5
2023-09-01T18:00	27772	18	-45.5	-81.8	293	5
2023-09-01T18:00	27798	18	-45.4	-81.7	298	5
2023-09-01T18:00	27824	18	-45.2	-81.6	304	5
2023-09-01T18:00	27852	18	-45.2	-81.6	313	5
2023-09-01T18:00	27877	18	-45.2	-82.7	323	5
2023-09-01T18:00	27900	17	-45.0	-82.5	333	5
2023-09-01T18:00	27941	17	-44.8	-82.4	343	5
2023-09-01T18:00	27959	17	-44.6	-82.2	351	6
2023-09-01T18:00	28000	17	-44.2	-82.0	360	6
2023-09-01T18:00	28023	17	-43.6	-81.5	8	6
2023-09-01T18:00	28052	17	-43.5	-81.5	16	6
2023-09-01T18:00	28081	17	-43.3	-81.3	25	6
2023-09-01T18:00	28115	17	-43.4	-81.4	34	5
2023-09-01T18:00	28145	17	-43.6	-81.5	45	5
2023-09-01T18:00	28167	17	-43.7	-81.6	58	4
2023-09-01T18:00	28206	17	-43.7	-81.6	72	4
2023-09-01T18:00	28235	17	-43.6	-81.5	85	4
2023-09-01T18:00	28253	17	-43.6	-81.5	96	3
2023-09-01T18:00	28277	16	-43.6	-81.5	100	3
2023-09-01T18:00	28316	16	-43.7	-81.6	97	3
2023-09-01T18:00	28350	16	-43.6	-81.5	81	2
2023-09-01T18:00	28380	16	-43.5	-81.5	56	2
2023-09-01T18:00	28409	16	-43.5	-81.5	36	3
2023-09-01T18:00	28436	16	-43.6	-81.5	27	4
2023-09-01T18:00	28455	16	-43.5	-81.5	23	5
2023-09-01T18:00	28498	16	-43.5	-81.5	22	5
2023-09-01T18:00	28522	16	-43.5	-81.5	23	5
2023-09-01T18:00	28555	16	-43.5	-81.5	24	5
2023-09-01T18:00	28575	16	-43.3	-81.3	27	5
2023-09-01T18:00	28614	16	-43.3	-81.3	31	5
2023-09-01T18:00	28640	16	-43.3	-81.3	37	5
2023-09-01T18:00	28680	16	-43.3	-81.3	44	5
2023-09-01T18:00	28718	15	-43.3	-81.3	51	5
2023-09-01T18:00	28730	15	-43.4	-81.4	58	5
2023-09-01T18:00	28764	15	-43.5	-81.5	63	4
2023-09-01T18:00	28803	15	-43.7	-81.6	68	4
2023-09-01T18:00	28819	15	-43.7	-81.6	70	4
2023-09-01T18:00	28859	15	-43.7	-81.6	71	3
2023-09-01T18:00	28882	15	-43.8	-81.7	71	3
2023-09-01T18:00	28911	15	-44.0	-81.8	71	3
2023-09-01T18:00	28950	15	-44.1	-81.9	70	3
2023-09-01T18:00	28976	15	-44.2	-82.0	67	3
2023-09-01T18:00	29007	15	-44.3	-82.0	61	2
2023-09-01T18:00	29032	15	-44.4	-82.1	54	2
2023-09-01T18:00	29063	15	-44.4	-82.1	48	2
2023-09-01T18:00	29098	15	-44.4	-82.1	45	2
2023-09-01T18:00	29117	15	-44.5	-82.2	45	2
2023-09-01T18:00	29165	14	-44.4	-82.1	48	2
2023-09-01T18:00	29189	14	-44.5	-82.2	53	2
2023-09-01T18:00	29228	14	-44.5	-82.2	61	2
2023-09-01T18:00	29267	14	-44.5	-82.2	68	2
2023-09-01T18:00	29293	14	-44.7	-82.3	74	2
2023-09-01T18:00	29321	14	-44.8	-81.3	79	2
2023-09-01T18:00	29362	14	-45.0	-81.4	83	2
2023-09-01T18:00	29384	14	-45.2	-81.6	87	2
2023-09-01T18:00	29410	14	-45.2	-81.6	91	1
2023-09-01T18:00	29445	14	-45.2	-82.7	91	1
2023-09-01T18:00	29479	14	-45.0	-82.5	78	1
2023-09-01T18:00	29499	14	-44.9	-82.5	41	1
2023-09-01T18:00	29530	14	-44.8	-82.4	13	1
2023-09-01T18:00	29565	14	-44.3	-82.0	6	1
2023-09-01T18:00	29579	14	-44.2	-82.0	8	2
2023-09-01T18:00	29627	14	-44.1	-81.9	12	2
2023-09-01T18:00	29659	13	-43.9	-81.8	15	2
2023-09-01T18:00	29677	13	-43.8	-81.7	16	2
2023-09-01T18:00	29706	13	-43.5	-81.5	16	3
2023-09-01T18:00	29742	13	-43.4	-81.4	16	3
2023-09-01T18:00	29774	13	-43.5	-81.5	18	3
2023-09-01T18:00	29803	13	-43.5	-81.5	21	3
2023-09-01T18:00	29815	13	-43.6	-81.5	25	4
2023-09-01T18:00	29862	13	-43.5	-81.5	30	4
2023-09-01T18:00	29890	13	-43.5	-81.5	35	3
2023-09-01T18:00	29911	13	-43.2	-81.3	40	3
2023-09-01T18:00	29950	13	-43.2	-81.3	42	3
2023-09-01T18:00	29972	13	-43.4	-81.4	41	3
2023-09-01T18:00	29992	13	-43.6	-81.5	37	3
2023-09-01T18:00	30022	13	-43.4	-81.4	32	3
2023-09-01T18:00	30065	13	-43.0	-81.1	30	3
2023-09-01T18:00	30089	13	-42.8	-81.0	30	4
2023-09-01T18:00	30129	13	-42.7	-80.9	32	4
2023-09-01T18:00	30171	12	-42.5	-80.8	35	4
2023-09-01T18:00	30191	12	-42.5	-80.8	40	4
2023-09-01T18:00	30213	12	-42.5	-80.8	46	4
2023-09-01T18:00	30246	12	-42.6	-80.8	52	4
2023-09-01T18:00	30285	12	-42.5	-80.8	61	4
2023-09-01T18:00	30294	12	-42.6	-80.8	71	4
2023-09-01T18:00	30339	12	-42.8	-81.0	80	4
2023-09-01T18:00	30369	12	-42.9	-81.1	88	4
2023-09-01T18:00	30398	12	-43.0	-81.1	93	4
2023-09-01T18:00	30444	12	-42.9	-81.1	95	4
2023-09-01T18:00	30450	12	-42.8	-81.0	95	4
2023-09-01T18:00	30490	12	-42.8	-81.0	94	4
2023-09-01T18:00	30522	12	-42.8	-81.0	90	3
2023-09-01T18:00	30538	12	-43.0	-81.1	84	3
2023-09-01T18:00	30588	12	-43.3	-81.3	76	3
2023-09-01T18:00	30622	12	-43.5	-81.5	66	3
2023-09-01T18:00	30631	12	-43.7	-81.6	54	3
2023-09-01T18:00	30682	12	-44.0	-81.8	42	3
2023-09-01T18:00	30703	12	-44.1	-81.9	29	3
2023-09-01T18:00	30746	11	-44.3	-82.0	18	4
2023-09-01T18:00	30773	11	-44.4	-82.1	9	4
2023-09-01T18:00	30796	11	-44.5	-82.2	2	5
2023-09-01T18:00	30837	11	-44.5	-82.2	356	6
2023-09-01T18:00	30868	11	-44.6	-82.2	352	7
2023-09-01T18:00	30890	11	-44.6	-82.2	349	7
2023-09-01T18:00	30920	11	-44.7	-82.3	348	8
2023-09-01T18:00	30967	11	-44.6	-82.2	349	8
2023-09-01T18:00	30990	11	-44.1	-81.9	353	7
2023-09-01T18:00	31006	11	-43.9	-81.8	360	7
2023-09-01T18:00	31045	11	-43.8	-81.7	8	6
2023-09-01T18:00	31080	11	-43.6	-81.5	19	6
2023-09-01T18:00	31113	11	-43.3	-81.3	29	6
2023-09-01T18:00	31140	11	-42.8	-81.0	38	5
2023-09-01T18:00	31174	11	-42.6	-80.8	47	5
2023-09-01T18:00	31216	11	-42.5	-80.8	54	5
2023-09-01T18:00	31231	11	-42.5	-80.8	59	5
2023-09-01T18:00	31248	11	-42.5	-80.8	62	4
2023-09-01T18:00	31283	11	-42.5	-80.8	63	4
2023-09-01T18:00	31313	11	-42.5	-80.8	59	3
2023-09-01T18:00	31343	10	-42.1	-80.5	50	3
2023-09-01T18:00	31362	10	-42.2	-80.6	35	3
2023-09-01T18:00	31395	10	-42.2	-80.6	19	3
2023-09-01T18:00	31438	10	-42.3	-80.6	5	3
2023-09-01T18:00	31469	10	-42.4	-80.7	355	3
2023-09-01T18:00	31500	10	-42.4	-80.7	349	4
2023-09-01T18:00	31518	10	-42.6	-80.8	347	4
2023-09-01T18:00	31551	10	-42.7	-80.9	348	5
2023-09-01T18:00	31575	10	-42.8	-81.0	352	5
2023-09-01T18:00	31601	10	-42.8	-81.0	357	5
2023-09-01T18:00	31629	10	-42.6	-80.8	4	5
2023-09-01T18:00	31670	10	-42.4	-80.7	11	6
2023-09-01T18:00	31689	10	-41.9	-80.4	17	6
2023-09-01T18:00	31722	10	-41.7	-80.2	21	6
2023-09-01T18:00	31756	10	-41.4	-80.0	23	6
2023-09-01T18:00	31794	10	-41.1	-79.8	22	7
2023-09-01T18:00	31837	10	-40.2	-79.2	20	9
2023-09-01T18:00	31863	10	-40.0	-79.0	20	10
2023-09-01T18:00	31892	10	-40.0	-79.0	21	11
2023-09-01T18:00	31925	10	-40.0	-79.0	23	11
2023-09-01T18:00	31954	10	-40.1	-79.1	25	12
2023-09-01T18:00	31972	10	-40.0	-79.0	28	12
2023-09-01T18:00	32006	10	-40.2	-79.2	30	12
2023-09-01T18:00	32041	9	-40.3	-79.2	32	12
2023-09-01T18:00	32075	9	-40.5	-79.4	34	12
2023-09-01T18:00	32100	9	-40.6	-79.5	37	11
2023-09-01T18:00	32124	9	-40.3	-79.2	39	11
2023-09-01T18:00	32156	9	-40.3	-79.2	41	10
2023-09-01T18:00	32198	9	-40.4	-79.3	44	9
2023-09-01T18:00	32234	9	-40.6	-79.5	46	9
2023-09-01T18:00	32248	9	-40.9	-79.7	49	8
2023-09-01T18:00	32284	9	-41.0	-79.7	54	7
2023-09-01T18:00	32313	9	-41.1	-79.8	60	6
2023-09-01T18:00	32339	9	-41.2	-79.9	66	6
2023-09-01T18:00	32366	9	-41.3	-79.9	71	6
2023-09-01T18:00	32394	9	-41.2	-79.9	74	6
2023-09-01T18:00	32437	9	-40.9	-79.7	75	6
2023-09-01T18:00	32467	9	-40.8	-79.6	75	6
2023-09-01T18:00	32490	9	-40.7	-79.5	74	6
2023-09-01T18:00	32533	9	-40.7	-79.5	73	5
2023-09-01T18:00	32575	9	-40.8	-79.6	74	5
2023-09-01T18:00	32596	9	-40.9	-79.7	76	5
2023-09-01T18:00	32624	9	-40.7	-79.5	79	5
2023-09-01T18:00	32652	9	-40.4	-79.3	82	4
2023-09-01T18:00	32701	9	-40.5	-79.4	86	4
2023-09-01T18:00	32716	9	-40.3	-79.2	90	4
2023-09-01T18:00	32738	9	-40.2	-79.2	94	4
2023-09-01T18:00	32769	8	-39.9	-79.0	99	4
2023-09-01T18:00	32813	8	-39.6	-78.8	102	4
2023-09-01T18:00	32839	8	-39.4	-78.6	103	5
2023-09-01T18:00	32887	8	-39.4	-78.6	101	5
2023-09-01T18:00	32915	8	-39.1	-78.4	97	5
2023-09-01T18:00	32954	8	-39.0	-78.3	91	5
2023-09-01T18:00	32971	8	-39.0	-78.3	87	5
2023-09-01T18:00	33023	8	-38.9	-78.3	84	4
2023-09-01T18:00	33044	8	-38.9	-78.3	84	4
2023-09-01T18:00	33065	8	-39.1	-78.4	87	4
2023-09-01T18:00	33102	8	-39.2	-78.5	90	3
2023-09-01T18:00	33118	8	-39.3	-78.5	92	2
2023-09-01T18:00	33188	8	-39.4	-78.6	91	2
2023-09-01T18:00	33212	8	-39.5	-78.7	55	1
2023-09-01T18:00	33243	8	-39.4	-78.6	38	2
2023-09-01T18:00	33285	8	-39.1	-78.4	30	2
2023-09-01T18:00	33300	8	-39.0	-78.3	26	3
2023-09-01T18:00	33333	8	-39.0	-78.3	21	3
2023-09-01T18:00	33367	8	-38.9	-78.3	14	3
2023-09-01T18:00	33390	8	-38.8	-78.2	8	4
2023-09-01T18:00	33422	8	-38.5	-78.0	3	4
2023-09-01T18:00	33457	8	-38.2	-77.8	1	4
2023-09-01T18:00	33484	8	-37.9	-77.6	1	4
2023-09-01T18:00	33517	8	-37.5	-77.3	3	5
2023-09-01T18:00	33532	8	-37.3	-77.2	5	5
2023-09-01T18:00	33582	8	-37.1	-77.0	7	6
2023-09-01T18:00	33588	8	-37.3	-77.2	10	6
2023-09-01T18:00	33628	8	-37.4	-77.2	12	6
2023-09-01T18:00	33661	7	-37.3	-77.2	16	6
2023-09-01T18:00	33695	7	-37.3	-77.2	20	6
2023-09-01T18:00	33714	7	-37.3	-77.2	26	7
2023-09-01T18:00	33755	7	-37.4	-77.2	31	7
2023-09-01T18:00	33774	7	-37.3	-77.2	36	7
2023-09-01T18:00	33797	7	-37.2	-77.1	41	7
2023-09-01T18:00	33809	7	-37.3	-77.2	46	6
2023-09-01T18:00	33853	7	-37.4	-77.2	52	6
2023-09-01T18:00	33900	7	-37.4	-77.2	57	6
2023-09-01T18:00	33930	7	-37.4	-77.2	62	6
2023-09-01T18:00	33967	7	-37.4	-77.2	65	6
2023-09-01T18:00	34005	7	-37.3	-77.2	66	6
2023-09-01T18:00	34043	7	-37.3	-77.2	65	6
2023-09-01T18:00	34044	7	-37.2	-77.1	65	6
2023-09-01T18:00	34097	7	-37.1	-77.0	64	6
2023-09-01T18:00	34142	7	-36.9	-76.9	62	6
2023-09-01T18:00	34174	7	-36.9	-76.9	60	7
2023-09-01T18:00	34217	7	-37.1	-77.0	57	7
2023-09-01T18:00	34245	7	-37.1	-77.0	54	7
2023-09-01T18:00	34289	7	-37.2	-77.1	51	8
2023-09-01T18:00	34335	7	-37.1	-77.0	50	8
2023-09-01T18:00	34356	7	-37.1	-77.0	51	8
2023-09-01T18:00	34391	7	-36.9	-76.9	52	8
2023-09-01T18:00	34398	7	-36.9	-76.9	53	9
2023-09-01T18:00	34429	7	-36.8	-76.8	55	9
2023-09-01T18:00	34440	7	-36.7	-76.7	56	9
2023-09-01T18:00	34489	7	-36.7	-76.7	58	8
2023-09-01T18:00	34525	7	-36.6	-76.7	60	8
2023-09-01T18:00	34559	7	-36.5	-76.6	62	8
2023-09-01T18:00	34627	7	-36.4	-76.5	68	9
2023-09-01T18:00	34636	7	-36.4	-76.5	71	9
2023-09-01T18:00	34667	6	-36.6	-76.7	75	9
2023-09-01T18:00	34673	6	-36.3	-76.5	80	9
2023-09-01T18:00	34696	6	-36.3	-76.5	84	8
2023-09-01T18:00	34751	6	-36.3	-76.5	89	8
2023-09-01T18:00	34757	6	-36.1	-76.3	94	7
2023-09-01T18:00	34814	6	-36.2	-76.4	100	7
2023-09-01T18:00	34846	6	-36.2	-76.4	106	6
2023-09-01T18:00	34901	6	-36.0	-76.3	113	6
2023-09-01T18:00	34923	6	-36.2	-76.4	129	4
2023-09-01T18:00	34933	6	-36.2	-76.4	151	3
2023-09-01T18:00	34999	6	-35.9	-76.2	161	3
2023-09-01T18:00	35009	6	-35.5	-75.9	169	2
2023-09-01T18:00	35018	6	-35.2	-75.7	175	2
2023-09-01T18:00	35054	6	-35.3	-75.8	182	1
2023-09-01T18:00	35085	6	-35.4	-75.8	190	1
2023-09-01T18:00	35128	6	-35.3	-75.8	195	0
2023-09-01T18:00	35134	6	-35.2	-75.7	128	0
2023-09-02T00:00	112	1003	14.9	10.9	280	1
2023-09-02T00:00	136	1001	16.3	10.8	251	1
2023-09-02T00:00	162	998	16.7	10.4	213	1
2023-09-02T00:00	189	994	17.0	9.3	192	1
2023-09-02T00:00	213	991	16.9	8.9	178	2
2023-09-02T00:00	239	989	17.1	8.6	168	2
2023-09-02T00:00	261	986	17.0	8.6	158	2
2023-09-02T00:00	288	983	16.8	8.5	150	2
2023-09-02T00:00	316	980	16.6	8.4	143	2
2023-09-02T00:00	345	976	16.4		142	1
2023-09-02T00:00	376	973	16.1	8.3	146	1
2023-09-02T00:00	404	970	15.9	8.3	155	1
2023-09-02T00:00	433	966	15.7	8.3	160	1
2023-09-02T00:00	458	963	15.5	8.3	161	1
2023-09-02T00:00	486	960	15.3	8.2	159	2
2023-09-02T00:00	514	957	15.1	8.2	157	2
2023-09-02T00:00	538	954	14.9	8.1	159	2
2023-09-02T00:00	567	951	14.6	8.1	164	2
2023-09-02T00:00	588	949	14.4	8.1	171	2
2023-09-02T00:00	611	946	14.2	8.3	181	1
2023-09-02T00:00	634	943	14.0	8.6	200	1
2023-09-02T00:00	660	941	13.7	8.7	230	1
2023-09-02T00:00	683	938	13.6	8.7	255	1
2023-09-02T00:00	711	935	13.5	8.5	265	2
2023-09-02T00:00	737	932	13.2	8.3	268	2
2023-09-02T00:00	766	929	13.0	8.3	269	2
2023-09-02T00:00	791	926	12.8	8.2	272	2
2023-09-02T00:00	817	923	12.6	8.0	276	2
2023-09-02T00:00	841	921	12.3	8.0	283	2
2023-09-02T00:00	867	918	12.1	7.9	291	2
2023-09-02T00:00	890	915	11.9	7.8	298	2
2023-09-02T00:00	916	913	11.7	7.6	304	2
2023-09-02T00:00	943	910	11.5	7.5	308	2
2023-09-02T00:00	970	907	11.3	7.5	308	3
2023-09-02T00:00	994	904	11.1	7.4	307	3
2023-09-02T00:00	1014	902	10.9	7.5	305	3
2023-09-02T00:00	1041	899	10.6	7.2	304	3
2023-09-02T00:00	1061	897	10.5	7.4	307	2
2023-09-02T00:00	1086	894	10.3	7.4	315	2
2023-09-02T00:00	1108	892	10.1	7.5	325	3
2023-09-02T00:00	1132	889	9.9	7.3	330	3
2023-09-02T00:00	1161	886	9.7	7.4	331	3
2023-09-02T00:00	1189	883	9.5	7.5	328	3
2023-09-02T00:00	1211	881	9.3	7.5	323	4
2023-09-02T00:00	1238	878	9.0	7.4	318	4
2023-09-02T00:00	1260	876	8.8	7.3	312	4
2023-09-02T00:00	1288	873	8.6	7.5	308	4
2023-09-02T00:00	1313	870	8.3	7.3	304	3
2023-09-02T00:00	1338	867	8.1	7.3	302	3
2023-09-02T00:00	1361	865	7.9	7.3	301	3
2023-09-02T00:00	1385	862	7.9	7.4	300	4
2023-09-02T00:00	1409	860	7.9	7.0	301	4
2023-09-02T00:00	1433	857	7.8	6.4	301	3
2023-09-02T00:00	1462	854	7.7	5.2	303	3
2023-09-02T00:00	1488	852	7.8	3.7	306	3
2023-09-02T00:00	1514	849	7.6	3.4	313	3
2023-09-02T00:00	1538	847	7.4	3.2	320	3
2023-09-02T00:00	1563	844	7.2	2.8	326	3
2023-09-02T00:00	1584	842	7.1	2.3	329	3
2023-09-02T00:00	1605	840	6.9	1.5	328	3
2023-09-02T00:00	1631	837	6.8	0.6	323	3
2023-09-02T00:00	1658	834	6.8	-0.9	312	2
2023-09-02T00:00	1681	832	6.6	-1.3	297	2
2023-09-02T00:00	1707	829	6.6	-3.1	281	3
2023-09-02T00:00	1738	826	6.7	-6.0	269	3
2023-09-02T00:00	1764	824	6.8	-7.9	262	4
2023-09-02T00:00	1792	821	6.7	-8.8	258	4
2023-09-02T00:00	1821	818	6.6	-8.7	258	4
2023-09-02T00:00	1844	816	6.4	-9.1	259	5
2023-09-02T00:00	1873	813	6.2	-9.3	261	5
2023-09-02T00:00	1896	811	6.0	-9.4	262	5
2023-09-02T00:00	1921	808	5.9	-6.5	263	6
2023-09-02T00:00	1948	805	5.9	-6.4	263	6
2023-09-02T00:00	1969	803	5.9	-6.5	264	7
2023-09-02T00:00	1990	801	5.6	-2.0	264	7
2023-09-02T00:00	2014	799	5.4	-1.6	266	7
2023-09-02T00:00	2041	796	5.3	-2.0	266	7
2023-09-02T00:00	2065	794	5.0	-1.2	267	7
2023-09-02T00:00	2088	792	4.9	-1.7	267	6
2023-09-02T00:00	2107	790	4.9	-3.5	268	7
2023-09-02T00:00	2128	788	4.9	-4.5	269	7
2023-09-02T00:00	2153	785	4.8	-4.6	270	7
2023-09-02T00:00	2181	783	4.6	-4.8	271	8
2023-09-02T00:00	2205	780	4.5	-2.2	272	8
2023-09-02T00:00	2228	778	4.4	-3.3	273	8
2023-09-02T00:00	2250	776	4.4	-4.9	274	8
2023-09-02T00:00	2276	774	4.7	-12.7	276	8
2023-09-02T00:00	2302	771	4.6	-9.1	278	8
2023-09-02T00:00	2326	769	4.4	-4.1	280	8
2023-09-02T00:00	2350	767	4.3	-4.8	280	9
2023-09-02T00:00	2373	764	4.1	-4.7	279	9
2023-09-02T00:00	2395	762	4.1	-3.4	277	9
2023-09-02T00:00	2414	761	4.0	-3.8	276	10
2023-09-02T00:00	2436	759	3.8	-0.4	276	9
2023-09-02T00:00	2461	756	3.5	1.2	278	9
2023-09-02T00:00	2485	754	3.4	1.2	280	9
2023-09-02T00:00	2510	752	3.4	1.0	282	9
2023-09-02T00:00	2535	749	3.1	0.9	284	8
2023-09-02T00:00	2558	747	2.9	0.8	285	9
2023-09-02T00:00	2585	745	2.8	0.9	284	9
2023-09-02T00:00	2613	742	2.6	0.4	284	9
2023-09-02T00:00	2637	740	2.5	-0.7	284	10
2023-09-02T00:00	2668	737	2.5	-0.3	285	10
2023-09-02T00:00	2701	734	2.5	-0.3	286	10
2023-09-02T00:00	2725	732	2.2	-0.1	287	10
2023-09-02T00:00	2749	730	2.0	-0.2	287	11
2023-09-02T00:00	2771	728	1.8	-0.2	287	11
2023-09-02T00:00	2797	726	1.6	-0.1	287	11
2023-09-02T00:00	2826	723	1.5	-0.5	287	11
2023-09-02T00:00	2851	721	1.4	-0.6	287	11
2023-09-02T00:00	2879	718	1.2	-1.0	288	10
2023-09-02T00:00	2902	716	1.1	-1.0	289	10
2023-09-02T00:00	2926	714	1.0	-1.2	288	10
2023-09-02T00:00	2955	712	0.8	-1.7	287	10
2023-09-02T00:00	2976	710	0.6	-1.8	286	9
2023-09-02T00:00	2995	708	0.5	-2.0	285	9
2023-09-02T00:00	3017	706	0.4	-2.2	285	10
2023-09-02T00:00	3049	703	0.2	-2.1	286	10
2023-09-02T00:00	3078	701	-0.1	-2.2	288	11
2023-09-02T00:00	3107	698	-0.4	-2.0	290	11
2023-09-02T00:00	3128	696	-0.6	-1.9	292	12
2023-09-02T00:00	3150	694	-0.6	-2.4	294	12
2023-09-02T00:00	3174	692	-0.8	-2.4	295	11
2023-09-02T00:00	3194	690	-0.9	-2.6	295	11
2023-09-02T00:00	3230	688	-1.2	-2.7	295	10
2023-09-02T00:00	3259	685	-1.4	-2.9	295	10
2023-09-02T00:00	3286	683	-1.7	-3.1	296	10
2023-09-02T00:00	3310	681	-1.9	-3.2	297	9
2023-09-02T00:00	3337	678	-2.1	-3.4	297	9
2023-09-02T00:00	3358	677	-2.3	-3.3	297	9
2023-09-02T00:00	3379	675	-2.5	-3.8	297	9
2023-09-02T00:00	3407	672	-2.7	-4.7	295	8
2023-09-02T00:00	3432	670	-2.8	-4.5	293	8
2023-09-02T00:00	3455	668	-2.9	-4.8	291	8
2023-09-02T00:00	3477	666	-2.8	-5.0	289	8
2023-09-02T00:00	3499	665	-3.0	-4.8	287	8
2023-09-02T00:00	3523	663	-3.2	-4.5	286	8
2023-09-02T00:00	3546	661	-3.3	-4.0	286	9
2023-09-02T00:00	3570	659	-3.4	-4.2	286	9
2023-09-02T00:00	3607	656	-3.7	-4.7	285	9
2023-09-02T00:00	3632	654	-3.8	-4.9	282	9
2023-09-02T00:00	3654	652	-3.9	-5.0	279	9
2023-09-02T00:00	3677	650	-4.0	-5.8	276	9
2023-09-02T00:00	3698	648	-4.0	-6.0	274	9
2023-09-02T00:00	3723	646	-4.2	-6.1	275	9
2023-09-02T00:00	3752	644	-4.5	-5.9	278	9
2023-09-02T00:00	3782	641	-4.6	-6.2	281	8
2023-09-02T00:00	3806	639	-4.7	-6.4	284	8
2023-09-02T00:00	3831	637	-4.8	-6.6	285	7
2023-09-02T00:00	3849	636	-4.9	-6.9	284	7
2023-09-02T00:00	3871	634	-5.1	-6.6	283	7
2023-09-02T00:00	3897	632	-5.3	-6.6	281	7
2023-09-02T00:00	3926	630	-5.5	-7.0	280	7
2023-09-02T00:00	3953	627	-5.7	-7.1	280	8
2023-09-02T00:00	3978	625	-5.8	-7.2	281	8
2023-09-02T00:00	4002	624	-6.0	-7.2	281	8
2023-09-02T00:00	4022	622	-6.2	-7.4	281	9
2023-09-02T00:00	4044	620	-6.3	-8.4	281	9
2023-09-02T00:00	4072	618	-6.5	-8.4	280	9
2023-09-02T00:00	4089	617	-6.5	-8.6	281	9
2023-09-02T00:00	4106	615	-6.6	-8.9	282	9
2023-09-02T00:00	4129	613	-6.5	-8.7	284	9
2023-09-02T00:00	4158	611	-6.6	-8.7	285	10
2023-09-02T00:00	4181	609	-6.8	-8.9	285	10
2023-09-02T00:00	4200	608	-6.9	-9.1	285	10
2023-09-02T00:00	4227	606	-7.0	-9.3	285	10
2023-09-02T00:00	4254	604	-7.3	-9.7	286	11
2023-09-02T00:00	4282	602	-7.5	-9.3	287	11
2023-09-02T00:00	4300	600	-7.6	-9.2	289	11
2023-09-02T00:00	4326	598	-7.8	-9.6	290	11
2023-09-02T00:00	4353	596	-8.0	-10.1	290	11
2023-09-02T00:00	4379	594	-8.2	-10.4	288	11
2023-09-02T00:00	4405	592	-8.4	-10.2	285	12
2023-09-02T00:00	4431	590	-8.5	-10.8	284	12
2023-09-02T00:00	4466	588	-8.6	-11.4	284	11
2023-09-02T00:00	4492	586	-8.8	-11.4	286	11
2023-09-02T00:00	4514	584	-9.0	-11.5	289	11
2023-09-02T00:00	4531	583	-9.2	-11.6	292	10
2023-09-02T00:00	4553	581	-9.4	-11.6	295	10
2023-09-02T00:00	4578	579	-9.6	-11.7	297	10
2023-09-02T00:00	4593	578	-9.8	-11.8	298	10
2023-09-02T00:00	4623	576	-10.0	-11.9	297	11
2023-09-02T00:00	4644	574	-10.1	-12.9	295	12
2023-09-02T00:00	4673	572	-10.2	-13.2	292	12
2023-09-02T00:00	4700	570	-10.4	-13.5	290	12
2023-09-02T00:00	4716	569	-10.5	-13.4	289	13
2023-09-02T00:00	4736	567	-10.7	-13.5	289	13
2023-09-02T00:00	4763	565	-10.9	-13.5	289	12
2023-09-02T00:00	4783	564	-11.0	-13.7	290	12
2023-09-02T00:00	4801	563	-11.2	-13.8	290	11
2023-09-02T00:00	4821	561	-11.3	-14.0	292	11
2023-09-02T00:00	4851	559	-11.4	-14.5	293	10
2023-09-02T00:00	4876	557	-11.6	-14.9	295	11
2023-09-02T00:00	4903	555	-11.8	-14.8	297	11
2023-09-02T00:00	4927	553	-12.0	-15.7	298	11
2023-09-02T00:00	4949	552	-11.6	-19.7	297	12
2023-09-02T00:00	4979	550	-11.9	-19.9	296	12
2023-09-02T00:00	5000	548	-12.1	-20.0	294	12
2023-09-02T00:00	5018	547	-12.2	-20.6	292	12
2023-09-02T00:00	5037	545	-12.0	-27.3	290	12
2023-09-02T00:00	5063	544	-11.7	-33.2	289	13
2023-09-02T00:00	5098	541	-11.8		288	13
2023-09-02T00:00	5122	540	-12.0	-34.0	288	13
2023-09-02T00:00	5143	538	-12.1	-32.8	287	13
2023-09-02T00:00	5159	537	-12.3	-32.2	286	13
2023-09-02T00:00	5180	535	-12.5	-31.2	285	13
2023-09-02T00:00	5209	533	-12.7	-30.7	283	13
2023-09-02T00:00	5233	532	-12.9	-29.8	283	14
2023-09-02T00:00	5253	530	-13.1	-29.6	283	14
2023-09-02T00:00	5285	528	-13.2	-30.4	285	15
2023-09-02T00:00	5302	527	-13.3	-31.0	287	15
2023-09-02T00:00	5323	525	-13.4	-32.2	289	16
2023-09-02T00:00	5350	523	-13.5	-32.1	291	17
2023-09-02T00:00	5385	521	-13.7	-32.1	291	17
2023-09-02T00:00	5401	520	-13.9	-32.5	292	17
2023-09-02T00:00	5418	519	-14.0	-32.8	291	18
2023-09-02T00:00	5437	517	-14.1	-33.4	291	18
2023-09-02T00:00	5457	516	-14.1	-34.3	290	18
2023-09-02T00:00	5479	515	-14.2	-34.6	288	18
2023-09-02T00:00	5507	513	-14.4	-34.0	286	18
2023-09-02T00:00	5533	511	-14.6	-34.1	285	19
2023-09-02T00:00	5551	510	-14.7	-34.6	284	19
2023-09-02T00:00	5575	508	-14.9	-35.4	283	19
2023-09-02T00:00	5606	506	-15.1	-34.5	283	18
2023-09-02T00:00	5627	505	-15.3	-32.8	284	18
2023-09-02T00:00	5657	503	-15.6	-30.7	285	18
2023-09-02T00:00	5676	501	-15.7	-30.7	286	18
2023-09-02T00:00	5695	500	-15.9	-30.3	286	18
2023-09-02T00:00	5716	499	-16.1	-29.3	286	18
2023-09-02T00:00	5736	497	-16.3	-29.0	285	18
2023-09-02T00:00	5763	496	-16.5	-29.0	284	18
2023-09-02T00:00	5793	494	-16.7	-30.6	284	18
2023-09-02T00:00	5811	492	-16.8	-30.7	285	18
2023-09-02T00:00	5830	491	-17.0	-30.8	287	18
2023-09-02T00:00	5852	490	-17.2	-30.8	288	18
2023-09-02T00:00	5878	488	-17.5	-30.8	290	19
2023-09-02T00:00	5909	486	-17.8	-31.1	290	19
2023-09-02T00:00	5935	485	-18.0	-30.9	290	19
2023-09-02T00:00	5958	483	-18.2	-31.0	289	19
2023-09-02T00:00	5975	482	-18.4	-30.3	288	19
2023-09-02T00:00	5993	481	-18.6	-30.4	287	19
2023-09-02T00:00	6023	479	-18.9	-30.6	286	18
2023-09-02T00:00	6050	477	-19.1	-30.9	286	18
2023-09-02T00:00	6077	475	-19.4	-30.9	286	18
2023-09-02T00:00	6100	474	-19.6	-30.9	286	17
2023-09-02T00:00	6135	472	-19.9	-30.3	287	17
2023-09-02T00:00	6164	470	-20.2	-30.5	287	17
2023-09-02T00:00	6183	468	-20.4	-30.5	287	18
2023-09-02T00:00	6206	467	-20.7	-30.5	287	18
2023-09-02T00:00	6236	465	-20.9	-30.2	286	18
2023-09-02T00:00	6274	463	-21.3	-30.2	284	19
2023-09-02T00:00	6306	461	-21.6	-30.2	283	19
2023-09-02T00:00	6331	459	-21.8	-30.1	281	19
2023-09-02T00:00	6355	458	-22.1	-30.4	281	19
2023-09-02T00:00	6374	457	-22.3	-30.0	282	19
2023-09-02T00:00	6393	455	-22.5	-30.3	283	19
2023-09-02T00:00	6411	454	-22.6	-30.2	283	18
2023-09-02T00:00	6431	453	-22.8	-30.5	283	18
2023-09-02T00:00	6449	452	-23.0	-30.1	283	18
2023-09-02T00:00	6466	451	-23.1	-30.0	282	18
2023-09-02T00:00	6491	449	-23.3	-30.1	280	18
2023-09-02T00:00	6527	447	-23.6		278	18
2023-09-02T00:00	6563	445	-23.8	-30.1	277	19
2023-09-02T00:00	6579	444	-23.9	-30.0	275	19
2023-09-02T00:00	6603	443	-24.1	-30.6	274	20
2023-09-02T00:00	6628	441	-23.9	-39.7	273	21
2023-09-02T00:00	6661	439	-23.9	-41.7	273	22
2023-09-02T00:00	6687	438	-24.1	-41.5	273	22
2023-09-02T00:00	6705	436	-24.3	-41.8	274	22
2023-09-02T00:00	6723	435	-24.5	-41.7	276	22
2023-09-02T00:00	6742	434	-24.6	-41.6	278	21
2023-09-02T00:00	6762	433	-24.7	-41.8	280	21
2023-09-02T00:00	6789	431	-24.9	-41.5	281	21
2023-09-02T00:00	6825	429	-25.2	-41.7	282	21
2023-09-02T00:00	6853	428	-25.4	-43.2	282	21
2023-09-02T00:00	6871	427	-25.5	-43.6	282	22
2023-09-02T00:00	6888	426	-25.6	-43.8	282	22
2023-09-02T00:00	6906	425	-25.7	-43.4	282	22
2023-09-02T00:00	6923	423	-25.8	-43.6	282	22
2023-09-02T00:00	6943	422	-26.0	-43.6	282	22
2023-09-02T00:00	6965	421	-26.2	-42.8	283	22
2023-09-02T00:00	6996	419	-26.4	-38.6	283	22
2023-09-02T00:00	7017	418	-26.6	-37.6	283	22
2023-09-02T00:00	7042	417	-26.9	-38.0	283	22
2023-09-02T00:00	7071	415	-27.1	-38.3	282	22
2023-09-02T00:00	7107	413	-27.5	-37.8	282	22
2023-09-02T00:00	7130	411	-27.6	-37.5	281	22
2023-09-02T00:00	7147	410	-27.8	-36.2	281	23
2023-09-02T00:00	7167	409	-28.0	-35.6	281	23
2023-09-02T00:00	7188	408	-28.2	-35.8	281	24
2023-09-02T00:00	7218	406	-28.4	-37.5	281	24
2023-09-02T00:00	7253	405	-28.6	-39.1	282	25
2023-09-02T00:00	7277	403	-28.9	-39.9	282	25
2023-09-02T00:00	7296	402	-29.0	-40.1	282	25
2023-09-02T00:00	7316	401	-29.2	-39.0	283	25
2023-09-02T00:00	7333	400	-29.4	-38.3	283	25
2023-09-02T00:00	7355	399	-29.5	-38.2	283	25
2023-09-02T00:00	7376	397	-29.7	-39.0	283	25
2023-09-02T00:00	7407	396	-29.9	-41.3	282	25
2023-09-02T00:00	7438	394	-30.1	-42.7	282	25
2023-09-02T00:00	7469	392	-30.3	-41.6	282	25
2023-09-02T00:00	7496	391	-30.6	-38.9	283	25
2023-09-02T00:00	7524	389	-30.9	-39.3	284	25
2023-09-02T00:00	7554	388	-31.1	-39.8	285	24
2023-09-02T00:00	7588	386	-31.4	-39.9	285	24
2023-09-02T00:00	7621	384	-31.7	-40.2	285	24
2023-09-02T00:00	7637	383	-31.9	-40.3	285	25
2023-09-02T00:00	7654	382	-32.1	-40.2	284	25
2023-09-02T00:00	7673	381	-32.2	-40.1	283	25
2023-09-02T00:00	7692	380	-32.4	-40.9	283	25
2023-09-02T00:00	7715	379	-32.6	-41.8	282	25
2023-09-02T00:00	7744	378	-32.8	-42.3	283	25
2023-09-02T00:00	7764	376	-33.0	-42.3	283	25
2023-09-02T00:00	7784	375	-33.2	-42.4	283	25
2023-09-02T00:00	7807	374	-33.4	-42.5	283	25
2023-09-02T00:00	7831	373	-33.7	-44.0	283	25
2023-09-02T00:00	7861	371	-33.9	-43.9	284	25
2023-09-02T00:00	7894	370	-34.3	-43.9	284	25
2023-09-02T00:00	7919	368	-34.5	-46.1	284	26
2023-09-02T00:00	7949	367	-34.7	-47.0	284	26
2023-09-02T00:00	7987	365	-35.0	-48.7	285	26
2023-09-02T00:00	8021	363	-35.3	-49.8	285	26
2023-09-02T00:00	8042	362	-35.5	-50.1	284	27
2023-09-02T00:00	8065	361	-35.7	-50.1	283	27
2023-09-02T00:00	8091	359	-35.9	-49.9	283	27
2023-09-02T00:00	8116	358	-36.2	-50.2	282	27
2023-09-02T00:00	8145	356	-36.4	-50.5	282	27
2023-09-02T00:00	8185	355	-36.7	-51.2	282	27
2023-09-02T00:00	8208	353	-36.9	-50.2	282	27
2023-09-02T00:00	8228	352	-37.1	-50.2	282	27
2023-09-02T00:00	8244	351	-37.3	-50.6	283	27
2023-09-02T00:00	8263	350	-37.4	-50.4	283	27
2023-09-02T00:00	8283	349	-37.6	-50.6	284	27
2023-09-02T00:00	8307	348	-37.8	-51.3	284	27
2023-09-02T00:00	8334	347	-38.0	-51.4	285	27
2023-09-02T00:00	8359	346	-38.2	-51.5	285	27
2023-09-02T00:00	8386	344	-38.4	-51.7	285	28
2023-09-02T00:00	8419	343	-38.7	-52.1	284	28
2023-09-02T00:00	8453	341	-38.9	-52.5	283	27
2023-09-02T00:00	8488	339	-39.3	-53.0	283	27
2023-09-02T00:00	8510	338	-39.5	-53.2	282	27
2023-09-02T00:00	8528	337	-39.7	-53.0	281	27
2023-09-02T00:00	8549	336	-39.8	-52.8	281	27
2023-09-02T00:00	8571	335	-40.0	-52.2	281	27
2023-09-02T00:00	8599	334	-40.3	-52.1	281	27
2023-09-02T00:00	8628	332	-40.6	-52.5	280	27
2023-09-02T00:00	8658	331	-40.8	-52.7	279	27
2023-09-02T00:00	8687	329	-41.1	-52.7	278	27
2023-09-02T00:00	8721	328	-41.4	-53.5	277	27
2023-09-02T00:00	8753	326	-41.6	-54.2	276	27
2023-09-02T00:00	8792	324	-41.9	-53.4	276	27
2023-09-02T00:00	8819	323	-42.1	-53.7	277	28
2023-09-02T00:00	8836	322	-42.3	-53.7	278	28
2023-09-02T00:00	8854	321	-42.5	-53.7	279	28
2023-09-02T00:00	8873	320	-42.6	-53.9	279	29
2023-09-02T00:00	8895	319	-42.8	-54.0	280	29
2023-09-02T00:00	8922	318	-43.0	-54.3	280	29
2023-09-02T00:00	8946	317	-43.2	-54.9	281	29
2023-09-02T00:00	8972	316	-43.3	-55.2	281	29
2023-09-02T00:00	8999	315	-43.5	-55.7	280	29
2023-09-02T00:00	9024	313	-43.5	-56.4	280	29
2023-09-02T00:00	9046	312	-43.6	-56.4	279	30
2023-09-02T00:00	9071	311	-43.7	-54.9	278	30
2023-09-02T00:00	9097	310	-43.8	-55.1	278	31
2023-09-02T00:00	9132	308	-44.0	-54.0	277	31
2023-09-02T00:00	9150	307	-44.1	-53.4	277	31
2023-09-02T00:00	9171	307	-44.3	-53.3	278	31
2023-09-02T00:00	9188	306	-44.4	-52.8	278	31
2023-09-02T00:00	9207	305	-44.6	-52.7	278	31
2023-09-02T00:00	9227	304	-44.7	-52.9	279	31
2023-09-02T00:00	9244	303	-44.8	-52.9	278	31
2023-09-02T00:00	9264	302	-45.0	-52.9	278	32
2023-09-02T00:00	9286	301	-45.2	-53.0	278	32
2023-09-02T00:00	9306	300	-45.3	-53.1	278	32
2023-09-02T00:00	9325	300	-45.5	-53.2	279	32
2023-09-02T00:00	9343	299	-45.6	-53.2	279	32
2023-09-02T00:00	9364	298	-45.8	-53.4	279	32
2023-09-02T00:00	9381	297	-46.0	-53.5	279	32
2023-09-02T00:00	9401	296	-46.1	-53.9	279	32
2023-09-02T00:00	9420	295	-46.2	-54.2	279	32
2023-09-02T00:00	9440	294	-46.3	-54.7	279	32
2023-09-02T00:00	9461	293	-46.3	-54.9	279	32
2023-09-02T00:00	9481	293	-46.5	-55.1	279	32
2023-09-02T00:00	9503	292	-46.6	-55.0	280	32
2023-09-02T00:00	9521	291	-46.8	-55.0	280	32
2023-09-02T00:00	9540	290	-47.0	-55.2	280	32
2023-09-02T00:00	9561	289	-47.1	-55.7	281	32
2023-09-02T00:00	9583	288	-47.3	-56.1	281	32
2023-09-02T00:00	9603	287	-47.4	-56.4	281	32
2023-09-02T00:00	9623	286	-47.6	-57.7	281	32
2023-09-02T00:00	9643	286	-47.6	-58.0	281	32
2023-09-02T00:00	9665	285	-47.8	-57.7	281	32
2023-09-02T00:00	9686	284	-47.8	-57.5	281	32
2023-09-02T00:00	9707	283	-47.9	-57.6	281	33
2023-09-02T00:00	9730	282	-48.1	-57.8	281	33
2023-09-02T00:00	9751	281	-48.2	-57.8	281	33
2023-09-02T00:00	9770	280	-48.4	-57.7	281	33
2023-09-02T00:00	9791	279	-48.5	-57.8	281	33
2023-09-02T00:00	9811	278	-48.6	-58.1	281	33
2023-09-02T00:00	9832	277	-48.7	-58.4	280	33
2023-09-02T00:00	9853	277	-48.7	-58.7	280	33
2023-09-02T00:00	9876	276	-48.9	-59.0	280	33
2023-09-02T00:00	9897	275	-49.0	-59.2	281	34
2023-09-02T00:00	9919	274	-49.1	-59.4	281	34
2023-09-02T00:00	9940	273	-49.3	-59.7	281	34
2023-09-02T00:00	9962	272	-49.3	-59.9	281	34
2023-09-02T00:00	9986	271	-49.3	-60.2	281	34
2023-09-02T00:00	10009	270	-49.4	-60.5	282	34
2023-09-02T00:00	10031	269	-49.5	-60.6	282	34
2023-09-02T00:00	10054	268	-49.6	-60.9	282	33
2023-09-02T00:00	10072	267	-49.6	-60.9	282	33
2023-09-02T00:00	10094	267	-49.8	-61.1	282	33
2023-09-02T00:00	10114	266	-49.9	-61.2	282	33
2023-09-02T00:00	10136	265	-50.0	-61.3	282	32
2023-09-02T00:00	10156	264	-50.2	-61.4	282	32
2023-09-02T00:00	10176	263	-50.3	-61.6	282	32
2023-09-02T00:00	10195	262	-50.3	-61.8	282	32
2023-09-02T00:00	10218	262	-50.3	-62.1	281	33
2023-09-02T00:00	10239	261	-50.2	-62.2	281	33
2023-09-02T00:00	10259	260	-50.4		281	33
2023-09-02T00:00	10277	259	-50.4	-62.2	281	33
2023-09-02T00:00	10295	258	-50.5	-62.4	280	33
2023-09-02T00:00	10314	258	-50.5	-62.9	280	33
2023-09-02T00:00	10336	257	-50.5	-63.4	280	33
2023-09-02T00:00	10355	256	-50.6	-63.7	279	33
2023-09-02T00:00	10375	255	-50.7	-63.9	279	33
2023-09-02T00:00	10394	255	-50.8	-64.2	278	33
2023-09-02T00:00	10411	254	-50.8	-64.3	277	34
2023-09-02T00:00	10430	253	-50.8	-64.4	277	34
2023-09-02T00:00	10450	252	-50.8	-64.5	277	34
2023-09-02T00:00	10469	252	-50.9		278	34
2023-09-02T00:00	10487	251	-50.8	-64.3	279	34
2023-09-02T00:00	10510	250	-50.8	-64.2	280	34
2023-09-02T00:00	10538	249	-50.9	-64.4	281	33
2023-09-02T00:00	10557	248	-50.9		282	33
2023-09-02T00:00	10575	248	-50.9	-64.8	282	33
2023-09-02T00:00	10597	247	-51.1	-65.0	282	32
2023-09-02T00:00	10617	246	-51.2	-65.0	281	32
2023-09-02T00:00	10637	245	-51.3		280	33
2023-09-02T00:00	10655	245	-51.3	-65.2	280	33
2023-09-02T00:00	10676	244	-51.1	-65.3	279	33
2023-09-02T00:00	10695	243	-51.1	-65.3	278	33
2023-09-02T00:00	10713	242	-51.3	-65.3	278	34
2023-09-02T00:00	10732	242	-51.3	-65.2	278	34
2023-09-02T00:00	10751	241	-51.4	-65.2	279	33
2023-09-02T00:00	10772	240	-51.6	-65.3	279	33
2023-09-02T00:00	10792	239	-51.5	-65.6	280	33
2023-09-02T00:00	10812	239	-51.3	-65.9	281	33
2023-09-02T00:00	10835	238	-51.2	-66.0	281	33
2023-09-02T00:00	10855	237	-51.3	-66.1	281	33
2023-09-02T00:00	10876	236	-51.3	-66.2	281	33
2023-09-02T00:00	10895	236	-51.3	-66.4	280	32
2023-09-02T00:00	10914	235	-51.4	-67.2	280	32
2023-09-02T00:00	10934	234	-50.8	-68.0	280	32
2023-09-02T00:00	10953	234	-50.5	-69.1	280	31
2023-09-02T00:00	10971	233	-50.3	-69.4	279	31
2023-09-02T00:00	10990	232	-50.3	-69.6	279	31
2023-09-02T00:00	11012	232	-50.1	-69.7	278	31
2023-09-02T00:00	11033	231	-50.0	-70.1	277	31
2023-09-02T00:00	11053	230	-49.9	-70.4	276	30
2023-09-02T00:00	11074	229	-50.0	-70.8	275	30
2023-09-02T00:00	11093	229	-50.0	-71.5	274	29
2023-09-02T00:00	11115	228	-49.9	-72.2	272	29
2023-09-02T00:00	11137	227	-49.9		272	28
2023-09-02T00:00	11157	226	-49.9	-73.0	271	28
2023-09-02T00:00	11178	226	-49.9	-73.3	271	28
2023-09-02T00:00	11196	225	-49.7	-73.8	271	28
2023-09-02T00:00	11215	224	-49.2	-74.6	271	28
2023-09-02T00:00	11239	224	-49.1	-75.2	270	28
2023-09-02T00:00	11258	223	-48.9	-75.3	269	28
2023-09-02T00:00	11280	222	-48.4	-75.1	268	27
2023-09-02T00:00	11302	222	-48.3	-75.0	267	27
2023-09-02T00:00	11322	221	-48.3	-75.0	266	27
2023-09-02T00:00	11340	220	-48.0	-75.1	266	27
2023-09-02T00:00	11361	220	-47.8	-75.2	266	28
2023-09-02T00:00	11384	219	-47.8	-75.2	267	28
2023-09-02T00:00	11417	218	-47.6		269	28
2023-09-02T00:00	11444	217	-47.3	-75.1	270	28
2023-09-02T00:00	11466	216	-47.6	-75.3	272	27
2023-09-02T00:00	11486	215	-47.4	-75.5	273	26
2023-09-02T00:00	11505	215	-47.0	-75.5	275	25
2023-09-02T00:00	11530	214	-46.8	-75.3	277	24
2023-09-02T00:00	11557	213	-46.8	-75.3	278	24
2023-09-02T00:00	11581	212	-46.7	-75.6	278	23
2023-09-02T00:00	11611	211	-46.7	-75.6	279	22
2023-09-02T00:00	11633	211	-46.9	-75.7	279	22
2023-09-02T00:00	11650	210	-47.0	-75.8	279	22
2023-09-02T00:00	11673	209	-47.0	-75.8	279	22
2023-09-02T00:00	11692	209	-47.1	-75.9	278	22
2023-09-02T00:00	11713	208	-47.4	-76.1	277	22
2023-09-02T00:00	11736	207	-47.5	-76.2	276	22
2023-09-02T00:00	11758	207	-47.6	-76.3	275	23
2023-09-02T00:00	11781	206	-47.6	-76.3	274	23
2023-09-02T00:00	11806	205	-47.8	-76.1	273	23
2023-09-02T00:00	11830	204	-47.9	-76.5	273	23
2023-09-02T00:00	11853	204	-48.2	-76.4	272	24
2023-09-02T00:00	11876	203	-48.3	-76.5	271	24
2023-09-02T00:00	11900	202	-48.5	-76.6	271	25
2023-09-02T00:00	11921	202	-48.6	-76.7	270	25
2023-09-02T00:00	11939	201	-48.7	-76.8	270	26
2023-09-02T00:00	11957	201	-48.8	-76.8	270	26
2023-09-02T00:00	11979	200	-48.8	-76.8	271	27
2023-09-02T00:00	11998	199	-48.8	-76.8	271	27
2023-09-02T00:00	12016	199	-48.8	-77.2	272	27
2023-09-02T00:00	12035	198	-48.6	-77.0	273	27
2023-09-02T00:00	12054	198	-48.5	-77.3	274	27
2023-09-02T00:00	12074	197	-48.4	-77.6	275	26
2023-09-02T00:00	12095	196	-48.2	-77.8	276	25
2023-09-02T00:00	12120	196	-47.3	-77.5	277	24
2023-09-02T00:00	12141	195	-47.0	-77.7	277	24
2023-09-02T00:00	12174	194	-47.0	-77.7	278	23
2023-09-02T00:00	12202	193	-47.1	-77.8	278	23
2023-09-02T00:00	12226	193	-47.3	-77.9	279	22
2023-09-02T00:00	12249	192	-47.5	-77.7	281	22
2023-09-02T00:00	12272	191	-47.7	-77.8	282	21
2023-09-02T00:00	12294	191	-47.8	-77.9	283	20
2023-09-02T00:00	12314	190	-48.0	-78.0	283	20
2023-09-02T00:00	12335	189	-48.2	-78.2	282	19
2023-09-02T00:00	12356	189	-48.3	-78.3	281	19
2023-09-02T00:00	12377	188	-48.5	-78.4	279	19
2023-09-02T00:00	12399	188	-48.5	-78.8	278	18
2023-09-02T00:00	12420	187	-48.1		277	18
2023-09-02T00:00	12442	186	-47.8	-78.8	275	18
2023-09-02T00:00	12460	186	-47.8	-78.8	274	18
2023-09-02T00:00	12481	185	-47.7		273	18
2023-09-02T00:00	12501	185	-47.6	-78.6	272	18
2023-09-02T00:00	12521	184	-47.7	-78.7	271	18
2023-09-02T00:00	12541	184	-47.7	-78.7	271	18
2023-09-02T00:00	12560	183	-47.8	-78.8	270	18
2023-09-02T00:00	12583	182	-47.9	-78.8	270	18
2023-09-02T00:00	12606	182	-48.1	-79.0	271	18
2023-09-02T00:00	12624	181	-48.0	-78.9	271	18
2023-09-02T00:00	12642	181	-47.9	-79.3	271	18
2023-09-02T00:00	12666	180	-47.6	-79.1	270	18
2023-09-02T00:00	12694	179	-47.7		269	18
2023-09-02T00:00	12719	179	-47.5	-79.0	268	18
2023-09-02T00:00	12749	178	-47.7		267	18
2023-09-02T00:00	12782	177	-48.0	-79.4	266	18
2023-09-02T00:00	12803	176	-48.2	-79.1	265	18
2023-09-02T00:00	12823	176	-48.4	-79.2	265	18
2023-09-02T00:00	12846	175	-48.1	-79.0	266	18
2023-09-02T00:00	12870	175	-48.0	-79.4	268	19
2023-09-02T00:00	12889	174	-47.8	-79.3	269	19
2023-09-02T00:00	12909	174	-47.9	-78.8	270	19
2023-09-02T00:00	12928	173	-47.9	-78.8	270	19
2023-09-02T00:00	12949	173	-48.0	-78.9	269	20
2023-09-02T00:00	12967	172	-48.1	-79.0	269	20
2023-09-02T00:00	12988	172	-48.3	-79.1	268	20
2023-09-02T00:00	13008	171	-48.5	-79.3	268	20
2023-09-02T00:00	13029	170	-48.7	-79.4	267	20
2023-09-02T00:00	13050	170	-48.6	-79.4	266	21
2023-09-02T00:00	13067	169	-48.6	-79.4	266	21
2023-09-02T00:00	13086	169	-48.6	-79.4	265	21
2023-09-02T00:00	13110	168	-48.6	-79.4	265	22
2023-09-02T00:00	13131	168	-48.6	-79.4	266	22
2023-09-02T00:00	13152	167	-48.5	-79.3	266	23
2023-09-02T00:00	13171	167	-48.5	-79.8	266	23
2023-09-02T00:00	13193	166	-48.1	-79.5	267	23
2023-09-02T00:00	13214	166	-48.2	-79.6	268	23
2023-09-02T00:00	13236	165	-48.3	-79.6	269	23
2023-09-02T00:00	13255	165	-48.1	-79.5	270	23
2023-09-02T00:00	13276	164	-47.8	-79.3	271	23
2023-09-02T00:00	13296	164	-47.8	-79.3	272	23
2023-09-02T00:00	13319	163	-47.6	-79.1	273	22
2023-09-02T00:00	13342	163	-47.5	-79.0	275	22
2023-09-02T00:00	13364	162	-47.5	-79.0	276	21
2023-09-02T00:00	13389	161	-47.6	-79.1	277	21
2023-09-02T00:00	13417	161	-47.7		279	20
2023-09-02T00:00	13439	160	-47.7	-78.7	280	20
2023-09-02T00:00	13458	160	-47.9	-78.8	282	19
2023-09-02T00:00	13481	159	-48.1	-79.0	283	19
2023-09-02T00:00	13505	159	-48.2	-79.1	284	18
2023-09-02T00:00	13525	158	-48.2	-79.1	284	18
2023-09-02T00:00	13549	158	-48.3	-79.1	285	17
2023-09-02T00:00	13568	157	-48.5	-79.3	284	17
2023-09-02T00:00	13590	157	-48.7	-79.4	284	16
2023-09-02T00:00	13611	156	-48.8	-79.5	284	15
2023-09-02T00:00	13633	155	-48.9	-79.6	283	15
2023-09-02T00:00	13658	155	-49.1	-79.7	282	15
2023-09-02T00:00	13682	154	-49.2	-79.8	280	14
2023-09-02T00:00	13706	154	-49.4	-80.0	278	14
2023-09-02T00:00	13727	153	-49.6	-79.7	277	14
2023-09-02T00:00	13751	153	-49.8	-79.8	275	14
2023-09-02T00:00	13769	152	-49.9	-79.9	273	14
2023-09-02T00:00	13793	152	-50.1	-80.0	271	14
2023-09-02T00:00	13815	151	-50.3	-80.2	269	13
2023-09-02T00:00	13837	151	-50.4	-80.3	266	13
2023-09-02T00:00	13859	150	-50.5	-80.3	263	13
2023-09-02T00:00	13881	150	-50.6	-80.4	259	13
2023-09-02T00:00	13904	149	-50.6	-80.0	256	13
2023-09-02T00:00	13925	149	-50.6	-80.0	254	13
2023-09-02T00:00	13946	148	-50.6	-80.0	252	14
2023-09-02T00:00	13967	148	-50.6	-80.4	251	14
2023-09-02T00:00	13990	147	-50.4	-80.3	250	15
2023-09-02T00:00	14010	147	-50.3	-80.2	250	15
2023-09-02T00:00	14032	146	-50.4	-80.3	249	15
2023-09-02T00:00	14054	146	-50.4	-80.3	249	16
2023-09-02T00:00	14076	145	-50.3	-80.2	248	16
2023-09-02T00:00	14096	145	-50.4	-80.3	248	17
2023-09-02T00:00	14116	144	-50.6	-80.4	248	17
2023-09-02T00:00	14138	144	-50.7	-80.5	248	17
2023-09-02T00:00	14159	144	-50.6	-80.4	249	18
2023-09-02T00:00	14180	143	-50.6	-80.4	249	18
2023-09-02T00:00	14200	143	-50.6	-80.4	250	18
2023-09-02T00:00	14219	142	-50.7	-80.5	251	18
2023-09-02T00:00	14240	142	-50.7	-80.5	252	18
2023-09-02T00:00	14260	141	-50.6	-80.9	253	18
2023-09-02T00:00	14282	141	-50.5	-80.8	255	19
2023-09-02T00:00	14303	140	-50.5	-80.8	256	19
2023-09-02T00:00	14325	140	-50.4	-80.7	258	19
2023-09-02T00:00	14343	139	-50.5	-80.8	259	19
2023-09-02T00:00	14366	139	-50.4	-80.7	262	20
2023-09-02T00:00	14389	139	-50.6	-81.3	264	19
2023-09-02T00:00	14413	138	-50.3	-81.1	267	19
2023-09-02T00:00	14438	138	-49.9	-80.8	270	19
2023-09-02T00:00	14458	137	-50.0	-80.9	273	18
2023-09-02T00:00	14481	137	-49.9	-80.8	275	17
2023-09-02T00:00	14503	136	-50.0	-80.9	277	17
2023-09-02T00:00	14519	136	-49.8	-80.8	278	16
2023-09-02T00:00	14544	135	-49.8	-80.8	279	15
2023-09-02T00:00	14566	135	-49.9	-80.8	280	15
2023-09-02T00:00	14588	134	-50.0	-80.9	280	14
2023-09-02T00:00	14608	134	-50.1	-81.0	280	14
2023-09-02T00:00	14629	134	-50.3	-81.1	279	13
2023-09-02T00:00	14650	133	-50.3	-81.1	278	13
2023-09-02T00:00	14673	133	-50.3	-81.1	277	13
2023-09-02T00:00	14694	132	-50.4	-80.7	276	14
2023-09-02T00:00	14716	132	-50.6	-80.9	275	14
2023-09-02T00:00	14740	131	-50.7	-80.9	273	14
2023-09-02T00:00	14760	131	-50.8	-81.0	271	14
2023-09-02T00:00	14783	130	-50.8	-81.0	270	14
2023-09-02T00:00	14805	130	-50.9	-81.1	269	14
2023-09-02T00:00	14825	130	-51.0	-81.2	268	14
2023-09-02T00:00	14849	129	-51.2	-81.3	268	14
2023-09-02T00:00	14871	129	-51.3	-80.9	268	14
2023-09-02T00:00	14894	128	-51.3	-80.9	269	14
2023-09-02T00:00	14915	128	-51.4	-81.0	270	15
2023-09-02T00:00	14934	127	-51.5	-81.1	272	15
2023-09-02T00:00	14958	127	-51.7	-81.2	273	15
2023-09-02T00:00	14981	127	-51.8	-81.3	275	14
2023-09-02T00:00	15002	126	-51.9	-81.4	276	14
2023-09-02T00:00	15023	126	-51.9	-81.4	278	14
2023-09-02T00:00	15044	125	-51.8	-81.3	279	14
2023-09-02T00:00	15065	125	-52.0	-81.5	281	13
2023-09-02T00:00	15086	124	-52.1	-81.5	283	13
2023-09-02T00:00	15109	124	-52.0	-81.5	284	13
2023-09-02T00:00	15129	124	-52.0	-81.5	285	13
2023-09-02T00:00	15151	123	-51.9	-81.4	285	12
2023-09-02T00:00	15171	123	-51.8	-81.3	285	12
2023-09-02T00:00	15194	122	-51.8	-81.3	284	12
2023-09-02T00:00	15216	122	-51.9	-81.4	284	12
2023-09-02T00:00	15236	122	-52.0	-81.5	283	12
2023-09-02T00:00	15259	121	-52.1	-81.5	282	11
2023-09-02T00:00	15280	121	-52.3	-81.7	281	11
2023-09-02T00:00	15300	120	-52.4	-81.4	280	11
2023-09-02T00:00	15323	120	-52.6	-81.5	280	10
2023-09-02T00:00	15342	120	-52.7	-81.6	279	10
2023-09-02T00:00	15363	119	-52.8	-81.7	278	10
2023-09-02T00:00	15383	119	-52.8	-81.7	276	10
2023-09-02T00:00	15406	118	-52.9	-81.7	275	10
2023-09-02T00:00	15430	118	-53.0	-81.8	274	10
2023-09-02T00:00	15448	118	-53.1	-81.9	275	10
2023-09-02T00:00	15470	117	-53.2	-82.0	275	10
2023-09-02T00:00	15492	117	-53.0	-82.2	275	10
2023-09-02T00:00	15511	117	-52.8	-82.1	273	10
2023-09-02T00:00	15533	116	-52.7	-82.0	272	10
2023-09-02T00:00	15556	116	-52.8	-82.1	269	10
2023-09-02T00:00	15576	115	-52.6	-81.9	267	10
2023-09-02T00:00	15596	115	-52.7	-82.0	266	10
2023-09-02T00:00	15617	115	-52.8	-82.1	265	10
2023-09-02T00:00	15642	114	-52.7	-82.0	265	10
2023-09-02T00:00	15657	114	-52.5	-81.8	265	10
2023-09-02T00:00	15681	114	-52.5	-81.8	266	10
2023-09-02T00:00	15703	113	-52.5	-81.8	266	10
2023-09-02T00:00	15720	113	-52.4	-82.2	266	10
2023-09-02T00:00	15741	112	-52.3	-82.1	267	10
2023-09-02T00:00	15764	112	-52.0	-82.4	268	10
2023-09-02T00:00	15783	112	-51.9	-82.3	270	10
2023-09-02T00:00	15807	111	-51.9	-82.3	272	10
2023-09-02T00:00	15824	111	-51.9	-82.8	274	10
2023-09-02T00:00	15848	111	-51.8	-82.8	276	10
2023-09-02T00:00	15872	110	-51.8	-82.8	276	10
2023-09-02T00:00	15890	110	-51.9	-82.3	276	10
2023-09-02T00:00	15916	109	-51.8	-82.2	275	10
2023-09-02T00:00	15936	109	-52.0	-82.4	272	9
2023-09-02T00:00	15961	109	-52.2	-82.5	270	9
2023-09-02T00:00	15982	108	-52.1	-82.5	266	9
2023-09-02T00:00	16003	108	-52.1	-82.5	263	9
2023-09-02T00:00	16027	108	-52.2	-82.5	261	9
2023-09-02T00:00	16048	107	-52.2	-82.5	259	10
2023-09-02T00:00	16073	107	-52.1	-83.0	257	10
2023-09-02T00:00	16094	107	-51.9	-82.8	256	10
2023-09-02T00:00	16117	106	-51.5	-82.5	254	10
2023-09-02T00:00	16139	106	-51.5	-82.5	252	10
2023-09-02T00:00	16162	105	-51.5	-82.5	252	11
2023-09-02T00:00	16185	105	-51.6	-82.6	252	11
2023-09-02T00:00	16208	105	-51.7	-82.7	254	11
2023-09-02T00:00	16230	104	-51.9	-82.8	257	11
2023-09-02T00:00	16254	104	-51.9	-82.8	261	10
2023-09-02T00:00	16281	103	-51.7	-82.7	266	10
2023-09-02T00:00	16308	103	-51.3	-82.4	270	10
2023-09-02T00:00	16335	103	-51.4	-82.5	274	9
2023-09-02T00:00	16359	102	-51.6	-82.6	278	9
2023-09-02T00:00	16381	102	-51.7	-82.7	281	8
2023-09-02T00:00	16404	102	-51.8	-82.8	282	8
2023-09-02T00:00	16426	101	-51.8	-82.8	282	8
2023-09-02T00:00	16449	101	-52.0	-82.9	280	7
2023-09-02T00:00	16474	100	-52.1	-83.0	276	7
2023-09-02T00:00	16498	100	-52.2	-83.1	272	7
2023-09-02T00:00	16520	100	-52.3	-83.1	267	7
2023-09-02T00:00	16539	99	-52.5	-83.3	263	7
2023-09-02T00:00	16566	99	-52.6	-83.3	260	8
2023-09-02T00:00	16587	99	-52.8	-83.5	258	8
2023-09-02T00:00	16610	98	-52.8	-83.5	258	8
2023-09-02T00:00	16631	98	-52.8	-83.5	260	8
2023-09-02T00:00	16655	98	-52.7	-83.4	264	8
2023-09-02T00:00	16678	97	-52.7	-83.4	268	8
2023-09-02T00:00	16701	97	-52.6	-83.3	273	8
2023-09-02T00:00	16725	97	-52.5	-83.3	276	8
2023-09-02T00:00	16746	96	-52.5	-83.8	279	8
2023-09-02T00:00	16767	96	-52.5	-83.8	280	7
2023-09-02T00:00	16792	96	-52.4	-83.8	280	7
2023-09-02T00:00	16813	95	-52.2	-83.6	278	6
2023-09-02T00:00	16836	95	-52.2	-83.6	275	5
2023-09-02T00:00	16857	95	-52.2	-83.6	270	4
2023-09-02T00:00	16879	94	-52.1	-83.5	265	4
2023-09-02T00:00	16901	94	-52.1	-83.5	260	4
2023-09-02T00:00	16921	94	-52.0	-83.5	258	4
2023-09-02T00:00	16944	93	-52.1	-83.5	256	4
2023-09-02T00:00	16964	93	-52.3	-83.7	254	4
2023-09-02T00:00	16985	93	-52.3	-83.7	252	4
2023-09-02T00:00	17005	93	-52.2	-83.6	249	4
2023-09-02T00:00	17025	92	-52.2	-83.6	246	4
2023-09-02T00:00	17046	92	-52.1	-83.5	244	4
2023-09-02T00:00	17070	92	-52.3	-83.7	245	4
2023-09-02T00:00	17087	91	-52.3	-83.7	247	5
2023-09-02T00:00	17110	91	-52.4	-83.8	252	5
2023-09-02T00:00	17129	91	-52.3	-83.7	258	5
2023-09-02T00:00	17152	90	-52.4	-83.8	264	6
2023-09-02T00:00	17172	90	-52.5	-83.8	270	6
2023-09-02T00:00	17195	90	-52.6	-83.9	276	6
2023-09-02T00:00	17215	90	-52.5	-83.8	280	6
2023-09-02T00:00	17236	89	-52.2	-83.6	282	6
2023-09-02T00:00	17255	89	-52.2	-83.6	284	6
2023-09-02T00:00	17274	89	-52.0	-83.5	286	6
2023-09-02T00:00	17294	88	-51.8	-83.3	287	6
2023-09-02T00:00	17321	88	-51.7	-83.2	289	6
2023-09-02T00:00	17340	88	-51.8	-83.3	291	6
2023-09-02T00:00	17363	88	-51.6	-83.2	293	5
2023-09-02T00:00	17385	87	-51.7	-83.2	295	5
2023-09-02T00:00	17408	87	-51.5	-83.1	297	4
2023-09-02T00:00	17427	87	-51.6	-83.2	297	4
2023-09-02T00:00	17450	86	-51.7	-83.2	295	3
2023-09-02T00:00	17475	86	-51.8	-83.3	291	3
2023-09-02T00:00	17497	86	-51.9	-83.4	284	2
2023-09-02T00:00	17519	85	-52.0	-83.5	276	2
2023-09-02T00:00	17537	85	-52.1	-83.5	268	1
2023-09-02T00:00	17560	85	-52.2	-83.6	260	1
2023-09-02T00:00	17587	85	-52.1	-83.5	252	1
2023-09-02T00:00	17608	84	-52.1	-83.5	242	2
2023-09-02T00:00	17632	84	-52.0	-83.5	233	2
2023-09-02T00:00	17654	84	-52.2	-83.6	226	2
2023-09-02T00:00	17675	83	-52.3	-83.7	222	3
2023-09-02T00:00	17702	83	-52.5	-83.8	221	3
2023-09-02T00:00	17723	83	-52.6	-83.9	222	4
2023-09-02T00:00	17742	83	-52.7	-83.4	225	4
2023-09-02T00:00	17770	82	-52.8	-83.5	229	4
2023-09-02T00:00	17792	82	-53.0	-83.6	233	5
2023-09-02T00:00	17813	82	-53.2	-83.8	236	5
2023-09-02T00:00	17839	81	-52.6	-83.9	239	6
2023-09-02T00:00	17860	81	-52.5	-83.8	240	6
2023-09-02T00:00	17884	81	-52.3	-83.7	240	6
2023-09-02T00:00	17908	80	-52.0	-84.1	241	6
2023-09-02T00:00	17928	80	-51.7	-83.9	241	7
2023-09-02T00:00	17952	80	-51.6	-83.8	242	7
2023-09-02T00:00	17973	80	-51.7	-83.9	243	7
2023-09-02T00:00	17996	79	-51.8	-83.3	245	7
2023-09-02T00:00	18021	79	-52.0	-83.5	248	7
2023-09-02T00:00	18051	79	-52.3	-83.7	252	7
2023-09-02T00:00	18070	78	-52.3	-83.7	257	6
2023-09-02T00:00	18096	78	-52.1	-83.5	262	6
2023-09-02T00:00	18119	78	-52.3	-83.7	267	6
2023-09-02T00:00	18144	78	-52.2	-83.6	271	6
2023-09-02T00:00	18165	77	-52.1	-83.5	275	6
2023-09-02T00:00	18188	77	-52.0	-83.5	278	7
2023-09-02T00:00	18210	77	-52.1	-83.5	282	7
2023-09-02T00:00	18234	77	-52.2	-83.6	285	7
2023-09-02T00:00	18252	76	-52.3	-83.7	288	7
2023-09-02T00:00	18275	76	-52.1	-84.2	291	7
2023-09-02T00:00	18300	76	-52.0	-84.1	294	7
2023-09-02T00:00	18318	76	-51.9	-84.0	298	7
2023-09-02T00:00	18342	75	-51.7	-83.9	304	7
2023-09-02T00:00	18364	75	-51.1	-84.1	310	7
2023-09-02T00:00	18386	75	-50.9	-84.0	317	6
2023-09-02T00:00	18409	74	-50.9	-84.0	326	5
2023-09-02T00:00	18434	74	-50.7	-83.8	335	5
2023-09-02T00:00	18455	74	-50.7	-83.8	344	5
2023-09-02T00:00	18476	74	-50.4	-83.6	352	4
2023-09-02T00:00	18497	73	-50.4	-83.6	360	4
2023-09-02T00:00	18526	73	-50.6	-83.1	7	4
2023-09-02T00:00	18545	73	-50.7	-83.1	14	4
2023-09-02T00:00	18566	73	-50.8	-83.2	20	4
2023-09-02T00:00	18592	72	-51.0	-83.3	25	4
2023-09-02T00:00	18614	72	-51.2	-83.5	29	4
2023-09-02T00:00	18639	72	-51.4	-83.6	32	4
2023-09-02T00:00	18659	72	-51.6	-83.2	36	4
2023-09-02T00:00	18684	71	-51.7	-83.2	41	4
2023-09-02T00:00	18709	71	-51.9	-83.4	47	4
2023-09-02T00:00	18730	71	-52.0	-83.5	56	4
2023-09-02T00:00	18753	71	-52.1	-83.5	67	3
2023-09-02T00:00	18779	70	-52.1	-83.5	80	3
2023-09-02T00:00	18802	70	-52.2	-84.2	96	3
2023-09-02T00:00	18826	70	-52.1	-84.2	113	2
2023-09-02T00:00	18848	70	-52.1	-84.2	130	2
2023-09-02T00:00	18873	69	-52.2	-84.2	147	2
2023-09-02T00:00	18896	69	-52.3	-84.3	166	2
2023-09-02T00:00	18919	69	-52.1	-84.2	183	2
2023-09-02T00:00	18939	69	-52.2	-84.2	198	2
2023-09-02T00:00	18967	68	-52.2	-84.2	211	2
2023-09-02T00:00	18987	68	-52.3	-84.3	222	2
2023-09-02T00:00	19008	68	-52.4	-84.4	233	2
2023-09-02T00:00	19035	68	-52.5	-84.4	246	2
2023-09-02T00:00	19062	67	-52.6	-84.5	259	2
2023-09-02T00:00	19079	67	-52.6	-84.5	272	2
2023-09-02T00:00	19104	67	-52.4	-84.4	284	2
2023-09-02T00:00	19126	67	-52.5	-84.4	295	2
2023-09-02T00:00	19149	66	-52.6	-84.5	303	3
2023-09-02T00:00	19178	66	-52.6	-84.5	308	3
2023-09-02T00:00	19201	66	-52.4	-84.4	310	3
2023-09-02T00:00	19221	66	-52.1	-84.2	310	3
2023-09-02T00:00	19245	65	-52.0	-84.1	307	3
2023-09-02T00:00	19271	65	-51.8	-83.9	303	3
2023-09-02T00:00	19293	65	-51.7	-83.9	299	3
2023-09-02T00:00	19319	65	-51.7	-83.9	296	4
2023-09-02T00:00	19342	65	-51.8	-83.9	293	4
2023-09-02T00:00	19364	64	-51.8	-83.9	291	4
2023-09-02T00:00	19388	64	-52.0	-84.1	290	4
2023-09-02T00:00	19409	64	-52.1	-84.2	292	4
2023-09-02T00:00	19433	64	-52.3	-84.3	296	4
2023-09-02T00:00	19458	63	-52.3	-84.3	302	4
2023-09-02T00:00	19483	63	-52.1	-84.2	310	3
2023-09-02T00:00	19509	63	-52.0	-84.1	317	3
2023-09-02T00:00	19530	63	-52.1	-84.2	323	3
2023-09-02T00:00	19552	62	-52.1	-84.2	330	3
2023-09-02T00:00	19576	62	-52.2	-84.2	337	2
2023-09-02T00:00	19605	62	-52.3	-84.3	348	2
2023-09-02T00:00	19627	62	-52.4	-84.4	8	1
2023-09-02T00:00	19648	62	-52.5	-84.4	46	1
2023-09-02T00:00	19676	61	-52.3	-84.3	92	1
2023-09-02T00:00	19698	61	-52.3	-84.3	116	2
2023-09-02T00:00	19722	61	-52.3	-84.3	128	2
2023-09-02T00:00	19747	61	-52.3	-84.3	134	3
2023-09-02T00:00	19771	60	-52.5	-84.4	138	4
2023-09-02T00:00	19796	60	-52.6	-84.5	141	4
2023-09-02T00:00	19818	60	-52.6	-84.5	144	5
2023-09-02T00:00	19844	60	-52.5	-84.4	147	5
2023-09-02T00:00	19864	60	-52.5	-84.4	151	5
2023-09-02T00:00	19886	59	-52.5	-84.4	154	6
2023-09-02T00:00	19914	59	-52.2	-84.2	157	6
2023-09-02T00:00	19936	59	-52.2	-84.2	159	6
2023-09-02T00:00	19956	59	-52.3	-84.3	161	6
2023-09-02T00:00	19980	58	-52.5	-84.4	162	6
2023-09-02T00:00	20005	58	-52.6	-84.5	163	6
2023-09-02T00:00	20027	58	-52.7	-84.6	165	6
2023-09-02T00:00	20051	58	-52.8	-84.7	167	5
2023-09-02T00:00	20074	58	-52.7	-84.6	171	5
2023-09-02T00:00	20102	57	-52.6	-84.5	177	5
2023-09-02T00:00	20122	57	-52.6	-84.5	186	4
2023-09-02T00:00	20148	57	-52.7	-84.6	198	4
2023-09-02T00:00	20169	57	-52.7	-84.6	214	4
2023-09-02T00:00	20192	57	-52.3	-84.3	230	3
2023-09-02T00:00	20219	56	-52.5	-84.4	245	4
2023-09-02T00:00	20239	56	-52.4	-84.4	258	4
2023-09-02T00:00	20263	56	-52.4	-85.1	268	4
2023-09-02T00:00	20285	56	-52.2	-84.9	273	4
2023-09-02T00:00	20311	56	-52.1	-84.8	275	4
2023-09-02T00:00	20336	55	-51.9	-84.7	272	3
2023-09-02T00:00	20354	55	-51.8	-84.6	265	3
2023-09-02T00:00	20381	55	-51.9	-84.7	257	3
2023-09-02T00:00	20403	55	-52.1	-84.2	249	3
2023-09-02T00:00	20425	55	-52.2	-84.2	243	3
2023-09-02T00:00	20448	54	-52.2	-84.2	239	3
2023-09-02T00:00	20476	54	-52.3	-84.3	236	3
2023-09-02T00:00	20498	54	-52.2	-84.2	234	3
2023-09-02T00:00	20520	54	-52.3	-84.3	234	3
2023-09-02T00:00	20551	54	-52.2	-84.2	235	3
2023-09-02T00:00	20572	53	-52.3	-84.3	239	3
2023-09-02T00:00	20602	53	-52.4	-84.4	245	4
2023-09-02T00:00	20621	53	-52.3	-84.3	254	4
2023-09-02T00:00	20647	53	-52.3	-84.3	262	4
2023-09-02T00:00	20667	53	-52.3	-84.3	270	4
2023-09-02T00:00	20697	52	-52.4	-84.4	278	5
2023-09-02T00:00	20722	52	-52.3	-84.3	285	5
2023-09-02T00:00	20742	52	-52.4	-84.4	291	5
2023-09-02T00:00	20769	52	-52.5	-84.4	297	5
2023-09-02T00:00	20790	52	-52.3	-84.3	302	4
2023-09-02T00:00	20811	51	-52.1	-84.8	306	4
2023-09-02T00:00	20838	51	-51.9	-84.7	310	3
2023-09-02T00:00	20864	51	-51.8	-84.6	316	2
2023-09-02T00:00	20888	51	-51.8	-84.6	328	1
2023-09-02T00:00	20915	51	-51.9	-84.7	349	1
2023-09-02T00:00	20938	50	-52.0	-84.8	4	1
2023-09-02T00:00	20965	50	-52.0	-84.8	2	1
2023-09-02T00:00	20986	50	-51.5	-84.4	353	2
2023-09-02T00:00	21011	50	-51.4	-84.3	346	3
2023-09-02T00:00	21037	50	-51.4	-84.3	342	3
2023-09-02T00:00	21057	49	-51.5	-84.4	341	4
2023-09-02T00:00	21083	49	-51.6	-84.5	344	4
2023-09-02T00:00	21102	49	-51.7	-84.5	349	3
2023-09-02T00:00	21132	49	-51.7	-84.5	357	3
2023-09-02T00:00	21157	49	-51.6	-84.5	6	2
2023-09-02T00:00	21182	49	-51.6	-84.5	14	2
2023-09-02T00:00	21208	48	-51.7	-84.5	22	1
2023-09-02T00:00	21233	48	-51.8	-84.6	32	1
2023-09-02T00:00	21256	48	-51.6	-84.5	131	0
2023-09-02T00:00	21280	48	-51.6	-84.5	187	1
2023-09-02T00:00	21306	48	-51.7	-84.5	196	1
2023-09-02T00:00	21333	47	-51.7	-84.5	203	2
2023-09-02T00:00	21353	47	-51.8	-84.6	211	2
2023-09-02T00:00	21377	47	-51.7	-84.5	221	2
2023-09-02T00:00	21405	47	-51.7	-84.5	232	2
2023-09-02T00:00	21429	47	-51.5	-84.4	246	2
2023-09-02T00:00	21452	47	-51.3	-84.3	260	2
2023-09-02T00:00	21483	46	-51.2	-84.2	274	3
2023-09-02T00:00	21502	46	-51.3	-84.3	286	3
2023-09-02T00:00	21532	46	-51.2	-84.2	296	3
2023-09-02T00:00	21550	46	-51.2	-84.2	303	3
2023-09-02T00:00	21574	46	-51.2	-84.2	310	3
2023-09-02T00:00	21600	46	-51.3	-84.3	317	4
2023-09-02T00:00	21628	45	-51.5	-84.4	324	4
2023-09-02T00:00	21658	45	-51.7	-84.5	330	4
2023-09-02T00:00	21682	45	-51.9	-84.0	336	4
2023-09-02T00:00	21702	45	-52.0	-84.1	342	4
2023-09-02T00:00	21730	45	-51.9	-84.0	347	4
2023-09-02T00:00	21756	44	-52.0	-84.1	352	4
2023-09-02T00:00	21775	44	-52.2	-84.2	356	4
2023-09-02T00:00	21809	44	-52.2	-84.2	360	3
2023-09-02T00:00	21828	44	-52.3	-84.3	1	3
2023-09-02T00:00	21851	44	-52.2	-84.2	359	2
2023-09-02T00:00	21872	44	-52.3	-84.3	353	2
2023-09-02T00:00	21903	43	-52.3	-85.0	346	2
2023-09-02T00:00	21925	43	-52.2	-84.9	342	2
2023-09-02T00:00	21952	43	-52.0	-84.8	343	2
2023-09-02T00:00	21973	43	-51.9	-84.7	348	2
2023-09-02T00:00	22003	43	-51.9	-84.7	355	2
2023-09-02T00:00	22027	43	-51.9	-84.7	3	3
2023-09-02T00:00	22051	42	-52.0	-84.8	10	3
2023-09-02T00:00	22075	42	-52.1	-84.8	17	3
2023-09-02T00:00	22096	42	-52.1	-84.8	21	3
2023-09-02T00:00	22121	42	-52.2	-84.2	26	4
2023-09-02T00:00	22145	42	-52.2	-84.2	30	4
2023-09-02T00:00	22169	42	-52.2	-84.2	34	3
2023-09-02T00:00	22197	42	-52.2	-84.2	40	3
2023-09-02T00:00	22215	41	-52.1	-84.2	49	3
2023-09-02T00:00	22246	41	-52.2	-84.2	63	2
2023-09-02T00:00	22273	41	-52.2	-84.9	80	2
2023-09-02T00:00	22287	41	-52.3	-85.0	99	2
2023-09-02T00:00	22317	41	-52.2	-84.9	112	2
2023-09-02T00:00	22349	41	-52.2	-84.9	121	3
2023-09-02T00:00	22370	40	-52.1	-84.8	124	3
2023-09-02T00:00	22395	40	-51.9	-84.7	123	3
2023-09-02T00:00	22421	40	-51.8	-84.6	119	3
2023-09-02T00:00	22443	40	-51.8	-84.6	113	3
2023-09-02T00:00	22470	40	-51.8	-84.6	107	3
2023-09-02T00:00	22493	40	-51.8	-84.6	103	3
2023-09-02T00:00	22516	40	-51.7	-84.5	101	4
2023-09-02T00:00	22542	39	-51.7	-84.5	101	4
2023-09-02T00:00	22572	39	-51.9	-84.7	103	4
2023-09-02T00:00	22595	39	-51.9	-84.7	107	3
2023-09-02T00:00	22614	39	-51.9	-84.7	115	3
2023-09-02T00:00	22644	39	-51.9	-84.7	125	3
2023-09-02T00:00	22670	39	-51.9	-84.7	138	3
2023-09-02T00:00	22694	38	-51.9	-84.7	151	3
2023-09-02T00:00	22723	38	-52.0	-84.8	160	3
2023-09-02T00:00	22747	38	-52.2	-84.9	167	4
2023-09-02T00:00	22773	38	-52.3	-85.0	172	4
2023-09-02T00:00	22799	38	-52.2	-84.9	176	4
2023-09-02T00:00	22820	38	-52.1	-84.8	181	4
2023-09-02T00:00	22850	38	-51.8	-84.6	185	4
2023-09-02T00:00	22867	37	-51.6	-84.5	187	4
2023-09-02T00:00	22895	37	-51.6	-84.5	189	4
2023-09-02T00:00	22918	37	-51.8	-84.6	189	3
2023-09-02T00:00	22940	37	-51.8	-84.6	188	3
2023-09-02T00:00	22962	37	-51.8	-84.6	186	3
2023-09-02T00:00	22988	37	-51.8	-84.6	184	2
2023-09-02T00:00	23016	37	-51.8	-84.6	185	2
2023-09-02T00:00	23038	36	-51.6	-84.5	189	3
2023-09-02T00:00	23061	36	-51.6	-84.5	195	3
2023-09-02T00:00	23082	36	-51.5	-84.4	202	3
2023-09-02T00:00	23110	36	-51.5	-84.4	209	4
2023-09-02T00:00	23134	36	-51.5	-84.4	216	4
2023-09-02T00:00	23161	36	-51.3	-84.3	223	4
2023-09-02T00:00	23188	36	-51.2	-85.0	230	5
2023-09-02T00:00	23208	36	-51.1	-84.9	236	5
2023-09-02T00:00	23232	35	-50.9	-84.7	243	4
2023-09-02T00:00	23258	35	-50.8	-84.7	249	4
2023-09-02T00:00	23285	35	-50.7	-84.6	255	4
2023-09-02T00:00	23307	35	-50.5	-84.5	263	3
2023-09-02T00:00	23332	35	-50.2	-84.2	273	3
2023-09-02T00:00	23356	35	-50.3	-84.3	287	2
2023-09-02T00:00	23391	35	-50.3	-84.3	305	2
2023-09-02T00:00	23410	34	-50.2	-84.2	327	2
2023-09-02T00:00	23445	34	-50.3	-84.3	350	2
2023-09-02T00:00	23460	34	-50.4	-84.4	8	2
2023-09-02T00:00	23490	34	-50.5	-83.7	18	2
2023-09-02T00:00	23521	34	-50.6	-83.7	22	3
2023-09-02T00:00	23547	34	-50.5	-83.7	21	3
2023-09-02T00:00	23568	34	-50.6	-83.7	15	3
2023-09-02T00:00	23596	33	-50.6	-84.5	7	2
2023-09-02T00:00	23617	33	-50.5	-84.5	358	2
2023-09-02T00:00	23638	33	-50.4	-84.4	348	2
2023-09-02T00:00	23676	33	-50.5	-84.5	336	1
2023-09-02T00:00	23692	33	-50.5	-84.5	323	1
2023-09-02T00:00	23721	33	-50.5	-84.5	309	2
2023-09-02T00:00	23743	33	-50.6	-84.5	301	2
2023-09-02T00:00	23774	33	-50.6	-84.5	298	3
2023-09-02T00:00	23791	32	-50.5	-84.5	298	3
2023-09-02T00:00	23824	32	-50.6	-84.5	300	4
2023-09-02T00:00	23847	32	-50.6	-84.5	303	5
2023-09-02T00:00	23871	32	-50.7	-84.6	307	5
2023-09-02T00:00	23899	32	-50.2	-84.2	312	5
2023-09-02T00:00	23921	32	-50.1	-84.2	316	5
2023-09-02T00:00	23957	32	-49.9	-84.0	320	5
2023-09-02T00:00	23986	32	-49.8	-84.0	323	5
2023-09-02T00:00	24000	31	-49.7	-83.9	325	5
2023-09-02T00:00	24028	31	-49.4	-83.7	329	5
2023-09-02T00:00	24061	31	-49.2	-84.4	333	4
2023-09-02T00:00	24088	31	-49.1	-84.3	338	4
2023-09-02T00:00	24113	31	-49.1	-84.3	343	3
2023-09-02T00:00	24140	31	-48.9	-83.3	348	3
2023-09-02T00:00	24166	31	-48.9	-83.3	350	3
2023-09-02T00:00	24194	31	-48.9	-83.3	351	3
2023-09-02T00:00	24212	30	-49.0	-83.4	352	3
2023-09-02T00:00	24248	30	-49.0	-83.4	352	3
2023-09-02T00:00	24269	30	-49.0	-83.4	352	3
2023-09-02T00:00	24295	30	-49.0	-83.4	352	3
2023-09-02T00:00	24328	30	-48.7	-84.1	351	3
2023-09-02T00:00	24357	30	-48.5	-83.9	350	3
2023-09-02T00:00	24375	30	-48.6	-83.1	347	3
2023-09-02T00:00	24403	30	-48.5	-83.0	344	3
2023-09-02T00:00	24427	29	-48.7	-83.2	342	3
2023-09-02T00:00	24453	29	-48.9	-83.3	343	3
2023-09-02T00:00	24481	29	-49.0	-83.4	346	3
2023-09-02T00:00	24515	29	-49.1	-83.4	351	3
2023-09-02T00:00	24537	29	-49.1	-83.4	357	3
2023-09-02T00:00	24570	29	-49.2	-83.5	0	3
2023-09-02T00:00	24598	29	-49.2	-83.5	1	3
2023-09-02T00:00	24627	29	-49.3	-83.6	358	3
2023-09-02T00:00	24655	28	-49.4	-83.7	352	3
2023-09-02T00:00	24683	28	-49.4	-83.7	346	3
2023-09-02T00:00	24707	28	-49.4	-83.7	340	3
2023-09-02T00:00	24739	28	-49.4	-83.7	336	4
2023-09-02T00:00	24765	28	-49.5	-83.7	333	4
2023-09-02T00:00	24789	28	-49.6	-83.8	331	4
2023-09-02T00:00	24817	28	-49.6	-83.8	331	4
2023-09-02T00:00	24845	28	-49.5	-83.7	333	5
2023-09-02T00:00	24873	28	-49.6	-83.8	338	5
2023-09-02T00:00	24897	27	-49.5	-83.7	346	5
2023-09-02T00:00	24921	27	-49.5	-83.7	353	5
2023-09-02T00:00	24953	27	-49.4	-83.7	360	5
2023-09-02T00:00	24976	27	-49.3	-83.6	5	6
2023-09-02T00:00	25004	27	-49.2	-83.5	10	6
2023-09-02T00:00	25028	27	-49.2	-83.5	14	6
2023-09-02T00:00	25061	27	-49.2	-84.4	18	5
2023-09-02T00:00	25085	27	-48.9	-84.2	22	5
2023-09-02T00:00	25105	27	-48.9	-84.2	26	4
2023-09-02T00:00	25127	26	-49.0	-84.3	30	4
2023-09-02T00:00	25153	26	-49.0	-84.3	33	4
2023-09-02T00:00	25180	26	-48.9	-84.2	36	5
2023-09-02T00:00	25213	26	-48.6		40	5
2023-09-02T00:00	25234	26	-48.2	-83.7	44	5
2023-09-02T00:00	25254	26	-48.2	-83.7	49	6
2023-09-02T00:00	25287	26	-48.4	-83.8	55	5
2023-09-02T00:00	25311	26	-48.5	-83.9	61	5
2023-09-02T00:00	25339	26	-48.6		68	4
2023-09-02T00:00	25362	26	-48.6		74	4
2023-09-02T00:00	25386	25	-48.7	-84.1	79	3
2023-09-02T00:00	25411	25	-48.8	-84.1	81	3
2023-09-02T00:00	25435	25	-48.8	-84.1	81	3
2023-09-02T00:00	25462	25	-48.7	-84.1	79	3
2023-09-02T00:00	25486	25	-48.7	-84.1	77	3
2023-09-02T00:00	25506	25	-48.7	-84.1	77	4
2023-09-02T00:00	25540	25	-48.6		78	4
2023-09-02T00:00	25556	25	-48.5	-83.9	82	4
2023-09-02T00:00	25587	25	-48.1	-83.6	87	4
2023-09-02T00:00	25614	25	-48.1	-83.6	93	5
2023-09-02T00:00	25642	25	-48.1	-83.6	100	5
2023-09-02T00:00	25670	24	-48.2	-83.7	107	5
2023-09-02T00:00	25688	24	-48.2	-83.7	114	5
2023-09-02T00:00	25720	24	-48.3	-83.8	120	5
2023-09-02T00:00	25745	24	-48.4	-83.8	125	5
2023-09-02T00:00	25768	24	-48.4	-83.8	130	6
2023-09-02T00:00	25791	24	-48.2	-83.7	135	6
2023-09-02T00:00	25818	24	-48.3	-83.8	142	6
2023-09-02T00:00	25848	24	-48.3	-83.8	151	6
2023-09-02T00:00	25879	24	-48.0	-83.6	160	6
2023-09-02T00:00	25907	24	-47.8	-83.4	170	5
2023-09-02T00:00	25939	23	-47.5	-83.2	179	5
2023-09-02T00:00	25970	23	-47.4	-83.1	186	5
2023-09-02T00:00	25986	23	-47.4	-83.1	192	5
2023-09-02T00:00	26020	23	-47.2	-83.0	196	5
2023-09-02T00:00	26042	23	-47.1	-82.9	198	5
2023-09-02T00:00	26067	23	-47.0	-82.9	200	6
2023-09-02T00:00	26102	23	-47.1	-82.9	203	6
2023-09-02T00:00	26126	23	-47.3	-83.1	206	7
2023-09-02T00:00	26158	23	-47.4	-83.1	210	7
2023-09-02T00:00	26185	23	-47.6	-83.3	213	7
2023-09-02T00:00	26216	22	-47.7	-83.4	216	8
2023-09-02T00:00	26248	22	-47.7	-83.4	219	8
2023-09-02T00:00	26274	22	-47.6	-83.3	221	8
2023-09-02T00:00	26296	22	-47.5	-83.2	224	8
2023-09-02T00:00	26321	22	-47.5	-83.2	228	8
2023-09-02T00:00	26357	22	-47.4	-83.1	232	7
2023-09-02T00:00	26390	22	-47.3	-83.1	236	7
2023-09-02T00:00	26418	22	-47.2	-83.0	240	6
2023-09-02T00:00	26444	22	-47.2	-83.0	244	6
2023-09-02T00:00	26472	22	-47.0	-82.9	246	5
2023-09-02T00:00	26502	22	-47.0	-82.9	248	4
2023-09-02T00:00	26521	21	-47.0	-82.9	248	4
2023-09-02T00:00	26555	21	-46.9	-82.8	248	3
2023-09-02T00:00	26592	21	-46.8	-82.7	246	2
2023-09-02T00:00	26611	21	-46.9	-82.8	241	2
2023-09-02T00:00	26635	21	-47.0	-82.9	228	1
2023-09-02T00:00	26667	21	-47.1	-82.9	206	1
2023-09-02T00:00	26693	21	-47.2	-83.0	186	1
2023-09-02T00:00	26721	21	-47.2	-83.0	176	2
2023-09-02T00:00	26748	21	-47.2	-83.0	172	2
2023-09-02T00:00	26772	21	-47.2	-83.0	170	2
2023-09-02T00:00	26802	21	-47.3	-83.1	169	2
2023-09-02T00:00	26832	20	-47.4	-83.1	167	2
2023-09-02T00:00	26862	20	-47.5	-83.2	166	2
2023-09-02T00:00	26882	20	-47.6	-83.3	165	2
2023-09-02T00:00	26903	20	-47.7	-83.4	164	1
2023-09-02T00:00	26951	20	-47.7	-83.4	157	1
2023-09-02T00:00	26966	20	-47.8	-83.4	105	0
2023-09-02T00:00	26994	20	-47.8	-83.4	39	1
2023-09-02T00:00	27018	20	-47.9	-83.5	31	1
2023-09-02T00:00	27030	20	-47.7	-83.4	31	2
2023-09-02T00:00	27069	20	-47.5	-83.2	33	3
2023-09-02T00:00	27085	20	-47.6	-83.3	34	3
2023-09-02T00:00	27120	20	-47.6	-83.3	36	3
2023-09-02T00:00	27146	20	-47.5	-83.2	38	3
2023-09-02T00:00	27171	19	-47.4	-83.1	41	3
2023-09-02T00:00	27198	19	-47.4	-84.2	44	3
2023-09-02T00:00	27219	19	-47.4	-84.2	47	3
2023-09-02T00:00	27252	19	-46.9	-83.9	48	3
2023-09-02T00:00	27286	19	-46.7	-83.7	47	3
2023-09-02T00:00	27304	19	-46.6	-83.6	46	3
2023-09-02T00:00	27331	19	-46.5	-83.6	44	4
2023-09-02T00:00	27364	19	-46.3	-83.4	42	4
2023-09-02T00:00	27391	19	-46.1	-83.3	40	4
2023-09-02T00:00	27406	19	-45.9	-83.2	38	4
2023-09-02T00:00	27432	19	-45.8	-83.1	36	5
2023-09-02T00:00	27456	19	-45.7	-83.0	34	5
2023-09-02T00:00	27482	19	-45.7	-83.0	32	5
2023-09-02T00:00	27518	18	-45.7	-83.0	30	4
2023-09-02T00:00	27554	18	-45.8	-83.1	30	4
2023-09-02T00:00	27563	18	-45.6	-82.9	30	4
2023-09-02T00:00	27597	18	-45.5	-82.9	32	5
2023-09-02T00:00	27626	18	-45.4	-82.8	34	5
2023-09-02T00:00	27664	18	-45.1	-82.6	38	5
2023-09-02T00:00	27686	18	-45.1	-82.6	43	5
2023-09-02T00:00	27712	18	-45.1	-82.6	48	5
2023-09-02T00:00	27742	18	-45.1	-82.6	53	5
2023-09-02T00:00	27768	18	-45.2	-82.7	58	5
2023-09-02T00:00	27798	18	-45.2	-82.7	63	5
2023-09-02T00:00	27831	18	-45.2	-82.7	69	5
2023-09-02T00:00	27852	18	-45.2	-82.7	75	5
2023-09-02T00:00	27891	17	-45.0	-82.5	81	5
2023-09-02T00:00	27918	17	-45.0	-82.5	86	5
2023-09-02T00:00	27953	17	-45.0	-82.5	89	5
2023-09-02T00:00	27979	17	-45.1	-82.6	91	5
2023-09-02T00:00	28006	17	-45.2	-82.7	93	5
2023-09-02T00:00	28034	17	-45.2	-82.7	95	5
2023-09-02T00:00	28061	17	-45.5	-82.9	98	5
2023-09-02T00:00	28093	17	-45.7	-83.0	103	6
2023-09-02T00:00	28122	17	-45.8	-83.1	109	6
2023-09-02T00:00	28143	17	-45.9	-83.2	116	6
2023-09-02T00:00	28171	17	-46.0	-83.2	123	6
2023-09-02T00:00	28206	17	-46.3	-83.4	130	6
2023-09-02T00:00	28240	17	-46.4	-83.5	137	6
2023-09-02T00:00	28255	17	-46.5	-83.6	143	6
2023-09-02T00:00	28287	16	-46.6	-83.6	150	5
2023-09-02T00:00	28312	16	-46.7	-83.7	157	5
2023-09-02T00:00	28333	16	-46.8	-83.8	165	5
2023-09-02T00:00	28359	16	-46.8	-83.8	174	4
2023-09-02T00:00	28395	16	-46.8	-83.8	184	4
2023-09-02T00:00	28420	16	-46.6	-83.6	195	4
2023-09-02T00:00	28442	16	-46.6	-83.6	205	4
2023-09-02T00:00	28467	16	-46.3	-83.4	215	4
2023-09-02T00:00	28495	16	-45.9	-83.2	223	3
2023-09-02T00:00	28529	16	-45.5	-82.9	228	3
2023-09-02T00:00	28548	16	-45.4	-82.8	230	3
2023-09-02T00:00	28570	16	-45.2	-82.7	227	2
2023-09-02T00:00	28613	16	-45.0	-82.5	219	2
2023-09-02T00:00	28634	16	-44.7	-82.3	211	2
2023-09-02T00:00	28654	16	-44.6	-82.2	206	3
2023-09-02T00:00	28681	16	-44.6	-82.2	205	3
2023-09-02T00:00	28702	15	-44.6	-82.2	206	4
2023-09-02T00:00	28736	15	-44.7	-82.3	209	4
2023-09-02T00:00	28761	15	-44.8	-82.4	212	4
2023-09-02T00:00	28785	15	-44.9	-82.5	218	4
2023-09-02T00:00	28825	15	-44.8	-82.4	225	4
2023-09-02T00:00	28846	15	-44.8	-82.4	234	4
2023-09-02T00:00	28860	15	-44.8	-82.4	246	3
2023-09-02T00:00	28879	15	-44.7	-82.3	258	3
2023-09-02T00:00	28920	15	-44.5	-82.2	267	3
2023-09-02T00:00	28943	15	-44.6	-82.2	273	3
2023-09-02T00:00	28964	15	-44.6	-82.2	275	2
2023-09-02T00:00	28991	15	-44.4	-82.1	272	1
2023-09-02T00:00	29029	15	-44.1	-81.9	258	1
2023-09-02T00:00	29057	15	-44.0	-81.8	217	1
2023-09-02T00:00	29076	15	-43.9	-81.8	182	1
2023-09-02T00:00	29099	15	-43.9	-81.8	171	1
2023-09-02T00:00	29138	15	-43.8	-81.7	170	1
2023-09-02T00:00	29160	14	-43.7	-81.6	172	1
2023-09-02T00:00	29190	14	-43.7	-81.6	179	1
2023-09-02T00:00	29223	14	-43.7	-81.6	193	1
2023-09-02T00:00	29250	14	-43.8	-81.7	210	1
2023-09-02T00:00	29266	14	-43.8	-81.7	219	1
2023-09-02T00:00	29288	14	-43.8	-81.7	218	1
2023-09-02T00:00	29327	14	-43.9	-81.8	215	1
2023-09-02T00:00	29366	14	-43.8	-81.7	214	1
2023-09-02T00:00	29386	14	-43.9	-81.8	222	1
2023-09-02T00:00	29417	14	-43.9	-81.8	247	1
2023-09-02T00:00	29444	14	-43.9	-81.8	291	1
2023-09-02T00:00	29468	14	-43.9	-81.8	317	1
2023-09-02T00:00	29501	14	-43.9	-81.8	329	2
2023-09-02T00:00	29539	14	-43.8	-81.7	337	2
2023-09-02T00:00	29553	14	-43.7	-81.6	343	2
2023-09-02T00:00	29590	14	-43.5	-81.5	351	3
2023-09-02T00:00	29616	14	-43.6	-81.5	360	3
2023-09-02T00:00	29647	13	-43.8	-81.7	7	3
2023-09-02T00:00	29670	13	-43.8	-81.7	12	3
2023-09-02T00:00	29704	13	-43.8	-81.7	13	3
2023-09-02T00:00	29722	13	-43.7	-81.6	12	3
2023-09-02T00:00	29757	13	-43.8	-81.7	9	3
2023-09-02T00:00	29789	13	-43.9	-81.8	5	3
2023-09-02T00:00	29814	13	-44.0	-81.8	1	3
2023-09-02T00:00	29844	13	-43.9	-81.8	358	3
2023-09-02T00:00	29876	13	-43.8	-81.7	355	3
2023-09-02T00:00	29899	13	-43.9	-81.8	354	2
2023-09-02T00:00	29910	13	-43.9	-81.8	354	2
2023-09-02T00:00	29964	13	-44.1	-81.9	356	2
2023-09-02T00:00	29990	13	-44.2	-82.0	0	2
2023-09-02T00:00	30010	13	-44.3	-82.0	6	2
2023-09-02T00:00	30047	13	-44.4	-82.1	12	2
2023-09-02T00:00	30072	13	-44.4	-82.1	16	1
2023-09-02T00:00	30109	13	-44.5	-82.2	14	1
2023-09-02T00:00	30130	13	-44.6	-82.2	6	1
2023-09-02T00:00	30155	12	-44.7	-82.3	357	1
2023-09-02T00:00	30191	12	-44.8	-82.4	351	2
2023-09-02T00:00	30216	12	-44.9	-82.5	350	2
2023-09-02T00:00	30231	12	-45.0	-82.5	356	1
2023-09-02T00:00	30256	12	-45.1	-82.6	14	1
2023-09-02T00:00	30298	12	-45.1	-82.6	38	1
2023-09-02T00:00	30328	12	-45.2	-82.7	57	2
2023-09-02T00:00	30347	12	-45.4	-82.8	69	2
2023-09-02T00:00	30358	12	-45.5	-82.9	79	2
2023-09-02T00:00	30396	12	-45.4	-82.8	88	2
2023-09-02T00:00	30433	12	-45.1	-82.6	100	2
2023-09-02T00:00	30463	12	-45.0	-82.5	116	2
2023-09-02T00:00	30500	12	-45.0	-82.5	132	2
2023-09-02T00:00	30536	12	-45.2	-82.7	155	2
2023-09-02T00:00	30566	12	-45.4	-82.8	160	2
2023-09-02T00:00	30585	12	-45.3	-82.7	163	2
2023-09-02T00:00	30616	12	-45.3	-82.7	171	1
2023-09-02T00:00	30657	12	-45.2	-82.7	235	0
2023-09-02T00:00	30695	12	-45.0	-82.5	299	1
2023-09-02T00:00	30708	11	-45.1	-82.6	306	2
2023-09-02T00:00	30725	11	-45.0	-82.5	308	3
2023-09-02T00:00	30754	11	-45.1	-82.6	309	4
2023-09-02T00:00	30795	11	-45.1	-82.6	311	4
2023-09-02T00:00	30833	11	-45.0	-82.5	314	4
2023-09-02T00:00	30850	11	-44.7	-82.3	320	4
2023-09-02T00:00	30875	11	-44.3	-82.0	326	4
2023-09-02T00:00	30904	11	-44.0	-81.8	333	3
2023-09-02T00:00	30916	11	-43.6	-81.5	339	3
2023-09-02T00:00	30960	11	-42.9	-81.1	342	3
2023-09-02T00:00	30984	11	-42.6	-80.8	345	3
2023-09-02T00:00	30994	11	-42.4	-80.7	349	2
2023-09-02T00:00	31032	11	-42.4	-80.7	354	2
2023-09-02T00:00	31070	11	-42.5	-80.8	0	2
2023-09-02T00:00	31091	11	-42.6	-80.8	6	3
2023-09-02T00:00	31115	11	-42.8	-81.0	11	3
2023-09-02T00:00	31154	11	-43.0	-81.1	16	2
2023-09-02T00:00	31168	11	-43.2	-81.3	21	2
2023-09-02T00:00	31211	11	-43.4	-81.4	23	2
2023-09-02T00:00	31234	11	-43.3	-81.3	19	1
2023-09-02T00:00	31238	11	-42.9	-81.1	354	1
2023-09-02T00:00	31282	11	-42.9	-81.1	313	1
2023-09-02T00:00	31312	10	-43.1	-81.2	294	2
2023-09-02T00:00	31350	10	-43.2	-81.3	290	2
2023-09-02T00:00	31365	10	-43.4	-81.4	290	3
2023-09-02T00:00	31401	10	-43.5	-81.5	292	3
2023-09-02T00:00	31424	10	-43.5	-81.5	296	3
2023-09-02T00:00	31446	10	-43.5	-81.5	300	4
2023-09-02T00:00	31475	10	-43.3	-81.3	306	4
2023-09-02T00:00	31515	10	-43.1	-81.2	313	4
2023-09-02T00:00	31530	10	-42.8	-81.0	321	4
2023-09-02T00:00	31544	10	-42.7	-80.9	331	4
2023-09-02T00:00	31579	10	-42.4	-80.7	341	4
2023-09-02T00:00	31606	10	-42.2	-80.6	349	3
2023-09-02T00:00	31643	10	-42.1	-80.5	357	3
2023-09-02T00:00	31669	10	-42.0	-80.4	5	3
2023-09-02T00:00	31686	10	-41.8	-80.3	12	3
2023-09-02T00:00	31715	10	-41.7	-80.2	20	3
2023-09-02T00:00	31754	10	-41.6	-80.1	28	3
2023-09-02T00:00	31758	10	-41.6	-80.1	33	3
2023-09-02T00:00	31832	10	-41.5	-80.1	36	3
2023-09-02T00:00	31852	10	-41.4	-80.0	34	3
2023-09-02T00:00	31901	10	-41.4	-80.0	32	3
2023-09-02T00:00	31916	10	-41.5	-80.1	30	3
2023-09-02T00:00	31917	10	-41.6	-80.1	29	3
2023-09-02T00:00	31945	10	-41.6	-80.1	30	3
2023-09-02T00:00	31992	9	-41.7	-80.2	35	2
2023-09-02T00:00	32032	9	-41.8	-80.3	44	2
2023-09-02T00:00	32053	9	-41.8	-80.3	60	2
2023-09-02T00:00	32069	9	-41.9	-80.4	79	2
2023-09-02T00:00	32099	9	-41.8	-80.3	95	2
2023-09-02T00:00	32121	9	-41.6	-80.1	104	3
2023-09-02T00:00	32160	9	-41.5	-80.1	110	3
2023-09-02T00:00	32188	9	-41.4	-80.0	113	4
2023-09-02T00:00	32225	9	-41.4	-80.0	116	4
2023-09-02T00:00	32241	9	-41.5	-80.1	119	4
2023-09-02T00:00	32262	9	-41.5	-80.1	121	4
2023-09-02T00:00	32291	9	-41.6	-80.1	124	3
2023-09-02T00:00	32319	9	-41.6	-80.1	126	3
2023-09-02T00:00	32341	9	-41.4	-80.0	128	3
2023-09-02T00:00	32367	9	-41.3	-79.9	131	2
2023-09-02T00:00	32405	9	-41.3	-79.9	132	2
2023-09-02T00:00	32440	9	-41.3	-79.9	131	1
2023-09-02T00:00	32458	9	-41.4	-80.0	101	0
2023-09-02T00:00	32485	9	-41.4	-80.0	10	1
2023-09-02T00:00	32516	9	-41.2	-79.9	2	1
2023-09-02T00:00	32566	9	-41.2	-79.9	4	2
2023-09-02T00:00	32580	9	-41.1	-79.8	5	2
2023-09-02T00:00	32607	9	-41.0	-79.7	5	3
2023-09-02T00:00	32629	9	-40.9	-79.7	5	3
2023-09-02T00:00	32661	9	-40.6	-79.5	5	3
2023-09-02T00:00	32700	9	-40.3	-79.2	6	3
2023-09-02T00:00	32726	9	-40.1	-79.1	8	3
2023-09-02T00:00	32733	9	-40.1	-79.1	11	4
2023-09-02T00:00	32804	8	-40.1	-79.1	13	4
2023-09-02T00:00	32808	8	-40.3	-79.2	16	5
2023-09-02T00:00	32820	8	-40.4	-79.3	17	5
2023-09-02T00:00	32828	8	-40.4	-79.3	18	6
2023-09-02T00:00	32893	8	-40.5	-79.4	19	6
2023-09-02T00:00	32900	8	-40.3	-79.2	20	7
2023-09-02T00:00	32950	8	-40.2	-79.2	21	7
2023-09-02T00:00	32958	8	-40.1	-79.1	21	7
2023-09-02T00:00	32983	8	-40.1	-79.1	22	8
2023-09-02T00:00	33004	8	-39.9	-79.0	22	8
2023-09-02T00:00	33043	8	-39.9	-79.0	22	8
2023-09-02T00:00	33061	8	-39.9	-79.0	23	8
2023-09-02T00:00	33080	8	-40.0	-79.0	24	8
2023-09-02T00:00	33120	8	-40.0	-79.0	25	8
2023-09-02T00:00	33141	8	-40.0	-79.0	28	8
2023-09-02T00:00	33205	8	-40.1	-79.1	28	8
2023-09-02T00:00	33236	8	-40.0	-79.0	29	8
2023-09-02T00:00	33241	8	-40.0	-79.0	30	8
2023-09-02T00:00	33278	8	-39.9	-79.0	32	8
2023-09-02T00:00	33298	8	-39.9	-79.0	35	8
2023-09-02T00:00	33316	8	-39.7	-78.8	39	9
2023-09-02T00:00	33357	8	-39.7	-78.8	43	9
2023-09-02T00:00	33381	8	-39.8	-78.9	47	9
2023-09-02T00:00	33393	8	-39.6	-78.8	51	10
2023-09-02T00:00	33429	8	-39.4	-78.6	53	10
2023-09-02T00:00	33442	8	-39.3	-78.5	55	10
2023-09-02T00:00	33469	8	-39.3	-78.5	56	11
2023-09-02T00:00	33498	8	-39.2	-78.5	56	11
2023-09-02T00:00	33536	8	-39.0	-78.3	57	11
2023-09-02T00:00	33556	8	-39.0	-78.3	56	11
2023-09-02T00:00	33587	8	-39.0	-78.3	56	11
2023-09-02T00:00	33625	7	-39.0	-78.3	55	11
2023-09-02T00:00	33655	7	-39.0	-78.3	54	11
2023-09-02T00:00	33675	7	-39.1	-78.4	53	11
2023-09-02T00:00	33688	7	-39.2	-78.5	53	11
2023-09-02T00:00	33717	7	-39.3	-78.5	52	12
2023-09-02T00:00	33741	7	-39.5	-78.7	51	12
2023-09-02T00:00	33797	7	-39.6	-78.8	51	12
2023-09-02T00:00	33836	7	-39.8	-78.9	52	12
2023-09-02T00:00	33855	7	-40.0	-79.0	54	12
2023-09-02T00:00	33880	7	-39.9	-79.0	57	12
2023-09-02T00:00	33889	7	-39.8	-78.9	60	12
2023-09-02T00:00	33936	7	-39.5	-78.7	63	11
2023-09-02T00:00	33955	7	-39.4	-78.6	66	11
2023-09-02T00:00	33966	7	-39.6	-78.8	69	11
2023-09-02T00:00	34017	7	-39.7	-78.8	72	10
2023-09-02T00:00	34036	7	-39.9	-79.0	76	10
2023-09-02T00:00	34063	7	-39.9	-79.0	80	9
2023-09-02T00:00	34093	7	-39.6	-78.8	84	9
2023-09-02T00:00	34109	7	-39.5	-78.7	86	8
2023-09-02T00:00	34153	7	-39.5	-78.7	88	8
2023-09-02T00:00	34170	7	-39.6	-78.8	89	7
2023-09-02T00:00	34228	7	-39.4	-78.6	89	6
2023-09-02T00:00	34240	7	-39.2	-78.5	89	6
2023-09-02T00:00	34246	7	-39.3	-78.5	88	5
2023-09-02T00:00	34312	7	-39.3	-78.5	86	5
2023-09-02T00:00	34313	7	-39.4	-78.6	80	5
2023-09-02T00:00	34364	7	-39.2	-78.5	68	5
2023-09-02T00:00	34381	7	-39.1	-78.4	64	6
2023-09-02T00:00	34405	7	-39.1	-78.4	61	6
2023-09-02T00:00	34422	7	-39.2	-78.5	58	6
2023-09-02T00:00	34458	7	-39.1	-78.4	55	7
2023-09-02T00:00	34473	7	-39.0	-78.3	53	7
2023-09-02T00:00	34510	7	-38.8	-78.2	51	7
2023-09-02T00:00	34531	7	-38.6	-78.1	50	7
2023-09-02T00:00	34566	7	-38.4	-77.9	51	6
2023-09-02T00:00	34572	7	-38.4	-77.9	53	6
2023-09-02T00:00	34621	6	-38.3	-77.9	56	6
2023-09-02T00:00	34626	6	-38.3	-77.9	60	7
2023-09-02T00:00	34697	6	-38.4	-77.9	64	7
2023-09-02T00:00	34732	6	-38.3	-77.9	79	7
2023-09-02T00:00	34742	6	-38.3	-77.9	83	7
2023-09-02T00:00	34784	6	-38.2	-77.8	87	7
2023-09-02T00:00	34823	6	-38.3	-77.9	89	6
2023-09-02T00:00	34848	6	-38.3	-77.9	85	6
2023-09-02T06:00	116	1005	13.6	10.7	357	1
2023-09-02T06:00	144	1001	15.8	9.5	355	2
2023-09-02T06:00	167	999	16.1	9.4	2	2
2023-09-02T06:00	191	996	16.1	9.6	5	2
2023-09-02T06:00	213	993	15.9	9.1	7	2
2023-09-02T06:00	237	990	15.8	9.3	8	2
2023-09-02T06:00	261	988	15.8	9.3	8	2
2023-09-02T06:00	284	985	15.7	9.4	5	2
2023-09-02T06:00	312	982	15.5	9.3	2	2
2023-09-02T06:00	333	979	15.3	9.3	358	2
2023-09-02T06:00	358	976	15.2	9.1	354	2
2023-09-02T06:00	381	974	15.0	9.1	351	2
2023-09-02T06:00	401	971	14.9	8.9	348	2
2023-09-02T06:00	422	969	15.0	7.7	346	2
2023-09-02T06:00	445	966	14.9	8.8	344	2
2023-09-02T06:00	465	964	14.7	8.7	341	1
2023-09-02T06:00	486	962	14.6	8.7	337	1
2023-09-02T06:00	505	960	14.4	8.6	330	1
2023-09-02T06:00	528	957	14.2	8.4	322	1
2023-09-02T06:00	551	954	14.1	8.0	316	1
2023-09-02T06:00	575	952	13.9	8.1	309	1
2023-09-02T06:00	605	949	13.7	8.1	303	1
2023-09-02T06:00	627	946	13.5	8.0	298	1
2023-09-02T06:00	650	943	13.4	8.2	296	2
2023-09-02T06:00	670	941	13.2	8.6	297	2
2023-09-02T06:00	691	939	13.1	8.6	301	3
2023-09-02T06:00	709	937	13.0	8.9	307	3
2023-09-02T06:00	731	934	12.8	8.9	316	3
2023-09-02T06:00	753	932	12.7	8.9	326	3
2023-09-02T06:00	773	930	12.5	8.8	335	2
2023-09-02T06:00	793	927	12.4	8.8	343	2
2023-09-02T06:00	811	925	12.2	8.7	347	1
2023-09-02T06:00	832	923	12.1	8.7	338	1
2023-09-02T06:00	857	920	11.9	8.5	304	1
2023-09-02T06:00	879	918	11.7	8.4	285	1
2023-09-02T06:00	904	915	11.6	8.5	285	1
2023-09-02T06:00	925	913	11.4	8.4	287	1
2023-09-02T06:00	951	910	11.2	8.3	288	2
2023-09-02T06:00	979	907	10.9	8.2	286	2
2023-09-02T06:00	1005	904	10.8	8.1	284	2
2023-09-02T06:00	1028	902	10.6	7.9	284	2
2023-09-02T06:00	1052	899	10.4	7.3	284	2
2023-09-02T06:00	1077	897	10.2		284	2
2023-09-02T06:00	1098	894	10.0	7.0	285	2
2023-09-02T06:00	1125	891	9.8	6.8	288	2
2023-09-02T06:00	1151	888	9.7	6.4	291	2
2023-09-02T06:00	1179	886	9.5	6.6	292	3
2023-09-02T06:00	1200	883	9.3	6.8	290	3
2023-09-02T06:00	1224	881	9.2	6.3	285	3
2023-09-02T06:00	1252	878	9.0	6.3	281	3
2023-09-02T06:00	1277	875	8.8	6.2	277	3
2023-09-02T06:00	1294	873	8.7	6.4	277	3
2023-09-02T06:00	1318	871	8.5	6.1	278	3
2023-09-02T06:00	1341	869	8.3	6.0	278	3
2023-09-02T06:00	1359	866	8.2	6.1	275	3
2023-09-02T06:00	1384	864	7.9	5.9	268	3
2023-09-02T06:00	1410	861	7.7	5.8	262	4
2023-09-02T06:00	1436	859	7.6	5.4	257	5
2023-09-02T06:00	1459	856	7.5	5.1	255	5
2023-09-02T06:00	1483	854	7.5	4.3	254	6
2023-09-02T06:00	1506	851	7.3	5.2	255	6
2023-09-02T06:00	1530	849	7.1	5.7	256	6
2023-09-02T06:00	1551	847	6.9	5.9	258	6
2023-09-02T06:00	1570	844	6.8	5.9	261	5
2023-09-02T06:00	1596	842	6.6	5.9	266	5
2023-09-02T06:00	1619	840	6.5	5.7	271	5
2023-09-02T06:00	1643	837	6.6	4.8	277	5
2023-09-02T06:00	1667	835	6.7	2.8	283	5
2023-09-02T06:00	1693	832	6.8	-0.7	287	5
2023-09-02T06:00	1717	830	6.7	-2.1	289	5
2023-09-02T06:00	1739	827	6.6	-2.0	288	5
2023-09-02T06:00	1763	825	6.4	-1.7	285	5
2023-09-02T06:00	1784	823	6.2	-1.7	283	6
2023-09-02T06:00	1805	821	6.1	-1.8	281	7
2023-09-02T06:00	1824	819	5.9	2.0	280	8
2023-09-02T06:00	1846	817	5.8	3.1	280	8
2023-09-02T06:00	1872	814	5.7	3.5	281	9
2023-09-02T06:00	1898	811	5.6	4.8	282	9
2023-09-02T06:00	1927	809	5.4	4.9	283	9
2023-09-02T06:00	1953	806	5.5	4.6	284	9
2023-09-02T06:00	1976	804	5.7	4.5	284	9
2023-09-02T06:00	1998	802	5.8	4.2	283	9
2023-09-02T06:00	2026	799	5.8	4.0	283	9
2023-09-02T06:00	2045	797	5.8	4.0	283	9
2023-09-02T06:00	2069	795	5.8	3.7	283	9
2023-09-02T06:00	2094	792	5.6	3.6	283	8
2023-09-02T06:00	2122	790	5.3	3.9	282	9
2023-09-02T06:00	2144	788	5.2	4.1	281	9
2023-09-02T06:00	2166	785	5.0	3.9	280	9
2023-09-02T06:00	2186	784	4.9	3.5	280	10
2023-09-02T06:00	2205	782	4.9	3.7	281	9
2023-09-02T06:00	2227	780	4.7	3.7	282	9
2023-09-02T06:00	2250	777	4.5	3.5	283	9
2023-09-02T06:00	2273	775	4.3	3.2	284	8
2023-09-02T06:00	2291	773	4.2	3.3	284	8
2023-09-02T06:00	2316	771	4.1	3.0	283	9
2023-09-02T06:00	2342	769	3.9	2.6	281	9
2023-09-02T06:00	2364	767	3.8	2.4	280	9
2023-09-02T06:00	2390	764	3.7	2.3	279	9
2023-09-02T06:00	2415	762	3.6	2.1	278	9
2023-09-02T06:00	2437	760	3.5		278	8
2023-09-02T06:00	2457	758	3.4	1.0	277	8
2023-09-02T06:00	2482	755	3.2	0.9	278	8
2023-09-02T06:00	2509	753	3.0	1.0	279	7
2023-09-02T06:00	2531	751	2.8	0.9	281	7
2023-09-02T06:00	2552	749	2.7	0.0	283	8
2023-09-02T06:00	2578	747	2.6	-0.6	284	8
2023-09-02T06:00	2600	745	2.4	-0.4	284	9
2023-09-02T06:00	2621	743	2.3	-0.3	284	9
2023-09-02T06:00	2648	740	2.0	-0.6	283	9
2023-09-02T06:00	2672	738	1.9	-0.7	283	9
2023-09-02T06:00	2695	736	1.7	-0.6	283	9
2023-09-02T06:00	2718	734	1.5	-0.3	284	9
2023-09-02T06:00	2749	731	1.3	-0.1	286	9
2023-09-02T06:00	2775	729	1.0	-0.4	287	9
2023-09-02T06:00	2800	726	0.9	-0.5	287	9
2023-09-02T06:00	2823	724	0.7	-0.6	285	9
2023-09-02T06:00	2844	722	0.5	-0.7	283	9
2023-09-02T06:00	2868	720	0.3	-0.7	281	9
2023-09-02T06:00	2890	718	0.2	-0.8	281	9
2023-09-02T06:00	2913	716	0.0	-1.2	282	9
2023-09-02T06:00	2934	714	0.0	-1.5	284	10
2023-09-02T06:00	2963	712	-0.2	-1.9	285	10
2023-09-02T06:00	2987	710	-0.4	-2.3	285	11
2023-09-02T06:00	3009	708	-0.4	-2.8	285	11
2023-09-02T06:00	3029	706	-0.4	-3.5	285	11
2023-09-02T06:00	3052	704	-0.1	-3.9	287	10
2023-09-02T06:00	3071	702	-0.2	-4.1	289	10
2023-09-02T06:00	3094	700	-0.3	-4.2	292	10
2023-09-02T06:00	3115	698	-0.3	-4.6	295	10
2023-09-02T06:00	3137	696	-0.3	-5.7	295	10
2023-09-02T06:00	3162	694	-0.2	-6.6	294	11
2023-09-02T06:00	3184	692	-0.2	-7.6	292	11
2023-09-02T06:00	3212	690	-0.3	-7.4	290	11
2023-09-02T06:00	3237	688	-0.3	-7.3	289	11
2023-09-02T06:00	3258	686	-0.4	-8.8	288	11
2023-09-02T06:00	3275	685	-0.4	-9.0	287	11
2023-09-02T06:00	3296	683	-0.6	-9.4	287	11
2023-09-02T06:00	3324	680	-0.7	-10.1	287	11
2023-09-02T06:00	3357	678	-0.9	-11.0	287	11
2023-09-02T06:00	3393	675	-0.9	-13.5	288	11
2023-09-02T06:00	3421	672	-1.2	-11.6	290	11
2023-09-02T06:00	3450	670	-1.4	-12.3	293	11
2023-09-02T06:00	3472	668	-1.6	-11.2	295	10
2023-09-02T06:00	3495	666	-1.7	-12.0	297	10
2023-09-02T06:00	3519	664	-2.0	-11.5	298	10
2023-09-02T06:00	3540	662	-2.2	-10.6	299	10
2023-09-02T06:00	3565	660	-2.4	-11.2	299	11
2023-09-02T06:00	3586	658	-2.6	-10.9	298	11
2023-09-02T06:00	3606	657	-2.8	-11.7	297	11
2023-09-02T06:00	3630	655	-3.0	-11.3	296	12
2023-09-02T06:00	3651	653	-3.0	-12.6	295	11
2023-09-02T06:00	3669	651	-3.1	-12.7	295	11
2023-09-02T06:00	3694	649	-3.0	-12.7	296	11
2023-09-02T06:00	3722	647	-3.1	-12.5	297	12
2023-09-02T06:00	3743	645	-3.0	-16.0	298	12
2023-09-02T06:00	3763	644	-3.2	-16.2	299	12
2023-09-02T06:00	3786	642	-3.2	-17.2	298	13
2023-09-02T06:00	3807	640	-3.3	-18.0	297	13
2023-09-02T06:00	3832	638	-3.5	-16.9	295	13
2023-09-02T06:00	3854	636	-3.7	-15.7	294	14
2023-09-02T06:00	3881	634	-4.0	-15.7	294	14
2023-09-02T06:00	3913	632	-4.3	-16.1	293	14
2023-09-02T06:00	3940	630	-4.5	-17.0	294	14
2023-09-02T06:00	3963	628	-4.7	-17.5	294	14
2023-09-02T06:00	3987	626	-4.9	-17.4	295	14
2023-09-02T06:00	4011	624	-5.1	-17.0	296	14
2023-09-02T06:00	4035	622	-5.5	-12.6	297	14
2023-09-02T06:00	4060	620	-5.7	-12.9	297	14
2023-09-02T06:00	4091	618	-6.0	-13.1	296	14
2023-09-02T06:00	4118	616	-6.3	-13.1	294	14
2023-09-02T06:00	4138	614	-6.5	-13.1	293	14
2023-09-02T06:00	4161	612	-6.7	-13.2	292	13
2023-09-02T06:00	4181	610	-6.9	-13.4	291	13
2023-09-02T06:00	4210	608	-7.2	-13.8	290	13
2023-09-02T06:00	4235	606	-7.4	-13.7	290	13
2023-09-02T06:00	4258	604	-7.6	-13.7	290	14
2023-09-02T06:00	4283	603	-7.9	-14.1	291	14
2023-09-02T06:00	4307	601	-8.0	-14.5	292	15
2023-09-02T06:00	4332	599	-8.0	-18.0	293	15
2023-09-02T06:00	4349	597	-8.0	-19.1	294	15
2023-09-02T06:00	4370	596	-7.8	-22.7	295	16
2023-09-02T06:00	4395	594	-7.5	-26.6	295	16
2023-09-02T06:00	4422	592	-7.6	-26.2	295	17
2023-09-02T06:00	4441	590	-7.7	-25.8	294	17
2023-09-02T06:00	4468	588	-7.8	-26.6	294	17
2023-09-02T06:00	4495	586	-8.0	-27.3	293	16
2023-09-02T06:00	4518	585	-8.2	-27.8	292	16
2023-09-02T06:00	4540	583	-8.3	-27.9	290	16
2023-09-02T06:00	4560	581	-8.5	-27.8	289	16
2023-09-02T06:00	4591	579	-8.7	-28.4	287	17
2023-09-02T06:00	4614	578	-8.8	-29.3	286	17
2023-09-02T06:00	4633	576	-8.9	-29.3	285	17
2023-09-02T06:00	4658	574	-8.8	-31.0	285	17
2023-09-02T06:00	4684	572	-8.9	-31.0	284	17
2023-09-02T06:00	4706	571	-9.0	-30.5	284	17
2023-09-02T06:00	4730	569	-9.0	-31.0	285	17
2023-09-02T06:00	4751	567	-9.2	-30.1	287	17
2023-09-02T06:00	4772	566	-9.3	-30.5	289	17
2023-09-02T06:00	4798	564	-9.4	-32.0	291	17
2023-09-02T06:00	4820	562	-9.5	-31.3	293	17
2023-09-02T06:00	4839	561	-9.7	-30.8	294	18
2023-09-02T06:00	4862	559	-9.9	-30.2	295	18
2023-09-02T06:00	4885	558	-10.1	-29.8	295	18
2023-09-02T06:00	4908	556	-10.2	-29.2	294	19
2023-09-02T06:00	4931	554	-10.4	-29.2	294	19
2023-09-02T06:00	4962	552	-10.7	-29.3	294	19
2023-09-02T06:00	4983	550	-10.9	-29.3	293	19
2023-09-02T06:00	5004	549	-11.0	-29.0	292	18
2023-09-02T06:00	5032	547	-11.3	-28.9	291	18
2023-09-02T06:00	5065	545	-11.6	-29.0	290	18
2023-09-02T06:00	5086	543	-11.8	-29.0	290	18
2023-09-02T06:00	5110	541	-12.0	-28.9	290	18
2023-09-02T06:00	5135	540	-12.2	-28.7	289	18
2023-09-02T06:00	5161	538	-12.4	-28.8	289	18
2023-09-02T06:00	5181	536	-12.5	-28.8	289	18
2023-09-02T06:00	5202	535	-12.7	-28.7	289	18
2023-09-02T06:00	5230	533	-12.9	-28.9	289	18
2023-09-02T06:00	5253	531	-13.1	-30.3	289	18
2023-09-02T06:00	5279	530	-13.3	-30.6	290	18
2023-09-02T06:00	5303	528	-13.5	-30.7	290	17
2023-09-02T06:00	5327	526	-13.7	-31.3	290	17
2023-09-02T06:00	5356	524	-13.9	-31.0	290	17
2023-09-02T06:00	5381	522	-14.1	-30.9	290	17
2023-09-02T06:00	5409	521	-14.3	-28.9	289	17
2023-09-02T06:00	5430	519	-14.5	-28.8	289	18
2023-09-02T06:00	5454	517	-14.7	-28.7	288	18
2023-09-02T06:00	5485	515	-15.0	-28.6	287	18
2023-09-02T06:00	5509	514	-15.3	-28.5	287	19
2023-09-02T06:00	5529	512	-15.5	-28.5	286	19
2023-09-02T06:00	5551	511	-15.6	-29.4	285	19
2023-09-02T06:00	5571	509	-15.7	-31.7	285	18
2023-09-02T06:00	5596	508	-15.8	-32.9	285	18
2023-09-02T06:00	5624	506	-15.9	-33.8	285	18
2023-09-02T06:00	5654	504	-16.1	-33.8	286	18
2023-09-02T06:00	5681	502	-16.3	-33.4	286	18
2023-09-02T06:00	5707	500	-16.5	-32.8	287	19
2023-09-02T06:00	5735	499	-16.7	-32.5	287	19
2023-09-02T06:00	5755	497	-16.9	-31.9	287	19
2023-09-02T06:00	5776	496	-17.1	-32.2	287	19
2023-09-02T06:00	5797	494	-17.3	-32.5	286	19
2023-09-02T06:00	5819	493	-17.5	-33.6	285	19
2023-09-02T06:00	5840	492	-17.5	-33.7	284	19
2023-09-02T06:00	5868	490	-17.8	-32.6	283	19
2023-09-02T06:00	5900	488	-18.1	-32.7	282	19
2023-09-02T06:00	5929	486	-18.3	-32.9	282	20
2023-09-02T06:00	5948	484	-18.5	-33.9	282	20
2023-09-02T06:00	5970	483	-18.7	-34.2	283	20
2023-09-02T06:00	5988	482	-18.8	-34.6	284	20
2023-09-02T06:00	6011	480	-19.0	-34.3	285	20
2023-09-02T06:00	6040	479	-19.2	-34.0	286	20
2023-09-02T06:00	6063	477	-19.4	-34.3	287	20
2023-09-02T06:00	6082	476	-19.5	-35.0	287	21
2023-09-02T06:00	6112	474	-19.6	-36.1	288	21
2023-09-02T06:00	6140	472	-19.8	-36.8	289	22
2023-09-02T06:00	6160	471	-20.0	-36.8	290	22
2023-09-02T06:00	6184	469	-20.1	-37.9	290	22
2023-09-02T06:00	6214	468	-20.1	-39.1	291	23
2023-09-02T06:00	6242	466	-20.2	-39.6	291	23
2023-09-02T06:00	6259	465	-20.3	-39.6	290	23
2023-09-02T06:00	6281	463	-20.5	-39.7	289	24
2023-09-02T06:00	6307	462	-20.6	-39.5	288	24
2023-09-02T06:00	6335	460	-20.8	-39.5	287	24
2023-09-02T06:00	6363	458	-21.0	-39.6	287	25
2023-09-02T06:00	6391	456	-21.3	-39.9	287	25
2023-09-02T06:00	6420	455	-21.5	-40.1	287	25
2023-09-02T06:00	6449	453	-21.7	-40.5	287	25
2023-09-02T06:00	6480	451	-22.0	-40.5	287	25
2023-09-02T06:00	6499	450	-22.2	-40.7	287	25
2023-09-02T06:00	6523	448	-22.4	-40.9	287	25
2023-09-02T06:00	6547	447	-22.6	-40.8	286	25
2023-09-02T06:00	6581	445	-22.8	-39.9	286	24
2023-09-02T06:00	6603	443	-23.0	-39.7	286	25
2023-09-02T06:00	6625	442	-23.3	-39.4	285	25
2023-09-02T06:00	6654	440	-23.5	-39.2	286	25
2023-09-02T06:00	6683	439	-23.8	-39.4	286	25
2023-09-02T06:00	6703	437	-24.0	-39.3	287	25
2023-09-02T06:00	6727	436	-24.3	-39.3	287	25
2023-09-02T06:00	6750	435	-24.5	-39.3	287	25
2023-09-02T06:00	6771	433	-24.7	-39.4	287	25
2023-09-02T06:00	6792	432	-24.9	-39.4	287	25
2023-09-02T06:00	6814	431	-25.1	-39.5	287	25
2023-09-02T06:00	6837	429	-25.3	-40.0	286	25
2023-09-02T06:00	6859	428	-25.5	-40.5	286	25
2023-09-02T06:00	6884	427	-25.7	-41.1	286	25
2023-09-02T06:00	6911	425	-25.9	-41.9	286	25
2023-09-02T06:00	6940	423	-26.1	-42.7	286	25
2023-09-02T06:00	6962	422	-26.3	-42.7	286	25
2023-09-02T06:00	6986	421	-26.5	-43.0	285	25
2023-09-02T06:00	7012	419	-26.7	-43.3	285	25
2023-09-02T06:00	7035	418	-26.9	-43.7	286	25
2023-09-02T06:00	7065	416	-27.0	-44.0	286	25
2023-09-02T06:00	7090	415	-27.2	-44.2	286	26
2023-09-02T06:00	7112	413	-27.4	-44.5	286	26
2023-09-02T06:00	7134	412	-27.5	-44.6	285	26
2023-09-02T06:00	7155	411	-27.7	-44.9	285	26
2023-09-02T06:00	7178	410	-27.9	-45.3	285	27
2023-09-02T06:00	7205	408	-28.0	-45.9	284	27
2023-09-02T06:00	7234	406	-28.1	-45.9	284	27
2023-09-02T06:00	7264	405	-28.4	-46.1	284	28
2023-09-02T06:00	7288	403	-28.5	-46.9	284	28
2023-09-02T06:00	7317	402	-28.7	-46.4	284	28
2023-09-02T06:00	7347	400	-29.0	-44.9	284	28
2023-09-02T06:00	7368	399	-29.1	-45.4	284	28
2023-09-02T06:00	7394	397	-29.3	-44.8	284	28
2023-09-02T06:00	7422	396	-29.6	-44.0	284	28
2023-09-02T06:00	7447	395	-29.8	-43.5	284	28
2023-09-02T06:00	7470	393	-29.9	-45.1	284	28
2023-09-02T06:00	7492	392	-30.1	-45.1	284	28
2023-09-02T06:00	7515	391	-30.2	-45.3	285	28
2023-09-02T06:00	7536	390	-30.4	-44.6	285	28
2023-09-02T06:00	7557	388	-30.6	-43.3	285	28
2023-09-02T06:00	7580	387	-30.8	-42.0	285	28
2023-09-02T06:00	7602	386	-31.0	-42.0	285	28
2023-09-02T06:00	7625	385	-31.2	-41.9	285	28
2023-09-02T06:00	7654	383	-31.5	-42.1	285	28
2023-09-02T06:00	7680	382	-31.8	-42.2	285	29
2023-09-02T06:00	7705	380	-32.0	-42.4	284	29
2023-09-02T06:00	7731	379	-32.2	-42.9	283	28
2023-09-02T06:00	7757	378	-32.4	-43.9	283	28
2023-09-02T06:00	7783	376	-32.6	-44.2	282	28
2023-09-02T06:00	7807	375	-32.8	-44.9	282	28
2023-09-02T06:00	7828	374	-33.0	-44.6	282	28
2023-09-02T06:00	7847	373	-33.2	-43.8	282	28
2023-09-02T06:00	7868	372	-33.4	-42.4	282	28
2023-09-02T06:00	7890	370	-33.6	-42.4	282	28
2023-09-02T06:00	7913	369	-33.8	-42.6	283	28
2023-09-02T06:00	7940	368	-34.0	-43.5	283	28
2023-09-02T06:00	7967	366	-34.2	-43.8	283	29
2023-09-02T06:00	7994	365	-34.4	-44.1	283	29
2023-09-02T06:00	8021	364	-34.6	-42.5	283	29
2023-09-02T06:00	8050	362	-34.8	-41.5	282	29
2023-09-02T06:00	8074	361	-35.0	-42.1	282	29
2023-09-02T06:00	8097	360	-35.2	-42.3	281	29
2023-09-02T06:00	8125	358	-35.5	-41.9	281	29
2023-09-02T06:00	8154	357	-35.7	-42.3	281	29
2023-09-02T06:00	8179	356	-35.9	-43.3	281	29
2023-09-02T06:00	8203	354	-36.1	-42.7	281	30
2023-09-02T06:00	8231	353	-36.4	-41.5	282	30
2023-09-02T06:00	8264	351	-36.7	-40.9	283	30
2023-09-02T06:00	8288	350	-36.9	-41.2	283	30
2023-09-02T06:00	8311	349	-37.1	-41.2	284	30
2023-09-02T06:00	8333	348	-37.3	-41.3	284	30
2023-09-02T06:00	8353	347	-37.4	-41.7	284	30
2023-09-02T06:00	8374	346	-37.6	-40.5	284	31
2023-09-02T06:00	8398	344	-37.7	-40.4	284	31
2023-09-02T06:00	8419	343	-37.9	-41.2	285	31
2023-09-02T06:00	8443	342	-38.0	-41.1	285	31
2023-09-02T06:00	8466	341	-38.2	-41.3	286	31
2023-09-02T06:00	8492	340	-38.4	-41.7	286	31
2023-09-02T06:00	8520	338	-38.6	-41.9	287	31
2023-09-02T06:00	8542	337	-38.8	-41.9	287	31
2023-09-02T06:00	8563	336	-39.0	-42.3	287	32
2023-09-02T06:00	8585	335	-39.2	-42.3	287	32
2023-09-02T06:00	8607	334	-39.4	-42.4	287	32
2023-09-02T06:00	8628	333	-39.6	-42.5	287	32
2023-09-02T06:00	8648	332	-39.7	-42.8	287	32
2023-09-02T06:00	8670	331	-39.9	-42.8	288	32
2023-09-02T06:00	8692	330	-40.1	-42.9	288	32
2023-09-02T06:00	8712	329	-40.3	-43.1	288	32
2023-09-02T06:00	8731	328	-40.5	-43.0	289	32
2023-09-02T06:00	8753	327	-40.6	-43.0	289	32
2023-09-02T06:00	8776	326	-40.8	-43.4	289	32
2023-09-02T06:00	8796	325	-41.0	-43.7	289	32
2023-09-02T06:00	8821	324	-41.1	-43.9	288	32
2023-09-02T06:00	8842	323	-41.2	-44.7	288	32
2023-09-02T06:00	8863	322	-41.3	-45.8	288	33
2023-09-02T06:00	8886	321	-41.5	-46.0	288	33
2023-09-02T06:00	8904	320	-41.6	-45.8	287	33
2023-09-02T06:00	8925	319	-41.8	-46.3	287	33
2023-09-02T06:00	8946	318	-41.9	-46.4	287	33
2023-09-02T06:00	8968	317	-42.0	-47.3	287	33
2023-09-02T06:00	8988	316	-42.2	-47.9	287	33
2023-09-02T06:00	9013	315	-42.3	-47.6	287	34
2023-09-02T06:00	9041	313	-42.6	-47.5	287	34
2023-09-02T06:00	9071	312	-42.8	-47.7	287	34
2023-09-02T06:00	9094	311	-43.0	-48.2	287	34
2023-09-02T06:00	9118	310	-43.3	-48.1	287	35
2023-09-02T06:00	9149	309	-43.5		287	35
2023-09-02T06:00	9172	307	-43.8	-48.2	286	35
2023-09-02T06:00	9199	306	-44.0	-48.2	286	35
2023-09-02T06:00	9225	305	-44.3	-48.3	285	35
2023-09-02T06:00	9254	304	-44.6	-48.3	284	34
2023-09-02T06:00	9278	303	-44.8	-48.3	284	34
2023-09-02T06:00	9303	302	-45.0	-48.4	284	34
2023-09-02T06:00	9325	300	-45.2	-48.5	284	34
2023-09-02T06:00	9345	299	-45.4	-48.6	284	34
2023-09-02T06:00	9376	298	-45.7	-48.7	285	34
2023-09-02T06:00	9397	297	-45.9	-48.9	285	34
2023-09-02T06:00	9416	296	-46.1	-49.0	285	34
2023-09-02T06:00	9437	295	-46.3	-50.1	285	33
2023-09-02T06:00	9462	294	-46.3	-52.6	285	33
2023-09-02T06:00	9485	293	-46.5	-53.7	284	33
2023-09-02T06:00	9513	292	-46.6	-53.9	284	34
2023-09-02T06:00	9537	291	-46.8	-53.3	283	34
2023-09-02T06:00	9561	290	-47.1	-53.2	283	34
2023-09-02T06:00	9584	289	-47.3	-53.1	282	35
2023-09-02T06:00	9608	288	-47.5	-52.8	282	35
2023-09-02T06:00	9631	287	-47.8	-52.3	282	35
2023-09-02T06:00	9654	286	-47.9	-53.1	281	35
2023-09-02T06:00	9678	285	-48.0	-54.2	281	35
2023-09-02T06:00	9703	284	-48.3	-54.2	281	35
2023-09-02T06:00	9727	283	-48.4	-54.7	281	35
2023-09-02T06:00	9750	282	-48.5	-55.9	281	36
2023-09-02T06:00	9772	281	-48.5	-57.7	282	36
2023-09-02T06:00	9793	280	-48.5	-59.4	282	35
2023-09-02T06:00	9815	279	-48.5	-59.3	282	35
2023-09-02T06:00	9836	278	-48.6	-59.5	282	35
2023-09-02T06:00	9857	277	-48.7	-60.0	282	35
2023-09-02T06:00	9880	276	-48.7	-60.4	282	34
2023-09-02T06:00	9899	275	-48.8	-60.4	281	34
2023-09-02T06:00	9918	275	-48.9	-60.3	281	34
2023-09-02T06:00	9941	274	-49.0	-60.4	281	34
2023-09-02T06:00	9963	273	-49.1	-60.6	280	35
2023-09-02T06:00	9984	272	-49.2	-60.7	280	35
2023-09-02T06:00	10008	271	-49.3	-60.8	280	36
2023-09-02T06:00	10032	270	-49.4	-61.0	280	37
2023-09-02T06:00	10056	269	-49.5	-61.1	280	38
2023-09-02T06:00	10082	268	-49.5	-61.2	280	38
2023-09-02T06:00	10106	267	-49.5	-61.2	281	39
2023-09-02T06:00	10135	266	-49.4	-60.8	281	40
2023-09-02T06:00	10163	265	-49.6	-60.0	281	41
2023-09-02T06:00	10189	264	-49.8	-59.1	281	42
2023-09-02T06:00	10220	262	-50.0	-58.2	281	42
2023-09-02T06:00	10243	261	-50.1	-57.6	281	42
2023-09-02T06:00	10266	260	-50.3	-57.3	281	42
2023-09-02T06:00	10289	260	-50.5	-57.1	281	42
2023-09-02T06:00	10313	259	-50.6	-57.1	282	42
2023-09-02T06:00	10338	258	-50.9	-57.5	282	42
2023-09-02T06:00	10360	257	-51.0	-57.7	282	42
2023-09-02T06:00	10384	256	-51.2	-57.8	283	43
2023-09-02T06:00	10406	255	-51.4	-57.9	283	43
2023-09-02T06:00	10429	254	-51.6	-57.9	283	43
2023-09-02T06:00	10449	253	-51.8	-57.9	283	43
2023-09-02T06:00	10472	252	-51.9	-58.0	284	44
2023-09-02T06:00	10496	251	-52.1	-58.2	284	44
2023-09-02T06:00	10518	251	-52.3	-58.4	284	44
2023-09-02T06:00	10541	250	-52.5	-58.5	284	44
2023-09-02T06:00	10562	249	-52.7	-58.6	285	44
2023-09-02T06:00	10584	248	-52.8	-58.7	285	44
2023-09-02T06:00	10607	247	-53.0	-58.8	286	43
2023-09-02T06:00	10628	246	-53.1	-58.8	286	43
2023-09-02T06:00	10651	245	-53.3	-59.3	287	42
2023-09-02T06:00	10679	244	-53.3	-59.9	287	41
2023-09-02T06:00	10712	243	-53.2	-60.6	287	40
2023-09-02T06:00	10739	242	-53.4	-61.4	287	39
2023-09-02T06:00	10768	241	-53.4	-62.0	287	38
2023-09-02T06:00	10802	240	-53.4	-63.0	286	37
2023-09-02T06:00	10831	239	-53.4	-63.6	286	36
2023-09-02T06:00	10867	237	-53.7	-64.0	286	34
2023-09-02T06:00	10892	236	-53.7	-64.1	286	33
2023-09-02T06:00	10927	235	-53.8	-64.7	287	31
2023-09-02T06:00	10944	234	-53.6	-65.4	288	30
2023-09-02T06:00	10967	234	-53.0	-66.1	288	29
2023-09-02T06:00	10991	233	-52.5	-67.3	289	29
2023-09-02T06:00	11011	232	-52.2	-68.3	289	29
2023-09-02T06:00	11040	231	-52.2	-68.8	288	29
2023-09-02T06:00	11066	230	-52.2	-69.1	287	29
2023-09-02T06:00	11093	229	-52.1	-69.0	286	30
2023-09-02T06:00	11123	228	-52.3	-69.0	286	30
2023-09-02T06:00	11148	227	-52.5	-68.7	285	30
2023-09-02T06:00	11169	227	-52.7	-68.5	285	30
2023-09-02T06:00	11189	226	-52.9	-68.7	285	30
2023-09-02T06:00	11208	225	-52.4	-68.9	286	30
2023-09-02T06:00	11232	224	-52.1	-69.4	286	29
2023-09-02T06:00	11251	224	-52.1	-70.0	287	29
2023-09-02T06:00	11271	223	-51.9	-70.3	287	29
2023-09-02T06:00	11293	222	-51.8	-70.9	287	28
2023-09-02T06:00	11313	222	-51.8	-71.5	287	27
2023-09-02T06:00	11334	221	-51.7	-72.3	286	27
2023-09-02T06:00	11354	220	-51.4	-73.0	285	26
2023-09-02T06:00	11376	219	-51.3	-73.6	284	26
2023-09-02T06:00	11395	219	-51.2	-74.0	283	26
2023-09-02T06:00	11415	218	-51.2	-74.3	283	26
2023-09-02T06:00	11437	217	-51.1	-74.6	282	26
2023-09-02T06:00	11458	217	-51.1	-74.9	282	26
2023-09-02T06:00	11480	216	-51.0	-75.0	282	26
2023-09-02T06:00	11501	215	-50.9	-75.1	282	26
2023-09-02T06:00	11522	215	-50.7	-75.2	282	26
2023-09-02T06:00	11541	214	-50.8	-75.4	282	26
2023-09-02T06:00	11561	213	-50.8	-75.4	282	26
2023-09-02T06:00	11584	212	-50.8	-75.6	282	26
2023-09-02T06:00	11606	212	-50.4	-75.5	282	25
2023-09-02T06:00	11626	211	-50.3	-75.7	282	25
2023-09-02T06:00	11648	210	-50.2	-75.8	282	25
2023-09-02T06:00	11669	210	-50.0	-75.9	282	24
2023-09-02T06:00	11691	209	-50.0	-76.4	282	24
2023-09-02T06:00	11711	208	-49.7	-76.4	283	24
2023-09-02T06:00	11733	208	-49.7	-76.4	283	24
2023-09-02T06:00	11754	207	-49.7	-76.4	284	24
2023-09-02T06:00	11775	206	-49.7	-76.4	284	24
2023-09-02T06:00	11797	206	-49.5	-76.5	284	24
2023-09-02T06:00	11819	205	-49.6	-76.6	283	24
2023-09-02T06:00	11840	204	-49.5	-76.2	283	23
2023-09-02T06:00	11860	204	-49.6	-76.3	283	23
2023-09-02T06:00	11881	203	-49.6	-76.1	283	23
2023-09-02T06:00	11902	202	-49.7	-76.1	284	23
2023-09-02T06:00	11924	202	-49.6	-76.1	284	23
2023-09-02T06:00	11944	201	-49.7	-76.4	285	23
2023-09-02T06:00	11967	200	-49.7	-76.7	285	23
2023-09-02T06:00	11986	200	-49.7	-76.7	285	23
2023-09-02T06:00	12009	199	-49.8	-76.7	286	23
2023-09-02T06:00	12031	198	-49.9	-77.1	286	23
2023-09-02T06:00	12051	198	-49.9	-77.4	286	23
2023-09-02T06:00	12071	197	-49.7	-77.5	286	22
2023-09-02T06:00	12092	197	-49.4	-77.3	286	22
2023-09-02T06:00	12115	196	-49.4	-77.3	286	21
2023-09-02T06:00	12136	195	-49.3	-77.2	286	21
2023-09-02T06:00	12159	195	-49.4	-77.6	286	20
2023-09-02T06:00	12178	194	-49.4	-77.6	285	20
2023-09-02T06:00	12200	193	-49.3	-77.6	285	19
2023-09-02T06:00	12220	193	-49.3	-77.9	285	19
2023-09-02T06:00	12242	192	-49.4	-78.0	286	20
2023-09-02T06:00	12265	191	-49.2	-77.8	286	20
2023-09-02T06:00	12288	191	-49.0	-78.0	286	20
2023-09-02T06:00	12308	190	-49.1	-77.7	286	20
2023-09-02T06:00	12333	189	-49.2	-78.2	285	19
2023-09-02T06:00	12360	189	-48.9	-77.9	284	19
2023-09-02T06:00	12380	188	-48.9	-78.3	282	18
2023-09-02T06:00	12403	187	-48.9	-78.3	281	17
2023-09-02T06:00	12424	187	-48.6	-78.1	280	17
2023-09-02T06:00	12446	186	-48.5	-78.0	279	17
2023-09-02T06:00	12469	186	-48.1	-78.1	278	17
2023-09-02T06:00	12490	185	-48.0	-78.0	278	17
2023-09-02T06:00	12513	184	-47.9	-78.0	278	17
2023-09-02T06:00	12536	184	-47.8	-77.9	278	17
2023-09-02T06:00	12561	183	-47.8	-77.9	279	17
2023-09-02T06:00	12588	182	-47.6	-77.7	280	16
2023-09-02T06:00	12613	182	-47.9	-78.0	281	16
2023-09-02T06:00	12636	181	-48.0	-78.0	282	16
2023-09-02T06:00	12658	180	-48.2	-77.8	283	16
2023-09-02T06:00	12680	180	-48.4	-77.9	283	15
2023-09-02T06:00	12701	179	-48.5	-78.0	284	15
2023-09-02T06:00	12722	179	-48.5	-78.0	284	15
2023-09-02T06:00	12746	178	-48.4	-78.3	285	14
2023-09-02T06:00	12767	177	-48.4	-78.3	284	14
2023-09-02T06:00	12788	177	-48.6	-78.5	284	14
2023-09-02T06:00	12807	176	-48.8		283	14
2023-09-02T06:00	12829	176	-48.8		282	14
2023-09-02T06:00	12851	175	-48.8		281	14
2023-09-02T06:00	12873	175	-48.8		280	15
2023-09-02T06:00	12897	174	-48.9	-78.7	279	15
2023-09-02T06:00	12917	173	-48.9	-78.7	278	15
2023-09-02T06:00	12938	173	-48.9	-78.7	278	16
2023-09-02T06:00	12961	172	-49.1	-78.9	277	16
2023-09-02T06:00	12983	172	-49.3	-79.0	277	17
2023-09-02T06:00	13005	171	-49.4	-79.1	277	17
2023-09-02T06:00	13026	171	-49.1	-79.3	277	17
2023-09-02T06:00	13048	170	-48.6	-78.9	278	17
2023-09-02T06:00	13070	169	-48.5	-78.8	278	17
2023-09-02T06:00	13091	169	-48.6	-78.9	279	18
2023-09-02T06:00	13112	168	-48.8	-79.1	279	18
2023-09-02T06:00	13135	168	-48.9	-79.1	279	18
2023-09-02T06:00	13157	167	-49.0	-79.2	279	18
2023-09-02T06:00	13176	167	-49.2	-79.4	280	19
2023-09-02T06:00	13196	166	-49.4	-79.1	281	19
2023-09-02T06:00	13216	166	-49.5	-79.2	282	19
2023-09-02T06:00	13239	165	-49.7	-79.7	283	19
2023-09-02T06:00	13260	165	-49.4	-79.5	285	18
2023-09-02T06:00	13281	164	-49.2	-79.4	285	18
2023-09-02T06:00	13304	163	-49.1	-79.3	285	18
2023-09-02T06:00	13327	163	-49.0	-79.2	285	17
2023-09-02T06:00	13349	162	-49.1	-79.3	284	17
2023-09-02T06:00	13371	162	-49.2	-79.4	283	16
2023-09-02T06:00	13392	161	-49.3	-79.4	283	16
2023-09-02T06:00	13416	161	-49.5	-79.6	283	15
2023-09-02T06:00	13438	160	-49.6	-79.7	283	15
2023-09-02T06:00	13460	160	-49.2	-79.4	284	14
2023-09-02T06:00	13479	159	-48.9	-79.1	284	14
2023-09-02T06:00	13501	159	-48.8	-79.5	284	13
2023-09-02T06:00	13524	158	-48.8	-79.1	283	13
2023-09-02T06:00	13547	158	-48.8	-79.1	282	13
2023-09-02T06:00	13570	157	-49.0	-79.2	280	13
2023-09-02T06:00	13592	156	-49.1	-79.3	279	13
2023-09-02T06:00	13614	156	-49.1	-79.3	277	13
2023-09-02T06:00	13635	155	-49.1	-79.3	276	13
2023-09-02T06:00	13659	155	-49.0	-79.2	275	13
2023-09-02T06:00	13681	154	-49.2	-79.4	274	14
2023-09-02T06:00	13704	154	-49.4	-79.1	273	14
2023-09-02T06:00	13729	153	-49.6	-79.2	272	14
2023-09-02T06:00	13749	153	-49.8	-79.4	272	15
2023-09-02T06:00	13775	152	-49.9	-79.5	272	15
2023-09-02T06:00	13795	152	-49.8	-79.4	273	15
2023-09-02T06:00	13818	151	-49.4	-79.5	275	15
2023-09-02T06:00	13839	151	-49.2	-79.4	276	16
2023-09-02T06:00	13863	150	-49.2	-79.4	278	16
2023-09-02T06:00	13887	150	-49.4	-79.5	278	16
2023-09-02T06:00	13909	149	-49.5	-79.2	278	16
2023-09-02T06:00	13934	149	-49.6	-79.2	278	17
2023-09-02T06:00	13955	148	-49.9	-79.5	278	17
2023-09-02T06:00	13978	148	-50.0	-79.5	277	17
2023-09-02T06:00	14001	147	-50.1	-79.6	277	17
2023-09-02T06:00	14025	146	-50.1	-79.6	277	17
2023-09-02T06:00	14046	146	-50.3	-79.8	278	17
2023-09-02T06:00	14071	145	-50.5	-79.5	279	17
2023-09-02T06:00	14094	145	-50.8	-79.8	280	17
2023-09-02T06:00	14116	144	-51.0	-79.9	281	16
2023-09-02T06:00	14136	144	-51.1	-80.0	281	16
2023-09-02T06:00	14158	143	-51.3	-80.1	282	16
2023-09-02T06:00	14183	143	-51.5	-79.9	282	16
2023-09-02T06:00	14203	142	-51.7	-80.1	282	16
2023-09-02T06:00	14223	142	-51.8	-80.1	282	16
2023-09-02T06:00	14250	141	-51.7	-80.1	282	15
2023-09-02T06:00	14281	141	-51.8	-80.5	283	15
2023-09-02T06:00	14306	140	-51.7	-80.4	284	14
2023-09-02T06:00	14334	140	-51.7	-80.4	286	14
2023-09-02T06:00	14360	139	-51.6	-80.8	287	14
2023-09-02T06:00	14385	139	-51.5	-80.7	289	13
2023-09-02T06:00	14410	138	-51.4	-80.6	291	13
2023-09-02T06:00	14434	138	-51.1	-80.4	293	13
2023-09-02T06:00	14457	137	-51.1	-80.4	295	12
2023-09-02T06:00	14482	137	-51.1	-80.4	296	12
2023-09-02T06:00	14504	136	-51.2	-80.5	297	11
2023-09-02T06:00	14527	136	-51.4	-80.6	298	11
2023-09-02T06:00	14549	135	-51.6	-80.8	297	10
2023-09-02T06:00	14569	135	-51.8	-80.9	297	10
2023-09-02T06:00	14591	134	-51.9	-81.0	295	10
2023-09-02T06:00	14614	134	-51.8	-80.9	294	9
2023-09-02T06:00	14636	133	-51.4	-81.0	291	9
2023-09-02T06:00	14659	133	-51.3	-80.9	287	9
2023-09-02T06:00	14682	132	-51.2	-80.9	283	8
2023-09-02T06:00	14705	132	-51.2	-81.3	279	8
2023-09-02T06:00	14727	131	-51.1	-81.2	275	9
2023-09-02T06:00	14750	131	-50.9	-81.1	272	9
2023-09-02T06:00	14772	131	-51.0	-81.2	271	9
2023-09-02T06:00	14795	130	-50.9	-81.1	270	10
2023-09-02T06:00	14821	130	-51.1	-80.8	271	10
2023-09-02T06:00	14841	129	-51.2	-80.9	272	11
2023-09-02T06:00	14865	129	-51.4	-81.0	273	11
2023-09-02T06:00	14887	128	-51.4	-81.0	275	12
2023-09-02T06:00	14910	128	-51.6	-81.2	276	12
2023-09-02T06:00	14933	127	-51.7	-81.2	276	12
2023-09-02T06:00	14956	127	-51.8	-81.3	276	12
2023-09-02T06:00	14979	126	-51.8	-81.3	276	12
2023-09-02T06:00	15001	126	-51.9	-81.4	276	11
2023-09-02T06:00	15021	126	-52.1	-81.1	276	11
2023-09-02T06:00	15044	125	-52.2	-81.2	276	11
2023-09-02T06:00	15065	125	-52.3	-81.3	276	10
2023-09-02T06:00	15086	124	-52.4	-81.4	275	10
2023-09-02T06:00	15110	124	-52.6	-81.5	274	10
2023-09-02T06:00	15131	123	-52.7	-81.6	272	10
2023-09-02T06:00	15154	123	-52.8	-81.7	270	10
2023-09-02T06:00	15179	123	-52.9	-81.7	267	10
2023-09-02T06:00	15200	122	-53.0	-81.4	265	10
2023-09-02T06:00	15224	122	-53.0	-81.4	262	10
2023-09-02T06:00	15246	121	-53.1	-81.5	261	10
2023-09-02T06:00	15269	121	-53.3	-81.7	260	10
2023-09-02T06:00	15292	120	-53.3	-81.7	261	10
2023-09-02T06:00	15314	120	-53.2	-81.6	262	11
2023-09-02T06:00	15337	120	-53.1	-81.9	264	11
2023-09-02T06:00	15360	119	-53.1	-81.9	266	11
2023-09-02T06:00	15384	119	-53.2	-82.0	267	12
2023-09-02T06:00	15402	118	-53.0	-81.8	269	12
2023-09-02T06:00	15426	118	-53.0	-81.8	270	12
2023-09-02T06:00	15448	118	-53.1	-81.9	271	12
2023-09-02T06:00	15470	117	-53.0	-81.8	273	12
2023-09-02T06:00	15491	117	-53.0	-81.8	274	12
2023-09-02T06:00	15515	116	-53.0	-81.8	277	12
2023-09-02T06:00	15537	116	-53.0	-81.8	279	12
2023-09-02T06:00	15559	116	-53.0	-81.8	281	11
2023-09-02T06:00	15583	115	-53.1	-81.9	283	11
2023-09-02T06:00	15603	115	-53.2	-81.6	284	11
2023-09-02T06:00	15627	114	-53.3	-81.7	286	10
2023-09-02T06:00	15648	114	-53.4	-82.1	288	10
2023-09-02T06:00	15671	114	-53.4	-82.1	289	9
2023-09-02T06:00	15693	113	-53.3	-82.0	289	9
2023-09-02T06:00	15715	113	-53.4	-82.1	288	8
2023-09-02T06:00	15738	112	-53.6	-82.3	286	8
2023-09-02T06:00	15759	112	-53.6	-82.3	284	8
2023-09-02T06:00	15781	112	-53.5	-82.2	282	8
2023-09-02T06:00	15801	111	-53.5	-82.2	281	9
2023-09-02T06:00	15823	111	-53.5	-82.2	282	9
2023-09-02T06:00	15847	111	-53.3	-82.5	283	9
2023-09-02T06:00	15867	110	-53.2	-82.4	285	9
2023-09-02T06:00	15890	110	-53.1	-82.3	286	9
2023-09-02T06:00	15913	109	-53.1	-82.3	287	8
2023-09-02T06:00	15935	109	-53.2	-82.4	287	8
2023-09-02T06:00	15961	109	-53.2	-82.8	286	7
2023-09-02T06:00	15984	108	-53.2	-82.8	284	7
2023-09-02T06:00	16010	108	-53.2	-82.8	282	6
2023-09-02T06:00	16034	107	-53.4	-83.0	280	6
2023-09-02T06:00	16060	107	-53.5	-83.0	280	6
2023-09-02T06:00	16084	107	-53.2	-83.3	280	7
2023-09-02T06:00	16105	106	-52.7	-82.9	282	7
2023-09-02T06:00	16132	106	-52.6	-82.8	284	8
2023-09-02T06:00	16157	105	-52.7	-82.9	286	8
2023-09-02T06:00	16184	105	-52.3	-82.6	289	7
2023-09-02T06:00	16207	104	-52.3	-82.6	293	7
2023-09-02T06:00	16232	104	-52.4	-82.7	297	7
2023-09-02T06:00	16253	104	-52.4	-82.7	300	7
2023-09-02T06:00	16278	103	-52.5	-82.8	301	7
2023-09-02T06:00	16299	103	-52.5	-82.8	301	7
2023-09-02T06:00	16323	103	-52.6	-82.8	301	7
2023-09-02T06:00	16347	102	-52.8	-83.0	300	6
2023-09-02T06:00	16373	102	-52.9	-83.1	298	6
2023-09-02T06:00	16397	101	-52.7	-82.9	297	5
2023-09-02T06:00	16425	101	-52.6	-82.8	294	5
2023-09-02T06:00	16449	101	-52.7	-82.9	290	4
2023-09-02T06:00	16477	100	-52.9	-82.6	283	4
2023-09-02T06:00	16501	100	-53.1	-82.7	273	4
2023-09-02T06:00	16524	99	-53.1	-82.7	264	4
2023-09-02T06:00	16547	99	-53.2	-83.3	258	4
2023-09-02T06:00	16570	99	-53.2	-83.3	257	4
2023-09-02T06:00	16594	98	-53.2	-83.3	261	5
2023-09-02T06:00	16619	98	-53.3		268	5
2023-09-02T06:00	16642	98	-53.1	-83.7	278	5
2023-09-02T06:00	16667	97	-52.7	-83.4	288	5
2023-09-02T06:00	16692	97	-52.5	-83.3	297	5
2023-09-02T06:00	16715	97	-52.3	-83.1	305	5
2023-09-02T06:00	16742	96	-52.4	-83.2	311	5
2023-09-02T06:00	16765	96	-52.4	-83.2	313	5
2023-09-02T06:00	16787	96	-52.6	-83.3	313	5
2023-09-02T06:00	16812	95	-52.6	-83.3	310	5
2023-09-02T06:00	16835	95	-52.8	-83.5	304	5
2023-09-02T06:00	16858	94	-52.9	-83.1	296	5
2023-09-02T06:00	16881	94	-53.0	-83.1	288	5
2023-09-02T06:00	16906	94	-53.1	-83.2	279	5
2023-09-02T06:00	16930	93	-53.2	-83.3	271	6
2023-09-02T06:00	16954	93	-53.1	-83.2	263	6
2023-09-02T06:00	16976	93	-53.0	-83.1	255	7
2023-09-02T06:00	17000	92	-53.0	-83.6	249	7
2023-09-02T06:00	17023	92	-53.2	-83.8	245	8
2023-09-02T06:00	17046	92	-53.1	-83.7	242	8
2023-09-02T06:00	17069	91	-53.0	-83.6	242	8
2023-09-02T06:00	17093	91	-53.0	-83.6	243	7
2023-09-02T06:00	17117	91	-53.0	-83.6	246	7
2023-09-02T06:00	17140	90	-53.1	-83.7	250	6
2023-09-02T06:00	17163	90	-53.0	-83.6	255	5
2023-09-02T06:00	17185	90	-53.0	-83.6	261	5
2023-09-02T06:00	17208	89	-53.0	-83.6	264	4
2023-09-02T06:00	17232	89	-53.0	-83.6	265	4
2023-09-02T06:00	17254	89	-52.9	-83.6	262	4
2023-09-02T06:00	17278	89	-52.7	-83.4	256	4
2023-09-02T06:00	17299	88	-52.8	-83.5	247	3
2023-09-02T06:00	17323	88	-52.9	-83.6	237	3
2023-09-02T06:00	17348	88	-52.9	-83.6	227	3
2023-09-02T06:00	17368	87	-52.8	-83.5	219	3
2023-09-02T06:00	17391	87	-52.6	-83.3	214	4
2023-09-02T06:00	17415	87	-52.4	-83.2	212	4
2023-09-02T06:00	17438	86	-52.5	-83.3	212	4
2023-09-02T06:00	17460	86	-52.4	-83.8	215	5
2023-09-02T06:00	17486	86	-52.3	-83.7	218	5
2023-09-02T06:00	17512	85	-52.3	-83.7	221	5
2023-09-02T06:00	17535	85	-52.4	-83.8	225	6
2023-09-02T06:00	17558	85	-52.5	-83.3	230	6
2023-09-02T06:00	17581	84	-52.7	-83.4	236	6
2023-09-02T06:00	17606	84	-52.8	-83.5	242	7
2023-09-02T06:00	17626	84	-52.8	-83.5	248	7
2023-09-02T06:00	17649	84	-52.8	-83.5	253	7
2023-09-02T06:00	17676	83	-52.9	-83.6	257	7
2023-09-02T06:00	17697	83	-52.9	-83.6	261	7
2023-09-02T06:00	17722	83	-52.9	-84.1	265	7
2023-09-02T06:00	17743	82	-52.8	-84.1	268	7
2023-09-02T06:00	17771	82	-52.5	-83.8	272	6
2023-09-02T06:00	17791	82	-52.4	-83.8	277	6
2023-09-02T06:00	17815	81	-52.5	-83.8	283	5
2023-09-02T06:00	17840	81	-52.4	-83.8	293	4
2023-09-02T06:00	17868	81	-52.2	-83.6	306	4
2023-09-02T06:00	17891	80	-51.9	-83.4	322	4
2023-09-02T06:00	17917	80	-51.7	-83.2	337	4
2023-09-02T06:00	17941	80	-51.8	-83.3	349	4
2023-09-02T06:00	17965	80	-52.1	-83.5	357	4
2023-09-02T06:00	17992	79	-52.2	-83.6	4	4
2023-09-02T06:00	18016	79	-52.3	-83.1	9	4
2023-09-02T06:00	18038	79	-52.5	-83.3	13	3
2023-09-02T06:00	18063	78	-52.7	-83.4	17	3
2023-09-02T06:00	18088	78	-52.9	-83.6	21	3
2023-09-02T06:00	18114	78	-53.0	-83.6	25	2
2023-09-02T06:00	18139	77	-53.2	-83.8	29	2
2023-09-02T06:00	18162	77	-53.4	-83.9	36	2
2023-09-02T06:00	18184	77	-53.5	-84.0	46	2
2023-09-02T06:00	18209	77	-53.7	-84.2	61	1
2023-09-02T06:00	18232	76	-53.9	-83.8	82	1
2023-09-02T06:00	18256	76	-54.0	-83.9	103	1
2023-09-02T06:00	18279	76	-54.2	-84.0	118	2
2023-09-02T06:00	18303	76	-54.3	-84.6	125	2
2023-09-02T06:00	18329	75	-54.3	-84.6	128	3
2023-09-02T06:00	18353	75	-54.0	-84.4	130	4
2023-09-02T06:00	18375	75	-53.8	-84.2	132	4
2023-09-02T06:00	18396	74	-53.9	-84.3	136	5
2023-09-02T06:00	18418	74	-54.0	-84.4	142	5
2023-09-02T06:00	18440	74	-54.0	-84.4	150	5
2023-09-02T06:00	18462	74	-53.9	-84.3	159	5
2023-09-02T06:00	18487	73	-53.8	-84.2	169	4
2023-09-02T06:00	18511	73	-53.5	-84.6	180	4
2023-09-02T06:00	18532	73	-53.3	-84.4	191	4
2023-09-02T06:00	18558	73	-53.4	-84.5	201	4
2023-09-02T06:00	18580	72	-53.4	-84.5	209	4
2023-09-02T06:00	18599	72	-53.3	-84.4	216	5
2023-09-02T06:00	18624	72	-52.8	-84.7	221	5
2023-09-02T06:00	18646	72	-52.4	-84.4	225	5
2023-09-02T06:00	18671	71	-52.3	-84.3	227	5
2023-09-02T06:00	18692	71	-52.3	-84.3	228	5
2023-09-02T06:00	18717	71	-52.3	-84.3	228	5
2023-09-02T06:00	18739	71	-52.4	-83.8	229	6
2023-09-02T06:00	18763	70	-52.6	-83.9	232	6
2023-09-02T06:00	18785	70	-52.7	-84.0	235	6
2023-09-02T06:00	18809	70	-52.8	-84.1	239	6
2023-09-02T06:00	18834	70	-52.8	-84.1	245	6
2023-09-02T06:00	18856	69	-52.8	-84.1	251	6
2023-09-02T06:00	18879	69	-52.7	-84.0	257	6
2023-09-02T06:00	18907	69	-52.6	-83.9	263	6
2023-09-02T06:00	18931	69	-52.5	-83.8	269	6
2023-09-02T06:00	18952	68	-52.4	-83.8	275	6
2023-09-02T06:00	18977	68	-52.5	-83.8	280	6
2023-09-02T06:00	19005	68	-52.6	-83.9	286	6
2023-09-02T06:00	19029	67	-52.5	-83.8	293	5
2023-09-02T06:00	19052	67	-52.5	-83.8	299	5
2023-09-02T06:00	19076	67	-52.5	-83.8	305	5
2023-09-02T06:00	19102	67	-52.5	-83.8	311	5
2023-09-02T06:00	19128	66	-52.6	-83.9	315	5
2023-09-02T06:00	19150	66	-52.6	-83.9	318	5
2023-09-02T06:00	19175	66	-52.7	-84.0	319	4
2023-09-02T06:00	19203	66	-52.8	-84.1	320	4
2023-09-02T06:00	19226	65	-52.9	-84.1	320	4
2023-09-02T06:00	19253	65	-52.9	-84.1	319	3
2023-09-02T06:00	19277	65	-53.1	-84.3	317	3
2023-09-02T06:00	19304	65	-53.2	-83.8	316	3
2023-09-02T06:00	19328	64	-53.3	-83.9	315	3
2023-09-02T06:00	19352	64	-53.5	-84.0	316	3
2023-09-02T06:00	19376	64	-53.5	-84.0	319	3
2023-09-02T06:00	19401	64	-53.6	-84.1	322	3
2023-09-02T06:00	19426	63	-53.4	-84.5	325	3
2023-09-02T06:00	19448	63	-53.5	-84.6	328	3
2023-09-02T06:00	19476	63	-53.6	-84.6	330	3
2023-09-02T06:00	19504	63	-53.4	-84.5	331	3
2023-09-02T06:00	19532	62	-53.1	-84.3	332	4
2023-09-02T06:00	19554	62	-52.9	-84.1	332	4
2023-09-02T06:00	19579	62	-53.0	-84.2	332	4
2023-09-02T06:00	19603	62	-52.8	-84.1	331	4
2023-09-02T06:00	19628	61	-52.6	-84.5	328	4
2023-09-02T06:00	19657	61	-52.4	-84.4	324	4
2023-09-02T06:00	19682	61	-52.3	-84.3	320	5
2023-09-02T06:00	19701	61	-52.3	-84.3	317	5
2023-09-02T06:00	19727	61	-52.4	-84.4	314	5
2023-09-02T06:00	19752	60	-52.5	-84.4	312	5
2023-09-02T06:00	19775	60	-52.4	-84.4	312	6
2023-09-02T06:00	19802	60	-52.1	-84.2	314	6
2023-09-02T06:00	19825	60	-52.2	-84.2	318	6
2023-09-02T06:00	19849	59	-52.1	-84.2	323	6
2023-09-02T06:00	19875	59	-51.7	-83.9	327	6
2023-09-02T06:00	19899	59	-51.7	-83.9	330	7
2023-09-02T06:00	19922	59	-51.7	-83.9	333	7
2023-09-02T06:00	19948	59	-51.6	-83.8	336	7
2023-09-02T06:00	19976	58	-51.6	-83.8	341	7
2023-09-02T06:00	19997	58	-51.7	-83.9	347	7
2023-09-02T06:00	20025	58	-51.6	-83.8	354	7
2023-09-02T06:00	20049	58	-51.5	-83.7	2	6
2023-09-02T06:00	20073	57	-51.6	-83.2	11	6
2023-09-02T06:00	20101	57	-51.7	-83.2	20	6
2023-09-02T06:00	20124	57	-51.8	-83.3	29	6
2023-09-02T06:00	20150	57	-51.9	-83.4	37	6
2023-09-02T06:00	20175	57	-51.9	-84.0	44	6
2023-09-02T06:00	20199	56	-51.7	-83.9	49	5
2023-09-02T06:00	20226	56	-51.7	-83.9	51	5
2023-09-02T06:00	20252	56	-51.8	-83.3	52	4
2023-09-02T06:00	20275	56	-51.9	-83.4	50	4
2023-09-02T06:00	20300	55	-51.9	-83.4	45	3
2023-09-02T06:00	20324	55	-51.9	-84.0	39	3
2023-09-02T06:00	20349	55	-51.9	-84.0	30	2
2023-09-02T06:00	20374	55	-51.7	-83.9	20	2
2023-09-02T06:00	20399	55	-51.8	-83.3	13	2
2023-09-02T06:00	20419	54	-51.9	-83.4	11	2
2023-09-02T06:00	20444	54	-52.0	-83.5	15	2
2023-09-02T06:00	20473	54	-52.1	-83.5	25	3
2023-09-02T06:00	20494	54	-52.1	-83.5	38	3
2023-09-02T06:00	20521	54	-52.1	-83.5	51	3
2023-09-02T06:00	20542	53	-52.1	-83.5	62	4
2023-09-02T06:00	20570	53	-52.1	-83.5	70	4
2023-09-02T06:00	20593	53	-52.2	-83.6	76	4
2023-09-02T06:00	20617	53	-52.2	-84.2	82	4
2023-09-02T06:00	20640	53	-52.1	-84.2	88	4
2023-09-02T06:00	20667	52	-51.8	-83.9	96	4
2023-09-02T06:00	20690	52	-51.9	-84.0	104	3
2023-09-02T06:00	20716	52	-52.0	-84.1	116	3
2023-09-02T06:00	20739	52	-52.1	-84.2	130	2
2023-09-02T06:00	20766	52	-52.1	-84.2	148	2
2023-09-02T06:00	20785	51	-52.1	-84.2	170	2
2023-09-02T06:00	20817	51	-52.1	-83.5	190	2
2023-09-02T06:00	20840	51	-52.0	-83.5	205	2
2023-09-02T06:00	20863	51	-52.1	-83.5	214	2
2023-09-02T06:00	20891	51	-52.2	-83.6	217	2
2023-09-02T06:00	20916	50	-52.3	-83.7	216	2
2023-09-02T06:00	20939	50	-52.3	-83.7	211	2
2023-09-02T06:00	20967	50	-52.3	-83.7	205	3
2023-09-02T06:00	20990	50	-52.2	-83.6	200	3
2023-09-02T06:00	21015	50	-52.3	-83.7	196	2
2023-09-02T06:00	21045	49	-52.3	-83.7	195	2
2023-09-02T06:00	21071	49	-52.3	-83.7	198	2
2023-09-02T06:00	21094	49	-52.4	-83.8	207	2
2023-09-02T06:00	21121	49	-52.4	-83.8	221	2
2023-09-02T06:00	21146	49	-52.2	-83.6	241	2
2023-09-02T06:00	21175	48	-52.1	-84.2	265	2
2023-09-02T06:00	21199	48	-52.2	-84.2	288	2
2023-09-02T06:00	21224	48	-52.3	-84.3	306	2
2023-09-02T06:00	21252	48	-52.2	-84.2	321	2
2023-09-02T06:00	21276	48	-52.1	-84.2	334	3
2023-09-02T06:00	21305	47	-52.0	-84.1	347	3
2023-09-02T06:00	21329	47	-51.9	-84.0	0	3
2023-09-02T06:00	21352	47	-51.8	-83.9	16	3
2023-09-02T06:00	21378	47	-51.9	-84.0	32	3
2023-09-02T06:00	21404	47	-51.9	-84.0	47	3
2023-09-02T06:00	21434	47	-52.0	-84.1	60	3
2023-09-02T06:00	21457	46	-52.1	-83.5	70	4
2023-09-02T06:00	21485	46	-52.2	-83.6	79	4
2023-09-02T06:00	21510	46	-52.3	-83.7	87	4
2023-09-02T06:00	21538	46	-52.3	-83.7	94	4
2023-09-02T06:00	21563	46	-52.5	-83.8	100	4
2023-09-02T06:00	21589	45	-52.6	-83.9	105	4
2023-09-02T06:00	21617	45	-52.6	-83.9	107	4
2023-09-02T06:00	21645	45	-52.6	-83.9	108	4
2023-09-02T06:00	21669	45	-52.5	-83.8	108	4
2023-09-02T06:00	21694	45	-52.4	-83.8	105	3
2023-09-02T06:00	21719	45	-52.4	-83.8	101	3
2023-09-02T06:00	21749	44	-52.4	-83.8	93	2
2023-09-02T06:00	21776	44	-52.4	-83.8	82	2
2023-09-02T06:00	21804	44	-52.4	-83.8	70	2
2023-09-02T06:00	21825	44	-52.4	-83.8	63	2
2023-09-02T06:00	21855	44	-52.4	-83.8	63	2
2023-09-02T06:00	21880	43	-52.3	-83.7	73	2
2023-09-02T06:00	21903	43	-52.3	-83.7	91	2
2023-09-02T06:00	21930	43	-52.4	-84.4	109	2
2023-09-02T06:00	21957	43	-52.4	-84.4	122	2
2023-09-02T06:00	21983	43	-52.4	-84.4	129	2
2023-09-02T06:00	22006	43	-52.4	-84.4	133	2
2023-09-02T06:00	22032	42	-52.3	-84.3	134	2
2023-09-02T06:00	22056	42	-51.9	-84.0	135	2
2023-09-02T06:00	22080	42	-51.7	-83.9	137	1
2023-09-02T06:00	22109	42	-51.7	-83.9	146	0
2023-09-02T06:00	22138	42	-51.7	-83.9	240	0
2023-09-02T06:00	22166	42	-51.8	-83.9	295	0
2023-09-02T06:00	22187	41	-51.7	-83.9	298	1
2023-09-02T06:00	22212	41	-51.7	-83.9	290	1
2023-09-02T06:00	22239	41	-51.8	-83.9	269	1
2023-09-02T06:00	22264	41	-51.8	-83.9	245	1
2023-09-02T06:00	22294	41	-51.9	-84.0	235	1
2023-09-02T06:00	22320	41	-52.0	-84.1	233	1
2023-09-02T06:00	22345	40	-52.1	-83.5	233	1
2023-09-02T06:00	22370	40	-52.2	-83.6	234	1
2023-09-02T06:00	22397	40	-52.3	-83.7	234	1
2023-09-02T06:00	22426	40	-52.3	-83.7	232	1
2023-09-02T06:00	22449	40	-52.4	-83.8	231	1
2023-09-02T06:00	22473	40	-52.5	-83.8	233	1
2023-09-02T06:00	22498	39	-52.6	-83.9	239	1
2023-09-02T06:00	22529	39	-52.6	-83.9	254	1
2023-09-02T06:00	22546	39	-52.4	-83.8	280	1
2023-09-02T06:00	22570	39	-52.4	-83.8	308	1
2023-09-02T06:00	22597	39	-52.5	-83.8	330	1
2023-09-02T06:00	22623	39	-52.6	-83.9	344	2
2023-09-02T06:00	22649	39	-52.7	-84.0	354	2
2023-09-02T06:00	22674	38	-52.8	-84.1	0	3
2023-09-02T06:00	22702	38	-52.8	-84.1	6	3
2023-09-02T06:00	22724	38	-52.7	-84.0	11	4
2023-09-02T06:00	22755	38	-52.7	-84.6	17	4
2023-09-02T06:00	22780	38	-52.7	-84.6	22	4
2023-09-02T06:00	22803	38	-52.5	-84.4	26	4
2023-09-02T06:00	22832	37	-52.4	-84.4	30	4
2023-09-02T06:00	22856	37	-52.3	-84.3	32	4
2023-09-02T06:00	22881	37	-52.2	-84.2	33	4
2023-09-02T06:00	22908	37	-52.1	-84.2	35	4
2023-09-02T06:00	22927	37	-52.2	-84.2	36	4
2023-09-02T06:00	22956	37	-52.1	-84.2	36	4
2023-09-02T06:00	22987	37	-52.2	-84.2	34	4
2023-09-02T06:00	23011	36	-52.4	-84.4	30	4
2023-09-02T06:00	23035	36	-52.4	-83.8	25	4
2023-09-02T06:00	23067	36	-52.4	-83.8	22	4
2023-09-02T06:00	23090	36	-52.5	-84.4	20	5
2023-09-02T06:00	23120	36	-52.5	-84.4	20	5
2023-09-02T06:00	23139	36	-52.5	-84.4	21	6
2023-09-02T06:00	23172	36	-52.6	-84.5	23	6
2023-09-02T06:00	23197	35	-52.7	-84.0	27	6
2023-09-02T06:00	23224	35	-52.8	-84.7	33	6
2023-09-02T06:00	23252	35	-52.9	-84.7	39	6
2023-09-02T06:00	23276	35	-52.8	-84.7	45	6
2023-09-02T06:00	23301	35	-52.6	-84.5	50	6
2023-09-02T06:00	23329	35	-52.6	-84.5	56	5
2023-09-02T06:00	23356	35	-52.6	-84.5	62	5
2023-09-02T06:00	23380	34	-52.4	-84.4	71	4
2023-09-02T06:00	23411	34	-52.3	-84.3	82	3
2023-09-02T06:00	23435	34	-52.1	-84.2	98	3
2023-09-02T06:00	23462	34	-52.0	-84.1	115	2
2023-09-02T06:00	23491	34	-51.9	-84.0	130	2
2023-09-02T06:00	23519	34	-51.8	-83.9	140	2
2023-09-02T06:00	23542	34	-51.8	-84.6	144	2
2023-09-02T06:00	23573	33	-51.7	-84.5	142	1
2023-09-02T06:00	23600	33	-51.5	-84.4	128	1
2023-09-02T06:00	23625	33	-51.4	-84.3	36	0
2023-09-02T06:00	23655	33	-51.3	-84.3	7	1
2023-09-02T06:00	23682	33	-51.3	-84.3	8	2
2023-09-02T06:00	23707	33	-51.2	-84.2	15	2
2023-09-02T06:00	23736	33	-51.1	-84.1	22	3
2023-09-02T06:00	23764	32	-51.2	-83.5	29	3
2023-09-02T06:00	23792	32	-51.2	-83.5	34	4
2023-09-02T06:00	23818	32	-51.3	-83.6	38	5
2023-09-02T06:00	23848	32	-51.5	-83.7	42	5
2023-09-02T06:00	23873	32	-51.6	-83.8	46	5
2023-09-02T06:00	23904	32	-51.8	-83.9	50	5
2023-09-02T06:00	23934	32	-51.9	-84.0	54	5
2023-09-02T06:00	23960	32	-52.0	-84.1	58	5
2023-09-02T06:00	23982	31	-52.0	-84.1	64	5
2023-09-02T06:00	24009	31	-52.0	-84.1	71	4
2023-09-02T06:00	24039	31	-51.9	-84.0	78	4
2023-09-02T06:00	24064	31	-51.9	-84.0	87	4
2023-09-02T06:00	24088	31	-51.9	-84.0	98	3
2023-09-02T06:00	24119	31	-51.9	-84.0	109	3
2023-09-02T06:00	24137	31	-51.8	-83.9	123	2
2023-09-02T06:00	24170	31	-51.7	-83.9	143	2
2023-09-02T06:00	24198	30	-51.8	-83.9	172	2
2023-09-02T06:00	24219	30	-51.9	-84.0	201	2
2023-09-02T06:00	24253	30	-52.0	-84.1	220	2
2023-09-02T06:00	24275	30	-51.9	-84.0	230	2
2023-09-02T06:00	24300	30	-51.8	-83.9	234	3
2023-09-02T06:00	24330	30	-51.7	-84.5	236	3
2023-09-02T06:00	24355	30	-51.4	-84.3	237	3
2023-09-02T06:00	24381	30	-51.0	-84.0	239	3
2023-09-02T06:00	24405	29	-50.7	-83.8	243	3
2023-09-02T06:00	24434	29	-50.3	-84.3	247	4
2023-09-02T06:00	24460	29	-50.0	-84.1	251	4
2023-09-02T06:00	24488	29	-49.7	-83.9	254	4
2023-09-02T06:00	24511	29	-49.6	-83.8	257	3
2023-09-02T06:00	24540	29	-49.5	-83.7	261	3
2023-09-02T06:00	24562	29	-49.3	-83.6	265	2
2023-09-02T06:00	24594	29	-49.2	-83.5	271	2
2023-09-02T06:00	24621	28	-49.1	-83.4	274	2
2023-09-02T06:00	24644	28	-48.9	-83.3	271	2
2023-09-02T06:00	24668	28	-48.8	-83.2	262	2
2023-09-02T06:00	24700	28	-48.7	-83.2	253	3
2023-09-02T06:00	24728	28	-48.6	-83.1	245	3
2023-09-02T06:00	24753	28	-48.8	-83.2	239	4
2023-09-02T06:00	24785	28	-48.9	-82.5	236	4
2023-09-02T06:00	24808	28	-48.8	-82.4	235	5
2023-09-02T06:00	24837	28	-48.9	-82.5	236	5
2023-09-02T06:00	24862	27	-49.0	-82.6	238	6
2023-09-02T06:00	24887	27	-48.9	-83.3	241	6
2023-09-02T06:00	24920	27	-49.0	-83.4	245	7
2023-09-02T06:00	24946	27	-49.0	-83.4	249	7
2023-09-02T06:00	24974	27	-48.9	-83.3	253	7
2023-09-02T06:00	24993	27	-48.8	-83.2	256	8
2023-09-02T06:00	25029	27	-48.7	-83.2	259	8
2023-09-02T06:00	25059	27	-48.5	-83.0	263	8
2023-09-02T06:00	25082	27	-48.5	-83.0	266	8
2023-09-02T06:00	25112	26	-48.4	-82.9	270	8
2023-09-02T06:00	25140	26	-48.1	-82.7	274	8
2023-09-02T06:00	25168	26	-47.8	-82.5	277	8
2023-09-02T06:00	25201	26	-47.7	-82.4	279	8
2023-09-02T06:00	25222	26	-47.8	-82.5	280	8
2023-09-02T06:00	25250	26	-47.8	-82.5	279	8
2023-09-02T06:00	25278	26	-47.8	-82.5	277	8
2023-09-02T06:00	25309	26	-47.7	-82.4	275	8
2023-09-02T06:00	25343	26	-47.6	-82.4	271	8
2023-09-02T06:00	25359	25	-47.8	-82.5	268	8
2023-09-02T06:00	25396	25	-47.8	-82.5	267	8
2023-09-02T06:00	25422	25	-47.6	-82.4	268	8
2023-09-02T06:00	25452	25	-47.5	-82.3	271	8
2023-09-02T06:00	25479	25	-47.3	-82.2	277	8
2023-09-02T06:00	25510	25	-47.3	-82.2	283	8
2023-09-02T06:00	25533	25	-47.2	-82.1	290	8
2023-09-02T06:00	25565	25	-47.2	-82.1	297	9
2023-09-02T06:00	25597	25	-47.2	-82.1	303	9
2023-09-02T06:00	25623	24	-47.3	-82.2	308	10
2023-09-02T06:00	25654	24	-47.3	-82.2	312	10
2023-09-02T06:00	25683	24	-47.3	-82.2	315	11
2023-09-02T06:00	25717	24	-47.4	-82.2	318	11
2023-09-02T06:00	25737	24	-47.4	-82.2	322	11
2023-09-02T06:00	25768	24	-47.0	-82.9	326	10
2023-09-02T06:00	25800	24	-46.9	-82.8	331	10
2023-09-02T06:00	25830	24	-46.9	-82.8	335	10
2023-09-02T06:00	25851	24	-46.8	-82.7	338	10
2023-09-02T06:00	25880	24	-46.7	-82.6	340	10
2023-09-02T06:00	25914	23	-46.6	-82.6	342	10
2023-09-02T06:00	25939	23	-46.6	-82.6	343	11
2023-09-02T06:00	25968	23	-46.7	-82.6	345	11
2023-09-02T06:00	25998	23	-46.7	-82.6	348	11
2023-09-02T06:00	26024	23	-46.8	-81.8	351	11
2023-09-02T06:00	26063	23	-46.8	-81.8	354	11
2023-09-02T06:00	26090	23	-46.8	-81.8	358	11
2023-09-02T06:00	26119	23	-46.9	-81.9	1	11
2023-09-02T06:00	26134	23	-47.0	-81.9	5	11
2023-09-02T06:00	26172	23	-47.0	-81.9	9	11
2023-09-02T06:00	26198	22	-47.0	-81.9	13	10
2023-09-02T06:00	26224	22	-47.0	-82.9	16	10
2023-09-02T06:00	26256	22	-47.0	-82.9	19	9
2023-09-02T06:00	26282	22	-46.8	-82.7	22	9
2023-09-02T06:00	26310	22	-46.6	-82.6	25	8
2023-09-02T06:00	26338	22	-46.6	-82.6	26	8
2023-09-02T06:00	26364	22	-46.6	-82.6	27	8
2023-09-02T06:00	26393	22	-46.5	-82.5	28	7
2023-09-02T06:00	26418	22	-46.5	-82.5	28	7
2023-09-02T06:00	26447	22	-46.5	-82.5	28	6
2023-09-02T06:00	26474	22	-46.4	-82.4	27	6
2023-09-02T06:00	26502	21	-46.4	-82.4	26	6
2023-09-02T06:00	26529	21	-46.4	-82.4	26	6
2023-09-02T06:00	26553	21	-46.4	-82.4	27	6
2023-09-02T06:00	26580	21	-46.3	-82.4	29	6
2023-09-02T06:00	26606	21	-46.3	-82.4	34	5
2023-09-02T06:00	26639	21	-46.3	-82.4	42	5
2023-09-02T06:00	26664	21	-46.3	-82.4	51	4
2023-09-02T06:00	26694	21	-46.3	-82.4	62	4
2023-09-02T06:00	26719	21	-46.4	-82.4	72	4
2023-09-02T06:00	26743	21	-46.5	-82.5	81	4
2023-09-02T06:00	26777	21	-46.6	-82.6	87	4
2023-09-02T06:00	26801	20	-46.6	-82.6	90	5
2023-09-02T06:00	26830	20	-46.6	-82.6	90	4
2023-09-02T06:00	26870	20	-46.6	-82.6	86	4
2023-09-02T06:00	26883	20	-46.6	-82.6	80	4
2023-09-02T06:00	26918	20	-46.7	-82.6	72	4
2023-09-02T06:00	26945	20	-46.9	-81.9	64	4
2023-09-02T06:00	26974	20	-46.9	-81.9	58	3
2023-09-02T06:00	27001	20	-46.9	-81.9	53	3
2023-09-02T06:00	27031	20	-46.9	-81.9	48	3
2023-09-02T06:00	27056	20	-46.8	-81.8	43	3
2023-09-02T06:00	27083	20	-46.9	-82.8	38	3
2023-09-02T06:00	27110	20	-47.0	-82.9	33	3
2023-09-02T06:00	27143	19	-47.0	-82.9	29	3
2023-09-02T06:00	27171	19	-47.0	-82.9	27	3
2023-09-02T06:00	27200	19	-47.0	-82.9	26	3
2023-09-02T06:00	27231	19	-47.0	-82.9	26	3
2023-09-02T06:00	27264	19	-47.0	-82.9	27	3
2023-09-02T06:00	27289	19	-47.1	-82.9	29	3
2023-09-02T06:00	27322	19	-47.2	-83.0	34	3
2023-09-02T06:00	27350	19	-47.3	-82.2	39	3
2023-09-02T06:00	27379	19	-47.4	-82.2	44	3
2023-09-02T06:00	27405	19	-47.6	-82.4	49	3
2023-09-02T06:00	27438	19	-47.7	-82.4	55	2
2023-09-02T06:00	27470	19	-47.9	-82.6	61	2
2023-09-02T06:00	27497	18	-47.9	-82.6	69	2
2023-09-02T06:00	27529	18	-48.0	-82.7	77	2
2023-09-02T06:00	27557	18	-47.9	-82.6	82	3
2023-09-02T06:00	27585	18	-47.9	-82.6	85	3
2023-09-02T06:00	27620	18	-47.9	-82.6	86	4
2023-09-02T06:00	27652	18	-47.8	-82.5	86	4
2023-09-02T06:00	27681	18	-47.7	-82.4	86	3
2023-09-02T06:00	27711	18	-47.8	-82.5	87	3
2023-09-02T06:00	27741	18	-47.9	-82.6	90	3
2023-09-02T06:00	27768	18	-48.1	-82.7	93	2
2023-09-02T06:00	27802	18	-48.2	-82.8	98	2
2023-09-02T06:00	27826	18	-48.3	-82.9	101	1
2023-09-02T06:00	27857	17	-48.5	-83.0	94	1
2023-09-02T06:00	27889	17	-48.5	-83.0	22	0
2023-09-02T06:00	27929	17	-48.5	-83.0	333	1
2023-09-02T06:00	27952	17	-48.5	-83.0	327	2
2023-09-02T06:00	27984	17	-48.5	-83.0	326	2
2023-09-02T06:00	28012	17	-48.4	-83.8	327	3
2023-09-02T06:00	28046	17	-48.3	-83.8	328	3
2023-09-02T06:00	28068	17	-48.1	-83.6	328	4
2023-09-02T06:00	28107	17	-48.0	-83.6	328	4
2023-09-02T06:00	28130	17	-47.9	-83.5	328	4
2023-09-02T06:00	28153	17	-47.9	-83.5	329	4
2023-09-02T06:00	28183	17	-47.9	-83.5	331	5
2023-09-02T06:00	28206	17	-48.1	-83.6	335	5
2023-09-02T06:00	28256	16	-48.0	-83.6	340	5
2023-09-02T06:00	28274	16	-47.9	-83.5	347	5
2023-09-02T06:00	28299	16	-47.8	-83.4	354	5
2023-09-02T06:00	28329	16	-47.7	-83.4	1	5
2023-09-02T06:00	28353	16	-47.6	-83.3	9	6
2023-09-02T06:00	28385	16	-47.5	-83.2	18	5
2023-09-02T06:00	28425	16	-47.4	-83.1	28	5
2023-09-02T06:00	28451	16	-47.1	-82.9	40	5
2023-09-02T06:00	28469	16	-46.8	-82.7	52	5
2023-09-02T06:00	28493	16	-46.7	-82.6	63	4
2023-09-02T06:00	28524	16	-46.5	-82.5	70	4
2023-09-02T06:00	28556	16	-46.2	-82.3	72	4
2023-09-02T06:00	28579	16	-46.1	-82.2	67	3
2023-09-02T06:00	28608	16	-46.2	-82.3	56	3
2023-09-02T06:00	28647	16	-46.3	-82.4	42	3
2023-09-02T06:00	28666	15	-46.4	-82.4	30	3
2023-09-02T06:00	28700	15	-46.5	-82.5	24	4
2023-09-02T06:00	28729	15	-46.6	-82.6	21	4
2023-09-02T06:00	28751	15	-46.5	-82.5	20	5
2023-09-02T06:00	28786	15	-46.5	-82.5	20	5
2023-09-02T06:00	28819	15	-46.5	-82.5	22	6
2023-09-02T06:00	28845	15	-46.3	-82.4	23	6
2023-09-02T06:00	28879	15	-46.3	-82.4	25	6
2023-09-02T06:00	28911	15	-46.2	-82.3	28	6
2023-09-02T06:00	28936	15	-46.1	-82.2	32	5
2023-09-02T06:00	28971	15	-46.0	-83.2	36	5
2023-09-02T06:00	29010	15	-46.0	-83.2	40	4
2023-09-02T06:00	29038	15	-45.9	-83.2	43	3
2023-09-02T06:00	29060	15	-45.9	-83.2	45	3
2023-09-02T06:00	29094	15	-45.9	-82.1	44	3
2023-09-02T06:00	29114	14	-45.9	-82.1	41	3
2023-09-02T06:00	29141	14	-46.0	-82.1	36	3
2023-09-02T06:00	29170	14	-46.1	-82.2	33	3
2023-09-02T06:00	29200	14	-46.2	-82.3	30	3
2023-09-02T06:00	29234	14	-46.1	-82.2	31	3
2023-09-02T06:00	29263	14	-46.0	-82.1	33	3
2023-09-02T06:00	29289	14	-46.0	-82.1	38	4
2023-09-02T06:00	29328	14	-45.9	-83.2	45	4
2023-09-02T06:00	29355	14	-45.8	-83.1	52	4
2023-09-02T06:00	29377	14	-45.7	-83.0	59	4
2023-09-02T06:00	29413	14	-45.7	-83.0	64	4
2023-09-02T06:00	29438	14	-45.8	-83.1	69	4
2023-09-02T06:00	29477	14	-45.8	-83.1	74	4
2023-09-02T06:00	29508	14	-45.8	-83.1	78	4
2023-09-02T06:00	29539	14	-45.8	-83.1	82	4
2023-09-02T06:00	29577	14	-45.8	-83.1	85	3
2023-09-02T06:00	29595	13	-45.8	-83.1	84	3
2023-09-02T06:00	29621	13	-45.8	-83.1	80	3
2023-09-02T06:00	29654	13	-45.8	-83.1	70	2
2023-09-02T06:00	29680	13	-45.7	-83.0	56	3
2023-09-02T06:00	29715	13	-45.5	-82.9	41	3
2023-09-02T06:00	29738	13	-45.2	-82.7	31	3
2023-09-02T06:00	29772	13	-44.9	-82.5	24	4
2023-09-02T06:00	29816	13	-44.4	-82.1	20	5
2023-09-02T06:00	29841	13	-44.0	-81.8	17	5
2023-09-02T06:00	29861	13	-43.7	-81.6	15	5
2023-09-02T06:00	29890	13	-43.6	-81.5	14	5
2023-09-02T06:00	29935	13	-43.7	-81.6	13	5
2023-09-02T06:00	29958	13	-43.9	-81.8	13	4
2023-09-02T06:00	29988	13	-44.1	-81.9	14	3
2023-09-02T06:00	30031	13	-44.4	-82.1	16	3
2023-09-02T06:00	30046	13	-44.6	-82.2	18	2
2023-09-02T06:00	30079	13	-44.7	-82.3	17	2
2023-09-02T06:00	30117	12	-44.6	-82.2	15	3
2023-09-02T06:00	30147	12	-44.6	-82.2	12	3
2023-09-02T06:00	30171	12	-44.8	-82.4	10	4
2023-09-02T06:00	30200	12	-45.0	-82.5	9	5
2023-09-02T06:00	30231	12	-45.1	-82.6	10	6
2023-09-02T06:00	30256	12	-45.1	-82.6	11	7
2023-09-02T06:00	30287	12	-44.9	-82.5	13	7
2023-09-02T06:00	30324	12	-44.8	-82.4	15	7
2023-09-02T06:00	30352	12	-45.0	-82.5	18	8
2023-09-02T06:00	30374	12	-45.2	-82.7	22	8
2023-09-02T06:00	30426	12	-45.3	-82.7	25	9
2023-09-02T06:00	30455	12	-45.2	-82.7	28	9
2023-09-02T06:00	30469	12	-44.9	-82.5	31	10
2023-09-02T06:00	30503	12	-44.9	-82.5	34	10
2023-09-02T06:00	30539	12	-45.1	-82.6	38	10
2023-09-02T06:00	30556	12	-45.0	-82.5	43	10
2023-09-02T06:00	30598	12	-44.5	-82.2	48	10
2023-09-02T06:00	30628	12	-44.3	-82.0	53	10
2023-09-02T06:00	30658	11	-44.4	-82.1	58	10
2023-09-02T06:00	30682	11	-44.4	-82.1	62	10
2023-09-02T06:00	30702	11	-44.1	-81.9	66	9
2023-09-02T06:00	30741	11	-44.1	-81.9	70	9
2023-09-02T06:00	30762	11	-44.2	-82.0	73	8
2023-09-02T06:00	30802	11	-44.4	-82.1	75	7
2023-09-02T06:00	30824	11	-44.6	-82.2	78	7
2023-09-02T06:00	30857	11	-44.8	-82.4	81	6
2023-09-02T06:00	30877	11	-44.9	-82.5	83	6
2023-09-02T06:00	30917	11	-45.0	-82.5	86	6
2023-09-02T06:00	30952	11	-45.1	-82.6	86	5
2023-09-02T06:00	30975	11	-45.2	-82.7	86	5
2023-09-02T06:00	31003	11	-45.4	-82.8	83	4
2023-09-02T06:00	31030	11	-45.5	-82.9	79	4
2023-09-02T06:00	31052	11	-45.6	-82.9	74	4
2023-09-02T06:00	31101	11	-45.7	-83.0	69	4
2023-09-02T06:00	31109	11	-45.8	-83.1	64	4
2023-09-02T06:00	31146	11	-45.8	-83.1	61	4
2023-09-02T06:00	31182	11	-45.5	-82.9	59	4
2023-09-02T06:00	31203	11	-45.2	-82.7	58	5
2023-09-02T06:00	31240	11	-44.9	-82.5	59	6
2023-09-02T06:00	31264	10	-44.7	-82.3	60	7
2023-09-02T06:00	31291	10	-44.4	-82.1	61	8
2023-09-02T06:00	31318	10	-44.1	-81.9	64	8
2023-09-02T06:00	31356	10	-43.9	-81.8	66	8
2023-09-02T06:00	31360	10	-43.7	-81.6	69	8
2023-09-02T06:00	31397	10	-43.5	-81.5	72	8
2023-09-02T06:00	31427	10	-43.4	-81.4	75	8
2023-09-02T06:00	31456	10	-43.3	-81.3	76	8
2023-09-02T06:00	31480	10	-43.3	-81.3	76	7
2023-09-02T06:00	31515	10	-43.2	-81.3	75	7
2023-09-02T06:00	31539	10	-43.1	-81.2	73	6
2023-09-02T06:00	31552	10	-43.2	-81.3	71	5
2023-09-02T06:00	31594	10	-43.3	-81.3	68	5
2023-09-02T06:00	31621	10	-43.5	-81.5	66	4
2023-09-02T06:00	31656	10	-43.6	-81.5	64	4
2023-09-02T06:00	31686	10	-43.6	-81.5	62	4
2023-09-02T06:00	31704	10	-43.7	-81.6	60	5
2023-09-02T06:00	31745	10	-43.6	-81.5	56	5
2023-09-02T06:00	31773	10	-43.3	-81.3	50	4
2023-09-02T06:00	31812	10	-43.1	-81.2	40	4
2023-09-02T06:00	31826	10	-43.0	-81.1	28	4
2023-09-02T06:00	31853	10	-42.8	-81.0	17	4
2023-09-02T06:00	31881	10	-42.5	-80.8	11	4
2023-09-02T06:00	31902	10	-42.1	-80.5	11	5
2023-09-02T06:00	31936	9	-41.8	-80.3	14	5
2023-09-02T06:00	31978	9	-41.7	-80.2	20	6
2023-09-02T06:00	32000	9	-41.5	-80.1	27	7
2023-09-02T06:00	32023	9	-41.4	-80.0	32	8
2023-09-02T06:00	32048	9	-41.3	-79.9	36	9
2023-09-02T06:00	32092	9	-41.4	-80.0	39	9
2023-09-02T06:00	32118	9	-41.2	-79.9	42	10
2023-09-02T06:00	32154	9	-41.1	-79.8	44	10
2023-09-02T06:00	32180	9	-41.2	-79.9	47	11
2023-09-02T06:00	32213	9	-41.3	-79.9	50	11
2023-09-02T06:00	32241	9	-41.5	-80.1	54	11
2023-09-02T06:00	32271	9	-41.6	-80.1	57	12
2023-09-02T06:00	32280	9	-41.8	-80.3	61	12
2023-09-02T06:00	32337	9	-42.0	-80.4	65	12
2023-09-02T06:00	32352	9	-42.2	-80.6	69	12
2023-09-02T06:00	32367	9	-42.3	-80.6	73	12
2023-09-02T06:00	32406	9	-42.3	-80.6	77	11
2023-09-02T06:00	32441	9	-42.3	-80.6	82	11
2023-09-02T06:00	32481	9	-42.1	-80.5	86	10
2023-09-02T06:00	32497	9	-41.8	-80.3	90	10
2023-09-02T06:00	32512	9	-41.6	-80.1	94	10
2023-09-02T06:00	32564	9	-41.5	-80.1	98	10
2023-09-02T06:00	32601	9	-41.5	-80.1	101	10
2023-09-02T06:00	32610	9	-41.6	-80.1	103	10
2023-09-02T06:00	32662	9	-41.6	-80.1	106	10
2023-09-02T06:00	32687	9	-41.6	-80.1	108	10
2023-09-02T06:00	32701	8	-41.7	-80.2	110	10
2023-09-02T06:00	32723	8	-41.9	-80.4	112	10
2023-09-02T06:00	32746	8	-42.1	-80.5	114	10
2023-09-02T06:00	32775	8	-42.2	-80.6	116	9
2023-09-02T06:00	32822	8	-42.3	-80.6	118	9
2023-09-02T06:00	32864	8	-42.7	-80.9	122	8
2023-09-02T06:00	32900	8	-42.8	-81.0	124	8
2023-09-02T06:00	32927	8	-42.7	-80.9	125	8
2023-09-02T06:00	32965	8	-42.7	-80.9	126	8
2023-09-02T06:00	32971	8	-42.8	-81.0	127	8
2023-09-02T06:00	33022	8	-42.7	-80.9	127	8
2023-09-02T06:00	33051	8	-42.6	-80.8	127	8
2023-09-02T06:00	33092	8	-42.3	-80.6	128	8
2023-09-02T06:00	33099	8	-42.1	-80.5	128	8
2023-09-02T06:00	33143	8	-42.1	-80.5	128	8
2023-09-02T06:00	33157	8	-42.1	-80.5	128	8
2023-09-02T06:00	33185	8	-42.1	-80.5	128	8
2023-09-02T06:00	33225	8	-42.1	-80.5	128	7
2023-09-02T06:00	33248	8	-42.0	-80.4	129	6
2023-09-02T06:00	33276	8	-41.9	-80.4	130	6
2023-09-02T06:00	33307	8	-41.8	-80.3	131	5
2023-09-02T06:00	33327	8	-41.7	-80.2	131	4
2023-09-02T06:00	33348	8	-41.5	-80.1	127	3
2023-09-02T06:00	33380	8	-41.5	-80.1	118	3
2023-09-02T06:00	33414	8	-41.4	-80.0	107	3
2023-09-02T06:00	33424	8	-41.4	-80.0	96	3
2023-09-02T06:00	33478	8	-41.3	-79.9	87	3
2023-09-02T06:00	33497	8	-41.3	-79.9	80	3
2023-09-02T06:00	33524	8	-41.2	-79.9	75	4
2023-09-02T06:00	33540	8	-41.1	-79.8	69	4
2023-09-02T06:00	33574	7	-41.0	-79.7	63	4
2023-09-02T06:00	33607	7	-40.8	-79.6	55	3
2023-09-02T06:00	33621	7	-40.7	-79.5	45	3
2023-09-02T06:00	33663	7	-40.5	-79.4	33	3
2023-09-02T06:00	33705	7	-40.3	-79.2	24	3
2023-09-02T06:00	33710	7	-40.2	-79.2	17	4
2023-09-02T06:00	33747	7	-40.2	-79.2	15	4
2023-09-02T06:00	33781	7	-40.1	-79.1	14	5
2023-09-02T06:00	33806	7	-40.1	-79.1	14	5
2023-09-02T06:00	33845	7	-40.1	-79.1	14	6
2023-09-02T06:00	33850	7	-40.1	-79.1	12	6
2023-09-02T06:00	33893	7	-40.3	-79.2	10	7
2023-09-02T06:00	33921	7	-40.4	-79.3	8	8
2023-09-02T06:00	33937	7	-40.6	-79.5	8	8
2023-09-02T06:00	34000	7	-40.8	-79.6	8	8
2023-09-02T06:00	34004	7	-40.7	-79.5	9	9
2023-09-02T06:00	34034	7	-40.6	-79.5	10	9
2023-09-02T12:00	-999					
2023-09-02T12:00	131	1006	19.4	10.7	251	1
2023-09-02T12:00	163	1002	19.8	10.9	242	2
2023-09-02T12:00	187	999	18.6	10.0	236	2
2023-09-02T12:00	209	997	18.4	10.0	234	2
2023-09-02T12:00	235	994	18.1	9.8	236	1
2023-09-02T12:00	257	991	17.9	9.8	244	1
2023-09-02T12:00	277	988	17.7	9.8	256	1
2023-09-02T12:00	304	986	17.5	9.8	267	1
2023-09-02T12:00	317	984	17.3	9.7	270	2
2023-09-02T12:00	332	982	17.2	9.8	270	2
2023-09-02T12:00	353	980	16.9	9.6	268	2
2023-09-02T12:00	372	978	16.7	9.4	266	2
2023-09-02T12:00	393	975	16.6	9.5	266	2
2023-09-02T12:00	414	973	16.4	9.5	269	2
2023-09-02T12:00	435	971	16.2	9.5	273	2
2023-09-02T12:00	457	968	16.0	9.5	277	2
2023-09-02T12:00	475	966	15.8	9.4	278	2
2023-09-02T12:00	496	964	15.6	9.3	276	2
2023-09-02T12:00	521	961	15.4	9.4	274	2
2023-09-02T12:00	544	958	15.2	9.4	273	2
2023-09-02T12:00	565	956	15.0	9.1	274	3
2023-09-02T12:00	587	953	14.8	9.1	275	3
2023-09-02T12:00	613	950	14.6	8.9	276	2
2023-09-02T12:00	636	948	14.4	8.7	275	2
2023-09-02T12:00	653	946	14.2	8.8	272	2
2023-09-02T12:00	676	943	14.0	8.7	269	2
2023-09-02T12:00	695	941	13.8	8.6	267	2
2023-09-02T12:00	717	939	13.6	8.5	267	2
2023-09-02T12:00	744	936	13.4	8.4	268	2
2023-09-02T12:00	766	933	13.2	8.2	269	3
2023-09-02T12:00	787	931	13.0	8.1	269	3
2023-09-02T12:00	812	928	12.8	8.5	268	3
2023-09-02T12:00	839	925	12.5	8.6	266	4
2023-09-02T12:00	864	923	12.3	8.6	265	4
2023-09-02T12:00	887	920	12.0	8.5	263	4
2023-09-02T12:00	912	917	11.8	8.4	260	4
2023-09-02T12:00	938	914	11.6	8.5	256	4
2023-09-02T12:00	962	912	11.3	8.2	251	4
2023-09-02T12:00	985	909	11.1	8.3	244	4
2023-09-02T12:00	1017	906	10.8	8.1	239	4
2023-09-02T12:00	1037	903	10.6	8.2	237	4
2023-09-02T12:00	1063	901	10.4	8.1	238	4
2023-09-02T12:00	1093	898	10.1	8.0	243	4
2023-09-02T12:00	1115	895	9.9	8.1	251	4
2023-09-02T12:00	1140	893	9.7	8.0	259	5
2023-09-02T12:00	1164	890	9.6	8.0	266	5
2023-09-02T12:00	1185	888	9.4	7.9	272	5
2023-09-02T12:00	1209	885	9.2	7.9	278	4
2023-09-02T12:00	1236	882	9.0	7.6	286	4
2023-09-02T12:00	1261	880	8.9	7.6	295	3
2023-09-02T12:00	1285	877	8.6	7.8	301	3
2023-09-02T12:00	1313	874	8.3	7.5	303	3
2023-09-02T12:00	1339	871	8.1	7.4	302	4
2023-09-02T12:00	1368	868	7.9	7.3	300	4
2023-09-02T12:00	1400	865	7.7	7.2	298	5
2023-09-02T12:00	1434	861	7.4	6.9	297	5
2023-09-02T12:00	1466	858	7.2	7.0	295	5
2023-09-02T12:00	1494	855	6.9	6.8	292	5
2023-09-02T12:00	1522	852	6.7	6.7	289	5
2023-09-02T12:00	1550	849	6.4	6.4	285	5
2023-09-02T12:00	1582	846	6.2	6.2	282	6
2023-09-02T12:00	1604	844	6.1	6.1	279	6
2023-09-02T12:00	1624	842	5.9	5.9	276	7
2023-09-02T12:00	1641	840	5.8	5.8	272	7
2023-09-02T12:00	1662	838	5.7	5.7	269	6
2023-09-02T12:00	1682	836	5.5	5.5	266	6
2023-09-02T12:00	1705	833	5.4	5.4	266	5
2023-09-02T12:00	1729	831	5.2	5.2	270	5
2023-09-02T12:00	1752	829	5.1	5.1	277	4
2023-09-02T12:00	1777	826	4.9	4.9	287	4
2023-09-02T12:00	1799	824	4.7	4.7	296	4
2023-09-02T12:00	1829	821	4.5	3.2	299	3
2023-09-02T12:00	1848	819	4.6	3.3	296	3
2023-09-02T12:00	1872	817	4.8	2.8	291	4
2023-09-02T12:00	1897	814	5.6	3.3	288	4
2023-09-02T12:00	1914	813	5.9	2.9	289	4
2023-09-02T12:00	1930	811	6.1	2.3	294	4
2023-09-02T12:00	1948	809	6.6	-2.2	299	5
2023-09-02T12:00	1969	807	6.8	-1.1	302	5
2023-09-02T12:00	1994	805	6.9	-4.7	301	6
2023-09-02T12:00	2020	802	6.8	-6.2	298	6
2023-09-02T12:00	2045	800	6.8	-7.8	293	7
2023-09-02T12:00	2067	797	6.7	-7.2	289	7
2023-09-02T12:00	2091	795	6.5	-6.5	287	8
2023-09-02T12:00	2113	793	6.2	-2.1	285	9
2023-09-02T12:00	2133	791	6.0	1.3	284	9
2023-09-02T12:00	2153	789	5.9	1.3	282	9
2023-09-02T12:00	2184	786	5.7	0.9	281	9
2023-09-02T12:00	2207	784	5.5		279	9
2023-09-02T12:00	2238	781	5.3	1.7	278	9
2023-09-02T12:00	2263	779	5.1	1.8	279	9
2023-09-02T12:00	2287	776	4.9	1.7	281	9
2023-09-02T12:00	2316	774	4.7	1.3	285	10
2023-09-02T12:00	2337	772	4.5	1.7	288	11
2023-09-02T12:00	2356	770	4.4	1.6	289	11
2023-09-02T12:00	2376	768	4.3	1.2	288	11
2023-09-02T12:00	2395	766	4.2	1.2	285	11
2023-09-02T12:00	2418	764	4.0	0.5	280	11
2023-09-02T12:00	2445	762	4.1	-1.0	275	11
2023-09-02T12:00	2464	760	4.1	-1.8	272	11
2023-09-02T12:00	2486	758	4.0	-1.9	272	11
2023-09-02T12:00	2511	755	3.9	-2.0	275	11
2023-09-02T12:00	2535	753	3.8	-2.2	279	11
2023-09-02T12:00	2555	751	3.7	-2.4	283	11
2023-09-02T12:00	2584	749	3.6	-3.5	285	11
2023-09-02T12:00	2613	746	3.5	-2.9	286	10
2023-09-02T12:00	2641	743	3.3	-3.4	286	10
2023-09-02T12:00	2664	741	3.1	-4.0	287	11
2023-09-02T12:00	2686	739	3.0	-3.9	287	11
2023-09-02T12:00	2712	737	2.8	-4.1	288	11
2023-09-02T12:00	2734	735	2.7	-4.5	289	11
2023-09-02T12:00	2757	733	2.6	-5.1	288	12
2023-09-02T12:00	2779	731	2.4	-3.0	287	12
2023-09-02T12:00	2800	729	2.2	-2.4	286	13
2023-09-02T12:00	2816	727	2.0	-2.4	285	13
2023-09-02T12:00	2835	725	1.8	-2.5	286	13
2023-09-02T12:00	2864	723	1.7	-4.1	288	13
2023-09-02T12:00	2886	721	1.6	-4.2	290	13
2023-09-02T12:00	2906	719	1.4	-4.9	292	12
2023-09-02T12:00	2925	718	1.3	-4.3	293	12
2023-09-02T12:00	2948	716	1.2	-2.6	292	12
2023-09-02T12:00	2969	714	1.0	-2.5	289	13
2023-09-02T12:00	3000	711	0.7	-1.5	287	13
2023-09-02T12:00	3022	709	0.5	-1.4	284	13
2023-09-02T12:00	3053	707	0.4	-1.8	283	13
2023-09-02T12:00	3075	704	0.4	-4.7	282	13
2023-09-02T12:00	3100	702	0.4	-6.3	282	13
2023-09-02T12:00	3121	700	0.1	-3.9	283	12
2023-09-02T12:00	3150	698	-0.1	-4.4	285	12
2023-09-02T12:00	3172	696	-0.1	-6.1	286	12
2023-09-02T12:00	3194	694	-0.1	-7.5	287	12
2023-09-02T12:00	3215	692	-0.1	-9.0	287	12
2023-09-02T12:00	3245	690	-0.3	-10.6	286	12
2023-09-02T12:00	3277	687	-0.5	-10.0	285	12
2023-09-02T12:00	3308	684	-0.7	-10.5	285	12
2023-09-02T12:00	3329	682	-0.6	-10.4	286	12
2023-09-02T12:00	3349	680	-0.7	-10.5	288	12
2023-09-02T12:00	3381	678	-1.0	-9.5	290	12
2023-09-02T12:00	3416	675	-1.3	-9.6	291	12
2023-09-02T12:00	3443	673	-1.6	-9.0	291	12
2023-09-02T12:00	3466	671	-1.7	-8.7	290	11
2023-09-02T12:00	3496	668	-1.9	-8.3	288	11
2023-09-02T12:00	3532	665	-1.9	-9.7	286	11
2023-09-02T12:00	3562	663	-1.9	-12.3	284	11
2023-09-02T12:00	3588	660	-2.0	-10.8	284	11
2023-09-02T12:00	3618	658	-2.3	-10.5	283	11
2023-09-02T12:00	3636	656	-2.4	-10.2	283	10
2023-09-02T12:00	3665	654	-2.8	-9.8	282	10
2023-09-02T12:00	3692	652	-3.0	-9.5	280	10
2023-09-02T12:00	3713	650	-3.2	-9.1	278	10
2023-09-02T12:00	3735	648	-3.5	-8.8	278	11
2023-09-02T12:00	3759	646	-3.7	-8.1	279	12
2023-09-02T12:00	3775	645	-3.9	-8.0	281	12
2023-09-02T12:00	3801	643	-4.1	-7.9	282	13
2023-09-02T12:00	3834	641	-4.4	-7.7	281	13
2023-09-02T12:00	3857	638	-4.6	-8.0	279	12
2023-09-02T12:00	3881	637	-4.8	-8.1	276	12
2023-09-02T12:00	3899	635	-5.0	-8.2	272	11
2023-09-02T12:00	3922	633	-5.2	-8.4	269	11
2023-09-02T12:00	3942	631	-5.3	-8.5	267	11
2023-09-02T12:00	3970	629	-5.6	-8.6	266	12
2023-09-02T12:00	3993	627	-5.7	-9.4	267	13
2023-09-02T12:00	4019	626	-5.7	-10.1	269	14
2023-09-02T12:00	4041	624	-5.8	-9.7	272	14
2023-09-02T12:00	4064	622	-5.9	-10.4	275	14
2023-09-02T12:00	4086	620	-6.1	-10.8	278	14
2023-09-02T12:00	4110	618	-6.3	-11.5	281	14
2023-09-02T12:00	4127	617	-6.5	-11.7	283	14
2023-09-02T12:00	4146	615	-6.5	-12.7	285	13
2023-09-02T12:00	4170	613	-6.7	-12.9	285	13
2023-09-02T12:00	4198	611	-6.7	-15.6	285	13
2023-09-02T12:00	4220	610	-6.6	-21.7	285	13
2023-09-02T12:00	4237	608	-6.5	-21.4	284	14
2023-09-02T12:00	4259	606	-6.6	-21.1	283	13
2023-09-02T12:00	4299	604	-6.9	-20.8	283	13
2023-09-02T12:00	4325	601	-6.9	-22.4	282	13
2023-09-02T12:00	4350	599	-7.0	-23.5	282	13
2023-09-02T12:00	4377	597	-7.1	-24.0	282	13
2023-09-02T12:00	4403	596	-7.2	-24.3	281	13
2023-09-02T12:00	4419	594	-7.3	-24.0	279	14
2023-09-02T12:00	4447	592	-7.4	-24.2	277	14
2023-09-02T12:00	4462	591	-7.5	-24.5	275	14
2023-09-02T12:00	4485	589	-7.6	-24.7	274	15
2023-09-02T12:00	4515	587	-7.8	-23.1	274	15
2023-09-02T12:00	4531	586	-7.9	-23.7	274	16
2023-09-02T12:00	4546	584	-8.0	-23.0	275	16
2023-09-02T12:00	4566	583	-8.1	-24.0	276	16
2023-09-02T12:00	4594	581	-8.3	-24.0	277	16
2023-09-02T12:00	4623	579	-8.5	-23.9	277	15
2023-09-02T12:00	4648	577	-8.7	-24.3	277	15
2023-09-02T12:00	4668	575	-8.8	-24.2	276	15
2023-09-02T12:00	4686	574	-8.9	-24.2	275	15
2023-09-02T12:00	4712	572	-9.2	-23.1	274	15
2023-09-02T12:00	4740	570	-9.4	-23.1	272	15
2023-09-02T12:00	4760	569	-9.5	-24.0	271	16
2023-09-02T12:00	4784	567	-9.6	-24.3	271	16
2023-09-02T12:00	4806	565	-9.8	-25.2	271	17
2023-09-02T12:00	4830	563	-10.0	-25.8	271	17
2023-09-02T12:00	4858	561	-10.1	-27.6	271	17
2023-09-02T12:00	4883	560	-10.2	-28.8	271	17
2023-09-02T12:00	4905	558	-10.4	-29.7	270	17
2023-09-02T12:00	4923	557	-10.5	-25.7	269	16
2023-09-02T12:00	4947	555	-10.7	-23.1	269	16
2023-09-02T12:00	4969	553	-10.9	-25.0	268	16
2023-09-02T12:00	4997	552	-11.1	-24.8	269	16
2023-09-02T12:00	5016	550	-11.2	-25.3	270	16
2023-09-02T12:00	5037	548	-11.4	-25.8	273	16
2023-09-02T12:00	5062	547	-11.5	-25.1	275	16
2023-09-02T12:00	5083	545	-11.7	-25.9	277	16
2023-09-02T12:00	5113	543	-11.8	-27.7	278	16
2023-09-02T12:00	5134	542	-12.0	-27.3	278	16
2023-09-02T12:00	5161	540	-12.3	-27.1	278	16
2023-09-02T12:00	5177	538	-12.4	-27.1	277	16
2023-09-02T12:00	5195	537	-12.5	-26.3	277	16
2023-09-02T12:00	5214	536	-12.7	-26.5	277	16
2023-09-02T12:00	5234	534	-12.9	-26.3	277	16
2023-09-02T12:00	5268	532	-13.2	-25.7	277	15
2023-09-02T12:00	5298	530	-13.4	-25.7	277	15
2023-09-02T12:00	5329	528	-13.6	-25.7	277	16
2023-09-02T12:00	5350	526	-13.8	-25.9	278	16
2023-09-02T12:00	5369	525	-14.0	-25.9	278	17
2023-09-02T12:00	5397	523	-14.2	-26.1	278	17
2023-09-02T12:00	5423	521	-14.4	-25.4	278	18
2023-09-02T12:00	5446	520	-14.6	-24.8	278	18
2023-09-02T12:00	5463	519	-14.8	-25.1	277	18
2023-09-02T12:00	5482	517	-14.9	-24.6	276	18
2023-09-02T12:00	5500	516	-15.1	-23.9	275	18
2023-09-02T12:00	5520	515	-15.2	-25.3	274	18
2023-09-02T12:00	5544	513	-15.4	-26.5	273	17
2023-09-02T12:00	5580	511	-15.8	-23.3	272	17
2023-09-02T12:00	5601	509	-16.0	-24.1	271	17
2023-09-02T12:00	5626	508	-16.1	-25.6	270	17
2023-09-02T12:00	5649	506	-16.1	-28.8	269	17
2023-09-02T12:00	5673	504	-16.2	-27.7	267	17
2023-09-02T12:00	5702	502	-16.3	-28.5	266	17
2023-09-02T12:00	5730	501	-16.4	-27.1	266	18
2023-09-02T12:00	5752	499	-16.5	-27.1	267	18
2023-09-02T12:00	5785	497	-16.7	-28.3	269	17
2023-09-02T12:00	5804	496	-16.8	-28.0	271	17
2023-09-02T12:00	5827	494	-17.0	-28.2	273	18
2023-09-02T12:00	5851	493	-17.2	-28.4	275	18
2023-09-02T12:00	5882	491	-17.5	-28.7	275	18
2023-09-02T12:00	5906	489	-17.7	-28.7	275	19
2023-09-02T12:00	5927	488	-17.9	-27.7	275	19
2023-09-02T12:00	5947	486	-18.0	-27.9	275	19
2023-09-02T12:00	5966	485	-18.1	-29.1	275	19
2023-09-02T12:00	5987	484	-18.2	-29.1	274	19
2023-09-02T12:00	6007	482	-18.3	-27.2	274	19
2023-09-02T12:00	6030	481	-18.4	-31.5	274	19
2023-09-02T12:00	6060	479	-18.6	-30.9	273	19
2023-09-02T12:00	6082	478	-18.7	-30.4	273	19
2023-09-02T12:00	6109	476	-19.0	-30.0	273	19
2023-09-02T12:00	6146	474	-19.3	-29.6	273	20
2023-09-02T12:00	6166	472	-19.5	-29.5	273	20
2023-09-02T12:00	6183	471	-19.7	-29.4	273	20
2023-09-02T12:00	6205	470	-19.9	-29.2	273	20
2023-09-02T12:00	6233	468	-20.0	-30.3	273	20
2023-09-02T12:00	6259	466	-20.2	-30.7	273	20
2023-09-02T12:00	6282	465	-20.4	-30.8	274	19
2023-09-02T12:00	6302	464	-20.6	-30.8	274	19
2023-09-02T12:00	6335	462	-20.9	-30.9	274	19
2023-09-02T12:00	6359	460	-21.1	-31.3	275	19
2023-09-02T12:00	6381	459	-21.4	-31.2	275	19
2023-09-02T12:00	6409	457	-21.6	-30.8	276	19
2023-09-02T12:00	6440	455	-21.9	-30.2	276	19
2023-09-02T12:00	6456	454	-22.0	-30.3	277	19
2023-09-02T12:00	6475	453	-22.2	-30.9	278	19
2023-09-02T12:00	6502	451	-22.3	-32.5	278	19
2023-09-02T12:00	6520	450	-22.4	-31.3	278	18
2023-09-02T12:00	6540	449	-22.5	-30.7	277	18
2023-09-02T12:00	6560	448	-22.7	-30.6	276	18
2023-09-02T12:00	6586	446	-23.0	-30.5	276	18
2023-09-02T12:00	6613	444	-23.2	-30.4	276	19
2023-09-02T12:00	6643	443	-23.4	-29.7	277	19
2023-09-02T12:00	6672	441	-23.6	-29.4	278	19
2023-09-02T12:00	6690	440	-23.8	-29.6	278	20
2023-09-02T12:00	6708	439	-23.9	-29.5	277	20
2023-09-02T12:00	6729	437	-24.2	-29.6	276	20
2023-09-02T12:00	6752	436	-24.4	-29.7	275	19
2023-09-02T12:00	6779	434	-24.6	-29.7	274	19
2023-09-02T12:00	6809	433	-24.9	-29.4	274	19
2023-09-02T12:00	6827	432	-25.0	-29.3	275	19
2023-09-02T12:00	6843	431	-25.2	-28.2	276	19
2023-09-02T12:00	6862	430	-25.3	-28.4	277	20
2023-09-02T12:00	6881	428	-25.5		278	20
2023-09-02T12:00	6899	427	-25.6	-28.6	279	20
2023-09-02T12:00	6917	426	-25.7	-28.9	280	20
2023-09-02T12:00	6937	425	-25.8	-28.3	281	20
2023-09-02T12:00	6962	424	-26.0	-27.9	282	21
2023-09-02T12:00	6998	422	-26.3	-28.5	283	21
2023-09-02T12:00	7019	420	-26.4	-30.1	283	21
2023-09-02T12:00	7040	419	-26.6	-30.5	282	21
2023-09-02T12:00	7057	418	-26.7	-31.4	281	22
2023-09-02T12:00	7077	417	-26.8	-32.0	280	22
2023-09-02T12:00	7108	415	-27.1		280	22
2023-09-02T12:00	7135	414	-27.2	-33.6	280	22
2023-09-02T12:00	7164	412	-27.5	-33.6	280	22
2023-09-02T12:00	7203	410	-27.9	-34.3	280	22
2023-09-02T12:00	7229	408	-28.1	-34.5	280	22
2023-09-02T12:00	7245	407	-28.3	-34.7	280	22
2023-09-02T12:00	7266	406	-28.5	-34.8	279	22
2023-09-02T12:00	7283	405	-28.6	-35.0	278	22
2023-09-02T12:00	7303	404	-28.8	-35.4	277	22
2023-09-02T12:00	7325	403	-29.0	-35.9	275	22
2023-09-02T12:00	7352	401	-29.3	-38.2	274	22
2023-09-02T12:00	7388	400	-29.4	-41.9	274	22
2023-09-02T12:00	7405	398	-29.6	-42.6	274	22
2023-09-02T12:00	7425	397	-29.7	-42.6	274	23
2023-09-02T12:00	7445	396	-29.9	-42.5	275	23
2023-09-02T12:00	7464	395	-30.1	-42.4	275	24
2023-09-02T12:00	7494	393	-30.3	-41.6	275	24
2023-09-02T12:00	7524	392	-30.6	-42.0	275	24
2023-09-02T12:00	7553	390	-30.8	-42.0	275	24
2023-09-02T12:00	7578	389	-31.0	-43.3	275	25
2023-09-02T12:00	7611	387	-31.2	-41.0	276	25
2023-09-02T12:00	7639	385	-31.3	-38.9	277	25
2023-09-02T12:00	7659	384	-31.5	-37.5	278	25
2023-09-02T12:00	7681	383	-31.6	-36.4	277	25
2023-09-02T12:00	7702	382	-31.8	-36.5	277	25
2023-09-02T12:00	7727	381	-32.1	-36.6	276	25
2023-09-02T12:00	7759	379	-32.4	-36.5	275	25
2023-09-02T12:00	7789	377	-32.6	-36.2	275	25
2023-09-02T12:00	7816	376	-32.8	-34.4	276	25
2023-09-02T12:00	7842	374	-33.0	-34.8	277	25
2023-09-02T12:00	7871	373	-33.2	-35.0	278	25
2023-09-02T12:00	7905	371	-33.5	-33.8	278	26
2023-09-02T12:00	7937	370	-33.6	-34.2	278	26
2023-09-02T12:00	7962	368	-33.7	-34.4	278	27
2023-09-02T12:00	7984	367	-33.7	-34.1	279	27
2023-09-02T12:00	8013	365	-33.9	-34.2	279	28
2023-09-02T12:00	8051	364	-34.2	-34.7	279	28
2023-09-02T12:00	8069	363	-34.3	-34.8	278	27
2023-09-02T12:00	8091	361	-34.4	-34.9	277	27
2023-09-02T12:00	8115	360	-34.6	-35.1	276	27
2023-09-02T12:00	8147	359	-34.9	-35.5	275	27
2023-09-02T12:00	8173	357	-35.1	-35.8	275	27
2023-09-02T12:00	8192	356	-35.3	-35.9	275	26
2023-09-02T12:00	8213	355	-35.4	-36.0	275	26
2023-09-02T12:00	8233	354	-35.6	-36.0	275	26
2023-09-02T12:00	8254	353	-35.7	-36.5	274	26
2023-09-02T12:00	8275	352	-35.9	-37.6	274	26
2023-09-02T12:00	8298	351	-36.1	-38.8	274	25
2023-09-02T12:00	8323	350	-36.3	-39.3	274	25
2023-09-02T12:00	8354	348	-36.5	-39.6	275	25
2023-09-02T12:00	8385	346	-36.8	-39.8	275	25
2023-09-02T12:00	8422	345	-37.1	-40.4	276	25
2023-09-02T12:00	8445	344	-37.2	-40.6	276	25
2023-09-02T12:00	8465	342	-37.4	-40.6	276	25
2023-09-02T12:00	8486	341	-37.6	-40.8	276	25
2023-09-02T12:00	8506	340	-37.7	-41.1	277	25
2023-09-02T12:00	8528	339	-37.9		277	25
2023-09-02T12:00	8551	338	-38.1	-41.9	277	26
2023-09-02T12:00	8578	337	-38.2	-43.3	276	26
2023-09-02T12:00	8612	335	-38.4	-44.2	275	27
2023-09-02T12:00	8645	334	-38.6	-45.3	274	27
2023-09-02T12:00	8679	332	-38.7	-46.5	273	28
2023-09-02T12:00	8705	331	-38.8	-46.5	273	28
2023-09-02T12:00	8735	329	-39.0	-46.2	273	29
2023-09-02T12:00	8763	328	-39.2	-46.3	274	30
2023-09-02T12:00	8800	326	-39.4	-45.9	275	31
2023-09-02T12:00	8829	325	-39.6	-45.9	276	32
2023-09-02T12:00	8860	323	-39.7	-45.9	276	33
2023-09-02T12:00	8896	322	-39.8	-46.9	277	34
2023-09-02T12:00	8925	320	-40.0	-48.0	278	34
2023-09-02T12:00	8955	319	-40.1	-48.3	278	35
2023-09-02T12:00	8990	317	-40.4	-47.9	279	35
2023-09-02T12:00	9024	316	-40.6	-47.0	279	35
2023-09-02T12:00	9058	314	-40.9	-47.2	280	35
2023-09-02T12:00	9080	313	-41.1	-47.3	280	35
2023-09-02T12:00	9102	312	-41.3	-47.3	279	35
2023-09-02T12:00	9123	311	-41.5	-47.3	279	35
2023-09-02T12:00	9146	310	-41.7		279	35
2023-09-02T12:00	9168	309	-41.9	-47.4	279	35
2023-09-02T12:00	9191	308	-42.1	-47.3	278	35
2023-09-02T12:00	9214	307	-42.3	-47.4	278	35
2023-09-02T12:00	9233	306	-42.5	-47.3	278	35
2023-09-02T12:00	9254	305	-42.7	-47.0	278	35
2023-09-02T12:00	9278	304	-42.9	-47.2	278	35
2023-09-02T12:00	9303	303	-43.1	-47.4	278	35
2023-09-02T12:00	9329	302	-43.3	-47.5	279	35
2023-09-02T12:00	9357	301	-43.5	-47.7	279	35
2023-09-02T12:00	9388	299	-43.8	-47.8	280	36
2023-09-02T12:00	9432	297	-44.2	-48.1	280	36
2023-09-02T12:00	9454	296	-44.4	-48.6	280	36
2023-09-02T12:00	9472	295	-44.5	-48.6	280	36
2023-09-02T12:00	9492	295	-44.7	-48.5	279	36
2023-09-02T12:00	9510	294	-44.8	-48.5	279	36
2023-09-02T12:00	9527	293	-45.0	-48.9	279	36
2023-09-02T12:00	9545	292	-45.1	-49.1	278	36
2023-09-02T12:00	9567	291	-45.3	-49.3	278	37
2023-09-02T12:00	9589	290	-45.5	-49.5	278	37
2023-09-02T12:00	9615	289	-45.7	-49.5	279	37
2023-09-02T12:00	9642	288	-45.9	-49.7	279	37
2023-09-02T12:00	9670	287	-46.1	-50.0	279	38
2023-09-02T12:00	9701	286	-46.3	-50.2	280	38
2023-09-02T12:00	9722	285	-46.5	-50.4	280	38
2023-09-02T12:00	9743	284	-46.7	-50.7	280	38
2023-09-02T12:00	9768	283	-46.9	-51.1	281	37
2023-09-02T12:00	9792	282	-47.1	-51.5	281	37
2023-09-02T12:00	9817	280	-47.3	-51.7	281	37
2023-09-02T12:00	9844	279	-47.5	-51.7	281	37
2023-09-02T12:00	9865	278	-47.7	-52.0	281	37
2023-09-02T12:00	9891	277	-47.9	-52.1	281	37
2023-09-02T12:00	9917	276	-48.1	-52.2	281	37
2023-09-02T12:00	9938	275	-48.3	-52.5	281	37
2023-09-02T12:00	9960	274	-48.4	-52.5	280	37
2023-09-02T12:00	9981	274	-48.6	-52.6	280	37
2023-09-02T12:00	10003	273	-48.7	-52.7	280	37
2023-09-02T12:00	10026	272	-48.9	-53.0	280	37
2023-09-02T12:00	10053	271	-49.2	-53.4	280	37
2023-09-02T12:00	10079	270	-49.4	-53.8	280	37
2023-09-02T12:00	10104	269	-49.6	-54.0	280	38
2023-09-02T12:00	10128	268	-49.8	-53.9	280	38
2023-09-02T12:00	10147	267	-50.0	-54.0	280	38
2023-09-02T12:00	10169	266	-50.1	-54.0	281	38
2023-09-02T12:00	10189	265	-50.3	-54.3	281	38
2023-09-02T12:00	10215	264	-50.5	-54.5	282	38
2023-09-02T12:00	10244	263	-50.7	-54.6	282	38
2023-09-02T12:00	10266	262	-50.9	-55.0	283	38
2023-09-02T12:00	10294	261	-51.1	-55.3	283	38
2023-09-02T12:00	10328	259	-51.5	-55.3	283	38
2023-09-02T12:00	10354	258	-51.7	-55.2	283	38
2023-09-02T12:00	10387	257	-52.0	-55.2	283	38
2023-09-02T12:00	10415	256	-52.3	-55.2	284	39
2023-09-02T12:00	10433	255	-52.4	-55.2	285	39
2023-09-02T12:00	10457	254	-52.6	-55.2	285	38
2023-09-02T12:00	10483	253	-52.8	-55.3	286	38
2023-09-02T12:00	10504	253	-53.0	-55.4	287	37
2023-09-02T12:00	10524	252	-53.1	-55.5	287	37
2023-09-02T12:00	10543	251	-53.3	-55.6	287	37
2023-09-02T12:00	10563	250	-53.5	-55.7	288	37
2023-09-02T12:00	10581	249	-53.6	-55.7	288	37
2023-09-02T12:00	10601	249	-53.8	-56.0	288	36
2023-09-02T12:00	10621	248	-53.8	-56.1	288	36
2023-09-02T12:00	10639	247	-53.9	-56.3	288	36
2023-09-02T12:00	10660	246	-54.0	-56.5	287	35
2023-09-02T12:00	10679	246	-54.1	-56.5	287	35
2023-09-02T12:00	10698	245	-54.3	-56.8	287	35
2023-09-02T12:00	10719	244	-54.4	-57.1	287	34
2023-09-02T12:00	10739	243	-54.5	-57.5	287	34
2023-09-02T12:00	10759	243	-54.5	-58.0	286	34
2023-09-02T12:00	10777	242	-54.5	-58.6	286	33
2023-09-02T12:00	10797	241	-54.5	-59.1	285	33
2023-09-02T12:00	10815	240	-54.5	-59.5	285	32
2023-09-02T12:00	10836	240	-54.5	-60.0	284	32
2023-09-02T12:00	10854	239	-54.6	-60.8	284	31
2023-09-02T12:00	10874	238	-54.7	-61.7	284	31
2023-09-02T12:00	10893	238	-54.7	-62.5	284	30
2023-09-02T12:00	10912	237	-54.6	-63.1	284	30
2023-09-02T12:00	10930	236	-54.5	-63.4	283	30
2023-09-02T12:00	10951	235	-54.5	-63.4	282	30
2023-09-02T12:00	10972	235	-54.4	-63.1	281	29
2023-09-02T12:00	10989	234	-54.4	-62.9	280	29
2023-09-02T12:00	11008	233	-54.5	-63.0	279	29
2023-09-02T12:00	11027	233	-54.5	-63.7	278	29
2023-09-02T12:00	11046	232	-54.3	-64.8	277	28
2023-09-02T12:00	11067	231	-53.9	-65.6	277	28
2023-09-02T12:00	11085	231	-53.8	-66.3	276	28
2023-09-02T12:00	11104	230	-53.7	-66.8	276	28
2023-09-02T12:00	11124	229	-53.8	-67.5	276	28
2023-09-02T12:00	11144	229	-53.6	-68.3	276	27
2023-09-02T12:00	11162	228	-53.5		276	27
2023-09-02T12:00	11181	227	-53.4	-69.8	276	26
2023-09-02T12:00	11202	226	-53.2	-70.0	276	25
2023-09-02T12:00	11220	226	-53.0	-70.1	276	24
2023-09-02T12:00	11239	225	-52.6	-70.9	276	24
2023-09-02T12:00	11259	224	-52.0	-71.7	277	23
2023-09-02T12:00	11279	224	-51.1	-71.4	277	23
2023-09-02T12:00	11297	223	-50.8	-70.5	278	23
2023-09-02T12:00	11317	222	-50.7	-70.4	279	23
2023-09-02T12:00	11335	222	-50.3	-70.7	280	23
2023-09-02T12:00	11353	221	-50.3	-71.1	280	23
2023-09-02T12:00	11373	221	-50.3	-71.2	281	23
2023-09-02T12:00	11390	220	-50.4	-71.2	281	22
2023-09-02T12:00	11409	219	-50.5	-71.4	281	22
2023-09-02T12:00	11428	219	-50.4	-71.7	281	22
2023-09-02T12:00	11446	218	-50.1	-71.9	281	22
2023-09-02T12:00	11465	217	-50.1	-72.1	281	22
2023-09-02T12:00	11484	217	-49.9	-72.4	281	22
2023-09-02T12:00	11503	216	-49.7	-72.6	282	22
2023-09-02T12:00	11521	216	-49.6	-73.0	282	22
2023-09-02T12:00	11539	215	-49.2	-73.2	283	22
2023-09-02T12:00	11559	214	-49.0	-73.4	283	22
2023-09-02T12:00	11578	214	-48.9	-73.5	284	21
2023-09-02T12:00	11599	213	-48.9	-73.7	284	21
2023-09-02T12:00	11618	212	-48.7	-74.0	285	21
2023-09-02T12:00	11638	212	-48.5	-74.0	285	20
2023-09-02T12:00	11657	211	-48.3	-74.3	285	20
2023-09-02T12:00	11675	211	-48.3	-74.6	286	20
2023-09-02T12:00	11698	210	-48.2	-74.7	287	19
2023-09-02T12:00	11717	209	-48.1	-74.6	288	19
2023-09-02T12:00	11737	209	-48.1	-74.9	289	19
2023-09-02T12:00	11758	208	-48.1	-75.2	289	19
2023-09-02T12:00	11777	207	-48.1	-75.2	289	18
2023-09-02T12:00	11798	207	-48.2	-75.2	289	18
2023-09-02T12:00	11821	206	-48.2	-75.2	289	18
2023-09-02T12:00	11840	205	-48.3	-75.6	288	17
2023-09-02T12:00	11861	205	-48.3	-75.6	287	17
2023-09-02T12:00	11883	204	-48.3	-75.6	286	17
2023-09-02T12:00	11904	203	-48.1	-75.7	286	18
2023-09-02T12:00	11923	203	-48.0	-75.6	285	18
2023-09-02T12:00	11943	202	-48.0	-75.6	285	18
2023-09-02T12:00	11965	202	-48.0	-75.9	286	18
2023-09-02T12:00	11987	201	-47.9	-75.9	286	18
2023-09-02T12:00	12006	200	-47.9	-76.2	286	18
2023-09-02T12:00	12029	200	-47.8	-76.1	286	18
2023-09-02T12:00	12051	199	-47.8	-76.1	285	18
2023-09-02T12:00	12072	198	-47.9	-75.9	284	18
2023-09-02T12:00	12094	198	-48.1	-76.0	282	18
2023-09-02T12:00	12116	197	-48.2	-76.1	281	18
2023-09-02T12:00	12137	196	-48.3	-76.5	279	18
2023-09-02T12:00	12159	196	-48.1	-76.3	277	18
2023-09-02T12:00	12181	195	-48.1	-76.6	276	17
2023-09-02T12:00	12201	194	-48.1	-76.6	275	17
2023-09-02T12:00	12222	194	-48.2	-76.7	275	17
2023-09-02T12:00	12243	193	-48.3	-76.8	275	17
2023-09-02T12:00	12265	193	-48.4	-76.9	276	17
2023-09-02T12:00	12286	192	-48.5	-76.9	276	17
2023-09-02T12:00	12307	191	-48.3	-77.1	277	17
2023-09-02T12:00	12327	191	-48.2	-77.1	278	17
2023-09-02T12:00	12348	190	-48.3	-77.1	278	17
2023-09-02T12:00	12370	190	-48.4	-77.2	278	17
2023-09-02T12:00	12391	189	-48.5	-76.9	279	17
2023-09-02T12:00	12411	188	-48.6	-77.0	279	17
2023-09-02T12:00	12432	188	-48.8	-77.2	280	18
2023-09-02T12:00	12453	187	-49.0	-77.3	280	18
2023-09-02T12:00	12473	187	-49.0	-77.3	281	18
2023-09-02T12:00	12493	186	-49.0	-77.3	282	18
2023-09-02T12:00	12513	185	-49.1	-77.4	282	18
2023-09-02T12:00	12531	185	-49.2	-77.5	283	17
2023-09-02T12:00	12550	184	-49.2	-77.8	283	17
2023-09-02T12:00	12571	184	-49.0	-77.7	283	17
2023-09-02T12:00	12590	183	-48.9	-77.6	283	16
2023-09-02T12:00	12609	183	-49.0	-77.7	282	16
2023-09-02T12:00	12629	182	-49.1	-77.7	282	16
2023-09-02T12:00	12649	182	-49.1	-77.7	282	16
2023-09-02T12:00	12667	181	-48.9	-77.9	281	16
2023-09-02T12:00	12686	181	-48.7	-77.8	281	16
2023-09-02T12:00	12709	180	-48.7	-78.2	281	16
2023-09-02T12:00	12725	180	-48.7	-78.2	281	17
2023-09-02T12:00	12746	179	-48.8	-78.2	281	17
2023-09-02T12:00	12767	178	-48.8	-78.2	281	18
2023-09-02T12:00	12784	178	-48.9	-78.3	281	18
2023-09-02T12:00	12803	177	-49.0	-78.4	281	19
2023-09-02T12:00	12822	177	-49.1	-78.5	281	19
2023-09-02T12:00	12842	176	-49.2	-78.5	281	19
2023-09-02T12:00	12860	176	-49.0	-78.8	281	18
2023-09-02T12:00	12878	175	-49.1	-78.9	281	18
2023-09-02T12:00	12897	175	-49.0	-78.8	281	18
2023-09-02T12:00	12916	174	-48.7	-78.6	280	17
2023-09-02T12:00	12934	174	-48.6	-78.5	280	17
2023-09-02T12:00	12953	173	-48.7	-78.6	280	17
2023-09-02T12:00	12972	173	-48.8		281	17
2023-09-02T12:00	12991	172	-49.0	-78.8	282	16
2023-09-02T12:00	13014	172	-49.2	-78.5	283	16
2023-09-02T12:00	13031	171	-49.3	-78.6	283	16
2023-09-02T12:00	13053	171	-49.4	-78.7	283	16
2023-09-02T12:00	13071	170	-49.6	-78.8	283	16
2023-09-02T12:00	13093	170	-49.7	-78.9	282	16
2023-09-02T12:00	13113	169	-49.6	-78.8	281	16
2023-09-02T12:00	13132	169	-49.4	-78.7	281	16
2023-09-02T12:00	13152	168	-49.4	-79.1	281	16
2023-09-02T12:00	13172	168	-49.4	-79.1	281	15
2023-09-02T12:00	13193	167	-49.4	-79.1	282	15
2023-09-02T12:00	13212	167	-49.4	-79.1	282	15
2023-09-02T12:00	13232	166	-49.5	-79.2	281	15
2023-09-02T12:00	13251	166	-49.4	-79.1	281	16
2023-09-02T12:00	13273	165	-49.4	-79.1	280	16
2023-09-02T12:00	13293	165	-49.4	-79.1	280	16
2023-09-02T12:00	13312	164	-49.5	-79.2	280	16
2023-09-02T12:00	13335	164	-49.5	-79.2	281	16
2023-09-02T12:00	13355	163	-49.6	-79.2	282	16
2023-09-02T12:00	13378	163	-49.6	-79.7	283	16
2023-09-02T12:00	13399	162	-49.6	-79.7	285	16
2023-09-02T12:00	13421	161	-49.8	-79.8	286	16
2023-09-02T12:00	13442	161	-49.9	-79.5	288	16
2023-09-02T12:00	13462	160	-50.0	-79.5	289	15
2023-09-02T12:00	13485	160	-50.1	-79.6	290	15
2023-09-02T12:00	13507	159	-50.2	-79.7	290	15
2023-09-02T12:00	13527	159	-50.2	-79.7	289	15
2023-09-02T12:00	13550	158	-50.3	-79.8	288	15
2023-09-02T12:00	13570	158	-50.4	-79.8	287	16
2023-09-02T12:00	13591	157	-50.5	-79.9	285	16
2023-09-02T12:00	13613	157	-50.5	-79.9	284	16
2023-09-02T12:00	13636	156	-50.6	-80.0	282	16
2023-09-02T12:00	13659	156	-50.7	-80.1	280	16
2023-09-02T12:00	13680	155	-50.8	-80.1	277	15
2023-09-02T12:00	13703	155	-50.9	-80.2	274	15
2023-09-02T12:00	13729	154	-51.1	-80.4	271	15
2023-09-02T12:00	13757	153	-51.2	-80.5	269	15
2023-09-02T12:00	13776	153	-51.2	-80.5	268	15
2023-09-02T12:00	13799	152	-51.0	-80.3	267	15
2023-09-02T12:00	13821	152	-50.9	-80.6	268	16
2023-09-02T12:00	13843	151	-50.8	-80.6	268	16
2023-09-02T12:00	13863	151	-50.5	-80.3	268	16
2023-09-02T12:00	13884	150	-50.5	-80.8	269	16
2023-09-02T12:00	13908	150	-50.6	-80.4	270	17
2023-09-02T12:00	13931	149	-50.9	-80.6	271	17
2023-09-02T12:00	13959	149	-51.1	-80.8	273	17
2023-09-02T12:00	13982	148	-51.1	-80.8	275	17
2023-09-02T12:00	14002	148	-51.2	-80.9	277	17
2023-09-02T12:00	14025	147	-51.3	-80.9	279	17
2023-09-02T12:00	14046	147	-51.4	-81.0	280	17
2023-09-02T12:00	14069	146	-51.4	-81.0	281	17
2023-09-02T12:00	14089	146	-51.6	-81.2	283	17
2023-09-02T12:00	14110	145	-51.7	-81.2	284	17
2023-09-02T12:00	14132	145	-51.8	-80.9	286	17
2023-09-02T12:00	14152	144	-51.9	-81.0	288	16
2023-09-02T12:00	14173	144	-52.0	-81.1	289	16
2023-09-02T12:00	14198	143	-52.1	-81.1	291	16
2023-09-02T12:00	14219	143	-52.2	-81.2	292	15
2023-09-02T12:00	14240	142	-52.3	-81.3	293	15
2023-09-02T12:00	14260	142	-52.5	-81.4	294	15
2023-09-02T12:00	14281	141	-52.7	-81.6	294	15
2023-09-02T12:00	14302	141	-52.8	-81.7	295	14
2023-09-02T12:00	14323	141	-52.9	-81.7	295	14
2023-09-02T12:00	14341	140	-52.9	-82.1	295	14
2023-09-02T12:00	14366	140	-53.0	-82.2	295	14
2023-09-02T12:00	14386	139	-52.9	-82.1	295	13
2023-09-02T12:00	14407	139	-52.8	-82.1	295	13
2023-09-02T12:00	14427	138	-52.6	-82.4	294	12
2023-09-02T12:00	14447	138	-52.4	-82.2	293	12
2023-09-02T12:00	14470	137	-52.3	-82.1	291	12
2023-09-02T12:00	14492	137	-52.3	-82.1	289	11
2023-09-02T12:00	14512	136	-52.4	-82.2	287	11
2023-09-02T12:00	14535	136	-52.4	-82.2	285	11
2023-09-02T12:00	14558	136	-52.5	-82.3	284	10
2023-09-02T12:00	14578	135	-52.6	-82.4	283	10
2023-09-02T12:00	14599	135	-52.8	-82.5	282	10
2023-09-02T12:00	14622	134	-52.9	-82.6	282	10
2023-09-02T12:00	14640	134	-52.9	-82.6	282	10
2023-09-02T12:00	14660	133	-52.8	-82.5	282	11
2023-09-02T12:00	14685	133	-52.5	-82.3	281	11
2023-09-02T12:00	14702	133	-52.7	-82.4	281	12
2023-09-02T12:00	14721	132	-52.8	-82.5	280	12
2023-09-02T12:00	14740	132	-52.8	-82.5	279	12
2023-09-02T12:00	14766	131	-52.9	-82.6	277	12
2023-09-02T12:00	14789	131	-52.9	-82.6	275	12
2023-09-02T12:00	14810	130	-52.9	-82.6	273	12
2023-09-02T12:00	14831	130	-53.0	-82.7	271	12
2023-09-02T12:00	14849	130	-53.0	-82.7	270	11
2023-09-02T12:00	14870	129	-53.1	-82.7	270	11
2023-09-02T12:00	14891	129	-53.1	-82.7	270	11
2023-09-02T12:00	14908	128	-53.2	-82.8	271	11
2023-09-02T12:00	14930	128	-53.0	-82.7	272	11
2023-09-02T12:00	14950	128	-52.9	-82.6	273	11
2023-09-02T12:00	14971	127	-53.1	-82.7	274	11
2023-09-02T12:00	14991	127	-53.2	-82.8	274	12
2023-09-02T12:00	15014	126	-53.2	-82.8	275	12
2023-09-02T12:00	15033	126	-53.3	-82.9	276	12
2023-09-02T12:00	15054	126	-53.4	-83.0	277	13
2023-09-02T12:00	15074	125	-53.6	-83.1	278	13
2023-09-02T12:00	15094	125	-53.7	-82.8	279	13
2023-09-02T12:00	15119	124	-53.9	-82.9	281	13
2023-09-02T12:00	15139	124	-54.1	-83.1	283	13
2023-09-02T12:00	15161	123	-54.2	-83.1	285	14
2023-09-02T12:00	15179	123	-54.1	-83.5	288	14
2023-09-02T12:00	15203	123	-53.7	-83.2	290	13
2023-09-02T12:00	15224	122	-53.4	-83.0	291	13
2023-09-02T12:00	15243	122	-53.3		292	13
2023-09-02T12:00	15263	121	-53.3		292	13
2023-09-02T12:00	15284	121	-53.3		292	13
2023-09-02T12:00	15304	121	-53.3		291	13
2023-09-02T12:00	15327	120	-53.3		290	12
2023-09-02T12:00	15346	120	-53.4	-83.4	290	12
2023-09-02T12:00	15366	120	-53.5	-83.0	289	11
2023-09-02T12:00	15387	119	-53.5	-83.0	287	11
2023-09-02T12:00	15407	119	-53.5	-83.0	287	10
2023-09-02T12:00	15430	118	-53.4	-83.0	286	10
2023-09-02T12:00	15448	118	-53.4	-83.0	287	10
2023-09-02T12:00	15470	118	-53.3	-82.9	287	10
2023-09-02T12:00	15492	117	-53.3	-82.9	287	9
2023-09-02T12:00	15513	117	-53.3	-82.9	287	9
2023-09-02T12:00	15532	116	-53.4	-83.0	286	9
2023-09-02T12:00	15554	116	-53.3	-82.9	286	9
2023-09-02T12:00	15575	116	-53.3	-82.9	285	9
2023-09-02T12:00	15598	115	-53.2	-82.8	286	9
2023-09-02T12:00	15618	115	-53.1	-82.7	288	9
2023-09-02T12:00	15637	115	-53.2	-82.8	291	9
2023-09-02T12:00	15660	114	-53.2	-83.3	295	9
2023-09-02T12:00	15681	114	-53.1	-83.2	298	9
2023-09-02T12:00	15704	113	-52.9	-83.1	302	9
2023-09-02T12:00	15722	113	-52.9	-83.1	304	9
2023-09-02T12:00	15743	113	-53.0	-82.7	306	9
2023-09-02T12:00	15766	112	-53.2	-83.3	307	9
2023-09-02T12:00	15787	112	-53.2	-83.3	307	8
2023-09-02T12:00	15806	112	-53.1	-83.2	306	8
2023-09-02T12:00	15828	111	-52.8	-83.0	304	7
2023-09-02T12:00	15848	111	-52.8	-83.0	302	7
2023-09-02T12:00	15871	111	-52.8	-83.0	298	6
2023-09-02T12:00	15893	110	-52.9	-83.1	295	6
2023-09-02T12:00	15914	110	-52.9	-83.1	291	5
2023-09-02T12:00	15937	109	-53.0	-83.1	288	5
2023-09-02T12:00	15959	109	-53.1	-83.2	287	5
2023-09-02T12:00	15981	109	-53.2	-83.3	287	5
2023-09-02T12:00	16002	108	-53.2	-83.3	288	5
2023-09-02T12:00	16027	108	-53.3		290	5
2023-09-02T12:00	16046	108	-53.4	-83.4	290	6
2023-09-02T12:00	16069	107	-53.3		291	6
2023-09-02T12:00	16088	107	-53.4	-83.4	291	7
2023-09-02T12:00	16113	106	-53.5	-83.5	291	7
2023-09-02T12:00	16135	106	-53.6	-83.6	290	7
2023-09-02T12:00	16155	106	-53.7	-83.7	290	8
2023-09-02T12:00	16178	105	-53.7	-83.7	289	8
2023-09-02T12:00	16201	105	-53.6	-83.6	288	8
2023-09-02T12:00	16221	105	-53.6	-84.1	288	8
2023-09-02T12:00	16244	104	-53.8	-84.2	288	7
2023-09-02T12:00	16265	104	-53.7	-84.2	289	7
2023-09-02T12:00	16287	104	-53.6	-84.1	289	7
2023-09-02T12:00	16307	103	-53.8	-84.2	288	6
2023-09-02T12:00	16330	103	-53.9	-84.3	287	6
2023-09-02T12:00	16353	103	-54.1	-84.0	285	6
2023-09-02T12:00	16375	102	-54.2	-84.0	283	5
2023-09-02T12:00	16395	102	-54.4	-84.2	280	5
2023-09-02T12:00	16419	101	-54.5	-84.3	275	4
2023-09-02T12:00	16444	101	-54.6	-84.3	269	4
2023-09-02T12:00	16467	101	-54.7	-84.4	261	4
2023-09-02T12:00	16486	100	-54.6	-84.3	255	4
2023-09-02T12:00	16508	100	-54.6	-84.3	252	4
2023-09-02T12:00	16532	100	-54.6	-84.3	252	4
2023-09-02T12:00	16555	99	-54.6	-84.3	254	4
2023-09-02T12:00	16576	99	-54.6	-84.8	259	5
2023-09-02T12:00	16599	99	-54.7	-84.9	264	5
2023-09-02T12:00	16619	98	-54.5	-84.8	270	5
2023-09-02T12:00	16641	98	-54.0	-84.4	275	6
2023-09-02T12:00	16661	98	-54.0	-84.4	280	6
2023-09-02T12:00	16684	97	-54.1	-84.5	283	6
2023-09-02T12:00	16706	97	-54.1	-84.5	286	6
2023-09-02T12:00	16727	97	-53.8	-84.8	287	6
2023-09-02T12:00	16747	96	-53.6	-84.6	285	5
2023-09-02T12:00	16768	96	-53.6	-84.6	281	5
2023-09-02T12:00	16792	96	-53.5	-84.6	274	4
2023-09-02T12:00	16811	95	-53.5	-84.6	268	4
2023-09-02T12:00	16835	95	-53.4	-84.5	264	4
2023-09-02T12:00	16856	95	-53.3	-85.0	267	4
2023-09-02T12:00	16878	95	-53.0	-84.8	274	4
2023-09-02T12:00	16898	94	-52.6	-84.5	283	4
2023-09-02T12:00	16919	94	-52.3	-84.3	292	5
2023-09-02T12:00	16935	94	-52.2	-84.2	301	5
2023-09-02T12:00	16959	93	-52.1	-84.8	309	5
2023-09-02T12:00	16981	93	-51.8	-84.6	318	4
2023-09-02T12:00	17000	93	-51.8	-84.6	327	4
2023-09-02T12:00	17024	92	-51.8	-83.9	335	4
2023-09-02T12:00	17045	92	-51.6	-83.8	342	4
2023-09-02T12:00	17068	92	-51.6	-83.8	348	3
2023-09-02T12:00	17087	91	-51.6	-83.8	352	3
2023-09-02T12:00	17111	91	-51.7	-83.9	351	2
2023-09-02T12:00	17134	91	-51.7	-83.9	346	2
2023-09-02T12:00	17154	91	-51.7	-83.9	331	1
2023-09-02T12:00	17175	90	-51.8	-83.9	309	1
2023-09-02T12:00	17196	90	-51.9	-84.0	290	1
2023-09-02T12:00	17218	90	-52.1	-84.2	279	2
2023-09-02T12:00	17238	89	-52.2	-84.2	274	2
2023-09-02T12:00	17260	89	-52.3	-84.3	273	3
2023-09-02T12:00	17281	89	-52.2	-84.2	275	3
2023-09-02T12:00	17301	89	-52.1	-84.2	279	3
2023-09-02T12:00	17324	88	-52.1	-84.2	286	3
2023-09-02T12:00	17346	88	-52.1	-84.2	294	3
2023-09-02T12:00	17368	88	-52.2	-84.2	300	4
2023-09-02T12:00	17389	87	-52.1	-84.2	303	4
2023-09-02T12:00	17410	87	-52.0	-84.1	304	4
2023-09-02T12:00	17433	87	-52.0	-84.1	303	3
2023-09-02T12:00	17451	86	-52.0	-84.1	302	3
2023-09-02T12:00	17477	86	-52.0	-84.1	304	3
2023-09-02T12:00	17497	86	-52.0	-84.1	309	3
2023-09-02T12:00	17521	86	-51.9	-84.0	317	2
2023-09-02T12:00	17543	85	-51.8	-84.6	328	2
2023-09-02T12:00	17564	85	-51.7	-84.5	341	2
2023-09-02T12:00	17585	85	-51.6	-84.5	359	2
2023-09-02T12:00	17606	84	-51.6	-84.5	22	1
2023-09-02T12:00	17629	84	-51.6	-84.5	52	1
2023-09-02T12:00	17650	84	-51.5	-84.4	80	1
2023-09-02T12:00	17670	84	-51.6	-84.5	101	1
2023-09-02T12:00	17695	83	-51.7	-84.5	112	1
2023-09-02T12:00	17713	83	-51.6	-84.5	113	1
2023-09-02T12:00	17735	83	-51.3	-84.3	103	1
2023-09-02T12:00	17756	83	-51.2	-84.2	92	0
2023-09-02T12:00	17780	82	-51.2	-84.2	93	0
2023-09-02T12:00	17800	82	-51.4	-84.3	113	1
2023-09-02T12:00	17824	82	-51.5	-84.4	145	1
2023-09-02T12:00	17847	81	-51.6	-84.5	170	1
2023-09-02T12:00	17873	81	-51.6	-83.8	186	1
2023-09-02T12:00	17890	81	-51.7	-83.9	197	2
2023-09-02T12:00	17914	81	-51.7	-83.9	203	2
2023-09-02T12:00	17940	80	-51.7	-83.9	208	3
2023-09-02T12:00	17958	80	-51.8	-83.9	212	3
2023-09-02T12:00	17982	80	-51.8	-83.9	216	4
2023-09-02T12:00	18005	79	-51.9	-84.0	221	4
2023-09-02T12:00	18031	79	-52.0	-84.1	227	5
2023-09-02T12:00	18050	79	-52.2	-84.2	233	5
2023-09-02T12:00	18072	79	-52.2	-84.2	240	5
2023-09-02T12:00	18093	78	-52.2	-84.2	246	6
2023-09-02T12:00	18115	78	-52.1	-84.8	252	6
2023-09-02T12:00	18140	78	-51.9	-84.7	256	7
2023-09-02T12:00	18162	78	-51.8	-84.6	258	7
2023-09-02T12:00	18184	77	-51.8	-84.6	260	7
2023-09-02T12:00	18206	77	-51.9	-84.7	262	8
2023-09-02T12:00	18228	77	-51.9	-84.7	265	8
2023-09-02T12:00	18252	76	-51.9	-84.7	268	8
2023-09-02T12:00	18272	76	-51.9	-84.7	271	8
2023-09-02T12:00	18297	76	-52.0	-84.8	274	8
2023-09-02T12:00	18318	76	-51.9	-84.7	277	8
2023-09-02T12:00	18346	75	-51.9	-84.7	279	8
2023-09-02T12:00	18364	75	-51.9	-84.7	282	8
2023-09-02T12:00	18393	75	-52.0	-84.8	286	8
2023-09-02T12:00	18416	75	-52.1	-84.8	292	7
2023-09-02T12:00	18441	74	-51.9	-84.7	298	7
2023-09-02T12:00	18465	74	-51.8	-84.6	306	7
2023-09-02T12:00	18493	74	-51.7	-84.5	315	6
2023-09-02T12:00	18516	73	-51.7	-84.5	324	6
2023-09-02T12:00	18541	73	-51.8	-84.6	332	6
2023-09-02T12:00	18566	73	-51.8	-84.6	340	6
2023-09-02T12:00	18589	73	-51.8	-84.6	347	6
2023-09-02T12:00	18611	72	-51.9	-84.7	353	6
2023-09-02T12:00	18635	72	-52.1	-84.8	1	6
2023-09-02T12:00	18660	72	-52.2	-84.2	10	6
2023-09-02T12:00	18684	72	-52.3	-84.3	19	6
2023-09-02T12:00	18710	71	-52.3	-85.0	28	6
2023-09-02T12:00	18735	71	-52.3	-85.0	36	6
2023-09-02T12:00	18759	71	-52.3	-85.0	42	6
2023-09-02T12:00	18778	70	-52.3	-85.0	47	6
2023-09-02T12:00	18806	70	-52.3	-84.3	50	6
2023-09-02T12:00	18827	70	-52.5	-84.4	53	6
2023-09-02T12:00	18852	70	-52.5	-84.4	55	6
2023-09-02T12:00	18877	69	-52.5	-84.4	59	6
2023-09-02T12:00	18902	69	-52.7	-84.6	64	6
2023-09-02T12:00	18922	69	-52.8	-84.7	70	6
2023-09-02T12:00	18946	69	-53.0	-84.8	75	6
2023-09-02T12:00	18971	68	-52.9	-84.7	80	5
2023-09-02T12:00	18990	68	-52.6	-85.2	84	5
2023-09-02T12:00	19016	68	-52.4	-85.1	88	4
2023-09-02T12:00	19038	68	-52.5	-85.1	92	4
2023-09-02T12:00	19062	67	-52.6	-84.5	99	3
2023-09-02T12:00	19084	67	-52.8	-84.7	110	3
2023-09-02T12:00	19104	67	-52.9	-84.7	124	2
2023-09-02T12:00	19129	67	-53.1	-84.9	137	2
2023-09-02T12:00	19154	67	-53.2	-85.0	146	3
2023-09-02T12:00	19172	66	-53.2	-85.0	150	3
2023-09-02T12:00	19194	66	-53.2	-85.0	151	3
2023-09-02T12:00	19216	66	-53.1	-84.9	150	3
2023-09-02T12:00	19237	66	-52.9	-85.4	148	3
2023-09-02T12:00	19260	65	-52.8	-85.3	146	3
2023-09-02T12:00	19285	65	-52.8	-85.3	144	3
2023-09-02T12:00	19304	65	-52.8	-84.7	143	3
2023-09-02T12:00	19331	65	-53.0	-84.8	143	3
2023-09-02T12:00	19354	64	-53.1	-84.9	145	3
2023-09-02T12:00	19378	64	-53.1	-84.9	151	3
2023-09-02T12:00	19396	64	-53.1	-84.9	160	3
2023-09-02T12:00	19419	64	-53.2	-85.0	173	3
2023-09-02T12:00	19442	64	-53.2	-85.0	186	3
2023-09-02T12:00	19465	63	-53.1	-84.9	195	3
2023-09-02T12:00	19489	63	-53.1	-84.9	202	4
2023-09-02T12:00	19510	63	-53.2	-85.0	205	4
2023-09-02T12:00	19533	63	-53.3	-85.0	208	4
2023-09-02T12:00	19555	62	-53.4	-85.1	211	4
2023-09-02T12:00	19582	62	-53.5	-85.2	212	4
2023-09-02T12:00	19606	62	-53.5	-85.2	214	4
2023-09-02T12:00	19627	62	-53.5	-85.2	213	3
2023-09-02T12:00	19654	62	-53.4	-85.1	209	3
2023-09-02T12:00	19674	61	-53.3	-85.7	201	3
2023-09-02T12:00	19700	61	-53.2	-85.6	191	3
2023-09-02T12:00	19720	61	-53.1	-85.6	181	3
2023-09-02T12:00	19744	61	-53.1	-85.6	173	3
2023-09-02T12:00	19771	60	-53.1	-85.6	168	3
2023-09-02T12:00	19795	60	-52.9	-85.4	164	2
2023-09-02T12:00	19815	60	-52.7	-85.3	161	2
2023-09-02T12:00	19842	60	-52.5	-85.1	157	2
2023-09-02T12:00	19865	60	-52.4	-85.1	147	1
2023-09-02T12:00	19887	59	-52.4	-85.1	131	1
2023-09-02T12:00	19912	59	-52.6	-85.2	119	1
2023-09-02T12:00	19937	59	-52.8	-85.3	118	1
2023-09-02T12:00	19963	59	-52.9	-85.4	125	2
2023-09-02T12:00	19986	58	-53.0	-85.5	136	2
2023-09-02T12:00	20006	58	-52.9	-85.4	150	2
2023-09-02T12:00	20030	58	-52.8	-85.3	165	2
2023-09-02T12:00	20060	58	-52.7	-85.3	180	2
2023-09-02T12:00	20081	58	-52.6	-85.2	193	3
2023-09-02T12:00	20106	57	-52.5	-85.1	202	3
2023-09-02T12:00	20131	57	-52.5	-85.1	207	3
2023-09-02T12:00	20151	57	-52.4	-85.1	208	4
2023-09-02T12:00	20176	57	-52.3	-85.0	209	4
2023-09-02T12:00	20200	57	-52.2	-84.9	210	5
2023-09-02T12:00	20223	56	-52.3	-85.0	212	5
2023-09-02T12:00	20248	56	-52.3	-85.0	215	5
2023-09-02T12:00	20272	56	-52.2	-84.9	218	5
2023-09-02T12:00	20299	56	-52.2	-84.9	221	5
2023-09-02T12:00	20322	55	-52.2	-84.9	224	5
2023-09-02T12:00	20345	55	-52.1	-84.8	227	5
2023-09-02T12:00	20371	55	-52.1	-84.8	230	5
2023-09-02T12:00	20395	55	-52.1	-84.8	236	4
2023-09-02T12:00	20420	55	-52.2	-84.9	243	4
2023-09-02T12:00	20449	54	-52.2	-84.9	251	4
2023-09-02T12:00	20473	54	-52.2	-84.9	256	3
2023-09-02T12:00	20499	54	-52.3	-85.0	256	3
2023-09-02T12:00	20522	54	-52.4	-85.1	250	4
2023-09-02T12:00	20544	54	-52.4	-85.1	244	4
2023-09-02T12:00	20570	53	-52.1	-84.8	239	4
2023-09-02T12:00	20594	53	-52.1	-84.8	236	5
2023-09-02T12:00	20620	53	-52.2	-84.9	236	6
2023-09-02T12:00	20646	53	-52.3	-85.0	237	6
2023-09-02T12:00	20667	53	-52.3	-85.0	240	6
2023-09-02T12:00	20694	52	-52.3	-85.0	243	6
2023-09-02T12:00	20717	52	-52.3	-85.0	248	6
2023-09-02T12:00	20742	52	-52.3	-85.0	255	6
2023-09-02T12:00	20765	52	-52.1	-84.8	264	5
2023-09-02T12:00	20793	52	-52.0	-84.8	273	5
2023-09-02T12:00	20818	51	-52.0	-84.8	284	4
2023-09-02T12:00	20841	51	-52.0	-84.8	295	4
2023-09-02T12:00	20869	51	-52.1	-84.8	308	4
2023-09-02T12:00	20893	51	-52.2	-84.9	323	3
2023-09-02T12:00	20917	51	-52.3	-85.0	339	3
2023-09-02T12:00	20942	50	-52.4	-85.1	353	3
2023-09-02T12:00	20966	50	-52.5	-85.1	4	3
2023-09-02T12:00	20989	50	-52.5	-85.1	11	3
2023-09-02T12:00	21014	50	-52.5	-85.1	14	3
2023-09-02T12:00	21037	50	-52.5	-85.1	12	3
2023-09-02T12:00	21058	50	-52.3	-85.0	7	3
2023-09-02T12:00	21085	49	-52.3	-85.0	0	3
2023-09-02T12:00	21112	49	-52.5	-85.1	356	2
2023-09-02T12:00	21133	49	-52.6	-85.2	358	2
2023-09-02T12:00	21155	49	-52.6	-85.2	11	1
2023-09-02T12:00	21181	49	-52.5	-85.1	45	1
2023-09-02T12:00	21210	48	-52.4	-85.1	81	1
2023-09-02T12:00	21227	48	-52.4	-85.1	99	2
2023-09-02T12:00	21252	48	-52.4	-85.1	107	2
2023-09-02T12:00	21268	48	-52.6	-85.2	111	2
2023-09-02T12:00	21298	48	-52.7	-85.3	115	2
2023-09-02T12:00	21321	48	-52.7	-85.3	120	2
2023-09-02T12:00	21346	47	-52.7	-85.3	127	2
2023-09-02T12:00	21368	47	-52.7	-85.3	134	2
2023-09-02T12:00	21391	47	-52.6	-85.2	140	2
2023-09-02T12:00	21414	47	-52.7	-85.3	146	2
2023-09-02T12:00	21443	47	-52.7	-85.3	153	2
2023-09-02T12:00	21461	47	-52.7	-85.3	162	2
2023-09-02T12:00	21491	46	-52.7	-85.3	178	2
2023-09-02T12:00	21513	46	-52.7	-85.3	202	2
2023-09-02T12:00	21535	46	-52.7	-85.3	228	2
2023-09-02T12:00	21558	46	-52.7	-85.3	248	2
2023-09-02T12:00	21582	46	-52.8	-85.3	261	3
2023-09-02T12:00	21610	45	-52.8	-85.3	271	3
2023-09-02T12:00	21634	45	-52.8	-85.3	279	4
2023-09-02T12:00	21661	45	-52.8	-85.3	286	4
2023-09-02T12:00	21685	45	-52.6	-85.2	294	5
2023-09-02T12:00	21708	45	-52.4	-85.1	300	5
2023-09-02T12:00	21732	45	-52.1	-85.6	307	5
2023-09-02T12:00	21753	44	-52.0	-85.5	312	5
2023-09-02T12:00	21776	44	-51.9	-85.5	317	4
2023-09-02T12:00	21799	44	-51.9	-85.5	321	4
2023-09-02T12:00	21825	44	-52.0	-84.8	325	4
2023-09-02T12:00	21854	44	-52.0	-84.8	329	3
2023-09-02T12:00	21869	44	-52.1	-84.8	333	3
2023-09-02T12:00	21898	43	-52.2	-84.9	336	3
2023-09-02T12:00	21923	43	-52.3	-85.0	338	3
2023-09-02T12:00	21952	43	-52.4	-85.1	338	3
2023-09-02T12:00	21974	43	-52.4	-85.1	336	4
2023-09-02T12:00	21999	43	-52.4	-85.1	334	4
2023-09-02T12:00	22026	43	-52.5	-85.1	331	5
2023-09-02T12:00	22048	43	-52.5	-85.1	329	5
2023-09-02T12:00	22071	42	-52.6	-85.2	327	6
2023-09-02T12:00	22098	42	-52.7	-85.3	327	6
2023-09-02T12:00	22119	42	-52.7	-85.3	327	6
2023-09-02T12:00	22144	42	-52.7	-85.3	330	6
2023-09-02T12:00	22170	42	-52.8	-85.3	334	6
2023-09-02T12:00	22202	42	-52.7	-85.3	340	6
2023-09-02T12:00	22224	41	-52.6	-85.2	348	5
2023-09-02T12:00	22248	41	-52.7	-85.3	357	5
2023-09-02T12:00	22270	41	-52.8	-85.3	6	5
2023-09-02T12:00	22298	41	-52.9	-85.4	13	5
2023-09-02T12:00	22323	41	-53.0	-85.5	18	5
2023-09-02T12:00	22345	41	-53.0	-85.5	22	5
2023-09-02T12:00	22368	40	-52.9	-85.4	27	4
2023-09-02T12:00	22396	40	-52.8	-85.3	33	4
2023-09-02T12:00	22418	40	-52.8	-85.3	39	3
2023-09-02T12:00	22444	40	-52.8	-85.3	43	3
2023-09-02T12:00	22468	40	-52.8	-85.3	42	3
2023-09-02T12:00	22492	40	-52.9	-85.4	35	3
2023-09-02T12:00	22513	40	-52.8	-85.3	27	3
2023-09-02T12:00	22541	39	-52.8	-85.3	20	3
2023-09-02T12:00	22568	39	-52.9	-85.4	14	4
2023-09-02T12:00	22589	39	-53.1	-85.6	12	4
2023-09-02T12:00	22613	39	-53.2	-85.6	12	4
2023-09-02T12:00	22641	39	-53.3	-85.7	16	3
2023-09-02T12:00	22667	39	-53.2	-85.6	24	2
2023-09-02T12:00	22689	38	-53.1	-85.6	41	2
2023-09-02T12:00	22716	38	-53.0	-85.5	67	2
2023-09-02T12:00	22742	38	-52.9	-85.4	93	2
2023-09-02T12:00	22764	38	-52.8	-85.3	112	2
2023-09-02T12:00	22793	38	-52.8	-85.3	125	2
2023-09-02T12:00	22820	38	-52.8	-85.3	136	2
2023-09-02T12:00	22839	38	-52.9	-85.4	147	2
2023-09-02T12:00	22867	37	-53.0	-85.5	159	2
2023-09-02T12:00	22897	37	-53.0	-85.5	170	2
2023-09-02T12:00	22916	37	-52.8	-85.3	180	2
2023-09-02T12:00	22944	37	-52.7	-85.3	188	2
2023-09-02T12:00	22970	37	-52.6	-85.2	199	2
2023-09-02T12:00	22997	37	-52.7	-85.3	217	1
2023-09-02T12:00	23016	37	-52.8	-85.3	246	1
2023-09-02T12:00	23046	36	-52.8	-85.3	273	1
2023-09-02T12:00	23073	36	-52.8	-85.3	284	2
2023-09-02T12:00	23099	36	-52.8	-85.3	285	2
2023-09-02T12:00	23124	36	-52.8	-85.3	276	1
2023-09-02T12:00	23146	36	-52.6	-85.2	251	1
2023-09-02T12:00	23173	36	-52.7	-85.3	208	1
2023-09-02T12:00	23199	36	-52.6	-85.2	181	1
2023-09-02T12:00	23224	35	-52.5	-85.9	172	2
2023-09-02T12:00	23250	35	-52.6		173	2
2023-09-02T12:00	23271	35	-52.8	-86.1	178	2
2023-09-02T12:00	23297	35	-52.6		187	3
2023-09-02T12:00	23324	35	-52.5	-85.9	203	2
2023-09-02T12:00	23347	35	-52.5	-85.9	225	2
2023-09-02T12:00	23375	35	-52.3	-85.8	247	3
2023-09-02T12:00	23398	34	-52.2	-85.7	263	3
2023-09-02T12:00	23421	34	-52.0	-85.5	273	4
2023-09-02T12:00	23443	34	-51.7	-85.3	281	5
2023-09-02T12:00	23471	34	-51.6	-85.2	288	5
2023-09-02T12:00	23494	34	-51.6	-85.2	295	5
2023-09-02T12:00	23518	34	-51.6	-85.2	301	6
2023-09-02T12:00	23549	34	-51.6	-85.2	307	6
2023-09-02T12:00	23570	34	-51.6	-85.2	312	6
2023-09-02T12:00	23597	33	-51.7	-85.3	316	6
2023-09-02T12:00	23624	33	-51.8	-85.4	319	7
2023-09-02T12:00	23651	33	-51.8	-85.4	322	6
2023-09-02T12:00	23678	33	-51.8	-85.4	324	6
2023-09-02T12:00	23702	33	-51.8	-85.4	326	6
2023-09-02T12:00	23724	33	-51.9	-85.5	326	5
2023-09-02T12:00	23752	33	-51.9	-85.5	326	5
2023-09-02T12:00	23775	33	-52.0	-85.5	322	4
2023-09-02T12:00	23801	32	-52.0	-85.5	314	4
2023-09-02T12:00	23824	32	-51.8	-85.4	303	4
2023-09-02T12:00	23851	32	-51.7	-85.3	291	4
2023-09-02T12:00	23876	32	-51.6	-85.2	279	4
2023-09-02T12:00	23900	32	-51.5	-85.2	270	4
2023-09-02T12:00	23927	32	-51.6	-85.2	265	5
2023-09-02T12:00	23954	32	-51.6	-85.2	264	5
2023-09-02T12:00	23969	32	-51.5	-85.2	265	6
2023-09-02T12:00	23999	31	-51.4	-85.1	268	6
2023-09-02T12:00	24024	31	-51.3	-85.0	272	7
2023-09-02T12:00	24049	31	-51.2	-85.0	277	7
2023-09-02T12:00	24072	31	-51.3	-85.0	280	7
2023-09-02T12:00	24098	31	-51.3	-85.0	283	7
2023-09-02T12:00	24128	31	-51.3	-85.0	287	7
2023-09-02T12:00	24146	31	-51.3	-85.0	290	7
2023-09-02T12:00	24172	31	-51.3	-85.0	295	7
2023-09-02T12:00	24199	30	-51.3	-85.0	301	7
2023-09-02T12:00	24224	30	-51.4	-85.1	308	7
2023-09-02T12:00	24252	30	-51.4	-85.1	317	7
2023-09-02T12:00	24278	30	-51.4	-85.1	326	7
2023-09-02T12:00	24305	30	-51.4	-85.1	336	8
2023-09-02T12:00	24327	30	-51.2	-85.0	345	8
2023-09-02T12:00	24349	30	-51.1	-84.9	352	9
2023-09-02T12:00	24381	30	-50.9	-84.7	357	9
2023-09-02T12:00	24398	30	-50.8	-84.7	1	9
2023-09-02T12:00	24430	29	-50.9	-84.7	4	9
2023-09-02T12:00	24448	29	-51.0	-84.8	6	9
2023-09-02T12:00	24480	29	-51.0	-84.8	8	9
2023-09-02T12:00	24502	29	-51.0	-84.8	9	9
2023-09-02T12:00	24527	29	-50.9	-85.6	10	9
2023-09-02T12:00	24546	29	-50.6	-85.4	9	9
2023-09-02T12:00	24578	29	-50.6	-85.4	7	9
2023-09-02T12:00	24599	29	-50.5	-85.3	4	8
2023-09-02T12:00	24625	29	-50.5	-84.5	360	8
2023-09-02T12:00	24649	28	-50.7	-84.6	356	8
2023-09-02T12:00	24672	28	-50.8	-84.7	351	7
2023-09-02T12:00	24700	28	-50.9	-84.7	348	7
2023-09-02T12:00	24722	28	-51.0	-84.8	345	7
2023-09-02T12:00	24750	28	-50.9	-84.7	344	6
2023-09-02T12:00	24769	28	-50.8	-85.6	342	6
2023-09-02T12:00	24801	28	-50.6	-85.4	341	6
2023-09-02T12:00	24825	28	-50.3	-85.2	338	5
2023-09-02T12:00	24849	28	-50.4	-85.3	335	5
2023-09-02T12:00	24873	27	-50.5	-85.3	332	5
2023-09-02T12:00	24897	27	-50.5	-85.3	330	5
2023-09-02T12:00	24927	27	-50.4	-85.3	331	5
2023-09-02T12:00	24951	27	-50.3	-85.2	334	5
2023-09-02T12:00	24969	27	-50.2	-85.1	338	5
2023-09-02T12:00	24998	27	-50.3	-85.2	342	5
2023-09-02T12:00	25021	27	-50.3	-85.2	345	6
2023-09-02T12:00	25053	27	-50.2	-85.1	349	6
2023-09-02T12:00	25077	27	-50.1	-85.1	353	6
2023-09-02T12:00	25099	27	-50.0	-85.0	358	7
2023-09-02T12:00	25130	26	-49.8	-84.8	4	7
2023-09-02T12:00	25150	26	-49.8	-84.8	9	7
2023-09-02T12:00	25180	26	-49.8	-84.8	15	7
2023-09-02T12:00	25197	26	-49.7	-84.8	19	7
2023-09-02T12:00	25227	26	-49.7	-84.8	21	7
2023-09-02T12:00	25259	26	-49.7	-84.8	22	7
2023-09-02T12:00	25280	26	-49.6	-84.7	22	7
2023-09-02T12:00	25309	26	-49.4	-84.6	21	7
2023-09-02T12:00	25333	26	-49.4	-84.6	20	7
2023-09-02T12:00	25356	26	-49.4	-84.6	22	8
2023-09-02T12:00	25388	25	-49.4	-84.6	25	8
2023-09-02T12:00	25414	25	-49.2	-84.4	29	8
2023-09-02T12:00	25443	25	-48.8	-84.1	33	8
2023-09-02T12:00	25465	25	-48.7	-84.1	37	8
2023-09-02T12:00	25497	25	-48.7	-84.1	41	8
2023-09-02T12:00	25521	25	-48.7	-84.1	45	8
2023-09-02T12:00	25544	25	-48.8	-84.1	47	7
2023-09-02T12:00	25572	25	-48.9	-84.2	49	8
2023-09-02T12:00	25600	25	-48.9	-84.2	50	8
2023-09-02T12:00	25627	24	-48.8	-84.1	50	8
2023-09-02T12:00	25658	24	-48.8	-84.1	50	8
2023-09-02T12:00	25687	24	-48.9	-84.2	51	9
2023-09-02T12:00	25718	24	-49.0	-84.3	54	9
2023-09-02T12:00	25744	24	-49.1	-84.3	57	9
2023-09-02T12:00	25766	24	-49.2	-84.4	61	10
2023-09-02T12:00	25799	24	-49.3	-84.5	65	10
2023-09-02T12:00	25815	24	-49.5	-84.6	69	10
2023-09-02T12:00	25846	24	-49.5	-84.6	72	11
2023-09-02T12:00	25874	24	-49.4	-84.6	75	11
2023-09-02T12:00	25902	23	-49.5	-84.6	77	11
2023-09-02T12:00	25938	23	-49.6	-84.7	79	11
2023-09-02T12:00	25965	23	-49.7	-84.8	81	10
2023-09-02T12:00	25984	23	-49.7	-84.8	83	10
2023-09-02T12:00	26017	23	-49.7	-84.8	85	10
2023-09-02T12:00	26036	23	-49.7	-84.8	88	10
2023-09-02T12:00	26068	23	-49.7	-84.8	92	9
2023-09-02T12:00	26105	23	-49.8	-84.8	95	9
2023-09-02T12:00	26127	23	-49.9	-84.9	99	9
2023-09-02T12:00	26151	23	-50.0	-85.0	103	8
2023-09-02T12:00	26177	23	-50.0	-85.0	106	8
2023-09-02T12:00	26205	22	-49.9	-84.9	110	7
2023-09-02T12:00	26233	22	-49.8	-84.8	114	7
2023-09-02T12:00	26259	22	-49.7	-84.8	119	7
2023-09-02T12:00	26285	22	-49.6	-84.7	124	7
2023-09-02T12:00	26319	22	-49.5	-84.6	130	7
2023-09-02T12:00	26345	22	-49.5	-84.6	135	8
2023-09-02T12:00	26369	22	-49.4	-84.6	141	8
2023-09-02T12:00	26399	22	-49.4	-84.6	146	8
2023-09-02T12:00	26424	22	-49.3	-85.5	150	8
2023-09-02T12:00	26445	22	-49.2	-85.5	154	7
2023-09-02T12:00	26474	22	-49.0	-85.3	157	7
2023-09-02T12:00	26513	21	-49.0	-85.3	159	7
2023-09-02T12:00	26528	21	-48.8	-85.2	160	6
2023-09-02T12:00	26557	21	-48.7	-85.1	160	6
2023-09-02T12:00	26580	21	-48.7	-85.1	160	6
2023-09-02T12:00	26617	21	-48.6	-85.0	159	5
2023-09-02T12:00	26638	21	-48.5	-85.0	159	5
2023-09-02T12:00	26660	21	-48.4	-84.9	158	4
2023-09-02T12:00	26692	21	-48.4	-84.9	155	4
2023-09-02T12:00	26713	21	-48.4	-84.9	150	4
2023-09-02T12:00	26733	21	-48.4	-84.9	143	4
2023-09-02T12:00	26766	21	-48.3	-84.8	137	4
2023-09-02T12:00	26804	21	-48.2	-84.8	134	4
2023-09-02T12:00	26824	20	-48.1	-84.7	132	4
2023-09-02T12:00	26848	20	-47.9	-84.6	133	4
2023-09-02T12:00	26878	20	-47.7	-84.4	136	3
2023-09-02T12:00	26902	20	-47.6	-84.3	142	3
2023-09-02T12:00	26937	20	-47.6	-84.3	154	2
2023-09-02T12:00	26947	20	-47.5	-84.3	170	2
2023-09-02T12:00	26974	20	-47.4	-84.2	181	1
2023-09-02T12:00	26995	20	-47.2	-84.1	181	2
2023-09-02T12:00	27019	20	-46.8	-83.8	175	2
2023-09-02T12:00	27055	20	-46.6	-83.6	169	2
2023-09-02T12:00	27085	20	-46.3	-83.4	167	3
2023-09-02T12:00	27105	20	-46.1	-83.3	167	3
2023-09-02T12:00	27131	19	-45.9	-83.2	168	4
2023-09-02T12:00	27159	19	-45.7	-83.0	170	4
2023-09-02T12:00	27172	19	-45.6	-82.9	172	4
2023-09-02T12:00	27208	19	-45.6	-82.9	175	4
2023-09-02T12:00	27234	19	-45.6	-82.9	180	3
2023-09-02T12:00	27250	19	-45.5	-82.9	186	3
2023-09-02T12:00	27285	19	-45.3	-82.7	194	3
2023-09-02T12:00	27311	19	-45.2	-82.7	202	2
2023-09-02T12:00	27337	19	-45.0	-82.5	207	2
2023-09-02T12:00	27362	19	-45.0	-82.5	210	3
2023-09-02T12:00	27393	19	-45.0	-82.5	213	3
2023-09-02T12:00	27416	19	-45.1	-82.6	218	2
2023-09-02T12:00	27437	19	-45.0	-82.5	225	2
2023-09-02T12:00	27465	19	-44.8	-82.4	235	2
2023-09-02T12:00	27490	18	-44.5	-82.2	251	1
2023-09-02T12:00	27517	18	-44.3	-82.0	278	1
2023-09-02T12:00	27541	18	-44.1	-81.9	320	1
2023-09-02T12:00	27565	18	-43.8	-81.7	354	1
2023-09-02T12:00	27593	18	-43.6	-81.5	12	1
2023-09-02T12:00	27613	18	-43.4	-81.4	21	2
2023-09-02T12:00	27639	18	-43.2	-81.3	28	2
2023-09-02T12:00	27669	18	-42.9	-81.1	34	3
2023-09-02T12:00	27700	18	-42.6	-80.8	40	3
2023-09-02T12:00	27716	18	-42.5	-80.8	48	3
2023-09-02T12:00	27755	18	-42.5	-80.8	56	4
2023-09-02T12:00	27773	18	-42.5	-80.8	65	4
2023-09-02T12:00	27792	18	-42.5	-80.8	73	4
2023-09-02T12:00	27825	18	-42.4	-80.7	80	5
2023-09-02T12:00	27844	18	-42.5	-80.8	85	5
2023-09-02T12:00	27881	17	-42.6	-80.8	90	5
2023-09-02T12:00	27891	17	-42.7	-80.9	95	6
2023-09-02T12:00	27939	17	-42.8	-81.0	100	6
2023-09-02T12:00	27958	17	-42.9	-81.1	106	6
2023-09-02T12:00	27989	17	-43.0	-81.1	113	7
2023-09-02T12:00	28023	17	-43.0	-81.1	119	7
2023-09-02T12:00	28044	17	-43.1	-81.2	124	7
2023-09-02T12:00	28072	17	-43.2	-81.3	129	7
2023-09-02T12:00	28099	17	-43.3	-81.3	134	7
2023-09-02T12:00	28132	17	-43.3	-81.3	138	7
2023-09-02T12:00	28156	17	-43.4	-81.4	143	6
2023-09-02T12:00	28177	17	-43.5	-81.5	148	6
2023-09-02T12:00	28208	17	-43.7	-81.6	153	6
2023-09-02T12:00	28227	17	-43.9	-81.8	159	5
2023-09-02T12:00	28262	16	-44.0	-81.8	166	5
2023-09-02T12:00	28299	16	-44.0	-81.8	174	4
2023-09-02T12:00	28322	16	-44.1	-81.9	181	4
2023-09-02T12:00	28351	16	-44.2	-82.0	189	3
2023-09-02T12:00	28369	16	-44.1	-81.9	197	3
2023-09-02T12:00	28400	16	-43.9	-81.8	205	2
2023-09-02T12:00	28432	16	-43.7	-81.6	214	2
2023-09-02T12:00	28463	16	-43.6	-81.5	224	2
2023-09-02T12:00	28486	16	-43.6	-81.5	233	1
2023-09-02T12:00	28515	16	-43.7	-81.6	238	1
2023-09-02T12:00	28548	16	-43.8	-81.7	227	1
2023-09-02T12:00	28578	16	-43.8	-81.7	193	1
2023-09-02T12:00	28603	16	-43.8	-81.7	171	1
2023-09-02T12:00	28637	16	-43.8	-81.7	166	2
2023-09-02T12:00	28661	16	-43.8	-81.7	167	2
2023-09-02T12:00	28693	15	-43.8	-81.7	169	3
2023-09-02T12:00	28726	15	-43.9	-81.8	172	4
2023-09-02T12:00	28747	15	-44.0	-81.8	175	4
2023-09-02T12:00	28781	15	-44.1	-81.9	177	5
2023-09-02T12:00	28807	15	-44.2	-82.0	178	5
2023-09-02T12:00	28838	15	-44.3	-82.0	179	5
2023-09-02T12:00	28870	15	-44.5	-82.2	180	5
2023-09-02T12:00	28881	15	-44.7	-82.3	181	5
2023-09-02T12:00	28921	15	-44.8	-82.4	183	5
2023-09-02T12:00	28967	15	-45.0	-82.5	187	5
2023-09-02T12:00	28989	15	-45.1	-82.6	192	5
2023-09-02T12:00	29004	15	-45.2	-82.7	198	5
2023-09-02T12:00	29035	15	-45.4	-82.8	206	4
2023-09-02T12:00	29065	15	-45.5	-82.9	214	4
2023-09-02T12:00	29106	15	-45.6	-82.9	221	4
2023-09-02T12:00	29121	14	-45.7	-83.0	229	3
2023-09-02T12:00	29151	14	-45.7	-83.0	235	3
2023-09-02T12:00	29186	14	-45.6	-82.9	240	3
2023-09-02T12:00	29215	14	-45.3	-82.7	243	2
2023-09-02T12:00	29243	14	-45.2	-82.7	244	2
2023-09-02T12:00	29264	14	-45.2	-82.7	240	2
2023-09-02T12:00	29289	14	-45.3	-82.7	235	2
2023-09-02T12:00	29313	14	-45.4	-82.8	229	3
2023-09-02T12:00	29355	14	-45.4	-82.8	225	3
2023-09-02T12:00	29379	14	-45.2	-82.7	223	4
2023-09-02T12:00	29394	14	-45.0	-82.5	224	4
2023-09-02T12:00	29424	14	-45.0	-82.5	226	5
2023-09-02T12:00	29457	14	-45.0	-82.5	229	5
2023-09-02T12:00	29471	14	-44.9	-82.5	233	6
2023-09-02T12:00	29510	14	-44.9	-82.5	237	6
2023-09-02T12:00	29534	14	-44.9	-82.5	243	6
2023-09-02T12:00	29553	14	-45.0	-82.5	251	6
2023-09-02T12:00	29585	14	-45.0	-82.5	259	6
2023-09-02T12:00	29607	13	-45.0	-82.5	267	6
2023-09-02T12:00	29629	13	-44.9	-82.5	275	6
2023-09-02T12:00	29647	13	-44.8	-82.4	281	6
2023-09-02T12:00	29686	13	-44.8	-82.4	285	5
2023-09-02T12:00	29700	13	-44.7	-82.3	287	5
2023-09-02T12:00	29721	13	-44.5	-82.2	287	5
2023-09-02T12:00	29757	13	-44.5	-82.2	284	4
2023-09-02T12:00	29784	13	-44.7	-82.3	280	4
2023-09-02T12:00	29813	13	-44.7	-82.3	275	4
2023-09-02T12:00	29829	13	-44.6	-82.2	273	4
2023-09-02T12:00	29863	13	-44.7	-82.3	272	4
2023-09-02T12:00	29892	13	-44.7	-82.3	274	4
2023-09-02T12:00	29916	13	-44.8	-82.4	276	3
2023-09-02T12:00	29929	13	-45.0	-82.5	279	3
2023-09-02T12:00	29975	13	-45.1	-82.6	281	3
2023-09-02T12:00	29999	13	-45.1	-82.6	283	3
2023-09-02T12:00	30022	13	-45.1	-82.6	286	3
2023-09-02T12:00	30047	13	-45.0	-82.5	291	3
2023-09-02T12:00	30076	13	-44.8	-82.4	298	3
2023-09-02T12:00	30104	13	-44.7	-82.3	305	3
2023-09-02T12:00	30146	12	-44.5	-82.2	312	3
2023-09-02T12:00	30153	12	-44.3	-82.0	316	3
2023-09-02T12:00	30198	12	-44.3	-82.0	317	3
2023-09-02T12:00	30215	12	-44.3	-82.0	318	3
2023-09-02T12:00	30246	12	-44.3	-82.0	319	3
2023-09-02T12:00	30265	12	-44.4	-82.1	320	3
2023-09-02T12:00	30286	12	-44.3	-82.0	321	2
2023-09-02T12:00	30321	12	-44.2	-82.0	321	2
2023-09-02T12:00	30350	12	-44.1	-81.9	316	2
2023-09-02T12:00	30386	12	-44.1	-81.9	300	1
2023-09-02T12:00	30416	12	-44.1	-81.9	272	1
2023-09-02T12:00	30449	12	-44.1	-81.9	251	1
2023-09-02T12:00	30485	12	-44.1	-81.9	240	2
2023-09-02T12:00	30514	12	-44.1	-81.9	234	2
2023-09-02T12:00	30522	12	-44.2	-82.0	230	2
2023-09-02T12:00	30574	12	-44.4	-82.1	225	2
2023-09-02T12:00	30586	12	-44.6	-82.2	219	2
2023-09-02T12:00	30610	12	-44.7	-82.3	213	2
2023-09-02T12:00	30644	12	-44.8	-82.4	209	2
2023-09-02T12:00	30674	12	-45.0	-82.5	208	2
2023-09-02T12:00	30686	11	-45.1	-82.6	214	2
2023-09-02T12:00	30727	11	-45.2	-82.7	227	2
2023-09-02T12:00	30759	11	-45.4	-82.8	245	2
2023-09-02T12:00	30785	11	-45.4	-82.8	261	3
2023-09-02T12:00	30823	11	-45.3	-82.7	274	4
2023-09-02T12:00	30850	11	-45.3	-82.7	283	4
2023-09-02T12:00	30881	11	-45.4	-82.8	292	5
2023-09-02T12:00	30897	11	-45.4	-82.8	300	6
2023-09-02T12:00	30919	11	-45.2	-82.7	308	6
2023-09-02T12:00	30935	11	-45.0	-82.5	315	6
2023-09-02T12:00	30981	11	-44.7	-82.3	321	7
2023-09-02T12:00	30995	11	-44.6	-82.2	327	7
2023-09-02T12:00	31024	11	-44.6	-82.2	333	7
2023-09-02T12:00	31051	11	-44.3	-82.0	338	8
2023-09-02T12:00	31076	11	-44.0	-81.8	344	8
2023-09-02T12:00	31116	11	-43.8	-81.7	350	8
2023-09-02T12:00	31126	11	-43.7	-81.6	355	8
2023-09-02T12:00	31169	11	-43.5	-81.5	1	8
2023-09-02T12:00	31183	11	-43.1	-81.2	7	7
2023-09-02T12:00	31232	11	-42.9	-81.1	14	6
2023-09-02T12:00	31250	11	-42.8	-81.0	24	5
2023-09-02T12:00	31265	11	-42.7	-80.9	35	5
2023-09-02T12:00	31284	10	-42.7	-80.9	47	4
2023-09-02T12:00	31326	10	-42.8	-81.0	60	4
2023-09-02T12:00	31347	10	-43.0	-81.1	70	3
2023-09-02T12:00	31375	10	-43.1	-81.2	77	3
2023-09-02T12:00	31406	10	-43.1	-81.2	81	3
2023-09-02T12:00	31422	10	-43.2	-81.3	79	2
2023-09-02T12:00	31453	10	-43.3	-81.3	72	2
2023-09-02T12:00	31476	10	-43.3	-81.3	60	2
2023-09-02T12:00	31488	10	-43.3	-81.3	45	2
2023-09-02T12:00	31534	10	-43.5	-81.5	29	2
2023-09-02T12:00	31551	10	-43.6	-81.5	16	2
2023-09-02T12:00	31603	10	-43.7	-81.6	7	3
2023-09-02T12:00	31624	10	-43.8	-81.7	2	4
2023-09-02T12:00	31670	10	-44.1	-81.9	357	5
2023-09-02T12:00	31692	10	-44.2	-82.0	358	6
2023-09-02T12:00	31711	10	-44.3	-82.0	359	6
2023-09-02T12:00	31746	10	-44.3	-82.0	1	6
2023-09-02T12:00	31775	10	-44.2	-82.0	3	6
2023-09-02T12:00	31800	10	-44.2	-82.0	5	7
2023-09-02T12:00	31831	10	-44.2	-82.0	7	7
2023-09-02T12:00	31855	10	-44.3	-82.0	9	6
2023-09-02T12:00	31884	10	-44.3	-82.0	12	6
2023-09-02T12:00	31912	10	-44.3	-82.0	16	6
2023-09-02T12:00	31956	10	-44.3	-82.0	20	6
2023-09-02T12:00	31984	9	-44.3	-82.0	24	6
2023-09-02T12:00	32002	9	-44.2	-82.0	26	6
2023-09-02T12:00	32028	9	-44.2	-82.0	26	7
2023-09-02T12:00	32044	9	-44.3	-82.0	26	7
2023-09-02T12:00	32083	9	-44.4	-82.1	25	8
2023-09-02T12:00	32125	9	-44.6	-82.2	24	9
2023-09-02T12:00	32146	9	-44.7	-82.3	24	10
2023-09-02T12:00	32181	9	-44.8	-82.4	24	11
2023-09-02T12:00	32209	9	-44.9	-82.5	25	11
2023-09-02T12:00	32236	9	-44.9	-82.5	27	11
2023-09-02T12:00	32256	9	-44.8	-82.4	29	11
2023-09-02T12:00	32285	9	-44.7	-82.3	33	10
2023-09-02T12:00	32304	9	-44.5	-82.2	39	10
2023-09-02T12:00	32332	9	-44.3	-82.0	45	10
2023-09-02T12:00	32349	9	-44.3	-82.0	51	10
2023-09-02T12:00	32391	9	-44.3	-82.0	57	9
2023-09-02T12:00	32420	9	-44.3	-82.0	63	9
2023-09-02T12:00	32447	9	-44.5	-82.2	68	9
2023-09-02T12:00	32480	9	-44.6	-82.2	73	9
2023-09-02T12:00	32512	9	-44.7	-82.3	79	9
2023-09-02T12:00	32537	9	-44.8	-82.4	84	8
2023-09-02T12:00	32566	9	-44.8	-82.4	89	8
2023-09-02T12:00	32591	9	-44.8	-82.4	95	8
2023-09-02T12:00	32608	9	-44.9	-82.5	100	7
2023-09-02T12:00	32632	9	-45.0	-82.5	106	7
2023-09-02T12:00	32647	9	-45.0	-82.5	112	6
2023-09-02T12:00	32684	9	-45.1	-82.6	117	6
2023-09-02T12:00	32712	9	-45.3	-82.7	123	5
2023-09-02T12:00	32734	8	-45.5	-82.9	129	4
2023-09-02T12:00	32752	8	-45.5	-82.9	134	4
2023-09-02T12:00	32768	8	-45.4	-82.8	138	3
2023-09-02T12:00	32796	8	-45.0	-82.5	140	3
2023-09-02T12:00	32814	8	-44.7	-82.3	139	3
2023-09-02T12:00	32849	8	-44.5	-82.2	133	2
2023-09-02T12:00	32871	8	-44.1	-81.9	119	2
2023-09-02T12:00	32887	8	-43.7	-81.6	92	1
2023-09-02T12:00	32922	8	-43.4	-81.4	65	1
2023-09-02T12:00	32941	8	-43.2	-81.3	49	2
2023-09-02T12:00	32972	8	-43.1	-81.2	42	2
2023-09-02T12:00	32986	8	-43.1	-81.2	40	3
2023-09-02T12:00	33024	8	-43.0	-81.1	39	3
2023-09-02T12:00	33032	8	-43.0	-81.1	40	4
2023-09-02T12:00	33076	8	-42.9	-81.1	42	4
2023-09-02T12:00	33139	8	-42.8	-81.0	45	6
2023-09-02T12:00	33140	8	-42.6	-80.8	47	6
2023-09-02T12:00	33159	8	-42.4	-80.7	49	6
2023-09-02T12:00	33185	8	-42.3	-80.6	50	7
2023-09-02T12:00	33230	8	-42.1	-80.5	52	7
2023-09-02T12:00	33257	8	-41.9	-80.4	52	7
2023-09-02T12:00	33289	8	-41.7	-80.2	53	7
2023-09-02T12:00	33330	8	-41.5	-80.1	53	7
2023-09-02T12:00	33333	8	-41.5	-80.1	54	7
2023-09-02T12:00	33364	8	-41.4	-80.0	55	7
2023-09-02T12:00	33389	8	-41.5	-80.1	57	7
2023-09-02T12:00	33414	8	-41.5	-80.1	60	7
2023-09-02T12:00	33454	8	-41.4	-80.0	63	7
2023-09-02T12:00	33463	8	-41.3	-79.9	65	6
2023-09-02T12:00	33492	8	-41.3	-79.9	67	6
2023-09-02T12:00	33533	8	-41.2	-79.9	67	6
2023-09-02T12:00	33562	8	-41.1	-79.8	67	6
2023-09-02T12:00	33575	7	-40.8	-79.6	67	6
2023-09-02T12:00	33645	7	-40.5	-79.4	67	6
2023-09-02T12:00	33647	7	-40.3	-79.2	69	6
2023-09-02T12:00	33700	7	-40.2	-79.2	70	5
2023-09-02T12:00	33711	7	-40.3	-79.2	72	5
2023-09-02T12:00	33734	7	-40.3	-79.2	72	5
2023-09-02T12:00	33738	7	-40.4	-79.3	71	5
2023-09-02T12:00	33790	7	-40.4	-79.3	68	5
2023-09-02T12:00	33797	7	-40.4	-79.3	65	5
2023-09-02T18:00	112	1009	19.5	12.3	270	3
2023-09-02T18:00	139	1005	19.2	12.4	295	3
2023-09-02T18:00	170	1002	19.0	11.8	290	3
2023-09-02T18:00	200	999	18.9	11.2	288	4
2023-09-02T18:00	223	996	18.7	11.2	286	4
2023-09-02T18:00	249	993	18.4	11.1	284	5
2023-09-02T18:00	275	990	18.2	11.1	282	5
2023-09-02T18:00	302	987	17.9	11.1	280	5
2023-09-02T18:00	322	984	17.7	11.1	278	5
2023-09-02T18:00	351	981	17.4	11.2	276	5
2023-09-02T18:00	374	978	17.2	11.1	275	5
2023-09-02T18:00	403	975	17.0	11.0	274	5
2023-09-02T18:00	427	972	16.7	10.9	273	5
2023-09-02T18:00	452	969	16.5	10.9	271	5
2023-09-02T18:00	477	966	16.2	10.7	270	5
2023-09-02T18:00	503	964	16.0	10.5	268	4
2023-09-02T18:00	527	961	15.8	10.6	266	4
2023-09-02T18:00	556	958	15.6	10.2	265	4
2023-09-02T18:00	582	955	15.3	10.0	265	5
2023-09-02T18:00	603	952	15.2	9.7	265	5
2023-09-02T18:00	631	949	15.1	8.3	265	5
2023-09-02T18:00	654	947	14.9	8.0	264	5
2023-09-02T18:00	677	944	14.7	8.1	262	5
2023-09-02T18:00	703	941	14.5	7.8	262	5
2023-09-02T18:00	730	938	14.2	7.1	262	5
2023-09-02T18:00	754	935	14.1	7.0	264	4
2023-09-02T18:00	781	932	13.9	7.2	266	4
2023-09-02T18:00	805	930	13.7	7.2	268	4
2023-09-02T18:00	830	927	13.4	7.3	269	4
2023-09-02T18:00	857	924	13.2	7.5	269	4
2023-09-02T18:00	888	921	13.0	7.2	270	4
2023-09-02T18:00	914	918	12.8	7.2	271	4
2023-09-02T18:00	942	915	12.7	6.7	272	4
2023-09-02T18:00	966	912	12.6	5.7	273	4
2023-09-02T18:00	996	909	12.4	6.1	276	4
2023-09-02T18:00	1022	906	12.3	5.2	280	5
2023-09-02T18:00	1052	903	12.1	6.0	285	5
2023-09-02T18:00	1080	900	11.8	6.7	291	5
2023-09-02T18:00	1110	897	11.5	5.8	296	4
2023-09-02T18:00	1143	893	11.3	5.6	301	4
2023-09-02T18:00	1169	890	11.1	5.6	303	4
2023-09-02T18:00	1196	888	10.8	5.6	303	4
2023-09-02T18:00	1220	885	10.6	5.7	301	4
2023-09-02T18:00	1245	882	10.4	5.7	298	5
2023-09-02T18:00	1266	880	10.2	5.7	295	5
2023-09-02T18:00	1291	877	10.0	5.6	293	5
2023-09-02T18:00	1313	875	9.8	5.5	291	5
2023-09-02T18:00	1336	873	9.6	5.6	291	5
2023-09-02T18:00	1360	870	9.3	5.7	292	5
2023-09-02T18:00	1385	867	9.0	5.7	292	5
2023-09-02T18:00	1413	865	8.8	6.1	292	5
2023-09-02T18:00	1437	862	8.6	6.0	292	5
2023-09-02T18:00	1458	860	8.4	6.0	291	5
2023-09-02T18:00	1482	857	8.3	6.1	290	5
2023-09-02T18:00	1508	855	8.0	6.0	291	4
2023-09-02T18:00	1530	852	7.8	6.0	293	5
2023-09-02T18:00	1559	849	7.6	5.7	295	5
2023-09-02T18:00	1584	847	7.6	5.5	297	5
2023-09-02T18:00	1611	844	7.5	5.4	297	5
2023-09-02T18:00	1635	842	7.3	5.2	297	6
2023-09-02T18:00	1659	839	7.1	5.1	297	5
2023-09-02T18:00	1685	837	6.8	4.9	296	5
2023-09-02T18:00	1710	834	6.6	4.9	297	5
2023-09-02T18:00	1739	831	6.4	4.9	297	5
2023-09-02T18:00	1770	828	6.0	4.7	298	5
2023-09-02T18:00	1800	825	5.7	4.4	299	5
2023-09-02T18:00	1823	823	5.5	4.6	300	5
2023-09-02T18:00	1849	820	5.3	4.6	301	5
2023-09-02T18:00	1876	817	5.0	4.3	301	5
2023-09-02T18:00	1901	815	4.9	4.2	301	5
2023-09-02T18:00	1923	813	4.7	4.2	300	5
2023-09-02T18:00	1945	810	4.5	4.2	299	5
2023-09-02T18:00	1970	808	4.2	4.2	298	6
2023-09-02T18:00	1997	805	4.0	4.0	298	6
2023-09-02T18:00	2022	803	3.8	3.8	297	7
2023-09-02T18:00	2046	800	3.5	3.5	297	8
2023-09-02T18:00	2083	797	3.9	3.0	296	8
2023-09-02T18:00	2106	794	4.4	2.6	295	9
2023-09-02T18:00	2134	792	5.9	1.7	294	9
2023-09-02T18:00	2167	789	5.7	1.2	294	8
2023-09-02T18:00	2195	786	5.7	0.7	294	8
2023-09-02T18:00	2224	783	5.6	0.3	295	8
2023-09-02T18:00	2249	781	5.5	-0.2	296	7
2023-09-02T18:00	2277	778	5.4	-0.5	297	7
2023-09-02T18:00	2309	775	5.2	-0.7	297	7
2023-09-02T18:00	2341	772	5.0	-0.9	297	7
2023-09-02T18:00	2369	769	4.8	-0.6	297	7
2023-09-02T18:00	2398	767	4.6	-0.7	298	7
2023-09-02T18:00	2424	764	4.3	-0.7	300	7
2023-09-02T18:00	2448	762	4.2	-0.7	301	7
2023-09-02T18:00	2473	760	4.1	-1.1	303	7
2023-09-02T18:00	2501	757	3.9	-2.4	302	7
2023-09-02T18:00	2526	755	3.8	-2.7	301	7
2023-09-02T18:00	2551	752	3.6	-2.8	298	7
2023-09-02T18:00	2576	750	3.5	-2.5	296	7
2023-09-02T18:00	2599	748	3.3	-2.5	294	7
2023-09-02T18:00	2623	746	3.1	-2.4	293	7
2023-09-02T18:00	2653	743	2.9	-2.5	293	8
2023-09-02T18:00	2678	741	2.8	-2.8	293	8
2023-09-02T18:00	2703	738	2.6	-4.1	292	9
2023-09-02T18:00	2735	736	2.6	-6.0	291	9
2023-09-02T18:00	2760	733	2.4	-7.0	289	9
2023-09-02T18:00	2783	731	2.4	-7.2	286	9
2023-09-02T18:00	2807	729	2.2	-7.3	283	9
2023-09-02T18:00	2830	727	2.1	-6.9	281	9
2023-09-02T18:00	2851	725	1.9	-6.8	280	9
2023-09-02T18:00	2876	723	1.8	-6.8	281	9
2023-09-02T18:00	2904	720	1.7	-6.2	282	9
2023-09-02T18:00	2937	717	1.4	-3.1	284	9
2023-09-02T18:00	2965	715	1.2	-2.8	285	9
2023-09-02T18:00	2993	712	0.9		288	8
2023-09-02T18:00	3017	710	0.7	-2.5	289	8
2023-09-02T18:00	3043	708	0.5	-2.6	291	9
2023-09-02T18:00	3067	706	0.3	-2.7	291	9
2023-09-02T18:00	3092	704	0.0	-2.6	291	9
2023-09-02T18:00	3117	701	-0.2	-2.8	290	9
2023-09-02T18:00	3145	699	-0.4	-2.9	289	9
2023-09-02T18:00	3169	697	-0.6	-3.2	287	9
2023-09-02T18:00	3202	694	-0.9	-3.6	284	8
2023-09-02T18:00	3231	692	-1.0	-3.4	282	9
2023-09-02T18:00	3256	689	-1.2	-3.3	281	9
2023-09-02T18:00	3281	687	-1.4	-3.6	280	9
2023-09-02T18:00	3309	685	-1.7	-4.3	279	9
2023-09-02T18:00	3334	683	-1.9	-4.3	278	9
2023-09-02T18:00	3360	680	-2.2	-4.3	277	9
2023-09-02T18:00	3388	678	-2.4	-4.2	274	9
2023-09-02T18:00	3426	675	-2.6	-3.9	271	9
2023-09-02T18:00	3457	672	-2.6	-4.6	269	9
2023-09-02T18:00	3485	670	-2.7	-4.8	267	9
2023-09-02T18:00	3514	667	-2.9	-4.8	265	9
2023-09-02T18:00	3539	665	-3.2	-5.0	264	9
2023-09-02T18:00	3567	663	-3.4	-5.1	265	9
2023-09-02T18:00	3599	661	-3.6	-5.4	265	9
2023-09-02T18:00	3622	658	-3.9	-5.2	266	10
2023-09-02T18:00	3649	656	-4.1	-5.2	267	10
2023-09-02T18:00	3680	653	-4.3	-5.1	269	11
2023-09-02T18:00	3711	651	-4.4	-6.5	270	11
2023-09-02T18:00	3741	648	-4.4	-8.5	272	12
2023-09-02T18:00	3771	646	-4.4	-10.4	274	13
2023-09-02T18:00	3801	644	-4.5	-12.2	275	14
2023-09-02T18:00	3830	641	-4.6	-9.9	277	15
2023-09-02T18:00	3859	639	-4.5	-13.6	277	15
2023-09-02T18:00	3885	637	-4.4	-14.9	278	16
2023-09-02T18:00	3905	635	-4.5	-15.6	279	16
2023-09-02T18:00	3936	633	-4.5	-16.5	279	17
2023-09-02T18:00	3962	631	-4.4	-17.6	279	17
2023-09-02T18:00	3988	628	-4.5	-20.7	279	17
2023-09-02T18:00	4015	626	-4.4	-22.0	278	17
2023-09-02T18:00	4039	624	-4.6	-21.5	278	17
2023-09-02T18:00	4067	622	-4.8	-21.6	279	16
2023-09-02T18:00	4100	620	-5.1	-21.7	280	16
2023-09-02T18:00	4131	617	-5.3	-21.7	280	16
2023-09-02T18:00	4155	615	-5.5	-21.9	281	16
2023-09-02T18:00	4181	613	-5.6	-21.7	281	15
2023-09-02T18:00	4206	611	-5.8	-22.3	282	15
2023-09-02T18:00	4232	609	-5.9	-22.9	283	15
2023-09-02T18:00	4269	607	-6.1	-23.4	284	15
2023-09-02T18:00	4295	604	-6.3	-23.8	285	15
2023-09-02T18:00	4323	602	-6.3	-24.3	286	15
2023-09-02T18:00	4353	600	-6.5	-24.7	286	15
2023-09-02T18:00	4376	598	-6.7	-25.1	287	15
2023-09-02T18:00	4403	596	-6.9	-25.8	287	15
2023-09-02T18:00	4427	594	-7.1	-24.8	288	15
2023-09-02T18:00	4454	592	-7.3	-25.7	289	15
2023-09-02T18:00	4482	590	-7.5	-26.4	291	15
2023-09-02T18:00	4506	588	-7.7	-26.9	291	15
2023-09-02T18:00	4537	586	-7.9	-27.8	292	15
2023-09-02T18:00	4565	584	-8.0	-29.5	291	14
2023-09-02T18:00	4595	582	-8.2	-30.3	290	14
2023-09-02T18:00	4622	579	-8.4	-28.5	288	15
2023-09-02T18:00	4653	577	-8.6	-27.4	287	15
2023-09-02T18:00	4681	575	-8.8	-27.0	286	15
2023-09-02T18:00	4708	573	-9.1	-26.9	285	15
2023-09-02T18:00	4730	572	-9.2	-26.7	285	15
2023-09-02T18:00	4751	570	-9.4	-26.9	285	15
2023-09-02T18:00	4771	568	-9.5	-27.3	285	15
2023-09-02T18:00	4794	567	-9.7	-28.1	285	15
2023-09-02T18:00	4814	565	-9.7	-28.6	286	15
2023-09-02T18:00	4841	563	-9.9	-28.8	286	16
2023-09-02T18:00	4867	561	-10.1	-28.9	287	16
2023-09-02T18:00	4899	559	-10.3	-28.9	286	16
2023-09-02T18:00	4933	557	-10.6	-28.8	286	16
2023-09-02T18:00	4963	554	-10.9	-28.8	285	16
2023-09-02T18:00	4996	552	-11.1	-28.6	284	16
2023-09-02T18:00	5028	550	-11.4	-28.6	284	16
2023-09-02T18:00	5055	548	-11.6	-28.6	283	16
2023-09-02T18:00	5081	546	-11.9	-28.7	283	16
2023-09-02T18:00	5112	544	-12.1	-28.8	284	17
2023-09-02T18:00	5140	542	-12.3	-29.1	284	17
2023-09-02T18:00	5168	540	-12.6	-29.3	285	17
2023-09-02T18:00	5195	538	-12.9	-29.4	286	17
2023-09-02T18:00	5224	536	-13.1	-29.5	286	17
2023-09-02T18:00	5253	534	-13.4	-29.9	285	17
2023-09-02T18:00	5285	532	-13.6	-30.3	284	17
2023-09-02T18:00	5310	530	-13.8	-30.6	284	17
2023-09-02T18:00	5339	528	-14.0	-31.4	285	17
2023-09-02T18:00	5362	526	-14.1	-31.6	285	18
2023-09-02T18:00	5384	525	-14.3	-31.8	286	18
2023-09-02T18:00	5410	523	-14.5	-31.8	286	18
2023-09-02T18:00	5440	521	-14.7	-31.8	286	18
2023-09-02T18:00	5473	518	-15.0	-31.3	285	18
2023-09-02T18:00	5509	516	-15.3	-30.7	285	18
2023-09-02T18:00	5539	514	-15.5	-30.9	284	18
2023-09-02T18:00	5570	512	-15.7	-31.5	284	18
2023-09-02T18:00	5598	510	-15.8	-32.1	284	18
2023-09-02T18:00	5626	508	-16.0	-32.6	284	17
2023-09-02T18:00	5650	506	-16.2	-32.7	283	17
2023-09-02T18:00	5683	504	-16.5	-33.0	284	17
2023-09-02T18:00	5712	502	-16.8	-32.4	285	17
2023-09-02T18:00	5738	501	-17.0	-31.2	287	17
2023-09-02T18:00	5767	499	-17.2	-29.8	289	17
2023-09-02T18:00	5799	497	-17.5	-30.6	290	18
2023-09-02T18:00	5831	494	-17.8	-30.7	291	18
2023-09-02T18:00	5858	493	-18.0	-30.7	291	19
2023-09-02T18:00	5887	491	-18.2	-30.8	291	19
2023-09-02T18:00	5919	489	-18.5	-30.2	290	20
2023-09-02T18:00	5943	487	-18.7	-30.3	289	20
2023-09-02T18:00	5976	485	-18.9	-31.1	288	20
2023-09-02T18:00	6005	483	-19.2	-31.7	287	20
2023-09-02T18:00	6037	481	-19.4	-31.4	287	20
2023-09-02T18:00	6069	479	-19.7	-31.5	287	20
2023-09-02T18:00	6095	477	-19.9	-31.5	287	20
2023-09-02T18:00	6123	475	-20.1	-31.5	287	20
2023-09-02T18:00	6151	474	-20.3	-31.7	286	20
2023-09-02T18:00	6177	472	-20.5	-31.5	286	20
2023-09-02T18:00	6206	470	-20.8	-32.5	287	20
2023-09-02T18:00	6239	468	-21.0	-33.0	287	20
2023-09-02T18:00	6265	466	-21.2	-33.6	288	20
2023-09-02T18:00	6297	464	-21.5	-33.7	289	20
2023-09-02T18:00	6323	463	-21.6	-36.4	289	20
2023-09-02T18:00	6348	461	-21.8	-38.5	288	19
2023-09-02T18:00	6377	459	-22.0	-40.1	288	19
2023-09-02T18:00	6410	457	-22.2	-41.4	287	19
2023-09-02T18:00	6440	455	-22.5	-41.0	287	19
2023-09-02T18:00	6467	454	-22.7	-40.9	287	19
2023-09-02T18:00	6500	452	-22.9	-41.4	288	20
2023-09-02T18:00	6530	450	-23.2	-41.9	288	20
2023-09-02T18:00	6558	448	-23.3	-43.3	289	21
2023-09-02T18:00	6590	446	-23.6	-41.8	289	21
2023-09-02T18:00	6616	445	-23.8	-41.6	289	21
2023-09-02T18:00	6642	443	-24.1	-41.6	289	21
2023-09-02T18:00	6668	441	-24.3	-41.2	289	21
2023-09-02T18:00	6699	440	-24.6	-39.9	289	22
2023-09-02T18:00	6726	438	-24.8	-38.0	288	22
2023-09-02T18:00	6754	436	-25.0	-39.2	288	23
2023-09-02T18:00	6784	435	-25.2	-38.6	288	23
2023-09-02T18:00	6811	433	-25.4	-38.6	287	23
2023-09-02T18:00	6840	431	-25.6	-38.4	286	23
2023-09-02T18:00	6872	429	-25.8	-38.3	286	23
2023-09-02T18:00	6902	427	-26.0	-39.3	286	23
2023-09-02T18:00	6929	426	-26.3	-39.7	287	23
2023-09-02T18:00	6952	424	-26.5	-40.3	288	23
2023-09-02T18:00	6985	423	-26.7	-39.2	289	23
2023-09-02T18:00	7008	421	-26.9	-40.4	289	23
2023-09-02T18:00	7028	420	-27.0	-41.1	289	22
2023-09-02T18:00	7048	419	-27.2	-41.4	289	22
2023-09-02T18:00	7072	417	-27.4	-41.9	288	22
2023-09-02T18:00	7099	416	-27.7	-43.0	287	22
2023-09-02T18:00	7130	414	-27.9	-45.1	287	21
2023-09-02T18:00	7151	413	-28.0	-46.1	287	21
2023-09-02T18:00	7172	412	-28.2	-45.7	287	21
2023-09-02T18:00	7199	410	-28.5	-45.7	288	21
2023-09-02T18:00	7222	409	-28.6	-46.0	288	22
2023-09-02T18:00	7245	407	-28.8	-46.1	288	22
2023-09-02T18:00	7276	406	-29.1	-46.2	288	22
2023-09-02T18:00	7298	404	-29.3	-46.5	288	22
2023-09-02T18:00	7324	403	-29.5	-46.6	288	22
2023-09-02T18:00	7347	402	-29.7	-46.6	288	22
2023-09-02T18:00	7374	400	-29.8	-46.9	288	22
2023-09-02T18:00	7399	399	-29.9	-47.2	288	22
2023-09-02T18:00	7431	397	-30.1	-47.0	287	23
2023-09-02T18:00	7457	396	-30.3	-47.5	287	23
2023-09-02T18:00	7486	394	-30.4	-49.2	286	23
2023-09-02T18:00	7516	392	-30.6	-49.5	286	22
2023-09-02T18:00	7543	391	-30.8	-49.7	286	22
2023-09-02T18:00	7573	389	-31.1	-49.3	287	22
2023-09-02T18:00	7598	388	-31.3	-49.8	287	22
2023-09-02T18:00	7619	387	-31.5	-49.9	288	22
2023-09-02T18:00	7646	385	-31.7	-49.5	288	22
2023-09-02T18:00	7673	384	-31.9	-49.8	288	22
2023-09-02T18:00	7703	382	-32.1	-50.8	287	22
2023-09-02T18:00	7728	381	-32.3	-50.5	287	22
2023-09-02T18:00	7757	379	-32.5	-49.6	287	23
2023-09-02T18:00	7790	377	-32.8	-49.8	286	23
2023-09-02T18:00	7820	376	-33.0	-50.1	285	23
2023-09-02T18:00	7842	375	-33.2	-50.6	284	23
2023-09-02T18:00	7864	373	-33.4	-51.3	284	23
2023-09-02T18:00	7887	372	-33.6	-51.1	284	22
2023-09-02T18:00	7916	371	-33.9	-51.7	284	22
2023-09-02T18:00	7948	369	-34.1	-52.1	285	22
2023-09-02T18:00	7984	367	-34.4	-52.6	286	22
2023-09-02T18:00	8006	366	-34.6	-52.5	287	21
2023-09-02T18:00	8036	364	-34.9	-53.3	287	21
2023-09-02T18:00	8062	363	-35.0	-54.6	287	21
2023-09-02T18:00	8082	362	-35.1	-54.9	286	21
2023-09-02T18:00	8103	361	-35.2	-54.3	286	21
2023-09-02T18:00	8125	360	-35.4	-54.1	285	21
2023-09-02T18:00	8150	358	-35.6	-53.9	285	21
2023-09-02T18:00	8174	357	-35.8	-54.7	285	21
2023-09-02T18:00	8202	356	-36.0	-55.4	286	21
2023-09-02T18:00	8234	354	-36.3	-55.4	286	21
2023-09-02T18:00	8256	353	-36.4	-55.5	287	21
2023-09-02T18:00	8278	352	-36.6	-55.3	287	21
2023-09-02T18:00	8300	351	-36.7	-54.3	288	21
2023-09-02T18:00	8320	350	-36.8	-54.4	288	21
2023-09-02T18:00	8343	349	-37.0	-54.9	288	21
2023-09-02T18:00	8369	347	-37.1	-54.9	287	21
2023-09-02T18:00	8393	346	-37.3	-55.1	287	21
2023-09-02T18:00	8418	345	-37.5	-55.1	287	21
2023-09-02T18:00	8442	344	-37.7	-55.2	286	21
2023-09-02T18:00	8464	343	-37.8	-55.3	286	21
2023-09-02T18:00	8486	341	-37.9	-55.4	285	21
2023-09-02T18:00	8510	340	-38.1	-55.7	285	21
2023-09-02T18:00	8536	339	-38.2	-55.8	284	21
2023-09-02T18:00	8559	338	-38.4	-56.0	285	21
2023-09-02T18:00	8580	337	-38.6	-56.2	285	21
2023-09-02T18:00	8603	336	-38.8	-56.1	286	22
2023-09-02T18:00	8623	335	-38.9	-56.2	287	22
2023-09-02T18:00	8646	334	-39.1	-56.2	287	22
2023-09-02T18:00	8667	333	-39.3	-56.3	287	22
2023-09-02T18:00	8690	331	-39.4	-56.4	287	22
2023-09-02T18:00	8714	330	-39.5	-56.6	287	22
2023-09-02T18:00	8736	329	-39.7	-56.7	287	22
2023-09-02T18:00	8760	328	-39.9	-56.7	287	22
2023-09-02T18:00	8786	327	-40.1	-56.9	287	23
2023-09-02T18:00	8815	326	-40.3	-57.2	287	23
2023-09-02T18:00	8843	324	-40.5	-57.4	288	23
2023-09-02T18:00	8876	323	-40.7	-57.4	288	23
2023-09-02T18:00	8908	321	-40.9	-57.3	287	23
2023-09-02T18:00	8930	320	-41.1	-57.5	287	23
2023-09-02T18:00	8952	319	-41.3	-57.5	287	23
2023-09-02T18:00	8972	318	-41.4	-57.6	286	23
2023-09-02T18:00	8998	317	-41.6	-57.7	286	23
2023-09-02T18:00	9021	316	-41.8	-57.8	285	23
2023-09-02T18:00	9049	315	-42.1	-58.1	285	23
2023-09-02T18:00	9071	313	-42.2	-58.1	285	23
2023-09-02T18:00	9104	312	-42.4	-58.0	285	23
2023-09-02T18:00	9131	311	-42.7		284	23
2023-09-02T18:00	9155	310	-42.9	-58.4	285	24
2023-09-02T18:00	9177	309	-43.1	-58.4	285	24
2023-09-02T18:00	9200	308	-43.3	-58.5	285	24
2023-09-02T18:00	9222	306	-43.5	-58.6	285	24
2023-09-02T18:00	9247	305	-43.7	-58.6	285	24
2023-09-02T18:00	9273	304	-43.9	-58.6	285	24
2023-09-02T18:00	9298	303	-44.1	-58.7	284	24
2023-09-02T18:00	9322	302	-44.3	-58.7	284	24
2023-09-02T18:00	9344	301	-44.5	-58.7	284	25
2023-09-02T18:00	9366	300	-44.7	-58.6	284	25
2023-09-02T18:00	9389	299	-44.9	-58.6	285	25
2023-09-02T18:00	9410	298	-45.1	-58.9	285	25
2023-09-02T18:00	9434	297	-45.0	-59.3	286	25
2023-09-02T18:00	9455	296	-45.0	-59.3	287	25
2023-09-02T18:00	9477	295	-45.2	-59.3	287	25
2023-09-02T18:00	9497	294	-45.3	-59.3	288	24
2023-09-02T18:00	9518	293	-45.5	-59.4	289	24
2023-09-02T18:00	9541	292	-45.7	-59.5	289	24
2023-09-02T18:00	9563	291	-45.8	-59.7	289	24
2023-09-02T18:00	9583	290	-46.0	-59.7	289	24
2023-09-02T18:00	9606	289	-46.1	-59.7	288	23
2023-09-02T18:00	9627	288	-46.3	-59.8	288	23
2023-09-02T18:00	9651	287	-46.5	-60.0	287	23
2023-09-02T18:00	9670	287	-46.6	-60.3	286	23
2023-09-02T18:00	9692	286	-46.7	-60.6	286	22
2023-09-02T18:00	9711	285	-46.8	-60.6	286	22
2023-09-02T18:00	9731	284	-46.9	-60.3	286	22
2023-09-02T18:00	9750	283	-47.0	-60.2	286	22
2023-09-02T18:00	9767	282	-47.1	-60.2	285	22
2023-09-02T18:00	9789	282	-47.1	-60.4	286	22
2023-09-02T18:00	9808	281	-47.0	-60.6	286	22
2023-09-02T18:00	9829	280	-47.1	-60.6	286	22
2023-09-02T18:00	9850	279	-47.3	-60.4	287	21
2023-09-02T18:00	9874	278	-47.4	-60.3	288	21
2023-09-02T18:00	9901	277	-47.6	-60.4	288	20
2023-09-02T18:00	9934	275	-47.9	-60.4	289	20
2023-09-02T18:00	9956	274	-48.1	-60.6	289	20
2023-09-02T18:00	9979	274	-48.2	-60.7	289	20
2023-09-02T18:00	10003	273	-48.3	-60.6	288	20
2023-09-02T18:00	10026	272	-48.4	-60.5	288	20
2023-09-02T18:00	10045	271	-48.5	-60.6	287	20
2023-09-02T18:00	10066	270	-48.5	-60.7	287	20
2023-09-02T18:00	10087	269	-48.5	-60.7	287	20
2023-09-02T18:00	10106	268	-48.6	-60.6	287	20
2023-09-02T18:00	10126	268	-48.7	-60.6	287	21
2023-09-02T18:00	10144	267	-48.8	-60.7	288	21
2023-09-02T18:00	10165	266	-48.9	-60.7	287	21
2023-09-02T18:00	10186	265	-49.1	-61.2	287	21
2023-09-02T18:00	10206	264	-49.2	-61.9	287	21
2023-09-02T18:00	10227	263	-49.4	-63.0	287	21
2023-09-02T18:00	10247	263	-49.5	-63.9	288	21
2023-09-02T18:00	10269	262	-49.5	-63.6	288	21
2023-09-02T18:00	10290	261	-49.4	-62.9	289	21
2023-09-02T18:00	10309	260	-49.5	-62.8	289	21
2023-09-02T18:00	10330	259	-49.6	-62.8	289	21
2023-09-02T18:00	10351	258	-49.5	-62.8	289	22
2023-09-02T18:00	10373	258	-49.4	-62.9	289	22
2023-09-02T18:00	10399	257	-49.6	-63.0	288	22
2023-09-02T18:00	10424	256	-49.7	-63.0	288	22
2023-09-02T18:00	10446	255	-49.8	-62.7	287	22
2023-09-02T18:00	10467	254	-49.9	-62.2	286	22
2023-09-02T18:00	10486	253	-50.0	-61.9	286	22
2023-09-02T18:00	10508	252	-50.2	-62.0	286	22
2023-09-02T18:00	10525	252	-50.3	-62.2	286	22
2023-09-02T18:00	10545	251	-50.5	-62.3	286	22
2023-09-02T18:00	10566	250	-50.6	-62.3	286	21
2023-09-02T18:00	10586	249	-50.7	-62.5	286	21
2023-09-02T18:00	10605	249	-50.8	-62.8	286	21
2023-09-02T18:00	10624	248	-50.7	-63.0	286	21
2023-09-02T18:00	10644	247	-50.6	-63.2	286	21
2023-09-02T18:00	10661	246	-50.7	-63.4	286	21
2023-09-02T18:00	10681	246	-50.6	-63.4	285	22
2023-09-02T18:00	10704	245	-50.4	-63.6	284	22
2023-09-02T18:00	10724	244	-50.5	-63.9	283	22
2023-09-02T18:00	10746	243	-50.4	-64.1	282	22
2023-09-02T18:00	10764	242	-50.3	-64.5	281	23
2023-09-02T18:00	10789	242	-50.4	-65.0	281	23
2023-09-02T18:00	10812	241	-50.5	-65.4	282	24
2023-09-02T18:00	10831	240	-50.6	-65.7	283	24
2023-09-02T18:00	10852	239	-50.8	-66.1	284	24
2023-09-02T18:00	10871	239	-51.0	-66.4	285	24
2023-09-02T18:00	10893	238	-51.1	-66.6	286	24
2023-09-02T18:00	10912	237	-51.2	-67.0	288	24
2023-09-02T18:00	10932	236	-51.2	-67.3	289	24
2023-09-02T18:00	10952	236	-51.2	-67.8	290	24
2023-09-02T18:00	10974	235	-50.9	-68.1	291	24
2023-09-02T18:00	10995	234	-50.9	-68.3	292	24
2023-09-02T18:00	11013	233	-50.9	-68.5	292	24
2023-09-02T18:00	11036	233	-50.9	-68.6	292	24
2023-09-02T18:00	11055	232	-51.0	-68.8	291	24
2023-09-02T18:00	11073	231	-51.0	-69.2	291	24
2023-09-02T18:00	11094	231	-50.6	-69.6	290	24
2023-09-02T18:00	11115	230	-50.5	-70.2	289	24
2023-09-02T18:00	11134	229	-49.8	-70.3	289	23
2023-09-02T18:00	11154	229	-49.6	-70.8	289	23
2023-09-02T18:00	11172	228	-49.5	-71.1	289	23
2023-09-02T18:00	11191	227	-49.5	-71.4	289	23
2023-09-02T18:00	11210	227	-49.5	-71.6	290	23
2023-09-02T18:00	11230	226	-49.4	-72.0	290	23
2023-09-02T18:00	11250	225	-49.4	-72.4	291	22
2023-09-02T18:00	11270	224	-49.3	-73.0	292	22
2023-09-02T18:00	11290	224	-49.2	-73.1	292	22
2023-09-02T18:00	11311	223	-49.2	-73.2	293	21
2023-09-02T18:00	11330	222	-49.0	-73.2	293	21
2023-09-02T18:00	11350	222	-49.0	-73.4	293	20
2023-09-02T18:00	11370	221	-48.6	-73.5	294	20
2023-09-02T18:00	11388	220	-48.4	-73.5	294	20
2023-09-02T18:00	11409	220	-48.3	-73.7	293	20
2023-09-02T18:00	11429	219	-48.1	-73.7	293	20
2023-09-02T18:00	11449	218	-48.0	-73.9	291	20
2023-09-02T18:00	11468	218	-47.9	-74.0	290	20
2023-09-02T18:00	11487	217	-47.8	-73.9	288	20
2023-09-02T18:00	11508	216	-47.8	-74.2	287	21
2023-09-02T18:00	11528	216	-47.7	-74.3	287	21
2023-09-02T18:00	11549	215	-47.7	-74.3	287	21
2023-09-02T18:00	11568	215	-47.9	-74.7	287	21
2023-09-02T18:00	11589	214	-47.9	-75.0	288	21
2023-09-02T18:00	11609	213	-47.6		288	21
2023-09-02T18:00	11630	213	-47.6	-75.3	288	21
2023-09-02T18:00	11648	212	-47.6	-75.3	287	21
2023-09-02T18:00	11669	211	-47.7	-75.4	287	21
2023-09-02T18:00	11688	211	-47.8	-75.5	287	21
2023-09-02T18:00	11709	210	-47.9	-75.6	288	21
2023-09-02T18:00	11728	209	-48.0	-75.6	288	21
2023-09-02T18:00	11747	209	-48.0	-75.6	289	22
2023-09-02T18:00	11770	208	-47.7	-75.7	290	22
2023-09-02T18:00	11788	207	-47.4	-75.8	290	22
2023-09-02T18:00	11808	207	-47.2	-75.9	290	23
2023-09-02T18:00	11827	206	-47.4	-76.1	290	23
2023-09-02T18:00	11848	206	-47.5	-76.2	291	23
2023-09-02T18:00	11867	205	-47.5	-76.5	291	23
2023-09-02T18:00	11887	204	-47.6	-76.6	292	22
2023-09-02T18:00	11908	204	-47.7	-76.7	292	22
2023-09-02T18:00	11929	203	-47.6	-76.6	293	22
2023-09-02T18:00	11949	203	-47.7	-76.7	293	22
2023-09-02T18:00	11969	202	-47.7	-77.0	293	22
2023-09-02T18:00	11990	201	-47.8	-77.1	293	22
2023-09-02T18:00	12011	201	-47.9	-77.2	292	22
2023-09-02T18:00	12029	200	-48.0	-77.3	292	22
2023-09-02T18:00	12051	199	-48.0	-77.3	292	22
2023-09-02T18:00	12071	199	-48.0	-77.3	293	21
2023-09-02T18:00	12092	198	-48.0	-77.3	293	21
2023-09-02T18:00	12114	198	-48.1	-77.7	293	21
2023-09-02T18:00	12133	197	-48.1	-77.7	294	20
2023-09-02T18:00	12151	196	-47.9	-77.6	295	20
2023-09-02T18:00	12174	196	-47.9	-78.0	295	20
2023-09-02T18:00	12193	195	-47.6	-77.7	295	20
2023-09-02T18:00	12213	195	-47.4	-78.0	294	19
2023-09-02T18:00	12235	194	-47.1	-78.3	294	19
2023-09-02T18:00	12255	193	-47.1	-78.3	293	19
2023-09-02T18:00	12275	193	-47.1	-77.8	292	19
2023-09-02T18:00	12297	192	-47.0	-77.7	292	19
2023-09-02T18:00	12319	192	-47.0	-78.2	292	19
2023-09-02T18:00	12338	191	-47.1	-78.3	292	19
2023-09-02T18:00	12359	190	-47.2	-78.3	292	20
2023-09-02T18:00	12379	190	-47.1	-78.3	292	20
2023-09-02T18:00	12400	189	-47.2	-78.3	291	20
2023-09-02T18:00	12420	189	-47.3	-78.4	291	20
2023-09-02T18:00	12439	188	-47.4	-78.5	290	20
2023-09-02T18:00	12462	187	-47.5	-78.5	289	20
2023-09-02T18:00	12484	187	-47.6	-78.2	289	20
2023-09-02T18:00	12505	186	-47.6	-78.2	288	20
2023-09-02T18:00	12524	186	-47.6	-78.2	288	20
2023-09-02T18:00	12547	185	-47.8	-77.9	288	20
2023-09-02T18:00	12570	184	-48.0	-77.6	289	20
2023-09-02T18:00	12591	184	-48.1	-77.7	290	20
2023-09-02T18:00	12610	183	-48.0	-77.6	292	20
2023-09-02T18:00	12634	183	-47.9	-77.6	294	20
2023-09-02T18:00	12655	182	-47.9	-78.0	296	20
2023-09-02T18:00	12675	181	-48.0	-78.0	298	19
2023-09-02T18:00	12696	181	-48.1	-78.1	300	19
2023-09-02T18:00	12717	180	-48.2	-78.2	302	19
2023-09-02T18:00	12741	180	-48.2	-78.6	303	19
2023-09-02T18:00	12762	179	-48.2	-78.6	303	19
2023-09-02T18:00	12784	178	-48.4	-78.8	303	19
2023-09-02T18:00	12806	178	-48.0	-78.5	302	18
2023-09-02T18:00	12830	177	-48.0	-78.5	301	18
2023-09-02T18:00	12851	177	-48.2	-78.6	300	18
2023-09-02T18:00	12872	176	-48.4	-78.3	298	18
2023-09-02T18:00	12895	175	-48.6	-78.5	297	18
2023-09-02T18:00	12916	175	-48.7	-78.2	297	18
2023-09-02T18:00	12939	174	-48.7	-78.2	298	18
2023-09-02T18:00	12963	174	-48.7	-78.2	299	18
2023-09-02T18:00	12989	173	-48.8	-78.2	301	17
2023-09-02T18:00	13010	172	-48.8	-78.2	304	17
2023-09-02T18:00	13031	172	-49.0	-78.4	306	17
2023-09-02T18:00	13052	171	-48.7	-78.2	307	17
2023-09-02T18:00	13070	171	-48.6	-78.5	307	17
2023-09-02T18:00	13092	170	-48.6	-78.5	306	17
2023-09-02T18:00	13113	170	-48.6	-78.5	306	17
2023-09-02T18:00	13134	169	-48.6	-78.5	305	17
2023-09-02T18:00	13156	169	-48.7	-78.2	304	17
2023-09-02T18:00	13174	168	-48.7	-78.6	303	17
2023-09-02T18:00	13195	168	-48.7	-78.6	303	17
2023-09-02T18:00	13217	167	-48.8		302	17
2023-09-02T18:00	13237	167	-48.9	-78.7	302	17
2023-09-02T18:00	13257	166	-49.0	-78.8	302	17
2023-09-02T18:00	13278	166	-49.1	-78.9	302	17
2023-09-02T18:00	13299	165	-49.2	-78.9	302	17
2023-09-02T18:00	13319	164	-49.3	-78.6	302	17
2023-09-02T18:00	13340	164	-49.4	-78.7	301	17
2023-09-02T18:00	13362	163	-49.5	-78.8	301	17
2023-09-02T18:00	13383	163	-49.5	-79.2	300	17
2023-09-02T18:00	13403	162	-49.5	-79.2	300	16
2023-09-02T18:00	13423	162	-49.6	-79.2	299	16
2023-09-02T18:00	13443	161	-49.7	-79.3	299	15
2023-09-02T18:00	13462	161	-49.9	-79.1	298	15
2023-09-02T18:00	13483	160	-49.9	-79.1	298	15
2023-09-02T18:00	13503	160	-49.9	-79.1	297	14
2023-09-02T18:00	13526	159	-50.0		296	14
2023-09-02T18:00	13546	159	-50.1	-79.6	295	14
2023-09-02T18:00	13566	158	-50.1	-79.6	293	13
2023-09-02T18:00	13589	158	-50.2	-79.3	292	13
2023-09-02T18:00	13610	157	-50.2	-79.3	292	13
2023-09-02T18:00	13629	157	-50.2	-79.3	292	14
2023-09-02T18:00	13652	156	-50.4	-79.5	294	15
2023-09-02T18:00	13675	156	-50.3	-79.8	296	15
2023-09-02T18:00	13700	155	-50.3	-79.8	298	16
2023-09-02T18:00	13722	155	-50.4	-79.8	301	16
2023-09-02T18:00	13742	154	-50.4	-79.8	303	16
2023-09-02T18:00	13763	154	-50.3	-79.8	304	16
2023-09-02T18:00	13785	153	-49.8	-79.8	305	16
2023-09-02T18:00	13804	153	-49.7	-79.7	304	15
2023-09-02T18:00	13825	152	-49.7	-79.7	303	15
2023-09-02T18:00	13847	152	-49.8	-79.8	301	15
2023-09-02T18:00	13866	151	-49.9	-79.9	299	14
2023-09-02T18:00	13889	151	-50.1	-80.0	298	14
2023-09-02T18:00	13911	150	-50.2	-80.1	297	14
2023-09-02T18:00	13930	150	-50.1	-79.6	296	14
2023-09-02T18:00	13951	149	-50.1	-80.0	296	14
2023-09-02T18:00	13971	149	-50.3	-80.2	296	14
2023-09-02T18:00	13993	148	-50.1	-80.0	297	13
2023-09-02T18:00	14016	148	-50.0	-80.0	297	13
2023-09-02T18:00	14038	147	-50.0	-80.0	296	14
2023-09-02T18:00	14060	147	-49.8	-79.8	296	14
2023-09-02T18:00	14083	146	-49.8	-79.8	296	14
2023-09-02T18:00	14104	146	-50.0	-80.0	295	14
2023-09-02T18:00	14124	145	-50.0	-80.0	295	15
2023-09-02T18:00	14147	145	-50.0	-80.0	294	15
2023-09-02T18:00	14168	144	-50.1	-80.0	293	15
2023-09-02T18:00	14193	144	-50.1	-80.0	293	15
2023-09-02T18:00	14215	143	-50.2	-79.7	293	16
2023-09-02T18:00	14235	143	-50.3	-79.8	294	16
2023-09-02T18:00	14257	142	-50.5	-79.9	295	16
2023-09-02T18:00	14277	142	-50.6	-80.0	297	16
2023-09-02T18:00	14301	142	-50.6	-80.0	299	15
2023-09-02T18:00	14324	141	-50.6	-80.0	302	15
2023-09-02T18:00	14344	141	-50.7	-80.1	304	15
2023-09-02T18:00	14366	140	-50.7	-80.1	305	14
2023-09-02T18:00	14390	140	-50.6	-80.0	305	14
2023-09-02T18:00	14409	139	-50.4	-80.3	305	13
2023-09-02T18:00	14434	139	-50.2	-80.1	304	13
2023-09-02T18:00	14454	138	-50.2	-80.6	303	13
2023-09-02T18:00	14474	138	-50.1	-80.5	302	12
2023-09-02T18:00	14498	137	-50.0	-80.4	301	12
2023-09-02T18:00	14516	137	-49.9	-80.3	300	12
2023-09-02T18:00	14539	136	-49.9	-80.3	298	12
2023-09-02T18:00	14562	136	-50.1	-80.5	296	12
2023-09-02T18:00	14583	136	-50.2	-80.6	294	13
2023-09-02T18:00	14607	135	-50.4	-80.7	292	13
2023-09-02T18:00	14629	135	-50.6	-80.4	290	13
2023-09-02T18:00	14652	134	-50.7	-80.5	289	13
2023-09-02T18:00	14672	134	-50.8	-80.6	287	13
2023-09-02T18:00	14693	133	-51.0	-80.7	287	14
2023-09-02T18:00	14714	133	-51.1	-80.8	287	14
2023-09-02T18:00	14735	132	-51.2	-80.9	286	14
2023-09-02T18:00	14757	132	-51.3	-80.9	286	14
2023-09-02T18:00	14781	131	-51.4	-81.0	286	14
2023-09-02T18:00	14804	131	-51.5	-81.1	287	14
2023-09-02T18:00	14828	131	-51.6	-81.2	287	14
2023-09-02T18:00	14851	130	-51.6	-81.2	288	14
2023-09-02T18:00	14872	130	-51.5	-81.1	288	14
2023-09-02T18:00	14895	129	-51.6	-81.2	289	14
2023-09-02T18:00	14916	129	-51.6	-81.2	290	14
2023-09-02T18:00	14941	128	-51.8	-81.3	291	14
2023-09-02T18:00	14961	128	-52.0	-81.5	292	14
2023-09-02T18:00	14985	127	-52.1	-81.5	294	15
2023-09-02T18:00	15008	127	-52.3	-81.7	295	15
2023-09-02T18:00	15033	127	-52.3	-81.7	296	15
2023-09-02T18:00	15055	126	-52.5	-81.8	298	15
2023-09-02T18:00	15079	126	-52.4	-81.8	298	14
2023-09-02T18:00	15101	125	-52.5	-81.8	299	14
2023-09-02T18:00	15124	125	-52.4	-81.8	300	14
2023-09-02T18:00	15147	124	-52.6	-81.9	301	13
2023-09-02T18:00	15170	124	-52.7	-82.0	301	12
2023-09-02T18:00	15194	123	-52.8	-82.1	302	12
2023-09-02T18:00	15218	123	-52.9	-82.1	303	12
2023-09-02T18:00	15240	122	-52.7	-82.0	303	12
2023-09-02T18:00	15262	122	-52.6	-81.9	303	12
2023-09-02T18:00	15284	122	-52.8	-82.1	303	12
2023-09-02T18:00	15308	121	-52.9	-82.1	303	12
2023-09-02T18:00	15333	121	-52.9	-81.7	303	12
2023-09-02T18:00	15353	120	-53.1	-81.9	302	12
2023-09-02T18:00	15374	120	-53.1	-81.9	302	12
2023-09-02T18:00	15398	120	-53.2	-82.0	301	12
2023-09-02T18:00	15421	119	-53.1	-81.9	301	13
2023-09-02T18:00	15444	119	-53.2	-82.0	302	13
2023-09-02T18:00	15465	118	-53.2	-82.0	303	13
2023-09-02T18:00	15487	118	-53.4	-82.1	305	14
2023-09-02T18:00	15511	117	-53.4	-82.1	307	14
2023-09-02T18:00	15531	117	-53.3	-82.0	309	14
2023-09-02T18:00	15552	117	-53.3	-82.0	311	13
2023-09-02T18:00	15575	116	-53.3	-82.0	312	13
2023-09-02T18:00	15596	116	-53.4	-82.1	314	13
2023-09-02T18:00	15619	116	-53.4	-82.1	315	13
2023-09-02T18:00	15640	115	-53.2	-82.0	317	12
2023-09-02T18:00	15664	115	-53.2	-82.0	318	12
2023-09-02T18:00	15685	114	-53.2	-82.0	319	11
2023-09-02T18:00	15705	114	-53.2	-82.4	320	11
2023-09-02T18:00	15728	114	-53.2	-82.4	320	10
2023-09-02T18:00	15749	113	-53.2	-82.4	321	9
2023-09-02T18:00	15773	113	-53.2	-82.4	321	9
2023-09-02T18:00	15796	112	-53.1	-82.3	320	8
2023-09-02T18:00	15818	112	-53.0	-82.2	318	7
2023-09-02T18:00	15841	112	-53.0	-82.2	315	7
2023-09-02T18:00	15865	111	-53.1	-82.3	312	6
2023-09-02T18:00	15889	111	-53.1	-82.3	307	6
2023-09-02T18:00	15912	110	-53.2	-82.4	303	6
2023-09-02T18:00	15934	110	-53.4	-82.5	299	6
2023-09-02T18:00	15957	110	-53.4	-82.5	296	7
2023-09-02T18:00	15978	109	-53.4	-82.5	293	7
2023-09-02T18:00	15998	109	-53.4	-82.5	292	7
2023-09-02T18:00	16023	109	-53.5	-82.6	292	8
2023-09-02T18:00	16044	108	-53.6	-82.7	292	9
2023-09-02T18:00	16068	108	-53.7	-82.8	293	9
2023-09-02T18:00	16087	107	-53.9	-82.9	294	10
2023-09-02T18:00	16110	107	-53.9	-82.9	295	10
2023-09-02T18:00	16129	107	-53.9	-82.9	296	10
2023-09-02T18:00	16153	106	-53.5	-83.0	297	10
2023-09-02T18:00	16172	106	-53.6	-83.1	298	10
2023-09-02T18:00	16195	106	-53.6	-83.1	300	10
2023-09-02T18:00	16218	105	-53.4	-83.0	302	10
2023-09-02T18:00	16237	105	-53.4	-83.4	303	10
2023-09-02T18:00	16259	105	-53.3		304	11
2023-09-02T18:00	16282	104	-53.1	-83.2	304	11
2023-09-02T18:00	16306	104	-53.1	-83.2	304	12
2023-09-02T18:00	16325	103	-53.3		305	12
2023-09-02T18:00	16348	103	-53.4	-83.4	306	12
2023-09-02T18:00	16368	103	-53.5	-83.5	307	12
2023-09-02T18:00	16390	102	-53.4	-83.4	309	12
2023-09-02T18:00	16413	102	-52.9	-83.1	312	12
2023-09-02T18:00	16436	102	-52.9	-83.1	314	12
2023-09-02T18:00	16460	101	-52.9	-83.1	317	12
2023-09-02T18:00	16480	101	-53.0	-83.1	318	12
2023-09-02T18:00	16503	101	-53.0	-83.1	320	12
2023-09-02T18:00	16527	100	-53.1	-83.2	321	12
2023-09-02T18:00	16552	100	-53.1	-83.2	322	11
2023-09-02T18:00	16577	100	-52.9	-83.1	323	11
2023-09-02T18:00	16600	99	-53.0	-83.1	323	10
2023-09-02T18:00	16624	99	-53.2	-83.3	322	9
2023-09-02T18:00	16650	98	-53.3		320	8
2023-09-02T18:00	16675	98	-53.5	-83.5	318	7
2023-09-02T18:00	16700	98	-53.5	-83.5	315	7
2023-09-02T18:00	16726	97	-53.5	-83.5	311	6
2023-09-02T18:00	16748	97	-53.4	-83.4	308	6
2023-09-02T18:00	16772	97	-52.9	-83.6	306	6
2023-09-02T18:00	16798	96	-52.7	-83.4	306	6
2023-09-02T18:00	16822	96	-52.5	-83.3	308	6
2023-09-02T18:00	16847	95	-52.5	-83.3	312	6
2023-09-02T18:00	16872	95	-52.5	-83.3	317	6
2023-09-02T18:00	16898	95	-52.5	-83.3	323	6
2023-09-02T18:00	16920	94	-52.6	-83.3	328	6
2023-09-02T18:00	16947	94	-52.7	-83.4	332	6
2023-09-02T18:00	16972	94	-52.8	-83.5	334	6
2023-09-02T18:00	16996	93	-52.9	-83.6	335	5
2023-09-02T18:00	17022	93	-53.0	-83.6	335	5
2023-09-02T18:00	17046	93	-53.2	-83.8	332	4
2023-09-02T18:00	17068	92	-53.4	-83.4	329	4
2023-09-02T18:00	17095	92	-53.5	-83.5	323	4
2023-09-02T18:00	17117	92	-53.5	-83.5	317	3
2023-09-02T18:00	17141	91	-53.6	-83.6	308	3
2023-09-02T18:00	17164	91	-53.8	-83.7	299	3
2023-09-02T18:00	17190	91	-53.9	-84.3	290	3
2023-09-02T18:00	17210	90	-53.7	-84.2	283	3
2023-09-02T18:00	17235	90	-53.0	-83.6	278	4
2023-09-02T18:00	17257	90	-52.8	-83.5	276	4
2023-09-02T18:00	17283	89	-52.8	-84.1	276	4
2023-09-02T18:00	17307	89	-53.0	-83.6	276	4
2023-09-02T18:00	17329	89	-53.1	-83.7	279	5
2023-09-02T18:00	17349	88	-53.0	-83.6	283	5
2023-09-02T18:00	17376	88	-53.1	-83.7	288	5
2023-09-02T18:00	17399	88	-53.0	-83.6	296	4
2023-09-02T18:00	17420	87	-52.9	-83.6	305	4
2023-09-02T18:00	17443	87	-52.7	-84.0	314	4
2023-09-02T18:00	17465	87	-52.7	-84.0	321	5
2023-09-02T18:00	17490	86	-52.6	-83.9	327	5
2023-09-02T18:00	17510	86	-52.3	-83.7	331	5
2023-09-02T18:00	17534	86	-52.1	-83.5	335	5
2023-09-02T18:00	17552	86	-52.1	-83.5	338	6
2023-09-02T18:00	17575	85	-52.2	-83.6	341	6
2023-09-02T18:00	17600	85	-52.4	-83.8	344	6
2023-09-02T18:00	17623	85	-52.5	-83.8	346	6
2023-09-02T18:00	17642	84	-52.6	-83.9	347	6
2023-09-02T18:00	17666	84	-52.6	-83.9	345	5
2023-09-02T18:00	17688	84	-52.5	-83.8	341	5
2023-09-02T18:00	17707	84	-52.4	-83.8	334	4
2023-09-02T18:00	17730	83	-52.5	-83.8	325	4
2023-09-02T18:00	17752	83	-52.6	-83.9	316	4
2023-09-02T18:00	17777	83	-52.6	-83.9	309	4
2023-09-02T18:00	17797	82	-52.6	-83.9	304	4
2023-09-02T18:00	17821	82	-52.7	-84.0	303	5
2023-09-02T18:00	17842	82	-52.8	-83.5	305	5
2023-09-02T18:00	17863	82	-52.9	-83.6	311	5
2023-09-02T18:00	17887	81	-53.0	-83.6	317	6
2023-09-02T18:00	17911	81	-53.0	-83.6	322	6
2023-09-02T18:00	17935	81	-53.0	-83.6	326	6
2023-09-02T18:00	17956	80	-53.0	-83.6	329	6
2023-09-02T18:00	17978	80	-53.1	-83.7	330	6
2023-09-02T18:00	18000	80	-53.2	-83.8	329	5
2023-09-02T18:00	18022	80	-53.2	-83.8	327	5
2023-09-02T18:00	18042	79	-53.3	-83.9	325	5
2023-09-02T18:00	18063	79	-53.3	-84.4	324	5
2023-09-02T18:00	18086	79	-53.2	-84.4	324	5
2023-09-02T18:00	18107	79	-52.9	-84.1	327	5
2023-09-02T18:00	18131	78	-52.5	-83.8	331	4
2023-09-02T18:00	18156	78	-52.5	-83.8	335	4
2023-09-02T18:00	18172	78	-52.6	-83.9	339	4
2023-09-02T18:00	18197	77	-52.7	-84.0	343	4
2023-09-02T18:00	18219	77	-52.7	-84.0	346	3
2023-09-02T18:00	18240	77	-52.8	-84.1	350	3
2023-09-02T18:00	18262	77	-52.8	-84.1	354	3
2023-09-02T18:00	18287	76	-52.6	-83.9	359	3
2023-09-02T18:00	18308	76	-52.5	-83.8	3	4
2023-09-02T18:00	18331	76	-52.4	-83.8	6	4
2023-09-02T18:00	18353	76	-52.3	-83.7	9	4
2023-09-02T18:00	18377	75	-52.4	-83.8	11	5
2023-09-02T18:00	18399	75	-52.5	-83.8	13	4
2023-09-02T18:00	18423	75	-52.6	-83.9	15	4
2023-09-02T18:00	18444	75	-52.6	-83.9	17	4
2023-09-02T18:00	18468	74	-52.5	-83.8	19	3
2023-09-02T18:00	18492	74	-52.5	-83.8	21	2
2023-09-02T18:00	18512	74	-52.5	-83.8	22	2
2023-09-02T18:00	18537	73	-52.5	-83.8	23	1
2023-09-02T18:00	18560	73	-52.5	-83.8	25	1
2023-09-02T18:00	18587	73	-52.6	-83.9	124	0
2023-09-02T18:00	18608	73	-52.8	-84.1	201	1
2023-09-02T18:00	18633	72	-53.0	-84.2	203	2
2023-09-02T18:00	18658	72	-53.2	-84.4	205	2
2023-09-02T18:00	18681	72	-53.3	-84.4	207	3
2023-09-02T18:00	18704	72	-53.3	-84.4	209	4
2023-09-02T18:00	18724	71	-52.9	-84.1	211	5
2023-09-02T18:00	18751	71	-52.7	-84.0	213	5
2023-09-02T18:00	18774	71	-52.7	-84.0	217	6
2023-09-02T18:00	18796	71	-52.6	-83.9	221	6
2023-09-02T18:00	18822	70	-52.6	-83.9	227	6
2023-09-02T18:00	18849	70	-52.4	-83.8	233	7
2023-09-02T18:00	18870	70	-52.4	-83.8	240	7
2023-09-02T18:00	18898	69	-52.5	-84.4	247	6
2023-09-02T18:00	18919	69	-52.4	-84.4	255	6
2023-09-02T18:00	18942	69	-52.4	-84.4	264	6
2023-09-02T18:00	18970	69	-52.2	-84.2	273	6
2023-09-02T18:00	18995	68	-52.0	-84.1	281	6
2023-09-02T18:00	19016	68	-52.1	-84.2	288	6
2023-09-02T18:00	19046	68	-52.1	-84.2	295	6
2023-09-02T18:00	19069	68	-52.2	-84.2	302	6
2023-09-02T18:00	19096	67	-52.2	-84.2	308	6
2023-09-02T18:00	19122	67	-51.9	-84.0	315	6
2023-09-02T18:00	19146	67	-51.8	-83.9	320	6
2023-09-02T18:00	19168	67	-51.9	-84.0	323	6
2023-09-02T18:00	19196	66	-51.9	-84.0	325	6
2023-09-02T18:00	19217	66	-51.9	-84.0	324	6
2023-09-02T18:00	19244	66	-51.9	-84.0	322	6
2023-09-02T18:00	19270	66	-51.9	-83.4	321	6
2023-09-02T18:00	19293	65	-52.0	-83.5	322	5
2023-09-02T18:00	19319	65	-52.2	-83.6	324	5
2023-09-02T18:00	19347	65	-52.2	-83.6	330	5
2023-09-02T18:00	19367	65	-52.3	-83.7	337	6
2023-09-02T18:00	19393	64	-52.4	-83.8	345	6
2023-09-02T18:00	19416	64	-52.6	-83.9	353	6
2023-09-02T18:00	19441	64	-52.6	-83.9	358	6
2023-09-02T18:00	19463	64	-52.3	-83.7	2	7
2023-09-02T18:00	19487	63	-52.5	-83.8	3	7
2023-09-02T18:00	19511	63	-52.6	-84.5	1	6
2023-09-02T18:00	19537	63	-52.5	-84.4	357	6
2023-09-02T18:00	19559	63	-52.3	-83.7	351	6
2023-09-02T18:00	19579	62	-52.4	-83.8	344	6
2023-09-02T18:00	19608	62	-52.5	-83.8	338	6
2023-09-02T18:00	19633	62	-52.7	-84.0	334	6
2023-09-02T18:00	19657	62	-52.9	-84.1	333	6
2023-09-02T18:00	19679	62	-53.0	-84.2	333	6
2023-09-02T18:00	19706	61	-53.1	-84.3	335	6
2023-09-02T18:00	19725	61	-53.1	-84.3	337	7
2023-09-02T18:00	19752	61	-53.2	-84.4	339	7
2023-09-02T18:00	19776	61	-53.3	-84.4	340	7
2023-09-02T18:00	19796	60	-53.3	-84.4	341	7
2023-09-02T18:00	19820	60	-53.1	-84.3	343	7
2023-09-02T18:00	19842	60	-52.9	-84.1	346	6
2023-09-02T18:00	19869	60	-53.0	-84.2	349	6
2023-09-02T18:00	19889	60	-53.1	-84.3	353	6
2023-09-02T18:00	19914	59	-53.2	-84.4	357	5
2023-09-02T18:00	19936	59	-53.3	-84.4	1	5
2023-09-02T18:00	19960	59	-53.3	-84.4	4	5
2023-09-02T18:00	19981	59	-53.4	-84.5	6	5
2023-09-02T18:00	20004	59	-53.5	-84.6	5	4
2023-09-02T18:00	20027	58	-53.4	-84.5	1	4
2023-09-02T18:00	20049	58	-53.4	-84.5	354	4
2023-09-02T18:00	20075	58	-53.5	-84.6	346	4
2023-09-02T18:00	20100	58	-53.5	-84.6	340	4
2023-09-02T18:00	20122	57	-53.5	-84.6	336	5
2023-09-02T18:00	20147	57	-53.4	-84.5	335	5
2023-09-02T18:00	20171	57	-53.2	-84.4	336	5
2023-09-02T18:00	20194	57	-53.2	-84.4	339	5
2023-09-02T18:00	20218	57	-53.1	-84.3	343	5
2023-09-02T18:00	20244	56	-53.1	-84.3	348	6
2023-09-02T18:00	20267	56	-53.2	-84.4	355	6
2023-09-02T18:00	20292	56	-53.1	-84.3	3	6
2023-09-02T18:00	20320	56	-53.2	-84.4	11	6
2023-09-02T18:00	20342	56	-53.3	-84.4	18	7
2023-09-02T18:00	20368	55	-53.4	-84.5	24	7
2023-09-02T18:00	20392	55	-53.6	-84.6	28	7
2023-09-02T18:00	20419	55	-53.6	-84.6	30	7
2023-09-02T18:00	20439	55	-53.6	-84.6	31	6
2023-09-02T18:00	20467	54	-53.5	-84.6	30	6
2023-09-02T18:00	20490	54	-53.2	-84.4	29	5
2023-09-02T18:00	20520	54	-53.2	-84.4	28	5
2023-09-02T18:00	20545	54	-53.2	-84.4	29	4
2023-09-02T18:00	20568	54	-53.2	-84.4	33	4
2023-09-02T18:00	20593	53	-53.2	-84.4	40	4
2023-09-02T18:00	20619	53	-53.3	-84.4	49	3
2023-09-02T18:00	20646	53	-53.4	-84.5	58	3
2023-09-02T18:00	20671	53	-53.3	-84.4	67	4
2023-09-02T18:00	20698	53	-53.5	-84.6	73	4
2023-09-02T18:00	20721	52	-53.6	-84.6	75	4
2023-09-02T18:00	20748	52	-53.7	-84.7	75	4
2023-09-02T18:00	20778	52	-53.6	-84.6	71	4
2023-09-02T18:00	20799	52	-53.5	-84.6	66	4
2023-09-02T18:00	20831	52	-53.6	-84.6	61	4
2023-09-02T18:00	20853	51	-53.7	-84.7	56	4
2023-09-02T18:00	20878	51	-53.7	-84.7	54	4
2023-09-02T18:00	20907	51	-53.8	-84.8	55	4
2023-09-02T18:00	20932	51	-53.8	-84.8	60	4
2023-09-02T18:00	20957	50	-53.7	-84.7	68	4
2023-09-02T18:00	20985	50	-53.8	-84.8	77	4
2023-09-02T18:00	21008	50	-54.0	-84.9	88	4
2023-09-02T18:00	21038	50	-54.0	-84.9	99	4
2023-09-02T18:00	21062	50	-54.0	-84.9	110	4
2023-09-02T18:00	21085	49	-54.1	-85.0	120	4
2023-09-02T18:00	21115	49	-54.1	-85.0	129	3
2023-09-02T18:00	21141	49	-53.9	-84.9	136	3
2023-09-02T18:00	21164	49	-53.5	-84.6	140	2
2023-09-02T18:00	21190	49	-53.4	-84.5	140	1
2023-09-02T18:00	21214	48	-53.4	-85.1	122	0
2023-09-02T18:00	21244	48	-53.4	-85.1	345	1
2023-09-02T18:00	21268	48	-53.3	-84.4	336	2
2023-09-02T18:00	21293	48	-53.2	-84.4	333	2
2023-09-02T18:00	21317	48	-53.2	-84.4	332	3
2023-09-02T18:00	21347	48	-53.2	-84.4	330	3
2023-09-02T18:00	21364	47	-53.1	-84.3	327	3
2023-09-02T18:00	21395	47	-53.1	-84.3	322	3
2023-09-02T18:00	21415	47	-53.1	-84.3	317	3
2023-09-02T18:00	21443	47	-53.2	-84.4	313	3
2023-09-02T18:00	21468	47	-53.3	-84.4	312	4
2023-09-02T18:00	21496	46	-53.3	-84.4	315	4
2023-09-02T18:00	21520	46	-53.1	-84.3	321	4
2023-09-02T18:00	21545	46	-53.3	-84.4	329	4
2023-09-02T18:00	21570	46	-53.2	-84.4	338	4
2023-09-02T18:00	21595	46	-53.3	-84.4	348	4
2023-09-02T18:00	21622	46	-53.3	-84.4	357	4
2023-09-02T18:00	21644	45	-53.3	-84.4	6	5
2023-09-02T18:00	21671	45	-53.5	-84.6	13	5
2023-09-02T18:00	21694	45	-53.6	-84.6	19	5
2023-09-02T18:00	21721	45	-53.7	-84.7	24	5
2023-09-02T18:00	21743	45	-53.9	-84.9	29	6
2023-09-02T18:00	21775	44	-54.0	-84.4	34	6
2023-09-02T18:00	21800	44	-54.1	-84.5	39	6
2023-09-02T18:00	21822	44	-54.2	-85.1	45	5
2023-09-02T18:00	21846	44	-54.2	-85.1	50	5
2023-09-02T18:00	21873	44	-54.3	-85.2	56	5
2023-09-02T18:00	21901	44	-54.3	-85.2	61	5
2023-09-02T18:00	21923	43	-54.2	-85.1	67	4
2023-09-02T18:00	21952	43	-54.1	-85.0	72	4
2023-09-02T18:00	21979	43	-54.2	-85.1	77	3
2023-09-02T18:00	22001	43	-54.1	-85.0	80	3
2023-09-02T18:00	22028	43	-54.0	-84.9	84	2
2023-09-02T18:00	22055	43	-53.8	-84.8	88	2
2023-09-02T18:00	22078	42	-53.9	-84.9	93	2
2023-09-02T18:00	22100	42	-54.0	-84.9	96	2
2023-09-02T18:00	22134	42	-54.0	-84.9	97	2
2023-09-02T18:00	22156	42	-54.0	-84.9	98	2
2023-09-02T18:00	22179	42	-54.1	-85.0	98	2
2023-09-02T18:00	22209	42	-54.2	-85.1	98	2
2023-09-02T18:00	22234	41	-54.3	-85.2	99	3
2023-09-02T18:00	22262	41	-54.3	-85.2	99	3
2023-09-02T18:00	22286	41	-54.2	-85.1	99	3
2023-09-02T18:00	22312	41	-54.1	-85.0	98	3
2023-09-02T18:00	22337	41	-54.0	-84.9	99	2
2023-09-02T18:00	22365	41	-54.1	-85.0	101	2
2023-09-02T18:00	22391	40	-54.1	-85.0	103	1
2023-09-02T18:00	22416	40	-53.9	-84.9	104	1
2023-09-02T18:00	22441	40	-53.6	-85.3	92	0
2023-09-02T18:00	22468	40	-53.5	-85.2	33	0
2023-09-02T18:00	22496	40	-53.4	-85.1	6	0
2023-09-02T18:00	22517	40	-53.4	-85.1	20	0
2023-09-02T18:00	22542	39	-53.3	-85.0	53	1
2023-09-02T18:00	22566	39	-53.1	-84.9	75	1
2023-09-02T18:00	22593	39	-53.0	-84.8	82	1
2023-09-02T18:00	22624	39	-53.0	-84.8	81	2
2023-09-02T18:00	22642	39	-52.9	-84.7	75	2
2023-09-02T18:00	22673	39	-52.9	-84.7	63	2
2023-09-02T18:00	22697	39	-52.8	-84.7	46	2
2023-09-02T18:00	22723	38	-52.8	-84.7	26	2
2023-09-02T18:00	22747	38	-52.7	-84.6	11	2
2023-09-02T18:00	22769	38	-52.7	-84.6	3	2
2023-09-02T18:00	22798	38	-52.8	-84.7	0	3
2023-09-02T18:00	22824	38	-52.8	-84.7	2	3
2023-09-02T18:00	22850	38	-52.8	-84.7	5	4
2023-09-02T18:00	22877	37	-52.9	-84.7	9	4
2023-09-02T18:00	22903	37	-52.9	-84.7	14	4
2023-09-02T18:00	22929	37	-52.9	-84.7	20	5
2023-09-02T18:00	22952	37	-52.8	-84.7	25	5
2023-09-02T18:00	22980	37	-52.8	-84.7	30	5
2023-09-02T18:00	23006	37	-52.6	-84.5	32	5
2023-09-02T18:00	23037	37	-52.5	-84.4	31	5
2023-09-02T18:00	23056	36	-52.5	-84.4	29	5
2023-09-02T18:00	23091	36	-52.4	-84.4	27	5
2023-09-02T18:00	23112	36	-52.5	-84.4	24	6
2023-09-02T18:00	23140	36	-52.7	-84.6	20	6
2023-09-02T18:00	23170	36	-52.7	-84.6	16	6
2023-09-02T18:00	23193	36	-52.8	-84.7	11	6
2023-09-02T18:00	23219	36	-52.8	-84.7	6	6
2023-09-02T18:00	23246	35	-52.7	-84.6	3	6
2023-09-02T18:00	23270	35	-52.7	-84.6	2	7
2023-09-02T18:00	23297	35	-52.8	-84.7	3	7
2023-09-02T18:00	23331	35	-52.8	-84.7	6	8
2023-09-02T18:00	23351	35	-52.7	-84.6	11	8
2023-09-02T18:00	23379	35	-52.6	-84.5	16	8
2023-09-02T18:00	23408	35	-52.7	-84.6	21	8
2023-09-02T18:00	23433	34	-52.4	-84.4	27	8
2023-09-02T18:00	23464	34	-52.4	-84.4	33	8
2023-09-02T18:00	23492	34	-52.4	-84.4	39	7
2023-09-02T18:00	23520	34	-52.3	-84.3	44	7
2023-09-02T18:00	23543	34	-52.2	-84.9	49	7
2023-09-02T18:00	23579	34	-52.1	-84.8	51	6
2023-09-02T18:00	23596	34	-52.0	-84.8	50	6
2023-09-02T18:00	23623	33	-51.7	-84.5	45	6
2023-09-02T18:00	23647	33	-51.3	-84.3	38	6
2023-09-02T18:00	23678	33	-51.0	-84.0	30	6
2023-09-02T18:00	23704	33	-50.7	-83.8	24	7
2023-09-02T18:00	23741	33	-50.5	-83.7	20	7
2023-09-02T18:00	23765	33	-50.5	-83.7	17	8
2023-09-02T18:00	23792	33	-50.7	-83.8	15	9
2023-09-02T18:00	23823	32	-50.9	-84.0	14	9
2023-09-02T18:00	23843	32	-51.1	-84.1	14	10
2023-09-02T18:00	23872	32	-51.3	-83.6	14	10
2023-09-02T18:00	23896	32	-51.5	-83.7	16	11
2023-09-02T18:00	23923	32	-51.7	-83.9	17	11
2023-09-02T18:00	23950	32	-51.4	-83.6	19	10
2023-09-02T18:00	23975	32	-51.3	-84.3	22	10
2023-09-02T18:00	24004	31	-51.3	-84.3	25	9
2023-09-02T18:00	24036	31	-51.3	-84.3	29	8
2023-09-02T18:00	24056	31	-51.2	-84.2	34	7
2023-09-02T18:00	24078	31	-51.1	-84.1	41	6
2023-09-02T18:00	24107	31	-50.9	-84.0	48	6
2023-09-02T18:00	24133	31	-50.8	-83.9	56	5
2023-09-02T18:00	24157	31	-50.8	-83.9	63	5
2023-09-02T18:00	24179	31	-50.7	-83.8	69	5
2023-09-02T18:00	24211	30	-50.5	-83.7	72	4
2023-09-02T18:00	24242	30	-50.6	-83.7	75	4
2023-09-02T18:00	24266	30	-50.5	-83.7	75	3
2023-09-02T18:00	24291	30	-50.6	-83.7	74	2
2023-09-02T18:00	24318	30	-50.6	-83.7	65	1
2023-09-02T18:00	24340	30	-50.7	-83.8	29	1
2023-09-02T18:00	24371	30	-50.5	-83.7	332	1
2023-09-02T18:00	24394	30	-50.2	-83.5	312	1
2023-09-02T18:00	24420	30	-50.1	-83.4	305	1
2023-09-02T18:00	24445	29	-50.1	-83.4	300	2
2023-09-02T18:00	24470	29	-50.0	-84.1	298	2
2023-09-02T18:00	24506	29	-49.9	-84.0	298	2
2023-09-02T18:00	24530	29	-49.9	-84.0	304	2
2023-09-02T18:00	24552	29	-49.9	-84.0	313	3
2023-09-02T18:00	24578	29	-49.6	-83.8	325	3
2023-09-02T18:00	24609	29	-49.6	-83.8	336	4
2023-09-02T18:00	24629	29	-49.5	-83.7	343	4
2023-09-02T18:00	24658	28	-49.5	-83.7	347	5
2023-09-02T18:00	24683	28	-49.6	-83.0	349	5
2023-09-02T18:00	24708	28	-49.8	-83.2	350	5
2023-09-02T18:00	24737	28	-49.7	-83.9	350	5
2023-09-02T18:00	24766	28	-49.6	-83.8	349	6
2023-09-02T18:00	24788	28	-49.4	-83.7	349	6
2023-09-02T18:00	24817	28	-49.3	-83.6	349	6
2023-09-02T18:00	24842	28	-49.2	-83.5	349	6
2023-09-02T18:00	24874	28	-48.9	-83.3	350	6
2023-09-02T18:00	24902	27	-48.8	-83.2	351	5
2023-09-02T18:00	24929	27	-48.6	-83.1	351	5
2023-09-02T18:00	24952	27	-48.8	-83.2	350	4
2023-09-02T18:00	24978	27	-48.8	-83.2	347	4
2023-09-02T18:00	25008	27	-48.9	-83.3	340	3
2023-09-02T18:00	25042	27	-48.9	-83.3	328	2
2023-09-02T18:00	25066	27	-48.7	-83.2	307	2
2023-09-02T18:00	25096	27	-48.7	-83.2	282	2
2023-09-02T18:00	25116	27	-48.7	-83.2	262	2
2023-09-02T18:00	25151	26	-48.8	-83.2	245	2
2023-09-02T18:00	25176	26	-48.7	-83.2	231	3
2023-09-02T18:00	25202	26	-48.5	-83.0	217	3
2023-09-02T18:00	25237	26	-48.6	-83.1	207	3
2023-09-02T18:00	25261	26	-48.6	-83.1	200	4
2023-09-02T18:00	25289	26	-48.6	-83.1	198	4
2023-09-02T18:00	25320	26	-48.7	-83.2	199	4
2023-09-02T18:00	25343	26	-48.7	-83.2	204	4
2023-09-02T18:00	25375	26	-48.8	-83.2	211	4
2023-09-02T18:00	25406	25	-48.7	-83.2	220	4
2023-09-02T18:00	25432	25	-48.7	-83.2	230	4
2023-09-02T18:00	25451	25	-48.8	-83.2	237	4
2023-09-02T18:00	25483	25	-48.9	-83.3	241	4
2023-09-02T18:00	25503	25	-48.9	-83.3	243	4
2023-09-02T18:00	25543	25	-49.0	-83.4	242	4
2023-09-02T18:00	25570	25	-49.0	-83.4	241	3
2023-09-02T18:00	25598	25	-48.9	-83.3	239	3
2023-09-02T18:00	25617	25	-48.8	-83.2	240	4
2023-09-02T18:00	25648	25	-48.9	-83.3	242	4
2023-09-02T18:00	25677	24	-48.9	-83.3	246	5
2023-09-02T18:00	25708	24	-48.9	-83.3	250	5
2023-09-02T18:00	25724	24	-48.9	-83.3	254	6
2023-09-02T18:00	25760	24	-48.8	-83.2	258	6
2023-09-02T18:00	25785	24	-48.6	-83.1	260	7
2023-09-02T18:00	25816	24	-48.4	-82.9	261	7
2023-09-02T18:00	25838	24	-48.5	-83.0	262	8
2023-09-02T18:00	25861	24	-48.6	-83.1	263	8
2023-09-02T18:00	25896	24	-48.8	-83.2	264	9
2023-09-02T18:00	25909	24	-49.0	-83.4	265	10
2023-09-02T18:00	25940	23	-49.0	-83.4	267	11
2023-09-02T18:00	25966	23	-49.0	-83.4	269	11
2023-09-02T18:00	26000	23	-49.0	-83.4	271	12
2023-09-02T18:00	26027	23	-49.1	-83.4	275	12
2023-09-02T18:00	26049	23	-49.0	-83.4	278	12
2023-09-02T18:00	26081	23	-48.7	-83.2	282	12
2023-09-02T18:00	26096	23	-48.6	-83.1	287	12
2023-09-02T18:00	26117	23	-48.7	-83.2	291	11
2023-09-02T18:00	26152	23	-48.7	-83.2	293	11
2023-09-02T18:00	26177	23	-48.9	-83.3	295	12
2023-09-02T18:00	26208	23	-48.7	-83.2	296	12
2023-09-02T18:00	26234	22	-48.6	-83.1	295	12
2023-09-02T18:00	26260	22	-48.5	-83.0	295	13
2023-09-02T18:00	26284	22	-48.5	-83.0	295	13
2023-09-02T18:00	26312	22	-48.6	-83.1	296	14
2023-09-02T18:00	26337	22	-48.7	-83.2	298	14
2023-09-02T18:00	26369	22	-48.8	-83.2	300	14
2023-09-02T18:00	26392	22	-48.9	-83.3	303	13
2023-09-02T18:00	26423	22	-48.8	-83.2	306	13
2023-09-02T18:00	26450	22	-48.5	-83.0	308	13
2023-09-02T18:00	26473	22	-48.5	-83.0	311	12
2023-09-02T18:00	26499	22	-48.6	-83.1	315	12
2023-09-02T18:00	26525	21	-48.6	-83.1	318	11
2023-09-02T18:00	26553	21	-48.6	-83.1	322	11
2023-09-02T18:00	26579	21	-48.7	-83.2	325	10
2023-09-02T18:00	26601	21	-48.8	-83.2	328	9
2023-09-02T18:00	26631	21	-48.8	-83.2	330	8
2023-09-02T18:00	26660	21	-48.8	-83.2	331	8
2023-09-02T18:00	26691	21	-48.7	-83.2	330	7
2023-09-02T18:00	26719	21	-48.4	-82.9	328	6
2023-09-02T18:00	26748	21	-48.1	-83.6	326	6
2023-09-02T18:00	26781	21	-48.2	-83.7	322	5
2023-09-02T18:00	26802	21	-48.0	-83.6	319	5
2023-09-02T18:00	26825	20	-47.9	-83.5	317	4
2023-09-02T18:00	26849	20	-47.8	-83.4	318	4
2023-09-02T18:00	26880	20	-47.6	-83.3	323	4
2023-09-02T18:00	26912	20	-47.4	-83.1	333	4
2023-09-02T18:00	26936	20	-47.1	-82.9	346	4
2023-09-02T18:00	26969	20	-46.9	-82.8	360	4
2023-09-02T18:00	26992	20	-46.8	-82.7	12	4
2023-09-02T18:00	27021	20	-46.8	-82.7	21	4
2023-09-02T18:00	27043	20	-46.6	-82.6	27	4
2023-09-02T18:00	27080	20	-46.6	-82.6	31	3
2023-09-02T18:00	27109	20	-46.3	-82.4	31	3
2023-09-02T18:00	27132	20	-46.3	-82.4	29	2
2023-09-02T18:00	27157	19	-46.4	-82.4	23	2
2023-09-02T18:00	27185	19	-46.6	-82.6	15	1
2023-09-02T18:00	27216	19	-46.6	-82.6	6	1
2023-09-02T18:00	27239	19	-46.5	-82.5	357	1
2023-09-02T18:00	27262	19	-46.6	-82.6	351	1
2023-09-02T18:00	27292	19	-46.6	-82.6	352	1
2023-09-02T18:00	27323	19	-46.6	-82.6	2	1
2023-09-02T18:00	27345	19	-46.6	-82.6	16	2
2023-09-02T18:00	27381	19	-46.5	-82.5	29	2
2023-09-02T18:00	27407	19	-46.4	-82.4	37	3
2023-09-02T18:00	27437	19	-46.6	-82.6	41	3
2023-09-02T18:00	27463	19	-46.7	-82.6	44	4
2023-09-02T18:00	27494	19	-46.7	-82.6	47	4
2023-09-02T18:00	27513	18	-46.7	-82.6	49	4
2023-09-02T18:00	27546	18	-46.7	-82.6	51	4
2023-09-02T18:00	27580	18	-46.7	-82.6	54	3
2023-09-02T18:00	27598	18	-46.8	-82.7	59	3
2023-09-02T18:00	27633	18	-46.7	-82.6	65	3
2023-09-02T18:00	27658	18	-46.5	-82.5	71	2
2023-09-02T18:00	27690	18	-46.5	-82.5	74	2
2023-09-02T18:00	27711	18	-46.6	-82.6	76	3
2023-09-02T18:00	27742	18	-46.6	-82.6	78	3
2023-09-02T18:00	27765	18	-46.7	-82.6	82	3
2023-09-02T18:00	27792	18	-46.9	-82.8	88	4
2023-09-02T18:00	27826	18	-47.1	-82.9	95	4
2023-09-02T18:00	27845	18	-47.1	-82.9	101	4
2023-09-02T18:00	27875	17	-47.1	-82.9	108	4
2023-09-02T18:00	27904	17	-47.0	-82.9	115	4
2023-09-02T18:00	27928	17	-46.8	-82.7	125	4
2023-09-02T18:00	27955	17	-46.7	-82.6	137	4
2023-09-02T18:00	27990	17	-46.8	-82.7	151	4
2023-09-02T18:00	28019	17	-46.8	-82.7	163	4
2023-09-02T18:00	28038	17	-46.7	-82.6	174	4
2023-09-02T18:00	28074	17	-46.6	-82.6	183	4
2023-09-02T18:00	28108	17	-46.6	-82.6	192	4
2023-09-02T18:00	28130	17	-46.7	-82.6	200	4
2023-09-02T18:00	28160	17	-46.8	-82.7	209	4
2023-09-02T18:00	28187	17	-46.9	-82.8	217	4
2023-09-02T18:00	28208	17	-47.1	-82.9	225	5
2023-09-02T18:00	28246	17	-47.1	-82.9	233	5
2023-09-02T18:00	28270	16	-47.3	-83.1	241	6
2023-09-02T18:00	28300	16	-47.4	-83.1	250	6
2023-09-02T18:00	28319	16	-47.5	-83.2	258	7
2023-09-02T18:00	28352	16	-47.6	-83.3	265	7
2023-09-02T18:00	28379	16	-47.3	-83.1	272	8
2023-09-02T18:00	28403	16	-47.2	-83.0	277	8
2023-09-02T18:00	28440	16	-47.1	-82.9	282	9
2023-09-02T18:00	28468	16	-47.2	-83.0	286	9
2023-09-02T18:00	28490	16	-47.2	-83.0	291	10
2023-09-02T18:00	28522	16	-47.2	-83.0	296	10
2023-09-02T18:00	28551	16	-47.0	-82.9	301	11
2023-09-02T18:00	28574	16	-46.7	-82.6	306	11
2023-09-02T18:00	28607	16	-46.8	-82.7	310	11
2023-09-02T18:00	28645	16	-46.9	-82.8	314	10
2023-09-02T18:00	28656	16	-46.9	-82.8	317	10
2023-09-02T18:00	28677	15	-46.8	-82.7	321	10
2023-09-02T18:00	28711	15	-46.8	-82.7	325	9
2023-09-02T18:00	28742	15	-46.9	-82.8	330	8
2023-09-02T18:00	28771	15	-46.9	-82.8	335	8
2023-09-02T18:00	28792	15	-47.0	-82.9	340	7
2023-09-02T18:00	28819	15	-47.1	-82.9	344	6
2023-09-02T18:00	28863	15	-46.7	-82.6	345	6
2023-09-02T18:00	28881	15	-46.3	-82.4	342	6
2023-09-02T18:00	28916	15	-46.1	-82.2	337	5
2023-09-02T18:00	28940	15	-46.2	-82.3	332	6
2023-09-02T18:00	28955	15	-46.4	-82.4	328	6
2023-09-02T18:00	28994	15	-46.5	-82.5	326	6
2023-09-02T18:00	29016	15	-46.8	-82.7	325	7
2023-09-02T18:00	29054	15	-47.0	-82.9	325	7
2023-09-02T18:00	29074	15	-47.1	-82.9	325	8
2023-09-02T18:00	29087	15	-47.2	-83.0	326	8
2023-09-02T18:00	29135	14	-47.2	-83.0	327	9
2023-09-02T18:00	29157	14	-47.3	-83.1	328	10
2023-09-02T18:00	29189	14	-47.4	-83.1	329	10
2023-09-02T18:00	29219	14	-47.3	-83.1	330	10
2023-09-02T18:00	29243	14	-47.3	-83.1	331	10
2023-09-02T18:00	29273	14	-47.1	-82.9	333	10
2023-09-02T18:00	29310	14	-47.0	-82.9	334	10
2023-09-02T18:00	29331	14	-46.9	-82.8	336	9
2023-09-02T18:00	29339	14	-47.0	-82.9	338	9
2023-09-02T18:00	29387	14	-47.1	-82.9	339	8
2023-09-02T18:00	29420	14	-47.1	-82.9	341	8
2023-09-02T18:00	29434	14	-47.1	-82.9	342	8
2023-09-02T18:00	29481	14	-47.1	-82.9	343	7
2023-09-02T18:00	29508	14	-47.2	-83.0	344	7
2023-09-02T18:00	29536	14	-47.3	-83.1	345	7
2023-09-02T18:00	29580	14	-47.4	-83.1	346	6
2023-09-02T18:00	29597	14	-47.5	-83.2	348	6
2023-09-02T18:00	29612	13	-47.5	-83.2	350	6
2023-09-02T18:00	29647	13	-47.4	-83.1	353	6
2023-09-02T18:00	29685	13	-47.4	-83.1	355	6
2023-09-02T18:00	29701	13	-47.4	-83.1	358	7
2023-09-02T18:00	29743	13	-47.3	-83.1	0	7
2023-09-02T18:00	29763	13	-47.1	-82.9	2	7
2023-09-02T18:00	29806	13	-46.9	-82.8	4	7
2023-09-02T18:00	29828	13	-46.9	-83.9	5	7
2023-09-02T18:00	29858	13	-46.7	-83.7	4	7
2023-09-02T18:00	29893	13	-46.4	-83.5	4	7
2023-09-02T18:00	29926	13	-46.2	-83.4	4	7
2023-09-02T18:00	29952	13	-46.2	-83.4	6	7
2023-09-02T18:00	29982	13	-46.0	-83.2	9	7
2023-09-02T18:00	30001	13	-45.7	-83.0	13	7
2023-09-02T18:00	30045	13	-45.5	-82.9	16	7
2023-09-02T18:00	30064	13	-45.4	-82.8	18	7
2023-09-02T18:00	30097	13	-45.4	-82.8	18	7
2023-09-02T18:00	30126	12	-45.4	-82.8	18	7
2023-09-02T18:00	30147	12	-45.2	-82.7	16	7
2023-09-02T18:00	30183	12	-45.2	-82.7	14	7
2023-09-02T18:00	30210	12	-45.3	-82.7	12	7
2023-09-02T18:00	30224	12	-45.3	-82.7	10	7
2023-09-02T18:00	30271	12	-45.2	-82.7	9	7
2023-09-02T18:00	30288	12	-45.3	-82.7	9	7
2023-09-02T18:00	30327	12	-45.5	-82.9	10	7
2023-09-02T18:00	30341	12	-45.6	-82.9	12	7
2023-09-02T18:00	30384	12	-45.8	-83.1	14	7
2023-09-02T18:00	30397	12	-45.9	-83.2	16	7
2023-09-02T18:00	30439	12	-45.9	-83.2	17	7
2023-09-02T18:00	30468	12	-45.9	-83.2	18	7
2023-09-02T18:00	30504	12	-45.8	-83.1	17	7
2023-09-02T18:00	30532	12	-45.7	-83.0	14	7
2023-09-02T18:00	30545	12	-45.5	-82.9	11	7
2023-09-02T18:00	30579	12	-45.4	-82.8	8	7
2023-09-02T18:00	30605	12	-45.4	-82.8	6	8
2023-09-02T18:00	30642	12	-45.4	-82.8	4	8
2023-09-02T18:00	30664	12	-45.4	-82.8	3	9
2023-09-02T18:00	30693	11	-45.3	-82.7	3	9
2023-09-02T18:00	30722	11	-45.3	-82.7	4	10
2023-09-02T18:00	30738	11	-45.3	-82.7	5	10
2023-09-02T18:00	30769	11	-45.1	-82.6	7	11
2023-09-02T18:00	30813	11	-45.0	-82.5	9	12
2023-09-02T18:00	30841	11	-45.1	-82.6	11	12
2023-09-02T18:00	30844	11	-45.1	-82.6	14	13
2023-09-02T18:00	30887	11	-45.0	-82.5	16	14
2023-09-02T18:00	30919	11	-44.9	-82.5	19	14
2023-09-02T18:00	30934	11	-44.8	-82.4	23	14
2023-09-02T18:00	30968	11	-44.7	-82.3	26	14
2023-09-02T18:00	30998	11	-44.3	-82.0	30	14
2023-09-02T18:00	31026	11	-44.0	-81.8	33	14
2023-09-02T18:00	31051	11	-43.8	-81.7	37	13
2023-09-02T18:00	31101	11	-43.7	-81.6	40	12
2023-09-02T18:00	31116	11	-43.9	-81.8	43	12
2023-09-02T18:00	31139	11	-44.1	-81.9	46	11
2023-09-02T18:00	31173	11	-44.3	-82.0	49	11
2023-09-02T18:00	31202	11	-44.5	-82.2	51	11
2023-09-02T18:00	31235	11	-44.8	-82.4	54	11
2023-09-02T18:00	31278	11	-45.1	-82.6	58	10
2023-09-02T18:00	31295	10	-45.3	-82.7	61	10
2023-09-02T18:00	31322	10	-45.5	-81.8	66	10
2023-09-02T18:00	31340	10	-45.7	-81.9	70	9
2023-09-02T18:00	31389	10	-45.9	-82.1	74	9
2023-09-02T18:00	31403	10	-46.0	-83.2	77	8
2023-09-02T18:00	31452	10	-45.8	-83.1	78	7
2023-09-02T18:00	31481	10	-45.6	-82.9	76	7
2023-09-02T18:00	31501	10	-45.7	-83.0	71	7
2023-09-02T18:00	31541	10	-45.8	-83.1	63	6
2023-09-02T18:00	31566	10	-45.9	-83.2	53	6
2023-09-02T18:00	31599	10	-46.0	-83.2	44	6
2023-09-02T18:00	31637	10	-46.0	-83.2	37	6
2023-09-02T18:00	31679	10	-45.7	-83.0	34	7
2023-09-02T18:00	31722	10	-45.1	-82.6	36	7
2023-09-02T18:00	31738	10	-44.7	-82.3	38	7
2023-09-02T18:00	31770	10	-44.2	-82.0	40	7
2023-09-02T18:00	31792	10	-44.1	-81.9	40	8
2023-09-02T18:00	31821	10	-43.9	-81.8	39	8
2023-09-02T18:00	31853	10	-43.9	-81.8	39	8
2023-09-02T18:00	31891	10	-43.9	-81.8	41	8
2023-09-02T18:00	31925	10	-43.8	-81.7	44	8
2023-09-02T18:00	31974	9	-43.6	-81.5	49	7
2023-09-02T18:00	32023	9	-43.9	-81.8	60	7
2023-09-02T18:00	32029	9	-44.0	-81.8	64	7
2023-09-02T18:00	32062	9	-44.0	-81.8	67	7
2023-09-02T18:00	32095	9	-44.0	-81.8	67	7
2023-09-02T18:00	32115	9	-44.0	-81.8	64	7
2023-09-02T18:00	32161	9	-44.0	-81.8	59	7
2023-09-02T18:00	32196	9	-43.7	-81.6	52	7
2023-09-02T18:00	32212	9	-43.3	-81.3	44	7
2023-09-02T18:00	32246	9	-43.0	-81.1	37	7
2023-09-02T18:00	32271	9	-43.0	-81.1	29	7
2023-09-02T18:00	32324	9	-43.1	-81.2	22	7
2023-09-02T18:00	32332	9	-43.2	-81.3	17	8
2023-09-02T18:00	32365	9	-43.2	-81.3	13	8
2023-09-02T18:00	32402	9	-43.1	-81.2	10	9
2023-09-02T18:00	32412	9	-42.9	-81.1	9	10
2023-09-02T18:00	32439	9	-42.8	-81.0	10	11
2023-09-02T18:00	32480	9	-42.8	-81.0	11	12
2023-09-02T18:00	32505	9	-42.5	-80.8	14	12
2023-09-02T18:00	32515	9	-42.1	-80.5	17	13
2023-09-02T18:00	32578	9	-41.9	-80.4	21	13
2023-09-02T18:00	32582	9	-41.7	-80.2	27	13
2023-09-02T18:00	32614	9	-41.7	-80.2	33	13
2023-09-02T18:00	32627	9	-41.7	-80.2	39	12
2023-09-02T18:00	32676	9	-41.7	-80.2	45	12
2023-09-02T18:00	32711	8	-41.6	-80.1	50	12
2023-09-02T18:00	32731	8	-41.3	-79.9	55	12
2023-09-02T18:00	32760	8	-41.1	-79.8	58	12
2023-09-02T18:00	32791	8	-40.8	-79.6	60	12
2023-09-02T18:00	32825	8	-40.3	-79.2	62	12
2023-09-02T18:00	32848	8	-40.1	-79.1	64	12
2023-09-02T18:00	32886	8	-40.1	-79.1	67	12
2023-09-02T18:00	32911	8	-39.7	-78.8	71	12
2023-09-02T18:00	32952	8	-39.7	-78.8	75	12
2023-09-02T18:00	32983	8	-39.8	-78.9	78	11
2023-09-02T18:00	33042	8	-40.0	-79.0	83	11
2023-09-02T18:00	33061	8	-40.2	-79.2	84	10
2023-09-02T18:00	33078	8	-40.4	-79.3	84	10
2023-09-02T18:00	33122	8	-40.3	-79.2	85	10
2023-09-02T18:00	33131	8	-40.2	-79.2	86	10
2023-09-02T18:00	33159	8	-40.2	-79.2	87	10
2023-09-02T18:00	33203	8	-40.2	-79.2	87	9
2023-09-02T18:00	33237	8	-40.2	-79.2	87	9
2023-09-02T18:00	33275	8	-40.1	-79.1	86	9
2023-09-02T18:00	33297	8	-40.2	-79.2	84	9
2023-09-02T18:00	33316	8	-40.3	-79.2	82	9
2023-09-02T18:00	33325	8	-40.4	-79.3	78	8
2023-09-02T18:00	33373	8	-40.3	-79.2	74	8
2023-09-02T18:00	33413	8	-40.3	-79.2	70	8
2023-09-02T18:00	33447	8	-40.3	-79.2	68	8
2023-09-02T18:00	33464	8	-40.3	-79.2	67	8
2023-09-02T18:00	33509	8	-40.3	-79.2	68	8
2023-09-02T18:00	33550	8	-40.3	-79.2	70	8
2023-09-02T18:00	33569	7	-40.2	-79.2	73	8
2023-09-02T18:00	33624	7	-39.9	-79.0	76	8
2023-09-02T18:00	33634	7	-39.6	-78.8	78	7
2023-09-02T18:00	33656	7	-39.6	-78.8	81	7
2023-09-02T18:00	33689	7	-39.6	-78.8	83	7
2023-09-02T18:00	33716	7	-39.4	-78.6	84	7
2023-09-02T18:00	33749	7	-39.3	-78.5	85	7
2023-09-02T18:00	33768	7	-39.3	-78.5	85	7
2023-09-02T18:00	33792	7	-39.2	-78.5	86	6
2023-09-02T18:00	33843	7	-39.1	-78.4	88	6
2023-09-02T18:00	33863	7	-38.9	-78.3	93	5
2023-09-02T18:00	33909	7	-39.1	-78.4	95	4
2023-09-02T18:00	33913	7	-39.2	-78.5	96	4
2023-09-02T18:00	33975	7	-39.1	-78.4	94	3
2023-09-02T18:00	33997	7	-38.8	-78.2	89	3
2023-09-02T18:00	34011	7	-38.3	-77.9	83	3
2023-09-02T18:00	34045	7	-38.2	-77.8	79	3
2023-09-02T18:00	34068	7	-37.9	-77.6	75	3
2023-09-02T18:00	34082	7	-37.8	-77.5	71	3
2023-09-02T18:00	34107	7	-37.9	-77.6	65	3
2023-09-02T18:00	34133	7	-37.9	-77.6	54	3
2023-09-02T18:00	34163	7	-37.7	-77.4	40	3
2023-09-02T18:00	34201	7	-37.4	-77.2	28	3
2023-09-02T18:00	34226	7	-37.2	-77.1	21	3
2023-09-02T18:00	34253	7	-36.9	-76.9	19	4
2023-09-02T18:00	34302	7	-36.8	-76.8	19	4
2023-09-02T18:00	34335	7	-36.7	-76.7	18	5
2023-09-02T18:00	34358	7	-36.9	-76.9	16	6
2023-09-02T18:00	34392	7	-36.9	-76.9	15	6
2023-09-02T18:00	34432	7	-36.7	-76.7	16	6
2023-09-02T18:00	34461	7	-36.4	-76.5	20	6
2023-09-02T18:00	34508	7	-36.5	-76.6	22	5
2023-09-02T18:00	34527	7	-36.6	-76.7	24	5
2023-09-02T18:00	34545	7	-36.7	-76.7	25	4
2023-09-02T18:00	34565	6	-36.9	-76.9	25	4
2023-09-02T18:00	34609	6	-37.0	-77.0	23	3
2023-09-02T18:00	34634	6	-37.1	-77.0	20	2
2023-09-02T18:00	34682	6	-37.2	-77.1	10	2
2023-09-02T18:00	34699	6	-37.2	-77.1	350	1
2023-09-02T18:00	34754	6	-37.1	-77.0	300	1
2023-09-02T18:00	34799	6	-36.9	-76.9	292	2
2023-09-02T18:00	34814	6	-36.7	-76.7	289	2
2023-09-02T18:00	34832	6	-36.7	-76.7	289	2
2023-09-02T18:00	34863	6	-36.6	-76.7	291	2
2023-09-02T18:00	34889	6	-36.6	-76.7	292	2
2023-09-02T18:00	34934	6	-36.7	-76.7	295	3
2023-09-02T18:00	34938	6	-36.7	-76.7	298	3
2023-09-02T18:00	34991	6	-36.5	-76.6	303	3
2023-09-02T18:00	35037	6	-36.4	-76.5	311	3
2023-09-02T18:00	35044	6	-36.1	-76.3	320	3
2023-09-02T18:00	35073	6	-36.1	-76.3	330	3
2023-09-02T18:00	35100	6	-36.1	-76.3	340	4
2023-09-02T18:00	35119	6	-36.0	-76.3	348	5
2023-09-02T18:00	35153	6	-35.5	-75.9	354	5
2023-09-02T18:00	35189	6	-35.3	-75.8	359	6
2023-09-02T18:00	35202	6	-34.8	-75.4	3	7
2023-09-02T18:00	35245	6	-34.2	-75.0	7	7
2023-09-02T18:00	35294	6	-34.3	-75.1	10	8
2023-09-02T18:00	35336	6	-34.7	-75.4	17	9
2023-09-02T18:00	35367	6	-35.0	-75.6	19	10
2023-09-02T18:00	35388	6	-35.2	-75.7	22	11
2023-09-02T18:00	35403	6	-35.4	-75.8	24	12
2023-09-02T18:00	35433	6	-35.5	-75.9	27	13
2023-09-02T18:00	35456	6	-35.6	-76.0	29	13
2023-09-02T18:00	35505	6	-35.7	-76.1	32	14
2023-09-02T18:00	35514	6	-35.7	-76.1	34	14
2023-09-02T18:00	35520	6	-35.6	-76.0	36	14
2023-09-02T18:00	35595	6	-35.4	-75.8	38	14
2023-09-02T18:00	35601	6	-35.4	-75.8	40	13
2023-09-03T00:00	112	1009	15.6	12.7	280	2
2023-09-03T00:00	138	1006	16.6	12.7	299	3
2023-09-03T00:00	165	1003	17.9	11.9	300	3
2023-09-03T00:00	189	1000	18.1	11.9	301	4
2023-09-03T00:00	213	998	17.9	11.8	301	4
2023-09-03T00:00	240	994	17.7	11.9	301	4
2023-09-03T00:00	268	991	17.4	11.7	300	4
2023-09-03T00:00	291	989	17.2	11.6	299	4
2023-09-03T00:00	314	986	17.1	11.5	300	4
2023-09-03T00:00	336	983	17.0	11.3	301	4
2023-09-03T00:00	364	980	16.8	11.1	302	4
2023-09-03T00:00	391	977	16.6	11.0	304	4
2023-09-03T00:00	417	974	16.4	10.5	305	4
2023-09-03T00:00	447	971	16.2	10.5	305	4
2023-09-03T00:00	473	968	15.9	10.4	304	4
2023-09-03T00:00	501	965	15.8	9.9	304	4
2023-09-03T00:00	525	962	15.7	9.2	303	4
2023-09-03T00:00	548	959	15.7	8.9	303	4
2023-09-03T00:00	571	957	15.6	8.8	302	4
2023-09-03T00:00	596	954	15.4	9.0	300	4
2023-09-03T00:00	614	952	15.2	8.9	298	3
2023-09-03T00:00	642	949	15.0	8.8	296	3
2023-09-03T00:00	661	946	14.9	8.6	296	3
2023-09-03T00:00	685	944	14.8	8.2	298	3
2023-09-03T00:00	710	941	14.5	8.1	301	3
2023-09-03T00:00	734	938	14.3	8.0	302	3
2023-09-03T00:00	758	936	14.1	8.0	303	3
2023-09-03T00:00	783	933	13.9	7.7	304	4
2023-09-03T00:00	809	930	13.7	7.6	305	4
2023-09-03T00:00	832	928	13.6	7.6	307	4
2023-09-03T00:00	855	925	13.4	7.2	309	4
2023-09-03T00:00	880	922	13.2	6.9	310	4
2023-09-03T00:00	904	920	13.0	6.6	307	4
2023-09-03T00:00	931	917	12.8	6.6	303	4
2023-09-03T00:00	956	914	12.6	6.6	298	4
2023-09-03T00:00	978	911	12.3	6.5	293	4
2023-09-03T00:00	1004	909	12.1	6.4	290	4
2023-09-03T00:00	1027	906	11.9	6.5	289	4
2023-09-03T00:00	1046	904	11.7	6.7	289	4
2023-09-03T00:00	1068	902	11.5	7.0	290	4
2023-09-03T00:00	1093	899	11.3	6.9	289	5
2023-09-03T00:00	1117	897	11.1	6.2	286	6
2023-09-03T00:00	1140	894	10.9	6.3	282	6
2023-09-03T00:00	1159	892	10.9	5.9	277	7
2023-09-03T00:00	1178	890	10.8	5.7	272	7
2023-09-03T00:00	1197	888	10.6	5.6	268	7
2023-09-03T00:00	1217	886	10.5	5.6	267	6
2023-09-03T00:00	1235	884	10.3	5.6	269	6
2023-09-03T00:00	1257	882	10.1	5.7	274	6
2023-09-03T00:00	1277	879	9.9	5.8	280	6
2023-09-03T00:00	1304	877	9.7	5.8	286	7
2023-09-03T00:00	1332	874	9.5	5.7	291	8
2023-09-03T00:00	1360	871	9.2	5.3	293	8
2023-09-03T00:00	1387	868	9.1	5.1	294	9
2023-09-03T00:00	1405	866	9.0	4.9	294	9
2023-09-03T00:00	1428	864	8.8	4.3	294	9
2023-09-03T00:00	1453	861	8.8	3.8	293	9
2023-09-03T00:00	1473	859	8.7	3.2	293	9
2023-09-03T00:00	1492	857	8.7	2.9	294	9
2023-09-03T00:00	1512	855	8.6	2.6	294	9
2023-09-03T00:00	1532	853	8.5	2.9	294	9
2023-09-03T00:00	1556	850	8.3	3.0	294	10
2023-09-03T00:00	1576	848	8.1	3.0	295	10
2023-09-03T00:00	1602	846	7.9	3.0	296	11
2023-09-03T00:00	1628	843	7.6	3.1	298	11
2023-09-03T00:00	1651	841	7.4	3.5	300	12
2023-09-03T00:00	1670	839	7.2	3.6	301	12
2023-09-03T00:00	1691	837	7.0	3.5	302	12
2023-09-03T00:00	1710	835	6.9	3.5	302	12
2023-09-03T00:00	1733	832	6.7	4.9	302	12
2023-09-03T00:00	1753	830	6.6	5.3	302	12
2023-09-03T00:00	1775	828	6.6	5.1	302	12
2023-09-03T00:00	1800	826	6.6	5.0	303	12
2023-09-03T00:00	1821	824	6.7	4.4	304	12
2023-09-03T00:00	1840	821	6.8	4.4	305	12
2023-09-03T00:00	1868	819	6.8	4.1	305	12
2023-09-03T00:00	1891	817	6.7	3.7	305	12
2023-09-03T00:00	1915	814	6.6	3.9	304	12
2023-09-03T00:00	1934	812	6.5	3.7	303	11
2023-09-03T00:00	1952	810	6.3	3.5	303	10
2023-09-03T00:00	1972	808	6.1	3.4	304	10
2023-09-03T00:00	1992	806	6.1	2.9	305	9
2023-09-03T00:00	2014	804	6.0	1.6	306	10
2023-09-03T00:00	2038	802	5.9	0.7	305	10
2023-09-03T00:00	2057	800	5.8	-0.3	303	11
2023-09-03T00:00	2078	798	5.7	1.8	301	12
2023-09-03T00:00	2097	796	5.5	2.3	300	12
2023-09-03T00:00	2122	794	5.3	2.2	299	12
2023-09-03T00:00	2147	791	5.2	2.1	299	12
2023-09-03T00:00	2170	789	5.0	2.1	300	11
2023-09-03T00:00	2190	787	4.8	1.2	299	11
2023-09-03T00:00	2218	785	4.6	2.1	299	11
2023-09-03T00:00	2241	782	4.4	2.0	298	10
2023-09-03T00:00	2263	780	4.2	1.9	298	10
2023-09-03T00:00	2286	778	4.0	1.6	299	10
2023-09-03T00:00	2305	776	3.9	1.1	300	10
2023-09-03T00:00	2328	774	3.7	0.8	301	10
2023-09-03T00:00	2350	772	3.5	0.7	300	10
2023-09-03T00:00	2372	770	3.4	0.3	300	10
2023-09-03T00:00	2394	768	3.5	-2.0	299	9
2023-09-03T00:00	2419	765	3.6	-3.1	298	9
2023-09-03T00:00	2443	763	3.4	-3.0	298	9
2023-09-03T00:00	2466	761	3.2	-3.0	297	9
2023-09-03T00:00	2489	759	3.1	-3.2	296	9
2023-09-03T00:00	2521	756	2.9	-3.1	295	9
2023-09-03T00:00	2545	754	2.9	-2.4	294	8
2023-09-03T00:00	2568	751	2.7	-2.3	295	7
2023-09-03T00:00	2590	749	2.5	-2.2	295	7
2023-09-03T00:00	2612	748	2.3	-1.6	296	7
2023-09-03T00:00	2629	746	2.1	-1.4	297	7
2023-09-03T00:00	2650	744	1.9	-1.5	297	8
2023-09-03T00:00	2673	742	1.7	-1.5	297	8
2023-09-03T00:00	2705	739	1.4	-1.7	298	9
2023-09-03T00:00	2731	736	1.1	-1.6	299	10
2023-09-03T00:00	2759	734	0.9	-1.7	301	10
2023-09-03T00:00	2784	732	0.6	-1.8	303	10
2023-09-03T00:00	2803	730	0.5	-1.7	306	10
2023-09-03T00:00	2826	728	0.2	-1.7	307	10
2023-09-03T00:00	2845	726	0.0	-1.7	305	9
2023-09-03T00:00	2866	724	-0.2	-1.8	301	9
2023-09-03T00:00	2893	722	-0.4	-1.9	297	9
2023-09-03T00:00	2915	720	-0.5	-2.0	293	10
2023-09-03T00:00	2941	717	-0.8	-2.2	292	10
2023-09-03T00:00	2971	715	-1.1	-2.3	292	10
2023-09-03T00:00	2999	712	-1.3	-2.2	293	10
2023-09-03T00:00	3027	710	-1.6	-2.5	294	10
2023-09-03T00:00	3057	707	-1.8	-2.7	294	11
2023-09-03T00:00	3088	704	-2.1	-2.9	294	11
2023-09-03T00:00	3109	702	-2.4	-3.2	294	12
2023-09-03T00:00	3129	701	-2.5	-3.0	294	12
2023-09-03T00:00	3152	699	-2.7	-3.5	296	12
2023-09-03T00:00	3175	697	-2.8	-3.9	299	12
2023-09-03T00:00	3193	695	-2.7	-5.2	303	11
2023-09-03T00:00	3215	693	-2.7	-6.5	305	10
2023-09-03T00:00	3236	691	-2.7	-7.1	306	9
2023-09-03T00:00	3253	690	-2.7	-9.2	304	8
2023-09-03T00:00	3282	687	-2.7	-11.3	301	8
2023-09-03T00:00	3306	685	-2.6	-13.9	298	7
2023-09-03T00:00	3324	684	-2.5	-17.2	298	7
2023-09-03T00:00	3351	681	-2.4	-19.0	301	7
2023-09-03T00:00	3373	679	-2.4	-20.0	304	8
2023-09-03T00:00	3396	678	-2.4	-20.4	307	8
2023-09-03T00:00	3413	676	-2.4	-21.4	307	9
2023-09-03T00:00	3436	674	-2.5	-21.4	307	9
2023-09-03T00:00	3467	672	-2.7	-21.4	305	10
2023-09-03T00:00	3495	669	-2.9	-21.9	304	10
2023-09-03T00:00	3517	667	-2.9	-22.3	303	11
2023-09-03T00:00	3541	665	-2.9	-23.1	303	11
2023-09-03T00:00	3570	663	-2.8	-23.1	305	11
2023-09-03T00:00	3589	661	-3.0	-23.3	306	11
2023-09-03T00:00	3607	660	-3.0	-23.5	309	11
2023-09-03T00:00	3633	657	-3.0	-22.9	310	12
2023-09-03T00:00	3664	655	-3.3	-17.4	312	12
2023-09-03T00:00	3698	652	-3.6	-15.6	313	12
2023-09-03T00:00	3726	650	-3.9	-14.4	313	12
2023-09-03T00:00	3756	647	-4.2	-13.7	312	12
2023-09-03T00:00	3787	645	-4.5	-13.5	311	12
2023-09-03T00:00	3810	643	-4.7	-13.5	310	11
2023-09-03T00:00	3838	641	-5.0	-13.6	308	11
2023-09-03T00:00	3861	639	-5.3	-13.6	307	11
2023-09-03T00:00	3882	637	-5.5	-13.6	305	11
2023-09-03T00:00	3908	635	-5.7	-13.6	303	11
2023-09-03T00:00	3930	633	-5.9	-13.7	301	12
2023-09-03T00:00	3955	631	-6.1	-13.8	300	12
2023-09-03T00:00	3980	629	-6.3	-14.3	299	12
2023-09-03T00:00	4006	627	-6.5	-14.4	299	12
2023-09-03T00:00	4030	625	-6.7	-15.3	299	12
2023-09-03T00:00	4056	623	-6.7	-18.5	299	12
2023-09-03T00:00	4077	621	-6.6	-22.7	300	12
2023-09-03T00:00	4103	619	-6.5	-25.2	301	12
2023-09-03T00:00	4125	618	-6.2	-29.7	303	11
2023-09-03T00:00	4146	616	-5.9	-32.0	305	10
2023-09-03T00:00	4170	614	-6.1	-31.7	307	10
2023-09-03T00:00	4195	612	-6.3	-30.6	309	10
2023-09-03T00:00	4218	610	-6.5	-29.2	310	10
2023-09-03T00:00	4238	609	-6.7	-29.0	309	10
2023-09-03T00:00	4265	607	-6.9	-29.0	308	10
2023-09-03T00:00	4287	605	-7.1	-28.7	308	10
2023-09-03T00:00	4312	603	-7.2	-31.8	308	9
2023-09-03T00:00	4335	601	-7.2	-32.6	308	9
2023-09-03T00:00	4363	599	-7.4	-32.7	309	9
2023-09-03T00:00	4383	597	-7.5	-30.4	308	9
2023-09-03T00:00	4406	596	-7.7	-31.3	308	10
2023-09-03T00:00	4436	593	-7.9	-29.2	307	10
2023-09-03T00:00	4466	591	-8.2	-29.1	307	11
2023-09-03T00:00	4488	589	-8.4	-29.2	307	12
2023-09-03T00:00	4513	588	-8.6	-29.4	308	13
2023-09-03T00:00	4536	586	-8.8	-29.3	308	13
2023-09-03T00:00	4558	584	-9.0	-29.9	307	13
2023-09-03T00:00	4584	582	-9.1	-31.1	306	13
2023-09-03T00:00	4609	580	-9.2	-31.8	304	13
2023-09-03T00:00	4630	579	-9.4	-31.7	301	13
2023-09-03T00:00	4658	577	-9.6	-31.9	299	13
2023-09-03T00:00	4681	575	-9.8	-32.0	297	14
2023-09-03T00:00	4708	573	-10.0	-31.6	296	14
2023-09-03T00:00	4730	571	-10.2	-31.4	296	14
2023-09-03T00:00	4755	569	-10.4	-31.0	296	14
2023-09-03T00:00	4782	567	-10.6	-30.9	297	14
2023-09-03T00:00	4807	566	-10.8	-30.9	297	14
2023-09-03T00:00	4827	564	-11.0	-30.7	299	14
2023-09-03T00:00	4860	562	-11.3	-31.0	300	15
2023-09-03T00:00	4883	560	-11.5	-31.6	301	15
2023-09-03T00:00	4908	558	-11.6	-33.3	302	15
2023-09-03T00:00	4933	556	-11.6	-36.6	303	15
2023-09-03T00:00	4966	554	-11.5	-41.8	304	14
2023-09-03T00:00	4986	552	-11.6	-43.5	305	14
2023-09-03T00:00	5010	551	-11.7	-45.1	306	14
2023-09-03T00:00	5036	549	-11.8	-46.0	308	13
2023-09-03T00:00	5070	547	-11.9	-45.2	310	13
2023-09-03T00:00	5089	545	-12.0	-45.0	310	13
2023-09-03T00:00	5110	544	-12.2	-45.7	310	13
2023-09-03T00:00	5135	542	-12.3	-46.1	309	13
2023-09-03T00:00	5160	540	-12.5	-45.9	308	14
2023-09-03T00:00	5194	538	-12.8	-46.2	308	14
2023-09-03T00:00	5225	536	-13.0	-46.1	308	14
2023-09-03T00:00	5251	534	-13.2	-45.5	308	14
2023-09-03T00:00	5279	532	-13.5	-45.0	308	14
2023-09-03T00:00	5299	530	-13.6	-44.9	307	14
2023-09-03T00:00	5327	528	-13.8	-44.8	306	14
2023-09-03T00:00	5351	527	-14.0	-44.5	304	14
2023-09-03T00:00	5373	525	-14.1	-44.2	303	14
2023-09-03T00:00	5404	523	-14.4	-44.1	302	14
2023-09-03T00:00	5432	521	-14.7	-44.3	301	14
2023-09-03T00:00	5456	519	-14.9	-44.7	301	14
2023-09-03T00:00	5480	518	-15.1	-44.6	301	15
2023-09-03T00:00	5511	516	-15.3	-44.2	301	15
2023-09-03T00:00	5537	514	-15.5	-44.2	300	16
2023-09-03T00:00	5560	512	-15.7	-44.4	300	16
2023-09-03T00:00	5583	511	-15.9	-44.4	300	16
2023-09-03T00:00	5613	509	-16.2	-44.8	301	16
2023-09-03T00:00	5639	507	-16.4	-44.6	301	15
2023-09-03T00:00	5665	505	-16.5	-44.7	301	15
2023-09-03T00:00	5693	503	-16.7	-44.5	300	15
2023-09-03T00:00	5720	502	-17.0	-44.6	299	14
2023-09-03T00:00	5743	500	-17.1	-44.7	298	14
2023-09-03T00:00	5775	498	-17.4	-45.2	298	14
2023-09-03T00:00	5800	496	-17.5	-46.2	298	14
2023-09-03T00:00	5822	495	-17.7	-46.1	299	15
2023-09-03T00:00	5849	493	-17.9	-46.5	300	15
2023-09-03T00:00	5877	491	-18.1	-47.0	301	16
2023-09-03T00:00	5908	489	-18.2	-48.2	303	16
2023-09-03T00:00	5938	487	-18.5	-48.4	304	16
2023-09-03T00:00	5962	485	-18.6	-49.2	305	16
2023-09-03T00:00	5994	484	-18.8	-50.0	306	16
2023-09-03T00:00	6015	482	-19.0	-50.2	306	16
2023-09-03T00:00	6039	480	-19.1	-50.2	305	16
2023-09-03T00:00	6075	479	-19.3	-49.9	304	17
2023-09-03T00:00	6093	477	-19.5	-50.1	302	17
2023-09-03T00:00	6116	476	-19.6	-50.2	301	17
2023-09-03T00:00	6151	474	-19.9	-50.2	300	17
2023-09-03T00:00	6172	472	-20.1	-50.3	300	17
2023-09-03T00:00	6191	471	-20.2	-50.2	301	17
2023-09-03T00:00	6221	469	-20.4	-50.1	302	17
2023-09-03T00:00	6248	467	-20.6	-50.5	303	16
2023-09-03T00:00	6268	466	-20.8	-50.7	304	17
2023-09-03T00:00	6288	465	-20.9	-50.7	304	17
2023-09-03T00:00	6308	463	-21.1	-51.1	304	17
2023-09-03T00:00	6332	462	-21.2	-51.0	303	18
2023-09-03T00:00	6367	460	-21.5	-51.2	304	18
2023-09-03T00:00	6390	458	-21.7	-51.4	305	18
2023-09-03T00:00	6423	456	-22.0	-51.6	307	18
2023-09-03T00:00	6447	455	-22.2	-51.5	309	18
2023-09-03T00:00	6473	453	-22.4	-51.7	310	18
2023-09-03T00:00	6499	452	-22.5	-51.0	310	17
2023-09-03T00:00	6528	450	-22.7	-48.3	310	17
2023-09-03T00:00	6563	448	-23.0	-47.2	309	16
2023-09-03T00:00	6588	446	-23.2	-46.9	310	16
2023-09-03T00:00	6616	444	-23.5	-46.1	311	16
2023-09-03T00:00	6643	443	-23.7	-45.0	313	16
2023-09-03T00:00	6668	441	-23.8	-46.5	314	17
2023-09-03T00:00	6694	440	-24.0		314	17
2023-09-03T00:00	6726	438	-24.3	-39.2	314	18
2023-09-03T00:00	6755	436	-24.6	-38.4	314	19
2023-09-03T00:00	6784	434	-24.8	-38.0	314	20
2023-09-03T00:00	6813	433	-25.0	-38.1	313	21
2023-09-03T00:00	6849	431	-25.2	-38.0	313	23
2023-09-03T00:00	6876	429	-25.2	-38.4	313	24
2023-09-03T00:00	6901	427	-25.4	-38.5	314	24
2023-09-03T00:00	6926	426	-25.6	-38.7	314	25
2023-09-03T00:00	6948	425	-25.7	-38.8	315	25
2023-09-03T00:00	6978	423	-25.9	-39.1	317	25
2023-09-03T00:00	7011	421	-26.1	-39.2	318	25
2023-09-03T00:00	7033	420	-26.4	-39.1	320	25
2023-09-03T00:00	7061	418	-26.5	-39.1	321	26
2023-09-03T00:00	7090	416	-26.7	-39.3	322	26
2023-09-03T00:00	7114	415	-26.6	-39.1	322	27
2023-09-03T00:00	7136	414	-26.6	-38.7	321	28
2023-09-03T00:00	7167	412	-26.8	-38.7	321	28
2023-09-03T00:00	7197	410	-27.0	-37.9	321	29
2023-09-03T00:00	7232	408	-26.9	-36.3	321	29
2023-09-03T00:00	7251	407	-26.8	-35.5	321	29
2023-09-03T00:00	7276	406	-26.9	-35.2	320	29
2023-09-03T00:00	7299	404	-26.9	-35.0	319	29
2023-09-03T00:00	7325	403	-27.0	-35.2	319	29
2023-09-03T00:00	7354	401	-27.2	-35.3	319	29
2023-09-03T00:00	7383	400	-27.5	-35.4	319	29
2023-09-03T00:00	7418	398	-27.8	-35.6	320	29
2023-09-03T00:00	7442	397	-28.1	-35.8	321	29
2023-09-03T00:00	7461	395	-28.3	-35.8	321	29
2023-09-03T00:00	7492	394	-28.6	-35.7	321	29
2023-09-03T00:00	7517	392	-28.8	-35.9	321	29
2023-09-03T00:00	7552	391	-29.1	-35.9	322	29
2023-09-03T00:00	7575	389	-29.4	-36.1	323	28
2023-09-03T00:00	7600	388	-29.6	-36.1	323	28
2023-09-03T00:00	7622	387	-29.8	-36.1	323	28
2023-09-03T00:00	7652	385	-30.1	-36.1	323	28
2023-09-03T00:00	7681	383	-30.4	-36.3	322	28
2023-09-03T00:00	7708	382	-30.6	-36.4	322	28
2023-09-03T00:00	7731	381	-30.8	-36.5	322	28
2023-09-03T00:00	7757	379	-31.1	-36.6	322	28
2023-09-03T00:00	7782	378	-31.3	-36.6	323	28
2023-09-03T00:00	7802	377	-31.5	-36.6	324	29
2023-09-03T00:00	7824	376	-31.7	-36.7	325	29
2023-09-03T00:00	7846	375	-32.0	-36.8	326	29
2023-09-03T00:00	7875	373	-32.2	-36.8	326	29
2023-09-03T00:00	7897	372	-32.5	-37.0	327	29
2023-09-03T00:00	7922	371	-32.7	-37.0	327	28
2023-09-03T00:00	7950	369	-33.0	-37.0	328	28
2023-09-03T00:00	7975	368	-33.2	-37.0	328	27
2023-09-03T00:00	8000	367	-33.4	-37.0	328	27
2023-09-03T00:00	8025	365	-33.6	-37.0	329	27
2023-09-03T00:00	8055	364	-34.0	-37.3	330	27
2023-09-03T00:00	8079	362	-34.2	-37.1	332	28
2023-09-03T00:00	8107	361	-34.5	-37.4	334	28
2023-09-03T00:00	8134	360	-34.7	-37.1	335	29
2023-09-03T00:00	8157	358	-34.9	-37.2	335	29
2023-09-03T00:00	8189	357	-35.1	-37.1	335	29
2023-09-03T00:00	8223	355	-35.3	-37.5	335	29
2023-09-03T00:00	8244	354	-35.2		335	29
2023-09-03T00:00	8275	353	-35.4	-37.9	334	30
2023-09-03T00:00	8292	351	-35.5	-37.9	334	30
2023-09-03T00:00	8315	350	-35.6	-37.4	333	31
2023-09-03T00:00	8343	349	-35.9	-37.4	333	32
2023-09-03T00:00	8374	347	-36.1	-37.1	332	32
2023-09-03T00:00	8401	346	-36.4	-38.1	332	32
2023-09-03T00:00	8432	345	-36.6	-38.4	332	32
2023-09-03T00:00	8459	343	-36.9	-38.9	332	31
2023-09-03T00:00	8494	342	-37.2	-39.1	333	31
2023-09-03T00:00	8521	340	-37.4	-39.7	334	30
2023-09-03T00:00	8542	339	-37.6	-42.1	335	30
2023-09-03T00:00	8566	338	-37.8	-43.3	336	30
2023-09-03T00:00	8594	336	-37.9	-45.8	337	30
2023-09-03T00:00	8629	335	-38.0	-46.7	337	30
2023-09-03T00:00	8659	333	-38.1	-48.0	337	30
2023-09-03T00:00	8694	332	-38.3	-48.2	338	31
2023-09-03T00:00	8729	330	-38.6	-48.7	338	31
2023-09-03T00:00	8761	328	-38.7	-50.3	339	31
2023-09-03T00:00	8794	327	-39.0	-51.1	338	31
2023-09-03T00:00	8822	326	-39.2	-52.2	338	31
2023-09-03T00:00	8850	324	-39.4	-52.2	338	31
2023-09-03T00:00	8878	323	-39.6	-53.1	338	31
2023-09-03T00:00	8908	321	-39.8	-53.9	339	31
2023-09-03T00:00	8940	320	-40.0	-55.1	340	32
2023-09-03T00:00	8966	319	-40.1	-54.9	342	32
2023-09-03T00:00	8991	318	-40.3	-54.8	343	33
2023-09-03T00:00	9021	316	-40.4	-55.7	344	34
2023-09-03T00:00	9047	315	-40.4	-56.2	345	36
2023-09-03T00:00	9077	314	-40.3	-56.0	346	36
2023-09-03T00:00	9106	312	-40.3	-55.5	347	37
2023-09-03T00:00	9137	311	-40.5	-55.5	348	37
2023-09-03T00:00	9171	309	-40.7	-55.3	349	38
2023-09-03T00:00	9208	308	-41.1	-55.5	350	39
2023-09-03T00:00	9240	306	-41.1	-55.2	351	40
2023-09-03T00:00	9269	305	-41.2	-54.9	352	42
2023-09-03T00:00	9289	304	-41.0	-54.5	352	43
2023-09-03T00:00	9314	303	-41.2	-54.4	352	44
2023-09-03T00:00	9339	302	-41.4	-54.2	353	44
2023-09-03T00:00	9364	301	-41.6	-53.9	353	44
2023-09-03T00:00	9389	300	-41.8	-53.7	354	44
2023-09-03T00:00	9407	299	-41.9	-53.6	354	44
2023-09-03T00:00	9429	298	-42.0	-53.6	355	44
2023-09-03T00:00	9451	297	-42.1	-53.6	355	45
2023-09-03T00:00	9471	296	-42.2	-53.4	355	45
2023-09-03T00:00	9490	295	-42.2	-53.7	355	45
2023-09-03T00:00	9513	294	-42.4	-54.4	354	44
2023-09-03T00:00	9537	293	-42.4	-55.8	354	44
2023-09-03T00:00	9563	292	-42.6	-57.0	354	44
2023-09-03T00:00	9593	291	-42.7	-58.2	355	43
2023-09-03T00:00	9622	289	-42.8	-59.3	355	44
2023-09-03T00:00	9651	288	-42.5	-60.3	356	44
2023-09-03T00:00	9674	287	-42.5	-60.2	357	45
2023-09-03T00:00	9697	286	-42.5	-59.6	357	45
2023-09-03T00:00	9720	285	-42.6	-59.3	358	46
2023-09-03T00:00	9744	284	-42.7	-59.1	358	47
2023-09-03T00:00	9770	283	-42.9	-59.0	359	48
2023-09-03T00:00	9801	282	-43.0	-58.8	359	49
2023-09-03T00:00	9820	281	-43.0	-58.7	360	50
2023-09-03T00:00	9842	280	-43.1	-58.8	0	50
2023-09-03T00:00	9866	279	-43.3	-58.7	0	50
2023-09-03T00:00	9893	278	-43.5	-58.7	1	50
2023-09-03T00:00	9919	277	-43.6		1	51
2023-09-03T00:00	9947	276	-43.9	-58.7	1	51
2023-09-03T00:00	9972	275	-44.0	-58.7	1	52
2023-09-03T00:00	10000	274	-44.1	-58.6	1	53
2023-09-03T00:00	10028	272	-44.2	-58.3	1	54
2023-09-03T00:00	10050	272	-44.2	-58.2	1	54
2023-09-03T00:00	10072	271	-44.2	-58.2	2	54
2023-09-03T00:00	10099	270	-44.2	-58.0	2	55
2023-09-03T00:00	10125	269	-44.3	-57.9	1	55
2023-09-03T00:00	10151	267	-44.5	-58.0	1	55
2023-09-03T00:00	10176	266	-44.6	-57.8	0	54
2023-09-03T00:00	10202	265	-44.7	-57.7	0	54
2023-09-03T00:00	10231	264	-44.9	-57.8	360	54
2023-09-03T00:00	10258	263	-45.1	-58.0	360	53
2023-09-03T00:00	10286	262	-45.3	-57.8	359	53
2023-09-03T00:00	10315	261	-45.6	-58.0	359	53
2023-09-03T00:00	10342	260	-45.9	-58.3	359	52
2023-09-03T00:00	10366	259	-46.1	-58.5	358	52
2023-09-03T00:00	10390	258	-46.3	-58.7	358	52
2023-09-03T00:00	10415	257	-46.5	-58.9	358	52
2023-09-03T00:00	10442	256	-46.7	-59.0	358	52
2023-09-03T00:00	10469	255	-47.0	-59.2	358	52
2023-09-03T00:00	10496	254	-47.2	-59.4	357	51
2023-09-03T00:00	10525	253	-47.4	-59.6	357	51
2023-09-03T00:00	10556	252	-47.7	-59.8	357	50
2023-09-03T00:00	10585	251	-47.9	-60.0	357	49
2023-09-03T00:00	10609	250	-48.1	-60.6	357	48
2023-09-03T00:00	10637	249	-48.2	-61.2	356	46
2023-09-03T00:00	10667	247	-48.3	-62.0	356	45
2023-09-03T00:00	10695	246	-48.3	-63.9	356	44
2023-09-03T00:00	10722	245	-48.1	-66.6	355	43
2023-09-03T00:00	10762	244	-48.0	-67.9	355	42
2023-09-03T00:00	10789	243	-48.1	-68.4	355	41
2023-09-03T00:00	10822	242	-48.2	-68.4	356	40
2023-09-03T00:00	10848	241	-48.4	-68.1	356	39
2023-09-03T00:00	10867	240	-48.5	-68.0	356	39
2023-09-03T00:00	10886	239	-48.7	-68.2	356	39
2023-09-03T00:00	10908	239	-48.7	-68.5	356	39
2023-09-03T00:00	10929	238	-48.5	-68.7	356	39
2023-09-03T00:00	10949	237	-48.5	-69.0	355	39
2023-09-03T00:00	10973	236	-48.6	-69.2	355	39
2023-09-03T00:00	10995	235	-48.6	-69.2	355	39
2023-09-03T00:00	11014	235	-48.8	-69.4	355	39
2023-09-03T00:00	11035	234	-48.9	-69.5	354	38
2023-09-03T00:00	11056	233	-49.0	-69.6	354	38
2023-09-03T00:00	11076	233	-49.1	-69.7	354	38
2023-09-03T00:00	11096	232	-49.2	-69.7	354	38
2023-09-03T00:00	11116	231	-49.4	-70.0	353	38
2023-09-03T00:00	11137	230	-49.5	-70.1	353	38
2023-09-03T00:00	11156	230	-49.5	-70.2	353	38
2023-09-03T00:00	11176	229	-49.6	-70.4	353	38
2023-09-03T00:00	11197	228	-49.6	-70.5	353	37
2023-09-03T00:00	11215	228	-49.7	-70.8	353	37
2023-09-03T00:00	11233	227	-49.6	-71.1	353	37
2023-09-03T00:00	11252	226	-49.6	-71.3	353	37
2023-09-03T00:00	11273	226	-49.7	-71.5	353	37
2023-09-03T00:00	11291	225	-49.8	-72.0	352	36
2023-09-03T00:00	11310	224	-49.8	-72.7	352	36
2023-09-03T00:00	11328	224	-49.8	-73.7	352	36
2023-09-03T00:00	11347	223	-49.9	-74.3	352	36
2023-09-03T00:00	11370	222	-49.9	-74.5	352	36
2023-09-03T00:00	11389	222	-50.0	-74.8	351	35
2023-09-03T00:00	11409	221	-50.0	-74.8	351	35
2023-09-03T00:00	11430	220	-50.0	-74.6	350	34
2023-09-03T00:00	11451	220	-50.0	-74.4	349	34
2023-09-03T00:00	11472	219	-50.1	-74.3	348	33
2023-09-03T00:00	11494	218	-50.2	-74.4	348	33
2023-09-03T00:00	11517	217	-50.4	-74.4	347	32
2023-09-03T00:00	11539	217	-50.5	-74.3	346	32
2023-09-03T00:00	11565	216	-50.5	-74.4	345	32
2023-09-03T00:00	11588	215	-50.5	-74.6	345	31
2023-09-03T00:00	11608	214	-50.4	-74.7	344	31
2023-09-03T00:00	11631	214	-50.4		343	31
2023-09-03T00:00	11656	213	-50.3	-75.5	343	31
2023-09-03T00:00	11684	212	-50.2	-76.0	343	31
2023-09-03T00:00	11707	211	-50.0	-76.1	342	31
2023-09-03T00:00	11734	210	-49.9	-76.3	342	31
2023-09-03T00:00	11759	209	-49.8	-76.2	342	31
2023-09-03T00:00	11787	209	-49.9	-76.3	342	31
2023-09-03T00:00	11814	208	-50.0	-76.4	341	30
2023-09-03T00:00	11843	207	-50.0	-76.4	341	30
2023-09-03T00:00	11868	206	-49.7	-76.1	341	29
2023-09-03T00:00	11900	205	-49.7	-76.4	341	29
2023-09-03T00:00	11925	204	-49.6	-76.6	341	29
2023-09-03T00:00	11949	203	-49.5	-76.8	340	28
2023-09-03T00:00	11977	203	-49.6	-77.2	339	28
2023-09-03T00:00	12006	202	-49.6	-77.2	338	28
2023-09-03T00:00	12033	201	-49.6	-77.2	337	28
2023-09-03T00:00	12060	200	-49.7	-77.2	336	27
2023-09-03T00:00	12089	199	-49.9	-77.1	336	27
2023-09-03T00:00	12118	198	-49.7	-77.2	335	27
2023-09-03T00:00	12147	197	-49.7	-77.5	334	26
2023-09-03T00:00	12174	197	-49.7	-78.2	334	26
2023-09-03T00:00	12203	196	-49.6	-78.5	335	26
2023-09-03T00:00	12234	195	-49.4	-78.7	335	26
2023-09-03T00:00	12259	194	-49.2	-78.5	336	26
2023-09-03T00:00	12281	193	-49.0	-78.4	336	25
2023-09-03T00:00	12304	193	-49.0	-78.8	337	25
2023-09-03T00:00	12327	192	-48.8		336	25
2023-09-03T00:00	12348	191	-48.7	-78.6	336	24
2023-09-03T00:00	12368	191	-48.7	-78.6	336	24
2023-09-03T00:00	12388	190	-48.6	-78.5	336	23
2023-09-03T00:00	12412	190	-48.6	-78.5	336	23
2023-09-03T00:00	12434	189	-48.7	-78.6	336	22
2023-09-03T00:00	12456	188	-48.8		335	22
2023-09-03T00:00	12477	188	-48.9	-78.7	334	22
2023-09-03T00:00	12498	187	-49.1	-78.9	333	21
2023-09-03T00:00	12517	187	-49.3	-79.0	332	21
2023-09-03T00:00	12537	186	-49.3	-79.0	331	21
2023-09-03T00:00	12557	185	-49.4	-79.1	330	22
2023-09-03T00:00	12579	185	-49.4	-79.1	330	22
2023-09-03T00:00	12598	184	-49.4	-79.1	329	22
2023-09-03T00:00	12618	184	-49.4	-79.1	328	22
2023-09-03T00:00	12638	183	-49.5	-79.2	328	22
2023-09-03T00:00	12660	183	-49.6	-79.2	328	22
2023-09-03T00:00	12679	182	-49.6	-79.2	328	23
2023-09-03T00:00	12698	182	-49.6	-79.2	328	23
2023-09-03T00:00	12717	181	-49.6	-79.2	328	23
2023-09-03T00:00	12740	180	-49.8	-79.4	328	23
2023-09-03T00:00	12757	180	-49.7	-79.3	327	24
2023-09-03T00:00	12777	179	-49.7	-79.3	327	24
2023-09-03T00:00	12798	179	-49.8	-79.4	327	24
2023-09-03T00:00	12817	178	-50.0	-79.5	327	24
2023-09-03T00:00	12838	178	-50.0	-79.5	327	24
2023-09-03T00:00	12860	177	-49.9	-79.5	327	24
2023-09-03T00:00	12879	177	-49.9	-79.5	326	24
2023-09-03T00:00	12899	176	-50.1	-79.6	326	24
2023-09-03T00:00	12919	175	-50.1	-79.6	326	24
2023-09-03T00:00	12938	175	-50.1	-79.6	327	24
2023-09-03T00:00	12958	174	-49.9	-79.9	327	24
2023-09-03T00:00	12979	174	-49.9	-79.9	327	24
2023-09-03T00:00	12998	173	-49.7	-79.7	328	24
2023-09-03T00:00	13019	173	-49.6	-79.7	328	24
2023-09-03T00:00	13040	172	-49.6	-79.7	328	24
2023-09-03T00:00	13061	172	-49.5	-79.6	327	23
2023-09-03T00:00	13081	171	-49.5	-79.6	327	23
2023-09-03T00:00	13101	171	-49.5	-79.6	326	23
2023-09-03T00:00	13120	170	-49.5	-79.6	326	23
2023-09-03T00:00	13141	170	-49.6	-79.7	326	23
2023-09-03T00:00	13162	169	-49.8	-79.8	326	23
2023-09-03T00:00	13182	169	-49.8	-79.8	325	23
2023-09-03T00:00	13203	168	-49.8	-79.8	325	23
2023-09-03T00:00	13222	168	-49.8	-79.4	325	22
2023-09-03T00:00	13244	167	-50.0	-79.5	326	22
2023-09-03T00:00	13268	166	-50.1	-79.6	326	22
2023-09-03T00:00	13288	166	-49.9	-79.5	326	21
2023-09-03T00:00	13309	165	-49.9	-79.5	326	21
2023-09-03T00:00	13331	165	-49.9	-79.5	326	21
2023-09-03T00:00	13351	164	-49.9	-79.5	325	21
2023-09-03T00:00	13373	164	-50.0	-79.5	324	21
2023-09-03T00:00	13394	163	-50.1	-79.6	323	21
2023-09-03T00:00	13416	163	-50.1	-79.6	322	21
2023-09-03T00:00	13436	162	-50.1	-79.6	322	21
2023-09-03T00:00	13457	162	-50.2	-79.7	322	21
2023-09-03T00:00	13479	161	-50.3	-79.8	323	21
2023-09-03T00:00	13500	161	-50.2	-79.3	323	21
2023-09-03T00:00	13521	160	-50.2	-79.3	324	22
2023-09-03T00:00	13542	160	-50.2	-79.3	326	22
2023-09-03T00:00	13563	159	-50.3	-79.4	327	22
2023-09-03T00:00	13584	159	-50.4	-79.5	328	22
2023-09-03T00:00	13606	158	-50.5	-79.5	330	23
2023-09-03T00:00	13628	157	-50.6	-79.6	331	23
2023-09-03T00:00	13648	157	-50.5	-79.5	332	23
2023-09-03T00:00	13669	156	-50.4	-79.5	333	23
2023-09-03T00:00	13689	156	-50.5	-79.9	333	22
2023-09-03T00:00	13712	155	-50.7	-80.1	333	22
2023-09-03T00:00	13731	155	-50.7	-79.7	333	22
2023-09-03T00:00	13751	154	-50.6	-79.6	333	22
2023-09-03T00:00	13772	154	-50.8	-79.8	332	22
2023-09-03T00:00	13793	154	-50.8	-79.8	332	22
2023-09-03T00:00	13812	153	-50.9	-79.8	331	22
2023-09-03T00:00	13834	153	-51.0	-79.9	330	21
2023-09-03T00:00	13853	152	-51.1	-80.0	330	21
2023-09-03T00:00	13874	152	-51.2	-80.1	329	21
2023-09-03T00:00	13895	151	-51.3	-80.1	329	21
2023-09-03T00:00	13917	151	-51.4	-79.8	329	21
2023-09-03T00:00	13937	150	-51.3	-80.1	329	21
2023-09-03T00:00	13955	150	-51.4	-80.2	330	21
2023-09-03T00:00	13978	149	-51.4	-80.2	330	21
2023-09-03T00:00	13998	149	-51.4	-80.2	331	21
2023-09-03T00:00	14018	148	-51.4	-80.2	331	21
2023-09-03T00:00	14040	148	-51.5	-80.3	332	20
2023-09-03T00:00	14061	147	-51.5	-80.3	333	20
2023-09-03T00:00	14084	147	-51.6	-80.4	334	20
2023-09-03T00:00	14105	146	-51.8	-80.5	335	20
2023-09-03T00:00	14124	146	-51.9	-80.6	336	19
2023-09-03T00:00	14146	145	-52.0	-80.7	337	19
2023-09-03T00:00	14166	145	-51.9	-80.6	337	19
2023-09-03T00:00	14186	144	-51.9	-80.6	337	19
2023-09-03T00:00	14206	144	-52.0	-80.7	336	18
2023-09-03T00:00	14225	144	-52.0	-80.7	336	18
2023-09-03T00:00	14246	143	-52.0	-80.7	335	17
2023-09-03T00:00	14266	143	-51.7	-80.8	334	17
2023-09-03T00:00	14288	142	-51.7	-80.8	333	17
2023-09-03T00:00	14306	142	-51.5	-80.7	332	16
2023-09-03T00:00	14323	141	-51.5	-80.7	331	16
2023-09-03T00:00	14345	141	-51.7	-80.8	330	17
2023-09-03T00:00	14367	141	-51.8	-80.9	329	17
2023-09-03T00:00	14384	140	-51.9	-81.0	329	17
2023-09-03T00:00	14406	140	-51.9	-81.0	329	18
2023-09-03T00:00	14428	139	-51.9	-81.0	329	18
2023-09-03T00:00	14445	139	-52.0	-81.1	330	18
2023-09-03T00:00	14468	138	-52.1	-81.1	330	18
2023-09-03T00:00	14488	138	-52.2	-80.8	331	18
2023-09-03T00:00	14508	137	-52.2	-80.8	332	18
2023-09-03T00:00	14528	137	-52.2	-81.2	333	18
2023-09-03T00:00	14546	137	-52.2	-81.2	334	18
2023-09-03T00:00	14568	136	-52.2	-81.2	335	18
2023-09-03T00:00	14588	136	-52.3	-81.3	335	18
2023-09-03T00:00	14607	135	-52.4	-81.4	336	18
2023-09-03T00:00	14627	135	-52.4	-81.4	336	17
2023-09-03T00:00	14647	135	-52.6	-81.5	337	17
2023-09-03T00:00	14670	134	-52.7	-81.6	337	16
2023-09-03T00:00	14691	134	-52.6	-81.5	337	16
2023-09-03T00:00	14712	133	-52.7	-81.6	337	15
2023-09-03T00:00	14733	133	-52.8	-81.7	338	15
2023-09-03T00:00	14760	132	-52.6	-81.5	338	14
2023-09-03T00:00	14781	132	-52.6	-81.9	339	14
2023-09-03T00:00	14803	131	-52.5	-81.8	339	13
2023-09-03T00:00	14823	131	-52.4	-81.8	337	13
2023-09-03T00:00	14845	130	-52.5	-81.8	336	12
2023-09-03T00:00	14865	130	-52.6	-81.9	334	12
2023-09-03T00:00	14888	130	-52.7	-82.0	333	12
2023-09-03T00:00	14908	129	-52.7	-82.0	331	11
2023-09-03T00:00	14930	129	-52.6	-81.9	330	11
2023-09-03T00:00	14952	128	-52.7	-82.0	329	11
2023-09-03T00:00	14971	128	-52.8	-82.1	328	11
2023-09-03T00:00	14994	128	-53.0	-82.2	326	11
2023-09-03T00:00	15015	127	-53.2	-82.0	324	11
2023-09-03T00:00	15036	127	-53.4	-82.1	323	11
2023-09-03T00:00	15058	126	-53.5	-82.2	322	11
2023-09-03T00:00	15078	126	-53.7	-82.3	321	11
2023-09-03T00:00	15099	125	-53.7	-82.3	321	11
2023-09-03T00:00	15123	125	-53.7	-82.3	321	11
2023-09-03T00:00	15144	125	-53.6	-82.3	322	12
2023-09-03T00:00	15162	124	-53.5	-82.2	322	12
2023-09-03T00:00	15182	124	-53.4	-82.1	323	12
2023-09-03T00:00	15205	123	-53.4	-82.5	323	12
2023-09-03T00:00	15227	123	-53.4	-82.5	322	12
2023-09-03T00:00	15246	123	-53.4	-82.5	320	12
2023-09-03T00:00	15270	122	-53.4	-82.5	318	11
2023-09-03T00:00	15289	122	-53.4	-82.5	314	11
2023-09-03T00:00	15310	121	-53.5	-82.6	312	11
2023-09-03T00:00	15332	121	-53.4	-82.1	310	11
2023-09-03T00:00	15352	121	-53.5	-82.2	310	11
2023-09-03T00:00	15373	120	-53.7	-82.3	311	11
2023-09-03T00:00	15393	120	-53.8	-82.4	313	11
2023-09-03T00:00	15414	119	-53.8	-82.4	315	11
2023-09-03T00:00	15434	119	-53.8	-82.4	317	12
2023-09-03T00:00	15455	119	-53.8	-82.8	318	12
2023-09-03T00:00	15476	118	-53.7	-82.8	318	12
2023-09-03T00:00	15498	118	-53.7	-82.8	318	12
2023-09-03T00:00	15518	118	-53.5	-82.6	317	12
2023-09-03T00:00	15540	117	-53.3	-82.9	315	13
2023-09-03T00:00	15560	117	-53.3	-82.9	314	13
2023-09-03T00:00	15582	116	-53.4	-83.0	313	13
2023-09-03T00:00	15601	116	-53.6	-83.1	313	14
2023-09-03T00:00	15619	116	-53.7	-82.8	314	14
2023-09-03T00:00	15640	115	-53.8	-82.8	315	14
2023-09-03T00:00	15658	115	-53.9	-82.9	317	14
2023-09-03T00:00	15677	115	-53.8	-82.8	320	13
2023-09-03T00:00	15697	114	-53.8	-83.3	322	13
2023-09-03T00:00	15717	114	-53.3	-82.9	326	12
2023-09-03T00:00	15740	114	-53.2	-82.8	329	11
2023-09-03T00:00	15759	113	-53.2	-83.3	331	11
2023-09-03T00:00	15778	113	-53.0	-83.1	333	11
2023-09-03T00:00	15797	113	-53.0	-83.1	333	11
2023-09-03T00:00	15819	112	-53.0	-82.7	332	11
2023-09-03T00:00	15839	112	-53.0	-82.7	331	11
2023-09-03T00:00	15858	111	-53.1	-82.7	330	11
2023-09-03T00:00	15881	111	-53.3	-82.9	330	11
2023-09-03T00:00	15901	111	-53.5	-83.0	330	12
2023-09-03T00:00	15921	110	-53.6	-83.1	331	12
2023-09-03T00:00	15944	110	-53.7	-83.2	332	12
2023-09-03T00:00	15965	110	-53.9	-83.3	333	13
2023-09-03T00:00	15987	109	-54.0	-83.0	334	13
2023-09-03T00:00	16009	109	-54.0	-83.0	335	13
2023-09-03T00:00	16028	109	-54.0	-83.0	336	13
2023-09-03T00:00	16050	108	-53.9	-83.3	338	13
2023-09-03T00:00	16071	108	-53.9	-83.3	340	13
2023-09-03T00:00	16093	107	-53.9	-83.3	341	13
2023-09-03T00:00	16115	107	-54.0	-83.4	342	13
2023-09-03T00:00	16136	107	-54.1	-83.5	343	13
2023-09-03T00:00	16159	106	-53.9	-83.3	343	12
2023-09-03T00:00	16185	106	-53.8	-83.3	342	11
2023-09-03T00:00	16210	106	-53.6	-83.1	341	10
2023-09-03T00:00	16235	105	-53.6	-83.1	339	10
2023-09-03T00:00	16258	105	-53.8	-83.3	338	9
2023-09-03T00:00	16285	104	-53.9	-83.3	336	9
2023-09-03T00:00	16307	104	-54.1	-83.5	335	8
2023-09-03T00:00	16332	104	-54.1	-83.1	334	8
2023-09-03T00:00	16351	103	-54.2	-83.1	333	8
2023-09-03T00:00	16372	103	-54.1	-83.1	332	7
2023-09-03T00:00	16398	103	-54.2	-83.6	330	7
2023-09-03T00:00	16420	102	-54.1	-83.5	328	7
2023-09-03T00:00	16444	102	-54.1	-83.5	326	6
2023-09-03T00:00	16464	101	-54.0	-83.4	322	6
2023-09-03T00:00	16487	101	-54.0	-83.4	319	6
2023-09-03T00:00	16510	101	-54.1	-83.5	315	5
2023-09-03T00:00	16532	100	-54.3	-83.2	312	5
2023-09-03T00:00	16554	100	-54.4	-83.3	311	5
2023-09-03T00:00	16577	100	-54.5	-83.8	312	6
2023-09-03T00:00	16599	99	-54.6	-83.9	315	6
2023-09-03T00:00	16625	99	-54.7	-83.9	319	6
2023-09-03T00:00	16646	99	-54.6	-83.9	324	6
2023-09-03T00:00	16669	98	-54.6	-83.9	328	7
2023-09-03T00:00	16694	98	-54.2	-83.6	332	7
2023-09-03T00:00	16718	98	-54.4	-83.7	337	7
2023-09-03T00:00	16741	97	-54.5	-83.8	340	8
2023-09-03T00:00	16766	97	-54.5	-83.8	344	8
2023-09-03T00:00	16789	96	-54.5	-83.8	347	8
2023-09-03T00:00	16813	96	-54.6	-84.3	349	8
2023-09-03T00:00	16835	96	-54.7	-84.4	351	7
2023-09-03T00:00	16861	95	-54.3	-84.1	351	7
2023-09-03T00:00	16884	95	-54.0	-84.4	351	7
2023-09-03T00:00	16909	95	-53.7	-84.2	350	6
2023-09-03T00:00	16934	94	-53.9	-84.3	348	5
2023-09-03T00:00	16955	94	-54.1	-84.5	345	5
2023-09-03T00:00	16979	94	-54.2	-84.0	343	5
2023-09-03T00:00	17003	93	-54.4	-84.2	341	4
2023-09-03T00:00	17025	93	-54.5	-84.3	341	4
2023-09-03T00:00	17046	93	-54.4	-84.2	342	4
2023-09-03T00:00	17070	92	-54.1	-84.0	343	5
2023-09-03T00:00	17091	92	-54.2	-84.0	343	5
2023-09-03T00:00	17115	92	-54.2	-84.0	342	5
2023-09-03T00:00	17136	91	-54.2	-84.0	340	5
2023-09-03T00:00	17159	91	-54.3	-84.1	338	6
2023-09-03T00:00	17182	91	-54.4	-84.2	336	6
2023-09-03T00:00	17201	90	-54.5	-84.3	334	7
2023-09-03T00:00	17224	90	-54.6	-84.3	334	7
2023-09-03T00:00	17247	90	-54.6	-84.3	333	7
2023-09-03T00:00	17270	89	-54.7	-84.4	334	7
2023-09-03T00:00	17291	89	-54.8	-84.5	334	7
2023-09-03T00:00	17312	89	-54.6	-84.3	335	7
2023-09-03T00:00	17334	89	-54.6	-84.3	338	7
2023-09-03T00:00	17353	88	-54.6	-84.3	341	7
2023-09-03T00:00	17376	88	-54.5	-84.8	346	6
2023-09-03T00:00	17397	88	-54.3	-84.6	351	6
2023-09-03T00:00	17419	87	-54.2	-84.5	355	6
2023-09-03T00:00	17441	87	-54.0	-84.4	358	6
2023-09-03T00:00	17462	87	-54.0	-84.4	359	6
2023-09-03T00:00	17484	87	-54.1	-84.5	358	6
2023-09-03T00:00	17506	86	-54.2	-84.5	357	6
2023-09-03T00:00	17526	86	-54.3	-84.6	356	6
2023-09-03T00:00	17547	86	-54.3	-84.6	356	6
2023-09-03T00:00	17569	85	-54.3	-84.6	357	6
2023-09-03T00:00	17588	85	-54.0	-84.4	359	6
2023-09-03T00:00	17608	85	-53.9	-84.3	360	6
2023-09-03T00:00	17632	85	-54.1	-84.5	359	6
2023-09-03T00:00	17652	84	-53.9	-84.3	358	5
2023-09-03T00:00	17673	84	-53.7	-84.2	356	5
2023-09-03T00:00	17698	84	-53.7	-84.2	355	5
2023-09-03T00:00	17718	83	-53.8	-84.2	356	4
2023-09-03T00:00	17737	83	-53.8	-84.2	359	4
2023-09-03T00:00	17760	83	-53.5	-84.0	2	4
2023-09-03T00:00	17783	83	-53.1	-84.3	5	4
2023-09-03T00:00	17802	82	-53.2	-84.4	6	5
2023-09-03T00:00	17825	82	-53.4	-83.9	7	5
2023-09-03T00:00	17846	82	-53.5	-84.0	7	5
2023-09-03T00:00	17868	82	-53.4	-84.5	7	5
2023-09-03T00:00	17890	81	-53.2	-84.4	7	5
2023-09-03T00:00	17911	81	-53.1	-84.3	8	5
2023-09-03T00:00	17933	81	-53.0	-84.2	9	5
2023-09-03T00:00	17953	80	-53.0	-84.2	10	5
2023-09-03T00:00	17975	80	-52.8	-84.1	10	5
2023-09-03T00:00	17998	80	-52.9	-84.1	8	4
2023-09-03T00:00	18019	80	-52.8	-84.1	4	4
2023-09-03T00:00	18041	79	-52.5	-83.8	359	3
2023-09-03T00:00	18063	79	-52.0	-83.5	354	3
2023-09-03T00:00	18085	79	-52.0	-84.1	351	3
2023-09-03T00:00	18111	79	-52.1	-84.2	351	3
2023-09-03T00:00	18133	78	-52.1	-83.5	352	3
2023-09-03T00:00	18152	78	-52.0	-83.5	354	3
2023-09-03T00:00	18180	78	-52.1	-83.5	356	3
2023-09-03T00:00	18199	77	-52.3	-83.7	357	3
2023-09-03T00:00	18225	77	-52.4	-83.8	358	3
2023-09-03T00:00	18246	77	-52.4	-83.8	358	2
2023-09-03T00:00	18270	77	-52.5	-83.8	358	2
2023-09-03T00:00	18295	76	-52.8	-83.5	358	3
2023-09-03T00:00	18316	76	-52.9	-83.6	358	3
2023-09-03T00:00	18342	76	-52.9	-83.6	357	3
2023-09-03T00:00	18362	75	-53.1	-83.7	355	4
2023-09-03T00:00	18388	75	-53.2	-83.8	352	4
2023-09-03T00:00	18409	75	-53.2	-83.8	348	3
2023-09-03T00:00	18432	75	-53.1	-83.7	341	3
2023-09-03T00:00	18458	74	-53.2	-83.8	332	3
2023-09-03T00:00	18483	74	-53.4	-83.9	321	3
2023-09-03T00:00	18505	74	-53.6	-84.1	312	3
2023-09-03T00:00	18526	74	-53.7	-84.2	307	3
2023-09-03T00:00	18550	73	-53.6	-84.6	305	3
2023-09-03T00:00	18575	73	-53.4	-84.5	306	3
2023-09-03T00:00	18597	73	-53.1	-84.3	308	4
2023-09-03T00:00	18623	73	-53.3	-84.4	312	4
2023-09-03T00:00	18643	72	-53.4	-83.9	316	4
2023-09-03T00:00	18664	72	-53.6	-84.1	319	4
2023-09-03T00:00	18692	72	-53.8	-84.2	322	5
2023-09-03T00:00	18714	71	-53.9	-84.3	325	5
2023-09-03T00:00	18738	71	-54.0	-84.4	326	6
2023-09-03T00:00	18760	71	-53.8	-84.2	326	6
2023-09-03T00:00	18780	71	-53.6	-84.1	326	7
2023-09-03T00:00	18805	70	-53.5	-84.6	325	8
2023-09-03T00:00	18828	70	-53.6	-84.6	326	8
2023-09-03T00:00	18850	70	-53.8	-84.8	327	9
2023-09-03T00:00	18872	70	-53.8	-84.8	329	9
2023-09-03T00:00	18893	70	-53.7	-84.7	331	9
2023-09-03T00:00	18917	69	-53.4	-84.5	333	9
2023-09-03T00:00	18939	69	-53.5	-84.6	337	9
2023-09-03T00:00	18965	69	-53.6	-84.6	341	9
2023-09-03T00:00	18988	69	-53.7	-84.2	345	9
2023-09-03T00:00	19011	68	-53.8	-84.2	350	9
2023-09-03T00:00	19032	68	-53.9	-84.3	355	8
2023-09-03T00:00	19058	68	-54.0	-84.4	359	8
2023-09-03T00:00	19078	68	-54.0	-84.4	2	8
2023-09-03T00:00	19102	67	-54.2	-84.5	4	8
2023-09-03T00:00	19126	67	-54.2	-84.5	6	7
2023-09-03T00:00	19149	67	-54.2	-84.5	8	7
2023-09-03T00:00	19171	67	-54.1	-84.5	10	6
2023-09-03T00:00	19192	66	-54.1	-84.5	13	6
2023-09-03T00:00	19215	66	-54.1	-84.5	16	5
2023-09-03T00:00	19238	66	-54.1	-84.5	21	4
2023-09-03T00:00	19259	66	-54.2	-84.5	26	4
2023-09-03T00:00	19281	65	-54.2	-84.5	33	3
2023-09-03T00:00	19302	65	-54.2	-84.5	39	3
2023-09-03T00:00	19324	65	-54.2	-84.5	45	3
2023-09-03T00:00	19344	65	-54.2	-84.5	47	2
2023-09-03T00:00	19368	65	-54.3	-84.6	47	2
2023-09-03T00:00	19387	64	-54.3	-85.2	42	2
2023-09-03T00:00	19411	64	-53.6	-84.6	31	1
2023-09-03T00:00	19430	64	-53.6	-84.6	5	1
2023-09-03T00:00	19457	64	-53.4	-84.5	312	0
2023-09-03T00:00	19480	63	-53.6	-84.6	265	1
2023-09-03T00:00	19501	63	-53.5	-84.6	239	1
2023-09-03T00:00	19522	63	-53.6	-84.6	222	1
2023-09-03T00:00	19542	63	-53.5	-84.6	210	1
2023-09-03T00:00	19569	63	-53.5	-84.6	203	1
2023-09-03T00:00	19590	62	-53.6	-84.6	199	1
2023-09-03T00:00	19615	62	-53.5	-84.6	198	1
2023-09-03T00:00	19636	62	-53.5	-84.6	200	1
2023-09-03T00:00	19663	62	-53.5	-84.6	206	1
2023-09-03T00:00	19683	62	-53.6	-84.6	215	1
2023-09-03T00:00	19701	61	-53.5	-84.6	228	2
2023-09-03T00:00	19727	61	-53.6	-84.6	241	2
2023-09-03T00:00	19750	61	-53.7	-84.7	254	2
2023-09-03T00:00	19773	61	-53.7	-84.7	264	2
2023-09-03T00:00	19795	60	-53.8	-84.8	272	2
2023-09-03T00:00	19817	60	-53.9	-84.3	279	2
2023-09-03T00:00	19842	60	-54.1	-84.5	284	2
2023-09-03T00:00	19863	60	-54.2	-84.5	287	3
2023-09-03T00:00	19887	60	-54.2	-85.1	288	3
2023-09-03T00:00	19906	59	-54.2	-85.1	289	4
2023-09-03T00:00	19929	59	-53.7	-84.7	291	4
2023-09-03T00:00	19954	59	-53.3	-84.4	294	5
2023-09-03T00:00	19978	59	-53.2	-85.0	300	5
2023-09-03T00:00	20001	59	-52.9	-84.7	307	4
2023-09-03T00:00	20026	58	-52.9	-84.7	315	4
2023-09-03T00:00	20050	58	-53.0	-84.2	324	4
2023-09-03T00:00	20071	58	-53.0	-84.2	332	4
2023-09-03T00:00	20095	58	-53.1	-84.3	340	3
2023-09-03T00:00	20120	57	-53.2	-84.4	347	3
2023-09-03T00:00	20140	57	-53.1	-84.3	356	2
2023-09-03T00:00	20159	57	-53.1	-84.3	7	2
2023-09-03T00:00	20191	57	-53.3	-84.4	21	2
2023-09-03T00:00	20211	57	-53.3	-84.4	33	1
2023-09-03T00:00	20237	56	-53.4	-84.5	37	1
2023-09-03T00:00	20259	56	-53.6	-84.6	27	1
2023-09-03T00:00	20282	56	-53.5	-84.6	329	0
2023-09-03T00:00	20306	56	-53.4	-84.5	270	1
2023-09-03T00:00	20329	56	-53.5	-84.6	253	1
2023-09-03T00:00	20356	55	-53.6	-84.6	242	2
2023-09-03T00:00	20379	55	-53.6	-84.6	237	2
2023-09-03T00:00	20402	55	-53.5	-84.6	235	2
2023-09-03T00:00	20423	55	-53.5	-84.6	236	3
2023-09-03T00:00	20446	55	-53.6	-84.6	240	3
2023-09-03T00:00	20470	54	-53.7	-84.7	244	3
2023-09-03T00:00	20495	54	-53.5	-84.6	250	4
2023-09-03T00:00	20517	54	-53.4	-84.5	256	4
2023-09-03T00:00	20538	54	-53.5	-84.6	261	4
2023-09-03T00:00	20566	54	-53.6	-84.6	266	4
2023-09-03T00:00	20588	53	-53.6	-84.6	269	4
2023-09-03T00:00	20613	53	-53.4	-84.5	270	4
2023-09-03T00:00	20631	53	-53.2	-84.4	270	5
2023-09-03T00:00	20659	53	-53.2	-84.4	271	5
2023-09-03T00:00	20682	53	-53.3	-84.4	272	5
2023-09-03T00:00	20701	52	-53.4	-84.5	274	5
2023-09-03T00:00	20726	52	-53.4	-84.5	278	5
2023-09-03T00:00	20749	52	-53.2	-84.4	284	4
2023-09-03T00:00	20772	52	-53.2	-84.4	290	4
2023-09-03T00:00	20797	52	-53.1	-84.3	296	4
2023-09-03T00:00	20816	52	-53.1	-84.3	298	4
2023-09-03T00:00	20840	51	-53.0	-84.2	299	4
2023-09-03T00:00	20863	51	-52.8	-84.1	298	5
2023-09-03T00:00	20887	51	-52.8	-84.1	297	5
2023-09-03T00:00	20908	51	-52.9	-84.1	297	5
2023-09-03T00:00	20933	51	-53.0	-84.2	297	6
2023-09-03T00:00	20957	50	-53.1	-84.3	298	6
2023-09-03T00:00	20976	50	-53.3	-84.4	298	6
2023-09-03T00:00	21000	50	-53.4	-84.5	299	7
2023-09-03T00:00	21022	50	-53.6	-84.1	299	7
2023-09-03T00:00	21045	50	-53.8	-84.2	301	7
2023-09-03T00:00	21070	50	-53.9	-84.3	303	8
2023-09-03T00:00	21097	49	-54.1	-84.5	306	8
2023-09-03T00:00	21120	49	-54.3	-84.6	311	8
2023-09-03T00:00	21143	49	-54.3	-84.6	316	8
2023-09-03T00:00	21168	49	-54.3	-84.6	323	8
2023-09-03T00:00	21195	49	-54.2	-84.5	330	8
2023-09-03T00:00	21215	48	-53.9	-84.9	337	7
2023-09-03T00:00	21243	48	-54.0	-84.9	344	7
2023-09-03T00:00	21264	48	-54.2	-85.1	351	7
2023-09-03T00:00	21293	48	-54.3	-84.6	356	7
2023-09-03T00:00	21317	48	-54.4	-84.7	0	7
2023-09-03T00:00	21342	48	-54.5	-84.8	4	6
2023-09-03T00:00	21362	47	-54.6	-84.8	8	6
2023-09-03T00:00	21386	47	-54.8	-85.0	13	6
2023-09-03T00:00	21413	47	-54.8	-85.0	17	6
2023-09-03T00:00	21441	47	-54.8	-85.0	21	6
2023-09-03T00:00	21461	47	-54.8	-85.0	24	6
2023-09-03T00:00	21478	46	-54.9	-85.1	25	6
2023-09-03T00:00	21507	46	-55.1	-85.2	25	6
2023-09-03T00:00	21535	46	-55.1	-85.2	24	6
2023-09-03T00:00	21559	46	-55.1	-85.2	23	5
2023-09-03T00:00	21583	46	-55.1	-85.2	21	5
2023-09-03T00:00	21603	46	-55.2	-85.3	19	5
2023-09-03T00:00	21629	45	-55.1	-85.2	16	4
2023-09-03T00:00	21655	45	-55.0	-85.1	14	4
2023-09-03T00:00	21678	45	-55.0	-85.1	12	4
2023-09-03T00:00	21704	45	-55.1	-85.2	11	4
2023-09-03T00:00	21727	45	-55.1	-85.2	10	4
2023-09-03T00:00	21752	45	-55.2	-85.3	8	4
2023-09-03T00:00	21775	44	-55.3	-85.4	6	4
2023-09-03T00:00	21798	44	-55.3	-85.4	1	4
2023-09-03T00:00	21832	44	-55.3	-85.4	354	3
2023-09-03T00:00	21854	44	-55.4	-85.4	345	3
2023-09-03T00:00	21879	44	-55.4	-85.4	334	3
2023-09-03T00:00	21908	44	-55.4	-85.4	327	3
2023-09-03T00:00	21927	43	-55.2	-85.3	324	3
2023-09-03T00:00	21955	43	-55.0	-85.1	325	3
2023-09-03T00:00	21980	43	-54.8	-85.5	329	4
2023-09-03T00:00	22003	43	-54.8	-85.5	334	4
2023-09-03T00:00	22029	43	-54.8	-85.5	340	5
2023-09-03T00:00	22052	43	-54.6	-85.4	346	5
2023-09-03T00:00	22080	42	-54.4	-85.2	351	6
2023-09-03T00:00	22101	42	-54.5	-85.3	354	6
2023-09-03T00:00	22121	42	-54.4	-85.2	357	6
2023-09-03T00:00	22147	42	-54.5	-85.3	358	6
2023-09-03T00:00	22179	42	-54.5	-85.3	359	6
2023-09-03T00:00	22201	42	-54.6	-84.8	1	6
2023-09-03T00:00	22222	41	-54.7	-84.9	2	6
2023-09-03T00:00	22247	41	-54.7	-84.9	4	6
2023-09-03T00:00	22270	41	-54.7	-84.9	4	6
2023-09-03T00:00	22296	41	-54.7	-84.9	4	6
2023-09-03T00:00	22323	41	-54.7	-84.9	2	6
2023-09-03T00:00	22345	41	-54.7	-84.9	1	6
2023-09-03T00:00	22371	40	-54.7	-84.9	1	6
2023-09-03T00:00	22397	40	-54.8	-85.0	2	6
2023-09-03T00:00	22419	40	-54.9	-85.1	4	6
2023-09-03T00:00	22447	40	-55.0	-85.1	8	7
2023-09-03T00:00	22471	40	-54.9	-85.1	12	7
2023-09-03T00:00	22495	40	-54.9	-85.1	16	8
2023-09-03T00:00	22517	40	-54.8	-85.0	20	8
2023-09-03T00:00	22543	39	-54.8	-85.0	24	8
2023-09-03T00:00	22570	39	-54.8	-85.0	28	8
2023-09-03T00:00	22594	39	-54.8	-85.0	31	8
2023-09-03T00:00	22619	39	-54.9	-85.1	34	8
2023-09-03T00:00	22640	39	-55.0	-85.1	36	8
2023-09-03T00:00	22666	39	-55.1	-85.2	37	8
2023-09-03T00:00	22690	38	-54.9	-85.1	35	8
2023-09-03T00:00	22712	38	-54.9	-85.1	31	8
2023-09-03T00:00	22739	38	-55.0	-85.1	26	7
2023-09-03T00:00	22762	38	-54.7	-84.9	20	7
2023-09-03T00:00	22784	38	-54.7	-85.5	15	7
2023-09-03T00:00	22813	38	-54.9	-85.6	14	7
2023-09-03T00:00	22834	38	-54.9	-85.6	16	6
2023-09-03T00:00	22865	37	-54.9	-85.6	21	6
2023-09-03T00:00	22886	37	-54.6	-85.4	28	6
2023-09-03T00:00	22906	37	-54.7	-85.5	35	6
2023-09-03T00:00	22932	37	-54.7	-85.5	41	6
2023-09-03T00:00	22958	37	-54.8	-85.5	46	6
2023-09-03T00:00	22984	37	-54.8	-85.5	50	5
2023-09-03T00:00	23011	37	-54.6	-85.4	52	5
2023-09-03T00:00	23036	36	-54.6	-85.4	52	5
2023-09-03T00:00	23064	36	-54.5	-85.3	51	5
2023-09-03T00:00	23084	36	-54.6	-85.4	50	4
2023-09-03T00:00	23110	36	-54.6	-85.4	49	4
2023-09-03T00:00	23133	36	-54.5	-85.3	46	4
2023-09-03T00:00	23158	36	-54.5	-85.3	43	4
2023-09-03T00:00	23181	36	-54.4	-85.2	37	4
2023-09-03T00:00	23211	35	-54.4	-85.2	31	4
2023-09-03T00:00	23231	35	-54.5	-85.3	25	4
2023-09-03T00:00	23264	35	-54.6	-85.4	23	4
2023-09-03T00:00	23282	35	-54.4	-85.2	25	5
2023-09-03T00:00	23308	35	-54.0	-84.9	29	5
2023-09-03T00:00	23333	35	-53.9	-85.5	35	5
2023-09-03T00:00	23357	35	-53.7	-85.3	40	5
2023-09-03T00:00	23382	35	-53.7	-85.3	44	5
2023-09-03T00:00	23413	34	-53.8	-85.4	46	5
2023-09-03T00:00	23432	34	-53.7	-85.3	46	4
2023-09-03T00:00	23457	34	-53.5	-85.2	43	4
2023-09-03T00:00	23481	34	-53.5	-85.2	38	3
2023-09-03T00:00	23510	34	-53.5	-85.2	29	3
2023-09-03T00:00	23529	34	-53.4	-85.1	16	3
2023-09-03T00:00	23555	34	-53.4	-85.1	1	3
2023-09-03T00:00	23578	34	-53.3	-85.0	350	4
2023-09-03T00:00	23603	33	-53.1	-84.9	343	5
2023-09-03T00:00	23622	33	-52.8	-84.7	340	6
2023-09-03T00:00	23648	33	-52.7	-84.6	339	6
2023-09-03T00:00	23678	33	-52.8	-84.7	339	7
2023-09-03T00:00	23699	33	-52.8	-84.7	341	8
2023-09-03T00:00	23719	33	-52.7	-84.6	345	8
2023-09-03T00:00	23744	33	-52.9	-84.7	349	8
2023-09-03T00:00	23769	33	-52.6	-84.5	355	8
2023-09-03T00:00	23793	32	-52.2	-84.2	2	7
2023-09-03T00:00	23819	32	-52.1	-84.2	8	7
2023-09-03T00:00	23838	32	-52.2	-84.2	15	6
2023-09-03T00:00	23869	32	-52.1	-84.2	22	6
2023-09-03T00:00	23891	32	-52.1	-84.2	28	6
2023-09-03T00:00	23916	32	-52.2	-84.2	35	5
2023-09-03T00:00	23943	32	-52.3	-84.3	42	5
2023-09-03T00:00	23967	32	-52.4	-84.4	48	4
2023-09-03T00:00	23993	31	-52.5	-84.4	51	4
2023-09-03T00:00	24027	31	-52.1	-84.2	53	3
2023-09-03T00:00	24046	31	-51.8	-84.6	49	2
2023-09-03T00:00	24073	31	-51.6	-84.5	36	2
2023-09-03T00:00	24100	31	-51.5	-84.4	9	1
2023-09-03T00:00	24122	31	-51.4	-84.3	342	2
2023-09-03T00:00	24148	31	-51.5	-84.4	330	2
2023-09-03T00:00	24180	31	-51.3	-84.3	329	3
2023-09-03T00:00	24204	30	-51.2	-84.2	332	4
2023-09-03T00:00	24233	30	-51.0	-84.0	337	4
2023-09-03T00:00	24256	30	-51.0	-84.0	342	5
2023-09-03T00:00	24280	30	-51.0	-84.0	346	6
2023-09-03T00:00	24306	30	-51.0	-84.0	350	7
2023-09-03T00:00	24337	30	-50.9	-84.0	352	7
2023-09-03T00:00	24366	30	-50.8	-83.9	353	8
2023-09-03T00:00	24390	30	-50.6	-83.7	354	9
2023-09-03T00:00	24417	29	-50.7	-83.8	353	10
2023-09-03T00:00	24448	29	-50.8	-83.9	352	10
2023-09-03T00:00	24473	29	-50.6	-83.7	352	10
2023-09-03T00:00	24498	29	-50.4	-83.6	351	10
2023-09-03T00:00	24535	29	-50.1	-83.4	351	9
2023-09-03T00:00	24561	29	-50.0	-83.3	351	8
2023-09-03T00:00	24574	29	-50.0	-83.3	352	7
2023-09-03T00:00	24605	29	-49.9	-83.2	355	6
2023-09-03T00:00	24631	28	-50.1	-83.4	357	6
2023-09-03T00:00	24663	28	-50.2	-83.5	0	5
2023-09-03T00:00	24686	28	-50.2	-83.5	2	4
2023-09-03T00:00	24710	28	-50.1	-83.4	1	4
2023-09-03T00:00	24739	28	-50.0	-83.3	359	4
2023-09-03T00:00	24768	28	-50.1	-83.4	357	5
2023-09-03T00:00	24791	28	-50.2	-83.5	354	5
2023-09-03T00:00	24822	28	-50.3	-83.5	353	5
2023-09-03T00:00	24849	28	-50.3	-83.5	354	5
2023-09-03T00:00	24867	27	-50.4	-83.6	355	4
2023-09-03T00:00	24897	27	-50.3	-83.5	357	4
2023-09-03T00:00	24921	27	-50.2	-83.5	359	4
2023-09-03T00:00	24957	27	-50.2	-83.5	359	4
2023-09-03T00:00	24979	27	-50.3	-83.5	358	3
2023-09-03T00:00	25004	27	-50.2	-83.5	356	3
2023-09-03T00:00	25028	27	-50.1	-83.4	353	4
2023-09-03T00:00	25055	27	-50.2	-83.5	352	4
2023-09-03T00:00	25082	27	-49.9	-83.2	352	4
2023-09-03T00:00	25108	26	-49.9	-83.2	352	5
2023-09-03T00:00	25134	26	-49.8	-84.0	351	6
2023-09-03T00:00	25150	26	-49.5	-83.7	351	7
2023-09-03T00:00	25180	26	-49.4	-83.7	350	7
2023-09-03T00:00	25211	26	-49.4	-83.7	350	8
2023-09-03T00:00	25231	26	-49.4	-83.7	349	8
2023-09-03T00:00	25253	26	-49.5	-82.9	349	9
2023-09-03T00:00	25282	26	-49.6	-83.0	349	9
2023-09-03T00:00	25307	26	-49.8	-83.2	350	9
2023-09-03T00:00	25334	26	-49.9	-83.2	350	8
2023-09-03T00:00	25358	25	-49.9	-83.2	352	8
2023-09-03T00:00	25384	25	-49.7	-83.1	354	7
2023-09-03T00:00	25404	25	-49.6	-83.0	356	7
2023-09-03T00:00	25429	25	-49.6	-83.0	359	6
2023-09-03T00:00	25459	25	-49.6	-83.0	0	6
2023-09-03T00:00	25487	25	-49.7	-83.9	360	6
2023-09-03T00:00	25508	25	-49.6	-83.8	357	6
2023-09-03T00:00	25533	25	-49.5	-83.7	354	7
2023-09-03T00:00	25560	25	-49.5	-82.9	352	7
2023-09-03T00:00	25593	25	-49.7	-83.1	352	7
2023-09-03T00:00	25614	25	-49.7	-83.1	354	8
2023-09-03T00:00	25646	24	-49.6	-83.8	358	8
2023-09-03T00:00	25657	24	-49.4	-83.7	4	7
2023-09-03T00:00	25690	24	-49.3	-83.6	10	7
2023-09-03T00:00	25710	24	-49.3	-83.6	18	7
2023-09-03T00:00	25734	24	-49.4	-83.7	25	7
2023-09-03T00:00	25762	24	-49.5	-83.7	31	7
2023-09-03T00:00	25790	24	-49.6	-83.8	35	7
2023-09-03T00:00	25815	24	-49.7	-83.9	37	8
2023-09-03T00:00	25840	24	-49.4	-83.7	38	8
2023-09-03T00:00	25871	24	-49.3	-83.6	36	8
2023-09-03T00:00	25896	23	-49.3	-83.6	35	9
2023-09-03T00:00	25919	23	-49.4	-83.7	33	9
2023-09-03T00:00	25947	23	-49.6	-83.8	31	10
2023-09-03T00:00	25964	23	-49.6	-83.0	30	10
2023-09-03T00:00	26000	23	-49.7	-83.1	29	10
2023-09-03T00:00	26024	23	-49.9	-83.2	29	10
2023-09-03T00:00	26053	23	-49.9	-83.2	31	10
2023-09-03T00:00	26083	23	-49.7	-83.9	34	10
2023-09-03T00:00	26111	23	-49.7	-83.9	38	10
2023-09-03T00:00	26149	23	-49.6	-83.8	42	9
2023-09-03T00:00	26170	23	-49.5	-83.7	48	8
2023-09-03T00:00	26195	22	-49.4	-83.7	54	8
2023-09-03T00:00	26218	22	-49.4	-83.7	61	7
2023-09-03T00:00	26250	22	-49.5	-83.7	68	7
2023-09-03T00:00	26285	22	-49.5	-83.7	74	7
2023-09-03T00:00	26302	22	-49.5	-83.7	78	7
2023-09-03T00:00	26334	22	-49.6	-83.8	79	7
2023-09-03T00:00	26360	22	-49.6	-83.8	76	7
2023-09-03T00:00	26390	22	-49.3	-83.6	72	7
2023-09-03T00:00	26420	22	-49.3	-83.6	67	8
2023-09-03T00:00	26445	22	-49.4	-83.7	63	8
2023-09-03T00:00	26464	22	-49.5	-83.7	61	8
2023-09-03T00:00	26497	21	-49.6	-83.8	61	8
2023-09-03T00:00	26521	21	-49.6	-83.8	64	8
2023-09-03T00:00	26546	21	-49.4	-83.7	69	8
2023-09-03T00:00	26574	21	-49.1	-83.4	75	8
2023-09-03T00:00	26596	21	-49.1	-83.4	82	7
2023-09-03T00:00	26636	21	-49.2	-83.5	90	7
2023-09-03T00:00	26662	21	-49.4	-83.7	98	7
2023-09-03T00:00	26691	21	-49.6	-83.8	107	7
2023-09-03T00:00	26719	21	-49.8	-83.2	115	7
2023-09-03T00:00	26740	21	-49.9	-83.2	122	7
2023-09-03T00:00	26768	21	-50.1	-83.4	126	7
2023-09-03T00:00	26791	20	-50.0	-83.3	128	7
2023-09-03T00:00	26823	20	-50.0	-84.1	129	6
2023-09-03T00:00	26850	20	-49.8	-84.0	127	6
2023-09-03T00:00	26867	20	-49.7	-83.9	125	6
2023-09-03T00:00	26894	20	-49.7	-83.9	124	5
2023-09-03T00:00	26917	20	-49.6	-83.8	125	5
2023-09-03T00:00	26948	20	-49.5	-83.7	126	5
2023-09-03T00:00	26969	20	-49.5	-83.7	128	5
2023-09-03T00:00	26999	20	-49.4	-83.7	130	5
2023-09-03T00:00	27021	20	-49.4	-83.7	132	4
2023-09-03T00:00	27045	20	-49.6	-83.8	132	4
2023-09-03T00:00	27087	20	-49.8	-84.0	132	4
2023-09-03T00:00	27111	20	-50.0	-83.3	132	4
2023-09-03T00:00	27134	19	-50.1	-83.4	134	3
2023-09-03T00:00	27163	19	-50.3	-83.5	139	3
2023-09-03T00:00	27182	19	-50.4	-83.6	148	3
2023-09-03T00:00	27220	19	-50.4	-83.6	159	4
2023-09-03T00:00	27248	19	-50.1	-83.4	169	4
2023-09-03T00:00	27279	19	-50.1	-83.4	176	4
2023-09-03T00:00	27297	19	-50.1	-83.4	182	5
2023-09-03T00:00	27327	19	-50.3	-83.5	186	6
2023-09-03T00:00	27357	19	-50.5	-83.7	189	6
2023-09-03T00:00	27389	19	-50.7	-83.8	192	6
2023-09-03T00:00	27411	19	-50.8	-83.9	194	6
2023-09-03T00:00	27439	19	-51.0	-84.0	196	6
2023-09-03T00:00	27471	18	-51.1	-84.1	198	5
2023-09-03T00:00	27507	18	-50.9	-84.0	199	4
2023-09-03T00:00	27535	18	-50.7	-83.8	198	3
2023-09-03T00:00	27560	18	-50.5	-84.5	195	2
2023-09-03T00:00	27587	18	-50.2	-84.2	188	1
2023-09-03T00:00	27621	18	-50.2	-84.2	176	1
2023-09-03T00:00	27645	18	-50.1	-84.2	168	1
2023-09-03T00:00	27679	18	-50.0	-84.1	187	1
2023-09-03T00:00	27711	18	-49.9	-84.0	216	1
2023-09-03T00:00	27732	18	-49.7	-83.9	229	1
2023-09-03T00:00	27756	18	-49.6	-83.8	236	2
2023-09-03T00:00	27777	18	-49.6	-83.8	243	2
2023-09-03T00:00	27816	18	-49.7	-83.9	250	3
2023-09-03T00:00	27840	17	-49.7	-83.9	259	3
2023-09-03T00:00	27871	17	-49.5	-83.7	269	3
2023-09-03T00:00	27890	17	-49.2	-83.5	277	3
2023-09-03T00:00	27928	17	-49.0	-83.4	283	3
2023-09-03T00:00	27955	17	-49.0	-83.4	288	4
2023-09-03T00:00	27985	17	-49.1	-83.4	294	4
2023-09-03T00:00	28019	17	-49.1	-83.4	301	4
2023-09-03T00:00	28035	17	-49.1	-84.3	307	5
2023-09-03T00:00	28062	17	-48.9	-84.2	314	5
2023-09-03T00:00	28091	17	-48.3	-83.8	320	6
2023-09-03T00:00	28117	17	-47.9	-83.5	325	6
2023-09-03T00:00	28145	17	-47.7	-83.4	331	6
2023-09-03T00:00	28186	17	-47.6	-83.3	338	6
2023-09-03T00:00	28200	17	-47.5	-83.2	346	6
2023-09-03T00:00	28227	16	-47.7	-83.4	354	6
2023-09-03T00:00	28264	16	-47.8	-83.4	3	7
2023-09-03T00:00	28293	16	-47.7	-83.4	10	7
2023-09-03T00:00	28325	16	-47.7	-83.4	17	8
2023-09-03T00:00	28352	16	-47.7	-83.4	23	8
2023-09-03T00:00	28372	16	-48.0	-83.6	28	9
2023-09-03T00:00	28398	16	-47.9	-83.5	32	10
2023-09-03T00:00	28413	16	-47.8	-83.4	36	11
2023-09-03T00:00	28447	16	-47.6	-83.3	39	11
2023-09-03T00:00	28464	16	-47.4	-83.1	41	12
2023-09-03T00:00	28503	16	-47.4	-83.1	42	12
2023-09-03T00:00	28533	16	-47.4	-83.1	44	12
2023-09-03T00:00	28553	16	-47.3	-83.1	46	12
2023-09-03T00:00	28586	16	-47.2	-83.0	49	12
2023-09-03T00:00	28609	16	-47.2	-83.0	52	11
2023-09-03T00:00	28632	15	-47.2	-83.0	55	10
2023-09-03T00:00	28666	15	-47.0	-82.9	58	10
2023-09-03T00:00	28708	15	-47.0	-82.9	60	9
2023-09-03T00:00	28725	15	-47.1	-82.9	61	8
2023-09-03T00:00	28757	15	-46.9	-82.8	61	7
2023-09-03T00:00	28777	15	-46.6	-82.6	61	6
2023-09-03T00:00	28806	15	-46.4	-82.4	59	6
2023-09-03T00:00	28826	15	-46.5	-82.5	56	5
2023-09-03T00:00	28857	15	-46.7	-82.6	54	5
2023-09-03T00:00	28885	15	-47.0	-82.9	52	5
2023-09-03T00:00	28918	15	-47.2	-83.0	50	4
2023-09-03T00:00	28935	15	-47.4	-82.2	46	4
2023-09-03T00:00	28978	15	-47.7	-82.4	41	4
2023-09-03T00:00	29003	15	-47.9	-82.6	34	4
2023-09-03T00:00	29037	15	-48.1	-82.7	28	4
2023-09-03T00:00	29060	15	-48.1	-82.7	24	5
2023-09-03T00:00	29106	14	-48.2	-82.8	24	5
2023-09-03T00:00	29125	14	-48.3	-82.9	25	6
2023-09-03T00:00	29157	14	-48.3	-82.9	28	7
2023-09-03T00:00	29191	14	-48.3	-82.9	33	7
2023-09-03T00:00	29222	14	-48.3	-82.9	38	7
2023-09-03T00:00	29257	14	-48.5	-83.0	44	8
2023-09-03T00:00	29270	14	-48.5	-83.0	50	8
2023-09-03T00:00	29309	14	-48.4	-83.8	55	8
2023-09-03T00:00	29340	14	-48.3	-83.8	58	8
2023-09-03T00:00	29366	14	-48.2	-83.7	59	8
2023-09-03T00:00	29395	14	-48.2	-83.7	59	8
2023-09-03T00:00	29419	14	-48.1	-83.6	59	7
2023-09-03T00:00	29451	14	-48.1	-83.6	57	7
2023-09-03T00:00	29482	14	-48.2	-83.7	55	6
2023-09-03T00:00	29525	14	-48.2	-83.7	52	6
2023-09-03T00:00	29558	13	-48.0	-83.6	48	5
2023-09-03T00:00	29583	13	-48.0	-83.6	41	5
2023-09-03T00:00	29615	13	-48.0	-83.6	34	5
2023-09-03T00:00	29647	13	-48.0	-83.6	27	5
2023-09-03T00:00	29670	13	-48.0	-83.6	23	6
2023-09-03T00:00	29704	13	-48.1	-83.6	21	6
2023-09-03T00:00	29726	13	-48.1	-83.6	20	5
2023-09-03T00:00	29739	13	-48.2	-83.7	21	5
2023-09-03T00:00	29777	13	-48.0	-83.6	24	5
2023-09-03T00:00	29808	13	-48.0	-83.6	30	4
2023-09-03T00:00	29843	13	-48.1	-83.6	38	3
2023-09-03T00:00	29857	13	-48.2	-83.7	50	3
2023-09-03T00:00	29892	13	-48.4	-83.8	61	2
2023-09-03T00:00	29917	13	-48.5	-83.9	71	2
2023-09-03T00:00	29942	13	-48.3	-83.8	75	2
2023-09-03T00:00	29983	13	-48.1	-83.6	74	2
2023-09-03T00:00	30008	13	-47.9	-83.5	67	2
2023-09-03T00:00	30039	13	-47.8	-83.4	57	1
2023-09-03T00:00	30053	12	-47.9	-83.5	47	1
2023-09-03T00:00	30093	12	-48.1	-83.6	39	2
2023-09-03T00:00	30117	12	-48.2	-83.7	35	2
2023-09-03T00:00	30143	12	-48.3	-83.8	34	2
2023-09-03T00:00	30163	12	-48.5	-83.9	36	2
2023-09-03T00:00	30197	12	-48.4	-83.8	37	3
2023-09-03T00:00	30214	12	-48.4	-83.8	38	3
2023-09-03T00:00	30250	12	-48.3	-83.8	35	3
2023-09-03T00:00	30271	12	-48.1	-83.6	29	3
2023-09-03T00:00	30299	12	-47.8	-83.4	21	3
2023-09-03T00:00	30326	12	-47.8	-83.4	13	3
2023-09-03T00:00	30361	12	-47.3	-83.1	7	4
2023-09-03T00:00	30382	12	-47.3	-84.1	6	5
2023-09-03T00:00	30393	12	-47.3	-84.1	6	5
2023-09-03T00:00	30431	12	-46.9	-83.9	8	6
2023-09-03T00:00	30465	12	-46.2	-83.4	11	6
2023-09-03T00:00	30495	12	-45.5	-82.9	16	7
2023-09-03T00:00	30506	12	-45.0	-82.5	21	7
2023-09-03T00:00	30531	12	-44.9	-82.5	27	7
2023-09-03T00:00	30580	12	-45.0	-82.5	34	7
2023-09-03T00:00	30599	12	-44.7	-82.3	40	7
2023-09-03T00:00	30637	11	-44.3	-82.0	44	7
2023-09-03T00:00	30638	11	-44.2	-82.0	49	7
2023-09-03T00:00	30689	11	-44.1	-81.9	53	7
2023-09-03T00:00	30719	11	-43.9	-81.8	60	6
2023-09-03T00:00	30735	11	-43.9	-81.8	68	6
2023-09-03T00:00	30775	11	-43.9	-81.8	78	6
2023-09-03T00:00	30805	11	-44.0	-81.8	89	5
2023-09-03T00:00	30827	11	-44.1	-81.9	100	5
2023-09-03T00:00	30859	11	-44.2	-82.0	110	5
2023-09-03T00:00	30893	11	-44.3	-82.0	118	5
2023-09-03T00:00	30905	11	-44.3	-82.0	125	4
2023-09-03T00:00	30946	11	-44.1	-81.9	128	3
2023-09-03T00:00	30976	11	-44.0	-81.8	126	3
2023-09-03T00:00	31009	11	-43.9	-81.8	117	2
2023-09-03T00:00	31023	11	-44.0	-81.8	98	2
2023-09-03T00:00	31053	11	-44.0	-81.8	67	1
2023-09-03T00:00	31085	11	-43.9	-81.8	33	2
2023-09-03T00:00	31123	11	-44.0	-81.8	9	2
2023-09-03T00:00	31136	11	-44.1	-81.9	356	3
2023-09-03T00:00	31183	11	-44.2	-82.0	350	4
2023-09-03T00:00	31206	11	-44.3	-82.0	348	5
2023-09-03T00:00	31247	10	-44.3	-82.0	349	6
2023-09-03T00:00	31255	10	-43.9	-81.8	352	6
2023-09-03T00:00	31296	10	-43.6	-81.5	356	7
2023-09-03T00:00	31323	10	-43.5	-81.5	1	7
2023-09-03T00:00	31336	10	-43.4	-81.4	6	8
2023-09-03T00:00	31373	10	-43.1	-81.2	11	8
2023-09-03T00:00	31396	10	-42.9	-81.1	16	8
2023-09-03T00:00	31439	10	-42.7	-80.9	20	8
2023-09-03T00:00	31470	10	-42.5	-80.8	23	8
2023-09-03T00:00	31473	10	-42.4	-80.7	26	8
2023-09-03T00:00	31506	10	-42.4	-80.7	28	8
2023-09-03T00:00	31543	10	-42.5	-80.8	29	8
2023-09-03T00:00	31573	10	-42.6	-80.8	29	7
2023-09-03T00:00	31597	10	-42.5	-80.8	30	7
2023-09-03T00:00	31620	10	-42.4	-80.7	30	6
2023-09-03T00:00	31649	10	-42.4	-80.7	32	6
2023-09-03T00:00	31669	10	-42.5	-80.8	36	6
2023-09-03T00:00	31707	10	-42.5	-80.8	41	6
2023-09-03T00:00	31731	10	-42.6	-80.8	47	6
2023-09-03T00:00	31745	10	-42.8	-81.0	54	6
2023-09-03T00:00	31779	10	-43.0	-81.1	60	6
2023-09-03T00:00	31811	10	-43.1	-81.2	65	6
2023-09-03T00:00	31828	10	-43.2	-81.3	69	6
2023-09-03T00:00	31881	10	-43.3	-81.3	72	6
2023-09-03T00:00	31897	9	-43.3	-81.3	73	5
2023-09-03T00:00	31928	9	-43.5	-81.5	71	4
2023-09-03T00:00	31967	9	-43.6	-81.5	65	3
2023-09-03T00:00	31971	9	-43.6	-81.5	54	3
2023-09-03T00:00	32019	9	-43.4	-81.4	36	2
2023-09-03T00:00	32051	9	-43.5	-81.5	15	2
2023-09-03T00:00	32065	9	-43.6	-81.5	1	2
2023-09-03T00:00	32120	9	-43.4	-81.4	356	3
2023-09-03T00:00	32155	9	-43.7	-81.6	358	3
2023-09-03T00:00	32163	9	-43.6	-81.5	3	3
2023-09-03T00:00	32216	9	-43.6	-81.5	10	3
2023-09-03T00:00	32252	9	-43.5	-81.5	19	3
2023-09-03T00:00	32281	9	-43.1	-81.2	29	3
2023-09-03T00:00	32319	9	-43.1	-81.2	41	3
2023-09-03T00:00	32324	9	-43.2	-81.3	52	4
2023-09-03T00:00	32359	9	-42.9	-81.1	63	4
2023-09-03T00:00	32402	9	-42.7	-80.9	73	4
2023-09-03T00:00	32410	9	-42.4	-80.7	84	4
2023-09-03T00:00	32456	9	-42.3	-80.6	96	4
2023-09-03T00:00	32496	9	-42.4	-80.7	106	4
2023-09-03T00:00	32531	9	-42.6	-80.8	115	4
2023-09-03T00:00	32568	9	-42.8	-81.0	121	4
2023-09-03T00:00	32607	9	-43.0	-81.1	127	4
2023-09-03T00:00	32617	9	-43.2	-81.3	132	4
2023-09-03T00:00	32643	9	-43.5	-81.5	137	5
2023-09-03T00:00	32691	8	-43.7	-81.6	142	5
2023-09-03T00:00	32699	8	-43.9	-81.8	147	6
2023-09-03T00:00	32720	8	-44.3	-82.0	152	6
2023-09-03T00:00	32763	8	-44.4	-82.1	157	6
2023-09-03T00:00	32784	8	-44.7	-82.3	162	7
2023-09-03T00:00	32820	8	-44.9	-82.5	168	7
2023-09-03T00:00	32840	8	-45.1	-82.6	173	8
2023-09-03T00:00	32878	8	-45.2	-82.7	178	8
2023-09-03T00:00	32903	8	-45.1	-82.6	181	8
2023-09-03T00:00	32947	8	-44.8	-82.4	184	8
2023-09-03T00:00	32949	8	-44.8	-82.4	187	8
2023-09-03T00:00	32981	8	-44.8	-82.4	192	7
2023-09-03T00:00	33018	8	-44.5	-82.2	197	7
2023-09-03T00:00	33043	8	-44.4	-82.1	204	6
2023-09-03T00:00	33056	8	-43.8	-81.7	210	6
2023-09-03T00:00	33084	8	-43.5	-81.5	216	6
2023-09-03T00:00	33122	8	-43.5	-81.5	220	6
2023-09-03T00:00	33156	8	-43.3	-81.3	225	5
2023-09-03T00:00	33189	8	-43.4	-81.4	231	5
2023-09-03T00:00	33232	8	-43.4	-81.4	246	4
2023-09-03T00:00	33252	8	-43.3	-81.3	254	4
2023-09-03T00:00	33279	8	-43.3	-81.3	263	4
2023-09-03T00:00	33318	8	-43.4	-81.4	271	4
2023-09-03T00:00	33327	8	-43.4	-81.4	280	4
2023-09-03T00:00	33361	8	-43.4	-81.4	287	4
2023-09-03T00:00	33367	8	-43.3	-81.3	294	4
2023-09-03T00:00	33393	8	-43.4	-81.4	298	5
2023-09-03T00:00	33415	8	-43.4	-81.4	301	5
2023-09-03T00:00	33438	8	-43.5	-81.5	304	5
2023-09-03T00:00	33487	8	-43.3	-81.3	306	5
2023-09-03T00:00	33507	7	-43.2	-81.3	308	5
2023-09-03T00:00	33523	7	-43.2	-81.3	311	4
2023-09-03T00:00	33540	7	-43.1	-81.2	313	4
2023-09-03T00:00	33573	7	-43.0	-81.1	316	4
2023-09-03T00:00	33598	7	-43.1	-81.2	318	4
2023-09-03T00:00	33621	7	-43.1	-81.2	319	3
2023-09-03T00:00	33670	7	-43.1	-81.2	320	3
2023-09-03T00:00	33676	7	-43.1	-81.2	320	2
2023-09-03T00:00	33710	7	-43.1	-81.2	320	2
2023-09-03T00:00	33731	7	-43.0	-81.1	329	1
2023-09-03T00:00	33779	7	-43.0	-81.1	359	1
2023-09-03T00:00	33799	7	-42.9	-81.1	36	1
2023-09-03T00:00	33823	7	-42.5	-80.8	50	2
2023-09-03T00:00	33858	7	-42.2	-80.6	55	2
2023-09-03T00:00	33887	7	-42.1	-80.5	59	3
2023-09-03T00:00	33905	7	-42.0	-80.4	62	3
2023-09-03T00:00	33946	7	-41.7	-80.2	65	3
2023-09-03T00:00	33974	7	-41.5	-80.1	66	3
2023-09-03T00:00	33996	7	-41.3	-79.9	66	4
2023-09-03T00:00	33997	7	-41.1	-79.8	65	4
2023-09-03T00:00	34024	7	-41.1	-79.8	65	4
2023-09-03T00:00	34063	7	-40.7	-79.5	65	5
2023-09-03T00:00	34072	7	-40.4	-79.3	67	6
2023-09-03T00:00	34106	7	-40.5	-79.4	70	6
2023-09-03T00:00	34139	7	-40.6	-79.5	72	7
2023-09-03T00:00	34171	7	-40.7	-79.5	73	7
2023-09-03T00:00	34215	7	-40.6	-79.5	73	7
2023-09-03T00:00	34216	7	-40.6	-79.5	72	8
2023-09-03T00:00	34269	7	-40.6	-79.5	69	7
2023-09-03T00:00	34274	7	-40.5	-79.4	65	7
2023-09-03T00:00	34318	7	-40.5	-79.4	60	7
2023-09-03T00:00	34342	7	-40.4	-79.3	55	7
2023-09-03T00:00	34368	7	-40.5	-79.4	52	7
2023-09-03T00:00	34405	7	-40.5	-79.4	50	7
2023-09-03T00:00	34462	7	-40.2	-79.2	50	7
2023-09-03T00:00	34465	7	-39.8	-78.9	51	8
2023-09-03T00:00	34502	6	-39.6	-78.8	52	8
2023-09-03T00:00	34532	6	-39.7	-78.8	54	9
2023-09-03T00:00	34565	6	-39.7	-78.8	56	10
2023-09-03T00:00	34595	6	-39.7	-78.8	61	10
2023-09-03T00:00	34625	6	-39.6	-78.8	64	10
2023-09-03T00:00	34648	6	-39.6	-78.8	67	10
2023-09-03T00:00	34686	6	-39.6	-78.8	70	10
2023-09-03T00:00	34702	6	-39.7	-78.8	74	10
2023-09-03T00:00	34746	6	-39.7	-78.8	77	10
2023-09-03T00:00	34757	6	-39.9	-79.0	81	11
2023-09-03T00:00	34785	6	-40.0	-79.0	84	11
2023-09-03T00:00	34820	6	-40.1	-79.1	86	11
2023-09-03T00:00	34829	6	-40.1	-79.1	88	11
2023-09-03T00:00	34862	6	-40.2	-79.2	90	11
2023-09-03T00:00	34873	6	-40.3	-79.2	90	11
2023-09-03T00:00	34930	6	-40.1	-79.1	88	10
2023-09-03T00:00	34963	6	-39.8	-78.9	86	9
2023-09-03T00:00	34965	6	-39.7	-78.8	84	9
2023-09-03T00:00	35001	6	-39.6	-78.8	81	8
2023-09-03T00:00	35016	6	-39.3	-78.5	74	8
2023-09-03T00:00	35076	6	-39.4	-78.6	70	7
2023-09-03T00:00	35079	6	-39.6	-78.8	63	7
2023-09-03T00:00	35118	6	-39.6	-78.8	61	7
2023-09-03T00:00	35167	6	-39.6	-78.8	58	7
2023-09-03T00:00	35182	6	-39.7	-78.8	56	7
2023-09-03T00:00	35184	6	-39.6	-78.8	54	7
2023-09-03T00:00	35209	6	-39.8	-78.9	52	7
2023-09-03T00:00	35252	6	-39.9	-79.0	51	7
2023-09-03T00:00	35278	6	-40.0	-79.0	51	7
2023-09-03T00:00	35303	6	-39.9	-79.0	52	7
2023-09-03T00:00	35304	6	-39.8	-78.9	54	7
2023-09-03T00:00	35327	6	-39.9	-79.0	56	7
2023-09-03T00:00	35381	6	-39.9	-79.0	59	7
2023-09-03T00:00	35410	6	-39.7	-78.8	63	7
2023-09-03T00:00	35429	6	-39.5	-78.7	66	7
2023-09-03T00:00	35451	6	-39.5	-78.7	68	7
2023-09-03T00:00	35514	6	-39.3	-78.5	73	6
2023-09-03T00:00	35533	6	-39.1	-78.4	77	6
2023-09-03T00:00	35550	6	-39.0	-78.3	81	6
2023-09-03T00:00	35591	6	-39.0	-78.3	85	5
2023-09-03T00:00	35603	6	-39.0	-78.3	89	5
2023-09-03T00:00	35636	5	-39.2	-78.5	92	5
2023-09-03T00:00	35688	5	-39.2	-78.5	92	5
2023-09-03T00:00	35708	5	-38.9	-78.3	84	3
2023-09-03T00:00	35714	5	-38.5	-78.0	74	3
2023-09-03T00:00	35731	5	-37.2	-77.1	33	2
2023-09-03T00:00	35804	5	-36.8	-76.8	13	3
2023-09-03T00:00	35846	5	-35.8	-76.1	354	6
2023-09-03T00:00	35861	5	-35.8	-76.1	354	7
2023-09-03T00:00	35870	5	-35.8	-76.1	355	7
2023-09-03T00:00	35936	5	-35.9	-76.2	354	8
2023-09-03T00:00	35999	5	-35.7	-76.1	350	10
2023-09-03T00:00	36006	5	-35.8	-76.1	348	10
2023-09-03T00:00	36044	5	-35.9	-76.2	346	11
2023-09-03T00:00	36079	5	-35.9	-76.2	345	11
2023-09-03T00:00	36117	5	-35.6	-76.0	345	12
2023-09-03T00:00	36148	5	-35.4	-75.8	346	12
2023-09-03T00:00	36159	5	-35.4	-75.8	346	13
2023-09-03T00:00	36213	5	-35.4	-75.8	346	13
2023-09-03T00:00	36227	5	-35.2	-75.7	346	12
2023-09-03T00:00	36298	5	-35.0	-75.6	345	12
2023-09-03T00:00	36306	5	-34.9	-75.5	345	11
2023-09-03T00:00	36334	5	-34.9	-75.5	345	11
2023-09-03T00:00	36341	5	-35.1	-75.6	345	11
2023-09-03T00:00	36404	5	-35.3	-75.8	347	12
2023-09-03T00:00	36451	5	-35.3	-75.8	350	12
2023-09-03T00:00	36479	5	-35.5	-75.9	352	13
2023-09-03T00:00	36530	5	-35.6	-76.0	353	14
2023-09-03T00:00	36552	5	-35.8	-76.1	355	14
2023-09-03T00:00	36583	5	-35.9	-76.2	357	14
2023-09-03T00:00	36628	5	-36.2	-76.4	0	15
2023-09-03T00:00	36689	5	-36.3	-76.5	2	14
2023-09-03T00:00	36725	5	-36.3	-76.5	4	14
2023-09-03T00:00	36737	5	-36.5	-76.6	7	13
2023-09-03T00:00	36749	5	-36.6	-76.7	7	13
2023-09-03T00:00	36817	5	-36.7	-76.7	8	12
2023-09-03T00:00	36853	5	-36.7	-76.7	8	12
2023-09-03T00:00	36890	5	-36.5	-76.6	8	11
2023-09-03T00:00	36919	5	-36.3	-76.5	8	10
2023-09-03T00:00	36964	5	-36.4	-76.5	6	11
2023-09-03T00:00	36996	5	-36.1	-76.3	4	11
2023-09-03T00:00	37040	5	-36.1	-76.3	3	12
2023-09-03T00:00	37055	4	-36.1	-76.3	0	13
2023-09-03T00:00	37089	4	-36.1	-76.3	360	13
2023-09-03T00:00	37137	4	-36.1	-76.3	359	13
2023-09-03T00:00	37175	4	-36.1	-76.3	360	13
2023-09-03T00:00	37198	4	-35.8	-76.1	5	12
2023-09-03T00:00	37237	4	-35.8	-76.1	8	12
2023-09-03T00:00	37276	4	-35.9	-76.2	9	12
2023-09-03T00:00	37305	4	-36.0	-76.3	10	12
2023-09-03T00:00	37345	4	-36.0	-76.3	11	12
2023-09-03T00:00	37355	4	-35.5	-75.9	9	14
2023-09-03T00:00	37415	4	-35.6	-76.0	8	14
2023-09-03T00:00	37485	4	-36.0	-76.3	10	14
2023-09-03T00:00	37501	4	-35.9	-76.2	16	12
2023-09-03T00:00	37516	4	-35.8	-76.1	17	11
2023-09-03T00:00	37536	4	-35.8	-76.1	17	11
2023-09-03T00:00	37542	4	-35.8	-76.1	17	11
2023-09-03T00:00	37581	4	-35.7	-76.1	15	11
2023-09-03T00:00	37627	4	-35.2	-75.7	10	11
2023-09-03T00:00	37633	4	-34.7	-75.4	11	12
2023-09-03T00:00	37677	4	-34.6	-75.3	13	12
2023-09-03T00:00	37687	4	-34.6	-75.3	15	12
2023-09-03T00:00	37731	4	-34.5	-75.2	17	12
2023-09-03T00:00	37764	4	-34.5	-75.2	18	11
2023-09-03T00:00	37782	4	-34.6	-75.3	16	10
2023-09-03T00:00	37810	4	-34.5	-75.2	14	10
2023-09-03T00:00	37842	4	-34.2	-75.0	11	10
2023-09-03T00:00	37869	4	-33.9	-74.8	6	11
2023-09-03T00:00	37873	4	-33.8	-74.7	4	11
2023-09-03T00:00	37914	4	-34.0	-74.9	2	11
2023-09-03T00:00	37932	4	-33.9	-74.8	358	11
2023-09-03T00:00	37959	4	-33.9	-74.8	358	11
2023-09-03T00:00	37987	4	-33.7	-74.7	355	12
2023-09-03T00:00	38034	4	-33.7	-74.7	352	12
2023-09-03T00:00	38041	4	-33.7	-74.7	349	12
2023-09-03T00:00	38045	4	-33.8	-74.7	348	13
2023-09-03T00:00	38062	4	-33.8	-74.7	348	13
2023-09-03T00:00	38122	4	-33.5	-74.5	346	13
2023-09-03T00:00	38139	4	-33.6	-74.6	343	13
2023-09-03T00:00	38158	4	-33.6	-74.6	343	12
2023-09-03T00:00	38170	4	-33.6	-74.6	342	12
2023-09-03T06:00	112	1010	14.4	13.5	290	2
2023-09-03T06:00	136	1007	14.8	13.3	296	3
2023-09-03T06:00	156	1005	15.6	12.8	297	3
2023-09-03T06:00	182	1002	16.2	12.8	299	4
2023-09-03T06:00	208	999	16.6	12.5	302	4
2023-09-03T06:00	234	996	16.5	12.4	306	4
2023-09-03T06:00	258	993	16.4	11.5	310	4
2023-09-03T06:00	286	990	16.7	9.1	313	4
2023-09-03T06:00	311	987	16.9	9.2	315	5
2023-09-03T06:00	339	984	16.9	9.2	315	5
2023-09-03T06:00	362	981	16.9	8.4	314	5
2023-09-03T06:00	388	978	16.7	8.6	314	5
2023-09-03T06:00	411	975	16.4	9.3	314	5
2023-09-03T06:00	436	972	16.2	9.6	315	5
2023-09-03T06:00	459	970	15.9	9.7	316	5
2023-09-03T06:00	485	967	15.7	9.5	318	5
2023-09-03T06:00	510	964	15.5	9.5	319	5
2023-09-03T06:00	534	961	15.3	9.4	320	5
2023-09-03T06:00	563	958	15.1	9.3	320	6
2023-09-03T06:00	586	955	14.9	9.1	320	6
2023-09-03T06:00	610	953	14.8	8.7	319	6
2023-09-03T06:00	635	950	14.6	8.8	318	6
2023-09-03T06:00	659	947	14.3	9.1	316	6
2023-09-03T06:00	684	944	14.0	9.2	314	6
2023-09-03T06:00	705	942	13.8	9.2	312	6
2023-09-03T06:00	730	939	13.6	9.3	311	6
2023-09-03T06:00	754	937	13.4	9.4	310	6
2023-09-03T06:00	780	934	13.1	9.3	310	6
2023-09-03T06:00	803	931	12.9	9.3	309	6
2023-09-03T06:00	829	928	12.7	9.6	309	6
2023-09-03T06:00	854	925	12.5	9.3	308	6
2023-09-03T06:00	880	923	12.2	9.1	308	6
2023-09-03T06:00	908	920	12.0	9.2	306	6
2023-09-03T06:00	938	916	11.8	8.5	305	6
2023-09-03T06:00	964	913	11.6	8.4	304	6
2023-09-03T06:00	993	910	11.3	9.0	303	6
2023-09-03T06:00	1019	907	11.1	8.8	303	7
2023-09-03T06:00	1047	904	10.8	8.9	302	7
2023-09-03T06:00	1075	901	10.6	8.8	301	7
2023-09-03T06:00	1104	898	10.4	8.5	301	7
2023-09-03T06:00	1131	895	10.1	8.4	299	7
2023-09-03T06:00	1158	892	10.0	8.0	298	7
2023-09-03T06:00	1185	890	9.7	7.9	297	7
2023-09-03T06:00	1212	887	9.5	7.6	296	7
2023-09-03T06:00	1242	884	9.2	7.5	294	7
2023-09-03T06:00	1267	881	9.1	7.2	293	7
2023-09-03T06:00	1296	878	8.9	7.2	293	7
2023-09-03T06:00	1323	875	8.6	7.3	293	7
2023-09-03T06:00	1349	872	8.5	6.8	294	8
2023-09-03T06:00	1377	869	8.4	6.2	295	8
2023-09-03T06:00	1401	867	8.2	6.4	295	8
2023-09-03T06:00	1429	864	8.0	6.6	295	8
2023-09-03T06:00	1460	861	7.8	6.7	296	8
2023-09-03T06:00	1488	858	7.7	7.0	297	8
2023-09-03T06:00	1512	855	7.6	7.1	298	8
2023-09-03T06:00	1539	852	7.4	6.8	300	9
2023-09-03T06:00	1566	849	7.3	6.6	302	9
2023-09-03T06:00	1595	847	7.1	6.1	303	9
2023-09-03T06:00	1623	844	6.8	6.0	304	9
2023-09-03T06:00	1652	841	6.6	5.8	304	9
2023-09-03T06:00	1679	838	6.4	5.8	303	9
2023-09-03T06:00	1705	835	6.2	5.7	300	9
2023-09-03T06:00	1734	832	5.9	5.6	297	9
2023-09-03T06:00	1763	829	5.7	5.4	294	9
2023-09-03T06:00	1795	826	5.7	4.7	291	9
2023-09-03T06:00	1821	823	5.6	4.6	290	9
2023-09-03T06:00	1850	821	5.5	4.5	290	9
2023-09-03T06:00	1877	818	5.4	4.5	291	10
2023-09-03T06:00	1909	815	5.3	3.3	293	10
2023-09-03T06:00	1939	812	5.2	2.0	294	10
2023-09-03T06:00	1966	809	5.5	-2.0	295	9
2023-09-03T06:00	1993	806	5.7	-2.0	296	9
2023-09-03T06:00	2021	804	5.5	-0.5	296	9
2023-09-03T06:00	2048	801	5.3	-0.6	296	9
2023-09-03T06:00	2075	798	5.2	-1.5	296	9
2023-09-03T06:00	2103	796	5.1	-1.0	296	9
2023-09-03T06:00	2129	793	4.8	-1.0	296	9
2023-09-03T06:00	2160	790	4.6	-0.8	296	9
2023-09-03T06:00	2185	787	4.3	-1.2	296	9
2023-09-03T06:00	2216	785	4.1	-1.2	296	9
2023-09-03T06:00	2243	782	3.8	-1.0	296	10
2023-09-03T06:00	2271	779	3.6	-1.0	297	10
2023-09-03T06:00	2299	777	3.3	-1.0	297	10
2023-09-03T06:00	2326	774	3.1	-1.5	298	10
2023-09-03T06:00	2354	771	3.1	-2.8	299	10
2023-09-03T06:00	2385	769	2.9	-3.0	300	10
2023-09-03T06:00	2412	766	2.7	-2.9	300	10
2023-09-03T06:00	2439	763	2.4	-2.8	300	10
2023-09-03T06:00	2466	761	2.4	-4.6	300	10
2023-09-03T06:00	2495	758	2.5	-9.5	300	9
2023-09-03T06:00	2524	755	2.7	-15.6	301	9
2023-09-03T06:00	2551	753	2.5	-13.3	301	9
2023-09-03T06:00	2579	750	2.5	-19.7	302	9
2023-09-03T06:00	2606	748	2.4	-21.8	303	10
2023-09-03T06:00	2636	745	2.3	-21.0	304	10
2023-09-03T06:00	2663	743	2.1	-20.7	304	10
2023-09-03T06:00	2692	740	2.0	-18.5	305	10
2023-09-03T06:00	2720	737	1.7	-17.2	305	11
2023-09-03T06:00	2747	735	1.7	-15.8	306	11
2023-09-03T06:00	2775	732	1.7	-15.3	307	11
2023-09-03T06:00	2804	730	1.6	-15.6	308	11
2023-09-03T06:00	2830	727	1.7	-17.0	308	11
2023-09-03T06:00	2858	725	1.8	-17.8	307	11
2023-09-03T06:00	2889	722	1.7	-16.7	306	11
2023-09-03T06:00	2919	719	1.5	-16.0	305	11
2023-09-03T06:00	2946	717	1.4	-16.4	305	11
2023-09-03T06:00	2975	714	1.2	-16.3	305	11
2023-09-03T06:00	3006	712	1.0	-16.6	306	12
2023-09-03T06:00	3035	709	0.7	-16.8	308	12
2023-09-03T06:00	3065	706	0.5	-17.7	309	13
2023-09-03T06:00	3094	704	0.3	-18.3	310	13
2023-09-03T06:00	3124	701	0.1	-18.6	311	13
2023-09-03T06:00	3155	698	-0.2	-19.5	311	14
2023-09-03T06:00	3184	696	0.1	-30.9	310	14
2023-09-03T06:00	3213	693	0.0	-31.0	309	14
2023-09-03T06:00	3244	691	-0.1	-30.1	309	14
2023-09-03T06:00	3274	688	-0.3	-27.3	309	14
2023-09-03T06:00	3300	686	-0.5	-23.5	309	14
2023-09-03T06:00	3332	683	-0.7	-23.0	309	14
2023-09-03T06:00	3361	681	-1.0	-22.8	309	14
2023-09-03T06:00	3393	678	-1.2	-21.9	309	14
2023-09-03T06:00	3423	675	-1.5	-21.7	309	14
2023-09-03T06:00	3454	673	-1.7	-21.5	308	14
2023-09-03T06:00	3484	670	-2.0	-21.8	308	14
2023-09-03T06:00	3512	668	-2.2	-22.1	308	14
2023-09-03T06:00	3541	665	-2.5	-22.6	307	14
2023-09-03T06:00	3569	663	-2.7	-23.1	307	14
2023-09-03T06:00	3599	661	-2.9	-23.0	307	14
2023-09-03T06:00	3628	658	-3.2	-23.0	306	14
2023-09-03T06:00	3657	656	-3.5	-23.0	307	14
2023-09-03T06:00	3683	654	-3.7	-23.2	307	14
2023-09-03T06:00	3711	651	-4.0	-23.4	307	14
2023-09-03T06:00	3741	649	-4.3	-23.6	308	14
2023-09-03T06:00	3770	646	-4.5	-23.7	310	14
2023-09-03T06:00	3797	644	-4.8	-23.8	312	14
2023-09-03T06:00	3828	642	-5.0	-24.3	315	14
2023-09-03T06:00	3858	639	-5.1	-27.4	320	13
2023-09-03T06:00	3887	637	-4.9	-32.5	324	13
2023-09-03T06:00	3914	635	-4.9	-35.0	328	14
2023-09-03T06:00	3946	632	-4.7	-32.6	331	14
2023-09-03T06:00	3973	630	-4.7	-31.6	333	15
2023-09-03T06:00	4001	628	-4.6	-25.8	335	16
2023-09-03T06:00	4030	625	-4.6	-22.6	336	16
2023-09-03T06:00	4063	623	-4.8	-21.7	337	17
2023-09-03T06:00	4094	620	-5.0	-20.6	337	17
2023-09-03T06:00	4125	618	-5.1	-17.0	337	17
2023-09-03T06:00	4155	616	-5.3	-16.4	336	18
2023-09-03T06:00	4183	613	-5.6	-15.8	336	18
2023-09-03T06:00	4208	611	-5.8	-15.4	336	19
2023-09-03T06:00	4234	609	-6.0	-15.3	336	19
2023-09-03T06:00	4261	607	-6.3	-15.4	336	19
2023-09-03T06:00	4288	605	-6.5	-15.5	336	19
2023-09-03T06:00	4312	603	-6.8	-15.5	335	19
2023-09-03T06:00	4337	601	-7.0	-15.6	335	19
2023-09-03T06:00	4365	599	-7.2	-15.6	334	19
2023-09-03T06:00	4389	597	-7.5	-15.7	334	18
2023-09-03T06:00	4420	595	-7.7	-15.8	333	18
2023-09-03T06:00	4446	593	-8.0	-15.9	333	18
2023-09-03T06:00	4474	591	-8.3	-16.0	333	19
2023-09-03T06:00	4499	589	-8.5	-16.1	333	19
2023-09-03T06:00	4527	587	-8.8	-16.2	333	19
2023-09-03T06:00	4557	585	-9.1	-16.3	333	19
2023-09-03T06:00	4587	582	-9.3	-16.3	333	19
2023-09-03T06:00	4614	580	-9.6	-16.5	332	19
2023-09-03T06:00	4644	578	-9.9	-16.6	331	19
2023-09-03T06:00	4675	576	-10.2	-16.7	330	19
2023-09-03T06:00	4702	574	-10.4		329	19
2023-09-03T06:00	4732	571	-10.7	-16.9	329	19
2023-09-03T06:00	4762	569	-11.0	-16.9	329	20
2023-09-03T06:00	4793	567	-11.3	-17.0	329	20
2023-09-03T06:00	4821	565	-11.6	-17.1	329	20
2023-09-03T06:00	4853	563	-11.8	-17.1	329	21
2023-09-03T06:00	4880	560	-12.1	-17.3	329	21
2023-09-03T06:00	4911	558	-12.4	-17.4	328	21
2023-09-03T06:00	4942	556	-12.6	-17.5	327	21
2023-09-03T06:00	4973	554	-12.9	-17.6	325	21
2023-09-03T06:00	5001	552	-13.2	-17.7	324	21
2023-09-03T06:00	5029	550	-13.4	-17.9	323	22
2023-09-03T06:00	5060	547	-13.6	-18.0	322	22
2023-09-03T06:00	5091	545	-13.8	-18.2	321	22
2023-09-03T06:00	5125	543	-14.1	-18.3	320	23
2023-09-03T06:00	5153	541	-14.4	-18.5	319	23
2023-09-03T06:00	5185	539	-14.6	-18.7	318	23
2023-09-03T06:00	5215	536	-14.9	-18.8	318	23
2023-09-03T06:00	5247	534	-15.1	-19.0	317	23
2023-09-03T06:00	5278	532	-15.4	-19.1	317	23
2023-09-03T06:00	5307	530	-15.7	-19.2	317	24
2023-09-03T06:00	5338	528	-16.0	-19.1	318	24
2023-09-03T06:00	5369	525	-16.2	-19.2	318	24
2023-09-03T06:00	5402	523	-16.4	-19.4	319	25
2023-09-03T06:00	5431	521	-16.6	-19.4	319	26
2023-09-03T06:00	5463	519	-16.7	-19.2	321	26
2023-09-03T06:00	5495	517	-16.7	-19.2	322	27
2023-09-03T06:00	5527	515	-16.4	-18.7	324	27
2023-09-03T06:00	5557	513	-15.4	-17.2	325	28
2023-09-03T06:00	5587	511	-14.8	-16.7	326	28
2023-09-03T06:00	5617	509	-15.0	-16.8	327	28
2023-09-03T06:00	5650	506	-15.1	-17.0	327	28
2023-09-03T06:00	5679	504	-15.3	-17.3	328	28
2023-09-03T06:00	5706	502	-15.5	-17.4	328	28
2023-09-03T06:00	5736	501	-15.7	-17.6	328	27
2023-09-03T06:00	5768	499	-15.8	-17.6	328	27
2023-09-03T06:00	5797	497	-15.9	-17.8	328	27
2023-09-03T06:00	5826	495	-16.1	-18.0	328	27
2023-09-03T06:00	5856	493	-16.3	-18.3	328	27
2023-09-03T06:00	5890	490	-16.3	-18.4	327	27
2023-09-03T06:00	5920	488	-16.4	-18.3	326	27
2023-09-03T06:00	5950	487	-16.3	-18.1	325	28
2023-09-03T06:00	5981	485	-16.4	-18.1	324	28
2023-09-03T06:00	6012	482	-16.5	-18.0	324	29
2023-09-03T06:00	6045	481	-16.6	-18.2	324	29
2023-09-03T06:00	6073	479	-16.7	-18.3	324	29
2023-09-03T06:00	6103	477	-16.7	-18.3	325	29
2023-09-03T06:00	6135	475	-16.9	-18.5	325	28
2023-09-03T06:00	6164	473	-16.9	-18.8	325	28
2023-09-03T06:00	6193	471	-17.0	-18.8	325	27
2023-09-03T06:00	6222	469	-17.2	-19.0	325	27
2023-09-03T06:00	6250	467	-17.4	-19.3	325	26
2023-09-03T06:00	6279	466	-17.6	-19.4	324	26
2023-09-03T06:00	6309	464	-17.7	-19.6	324	25
2023-09-03T06:00	6336	462	-17.8	-20.1	324	25
2023-09-03T06:00	6364	461	-17.9	-20.4	324	24
2023-09-03T06:00	6390	459	-18.1	-20.8	324	24
2023-09-03T06:00	6420	457	-18.2	-21.3	324	23
2023-09-03T06:00	6450	455	-18.4	-21.6	325	23
2023-09-03T06:00	6477	454	-18.2	-22.4	326	22
2023-09-03T06:00	6506	452	-18.5	-22.5	327	22
2023-09-03T06:00	6533	450	-18.7	-22.7	328	23
2023-09-03T06:00	6563	448	-19.0	-22.8	330	23
2023-09-03T06:00	6594	447	-19.2	-23.0	333	23
2023-09-03T06:00	6623	445	-19.3	-23.7	334	23
2023-09-03T06:00	6655	443	-19.5	-23.7	336	24
2023-09-03T06:00	6690	441	-19.8	-23.8	337	24
2023-09-03T06:00	6722	439	-20.1	-24.0	338	24
2023-09-03T06:00	6753	437	-20.4	-24.3	339	24
2023-09-03T06:00	6783	435	-20.6	-24.4	341	25
2023-09-03T06:00	6817	433	-20.7	-24.5	342	25
2023-09-03T06:00	6849	431	-21.0	-24.7	344	25
2023-09-03T06:00	6880	430	-21.3	-24.9	346	26
2023-09-03T06:00	6912	428	-21.3	-25.1	348	26
2023-09-03T06:00	6941	426	-21.4	-25.5	349	27
2023-09-03T06:00	6972	424	-21.6	-25.4	350	28
2023-09-03T06:00	6998	423	-21.9	-25.5	351	28
2023-09-03T06:00	7028	421	-22.1	-25.6	352	29
2023-09-03T06:00	7058	419	-22.0	-25.6	353	30
2023-09-03T06:00	7086	418	-22.3	-25.7	353	31
2023-09-03T06:00	7114	416	-22.3	-25.6	354	31
2023-09-03T06:00	7139	415	-22.3	-25.7	354	32
2023-09-03T06:00	7166	413	-22.5	-25.7	355	33
2023-09-03T06:00	7204	411	-22.8	-25.8	355	34
2023-09-03T06:00	7235	409	-22.8	-25.9	355	35
2023-09-03T06:00	7266	408	-23.0	-25.9	355	35
2023-09-03T06:00	7297	406	-22.9	-25.8	355	36
2023-09-03T06:00	7324	404	-22.8	-25.9	354	37
2023-09-03T06:00	7346	403	-22.9	-26.0	354	38
2023-09-03T06:00	7374	402	-22.9	-26.1	354	39
2023-09-03T06:00	7404	400	-22.9	-26.2	354	39
2023-09-03T06:00	7439	398	-23.1	-26.4	354	40
2023-09-03T06:00	7469	397	-23.2	-26.5	354	40
2023-09-03T06:00	7494	395	-23.3	-26.4	354	40
2023-09-03T06:00	7519	394	-23.5	-26.5	354	40
2023-09-03T06:00	7549	392	-23.7	-26.9	354	40
2023-09-03T06:00	7581	390	-23.9	-27.0	355	40
2023-09-03T06:00	7614	389	-24.1	-27.1	355	40
2023-09-03T06:00	7645	387	-24.2	-27.3	354	41
2023-09-03T06:00	7675	386	-24.4	-27.6	354	41
2023-09-03T06:00	7702	384	-24.5	-28.0	354	41
2023-09-03T06:00	7732	382	-24.7	-28.1	354	41
2023-09-03T06:00	7762	381	-24.8	-28.5	354	41
2023-09-03T06:00	7793	379	-25.0	-28.6	354	42
2023-09-03T06:00	7815	378	-25.1	-28.5	355	42
2023-09-03T06:00	7846	377	-25.3	-28.7	355	42
2023-09-03T06:00	7869	375	-25.5	-28.4	356	43
2023-09-03T06:00	7896	374	-25.7	-28.5	356	43
2023-09-03T06:00	7919	373	-25.8	-28.5	356	43
2023-09-03T06:00	7940	372	-26.0	-28.6	356	44
2023-09-03T06:00	7970	370	-26.2	-28.5	356	44
2023-09-03T06:00	7998	369	-26.4	-28.8	357	44
2023-09-03T06:00	8028	367	-26.6	-29.3	357	45
2023-09-03T06:00	8063	366	-26.8	-29.6	358	45
2023-09-03T06:00	8083	364	-27.0	-29.6	358	45
2023-09-03T06:00	8108	363	-27.2	-29.6	358	44
2023-09-03T06:00	8134	362	-27.4	-29.7	358	44
2023-09-03T06:00	8164	360	-27.6	-30.5	359	44
2023-09-03T06:00	8197	359	-27.9	-30.7	359	44
2023-09-03T06:00	8228	357	-28.2	-30.9	359	44
2023-09-03T06:00	8249	356	-28.4	-31.0	360	44
2023-09-03T06:00	8276	355	-28.6	-31.1	360	43
2023-09-03T06:00	8310	353	-28.8	-31.5	360	43
2023-09-03T06:00	8338	352	-29.1	-32.2	0	43
2023-09-03T06:00	8365	350	-29.3	-32.3	0	43
2023-09-03T06:00	8386	349	-29.5	-32.3	0	43
2023-09-03T06:00	8409	348	-29.7	-32.5	0	43
2023-09-03T06:00	8435	347	-29.9	-32.6	360	43
2023-09-03T06:00	8468	345	-30.2	-33.2	360	43
2023-09-03T06:00	8496	344	-30.4	-33.5	360	43
2023-09-03T06:00	8523	343	-30.5	-33.9	359	42
2023-09-03T06:00	8556	341	-30.8	-34.0	359	42
2023-09-03T06:00	8584	340	-31.0	-34.5	359	43
2023-09-03T06:00	8611	338	-31.2	-34.5	359	43
2023-09-03T06:00	8644	337	-31.5	-34.6	360	44
2023-09-03T06:00	8669	336	-31.6	-34.9	360	44
2023-09-03T06:00	8690	335	-31.8	-34.6	0	44
2023-09-03T06:00	8717	333	-32.0	-35.5	0	44
2023-09-03T06:00	8740	332	-32.2	-35.8	0	44
2023-09-03T06:00	8772	331	-32.4	-36.0	0	44
2023-09-03T06:00	8809	329	-32.7	-36.6	0	44
2023-09-03T06:00	8838	328	-32.8	-36.9	360	44
2023-09-03T06:00	8857	327	-33.0	-36.8	360	44
2023-09-03T06:00	8884	325	-33.1	-36.4	360	45
2023-09-03T06:00	8914	324	-33.1	-35.8	360	46
2023-09-03T06:00	8941	323	-33.3	-35.8	360	46
2023-09-03T06:00	8978	321	-33.5	-35.5	359	47
2023-09-03T06:00	9003	320	-33.7	-35.1	359	48
2023-09-03T06:00	9032	319	-34.0	-34.9	358	48
2023-09-03T06:00	9066	317	-34.2	-35.1	358	49
2023-09-03T06:00	9097	316	-34.3	-35.5	357	49
2023-09-03T06:00	9123	315	-34.4	-36.1	357	49
2023-09-03T06:00	9156	313	-34.4	-36.5	356	49
2023-09-03T06:00	9192	312	-34.3	-35.5	356	49
2023-09-03T06:00	9219	310	-34.3	-35.7	356	49
2023-09-03T06:00	9253	309	-34.4	-36.0	356	49
2023-09-03T06:00	9277	308	-34.4	-36.7	355	49
2023-09-03T06:00	9302	307	-34.6	-36.8	355	48
2023-09-03T06:00	9343	305	-35.0	-37.0	355	48
2023-09-03T06:00	9366	304	-35.2	-37.2	355	48
2023-09-03T06:00	9397	303	-35.4	-37.3	355	48
2023-09-03T06:00	9426	301	-35.6	-37.9	355	47
2023-09-03T06:00	9453	300	-35.8	-38.0	355	47
2023-09-03T06:00	9478	299	-36.0	-38.3	355	47
2023-09-03T06:00	9510	298	-36.3	-38.6	356	48
2023-09-03T06:00	9537	297	-36.5	-38.8	356	48
2023-09-03T06:00	9564	295	-36.7	-39.2	356	48
2023-09-03T06:00	9592	294	-36.9	-39.5	356	48
2023-09-03T06:00	9624	293	-37.1	-39.7	356	48
2023-09-03T06:00	9654	292	-37.4	-40.0	356	48
2023-09-03T06:00	9678	290	-37.6	-40.1	356	48
2023-09-03T06:00	9702	289	-37.8	-40.0	356	48
2023-09-03T06:00	9733	288	-38.0	-39.9	356	48
2023-09-03T06:00	9762	287	-38.3	-40.1	356	48
2023-09-03T06:00	9793	286	-38.5	-40.4	357	49
2023-09-03T06:00	9829	284	-38.8	-40.7	357	49
2023-09-03T06:00	9855	283	-39.0	-41.0	357	49
2023-09-03T06:00	9876	282	-39.2	-41.1	358	49
2023-09-03T06:00	9900	281	-39.4	-41.5	358	49
2023-09-03T06:00	9937	280	-39.7	-41.7	358	50
2023-09-03T06:00	9965	279	-39.9	-42.0	359	50
2023-09-03T06:00	9997	277	-40.3	-42.2	359	50
2023-09-03T06:00	10027	276	-40.4	-42.6	360	50
2023-09-03T06:00	10052	275	-40.5	-42.7	360	50
2023-09-03T06:00	10078	274	-40.8	-43.2	360	50
2023-09-03T06:00	10111	273	-41.0	-43.5	360	50
2023-09-03T06:00	10139	272	-41.3	-43.4	359	50
2023-09-03T06:00	10169	270	-41.6	-43.4	359	50
2023-09-03T06:00	10195	269	-41.8	-43.7	359	50
2023-09-03T06:00	10222	268	-42.1	-43.6	359	50
2023-09-03T06:00	10253	267	-42.4	-43.3	359	50
2023-09-03T06:00	10276	266	-42.6	-43.6	359	50
2023-09-03T06:00	10304	265	-42.8	-44.3	359	51
2023-09-03T06:00	10333	264	-43.0	-44.6	360	51
2023-09-03T06:00	10364	263	-43.3	-45.3	0	51
2023-09-03T06:00	10397	261	-43.4	-45.9	1	51
2023-09-03T06:00	10424	260	-43.7	-46.1	1	50
2023-09-03T06:00	10446	260	-43.8	-46.8	1	50
2023-09-03T06:00	10469	259	-44.0	-46.8	1	50
2023-09-03T06:00	10490	258	-44.2	-46.6	1	50
2023-09-03T06:00	10517	257	-44.4	-46.8	1	49
2023-09-03T06:00	10550	256	-44.6	-47.4	2	49
2023-09-03T06:00	10577	254	-44.8	-47.6	2	49
2023-09-03T06:00	10606	253	-45.0	-47.6	2	48
2023-09-03T06:00	10631	252	-45.1	-48.1	2	48
2023-09-03T06:00	10654	252	-45.1	-48.5	2	48
2023-09-03T06:00	10678	251	-45.2	-48.2	2	48
2023-09-03T06:00	10701	250	-45.4	-48.5	2	47
2023-09-03T06:00	10734	249	-45.6	-49.4	2	47
2023-09-03T06:00	10762	248	-45.8	-50.4	2	47
2023-09-03T06:00	10789	247	-46.0	-51.1	2	47
2023-09-03T06:00	10815	246	-46.1	-51.5	1	47
2023-09-03T06:00	10843	245	-46.4	-51.8	1	47
2023-09-03T06:00	10866	244	-46.6	-51.5	1	47
2023-09-03T06:00	10889	243	-46.7	-51.0	0	47
2023-09-03T06:00	10913	242	-46.9	-51.1	1	47
2023-09-03T06:00	10935	241	-47.1	-51.2	1	47
2023-09-03T06:00	10964	240	-47.4	-51.3	1	47
2023-09-03T06:00	10986	239	-47.6	-51.4	1	47
2023-09-03T06:00	11009	238	-47.8	-51.5	1	47
2023-09-03T06:00	11031	238	-48.1	-51.7	2	47
2023-09-03T06:00	11057	237	-48.3	-51.7	2	47
2023-09-03T06:00	11079	236	-48.4	-51.8	2	47
2023-09-03T06:00	11108	235	-48.7	-52.1	2	47
2023-09-03T06:00	11133	234	-48.9	-52.4	2	47
2023-09-03T06:00	11154	233	-49.1	-52.7	2	47
2023-09-03T06:00	11175	233	-49.3	-52.9	2	47
2023-09-03T06:00	11198	232	-49.5	-53.1	2	47
2023-09-03T06:00	11221	231	-49.7	-53.4	2	47
2023-09-03T06:00	11253	230	-49.9	-53.7	2	47
2023-09-03T06:00	11281	229	-50.1	-53.9	2	46
2023-09-03T06:00	11310	228	-50.4	-54.1	2	46
2023-09-03T06:00	11330	227	-50.6	-54.3	2	46
2023-09-03T06:00	11355	226	-50.8	-54.3	2	46
2023-09-03T06:00	11383	225	-51.0	-53.9	2	46
2023-09-03T06:00	11410	224	-51.2	-53.4	2	46
2023-09-03T06:00	11435	223	-51.5	-53.4	3	45
2023-09-03T06:00	11459	223	-51.6	-53.6	3	45
2023-09-03T06:00	11482	222	-51.9	-54.0	3	45
2023-09-03T06:00	11506	221	-52.1	-54.1	2	46
2023-09-03T06:00	11535	220	-52.3	-54.4	2	46
2023-09-03T06:00	11559	219	-52.5	-54.9	2	46
2023-09-03T06:00	11580	219	-52.7	-55.6	2	46
2023-09-03T06:00	11602	218	-52.8	-56.2	3	46
2023-09-03T06:00	11624	217	-52.8	-56.6	3	46
2023-09-03T06:00	11649	216	-52.8	-56.9	3	46
2023-09-03T06:00	11672	215	-52.9	-56.9	4	46
2023-09-03T06:00	11698	215	-53.0	-56.8	4	46
2023-09-03T06:00	11718	214	-53.0	-56.7	5	45
2023-09-03T06:00	11742	213	-53.2	-57.0	5	45
2023-09-03T06:00	11763	212	-53.3	-57.3	5	45
2023-09-03T06:00	11784	212	-53.4	-57.6	5	45
2023-09-03T06:00	11805	211	-53.6	-58.1	5	45
2023-09-03T06:00	11826	210	-53.7	-58.5	5	45
2023-09-03T06:00	11849	210	-53.9	-58.9	5	45
2023-09-03T06:00	11868	209	-54.1	-59.0	5	45
2023-09-03T06:00	11890	208	-54.3	-59.1	5	45
2023-09-03T06:00	11911	208	-54.4	-59.3	5	45
2023-09-03T06:00	11932	207	-54.5	-59.6	4	45
2023-09-03T06:00	11956	206	-54.6	-59.8	4	45
2023-09-03T06:00	11977	205	-54.8	-60.0	4	45
2023-09-03T06:00	11999	205	-55.0	-60.3	3	45
2023-09-03T06:00	12022	204	-55.1	-60.4	3	45
2023-09-03T06:00	12044	203	-55.2	-60.6	3	45
2023-09-03T06:00	12067	203	-55.4	-60.9	4	45
2023-09-03T06:00	12090	202	-55.5	-61.2	4	45
2023-09-03T06:00	12115	201	-55.6	-61.6	5	45
2023-09-03T06:00	12138	200	-55.5	-62.1	5	45
2023-09-03T06:00	12159	200	-55.5	-62.6	6	44
2023-09-03T06:00	12183	199	-55.6	-63.2	6	44
2023-09-03T06:00	12206	198	-55.6	-63.8	6	43
2023-09-03T06:00	12227	198	-55.7	-64.3	6	43
2023-09-03T06:00	12251	197	-55.8	-65.0	6	42
2023-09-03T06:00	12274	196	-55.9	-65.8	5	42
2023-09-03T06:00	12298	195	-55.9	-66.5	5	42
2023-09-03T06:00	12322	195	-55.9	-67.1	4	41
2023-09-03T06:00	12345	194	-56.1	-67.6	4	41
2023-09-03T06:00	12369	193	-56.2	-68.2	3	41
2023-09-03T06:00	12394	192	-56.2	-69.1	2	41
2023-09-03T06:00	12414	192	-56.2	-70.4	2	40
2023-09-03T06:00	12438	191	-56.1	-71.6	1	40
2023-09-03T06:00	12460	190	-56.1	-72.5	0	40
2023-09-03T06:00	12481	190	-56.2	-73.1	360	40
2023-09-03T06:00	12506	189	-56.3	-73.6	359	40
2023-09-03T06:00	12527	188	-56.5	-74.1	359	40
2023-09-03T06:00	12551	188	-56.5	-75.0	359	40
2023-09-03T06:00	12575	187	-56.4	-75.9	358	39
2023-09-03T06:00	12597	186	-56.4	-76.1	358	39
2023-09-03T06:00	12622	186	-56.4	-75.4	358	39
2023-09-03T06:00	12645	185	-56.5	-74.8	357	39
2023-09-03T06:00	12666	184	-56.6	-75.0	357	39
2023-09-03T06:00	12692	184	-56.7	-75.8	356	38
2023-09-03T06:00	12715	183	-56.7	-76.8	355	38
2023-09-03T06:00	12738	182	-56.3	-77.3	355	38
2023-09-03T06:00	12759	182	-56.0	-77.7	354	37
2023-09-03T06:00	12784	181	-56.0	-78.2	354	37
2023-09-03T06:00	12805	180	-56.2	-78.5	353	37
2023-09-03T06:00	12825	180	-56.3	-78.6	353	36
2023-09-03T06:00	12847	179	-56.2	-78.7	353	36
2023-09-03T06:00	12871	178	-56.2	-78.7	352	35
2023-09-03T06:00	12894	178	-56.2	-78.8	352	35
2023-09-03T06:00	12916	177	-56.2	-79.0	352	35
2023-09-03T06:00	12935	177	-56.3	-79.3	351	34
2023-09-03T06:00	12958	176	-56.1	-79.1	351	34
2023-09-03T06:00	12980	175	-55.8	-79.0	351	34
2023-09-03T06:00	13002	175	-55.7	-79.1	351	33
2023-09-03T06:00	13026	174	-55.7	-79.3	351	33
2023-09-03T06:00	13048	174	-55.6	-79.2	351	33
2023-09-03T06:00	13070	173	-55.5	-79.2	351	32
2023-09-03T06:00	13089	172	-55.2	-79.1	351	32
2023-09-03T06:00	13113	172	-55.3	-79.4	351	31
2023-09-03T06:00	13133	171	-55.3	-79.4	351	31
2023-09-03T06:00	13153	171	-55.4	-79.5	351	30
2023-09-03T06:00	13176	170	-55.5	-79.4	351	30
2023-09-03T06:00	13205	169	-55.5	-79.4	351	29
2023-09-03T06:00	13230	169	-55.5	-79.4	350	28
2023-09-03T06:00	13251	168	-55.6	-79.4	349	28
2023-09-03T06:00	13277	167	-55.7	-79.5	348	27
2023-09-03T06:00	13302	167	-55.9	-79.7	347	27
2023-09-03T06:00	13327	166	-56.0	-79.8	346	27
2023-09-03T06:00	13346	166	-56.1	-79.8	345	27
2023-09-03T06:00	13371	165	-56.2	-80.1	345	27
2023-09-03T06:00	13393	164	-56.3	-80.2	344	27
2023-09-03T06:00	13416	164	-56.4	-80.5	344	27
2023-09-03T06:00	13438	163	-56.4	-80.7	344	27
2023-09-03T06:00	13460	163	-56.0	-80.6	344	27
2023-09-03T06:00	13482	162	-55.8	-80.7	345	27
2023-09-03T06:00	13502	162	-55.7	-80.8	345	27
2023-09-03T06:00	13526	161	-55.7	-81.1	346	27
2023-09-03T06:00	13550	160	-55.4	-80.8	347	28
2023-09-03T06:00	13570	160	-55.4	-80.8	348	28
2023-09-03T06:00	13594	159	-55.4	-81.1	349	28
2023-09-03T06:00	13618	159	-55.4	-81.1	349	28
2023-09-03T06:00	13638	158	-55.4	-81.4	350	28
2023-09-03T06:00	13662	158	-55.3	-81.3	350	28
2023-09-03T06:00	13683	157	-55.3	-81.3	350	27
2023-09-03T06:00	13705	157	-55.0	-81.1	350	27
2023-09-03T06:00	13727	156	-55.1	-81.1	350	27
2023-09-03T06:00	13746	156	-55.1	-81.1	350	27
2023-09-03T06:00	13769	155	-55.2	-81.2	351	27
2023-09-03T06:00	13791	154	-55.3	-81.3	351	26
2023-09-03T06:00	13812	154	-55.4	-81.4	352	26
2023-09-03T06:00	13837	153	-55.4	-81.4	352	25
2023-09-03T06:00	13858	153	-55.3	-81.3	353	25
2023-09-03T06:00	13881	152	-55.4	-81.4	354	24
2023-09-03T06:00	13903	152	-55.5	-81.4	354	24
2023-09-03T06:00	13925	151	-55.6	-81.5	355	24
2023-09-03T06:00	13950	151	-55.5	-81.4	355	24
2023-09-03T06:00	13973	150	-55.4	-81.4	355	24
2023-09-03T06:00	13998	150	-55.4	-81.4	354	24
2023-09-03T06:00	14021	149	-55.3	-81.3	354	24
2023-09-03T06:00	14044	148	-55.4	-81.4	354	24
2023-09-03T06:00	14066	148	-55.4	-81.4	353	24
2023-09-03T06:00	14090	147	-55.5	-81.4	353	24
2023-09-03T06:00	14112	147	-55.7	-81.6	352	24
2023-09-03T06:00	14138	146	-55.7	-81.6	351	24
2023-09-03T06:00	14157	146	-55.8	-81.7	351	24
2023-09-03T06:00	14181	145	-55.8	-81.4	351	24
2023-09-03T06:00	14201	145	-55.8	-81.4	351	24
2023-09-03T06:00	14230	144	-55.9	-81.8	351	24
2023-09-03T06:00	14254	144	-55.9	-81.8	352	24
2023-09-03T06:00	14278	143	-56.0	-81.6	352	24
2023-09-03T06:00	14302	143	-56.1	-81.6	353	24
2023-09-03T06:00	14326	142	-56.3	-81.8	353	24
2023-09-03T06:00	14350	141	-56.4	-81.9	354	24
2023-09-03T06:00	14375	141	-56.5	-81.7	354	24
2023-09-03T06:00	14399	140	-56.5	-81.7	354	23
2023-09-03T06:00	14426	140	-56.6	-82.0	354	23
2023-09-03T06:00	14446	139	-56.6	-82.0	355	22
2023-09-03T06:00	14473	139	-56.4	-81.9	354	22
2023-09-03T06:00	14497	138	-56.5	-82.0	354	21
2023-09-03T06:00	14521	138	-56.6	-81.8	354	21
2023-09-03T06:00	14546	137	-56.7	-81.9	354	20
2023-09-03T06:00	14571	137	-56.9	-81.8	353	20
2023-09-03T06:00	14596	136	-57.1	-81.9	353	19
2023-09-03T06:00	14619	136	-57.1	-82.2	353	19
2023-09-03T06:00	14642	135	-56.9	-82.0	353	19
2023-09-03T06:00	14667	135	-56.7	-81.9	353	20
2023-09-03T06:00	14689	134	-56.9	-82.3	353	20
2023-09-03T06:00	14713	134	-57.1	-82.2	353	20
2023-09-03T06:00	14736	133	-57.3	-82.3	353	21
2023-09-03T06:00	14760	133	-57.4	-82.7	353	21
2023-09-03T06:00	14783	132	-57.4	-82.7	353	21
2023-09-03T06:00	14808	132	-57.3	-82.6	353	21
2023-09-03T06:00	14827	131	-57.1	-82.7	352	21
2023-09-03T06:00	14849	131	-57.2	-82.8	352	20
2023-09-03T06:00	14871	130	-57.2	-82.8	351	20
2023-09-03T06:00	14896	130	-57.2	-82.8	351	20
2023-09-03T06:00	14919	129	-57.1	-82.7	350	20
2023-09-03T06:00	14942	129	-57.0	-82.9	349	19
2023-09-03T06:00	14965	128	-57.0	-82.9	348	19
2023-09-03T06:00	14986	128	-57.1	-83.0	346	18
2023-09-03T06:00	15007	128	-57.2	-83.0	344	18
2023-09-03T06:00	15030	127	-57.2	-83.0	342	18
2023-09-03T06:00	15052	127	-57.1	-83.0	341	18
2023-09-03T06:00	15073	126	-56.9	-83.1	341	18
2023-09-03T06:00	15096	126	-56.8	-83.0	341	18
2023-09-03T06:00	15118	125	-56.7	-83.2	343	18
2023-09-03T06:00	15142	125	-56.4	-83.0	344	19
2023-09-03T06:00	15165	124	-56.1	-83.1	346	19
2023-09-03T06:00	15186	124	-56.0	-83.0	347	19
2023-09-03T06:00	15208	124	-56.0	-83.0	349	20
2023-09-03T06:00	15231	123	-56.0	-83.0	350	20
2023-09-03T06:00	15252	123	-56.1	-83.1	351	20
2023-09-03T06:00	15276	122	-56.1	-83.1	353	20
2023-09-03T06:00	15297	122	-56.0	-83.0	354	20
2023-09-03T06:00	15319	121	-56.0	-83.0	355	20
2023-09-03T06:00	15339	121	-55.9	-83.3	355	20
2023-09-03T06:00	15364	121	-55.8	-83.2	356	20
2023-09-03T06:00	15385	120	-55.7	-83.1	356	20
2023-09-03T06:00	15407	120	-55.5	-83.0	356	20
2023-09-03T06:00	15430	119	-55.4	-82.9	356	20
2023-09-03T06:00	15451	119	-55.4	-82.9	356	19
2023-09-03T06:00	15475	118	-55.5	-83.0	356	19
2023-09-03T06:00	15499	118	-55.5	-83.0	356	19
2023-09-03T06:00	15521	118	-55.6	-83.1	355	19
2023-09-03T06:00	15542	117	-55.7	-83.1	354	19
2023-09-03T06:00	15568	117	-55.7	-83.1	353	19
2023-09-03T06:00	15589	116	-55.9	-83.3	352	18
2023-09-03T06:00	15614	116	-55.8	-83.2	351	18
2023-09-03T06:00	15638	116	-55.7	-83.1	351	18
2023-09-03T06:00	15659	115	-55.7	-83.1	351	18
2023-09-03T06:00	15687	115	-55.5		353	18
2023-09-03T06:00	15708	114	-55.3	-83.2	355	18
2023-09-03T06:00	15730	114	-55.4	-83.3	358	18
2023-09-03T06:00	15753	113	-55.1	-83.0	360	17
2023-09-03T06:00	15778	113	-55.1	-83.0	1	17
2023-09-03T06:00	15802	113	-55.1	-83.0	0	17
2023-09-03T06:00	15825	112	-55.2	-83.1	359	17
2023-09-03T06:00	15848	112	-55.1	-83.0	357	17
2023-09-03T06:00	15874	111	-55.0	-82.9	355	17
2023-09-03T06:00	15894	111	-55.1	-83.0	353	17
2023-09-03T06:00	15918	111	-55.1	-83.0	353	16
2023-09-03T06:00	15943	110	-55.0	-82.9	354	16
2023-09-03T06:00	15967	110	-55.1	-83.0	355	16
2023-09-03T06:00	15993	109	-55.1	-83.0	357	16
2023-09-03T06:00	16016	109	-54.9	-82.9	359	16
2023-09-03T06:00	16042	108	-54.9	-83.3	1	16
2023-09-03T06:00	16064	108	-54.8	-83.2	3	15
2023-09-03T06:00	16086	108	-54.3	-82.8	5	15
2023-09-03T06:00	16109	107	-54.2	-82.7	7	15
2023-09-03T06:00	16132	107	-54.0	-82.6	8	15
2023-09-03T06:00	16156	106	-54.0	-82.6	9	14
2023-09-03T06:00	16179	106	-54.0	-82.6	10	14
2023-09-03T06:00	16203	106	-54.1	-82.6	11	14
2023-09-03T06:00	16230	105	-54.2	-82.7	12	14
2023-09-03T06:00	16256	105	-54.3	-82.8	12	13
2023-09-03T06:00	16286	104	-54.4	-82.9	12	13
2023-09-03T06:00	16310	104	-54.5	-82.6	12	12
2023-09-03T06:00	16331	104	-54.7	-82.7	11	12
2023-09-03T06:00	16358	103	-54.9	-82.9	10	12
2023-09-03T06:00	16381	103	-55.1	-83.0	9	11
2023-09-03T06:00	16408	102	-55.3	-82.8	7	11
2023-09-03T06:00	16430	102	-55.5	-83.0	6	11
2023-09-03T06:00	16456	102	-55.7	-83.1	5	11
2023-09-03T06:00	16480	101	-55.8	-83.2	4	12
2023-09-03T06:00	16504	101	-55.6	-83.4	3	12
2023-09-03T06:00	16525	101	-55.6	-83.4	3	12
2023-09-03T06:00	16550	100	-55.7	-83.5	4	13
2023-09-03T06:00	16575	100	-55.8	-83.6	5	13
2023-09-03T06:00	16599	99	-55.8	-83.6	6	13
2023-09-03T06:00	16623	99	-55.5	-83.7	7	13
2023-09-03T06:00	16645	99	-55.4	-83.6	8	12
2023-09-03T06:00	16672	98	-55.1	-83.4	8	12
2023-09-03T06:00	16695	98	-54.9	-83.7	7	11
2023-09-03T06:00	16720	98	-54.8	-83.6	6	11
2023-09-03T06:00	16745	97	-55.0	-83.7	4	11
2023-09-03T06:00	16772	97	-55.1	-83.8	3	11
2023-09-03T06:00	16795	96	-55.2	-83.5	3	11
2023-09-03T06:00	16820	96	-55.3	-83.6	3	11
2023-09-03T06:00	16848	96	-55.2	-83.5	4	11
2023-09-03T06:00	16871	95	-55.2	-83.5	6	12
2023-09-03T06:00	16895	95	-55.1	-83.4	8	12
2023-09-03T06:00	16922	94	-55.2	-83.9	10	12
2023-09-03T06:00	16946	94	-55.2	-83.9	11	12
2023-09-03T06:00	16969	94	-55.1	-83.8	13	12
2023-09-03T06:00	16995	93	-54.8	-83.6	13	12
2023-09-03T06:00	17017	93	-54.6	-83.4	13	12
2023-09-03T06:00	17040	93	-54.6	-83.4	12	11
2023-09-03T06:00	17065	92	-54.7	-83.5	11	11
2023-09-03T06:00	17086	92	-54.9	-83.7	10	11
2023-09-03T06:00	17115	92	-55.0	-83.7	9	11
2023-09-03T06:00	17140	91	-55.1	-83.8	10	11
2023-09-03T06:00	17160	91	-55.1	-83.8	11	11
2023-09-03T06:00	17185	91	-55.2	-83.9	14	10
2023-09-03T06:00	17209	90	-55.2	-83.9	16	10
2023-09-03T06:00	17234	90	-55.1	-83.8	17	10
2023-09-03T06:00	17253	90	-55.1	-83.8	18	9
2023-09-03T06:00	17277	89	-55.0	-83.7	17	9
2023-09-03T06:00	17302	89	-55.1	-83.8	15	8
2023-09-03T06:00	17325	89	-55.2	-83.9	11	8
2023-09-03T06:00	17347	88	-55.2	-83.9	8	8
2023-09-03T06:00	17372	88	-55.0	-83.7	5	8
2023-09-03T06:00	17396	88	-54.8	-83.6	3	8
2023-09-03T06:00	17418	87	-54.9	-84.1	2	8
2023-09-03T06:00	17444	87	-54.9	-83.7	2	8
2023-09-03T06:00	17465	87	-54.9	-83.7	2	8
2023-09-03T06:00	17488	86	-54.9	-83.7	3	8
2023-09-03T06:00	17511	86	-54.9	-83.7	4	8
2023-09-03T06:00	17535	86	-54.9	-83.7	4	8
2023-09-03T06:00	17554	86	-54.9	-83.7	4	8
2023-09-03T06:00	17578	85	-55.0	-83.7	3	8
2023-09-03T06:00	17602	85	-54.9	-83.7	3	8
2023-09-03T06:00	17626	85	-54.9	-84.1	4	8
2023-09-03T06:00	17651	84	-54.9	-84.1	5	8
2023-09-03T06:00	17671	84	-54.7	-83.9	8	7
2023-09-03T06:00	17697	84	-54.4	-83.7	11	7
2023-09-03T06:00	17723	83	-54.1	-83.5	15	7
2023-09-03T06:00	17746	83	-54.1	-83.5	17	7
2023-09-03T06:00	17770	83	-54.2	-83.6	18	7
2023-09-03T06:00	17797	82	-54.3	-83.6	17	7
2023-09-03T06:00	17821	82	-54.2	-83.6	15	7
2023-09-03T06:00	17845	82	-54.3	-83.6	14	7
2023-09-03T06:00	17870	81	-54.5	-83.4	13	7
2023-09-03T06:00	17894	81	-54.6	-83.4	12	8
2023-09-03T06:00	17917	81	-54.6	-83.4	12	8
2023-09-03T06:00	17943	81	-54.6	-83.4	12	8
2023-09-03T06:00	17965	80	-54.6	-83.4	13	8
2023-09-03T06:00	17992	80	-54.6	-83.4	13	8
2023-09-03T06:00	18017	80	-54.6	-83.4	13	8
2023-09-03T06:00	18043	79	-54.7	-83.5	13	8
2023-09-03T06:00	18066	79	-54.8	-83.6	14	8
2023-09-03T06:00	18091	79	-54.7	-83.5	15	7
2023-09-03T06:00	18114	78	-54.6	-83.9	16	7
2023-09-03T06:00	18143	78	-54.6	-83.9	19	7
2023-09-03T06:00	18166	78	-54.6	-83.9	22	6
2023-09-03T06:00	18192	77	-54.5	-83.8	25	6
2023-09-03T06:00	18218	77	-54.6	-83.9	27	6
2023-09-03T06:00	18240	77	-54.5	-83.8	27	6
2023-09-03T06:00	18269	77	-54.1	-83.5	26	6
2023-09-03T06:00	18296	76	-54.2	-83.6	24	5
2023-09-03T06:00	18321	76	-54.5	-83.4	21	5
2023-09-03T06:00	18348	76	-54.7	-83.5	17	5
2023-09-03T06:00	18375	75	-55.0	-83.7	15	5
2023-09-03T06:00	18400	75	-55.2	-83.9	14	6
2023-09-03T06:00	18429	75	-55.5	-84.1	14	6
2023-09-03T06:00	18452	74	-55.6	-84.2	15	6
2023-09-03T06:00	18480	74	-55.5	-84.1	17	7
2023-09-03T06:00	18504	74	-55.6	-84.2	18	7
2023-09-03T06:00	18532	73	-55.8	-84.3	19	7
2023-09-03T06:00	18553	73	-55.9	-84.4	20	7
2023-09-03T06:00	18576	73	-55.9	-84.4	20	7
2023-09-03T06:00	18601	73	-55.9	-84.4	20	7
2023-09-03T06:00	18627	72	-55.6	-84.2	21	7
2023-09-03T06:00	18652	72	-55.4	-84.0	22	7
2023-09-03T06:00	18674	72	-55.5	-84.5	24	7
2023-09-03T06:00	18702	72	-55.3	-84.4	26	7
2023-09-03T06:00	18726	71	-55.1	-84.2	26	7
2023-09-03T06:00	18749	71	-55.1	-84.2	26	7
2023-09-03T06:00	18774	71	-55.1	-84.2	25	7
2023-09-03T06:00	18800	70	-55.2	-84.3	24	7
2023-09-03T06:00	18822	70	-55.1	-84.2	22	7
2023-09-03T06:00	18846	70	-55.2	-84.3	20	7
2023-09-03T06:00	18871	70	-55.1	-84.2	19	7
2023-09-03T06:00	18894	69	-55.1	-84.2	16	7
2023-09-03T06:00	18916	69	-55.1	-84.2	14	7
2023-09-03T06:00	18942	69	-55.1	-83.8	11	6
2023-09-03T06:00	18966	69	-55.0	-83.7	8	6
2023-09-03T06:00	18987	68	-55.2	-83.9	6	6
2023-09-03T06:00	19014	68	-55.3	-84.0	6	6
2023-09-03T06:00	19036	68	-55.4	-84.0	8	6
2023-09-03T06:00	19057	68	-55.4	-84.5	10	6
2023-09-03T06:00	19084	67	-55.3	-84.4	12	6
2023-09-03T06:00	19108	67	-55.3	-84.4	13	6
2023-09-03T06:00	19129	67	-55.2	-84.3	13	6
2023-09-03T06:00	19158	67	-54.8	-84.0	11	5
2023-09-03T06:00	19178	66	-54.7	-83.9	7	5
2023-09-03T06:00	19203	66	-54.7	-84.4	360	4
2023-09-03T06:00	19228	66	-54.7	-83.9	351	4
2023-09-03T06:00	19250	66	-54.6	-83.9	342	4
2023-09-03T06:00	19273	65	-54.5	-83.8	334	4
2023-09-03T06:00	19301	65	-54.6	-83.9	328	5
2023-09-03T06:00	19325	65	-54.7	-83.9	325	5
2023-09-03T06:00	19348	65	-54.8	-84.0	325	6
2023-09-03T06:00	19373	64	-54.9	-84.1	329	6
2023-09-03T06:00	19395	64	-54.9	-84.1	334	6
2023-09-03T06:00	19418	64	-54.9	-84.1	342	7
2023-09-03T06:00	19444	64	-54.8	-84.5	349	7
2023-09-03T06:00	19465	63	-54.7	-84.4	354	7
2023-09-03T06:00	19491	63	-54.7	-84.4	358	8
2023-09-03T06:00	19514	63	-54.7	-84.4	1	8
2023-09-03T06:00	19539	63	-54.6	-84.3	2	8
2023-09-03T06:00	19562	63	-54.6	-84.3	2	8
2023-09-03T06:00	19583	62	-54.6	-84.3	2	8
2023-09-03T06:00	19610	62	-54.7	-83.9	3	7
2023-09-03T06:00	19633	62	-54.8	-84.0	4	7
2023-09-03T06:00	19660	62	-54.9	-84.1	6	7
2023-09-03T06:00	19687	61	-54.9	-84.1	7	7
2023-09-03T06:00	19710	61	-55.0	-84.2	8	7
2023-09-03T06:00	19734	61	-55.0	-84.2	9	7
2023-09-03T06:00	19760	61	-55.1	-84.2	8	7
2023-09-03T06:00	19780	60	-55.1	-84.2	8	7
2023-09-03T06:00	19806	60	-55.1	-84.2	8	7
2023-09-03T06:00	19832	60	-55.1	-84.2	9	7
2023-09-03T06:00	19856	60	-54.9	-84.1	10	7
2023-09-03T06:00	19882	59	-54.8	-84.5	13	7
2023-09-03T06:00	19906	59	-54.8	-84.5	15	8
2023-09-03T06:00	19931	59	-54.9	-84.6	18	8
2023-09-03T06:00	19956	59	-55.1	-84.7	21	7
2023-09-03T06:00	19981	59	-55.1	-84.7	23	7
2023-09-03T06:00	20007	58	-54.8	-84.5	24	6
2023-09-03T06:00	20032	58	-54.8	-84.5	24	6
2023-09-03T06:00	20057	58	-54.8	-84.5	23	5
2023-09-03T06:00	20082	58	-54.8	-84.5	20	4
2023-09-03T06:00	20108	57	-54.6	-84.3	14	4
2023-09-03T06:00	20132	57	-54.5	-84.8	7	4
2023-09-03T06:00	20158	57	-54.3	-84.6	1	4
2023-09-03T06:00	20183	57	-54.3	-84.6	357	4
2023-09-03T06:00	20211	56	-54.3	-84.6	357	5
2023-09-03T06:00	20234	56	-54.2	-84.5	359	6
2023-09-03T06:00	20261	56	-54.2	-84.5	2	6
2023-09-03T06:00	20290	56	-53.9	-84.3	6	7
2023-09-03T06:00	20312	56	-53.9	-84.3	9	8
2023-09-03T06:00	20340	55	-54.1	-84.5	12	9
2023-09-03T06:00	20367	55	-54.0	-84.4	15	10
2023-09-03T06:00	20389	55	-54.0	-84.4	17	10
2023-09-03T06:00	20415	55	-53.9	-83.8	18	10
2023-09-03T06:00	20439	54	-53.9	-83.8	20	11
2023-09-03T06:00	20469	54	-54.1	-84.0	21	10
2023-09-03T06:00	20490	54	-54.0	-83.9	22	10
2023-09-03T06:00	20522	54	-53.9	-83.8	24	10
2023-09-03T06:00	20540	54	-53.8	-84.2	27	9
2023-09-03T06:00	20573	53	-53.9	-84.3	31	9
2023-09-03T06:00	20603	53	-54.1	-84.5	35	9
2023-09-03T06:00	20626	53	-54.2	-84.5	39	8
2023-09-03T06:00	20651	53	-54.3	-84.6	42	8
2023-09-03T06:00	20679	53	-54.4	-84.2	44	8
2023-09-03T06:00	20701	52	-54.5	-84.3	45	8
2023-09-03T06:00	20725	52	-54.5	-84.3	44	8
2023-09-03T06:00	20753	52	-54.5	-84.3	43	8
2023-09-03T06:00	20774	52	-54.4	-84.2	41	8
2023-09-03T06:00	20801	51	-54.3	-84.6	40	9
2023-09-03T06:00	20831	51	-54.4	-84.2	40	9
2023-09-03T06:00	20864	51	-54.5	-84.3	39	9
2023-09-03T06:00	20886	51	-54.7	-84.4	38	10
2023-09-03T06:00	20909	51	-54.7	-84.4	37	10
2023-09-03T06:00	20943	50	-54.8	-84.5	36	9
2023-09-03T06:00	20964	50	-54.9	-84.6	35	9
2023-09-03T06:00	20993	50	-54.8	-84.5	34	8
2023-09-03T06:00	21016	50	-54.6	-84.3	35	8
2023-09-03T06:00	21040	50	-54.8	-84.5	36	7
2023-09-03T06:00	21064	49	-54.7	-84.4	39	6
2023-09-03T06:00	21094	49	-54.8	-84.5	41	6
2023-09-03T06:00	21120	49	-54.9	-84.6	44	5
2023-09-03T06:00	21143	49	-54.8	-84.5	46	4
2023-09-03T06:00	21171	49	-54.8	-85.0	46	4
2023-09-03T06:00	21196	48	-54.8	-85.0	45	3
2023-09-03T06:00	21224	48	-54.8	-85.0	40	3
2023-09-03T06:00	21247	48	-54.4	-84.7	33	3
2023-09-03T06:00	21276	48	-54.1	-84.5	27	3
2023-09-03T06:00	21302	48	-53.8	-84.2	23	3
2023-09-03T06:00	21330	47	-53.7	-84.2	20	4
2023-09-03T06:00	21352	47	-53.8	-84.2	18	4
2023-09-03T06:00	21378	47	-53.8	-84.2	18	4
2023-09-03T06:00	21406	47	-53.9	-84.3	19	4
2023-09-03T06:00	21428	47	-53.9	-84.3	20	4
2023-09-03T06:00	21460	46	-53.9	-84.3	22	4
2023-09-03T06:00	21490	46	-53.9	-84.3	24	4
2023-09-03T06:00	21507	46	-54.0	-84.4	24	4
2023-09-03T06:00	21536	46	-53.9	-84.3	22	5
2023-09-03T06:00	21562	46	-53.9	-84.3	21	5
2023-09-03T06:00	21589	46	-54.0	-84.4	20	5
2023-09-03T06:00	21619	45	-54.0	-84.9	21	6
2023-09-03T06:00	21643	45	-54.0	-84.9	22	6
2023-09-03T06:00	21667	45	-54.0	-84.9	25	6
2023-09-03T06:00	21696	45	-54.0	-84.9	27	7
2023-09-03T06:00	21725	45	-54.0	-84.4	29	7
2023-09-03T06:00	21749	44	-54.0	-84.4	32	7
2023-09-03T06:00	21773	44	-54.1	-84.5	34	7
2023-09-03T06:00	21798	44	-54.3	-84.6	37	7
2023-09-03T06:00	21823	44	-54.3	-84.6	41	7
2023-09-03T06:00	21846	44	-54.3	-84.6	46	6
2023-09-03T06:00	21876	44	-54.3	-84.6	51	6
2023-09-03T06:00	21901	43	-54.4	-84.7	57	6
2023-09-03T06:00	21931	43	-54.5	-84.8	63	6
2023-09-03T06:00	21959	43	-54.7	-84.9	69	6
2023-09-03T06:00	21989	43	-54.9	-84.6	73	6
2023-09-03T06:00	22014	43	-55.1	-84.7	76	5
2023-09-03T06:00	22037	42	-55.2	-84.8	78	5
2023-09-03T06:00	22072	42	-55.3	-84.9	78	5
2023-09-03T06:00	22098	42	-55.4	-84.9	79	5
2023-09-03T06:00	22119	42	-55.4	-84.9	81	4
2023-09-03T06:00	22143	42	-55.5	-85.0	85	4
2023-09-03T06:00	22173	42	-55.4	-84.9	92	5
2023-09-03T06:00	22196	41	-55.4	-84.9	98	5
2023-09-03T06:00	22223	41	-55.5	-85.0	104	5
2023-09-03T06:00	22250	41	-55.5	-85.0	108	6
2023-09-03T06:00	22278	41	-55.5	-85.0	111	6
2023-09-03T06:00	22309	41	-55.6	-85.1	113	6
2023-09-03T06:00	22330	41	-55.8	-85.2	115	6
2023-09-03T06:00	22360	40	-55.9	-85.3	117	6
2023-09-03T06:00	22381	40	-55.8	-85.2	120	6
2023-09-03T06:00	22413	40	-55.7	-85.2	123	5
2023-09-03T06:00	22439	40	-55.7	-85.2	127	4
2023-09-03T06:00	22459	40	-55.8	-85.2	130	4
2023-09-03T06:00	22490	40	-55.9	-85.3	134	3
2023-09-03T06:00	22515	39	-56.1	-85.5	140	2
2023-09-03T06:00	22539	39	-56.1	-85.5	147	2
2023-09-03T06:00	22567	39	-56.2	-85.5	153	2
2023-09-03T06:00	22591	39	-56.2	-85.5	156	1
2023-09-03T06:00	22621	39	-55.9	-85.3	155	1
2023-09-03T06:00	22646	39	-55.8	-85.2	148	1
2023-09-03T06:00	22670	38	-55.9	-85.3	129	1
2023-09-03T06:00	22698	38	-55.8	-85.7	92	1
2023-09-03T06:00	22723	38	-55.7	-85.7	62	1
2023-09-03T06:00	22753	38	-55.7	-85.7	48	1
2023-09-03T06:00	22771	38	-55.7	-85.7	39	2
2023-09-03T06:00	22808	38	-55.7	-85.7	33	2
2023-09-03T06:00	22834	37	-55.6	-86.1	26	2
2023-09-03T06:00	22861	37	-55.3	-85.9	19	2
2023-09-03T06:00	22884	37	-54.9	-85.6	13	2
2023-09-03T06:00	22921	37	-54.8	-85.5	8	2
2023-09-03T06:00	22938	37	-54.7	-85.5	7	2
2023-09-03T06:00	22965	37	-54.6	-85.4	8	3
2023-09-03T06:00	23001	37	-54.6	-85.4	10	3
2023-09-03T06:00	23022	36	-54.7	-85.5	13	3
2023-09-03T06:00	23049	36	-54.6	-85.4	17	3
2023-09-03T06:00	23076	36	-54.5	-85.3	20	4
2023-09-03T06:00	23108	36	-54.7	-84.9	23	4
2023-09-03T06:00	23135	36	-54.8	-85.0	26	4
2023-09-03T06:00	23164	36	-54.9	-85.1	29	4
2023-09-03T06:00	23184	35	-55.0	-85.1	31	4
2023-09-03T06:00	23215	35	-55.1	-85.2	33	4
2023-09-03T06:00	23245	35	-55.3	-85.4	33	4
2023-09-03T06:00	23269	35	-55.5	-85.5	30	4
2023-09-03T06:00	23298	35	-55.5	-85.5	24	4
2023-09-03T06:00	23328	35	-55.3	-85.4	16	3
2023-09-03T06:00	23356	35	-55.1	-85.8	5	3
2023-09-03T06:00	23377	34	-54.8	-85.5	356	3
2023-09-03T06:00	23416	34	-54.8	-85.5	352	3
2023-09-03T06:00	23438	34	-54.8	-85.5	353	3
2023-09-03T06:00	23463	34	-54.6	-85.4	360	3
2023-09-03T06:00	23497	34	-54.6	-85.4	10	3
2023-09-03T06:00	23520	34	-54.8	-85.5	20	3
2023-09-03T06:00	23555	34	-54.7	-84.9	28	3
2023-09-03T06:00	23580	33	-54.6	-84.8	33	4
2023-09-03T06:00	23608	33	-54.7	-84.9	37	4
2023-09-03T06:00	23639	33	-54.9	-85.1	41	4
2023-09-03T06:00	23667	33	-55.0	-85.1	45	5
2023-09-03T06:00	23701	33	-55.1	-85.2	49	5
2023-09-03T06:00	23725	33	-55.1	-85.8	53	5
2023-09-03T06:00	23751	32	-55.2	-85.8	56	5
2023-09-03T06:00	23783	32	-55.3	-85.9	56	5
2023-09-03T06:00	23808	32	-55.2	-85.8	55	5
2023-09-03T06:00	23835	32	-55.0	-85.7	51	4
2023-09-03T06:00	23864	32	-54.9	-85.6	44	4
2023-09-03T06:00	23890	32	-54.8	-86.1	32	3
2023-09-03T06:00	23913	32	-54.5	-85.9	15	3
2023-09-03T06:00	23951	32	-54.6	-86.0	354	3
2023-09-03T06:00	23975	31	-54.6	-86.0	338	3
2023-09-03T06:00	23997	31	-54.5	-85.9	328	4
2023-09-03T06:00	24024	31	-54.2	-85.7	323	4
2023-09-03T06:00	24052	31	-54.0	-85.5	321	5
2023-09-03T06:00	24080	31	-53.9	-85.5	322	6
2023-09-03T06:00	24105	31	-53.9	-85.5	323	6
2023-09-03T06:00	24135	31	-53.9	-85.5	326	6
2023-09-03T06:00	24157	30	-54.0	-84.9	329	7
2023-09-03T06:00	24179	30	-54.0	-84.9	333	6
2023-09-03T06:00	24211	30	-54.1	-85.0	338	6
2023-09-03T06:00	24234	30	-54.2	-85.1	344	6
2023-09-03T06:00	24264	30	-54.2	-85.1	350	6
2023-09-03T06:00	24287	30	-54.2	-85.1	358	5
2023-09-03T06:00	24310	30	-54.2	-85.1	8	5
2023-09-03T06:00	24335	30	-54.1	-85.6	19	5
2023-09-03T06:00	24363	30	-53.7	-85.3	30	5
2023-09-03T06:00	24385	29	-53.5	-85.2	39	5
2023-09-03T06:00	24406	29	-53.2	-85.0	46	6
2023-09-03T06:00	24432	29	-53.1	-84.9	51	6
2023-09-03T06:00	24459	29	-53.2	-85.0	55	5
2023-09-03T06:00	24483	29	-53.3	-85.0	58	5
2023-09-03T06:00	24512	29	-53.3	-85.0	62	4
2023-09-03T06:00	24539	29	-53.2	-85.0	68	4
2023-09-03T06:00	24562	29	-53.1	-84.9	76	3
2023-09-03T06:00	24589	29	-53.0	-84.8	86	2
2023-09-03T06:00	24613	28	-52.8	-84.7	99	2
2023-09-03T06:00	24638	28	-52.8	-84.7	114	1
2023-09-03T06:00	24665	28	-52.9	-84.7	132	1
2023-09-03T06:00	24694	28	-53.0	-84.8	188	0
2023-09-03T06:00	24715	28	-52.9	-84.7	283	1
2023-09-03T06:00	24744	28	-52.9	-84.7	303	1
2023-09-03T06:00	24775	28	-52.8	-84.7	312	2
2023-09-03T06:00	24794	28	-52.7	-84.6	317	2
2023-09-03T06:00	24824	27	-52.7	-84.6	321	3
2023-09-03T06:00	24848	27	-52.6	-85.2	323	3
2023-09-03T06:00	24876	27	-52.4	-85.1	324	3
2023-09-03T06:00	24894	27	-52.2	-84.9	323	3
2023-09-03T06:00	24928	27	-52.0	-84.8	322	3
2023-09-03T06:00	24947	27	-52.0	-84.8	320	4
2023-09-03T06:00	24973	27	-52.0	-84.8	320	4
2023-09-03T06:00	24999	27	-51.9	-84.7	321	4
2023-09-03T06:00	25033	27	-51.7	-84.5	324	4
2023-09-03T06:00	25060	27	-51.4	-84.3	327	4
2023-09-03T06:00	25076	26	-51.2	-84.2	333	4
2023-09-03T06:00	25111	26	-51.0	-84.0	340	3
2023-09-03T06:00	25140	26	-50.8	-83.9	347	3
2023-09-03T06:00	25160	26	-50.6	-83.7	353	3
2023-09-03T06:00	25193	26	-50.5	-83.7	356	3
2023-09-03T06:00	25216	26	-50.3	-83.5	355	3
2023-09-03T06:00	25251	26	-50.2	-83.5	352	4
2023-09-03T06:00	25277	26	-50.1	-84.2	349	4
2023-09-03T06:00	25303	26	-50.0	-84.1	347	5
2023-09-03T06:00	25335	25	-49.9	-84.0	347	5
2023-09-03T06:00	25372	25	-50.0	-83.3	348	5
2023-09-03T06:00	25393	25	-50.0	-83.3	350	5
2023-09-03T06:00	25428	25	-49.9	-83.2	352	5
2023-09-03T06:00	25458	25	-49.8	-83.2	353	5
2023-09-03T06:00	25480	25	-49.8	-83.2	352	5
2023-09-03T06:00	25509	25	-49.7	-83.1	349	5
2023-09-03T06:00	25542	25	-49.7	-83.9	345	5
2023-09-03T06:00	25565	25	-49.6	-83.8	340	4
2023-09-03T06:00	25598	24	-49.6	-83.8	335	4
2023-09-03T06:00	25627	24	-49.6	-83.8	332	4
2023-09-03T06:00	25650	24	-49.6	-83.0	332	3
2023-09-03T06:00	25684	24	-49.5	-82.9	336	3
2023-09-03T06:00	25719	24	-49.5	-82.9	346	2
2023-09-03T06:00	25747	24	-49.5	-82.9	1	2
2023-09-03T06:00	25773	24	-49.6	-83.0	18	1
2023-09-03T06:00	25803	24	-49.7	-83.1	33	1
2023-09-03T06:00	25830	24	-49.7	-83.1	42	1
2023-09-03T06:00	25859	23	-49.7	-83.1	43	1
2023-09-03T06:00	25887	23	-49.9	-83.2	30	1
2023-09-03T06:00	25919	23	-49.8	-83.2	358	1
2023-09-03T06:00	25934	23	-49.7	-83.9	334	1
2023-09-03T06:00	25969	23	-49.4	-83.7	326	1
2023-09-03T06:00	26011	23	-49.2	-83.5	322	2
2023-09-03T06:00	26032	23	-49.2	-83.5	320	2
2023-09-03T06:00	26063	23	-49.3	-83.6	318	3
2023-09-03T06:00	26086	23	-49.4	-83.7	316	3
2023-09-03T06:00	26114	23	-49.5	-83.7	315	4
2023-09-03T06:00	26137	22	-49.6	-83.0	316	4
2023-09-03T06:00	26173	22	-49.7	-83.1	318	4
2023-09-03T06:00	26203	22	-49.7	-83.1	320	4
2023-09-03T06:00	26227	22	-49.5	-83.7	321	4
2023-09-03T06:00	26253	22	-49.4	-83.7	321	4
2023-09-03T06:00	26279	22	-49.3	-83.6	320	4
2023-09-03T06:00	26320	22	-49.2	-83.5	319	4
2023-09-03T06:00	26341	22	-48.9	-83.3	318	5
2023-09-03T06:00	26373	22	-48.7	-83.2	318	5
2023-09-03T06:00	26389	22	-48.7	-83.2	318	6
2023-09-03T06:00	26424	22	-48.7	-83.2	319	6
2023-09-03T06:00	26450	21	-48.6	-83.1	320	7
2023-09-03T06:00	26485	21	-48.6	-83.1	322	7
2023-09-03T06:00	26498	21	-48.7	-83.2	325	8
2023-09-03T06:00	26537	21	-48.7	-83.2	329	8
2023-09-03T06:00	26569	21	-48.7	-83.2	333	7
2023-09-03T06:00	26595	21	-48.6	-83.1	338	7
2023-09-03T06:00	26625	21	-48.4	-82.9	342	7
2023-09-03T06:00	26663	21	-48.4	-82.9	346	7
2023-09-03T06:00	26678	21	-48.2	-82.8	350	6
2023-09-03T06:00	26716	21	-48.1	-82.7	353	6
2023-09-03T06:00	26730	21	-47.9	-83.5	355	6
2023-09-03T06:00	26767	20	-47.6	-83.3	357	7
2023-09-03T06:00	26807	20	-47.3	-83.1	358	7
2023-09-03T06:00	26821	20	-47.2	-83.0	358	8
2023-09-03T06:00	26861	20	-47.3	-83.1	359	9
2023-09-03T06:00	26894	20	-47.3	-83.1	358	9
2023-09-03T06:00	26919	20	-47.3	-82.2	358	10
2023-09-03T06:00	26944	20	-47.2	-82.1	358	10
2023-09-03T06:00	26971	20	-47.1	-82.0	359	11
2023-09-03T06:00	27010	20	-47.0	-81.9	1	11
2023-09-03T06:00	27040	20	-47.0	-82.9	4	10
2023-09-03T06:00	27064	20	-47.0	-82.9	9	10
2023-09-03T06:00	27089	19	-46.8	-82.7	12	10
2023-09-03T06:00	27118	19	-46.7	-82.6	15	9
2023-09-03T06:00	27147	19	-46.7	-81.7	17	8
2023-09-03T06:00	27182	19	-46.7	-81.7	17	8
2023-09-03T06:00	27213	19	-46.9	-81.9	18	7
2023-09-03T06:00	27236	19	-47.1	-82.0	18	7
2023-09-03T06:00	27285	19	-47.3	-82.2	18	7
2023-09-03T06:00	27308	19	-47.6	-82.4	18	7
2023-09-03T06:00	27342	19	-47.7	-82.4	17	7
2023-09-03T06:00	27356	19	-47.6	-82.4	17	7
2023-09-03T06:00	27390	19	-47.6	-82.4	17	8
2023-09-03T06:00	27418	19	-47.7	-82.4	17	8
2023-09-03T06:00	27460	18	-47.8	-82.5	17	9
2023-09-03T06:00	27494	18	-48.0	-82.7	17	9
2023-09-03T06:00	27513	18	-48.1	-82.7	17	9
2023-09-03T06:00	27544	18	-48.2	-82.8	18	9
2023-09-03T06:00	27582	18	-48.2	-82.8	19	9
2023-09-03T06:00	27614	18	-48.0	-82.7	21	9
2023-09-03T06:00	27639	18	-48.1	-82.7	23	9
2023-09-03T06:00	27669	18	-48.1	-82.7	24	9
2023-09-03T06:00	27691	18	-48.0	-82.7	24	9
2023-09-03T06:00	27738	18	-48.0	-82.7	24	9
2023-09-03T06:00	27776	18	-48.0	-82.7	23	9
2023-09-03T06:00	27788	18	-48.1	-82.7	23	9
2023-09-03T06:00	27820	17	-48.2	-82.8	24	9
2023-09-03T06:00	27854	17	-48.2	-82.8	25	8
2023-09-03T06:00	27881	17	-48.2	-82.8	29	7
2023-09-03T06:00	27908	17	-48.2	-82.8	35	7
2023-09-03T06:00	27943	17	-48.1	-82.7	42	6
2023-09-03T06:00	27970	17	-48.0	-82.7	49	5
2023-09-03T06:00	27996	17	-48.0	-82.7	56	5
2023-09-03T06:00	28028	17	-48.1	-82.7	61	5
2023-09-03T06:00	28051	17	-48.1	-82.7	67	4
2023-09-03T06:00	28078	17	-48.1	-82.7	75	4
2023-09-03T06:00	28098	17	-48.2	-82.8	84	4
2023-09-03T06:00	28150	17	-48.4	-82.9	96	3
2023-09-03T06:00	28167	17	-48.5	-83.0	109	4
2023-09-03T06:00	28188	16	-48.6	-83.1	122	4
2023-09-03T06:00	28210	16	-48.6	-83.1	134	4
2023-09-03T06:00	28236	16	-48.7	-83.2	144	4
2023-09-03T06:00	28269	16	-48.7	-83.2	154	5
2023-09-03T06:00	28299	16	-48.6	-83.1	163	5
2023-09-03T06:00	28319	16	-48.6	-83.1	172	5
2023-09-03T06:00	28350	16	-48.7	-83.2	182	5
2023-09-03T06:00	28379	16	-48.6	-83.1	191	5
2023-09-03T06:00	28417	16	-48.5	-83.0	198	6
2023-09-03T06:00	28433	16	-48.6	-83.1	204	6
2023-09-03T06:00	28469	16	-48.6	-83.1	210	6
2023-09-03T06:00	28494	16	-48.5	-83.0	217	5
2023-09-03T06:00	28523	16	-48.5	-83.0	227	5
2023-09-03T06:00	28549	16	-48.3	-82.9	245	4
2023-09-03T06:00	28572	16	-48.1	-82.7	269	4
2023-09-03T06:00	28613	15	-48.1	-82.7	291	4
2023-09-03T06:00	28643	15	-48.4	-82.9	308	4
2023-09-03T06:00	28666	15	-48.4	-82.9	319	5
2023-09-03T06:00	28693	15	-48.4	-82.9	327	5
2023-09-03T06:00	28727	15	-48.6	-83.1	334	5
2023-09-03T06:00	28757	15	-48.8	-83.2	340	5
2023-09-03T06:00	28785	15	-49.0	-83.4	346	5
2023-09-03T06:00	28817	15	-49.2	-83.5	352	5
2023-09-03T06:00	28849	15	-49.2	-83.5	357	5
2023-09-03T06:00	28865	15	-48.7	-83.2	3	6
2023-09-03T06:00	28899	15	-48.5	-83.0	8	6
2023-09-03T06:00	28929	15	-48.4	-82.9	13	6
2023-09-03T06:00	28966	15	-48.3	-82.9	18	6
2023-09-03T06:00	29005	15	-48.2	-83.7	21	6
2023-09-03T06:00	29024	15	-48.2	-82.8	23	5
2023-09-03T06:00	29055	14	-48.2	-82.8	24	5
2023-09-03T06:00	29087	14	-48.3	-82.9	23	4
2023-09-03T06:00	29109	14	-48.3	-82.9	20	4
2023-09-03T06:00	29152	14	-48.4	-82.9	15	3
2023-09-03T06:00	29184	14	-48.7	-83.2	5	2
2023-09-03T06:00	29206	14	-48.9	-83.3	351	2
2023-09-03T06:00	29239	14	-49.1	-83.4	337	2
2023-09-03T06:00	29274	14	-49.3	-83.6	331	2
2023-09-03T06:00	29291	14	-49.4	-83.7	336	2
2023-09-03T06:00	29334	14	-49.3	-83.6	346	2
2023-09-03T06:00	29372	14	-49.5	-83.7	358	3
2023-09-03T06:00	29392	14	-49.5	-83.7	7	4
2023-09-03T06:00	29427	14	-49.4	-83.7	15	4
2023-09-03T06:00	29454	14	-49.3	-83.6	21	5
2023-09-03T06:00	29477	14	-49.2	-83.5	25	5
2023-09-03T06:00	29527	13	-49.2	-83.5	27	6
2023-09-03T06:00	29557	13	-49.1	-83.4	27	6
2023-09-03T06:00	29576	13	-49.0	-83.4	27	7
2023-09-03T06:00	29609	13	-48.8	-83.2	25	7
2023-09-03T06:00	29635	13	-48.8	-84.1	23	7
2023-09-03T06:00	29661	13	-48.7	-84.1	21	8
2023-09-03T06:00	29704	13	-48.6		19	8
2023-09-03T06:00	29729	13	-48.5	-83.9	16	8
2023-09-03T06:00	29755	13	-48.5	-83.9	13	8
2023-09-03T06:00	29778	13	-48.3	-83.8	11	8
2023-09-03T06:00	29813	13	-48.2	-83.7	8	8
2023-09-03T06:00	29842	13	-48.1	-83.6	6	8
2023-09-03T06:00	29871	13	-48.1	-83.6	4	8
2023-09-03T06:00	29910	13	-47.9	-83.5	4	8
2023-09-03T06:00	29944	13	-47.6	-83.3	5	9
2023-09-03T06:00	29961	13	-47.5	-83.2	8	9
2023-09-03T06:00	30008	13	-47.5	-83.2	12	9
2023-09-03T06:00	30026	12	-47.2	-83.0	16	9
2023-09-03T06:00	30061	12	-46.9	-82.8	21	9
2023-09-03T06:00	30076	12	-46.8	-82.7	25	10
2023-09-03T06:00	30102	12	-47.0	-82.9	28	10
2023-09-03T06:00	30148	12	-47.1	-82.9	31	11
2023-09-03T06:00	30168	12	-47.0	-82.9	34	11
2023-09-03T06:00	30214	12	-47.0	-82.9	37	12
2023-09-03T06:00	30228	12	-47.0	-82.9	39	13
2023-09-03T06:00	30263	12	-47.1	-82.9	42	13
2023-09-03T06:00	30301	12	-47.2	-83.0	45	14
2023-09-03T06:00	30327	12	-47.2	-83.0	49	14
2023-09-03T06:00	30361	12	-47.1	-82.9	52	14
2023-09-03T06:00	30420	12	-47.0	-82.9	55	14
2023-09-03T06:00	30444	12	-47.1	-82.9	58	13
2023-09-03T06:00	30471	12	-47.2	-83.0	60	13
2023-09-03T06:00	30504	12	-47.3	-83.1	61	12
2023-09-03T06:00	30538	12	-47.5	-83.2	61	11
2023-09-03T06:00	30579	11	-47.7	-82.4	61	10
2023-09-03T06:00	30612	11	-48.0	-82.7	60	10
2023-09-03T06:00	30643	11	-48.3	-82.9	57	9
2023-09-03T06:00	30682	11	-48.5	-83.0	54	8
2023-09-03T06:00	30725	11	-48.6	-83.1	48	7
2023-09-03T06:00	30767	11	-48.7	-83.2	41	6
2023-09-03T06:00	30801	11	-48.8	-83.2	33	5
2023-09-03T06:00	30828	11	-48.9	-83.3	26	5
2023-09-03T06:00	30875	11	-48.9	-83.3	19	5
2023-09-03T06:00	30883	11	-49.0	-83.4	12	5
2023-09-03T06:00	30928	11	-49.0	-83.4	6	6
2023-09-03T06:00	30972	11	-48.9	-83.3	1	6
2023-09-03T06:00	30998	11	-48.8	-83.2	356	7
2023-09-03T06:00	31024	11	-48.9	-83.3	352	7
2023-09-03T06:00	31073	11	-49.0	-83.4	349	8
2023-09-03T06:00	31092	11	-49.1	-83.4	348	8
2023-09-03T06:00	31117	11	-49.1	-83.4	348	9
2023-09-03T06:00	31161	11	-49.2	-83.5	350	9
2023-09-03T06:00	31196	10	-49.4	-83.7	354	9
2023-09-03T06:00	31236	10	-49.2	-83.5	0	10
2023-09-03T06:00	31264	10	-48.8	-84.1	7	10
2023-09-03T06:00	31313	10	-48.5	-83.9	14	10
2023-09-03T06:00	31322	10	-48.3	-83.8	20	10
2023-09-03T06:00	31363	10	-48.2	-83.7	26	11
2023-09-03T06:00	31368	10	-48.1	-83.6	32	11
2023-09-03T06:00	31415	10	-48.1	-83.6	38	12
2023-09-03T06:00	31461	10	-48.1	-83.6	44	12
2023-09-03T06:00	31475	10	-47.9	-83.5	49	13
2023-09-03T06:00	31505	10	-47.8	-83.4	55	13
2023-09-03T06:00	31534	10	-47.7	-83.4	60	13
2023-09-03T06:00	31569	10	-47.5	-83.2	64	13
2023-09-03T06:00	31611	10	-47.3	-83.1	67	12
2023-09-03T06:00	31660	10	-47.2	-83.0	72	12
2023-09-03T06:00	31695	10	-47.3	-83.1	74	11
2023-09-03T06:00	31722	10	-47.4	-83.1	75	11
2023-09-03T06:00	31748	10	-47.3	-83.1	75	10
2023-09-03T06:00	31767	10	-47.3	-83.1	75	9
2023-09-03T06:00	31817	10	-47.3	-83.1	74	9
2023-09-03T06:00	31830	10	-47.3	-83.1	72	8
2023-09-03T06:00	31859	9	-47.2	-83.0	69	7
2023-09-03T06:00	31889	9	-47.2	-83.0	66	7
2023-09-03T06:00	31913	9	-47.2	-83.0	65	7
2023-09-03T06:00	31950	9	-47.1	-82.9	65	7
2023-09-03T06:00	31973	9	-46.9	-82.8	66	8
2023-09-03T06:00	31991	9	-46.7	-82.6	66	9
2023-09-03T06:00	32044	9	-46.7	-82.6	66	9
2023-09-03T06:00	32081	9	-46.7	-83.7	65	10
2023-09-03T06:00	32085	9	-46.5	-83.6	65	10
2023-09-03T06:00	32103	9	-46.4	-83.5	64	10
2023-09-03T06:00	32159	9	-46.2	-83.4	65	10
2023-09-03T06:00	32177	9	-46.2	-83.4	67	10
2023-09-03T06:00	32219	9	-46.1	-83.3	69	10
2023-09-03T06:00	32267	9	-46.0	-83.2	71	10
2023-09-03T06:00	32280	9	-46.1	-83.3	73	10
2023-09-03T06:00	32310	9	-46.0	-83.2	75	9
2023-09-03T06:00	32349	9	-46.0	-83.2	76	9
2023-09-03T06:00	32377	9	-46.0	-83.2	77	8
2023-09-03T06:00	32415	9	-46.1	-83.3	78	8
2023-09-03T06:00	32451	9	-46.2	-83.4	79	7
2023-09-03T06:00	32481	9	-46.2	-82.3	78	7
2023-09-03T06:00	32512	9	-46.2	-82.3	76	7
2023-09-03T06:00	32533	9	-46.3	-82.4	72	7
2023-09-03T06:00	32571	8	-46.4	-82.4	68	7
2023-09-03T06:00	32610	8	-46.5	-82.5	64	7
2023-09-03T06:00	32621	8	-46.5	-82.5	60	7
2023-09-03T06:00	32670	8	-46.4	-82.4	56	7
2023-09-03T06:00	32699	8	-46.3	-82.4	52	7
2023-09-03T06:00	32733	8	-46.3	-82.4	49	7
2023-09-03T06:00	32757	8	-46.4	-82.4	46	7
2023-09-03T06:00	32816	8	-46.6	-82.6	45	7
2023-09-03T06:00	32861	8	-46.8	-82.7	47	8
2023-09-03T06:00	32897	8	-46.8	-82.7	49	8
2023-09-03T06:00	32932	8	-46.7	-82.6	51	8
2023-09-03T06:00	32977	8	-46.5	-83.6	53	8
2023-09-03T06:00	32995	8	-46.2	-83.4	55	8
2023-09-03T06:00	33007	8	-45.9	-83.2	57	8
2023-09-03T06:00	33069	8	-45.4	-82.8	57	8
2023-09-03T06:00	33070	8	-45.0	-82.5	57	9
2023-09-03T06:00	33105	8	-44.7	-82.3	55	9
2023-09-03T06:00	33135	8	-44.3	-82.0	53	10
2023-09-03T06:00	33163	8	-44.1	-81.9	53	11
2023-09-03T06:00	33216	8	-43.8	-81.7	53	12
2023-09-03T06:00	33234	8	-43.4	-81.4	54	13
2023-09-03T06:00	33272	8	-42.6	-80.8	55	14
2023-09-03T06:00	33300	8	-41.9	-80.4	55	14
2023-09-03T06:00	33307	8	-41.6	-80.1	56	14
2023-09-03T06:00	33342	8	-41.7	-80.2	57	14
2023-09-03T06:00	33354	8	-41.7	-80.2	58	14
2023-09-03T06:00	33400	8	-41.7	-80.2	59	13
2023-09-03T06:00	33414	7	-41.8	-80.3	61	13
2023-09-03T06:00	33446	7	-42.1	-80.5	62	13
2023-09-03T06:00	33476	7	-42.4	-80.7	63	12
2023-09-03T06:00	33495	7	-42.6	-80.8	65	12
2023-09-03T06:00	33521	7	-42.7	-80.9	67	12
2023-09-03T06:00	33582	7	-42.8	-81.0	70	11
2023-09-03T06:00	33593	7	-42.6	-80.8	76	10
2023-09-03T06:00	33639	7	-42.3	-80.6	79	10
2023-09-03T06:00	33676	7	-42.2	-80.6	81	9
2023-09-03T06:00	33692	7	-42.0	-80.4	82	7
2023-09-03T06:00	33730	7	-42.0	-80.4	81	6
2023-09-03T06:00	33762	7	-42.0	-80.4	79	6
2023-09-03T06:00	33790	7	-42.0	-80.4	76	5
2023-09-03T06:00	33821	7	-41.9	-80.4	74	5
2023-09-03T06:00	33851	7	-41.6	-80.1	74	5
2023-09-03T06:00	33882	7	-41.3	-79.9	74	6
2023-09-03T06:00	33927	7	-40.2	-79.2	77	7
2023-09-03T06:00	33977	7	-39.9	-79.0	78	7
2023-09-03T06:00	34011	7	-39.8	-78.9	80	7
2023-09-03T06:00	34101	7	-40.0	-79.0	88	8
2023-09-03T06:00	34106	7	-39.9	-79.0	95	8
2023-09-03T06:00	34128	7	-39.8	-78.9	98	7
2023-09-03T06:00	34172	7	-39.8	-78.9	102	7
2023-09-03T06:00	34194	7	-39.8	-78.9	104	6
2023-09-03T06:00	34229	7	-39.8	-78.9	105	5
2023-09-03T06:00	34284	7	-39.7	-78.8	104	4
2023-09-03T06:00	34293	7	-39.7	-78.8	101	4
2023-09-03T06:00	34342	7	-39.7	-78.8	97	3
2023-09-03T06:00	34398	7	-39.9	-79.0	92	2
2023-09-03T06:00	34426	6	-39.8	-78.9	90	2
2023-09-03T06:00	34431	6	-39.8	-78.9	86	2
2023-09-03T06:00	34507	6	-40.0	-79.0	80	2
2023-09-03T06:00	34537	6	-40.1	-79.1	73	2
2023-09-03T06:00	34568	6	-40.2	-79.2	67	3
2023-09-03T06:00	34587	6	-40.2	-79.2	64	4
2023-09-03T06:00	34637	6	-40.4	-79.3	62	5
2023-09-03T06:00	34649	6	-40.6	-79.5	61	5
2023-09-03T06:00	34725	6	-40.8	-79.6	60	6
2023-09-03T06:00	34754	6	-41.1	-79.8	58	8
2023-09-03T06:00	34789	6	-41.2	-79.9	57	9
2023-09-03T06:00	34824	6	-41.2	-79.9	57	9
2023-09-03T06:00	34835	6	-41.2	-79.9	57	9
2023-09-03T06:00	34898	6	-41.1	-79.8	57	10
2023-09-03T06:00	34939	6	-41.1	-79.8	55	10
2023-09-03T06:00	34961	6	-41.1	-79.8	55	10
2023-09-03T06:00	35006	6	-41.1	-79.8	55	10
2023-09-03T06:00	35059	6	-41.0	-79.7	56	10
2023-09-03T06:00	35083	6	-40.9	-79.7	58	10
2023-09-03T06:00	35143	6	-40.7	-79.5	60	10
2023-09-03T06:00	35196	6	-40.3	-79.2	63	10
2023-09-03T12:00	-999					
2023-09-03T12:00	130	1011	18.0	10.7	295	4
2023-09-03T12:00	153	1008	17.5	10.5	295	5
2023-09-03T12:00	171	1005	17.2	10.1	296	6
2023-09-03T12:00	197	1002	17.1	10.4	297	6
2023-09-03T12:00	226	999	16.8	10.3	297	6
2023-09-03T12:00	251	996	16.5	9.9	296	6
2023-09-03T12:00	278	993	16.3	10.2	295	6
2023-09-03T12:00	298	991	16.1	10.0	293	6
2023-09-03T12:00	326	988	15.9	10.3	292	6
2023-09-03T12:00	349	985	15.7	10.3	293	6
2023-09-03T12:00	375	982	15.4	10.2	295	5
2023-09-03T12:00	396	979	15.2	10.2	296	5
2023-09-03T12:00	422	977	14.9	10.1	297	5
2023-09-03T12:00	451	973	14.7	10.0	296	5
2023-09-03T12:00	471	971	14.5	10.0	294	5
2023-09-03T12:00	497	968	14.2	9.8	292	5
2023-09-03T12:00	518	965	14.0	9.5	292	5
2023-09-03T12:00	542	963	13.8	9.4	294	5
2023-09-03T12:00	564	960	13.6	9.5	297	5
2023-09-03T12:00	586	958	13.4	9.5	300	5
2023-09-03T12:00	606	955	13.2	9.4	301	5
2023-09-03T12:00	628	953	13.0	9.0	301	6
2023-09-03T12:00	648	951	12.8	9.0	300	6
2023-09-03T12:00	677	948	12.5	8.7	299	6
2023-09-03T12:00	698	945	12.3	8.9	299	6
2023-09-03T12:00	721	942	12.1	9.0	299	6
2023-09-03T12:00	745	940	11.8	9.0	300	7
2023-09-03T12:00	774	937	11.6	8.6	301	7
2023-09-03T12:00	802	934	11.4	8.6	301	7
2023-09-03T12:00	822	931	11.1	8.8	301	7
2023-09-03T12:00	851	928	10.9	8.7	301	7
2023-09-03T12:00	878	925	10.7	8.3	300	7
2023-09-03T12:00	909	922	10.4	8.3	300	7
2023-09-03T12:00	937	919	10.2	7.9	300	7
2023-09-03T12:00	962	916	9.9	7.7	300	7
2023-09-03T12:00	990	913	9.7	7.1	301	7
2023-09-03T12:00	1023	909	9.7	6.2	302	7
2023-09-03T12:00	1054	906	9.9	4.7	304	7
2023-09-03T12:00	1084	903	9.8	3.9	305	6
2023-09-03T12:00	1107	900	9.9	3.7	307	6
2023-09-03T12:00	1131	897	9.6	3.7	308	6
2023-09-03T12:00	1152	895	9.4	3.7	309	6
2023-09-03T12:00	1172	893	9.3	3.6	309	5
2023-09-03T12:00	1193	891	9.1	3.5	308	5
2023-09-03T12:00	1216	888	8.9	3.3	308	5
2023-09-03T12:00	1239	885	8.8	3.1	308	5
2023-09-03T12:00	1267	883	8.8	2.7	310	5
2023-09-03T12:00	1294	880	8.6	2.8	311	6
2023-09-03T12:00	1321	877	8.4	3.0	313	6
2023-09-03T12:00	1342	875	8.2	2.9	313	6
2023-09-03T12:00	1363	872	8.2	2.8	313	6
2023-09-03T12:00	1390	870	8.0	2.7	312	6
2023-09-03T12:00	1415	867	8.0	2.8	310	5
2023-09-03T12:00	1441	864	8.0	2.6	307	5
2023-09-03T12:00	1468	861	7.9	2.5	303	5
2023-09-03T12:00	1497	858	7.7	2.3	299	4
2023-09-03T12:00	1525	856	7.6	2.0	295	4
2023-09-03T12:00	1546	853	7.4	2.0	292	4
2023-09-03T12:00	1569	851	7.3	1.9	290	4
2023-09-03T12:00	1596	848	7.1	1.9	290	4
2023-09-03T12:00	1619	846	6.9	1.7	290	4
2023-09-03T12:00	1650	843	6.7	1.5	292	4
2023-09-03T12:00	1675	840	6.6	0.8	293	4
2023-09-03T12:00	1699	838	6.7	-0.8	296	4
2023-09-03T12:00	1729	835	6.6	-2.6	299	5
2023-09-03T12:00	1755	832	6.7	-4.1	303	5
2023-09-03T12:00	1778	830	6.6	-4.2	306	5
2023-09-03T12:00	1800	827	6.7	-4.6	307	5
2023-09-03T12:00	1817	826	7.0	-5.2	306	6
2023-09-03T12:00	1836	824	7.2	-5.9	303	6
2023-09-03T12:00	1857	822	7.3	-6.1	300	6
2023-09-03T12:00	1878	820	7.5	-6.3	298	7
2023-09-03T12:00	1900	817	7.5	-6.3	298	7
2023-09-03T12:00	1919	816	7.5	-5.3	299	7
2023-09-03T12:00	1937	814	7.3	-5.2	302	8
2023-09-03T12:00	1956	812	7.1	-5.2	305	8
2023-09-03T12:00	1978	810	6.9	-5.3	309	8
2023-09-03T12:00	1997	808	6.8	-5.3	312	8
2023-09-03T12:00	2016	806	6.7	-5.3	315	9
2023-09-03T12:00	2038	804	6.5	-5.7	316	8
2023-09-03T12:00	2057	802	6.4	-6.2	317	8
2023-09-03T12:00	2082	799	6.3	-7.2	316	7
2023-09-03T12:00	2113	797	6.3	-10.0	313	7
2023-09-03T12:00	2132	795	6.2	-10.1	311	6
2023-09-03T12:00	2153	792	6.2	-10.6	312	6
2023-09-03T12:00	2177	790	6.1	-11.9	316	7
2023-09-03T12:00	2203	788	6.1	-14.7	323	7
2023-09-03T12:00	2225	785	6.0	-15.6	330	7
2023-09-03T12:00	2249	783	5.8	-16.2	336	8
2023-09-03T12:00	2268	781	5.8	-19.2	338	8
2023-09-03T12:00	2290	779	5.7	-23.3	338	8
2023-09-03T12:00	2313	777	5.7	-24.2	335	8
2023-09-03T12:00	2337	775	5.6	-21.2	332	9
2023-09-03T12:00	2363	773	5.4	-19.3	329	9
2023-09-03T12:00	2377	771	5.4	-19.4	328	9
2023-09-03T12:00	2403	769	5.2	-19.1	328	9
2023-09-03T12:00	2428	766	5.0	-19.0	328	9
2023-09-03T12:00	2451	764	4.9	-18.9	328	10
2023-09-03T12:00	2474	762	4.8	-19.7	328	10
2023-09-03T12:00	2498	760	4.8	-20.7	329	10
2023-09-03T12:00	2526	757	4.8	-21.3	330	11
2023-09-03T12:00	2555	755	4.7	-21.7	331	11
2023-09-03T12:00	2580	752	4.6	-22.8	333	12
2023-09-03T12:00	2600	750	4.5	-22.8	333	12
2023-09-03T12:00	2621	748	4.4	-22.5	331	12
2023-09-03T12:00	2642	746	4.2	-22.2	329	12
2023-09-03T12:00	2666	744	4.1	-22.1	328	11
2023-09-03T12:00	2688	742	4.0	-21.6	327	11
2023-09-03T12:00	2706	740	3.9	-20.7	329	11
2023-09-03T12:00	2733	738	3.7	-20.3	332	11
2023-09-03T12:00	2755	736	3.6	-20.0	335	11
2023-09-03T12:00	2775	734	3.4	-20.0	337	11
2023-09-03T12:00	2798	732	3.2	-19.6	337	11
2023-09-03T12:00	2822	730	3.0	-19.2	337	12
2023-09-03T12:00	2847	728	2.9	-22.0	336	11
2023-09-03T12:00	2871	725	2.8	-24.2	335	11
2023-09-03T12:00	2913	722	2.5	-26.8	335	11
2023-09-03T12:00	2941	719	2.4	-29.2	335	11
2023-09-03T12:00	2963	717	2.2	-30.2	336	11
2023-09-03T12:00	2988	715	2.2	-31.8	336	11
2023-09-03T12:00	3016	713	2.0	-31.1	336	11
2023-09-03T12:00	3040	711	1.9	-30.6	335	11
2023-09-03T12:00	3062	709	1.8	-29.9	333	11
2023-09-03T12:00	3084	706	1.7	-28.7	330	11
2023-09-03T12:00	3119	704	1.6	-28.3	328	12
2023-09-03T12:00	3145	701	1.4	-28.5	327	12
2023-09-03T12:00	3165	700	1.3	-28.5	327	13
2023-09-03T12:00	3191	697	1.2	-29.0	329	13
2023-09-03T12:00	3220	695	1.0	-29.2	330	13
2023-09-03T12:00	3246	693	0.8	-29.0	332	13
2023-09-03T12:00	3274	690	0.6	-29.3	333	13
2023-09-03T12:00	3295	688	0.5	-29.5	333	13
2023-09-03T12:00	3320	686	0.3	-29.5	332	13
2023-09-03T12:00	3341	684	0.1	-29.8	330	12
2023-09-03T12:00	3367	682	0.1	-30.0	328	12
2023-09-03T12:00	3387	681	0.0	-29.7	327	12
2023-09-03T12:00	3408	679	-0.2	-30.0	327	12
2023-09-03T12:00	3436	677	-0.3	-30.0	328	12
2023-09-03T12:00	3459	674	-0.4	-28.1	330	12
2023-09-03T12:00	3480	673	-0.6	-26.0	332	13
2023-09-03T12:00	3506	670	-0.7	-18.6	333	13
2023-09-03T12:00	3535	668	-0.8	-13.1	334	14
2023-09-03T12:00	3564	666	-1.1	-10.6	335	14
2023-09-03T12:00	3587	664	-1.3	-10.6	337	14
2023-09-03T12:00	3606	662	-1.6	-10.4	339	15
2023-09-03T12:00	3636	660	-1.8	-10.0	341	15
2023-09-03T12:00	3656	658	-2.0	-10.0	342	15
2023-09-03T12:00	3673	656	-2.1	-9.6	342	15
2023-09-03T12:00	3705	654	-2.3	-9.7	341	15
2023-09-03T12:00	3732	652	-2.6	-10.2	339	15
2023-09-03T12:00	3750	650	-2.7	-10.2	336	15
2023-09-03T12:00	3769	649	-2.9	-10.2	334	15
2023-09-03T12:00	3792	647	-3.1	-10.2	332	15
2023-09-03T12:00	3817	645	-3.3	-10.4	330	15
2023-09-03T12:00	3845	643	-3.6	-10.6	329	15
2023-09-03T12:00	3869	640	-3.7	-11.1	329	16
2023-09-03T12:00	3900	638	-4.0	-11.3	329	16
2023-09-03T12:00	3918	636	-4.1	-11.5	330	16
2023-09-03T12:00	3942	634	-4.3	-11.9	332	17
2023-09-03T12:00	3975	632	-4.6	-12.6	333	17
2023-09-03T12:00	3994	630	-4.7	-12.9	335	18
2023-09-03T12:00	4014	629	-4.9	-13.4	335	18
2023-09-03T12:00	4035	627	-5.1	-13.5	336	18
2023-09-03T12:00	4053	626	-5.2	-13.4	335	17
2023-09-03T12:00	4079	624	-5.4	-13.3	335	17
2023-09-03T12:00	4108	622	-5.7	-13.1	334	17
2023-09-03T12:00	4125	620	-5.9	-12.5	332	18
2023-09-03T12:00	4152	618	-6.1	-11.9	330	18
2023-09-03T12:00	4172	616	-6.2	-11.8	329	19
2023-09-03T12:00	4189	615	-6.4	-11.8	329	20
2023-09-03T12:00	4208	613	-6.5	-11.6	330	20
2023-09-03T12:00	4235	611	-6.7	-11.4	331	21
2023-09-03T12:00	4258	610	-6.9	-12.0	334	21
2023-09-03T12:00	4274	608	-6.9	-12.5	335	21
2023-09-03T12:00	4305	606	-7.0	-11.6	337	22
2023-09-03T12:00	4329	604	-6.9	-9.5	338	22
2023-09-03T12:00	4347	603	-6.9	-7.9	339	22
2023-09-03T12:00	4370	601	-7.0	-7.4	340	23
2023-09-03T12:00	4396	599	-6.7	-6.7	340	24
2023-09-03T12:00	4424	597	-6.1	-6.4	341	25
2023-09-03T12:00	4444	595	-5.7	-6.3	341	26
2023-09-03T12:00	4474	593	-5.9	-6.2	342	26
2023-09-03T12:00	4493	592	-5.7	-6.2	342	26
2023-09-03T12:00	4514	590	-5.4	-6.2	342	25
2023-09-03T12:00	4542	588	-5.4	-6.2	342	25
2023-09-03T12:00	4569	586	-5.5	-6.5	342	26
2023-09-03T12:00	4591	584	-5.4	-6.7	342	26
2023-09-03T12:00	4614	582	-5.3	-6.7	343	26
2023-09-03T12:00	4646	580	-5.4	-6.6	344	27
2023-09-03T12:00	4675	578	-5.4	-6.8	345	27
2023-09-03T12:00	4698	576	-5.6	-6.7	346	27
2023-09-03T12:00	4734	574	-5.8	-6.7	347	28
2023-09-03T12:00	4756	572	-5.9	-6.9	347	28
2023-09-03T12:00	4778	570	-6.0	-7.0	348	28
2023-09-03T12:00	4803	569	-6.1	-7.2	348	29
2023-09-03T12:00	4819	567	-6.1	-7.3	348	29
2023-09-03T12:00	4840	566	-6.0	-7.5	348	30
2023-09-03T12:00	4859	564	-6.1	-7.5	349	30
2023-09-03T12:00	4885	563	-6.3	-7.3	349	30
2023-09-03T12:00	4915	561	-6.5	-7.4	349	30
2023-09-03T12:00	4941	559	-6.6	-7.4	349	30
2023-09-03T12:00	4961	557	-6.8	-7.4	348	31
2023-09-03T12:00	4995	555	-7.0	-7.6	348	31
2023-09-03T12:00	5025	553	-7.1	-7.8	348	31
2023-09-03T12:00	5049	551	-7.1	-7.9	348	32
2023-09-03T12:00	5076	549	-7.2	-8.4	348	32
2023-09-03T12:00	5101	547	-7.3	-8.6	349	32
2023-09-03T12:00	5131	545	-7.2	-8.7	350	32
2023-09-03T12:00	5149	544	-7.3	-8.6	351	32
2023-09-03T12:00	5180	542	-7.5	-8.6	351	32
2023-09-03T12:00	5204	540	-7.6	-8.8	351	31
2023-09-03T12:00	5229	538	-7.8	-9.0	350	31
2023-09-03T12:00	5261	536	-8.0	-9.4	350	30
2023-09-03T12:00	5287	534	-8.0	-9.5	350	29
2023-09-03T12:00	5308	533	-8.1	-9.9	350	29
2023-09-03T12:00	5337	531	-8.3	-10.2	350	29
2023-09-03T12:00	5363	529	-8.3	-10.4	350	29
2023-09-03T12:00	5395	527	-8.4	-10.6	350	29
2023-09-03T12:00	5416	526	-8.5	-10.8	349	29
2023-09-03T12:00	5436	524	-8.6	-10.8	350	29
2023-09-03T12:00	5454	523	-8.7	-10.8	351	30
2023-09-03T12:00	5473	522	-8.7	-10.9	352	30
2023-09-03T12:00	5495	520	-8.8	-11.0	352	31
2023-09-03T12:00	5526	518	-8.9	-11.4	353	32
2023-09-03T12:00	5549	517	-8.4	-11.9	353	33
2023-09-03T12:00	5573	515	-8.5	-12.0	352	34
2023-09-03T12:00	5588	514	-8.6	-12.0	352	34
2023-09-03T12:00	5608	513	-8.4	-12.5	353	34
2023-09-03T12:00	5626	512	-8.3	-12.8	353	34
2023-09-03T12:00	5649	510	-8.3	-12.9	354	34
2023-09-03T12:00	5676	508	-8.4	-13.2	354	34
2023-09-03T12:00	5697	507	-8.6	-13.4	354	34
2023-09-03T12:00	5720	505	-8.7	-13.3	354	34
2023-09-03T12:00	5751	503	-9.0	-13.5	354	34
2023-09-03T12:00	5784	501	-9.3	-13.6	354	33
2023-09-03T12:00	5810	500	-9.5	-13.6	354	33
2023-09-03T12:00	5837	498	-9.7	-13.4	354	33
2023-09-03T12:00	5859	496	-9.9	-13.4	355	33
2023-09-03T12:00	5887	495	-10.2	-13.6	356	33
2023-09-03T12:00	5912	493	-10.4	-13.7	356	33
2023-09-03T12:00	5939	491	-10.6	-13.7	357	34
2023-09-03T12:00	5963	490	-10.9	-13.8	356	34
2023-09-03T12:00	5993	488	-11.2	-14.1	356	34
2023-09-03T12:00	6026	486	-11.4	-14.0	355	34
2023-09-03T12:00	6046	485	-11.7	-13.7	354	34
2023-09-03T12:00	6067	483	-11.8	-13.8	353	34
2023-09-03T12:00	6100	481	-11.8	-14.5	353	34
2023-09-03T12:00	6130	479	-11.9	-15.0	352	34
2023-09-03T12:00	6149	478	-12.0	-15.1	352	34
2023-09-03T12:00	6172	477	-12.2	-15.2	352	33
2023-09-03T12:00	6191	475	-12.4	-15.1	353	33
2023-09-03T12:00	6212	474	-12.6	-15.0	353	33
2023-09-03T12:00	6231	473	-12.7	-15.0	353	33
2023-09-03T12:00	6254	471	-12.9	-15.2	353	33
2023-09-03T12:00	6283	470	-13.2	-15.4	353	33
2023-09-03T12:00	6317	468	-13.5	-15.4	353	34
2023-09-03T12:00	6339	466	-13.7	-15.7	353	34
2023-09-03T12:00	6359	465	-13.8	-15.6	353	34
2023-09-03T12:00	6381	464	-14.1	-15.7	353	34
2023-09-03T12:00	6405	462	-14.3	-15.8	354	34
2023-09-03T12:00	6429	461	-14.5	-15.9	354	33
2023-09-03T12:00	6449	459	-14.7	-15.7	354	33
2023-09-03T12:00	6479	458	-14.9	-15.8	354	33
2023-09-03T12:00	6514	456	-15.0	-15.9	354	33
2023-09-03T12:00	6539	454	-15.2	-16.1	354	33
2023-09-03T12:00	6561	453	-15.4	-16.2	354	33
2023-09-03T12:00	6583	452	-15.5	-16.3	354	34
2023-09-03T12:00	6603	450	-15.6	-16.6	354	34
2023-09-03T12:00	6624	449	-15.7	-16.9	353	34
2023-09-03T12:00	6649	448	-15.8	-16.9	353	34
2023-09-03T12:00	6681	446	-16.0	-17.2	352	34
2023-09-03T12:00	6710	444	-16.1	-17.7	352	34
2023-09-03T12:00	6734	442	-16.3	-17.9	351	34
2023-09-03T12:00	6765	441	-16.4	-18.1	351	35
2023-09-03T12:00	6793	439	-16.6	-18.5	351	35
2023-09-03T12:00	6822	437	-16.8	-18.6	351	35
2023-09-03T12:00	6854	436	-17.0	-18.9	351	35
2023-09-03T12:00	6887	434	-17.2	-19.3	352	35
2023-09-03T12:00	6923	432	-17.4	-19.7	353	35
2023-09-03T12:00	6952	430	-17.5	-19.9	353	35
2023-09-03T12:00	6977	428	-17.8	-20.0	354	36
2023-09-03T12:00	7007	427	-18.1	-20.0	355	37
2023-09-03T12:00	7031	425	-18.3	-20.3	355	37
2023-09-03T12:00	7049	424	-18.4	-20.3	355	37
2023-09-03T12:00	7068	423	-18.5	-20.3	355	37
2023-09-03T12:00	7086	422	-18.6	-20.7	356	37
2023-09-03T12:00	7106	421	-18.7	-21.0	356	36
2023-09-03T12:00	7133	420	-18.7	-21.5	355	36
2023-09-03T12:00	7163	418	-18.9	-21.7	355	36
2023-09-03T12:00	7189	417	-19.1	-21.7	354	36
2023-09-03T12:00	7211	415	-19.3	-22.1	354	36
2023-09-03T12:00	7237	414	-19.3	-22.6	354	36
2023-09-03T12:00	7269	412	-19.5	-22.6	353	36
2023-09-03T12:00	7301	410	-19.8	-22.8	353	36
2023-09-03T12:00	7337	408	-20.2	-23.1	353	35
2023-09-03T12:00	7364	407	-20.4	-23.2	353	35
2023-09-03T12:00	7386	405	-20.6	-23.2	353	35
2023-09-03T12:00	7416	404	-20.8	-23.2	354	34
2023-09-03T12:00	7444	402	-21.1	-23.4	354	34
2023-09-03T12:00	7469	401	-21.4	-23.5	355	34
2023-09-03T12:00	7503	399	-21.6	-23.5	356	34
2023-09-03T12:00	7535	397	-21.9	-23.6	356	34
2023-09-03T12:00	7565	396	-22.2	-24.0	356	35
2023-09-03T12:00	7595	394	-22.3	-24.4	356	35
2023-09-03T12:00	7622	393	-22.5	-24.8	355	35
2023-09-03T12:00	7651	391	-22.7	-24.9	355	35
2023-09-03T12:00	7684	390	-22.9	-25.0	355	35
2023-09-03T12:00	7716	388	-23.2	-25.5	355	35
2023-09-03T12:00	7751	386	-23.4	-26.0	356	36
2023-09-03T12:00	7777	385	-23.6	-26.1	356	36
2023-09-03T12:00	7808	383	-23.8	-26.3	357	36
2023-09-03T12:00	7830	382	-23.9	-26.4	357	37
2023-09-03T12:00	7859	380	-24.1	-26.6	357	37
2023-09-03T12:00	7887	379	-24.3	-26.5	356	37
2023-09-03T12:00	7917	377	-24.5	-26.6	356	37
2023-09-03T12:00	7953	375	-24.8	-26.8	355	37
2023-09-03T12:00	7988	374	-24.9	-27.2	355	38
2023-09-03T12:00	8017	372	-25.1	-27.4	355	38
2023-09-03T12:00	8047	371	-25.3	-27.7	355	38
2023-09-03T12:00	8077	369	-25.5	-27.8	355	38
2023-09-03T12:00	8108	367	-25.7	-28.3	356	38
2023-09-03T12:00	8141	366	-25.9	-28.4	357	39
2023-09-03T12:00	8170	364	-26.2	-28.5	357	39
2023-09-03T12:00	8197	363	-26.4	-28.7	358	38
2023-09-03T12:00	8221	362	-26.6	-28.9	358	38
2023-09-03T12:00	8244	361	-26.8	-29.1	358	38
2023-09-03T12:00	8272	359	-27.0	-29.3	358	37
2023-09-03T12:00	8306	358	-27.3	-29.7	358	36
2023-09-03T12:00	8335	356	-27.6	-29.7	358	35
2023-09-03T12:00	8358	355	-27.8	-29.8	358	35
2023-09-03T12:00	8386	354	-28.0	-30.1	358	35
2023-09-03T12:00	8413	352	-28.2	-30.2	358	34
2023-09-03T12:00	8442	351	-28.3	-30.9	358	34
2023-09-03T12:00	8465	350	-28.4	-31.3	358	34
2023-09-03T12:00	8493	348	-28.6	-31.5	358	35
2023-09-03T12:00	8522	347	-28.8	-32.0	358	35
2023-09-03T12:00	8546	346	-28.9	-32.3	358	35
2023-09-03T12:00	8575	344	-29.1	-32.5	357	36
2023-09-03T12:00	8603	343	-29.3	-32.8	357	36
2023-09-03T12:00	8629	342	-29.5	-33.2	357	36
2023-09-03T12:00	8655	341	-29.6	-33.4	357	36
2023-09-03T12:00	8680	339	-29.8	-33.7	356	36
2023-09-03T12:00	8712	338	-30.0	-34.0	356	36
2023-09-03T12:00	8740	336	-30.2	-35.0	356	36
2023-09-03T12:00	8775	335	-30.4	-35.0	356	37
2023-09-03T12:00	8809	333	-30.7	-35.3	356	37
2023-09-03T12:00	8845	332	-30.9	-35.7	356	37
2023-09-03T12:00	8871	330	-31.1	-35.6	356	37
2023-09-03T12:00	8896	329	-31.3	-36.1	356	37
2023-09-03T12:00	8918	328	-31.4	-36.2	356	37
2023-09-03T12:00	8945	327	-31.7	-36.6	356	37
2023-09-03T12:00	8974	326	-31.9	-37.2	356	38
2023-09-03T12:00	9004	324	-32.1	-37.4	356	38
2023-09-03T12:00	9038	323	-32.3	-37.3	356	38
2023-09-03T12:00	9070	321	-32.5	-37.5	356	39
2023-09-03T12:00	9101	320	-32.8	-37.0	356	39
2023-09-03T12:00	9134	318	-33.0	-37.1	356	40
2023-09-03T12:00	9169	317	-33.2	-37.5	357	40
2023-09-03T12:00	9197	315	-33.4	-37.7	357	40
2023-09-03T12:00	9224	314	-33.6	-38.1	358	41
2023-09-03T12:00	9248	313	-33.7	-38.3	358	41
2023-09-03T12:00	9273	312	-33.9	-38.1	358	41
2023-09-03T12:00	9298	311	-34.0	-38.1	358	41
2023-09-03T12:00	9322	310	-34.2	-38.4	358	41
2023-09-03T12:00	9345	309	-34.4	-38.6	358	41
2023-09-03T12:00	9375	308	-34.6	-38.8	359	42
2023-09-03T12:00	9401	306	-34.8	-39.1	359	42
2023-09-03T12:00	9428	305	-34.9	-39.0	0	43
2023-09-03T12:00	9462	304	-35.1	-39.1	1	43
2023-09-03T12:00	9493	302	-35.3	-39.1	1	44
2023-09-03T12:00	9519	301	-35.4	-38.6	1	44
2023-09-03T12:00	9550	300	-35.5	-38.3	2	45
2023-09-03T12:00	9588	298	-35.5	-38.3	1	45
2023-09-03T12:00	9622	297	-35.6	-38.4	1	45
2023-09-03T12:00	9656	295	-35.9	-38.9	1	45
2023-09-03T12:00	9684	294	-36.1	-39.0	0	44
2023-09-03T12:00	9715	293	-36.4	-39.4	360	44
2023-09-03T12:00	9747	292	-36.6	-39.6	359	44
2023-09-03T12:00	9776	290	-36.8	-39.9	359	44
2023-09-03T12:00	9809	289	-37.1	-40.1	359	43
2023-09-03T12:00	9839	288	-37.3	-40.6	359	43
2023-09-03T12:00	9867	286	-37.5	-40.7	359	43
2023-09-03T12:00	9900	285	-37.7	-41.0	359	43
2023-09-03T12:00	9930	284	-38.0	-41.4	359	43
2023-09-03T12:00	9961	283	-38.2	-41.5	360	43
2023-09-03T12:00	9987	282	-38.4	-41.5	360	43
2023-09-03T12:00	10016	280	-38.6	-41.6	360	43
2023-09-03T12:00	10042	279	-38.8	-41.7	0	43
2023-09-03T12:00	10074	278	-39.1	-41.9	1	43
2023-09-03T12:00	10105	277	-39.3	-42.2	1	43
2023-09-03T12:00	10138	275	-39.5	-42.5	2	43
2023-09-03T12:00	10163	274	-39.6	-42.7	2	43
2023-09-03T12:00	10184	274	-39.7	-42.6	3	43
2023-09-03T12:00	10207	273	-39.8	-42.5	3	43
2023-09-03T12:00	10230	272	-40.0	-42.8	3	43
2023-09-03T12:00	10253	271	-40.2	-42.9	4	43
2023-09-03T12:00	10275	270	-40.3	-43.2	4	43
2023-09-03T12:00	10297	269	-40.5	-43.5	4	44
2023-09-03T12:00	10318	268	-40.6	-43.5	4	44
2023-09-03T12:00	10342	267	-40.7	-43.5	4	45
2023-09-03T12:00	10372	266	-40.9	-43.7	4	45
2023-09-03T12:00	10407	265	-41.2	-44.1	4	45
2023-09-03T12:00	10434	264	-41.4	-44.2	4	46
2023-09-03T12:00	10463	263	-41.5	-44.2	4	46
2023-09-03T12:00	10497	261	-41.8	-44.5	4	46
2023-09-03T12:00	10527	260	-42.0	-44.7	5	46
2023-09-03T12:00	10556	259	-42.2	-44.9	5	46
2023-09-03T12:00	10579	258	-42.4	-45.0	6	46
2023-09-03T12:00	10602	257	-42.6	-45.1	6	46
2023-09-03T12:00	10626	256	-42.8	-45.2	6	46
2023-09-03T12:00	10649	255	-43.0	-45.6	6	46
2023-09-03T12:00	10677	254	-43.2	-45.9	7	46
2023-09-03T12:00	10702	253	-43.5	-46.3	7	46
2023-09-03T12:00	10727	252	-43.6	-46.5	7	46
2023-09-03T12:00	10758	251	-43.9	-46.8	7	46
2023-09-03T12:00	10784	250	-44.1	-47.0	7	46
2023-09-03T12:00	10810	249	-44.3	-47.2	7	46
2023-09-03T12:00	10837	248	-44.6	-47.5	8	46
2023-09-03T12:00	10867	247	-44.9	-47.8	8	46
2023-09-03T12:00	10895	246	-45.1	-48.1	7	46
2023-09-03T12:00	10931	245	-45.4	-48.4	7	46
2023-09-03T12:00	10961	244	-45.7	-48.7	7	47
2023-09-03T12:00	10987	243	-45.9	-49.1	7	47
2023-09-03T12:00	11010	242	-46.1	-49.3	7	47
2023-09-03T12:00	11034	241	-46.3	-49.3	6	47
2023-09-03T12:00	11060	240	-46.5	-49.5	6	47
2023-09-03T12:00	11083	239	-46.8	-49.8	6	47
2023-09-03T12:00	11106	239	-46.9	-50.0	7	47
2023-09-03T12:00	11129	238	-47.1	-50.3	7	47
2023-09-03T12:00	11159	237	-47.4	-50.6	7	47
2023-09-03T12:00	11189	236	-47.6	-50.8	7	47
2023-09-03T12:00	11214	235	-47.8	-51.0	7	47
2023-09-03T12:00	11238	234	-47.9	-51.0	7	47
2023-09-03T12:00	11262	233	-48.0	-51.2	7	47
2023-09-03T12:00	11288	232	-48.2	-51.5	7	47
2023-09-03T12:00	11318	231	-48.4	-51.8	7	47
2023-09-03T12:00	11344	230	-48.7	-52.0	7	47
2023-09-03T12:00	11368	229	-48.9	-52.3	8	47
2023-09-03T12:00	11391	228	-49.1	-52.4	8	46
2023-09-03T12:00	11416	228	-49.4	-52.5	8	46
2023-09-03T12:00	11439	227	-49.5	-52.6	8	46
2023-09-03T12:00	11466	226	-49.8	-52.9	8	46
2023-09-03T12:00	11489	225	-50.0	-53.0	8	46
2023-09-03T12:00	11512	224	-50.1	-53.0	8	46
2023-09-03T12:00	11537	223	-50.3	-53.3	8	47
2023-09-03T12:00	11564	223	-50.6	-53.7	8	47
2023-09-03T12:00	11594	222	-50.9	-54.1	8	47
2023-09-03T12:00	11618	221	-51.1	-54.4	8	47
2023-09-03T12:00	11643	220	-51.3	-54.6	8	47
2023-09-03T12:00	11667	219	-51.5	-54.9	8	47
2023-09-03T12:00	11695	218	-51.7	-55.2	8	47
2023-09-03T12:00	11722	217	-51.9	-55.6	8	47
2023-09-03T12:00	11743	216	-52.1	-56.0	8	47
2023-09-03T12:00	11768	216	-52.3	-56.1	8	48
2023-09-03T12:00	11794	215	-52.5	-55.8	8	48
2023-09-03T12:00	11819	214	-52.8		8	48
2023-09-03T12:00	11841	213	-52.9	-53.4	8	49
2023-09-03T12:00	11862	213	-53.1	-53.1	7	49
2023-09-03T12:00	11882	212	-53.2	-53.9	7	50
2023-09-03T12:00	11900	211	-53.3	-55.1	7	50
2023-09-03T12:00	11920	211	-53.4	-56.0	7	50
2023-09-03T12:00	11939	210	-53.6	-56.7	7	50
2023-09-03T12:00	11959	209	-53.8	-57.2	7	50
2023-09-03T12:00	11981	209	-54.0	-57.4	7	50
2023-09-03T12:00	12001	208	-54.2	-57.7	7	50
2023-09-03T12:00	12020	207	-54.3	-58.2	8	51
2023-09-03T12:00	12042	207	-54.4	-58.6	8	51
2023-09-03T12:00	12063	206	-54.6	-58.6	8	51
2023-09-03T12:00	12083	205	-54.7	-57.8	8	51
2023-09-03T12:00	12102	205	-54.8	-57.5	8	52
2023-09-03T12:00	12121	204	-54.9	-57.7	8	52
2023-09-03T12:00	12140	203	-55.0	-57.9	8	52
2023-09-03T12:00	12163	203	-55.2	-57.9	8	52
2023-09-03T12:00	12182	202	-55.3	-57.7	8	53
2023-09-03T12:00	12201	202	-55.3	-57.6	8	53
2023-09-03T12:00	12221	201	-55.5	-57.4	8	53
2023-09-03T12:00	12240	200	-55.6	-57.2	8	53
2023-09-03T12:00	12261	200	-55.8	-57.5	9	53
2023-09-03T12:00	12280	199	-55.9	-58.2	9	52
2023-09-03T12:00	12303	198	-56.0	-59.2	9	52
2023-09-03T12:00	12335	197	-56.0	-60.1	9	51
2023-09-03T12:00	12356	197	-56.0	-60.6	9	50
2023-09-03T12:00	12382	196	-55.9	-60.4	8	49
2023-09-03T12:00	12411	195	-56.2	-60.1	9	48
2023-09-03T12:00	12436	194	-56.3	-59.8	9	47
2023-09-03T12:00	12462	193	-56.4	-59.6	9	46
2023-09-03T12:00	12488	193	-56.5	-59.4	9	45
2023-09-03T12:00	12517	192	-56.6	-59.1	10	44
2023-09-03T12:00	12543	191	-56.6	-58.7	10	43
2023-09-03T12:00	12570	190	-56.5	-58.4	11	42
2023-09-03T12:00	12597	189	-56.6	-58.6	11	41
2023-09-03T12:00	12626	189	-56.7	-59.0	11	40
2023-09-03T12:00	12652	188	-56.8	-59.4	11	40
2023-09-03T12:00	12677	187	-57.0	-59.9	11	39
2023-09-03T12:00	12697	186	-57.0	-60.2	10	38
2023-09-03T12:00	12725	186	-57.2	-60.8	10	37
2023-09-03T12:00	12750	185	-57.4	-61.5	9	37
2023-09-03T12:00	12781	184	-57.6	-62.3	9	36
2023-09-03T12:00	12807	183	-57.7	-62.9	8	35
2023-09-03T12:00	12829	183	-57.8	-63.1	7	35
2023-09-03T12:00	12848	182	-58.0	-63.2	7	35
2023-09-03T12:00	12870	181	-58.1	-63.2	6	35
2023-09-03T12:00	12892	181	-58.2	-63.3	5	35
2023-09-03T12:00	12912	180	-58.3	-63.5	4	35
2023-09-03T12:00	12933	180	-58.3	-63.7	3	35
2023-09-03T12:00	12956	179	-58.4	-63.9	2	34
2023-09-03T12:00	12979	178	-58.5	-64.1	1	34
2023-09-03T12:00	13002	178	-58.7	-64.4	0	34
2023-09-03T12:00	13022	177	-58.7	-64.4	359	34
2023-09-03T12:00	13046	176	-58.9	-64.7	359	34
2023-09-03T12:00	13068	176	-59.0	-64.7	358	34
2023-09-03T12:00	13089	175	-59.2	-64.7	357	33
2023-09-03T12:00	13112	175	-59.4	-64.7	357	33
2023-09-03T12:00	13135	174	-59.6	-64.7	356	33
2023-09-03T12:00	13158	173	-59.8	-65.0	355	33
2023-09-03T12:00	13181	173	-59.9	-65.4	355	33
2023-09-03T12:00	13201	172	-60.0	-65.9	354	33
2023-09-03T12:00	13223	171	-60.1	-66.5	353	33
2023-09-03T12:00	13245	171	-60.1	-67.1	352	33
2023-09-03T12:00	13264	170	-60.2	-67.6	351	33
2023-09-03T12:00	13284	170	-60.4	-68.1	351	33
2023-09-03T12:00	13306	169	-60.5	-68.6	350	33
2023-09-03T12:00	13324	169	-60.4	-68.8	350	34
2023-09-03T12:00	13346	168	-60.4	-69.1	350	34
2023-09-03T12:00	13365	168	-60.5	-69.5	350	34
2023-09-03T12:00	13387	167	-60.5	-69.8	350	35
2023-09-03T12:00	13407	166	-60.4	-69.8	350	35
2023-09-03T12:00	13427	166	-60.5	-70.0	350	36
2023-09-03T12:00	13444	165	-60.4	-69.8	350	36
2023-09-03T12:00	13466	165	-60.4	-69.6	350	37
2023-09-03T12:00	13485	164	-60.3	-69.5	350	37
2023-09-03T12:00	13505	164	-60.2	-69.7	351	38
2023-09-03T12:00	13524	163	-60.0	-70.2	351	38
2023-09-03T12:00	13546	163	-59.7	-71.0	352	38
2023-09-03T12:00	13566	162	-59.6	-72.2	353	38
2023-09-03T12:00	13587	162	-59.4	-73.5	354	38
2023-09-03T12:00	13611	161	-59.1	-74.6	355	38
2023-09-03T12:00	13632	161	-58.8	-75.4	356	38
2023-09-03T12:00	13650	160	-58.6	-75.9	356	37
2023-09-03T12:00	13668	160	-58.6	-76.2	357	37
2023-09-03T12:00	13692	159	-58.7	-76.0	358	37
2023-09-03T12:00	13714	159	-58.7	-75.9	358	37
2023-09-03T12:00	13734	158	-58.6	-75.8	359	38
2023-09-03T12:00	13753	157	-58.5	-76.1	0	38
2023-09-03T12:00	13775	157	-58.6	-76.6	1	38
2023-09-03T12:00	13796	156	-58.6	-77.1	2	38
2023-09-03T12:00	13815	156	-58.3	-77.6	3	38
2023-09-03T12:00	13834	155	-57.8		4	38
2023-09-03T12:00	13854	155	-57.8	-78.4	4	38
2023-09-03T12:00	13874	154	-57.7	-78.6	4	38
2023-09-03T12:00	13893	154	-57.7	-78.7	5	38
2023-09-03T12:00	13913	154	-57.7	-78.8	5	38
2023-09-03T12:00	13934	153	-57.8	-79.1	5	38
2023-09-03T12:00	13955	153	-58.0	-79.4	6	37
2023-09-03T12:00	13977	152	-57.8	-79.4	6	36
2023-09-03T12:00	13999	151	-57.8	-79.5	6	36
2023-09-03T12:00	14018	151	-57.8	-79.6	7	35
2023-09-03T12:00	14042	150	-57.7	-79.7	7	34
2023-09-03T12:00	14064	150	-57.8	-79.8	7	34
2023-09-03T12:00	14083	149	-57.7	-79.7	8	33
2023-09-03T12:00	14105	149	-57.8	-79.8	8	33
2023-09-03T12:00	14123	149	-57.9	-79.9	8	32
2023-09-03T12:00	14142	148	-57.9	-80.0	7	32
2023-09-03T12:00	14162	148	-57.8	-80.3	7	32
2023-09-03T12:00	14182	147	-57.8	-80.5	7	32
2023-09-03T12:00	14201	147	-57.9	-80.7	7	31
2023-09-03T12:00	14222	146	-58.0	-81.0	7	31
2023-09-03T12:00	14244	146	-58.0	-81.2	7	30
2023-09-03T12:00	14263	145	-58.1	-81.2	7	30
2023-09-03T12:00	14287	145	-58.1	-81.2	7	29
2023-09-03T12:00	14306	144	-58.1	-81.2	7	29
2023-09-03T12:00	14326	144	-58.1	-81.1	7	28
2023-09-03T12:00	14347	143	-58.0	-81.0	7	28
2023-09-03T12:00	14370	143	-57.9	-80.9	8	27
2023-09-03T12:00	14392	142	-57.9	-80.9	8	27
2023-09-03T12:00	14414	142	-57.9	-80.9	8	26
2023-09-03T12:00	14435	141	-57.8	-80.8	8	25
2023-09-03T12:00	14456	141	-57.8	-80.8	9	25
2023-09-03T12:00	14477	140	-57.8	-81.0	9	24
2023-09-03T12:00	14498	140	-57.7	-81.1	9	24
2023-09-03T12:00	14520	139	-57.8	-81.2	8	23
2023-09-03T12:00	14543	139	-57.9	-81.5	8	23
2023-09-03T12:00	14566	138	-58.0	-81.5	7	22
2023-09-03T12:00	14587	138	-58.2	-81.7	6	22
2023-09-03T12:00	14610	137	-58.3	-81.8	6	22
2023-09-03T12:00	14631	137	-58.5	-81.9	6	22
2023-09-03T12:00	14653	137	-58.5	-81.9	6	22
2023-09-03T12:00	14674	136	-58.3	-81.8	6	22
2023-09-03T12:00	14695	136	-58.2		6	22
2023-09-03T12:00	14715	135	-58.2		6	22
2023-09-03T12:00	14737	135	-58.1	-82.0	6	22
2023-09-03T12:00	14760	134	-57.9	-82.1	6	22
2023-09-03T12:00	14780	134	-57.8	-82.0	6	22
2023-09-03T12:00	14802	133	-57.6	-81.9	6	21
2023-09-03T12:00	14823	133	-57.5	-82.0	6	21
2023-09-03T12:00	14844	132	-57.5	-82.0	6	20
2023-09-03T12:00	14864	132	-57.5	-81.8	6	20
2023-09-03T12:00	14886	132	-57.4	-81.7	6	19
2023-09-03T12:00	14910	131	-57.4	-81.5	5	19
2023-09-03T12:00	14931	131	-57.4	-81.5	6	19
2023-09-03T12:00	14955	130	-57.4	-81.3	6	19
2023-09-03T12:00	14978	130	-57.4	-81.1	6	19
2023-09-03T12:00	15000	129	-57.6	-81.2	7	19
2023-09-03T12:00	15020	129	-57.7	-81.1	7	19
2023-09-03T12:00	15041	128	-57.8	-81.0	8	19
2023-09-03T12:00	15064	128	-57.8	-81.0	7	19
2023-09-03T12:00	15086	127	-57.8	-81.0	7	19
2023-09-03T12:00	15108	127	-57.7	-80.9	6	19
2023-09-03T12:00	15131	127	-57.6	-81.0	6	19
2023-09-03T12:00	15151	126	-57.6	-81.0	6	19
2023-09-03T12:00	15171	126	-57.7	-80.9	7	20
2023-09-03T12:00	15194	125	-57.7	-80.9	7	20
2023-09-03T12:00	15216	125	-57.6	-81.0	8	20
2023-09-03T12:00	15236	124	-57.5	-81.0	8	19
2023-09-03T12:00	15258	124	-57.4	-80.9	7	19
2023-09-03T12:00	15279	124	-57.4	-80.9	6	18
2023-09-03T12:00	15299	123	-57.5	-81.0	6	18
2023-09-03T12:00	15320	123	-57.6	-81.0	5	17
2023-09-03T12:00	15341	122	-57.5	-81.0	5	17
2023-09-03T12:00	15361	122	-57.2	-80.9	5	17
2023-09-03T12:00	15382	122	-57.1	-80.8	6	16
2023-09-03T12:00	15405	121	-57.2	-81.1	7	16
2023-09-03T12:00	15427	121	-57.2	-81.1	8	16
2023-09-03T12:00	15447	120	-57.1	-81.0	9	16
2023-09-03T12:00	15466	120	-57.1	-81.2	10	16
2023-09-03T12:00	15485	120	-57.0	-81.2	10	15
2023-09-03T12:00	15507	119	-57.0	-81.2	10	15
2023-09-03T12:00	15527	119	-57.0	-81.2	11	15
2023-09-03T12:00	15547	119	-57.1	-81.2	12	14
2023-09-03T12:00	15568	118	-57.3	-81.4	13	14
2023-09-03T12:00	15589	118	-57.4	-81.5	13	13
2023-09-03T12:00	15609	117	-57.3	-81.6	13	13
2023-09-03T12:00	15631	117	-57.1	-81.7	12	13
2023-09-03T12:00	15653	117	-57.0	-81.6	11	12
2023-09-03T12:00	15671	116	-57.0	-81.8	9	12
2023-09-03T12:00	15692	116	-57.1	-81.9	8	12
2023-09-03T12:00	15713	115	-57.1	-81.9	8	12
2023-09-03T12:00	15733	115	-57.0	-82.1	7	13
2023-09-03T12:00	15753	115	-57.0	-82.1	7	13
2023-09-03T12:00	15776	114	-57.0	-82.1	6	13
2023-09-03T12:00	15797	114	-56.9	-82.0	6	13
2023-09-03T12:00	15816	114	-56.9	-82.0	6	13
2023-09-03T12:00	15837	113	-56.9	-82.0	6	13
2023-09-03T12:00	15859	113	-56.8	-81.9	7	13
2023-09-03T12:00	15882	112	-56.7	-81.9	7	13
2023-09-03T12:00	15901	112	-56.9	-82.0	7	13
2023-09-03T12:00	15922	112	-57.0	-82.1	7	13
2023-09-03T12:00	15944	111	-57.0	-82.1	7	12
2023-09-03T12:00	15963	111	-57.0	-82.3	7	12
2023-09-03T12:00	15987	111	-57.0	-82.3	7	12
2023-09-03T12:00	16007	110	-57.1	-82.4	6	11
2023-09-03T12:00	16027	110	-57.1	-82.4	4	11
2023-09-03T12:00	16047	109	-57.1	-82.4	3	11
2023-09-03T12:00	16070	109	-57.0	-82.6	1	12
2023-09-03T12:00	16092	109	-56.8	-82.5	359	12
2023-09-03T12:00	16113	108	-56.9	-82.5	359	12
2023-09-03T12:00	16133	108	-57.1	-82.4	359	12
2023-09-03T12:00	16155	108	-57.3	-82.6	360	13
2023-09-03T12:00	16176	107	-57.5	-82.7	1	13
2023-09-03T12:00	16194	107	-57.4	-82.7	2	13
2023-09-03T12:00	16218	107	-57.2	-82.5	4	12
2023-09-03T12:00	16236	106	-57.3	-82.6	6	12
2023-09-03T12:00	16259	106	-57.3	-82.6	7	12
2023-09-03T12:00	16279	106	-57.4	-82.7	8	12
2023-09-03T12:00	16300	105	-57.6	-82.8	9	11
2023-09-03T12:00	16323	105	-57.6	-82.8	10	11
2023-09-03T12:00	16343	104	-57.5	-82.7	11	10
2023-09-03T12:00	16362	104	-57.2	-82.8	11	10
2023-09-03T12:00	16384	104	-56.9	-82.5	11	9
2023-09-03T12:00	16405	103	-56.9	-82.5	10	9
2023-09-03T12:00	16424	103	-56.9	-82.5	8	9
2023-09-03T12:00	16446	103	-57.0	-82.6	6	8
2023-09-03T12:00	16465	102	-57.0	-82.6	5	8
2023-09-03T12:00	16486	102	-57.1	-82.7	4	8
2023-09-03T12:00	16507	102	-57.3	-82.6	3	8
2023-09-03T12:00	16529	101	-57.3	-82.6	2	8
2023-09-03T12:00	16547	101	-57.4	-82.7	2	8
2023-09-03T12:00	16568	101	-57.6	-82.8	2	8
2023-09-03T12:00	16587	101	-57.7	-82.9	3	8
2023-09-03T12:00	16608	100	-57.7	-82.9	6	8
2023-09-03T12:00	16632	100	-57.7	-82.9	9	8
2023-09-03T12:00	16650	100	-57.6	-82.8	11	9
2023-09-03T12:00	16675	99	-57.7	-82.9	13	9
2023-09-03T12:00	16694	99	-57.8	-83.0	14	10
2023-09-03T12:00	16714	99	-57.9	-83.0	15	10
2023-09-03T12:00	16735	98	-57.9	-83.0	14	10
2023-09-03T12:00	16756	98	-57.9	-83.0	13	9
2023-09-03T12:00	16775	98	-57.9	-83.0	12	9
2023-09-03T12:00	16798	97	-57.8	-83.0	10	8
2023-09-03T12:00	16821	97	-57.9	-83.0	9	8
2023-09-03T12:00	16841	97	-57.8	-83.0	8	8
2023-09-03T12:00	16862	96	-57.8	-83.2	8	8
2023-09-03T12:00	16882	96	-57.9	-83.3	8	8
2023-09-03T12:00	16904	96	-57.9	-83.3	8	8
2023-09-03T12:00	16926	95	-57.8	-83.2	8	8
2023-09-03T12:00	16948	95	-57.7	-83.2	7	8
2023-09-03T12:00	16968	95	-57.6	-83.1	6	8
2023-09-03T12:00	16994	94	-57.5	-83.3	4	8
2023-09-03T12:00	17013	94	-57.6	-83.3	2	8
2023-09-03T12:00	17034	94	-57.7	-83.4	360	7
2023-09-03T12:00	17057	93	-57.7	-83.4	357	7
2023-09-03T12:00	17080	93	-57.7	-83.4	355	7
2023-09-03T12:00	17101	93	-57.7	-83.4	353	7
2023-09-03T12:00	17123	92	-57.7	-83.4	351	7
2023-09-03T12:00	17146	92	-57.7	-83.4	350	7
2023-09-03T12:00	17165	92	-57.6	-83.6	350	6
2023-09-03T12:00	17190	91	-57.3	-83.4	350	6
2023-09-03T12:00	17211	91	-57.3	-83.4	351	6
2023-09-03T12:00	17233	91	-57.1	-83.2	351	5
2023-09-03T12:00	17254	90	-57.1	-83.5	351	5
2023-09-03T12:00	17277	90	-57.1	-83.5	351	5
2023-09-03T12:00	17300	90	-57.1	-83.2	354	5
2023-09-03T12:00	17323	90	-57.0	-83.2	358	5
2023-09-03T12:00	17343	89	-57.1	-83.5	3	6
2023-09-03T12:00	17367	89	-57.2	-83.6	9	6
2023-09-03T12:00	17391	89	-57.1	-83.5	15	6
2023-09-03T12:00	17412	88	-57.1	-83.5	20	6
2023-09-03T12:00	17433	88	-57.2	-83.6	25	6
2023-09-03T12:00	17456	88	-57.1	-83.2	27	6
2023-09-03T12:00	17477	87	-57.1	-83.2	27	6
2023-09-03T12:00	17500	87	-57.1	-83.2	26	6
2023-09-03T12:00	17520	87	-57.2	-83.3	23	7
2023-09-03T12:00	17544	86	-57.3	-83.4	18	7
2023-09-03T12:00	17567	86	-57.4	-83.5	14	7
2023-09-03T12:00	17587	86	-57.5	-83.6	9	7
2023-09-03T12:00	17609	86	-57.6	-83.6	4	7
2023-09-03T12:00	17631	85	-57.7	-83.7	0	7
2023-09-03T12:00	17656	85	-57.7	-83.7	358	7
2023-09-03T12:00	17675	85	-57.8	-83.5	357	7
2023-09-03T12:00	17701	84	-57.8	-83.5	358	7
2023-09-03T12:00	17719	84	-57.9	-83.6	2	7
2023-09-03T12:00	17741	84	-58.1	-83.7	7	7
2023-09-03T12:00	17764	83	-58.1	-83.7	12	7
2023-09-03T12:00	17785	83	-58.1	-83.7	16	7
2023-09-03T12:00	17811	83	-58.1	-83.7	20	7
2023-09-03T12:00	17831	83	-58.1	-83.7	21	7
2023-09-03T12:00	17853	82	-58.2	-83.8	22	7
2023-09-03T12:00	17874	82	-58.3	-83.9	22	7
2023-09-03T12:00	17896	82	-58.3	-83.9	20	7
2023-09-03T12:00	17917	81	-58.3	-83.9	18	7
2023-09-03T12:00	17941	81	-58.2	-83.8	16	7
2023-09-03T12:00	17961	81	-58.2	-84.1	13	7
2023-09-03T12:00	17985	81	-58.2	-84.1	11	7
2023-09-03T12:00	18005	80	-58.3	-84.2	10	7
2023-09-03T12:00	18026	80	-58.3	-84.2	10	7
2023-09-03T12:00	18048	80	-58.4	-84.0	11	7
2023-09-03T12:00	18071	79	-58.5	-84.0	14	7
2023-09-03T12:00	18092	79	-58.5	-84.3	16	7
2023-09-03T12:00	18118	79	-58.5	-84.3	18	7
2023-09-03T12:00	18140	79	-58.2	-84.1	19	7
2023-09-03T12:00	18161	78	-58.0	-84.2	18	6
2023-09-03T12:00	18185	78	-58.1	-84.3	15	6
2023-09-03T12:00	18208	78	-57.9	-84.2	11	6
2023-09-03T12:00	18231	77	-57.7	-84.0	6	6
2023-09-03T12:00	18253	77	-57.5	-84.2	2	6
2023-09-03T12:00	18277	77	-57.5	-84.2	358	6
2023-09-03T12:00	18301	77	-57.3	-84.0	355	6
2023-09-03T12:00	18325	76	-56.9	-84.0	354	7
2023-09-03T12:00	18346	76	-56.3	-83.9	353	7
2023-09-03T12:00	18372	76	-56.0	-83.7	354	7
2023-09-03T12:00	18397	75	-55.9	-83.6	355	7
2023-09-03T12:00	18419	75	-55.8	-83.6	356	7
2023-09-03T12:00	18442	75	-55.8	-83.6	357	7
2023-09-03T12:00	18465	75	-55.9	-83.3	358	7
2023-09-03T12:00	18488	74	-55.9	-83.3	0	7
2023-09-03T12:00	18511	74	-55.9	-83.3	3	7
2023-09-03T12:00	18535	74	-55.9	-83.3	6	7
2023-09-03T12:00	18560	74	-56.0	-83.4	10	7
2023-09-03T12:00	18581	73	-55.9	-83.3	15	6
2023-09-03T12:00	18603	73	-55.9	-83.3	20	6
2023-09-03T12:00	18629	73	-56.0	-83.4	23	5
2023-09-03T12:00	18651	73	-56.1	-83.4	25	5
2023-09-03T12:00	18675	72	-56.2	-83.2	24	5
2023-09-03T12:00	18701	72	-56.2	-83.2	21	5
2023-09-03T12:00	18722	72	-56.2	-83.2	16	5
2023-09-03T12:00	18748	71	-56.2	-83.2	11	5
2023-09-03T12:00	18769	71	-56.3	-83.3	6	5
2023-09-03T12:00	18794	71	-56.4	-83.7	2	6
2023-09-03T12:00	18820	71	-56.2	-83.5	360	6
2023-09-03T12:00	18843	70	-56.1	-83.4	359	6
2023-09-03T12:00	18867	70	-56.2	-83.5	360	6
2023-09-03T12:00	18887	70	-56.3	-83.3	2	6
2023-09-03T12:00	18913	70	-56.3	-83.3	5	6
2023-09-03T12:00	18937	69	-56.4	-83.3	9	6
2023-09-03T12:00	18960	69	-56.5	-83.4	12	6
2023-09-03T12:00	18982	69	-56.6	-83.5	16	6
2023-09-03T12:00	19006	69	-56.5	-83.7	18	5
2023-09-03T12:00	19028	68	-56.5	-83.7	21	5
2023-09-03T12:00	19051	68	-56.4	-83.7	23	4
2023-09-03T12:00	19074	68	-56.2	-83.5	25	3
2023-09-03T12:00	19098	68	-56.2	-83.5	26	3
2023-09-03T12:00	19120	67	-56.3	-83.3	25	2
2023-09-03T12:00	19147	67	-56.4	-83.3	22	2
2023-09-03T12:00	19164	67	-56.5	-83.4	18	2
2023-09-03T12:00	19188	67	-56.3	-83.6	15	2
2023-09-03T12:00	19210	66	-56.3	-83.6	14	3
2023-09-03T12:00	19235	66	-56.2	-83.5	14	3
2023-09-03T12:00	19258	66	-56.3	-83.6	14	4
2023-09-03T12:00	19280	66	-56.3	-83.6	15	5
2023-09-03T12:00	19301	65	-56.3	-83.6	15	6
2023-09-03T12:00	19326	65	-56.4	-83.7	16	7
2023-09-03T12:00	19347	65	-56.5	-83.4	17	8
2023-09-03T12:00	19372	65	-56.4	-83.3	19	8
2023-09-03T12:00	19393	65	-56.4	-83.7	20	9
2023-09-03T12:00	19419	64	-56.2	-83.5	23	9
2023-09-03T12:00	19439	64	-56.2	-83.5	25	9
2023-09-03T12:00	19462	64	-56.1	-83.4	27	9
2023-09-03T12:00	19485	64	-56.0	-83.4	29	9
2023-09-03T12:00	19506	63	-56.0	-83.4	31	8
2023-09-03T12:00	19532	63	-56.2	-83.5	33	8
2023-09-03T12:00	19556	63	-56.2	-83.5	36	8
2023-09-03T12:00	19577	63	-56.2	-83.2	38	8
2023-09-03T12:00	19597	62	-56.2	-83.2	41	7
2023-09-03T12:00	19622	62	-56.3	-83.3	44	7
2023-09-03T12:00	19647	62	-56.4	-83.3	46	6
2023-09-03T12:00	19670	62	-56.5	-83.4	48	6
2023-09-03T12:00	19693	62	-56.4	-83.7	48	5
2023-09-03T12:00	19712	61	-56.3	-83.6	47	5
2023-09-03T12:00	19735	61	-56.3	-83.6	44	5
2023-09-03T12:00	19760	61	-56.2	-83.5	41	5
2023-09-03T12:00	19782	61	-56.3	-83.6	37	4
2023-09-03T12:00	19808	60	-56.4	-83.7	32	4
2023-09-03T12:00	19829	60	-56.5	-83.4	26	4
2023-09-03T12:00	19853	60	-56.4	-83.3	18	4
2023-09-03T12:00	19877	60	-56.5	-83.4	9	3
2023-09-03T12:00	19898	60	-56.7	-83.6	2	3
2023-09-03T12:00	19919	59	-56.7	-83.6	358	4
2023-09-03T12:00	19943	59	-56.6	-83.5	358	4
2023-09-03T12:00	19966	59	-56.7	-83.6	1	4
2023-09-03T12:00	19992	59	-56.7	-83.6	4	4
2023-09-03T12:00	20011	59	-56.7	-83.9	7	4
2023-09-03T12:00	20040	58	-56.6	-83.8	7	5
2023-09-03T12:00	20065	58	-56.3	-83.6	5	5
2023-09-03T12:00	20088	58	-56.2	-83.5	3	5
2023-09-03T12:00	20112	58	-56.2	-83.5	1	6
2023-09-03T12:00	20138	57	-56.1	-83.4	0	6
2023-09-03T12:00	20159	57	-56.1	-83.4	1	6
2023-09-03T12:00	20185	57	-56.2	-83.5	4	7
2023-09-03T12:00	20212	57	-56.3	-83.6	7	7
2023-09-03T12:00	20236	57	-56.3	-83.6	10	7
2023-09-03T12:00	20258	56	-56.3	-83.6	13	7
2023-09-03T12:00	20284	56	-56.5	-83.7	16	7
2023-09-03T12:00	20309	56	-56.5	-83.4	20	7
2023-09-03T12:00	20332	56	-56.5	-83.4	25	7
2023-09-03T12:00	20357	55	-56.4	-83.7	31	6
2023-09-03T12:00	20382	55	-56.4	-83.7	39	6
2023-09-03T12:00	20408	55	-56.2	-83.5	47	6
2023-09-03T12:00	20432	55	-56.3	-83.6	54	6
2023-09-03T12:00	20454	55	-56.3	-83.6	60	6
2023-09-03T12:00	20477	54	-56.2	-83.5	64	6
2023-09-03T12:00	20499	54	-56.1	-83.4	67	5
2023-09-03T12:00	20523	54	-56.0	-83.4	69	5
2023-09-03T12:00	20546	54	-55.9	-83.6	69	4
2023-09-03T12:00	20569	54	-55.9	-83.6	67	4
2023-09-03T12:00	20595	53	-55.8	-83.6	64	3
2023-09-03T12:00	20620	53	-55.7	-83.5	61	3
2023-09-03T12:00	20646	53	-55.7	-83.5	58	3
2023-09-03T12:00	20668	53	-55.8	-83.6	56	3
2023-09-03T12:00	20691	53	-55.7	-83.1	53	3
2023-09-03T12:00	20714	52	-55.8	-83.2	50	3
2023-09-03T12:00	20742	52	-55.9	-83.3	45	3
2023-09-03T12:00	20765	52	-56.0	-83.4	38	3
2023-09-03T12:00	20789	52	-56.1	-83.4	31	3
2023-09-03T12:00	20816	52	-56.2	-83.5	24	3
2023-09-03T12:00	20837	51	-56.3	-83.6	20	4
2023-09-03T12:00	20864	51	-56.3	-83.6	17	5
2023-09-03T12:00	20888	51	-56.2	-83.5	15	5
2023-09-03T12:00	20913	51	-56.1	-83.4	14	5
2023-09-03T12:00	20932	51	-56.0	-83.4	12	5
2023-09-03T12:00	20954	50	-56.1	-83.4	11	5
2023-09-03T12:00	20982	50	-56.1	-83.4	8	5
2023-09-03T12:00	21003	50	-56.2	-83.5	6	5
2023-09-03T12:00	21029	50	-56.3	-83.6	4	4
2023-09-03T12:00	21053	50	-56.3	-83.6	2	4
2023-09-03T12:00	21079	50	-56.2	-83.5	1	4
2023-09-03T12:00	21098	49	-56.2	-83.5	1	4
2023-09-03T12:00	21126	49	-55.9	-83.6	1	4
2023-09-03T12:00	21148	49	-55.6	-83.4	2	4
2023-09-03T12:00	21172	49	-55.5		4	4
2023-09-03T12:00	21198	49	-55.5		6	5
2023-09-03T12:00	21222	48	-55.5		9	5
2023-09-03T12:00	21244	48	-55.6	-83.4	10	6
2023-09-03T12:00	21271	48	-55.5		12	6
2023-09-03T12:00	21287	48	-55.5		12	6
2023-09-03T12:00	21316	48	-55.6	-83.1	13	6
2023-09-03T12:00	21339	48	-55.7	-83.1	14	6
2023-09-03T12:00	21363	47	-55.8	-83.2	15	6
2023-09-03T12:00	21389	47	-55.9	-83.3	16	6
2023-09-03T12:00	21410	47	-56.0	-83.4	17	6
2023-09-03T12:00	21440	47	-56.0	-83.4	18	6
2023-09-03T12:00	21461	47	-56.0	-83.4	19	6
2023-09-03T12:00	21484	46	-56.0	-83.4	20	6
2023-09-03T12:00	21512	46	-56.1	-83.4	22	6
2023-09-03T12:00	21537	46	-56.2	-83.5	24	6
2023-09-03T12:00	21558	46	-56.2	-83.5	26	6
2023-09-03T12:00	21580	46	-56.2	-83.5	28	6
2023-09-03T12:00	21606	46	-56.2	-83.5	29	5
2023-09-03T12:00	21630	45	-56.1	-83.4	29	5
2023-09-03T12:00	21657	45	-56.1	-83.4	29	5
2023-09-03T12:00	21681	45	-56.2	-83.5	27	5
2023-09-03T12:00	21702	45	-56.3	-83.6	25	5
2023-09-03T12:00	21733	45	-56.4	-83.7	23	5
2023-09-03T12:00	21756	44	-56.5	-83.7	22	5
2023-09-03T12:00	21782	44	-56.5	-83.4	23	6
2023-09-03T12:00	21805	44	-56.6	-83.5	24	6
2023-09-03T12:00	21836	44	-56.7	-83.9	26	6
2023-09-03T12:00	21857	44	-56.7	-83.9	28	6
2023-09-03T12:00	21882	44	-56.6	-83.8	28	6
2023-09-03T12:00	21909	43	-56.5	-83.7	28	6
2023-09-03T12:00	21933	43	-56.4	-83.7	27	6
2023-09-03T12:00	21960	43	-56.4	-83.7	26	6
2023-09-03T12:00	21985	43	-56.4	-83.7	23	6
2023-09-03T12:00	22010	43	-56.3	-83.9	21	7
2023-09-03T12:00	22033	43	-56.2	-83.9	17	7
2023-09-03T12:00	22058	42	-56.1	-83.8	15	7
2023-09-03T12:00	22086	42	-56.1	-83.8	13	7
2023-09-03T12:00	22113	42	-56.1	-83.8	12	8
2023-09-03T12:00	22139	42	-56.1	-83.8	12	8
2023-09-03T12:00	22159	42	-56.0	-83.7	12	9
2023-09-03T12:00	22187	42	-55.9	-83.6	12	9
2023-09-03T12:00	22215	41	-55.7	-83.5	13	9
2023-09-03T12:00	22237	41	-55.6	-83.4	13	9
2023-09-03T12:00	22264	41	-55.5		13	9
2023-09-03T12:00	22285	41	-55.5		13	10
2023-09-03T12:00	22315	41	-55.5		12	10
2023-09-03T12:00	22339	41	-55.5		12	10
2023-09-03T12:00	22365	40	-55.5		12	11
2023-09-03T12:00	22388	40	-55.5		12	11
2023-09-03T12:00	22419	40	-55.6	-83.4	13	12
2023-09-03T12:00	22439	40	-55.5		14	12
2023-09-03T12:00	22463	40	-55.4	-83.3	16	12
2023-09-03T12:00	22490	40	-55.4	-83.3	18	13
2023-09-03T12:00	22515	39	-55.3	-83.2	20	12
2023-09-03T12:00	22536	39	-55.3	-83.2	22	12
2023-09-03T12:00	22563	39	-55.2	-83.1	25	12
2023-09-03T12:00	22590	39	-55.2	-83.1	27	11
2023-09-03T12:00	22613	39	-55.1	-83.4	30	11
2023-09-03T12:00	22639	39	-55.0		33	11
2023-09-03T12:00	22661	39	-55.0		37	10
2023-09-03T12:00	22687	38	-54.8	-83.2	39	10
2023-09-03T12:00	22713	38	-54.8	-83.2	42	10
2023-09-03T12:00	22740	38	-54.8	-83.2	43	10
2023-09-03T12:00	22760	38	-54.9	-83.3	44	10
2023-09-03T12:00	22785	38	-54.9	-83.3	44	10
2023-09-03T12:00	22809	38	-54.9	-83.3	45	10
2023-09-03T12:00	22834	38	-54.7	-83.1	46	10
2023-09-03T12:00	22858	37	-54.5	-82.9	47	10
2023-09-03T12:00	22887	37	-54.5	-82.9	49	10
2023-09-03T12:00	22915	37	-54.5	-82.9	52	9
2023-09-03T12:00	22939	37	-54.5	-82.9	54	9
2023-09-03T12:00	22965	37	-54.5	-82.9	57	8
2023-09-03T12:00	22987	37	-54.5	-82.9	59	8
2023-09-03T12:00	23008	37	-54.6	-83.0	60	8
2023-09-03T12:00	23033	36	-54.6	-83.0	61	7
2023-09-03T12:00	23059	36	-54.6	-83.0	61	7
2023-09-03T12:00	23086	36	-54.6	-83.0	60	7
2023-09-03T12:00	23114	36	-54.7	-83.1	57	7
2023-09-03T12:00	23138	36	-54.8	-83.2	53	7
2023-09-03T12:00	23158	36	-54.8	-83.2	50	7
2023-09-03T12:00	23184	36	-54.7	-83.1	47	7
2023-09-03T12:00	23210	35	-54.6	-83.0	46	8
2023-09-03T12:00	23236	35	-54.3	-82.8	46	8
2023-09-03T12:00	23256	35	-54.1	-83.1	47	8
2023-09-03T12:00	23286	35	-53.8	-82.8	49	8
2023-09-03T12:00	23312	35	-53.5	-82.6	52	8
2023-09-03T12:00	23338	35	-53.5	-82.6	55	8
2023-09-03T12:00	23361	35	-53.5	-82.6	58	8
2023-09-03T12:00	23382	34	-53.3	-82.5	60	7
2023-09-03T12:00	23408	34	-53.2	-82.4	61	7
2023-09-03T12:00	23435	34	-53.1	-82.3	62	6
2023-09-03T12:00	23456	34	-53.0	-82.2	63	6
2023-09-03T12:00	23479	34	-53.0	-82.2	63	6
2023-09-03T12:00	23510	34	-53.1	-82.3	64	5
2023-09-03T12:00	23537	34	-53.2	-82.4	65	5
2023-09-03T12:00	23559	34	-53.1	-82.3	65	5
2023-09-03T12:00	23587	33	-53.2	-82.4	65	5
2023-09-03T12:00	23619	33	-53.2	-82.4	65	5
2023-09-03T12:00	23642	33	-53.1	-82.3	65	5
2023-09-03T12:00	23668	33	-53.1	-82.3	64	5
2023-09-03T12:00	23694	33	-53.1	-82.3	63	5
2023-09-03T12:00	23722	33	-53.1	-82.3	62	6
2023-09-03T12:00	23742	33	-53.2	-82.4	62	6
2023-09-03T12:00	23769	32	-53.3	-82.0	61	6
2023-09-03T12:00	23791	32	-53.3	-82.0	61	6
2023-09-03T12:00	23822	32	-53.4	-82.5	62	7
2023-09-03T12:00	23846	32	-53.3	-82.5	63	7
2023-09-03T12:00	23876	32	-53.1	-82.3	65	7
2023-09-03T12:00	23892	32	-53.1	-82.3	67	7
2023-09-03T12:00	23921	32	-53.1	-82.3	68	7
2023-09-03T12:00	23944	32	-52.9	-82.1	69	7
2023-09-03T12:00	23972	31	-52.6	-82.4	70	6
2023-09-03T12:00	23996	31	-52.4	-82.2	70	6
2023-09-03T12:00	24019	31	-52.4	-82.2	71	6
2023-09-03T12:00	24042	31	-52.3	-82.1	74	5
2023-09-03T12:00	24069	31	-52.4	-81.8	78	5
2023-09-03T12:00	24095	31	-52.5	-81.8	85	4
2023-09-03T12:00	24120	31	-52.4	-81.8	96	4
2023-09-03T12:00	24147	31	-52.3	-81.7	109	3
2023-09-03T12:00	24168	31	-52.3	-81.7	126	3
2023-09-03T12:00	24197	30	-52.2	-82.1	144	3
2023-09-03T12:00	24221	30	-52.0	-81.9	159	3
2023-09-03T12:00	24249	30	-51.9	-81.8	171	4
2023-09-03T12:00	24273	30	-51.9	-81.8	180	4
2023-09-03T12:00	24299	30	-51.9	-81.8	186	5
2023-09-03T12:00	24325	30	-51.9	-81.8	191	5
2023-09-03T12:00	24349	30	-51.8	-81.8	195	5
2023-09-03T12:00	24379	30	-51.8	-81.8	200	5
2023-09-03T12:00	24401	29	-51.8	-81.8	205	5
2023-09-03T12:00	24430	29	-51.7	-81.7	211	5
2023-09-03T12:00	24457	29	-51.7	-81.7	218	4
2023-09-03T12:00	24481	29	-51.9	-81.8	224	4
2023-09-03T12:00	24505	29	-52.0	-81.5	228	4
2023-09-03T12:00	24535	29	-51.8	-81.3	233	3
2023-09-03T12:00	24555	29	-51.8	-81.3	240	3
2023-09-03T12:00	24586	29	-51.9	-81.4	251	2
2023-09-03T12:00	24615	29	-52.2	-81.6	270	2
2023-09-03T12:00	24636	28	-52.4	-81.8	302	1
2023-09-03T12:00	24662	28	-52.5	-81.8	339	1
2023-09-03T12:00	24690	28	-52.5	-81.8	7	2
2023-09-03T12:00	24718	28	-52.4	-81.8	24	2
2023-09-03T12:00	24746	28	-52.3	-81.7	33	3
2023-09-03T12:00	24771	28	-52.3	-81.7	39	4
2023-09-03T12:00	24804	28	-52.4	-81.8	44	4
2023-09-03T12:00	24826	28	-52.6	-81.9	49	4
2023-09-03T12:00	24849	28	-52.7	-82.0	56	4
2023-09-03T12:00	24875	27	-52.7	-82.0	65	5
2023-09-03T12:00	24906	27	-52.7	-82.0	74	5
2023-09-03T12:00	24930	27	-52.8	-82.1	82	5
2023-09-03T12:00	24954	27	-52.7	-82.0	89	5
2023-09-03T12:00	24982	27	-52.7	-82.0	95	5
2023-09-03T12:00	25008	27	-52.8	-82.1	103	4
2023-09-03T12:00	25035	27	-52.8	-82.1	112	4
2023-09-03T12:00	25064	27	-52.8	-82.1	126	3
2023-09-03T12:00	25092	26	-52.7	-82.0	140	2
2023-09-03T12:00	25118	26	-52.6	-81.9	153	2
2023-09-03T12:00	25143	26	-52.6	-81.9	160	2
2023-09-03T12:00	25173	26	-52.5	-81.8	162	1
2023-09-03T12:00	25199	26	-52.5	-82.3	163	1
2023-09-03T12:00	25220	26	-52.4	-82.2	162	1
2023-09-03T12:00	25254	26	-52.3	-82.1	163	1
2023-09-03T12:00	25275	26	-52.2	-82.1	162	1
2023-09-03T12:00	25302	26	-52.3	-82.1	157	1
2023-09-03T12:00	25323	26	-52.3	-82.1	152	1
2023-09-03T12:00	25350	25	-52.3	-81.7	150	1
2023-09-03T12:00	25372	25	-52.4	-81.8	154	1
2023-09-03T12:00	25410	25	-52.3	-81.7	164	1
2023-09-03T12:00	25429	25	-52.2	-81.6	176	1
2023-09-03T12:00	25449	25	-52.3	-81.7	185	1
2023-09-03T12:00	25481	25	-52.4	-81.8	192	2
2023-09-03T12:00	25505	25	-52.4	-81.8	200	2
2023-09-03T12:00	25541	25	-52.4	-81.8	209	2
2023-09-03T12:00	25556	25	-52.5	-81.8	219	2
2023-09-03T12:00	25591	25	-52.6	-81.9	227	3
2023-09-03T12:00	25613	24	-52.5	-81.8	231	3
2023-09-03T12:00	25642	24	-52.5	-81.8	233	4
2023-09-03T12:00	25662	24	-52.5	-81.8	233	4
2023-09-03T12:00	25698	24	-52.5	-82.3	231	4
2023-09-03T12:00	25721	24	-52.4	-82.2	230	4
2023-09-03T12:00	25748	24	-52.3	-82.1	230	4
2023-09-03T12:00	25771	24	-52.1	-82.0	234	4
2023-09-03T12:00	25798	24	-51.9	-81.8	240	4
2023-09-03T12:00	25826	24	-51.7	-81.7	248	4
2023-09-03T12:00	25852	24	-51.5	-82.0	257	4
2023-09-03T12:00	25879	23	-51.4	-81.9	266	4
2023-09-03T12:00	25902	23	-51.3	-81.9	274	5
2023-09-03T12:00	25939	23	-51.3	-81.9	279	6
2023-09-03T12:00	25961	23	-51.1	-81.7	283	7
2023-09-03T12:00	25990	23	-51.0	-81.6	286	8
2023-09-03T12:00	26015	23	-51.0	-81.2	288	8
2023-09-03T12:00	26042	23	-51.0	-81.2	290	9
2023-09-03T12:00	26070	23	-51.0	-81.2	292	9
2023-09-03T12:00	26092	23	-51.0	-81.6	293	8
2023-09-03T12:00	26122	23	-50.9	-81.6	295	8
2023-09-03T12:00	26151	22	-50.8	-81.5	298	7
2023-09-03T12:00	26175	22	-50.7	-81.4	300	7
2023-09-03T12:00	26204	22	-50.6	-81.3	304	7
2023-09-03T12:00	26231	22	-50.4	-81.2	309	7
2023-09-03T12:00	26267	22	-50.2	-81.0	314	8
2023-09-03T12:00	26291	22	-50.0	-80.9	318	8
2023-09-03T12:00	26321	22	-49.8	-80.8	321	9
2023-09-03T12:00	26344	22	-49.6	-80.6	323	9
2023-09-03T12:00	26377	22	-49.7	-80.7	324	10
2023-09-03T12:00	26402	22	-49.8	-80.8	326	10
2023-09-03T12:00	26433	22	-49.9	-80.8	327	10
2023-09-03T12:00	26452	21	-49.8	-80.8	329	10
2023-09-03T12:00	26486	21	-49.7	-80.7	332	10
2023-09-03T12:00	26516	21	-49.7	-80.7	336	10
2023-09-03T12:00	26540	21	-49.5	-80.5	341	9
2023-09-03T12:00	26567	21	-49.2	-80.8	346	8
2023-09-03T12:00	26600	21	-49.0	-80.7	352	8
2023-09-03T12:00	26626	21	-49.0	-80.7	358	8
2023-09-03T12:00	26646	21	-49.1	-80.2	3	8
2023-09-03T12:00	26681	21	-49.2	-80.3	6	8
2023-09-03T12:00	26704	21	-49.3	-80.4	9	8
2023-09-03T12:00	26744	21	-49.3	-80.4	9	7
2023-09-03T12:00	26773	20	-49.2	-80.3	7	7
2023-09-03T12:00	26794	20	-49.1	-80.2	3	7
2023-09-03T12:00	26824	20	-49.2	-80.3	357	7
2023-09-03T12:00	26853	20	-49.2	-80.3	352	6
2023-09-03T12:00	26877	20	-49.3	-80.4	347	6
2023-09-03T12:00	26908	20	-49.3	-80.4	343	5
2023-09-03T12:00	26931	20	-49.1	-80.8	340	5
2023-09-03T12:00	26961	20	-48.8	-80.5	339	5
2023-09-03T12:00	26992	20	-48.7	-80.5	341	4
2023-09-03T12:00	27027	20	-48.8	-80.0	345	4
2023-09-03T12:00	27046	20	-48.9	-80.1	350	4
2023-09-03T12:00	27074	20	-49.0	-80.2	355	4
2023-09-03T12:00	27108	19	-49.1	-80.2	2	4
2023-09-03T12:00	27131	19	-49.2	-80.3	11	4
2023-09-03T12:00	27154	19	-49.2	-80.3	24	4
2023-09-03T12:00	27173	19	-49.3	-80.4	40	3
2023-09-03T12:00	27213	19	-49.3	-80.4	59	3
2023-09-03T12:00	27236	19	-49.3	-80.4	76	4
2023-09-03T12:00	27265	19	-49.4	-80.5	89	4
2023-09-03T12:00	27298	19	-49.4	-80.5	99	4
2023-09-03T12:00	27326	19	-49.5	-80.5	106	4
2023-09-03T12:00	27354	19	-49.4	-80.5	111	3
2023-09-03T12:00	27378	19	-49.3	-80.4	115	2
2023-09-03T12:00	27402	19	-49.2	-80.3	117	2
2023-09-03T12:00	27437	18	-49.4	-80.5	115	1
2023-09-03T12:00	27463	18	-49.4	-80.5	68	0
2023-09-03T12:00	27487	18	-49.3	-80.4	353	1
2023-09-03T12:00	27524	18	-49.3	-80.4	347	1
2023-09-03T12:00	27539	18	-49.4	-80.5	349	2
2023-09-03T12:00	27574	18	-49.3	-80.4	354	2
2023-09-03T12:00	27602	18	-49.3	-80.4	3	1
2023-09-03T12:00	27627	18	-49.2	-80.3	28	1
2023-09-03T12:00	27665	18	-49.1	-80.2	84	1
2023-09-03T12:00	27688	18	-49.1	-80.2	113	2
2023-09-03T12:00	27712	18	-49.2	-80.3	121	3
2023-09-03T12:00	27741	18	-49.1	-80.2	125	4
2023-09-03T12:00	27775	18	-49.1	-80.2	128	5
2023-09-03T12:00	27796	17	-49.2	-80.3	131	5
2023-09-03T12:00	27834	17	-49.2	-80.3	135	5
2023-09-03T12:00	27860	17	-49.2	-80.3	140	5
2023-09-03T12:00	27893	17	-49.3	-80.4	144	5
2023-09-03T12:00	27914	17	-49.4	-80.5	148	4
2023-09-03T12:00	27945	17	-49.5	-80.5	152	4
2023-09-03T12:00	27969	17	-49.6	-80.6	157	4
2023-09-03T12:00	28000	17	-49.6	-80.6	163	4
2023-09-03T12:00	28026	17	-49.6	-80.6	171	4
2023-09-03T12:00	28054	17	-49.5	-80.5	179	3
2023-09-03T12:00	28079	17	-49.2	-80.8	187	3
2023-09-03T12:00	28111	17	-49.0	-80.7	195	3
2023-09-03T12:00	28142	17	-49.0	-80.7	204	3
2023-09-03T12:00	28169	17	-49.1	-80.8	214	3
2023-09-03T12:00	28196	16	-49.3	-80.4	226	3
2023-09-03T12:00	28219	16	-49.4	-80.5	238	3
2023-09-03T12:00	28254	16	-49.4	-80.5	249	3
2023-09-03T12:00	28284	16	-49.5	-80.5	258	3
2023-09-03T12:00	28305	16	-49.6	-80.6	268	3
2023-09-03T12:00	28344	16	-49.6	-80.6	278	3
2023-09-03T12:00	28371	16	-49.7	-80.7	288	3
2023-09-03T12:00	28402	16	-49.7	-80.7	298	4
2023-09-03T12:00	28428	16	-49.7	-80.7	305	4
2023-09-03T12:00	28453	16	-49.7	-80.7	310	5
2023-09-03T12:00	28476	16	-49.8	-80.8	313	5
2023-09-03T12:00	28521	16	-49.9	-80.8	316	6
2023-09-03T12:00	28539	16	-50.0	-80.4	319	6
2023-09-03T12:00	28563	16	-50.1	-80.5	323	6
2023-09-03T12:00	28585	15	-50.2	-80.6	328	7
2023-09-03T12:00	28630	15	-50.2	-81.0	333	7
2023-09-03T12:00	28649	15	-50.1	-81.0	339	7
2023-09-03T12:00	28681	15	-50.1	-81.0	344	7
2023-09-03T12:00	28700	15	-50.1	-81.0	348	7
2023-09-03T12:00	28726	15	-50.1	-81.0	353	6
2023-09-03T12:00	28764	15	-50.1	-81.0	358	6
2023-09-03T12:00	28786	15	-49.9	-80.8	4	5
2023-09-03T12:00	28814	15	-49.8	-80.8	11	5
2023-09-03T12:00	28839	15	-49.8	-81.3	18	4
2023-09-03T12:00	28865	15	-49.7	-81.2	24	4
2023-09-03T12:00	28897	15	-49.5	-81.1	26	4
2023-09-03T12:00	28919	15	-49.1	-80.8	25	5
2023-09-03T12:00	28951	15	-48.8	-80.5	23	5
2023-09-03T12:00	28979	15	-48.5	-80.3	21	6
2023-09-03T12:00	29008	15	-48.3	-80.2	19	6
2023-09-03T12:00	29038	14	-48.3	-80.2	17	6
2023-09-03T12:00	29053	14	-48.4	-80.2	16	6
2023-09-03T12:00	29093	14	-48.6	-80.4	14	6
2023-09-03T12:00	29116	14	-48.9	-80.1	13	5
2023-09-03T12:00	29145	14	-49.2	-80.3	11	5
2023-09-03T12:00	29172	14	-49.3	-80.4	10	5
2023-09-03T12:00	29204	14	-49.2	-80.3	7	4
2023-09-03T12:00	29229	14	-49.1	-80.2	5	4
2023-09-03T12:00	29251	14	-49.0	-80.7	4	4
2023-09-03T12:00	29273	14	-49.1	-80.8	4	5
2023-09-03T12:00	29316	14	-49.1	-80.2	6	5
2023-09-03T12:00	29346	14	-49.1	-80.2	8	6
2023-09-03T12:00	29367	14	-49.1	-80.2	10	7
2023-09-03T12:00	29400	14	-49.1	-80.2	12	8
2023-09-03T12:00	29434	14	-49.2	-80.3	14	9
2023-09-03T12:00	29440	14	-49.3	-80.4	15	9
2023-09-03T12:00	29487	14	-49.4	-80.5	16	9
2023-09-03T12:00	29499	13	-49.4	-80.5	17	9
2023-09-03T12:00	29540	13	-49.3	-80.4	19	8
2023-09-03T12:00	29568	13	-49.3	-80.4	22	8
2023-09-03T12:00	29593	13	-49.4	-80.5	25	7
2023-09-03T12:00	29621	13	-49.6	-80.6	30	6
2023-09-03T12:00	29650	13	-49.6	-80.6	36	6
2023-09-03T12:00	29686	13	-49.6	-80.6	40	5
2023-09-03T12:00	29712	13	-49.6	-80.6	44	5
2023-09-03T12:00	29739	13	-49.6	-80.6	45	5
2023-09-03T12:00	29754	13	-49.5	-80.5	44	6
2023-09-03T12:00	29788	13	-49.5	-80.5	43	6
2023-09-03T12:00	29811	13	-49.5	-80.5	42	7
2023-09-03T12:00	29843	13	-49.4	-80.5	42	7
2023-09-03T12:00	29877	13	-49.4	-80.5	43	8
2023-09-03T12:00	29909	13	-49.5	-80.5	45	9
2023-09-03T12:00	29931	13	-49.4	-80.5	47	10
2023-09-03T12:00	29970	13	-49.5	-80.5	50	10
2023-09-03T12:00	29986	13	-49.5	-81.1	52	11
2023-09-03T12:00	30020	12	-49.4	-81.0	55	11
2023-09-03T12:00	30042	12	-49.4	-81.0	58	11
2023-09-03T12:00	30071	12	-49.4	-81.0	61	11
2023-09-03T12:00	30097	12	-49.2	-80.8	65	11
2023-09-03T12:00	30136	12	-49.2	-80.3	68	10
2023-09-03T12:00	30156	12	-49.4	-80.5	72	10
2023-09-03T12:00	30185	12	-49.6	-80.6	74	9
2023-09-03T12:00	30230	12	-49.7	-80.7	77	9
2023-09-03T12:00	30250	12	-49.7	-80.7	78	8
2023-09-03T12:00	30277	12	-49.7	-80.7	79	7
2023-09-03T12:00	30298	12	-49.6	-80.6	79	7
2023-09-03T12:00	30328	12	-49.5	-80.5	79	6
2023-09-03T12:00	30363	12	-49.6	-80.6	78	5
2023-09-03T12:00	30384	12	-49.7	-80.7	77	4
2023-09-03T12:00	30414	12	-49.8	-80.8	74	3
2023-09-03T12:00	30430	12	-49.8	-81.3	65	2
2023-09-03T12:00	30469	12	-49.7	-81.2	47	2
2023-09-03T12:00	30487	12	-49.4	-81.0	26	2
2023-09-03T12:00	30527	12	-49.0	-81.3	13	3
2023-09-03T12:00	30537	12	-48.6	-81.0	8	4
2023-09-03T12:00	30575	11	-48.2	-80.7	7	5
2023-09-03T12:00	30600	11	-47.6	-80.2	9	6
2023-09-03T12:00	30627	11	-47.0	-80.4	12	7
2023-09-03T12:00	30661	11	-46.7	-80.2	16	8
2023-09-03T12:00	30701	11	-46.7	-80.2	21	9
2023-09-03T12:00	30718	11	-46.8	-80.3	27	9
2023-09-03T12:00	30742	11	-46.6	-80.1	32	10
2023-09-03T12:00	30774	11	-46.0	-79.7	38	10
2023-09-03T12:00	30799	11	-45.2	-79.8	43	10
2023-09-03T12:00	30822	11	-44.4	-79.3	47	10
2023-09-03T12:00	30857	11	-43.9	-78.9	51	10
2023-09-03T12:00	30878	11	-43.6	-78.7	53	9
2023-09-03T12:00	30904	11	-43.2	-78.4	53	8
2023-09-03T12:00	30931	11	-43.1	-78.3	53	8
2023-09-03T12:00	30970	11	-43.2	-78.4	51	7
2023-09-03T12:00	30994	11	-43.4	-77.8	49	6
2023-09-03T12:00	31031	11	-43.5	-77.9	47	6
2023-09-03T12:00	31055	11	-43.6	-78.0	43	5
2023-09-03T12:00	31082	11	-43.7	-78.0	38	4
2023-09-03T12:00	31108	11	-43.7	-78.0	32	4
2023-09-03T12:00	31126	11	-43.9	-77.5	23	3
2023-09-03T12:00	31163	11	-44.2	-77.7	11	3
2023-09-03T12:00	31190	10	-44.4	-77.9	357	3
2023-09-03T12:00	31227	10	-44.5	-78.0	346	4
2023-09-03T12:00	31244	10	-44.4	-77.9	341	4
2023-09-03T12:00	31277	10	-44.1	-78.3	342	5
2023-09-03T12:00	31290	10	-44.0	-78.2	345	6
2023-09-03T12:00	31339	10	-43.8	-78.1	350	7
2023-09-03T12:00	31352	10	-43.5	-77.9	355	8
2023-09-03T12:00	31384	10	-43.0	-78.3	359	8
2023-09-03T12:00	31427	10	-42.7	-78.0	3	8
2023-09-03T12:00	31439	10	-42.5	-77.9	5	9
2023-09-03T12:00	31452	10	-42.3	-77.8	6	9
2023-09-03T12:00	31495	10	-42.1	-77.6	8	9
2023-09-03T12:00	31512	10	-41.9	-77.5	9	9
2023-09-03T12:00	31560	10	-41.8	-77.4	10	9
2023-09-03T12:00	31572	10	-41.8	-77.4	12	9
2023-09-03T12:00	31605	10	-41.7	-77.3	14	9
2023-09-03T12:00	31632	10	-41.5	-77.2	15	8
2023-09-03T12:00	31671	10	-41.4	-77.1	15	8
2023-09-03T12:00	31693	10	-41.3	-77.0	15	8
2023-09-03T12:00	31731	10	-41.4	-77.1	15	7
2023-09-03T12:00	31744	10	-41.5	-77.2	15	7
2023-09-03T12:00	31776	10	-41.6	-77.3	18	6
2023-09-03T12:00	31814	10	-41.7	-76.6	21	5
2023-09-03T12:00	31843	10	-41.7	-76.6	26	5
2023-09-03T12:00	31853	9	-41.7	-76.6	29	5
2023-09-03T12:00	31888	9	-41.6	-77.3	32	4
2023-09-03T12:00	31924	9	-41.5	-77.2	32	4
2023-09-03T12:00	31948	9	-41.6	-77.3	30	4
2023-09-03T12:00	31993	9	-41.6	-77.3	28	4
2023-09-03T12:00	32016	9	-41.7	-76.6	25	4
2023-09-03T12:00	32035	9	-41.8	-76.7	23	4
2023-09-03T12:00	32066	9	-42.0	-76.8	23	4
2023-09-03T12:00	32081	9	-42.1	-76.9	24	4
2023-09-03T12:00	32118	9	-42.2	-76.9	26	4
2023-09-03T12:00	32147	9	-42.2	-76.9	29	4
2023-09-03T12:00	32174	9	-42.3	-77.0	33	4
2023-09-03T12:00	32199	9	-42.4	-77.1	37	4
2023-09-03T12:00	32248	9	-42.4	-77.1	40	4
2023-09-03T12:00	32256	9	-42.4	-77.1	43	4
2023-09-03T12:00	32302	9	-42.4	-77.1	45	4
2023-09-03T12:00	32324	9	-42.4	-77.1	46	4
2023-09-03T12:00	32342	9	-42.4	-77.1	48	4
2023-09-03T12:00	32382	9	-42.3	-77.0	51	4
2023-09-03T12:00	32411	9	-42.2	-76.9	54	4
2023-09-03T12:00	32434	9	-42.2	-76.9	58	3
2023-09-03T12:00	32472	9	-42.2	-76.9	61	3
2023-09-03T12:00	32490	9	-42.1	-76.9	62	2
2023-09-03T12:00	32515	9	-42.0	-76.8	61	2
2023-09-03T12:00	32551	9	-41.9	-76.7	52	2
2023-09-03T12:00	32574	9	-41.8	-76.7	39	1
2023-09-03T12:00	32617	8	-41.7	-77.3	25	1
2023-09-03T12:00	32642	8	-41.7	-77.3	14	1
2023-09-03T12:00	32679	8	-41.7	-77.3	7	1
2023-09-03T12:00	32710	8	-41.7	-77.3	6	1
2023-09-03T12:00	32728	8	-41.8	-77.4	8	2
2023-09-03T12:00	32764	8	-41.9	-77.5	14	2
2023-09-03T12:00	32789	8	-41.8	-77.4	21	2
2023-09-03T12:00	32813	8	-41.7	-77.3	28	2
2023-09-03T12:00	32853	8	-41.6	-77.3	36	2
2023-09-03T12:00	32891	8	-41.6	-77.3	43	2
2023-09-03T12:00	32928	8	-41.6	-77.3	54	1
2023-09-03T12:00	32941	8	-41.5	-77.2	72	1
2023-09-03T12:00	32972	8	-41.6	-77.3	98	1
2023-09-03T12:00	32991	8	-41.6	-77.3	125	1
2023-09-03T12:00	33022	8	-41.7	-77.3	140	1
2023-09-03T12:00	33065	8	-41.9	-77.5	151	1
2023-09-03T12:00	33096	8	-42.0	-77.5	155	1
2023-09-03T12:00	33132	8	-42.2	-77.7	157	1
2023-09-03T12:00	33147	8	-42.4	-77.1	156	1
2023-09-03T12:00	33172	8	-42.6	-77.2	149	1
2023-09-03T12:00	33187	8	-42.9	-77.5	139	1
2023-09-03T12:00	33225	8	-43.1	-77.6	129	2
2023-09-03T12:00	33258	8	-43.2	-77.7	124	2
2023-09-03T12:00	33273	8	-43.3	-77.7	126	2
2023-09-03T12:00	33312	8	-43.3	-77.7	131	3
2023-09-03T12:00	33346	8	-43.5	-77.9	140	3
2023-09-03T12:00	33400	8	-43.7	-78.0	151	3
2023-09-03T12:00	33402	8	-43.6	-78.0	162	3
2023-09-03T12:00	33434	8	-43.5	-77.9	172	3
2023-09-03T12:00	33463	7	-43.5	-77.9	180	3
2023-09-03T12:00	33496	7	-43.5	-77.9	186	3
2023-09-03T12:00	33549	7	-43.5	-77.9	189	3
2023-09-03T12:00	33582	7	-43.5	-77.9	191	3
2023-09-03T12:00	33619	7	-43.4	-77.8	194	3
2023-09-03T12:00	33643	7	-43.3	-77.7	202	2
2023-09-03T12:00	33661	7	-43.2	-77.7	215	2
2023-09-03T12:00	33699	7	-43.0	-77.5	229	2
2023-09-03T12:00	33702	7	-43.0	-77.5	244	2
2023-09-03T12:00	33746	7	-43.1	-77.6	260	3
2023-09-03T12:00	33787	7	-43.1	-77.6	274	3
2023-09-03T12:00	33810	7	-43.2	-77.7	287	3
2023-09-03T12:00	33861	7	-43.2	-77.7	297	4
2023-09-03T12:00	33904	7	-42.9	-78.2	311	4
2023-09-03T12:00	33930	7	-42.6	-78.0	318	4
2023-09-03T12:00	33945	7	-42.2	-77.7	326	4
2023-09-03T12:00	33977	7	-42.0	-77.5	336	4
2023-09-03T12:00	33999	7	-41.9	-77.5	347	5
2023-09-03T12:00	34050	7	-41.8	-77.4	355	5
2023-09-03T12:00	34066	7	-41.9	-77.5	2	5
2023-09-03T12:00	34079	7	-42.0	-77.5	7	5
2023-09-03T12:00	34100	7	-42.0	-77.5	12	5
2023-09-03T12:00	34135	7	-42.1	-77.6	16	5
2023-09-03T12:00	34169	7	-42.1	-77.6	19	5
2023-09-03T12:00	34197	7	-42.0	-77.5	22	5
2023-09-03T12:00	34236	7	-41.8	-77.4	24	5
2023-09-03T12:00	34247	7	-41.6	-77.3	23	5
2023-09-03T12:00	34269	7	-41.4	-77.1	21	5
2023-09-03T12:00	34304	7	-41.3	-77.0	18	5
2023-09-03T12:00	34337	7	-41.3	-77.0	15	5
2023-09-03T12:00	34361	7	-41.4	-77.1	12	5
2023-09-03T12:00	34387	7	-41.4	-77.1	9	5
2023-09-03T12:00	34401	7	-41.4	-77.1	6	5
2023-09-03T12:00	34426	7	-41.5	-77.2	4	6
2023-09-03T12:00	34467	6	-41.5	-77.2	4	6
2023-09-03T12:00	34485	6	-41.5	-77.2	5	6
2023-09-03T12:00	34518	6	-41.5	-77.2	6	7
2023-09-03T12:00	34531	6	-41.4	-77.1	8	7
2023-09-03T12:00	34580	6	-41.4	-77.1	11	7
2023-09-03T12:00	34609	6	-41.0	-76.8	17	6
2023-09-03T12:00	34652	6	-40.7	-76.6	22	6
2023-09-03T12:00	34719	6	-40.5	-76.5	36	6
2023-09-03T12:00	34753	6	-40.7	-76.6	47	5
2023-09-03T12:00	34785	6	-40.6	-76.5	50	6
2023-09-03T12:00	34802	6	-40.6	-77.4	52	6
2023-09-03T12:00	34815	6	-40.6	-77.4	51	6
2023-09-03T12:00	34835	6	-40.6	-77.4	49	6
2023-09-03T12:00	34879	6	-40.5		47	6
2023-09-03T12:00	34886	6	-40.4	-77.2	46	6
2023-09-03T12:00	34906	6	-40.3	-77.2	46	6
2023-09-03T12:00	34939	6	-40.3	-77.2	49	6
2023-09-03T12:00	34961	6	-40.3	-77.2	51	5
2023-09-03T12:00	34965	6	-40.3	-77.2	53	5
2023-09-03T12:00	35015	6	-40.4	-77.2	54	5
2023-09-03T12:00	35024	6	-40.3	-77.2	52	5
2023-09-03T12:00	35062	6	-40.2	-77.1	50	5
2023-09-03T12:00	35077	6	-40.2	-77.1	48	6
2023-09-03T12:00	35099	6	-40.2	-77.1	46	6
2023-09-03T12:00	35111	6	-40.3	-77.2	46	6
2023-09-03T12:00	35142	6	-40.2	-77.1	48	6
2023-09-03T12:00	35169	6	-40.0	-76.9	50	6
2023-09-03T12:00	35198	6	-39.9	-76.9	55	6
2023-09-03T12:00	35251	6	-39.9	-76.9	60	5
2023-09-03T12:00	35305	6	-39.8	-76.8	72	5
2023-09-03T12:00	35314	6	-39.3	-76.4	87	4
2023-09-03T12:00	35342	6	-38.9	-76.2	97	4
2023-09-03T12:00	35351	6	-38.5	-75.9	106	3
2023-09-03T12:00	35390	6	-38.2	-75.7	116	3
2023-09-03T12:00	35398	6	-38.2	-75.7	125	3
2023-09-03T12:00	35445	6	-38.3	-75.7	135	2
2023-09-03T12:00	35478	6	-38.7	-76.0	158	2
2023-09-03T12:00	35539	6	-38.8	-76.1	169	2
2023-09-03T12:00	35570	6	-39.0	-76.2	176	3
2023-09-03T12:00	35597	5	-39.0	-76.2	185	3
2023-09-03T12:00	35645	5	-39.0	-76.2	189	3
2023-09-03T12:00	35661	5	-38.9	-76.2	197	2
2023-09-03T12:00	35682	5	-38.8	-76.1	202	2
2023-09-03T12:00	35716	5	-38.7	-76.0	210	1
2023-09-03T12:00	35744	5	-38.7	-76.0	245	0
2023-09-03T12:00	35763	5	-38.8	-76.1	2	1
2023-09-03T12:00	35778	5	-38.9	-76.2	16	1
2023-09-03T12:00	35818	5	-39.0	-76.2	20	2
2023-09-03T12:00	35819	5	-39.2	-76.4	22	3
2023-09-03T12:00	35845	5	-39.3	-76.4	22	3
2023-09-03T12:00	35903	5	-39.4	-76.5	21	4
2023-09-03T12:00	35906	5	-39.4	-76.5	20	4
2023-09-03T12:00	35927	5	-39.4	-76.5	19	4
2023-09-03T12:00	35992	5	-39.5	-76.6	20	5
2023-09-03T12:00	35999	5	-39.7	-76.7	23	5
2023-09-03T12:00	36015	5	-39.8	-76.8	27	5
2023-09-03T12:00	36034	5	-39.9	-76.9	32	6
2023-09-03T12:00	36093	5	-40.0	-76.9	37	6
2023-09-03T12:00	36097	5	-39.9	-76.9	42	7
2023-09-03T12:00	36137	5	-39.7	-76.7	47	7
2023-09-03T12:00	36176	5	-39.4	-76.5	51	7
2023-09-03T12:00	36204	5	-39.0	-76.2	58	7
2023-09-03T12:00	36253	5	-38.5	-75.9	67	6
2023-09-03T12:00	36311	5	-38.5	-75.9	72	6
2023-09-03T12:00	36346	5	-38.5	-75.9	78	5
2023-09-03T12:00	36371	5	-38.7	-76.0	98	5
2023-09-03T12:00	36389	5	-38.8	-76.1	103	5
2023-09-03T12:00	36406	5	-38.9	-76.2	108	5
2023-09-03T12:00	36441	5	-38.8	-76.1	112	5
2023-09-03T12:00	36471	5	-38.8	-76.1	117	5
2023-09-03T12:00	36482	5	-38.7	-76.0	122	4
2023-09-03T18:00	117	1013	18.5	11.6	312	2
2023-09-03T18:00	147	1010	18.7	9.9	312	3
2023-09-03T18:00	173	1007	18.6	9.8	309	4
2023-09-03T18:00	199	1004	18.4	9.5	307	4
2023-09-03T18:00	224	1001	18.1	9.4	307	5
2023-09-03T18:00	251	997	17.9	9.4	308	5
2023-09-03T18:00	278	994	17.7	9.4	309	6
2023-09-03T18:00	306	991	17.4	9.2	310	6
2023-09-03T18:00	332	988	17.3	8.9	311	6
2023-09-03T18:00	357	985	17.0	8.8	310	6
2023-09-03T18:00	386	982	16.8	8.9	310	7
2023-09-03T18:00	414	979	16.5	8.9	310	7
2023-09-03T18:00	442	975	16.2	8.8	311	7
2023-09-03T18:00	473	972	15.9	8.7	312	7
2023-09-03T18:00	501	969	15.6	8.6	313	7
2023-09-03T18:00	525	966	15.4	8.6	314	7
2023-09-03T18:00	550	963	15.2	8.5	313	7
2023-09-03T18:00	576	960	14.9	8.5	313	7
2023-09-03T18:00	599	957	14.7	8.4	312	7
2023-09-03T18:00	626	954	14.5	8.3	312	7
2023-09-03T18:00	652	952	14.2	8.3	312	7
2023-09-03T18:00	674	949	14.0	8.3	313	7
2023-09-03T18:00	700	946	13.7	8.1	315	7
2023-09-03T18:00	725	943	13.5	8.1	316	8
2023-09-03T18:00	749	941	13.3	8.1	317	8
2023-09-03T18:00	771	938	13.0	8.0	318	8
2023-09-03T18:00	796	935	12.8	8.0	318	8
2023-09-03T18:00	819	933	12.6	8.1	318	8
2023-09-03T18:00	843	930	12.4	7.9	319	8
2023-09-03T18:00	867	928	12.2		319	8
2023-09-03T18:00	893	925	11.9	7.8	319	8
2023-09-03T18:00	920	922	11.7	7.7	318	8
2023-09-03T18:00	946	919	11.4	7.7	318	8
2023-09-03T18:00	974	916	11.1	7.6	317	8
2023-09-03T18:00	1005	913	10.8	7.6	317	8
2023-09-03T18:00	1030	910	10.6	7.5	317	8
2023-09-03T18:00	1060	906	10.3	7.4	318	8
2023-09-03T18:00	1085	904	10.1	7.5	318	8
2023-09-03T18:00	1114	901	9.8	7.4	319	8
2023-09-03T18:00	1142	898	9.5	7.4	319	8
2023-09-03T18:00	1168	895	9.3	7.3	320	8
2023-09-03T18:00	1192	892	9.0	7.2	321	8
2023-09-03T18:00	1221	889	8.8	7.1	322	8
2023-09-03T18:00	1248	886	8.5	7.0	324	9
2023-09-03T18:00	1272	883	8.3		326	9
2023-09-03T18:00	1300	881	8.1	6.8	328	9
2023-09-03T18:00	1326	878	7.9	6.6	330	9
2023-09-03T18:00	1355	875	7.6	6.5	332	9
2023-09-03T18:00	1380	872	7.4	6.3	334	9
2023-09-03T18:00	1404	869	7.2	6.2	336	9
2023-09-03T18:00	1432	867	7.0	5.9	339	10
2023-09-03T18:00	1457	864	6.8	5.4	342	10
2023-09-03T18:00	1483	861	6.8	4.5	345	9
2023-09-03T18:00	1509	859	6.9	2.0	348	9
2023-09-03T18:00	1535	856	7.4	-0.7	351	9
2023-09-03T18:00	1561	853	7.6	-3.0	352	8
2023-09-03T18:00	1588	850	7.7	-3.8	352	8
2023-09-03T18:00	1613	848	7.9	-6.4	351	8
2023-09-03T18:00	1640	845	8.5	-8.3	349	8
2023-09-03T18:00	1670	842	8.7	-9.0	347	8
2023-09-03T18:00	1697	839	8.6	-9.7	345	8
2023-09-03T18:00	1729	836	8.6	-10.7	343	8
2023-09-03T18:00	1754	833	8.8	-13.9	342	8
2023-09-03T18:00	1780	831	9.1	-15.8	343	7
2023-09-03T18:00	1808	828	9.2	-15.6	344	7
2023-09-03T18:00	1836	825	9.0	-15.3	347	7
2023-09-03T18:00	1862	823	8.9	-15.2	349	7
2023-09-03T18:00	1891	820	8.8	-15.8	350	7
2023-09-03T18:00	1920	817	8.8	-16.0	349	7
2023-09-03T18:00	1952	814	8.6	-16.5	346	7
2023-09-03T18:00	1977	811	8.3	-16.6	344	7
2023-09-03T18:00	2002	809	8.1	-17.3	342	8
2023-09-03T18:00	2026	806	8.1	-17.0	341	8
2023-09-03T18:00	2053	804	7.9	-16.6	341	8
2023-09-03T18:00	2078	801	7.7	-16.2	341	8
2023-09-03T18:00	2108	798	7.5	-16.6	342	8
2023-09-03T18:00	2135	796	7.2	-17.3	341	8
2023-09-03T18:00	2167	793	7.0	-17.6	340	8
2023-09-03T18:00	2196	790	6.9	-17.9	338	8
2023-09-03T18:00	2224	787	6.7	-17.9	336	9
2023-09-03T18:00	2254	784	6.5	-18.0	334	9
2023-09-03T18:00	2283	782	6.4	-18.3	334	10
2023-09-03T18:00	2309	779	6.2	-18.3	335	10
2023-09-03T18:00	2336	777	6.1	-14.9	336	10
2023-09-03T18:00	2361	774	5.9	-12.4	338	11
2023-09-03T18:00	2388	772	5.7	-11.2	340	11
2023-09-03T18:00	2414	769	5.5	-9.7	342	11
2023-09-03T18:00	2441	767	5.4	-6.9	344	12
2023-09-03T18:00	2470	764	5.2	-6.0	345	12
2023-09-03T18:00	2495	761	4.9	-5.8	346	13
2023-09-03T18:00	2524	759	4.8	-4.0	348	13
2023-09-03T18:00	2553	756	4.6	-3.4	350	14
2023-09-03T18:00	2580	754	4.5	-3.0	352	15
2023-09-03T18:00	2607	751	4.2	-2.7	353	15
2023-09-03T18:00	2633	749	4.1	-1.8	354	16
2023-09-03T18:00	2660	746	4.0	-1.5	354	16
2023-09-03T18:00	2683	744	4.1	-2.4	353	17
2023-09-03T18:00	2709	742	4.0	-2.8	352	17
2023-09-03T18:00	2735	739	3.8	-2.7	351	18
2023-09-03T18:00	2762	737	3.6	-2.6	350	18
2023-09-03T18:00	2787	735	3.6	-3.0	349	18
2023-09-03T18:00	2816	732	3.6	-4.9	349	18
2023-09-03T18:00	2841	730	3.6	-3.8	350	18
2023-09-03T18:00	2870	727	4.0	2.0	350	18
2023-09-03T18:00	2896	725	4.0	1.8	351	18
2023-09-03T18:00	2925	722	4.0	1.7	353	18
2023-09-03T18:00	2951	720	4.1	2.1	355	18
2023-09-03T18:00	2977	718	4.1	1.9	356	18
2023-09-03T18:00	3003	715	3.9	1.8	358	18
2023-09-03T18:00	3028	713	3.7	1.7	360	18
2023-09-03T18:00	3056	711	3.5	1.6	1	18
2023-09-03T18:00	3080	709	3.4	1.5	1	18
2023-09-03T18:00	3106	706	3.4	1.3	1	19
2023-09-03T18:00	3129	704	3.3	1.3	0	19
2023-09-03T18:00	3156	702	3.2	1.2	0	19
2023-09-03T18:00	3183	700	3.1	1.1	360	19
2023-09-03T18:00	3213	697	2.9	1.0	360	19
2023-09-03T18:00	3240	695	2.7	0.8	360	19
2023-09-03T18:00	3265	693	2.5	0.7	359	20
2023-09-03T18:00	3291	690	2.4	0.7	358	20
2023-09-03T18:00	3318	688	2.3	0.8	357	20
2023-09-03T18:00	3343	686	2.2	0.9	356	20
2023-09-03T18:00	3366	684	2.0	1.0	355	21
2023-09-03T18:00	3392	682	1.9	1.4	354	21
2023-09-03T18:00	3420	680	1.9	1.7	353	22
2023-09-03T18:00	3446	677	1.7	1.7	352	22
2023-09-03T18:00	3473	675	1.6	1.6	352	23
2023-09-03T18:00	3501	673	1.5	1.5	351	23
2023-09-03T18:00	3530	670	1.4	1.4	351	23
2023-09-03T18:00	3559	668	1.2	1.2	350	23
2023-09-03T18:00	3585	666	1.1	1.1	350	23
2023-09-03T18:00	3614	663	1.0	1.0	350	23
2023-09-03T18:00	3644	661	0.9	0.8	350	23
2023-09-03T18:00	3673	659	0.7	0.7	350	23
2023-09-03T18:00	3703	656	0.5	0.5	351	23
2023-09-03T18:00	3732	654	0.3	0.3	351	23
2023-09-03T18:00	3761	651	0.1	0.1	352	23
2023-09-03T18:00	3790	649	-0.1	-0.1	353	23
2023-09-03T18:00	3820	647	-0.3	-0.3	353	23
2023-09-03T18:00	3849	644	-0.5	-0.5	354	23
2023-09-03T18:00	3878	642	-0.6	-0.7	354	23
2023-09-03T18:00	3909	640	-0.7	-0.8	355	23
2023-09-03T18:00	3937	637	-0.9	-1.0	355	23
2023-09-03T18:00	3966	635	-1.2	-1.2	356	23
2023-09-03T18:00	3994	633	-1.3	-1.3	358	24
2023-09-03T18:00	4022	630	-1.4	-1.4	359	24
2023-09-03T18:00	4053	628	-1.5	-1.5	0	25
2023-09-03T18:00	4081	626	-1.4	-1.4	1	25
2023-09-03T18:00	4112	623	-1.6	-1.6	2	25
2023-09-03T18:00	4141	621	-1.6	-1.6	2	25
2023-09-03T18:00	4170	619	-1.7	-1.7	3	25
2023-09-03T18:00	4201	617	-1.7	-1.7	3	25
2023-09-03T18:00	4231	614	-1.9	-2.0	3	25
2023-09-03T18:00	4258	612	-2.0	-2.3	3	25
2023-09-03T18:00	4288	610	-2.0	-2.6	2	25
2023-09-03T18:00	4318	608	-2.0	-3.0	1	25
2023-09-03T18:00	4348	605	-1.9	-3.3	0	25
2023-09-03T18:00	4377	603	-1.8	-3.4	360	26
2023-09-03T18:00	4406	601	-1.8	-3.6	359	26
2023-09-03T18:00	4436	599	-2.0	-3.7	359	26
2023-09-03T18:00	4464	596	-2.2	-3.9	359	26
2023-09-03T18:00	4493	594	-2.3	-3.9	358	26
2023-09-03T18:00	4521	592	-2.4	-4.1	358	26
2023-09-03T18:00	4549	590	-2.5	-4.1	358	27
2023-09-03T18:00	4575	588	-2.6	-4.3	357	27
2023-09-03T18:00	4603	586	-2.8	-4.5	357	27
2023-09-03T18:00	4629	584	-2.7	-5.1	357	27
2023-09-03T18:00	4658	582	-2.7	-5.3	356	28
2023-09-03T18:00	4685	580	-2.8	-5.6	356	28
2023-09-03T18:00	4714	578	-2.9	-6.3	355	28
2023-09-03T18:00	4741	576	-3.1	-6.7	355	28
2023-09-03T18:00	4769	574	-3.3	-6.9	354	29
2023-09-03T18:00	4794	572	-3.3	-7.3	353	29
2023-09-03T18:00	4821	570	-3.3	-8.2	353	29
2023-09-03T18:00	4850	568	-3.4	-8.5	353	29
2023-09-03T18:00	4877	566	-3.5	-8.8	353	29
2023-09-03T18:00	4903	564	-3.6	-9.2	353	29
2023-09-03T18:00	4932	562	-3.8	-9.2	352	29
2023-09-03T18:00	4962	560	-4.1	-8.8	352	28
2023-09-03T18:00	4989	558	-4.3	-8.7	352	28
2023-09-03T18:00	5018	556	-4.6	-8.8	351	28
2023-09-03T18:00	5046	554	-4.7	-8.9	350	28
2023-09-03T18:00	5076	552	-4.9	-9.0	350	28
2023-09-03T18:00	5105	550	-5.2	-9.2	350	28
2023-09-03T18:00	5134	548	-5.5	-9.4	350	29
2023-09-03T18:00	5165	546	-5.7	-9.5	350	29
2023-09-03T18:00	5192	544	-5.8	-10.1	351	30
2023-09-03T18:00	5221	542	-6.0	-10.3	351	30
2023-09-03T18:00	5251	540	-6.2	-10.5	351	30
2023-09-03T18:00	5280	538	-6.5	-10.6	351	31
2023-09-03T18:00	5308	536	-6.6	-11.1	351	31
2023-09-03T18:00	5338	534	-6.8	-11.2	351	31
2023-09-03T18:00	5367	532	-7.0	-11.3	351	31
2023-09-03T18:00	5396	530	-7.1	-11.5	351	31
2023-09-03T18:00	5425	528	-7.3	-11.6	350	31
2023-09-03T18:00	5455	526	-7.4	-11.7	350	31
2023-09-03T18:00	5486	524	-7.6	-11.9	349	30
2023-09-03T18:00	5514	522	-7.8	-12.1	348	30
2023-09-03T18:00	5542	520	-7.9	-12.3	348	30
2023-09-03T18:00	5570	518	-7.7	-12.6	347	30
2023-09-03T18:00	5599	516	-7.8	-12.3	347	30
2023-09-03T18:00	5627	515	-8.1	-12.4	347	30
2023-09-03T18:00	5656	513	-8.4	-12.6	347	29
2023-09-03T18:00	5684	511	-8.7	-12.7	346	30
2023-09-03T18:00	5717	509	-9.0	-12.7	346	30
2023-09-03T18:00	5744	507	-9.3	-12.8	346	30
2023-09-03T18:00	5774	505	-9.6	-12.9	346	30
2023-09-03T18:00	5803	503	-9.8	-12.9	345	30
2023-09-03T18:00	5834	501	-10.1	-13.0	345	30
2023-09-03T18:00	5865	499	-10.4	-13.2	345	30
2023-09-03T18:00	5893	497	-10.7	-13.3	344	30
2023-09-03T18:00	5921	495	-10.9	-13.3	344	30
2023-09-03T18:00	5949	493	-11.1	-13.3	344	29
2023-09-03T18:00	5980	491	-11.4	-13.4	343	29
2023-09-03T18:00	6014	489	-11.6	-13.6	343	29
2023-09-03T18:00	6040	488	-11.7	-13.7	342	28
2023-09-03T18:00	6065	486	-11.9	-13.9	342	28
2023-09-03T18:00	6096	484	-12.1	-13.9	342	28
2023-09-03T18:00	6128	482	-12.4	-14.0	343	28
2023-09-03T18:00	6159	480	-12.6	-14.1	343	28
2023-09-03T18:00	6188	478	-12.7	-14.3	344	28
2023-09-03T18:00	6218	476	-12.9	-14.3	344	28
2023-09-03T18:00	6252	474	-13.1	-14.7	344	28
2023-09-03T18:00	6284	472	-13.3	-14.8	344	27
2023-09-03T18:00	6316	470	-13.5	-14.9	344	27
2023-09-03T18:00	6348	468	-13.6	-15.0	344	27
2023-09-03T18:00	6374	467	-13.8	-15.2	344	27
2023-09-03T18:00	6401	465	-13.9	-15.2	345	26
2023-09-03T18:00	6427	464	-14.1	-15.5	345	26
2023-09-03T18:00	6454	462	-14.3	-15.7	345	26
2023-09-03T18:00	6484	460	-14.5	-15.9	345	26
2023-09-03T18:00	6512	458	-14.6	-16.1	345	26
2023-09-03T18:00	6538	457	-14.7	-16.2	345	26
2023-09-03T18:00	6564	455	-14.9	-16.4	344	27
2023-09-03T18:00	6588	454	-15.1	-16.7	344	27
2023-09-03T18:00	6616	452	-15.2	-16.8	343	27
2023-09-03T18:00	6642	451	-15.3	-17.0	343	27
2023-09-03T18:00	6663	449	-15.5	-17.2	343	27
2023-09-03T18:00	6693	448	-15.6	-17.3	344	27
2023-09-03T18:00	6723	446	-15.8	-17.6	344	26
2023-09-03T18:00	6750	444	-16.0	-17.8	344	26
2023-09-03T18:00	6778	443	-16.2	-18.0	344	26
2023-09-03T18:00	6803	441	-16.3	-18.0	343	26
2023-09-03T18:00	6832	439	-16.5	-18.3	343	25
2023-09-03T18:00	6862	438	-16.7	-18.6	343	25
2023-09-03T18:00	6890	436	-16.8	-18.7	343	25
2023-09-03T18:00	6917	434	-17.0	-19.0	343	25
2023-09-03T18:00	6949	433	-17.2	-19.1	343	25
2023-09-03T18:00	6981	431	-17.4	-19.2	343	26
2023-09-03T18:00	7007	429	-17.6	-19.5	343	26
2023-09-03T18:00	7039	427	-17.8	-19.7	343	26
2023-09-03T18:00	7066	426	-17.9	-20.1	343	26
2023-09-03T18:00	7091	424	-18.1	-20.2	342	26
2023-09-03T18:00	7115	423	-18.3	-20.3	342	26
2023-09-03T18:00	7140	422	-18.4	-20.5	341	26
2023-09-03T18:00	7168	420	-18.6	-20.7	342	26
2023-09-03T18:00	7196	419	-18.7	-20.9	342	26
2023-09-03T18:00	7218	417	-18.8	-21.0	343	26
2023-09-03T18:00	7245	416	-19.0	-21.2	344	26
2023-09-03T18:00	7272	414	-19.1	-21.3	345	26
2023-09-03T18:00	7300	413	-19.2	-21.4	346	26
2023-09-03T18:00	7329	411	-19.4	-21.5	346	26
2023-09-03T18:00	7358	410	-19.6	-21.8	346	26
2023-09-03T18:00	7386	408	-19.7	-21.9	346	26
2023-09-03T18:00	7417	406	-19.9	-22.3	346	26
2023-09-03T18:00	7453	404	-20.0	-22.4	345	26
2023-09-03T18:00	7479	403	-20.1	-22.5	346	26
2023-09-03T18:00	7502	402	-20.2	-22.5	346	26
2023-09-03T18:00	7534	400	-20.4	-22.7	346	26
2023-09-03T18:00	7555	399	-20.6	-23.0	346	26
2023-09-03T18:00	7579	397	-20.7	-23.1	346	26
2023-09-03T18:00	7604	396	-20.9	-23.2	345	26
2023-09-03T18:00	7633	395	-21.1	-23.4	344	26
2023-09-03T18:00	7661	393	-21.3	-23.6	343	26
2023-09-03T18:00	7688	392	-21.5	-23.9	343	26
2023-09-03T18:00	7709	391	-21.6	-23.9	342	27
2023-09-03T18:00	7731	389	-21.7	-24.0	342	27
2023-09-03T18:00	7754	388	-21.9	-24.2	343	27
2023-09-03T18:00	7781	387	-22.1	-24.5	343	27
2023-09-03T18:00	7804	386	-22.2	-24.6	343	27
2023-09-03T18:00	7828	384	-22.4	-24.7	343	27
2023-09-03T18:00	7851	383	-22.5	-24.8	343	28
2023-09-03T18:00	7879	382	-22.7	-25.0	344	28
2023-09-03T18:00	7904	380	-22.9	-25.2	344	28
2023-09-03T18:00	7931	379	-23.1	-25.3	345	28
2023-09-03T18:00	7965	377	-23.4	-25.6	346	28
2023-09-03T18:00	7989	376	-23.5	-25.7	347	28
2023-09-03T18:00	8014	375	-23.7	-25.9	347	28
2023-09-03T18:00	8040	373	-23.8	-26.0	348	28
2023-09-03T18:00	8070	372	-23.8	-26.0	348	28
2023-09-03T18:00	8091	371	-23.9	-26.2	349	28
2023-09-03T18:00	8113	370	-24.1	-26.4	349	27
2023-09-03T18:00	8136	368	-24.3	-26.5	349	27
2023-09-03T18:00	8161	367	-24.5	-26.7	349	27
2023-09-03T18:00	8186	366	-24.6	-26.9	349	27
2023-09-03T18:00	8207	365	-24.8	-27.1	349	27
2023-09-03T18:00	8230	364	-24.9	-27.2	348	27
2023-09-03T18:00	8252	363	-25.1	-27.5	348	27
2023-09-03T18:00	8277	361	-25.3	-27.7	348	27
2023-09-03T18:00	8300	360	-25.4	-27.7	348	27
2023-09-03T18:00	8325	359	-25.6	-28.0	348	27
2023-09-03T18:00	8349	358	-25.7	-28.0	348	27
2023-09-03T18:00	8375	357	-25.9	-28.4	348	27
2023-09-03T18:00	8402	355	-26.0	-28.3	348	27
2023-09-03T18:00	8434	354	-26.1	-28.5	348	27
2023-09-03T18:00	8467	352	-26.2	-29.0	349	27
2023-09-03T18:00	8489	351	-26.3	-28.8	350	27
2023-09-03T18:00	8518	350	-26.4	-29.0	351	27
2023-09-03T18:00	8543	348	-26.5	-29.1	352	28
2023-09-03T18:00	8571	347	-26.8	-29.3	353	28
2023-09-03T18:00	8595	346	-26.9	-29.3	353	28
2023-09-03T18:00	8619	345	-27.0	-29.4	353	28
2023-09-03T18:00	8639	344	-27.1	-29.6	352	28
2023-09-03T18:00	8662	343	-27.1	-29.5	352	28
2023-09-03T18:00	8684	342	-27.2	-29.8	352	28
2023-09-03T18:00	8707	341	-27.3	-29.9	352	28
2023-09-03T18:00	8729	339	-27.4	-30.0	352	28
2023-09-03T18:00	8752	338	-27.6	-30.2	353	28
2023-09-03T18:00	8774	337	-27.8	-30.4	353	29
2023-09-03T18:00	8803	336	-28.0	-30.6	354	29
2023-09-03T18:00	8830	335	-28.2	-30.9	354	29
2023-09-03T18:00	8851	334	-28.4	-31.1	354	29
2023-09-03T18:00	8877	333	-28.4	-31.0	353	29
2023-09-03T18:00	8906	331	-28.5	-31.1	353	29
2023-09-03T18:00	8935	330	-28.8	-31.5	352	29
2023-09-03T18:00	8970	328	-29.0	-31.7	352	29
2023-09-03T18:00	8997	327	-29.2	-32.0	352	29
2023-09-03T18:00	9020	326	-29.4	-32.0	352	30
2023-09-03T18:00	9040	325	-29.5	-32.1	353	30
2023-09-03T18:00	9065	324	-29.7	-32.3	353	30
2023-09-03T18:00	9096	323	-29.9	-32.7	353	30
2023-09-03T18:00	9122	321	-30.0	-32.8	353	30
2023-09-03T18:00	9152	320	-30.2	-33.0	353	30
2023-09-03T18:00	9178	319	-30.4	-33.2	353	31
2023-09-03T18:00	9204	318	-30.5	-33.2	353	32
2023-09-03T18:00	9227	317	-30.6	-33.2	353	32
2023-09-03T18:00	9252	316	-30.8	-33.4	353	33
2023-09-03T18:00	9276	314	-30.9	-33.6	354	33
2023-09-03T18:00	9299	313	-31.1	-33.8	354	33
2023-09-03T18:00	9328	312	-31.3	-34.0	355	33
2023-09-03T18:00	9353	311	-31.5	-34.2	355	33
2023-09-03T18:00	9375	310	-31.6	-34.4	356	33
2023-09-03T18:00	9398	309	-31.8	-34.5	356	34
2023-09-03T18:00	9419	308	-32.0	-34.6	356	34
2023-09-03T18:00	9440	307	-32.1	-34.8	356	34
2023-09-03T18:00	9464	306	-32.3	-35.1	355	34
2023-09-03T18:00	9485	305	-32.4	-35.3	355	34
2023-09-03T18:00	9508	304	-32.6	-35.5	355	34
2023-09-03T18:00	9531	303	-32.8	-35.7	355	35
2023-09-03T18:00	9556	302	-32.9	-35.8	355	35
2023-09-03T18:00	9577	301	-33.1	-36.0	355	35
2023-09-03T18:00	9599	300	-33.3	-36.2	356	35
2023-09-03T18:00	9627	299	-33.5	-36.3	356	35
2023-09-03T18:00	9649	298	-33.7	-36.7	356	35
2023-09-03T18:00	9677	297	-33.9	-36.9	356	35
2023-09-03T18:00	9700	296	-34.1	-37.1	356	35
2023-09-03T18:00	9719	295	-34.3	-37.1	356	35
2023-09-03T18:00	9741	294	-34.5	-37.4	356	35
2023-09-03T18:00	9762	294	-34.6	-37.6	356	35
2023-09-03T18:00	9783	293	-34.8	-37.8	356	35
2023-09-03T18:00	9803	292	-34.9	-37.9	356	35
2023-09-03T18:00	9824	291	-35.1	-38.1	356	35
2023-09-03T18:00	9850	290	-35.3	-38.4	355	35
2023-09-03T18:00	9869	289	-35.5	-38.7	355	35
2023-09-03T18:00	9889	288	-35.6	-38.8	355	35
2023-09-03T18:00	9911	287	-35.8	-38.9	355	35
2023-09-03T18:00	9930	286	-35.9	-39.1	355	35
2023-09-03T18:00	9952	286	-36.1	-39.3	355	35
2023-09-03T18:00	9974	285	-36.3	-39.5	355	35
2023-09-03T18:00	9996	284	-36.4	-39.6	355	35
2023-09-03T18:00	10018	283	-36.6	-39.9	355	35
2023-09-03T18:00	10043	282	-36.8	-40.1	355	36
2023-09-03T18:00	10066	281	-37.0	-40.3	355	36
2023-09-03T18:00	10087	280	-37.2	-40.6	355	36
2023-09-03T18:00	10108	279	-37.4	-40.6	355	36
2023-09-03T18:00	10133	278	-37.6	-40.8	355	36
2023-09-03T18:00	10154	277	-37.7	-41.0	355	36
2023-09-03T18:00	10174	277	-37.9	-41.2	355	36
2023-09-03T18:00	10196	276	-38.0	-41.2	356	36
2023-09-03T18:00	10219	275	-38.2	-41.3	356	36
2023-09-03T18:00	10238	274	-38.4	-41.5	356	36
2023-09-03T18:00	10260	273	-38.6	-41.8	356	36
2023-09-03T18:00	10281	272	-38.7	-42.0	356	36
2023-09-03T18:00	10300	272	-38.9	-42.2	356	36
2023-09-03T18:00	10322	271	-39.1	-42.5	356	36
2023-09-03T18:00	10344	270	-39.3	-42.7	356	36
2023-09-03T18:00	10368	269	-39.5	-43.0	356	36
2023-09-03T18:00	10389	268	-39.7	-43.1	356	36
2023-09-03T18:00	10411	267	-39.8	-43.1	356	37
2023-09-03T18:00	10434	266	-40.0	-43.3	355	37
2023-09-03T18:00	10456	265	-40.2	-43.5	355	37
2023-09-03T18:00	10477	265	-40.3	-43.6	355	37
2023-09-03T18:00	10498	264	-40.5	-43.8	355	37
2023-09-03T18:00	10520	263	-40.7	-44.0	355	38
2023-09-03T18:00	10541	262	-40.8	-44.1	355	38
2023-09-03T18:00	10566	261	-41.0	-44.3	354	38
2023-09-03T18:00	10591	260	-41.2	-44.6	355	38
2023-09-03T18:00	10614	259	-41.4	-44.9	355	38
2023-09-03T18:00	10637	258	-41.6	-45.0	355	39
2023-09-03T18:00	10661	258	-41.8	-45.2	356	39
2023-09-03T18:00	10682	257	-42.0	-45.3	356	39
2023-09-03T18:00	10706	256	-42.1	-45.4	357	39
2023-09-03T18:00	10727	255	-42.3	-45.6	357	39
2023-09-03T18:00	10749	254	-42.4	-45.8	357	40
2023-09-03T18:00	10771	253	-42.6	-46.0	357	40
2023-09-03T18:00	10794	253	-42.8	-46.2	357	40
2023-09-03T18:00	10817	252	-43.0	-46.4	357	40
2023-09-03T18:00	10839	251	-43.2	-46.6	357	40
2023-09-03T18:00	10862	250	-43.4	-46.8	357	40
2023-09-03T18:00	10886	249	-43.6	-46.9	357	40
2023-09-03T18:00	10909	248	-43.8	-47.1	357	40
2023-09-03T18:00	10931	247	-44.0	-47.5	358	40
2023-09-03T18:00	10957	247	-44.2	-47.9	358	40
2023-09-03T18:00	10979	246	-44.4	-48.0	358	40
2023-09-03T18:00	11003	245	-44.6	-48.1	358	40
2023-09-03T18:00	11025	244	-44.8	-48.3	358	40
2023-09-03T18:00	11048	243	-45.0	-48.4	358	40
2023-09-03T18:00	11072	242	-45.2	-48.6	359	40
2023-09-03T18:00	11093	241	-45.4	-48.8	359	40
2023-09-03T18:00	11116	241	-45.6	-48.9	359	40
2023-09-03T18:00	11139	240	-45.8	-49.0	359	40
2023-09-03T18:00	11164	239	-46.0	-49.2	359	40
2023-09-03T18:00	11188	238	-46.3	-49.5	359	40
2023-09-03T18:00	11212	237	-46.5	-49.8	359	40
2023-09-03T18:00	11239	236	-46.7	-50.0	359	40
2023-09-03T18:00	11265	235	-46.9	-50.3	359	41
2023-09-03T18:00	11289	234	-47.1	-50.4	358	41
2023-09-03T18:00	11316	234	-47.4	-50.5	358	41
2023-09-03T18:00	11340	233	-47.6	-50.8	358	41
2023-09-03T18:00	11362	232	-47.7	-51.0	358	42
2023-09-03T18:00	11383	231	-47.9	-51.2	358	42
2023-09-03T18:00	11408	230	-48.1	-51.4	358	42
2023-09-03T18:00	11432	230	-48.3	-51.6	358	42
2023-09-03T18:00	11452	229	-48.4	-51.7	358	43
2023-09-03T18:00	11477	228	-48.6	-51.9	357	43
2023-09-03T18:00	11498	227	-48.8	-52.0	357	43
2023-09-03T18:00	11522	226	-49.0	-52.3	357	44
2023-09-03T18:00	11544	226	-49.2	-52.5	357	44
2023-09-03T18:00	11568	225	-49.4	-52.8	357	44
2023-09-03T18:00	11588	224	-49.6	-53.0	357	44
2023-09-03T18:00	11611	223	-49.8	-53.3	357	45
2023-09-03T18:00	11633	223	-50.0	-53.5	357	45
2023-09-03T18:00	11656	222	-50.2	-53.6	357	45
2023-09-03T18:00	11679	221	-50.3	-53.7	358	45
2023-09-03T18:00	11701	220	-50.5	-54.0	358	45
2023-09-03T18:00	11725	219	-50.7	-54.3	359	46
2023-09-03T18:00	11748	219	-50.8		359	46
2023-09-03T18:00	11768	218	-50.9	-54.5	360	46
2023-09-03T18:00	11789	217	-51.1	-54.6	360	46
2023-09-03T18:00	11812	217	-51.2	-54.7	0	46
2023-09-03T18:00	11833	216	-51.4	-54.9	1	46
2023-09-03T18:00	11856	215	-51.6	-55.2	1	46
2023-09-03T18:00	11875	214	-51.7	-55.3	2	46
2023-09-03T18:00	11894	214	-51.8	-55.4	2	46
2023-09-03T18:00	11921	213	-51.9	-55.5	3	46
2023-09-03T18:00	11944	212	-52.0	-55.6	3	46
2023-09-03T18:00	11968	211	-52.1	-55.7	3	45
2023-09-03T18:00	11989	211	-52.3	-55.9	4	45
2023-09-03T18:00	12013	210	-52.4	-56.0	4	45
2023-09-03T18:00	12035	209	-52.6	-56.1	4	44
2023-09-03T18:00	12057	208	-52.8	-56.4	4	44
2023-09-03T18:00	12079	208	-52.9	-56.5	4	43
2023-09-03T18:00	12101	207	-53.1	-56.8	4	42
2023-09-03T18:00	12124	206	-53.2	-56.9	5	42
2023-09-03T18:00	12154	205	-53.4	-57.1	5	41
2023-09-03T18:00	12177	205	-53.5	-57.3	6	40
2023-09-03T18:00	12199	204	-53.7	-57.4	6	40
2023-09-03T18:00	12219	203	-53.8	-57.2	7	40
2023-09-03T18:00	12239	203	-53.8	-56.8	8	40
2023-09-03T18:00	12259	202	-53.8	-56.5	8	40
2023-09-03T18:00	12280	201	-53.9	-56.3	8	40
2023-09-03T18:00	12301	201	-54.0	-56.5	9	39
2023-09-03T18:00	12320	200	-54.1	-56.9	9	39
2023-09-03T18:00	12343	199	-54.3	-57.7	9	39
2023-09-03T18:00	12362	199	-54.5	-58.3	9	39
2023-09-03T18:00	12383	198	-54.6	-58.5	9	39
2023-09-03T18:00	12403	198	-54.7	-58.7	9	39
2023-09-03T18:00	12424	197	-54.9	-59.0	9	39
2023-09-03T18:00	12444	196	-55.0	-59.2	9	39
2023-09-03T18:00	12466	196	-55.1	-59.3	9	39
2023-09-03T18:00	12487	195	-55.2	-59.3	9	38
2023-09-03T18:00	12508	194	-55.4	-59.4	9	38
2023-09-03T18:00	12526	194	-55.5	-59.1	9	38
2023-09-03T18:00	12547	193	-55.6	-58.5	8	38
2023-09-03T18:00	12570	192	-55.8	-57.9	8	38
2023-09-03T18:00	12588	192	-55.9	-57.5	8	38
2023-09-03T18:00	12609	191	-56.0	-57.4	8	38
2023-09-03T18:00	12629	191	-56.0	-57.3	8	38
2023-09-03T18:00	12649	190	-56.1	-57.3	9	38
2023-09-03T18:00	12670	189	-56.3	-57.4	9	38
2023-09-03T18:00	12690	189	-56.4	-57.7	10	38
2023-09-03T18:00	12711	188	-56.4	-57.9	10	38
2023-09-03T18:00	12732	188	-56.6	-58.4	11	38
2023-09-03T18:00	12753	187	-56.7	-58.7	12	38
2023-09-03T18:00	12775	186	-56.9	-59.1	12	38
2023-09-03T18:00	12796	186	-57.1	-59.2	12	38
2023-09-03T18:00	12818	185	-57.2	-59.2	13	38
2023-09-03T18:00	12839	184	-57.4	-59.2	13	38
2023-09-03T18:00	12858	184	-57.6	-59.2	14	38
2023-09-03T18:00	12879	183	-57.8	-59.2	14	38
2023-09-03T18:00	12896	183	-58.0	-59.3	14	38
2023-09-03T18:00	12919	182	-58.1	-59.3	15	38
2023-09-03T18:00	12942	181	-58.3		15	38
2023-09-03T18:00	12962	181	-58.4	-59.7	16	38
2023-09-03T18:00	12982	180	-58.5	-59.8	16	38
2023-09-03T18:00	13004	180	-58.6	-60.0	16	37
2023-09-03T18:00	13024	179	-58.7	-60.3	17	37
2023-09-03T18:00	13045	178	-58.8	-60.7	17	36
2023-09-03T18:00	13067	178	-58.9	-60.9	17	35
2023-09-03T18:00	13091	177	-58.9	-61.0	17	35
2023-09-03T18:00	13116	176	-58.9	-61.1	17	34
2023-09-03T18:00	13144	176	-59.1	-61.3	17	33
2023-09-03T18:00	13168	175	-59.1	-61.4	16	32
2023-09-03T18:00	13192	174	-59.2	-61.6	16	32
2023-09-03T18:00	13215	174	-59.3	-61.8	16	31
2023-09-03T18:00	13236	173	-59.5	-62.0	15	31
2023-09-03T18:00	13260	173	-59.6	-62.2	15	31
2023-09-03T18:00	13285	172	-59.8	-62.4	15	30
2023-09-03T18:00	13307	171	-59.9	-62.5	14	30
2023-09-03T18:00	13331	171	-60.1	-62.8	13	30
2023-09-03T18:00	13352	170	-60.3	-63.2	12	29
2023-09-03T18:00	13374	169	-60.2	-63.4	11	29
2023-09-03T18:00	13396	169	-60.2	-63.9	10	29
2023-09-03T18:00	13417	168	-60.2	-64.4	10	29
2023-09-03T18:00	13439	168	-60.3	-64.8	9	29
2023-09-03T18:00	13462	167	-60.5	-65.1	8	28
2023-09-03T18:00	13484	166	-60.6	-65.1	7	28
2023-09-03T18:00	13507	166	-60.8	-65.1	6	28
2023-09-03T18:00	13527	165	-61.0	-65.2	6	28
2023-09-03T18:00	13551	165	-61.2	-65.4	5	27
2023-09-03T18:00	13574	164	-61.3	-65.5	4	27
2023-09-03T18:00	13599	163	-61.5	-65.8	2	27
2023-09-03T18:00	13626	163	-61.6	-66.1	1	26
2023-09-03T18:00	13648	162	-61.8	-66.6	359	26
2023-09-03T18:00	13669	162	-61.9	-67.2	357	26
2023-09-03T18:00	13692	161	-61.9	-67.8	355	26
2023-09-03T18:00	13714	160	-61.9	-68.5	353	26
2023-09-03T18:00	13737	160	-61.8	-69.4	351	26
2023-09-03T18:00	13757	159	-61.7	-70.3	350	26
2023-09-03T18:00	13780	159	-61.5	-71.2	348	27
2023-09-03T18:00	13802	158	-61.6	-72.2	347	27
2023-09-03T18:00	13825	157	-61.7	-73.1	346	27
2023-09-03T18:00	13846	157	-61.7	-74.0	345	28
2023-09-03T18:00	13870	156	-61.6	-74.8	344	28
2023-09-03T18:00	13891	156	-61.6	-75.8	344	29
2023-09-03T18:00	13913	155	-61.4	-76.6	343	29
2023-09-03T18:00	13934	155	-61.4	-77.2	342	30
2023-09-03T18:00	13956	154	-61.5	-77.5	342	30
2023-09-03T18:00	13980	154	-61.7	-77.5	342	31
2023-09-03T18:00	14002	153	-61.8	-77.5	342	31
2023-09-03T18:00	14024	153	-61.9	-77.6	342	32
2023-09-03T18:00	14043	152	-62.0	-78.0	343	32
2023-09-03T18:00	14067	152	-62.0	-78.4	344	32
2023-09-03T18:00	14088	151	-61.9	-78.7	345	33
2023-09-03T18:00	14107	150	-61.7	-78.9	346	33
2023-09-03T18:00	14129	150	-61.6	-79.0	347	33
2023-09-03T18:00	14149	149	-61.7	-79.3	347	33
2023-09-03T18:00	14170	149	-61.7	-79.4	348	33
2023-09-03T18:00	14190	148	-61.9	-79.4	349	34
2023-09-03T18:00	14212	148	-62.0	-79.4	350	34
2023-09-03T18:00	14233	147	-62.0	-79.4	351	34
2023-09-03T18:00	14256	147	-62.0	-79.5	352	34
2023-09-03T18:00	14279	146	-61.8	-79.5	354	34
2023-09-03T18:00	14303	146	-61.6	-79.6	356	34
2023-09-03T18:00	14326	145	-61.7	-80.1	357	33
2023-09-03T18:00	14349	145	-61.4	-80.1	359	33
2023-09-03T18:00	14374	144	-61.1	-80.2	1	32
2023-09-03T18:00	14400	143	-61.2	-80.6	4	31
2023-09-03T18:00	14433	143	-61.0	-80.8	6	30
2023-09-03T18:00	14464	142	-61.0	-81.0	7	29
2023-09-03T18:00	14487	142	-60.9	-81.1	8	28
2023-09-03T18:00	14510	141	-60.7	-81.0	9	27
2023-09-03T18:00	14533	140	-60.5	-81.0	9	27
2023-09-03T18:00	14557	140	-60.4	-81.0	8	27
2023-09-03T18:00	14579	139	-60.4	-81.2	7	26
2023-09-03T18:00	14604	139	-60.4	-81.2	6	26
2023-09-03T18:00	14627	138	-60.1	-80.9	6	26
2023-09-03T18:00	14648	138	-60.1	-80.9	5	26
2023-09-03T18:00	14669	137	-60.3	-81.0	5	26
2023-09-03T18:00	14692	137	-60.5	-81.0	4	26
2023-09-03T18:00	14714	136	-60.6	-81.0	4	27
2023-09-03T18:00	14736	136	-60.7	-80.9	4	27
2023-09-03T18:00	14756	136	-60.7	-80.9	3	27
2023-09-03T18:00	14776	135	-60.8	-80.9	3	27
2023-09-03T18:00	14801	135	-60.8	-80.9	2	27
2023-09-03T18:00	14821	134	-61.0	-81.0	3	27
2023-09-03T18:00	14844	134	-61.1		4	27
2023-09-03T18:00	14865	133	-61.2	-81.4	5	27
2023-09-03T18:00	14889	133	-60.9	-81.3	7	26
2023-09-03T18:00	14912	132	-60.6	-81.3	8	26
2023-09-03T18:00	14940	132	-60.3	-81.4	10	25
2023-09-03T18:00	14962	131	-60.1	-81.4	11	24
2023-09-03T18:00	14989	131	-60.1	-81.5	12	23
2023-09-03T18:00	15011	130	-60.3	-81.7	12	23
2023-09-03T18:00	15034	130	-60.4	-81.8	13	22
2023-09-03T18:00	15057	129	-60.6	-81.8	12	22
2023-09-03T18:00	15079	129	-60.7	-81.9	12	21
2023-09-03T18:00	15104	128	-60.9	-82.0	11	20
2023-09-03T18:00	15127	128	-61.0	-82.1	11	20
2023-09-03T18:00	15146	127	-61.1	-82.2	10	19
2023-09-03T18:00	15168	127	-61.0	-82.1	8	19
2023-09-03T18:00	15190	126	-61.0	-82.2	7	19
2023-09-03T18:00	15211	126	-61.1	-82.3	6	18
2023-09-03T18:00	15234	126	-61.1	-82.5	6	18
2023-09-03T18:00	15255	125	-61.1	-82.8	6	18
2023-09-03T18:00	15276	125	-61.0	-83.0	6	18
2023-09-03T18:00	15299	124	-60.6	-83.1	6	18
2023-09-03T18:00	15319	124	-60.5	-83.2	6	18
2023-09-03T18:00	15342	123	-60.4	-83.3	6	17
2023-09-03T18:00	15364	123	-60.6	-83.4	5	17
2023-09-03T18:00	15387	122	-60.8	-83.4	4	17
2023-09-03T18:00	15407	122	-61.0	-83.4	4	17
2023-09-03T18:00	15428	122	-61.1	-83.3	3	17
2023-09-03T18:00	15448	121	-61.1	-83.3	3	17
2023-09-03T18:00	15472	121	-61.1	-83.1	2	17
2023-09-03T18:00	15492	120	-61.0	-83.0	1	17
2023-09-03T18:00	15514	120	-61.0	-83.0	0	17
2023-09-03T18:00	15534	120	-61.0	-82.9	359	17
2023-09-03T18:00	15557	119	-61.2	-83.0	357	18
2023-09-03T18:00	15578	119	-61.2	-83.0	357	18
2023-09-03T18:00	15597	118	-61.2	-83.0	356	18
2023-09-03T18:00	15619	118	-61.3	-83.1	356	18
2023-09-03T18:00	15640	118	-61.3	-83.3	356	18
2023-09-03T18:00	15661	117	-61.3	-83.3	356	18
2023-09-03T18:00	15683	117	-61.3	-83.4	357	18
2023-09-03T18:00	15706	116	-61.1	-83.6	357	18
2023-09-03T18:00	15728	116	-60.8	-83.6	357	18
2023-09-03T18:00	15752	116	-60.2	-83.5	358	17
2023-09-03T18:00	15775	115	-59.9	-83.7	358	17
2023-09-03T18:00	15797	115	-59.7	-83.7	358	16
2023-09-03T18:00	15817	114	-59.6	-83.9	358	16
2023-09-03T18:00	15837	114	-59.6	-83.9	358	16
2023-09-03T18:00	15862	113	-59.4	-83.7	359	15
2023-09-03T18:00	15883	113	-59.5	-83.8	359	15
2023-09-03T18:00	15906	113	-59.7	-84.0	359	15
2023-09-03T18:00	15926	112	-59.6	-83.9	359	15
2023-09-03T18:00	15948	112	-59.5	-83.8	359	15
2023-09-03T18:00	15969	112	-59.5	-83.8	359	15
2023-09-03T18:00	15991	111	-59.4	-83.7	360	15
2023-09-03T18:00	16013	111	-59.4	-83.7	0	15
2023-09-03T18:00	16037	110	-59.4	-83.7	1	15
2023-09-03T18:00	16060	110	-59.4	-83.7	2	14
2023-09-03T18:00	16081	110	-59.2	-83.6	3	14
2023-09-03T18:00	16103	109	-59.2	-83.6	3	14
2023-09-03T18:00	16123	109	-59.0	-83.4	4	14
2023-09-03T18:00	16145	108	-58.9	-83.3	4	13
2023-09-03T18:00	16168	108	-58.8	-83.3	3	13
2023-09-03T18:00	16189	108	-58.7	-83.2	2	13
2023-09-03T18:00	16212	107	-58.5	-83.3	2	13
2023-09-03T18:00	16234	107	-58.5	-83.3	1	13
2023-09-03T18:00	16254	107	-58.6	-83.1	1	13
2023-09-03T18:00	16276	106	-58.8	-83.3	1	13
2023-09-03T18:00	16300	106	-59.0	-83.4	1	13
2023-09-03T18:00	16320	105	-59.1	-83.3	1	13
2023-09-03T18:00	16344	105	-59.3	-83.4	2	13
2023-09-03T18:00	16365	105	-59.2	-83.3	3	13
2023-09-03T18:00	16387	104	-59.2	-83.3	5	13
2023-09-03T18:00	16410	104	-59.3	-83.4	5	13
2023-09-03T18:00	16431	104	-59.3	-83.4	6	13
2023-09-03T18:00	16454	103	-59.3	-83.4	6	12
2023-09-03T18:00	16477	103	-59.3	-83.4	5	12
2023-09-03T18:00	16497	103	-59.3	-83.4	4	11
2023-09-03T18:00	16518	102	-59.2	-83.3	3	11
2023-09-03T18:00	16538	102	-59.3	-83.7	2	10
2023-09-03T18:00	16562	101	-59.3	-83.7	360	10
2023-09-03T18:00	16582	101	-59.3	-83.7	357	10
2023-09-03T18:00	16604	101	-59.3	-83.4	355	10
2023-09-03T18:00	16625	100	-59.4	-83.5	354	10
2023-09-03T18:00	16644	100	-59.5	-83.6	354	11
2023-09-03T18:00	16666	100	-59.7	-83.7	354	11
2023-09-03T18:00	16687	99	-59.7	-83.7	355	12
2023-09-03T18:00	16710	99	-59.6	-83.7	355	12
2023-09-03T18:00	16734	99	-59.6	-83.7	355	12
2023-09-03T18:00	16754	98	-59.8	-83.8	355	12
2023-09-03T18:00	16774	98	-60.0	-84.0	355	12
2023-09-03T18:00	16796	98	-60.0	-84.0	356	12
2023-09-03T18:00	16816	97	-60.0	-84.2	357	11
2023-09-03T18:00	16839	97	-59.7	-84.0	360	11
2023-09-03T18:00	16859	97	-59.6	-84.1	2	11
2023-09-03T18:00	16881	96	-59.7	-84.2	4	11
2023-09-03T18:00	16901	96	-59.3	-84.1	6	10
2023-09-03T18:00	16922	96	-59.2	-84.1	6	10
2023-09-03T18:00	16945	95	-59.0	-84.2	6	10
2023-09-03T18:00	16967	95	-59.0	-84.2	6	10
2023-09-03T18:00	16987	95	-58.8	-84.0	5	10
2023-09-03T18:00	17012	94	-58.9	-84.1	3	10
2023-09-03T18:00	17034	94	-59.0	-84.2	0	10
2023-09-03T18:00	17055	94	-58.7	-84.2	358	10
2023-09-03T18:00	17074	93	-58.8	-84.3	356	10
2023-09-03T18:00	17098	93	-58.9	-84.4	355	10
2023-09-03T18:00	17121	93	-58.8	-84.3	355	10
2023-09-03T18:00	17143	92	-58.8	-84.3	356	11
2023-09-03T18:00	17165	92	-58.7	-84.5	356	11
2023-09-03T18:00	17188	92	-58.4	-84.3	357	11
2023-09-03T18:00	17211	91	-58.2	-84.4	356	11
2023-09-03T18:00	17233	91	-58.2	-84.4	356	11
2023-09-03T18:00	17258	91	-58.0	-84.2	356	11
2023-09-03T18:00	17279	91	-58.0	-84.2	356	11
2023-09-03T18:00	17302	90	-57.8	-84.1	357	11
2023-09-03T18:00	17326	90	-57.7	-84.0	358	11
2023-09-03T18:00	17347	90	-57.8	-84.1	359	11
2023-09-03T18:00	17371	89	-57.8	-84.1	1	12
2023-09-03T18:00	17395	89	-57.9	-84.2	4	12
2023-09-03T18:00	17422	89	-58.0	-84.2	6	12
2023-09-03T18:00	17441	88	-57.9	-84.2	7	12
2023-09-03T18:00	17464	88	-57.9	-84.2	9	12
2023-09-03T18:00	17488	88	-57.9	-84.2	10	12
2023-09-03T18:00	17511	87	-57.8	-84.1	10	11
2023-09-03T18:00	17533	87	-58.0	-84.2	10	11
2023-09-03T18:00	17557	87	-58.1	-84.3	9	11
2023-09-03T18:00	17579	86	-58.3	-84.5	8	11
2023-09-03T18:00	17600	86	-58.4	-84.3	7	10
2023-09-03T18:00	17626	86	-58.5	-84.3	5	10
2023-09-03T18:00	17649	85	-58.6	-84.4	2	10
2023-09-03T18:00	17670	85	-58.6	-84.7	360	10
2023-09-03T18:00	17693	85	-58.6	-84.7	358	10
2023-09-03T18:00	17715	84	-58.3	-84.8	357	10
2023-09-03T18:00	17735	84	-58.0	-84.6	357	10
2023-09-03T18:00	17757	84	-57.6	-84.6	356	11
2023-09-03T18:00	17779	84	-57.6	-84.6	357	11
2023-09-03T18:00	17800	83	-57.5	-84.5	358	11
2023-09-03T18:00	17823	83	-57.4	-84.4	359	11
2023-09-03T18:00	17845	83	-57.2	-84.3	0	11
2023-09-03T18:00	17866	82	-57.1	-84.2	1	11
2023-09-03T18:00	17888	82	-57.2	-84.3	2	11
2023-09-03T18:00	17912	82	-57.1	-84.2	2	11
2023-09-03T18:00	17932	82	-57.2	-84.3	3	11
2023-09-03T18:00	17957	81	-57.2	-84.3	3	11
2023-09-03T18:00	17978	81	-57.1	-84.2	3	11
2023-09-03T18:00	18000	81	-57.2	-83.9	3	11
2023-09-03T18:00	18024	80	-57.4	-84.1	2	11
2023-09-03T18:00	18045	80	-57.5	-84.2	1	11
2023-09-03T18:00	18069	80	-57.6	-84.3	0	11
2023-09-03T18:00	18095	80	-57.7	-84.3	1	11
2023-09-03T18:00	18118	79	-57.5	-84.5	2	11
2023-09-03T18:00	18143	79	-57.3	-84.4	4	11
2023-09-03T18:00	18167	79	-57.2	-84.3	7	11
2023-09-03T18:00	18190	78	-57.1	-84.2	10	11
2023-09-03T18:00	18214	78	-57.2	-84.3	13	11
2023-09-03T18:00	18239	78	-57.1	-84.2	17	11
2023-09-03T18:00	18263	77	-56.9	-84.0	20	11
2023-09-03T18:00	18288	77	-57.0	-84.1	23	10
2023-09-03T18:00	18311	77	-57.1	-84.2	26	10
2023-09-03T18:00	18335	77	-57.2	-84.3	29	10
2023-09-03T18:00	18360	76	-57.3	-84.0	32	9
2023-09-03T18:00	18383	76	-57.5	-84.2	34	9
2023-09-03T18:00	18408	76	-57.6	-84.3	36	9
2023-09-03T18:00	18429	75	-57.7	-84.3	37	9
2023-09-03T18:00	18456	75	-57.8	-84.1	38	8
2023-09-03T18:00	18479	75	-58.1	-84.3	38	8
2023-09-03T18:00	18500	75	-58.2	-84.4	38	8
2023-09-03T18:00	18527	74	-58.4	-84.6	39	8
2023-09-03T18:00	18550	74	-58.5	-84.6	39	7
2023-09-03T18:00	18571	74	-58.5	-84.6	38	7
2023-09-03T18:00	18595	73	-58.5	-84.6	37	7
2023-09-03T18:00	18619	73	-58.5	-84.6	35	7
2023-09-03T18:00	18640	73	-58.5	-84.6	31	7
2023-09-03T18:00	18665	73	-58.5	-84.9	26	7
2023-09-03T18:00	18688	72	-58.3	-84.8	20	7
2023-09-03T18:00	18712	72	-58.3	-84.8	16	7
2023-09-03T18:00	18734	72	-58.3	-84.8	13	8
2023-09-03T18:00	18758	72	-58.3	-84.8	12	8
2023-09-03T18:00	18779	71	-58.4	-84.9	12	8
2023-09-03T18:00	18801	71	-58.4	-84.9	14	8
2023-09-03T18:00	18828	71	-58.3	-84.8	15	8
2023-09-03T18:00	18849	71	-58.2	-84.7	17	8
2023-09-03T18:00	18871	70	-58.2	-84.7	18	8
2023-09-03T18:00	18897	70	-58.1	-84.6	20	8
2023-09-03T18:00	18919	70	-58.2	-84.7	21	8
2023-09-03T18:00	18939	70	-58.2	-84.7	23	8
2023-09-03T18:00	18961	69	-58.2	-85.0	26	8
2023-09-03T18:00	18987	69	-58.2	-85.0	28	8
2023-09-03T18:00	19007	69	-58.3	-85.5	30	8
2023-09-03T18:00	19031	69	-58.2	-85.4	30	8
2023-09-03T18:00	19053	68	-58.1	-85.3	30	8
2023-09-03T18:00	19075	68	-58.2	-85.0	28	8
2023-09-03T18:00	19100	68	-58.1	-85.0	26	7
2023-09-03T18:00	19121	68	-58.0	-84.6	24	7
2023-09-03T18:00	19141	67	-57.8	-84.4	21	6
2023-09-03T18:00	19163	67	-57.8	-84.4	18	6
2023-09-03T18:00	19186	67	-57.9	-84.8	13	5
2023-09-03T18:00	19208	67	-57.9	-84.8	8	5
2023-09-03T18:00	19233	66	-58.0	-85.2	2	5
2023-09-03T18:00	19254	66	-57.8	-85.1	358	5
2023-09-03T18:00	19278	66	-57.4	-84.8	357	5
2023-09-03T18:00	19301	66	-57.3	-84.7	358	5
2023-09-03T18:00	19320	65	-57.3	-84.7	0	5
2023-09-03T18:00	19347	65	-57.2	-84.6	3	5
2023-09-03T18:00	19365	65	-57.1	-84.6	6	5
2023-09-03T18:00	19392	65	-57.0	-84.5	9	5
2023-09-03T18:00	19417	65	-57.1	-84.6	12	4
2023-09-03T18:00	19436	64	-57.2	-84.6	15	4
2023-09-03T18:00	19465	64	-57.2	-84.6	19	4
2023-09-03T18:00	19485	64	-57.0	-84.5	23	3
2023-09-03T18:00	19509	64	-57.1	-84.6	28	3
2023-09-03T18:00	19529	63	-57.3	-84.7	31	2
2023-09-03T18:00	19558	63	-57.3	-84.4	31	2
2023-09-03T18:00	19578	63	-57.4	-84.4	25	2
2023-09-03T18:00	19598	63	-57.3	-84.7	13	2
2023-09-03T18:00	19626	62	-57.3	-84.7	358	2
2023-09-03T18:00	19651	62	-57.3	-84.7	347	2
2023-09-03T18:00	19669	62	-57.3	-84.7	342	3
2023-09-03T18:00	19700	62	-57.4	-84.8	340	4
2023-09-03T18:00	19719	61	-57.5	-84.9	342	4
2023-09-03T18:00	19745	61	-57.6	-84.9	344	5
2023-09-03T18:00	19770	61	-57.6	-84.9	348	5
2023-09-03T18:00	19797	61	-57.5	-84.9	351	6
2023-09-03T18:00	19819	61	-57.6	-84.9	354	6
2023-09-03T18:00	19840	60	-57.5	-84.9	356	7
2023-09-03T18:00	19866	60	-57.4	-85.2	357	7
2023-09-03T18:00	19889	60	-57.5	-85.2	358	7
2023-09-03T18:00	19914	60	-57.2	-85.0	359	7
2023-09-03T18:00	19941	59	-57.2	-85.0	359	7
2023-09-03T18:00	19962	59	-57.3	-85.1	359	7
2023-09-03T18:00	19985	59	-57.4	-85.2	360	7
2023-09-03T18:00	20014	59	-57.1	-84.9	0	7
2023-09-03T18:00	20035	58	-57.1	-84.9	0	7
2023-09-03T18:00	20058	58	-57.0	-84.8	360	7
2023-09-03T18:00	20084	58	-57.0	-84.8	360	6
2023-09-03T18:00	20111	58	-57.0	-84.8	360	6
2023-09-03T18:00	20133	58	-57.0	-84.8	1	5
2023-09-03T18:00	20157	57	-57.0	-85.2	2	5
2023-09-03T18:00	20178	57	-56.9	-85.2	3	4
2023-09-03T18:00	20203	57	-56.7	-85.0	2	4
2023-09-03T18:00	20230	57	-56.8	-85.1	359	4
2023-09-03T18:00	20250	57	-56.8	-84.7	355	5
2023-09-03T18:00	20268	56	-56.8	-84.7	351	5
2023-09-03T18:00	20297	56	-56.9	-84.8	348	6
2023-09-03T18:00	20319	56	-56.9	-84.8	345	6
2023-09-03T18:00	20344	56	-56.8	-84.7	343	7
2023-09-03T18:00	20367	55	-56.7	-84.6	341	7
2023-09-03T18:00	20389	55	-56.5	-84.9	340	7
2023-09-03T18:00	20417	55	-56.3	-84.7	340	8
2023-09-03T18:00	20440	55	-56.3	-85.1	341	8
2023-09-03T18:00	20466	55	-56.4	-84.8	343	8
2023-09-03T18:00	20490	54	-56.4	-84.8	346	8
2023-09-03T18:00	20510	54	-56.6	-84.5	350	8
2023-09-03T18:00	20533	54	-56.7	-84.6	354	8
2023-09-03T18:00	20552	54	-56.7	-84.6	358	8
2023-09-03T18:00	20578	54	-56.8	-84.7	1	8
2023-09-03T18:00	20601	53	-56.7	-85.0	4	9
2023-09-03T18:00	20622	53	-56.7	-85.0	6	9
2023-09-03T18:00	20645	53	-56.8	-85.1	7	9
2023-09-03T18:00	20671	53	-56.9	-85.2	8	9
2023-09-03T18:00	20692	53	-57.0	-85.2	8	9
2023-09-03T18:00	20715	53	-57.1	-84.9	9	9
2023-09-03T18:00	20734	52	-57.1	-84.9	9	9
2023-09-03T18:00	20757	52	-56.9	-84.8	9	8
2023-09-03T18:00	20785	52	-56.9	-84.8	9	8
2023-09-03T18:00	20806	52	-57.0	-84.8	9	8
2023-09-03T18:00	20828	52	-57.1	-84.9	8	8
2023-09-03T18:00	20851	51	-57.1	-85.3	8	8
2023-09-03T18:00	20878	51	-56.9	-85.2	7	7
2023-09-03T18:00	20902	51	-56.6	-84.9	7	7
2023-09-03T18:00	20923	51	-56.5	-84.9	7	7
2023-09-03T18:00	20947	51	-56.5	-85.3	8	7
2023-09-03T18:00	20968	50	-56.5	-85.3	10	7
2023-09-03T18:00	20990	50	-56.3	-85.1	13	7
2023-09-03T18:00	21014	50	-56.4	-84.8	17	7
2023-09-03T18:00	21039	50	-56.5	-84.9	20	7
2023-09-03T18:00	21062	50	-56.6	-84.9	22	8
2023-09-03T18:00	21084	50	-56.6	-84.9	24	8
2023-09-03T18:00	21103	49	-56.5	-84.9	24	8
2023-09-03T18:00	21128	49	-56.5	-84.9	25	8
2023-09-03T18:00	21152	49	-56.4	-84.8	25	8
2023-09-03T18:00	21178	49	-56.5	-84.9	25	8
2023-09-03T18:00	21206	49	-56.5	-84.9	25	7
2023-09-03T18:00	21231	48	-56.5	-84.9	25	7
2023-09-03T18:00	21253	48	-56.6	-84.9	23	6
2023-09-03T18:00	21277	48	-56.4	-85.2	19	6
2023-09-03T18:00	21304	48	-56.4	-85.2	13	6
2023-09-03T18:00	21329	48	-56.3	-85.1	7	6
2023-09-03T18:00	21351	48	-56.0	-84.9	3	6
2023-09-03T18:00	21379	47	-56.0	-84.9	0	6
2023-09-03T18:00	21397	47	-56.0	-84.9	1	6
2023-09-03T18:00	21423	47	-56.1	-85.0	3	6
2023-09-03T18:00	21446	47	-56.1	-85.0	6	7
2023-09-03T18:00	21477	47	-56.1	-85.0	9	7
2023-09-03T18:00	21505	46	-56.1	-85.0	11	7
2023-09-03T18:00	21528	46	-55.9	-84.8	13	7
2023-09-03T18:00	21555	46	-55.8	-84.8	14	7
2023-09-03T18:00	21581	46	-55.8	-84.8	15	7
2023-09-03T18:00	21605	46	-55.7	-84.7	16	7
2023-09-03T18:00	21626	45	-55.6	-84.6	17	8
2023-09-03T18:00	21659	45	-55.4	-84.5	18	8
2023-09-03T18:00	21682	45	-55.4	-84.5	19	8
2023-09-03T18:00	21704	45	-55.4	-84.5	20	8
2023-09-03T18:00	21738	45	-55.4	-84.5	21	8
2023-09-03T18:00	21762	45	-55.5	-84.5	22	8
2023-09-03T18:00	21782	44	-55.5	-84.5	22	8
2023-09-03T18:00	21809	44	-55.5	-84.5	22	8
2023-09-03T18:00	21830	44	-55.4	-84.5	22	8
2023-09-03T18:00	21857	44	-55.4	-84.5	21	8
2023-09-03T18:00	21884	44	-55.5	-84.5	20	7
2023-09-03T18:00	21911	44	-55.6	-84.6	19	7
2023-09-03T18:00	21935	43	-55.8	-84.8	18	6
2023-09-03T18:00	21959	43	-55.8	-84.3	19	6
2023-09-03T18:00	21988	43	-55.8	-84.3	22	6
2023-09-03T18:00	22012	43	-55.9	-84.4	25	6
2023-09-03T18:00	22030	43	-55.9	-84.4	28	6
2023-09-03T18:00	22060	43	-56.0	-84.5	30	6
2023-09-03T18:00	22081	42	-56.0	-84.5	33	6
2023-09-03T18:00	22104	42	-56.1	-84.6	35	6
2023-09-03T18:00	22129	42	-56.1	-84.6	38	6
2023-09-03T18:00	22154	42	-56.1	-84.6	40	6
2023-09-03T18:00	22174	42	-56.2	-84.6	42	6
2023-09-03T18:00	22199	42	-56.3	-84.7	44	6
2023-09-03T18:00	22223	41	-56.4	-84.8	46	5
2023-09-03T18:00	22250	41	-56.5	-84.9	49	5
2023-09-03T18:00	22278	41	-56.4	-84.8	52	4
2023-09-03T18:00	22300	41	-56.4	-84.8	56	4
2023-09-03T18:00	22327	41	-56.4	-84.8	60	4
2023-09-03T18:00	22348	41	-56.5	-84.9	63	3
2023-09-03T18:00	22371	40	-56.6	-84.9	66	3
2023-09-03T18:00	22397	40	-56.6	-84.9	67	4
2023-09-03T18:00	22422	40	-56.6	-84.9	67	4
2023-09-03T18:00	22447	40	-56.5	-84.9	66	5
2023-09-03T18:00	22466	40	-56.5	-84.9	66	6
2023-09-03T18:00	22498	40	-56.3	-84.7	66	6
2023-09-03T18:00	22515	40	-56.3	-85.1	66	7
2023-09-03T18:00	22549	39	-56.2	-85.1	68	6
2023-09-03T18:00	22569	39	-56.3	-85.1	69	6
2023-09-03T18:00	22595	39	-56.2	-85.1	72	5
2023-09-03T18:00	22622	39	-56.2	-85.1	76	4
2023-09-03T18:00	22643	39	-56.2	-85.1	81	3
2023-09-03T18:00	22669	39	-56.1	-85.0	90	2
2023-09-03T18:00	22690	38	-56.1	-85.0	104	2
2023-09-03T18:00	22721	38	-56.1	-85.0	130	1
2023-09-03T18:00	22742	38	-56.2	-85.1	176	1
2023-09-03T18:00	22766	38	-56.3	-85.1	218	1
2023-09-03T18:00	22794	38	-56.0	-84.9	239	1
2023-09-03T18:00	22818	38	-56.1	-84.6	249	2
2023-09-03T18:00	22842	38	-56.2	-84.6	255	2
2023-09-03T18:00	22870	37	-56.3	-84.7	259	1
2023-09-03T18:00	22892	37	-56.3	-84.7	263	1
2023-09-03T18:00	22920	37	-56.1	-84.6	273	1
2023-09-03T18:00	22945	37	-56.2	-84.6	302	0
2023-09-03T18:00	22971	37	-56.3	-85.1	320	0
2023-09-03T18:00	22994	37	-56.2	-85.1	311	1
2023-09-03T18:00	23026	37	-56.2	-85.1	305	1
2023-09-03T18:00	23044	36	-56.4	-84.8	306	2
2023-09-03T18:00	23077	36	-56.5	-84.9	309	2
2023-09-03T18:00	23096	36	-56.5	-84.9	314	3
2023-09-03T18:00	23125	36	-56.5	-84.9	318	4
2023-09-03T18:00	23155	36	-56.5	-84.9	323	4
2023-09-03T18:00	23178	36	-56.5	-85.3	328	5
2023-09-03T18:00	23202	36	-56.3	-85.1	335	5
2023-09-03T18:00	23235	35	-56.2	-85.1	344	5
2023-09-03T18:00	23259	35	-56.1	-85.0	354	5
2023-09-03T18:00	23285	35	-56.0	-84.9	4	5
2023-09-03T18:00	23316	35	-56.1	-85.0	13	5
2023-09-03T18:00	23337	35	-56.2	-85.1	20	5
2023-09-03T18:00	23359	35	-56.2	-85.1	27	5
2023-09-03T18:00	23385	35	-56.2	-85.1	31	5
2023-09-03T18:00	23418	34	-56.3	-84.7	35	5
2023-09-03T18:00	23436	34	-56.4	-84.8	37	5
2023-09-03T18:00	23462	34	-56.5	-84.9	39	5
2023-09-03T18:00	23489	34	-56.5	-84.9	41	5
2023-09-03T18:00	23520	34	-56.6	-84.9	42	5
2023-09-03T18:00	23541	34	-56.7	-85.0	43	5
2023-09-03T18:00	23563	34	-56.7	-85.0	41	5
2023-09-03T18:00	23593	33	-56.7	-85.0	39	5
2023-09-03T18:00	23614	33	-56.7	-85.0	35	5
2023-09-03T18:00	23643	33	-56.8	-85.1	31	5
2023-09-03T18:00	23669	33	-56.8	-85.1	27	5
2023-09-03T18:00	23693	33	-56.8	-85.1	23	5
2023-09-03T18:00	23720	33	-56.9	-85.2	18	5
2023-09-03T18:00	23744	33	-57.0	-85.2	15	6
2023-09-03T18:00	23764	32	-56.8	-85.5	12	6
2023-09-03T18:00	23797	32	-56.6	-85.4	11	6
2023-09-03T18:00	23823	32	-56.5	-85.3	11	6
2023-09-03T18:00	23848	32	-56.5	-85.3	11	6
2023-09-03T18:00	23876	32	-56.5	-85.3	13	6
2023-09-03T18:00	23900	32	-56.5	-85.3	15	5
2023-09-03T18:00	23920	32	-56.4	-85.2	18	5
2023-09-03T18:00	23949	32	-56.4	-85.2	20	4
2023-09-03T18:00	23978	31	-56.5	-85.3	24	4
2023-09-03T18:00	23998	31	-56.5	-85.3	28	3
2023-09-03T18:00	24019	31	-56.5	-85.3	34	3
2023-09-03T18:00	24047	31	-56.6	-85.4	42	3
2023-09-03T18:00	24073	31	-56.6	-85.4	48	3
2023-09-03T18:00	24107	31	-56.4	-85.2	50	3
2023-09-03T18:00	24134	31	-56.2	-85.1	49	3
2023-09-03T18:00	24153	31	-56.1	-85.0	46	4
2023-09-03T18:00	24175	30	-56.0	-84.9	42	4
2023-09-03T18:00	24209	30	-55.9	-84.8	38	4
2023-09-03T18:00	24229	30	-55.9	-84.8	35	5
2023-09-03T18:00	24256	30	-55.9	-84.8	33	5
2023-09-03T18:00	24283	30	-56.0	-84.9	33	5
2023-09-03T18:00	24307	30	-56.0	-84.9	33	5
2023-09-03T18:00	24339	30	-56.0	-84.9	34	6
2023-09-03T18:00	24358	30	-55.7	-84.7	32	6
2023-09-03T18:00	24390	29	-55.6	-85.1	30	6
2023-09-03T18:00	24416	29	-55.7	-85.2	26	7
2023-09-03T18:00	24439	29	-55.6	-85.1	22	7
2023-09-03T18:00	24468	29	-55.4	-84.9	20	8
2023-09-03T18:00	24494	29	-55.2	-84.8	20	8
2023-09-03T18:00	24529	29	-55.1	-84.7	20	9
2023-09-03T18:00	24544	29	-55.1	-84.7	21	9
2023-09-03T18:00	24569	29	-55.0	-84.6	23	9
2023-09-03T18:00	24597	29	-54.9	-84.6	25	9
2023-09-03T18:00	24629	28	-54.7	-84.4	27	8
2023-09-03T18:00	24652	28	-54.6	-84.8	30	8
2023-09-03T18:00	24677	28	-54.3	-84.6	35	8
2023-09-03T18:00	24698	28	-53.8	-84.2	41	7
2023-09-03T18:00	24731	28	-53.7	-84.2	48	7
2023-09-03T18:00	24753	28	-53.7	-84.2	54	6
2023-09-03T18:00	24778	28	-53.7	-84.2	58	6
2023-09-03T18:00	24800	28	-53.6	-84.1	60	5
2023-09-03T18:00	24825	28	-53.5	-84.0	58	5
2023-09-03T18:00	24859	27	-53.5	-84.0	50	4
2023-09-03T18:00	24880	27	-53.3	-83.9	38	4
2023-09-03T18:00	24908	27	-53.1	-83.7	25	4
2023-09-03T18:00	24930	27	-52.9	-83.6	14	5
2023-09-03T18:00	24958	27	-52.9	-83.6	8	5
2023-09-03T18:00	24984	27	-52.8	-83.5	5	7
2023-09-03T18:00	25004	27	-52.5	-83.8	5	7
2023-09-03T18:00	25039	27	-52.3	-83.7	6	8
2023-09-03T18:00	25059	27	-52.3	-83.7	8	9
2023-09-03T18:00	25080	26	-52.3	-83.7	10	9
2023-09-03T18:00	25106	26	-51.9	-83.4	13	8
2023-09-03T18:00	25136	26	-51.8	-83.3	16	8
2023-09-03T18:00	25156	26	-51.7	-83.2	20	7
2023-09-03T18:00	25175	26	-51.7	-83.2	23	6
2023-09-03T18:00	25210	26	-51.9	-83.4	24	6
2023-09-03T18:00	25226	26	-51.9	-83.4	22	5
2023-09-03T18:00	25255	26	-51.8	-82.8	19	5
2023-09-03T18:00	25275	26	-51.7	-82.7	16	6
2023-09-03T18:00	25299	26	-51.7	-82.7	13	6
2023-09-03T18:00	25330	25	-51.6	-82.6	11	7
2023-09-03T18:00	25357	25	-51.6	-82.6	9	7
2023-09-03T18:00	25380	25	-51.6	-82.6	7	8
2023-09-03T18:00	25405	25	-51.5	-82.5	5	9
2023-09-03T18:00	25430	25	-51.4	-82.5	4	9
2023-09-03T18:00	25451	25	-51.5	-82.5	3	10
2023-09-03T18:00	25479	25	-51.6	-82.6	3	10
2023-09-03T18:00	25508	25	-51.6	-82.6	4	10
2023-09-03T18:00	25531	25	-51.6	-82.6	6	11
2023-09-03T18:00	25561	25	-51.6	-83.2	8	11
2023-09-03T18:00	25583	24	-51.6	-82.6	10	11
2023-09-03T18:00	25613	24	-51.6	-82.6	11	11
2023-09-03T18:00	25641	24	-51.6	-82.6	13	11
2023-09-03T18:00	25660	24	-51.6	-83.2	15	10
2023-09-03T18:00	25682	24	-51.6	-83.2	16	9
2023-09-03T18:00	25724	24	-51.3	-82.9	17	8
2023-09-03T18:00	25740	24	-51.2	-82.9	17	7
2023-09-03T18:00	25760	24	-51.2	-82.9	18	7
2023-09-03T18:00	25807	24	-51.3	-82.9	20	6
2023-09-03T18:00	25825	24	-51.3	-82.9	21	6
2023-09-03T18:00	25847	24	-51.3	-82.4	22	5
2023-09-03T18:00	25875	23	-51.3	-82.4	22	6
2023-09-03T18:00	25904	23	-51.4	-82.5	22	6
2023-09-03T18:00	25932	23	-51.3	-82.4	23	6
2023-09-03T18:00	25956	23	-51.4	-82.5	24	7
2023-09-03T18:00	25991	23	-51.6	-82.6	25	7
2023-09-03T18:00	26017	23	-51.7	-82.7	26	7
2023-09-03T18:00	26040	23	-51.7	-83.2	28	7
2023-09-03T18:00	26070	23	-51.5	-83.1	29	7
2023-09-03T18:00	26087	23	-51.3	-82.9	31	6
2023-09-03T18:00	26119	23	-51.3	-82.9	33	6
2023-09-03T18:00	26155	22	-51.3	-82.9	35	6
2023-09-03T18:00	26178	22	-51.4	-83.0	38	6
2023-09-03T18:00	26201	22	-51.4	-83.0	41	6
2023-09-03T18:00	26234	22	-51.4	-83.0	44	7
2023-09-03T18:00	26256	22	-51.4	-83.0	46	7
2023-09-03T18:00	26278	22	-51.3	-82.9	48	7
2023-09-03T18:00	26312	22	-51.2	-82.9	51	6
2023-09-03T18:00	26347	22	-51.3	-82.9	56	6
2023-09-03T18:00	26368	22	-51.3	-82.9	61	6
2023-09-03T18:00	26394	22	-51.2	-82.9	68	5
2023-09-03T18:00	26416	22	-50.8	-82.6	74	5
2023-09-03T18:00	26443	21	-50.7	-82.5	80	4
2023-09-03T18:00	26475	21	-50.6	-83.1	84	4
2023-09-03T18:00	26507	21	-50.2	-82.8	88	3
2023-09-03T18:00	26534	21	-50.2	-82.8	95	3
2023-09-03T18:00	26545	21	-50.2	-82.8	107	2
2023-09-03T18:00	26591	21	-49.9	-82.5	129	2
2023-09-03T18:00	26627	21	-49.9	-82.5	159	2
2023-09-03T18:00	26639	21	-49.8	-82.5	181	2
2023-09-03T18:00	26659	21	-49.8	-82.5	193	3
2023-09-03T18:00	26692	21	-49.8	-82.5	198	3
2023-09-03T18:00	26714	21	-49.9	-82.5	199	2
2023-09-03T18:00	26737	21	-50.1	-82.7	192	2
2023-09-03T18:00	26768	20	-49.5	-82.3	162	1
2023-09-03T18:00	26791	20	-49.2	-82.0	113	1
2023-09-03T18:00	26825	20	-49.0	-81.9	93	2
2023-09-03T18:00	26845	20	-49.0	-81.9	87	3
2023-09-03T18:00	26871	20	-49.0	-81.9	87	3
2023-09-03T18:00	26895	20	-49.0	-81.9	90	3
2023-09-03T18:00	26924	20	-48.8	-81.7	96	2
2023-09-03T18:00	26956	20	-48.6	-81.6	108	2
2023-09-03T18:00	26972	20	-48.6	-81.6	135	1
2023-09-03T18:00	27003	20	-48.5	-81.5	189	1
2023-09-03T18:00	27034	20	-48.6	-81.6	230	2
2023-09-03T18:00	27060	20	-48.7	-81.7	249	2
2023-09-03T18:00	27092	19	-48.7	-81.7	261	3
2023-09-03T18:00	27112	19	-48.6	-81.6	269	4
2023-09-03T18:00	27138	19	-48.6	-81.6	275	5
2023-09-03T18:00	27162	19	-48.6	-81.6	280	5
2023-09-03T18:00	27187	19	-48.5	-81.5	285	5
2023-09-03T18:00	27211	19	-48.5	-81.5	291	5
2023-09-03T18:00	27243	19	-47.8	-81.7	299	4
2023-09-03T18:00	27274	19	-47.6	-81.6	310	4
2023-09-03T18:00	27303	19	-47.4	-81.4	321	4
2023-09-03T18:00	27318	19	-47.5	-81.5	330	4
2023-09-03T18:00	27354	19	-47.4	-81.4	335	4
2023-09-03T18:00	27377	19	-47.3	-81.4	337	4
2023-09-03T18:00	27414	19	-47.1	-81.2	334	3
2023-09-03T18:00	27451	18	-47.1	-81.2	328	3
2023-09-03T18:00	27456	18	-47.1	-81.2	319	3
2023-09-03T18:00	27489	18	-47.2	-80.6	312	3
2023-09-03T18:00	27518	18	-47.2	-80.6	308	4
2023-09-03T18:00	27545	18	-47.4	-80.7	305	4
2023-09-03T18:00	27575	18	-47.5	-80.8	305	5
2023-09-03T18:00	27602	18	-47.6	-80.9	305	6
2023-09-03T18:00	27629	18	-47.7	-80.9	307	6
2023-09-03T18:00	27650	18	-47.8	-81.0	311	7
2023-09-03T18:00	27678	18	-47.8	-81.0	316	7
2023-09-03T18:00	27705	18	-47.8	-81.0	323	7
2023-09-03T18:00	27731	18	-47.5	-80.8	330	8
2023-09-03T18:00	27758	18	-47.3	-81.4	337	8
2023-09-03T18:00	27785	17	-47.2	-81.3	344	8
2023-09-03T18:00	27824	17	-47.2	-81.3	351	7
2023-09-03T18:00	27850	17	-47.2	-81.3	359	7
2023-09-03T18:00	27873	17	-47.1	-81.2	9	6
2023-09-03T18:00	27908	17	-46.9	-81.1	19	6
2023-09-03T18:00	27925	17	-47.0	-81.1	29	5
2023-09-03T18:00	27961	17	-47.0	-81.1	36	5
2023-09-03T18:00	27991	17	-47.0	-81.1	40	5
2023-09-03T18:00	28011	17	-47.1	-81.2	43	5
2023-09-03T18:00	28051	17	-47.1	-81.2	46	5
2023-09-03T18:00	28072	17	-47.1	-81.2	50	5
2023-09-03T18:00	28098	17	-47.1	-81.2	56	5
2023-09-03T18:00	28126	17	-47.0	-81.1	61	5
2023-09-03T18:00	28156	17	-47.3	-81.4	65	5
2023-09-03T18:00	28187	16	-47.3	-81.4	64	6
2023-09-03T18:00	28219	16	-46.8	-81.0	61	6
2023-09-03T18:00	28245	16	-46.7	-80.9	54	6
2023-09-03T18:00	28263	16	-46.7	-80.9	47	6
2023-09-03T18:00	28298	16	-46.4	-80.7	39	6
2023-09-03T18:00	28325	16	-46.7	-80.9	31	6
2023-09-03T18:00	28365	16	-46.9	-81.1	25	7
2023-09-03T18:00	28383	16	-47.1	-81.2	19	7
2023-09-03T18:00	28407	16	-47.2	-81.3	15	7
2023-09-03T18:00	28428	16	-47.0	-81.1	12	8
2023-09-03T18:00	28452	16	-47.0	-81.1	10	8
2023-09-03T18:00	28488	16	-46.9	-81.1	10	8
2023-09-03T18:00	28521	16	-46.8	-81.0	10	8
2023-09-03T18:00	28537	16	-46.5	-80.8	12	7
2023-09-03T18:00	28583	16	-46.6	-80.9	15	7
2023-09-03T18:00	28623	15	-46.6	-80.9	18	6
2023-09-03T18:00	28639	15	-46.6	-80.9	23	6
2023-09-03T18:00	28652	15	-46.8	-81.0	28	5
2023-09-03T18:00	28680	15	-47.0	-81.1	33	5
2023-09-03T18:00	28720	15	-47.0	-80.4	38	5
2023-09-03T18:00	28739	15	-47.1	-80.5	42	4
2023-09-03T18:00	28770	15	-47.2	-80.6	45	4
2023-09-03T18:00	28785	15	-47.2	-80.6	46	3
2023-09-03T18:00	28822	15	-47.3	-80.6	46	3
2023-09-03T18:00	28854	15	-47.4	-80.7	46	2
2023-09-03T18:00	28870	15	-47.5	-80.8	50	2
2023-09-03T18:00	28910	15	-47.5	-80.8	59	1
2023-09-03T18:00	28937	15	-47.7	-80.9	72	1
2023-09-03T18:00	28963	15	-47.8	-81.0	82	1
2023-09-03T18:00	28997	15	-48.0	-81.2	82	1
2023-09-03T18:00	29021	15	-48.2	-81.3	63	0
2023-09-03T18:00	29049	14	-48.3	-81.4	19	0
2023-09-03T18:00	29066	14	-47.9	-81.1	358	1
2023-09-03T18:00	29094	14	-47.9	-81.1	356	1
2023-09-03T18:00	29124	14	-47.9	-81.8	13	0
2023-09-03T18:00	29156	14	-47.9	-81.8	105	0
2023-09-03T18:00	29186	14	-47.6	-81.6	140	1
2023-09-03T18:00	29193	14	-47.5	-81.5	148	1
2023-09-03T18:00	29237	14	-47.5	-81.5	155	1
2023-09-03T18:00	29263	14	-47.4	-81.4	165	1
2023-09-03T18:00	29294	14	-47.2	-81.3	208	1
2023-09-03T18:00	29318	14	-47.2	-81.3	284	1
2023-09-03T18:00	29339	14	-47.1	-81.2	301	2
2023-09-03T18:00	29347	14	-47.1	-81.2	306	2
2023-09-03T18:00	29394	14	-47.1	-81.2	309	3
2023-09-03T18:00	29430	14	-47.1	-81.2	311	3
2023-09-03T18:00	29454	14	-47.2	-81.3	313	4
2023-09-03T18:00	29471	14	-47.4	-81.4	313	4
2023-09-03T18:00	29500	14	-47.4	-81.4	313	4
2023-09-03T18:00	29531	13	-47.3	-81.4	311	4
2023-09-03T18:00	29571	13	-47.5	-81.5	308	4
2023-09-03T18:00	29582	13	-47.6	-80.9	305	4
2023-09-03T18:00	29605	13	-47.8	-81.0	302	4
2023-09-03T18:00	29640	13	-47.8	-81.0	299	4
2023-09-03T18:00	29658	13	-47.9	-81.1	295	4
2023-09-03T18:00	29702	13	-48.1	-81.2	291	4
2023-09-03T18:00	29714	13	-48.1	-81.9	287	5
2023-09-03T18:00	29745	13	-47.8	-81.7	285	5
2023-09-03T18:00	29770	13	-47.7	-81.6	285	5
2023-09-03T18:00	29805	13	-47.8	-81.7	290	5
2023-09-03T18:00	29823	13	-47.7	-81.6	297	5
2023-09-03T18:00	29858	13	-47.6	-81.6	305	6
2023-09-03T18:00	29893	13	-47.8	-81.7	312	6
2023-09-03T18:00	29915	13	-47.7	-81.6	317	7
2023-09-03T18:00	29957	13	-47.5	-81.5	322	8
2023-09-03T18:00	29988	13	-47.6	-81.6	327	9
2023-09-03T18:00	30004	13	-47.5	-81.5	331	9
2023-09-03T18:00	30037	12	-47.3	-81.4	335	10
2023-09-03T18:00	30076	12	-47.0	-81.1	339	11
2023-09-03T18:00	30098	12	-46.7	-80.9	343	11
2023-09-03T18:00	30123	12	-46.7	-80.9	346	12
2023-09-03T18:00	30157	12	-46.8	-81.0	349	12
2023-09-03T18:00	30193	12	-46.8	-81.0	352	12
2023-09-03T18:00	30209	12	-46.8	-81.0	354	13
2023-09-03T18:00	30228	12	-46.8	-81.0	356	13
2023-09-03T18:00	30286	12	-46.9	-81.1	358	14
2023-09-03T18:00	30311	12	-47.0	-81.1	1	14
2023-09-03T18:00	30335	12	-46.8	-81.0	4	14
2023-09-03T18:00	30362	12	-46.7	-80.9	7	14
2023-09-03T18:00	30395	12	-46.3	-80.6	11	14
2023-09-03T18:00	30423	12	-46.4	-80.7	15	14
2023-09-03T18:00	30455	12	-46.4	-80.7	19	14
2023-09-03T18:00	30495	12	-46.3	-80.6	23	14
2023-09-03T18:00	30517	12	-46.3	-80.6	27	13
2023-09-03T18:00	30536	12	-46.3	-80.6	31	13
2023-09-03T18:00	30581	12	-46.3	-80.6	35	13
2023-09-03T18:00	30606	11	-46.3	-80.6	38	12
2023-09-03T18:00	30623	11	-46.3	-80.6	42	11
2023-09-03T18:00	30662	11	-46.4	-80.7	47	11
2023-09-03T18:00	30682	11	-46.5	-80.8	52	10
2023-09-03T18:00	30717	11	-46.5	-80.8	57	10
2023-09-03T18:00	30747	11	-46.7	-80.9	62	10
2023-09-03T18:00	30774	11	-46.7	-80.9	67	9
2023-09-03T18:00	30815	11	-46.8	-81.0	70	9
2023-09-03T18:00	30835	11	-46.9	-81.1	73	9
2023-09-03T18:00	30857	11	-47.0	-81.1	75	8
2023-09-03T18:00	30899	11	-47.2	-81.3	77	8
2023-09-03T18:00	30929	11	-47.5	-81.5	79	7
2023-09-03T18:00	30949	11	-47.6	-81.6	80	7
2023-09-03T18:00	30971	11	-47.5	-81.5	80	6
2023-09-03T18:00	31011	11	-47.6	-80.9	82	6
2023-09-03T18:00	31031	11	-47.8	-81.0	85	5
2023-09-03T18:00	31062	11	-48.1	-81.2	89	5
2023-09-03T18:00	31092	11	-48.3	-81.4	96	4
2023-09-03T18:00	31117	11	-48.5	-81.5	102	4
2023-09-03T18:00	31134	11	-48.7	-81.7	106	4
2023-09-03T18:00	31173	11	-48.8	-81.7	106	4
2023-09-03T18:00	31211	10	-48.6	-81.6	101	3
2023-09-03T18:00	31236	10	-48.2	-82.0	88	3
2023-09-03T18:00	31242	10	-48.2	-82.0	64	2
2023-09-03T18:00	31266	10	-48.3	-82.1	36	2
2023-09-03T18:00	31303	10	-48.2	-82.0	17	3
2023-09-03T18:00	31323	10	-48.1	-81.9	7	4
2023-09-03T18:00	31370	10	-47.9	-81.8	3	5
2023-09-03T18:00	31377	10	-47.9	-81.8	1	6
2023-09-03T18:00	31420	10	-48.0	-81.9	1	6
2023-09-03T18:00	31449	10	-47.9	-81.8	1	7
2023-09-03T18:00	31475	10	-47.5	-81.5	2	7
2023-09-03T18:00	31509	10	-47.4	-82.2	3	7
2023-09-03T18:00	31549	10	-47.1	-82.0	5	8
2023-09-03T18:00	31592	10	-46.7	-81.7	9	8
2023-09-03T18:00	31618	10	-46.6	-81.7	12	8
2023-09-03T18:00	31634	10	-46.3	-81.4	16	8
2023-09-03T18:00	31680	10	-46.1	-81.3	20	8
2023-09-03T18:00	31717	10	-45.9	-81.2	24	7
2023-09-03T18:00	31755	10	-45.8	-81.1	28	7
2023-09-03T18:00	31796	10	-45.7	-81.0	35	8
2023-09-03T18:00	31830	10	-45.7	-81.0	38	8
2023-09-03T18:00	31848	9	-45.3	-80.7	40	8
2023-09-03T18:00	31867	9	-45.0	-80.5	43	8
2023-09-03T18:00	31912	9	-44.9	-80.4	44	8
2023-09-03T18:00	31948	9	-45.0	-80.5	45	8
2023-09-03T18:00	31966	9	-45.1	-80.6	45	8
2023-09-03T18:00	31990	9	-45.2	-80.7	45	8
2023-09-03T18:00	32028	9	-45.4	-80.8	46	8
2023-09-03T18:00	32054	9	-45.5	-80.9	46	7
2023-09-03T18:00	32081	9	-45.5	-80.9	47	7
2023-09-03T18:00	32123	9	-45.7	-81.0	47	6
2023-09-03T18:00	32138	9	-45.7	-81.0	47	6
2023-09-03T18:00	32159	9	-46.0	-81.2	44	6
2023-09-03T18:00	32193	9	-46.0	-81.2	40	6
2023-09-03T18:00	32215	9	-46.0	-81.2	34	6
2023-09-03T18:00	32249	9	-46.0	-81.2	28	6
2023-09-03T18:00	32287	9	-46.1	-81.3	23	6
2023-09-03T18:00	32329	9	-45.9	-81.2	19	6
2023-09-03T18:00	32343	9	-45.7	-81.0	17	6
2023-09-03T18:00	32372	9	-45.4	-80.8	14	7
2023-09-03T18:00	32429	9	-45.4	-80.8	12	7
2023-09-03T18:00	32475	9	-45.2	-80.7	8	7
2023-09-03T18:00	32504	9	-45.2	-80.7	6	7
2023-09-03T18:00	32512	9	-45.2	-80.7	5	8
2023-09-03T18:00	32551	9	-45.1	-80.6	4	8
2023-09-03T18:00	32571	9	-45.1	-80.6	5	8
2023-09-03T18:00	32606	8	-45.0	-80.5	6	8
2023-09-03T18:00	32627	8	-44.8	-80.4	7	9
2023-09-03T18:00	32674	8	-44.6	-80.2	10	9
2023-09-03T18:00	32693	8	-44.5	-80.1	12	9
2023-09-03T18:00	32714	8	-44.6	-80.2	14	8
2023-09-03T18:00	32742	8	-44.6	-80.2	17	8
2023-09-03T18:00	32772	8	-44.6	-80.2	20	8
2023-09-03T18:00	32798	8	-44.6	-80.2	23	7
2023-09-03T18:00	32822	8	-44.5	-80.1	26	7
2023-09-03T18:00	32857	8	-44.6	-80.2	30	7
2023-09-03T18:00	32906	8	-44.7	-80.3	33	7
2023-09-03T18:00	32935	8	-44.9	-80.4	36	7
2023-09-03T18:00	32950	8	-44.9	-80.4	35	7
2023-09-03T18:00	33008	8	-44.7	-80.3	32	7
2023-09-03T18:00	33011	8	-44.4	-80.1	26	6
2023-09-03T18:00	33062	8	-44.4	-80.1	17	6
2023-09-03T18:00	33083	8	-44.3	-80.0	7	6
2023-09-03T18:00	33131	8	-44.2	-79.9	358	7
2023-09-03T18:00	33152	8	-44.2	-80.9	351	7
2023-09-03T18:00	33185	8	-44.1	-80.8	347	8
2023-09-03T18:00	33220	8	-43.9	-80.7	344	8
2023-09-03T18:00	33248	8	-43.8	-80.6	343	8
2023-09-03T18:00	33262	8	-43.7	-80.5	342	9
2023-09-03T18:00	33305	8	-43.7	-80.5	343	9
2023-09-03T18:00	33317	8	-43.8	-80.6	345	9
2023-09-03T18:00	33346	8	-43.7	-80.5	348	10
2023-09-03T18:00	33396	8	-43.6	-80.4	351	10
2023-09-03T18:00	33427	8	-43.4	-80.3	356	11
2023-09-03T18:00	33434	7	-43.2	-80.2	0	11
2023-09-03T18:00	33506	7	-43.1	-80.1	4	11
2023-09-03T18:00	33511	7	-42.9	-80.0	8	11
2023-09-03T18:00	33549	7	-42.5	-79.7	11	11
2023-09-03T18:00	33560	7	-42.4	-79.6	13	12
2023-09-03T18:00	33612	7	-42.1	-79.4	14	12
2023-09-03T18:00	33635	7	-42.1	-79.4	14	12
2023-09-03T18:00	33672	7	-42.0	-79.3	16	12
2023-09-03T18:00	33694	7	-41.7	-79.1	17	12
2023-09-03T18:00	33730	7	-41.6	-79.0	19	11
2023-09-03T18:00	33766	7	-41.5	-80.1	22	11
2023-09-03T18:00	33791	7	-41.2	-79.9	25	10
2023-09-03T18:00	33828	7	-40.9	-79.7	30	9
2023-09-03T18:00	33852	7	-40.8	-79.6	35	8
2023-09-03T18:00	33893	7	-40.8	-79.6	42	8
2023-09-03T18:00	33915	7	-40.5	-79.4	48	7
2023-09-03T18:00	33926	7	-39.9	-79.0	53	7
2023-09-03T18:00	33970	7	-39.7	-78.8	61	6
2023-09-03T18:00	34001	7	-39.8	-78.9	66	5
2023-09-03T18:00	34047	7	-40.0	-79.0	72	5
2023-09-03T18:00	34058	7	-40.2	-78.0	89	4
2023-09-03T18:00	34123	7	-40.3	-78.1	98	4
2023-09-03T18:00	34133	7	-40.3	-78.1	105	4
2023-09-03T18:00	34139	7	-40.4	-78.2	110	4
2023-09-03T18:00	34169	7	-40.5	-78.3	114	4
2023-09-03T18:00	34219	7	-40.5	-79.4	116	4
2023-09-03T18:00	34262	7	-40.0	-79.0	114	3
2023-09-03T18:00	34270	7	-39.8	-78.9	108	2
2023-09-03T18:00	34322	7	-39.6	-78.8	97	2
2023-09-03T18:00	34377	7	-39.4	-78.6	80	1
2023-09-03T18:00	34380	7	-39.1	-78.4	17	1
2023-09-03T18:00	34421	6	-39.1	-78.4	344	1
2023-09-03T18:00	34442	6	-39.0	-78.3	299	1
2023-09-03T18:00	34498	6	-39.0	-78.3	295	1
2023-09-03T18:00	34539	6	-38.9	-78.3	300	2
2023-09-03T18:00	34558	6	-38.9	-78.3	309	2
2023-09-03T18:00	34573	6	-38.9	-78.3	317	2
2023-09-03T18:00	34591	6	-39.0	-78.3	322	3
2023-09-03T18:00	34654	6	-39.2	-78.5	326	3
2023-09-03T18:00	34686	6	-39.2	-78.5	332	3
2023-09-03T18:00	34726	6	-39.0	-78.3	337	3
2023-09-03T18:00	34755	6	-39.1	-78.4	351	2
2023-09-03T18:00	34794	6	-39.1	-78.4	356	2
2023-09-03T18:00	34830	6	-39.1	-78.4	359	2
2023-09-03T18:00	34868	6	-39.3	-78.5	359	2
2023-09-03T18:00	34924	6	-39.3	-78.5	357	2
2023-09-03T18:00	34941	6	-39.3	-78.5	354	2
2023-09-03T18:00	34996	6	-39.4	-78.6	350	2
2023-09-03T18:00	35033	6	-39.5	-78.7	351	2
2023-09-03T18:00	35061	6	-39.6	-78.8	358	3
2023-09-03T18:00	35128	6	-39.6	-78.8	2	3
2023-09-03T18:00	35143	6	-39.5	-78.7	6	4
2023-09-03T18:00	35170	6	-39.5	-78.7	10	4
2023-09-03T18:00	35193	6	-39.5	-78.7	12	4
2023-09-03T18:00	35235	6	-39.4	-78.6	14	5
2023-09-03T18:00	35261	6	-39.2	-78.5	15	5
2023-09-03T18:00	35288	6	-39.2	-78.5	15	5
2023-09-03T18:00	35307	6	-39.3	-78.5	14	5
2023-09-03T18:00	35400	6	-39.4	-78.6	11	5
2023-09-03T18:00	35413	6	-39.7	-78.8	357	5
2023-09-03T18:00	35446	6	-39.6	-78.8	353	6
2023-09-03T18:00	35489	6	-39.5	-78.7	349	6
2023-09-03T18:00	35524	6	-39.5	-78.7	348	7
2023-09-03T18:00	35572	6	-39.6	-78.8	347	7
2023-09-03T18:00	35575	5	-39.6	-78.8	347	8
2023-09-03T18:00	35641	5	-39.4	-78.6	348	8
2023-09-03T18:00	35687	5	-39.5	-78.7	348	8
2023-09-03T18:00	35743	5	-39.3	-78.5	348	8
2023-09-03T18:00	35761	5	-38.9	-78.3	351	8
2023-09-03T18:00	35764	5	-38.6	-78.1	354	8
2023-09-03T18:00	35847	5	-38.6	-78.1	357	8
2023-09-03T18:00	35874	5	-38.9	-78.3	5	7
2023-09-03T18:00	35899	5	-38.9	-78.3	9	7
2023-09-03T18:00	35925	5	-38.9	-78.3	14	7
2023-09-03T18:00	35953	5	-38.7	-78.1	18	7
2023-09-03T18:00	36000	5	-38.2	-77.8	25	6
2023-09-03T18:00	36019	5	-38.1	-77.7	28	6
2023-09-03T18:00	36047	5	-38.0	-77.6	33	5
2023-09-03T18:00	36122	5	-38.0	-77.6	35	4
2023-09-03T18:00	36146	5	-37.9	-77.6	33	4
2023-09-03T18:00	36180	5	-38.0	-77.6	29	4
2023-09-03T18:00	36192	5	-38.1	-77.7	25	5
2023-09-03T18:00	36229	5	-38.0	-77.6	22	5
2023-09-03T18:00	36263	5	-37.8	-77.5	18	6
2023-09-03T18:00	36306	5	-37.4	-77.2	15	7
2023-09-03T18:00	36325	5	-37.2	-77.1	9	8
2023-09-03T18:00	36389	5	-37.2	-77.1	8	8
2023-09-03T18:00	36438	5	-37.5	-77.3	7	9
2023-09-03T18:00	36496	5	-37.3	-77.2	8	11
2023-09-03T18:00	36523	5	-37.2	-77.1	9	11
2023-09-03T18:00	36562	5	-37.0	-77.0	13	12
2023-09-03T18:00	36590	5	-36.8	-76.8	16	12
2023-09-03T18:00	36598	5	-36.6	-76.7	20	13
2023-09-03T18:00	36610	5	-36.3	-76.5	23	13
2023-09-03T18:00	36668	5	-36.1	-76.3	27	13
2023-09-03T18:00	36686	5	-35.8	-76.1	30	13
2023-09-03T18:00	36734	5	-35.8	-76.1	33	13
2023-09-03T18:00	36743	5	-35.9	-76.2	40	12
2023-09-03T18:00	36773	5	-35.9	-76.2	43	12
2023-09-03T18:00	36815	5	-35.9	-76.2	47	12
2023-09-03T18:00	36850	5	-35.9	-76.2	51	11
2023-09-03T18:00	36884	5	-36.0	-76.3	53	11
2023-09-03T18:00	36885	5	-36.1	-76.3	53	11
2023-09-04T00:00	112	1015	14.7	11.3	280	2
2023-09-04T00:00	138	1012	16.1	11.0	314	2
2023-09-04T00:00	170	1008	16.4	10.2	321	3
2023-09-04T00:00	198	1005	16.9	9.5	328	3
2023-09-04T00:00	218	1002	17.0	9.3	335	3
2023-09-04T00:00	242	1000	17.0	9.4	343	3
2023-09-04T00:00	264	997	16.9	9.4	351	3
2023-09-04T00:00	287	994	16.8	9.4	358	4
2023-09-04T00:00	308	992	16.6	9.2	3	4
2023-09-04T00:00	340	989	16.4	8.9	4	4
2023-09-04T00:00	362	986	16.2	8.9	2	4
2023-09-04T00:00	389	983	16.0	9.1	358	5
2023-09-04T00:00	415	980	15.8	9.0	353	5
2023-09-04T00:00	440	977	15.6	8.8	348	5
2023-09-04T00:00	470	973	15.4	8.8	344	5
2023-09-04T00:00	497	970	15.1	8.9	341	6
2023-09-04T00:00	523	967	14.9	8.9	339	6
2023-09-04T00:00	545	965	14.7	9.0	339	6
2023-09-04T00:00	571	962	14.5	8.9	339	6
2023-09-04T00:00	595	959	14.3	8.9	340	6
2023-09-04T00:00	617	956	14.1	8.9	341	7
2023-09-04T00:00	640	954	13.9	8.8	341	7
2023-09-04T00:00	668	951	13.7	8.7	341	7
2023-09-04T00:00	693	948	13.5	8.7	341	7
2023-09-04T00:00	715	945	13.3	8.6	341	7
2023-09-04T00:00	743	942	13.1	8.6	341	8
2023-09-04T00:00	770	939	12.8	8.6	342	8
2023-09-04T00:00	800	936	12.5	8.5	343	8
2023-09-04T00:00	826	933	12.3	8.6	343	8
2023-09-04T00:00	851	930	12.1	8.4	343	8
2023-09-04T00:00	874	928	11.8	8.5	342	8
2023-09-04T00:00	902	925	11.6	8.4	341	8
2023-09-04T00:00	932	921	11.4	8.5	341	8
2023-09-04T00:00	959	918	11.1	8.4	341	8
2023-09-04T00:00	984	916	10.9	8.5	342	8
2023-09-04T00:00	1012	913	10.6	8.3	343	8
2023-09-04T00:00	1040	910	10.4	7.9	344	8
2023-09-04T00:00	1068	907	10.2	7.7	345	8
2023-09-04T00:00	1100	903	10.0	7.3	344	7
2023-09-04T00:00	1129	900	9.8		343	7
2023-09-04T00:00	1154	897	9.7	6.7	339	7
2023-09-04T00:00	1176	895	9.6	6.8	335	7
2023-09-04T00:00	1197	893	9.4	6.6	332	7
2023-09-04T00:00	1215	891	9.2	6.6	330	7
2023-09-04T00:00	1232	889	9.1	6.6	329	7
2023-09-04T00:00	1255	886	9.0	5.8	330	7
2023-09-04T00:00	1279	884	8.9	5.2	330	6
2023-09-04T00:00	1306	881	8.8	4.2	330	6
2023-09-04T00:00	1331	878	8.9	3.1	328	6
2023-09-04T00:00	1355	876	9.1	1.1	324	6
2023-09-04T00:00	1384	873	9.2	-2.2	319	6
2023-09-04T00:00	1408	870	9.4	-8.7	312	6
2023-09-04T00:00	1435	867	9.7	-11.4	304	6
2023-09-04T00:00	1455	865	9.7	-10.5	298	6
2023-09-04T00:00	1473	863	9.7	-10.2	294	6
2023-09-04T00:00	1494	861	9.7	-11.4	295	6
2023-09-04T00:00	1515	859	9.7	-11.5	299	6
2023-09-04T00:00	1536	857	9.6	-11.0	303	6
2023-09-04T00:00	1558	854	9.6	-9.2	307	7
2023-09-04T00:00	1581	852	9.5	-9.5	310	7
2023-09-04T00:00	1601	850	9.7	-9.6	313	6
2023-09-04T00:00	1627	848	9.7	-9.4	316	6
2023-09-04T00:00	1648	845	9.6	-9.9	320	6
2023-09-04T00:00	1672	843	9.7	-10.8	323	6
2023-09-04T00:00	1698	840	9.8	-11.8	326	6
2023-09-04T00:00	1729	837	9.8	-10.9	326	7
2023-09-04T00:00	1755	834	9.7	-11.0	324	8
2023-09-04T00:00	1784	832	9.6	-11.9	322	8
2023-09-04T00:00	1809	829	9.5	-12.3	320	9
2023-09-04T00:00	1827	827	9.7	-12.5	320	10
2023-09-04T00:00	1859	824	9.6	-12.5	320	11
2023-09-04T00:00	1887	821	9.4	-12.8	322	11
2023-09-04T00:00	1911	819	9.3	-13.2	325	11
2023-09-04T00:00	1941	816	9.5	-16.6	328	11
2023-09-04T00:00	1972	813	9.7	-16.1	331	10
2023-09-04T00:00	1997	810	9.6	-15.8	334	10
2023-09-04T00:00	2021	808	9.5	-14.2	337	9
2023-09-04T00:00	2050	805	9.3	-12.7	340	9
2023-09-04T00:00	2074	803	9.1	-11.1	344	9
2023-09-04T00:00	2098	801	9.0	-10.1	347	10
2023-09-04T00:00	2124	798	8.8	-9.7	350	10
2023-09-04T00:00	2145	796	8.6	-10.1	352	11
2023-09-04T00:00	2169	794	8.5	-10.4	353	11
2023-09-04T00:00	2192	791	8.3	-5.4	354	12
2023-09-04T00:00	2218	789	8.0	-5.0	355	12
2023-09-04T00:00	2244	786	7.7	-3.6	357	13
2023-09-04T00:00	2274	784	7.4	-2.7	360	13
2023-09-04T00:00	2305	781	7.1	2.0	2	14
2023-09-04T00:00	2330	778	6.8	2.1	5	14
2023-09-04T00:00	2355	776	6.6	3.8	9	15
2023-09-04T00:00	2377	774	6.8	6.3	12	15
2023-09-04T00:00	2400	772	7.2	6.7	14	14
2023-09-04T00:00	2424	769	7.4	6.8	15	14
2023-09-04T00:00	2450	767	7.3	6.7	14	14
2023-09-04T00:00	2473	765	7.3	6.7	11	14
2023-09-04T00:00	2509	762	7.3	6.3	8	15
2023-09-04T00:00	2535	759	7.3	6.5	6	16
2023-09-04T00:00	2564	757	7.2	6.5	4	16
2023-09-04T00:00	2589	754	7.2	6.5	3	17
2023-09-04T00:00	2613	752	7.4	5.9	2	17
2023-09-04T00:00	2638	750	7.5	5.6	2	17
2023-09-04T00:00	2662	748	7.3	5.4	1	17
2023-09-04T00:00	2681	746	7.2	5.3	0	16
2023-09-04T00:00	2706	744	7.0	5.1	360	16
2023-09-04T00:00	2729	741	6.8	4.9	0	15
2023-09-04T00:00	2759	739	6.7	4.5	1	15
2023-09-04T00:00	2782	737	6.6	4.5	1	14
2023-09-04T00:00	2811	734	6.5	3.9	2	14
2023-09-04T00:00	2833	732	6.3	3.9	2	14
2023-09-04T00:00	2861	730	6.1	3.8	2	14
2023-09-04T00:00	2883	728	5.9	3.6	2	15
2023-09-04T00:00	2904	726	5.7	3.4	2	15
2023-09-04T00:00	2928	724	5.5	3.5	2	16
2023-09-04T00:00	2950	722	5.3	3.4	2	16
2023-09-04T00:00	2973	720	5.1	3.4	2	17
2023-09-04T00:00	2990	718	4.9	3.4	2	17
2023-09-04T00:00	3022	715	4.7	3.5	2	17
2023-09-04T00:00	3057	712	4.3		2	16
2023-09-04T00:00	3085	710	4.2	3.1	2	16
2023-09-04T00:00	3110	708	4.1	2.8	3	16
2023-09-04T00:00	3132	706	4.1	2.2	4	16
2023-09-04T00:00	3157	704	3.9	2.1	5	16
2023-09-04T00:00	3177	702	3.7	2.0	6	17
2023-09-04T00:00	3203	700	3.5	1.8	6	17
2023-09-04T00:00	3226	698	3.3	1.6	6	17
2023-09-04T00:00	3252	696	3.1	1.6	5	18
2023-09-04T00:00	3276	694	2.9	1.4	5	18
2023-09-04T00:00	3300	692	2.7	1.3	4	18
2023-09-04T00:00	3327	689	2.7	0.8	4	19
2023-09-04T00:00	3350	687	2.5	0.7	4	19
2023-09-04T00:00	3376	685	2.3	0.7	4	19
2023-09-04T00:00	3399	683	2.1	0.7	5	19
2023-09-04T00:00	3424	681	1.8	0.5	6	20
2023-09-04T00:00	3456	678	1.5	0.4	6	20
2023-09-04T00:00	3483	676	1.3	0.5	6	19
2023-09-04T00:00	3506	674	1.0	0.5	7	19
2023-09-04T00:00	3532	672	0.8	0.3	7	19
2023-09-04T00:00	3556	670	0.6	0.3	7	19
2023-09-04T00:00	3580	668	0.4	-0.1	7	19
2023-09-04T00:00	3606	666	0.1	-0.1	6	19
2023-09-04T00:00	3638	663	-0.1	-0.2	4	19
2023-09-04T00:00	3664	661	-0.3	-0.6	1	19
2023-09-04T00:00	3694	659	-0.5	-0.6	359	19
2023-09-04T00:00	3718	656	-0.2	-1.0	356	19
2023-09-04T00:00	3749	654	0.0	-1.3	353	19
2023-09-04T00:00	3770	652	0.2	-1.5	351	20
2023-09-04T00:00	3795	650	0.2	-1.5	349	20
2023-09-04T00:00	3816	649	0.1	-1.7	349	20
2023-09-04T00:00	3834	647	0.0	-1.8	350	21
2023-09-04T00:00	3863	645	-0.1	-1.9	351	21
2023-09-04T00:00	3886	643	-0.2	-1.9	353	22
2023-09-04T00:00	3910	641	-0.2	-2.0	355	22
2023-09-04T00:00	3939	639	-0.1	-1.8	357	23
2023-09-04T00:00	3958	637	0.0	-1.6	358	23
2023-09-04T00:00	3986	635	0.0		359	23
2023-09-04T00:00	4006	633	0.1	-1.4	360	23
2023-09-04T00:00	4025	632	0.0		0	22
2023-09-04T00:00	4047	630	-0.1	-1.6	0	22
2023-09-04T00:00	4076	628	-0.2	-1.6	0	21
2023-09-04T00:00	4104	626	-0.2	-2.2	360	21
2023-09-04T00:00	4134	623	-0.3	-2.2	359	21
2023-09-04T00:00	4163	621	-0.4	-2.2	360	22
2023-09-04T00:00	4186	619	-0.6	-2.4	0	22
2023-09-04T00:00	4212	617	-0.7	-2.6	1	22
2023-09-04T00:00	4230	616	-0.7	-2.6	1	23
2023-09-04T00:00	4251	614	-0.9	-2.9	1	23
2023-09-04T00:00	4272	613	-1.0	-3.0	0	23
2023-09-04T00:00	4301	610	-1.1	-3.1	359	23
2023-09-04T00:00	4332	608	-1.3	-3.3	358	23
2023-09-04T00:00	4362	606	-1.5	-3.4	358	23
2023-09-04T00:00	4390	604	-1.6	-3.4	357	22
2023-09-04T00:00	4410	602	-1.8	-3.6	357	22
2023-09-04T00:00	4434	600	-1.9	-3.8	357	22
2023-09-04T00:00	4458	599	-1.9	-3.9	357	22
2023-09-04T00:00	4480	597	-2.0	-3.9	356	22
2023-09-04T00:00	4508	595	-2.1	-4.3	356	22
2023-09-04T00:00	4530	593	-2.2	-4.7	355	22
2023-09-04T00:00	4558	591	-2.2	-4.8	355	23
2023-09-04T00:00	4584	589	-2.4	-5.0	354	23
2023-09-04T00:00	4610	587	-2.5	-5.2	353	23
2023-09-04T00:00	4646	585	-2.7	-5.4	352	23
2023-09-04T00:00	4673	583	-2.9	-5.7	351	23
2023-09-04T00:00	4693	581	-3.0	-6.0	350	23
2023-09-04T00:00	4713	580	-3.1	-6.1	350	22
2023-09-04T00:00	4735	578	-3.3	-6.1	350	22
2023-09-04T00:00	4767	576	-3.5	-6.3	351	22
2023-09-04T00:00	4792	574	-3.6	-6.4	351	22
2023-09-04T00:00	4811	572	-3.7	-6.5	351	22
2023-09-04T00:00	4840	570	-3.9	-6.6	351	22
2023-09-04T00:00	4868	569	-4.1	-7.0	351	22
2023-09-04T00:00	4887	567	-4.2	-6.9	351	23
2023-09-04T00:00	4909	565	-4.4	-6.8	351	23
2023-09-04T00:00	4939	563	-4.6	-7.0	352	23
2023-09-04T00:00	4967	561	-4.7	-7.3	353	23
2023-09-04T00:00	4988	560	-4.6	-7.3	353	23
2023-09-04T00:00	5011	558	-4.8	-7.5	353	23
2023-09-04T00:00	5045	556	-4.9	-7.5	353	23
2023-09-04T00:00	5082	553	-5.1	-7.9	353	23
2023-09-04T00:00	5114	551	-5.3	-8.1	352	22
2023-09-04T00:00	5138	549	-5.4	-8.3	351	22
2023-09-04T00:00	5157	548	-5.5	-8.0	350	22
2023-09-04T00:00	5175	547	-5.5	-8.1	350	22
2023-09-04T00:00	5196	545	-5.7	-8.3	350	22
2023-09-04T00:00	5219	544	-5.8	-8.4	350	22
2023-09-04T00:00	5252	541	-6.0	-8.6	351	22
2023-09-04T00:00	5285	539	-6.2	-8.8	351	22
2023-09-04T00:00	5317	537	-6.4	-9.0	351	22
2023-09-04T00:00	5343	535	-6.5	-9.1	351	22
2023-09-04T00:00	5365	534	-6.6	-9.3	351	22
2023-09-04T00:00	5393	532	-6.8	-9.4	351	22
2023-09-04T00:00	5420	530	-6.9	-9.7	351	23
2023-09-04T00:00	5448	528	-7.1	-9.8	352	23
2023-09-04T00:00	5465	527	-7.2	-10.0	353	23
2023-09-04T00:00	5486	525	-7.3	-10.1	354	23
2023-09-04T00:00	5518	523	-7.4	-10.2	355	23
2023-09-04T00:00	5544	522	-7.6	-10.6	355	24
2023-09-04T00:00	5566	520	-7.6	-10.6	355	24
2023-09-04T00:00	5588	518	-7.8	-10.9	354	24
2023-09-04T00:00	5616	517	-7.9	-11.0	354	24
2023-09-04T00:00	5645	515	-8.1	-11.1	353	24
2023-09-04T00:00	5672	513	-8.3	-11.3	353	24
2023-09-04T00:00	5700	511	-8.4	-11.5	353	24
2023-09-04T00:00	5722	510	-8.4	-11.7	353	24
2023-09-04T00:00	5750	508	-8.5	-11.9	354	24
2023-09-04T00:00	5777	506	-8.7	-12.0	354	25
2023-09-04T00:00	5806	504	-8.9	-12.1	355	25
2023-09-04T00:00	5824	503	-9.1	-12.3	355	25
2023-09-04T00:00	5847	502	-9.2	-12.3	356	25
2023-09-04T00:00	5866	500	-9.4	-12.4	357	25
2023-09-04T00:00	5892	499	-9.6	-12.4	359	25
2023-09-04T00:00	5918	497	-9.7	-12.5	360	25
2023-09-04T00:00	5945	495	-9.9	-12.7	0	25
2023-09-04T00:00	5976	493	-10.1	-12.9	0	25
2023-09-04T00:00	6000	492	-10.3	-12.9	0	25
2023-09-04T00:00	6026	490	-10.4	-13.0	360	25
2023-09-04T00:00	6055	488	-10.5	-13.3	0	25
2023-09-04T00:00	6075	487	-10.5	-13.5	0	25
2023-09-04T00:00	6094	486	-10.6	-13.6	1	25
2023-09-04T00:00	6114	484	-10.6	-13.8	1	25
2023-09-04T00:00	6137	483	-10.6	-14.2	1	25
2023-09-04T00:00	6163	481	-10.7	-14.4	1	25
2023-09-04T00:00	6186	480	-10.8	-14.6	1	25
2023-09-04T00:00	6212	478	-11.0	-14.8	0	25
2023-09-04T00:00	6238	477	-11.1	-14.8	360	25
2023-09-04T00:00	6258	475	-11.3	-15.0	359	25
2023-09-04T00:00	6282	474	-11.3	-14.9	358	25
2023-09-04T00:00	6306	472	-11.4	-15.3	358	25
2023-09-04T00:00	6333	471	-11.4	-15.4	357	26
2023-09-04T00:00	6366	469	-11.4	-15.8	356	26
2023-09-04T00:00	6393	467	-11.4	-16.3	356	26
2023-09-04T00:00	6424	465	-11.5	-16.3	355	26
2023-09-04T00:00	6445	464	-11.6	-16.6	355	25
2023-09-04T00:00	6466	463	-11.7	-16.8	355	25
2023-09-04T00:00	6489	461	-11.7	-17.2	355	24
2023-09-04T00:00	6513	460	-11.7	-17.4	355	24
2023-09-04T00:00	6543	458	-11.9	-17.4	355	23
2023-09-04T00:00	6562	457	-12.1	-17.5	355	23
2023-09-04T00:00	6581	456	-12.2	-17.5	355	23
2023-09-04T00:00	6603	455	-12.2	-17.7	355	23
2023-09-04T00:00	6625	453	-12.4	-17.8	356	23
2023-09-04T00:00	6657	451	-12.5	-18.0	356	24
2023-09-04T00:00	6680	450	-12.5	-18.0	357	24
2023-09-04T00:00	6720	448	-12.8	-18.1	357	24
2023-09-04T00:00	6747	446	-13.0	-18.0	358	24
2023-09-04T00:00	6767	445	-13.2	-18.2	358	25
2023-09-04T00:00	6789	444	-13.3	-18.4	358	25
2023-09-04T00:00	6812	442	-13.5	-18.5	357	25
2023-09-04T00:00	6840	441	-13.6	-18.8	358	25
2023-09-04T00:00	6873	439	-13.8	-19.0	359	25
2023-09-04T00:00	6899	437	-14.0	-19.2	360	26
2023-09-04T00:00	6934	435	-14.1	-19.3	1	26
2023-09-04T00:00	6967	433	-14.2	-19.3	2	26
2023-09-04T00:00	6989	432	-14.4	-19.4	3	26
2023-09-04T00:00	7014	431	-14.6	-19.4	3	26
2023-09-04T00:00	7038	429	-14.8	-19.5	3	26
2023-09-04T00:00	7067	428	-15.0	-19.6	3	26
2023-09-04T00:00	7088	426	-15.2	-19.6	3	27
2023-09-04T00:00	7114	425	-15.4	-19.7	3	28
2023-09-04T00:00	7141	424	-15.7	-19.8	3	28
2023-09-04T00:00	7165	422	-15.9	-20.0	4	28
2023-09-04T00:00	7185	421	-16.0	-20.1	4	28
2023-09-04T00:00	7205	420	-16.2	-20.2	4	28
2023-09-04T00:00	7229	419	-16.2	-20.4	4	27
2023-09-04T00:00	7256	417	-16.3	-20.7	4	27
2023-09-04T00:00	7289	415	-16.4	-20.9	4	27
2023-09-04T00:00	7317	414	-16.6	-21.3	4	26
2023-09-04T00:00	7348	412	-16.8		4	26
2023-09-04T00:00	7369	411	-17.0	-21.7	4	26
2023-09-04T00:00	7391	410	-17.2	-21.9	4	27
2023-09-04T00:00	7412	408	-17.3	-22.0	4	27
2023-09-04T00:00	7437	407	-17.5	-22.3	3	27
2023-09-04T00:00	7459	406	-17.6	-22.3	3	27
2023-09-04T00:00	7483	405	-17.8	-22.7	3	27
2023-09-04T00:00	7513	403	-18.0	-22.7	3	26
2023-09-04T00:00	7535	402	-18.2	-22.8	3	26
2023-09-04T00:00	7566	400	-18.5	-23.0	3	26
2023-09-04T00:00	7596	399	-18.6	-23.3	2	25
2023-09-04T00:00	7626	397	-18.8	-23.3	1	25
2023-09-04T00:00	7649	396	-19.0	-23.4	360	26
2023-09-04T00:00	7672	395	-19.2	-23.4	359	26
2023-09-04T00:00	7698	393	-19.4	-23.6	359	26
2023-09-04T00:00	7722	392	-19.4	-23.6	359	25
2023-09-04T00:00	7749	390	-19.6	-23.8	359	25
2023-09-04T00:00	7772	389	-19.9	-23.9	359	25
2023-09-04T00:00	7800	388	-20.1	-24.0	359	25
2023-09-04T00:00	7824	386	-20.4		358	25
2023-09-04T00:00	7852	385	-20.5	-24.3	357	25
2023-09-04T00:00	7876	384	-20.7	-24.4	356	25
2023-09-04T00:00	7897	383	-20.9	-24.4	355	25
2023-09-04T00:00	7918	382	-21.2	-24.5	355	26
2023-09-04T00:00	7946	380	-21.4	-24.5	355	26
2023-09-04T00:00	7977	379	-21.7	-24.7	355	27
2023-09-04T00:00	8007	377	-22.0	-24.8	355	27
2023-09-04T00:00	8034	376	-22.2	-24.9	356	27
2023-09-04T00:00	8064	374	-22.4	-25.0	356	27
2023-09-04T00:00	8095	373	-22.6	-25.6	357	27
2023-09-04T00:00	8125	371	-22.8	-25.7	357	27
2023-09-04T00:00	8152	370	-23.1	-26.1	358	27
2023-09-04T00:00	8174	369	-23.2	-26.4	358	27
2023-09-04T00:00	8204	367	-23.3	-26.6	359	26
2023-09-04T00:00	8229	366	-23.4	-26.9	360	26
2023-09-04T00:00	8257	364	-23.6	-27.2	0	26
2023-09-04T00:00	8291	363	-23.7	-27.3	0	25
2023-09-04T00:00	8323	361	-23.9	-27.7	1	25
2023-09-04T00:00	8352	360	-24.0	-28.0	1	26
2023-09-04T00:00	8372	359	-24.0	-29.8	1	26
2023-09-04T00:00	8392	358	-23.8	-31.3	1	26
2023-09-04T00:00	8412	357	-24.0	-30.7	1	26
2023-09-04T00:00	8434	356	-24.1	-30.3	1	27
2023-09-04T00:00	8461	354	-24.4	-30.3	1	27
2023-09-04T00:00	8491	353	-24.7	-30.5	1	27
2023-09-04T00:00	8515	352	-24.8	-30.5	1	27
2023-09-04T00:00	8537	351	-25.0		1	27
2023-09-04T00:00	8556	350	-25.2	-30.7	0	27
2023-09-04T00:00	8575	349	-25.3	-30.5	360	27
2023-09-04T00:00	8601	348	-25.6	-30.5	359	27
2023-09-04T00:00	8631	346	-25.9	-30.8	359	27
2023-09-04T00:00	8657	345	-26.1	-31.0	359	27
2023-09-04T00:00	8683	344	-26.3	-31.5	359	28
2023-09-04T00:00	8712	342	-26.5	-31.1	359	28
2023-09-04T00:00	8743	341	-26.7	-30.7	360	28
2023-09-04T00:00	8774	339	-27.0	-30.8	360	28
2023-09-04T00:00	8801	338	-27.3	-31.1	360	28
2023-09-04T00:00	8827	337	-27.5	-31.1	360	28
2023-09-04T00:00	8854	336	-27.7	-31.3	360	28
2023-09-04T00:00	8878	335	-28.0	-31.5	360	28
2023-09-04T00:00	8906	333	-27.9	-32.6	0	27
2023-09-04T00:00	8937	332	-28.0	-33.4	1	27
2023-09-04T00:00	8964	331	-28.2	-33.8	1	27
2023-09-04T00:00	8993	329	-28.4	-34.2	1	27
2023-09-04T00:00	9011	328	-28.6	-34.5	1	27
2023-09-04T00:00	9033	327	-28.7	-34.6	2	27
2023-09-04T00:00	9053	326	-28.9	-35.1	2	27
2023-09-04T00:00	9081	325	-29.1	-35.6	2	27
2023-09-04T00:00	9106	324	-29.3	-35.8	2	27
2023-09-04T00:00	9127	323	-29.5	-35.9	2	27
2023-09-04T00:00	9148	322	-29.7	-36.0	3	27
2023-09-04T00:00	9173	321	-29.9	-36.4	3	27
2023-09-04T00:00	9194	320	-30.1	-36.7	4	27
2023-09-04T00:00	9216	319	-30.2	-36.8	5	27
2023-09-04T00:00	9240	318	-30.5	-37.1	5	27
2023-09-04T00:00	9266	317	-30.7	-37.1	5	27
2023-09-04T00:00	9292	316	-30.9	-37.0	6	27
2023-09-04T00:00	9323	314	-31.2	-37.1	6	27
2023-09-04T00:00	9351	313	-31.5	-37.3	6	27
2023-09-04T00:00	9375	312	-31.7	-37.3	5	27
2023-09-04T00:00	9397	311	-31.7	-37.2	5	27
2023-09-04T00:00	9423	310	-31.8	-37.2	4	27
2023-09-04T00:00	9446	309	-32.0	-37.3	4	27
2023-09-04T00:00	9467	308	-32.1	-37.2	3	27
2023-09-04T00:00	9487	307	-32.3	-37.2	3	27
2023-09-04T00:00	9506	306	-32.5	-37.3	2	27
2023-09-04T00:00	9527	305	-32.7	-37.4	2	27
2023-09-04T00:00	9550	304	-32.9	-37.5	2	27
2023-09-04T00:00	9571	303	-33.0	-37.7	2	27
2023-09-04T00:00	9593	303	-33.2	-37.9	1	27
2023-09-04T00:00	9611	302	-33.4	-37.9	1	27
2023-09-04T00:00	9639	301	-33.7	-38.2	0	27
2023-09-04T00:00	9666	299	-33.9	-38.3	359	27
2023-09-04T00:00	9692	298	-34.2	-38.8	358	27
2023-09-04T00:00	9718	297	-34.3	-39.6	358	27
2023-09-04T00:00	9741	296	-34.5	-39.9	357	27
2023-09-04T00:00	9771	295	-34.7	-39.8	357	26
2023-09-04T00:00	9794	294	-34.9	-40.5	356	26
2023-09-04T00:00	9814	293	-35.1	-40.8	356	26
2023-09-04T00:00	9840	292	-35.2	-41.1	356	26
2023-09-04T00:00	9865	291	-35.4	-41.3	356	26
2023-09-04T00:00	9885	290	-35.6	-41.4	356	26
2023-09-04T00:00	9905	289	-35.8	-41.1	355	26
2023-09-04T00:00	9928	288	-35.9	-41.2	355	26
2023-09-04T00:00	9952	287	-36.1	-41.5	355	26
2023-09-04T00:00	9980	286	-36.2	-42.0	355	26
2023-09-04T00:00	10002	285	-36.4	-42.1	355	26
2023-09-04T00:00	10023	284	-36.5	-42.2	355	26
2023-09-04T00:00	10043	284	-36.6	-42.4	356	27
2023-09-04T00:00	10064	283	-36.8	-42.9	356	27
2023-09-04T00:00	10084	282	-36.9	-43.3	356	27
2023-09-04T00:00	10106	281	-37.1	-43.4	357	27
2023-09-04T00:00	10127	280	-37.3	-43.8	357	27
2023-09-04T00:00	10148	279	-37.4	-43.8	358	28
2023-09-04T00:00	10172	278	-37.6	-43.7	359	28
2023-09-04T00:00	10189	278	-37.7	-44.1	359	27
2023-09-04T00:00	10210	277	-37.8	-44.4	360	27
2023-09-04T00:00	10230	276	-38.0	-44.3	0	27
2023-09-04T00:00	10252	275	-38.2	-44.2	1	27
2023-09-04T00:00	10272	274	-38.4	-43.8	1	27
2023-09-04T00:00	10293	274	-38.6	-43.3	1	27
2023-09-04T00:00	10313	273	-38.7	-43.9	1	26
2023-09-04T00:00	10335	272	-38.8	-44.7	1	26
2023-09-04T00:00	10358	271	-39.0	-44.5	1	26
2023-09-04T00:00	10383	270	-39.2	-44.2	1	25
2023-09-04T00:00	10408	269	-39.4	-44.2	2	25
2023-09-04T00:00	10442	268	-39.6	-44.4	3	25
2023-09-04T00:00	10463	267	-39.8	-44.7	4	25
2023-09-04T00:00	10496	266	-40.0	-44.8	5	25
2023-09-04T00:00	10519	265	-40.2	-45.0	6	25
2023-09-04T00:00	10546	264	-40.5	-45.1	6	25
2023-09-04T00:00	10568	263	-40.7	-45.2	6	25
2023-09-04T00:00	10593	262	-40.9	-45.4	6	25
2023-09-04T00:00	10622	261	-41.2	-45.6	6	25
2023-09-04T00:00	10651	260	-41.4	-45.6	6	26
2023-09-04T00:00	10677	259	-41.7	-45.7	6	26
2023-09-04T00:00	10699	258	-41.9	-45.7	6	26
2023-09-04T00:00	10729	257	-42.2	-45.9	7	26
2023-09-04T00:00	10756	256	-42.4	-46.2	7	27
2023-09-04T00:00	10783	255	-42.7	-46.1	8	27
2023-09-04T00:00	10811	254	-43.0	-46.5	8	27
2023-09-04T00:00	10834	253	-43.2	-47.3	8	27
2023-09-04T00:00	10861	252	-43.4	-47.6	8	27
2023-09-04T00:00	10886	251	-43.6	-47.5	8	27
2023-09-04T00:00	10913	250	-43.9	-47.6	8	27
2023-09-04T00:00	10944	249	-44.2	-48.1	8	27
2023-09-04T00:00	10970	248	-44.4	-48.2	8	27
2023-09-04T00:00	10993	247	-44.7	-48.5	9	27
2023-09-04T00:00	11020	246	-44.9	-48.7	9	27
2023-09-04T00:00	11049	245	-45.1	-48.9	10	27
2023-09-04T00:00	11072	244	-45.4	-49.1	10	27
2023-09-04T00:00	11098	243	-45.6	-49.2	10	26
2023-09-04T00:00	11121	242	-45.8	-49.4	10	26
2023-09-04T00:00	11142	241	-46.0	-49.6	9	26
2023-09-04T00:00	11165	240	-46.0	-49.8	8	25
2023-09-04T00:00	11192	239	-46.1	-49.7	7	25
2023-09-04T00:00	11219	239	-46.3	-49.6	6	25
2023-09-04T00:00	11241	238	-46.5	-49.6	5	25
2023-09-04T00:00	11266	237	-46.7	-49.6	5	25
2023-09-04T00:00	11284	236	-46.8	-49.4	5	24
2023-09-04T00:00	11309	235	-47.0	-49.5	4	24
2023-09-04T00:00	11330	234	-47.2	-49.6	4	24
2023-09-04T00:00	11352	234	-47.4	-49.8	4	24
2023-09-04T00:00	11373	233	-47.6	-49.9	4	24
2023-09-04T00:00	11392	232	-47.8	-50.1	3	24
2023-09-04T00:00	11414	232	-48.0	-50.4	3	24
2023-09-04T00:00	11433	231	-48.2	-50.5	3	24
2023-09-04T00:00	11453	230	-48.4	-50.6	4	24
2023-09-04T00:00	11475	229	-48.6	-50.7	4	24
2023-09-04T00:00	11495	229	-48.8	-50.9	3	24
2023-09-04T00:00	11518	228	-48.9	-51.4	3	24
2023-09-04T00:00	11539	227	-49.1	-52.0	3	24
2023-09-04T00:00	11562	226	-49.3	-52.6	2	24
2023-09-04T00:00	11583	226	-49.5	-52.8	2	24
2023-09-04T00:00	11601	225	-49.6	-52.6	1	24
2023-09-04T00:00	11624	224	-49.8	-52.5	1	25
2023-09-04T00:00	11646	224	-49.9	-52.9	1	25
2023-09-04T00:00	11664	223	-50.0	-53.6	1	25
2023-09-04T00:00	11686	222	-50.1	-53.8	1	25
2023-09-04T00:00	11705	222	-50.3	-53.8	1	26
2023-09-04T00:00	11727	221	-50.4	-54.0	1	26
2023-09-04T00:00	11745	220	-50.2	-54.4	1	27
2023-09-04T00:00	11768	219	-50.2	-55.1	1	28
2023-09-04T00:00	11793	219	-50.3	-55.8	1	29
2023-09-04T00:00	11815	218	-50.4	-56.9	0	30
2023-09-04T00:00	11841	217	-50.3	-58.9	360	31
2023-09-04T00:00	11863	216	-49.6	-62.7	360	31
2023-09-04T00:00	11883	216	-49.1	-68.3	359	32
2023-09-04T00:00	11906	215	-48.7	-71.3	358	31
2023-09-04T00:00	11927	214	-48.8	-69.8	358	31
2023-09-04T00:00	11947	213	-48.9	-68.1	357	31
2023-09-04T00:00	11967	213	-49.0	-66.9	356	31
2023-09-04T00:00	11992	212	-49.1	-66.0	356	31
2023-09-04T00:00	12011	211	-49.1	-65.2	355	31
2023-09-04T00:00	12034	211	-49.2	-65.0	355	31
2023-09-04T00:00	12053	210	-49.4	-65.1	355	31
2023-09-04T00:00	12070	209	-49.5	-64.8	354	31
2023-09-04T00:00	12090	209	-49.7	-64.3	354	31
2023-09-04T00:00	12111	208	-49.8	-63.5	354	31
2023-09-04T00:00	12129	208	-49.9	-63.0	354	31
2023-09-04T00:00	12149	207	-50.0	-62.9	354	32
2023-09-04T00:00	12172	206	-49.9	-62.8	355	32
2023-09-04T00:00	12191	206	-49.7	-62.5	355	33
2023-09-04T00:00	12212	205	-49.7	-62.6	355	33
2023-09-04T00:00	12234	204	-49.8	-63.0	355	34
2023-09-04T00:00	12251	204	-49.9	-63.1	355	34
2023-09-04T00:00	12275	203	-50.0	-63.1	354	34
2023-09-04T00:00	12295	202	-50.2	-63.1	354	34
2023-09-04T00:00	12315	202	-50.4	-62.9	354	35
2023-09-04T00:00	12335	201	-50.5	-62.3	355	35
2023-09-04T00:00	12355	201	-50.7	-61.7	355	35
2023-09-04T00:00	12374	200	-50.9	-60.8	355	35
2023-09-04T00:00	12394	199	-51.0	-59.8	356	35
2023-09-04T00:00	12412	199	-51.2	-59.4	356	35
2023-09-04T00:00	12434	198	-51.4	-59.4	356	35
2023-09-04T00:00	12458	197	-51.7	-59.6	356	35
2023-09-04T00:00	12480	197	-51.9	-59.7	356	35
2023-09-04T00:00	12502	196	-52.1	-59.8	357	34
2023-09-04T00:00	12523	195	-52.3	-59.8	357	34
2023-09-04T00:00	12545	195	-52.5	-59.8	357	34
2023-09-04T00:00	12568	194	-52.7	-59.8	357	34
2023-09-04T00:00	12589	193	-52.9	-59.8	357	34
2023-09-04T00:00	12615	193	-53.1	-59.8	357	34
2023-09-04T00:00	12639	192	-53.4	-59.8	358	34
2023-09-04T00:00	12663	191	-53.6	-59.8	358	33
2023-09-04T00:00	12688	191	-53.8	-59.8	359	33
2023-09-04T00:00	12715	190	-54.1	-59.9	360	33
2023-09-04T00:00	12743	189	-54.3	-60.0	0	33
2023-09-04T00:00	12768	188	-54.5	-60.0	1	32
2023-09-04T00:00	12794	187	-54.7	-60.0	2	32
2023-09-04T00:00	12821	187	-55.0	-60.1	3	32
2023-09-04T00:00	12847	186	-55.2	-60.2	4	32
2023-09-04T00:00	12875	185	-55.3	-60.2	4	32
2023-09-04T00:00	12901	184	-55.6	-60.3	5	33
2023-09-04T00:00	12925	184	-55.8	-60.3	5	33
2023-09-04T00:00	12948	183	-56.0	-60.5	6	34
2023-09-04T00:00	12970	182	-56.1	-61.0	7	34
2023-09-04T00:00	12991	182	-56.1	-61.6	8	34
2023-09-04T00:00	13011	181	-56.2	-62.1	9	34
2023-09-04T00:00	13032	181	-56.3	-62.4	9	34
2023-09-04T00:00	13051	180	-56.5	-62.6	9	34
2023-09-04T00:00	13074	179	-56.5	-62.6	9	34
2023-09-04T00:00	13092	179	-56.6	-62.7	9	33
2023-09-04T00:00	13115	178	-56.8	-62.8	9	33
2023-09-04T00:00	13136	178	-57.0	-63.2	9	32
2023-09-04T00:00	13158	177	-57.1	-64.0	9	31
2023-09-04T00:00	13180	176	-57.1	-65.8	10	31
2023-09-04T00:00	13205	176	-56.7	-67.8	10	30
2023-09-04T00:00	13226	175	-56.6	-69.7	10	30
2023-09-04T00:00	13247	174	-56.8	-70.4	10	30
2023-09-04T00:00	13271	174	-56.9	-70.3	10	29
2023-09-04T00:00	13292	173	-57.1	-70.3	10	29
2023-09-04T00:00	13315	173	-57.2	-70.6	9	29
2023-09-04T00:00	13340	172	-57.4	-71.0	9	28
2023-09-04T00:00	13361	171	-57.5	-71.2	9	28
2023-09-04T00:00	13385	171	-57.7	-71.4	8	28
2023-09-04T00:00	13408	170	-57.9	-71.5	8	28
2023-09-04T00:00	13428	170	-58.1	-71.7	7	27
2023-09-04T00:00	13451	169	-58.2	-71.7	7	27
2023-09-04T00:00	13474	168	-58.4	-71.8	7	27
2023-09-04T00:00	13500	168	-58.6	-71.8	7	26
2023-09-04T00:00	13525	167	-58.9	-71.9	7	26
2023-09-04T00:00	13546	166	-59.1	-72.0	7	26
2023-09-04T00:00	13565	166	-59.2	-72.1	7	25
2023-09-04T00:00	13588	165	-59.4	-72.3	7	25
2023-09-04T00:00	13608	165	-59.6	-72.5	6	25
2023-09-04T00:00	13627	164	-59.8	-72.9	5	25
2023-09-04T00:00	13648	164	-59.9	-73.3	5	25
2023-09-04T00:00	13668	163	-60.0	-73.8	4	26
2023-09-04T00:00	13689	163	-60.1	-74.2	4	26
2023-09-04T00:00	13709	162	-60.2	-74.6	3	26
2023-09-04T00:00	13732	162	-60.3	-74.8	3	26
2023-09-04T00:00	13751	161	-60.5	-74.9	3	26
2023-09-04T00:00	13773	160	-60.7	-75.1	2	26
2023-09-04T00:00	13791	160	-60.8	-75.2	2	26
2023-09-04T00:00	13812	159	-61.0	-75.3	2	26
2023-09-04T00:00	13834	159	-61.2	-75.5	1	26
2023-09-04T00:00	13854	158	-61.3	-75.6	0	26
2023-09-04T00:00	13875	158	-61.4	-75.7	360	26
2023-09-04T00:00	13898	157	-61.6	-75.7	359	26
2023-09-04T00:00	13920	157	-61.8	-75.8	359	26
2023-09-04T00:00	13942	156	-61.9	-75.7	358	27
2023-09-04T00:00	13960	156	-62.1	-75.9	358	27
2023-09-04T00:00	13981	155	-62.3	-76.2	358	27
2023-09-04T00:00	14001	155	-62.2	-76.5	358	27
2023-09-04T00:00	14022	154	-62.3	-77.2	358	27
2023-09-04T00:00	14042	154	-62.4	-77.9	359	27
2023-09-04T00:00	14062	153	-62.4	-78.5	359	27
2023-09-04T00:00	14083	153	-62.5	-79.1	360	28
2023-09-04T00:00	14105	152	-62.6	-79.5	1	28
2023-09-04T00:00	14125	152	-62.6	-79.5	1	28
2023-09-04T00:00	14146	151	-62.8	-79.8	1	28
2023-09-04T00:00	14167	151	-62.9	-79.9	1	28
2023-09-04T00:00	14189	150	-62.9	-79.9	0	28
2023-09-04T00:00	14207	150	-62.9	-79.8	360	28
2023-09-04T00:00	14231	149	-63.1	-79.9	359	28
2023-09-04T00:00	14250	149	-63.3	-79.9	359	28
2023-09-04T00:00	14271	148	-63.4	-79.8	358	28
2023-09-04T00:00	14292	148	-63.6	-79.8	357	28
2023-09-04T00:00	14312	147	-63.8	-79.8	356	28
2023-09-04T00:00	14340	146	-64.1	-79.8	354	28
2023-09-04T00:00	14371	146	-64.3	-79.7	353	28
2023-09-04T00:00	14397	145	-64.5	-79.6	352	28
2023-09-04T00:00	14420	144	-64.7	-79.5	351	28
2023-09-04T00:00	14442	144	-64.8	-79.4	351	29
2023-09-04T00:00	14468	143	-64.9	-79.2	350	29
2023-09-04T00:00	14488	143	-64.9	-79.1	350	30
2023-09-04T00:00	14512	142	-65.1	-79.1	350	30
2023-09-04T00:00	14533	142	-65.3	-79.0	349	30
2023-09-04T00:00	14556	141	-65.5	-79.1	349	31
2023-09-04T00:00	14575	141	-65.7	-79.0	350	31
2023-09-04T00:00	14597	140	-65.8	-78.9	351	31
2023-09-04T00:00	14618	140	-65.9	-78.9	352	32
2023-09-04T00:00	14639	139	-66.0	-79.0	354	32
2023-09-04T00:00	14658	139	-65.8	-78.9	356	33
2023-09-04T00:00	14681	138	-65.8	-79.2	358	33
2023-09-04T00:00	14702	138	-65.6	-79.4	0	34
2023-09-04T00:00	14722	137	-65.3	-79.7	3	34
2023-09-04T00:00	14752	137	-65.0	-80.0	5	34
2023-09-04T00:00	14789	136	-64.6	-80.3	8	34
2023-09-04T00:00	14822	135	-64.3	-80.7	11	34
2023-09-04T00:00	14839	135	-64.2	-81.1	14	33
2023-09-04T00:00	14865	134	-63.7	-81.2	16	33
2023-09-04T00:00	14896	134	-63.6	-81.7	18	32
2023-09-04T00:00	14920	133	-63.1	-81.7	20	31
2023-09-04T00:00	14945	132	-63.3	-82.1	22	29
2023-09-04T00:00	14979	132	-62.8	-81.9	23	28
2023-09-04T00:00	15013	131	-62.8	-82.0	24	27
2023-09-04T00:00	15039	131	-62.7	-82.1	25	25
2023-09-04T00:00	15061	130	-62.7	-82.2	25	25
2023-09-04T00:00	15089	129	-62.8	-82.3	24	24
2023-09-04T00:00	15115	129	-62.9	-82.2	24	23
2023-09-04T00:00	15145	128	-63.0	-82.3	23	22
2023-09-04T00:00	15168	128	-63.2	-82.4	22	21
2023-09-04T00:00	15191	127	-63.4	-82.4	21	20
2023-09-04T00:00	15215	127	-63.5	-82.5	19	20
2023-09-04T00:00	15237	126	-63.5	-82.6	18	19
2023-09-04T00:00	15259	126	-63.2	-82.4	16	19
2023-09-04T00:00	15280	126	-63.4	-82.5	15	19
2023-09-04T00:00	15302	125	-63.6	-82.7	14	19
2023-09-04T00:00	15326	125	-63.6	-82.7	12	19
2023-09-04T00:00	15348	124	-63.6	-82.7	11	19
2023-09-04T00:00	15370	124	-63.7	-82.8	9	20
2023-09-04T00:00	15392	123	-63.6	-82.8	8	20
2023-09-04T00:00	15414	123	-63.3	-82.6	8	20
2023-09-04T00:00	15437	122	-63.3	-82.7	9	20
2023-09-04T00:00	15457	122	-63.4	-82.8	10	20
2023-09-04T00:00	15479	122	-63.3	-82.8	12	21
2023-09-04T00:00	15501	121	-63.2	-82.7	15	21
2023-09-04T00:00	15522	121	-63.2	-82.8	17	21
2023-09-04T00:00	15541	120	-63.2	-82.8	19	21
2023-09-04T00:00	15564	120	-63.2	-82.8	21	20
2023-09-04T00:00	15584	119	-63.3	-82.9	23	20
2023-09-04T00:00	15604	119	-63.1	-82.9	24	19
2023-09-04T00:00	15628	119	-63.1	-82.9	25	19
2023-09-04T00:00	15649	118	-62.6	-82.6	26	18
2023-09-04T00:00	15669	118	-62.6	-82.7	27	17
2023-09-04T00:00	15694	117	-62.5	-82.6	27	16
2023-09-04T00:00	15715	117	-62.7	-82.8	27	16
2023-09-04T00:00	15737	117	-62.8	-82.9	25	15
2023-09-04T00:00	15756	116	-62.9	-82.8	23	15
2023-09-04T00:00	15777	116	-63.0	-82.9	20	15
2023-09-04T00:00	15798	115	-63.1	-83.0	18	15
2023-09-04T00:00	15819	115	-63.1	-83.0	15	15
2023-09-04T00:00	15842	115	-63.2	-83.1	13	15
2023-09-04T00:00	15862	114	-63.2	-83.2	12	16
2023-09-04T00:00	15880	114	-63.2	-83.2	12	16
2023-09-04T00:00	15903	113	-63.2	-83.3	12	15
2023-09-04T00:00	15924	113	-63.3	-83.6	12	15
2023-09-04T00:00	15945	113	-63.2	-83.5	13	15
2023-09-04T00:00	15966	112	-63.2	-83.6	12	14
2023-09-04T00:00	15987	112	-63.2	-83.6	12	14
2023-09-04T00:00	16005	112	-63.3	-83.7	10	14
2023-09-04T00:00	16025	111	-63.5	-83.9	8	14
2023-09-04T00:00	16048	111	-63.6	-83.9	7	14
2023-09-04T00:00	16068	110	-63.7	-84.2	5	14
2023-09-04T00:00	16087	110	-63.8	-84.4	4	14
2023-09-04T00:00	16107	110	-63.7	-84.4	3	15
2023-09-04T00:00	16130	109	-63.3	-84.3	3	15
2023-09-04T00:00	16148	109	-63.1	-84.4	2	15
2023-09-04T00:00	16170	109	-63.0	-84.6	2	15
2023-09-04T00:00	16189	108	-62.5	-84.4	1	15
2023-09-04T00:00	16211	108	-62.5	-84.6	360	15
2023-09-04T00:00	16231	108	-62.6	-84.8	359	15
2023-09-04T00:00	16250	107	-62.8	-85.0	358	15
2023-09-04T00:00	16270	107	-62.7	-85.1	358	15
2023-09-04T00:00	16293	106	-62.5	-84.9	358	15
2023-09-04T00:00	16313	106	-62.6	-85.2	359	15
2023-09-04T00:00	16333	106	-62.5	-85.1	359	15
2023-09-04T00:00	16355	105	-62.2	-85.1	359	15
2023-09-04T00:00	16377	105	-62.0	-84.9	358	15
2023-09-04T00:00	16397	105	-62.0	-85.1	358	15
2023-09-04T00:00	16420	104	-62.0	-85.1	358	14
2023-09-04T00:00	16436	104	-61.9	-85.1	358	14
2023-09-04T00:00	16460	104	-61.5	-84.7	359	14
2023-09-04T00:00	16481	103	-61.4	-84.7	360	14
2023-09-04T00:00	16502	103	-61.2	-84.7	1	14
2023-09-04T00:00	16520	103	-60.9	-84.7	2	14
2023-09-04T00:00	16545	102	-60.7	-84.8	3	14
2023-09-04T00:00	16562	102	-60.6	-84.7	4	14
2023-09-04T00:00	16585	102	-60.6	-84.9	5	14
2023-09-04T00:00	16604	101	-60.5	-84.8	6	13
2023-09-04T00:00	16625	101	-60.6	-85.2	7	13
2023-09-04T00:00	16647	101	-60.4	-85.0	6	12
2023-09-04T00:00	16668	100	-60.2	-85.1	5	12
2023-09-04T00:00	16690	100	-60.0	-84.9	4	11
2023-09-04T00:00	16712	100	-59.9	-84.9	2	11
2023-09-04T00:00	16730	99	-59.9	-84.9	360	11
2023-09-04T00:00	16751	99	-59.8	-84.8	359	11
2023-09-04T00:00	16770	99	-59.9	-84.9	358	11
2023-09-04T00:00	16788	98	-60.0	-84.9	357	11
2023-09-04T00:00	16810	98	-59.9	-84.9	357	11
2023-09-04T00:00	16831	98	-60.0	-84.9	357	11
2023-09-04T00:00	16851	97	-60.0	-84.9	358	12
2023-09-04T00:00	16872	97	-60.0	-85.2	358	11
2023-09-04T00:00	16895	97	-59.7	-85.0	359	11
2023-09-04T00:00	16915	96	-59.5	-85.1	1	11
2023-09-04T00:00	16938	96	-59.4	-85.0	3	11
2023-09-04T00:00	16957	96	-59.5	-85.4	6	11
2023-09-04T00:00	16978	95	-59.2	-85.2	9	11
2023-09-04T00:00	16998	95	-59.1	-85.4	12	10
2023-09-04T00:00	17021	95	-58.9	-85.3	16	10
2023-09-04T00:00	17044	94	-59.0	-85.3	18	10
2023-09-04T00:00	17062	94	-59.0	-85.3	21	11
2023-09-04T00:00	17085	94	-59.2	-85.2	23	11
2023-09-04T00:00	17105	93	-59.3	-85.2	24	11
2023-09-04T00:00	17124	93	-59.4	-85.3	25	11
2023-09-04T00:00	17148	93	-59.4	-85.3	26	12
2023-09-04T00:00	17167	93	-59.6	-85.5	28	12
2023-09-04T00:00	17186	92	-59.7	-85.6	29	11
2023-09-04T00:00	17214	92	-59.8	-85.6	31	11
2023-09-04T00:00	17233	92	-59.7	-85.6	32	10
2023-09-04T00:00	17257	91	-59.6	-85.8	32	10
2023-09-04T00:00	17277	91	-59.6	-85.8	32	9
2023-09-04T00:00	17297	91	-59.6	-85.8	31	9
2023-09-04T00:00	17320	90	-59.5	-85.7	30	8
2023-09-04T00:00	17345	90	-59.6	-85.8	28	8
2023-09-04T00:00	17362	90	-59.8	-85.9	26	8
2023-09-04T00:00	17384	89	-60.0	-85.8	24	8
2023-09-04T00:00	17408	89	-60.2	-85.9	22	8
2023-09-04T00:00	17430	89	-60.4	-86.1	20	8
2023-09-04T00:00	17451	88	-60.5	-86.2	21	9
2023-09-04T00:00	17472	88	-60.7	-86.3	23	9
2023-09-04T00:00	17494	88	-60.7	-86.3	26	9
2023-09-04T00:00	17515	88	-60.6	-86.3	31	8
2023-09-04T00:00	17534	87	-60.5	-86.5	35	8
2023-09-04T00:00	17560	87	-60.1	-86.2	39	8
2023-09-04T00:00	17577	87	-60.2	-86.3	42	7
2023-09-04T00:00	17601	86	-60.2	-86.6	44	7
2023-09-04T00:00	17623	86	-60.0	-86.4	45	7
2023-09-04T00:00	17646	86	-60.1	-86.2	43	6
2023-09-04T00:00	17668	85	-60.3	-86.3	39	6
2023-09-04T00:00	17693	85	-60.4		34	6
2023-09-04T00:00	17716	85	-60.6	-86.6	28	6
2023-09-04T00:00	17742	84	-60.5	-86.5	23	6
2023-09-04T00:00	17765	84	-60.5	-86.5	19	6
2023-09-04T00:00	17783	84	-60.4	-86.7	17	6
2023-09-04T00:00	17808	83	-60.1	-86.5	15	7
2023-09-04T00:00	17834	83	-60.0	-86.4	14	6
2023-09-04T00:00	17855	83	-59.8	-86.3	13	7
2023-09-04T00:00	17875	83	-59.7	-86.5	13	7
2023-09-04T00:00	17903	82	-59.6	-86.5	13	7
2023-09-04T00:00	17923	82	-59.7	-86.5	15	7
2023-09-04T00:00	17945	82	-59.8	-86.6	16	7
2023-09-04T00:00	17970	81	-59.7	-86.5	17	7
2023-09-04T00:00	17988	81	-59.5	-86.4	17	7
2023-09-04T00:00	18011	81	-59.5	-86.4	16	7
2023-09-04T00:00	18032	81	-59.6	-86.5	15	7
2023-09-04T00:00	18051	80	-59.7	-86.5	13	7
2023-09-04T00:00	18074	80	-59.6	-86.5	12	7
2023-09-04T00:00	18099	80	-59.4	-86.3	10	7
2023-09-04T00:00	18122	79	-59.3	-86.6	9	8
2023-09-04T00:00	18138	79	-59.3	-86.6	10	8
2023-09-04T00:00	18165	79	-59.3	-86.6	11	8
2023-09-04T00:00	18183	79	-59.3	-86.6	14	8
2023-09-04T00:00	18208	78	-59.2	-86.5	17	7
2023-09-04T00:00	18227	78	-59.3	-86.6	21	7
2023-09-04T00:00	18248	78	-59.1	-86.5	23	7
2023-09-04T00:00	18270	78	-59.1	-86.5	26	7
2023-09-04T00:00	18293	77	-59.2	-86.5	28	6
2023-09-04T00:00	18315	77	-59.2	-86.2	29	6
2023-09-04T00:00	18334	77	-59.4	-86.3	31	6
2023-09-04T00:00	18356	77	-59.5	-86.4	33	6
2023-09-04T00:00	18378	76	-59.5	-86.4	34	6
2023-09-04T00:00	18396	76	-59.6	-86.5	35	6
2023-09-04T00:00	18420	76	-59.7	-86.5	35	6
2023-09-04T00:00	18441	75	-59.7	-86.5	36	6
2023-09-04T00:00	18458	75	-59.7	-86.5	36	6
2023-09-04T00:00	18481	75	-59.8	-86.6	36	6
2023-09-04T00:00	18503	75	-59.7	-86.5	35	6
2023-09-04T00:00	18525	74	-59.6	-86.8	34	7
2023-09-04T00:00	18544	74	-59.6	-86.8	35	7
2023-09-04T00:00	18564	74	-59.5	-86.8	35	6
2023-09-04T00:00	18586	74	-59.4	-86.7	37	6
2023-09-04T00:00	18607	74	-59.4	-86.7	39	6
2023-09-04T00:00	18628	73	-59.4	-86.7	41	6
2023-09-04T00:00	18648	73	-59.5	-86.8	41	6
2023-09-04T00:00	18671	73	-59.7	-86.9	40	6
2023-09-04T00:00	18693	72	-59.8	-87.0	38	6
2023-09-04T00:00	18716	72	-59.7	-86.9	34	7
2023-09-04T00:00	18736	72	-59.7	-86.9	31	7
2023-09-04T00:00	18756	72	-59.9	-86.7	28	7
2023-09-04T00:00	18782	71	-60.0	-86.8	26	8
2023-09-04T00:00	18805	71	-60.1	-86.8	26	8
2023-09-04T00:00	18825	71	-60.2	-86.9	26	8
2023-09-04T00:00	18849	71	-60.1	-87.2	27	8
2023-09-04T00:00	18871	70	-59.9	-87.1	29	7
2023-09-04T00:00	18893	70	-59.8	-86.6	31	7
2023-09-04T00:00	18914	70	-60.0	-86.8	34	7
2023-09-04T00:00	18940	70	-60.2	-86.9	37	6
2023-09-04T00:00	18961	69	-60.4	-87.1	40	6
2023-09-04T00:00	18984	69	-60.6	-86.9	42	6
2023-09-04T00:00	19006	69	-60.7	-87.0	40	5
2023-09-04T00:00	19027	69	-60.8	-87.0	35	5
2023-09-04T00:00	19045	68	-60.9	-87.1	27	5
2023-09-04T00:00	19071	68	-61.0	-87.5	17	6
2023-09-04T00:00	19091	68	-60.9	-87.5	9	6
2023-09-04T00:00	19115	68	-60.7	-87.3	4	7
2023-09-04T00:00	19137	68	-60.5	-87.5	3	7
2023-09-04T00:00	19159	67	-60.5	-87.5	3	8
2023-09-04T00:00	19179	67	-60.0	-87.5	4	8
2023-09-04T00:00	19202	67	-59.3	-87.4	5	8
2023-09-04T00:00	19222	67	-59.1	-87.3	4	8
2023-09-04T00:00	19241	66	-58.6	-86.9	3	9
2023-09-04T00:00	19267	66	-58.6	-86.9	1	9
2023-09-04T00:00	19284	66	-58.6	-86.9	359	9
2023-09-04T00:00	19310	66	-58.6	-86.9	358	9
2023-09-04T00:00	19329	65	-58.6	-86.9	358	10
2023-09-04T00:00	19349	65	-58.6	-86.9	359	10
2023-09-04T00:00	19374	65	-58.8	-87.0	2	10
2023-09-04T00:00	19395	65	-58.6	-86.9	6	10
2023-09-04T00:00	19421	65	-58.6	-86.9	10	10
2023-09-04T00:00	19438	64	-58.6	-86.9	14	10
2023-09-04T00:00	19466	64	-58.5	-86.8	17	10
2023-09-04T00:00	19484	64	-58.5	-86.8	19	10
2023-09-04T00:00	19508	64	-58.5	-86.8	21	10
2023-09-04T00:00	19527	63	-58.5	-86.8	22	10
2023-09-04T00:00	19553	63	-58.6	-86.9	24	10
2023-09-04T00:00	19573	63	-58.6	-86.9	25	10
2023-09-04T00:00	19599	63	-58.6	-86.9	27	10
2023-09-04T00:00	19619	63	-58.7	-87.0	28	10
2023-09-04T00:00	19642	62	-58.5	-86.8	29	10
2023-09-04T00:00	19666	62	-58.5	-86.8	31	10
2023-09-04T00:00	19683	62	-58.4	-86.7	32	10
2023-09-04T00:00	19709	62	-58.6	-86.9	33	9
2023-09-04T00:00	19730	61	-58.7	-86.5	33	9
2023-09-04T00:00	19752	61	-58.9	-86.7	34	9
2023-09-04T00:00	19778	61	-59.0	-86.8	33	8
2023-09-04T00:00	19800	61	-59.1	-86.8	31	8
2023-09-04T00:00	19824	61	-59.2	-86.9	29	8
2023-09-04T00:00	19846	60	-59.1	-86.8	25	8
2023-09-04T00:00	19873	60	-58.8	-87.0	22	8
2023-09-04T00:00	19895	60	-58.5	-86.8	20	8
2023-09-04T00:00	19919	60	-58.6	-86.9	18	8
2023-09-04T00:00	19939	59	-58.6	-86.9	16	8
2023-09-04T00:00	19968	59	-58.7	-87.0	16	8
2023-09-04T00:00	19991	59	-58.7	-87.0	15	8
2023-09-04T00:00	20010	59	-58.7	-87.0	15	8
2023-09-04T00:00	20031	59	-58.6	-86.9	15	8
2023-09-04T00:00	20059	58	-58.4	-87.2	16	8
2023-09-04T00:00	20082	58	-58.3	-87.1	18	8
2023-09-04T00:00	20105	58	-58.2	-87.0	20	9
2023-09-04T00:00	20126	58	-58.2	-87.0	21	9
2023-09-04T00:00	20151	57	-58.0	-86.9	22	9
2023-09-04T00:00	20168	57	-57.9	-86.8	22	10
2023-09-04T00:00	20194	57	-57.7	-86.7	22	10
2023-09-04T00:00	20213	57	-57.7	-86.7	21	10
2023-09-04T00:00	20238	57	-57.9	-86.8	22	10
2023-09-04T00:00	20261	56	-58.0	-86.9	23	10
2023-09-04T00:00	20286	56	-57.8	-86.7	25	10
2023-09-04T00:00	20304	56	-57.8	-86.7	27	10
2023-09-04T00:00	20327	56	-57.6	-86.6	29	10
2023-09-04T00:00	20351	56	-57.3	-86.9	31	10
2023-09-04T00:00	20372	55	-57.3	-86.9	32	10
2023-09-04T00:00	20396	55	-57.1	-86.7	33	10
2023-09-04T00:00	20416	55	-57.1	-86.7	34	10
2023-09-04T00:00	20442	55	-57.2	-86.8	36	10
2023-09-04T00:00	20462	55	-57.3	-86.9	36	10
2023-09-04T00:00	20485	54	-57.3	-86.4	37	10
2023-09-04T00:00	20509	54	-57.3	-86.4	36	10
2023-09-04T00:00	20534	54	-57.2	-86.3	35	9
2023-09-04T00:00	20549	54	-57.2	-86.3	33	9
2023-09-04T00:00	20576	54	-57.3	-86.4	32	9
2023-09-04T00:00	20597	54	-57.4	-86.4	33	9
2023-09-04T00:00	20622	53	-57.5	-86.5	34	9
2023-09-04T00:00	20643	53	-57.2	-86.3	36	8
2023-09-04T00:00	20663	53	-57.1	-86.2	39	8
2023-09-04T00:00	20687	53	-57.1	-86.2	41	8
2023-09-04T00:00	20708	53	-57.2	-86.8	43	8
2023-09-04T00:00	20728	52	-57.0	-86.6	43	8
2023-09-04T00:00	20753	52	-56.9	-86.6	42	8
2023-09-04T00:00	20775	52	-56.7	-86.4	41	7
2023-09-04T00:00	20802	52	-56.6	-86.3	40	7
2023-09-04T00:00	20816	52	-56.5	-86.3	39	6
2023-09-04T00:00	20843	51	-56.3	-86.1	39	6
2023-09-04T00:00	20864	51	-56.3	-86.1	38	6
2023-09-04T00:00	20886	51	-56.1	-86.0	37	5
2023-09-04T00:00	20906	51	-56.0	-85.9	35	5
2023-09-04T00:00	20927	51	-56.0	-85.9	31	5
2023-09-04T00:00	20952	51	-55.9	-85.8	27	5
2023-09-04T00:00	20977	50	-55.7	-85.7	24	5
2023-09-04T00:00	21000	50	-55.7	-85.7	21	5
2023-09-04T00:00	21017	50	-55.7	-86.2	20	6
2023-09-04T00:00	21039	50	-55.8	-86.3	20	6
2023-09-04T00:00	21062	50	-55.8	-86.3	20	7
2023-09-04T00:00	21084	50	-55.7	-86.2	21	7
2023-09-04T00:00	21109	49	-55.6	-86.1	22	7
2023-09-04T00:00	21129	49	-55.5	-86.1	23	8
2023-09-04T00:00	21154	49	-55.4	-86.0	24	8
2023-09-04T00:00	21174	49	-55.5	-86.1	27	8
2023-09-04T00:00	21199	49	-55.6	-85.6	31	8
2023-09-04T00:00	21221	49	-55.8	-85.7	36	8
2023-09-04T00:00	21247	48	-55.8	-85.7	43	8
2023-09-04T00:00	21273	48	-55.9	-85.8	50	7
2023-09-04T00:00	21294	48	-55.9	-85.8	58	7
2023-09-04T00:00	21323	48	-55.9	-85.8	65	7
2023-09-04T00:00	21335	48	-55.8	-85.7	71	7
2023-09-04T00:00	21364	47	-55.9	-85.8	77	7
2023-09-04T00:00	21387	47	-56.0	-85.9	81	7
2023-09-04T00:00	21415	47	-56.1	-86.0	86	7
2023-09-04T00:00	21441	47	-56.1	-86.0	90	7
2023-09-04T00:00	21462	47	-56.2	-86.0	95	6
2023-09-04T00:00	21484	47	-56.3	-86.1	98	6
2023-09-04T00:00	21511	46	-56.4	-86.2	101	5
2023-09-04T00:00	21530	46	-56.5	-86.3	102	5
2023-09-04T00:00	21552	46	-56.7	-86.4	102	4
2023-09-04T00:00	21576	46	-56.8	-86.0	101	4
2023-09-04T00:00	21596	46	-57.0	-86.1	98	4
2023-09-04T00:00	21624	46	-57.1	-86.2	93	3
2023-09-04T00:00	21645	45	-57.2	-86.3	87	3
2023-09-04T00:00	21666	45	-56.9	-86.1	81	3
2023-09-04T00:00	21688	45	-56.9	-86.6	77	3
2023-09-04T00:00	21712	45	-56.9	-86.6	76	3
2023-09-04T00:00	21736	45	-57.1	-86.7	78	3
2023-09-04T00:00	21756	45	-57.1	-86.2	83	3
2023-09-04T00:00	21782	44	-57.2	-86.3	89	3
2023-09-04T00:00	21802	44	-57.3	-86.4	93	3
2023-09-04T00:00	21830	44	-57.2	-86.3	96	3
2023-09-04T00:00	21853	44	-57.2	-86.3	96	3
2023-09-04T00:00	21877	44	-57.3	-86.9	94	3
2023-09-04T00:00	21895	44	-57.1	-86.7	92	3
2023-09-04T00:00	21921	43	-57.2	-86.8	91	3
2023-09-04T00:00	21944	43	-57.3	-86.9	90	3
2023-09-04T00:00	21962	43	-57.4	-86.9	89	3
2023-09-04T00:00	21991	43	-57.3	-86.9	86	3
2023-09-04T00:00	22012	43	-57.2	-86.8	79	3
2023-09-04T00:00	22040	43	-57.2	-86.8	71	3
2023-09-04T00:00	22055	43	-56.9	-86.6	65	3
2023-09-04T00:00	22084	42	-56.9	-86.6	62	3
2023-09-04T00:00	22106	42	-56.8	-86.5	60	3
2023-09-04T00:00	22126	42	-56.7	-86.4	59	4
2023-09-04T00:00	22149	42	-56.7	-86.4	58	4
2023-09-04T00:00	22176	42	-56.9	-86.6	56	4
2023-09-04T00:00	22195	42	-57.0	-86.6	54	5
2023-09-04T00:00	22220	41	-57.1	-86.7	52	5
2023-09-04T00:00	22240	41	-57.3	-86.4	50	6
2023-09-04T00:00	22262	41	-57.4	-86.4	50	6
2023-09-04T00:00	22287	41	-57.4	-86.4	50	7
2023-09-04T00:00	22315	41	-57.5	-86.5	51	7
2023-09-04T00:00	22338	41	-57.6	-86.6	52	8
2023-09-04T00:00	22360	41	-57.7	-86.7	54	8
2023-09-04T00:00	22384	40	-57.8	-86.7	57	8
2023-09-04T00:00	22401	40	-57.9	-86.8	60	7
2023-09-04T00:00	22431	40	-57.8	-86.7	62	7
2023-09-04T00:00	22454	40	-57.7	-86.7	64	6
2023-09-04T00:00	22473	40	-57.7	-86.7	63	6
2023-09-04T00:00	22497	40	-57.8	-86.7	61	5
2023-09-04T00:00	22518	40	-57.9	-86.8	56	5
2023-09-04T00:00	22542	39	-57.9	-86.8	48	4
2023-09-04T00:00	22565	39	-58.0	-86.9	39	4
2023-09-04T00:00	22583	39	-58.1	-87.0	31	4
2023-09-04T00:00	22611	39	-58.2	-87.0	25	4
2023-09-04T00:00	22636	39	-58.2	-87.5	23	4
2023-09-04T00:00	22657	39	-58.1	-87.4	23	4
2023-09-04T00:00	22681	39	-57.6	-87.1	23	5
2023-09-04T00:00	22707	38	-57.2	-86.8	24	6
2023-09-04T00:00	22722	38	-57.2	-87.3	24	6
2023-09-04T00:00	22745	38	-57.2	-87.3	25	6
2023-09-04T00:00	22769	38	-57.0	-87.2	26	6
2023-09-04T00:00	22794	38	-57.0	-87.2	28	6
2023-09-04T00:00	22811	38	-57.0	-86.6	30	6
2023-09-04T00:00	22841	38	-57.0	-86.6	32	6
2023-09-04T00:00	22861	37	-56.9	-86.6	32	6
2023-09-04T00:00	22887	37	-57.0	-86.6	31	6
2023-09-04T00:00	22907	37	-57.0	-86.6	30	6
2023-09-04T00:00	22925	37	-57.0	-86.6	30	6
2023-09-04T00:00	22947	37	-56.9	-86.6	30	6
2023-09-04T00:00	22966	37	-56.8	-87.0	32	6
2023-09-04T00:00	22997	37	-56.6	-86.9	34	7
2023-09-04T00:00	23018	37	-56.3	-86.6	37	7
2023-09-04T00:00	23042	36	-56.2	-86.6	39	7
2023-09-04T00:00	23065	36	-56.1	-86.5	41	6
2023-09-04T00:00	23092	36	-56.0	-87.0	43	6
2023-09-04T00:00	23115	36	-55.9	-86.9	44	5
2023-09-04T00:00	23141	36	-55.7	-86.8	44	4
2023-09-04T00:00	23158	36	-55.6	-86.7	42	4
2023-09-04T00:00	23181	36	-55.1	-86.4	37	3
2023-09-04T00:00	23207	35	-54.8	-86.1	29	3
2023-09-04T00:00	23229	35	-54.7	-86.1	20	2
2023-09-04T00:00	23253	35	-54.5	-85.9	14	2
2023-09-04T00:00	23276	35	-54.6	-86.0	15	2
2023-09-04T00:00	23301	35	-54.5	-85.9	23	2
2023-09-04T00:00	23322	35	-54.4	-85.8	35	2
2023-09-04T00:00	23346	35	-54.4	-85.8	44	3
2023-09-04T00:00	23370	35	-54.4	-85.8	48	3
2023-09-04T00:00	23390	34	-54.4	-85.8	48	3
2023-09-04T00:00	23412	34	-54.5	-85.9	45	3
2023-09-04T00:00	23439	34	-54.5	-85.9	40	3
2023-09-04T00:00	23463	34	-54.3	-85.8	32	3
2023-09-04T00:00	23487	34	-54.4	-85.8	24	3
2023-09-04T00:00	23511	34	-54.4	-85.8	17	3
2023-09-04T00:00	23533	34	-54.4	-85.8	12	3
2023-09-04T00:00	23561	34	-54.3	-85.8	8	3
2023-09-04T00:00	23585	33	-54.0	-85.5	6	4
2023-09-04T00:00	23608	33	-54.0	-85.5	5	4
2023-09-04T00:00	23633	33	-54.1	-85.6	5	4
2023-09-04T00:00	23657	33	-54.2	-85.7	7	5
2023-09-04T00:00	23686	33	-54.4	-85.8	8	5
2023-09-04T00:00	23701	33	-54.1	-85.6	11	6
2023-09-04T00:00	23730	33	-54.2	-85.7	13	6
2023-09-04T00:00	23757	33	-54.3	-85.8	16	6
2023-09-04T00:00	23781	32	-54.4	-85.8	19	6
2023-09-04T00:00	23807	32	-54.4	-85.8	22	6
2023-09-04T00:00	23832	32	-54.5	-85.9	25	6
2023-09-04T00:00	23854	32	-54.5	-85.9	26	6
2023-09-04T00:00	23878	32	-54.4	-85.8	26	5
2023-09-04T00:00	23905	32	-54.4	-85.8	26	5
2023-09-04T00:00	23924	32	-54.4	-85.8	25	5
2023-09-04T00:00	23952	32	-54.3	-85.8	23	5
2023-09-04T00:00	23979	31	-54.2	-85.7	22	5
2023-09-04T00:00	24005	31	-54.3	-86.4	20	5
2023-09-04T00:00	24023	31	-54.1	-86.3	17	4
2023-09-04T00:00	24059	31	-54.1	-86.3	14	4
2023-09-04T00:00	24075	31	-54.1	-86.3	11	4
2023-09-04T00:00	24098	31	-54.0	-86.2	8	3
2023-09-04T00:00	24127	31	-53.9	-86.2	5	3
2023-09-04T00:00	24154	31	-53.8	-86.1	4	3
2023-09-04T00:00	24175	31	-53.8	-86.1	4	2
2023-09-04T00:00	24198	30	-53.7	-86.0	5	2
2023-09-04T00:00	24225	30	-53.8	-86.1	6	1
2023-09-04T00:00	24251	30	-53.9	-86.2	5	1
2023-09-04T00:00	24270	30	-53.9	-86.2	3	2
2023-09-04T00:00	24302	30	-53.9	-85.5	1	2
2023-09-04T00:00	24321	30	-53.8	-86.1	359	2
2023-09-04T00:00	24349	30	-53.8	-86.1	358	3
2023-09-04T00:00	24375	30	-53.7	-86.0	355	3
2023-09-04T00:00	24399	29	-53.7	-86.0	353	3
2023-09-04T00:00	24420	29	-53.8	-86.1	350	4
2023-09-04T00:00	24448	29	-53.8	-86.1	350	4
2023-09-04T00:00	24473	29	-53.8	-86.1	352	4
2023-09-04T00:00	24501	29	-53.7	-86.0	357	3
2023-09-04T00:00	24527	29	-53.6		3	3
2023-09-04T00:00	24549	29	-53.7	-86.0	10	3
2023-09-04T00:00	24578	29	-53.8	-86.1	13	3
2023-09-04T00:00	24602	29	-53.8	-86.1	11	3
2023-09-04T00:00	24626	28	-53.7	-86.0	3	3
2023-09-04T00:00	24657	28	-53.6		354	3
2023-09-04T00:00	24681	28	-53.5	-85.9	344	3
2023-09-04T00:00	24703	28	-53.6		337	3
2023-09-04T00:00	24733	28	-53.7	-86.0	333	4
2023-09-04T00:00	24759	28	-53.7	-86.0	331	5
2023-09-04T00:00	24783	28	-53.8	-86.1	332	5
2023-09-04T00:00	24803	28	-53.8	-86.1	334	5
2023-09-04T00:00	24834	28	-53.8	-85.4	338	5
2023-09-04T00:00	24862	27	-53.9	-85.5	345	5
2023-09-04T00:00	24887	27	-54.0	-85.5	353	5
2023-09-04T00:00	24907	27	-54.0	-85.5	3	4
2023-09-04T00:00	24939	27	-54.1	-85.6	13	4
2023-09-04T00:00	24965	27	-54.2	-85.7	22	4
2023-09-04T00:00	24987	27	-54.1	-85.6	29	5
2023-09-04T00:00	25022	27	-54.2	-85.7	36	5
2023-09-04T00:00	25040	27	-54.4	-85.8	42	5
2023-09-04T00:00	25072	27	-54.5	-85.9	47	5
2023-09-04T00:00	25101	26	-54.5	-85.9	51	6
2023-09-04T00:00	25116	26	-54.5	-85.9	55	6
2023-09-04T00:00	25157	26	-54.6	-86.0	58	6
2023-09-04T00:00	25177	26	-54.7	-86.1	60	6
2023-09-04T00:00	25200	26	-54.7	-86.1	60	5
2023-09-04T00:00	25229	26	-54.6	-86.0	60	5
2023-09-04T00:00	25265	26	-54.4	-85.8	58	5
2023-09-04T00:00	25277	26	-54.4	-85.8	55	4
2023-09-04T00:00	25309	26	-54.5	-85.9	51	4
2023-09-04T00:00	25332	25	-54.6	-86.0	48	4
2023-09-04T00:00	25371	25	-54.7	-86.1	46	3
2023-09-04T00:00	25391	25	-54.8	-86.8	46	3
2023-09-04T00:00	25414	25	-54.5	-86.6	47	3
2023-09-04T00:00	25443	25	-54.3	-86.4	47	3
2023-09-04T00:00	25476	25	-54.3	-86.4	45	3
2023-09-04T00:00	25504	25	-54.3	-85.8	41	3
2023-09-04T00:00	25531	25	-54.4	-85.8	38	3
2023-09-04T00:00	25558	25	-54.5	-85.9	38	4
2023-09-04T00:00	25582	24	-54.7	-86.1	40	4
2023-09-04T00:00	25614	24	-54.9	-86.2	46	4
2023-09-04T00:00	25645	24	-54.9	-86.2	55	4
2023-09-04T00:00	25664	24	-54.7	-86.1	64	4
2023-09-04T00:00	25683	24	-54.8	-86.1	73	4
2023-09-04T00:00	25716	24	-55.0	-86.3	82	5
2023-09-04T00:00	25745	24	-55.2	-86.4	90	5
2023-09-04T00:00	25766	24	-55.2	-86.4	98	5
2023-09-04T00:00	25794	24	-55.0	-86.3	104	5
2023-09-04T00:00	25827	24	-55.0	-86.3	110	5
2023-09-04T00:00	25842	24	-55.0	-87.0	114	5
2023-09-04T00:00	25868	23	-54.9	-86.9	117	5
2023-09-04T00:00	25899	23	-54.5	-86.6	117	4
2023-09-04T00:00	25924	23	-54.4	-86.5	115	3
2023-09-04T00:00	25947	23	-54.0	-86.2	110	2
2023-09-04T00:00	25977	23	-54.0	-86.2	95	2
2023-09-04T00:00	25999	23	-53.9	-86.2	63	1
2023-09-04T00:00	26024	23	-53.9	-86.2	25	1
2023-09-04T00:00	26053	23	-53.9	-86.2	8	2
2023-09-04T00:00	26080	23	-53.7	-86.0	4	2
2023-09-04T00:00	26102	23	-53.8	-86.1	8	2
2023-09-04T00:00	26124	23	-53.7	-86.0	18	2
2023-09-04T00:00	26156	22	-53.7	-86.0	26	2
2023-09-04T00:00	26168	22	-53.5	-85.9	30	2
2023-09-04T00:00	26212	22	-53.5	-85.9	29	3
2023-09-04T00:00	26234	22	-53.2	-85.6	25	3
2023-09-04T00:00	26259	22	-53.2	-85.6	18	3
2023-09-04T00:00	26297	22	-53.3	-85.7	9	3
2023-09-04T00:00	26313	22	-53.3	-85.7	356	3
2023-09-04T00:00	26334	22	-53.4	-85.8	341	3
2023-09-04T00:00	26369	22	-53.3	-85.7	326	3
2023-09-04T00:00	26394	22	-53.0	-85.5	317	3
2023-09-04T00:00	26413	21	-53.0	-86.3	314	3
2023-09-04T00:00	26452	21	-53.1	-86.3	315	4
2023-09-04T00:00	26472	21	-52.9	-86.2	319	4
2023-09-04T00:00	26506	21	-52.9	-86.2	322	5
2023-09-04T00:00	26535	21	-52.9	-86.2	325	5
2023-09-04T00:00	26557	21	-52.9	-86.2	327	5
2023-09-04T00:00	26579	21	-52.8	-86.1	328	6
2023-09-04T00:00	26607	21	-52.6		328	6
2023-09-04T00:00	26627	21	-52.4	-85.8	330	6
2023-09-04T00:00	26656	21	-52.4	-85.8	331	7
2023-09-04T00:00	26688	21	-52.4	-85.8	333	7
2023-09-04T00:00	26710	21	-52.3	-85.8	334	7
2023-09-04T00:00	26728	20	-52.3	-85.8	335	8
2023-09-04T00:00	26768	20	-52.4	-85.8	336	8
2023-09-04T00:00	26795	20	-52.5	-85.9	336	9
2023-09-04T00:00	26814	20	-52.6		337	9
2023-09-04T00:00	26844	20	-52.4	-85.8	338	10
2023-09-04T00:00	26872	20	-52.2	-85.7	339	10
2023-09-04T00:00	26891	20	-52.0	-85.5	340	10
2023-09-04T00:00	26937	20	-51.7	-85.3	341	10
2023-09-04T00:00	26947	20	-51.6	-86.1	341	10
2023-09-04T00:00	26988	20	-51.4	-86.0	342	10
2023-09-04T00:00	27004	20	-51.1	-85.8	342	9
2023-09-04T00:00	27031	20	-50.8	-85.6	342	9
2023-09-04T00:00	27052	19	-50.8	-85.6	343	9
2023-09-04T00:00	27083	19	-51.0	-85.7	345	9
2023-09-04T00:00	27114	19	-50.9	-85.6	347	9
2023-09-04T00:00	27137	19	-50.8	-85.6	350	10
2023-09-04T00:00	27161	19	-50.8	-84.7	353	10
2023-09-04T00:00	27194	19	-50.9	-84.7	357	10
2023-09-04T00:00	27206	19	-51.0	-84.8	1	10
2023-09-04T00:00	27239	19	-51.0	-84.8	5	10
2023-09-04T00:00	27271	19	-51.1	-84.9	9	10
2023-09-04T00:00	27295	19	-51.2	-85.0	12	10
2023-09-04T00:00	27325	19	-51.4	-85.1	16	10
2023-09-04T00:00	27352	19	-51.3	-85.0	20	10
2023-09-04T00:00	27368	19	-51.2	-85.0	24	9
2023-09-04T00:00	27406	18	-51.1	-84.9	28	9
2023-09-04T00:00	27434	18	-51.0	-84.8	33	9
2023-09-04T00:00	27445	18	-51.0	-84.8	37	9
2023-09-04T00:00	27476	18	-50.9	-85.6	41	8
2023-09-04T00:00	27496	18	-50.7	-85.5	45	8
2023-09-04T00:00	27540	18	-50.6	-85.4	47	7
2023-09-04T00:00	27548	18	-50.7	-85.5	49	7
2023-09-04T00:00	27578	18	-50.9	-85.6	49	6
2023-09-04T00:00	27616	18	-50.7	-85.5	51	6
2023-09-04T00:00	27633	18	-50.6	-85.4	53	6
2023-09-04T00:00	27657	18	-50.5	-85.3	56	5
2023-09-04T00:00	27684	18	-50.4	-85.3	60	5
2023-09-04T00:00	27695	18	-50.4	-85.3	62	5
2023-09-04T00:00	27729	18	-50.2	-85.1	63	6
2023-09-04T00:00	27749	18	-50.2	-85.1	62	6
2023-09-04T00:00	27786	17	-50.2	-85.1	60	6
2023-09-04T00:00	27799	17	-50.2	-85.1	59	6
2023-09-04T00:00	27830	17	-49.7	-84.8	59	5
2023-09-04T00:00	27844	17	-49.2	-85.5	61	4
2023-09-04T00:00	27872	17	-49.1	-85.4	64	3
2023-09-04T00:00	27905	17	-48.6	-85.0	70	3
2023-09-04T00:00	27931	17	-48.5	-85.0	81	2
2023-09-04T00:00	27953	17	-48.5	-85.0	107	1
2023-09-04T00:00	27982	17	-48.7	-84.1	170	1
2023-09-04T00:00	28007	17	-48.8	-84.1	209	1
2023-09-04T00:00	28032	17	-49.0	-84.3	227	1
2023-09-04T00:00	28061	17	-49.1	-84.3	241	2
2023-09-04T00:00	28092	17	-49.2	-84.4	254	2
2023-09-04T00:00	28115	17	-48.9	-84.2	268	2
2023-09-04T00:00	28142	17	-48.8	-84.1	278	2
2023-09-04T00:00	28167	16	-48.8	-84.1	284	3
2023-09-04T00:00	28196	16	-48.8	-84.1	285	3
2023-09-04T00:00	28223	16	-48.7	-84.1	284	4
2023-09-04T00:00	28238	16	-48.8	-84.1	282	4
2023-09-04T00:00	28281	16	-48.8	-84.1	280	4
2023-09-04T00:00	28294	16	-48.9	-84.2	278	4
2023-09-04T00:00	28327	16	-48.6	-85.0	276	4
2023-09-04T00:00	28347	16	-48.3	-84.8	273	3
2023-09-04T00:00	28380	16	-48.3	-84.8	269	3
2023-09-04T00:00	28406	16	-48.2	-84.8	262	2
2023-09-04T00:00	28429	16	-48.3	-84.8	251	2
2023-09-04T00:00	28457	16	-48.4	-83.8	230	1
2023-09-04T00:00	28479	16	-48.5	-83.9	139	1
2023-09-04T00:00	28515	16	-48.7	-84.1	102	1
2023-09-04T00:00	28537	16	-48.7	-84.1	93	1
2023-09-04T00:00	28557	15	-48.9	-84.2	89	2
2023-09-04T00:00	28589	15	-48.8	-84.1	82	1
2023-09-04T00:00	28616	15	-48.9	-84.2	62	1
2023-09-04T00:00	28652	15	-49.0	-84.3	9	1
2023-09-04T00:00	28682	15	-48.8	-84.1	335	1
2023-09-04T00:00	28696	15	-48.5	-85.0	326	2
2023-09-04T00:00	28733	15	-48.4	-84.9	325	3
2023-09-04T00:00	28750	15	-48.2	-84.8	326	3
2023-09-04T00:00	28781	15	-48.0	-84.6	329	4
2023-09-04T00:00	28811	15	-48.0	-84.6	333	5
2023-09-04T00:00	28833	15	-47.9	-84.6	337	5
2023-09-04T00:00	28867	15	-47.8	-84.5	340	6
2023-09-04T00:00	28898	15	-47.4	-84.2	342	7
2023-09-04T00:00	28932	15	-47.1	-84.0	343	7
2023-09-04T00:00	28965	15	-46.9	-83.9	344	8
2023-09-04T00:00	28974	15	-46.8	-83.8	346	8
2023-09-04T00:00	29001	14	-46.8	-83.8	348	8
2023-09-04T00:00	29030	14	-47.0	-83.9	351	9
2023-09-04T00:00	29050	14	-47.0	-83.9	354	9
2023-09-04T00:00	29089	14	-47.0	-83.9	358	9
2023-09-04T00:00	29121	14	-46.9	-83.9	1	9
2023-09-04T00:00	29141	14	-46.7	-83.7	3	9
2023-09-04T00:00	29157	14	-46.8	-83.8	6	8
2023-09-04T00:00	29190	14	-46.9	-83.9	8	8
2023-09-04T00:00	29216	14	-47.0	-83.9	10	7
2023-09-04T00:00	29267	14	-47.2	-84.1	14	7
2023-09-04T00:00	29288	14	-47.4	-84.2	20	7
2023-09-04T00:00	29306	14	-47.5	-84.3	28	6
2023-09-04T00:00	29317	14	-47.6	-84.3	39	6
2023-09-04T00:00	29356	14	-47.5	-84.3	51	6
2023-09-04T00:00	29386	14	-47.6	-84.3	61	6
2023-09-04T00:00	29404	14	-47.3	-84.1	68	6
2023-09-04T00:00	29420	14	-47.5	-84.3	71	6
2023-09-04T00:00	29455	14	-47.5	-84.3	69	6
2023-09-04T00:00	29495	13	-47.2	-84.1	62	6
2023-09-04T00:00	29514	13	-47.1	-84.0	53	5
2023-09-04T00:00	29552	13	-47.1	-84.0	43	6
2023-09-04T00:00	29613	13	-47.4	-84.2	30	7
2023-09-04T00:00	29619	13	-47.3	-84.1	29	7
2023-09-04T00:00	29647	13	-46.9	-83.9	29	8
2023-09-04T00:00	29671	13	-46.9	-83.9	30	9
2023-09-04T00:00	29717	13	-46.9	-83.9	30	9
2023-09-04T00:00	29754	13	-47.2	-84.1	31	10
2023-09-04T00:00	29791	13	-47.2	-84.1	30	10
2023-09-04T00:00	29802	13	-47.2	-84.1	29	10
2023-09-04T00:00	29835	13	-46.8	-83.8	27	10
2023-09-04T00:00	29860	13	-46.4	-83.5	26	9
2023-09-04T00:00	29898	13	-46.4	-83.5	25	9
2023-09-04T00:00	29916	13	-46.5	-83.6	25	9
2023-09-04T00:00	29953	13	-46.5	-83.6	25	8
2023-09-04T00:00	29990	13	-46.6	-83.6	27	8
2023-09-04T00:00	30006	12	-46.8	-83.8	29	7
2023-09-04T00:00	30047	12	-47.0	-83.9	32	7
2023-09-04T00:00	30075	12	-47.3	-84.1	36	6
2023-09-04T00:00	30083	12	-47.5	-84.3	41	5
2023-09-04T00:00	30113	12	-47.7	-84.4	48	5
2023-09-04T00:00	30153	12	-47.9	-84.6	56	4
2023-09-04T00:00	30187	12	-48.0	-84.6	66	4
2023-09-04T00:00	30199	12	-48.1	-84.7	76	4
2023-09-04T00:00	30232	12	-48.3	-84.8	87	3
2023-09-04T00:00	30247	12	-48.5	-85.0	100	3
2023-09-04T00:00	30291	12	-48.7	-85.1	115	3
2023-09-04T00:00	30352	12	-48.9	-84.2	139	4
2023-09-04T00:00	30371	12	-49.1	-84.3	147	4
2023-09-04T00:00	30389	12	-49.1	-84.3	154	4
2023-09-04T00:00	30423	12	-49.3	-84.5	160	4
2023-09-04T00:00	30454	12	-49.3	-84.5	167	4
2023-09-04T00:00	30481	12	-49.4	-84.6	175	4
2023-09-04T00:00	30498	12	-49.6	-84.7	183	4
2023-09-04T00:00	30531	12	-49.7	-84.8	190	4
2023-09-04T00:00	30540	11	-49.8	-84.8	198	4
2023-09-04T00:00	30567	11	-49.9	-84.9	204	4
2023-09-04T00:00	30591	11	-50.1	-85.1	212	4
2023-09-04T00:00	30622	11	-50.1	-85.1	219	4
2023-09-04T00:00	30652	11	-50.3	-85.2	229	4
2023-09-04T00:00	30686	11	-50.4	-85.3	241	5
2023-09-04T00:00	30693	11	-50.4	-85.3	254	5
2023-09-04T00:00	30722	11	-50.3	-85.2	264	6
2023-09-04T00:00	30759	11	-50.4	-85.3	270	7
2023-09-04T00:00	30764	11	-50.2	-86.2	275	8
2023-09-04T00:00	30795	11	-50.0	-86.0	278	8
2023-09-04T00:00	30808	11	-49.9	-86.0	280	9
2023-09-04T00:00	30861	11	-49.7	-85.8	284	9
2023-09-04T00:00	30888	11	-49.7	-85.8	288	9
2023-09-04T00:00	30922	11	-49.7	-85.8	294	9
2023-09-04T00:00	30932	11	-49.7	-85.8	299	10
2023-09-04T00:00	30956	11	-49.4	-85.6	304	10
2023-09-04T00:00	30978	11	-48.8	-85.2	309	10
2023-09-04T00:00	30995	11	-48.6	-85.0	314	10
2023-09-04T00:00	31042	11	-48.7	-85.1	320	10
2023-09-04T00:00	31069	11	-48.8	-85.2	328	10
2023-09-04T00:00	31077	11	-48.9	-85.3	337	10
2023-09-04T00:00	31121	11	-48.8	-85.2	347	10
2023-09-04T00:00	31123	11	-48.3	-84.8	355	10
2023-09-04T00:00	31168	10	-47.7	-84.4	3	11
2023-09-04T00:00	31191	10	-47.4	-84.2	9	11
2023-09-04T00:00	31218	10	-47.4	-84.2	14	11
2023-09-04T00:00	31247	10	-47.2	-84.1	20	11
2023-09-04T00:00	31281	10	-47.3	-84.1	25	11
2023-09-04T00:00	31304	10	-47.3	-84.1	30	11
2023-09-04T00:00	31338	10	-47.2	-84.1	35	11
2023-09-04T00:00	31378	10	-47.2	-84.1	39	11
2023-09-04T00:00	31397	10	-47.2	-84.1	42	11
2023-09-04T00:00	31409	10	-47.0	-83.9	46	10
2023-09-04T00:00	31438	10	-46.8	-83.8	49	10
2023-09-04T00:00	31487	10	-46.9	-83.9	52	10
2023-09-04T00:00	31506	10	-46.9	-83.9	56	9
2023-09-04T00:00	31545	10	-46.9	-83.9	59	9
2023-09-04T00:00	31559	10	-47.0	-83.9	64	8
2023-09-04T00:00	31599	10	-46.9	-83.9	68	7
2023-09-04T00:00	31613	10	-47.0	-83.9	71	7
2023-09-04T00:00	31645	10	-47.0	-83.9	74	6
2023-09-04T00:00	31685	10	-47.0	-83.9	75	6
2023-09-04T00:00	31707	10	-47.0	-83.9	75	6
2023-09-04T00:00	31761	10	-47.0	-83.9	74	6
2023-09-04T00:00	31770	10	-47.0	-83.9	72	6
2023-09-04T00:00	31811	9	-46.9	-83.9	69	5
2023-09-04T00:00	31822	9	-46.8	-83.8	64	5
2023-09-04T00:00	31871	9	-46.6	-83.6	57	4
2023-09-04T00:00	31882	9	-46.6	-83.6	48	4
2023-09-04T00:00	31922	9	-46.5	-83.6	37	4
2023-09-04T00:00	31961	9	-46.3	-83.4	28	4
2023-09-04T00:00	31972	9	-46.1	-83.3	21	4
2023-09-04T00:00	32019	9	-45.9	-83.2	17	5
2023-09-04T00:00	32045	9	-45.7	-83.0	17	5
2023-09-04T00:00	32050	9	-45.4	-82.8	18	6
2023-09-04T00:00	32110	9	-45.0	-82.5	22	7
2023-09-04T00:00	32134	9	-44.6	-82.2	25	8
2023-09-04T00:00	32161	9	-44.4	-82.1	28	9
2023-09-04T00:00	32182	9	-43.7	-81.6	31	9
2023-09-04T00:00	32213	9	-43.3	-81.3	33	10
2023-09-04T00:00	32252	9	-43.2	-81.3	35	11
2023-09-04T00:00	32267	9	-43.0	-81.1	37	11
2023-09-04T00:00	32276	9	-42.8	-81.0	40	11
2023-09-04T00:00	32307	9	-42.8	-81.0	43	11
2023-09-04T00:00	32336	9	-42.8	-81.0	46	11
2023-09-04T00:00	32375	9	-42.9	-81.1	49	11
2023-09-04T00:00	32396	9	-42.6	-80.8	50	11
2023-09-04T00:00	32426	9	-42.6	-80.8	51	10
2023-09-04T00:00	32444	9	-42.6	-80.8	51	10
2023-09-04T00:00	32483	9	-42.7	-80.9	50	10
2023-09-04T00:00	32508	9	-42.8	-81.0	49	10
2023-09-04T00:00	32540	9	-42.9	-81.1	47	9
2023-09-04T00:00	32557	9	-43.0	-81.1	44	9
2023-09-04T00:00	32567	8	-43.1	-81.2	42	9
2023-09-04T00:00	32616	8	-43.2	-81.3	39	9
2023-09-04T00:00	32620	8	-43.2	-81.3	37	8
2023-09-04T00:00	32661	8	-43.4	-81.4	35	8
2023-09-04T00:00	32699	8	-43.5	-81.5	34	8
2023-09-04T00:00	32724	8	-43.5	-81.5	33	9
2023-09-04T00:00	32760	8	-43.5	-81.5	33	9
2023-09-04T00:00	32779	8	-43.6	-81.5	32	9
2023-09-04T00:00	32800	8	-43.7	-81.6	31	9
2023-09-04T00:00	32826	8	-43.7	-81.6	30	9
2023-09-04T00:00	32842	8	-43.8	-81.7	27	10
2023-09-04T00:00	32897	8	-43.8	-81.7	24	10
2023-09-04T00:00	32903	8	-43.8	-81.7	21	10
2023-09-04T00:00	32937	8	-43.8	-81.7	18	11
2023-09-04T00:00	32977	8	-43.7	-81.6	17	11
2023-09-04T00:00	32994	8	-43.7	-81.6	18	12
2023-09-04T00:00	33019	8	-43.6	-81.5	20	12
2023-09-04T00:00	33035	8	-43.3	-81.3	22	12
2023-09-04T00:00	33064	8	-43.3	-81.3	26	12
2023-09-04T00:00	33095	8	-43.3	-81.3	30	12
2023-09-04T00:00	33125	8	-43.4	-81.4	40	12
2023-09-04T00:00	33172	8	-43.6	-81.5	45	12
2023-09-04T00:00	33221	8	-43.4	-81.4	54	12
2023-09-04T00:00	33273	8	-43.5	-81.5	58	12
2023-09-04T00:00	33278	8	-43.5	-81.5	61	12
2023-09-04T00:00	33279	8	-43.6	-81.5	64	12
2023-09-04T00:00	33333	8	-43.4	-81.4	67	12
2023-09-04T00:00	33364	8	-43.4	-81.4	69	11
2023-09-04T00:00	33407	8	-43.4	-81.4	71	11
2023-09-04T00:00	33409	7	-43.5	-81.5	73	11
2023-09-04T00:00	33443	7	-43.7	-81.6	74	11
2023-09-04T00:00	33463	7	-43.7	-81.6	76	10
2023-09-04T00:00	33493	7	-43.7	-81.6	79	9
2023-09-04T00:00	33498	7	-43.6	-81.5	81	9
2023-09-04T00:00	33546	7	-43.4	-81.4	85	8
2023-09-04T00:00	33576	7	-43.4	-81.4	89	8
2023-09-04T00:00	33621	7	-43.4	-81.4	93	7
2023-09-04T00:00	33642	7	-43.5	-81.5	98	7
2023-09-04T00:00	33685	7	-43.4	-81.4	104	8
2023-09-04T00:00	33693	7	-43.3	-81.3	105	8
2023-09-04T00:00	33726	7	-43.2	-81.3	105	8
2023-09-04T00:00	33741	7	-43.3	-81.3	104	8
2023-09-04T00:00	33761	7	-43.3	-81.3	101	8
2023-09-04T00:00	33764	7	-43.2	-81.3	98	7
2023-09-04T00:00	33826	7	-43.3	-81.3	95	7
2023-09-04T00:00	33829	7	-43.3	-81.3	91	7
2023-09-04T00:00	33855	7	-43.3	-81.3	88	7
2023-09-04T00:00	33885	7	-43.4	-81.4	86	6
2023-09-04T00:00	33921	7	-43.5	-81.5	84	6
2023-09-04T00:00	33938	7	-43.6	-81.5	82	6
2023-09-04T00:00	33953	7	-43.7	-81.6	80	5
2023-09-04T00:00	33980	7	-43.8	-81.7	76	5
2023-09-04T00:00	33994	7	-43.8	-81.7	71	4
2023-09-04T00:00	34039	7	-43.6	-81.5	64	4
2023-09-04T00:00	34045	7	-43.6	-81.5	56	4
2023-09-04T00:00	34084	7	-43.2	-81.3	47	4
2023-09-04T00:00	34124	7	-43.0	-81.1	39	4
2023-09-04T00:00	34132	7	-42.6	-80.8	34	5
2023-09-04T00:00	34158	7	-41.8	-80.3	31	5
2023-09-04T00:00	34164	7	-41.4	-80.0	32	5
2023-09-04T00:00	34230	7	-40.9	-79.7	35	6
2023-09-04T00:00	34259	7	-40.6	-79.5	35	6
2023-09-04T00:00	34298	7	-40.5	-79.4	33	6
2023-09-04T00:00	34338	7	-40.2	-79.2	29	7
2023-09-04T00:00	34348	7	-40.3	-79.2	26	7
2023-09-04T00:00	34355	6	-40.1	-79.1	25	8
2023-09-04T00:00	34413	6	-39.7	-78.8	24	9
2023-09-04T00:00	34434	6	-39.4	-78.6	23	9
2023-09-04T00:00	34458	6	-39.6	-78.8	25	9
2023-09-04T00:00	34495	6	-39.8	-78.9	27	9
2023-09-04T00:00	34540	6	-39.8	-78.9	29	9
2023-09-04T00:00	34580	6	-39.5	-78.7	33	8
2023-09-04T00:00	34586	6	-39.5	-78.7	37	8
2023-09-04T00:00	34652	6	-39.7	-78.8	42	7
2023-09-04T00:00	34678	6	-39.6	-78.8	58	6
2023-09-04T00:00	34709	6	-39.5	-78.7	68	6
2023-09-04T00:00	34775	6	-39.5	-78.7	89	5
2023-09-04T00:00	34798	6	-39.5	-78.7	98	6
2023-09-04T00:00	34811	6	-39.4	-78.6	106	5
2023-09-04T00:00	34835	6	-39.3	-78.5	115	5
2023-09-04T00:00	34853	6	-39.3	-78.5	123	5
2023-09-04T00:00	34884	6	-39.3	-78.5	131	5
2023-09-04T00:00	34926	6	-39.4	-78.6	144	5
2023-09-04T00:00	34976	6	-39.7	-78.8	152	4
2023-09-04T00:00	35015	6	-39.7	-78.8	155	4
2023-09-04T00:00	35034	6	-39.5	-78.7	158	5
2023-09-04T00:00	35044	6	-39.3	-78.5	161	5
2023-09-04T00:00	35078	6	-39.3	-78.5	165	5
2023-09-04T00:00	35112	6	-39.3	-78.5	167	5
2023-09-04T00:00	35116	6	-39.3	-78.5	174	4
2023-09-04T00:00	35160	6	-39.4	-78.6	177	4
2023-09-04T00:00	35190	6	-39.5	-78.7	180	3
2023-09-04T00:00	35204	6	-39.7	-78.8	185	2
2023-09-04T00:00	35253	6	-39.5	-78.7	230	1
2023-09-04T00:00	35282	6	-39.4	-78.6	328	1
2023-09-04T00:00	35318	6	-39.4	-78.6	356	3
2023-09-04T00:00	35337	6	-39.3	-78.5	360	4
2023-09-04T00:00	35359	6	-39.3	-78.5	2	5
2023-09-04T00:00	35361	6	-39.4	-78.6	4	6
2023-09-04T00:00	35414	6	-39.2	-78.5	5	7
2023-09-04T00:00	35441	6	-39.1	-78.4	10	10
2023-09-04T00:00	35471	6	-39.0	-78.3	12	10
2023-09-04T00:00	35500	6	-38.9	-78.3	14	11
2023-09-04T00:00	35533	5	-38.6	-78.1	16	11
2023-09-04T00:00	35564	5	-38.3	-77.9	18	11
2023-09-04T00:00	35644	5	-37.8	-77.5	23	11
2023-09-04T00:00	35694	5	-37.8	-77.5	27	9
2023-09-04T00:00	35726	5	-37.7	-77.4	31	9
2023-09-04T00:00	35749	5	-37.8	-77.5	33	9
2023-09-04T00:00	35782	5	-37.9	-77.6	35	9
2023-09-04T00:00	35798	5	-38.1	-77.7	38	8
2023-09-04T00:00	35805	5	-38.1	-77.7	39	6
2023-09-04T00:00	35885	5	-38.2	-77.8	38	6
2023-09-04T00:00	35900	5	-38.2	-77.8	34	5
2023-09-04T00:00	35938	5	-38.3	-77.9	29	5
2023-09-04T00:00	35956	5	-38.5	-78.0	15	4
2023-09-04T00:00	35981	5	-38.7	-78.1	9	4
2023-09-04T00:00	35992	5	-38.7	-78.1	6	5
2023-09-04T00:00	36022	5	-38.9	-78.3	4	5
2023-09-04T00:00	36076	5	-38.8	-78.2	5	5
2023-09-04T00:00	36085	5	-38.7	-78.1	10	6
2023-09-04T00:00	36130	5	-38.8	-78.2	13	6
2023-09-04T00:00	36142	5	-39.0	-78.3	17	6
2023-09-04T00:00	36156	5	-38.9	-78.3	17	7
2023-09-04T00:00	36199	5	-38.9	-78.3	16	7
2023-09-04T00:00	36220	5	-38.9	-78.3	13	7
2023-09-04T00:00	36237	5	-39.0	-78.3	9	7
2023-09-04T00:00	36253	5	-39.2	-78.5	7	7
2023-09-04T00:00	36256	5	-39.3	-78.5	5	7
2023-09-04T00:00	36306	5	-39.4	-78.6	5	7
2023-09-04T00:00	36336	5	-39.5	-78.7	6	7
2023-09-04T00:00	36367	5	-39.5	-78.7	8	7
2023-09-04T00:00	36391	5	-39.8	-78.9	14	8
2023-09-04T00:00	36407	5	-39.7	-78.8	17	8
2023-09-04T00:00	36434	5	-39.8	-78.9	17	8
2023-09-04T00:00	36463	5	-39.8	-78.9	15	8
2023-09-04T00:00	36499	5	-39.8	-78.9	14	7
2023-09-04T00:00	36560	5	-39.8	-78.9	14	6
2023-09-04T00:00	36568	5	-39.8	-78.9	17	5
2023-09-04T00:00	36574	5	-39.8	-78.9	17	4
2023-09-04T00:00	36608	5	-39.7	-78.8	14	3
2023-09-04T00:00	36658	5	-39.2	-78.5	6	3
2023-09-04T00:00	36709	5	-38.8	-78.2	325	2
2023-09-04T00:00	36727	5	-37.8	-77.5	282	2
2023-09-04T06:00	112	1016	12.0	11.2	310	2
2023-09-04T06:00	136	1013	13.1	11.6	323	2
2023-09-04T06:00	164	1010	14.2	11.0	325	3
2023-09-04T06:00	191	1007	15.6	11.2	328	3
2023-09-04T06:00	218	1003	16.0	11.3	330	3
2023-09-04T06:00	240	1001	16.2	10.8	331	3
2023-09-04T06:00	265	998	16.3	10.9	332	3
2023-09-04T06:00	290	995	16.2	10.8	333	2
2023-09-04T06:00	316	992	16.2	11.0	332	2
2023-09-04T06:00	339	989	16.0	10.7	331	2
2023-09-04T06:00	365	986	15.9	10.7	330	3
2023-09-04T06:00	390	983	15.7	10.8	331	3
2023-09-04T06:00	415	980	15.5	11.0	333	3
2023-09-04T06:00	443	977	15.3	11.0	334	3
2023-09-04T06:00	468	974	15.1	11.1	334	3
2023-09-04T06:00	494	971	14.9	11.0	333	3
2023-09-04T06:00	519	968	14.6	11.0	333	3
2023-09-04T06:00	546	965	14.5	10.9	333	4
2023-09-04T06:00	571	963	14.2	10.9	333	4
2023-09-04T06:00	595	960	14.0	10.6	334	4
2023-09-04T06:00	621	957	13.8	10.6	334	4
2023-09-04T06:00	647	954	13.6	10.5	334	4
2023-09-04T06:00	673	951	13.4	10.5	332	4
2023-09-04T06:00	701	948	13.1	10.3	330	4
2023-09-04T06:00	728	945	12.9	10.1	328	4
2023-09-04T06:00	751	942	12.7	10.1	327	4
2023-09-04T06:00	778	939	12.5	10.0	326	4
2023-09-04T06:00	801	936	12.3	10.0	326	5
2023-09-04T06:00	831	933	12.1	9.7	327	5
2023-09-04T06:00	861	930	11.9	9.5	328	5
2023-09-04T06:00	887	927	11.6	9.2	330	5
2023-09-04T06:00	915	924	11.5	8.9	331	5
2023-09-04T06:00	944	921	11.3	8.8	333	5
2023-09-04T06:00	974	917	11.0	8.7	334	6
2023-09-04T06:00	1000	914	10.9	8.7	335	6
2023-09-04T06:00	1029	911	10.6	8.5	336	6
2023-09-04T06:00	1057	908	10.4	8.4	337	6
2023-09-04T06:00	1085	905	10.2	8.4	338	5
2023-09-04T06:00	1111	902	10.0	8.1	338	5
2023-09-04T06:00	1138	899	9.8	8.0	339	5
2023-09-04T06:00	1170	896	9.6	8.0	338	5
2023-09-04T06:00	1199	893	9.4	7.8	338	5
2023-09-04T06:00	1226	890	9.3	7.7	338	5
2023-09-04T06:00	1256	887	9.2	7.5	339	5
2023-09-04T06:00	1285	884	9.0	7.1	340	5
2023-09-04T06:00	1315	881	8.9	7.0	341	6
2023-09-04T06:00	1342	878	8.7	6.9	341	6
2023-09-04T06:00	1371	875	8.6	7.1	342	7
2023-09-04T06:00	1399	872	8.4	7.0	343	7
2023-09-04T06:00	1429	869	8.5	6.4	344	7
2023-09-04T06:00	1457	866	9.3	2.3	346	8
2023-09-04T06:00	1486	863	9.4	0.5	348	8
2023-09-04T06:00	1512	860	9.8	-2.5	350	9
2023-09-04T06:00	1543	857	10.4	-11.6	350	9
2023-09-04T06:00	1567	854	11.3	-21.6	351	9
2023-09-04T06:00	1597	851	11.6	-12.7	351	9
2023-09-04T06:00	1623	849	11.1	2.0	352	9
2023-09-04T06:00	1648	846	10.9	2.0	354	9
2023-09-04T06:00	1679	843	11.4	-4.7	356	9
2023-09-04T06:00	1706	840	10.8	2.8	359	9
2023-09-04T06:00	1732	838	10.5	4.3	1	9
2023-09-04T06:00	1756	835	10.2	5.2	2	9
2023-09-04T06:00	1781	833	9.9	7.3	4	8
2023-09-04T06:00	1810	830	9.6		6	8
2023-09-04T06:00	1839	827	9.5	8.6	8	8
2023-09-04T06:00	1867	824	9.3	8.4	11	8
2023-09-04T06:00	1889	822	9.2	8.5	13	9
2023-09-04T06:00	1913	819	9.1	8.3	13	9
2023-09-04T06:00	1938	817	9.3	8.5	13	10
2023-09-04T06:00	1959	815	9.4	8.6	13	11
2023-09-04T06:00	1982	813	9.7	8.9	14	11
2023-09-04T06:00	2010	810	9.9	9.0	14	11
2023-09-04T06:00	2038	807	9.8	8.7	15	12
2023-09-04T06:00	2065	805	9.7	8.6	16	12
2023-09-04T06:00	2092	802	9.5	8.7	15	12
2023-09-04T06:00	2120	799	9.7	8.2	14	12
2023-09-04T06:00	2151	797	9.7	8.0	13	12
2023-09-04T06:00	2178	794	9.7	7.8	11	12
2023-09-04T06:00	2206	791	9.7	7.6	10	12
2023-09-04T06:00	2234	788	9.6	7.4	8	12
2023-09-04T06:00	2259	786	9.6	7.1	7	13
2023-09-04T06:00	2287	783	9.4	7.0	7	13
2023-09-04T06:00	2316	781	9.2	6.8	6	14
2023-09-04T06:00	2344	778	9.0	6.2	6	14
2023-09-04T06:00	2374	775	9.1	5.6	5	14
2023-09-04T06:00	2402	773	9.0	5.5	4	14
2023-09-04T06:00	2431	770	8.9	5.4	4	13
2023-09-04T06:00	2460	767	8.7	5.2	3	13
2023-09-04T06:00	2485	765	8.6	4.8	1	13
2023-09-04T06:00	2516	762	8.5	4.0	360	13
2023-09-04T06:00	2547	759	8.3	3.9	358	13
2023-09-04T06:00	2575	757	8.2	3.4	357	13
2023-09-04T06:00	2599	754	8.3	2.2	356	13
2023-09-04T06:00	2630	752	8.3	1.6	355	13
2023-09-04T06:00	2656	749	8.1	1.4	355	13
2023-09-04T06:00	2685	747	8.0	0.3	356	12
2023-09-04T06:00	2713	744	8.0	-0.1	358	13
2023-09-04T06:00	2743	741	7.7	0.3	0	13
2023-09-04T06:00	2775	739	7.5	0.3	2	13
2023-09-04T06:00	2801	736	7.3	0.4	4	14
2023-09-04T06:00	2831	734	7.0	0.3	5	14
2023-09-04T06:00	2855	731	6.9	0.2	5	14
2023-09-04T06:00	2884	729	6.7	-0.1	5	15
2023-09-04T06:00	2915	726	6.7	-1.5	4	15
2023-09-04T06:00	2944	724	6.5	-1.8	3	15
2023-09-04T06:00	2971	721	6.3	-2.2	2	16
2023-09-04T06:00	3002	718	6.1	-2.5	2	16
2023-09-04T06:00	3032	716	6.0	-2.6	2	17
2023-09-04T06:00	3062	713	5.8	-1.9	3	17
2023-09-04T06:00	3090	711	5.6	-1.5	4	17
2023-09-04T06:00	3118	708	5.5	-1.5	5	17
2023-09-04T06:00	3145	706	5.4	-1.5	5	17
2023-09-04T06:00	3176	703	5.4	-3.4	5	17
2023-09-04T06:00	3203	701	5.1	-2.1	4	17
2023-09-04T06:00	3230	699	5.0	-2.7	4	16
2023-09-04T06:00	3255	697	5.0	-3.5	3	16
2023-09-04T06:00	3282	694	5.0	-5.2	2	16
2023-09-04T06:00	3306	692	5.0	-7.9	1	16
2023-09-04T06:00	3331	690	5.0	-9.1	1	16
2023-09-04T06:00	3357	688	4.9	-9.2	2	16
2023-09-04T06:00	3388	685	4.8	-9.9	3	16
2023-09-04T06:00	3412	683	4.7	-9.6	4	15
2023-09-04T06:00	3438	681	4.6	-9.2	5	15
2023-09-04T06:00	3467	679	4.4	-8.9	6	15
2023-09-04T06:00	3496	676	4.2	-8.2	6	15
2023-09-04T06:00	3525	674	4.2	-9.6	5	16
2023-09-04T06:00	3558	671	4.1	-7.3	5	16
2023-09-04T06:00	3584	669	4.0	-7.3	4	16
2023-09-04T06:00	3608	667	4.0	-9.1	3	16
2023-09-04T06:00	3639	665	3.9	-9.0	3	17
2023-09-04T06:00	3668	662	3.8	-8.7	3	17
2023-09-04T06:00	3697	660	3.5	-7.2	4	17
2023-09-04T06:00	3726	657	3.3	-8.3	4	17
2023-09-04T06:00	3756	655	3.1	-8.6	4	17
2023-09-04T06:00	3777	653	2.9	-8.4	4	17
2023-09-04T06:00	3812	651	2.7	-8.5	5	17
2023-09-04T06:00	3837	649	2.5	-7.7	6	17
2023-09-04T06:00	3860	647	2.4	-8.7	6	17
2023-09-04T06:00	3887	645	2.2	-10.1	7	17
2023-09-04T06:00	3911	642	2.0	-10.2	8	17
2023-09-04T06:00	3940	640	1.7	-7.8	8	17
2023-09-04T06:00	3967	638	1.5	-6.8	8	18
2023-09-04T06:00	3996	636	1.2	-5.9	8	18
2023-09-04T06:00	4024	634	0.9	-4.6	9	18
2023-09-04T06:00	4051	631	0.7	-4.1	9	18
2023-09-04T06:00	4078	629	0.4	-4.2	10	19
2023-09-04T06:00	4108	627	0.2	-4.1	10	19
2023-09-04T06:00	4134	625	0.1	-4.0	10	19
2023-09-04T06:00	4164	623	-0.2	-3.8	10	19
2023-09-04T06:00	4193	620	-0.2	-3.6	9	20
2023-09-04T06:00	4225	618	-0.4	-3.2	9	20
2023-09-04T06:00	4256	616	-0.6	-3.2	8	21
2023-09-04T06:00	4290	613	-0.8	-3.1	8	21
2023-09-04T06:00	4318	611	-1.0	-3.6	8	22
2023-09-04T06:00	4350	608	-1.2	-4.0	9	22
2023-09-04T06:00	4381	606	-1.3	-4.4	9	22
2023-09-04T06:00	4410	604	-1.4	-5.0	9	21
2023-09-04T06:00	4443	601	-1.4	-5.6	8	21
2023-09-04T06:00	4475	599	-1.6	-6.8	7	20
2023-09-04T06:00	4504	597	-1.7	-7.1	6	20
2023-09-04T06:00	4534	595	-2.0	-7.4	6	20
2023-09-04T06:00	4560	592	-2.1	-8.2	5	20
2023-09-04T06:00	4591	590	-2.4	-7.9	5	20
2023-09-04T06:00	4614	588	-2.6	-7.4	5	20
2023-09-04T06:00	4646	586	-2.8	-7.6	5	20
2023-09-04T06:00	4671	584	-3.0	-7.4	4	20
2023-09-04T06:00	4699	582	-3.2	-7.5	3	20
2023-09-04T06:00	4729	580	-3.3	-7.4	3	20
2023-09-04T06:00	4759	578	-3.5	-8.3	2	20
2023-09-04T06:00	4789	576	-3.7	-7.9	1	20
2023-09-04T06:00	4818	574	-3.9	-8.5	0	20
2023-09-04T06:00	4846	572	-4.0	-10.9	359	20
2023-09-04T06:00	4874	569	-3.9	-10.8	358	20
2023-09-04T06:00	4903	567	-4.1	-8.8	357	20
2023-09-04T06:00	4932	565	-3.8	-13.1	356	21
2023-09-04T06:00	4962	563	-3.6	-17.5	356	21
2023-09-04T06:00	4991	561	-3.7	-11.1	355	21
2023-09-04T06:00	5021	559	-3.8	-12.5	355	21
2023-09-04T06:00	5052	557	-4.0	-13.0	355	21
2023-09-04T06:00	5083	555	-4.3	-13.3	354	21
2023-09-04T06:00	5113	552	-4.6	-14.4	354	21
2023-09-04T06:00	5144	550	-4.8	-14.6	354	21
2023-09-04T06:00	5175	548	-5.0	-14.2	353	21
2023-09-04T06:00	5204	546	-5.3	-12.2	353	21
2023-09-04T06:00	5231	544	-5.4	-13.8	354	21
2023-09-04T06:00	5257	542	-5.3	-15.1	354	20
2023-09-04T06:00	5285	541	-5.2	-16.2	355	20
2023-09-04T06:00	5310	539	-4.7	-22.6	356	20
2023-09-04T06:00	5334	537	-3.9	-32.4	357	20
2023-09-04T06:00	5360	535	-4.0	-27.9	358	20
2023-09-04T06:00	5391	533	-4.3	-25.7	358	20
2023-09-04T06:00	5420	531	-4.6	-24.3	358	20
2023-09-04T06:00	5451	529	-4.8	-22.1	358	20
2023-09-04T06:00	5479	527	-5.0	-20.9	357	21
2023-09-04T06:00	5508	525	-5.2	-21.1	357	21
2023-09-04T06:00	5538	523	-5.3	-22.1	358	22
2023-09-04T06:00	5569	521	-5.4		358	22
2023-09-04T06:00	5599	519	-5.6	-25.2	359	22
2023-09-04T06:00	5631	517	-5.9	-21.3	0	22
2023-09-04T06:00	5658	515	-6.1	-22.5	2	23
2023-09-04T06:00	5687	514	-6.2	-22.5	2	23
2023-09-04T06:00	5716	512	-6.5	-22.0	3	23
2023-09-04T06:00	5744	510	-6.7	-21.8	3	23
2023-09-04T06:00	5773	508	-7.0	-22.2	3	23
2023-09-04T06:00	5802	506	-7.2	-22.3	2	24
2023-09-04T06:00	5831	504	-7.4	-22.3	2	24
2023-09-04T06:00	5863	502	-7.7	-23.9	1	24
2023-09-04T06:00	5893	500	-7.9	-23.1	1	24
2023-09-04T06:00	5922	498	-8.2	-22.5	1	24
2023-09-04T06:00	5949	496	-8.4	-23.8	1	24
2023-09-04T06:00	5985	494	-8.6	-22.7	0	25
2023-09-04T06:00	6013	492	-8.9	-23.4	360	25
2023-09-04T06:00	6045	490	-9.2	-21.8	359	25
2023-09-04T06:00	6076	489	-9.4	-22.1	359	26
2023-09-04T06:00	6104	487	-9.6	-23.1	359	26
2023-09-04T06:00	6130	485	-9.8	-22.2	358	26
2023-09-04T06:00	6159	483	-10.1	-22.2	357	26
2023-09-04T06:00	6193	481	-10.4	-22.5	356	25
2023-09-04T06:00	6228	479	-10.7	-23.1	355	25
2023-09-04T06:00	6254	477	-10.8	-23.3	354	25
2023-09-04T06:00	6279	476	-10.9	-23.5	354	25
2023-09-04T06:00	6307	474	-11.0	-23.9	353	25
2023-09-04T06:00	6339	472	-11.1	-24.4	354	25
2023-09-04T06:00	6366	470	-11.3	-23.8	355	24
2023-09-04T06:00	6396	469	-11.5	-23.7	356	24
2023-09-04T06:00	6426	467	-11.7	-23.8	358	24
2023-09-04T06:00	6455	465	-11.9	-23.9	359	24
2023-09-04T06:00	6483	463	-12.2	-23.9	359	24
2023-09-04T06:00	6516	461	-12.5	-23.9	360	24
2023-09-04T06:00	6551	459	-12.8	-23.9	360	25
2023-09-04T06:00	6574	458	-12.9	-23.9	360	25
2023-09-04T06:00	6602	456	-13.0	-24.5	360	25
2023-09-04T06:00	6625	455	-13.1	-25.0	0	25
2023-09-04T06:00	6650	453	-13.3	-25.2	0	26
2023-09-04T06:00	6677	452	-13.5	-25.3	0	26
2023-09-04T06:00	6706	450	-13.7	-25.7	0	26
2023-09-04T06:00	6731	448	-13.8	-27.1	0	26
2023-09-04T06:00	6759	447	-13.9	-26.5	360	26
2023-09-04T06:00	6788	445	-14.1	-25.3	360	26
2023-09-04T06:00	6809	444	-14.3	-25.4	360	26
2023-09-04T06:00	6839	442	-14.5	-25.7	0	26
2023-09-04T06:00	6869	440	-14.7	-25.9	0	26
2023-09-04T06:00	6893	439	-14.8	-26.3	0	26
2023-09-04T06:00	6919	437	-14.9	-26.6	0	26
2023-09-04T06:00	6949	436	-15.1	-26.5	0	25
2023-09-04T06:00	6975	434	-15.3	-26.5	0	25
2023-09-04T06:00	7008	432	-15.5	-26.9	1	25
2023-09-04T06:00	7037	431	-15.7	-26.1	1	25
2023-09-04T06:00	7066	429	-15.9		2	25
2023-09-04T06:00	7094	427	-16.1	-21.3	3	25
2023-09-04T06:00	7125	426	-16.2	-18.4	3	25
2023-09-04T06:00	7158	424	-16.1	-19.9	3	25
2023-09-04T06:00	7187	422	-16.1	-20.1	3	25
2023-09-04T06:00	7217	421	-16.3	-20.7	3	24
2023-09-04T06:00	7243	419	-16.3	-21.8	3	24
2023-09-04T06:00	7268	418	-16.4	-22.3	2	24
2023-09-04T06:00	7293	416	-16.5	-22.0	2	24
2023-09-04T06:00	7327	414	-16.7	-22.7	1	24
2023-09-04T06:00	7356	413	-16.6	-23.8	1	24
2023-09-04T06:00	7390	411	-16.8	-24.1	0	24
2023-09-04T06:00	7425	409	-17.1	-24.3	0	24
2023-09-04T06:00	7458	407	-17.5	-24.5	1	24
2023-09-04T06:00	7487	406	-17.7	-24.7	1	24
2023-09-04T06:00	7512	404	-17.9	-24.9	2	24
2023-09-04T06:00	7537	403	-18.2	-24.9	3	24
2023-09-04T06:00	7571	401	-18.5	-25.1	4	24
2023-09-04T06:00	7602	399	-18.8	-25.4	5	24
2023-09-04T06:00	7632	398	-18.9	-26.0	7	24
2023-09-04T06:00	7666	396	-19.0	-25.9	8	24
2023-09-04T06:00	7697	394	-19.3	-26.9	9	24
2023-09-04T06:00	7732	393	-19.2	-28.1	10	23
2023-09-04T06:00	7765	391	-19.3	-28.3	11	23
2023-09-04T06:00	7797	389	-19.5	-27.7	11	23
2023-09-04T06:00	7829	387	-19.7	-28.4	11	23
2023-09-04T06:00	7862	386	-19.9	-28.3	11	22
2023-09-04T06:00	7895	384	-20.2	-28.3	11	22
2023-09-04T06:00	7926	382	-20.5	-28.4	11	22
2023-09-04T06:00	7948	381	-20.6	-28.3	10	22
2023-09-04T06:00	7978	380	-20.8	-29.1	10	22
2023-09-04T06:00	8013	378	-21.1	-29.4	9	22
2023-09-04T06:00	8039	376	-21.3	-29.1	8	22
2023-09-04T06:00	8076	375	-21.7	-29.5	8	22
2023-09-04T06:00	8108	373	-21.9	-29.4	7	21
2023-09-04T06:00	8136	372	-22.1	-29.9	7	21
2023-09-04T06:00	8171	370	-22.5	-29.2	7	21
2023-09-04T06:00	8202	368	-22.8	-29.1	7	21
2023-09-04T06:00	8226	367	-23.0	-29.6	7	21
2023-09-04T06:00	8255	366	-23.2	-29.7	6	20
2023-09-04T06:00	8288	364	-23.5	-29.7	5	20
2023-09-04T06:00	8317	363	-23.8	-29.6	4	21
2023-09-04T06:00	8341	361	-24.0	-29.4	2	21
2023-09-04T06:00	8366	360	-24.2	-29.6	1	20
2023-09-04T06:00	8403	358	-24.3	-30.2	1	20
2023-09-04T06:00	8435	357	-24.5	-30.6	1	20
2023-09-04T06:00	8469	355	-24.7	-31.1	2	20
2023-09-04T06:00	8502	354	-24.9	-31.7	3	20
2023-09-04T06:00	8528	352	-25.1	-31.9	3	19
2023-09-04T06:00	8552	351	-25.3	-32.1	3	19
2023-09-04T06:00	8581	350	-25.6	-32.5	2	19
2023-09-04T06:00	8607	348	-25.8	-32.6	2	19
2023-09-04T06:00	8631	347	-26.0	-32.7	1	20
2023-09-04T06:00	8659	346	-26.3	-33.0	0	20
2023-09-04T06:00	8684	345	-26.5	-33.1	360	20
2023-09-04T06:00	8705	344	-26.6	-33.2	360	21
2023-09-04T06:00	8734	342	-26.8	-33.2	0	21
2023-09-04T06:00	8761	341	-27.0	-33.3	1	22
2023-09-04T06:00	8795	340	-27.3	-34.1	1	22
2023-09-04T06:00	8820	338	-27.5	-34.7	2	23
2023-09-04T06:00	8844	337	-27.7	-35.0	2	23
2023-09-04T06:00	8872	336	-27.9	-35.1	3	24
2023-09-04T06:00	8906	334	-28.2	-35.6	3	24
2023-09-04T06:00	8934	333	-28.4	-36.4	4	24
2023-09-04T06:00	8961	332	-28.6	-35.9	4	24
2023-09-04T06:00	8997	330	-28.9		5	24
2023-09-04T06:00	9030	329	-29.1	-35.6	6	24
2023-09-04T06:00	9067	327	-29.3	-35.6	6	25
2023-09-04T06:00	9088	326	-29.5	-35.7	7	25
2023-09-04T06:00	9116	325	-29.8	-36.0	8	25
2023-09-04T06:00	9144	323	-30.0	-37.1	8	26
2023-09-04T06:00	9175	322	-30.1	-39.2	9	26
2023-09-04T06:00	9200	321	-30.2	-39.6	9	26
2023-09-04T06:00	9226	320	-30.3	-41.2	9	26
2023-09-04T06:00	9252	318	-30.5	-39.3	9	27
2023-09-04T06:00	9278	317	-30.7	-39.0	9	27
2023-09-04T06:00	9304	316	-30.9	-38.9	10	27
2023-09-04T06:00	9330	315	-31.2	-38.9	10	28
2023-09-04T06:00	9356	314	-31.4	-38.8	10	28
2023-09-04T06:00	9385	313	-31.6	-38.9	11	28
2023-09-04T06:00	9410	311	-31.7	-38.9	11	29
2023-09-04T06:00	9435	310	-32.0	-38.9	11	29
2023-09-04T06:00	9462	309	-32.2	-39.0	11	29
2023-09-04T06:00	9486	308	-32.4	-39.2	11	29
2023-09-04T06:00	9513	307	-32.6	-39.5	11	30
2023-09-04T06:00	9544	306	-32.9	-40.2	11	30
2023-09-04T06:00	9572	304	-33.1	-40.5	11	30
2023-09-04T06:00	9601	303	-33.3	-40.7	12	30
2023-09-04T06:00	9631	302	-33.6	-40.8	12	31
2023-09-04T06:00	9661	301	-33.8	-40.9	12	31
2023-09-04T06:00	9689	299	-34.1	-41.3	12	31
2023-09-04T06:00	9714	298	-34.3	-41.5	11	32
2023-09-04T06:00	9739	297	-34.5	-41.9	11	32
2023-09-04T06:00	9763	296	-34.7	-42.2	11	32
2023-09-04T06:00	9793	295	-34.9	-42.5	12	32
2023-09-04T06:00	9820	294	-35.1	-42.9	12	32
2023-09-04T06:00	9847	293	-35.1	-43.2	13	32
2023-09-04T06:00	9876	291	-35.4	-43.5	13	32
2023-09-04T06:00	9904	290	-35.5	-43.9	13	32
2023-09-04T06:00	9929	289	-35.7	-43.8	13	32
2023-09-04T06:00	9959	288	-36.0	-43.9	13	32
2023-09-04T06:00	9987	287	-36.2	-44.3	13	32
2023-09-04T06:00	10014	286	-36.4	-44.1	13	31
2023-09-04T06:00	10051	284	-36.8	-44.2	13	31
2023-09-04T06:00	10080	283	-37.1		13	31
2023-09-04T06:00	10107	282	-37.3	-44.6	13	31
2023-09-04T06:00	10135	281	-37.6	-44.7	13	32
2023-09-04T06:00	10161	280	-37.8	-44.8	13	32
2023-09-04T06:00	10195	278	-38.2	-45.2	12	32
2023-09-04T06:00	10222	277	-38.4	-45.3	12	32
2023-09-04T06:00	10249	276	-38.7		12	32
2023-09-04T06:00	10273	275	-38.9	-45.7	12	32
2023-09-04T06:00	10297	274	-39.1	-46.7	11	32
2023-09-04T06:00	10322	273	-39.3	-48.4	11	33
2023-09-04T06:00	10347	272	-39.5	-48.2	11	33
2023-09-04T06:00	10371	271	-39.7	-47.6	11	33
2023-09-04T06:00	10397	270	-39.9	-46.5	11	34
2023-09-04T06:00	10423	269	-40.1	-45.3	11	34
2023-09-04T06:00	10448	268	-40.3	-45.5	11	34
2023-09-04T06:00	10472	267	-40.3	-47.7	11	35
2023-09-04T06:00	10499	266	-40.3	-49.5	12	35
2023-09-04T06:00	10520	265	-40.3	-50.9	12	35
2023-09-04T06:00	10545	264	-40.3	-52.0	12	35
2023-09-04T06:00	10568	263	-40.4	-52.0	13	35
2023-09-04T06:00	10593	263	-40.5	-51.7	13	36
2023-09-04T06:00	10619	262	-40.7	-50.8	13	36
2023-09-04T06:00	10645	261	-41.0	-50.8	13	36
2023-09-04T06:00	10673	260	-41.2	-51.1	13	36
2023-09-04T06:00	10697	259	-41.5	-51.4	13	36
2023-09-04T06:00	10724	258	-41.7	-51.2	13	37
2023-09-04T06:00	10750	257	-42.0	-51.1	13	37
2023-09-04T06:00	10775	256	-42.2	-51.0	14	37
2023-09-04T06:00	10799	255	-42.5	-51.1	14	36
2023-09-04T06:00	10827	254	-42.7	-51.0	14	36
2023-09-04T06:00	10855	253	-43.0	-51.0	14	36
2023-09-04T06:00	10881	252	-43.2	-51.0	15	36
2023-09-04T06:00	10905	251	-43.5	-51.1	15	36
2023-09-04T06:00	10929	250	-43.7	-51.4	15	36
2023-09-04T06:00	10956	249	-43.9	-51.9	15	36
2023-09-04T06:00	10980	248	-44.0	-52.9	15	36
2023-09-04T06:00	11007	247	-44.2	-53.2	15	36
2023-09-04T06:00	11029	246	-44.4	-53.3	14	36
2023-09-04T06:00	11054	245	-44.6	-53.9	14	36
2023-09-04T06:00	11077	244	-44.8	-54.5	14	36
2023-09-04T06:00	11099	244	-44.9	-54.4	14	36
2023-09-04T06:00	11123	243	-45.1	-54.5	15	36
2023-09-04T06:00	11148	242	-45.3	-55.0	15	37
2023-09-04T06:00	11172	241	-45.4	-55.7	16	37
2023-09-04T06:00	11196	240	-45.5	-56.1	16	37
2023-09-04T06:00	11221	239	-45.6	-56.4	16	37
2023-09-04T06:00	11243	238	-45.7	-56.4	16	37
2023-09-04T06:00	11270	237	-45.9	-56.1	16	37
2023-09-04T06:00	11294	237	-46.1	-56.0	16	37
2023-09-04T06:00	11319	236	-46.4	-56.1	16	37
2023-09-04T06:00	11343	235	-46.6	-56.3	15	37
2023-09-04T06:00	11368	234	-46.7	-56.8	15	36
2023-09-04T06:00	11392	233	-46.8	-58.0	14	36
2023-09-04T06:00	11419	232	-46.9	-59.2	13	35
2023-09-04T06:00	11447	231	-47.1	-60.0	12	35
2023-09-04T06:00	11475	230	-47.3	-60.4	11	35
2023-09-04T06:00	11507	229	-47.3	-61.1	10	35
2023-09-04T06:00	11536	228	-47.3	-61.4	10	35
2023-09-04T06:00	11564	227	-47.5	-61.3	9	35
2023-09-04T06:00	11589	226	-47.7	-61.5	8	35
2023-09-04T06:00	11615	225	-47.9	-62.1	8	35
2023-09-04T06:00	11638	225	-48.0	-62.5	7	35
2023-09-04T06:00	11665	224	-48.2	-62.8	7	35
2023-09-04T06:00	11693	223	-48.4	-62.9	7	35
2023-09-04T06:00	11723	222	-48.6	-63.0	7	35
2023-09-04T06:00	11750	221	-48.9	-63.1	7	35
2023-09-04T06:00	11778	220	-49.1	-63.3	7	35
2023-09-04T06:00	11801	219	-49.2	-63.5	7	36
2023-09-04T06:00	11826	218	-49.4	-63.9	7	37
2023-09-04T06:00	11852	217	-49.6	-64.2	7	37
2023-09-04T06:00	11877	217	-49.8	-64.4	8	37
2023-09-04T06:00	11901	216	-50.0	-64.6	8	37
2023-09-04T06:00	11923	215	-50.2	-64.6	8	37
2023-09-04T06:00	11946	214	-50.4	-64.7	8	37
2023-09-04T06:00	11971	213	-50.6	-64.8	8	37
2023-09-04T06:00	11995	213	-50.8	-65.0	8	37
2023-09-04T06:00	12021	212	-51.0	-65.4	9	38
2023-09-04T06:00	12051	211	-51.2	-65.9	9	38
2023-09-04T06:00	12080	210	-51.4	-66.5	10	38
2023-09-04T06:00	12111	209	-51.6	-66.8	10	38
2023-09-04T06:00	12141	208	-51.7	-67.1	11	37
2023-09-04T06:00	12166	207	-51.8	-67.5	11	37
2023-09-04T06:00	12193	206	-51.9	-67.8	11	36
2023-09-04T06:00	12216	206	-51.9	-68.0	10	35
2023-09-04T06:00	12239	205	-51.8	-68.3	9	34
2023-09-04T06:00	12263	204	-51.8	-68.7	9	33
2023-09-04T06:00	12285	203	-51.7		8	32
2023-09-04T06:00	12309	203	-51.8	-69.1	7	32
2023-09-04T06:00	12330	202	-51.8	-69.3	6	31
2023-09-04T06:00	12355	201	-51.9	-69.5	5	30
2023-09-04T06:00	12379	200	-52.0	-69.7	4	30
2023-09-04T06:00	12402	200	-52.2	-70.0	3	29
2023-09-04T06:00	12425	199	-52.3	-70.1	2	29
2023-09-04T06:00	12452	198	-52.4	-70.4	1	29
2023-09-04T06:00	12476	197	-52.5	-70.5	1	28
2023-09-04T06:00	12498	197	-52.6	-70.7	1	29
2023-09-04T06:00	12522	196	-52.8	-70.9	1	29
2023-09-04T06:00	12543	195	-53.0	-71.0	1	29
2023-09-04T06:00	12568	195	-53.2	-71.2	1	30
2023-09-04T06:00	12589	194	-53.3	-71.2	1	30
2023-09-04T06:00	12613	193	-53.5	-71.4	1	30
2023-09-04T06:00	12638	193	-53.7	-71.5	1	31
2023-09-04T06:00	12663	192	-53.9	-71.6	2	31
2023-09-04T06:00	12686	191	-54.1	-71.7	2	31
2023-09-04T06:00	12709	190	-54.3	-71.9	3	32
2023-09-04T06:00	12731	190	-54.4	-72.0	4	32
2023-09-04T06:00	12756	189	-54.6	-72.2	4	33
2023-09-04T06:00	12781	188	-54.7	-72.4	4	33
2023-09-04T06:00	12802	188	-54.8	-72.5	5	33
2023-09-04T06:00	12828	187	-54.9	-72.6	5	33
2023-09-04T06:00	12848	186	-55.1	-72.7	5	33
2023-09-04T06:00	12870	186	-55.2	-72.7	5	33
2023-09-04T06:00	12892	185	-55.4	-72.8	6	33
2023-09-04T06:00	12914	184	-55.5	-72.8	6	32
2023-09-04T06:00	12939	184	-55.5	-72.8	6	32
2023-09-04T06:00	12960	183	-55.5	-72.5	6	31
2023-09-04T06:00	12985	182	-55.5		6	30
2023-09-04T06:00	13011	182	-55.5	-71.7	5	30
2023-09-04T06:00	13034	181	-55.6	-71.1	5	29
2023-09-04T06:00	13055	180	-55.7	-70.7	4	29
2023-09-04T06:00	13079	180	-55.9	-70.3	4	29
2023-09-04T06:00	13102	179	-56.0	-69.9	3	28
2023-09-04T06:00	13127	178	-56.2	-69.6	2	28
2023-09-04T06:00	13150	178	-56.3	-69.2	1	28
2023-09-04T06:00	13171	177	-56.4	-68.8	360	28
2023-09-04T06:00	13195	176	-56.6	-68.3	359	28
2023-09-04T06:00	13217	176	-56.7	-67.7	358	28
2023-09-04T06:00	13238	175	-56.9	-67.2	358	29
2023-09-04T06:00	13261	175	-57.1	-66.7	358	29
2023-09-04T06:00	13283	174	-57.3	-66.4	358	29
2023-09-04T06:00	13303	173	-57.5	-66.2	358	29
2023-09-04T06:00	13327	173	-57.7	-66.0	359	29
2023-09-04T06:00	13349	172	-57.9	-65.9	359	29
2023-09-04T06:00	13373	172	-58.1	-65.9	359	29
2023-09-04T06:00	13395	171	-58.3	-65.8	360	29
2023-09-04T06:00	13417	170	-58.5	-65.8	0	28
2023-09-04T06:00	13439	170	-58.7	-65.7	1	28
2023-09-04T06:00	13463	169	-58.8	-65.6	2	28
2023-09-04T06:00	13486	169	-59.0	-65.7	3	28
2023-09-04T06:00	13509	168	-59.2	-65.8	3	28
2023-09-04T06:00	13531	167	-59.3	-65.8	5	28
2023-09-04T06:00	13554	167	-59.5	-66.0	6	28
2023-09-04T06:00	13578	166	-59.7	-66.2	7	27
2023-09-04T06:00	13601	165	-59.9	-66.6	9	27
2023-09-04T06:00	13619	165	-60.0	-67.1	10	27
2023-09-04T06:00	13645	164	-60.0	-67.7	11	26
2023-09-04T06:00	13669	164	-60.0	-68.7	12	25
2023-09-04T06:00	13691	163	-59.9	-69.8	13	25
2023-09-04T06:00	13714	162	-60.0	-71.1	13	25
2023-09-04T06:00	13737	162	-60.0	-72.4	14	24
2023-09-04T06:00	13759	161	-60.1	-73.3	14	24
2023-09-04T06:00	13783	161	-60.3	-73.9	14	24
2023-09-04T06:00	13806	160	-60.5	-73.9	14	24
2023-09-04T06:00	13828	160	-60.7	-73.6	14	23
2023-09-04T06:00	13852	159	-60.9	-73.2	14	23
2023-09-04T06:00	13871	158	-61.1	-72.8	14	23
2023-09-04T06:00	13897	158	-61.3	-72.6	15	23
2023-09-04T06:00	13922	157	-61.5	-72.5	15	23
2023-09-04T06:00	13946	157	-61.6	-72.4	16	23
2023-09-04T06:00	13970	156	-61.8	-72.4	17	23
2023-09-04T06:00	13991	155	-62.0	-72.5	18	22
2023-09-04T06:00	14017	155	-62.1	-72.5	19	22
2023-09-04T06:00	14041	154	-62.2	-72.6	19	22
2023-09-04T06:00	14067	153	-62.4	-72.9	20	22
2023-09-04T06:00	14090	153	-62.5	-73.1	19	21
2023-09-04T06:00	14112	152	-62.5	-73.2	18	21
2023-09-04T06:00	14138	152	-62.7	-73.6	17	20
2023-09-04T06:00	14167	151	-62.9	-74.1	15	20
2023-09-04T06:00	14196	150	-62.9	-74.5	13	19
2023-09-04T06:00	14222	150	-62.9	-75.0	11	18
2023-09-04T06:00	14253	149	-62.9	-75.5	9	18
2023-09-04T06:00	14280	148	-63.0	-76.1	7	17
2023-09-04T06:00	14305	148	-63.2	-76.8	4	17
2023-09-04T06:00	14332	147	-63.3	-77.2	2	17
2023-09-04T06:00	14355	146	-63.4	-77.5	1	18
2023-09-04T06:00	14381	146	-63.6	-77.9	360	18
2023-09-04T06:00	14405	145	-63.7	-78.0	359	18
2023-09-04T06:00	14428	145	-63.9	-78.2	358	19
2023-09-04T06:00	14453	144	-64.1	-78.2	358	19
2023-09-04T06:00	14477	144	-64.3	-78.2	358	19
2023-09-04T06:00	14500	143	-64.5		359	19
2023-09-04T06:00	14525	142	-64.7	-78.1	359	19
2023-09-04T06:00	14550	142	-65.0	-78.2	359	19
2023-09-04T06:00	14574	141	-65.2	-78.3	358	19
2023-09-04T06:00	14599	141	-65.4	-78.3	358	19
2023-09-04T06:00	14623	140	-65.7	-78.5	357	19
2023-09-04T06:00	14648	140	-65.9	-78.8	356	20
2023-09-04T06:00	14674	139	-66.1	-79.1	355	20
2023-09-04T06:00	14700	138	-66.3	-79.7	355	21
2023-09-04T06:00	14722	138	-66.2	-80.0	356	21
2023-09-04T06:00	14746	137	-66.0	-80.2	356	21
2023-09-04T06:00	14771	137	-66.2	-80.6	357	22
2023-09-04T06:00	14795	136	-66.4	-80.8	358	22
2023-09-04T06:00	14819	136	-66.6	-80.9	360	22
2023-09-04T06:00	14843	135	-66.8	-81.0	1	23
2023-09-04T06:00	14867	135	-66.9	-81.1	2	23
2023-09-04T06:00	14895	134	-67.0	-81.3	4	23
2023-09-04T06:00	14918	134	-66.8	-81.3	6	24
2023-09-04T06:00	14942	133	-66.7	-81.5	8	24
2023-09-04T06:00	14967	132	-66.6	-81.7	9	24
2023-09-04T06:00	14992	132	-66.5	-81.9	11	23
2023-09-04T06:00	15013	131	-66.2	-81.9	14	23
2023-09-04T06:00	15039	131	-66.3	-82.2	16	22
2023-09-04T06:00	15065	130	-66.3	-82.2	18	22
2023-09-04T06:00	15087	130	-66.4	-82.5	21	21
2023-09-04T06:00	15114	129	-66.2	-82.4	25	20
2023-09-04T06:00	15139	129	-66.0	-82.5	28	20
2023-09-04T06:00	15165	128	-65.4		32	19
2023-09-04T06:00	15191	128	-65.2	-82.3	35	18
2023-09-04T06:00	15219	127	-65.2	-82.4	38	18
2023-09-04T06:00	15245	127	-65.3	-82.6	40	17
2023-09-04T06:00	15271	126	-65.3	-82.6	42	16
2023-09-04T06:00	15297	125	-65.2	-82.5	44	15
2023-09-04T06:00	15326	125	-65.3	-82.5	46	14
2023-09-04T06:00	15349	124	-65.5	-82.6	47	13
2023-09-04T06:00	15374	124	-65.5	-82.6	49	12
2023-09-04T06:00	15398	123	-65.5	-82.6	50	12
2023-09-04T06:00	15419	123	-65.5	-82.6	49	11
2023-09-04T06:00	15442	122	-65.3	-82.6	47	11
2023-09-04T06:00	15467	122	-65.1	-82.5	44	10
2023-09-04T06:00	15490	121	-65.0	-82.5	40	10
2023-09-04T06:00	15516	121	-65.2	-82.6	35	10
2023-09-04T06:00	15537	121	-65.3	-82.6	30	10
2023-09-04T06:00	15565	120	-65.5	-82.8	25	10
2023-09-04T06:00	15587	120	-65.6	-82.8	21	11
2023-09-04T06:00	15612	119	-65.6	-82.9	18	11
2023-09-04T06:00	15635	119	-65.6	-83.0	15	12
2023-09-04T06:00	15660	118	-65.3	-82.8	14	12
2023-09-04T06:00	15684	118	-65.2	-82.8	13	13
2023-09-04T06:00	15708	117	-65.3	-82.9	12	14
2023-09-04T06:00	15730	117	-65.3	-82.9	11	14
2023-09-04T06:00	15755	116	-65.4	-83.0	11	15
2023-09-04T06:00	15778	116	-65.6	-83.2	11	15
2023-09-04T06:00	15806	115	-65.7	-83.2	12	16
2023-09-04T06:00	15826	115	-65.7	-83.2	13	16
2023-09-04T06:00	15852	114	-65.8	-83.2	15	17
2023-09-04T06:00	15876	114	-65.7	-83.3	18	17
2023-09-04T06:00	15900	114	-65.5	-83.2	20	17
2023-09-04T06:00	15924	113	-65.4	-83.2	23	16
2023-09-04T06:00	15948	113	-65.2	-83.1	25	16
2023-09-04T06:00	15973	112	-65.0	-82.9	26	15
2023-09-04T06:00	16000	112	-65.1	-83.0	27	15
2023-09-04T06:00	16026	111	-65.3	-83.2	27	14
2023-09-04T06:00	16053	111	-65.4	-83.2	27	13
2023-09-04T06:00	16078	110	-65.4	-83.2	26	12
2023-09-04T06:00	16101	110	-65.6	-83.3	24	11
2023-09-04T06:00	16125	109	-65.7	-83.3	21	11
2023-09-04T06:00	16150	109	-65.8	-83.2	18	11
2023-09-04T06:00	16175	109	-65.9	-83.3	15	11
2023-09-04T06:00	16199	108	-66.0	-83.4	13	11
2023-09-04T06:00	16225	108	-65.9	-83.4	11	12
2023-09-04T06:00	16248	107	-65.7	-83.3	9	12
2023-09-04T06:00	16272	107	-65.6	-83.4	7	13
2023-09-04T06:00	16297	106	-65.5	-83.7	6	13
2023-09-04T06:00	16320	106	-65.3	-83.8	4	13
2023-09-04T06:00	16347	106	-64.9	-83.8	3	13
2023-09-04T06:00	16369	105	-64.7	-84.1	3	13
2023-09-04T06:00	16393	105	-64.5	-84.2	4	14
2023-09-04T06:00	16419	104	-64.3	-84.4	6	14
2023-09-04T06:00	16445	104	-64.1	-84.5	8	14
2023-09-04T06:00	16470	103	-64.0	-84.5	11	14
2023-09-04T06:00	16490	103	-64.1	-84.9	13	14
2023-09-04T06:00	16517	103	-63.8	-84.8	15	14
2023-09-04T06:00	16541	102	-63.7	-84.9	18	13
2023-09-04T06:00	16565	102	-63.3	-84.6	20	13
2023-09-04T06:00	16590	101	-63.0	-84.5	22	13
2023-09-04T06:00	16613	101	-63.0	-84.5	23	12
2023-09-04T06:00	16637	101	-62.9	-84.6	23	12
2023-09-04T06:00	16660	100	-62.9	-84.6	22	12
2023-09-04T06:00	16684	100	-62.9	-84.7	21	12
2023-09-04T06:00	16709	100	-62.9	-84.9	20	12
2023-09-04T06:00	16733	99	-62.9	-85.1	19	12
2023-09-04T06:00	16755	99	-62.8	-85.2	20	12
2023-09-04T06:00	16781	98	-62.5	-85.1	21	12
2023-09-04T06:00	16805	98	-62.4	-85.2	23	11
2023-09-04T06:00	16830	98	-62.3	-85.4	26	11
2023-09-04T06:00	16854	97	-62.1	-85.4	28	11
2023-09-04T06:00	16879	97	-61.7	-85.3	30	10
2023-09-04T06:00	16901	96	-61.5	-85.2	30	10
2023-09-04T06:00	16925	96	-61.4	-85.1	30	10
2023-09-04T06:00	16948	96	-61.5	-85.2	29	10
2023-09-04T06:00	16975	95	-61.6	-85.2	27	9
2023-09-04T06:00	16998	95	-61.5	-85.2	26	9
2023-09-04T06:00	17019	95	-61.2	-84.9	26	9
2023-09-04T06:00	17042	94	-61.0	-85.0	25	9
2023-09-04T06:00	17067	94	-60.9	-84.9	26	9
2023-09-04T06:00	17091	94	-60.8	-84.8	26	9
2023-09-04T06:00	17113	93	-60.8	-84.8	27	9
2023-09-04T06:00	17138	93	-60.8	-84.8	28	9
2023-09-04T06:00	17163	92	-60.9	-85.2	29	9
2023-09-04T06:00	17188	92	-60.9	-85.2	30	8
2023-09-04T06:00	17211	92	-61.0	-85.2	32	8
2023-09-04T06:00	17236	91	-61.0	-85.5	33	7
2023-09-04T06:00	17258	91	-60.7	-85.2	34	7
2023-09-04T06:00	17284	91	-60.7	-85.2	35	6
2023-09-04T06:00	17307	90	-60.7	-85.2	33	6
2023-09-04T06:00	17331	90	-60.7	-85.2	30	5
2023-09-04T06:00	17354	90	-60.6	-85.2	26	5
2023-09-04T06:00	17378	89	-60.6	-85.4	20	4
2023-09-04T06:00	17402	89	-60.5	-85.1	14	4
2023-09-04T06:00	17427	89	-60.5	-85.1	10	5
2023-09-04T06:00	17451	88	-60.6	-85.2	7	5
2023-09-04T06:00	17475	88	-60.8	-85.3	4	5
2023-09-04T06:00	17497	88	-60.8	-85.6	2	5
2023-09-04T06:00	17522	87	-60.7	-85.5	0	5
2023-09-04T06:00	17545	87	-60.4	-85.3	359	5
2023-09-04T06:00	17569	87	-60.3	-85.5	360	5
2023-09-04T06:00	17593	86	-60.2	-85.4	2	5
2023-09-04T06:00	17618	86	-60.1	-85.6	5	5
2023-09-04T06:00	17641	86	-60.0	-85.5	9	5
2023-09-04T06:00	17666	85	-59.8	-85.6	13	5
2023-09-04T06:00	17689	85	-59.7	-85.6	16	5
2023-09-04T06:00	17712	85	-59.6	-85.5	17	5
2023-09-04T06:00	17739	84	-59.7	-85.3	18	5
2023-09-04T06:00	17765	84	-59.9	-85.4	18	5
2023-09-04T06:00	17787	84	-60.0	-85.5	18	5
2023-09-04T06:00	17812	83	-60.0	-85.2	17	5
2023-09-04T06:00	17837	83	-60.2	-85.4	17	5
2023-09-04T06:00	17860	83	-60.3	-85.5	17	5
2023-09-04T06:00	17884	82	-60.3	-85.5	18	5
2023-09-04T06:00	17908	82	-60.2	-85.4	18	5
2023-09-04T06:00	17931	82	-60.3	-85.5	18	4
2023-09-04T06:00	17956	81	-60.3	-85.5	18	4
2023-09-04T06:00	17977	81	-60.4	-85.5	16	4
2023-09-04T06:00	18001	81	-60.5	-85.6	14	5
2023-09-04T06:00	18027	80	-60.5	-85.6	12	5
2023-09-04T06:00	18051	80	-60.4	-85.5	11	5
2023-09-04T06:00	18076	80	-60.4	-85.8	11	5
2023-09-04T06:00	18100	80	-60.4	-85.8	11	5
2023-09-04T06:00	18127	79	-60.3	-85.7	12	5
2023-09-04T06:00	18150	79	-60.5	-85.9	13	5
2023-09-04T06:00	18175	79	-60.6	-86.0	12	6
2023-09-04T06:00	18197	78	-60.6	-86.0	12	6
2023-09-04T06:00	18221	78	-60.5	-85.9	11	6
2023-09-04T06:00	18249	78	-60.4	-85.8	11	6
2023-09-04T06:00	18271	77	-60.3	-85.7	10	6
2023-09-04T06:00	18294	77	-60.4	-85.8	9	6
2023-09-04T06:00	18322	77	-60.3	-86.0	7	6
2023-09-04T06:00	18352	76	-60.2	-85.9	4	5
2023-09-04T06:00	18376	76	-59.8	-85.9	1	5
2023-09-04T06:00	18399	76	-59.5	-85.7	360	5
2023-09-04T06:00	18425	76	-59.5	-85.7	359	5
2023-09-04T06:00	18452	75	-59.5	-85.7	0	6
2023-09-04T06:00	18478	75	-59.8	-85.6	2	6
2023-09-04T06:00	18502	75	-60.0	-85.8	4	7
2023-09-04T06:00	18529	74	-60.1	-85.9	6	7
2023-09-04T06:00	18555	74	-60.0	-85.8	8	7
2023-09-04T06:00	18580	74	-60.0	-85.8	11	7
2023-09-04T06:00	18605	73	-60.0	-85.8	15	7
2023-09-04T06:00	18628	73	-59.9	-85.7	18	7
2023-09-04T06:00	18655	73	-60.0	-85.8	21	7
2023-09-04T06:00	18678	73	-60.0	-85.8	24	6
2023-09-04T06:00	18706	72	-59.9	-86.0	25	6
2023-09-04T06:00	18734	72	-59.8	-85.9	24	6
2023-09-04T06:00	18761	72	-59.8	-85.9	21	5
2023-09-04T06:00	18784	71	-59.9	-86.0	15	5
2023-09-04T06:00	18810	71	-60.0	-86.1	6	5
2023-09-04T06:00	18835	71	-60.0	-86.1	357	5
2023-09-04T06:00	18862	70	-59.7	-85.9	350	6
2023-09-04T06:00	18887	70	-59.5	-86.0	346	7
2023-09-04T06:00	18911	70	-59.4	-86.0	345	8
2023-09-04T06:00	18935	70	-59.3	-85.9	346	8
2023-09-04T06:00	18962	69	-59.2	-85.8	349	9
2023-09-04T06:00	18986	69	-58.8	-85.9	353	9
2023-09-04T06:00	19010	69	-58.7	-85.8	357	9
2023-09-04T06:00	19036	68	-58.7	-85.8	2	9
2023-09-04T06:00	19061	68	-58.7	-85.4	7	9
2023-09-04T06:00	19086	68	-58.8	-85.5	11	9
2023-09-04T06:00	19112	68	-59.0	-85.7	14	8
2023-09-04T06:00	19138	67	-59.1	-85.7	14	8
2023-09-04T06:00	19169	67	-59.1	-85.7	13	8
2023-09-04T06:00	19196	67	-58.9	-85.6	10	7
2023-09-04T06:00	19221	67	-59.0	-85.7	8	6
2023-09-04T06:00	19243	66	-58.9	-85.6	8	6
2023-09-04T06:00	19270	66	-58.7	-85.8	9	5
2023-09-04T06:00	19298	66	-58.7	-85.8	13	5
2023-09-04T06:00	19324	65	-58.7	-85.8	18	4
2023-09-04T06:00	19348	65	-58.5	-85.6	23	4
2023-09-04T06:00	19373	65	-58.3	-85.5	28	4
2023-09-04T06:00	19396	65	-58.1	-85.7	30	3
2023-09-04T06:00	19419	64	-58.0	-85.6	28	3
2023-09-04T06:00	19447	64	-57.9	-85.5	20	3
2023-09-04T06:00	19471	64	-57.9	-85.5	11	4
2023-09-04T06:00	19497	64	-57.9	-85.5	2	4
2023-09-04T06:00	19524	63	-58.0	-85.2	355	4
2023-09-04T06:00	19546	63	-58.0	-85.2	350	4
2023-09-04T06:00	19574	63	-58.1	-85.3	347	4
2023-09-04T06:00	19598	63	-58.1	-85.3	346	4
2023-09-04T06:00	19622	62	-58.1	-85.3	345	5
2023-09-04T06:00	19650	62	-58.2	-85.0	346	5
2023-09-04T06:00	19673	62	-58.4	-85.2	348	5
2023-09-04T06:00	19700	62	-58.5	-85.3	349	6
2023-09-04T06:00	19727	61	-58.6	-85.4	349	7
2023-09-04T06:00	19754	61	-58.6	-85.4	349	7
2023-09-04T06:00	19779	61	-58.7	-85.4	349	8
2023-09-04T06:00	19807	61	-58.8	-85.5	349	9
2023-09-04T06:00	19831	60	-58.8	-85.5	350	9
2023-09-04T06:00	19862	60	-58.9	-85.6	352	9
2023-09-04T06:00	19888	60	-59.0	-85.7	354	9
2023-09-04T06:00	19912	60	-58.9	-85.9	356	9
2023-09-04T06:00	19942	59	-58.8	-85.9	358	9
2023-09-04T06:00	19969	59	-58.7	-85.8	359	9
2023-09-04T06:00	19991	59	-58.6	-85.7	0	9
2023-09-04T06:00	20017	59	-58.7	-85.8	1	8
2023-09-04T06:00	20046	58	-58.7	-85.8	1	8
2023-09-04T06:00	20074	58	-58.8	-85.9	360	8
2023-09-04T06:00	20100	58	-58.8	-85.5	358	7
2023-09-04T06:00	20128	58	-58.7	-85.4	356	7
2023-09-04T06:00	20154	57	-58.7	-85.4	355	7
2023-09-04T06:00	20178	57	-58.9	-85.6	355	7
2023-09-04T06:00	20205	57	-59.1	-85.7	355	7
2023-09-04T06:00	20232	57	-59.1		355	7
2023-09-04T06:00	20256	56	-58.9	-85.9	355	7
2023-09-04T06:00	20285	56	-58.8	-85.9	356	7
2023-09-04T06:00	20311	56	-58.9	-85.9	357	7
2023-09-04T06:00	20335	56	-58.9	-85.9	359	7
2023-09-04T06:00	20363	55	-58.7	-85.8	2	6
2023-09-04T06:00	20388	55	-58.5	-85.6	4	6
2023-09-04T06:00	20416	55	-58.4	-85.5	7	6
2023-09-04T06:00	20443	55	-58.3	-85.8	8	6
2023-09-04T06:00	20469	55	-58.3	-85.5	9	6
2023-09-04T06:00	20496	54	-58.4	-85.5	10	7
2023-09-04T06:00	20524	54	-58.6	-85.7	11	6
2023-09-04T06:00	20550	54	-58.8	-85.9	13	6
2023-09-04T06:00	20574	54	-58.9	-85.9	15	6
2023-09-04T06:00	20601	53	-58.8	-85.9	17	6
2023-09-04T06:00	20629	53	-58.7	-85.8	19	6
2023-09-04T06:00	20655	53	-58.7	-85.8	19	6
2023-09-04T06:00	20676	53	-58.8	-85.9	18	6
2023-09-04T06:00	20704	53	-58.7	-85.8	16	6
2023-09-04T06:00	20727	52	-58.5	-85.6	12	6
2023-09-04T06:00	20756	52	-58.4	-85.5	7	6
2023-09-04T06:00	20779	52	-58.5	-85.6	2	6
2023-09-04T06:00	20806	52	-58.6	-85.7	358	6
2023-09-04T06:00	20835	51	-58.8	-85.9	356	6
2023-09-04T06:00	20857	51	-58.9	-85.9	357	6
2023-09-04T06:00	20884	51	-58.9	-85.6	360	6
2023-09-04T06:00	20910	51	-58.9	-85.6	5	6
2023-09-04T06:00	20934	51	-59.0	-85.7	11	6
2023-09-04T06:00	20962	50	-59.2	-85.8	15	6
2023-09-04T06:00	20987	50	-59.1		17	6
2023-09-04T06:00	21015	50	-59.1		17	6
2023-09-04T06:00	21040	50	-58.8	-85.9	14	6
2023-09-04T06:00	21065	50	-58.9	-85.9	12	7
2023-09-04T06:00	21093	49	-59.1		11	7
2023-09-04T06:00	21119	49	-59.2	-86.2	13	7
2023-09-04T06:00	21144	49	-59.0	-86.0	17	7
2023-09-04T06:00	21169	49	-58.8	-85.9	24	6
2023-09-04T06:00	21199	49	-58.8	-85.9	31	6
2023-09-04T06:00	21224	48	-58.9	-85.9	39	6
2023-09-04T06:00	21247	48	-59.1		45	6
2023-09-04T06:00	21276	48	-59.2	-85.8	51	6
2023-09-04T06:00	21304	48	-59.3	-86.2	56	6
2023-09-04T06:00	21326	48	-59.2	-86.2	62	6
2023-09-04T06:00	21351	47	-59.1		69	5
2023-09-04T06:00	21377	47	-58.9	-85.9	75	5
2023-09-04T06:00	21403	47	-59.0	-86.0	82	5
2023-09-04T06:00	21432	47	-59.0	-86.0	88	4
2023-09-04T06:00	21458	47	-59.0	-86.0	94	4
2023-09-04T06:00	21477	46	-59.0	-85.7	100	4
2023-09-04T06:00	21506	46	-59.1	-85.7	103	3
2023-09-04T06:00	21531	46	-59.2	-85.8	105	3
2023-09-04T06:00	21560	46	-59.4	-86.0	105	2
2023-09-04T06:00	21588	46	-59.6	-86.1	100	2
2023-09-04T06:00	21616	45	-59.6	-86.1	88	1
2023-09-04T06:00	21644	45	-59.6	-86.1	58	1
2023-09-04T06:00	21666	45	-59.7	-86.2	15	1
2023-09-04T06:00	21692	45	-59.7	-86.2	350	2
2023-09-04T06:00	21722	45	-59.7	-86.2	341	2
2023-09-04T06:00	21752	44	-59.9	-86.3	339	3
2023-09-04T06:00	21777	44	-60.0	-86.4	342	4
2023-09-04T06:00	21805	44	-60.0	-86.4	347	5
2023-09-04T06:00	21829	44	-60.0	-86.4	352	5
2023-09-04T06:00	21855	44	-60.1	-86.5	357	6
2023-09-04T06:00	21882	44	-60.0	-86.4	1	7
2023-09-04T06:00	21913	43	-60.1	-86.5	4	8
2023-09-04T06:00	21940	43	-60.2	-86.6	6	9
2023-09-04T06:00	21967	43	-60.1	-86.5	8	10
2023-09-04T06:00	21994	43	-60.2	-86.6	10	11
2023-09-04T06:00	22020	43	-60.2	-86.6	12	11
2023-09-04T06:00	22048	42	-60.0	-86.4	14	11
2023-09-04T06:00	22072	42	-59.9	-86.3	17	11
2023-09-04T06:00	22104	42	-59.9	-86.3	19	11
2023-09-04T06:00	22129	42	-59.9	-86.3	21	11
2023-09-04T06:00	22159	42	-60.0	-86.4	22	11
2023-09-04T06:00	22180	41	-60.1	-86.5	23	11
2023-09-04T06:00	22208	41	-60.2	-86.3	25	11
2023-09-04T06:00	22238	41	-60.3	-86.3	27	11
2023-09-04T06:00	22260	41	-60.2	-86.3	30	11
2023-09-04T06:00	22291	41	-60.2	-86.3	34	10
2023-09-04T06:00	22316	41	-60.3	-86.3	37	10
2023-09-04T06:00	22341	40	-60.4		40	10
2023-09-04T06:00	22366	40	-60.5	-86.5	41	10
2023-09-04T06:00	22393	40	-60.4	-86.7	41	9
2023-09-04T06:00	22420	40	-60.4	-86.7	40	9
2023-09-04T06:00	22447	40	-60.3	-87.0	39	10
2023-09-04T06:00	22472	40	-60.0	-86.8	38	10
2023-09-04T06:00	22497	39	-59.4	-86.7	38	11
2023-09-04T06:00	22523	39	-59.0	-86.4	39	12
2023-09-04T06:00	22547	39	-58.9	-86.3	41	12
2023-09-04T06:00	22576	39	-58.8	-86.2	43	12
2023-09-04T06:00	22603	39	-58.8	-86.2	46	12
2023-09-04T06:00	22629	39	-58.8	-86.2	50	12
2023-09-04T06:00	22655	38	-59.0	-86.4	52	12
2023-09-04T06:00	22682	38	-59.0	-86.0	54	12
2023-09-04T06:00	22709	38	-59.1		56	12
2023-09-04T06:00	22737	38	-59.1		56	11
2023-09-04T06:00	22762	38	-59.0	-86.4	55	11
2023-09-04T06:00	22790	38	-58.8	-86.2	54	11
2023-09-04T06:00	22818	37	-58.6	-86.1	53	11
2023-09-04T06:00	22847	37	-58.4	-86.3	53	12
2023-09-04T06:00	22874	37	-58.3	-86.2	53	12
2023-09-04T06:00	22900	37	-58.1		54	12
2023-09-04T06:00	22931	37	-57.9		56	12
2023-09-04T06:00	22960	37	-57.8	-85.9	57	12
2023-09-04T06:00	22987	36	-57.6	-86.1	58	11
2023-09-04T06:00	23018	36	-57.3	-85.9	60	11
2023-09-04T06:00	23046	36	-57.0	-85.7	60	10
2023-09-04T06:00	23069	36	-57.1	-85.7	61	10
2023-09-04T06:00	23104	36	-57.2	-85.4	61	10
2023-09-04T06:00	23131	36	-57.3	-85.5	61	10
2023-09-04T06:00	23158	36	-57.1	-85.3	61	10
2023-09-04T06:00	23186	35	-57.0	-85.2	61	10
2023-09-04T06:00	23217	35	-57.0	-85.2	62	10
2023-09-04T06:00	23242	35	-57.1	-85.7	63	10
2023-09-04T06:00	23277	35	-56.9	-85.6	64	10
2023-09-04T06:00	23304	35	-56.7	-85.4	65	10
2023-09-04T06:00	23333	35	-56.6	-85.4	66	9
2023-09-04T06:00	23361	34	-56.6	-85.4	67	9
2023-09-04T06:00	23391	34	-56.6	-85.4	69	9
2023-09-04T06:00	23423	34	-56.5	-85.3	72	8
2023-09-04T06:00	23448	34	-56.5	-85.3	75	8
2023-09-04T06:00	23479	34	-56.6	-84.9	78	8
2023-09-04T06:00	23508	34	-56.7	-85.0	80	8
2023-09-04T06:00	23533	33	-56.8	-85.1	82	8
2023-09-04T06:00	23561	33	-57.0	-85.2	84	8
2023-09-04T06:00	23592	33	-57.0	-85.2	85	8
2023-09-04T06:00	23619	33	-57.1	-85.3	85	7
2023-09-04T06:00	23646	33	-57.2	-85.4	85	7
2023-09-04T06:00	23672	33	-57.3	-85.5	85	7
2023-09-04T06:00	23701	33	-57.3	-85.5	85	7
2023-09-04T06:00	23730	32	-57.5	-85.6	84	8
2023-09-04T06:00	23760	32	-57.5	-85.6	84	8
2023-09-04T06:00	23785	32	-57.5	-85.6	85	8
2023-09-04T06:00	23815	32	-57.6	-85.7	85	9
2023-09-04T06:00	23841	32	-57.6	-85.7	85	9
2023-09-04T06:00	23864	32	-57.7	-85.8	84	9
2023-09-04T06:00	23899	32	-57.8	-85.9	83	9
2023-09-04T06:00	23923	31	-57.9		82	9
2023-09-04T06:00	23949	31	-57.9		82	9
2023-09-04T06:00	23977	31	-57.8	-85.9	82	8
2023-09-04T06:00	24003	31	-57.7	-85.8	82	8
2023-09-04T06:00	24033	31	-57.9		84	7
2023-09-04T06:00	24061	31	-58.0	-86.0	87	7
2023-09-04T06:00	24086	31	-58.1		88	6
2023-09-04T06:00	24115	31	-58.1		88	6
2023-09-04T06:00	24139	30	-58.1		86	5
2023-09-04T06:00	24171	30	-58.0	-86.0	82	5
2023-09-04T06:00	24194	30	-57.6	-86.1	78	5
2023-09-04T06:00	24221	30	-57.4	-86.0	76	4
2023-09-04T06:00	24250	30	-57.4	-86.0	74	4
2023-09-04T06:00	24275	30	-57.2	-86.3	70	3
2023-09-04T06:00	24303	30	-56.9	-86.1	63	3
2023-09-04T06:00	24322	30	-56.3	-86.1	50	3
2023-09-04T06:00	24349	29	-55.7	-85.7	36	3
2023-09-04T06:00	24386	29	-55.4	-85.4	25	3
2023-09-04T06:00	24403	29	-55.2	-85.3	19	3
2023-09-04T06:00	24429	29	-54.7	-85.5	15	4
2023-09-04T06:00	24463	29	-54.3	-85.2	14	4
2023-09-04T06:00	24484	29	-54.1	-85.0	13	4
2023-09-04T06:00	24513	29	-54.0	-84.4	11	4
2023-09-04T06:00	24543	29	-53.9	-84.3	10	4
2023-09-04T06:00	24571	28	-53.9	-84.3	7	4
2023-09-04T06:00	24603	28	-53.8	-84.2	2	4
2023-09-04T06:00	24634	28	-53.7	-84.2	356	3
2023-09-04T06:00	24659	28	-53.6	-84.1	347	3
2023-09-04T06:00	24689	28	-53.5	-84.0	335	3
2023-09-04T06:00	24721	28	-53.2	-83.8	323	3
2023-09-04T06:00	24744	28	-53.2	-83.8	313	3
2023-09-04T06:00	24773	28	-53.3	-84.4	308	3
2023-09-04T06:00	24803	27	-53.1	-84.3	306	4
2023-09-04T06:00	24828	27	-52.9	-84.1	306	4
2023-09-04T06:00	24859	27	-52.6	-83.9	308	4
2023-09-04T06:00	24890	27	-52.4	-83.8	310	5
2023-09-04T06:00	24919	27	-52.3	-83.7	312	5
2023-09-04T06:00	24946	27	-52.2	-83.6	314	5
2023-09-04T06:00	24977	27	-52.2	-83.6	316	5
2023-09-04T06:00	25011	27	-52.2	-83.6	318	5
2023-09-04T06:00	25035	26	-52.1	-83.5	319	5
2023-09-04T06:00	25070	26	-52.3	-83.1	320	5
2023-09-04T06:00	25094	26	-52.4	-83.2	321	6
2023-09-04T06:00	25130	26	-52.5	-83.3	323	6
2023-09-04T06:00	25149	26	-52.7	-83.4	325	6
2023-09-04T06:00	25184	26	-52.7	-83.4	328	6
2023-09-04T06:00	25211	26	-52.7	-83.4	330	6
2023-09-04T06:00	25241	26	-52.7	-83.4	332	6
2023-09-04T06:00	25270	26	-52.6	-83.3	333	6
2023-09-04T06:00	25311	25	-52.5	-83.8	332	6
2023-09-04T06:00	25326	25	-52.4	-83.8	331	7
2023-09-04T06:00	25366	25	-52.3	-83.7	328	7
2023-09-04T06:00	25387	25	-52.1	-83.5	326	8
2023-09-04T06:00	25414	25	-52.1	-83.5	325	8
2023-09-04T06:00	25447	25	-52.3	-83.7	326	8
2023-09-04T06:00	25473	25	-52.3	-83.7	327	9
2023-09-04T06:00	25504	25	-52.1	-83.5	330	9
2023-09-04T06:00	25527	24	-51.8	-83.3	334	8
2023-09-04T06:00	25561	24	-51.8	-83.3	338	8
2023-09-04T06:00	25592	24	-51.9	-83.4	344	8
2023-09-04T06:00	25617	24	-52.1	-83.5	351	7
2023-09-04T06:00	25647	24	-52.2	-83.1	358	7
2023-09-04T06:00	25679	24	-52.4	-83.2	6	7
2023-09-04T06:00	25713	24	-52.6	-83.3	14	7
2023-09-04T06:00	25742	24	-52.7	-83.4	20	7
2023-09-04T06:00	25766	24	-52.9	-83.6	25	7
2023-09-04T06:00	25797	24	-53.0	-83.6	29	7
2023-09-04T06:00	25824	23	-53.1	-83.7	31	7
2023-09-04T06:00	25854	23	-53.2	-83.8	32	7
2023-09-04T06:00	25885	23	-53.2	-83.8	30	6
2023-09-04T06:00	25908	23	-53.1	-83.7	25	6
2023-09-04T06:00	25940	23	-53.1	-83.7	17	5
2023-09-04T06:00	25972	23	-53.0	-83.6	6	4
2023-09-04T06:00	25998	23	-52.9	-84.1	355	4
2023-09-04T06:00	26026	23	-52.7	-84.0	345	4
2023-09-04T06:00	26061	23	-52.4	-83.8	339	5
2023-09-04T06:00	26091	22	-52.3	-83.7	338	6
2023-09-04T06:00	26119	22	-52.2	-83.6	339	6
2023-09-04T06:00	26146	22	-52.0	-83.5	341	7
2023-09-04T06:00	26182	22	-52.0	-83.5	344	7
2023-09-04T06:00	26215	22	-51.9	-83.4	347	7
2023-09-04T06:00	26241	22	-51.9	-83.4	350	7
2023-09-04T06:00	26280	22	-51.8	-83.3	354	6
2023-09-04T06:00	26306	22	-51.8	-83.3	358	6
2023-09-04T06:00	26338	22	-52.0	-83.5	3	5
2023-09-04T06:00	26373	22	-52.2	-83.6	9	5
2023-09-04T06:00	26397	21	-52.3	-83.7	16	5
2023-09-04T06:00	26432	21	-52.3	-83.7	24	5
2023-09-04T06:00	26453	21	-52.1	-83.5	33	5
2023-09-04T06:00	26489	21	-52.0	-83.5	41	5
2023-09-04T06:00	26518	21	-51.9	-83.4	47	6
2023-09-04T06:00	26560	21	-52.0	-83.5	53	6
2023-09-04T06:00	26579	21	-52.0	-83.5	58	7
2023-09-04T06:00	26613	21	-52.0	-83.5	64	7
2023-09-04T06:00	26649	21	-52.1	-83.5	69	8
2023-09-04T06:00	26679	21	-52.1	-83.5	76	8
2023-09-04T06:00	26709	20	-52.0	-83.5	81	9
2023-09-04T06:00	26750	20	-52.0	-83.5	86	9
2023-09-04T06:00	26778	20	-52.1	-83.5	90	10
2023-09-04T06:00	26810	20	-52.3	-83.7	93	10
2023-09-04T06:00	26849	20	-52.1	-83.5	95	11
2023-09-04T06:00	26878	20	-51.6	-83.2	97	11
2023-09-04T06:00	26914	20	-51.3	-82.9	98	11
2023-09-04T06:00	26951	20	-51.4	-83.0	98	10
2023-09-04T06:00	26978	20	-51.6	-83.2	97	9
2023-09-04T06:00	27004	19	-51.9	-83.4	97	9
2023-09-04T06:00	27041	19	-52.1	-83.5	97	8
2023-09-04T06:00	27080	19	-52.4	-83.2	97	7
2023-09-04T06:00	27101	19	-52.6	-83.3	97	7
2023-09-04T06:00	27133	19	-52.8	-83.5	97	6
2023-09-04T06:00	27169	19	-52.8	-83.5	97	5
2023-09-04T06:00	27208	19	-52.8	-83.5	95	4
2023-09-04T06:00	27237	19	-52.7	-84.0	90	3
2023-09-04T06:00	27260	19	-52.7	-84.0	80	3
2023-09-04T06:00	27292	19	-52.7	-84.0	66	2
2023-09-04T06:00	27327	19	-52.5	-83.8	52	2
2023-09-04T06:00	27352	18	-52.1	-83.5	42	2
2023-09-04T06:00	27385	18	-51.9	-84.0	34	2
2023-09-04T06:00	27415	18	-51.8	-83.9	25	3
2023-09-04T06:00	27443	18	-51.7	-83.9	18	3
2023-09-04T06:00	27474	18	-51.4	-83.6	13	4
2023-09-04T06:00	27500	18	-51.2	-83.5	10	4
2023-09-04T06:00	27536	18	-51.0	-83.3	9	4
2023-09-04T06:00	27568	18	-50.7	-83.1	9	5
2023-09-04T06:00	27593	18	-50.6	-83.1	9	5
2023-09-04T06:00	27615	18	-50.6	-83.1	10	5
2023-09-04T06:00	27646	18	-50.5	-83.0	11	5
2023-09-04T06:00	27680	18	-50.3	-82.8	12	5
2023-09-04T06:00	27709	18	-50.3	-82.8	12	5
2023-09-04T06:00	27734	17	-50.3	-82.8	12	4
2023-09-04T06:00	27765	17	-50.1	-82.7	9	4
2023-09-04T06:00	27790	17	-50.2	-82.8	4	3
2023-09-04T06:00	27829	17	-50.4	-82.9	356	3
2023-09-04T06:00	27856	17	-50.6	-83.1	348	2
2023-09-04T06:00	27891	17	-50.8	-83.2	346	3
2023-09-04T06:00	27918	17	-50.9	-83.3	349	3
2023-09-04T06:00	27956	17	-50.7	-83.1	354	4
2023-09-04T06:00	27986	17	-50.3	-82.8	359	4
2023-09-04T06:00	28010	17	-50.0	-82.6	4	5
2023-09-04T06:00	28040	17	-49.9	-82.5	10	5
2023-09-04T06:00	28071	17	-50.0	-83.3	16	6
2023-09-04T06:00	28102	16	-49.9	-83.2	23	6
2023-09-04T06:00	28136	16	-49.8	-83.2	29	6
2023-09-04T06:00	28162	16	-49.5	-82.9	34	6
2023-09-04T06:00	28192	16	-49.1	-82.7	36	6
2023-09-04T06:00	28230	16	-48.6	-82.3	36	6
2023-09-04T06:00	28260	16	-48.2	-82.8	36	6
2023-09-04T06:00	28295	16	-48.0	-82.7	34	5
2023-09-04T06:00	28324	16	-47.8	-82.5	32	5
2023-09-04T06:00	28343	16	-47.8	-81.7	29	5
2023-09-04T06:00	28383	16	-47.8	-81.7	24	5
2023-09-04T06:00	28415	16	-47.8	-81.7	19	5
2023-09-04T06:00	28447	16	-47.9	-81.8	14	5
2023-09-04T06:00	28483	16	-48.0	-81.9	12	6
2023-09-04T06:00	28511	15	-48.1	-81.9	11	6
2023-09-04T06:00	28542	15	-48.2	-82.0	13	6
2023-09-04T06:00	28586	15	-48.3	-82.1	17	6
2023-09-04T06:00	28608	15	-48.4	-82.2	23	6
2023-09-04T06:00	28638	15	-48.5	-82.2	29	6
2023-09-04T06:00	28671	15	-48.5	-82.2	36	6
2023-09-04T06:00	28701	15	-48.2	-82.0	42	6
2023-09-04T06:00	28732	15	-47.8	-81.7	47	6
2023-09-04T06:00	28772	15	-47.7	-81.6	52	6
2023-09-04T06:00	28802	15	-47.5	-82.3	57	6
2023-09-04T06:00	28830	15	-47.2	-82.1	63	5
2023-09-04T06:00	28876	15	-47.1	-82.0	71	5
2023-09-04T06:00	28903	15	-47.1	-82.0	80	5
2023-09-04T06:00	28927	15	-47.1	-82.0	90	5
2023-09-04T06:00	28970	14	-47.2	-81.3	100	4
2023-09-04T06:00	28996	14	-47.2	-81.3	109	4
2023-09-04T06:00	29024	14	-47.2	-81.3	120	4
2023-09-04T06:00	29054	14	-47.3	-81.4	132	4
2023-09-04T06:00	29084	14	-47.3	-81.4	144	4
2023-09-04T06:00	29116	14	-47.2	-81.3	155	4
2023-09-04T06:00	29150	14	-47.1	-81.2	164	4
2023-09-04T06:00	29179	14	-47.0	-81.1	170	4
2023-09-04T06:00	29216	14	-47.0	-81.1	176	4
2023-09-04T06:00	29244	14	-47.2	-81.3	185	3
2023-09-04T06:00	29269	14	-47.3	-81.4	198	3
2023-09-04T06:00	29295	14	-47.5	-81.5	215	3
2023-09-04T06:00	29337	14	-47.6	-81.6	230	3
2023-09-04T06:00	29371	14	-47.8	-81.7	239	3
2023-09-04T06:00	29407	14	-47.9	-81.8	242	3
2023-09-04T06:00	29438	13	-48.0	-81.9	240	3
2023-09-04T06:00	29466	13	-48.1	-81.9	233	3
2023-09-04T06:00	29504	13	-48.1	-81.9	222	3
2023-09-04T06:00	29540	13	-48.3	-82.1	211	3
2023-09-04T06:00	29565	13	-48.6	-82.3	203	4
2023-09-04T06:00	29596	13	-48.8	-82.4	197	4
2023-09-04T06:00	29618	13	-49.0	-82.6	193	4
2023-09-04T06:00	29657	13	-48.9	-82.5	189	4
2023-09-04T06:00	29685	13	-48.6	-82.3	185	4
2023-09-04T06:00	29726	13	-48.4	-82.2	180	4
2023-09-04T06:00	29757	13	-48.2	-82.0	177	4
2023-09-04T06:00	29791	13	-48.2	-82.0	175	4
2023-09-04T06:00	29819	13	-48.1	-82.7	177	4
2023-09-04T06:00	29840	13	-47.8	-82.5	181	4
2023-09-04T06:00	29881	13	-47.5	-82.3	189	3
2023-09-04T06:00	29913	13	-47.2	-82.1	200	3
2023-09-04T06:00	29949	12	-47.1	-82.0	214	2
2023-09-04T06:00	29978	12	-47.2	-82.1	230	2
2023-09-04T06:00	30009	12	-47.4	-82.2	250	2
2023-09-04T06:00	30046	12	-47.6	-81.6	270	2
2023-09-04T06:00	30079	12	-47.8	-81.7	287	2
2023-09-04T06:00	30114	12	-47.9	-81.8	301	2
2023-09-04T06:00	30149	12	-48.2	-82.0	314	2
2023-09-04T06:00	30173	12	-48.5	-82.2	326	3
2023-09-04T06:00	30215	12	-48.7	-82.4	336	3
2023-09-04T06:00	30237	12	-48.7	-82.4	342	5
2023-09-04T06:00	30276	12	-48.6	-82.3	347	6
2023-09-04T06:00	30303	12	-48.3	-82.1	351	7
2023-09-04T06:00	30351	12	-48.0	-81.9	355	8
2023-09-04T06:00	30375	12	-47.8	-82.5	359	9
2023-09-04T06:00	30413	12	-48.0	-82.7	3	9
2023-09-04T06:00	30441	12	-48.0	-82.7	7	10
2023-09-04T06:00	30475	12	-47.8	-82.5	11	10
2023-09-04T06:00	30498	11	-47.5	-82.3	16	10
2023-09-04T06:00	30540	11	-47.3	-82.2	21	11
2023-09-04T06:00	30579	11	-47.2	-82.1	27	11
2023-09-04T06:00	30607	11	-47.1	-82.0	33	11
2023-09-04T06:00	30641	11	-46.9	-81.9	40	10
2023-09-04T06:00	30666	11	-47.0	-81.9	46	10
2023-09-04T06:00	30705	11	-46.9	-81.9	51	10
2023-09-04T06:00	30734	11	-46.6	-81.7	55	10
2023-09-04T06:00	30759	11	-46.4	-81.5	58	9
2023-09-04T06:00	30793	11	-46.1	-81.3	59	9
2023-09-04T06:00	30837	11	-45.9	-82.1	60	10
2023-09-04T06:00	30858	11	-45.9	-82.1	61	10
2023-09-04T06:00	30881	11	-45.8	-82.0	62	9
2023-09-04T06:00	30908	11	-45.5	-81.8	65	9
2023-09-04T06:00	30959	11	-45.3	-81.6	69	8
2023-09-04T06:00	30989	11	-45.3	-80.7	73	7
2023-09-04T06:00	31018	11	-45.5	-80.9	77	7
2023-09-04T06:00	31041	11	-45.7	-81.0	82	6
2023-09-04T06:00	31070	11	-45.9	-81.2	86	6
2023-09-04T06:00	31126	10	-46.2	-81.4	90	5
2023-09-04T06:00	31148	10	-46.4	-81.5	96	5
2023-09-04T06:00	31180	10	-46.7	-81.7	101	4
2023-09-04T06:00	31198	10	-46.8	-81.8	104	4
2023-09-04T06:00	31231	10	-47.0	-81.9	103	3
2023-09-04T06:00	31259	10	-46.9	-81.9	95	3
2023-09-04T06:00	31289	10	-46.5	-81.6	78	2
2023-09-04T06:00	31314	10	-46.2	-81.4	57	2
2023-09-04T06:00	31357	10	-46.0	-81.2	39	2
2023-09-04T06:00	31380	10	-45.9	-81.2	26	3
2023-09-04T06:00	31429	10	-45.9	-81.2	19	3
2023-09-04T06:00	31438	10	-46.0	-81.2	17	3
2023-09-04T06:00	31473	10	-46.0	-81.2	18	4
2023-09-04T06:00	31515	10	-45.9	-81.2	23	4
2023-09-04T06:00	31538	10	-46.0	-81.2	28	5
2023-09-04T06:00	31566	10	-46.0	-81.2	33	5
2023-09-04T06:00	31595	10	-46.0	-81.2	36	6
2023-09-04T06:00	31631	10	-45.8	-81.1	38	7
2023-09-04T06:00	31664	10	-45.6	-81.9	38	7
2023-09-04T06:00	31695	10	-45.3	-81.6	38	8
2023-09-04T06:00	31738	10	-45.2	-81.6	37	8
2023-09-04T06:00	31752	10	-45.3	-81.6	37	9
2023-09-04T06:00	31779	9	-45.3	-81.6	38	9
2023-09-04T06:00	31810	9	-45.4	-81.7	40	9
2023-09-04T06:00	31836	9	-45.4	-80.8	42	10
2023-09-04T06:00	31880	9	-45.4	-80.8	44	10
2023-09-04T06:00	31912	9	-45.4	-80.8	46	10
2023-09-04T06:00	31957	9	-45.6	-80.9	48	10
2023-09-04T06:00	31974	9	-45.7	-81.0	50	10
2023-09-04T06:00	32021	9	-45.7	-81.0	53	10
2023-09-04T06:00	32057	9	-45.7	-81.0	56	10
2023-09-04T06:00	32088	9	-45.5	-81.8	61	9
2023-09-04T06:00	32109	9	-45.3	-81.6	65	9
2023-09-04T06:00	32143	9	-45.4	-81.7	71	8
2023-09-04T06:00	32178	9	-45.5	-81.8	77	7
2023-09-04T06:00	32211	9	-45.7	-81.0	82	7
2023-09-04T06:00	32239	9	-45.7	-81.0	86	6
2023-09-04T06:00	32284	9	-45.5	-80.9	90	6
2023-09-04T06:00	32320	9	-45.3	-80.7	92	5
2023-09-04T06:00	32331	9	-45.3	-80.7	93	5
2023-09-04T06:00	32393	9	-45.4	-80.8	94	5
2023-09-04T06:00	32425	9	-45.6	-80.9	96	4
2023-09-04T06:00	32451	9	-45.9	-81.2	99	4
2023-09-04T06:00	32478	9	-46.0	-81.2	101	3
2023-09-04T06:00	32528	8	-46.0	-81.2	101	2
2023-09-04T06:00	32551	8	-46.1	-81.3	97	2
2023-09-04T06:00	32591	8	-46.1	-81.3	82	1
2023-09-04T06:00	32627	8	-46.3	-81.4	41	1
2023-09-04T06:00	32653	8	-46.5	-81.6	4	1
2023-09-04T06:00	32688	8	-46.7	-81.7	354	2
2023-09-04T06:00	32706	8	-46.8	-81.8	353	2
2023-09-04T06:00	32756	8	-46.7	-81.7	357	2
2023-09-04T06:00	32785	8	-46.6	-81.7	2	2
2023-09-04T06:00	32814	8	-46.6	-81.7	9	2
2023-09-04T06:00	32856	8	-46.6	-81.7	17	2
2023-09-04T06:00	32886	8	-46.4	-82.4	28	2
2023-09-04T06:00	32899	8	-46.2	-82.3	41	2
2023-09-04T06:00	32945	8	-45.7	-81.9	55	2
2023-09-04T06:00	32980	8	-45.1	-81.5	67	2
2023-09-04T06:00	33022	8	-44.6	-82.2	78	2
2023-09-04T06:00	33029	8	-44.3	-82.0	91	2
2023-09-04T06:00	33076	8	-44.0	-81.8	109	1
2023-09-04T06:00	33092	8	-43.9	-81.8	136	1
2023-09-04T06:00	33143	8	-43.8	-81.7	170	1
2023-09-04T06:00	33184	8	-43.8	-81.7	205	1
2023-09-04T06:00	33209	8	-43.9	-80.7	243	1
2023-09-04T06:00	33217	8	-43.8	-80.6	276	1
2023-09-04T06:00	33248	8	-43.8	-80.6	297	1
2023-09-04T06:00	33284	8	-43.8	-80.6	307	2
2023-09-04T06:00	33316	8	-43.8	-80.6	314	2
2023-09-04T06:00	33363	7	-43.8	-80.6	319	3
2023-09-04T06:00	33386	7	-43.8	-80.6	323	4
2023-09-04T06:00	33422	7	-43.8	-80.6	325	4
2023-09-04T06:00	33452	7	-43.7	-80.5	327	5
2023-09-04T06:00	33500	7	-43.8	-80.6	327	5
2023-09-04T06:00	33528	7	-43.5	-80.4	328	6
2023-09-04T06:00	33546	7	-43.3	-81.3	328	6
2023-09-04T06:00	33598	7	-43.2	-81.3	330	6
2023-09-04T06:00	33625	7	-43.1	-81.2	332	6
2023-09-04T06:00	33662	7	-43.1	-81.2	336	5
2023-09-04T06:00	33696	7	-42.9	-81.1	341	5
2023-09-04T06:00	33701	7	-42.7	-80.9	347	5
2023-09-04T06:00	33750	7	-42.4	-80.7	351	5
2023-09-04T06:00	33765	7	-42.2	-80.6	355	6
2023-09-04T06:00	33804	7	-42.1	-80.5	357	6
2023-09-04T06:00	33846	7	-42.0	-80.4	359	6
2023-09-04T06:00	33882	7	-41.8	-80.3	0	5
2023-09-04T06:00	33896	7	-41.6	-80.1	3	5
2023-09-04T06:00	33953	7	-41.5	-80.1	7	5
2023-09-04T06:00	33970	7	-41.4	-80.0	12	5
2023-09-04T06:00	34005	7	-41.5	-80.1	19	5
2023-09-04T06:00	34028	7	-41.6	-80.1	25	4
2023-09-04T06:00	34061	7	-41.7	-80.2	32	4
2023-09-04T06:00	34094	7	-41.7	-80.2	37	4
2023-09-04T06:00	34132	7	-41.8	-80.3	42	4
2023-09-04T06:00	34170	7	-41.8	-80.3	46	4
2023-09-04T06:00	34185	7	-41.7	-80.2	50	4
2023-09-04T06:00	34220	7	-41.6	-80.1	54	4
2023-09-04T06:00	34265	7	-41.5	-80.1	59	5
2023-09-04T06:00	34310	7	-41.3	-79.9	65	5
2023-09-04T06:00	34328	7	-41.2	-79.9	71	5
2023-09-04T06:00	34348	6	-41.2	-79.9	78	5
2023-09-04T06:00	34356	6	-41.2	-79.9	85	5
2023-09-04T06:00	34403	6	-41.2	-79.9	92	5
2023-09-04T06:00	34442	6	-41.2	-79.9	99	5
2023-09-04T06:00	34459	6	-41.2	-79.9	104	6
2023-09-04T06:00	34506	6	-41.1	-79.8	107	6
2023-09-04T06:00	34541	6	-41.0	-79.7	108	6
2023-09-04T06:00	34579	6	-40.8	-79.6	106	6
2023-09-04T12:00	112	1016	22.0	11.7	260	3
2023-09-04T12:00	140	1013	21.0	13.1	301	2
2023-09-04T12:00	174	1009	20.3	12.5	309	2
2023-09-04T12:00	207	1005	20.2	12.5	315	3
2023-09-04T12:00	237	1001	19.5	12.3	318	3
2023-09-04T12:00	271	998	19.4	12.3	318	3
2023-09-04T12:00	306	994	18.8	12.2	316	3
2023-09-04T12:00	340	990	18.3	11.9	315	2
2023-09-04T12:00	372	986	18.0	11.9	317	2
2023-09-04T12:00	392	983	17.6	11.9	326	2
2023-09-04T12:00	427	980	17.3	11.9	340	2
2023-09-04T12:00	458	976	17.0	11.8	352	2
2023-09-04T12:00	481	973	16.8	11.7	3	2
2023-09-04T12:00	510	970	16.5	11.6	12	2
2023-09-04T12:00	538	967	16.4	11.7	20	2
2023-09-04T12:00	564	964	16.0	11.6	23	2
2023-09-04T12:00	593	961	15.8	11.5	18	2
2023-09-04T12:00	619	958	15.5	11.5	6	2
2023-09-04T12:00	646	955	15.3	11.5	353	2
2023-09-04T12:00	677	951	15.0	11.5	344	2
2023-09-04T12:00	700	949	14.8	11.5	341	3
2023-09-04T12:00	725	946	14.5	11.3	341	3
2023-09-04T12:00	748	943	14.2	11.3	344	4
2023-09-04T12:00	772	941	14.0	11.1	350	4
2023-09-04T12:00	792	938	13.8	11.2	358	4
2023-09-04T12:00	818	936	13.6	11.0	6	4
2023-09-04T12:00	840	933	13.4	10.9	12	4
2023-09-04T12:00	861	931	13.2	10.9	14	4
2023-09-04T12:00	889	928	13.0	11.0	14	4
2023-09-04T12:00	919	924	12.7	10.9	11	4
2023-09-04T12:00	947	921	12.4	10.8	8	3
2023-09-04T12:00	975	918	12.2	10.7	8	2
2023-09-04T12:00	998	916	12.0	10.6	14	2
2023-09-04T12:00	1021	913	11.7	10.6	29	2
2023-09-04T12:00	1045	911	11.5	10.8	46	2
2023-09-04T12:00	1067	908	11.4	10.3	54	2
2023-09-04T12:00	1087	906	11.2	10.3	53	2
2023-09-04T12:00	1111	903	11.0	9.7	46	2
2023-09-04T12:00	1137	901	10.8	9.8	38	2
2023-09-04T12:00	1164	898	10.9	7.5	31	3
2023-09-04T12:00	1186	895	11.4	5.6	25	3
2023-09-04T12:00	1209	893	11.7	4.9	19	3
2023-09-04T12:00	1234	890	11.8	4.2	14	3
2023-09-04T12:00	1258	888	11.9	3.2	12	3
2023-09-04T12:00	1284	885	12.0	2.6	14	4
2023-09-04T12:00	1306	883	11.9	1.9	19	4
2023-09-04T12:00	1328	880	12.4	0.1	23	4
2023-09-04T12:00	1357	878	12.7	-0.9	25	4
2023-09-04T12:00	1375	875	12.7	-1.4	24	4
2023-09-04T12:00	1397	873	12.6	-1.7	20	4
2023-09-04T12:00	1416	871	12.6	-2.3	15	4
2023-09-04T12:00	1437	869	12.5	0.2	10	4
2023-09-04T12:00	1464	866	12.4	1.7	6	4
2023-09-04T12:00	1489	864	12.3	3.5	2	4
2023-09-04T12:00	1509	861	12.2	3.2	1	4
2023-09-04T12:00	1530	859	12.1	3.3	1	4
2023-09-04T12:00	1560	856	11.8	7.0	5	4
2023-09-04T12:00	1582	854	11.6	7.7	12	5
2023-09-04T12:00	1601	852	11.4	8.1	19	5
2023-09-04T12:00	1634	849	11.3	8.6	27	6
2023-09-04T12:00	1658	846	11.6	8.2	34	6
2023-09-04T12:00	1681	844	11.6	8.1	42	7
2023-09-04T12:00	1718	841	11.4	7.9	47	7
2023-09-04T12:00	1740	838	11.4	7.8	51	8
2023-09-04T12:00	1761	836	11.5	8.2	51	8
2023-09-04T12:00	1787	834	11.5	8.7	49	8
2023-09-04T12:00	1809	831	11.7	7.6	45	8
2023-09-04T12:00	1829	829	11.7	7.0	42	9
2023-09-04T12:00	1854	827	11.6	6.9	40	9
2023-09-04T12:00	1889	823	11.4		39	9
2023-09-04T12:00	1918	820	11.2	6.9	37	8
2023-09-04T12:00	1945	818	11.3	7.9	35	8
2023-09-04T12:00	1965	816	11.1	8.0	33	8
2023-09-04T12:00	1983	814	11.0	8.1	30	7
2023-09-04T12:00	2010	811	11.0	8.3	28	7
2023-09-04T12:00	2037	809	10.9	7.8	28	7
2023-09-04T12:00	2056	807	10.8	7.7	29	7
2023-09-04T12:00	2072	805	10.7	7.6	30	7
2023-09-04T12:00	2097	803	10.6	7.1	30	8
2023-09-04T12:00	2122	801	10.5	7.1	27	8
2023-09-04T12:00	2142	799	10.3	7.0	21	8
2023-09-04T12:00	2164	796	10.2	7.3	15	8
2023-09-04T12:00	2194	794	10.1	6.9	9	8
2023-09-04T12:00	2222	791	10.1	7.0	5	8
2023-09-04T12:00	2243	789	10.1	6.8	3	8
2023-09-04T12:00	2264	787	10.0	6.6	3	7
2023-09-04T12:00	2285	785	9.8	6.5	6	7
2023-09-04T12:00	2305	783	9.7	6.4	8	7
2023-09-04T12:00	2323	781	9.6	6.4	8	8
2023-09-04T12:00	2349	779	9.5	6.2	6	8
2023-09-04T12:00	2377	777	9.4	5.9	4	8
2023-09-04T12:00	2400	774	9.3	5.6	1	9
2023-09-04T12:00	2423	772	9.2	5.5	359	9
2023-09-04T12:00	2444	770	9.1	6.0	358	9
2023-09-04T12:00	2459	769	9.0	6.1	357	9
2023-09-04T12:00	2479	767	8.9	6.2	356	9
2023-09-04T12:00	2510	764	8.7	5.8	357	9
2023-09-04T12:00	2542	761	8.5	5.9	358	10
2023-09-04T12:00	2564	759	8.4		1	10
2023-09-04T12:00	2587	757	8.4	5.8	4	11
2023-09-04T12:00	2607	755	8.3	6.1	7	11
2023-09-04T12:00	2626	754	8.2	6.2	10	11
2023-09-04T12:00	2647	752	8.1	6.0	12	12
2023-09-04T12:00	2673	749	8.1	5.6	14	12
2023-09-04T12:00	2694	747	8.1	4.7	14	12
2023-09-04T12:00	2724	745	8.0	3.7	14	12
2023-09-04T12:00	2742	743	7.9	2.6	13	12
2023-09-04T12:00	2763	741	7.9	1.8	13	12
2023-09-04T12:00	2789	739	7.8	1.9	12	11
2023-09-04T12:00	2812	737	7.8	3.2	12	11
2023-09-04T12:00	2837	735	8.0	1.3	12	11
2023-09-04T12:00	2858	733	8.1	0.2	12	11
2023-09-04T12:00	2880	731	8.0	-0.3	12	11
2023-09-04T12:00	2903	729	7.8	-0.6	12	12
2023-09-04T12:00	2923	727	7.7	-0.7	12	12
2023-09-04T12:00	2956	724	7.5	-0.9	12	12
2023-09-04T12:00	2976	722	7.4	-0.9	13	13
2023-09-04T12:00	3004	720	7.3	-1.2	13	13
2023-09-04T12:00	3028	718	7.2	-1.4	13	13
2023-09-04T12:00	3051	716	7.1	-1.7	13	13
2023-09-04T12:00	3074	714	7.0	-1.9	13	12
2023-09-04T12:00	3095	712	7.0	-2.4	12	12
2023-09-04T12:00	3113	710	6.9	-3.0	11	12
2023-09-04T12:00	3138	708	6.8	-3.4	10	12
2023-09-04T12:00	3162	706	6.7	-3.6	9	13
2023-09-04T12:00	3195	704	6.6	-5.7	8	13
2023-09-04T12:00	3212	702	6.6	-5.7	6	13
2023-09-04T12:00	3234	700	6.5	-5.9	5	13
2023-09-04T12:00	3265	697	6.4	-6.0	5	13
2023-09-04T12:00	3287	696	6.3	-5.6	5	14
2023-09-04T12:00	3304	694	6.3	-6.3	5	14
2023-09-04T12:00	3324	692	6.3	-6.5	5	14
2023-09-04T12:00	3341	691	6.2	-7.3	5	15
2023-09-04T12:00	3363	689	6.2	-7.0	5	15
2023-09-04T12:00	3386	687	6.1	-5.7	4	15
2023-09-04T12:00	3417	685	5.9	-4.7	3	15
2023-09-04T12:00	3440	683	5.7	-4.6	2	15
2023-09-04T12:00	3465	681	5.5	-4.0	1	15
2023-09-04T12:00	3490	678	5.3	-2.9	1	14
2023-09-04T12:00	3507	677	5.3	-2.4	2	14
2023-09-04T12:00	3535	675	5.1	-2.3	3	14
2023-09-04T12:00	3568	672	4.9	-2.4	4	14
2023-09-04T12:00	3592	670	4.7	-2.6	5	14
2023-09-04T12:00	3612	668	4.5	-3.0	6	14
2023-09-04T12:00	3633	667	4.4	-3.0	7	13
2023-09-04T12:00	3658	665	4.2	-4.8	9	13
2023-09-04T12:00	3679	663	4.1	-5.1	9	13
2023-09-04T12:00	3704	661	3.9	-4.7	9	13
2023-09-04T12:00	3733	659	3.6	-3.0	9	14
2023-09-04T12:00	3759	656	3.4	-3.1	8	14
2023-09-04T12:00	3781	655	3.2	-2.6	7	14
2023-09-04T12:00	3807	652	3.0	-2.8	7	14
2023-09-04T12:00	3834	650	2.8	-3.0	7	14
2023-09-04T12:00	3854	649	2.6	-3.2	7	14
2023-09-04T12:00	3872	647	2.5	-3.3	8	14
2023-09-04T12:00	3887	646	2.4	-3.0	8	14
2023-09-04T12:00	3907	645	2.3	-3.1	9	14
2023-09-04T12:00	3925	643	2.2	-3.5	10	14
2023-09-04T12:00	3948	641	2.1	-4.4	10	14
2023-09-04T12:00	3976	639	2.1	-6.7	11	14
2023-09-04T12:00	3994	638	2.0	-7.3	11	14
2023-09-04T12:00	4013	636	1.9	-8.5	10	15
2023-09-04T12:00	4037	634	1.7	-8.6	9	15
2023-09-04T12:00	4062	632	1.7	-10.4	8	15
2023-09-04T12:00	4086	630	1.4	-4.0	7	16
2023-09-04T12:00	4110	629	1.2	-4.0	7	16
2023-09-04T12:00	4134	627	0.9	-4.1	8	16
2023-09-04T12:00	4156	625	0.7	-4.1	10	15
2023-09-04T12:00	4183	623	0.5	-4.3	11	15
2023-09-04T12:00	4215	620	0.3	-4.1	12	14
2023-09-04T12:00	4237	619	0.1	-4.1	13	14
2023-09-04T12:00	4256	617	-0.1	-4.1	13	14
2023-09-04T12:00	4279	615	-0.3	-4.1	12	14
2023-09-04T12:00	4309	613	-0.5	-4.9	10	15
2023-09-04T12:00	4329	611	-0.7	-4.5	8	15
2023-09-04T12:00	4358	609	-0.8	-4.5	6	16
2023-09-04T12:00	4383	607	-1.0	-4.7	5	16
2023-09-04T12:00	4406	606	-1.2	-4.9	6	17
2023-09-04T12:00	4429	604	-1.3	-4.8	7	16
2023-09-04T12:00	4455	602	-1.6	-5.0	9	16
2023-09-04T12:00	4491	599	-1.9	-4.9	11	16
2023-09-04T12:00	4518	597	-2.1	-5.4	12	16
2023-09-04T12:00	4539	596	-2.1	-6.3	12	17
2023-09-04T12:00	4564	594	-2.0	-11.1	12	17
2023-09-04T12:00	4592	592	-2.1	-9.5	11	18
2023-09-04T12:00	4612	590	-2.3	-9.7	10	18
2023-09-04T12:00	4630	589	-2.5	-9.4	8	17
2023-09-04T12:00	4649	587	-2.6		7	17
2023-09-04T12:00	4670	586	-2.8	-8.9	5	17
2023-09-04T12:00	4701	584	-2.9	-10.0	4	17
2023-09-04T12:00	4730	582	-2.9	-10.5	4	17
2023-09-04T12:00	4757	579	-3.0	-9.3	5	17
2023-09-04T12:00	4790	577	-3.1	-9.1	8	17
2023-09-04T12:00	4816	575	-2.9	-13.6	11	17
2023-09-04T12:00	4840	574	-2.8	-16.7	14	17
2023-09-04T12:00	4861	572	-2.8	-18.6	16	17
2023-09-04T12:00	4879	571	-3.0	-19.0	16	17
2023-09-04T12:00	4897	569	-3.1	-19.7	15	17
2023-09-04T12:00	4915	568	-3.2	-19.6	14	16
2023-09-04T12:00	4935	567	-3.4	-18.6	12	16
2023-09-04T12:00	4955	565	-3.4	-18.1	11	17
2023-09-04T12:00	4980	563	-3.6	-17.9	9	17
2023-09-04T12:00	5007	561	-3.8	-15.4	7	17
2023-09-04T12:00	5038	559	-3.9	-13.0	5	17
2023-09-04T12:00	5065	557	-4.1	-12.8	3	17
2023-09-04T12:00	5098	555	-4.0	-12.3	1	17
2023-09-04T12:00	5112	554	-4.0	-12.5	1	18
2023-09-04T12:00	5130	553	-4.0	-13.0	1	18
2023-09-04T12:00	5149	552	-4.1	-13.8	2	19
2023-09-04T12:00	5170	550	-4.1	-11.3	3	19
2023-09-04T12:00	5197	548	-4.1	-10.6	4	19
2023-09-04T12:00	5231	546	-4.2	-10.4	5	19
2023-09-04T12:00	5254	544	-4.4	-10.4	6	19
2023-09-04T12:00	5269	543	-4.6	-10.4	6	19
2023-09-04T12:00	5291	542	-4.8	-10.4	6	19
2023-09-04T12:00	5319	540	-5.0	-10.4	6	19
2023-09-04T12:00	5336	539	-5.2	-10.5	5	19
2023-09-04T12:00	5358	537	-5.4	-10.6	5	19
2023-09-04T12:00	5381	535	-5.5	-10.7	5	19
2023-09-04T12:00	5412	533	-5.4	-11.5	5	19
2023-09-04T12:00	5437	532	-5.1	-12.9	5	19
2023-09-04T12:00	5450	531	-5.0	-13.8	5	19
2023-09-04T12:00	5468	530	-5.0	-14.1	4	19
2023-09-04T12:00	5489	528	-5.0	-14.7	5	19
2023-09-04T12:00	5519	526	-5.0	-15.7	6	20
2023-09-04T12:00	5536	525	-5.0	-16.1	8	20
2023-09-04T12:00	5559	523	-5.2	-16.4	10	20
2023-09-04T12:00	5589	522	-5.4	-17.0	12	20
2023-09-04T12:00	5603	520	-5.5	-17.0	14	21
2023-09-04T12:00	5620	519	-5.6	-17.4	14	21
2023-09-04T12:00	5639	518	-5.7	-17.8	14	21
2023-09-04T12:00	5656	517	-5.8	-18.4	13	21
2023-09-04T12:00	5677	516	-5.9	-19.1	13	21
2023-09-04T12:00	5698	514	-6.1	-19.2	13	21
2023-09-04T12:00	5718	513	-6.2	-20.1	13	21
2023-09-04T12:00	5744	511	-6.5	-20.9	13	21
2023-09-04T12:00	5774	509	-6.7	-22.3	14	21
2023-09-04T12:00	5800	508	-6.8	-24.1	15	21
2023-09-04T12:00	5836	505	-7.1	-26.1	16	21
2023-09-04T12:00	5868	503	-7.3	-31.2	16	22
2023-09-04T12:00	5892	502	-7.5	-31.9	15	22
2023-09-04T12:00	5909	501	-7.7	-30.7	14	22
2023-09-04T12:00	5929	499	-7.8	-30.2	13	22
2023-09-04T12:00	5949	498	-7.9	-26.5	12	23
2023-09-04T12:00	5969	497	-8.1		11	23
2023-09-04T12:00	5988	495	-8.2	-22.5	11	22
2023-09-04T12:00	6013	494	-8.4	-22.8	11	22
2023-09-04T12:00	6040	492	-8.5	-23.3	12	22
2023-09-04T12:00	6073	490	-8.8	-23.9	14	22
2023-09-04T12:00	6105	488	-8.9	-23.8	15	22
2023-09-04T12:00	6135	486	-9.1	-21.4	16	22
2023-09-04T12:00	6157	485	-9.3	-20.9	16	22
2023-09-04T12:00	6181	483	-9.5	-20.0	15	22
2023-09-04T12:00	6212	481	-9.8	-19.9	14	22
2023-09-04T12:00	6244	479	-10.1	-20.4	13	22
2023-09-04T12:00	6271	478	-10.3	-20.5	12	22
2023-09-04T12:00	6298	476	-10.6	-20.2	12	22
2023-09-04T12:00	6326	474	-10.8	-20.7	12	22
2023-09-04T12:00	6360	472	-11.0	-21.2	11	22
2023-09-04T12:00	6389	470	-11.2	-21.7	11	22
2023-09-04T12:00	6419	469	-11.4	-21.9	11	23
2023-09-04T12:00	6451	467	-11.7	-22.3	11	23
2023-09-04T12:00	6474	465	-11.8	-21.3	11	24
2023-09-04T12:00	6500	463	-11.8	-22.9	10	24
2023-09-04T12:00	6534	462	-11.8	-24.0	8	24
2023-09-04T12:00	6556	460	-11.7	-24.7	6	23
2023-09-04T12:00	6583	459	-11.6	-26.1	4	23
2023-09-04T12:00	6599	458	-11.7	-26.6	2	23
2023-09-04T12:00	6615	457	-11.8	-26.6	1	23
2023-09-04T12:00	6634	456	-12.0	-26.6	1	23
2023-09-04T12:00	6652	455	-12.2	-27.0	2	23
2023-09-04T12:00	6671	453	-12.3	-27.2	2	23
2023-09-04T12:00	6686	453	-12.4	-27.6	3	24
2023-09-04T12:00	6703	451	-12.5	-27.9	3	24
2023-09-04T12:00	6719	450	-12.6	-28.3	3	23
2023-09-04T12:00	6738	449	-12.7	-28.7	3	23
2023-09-04T12:00	6755	448	-12.8	-28.9	3	23
2023-09-04T12:00	6774	447	-12.8	-29.1	3	23
2023-09-04T12:00	6790	446	-13.0	-29.1	3	23
2023-09-04T12:00	6809	445	-13.1	-29.1	2	23
2023-09-04T12:00	6826	444	-13.2	-28.9	2	23
2023-09-04T12:00	6844	443	-13.3	-28.8	1	23
2023-09-04T12:00	6865	442	-13.5	-28.3	1	23
2023-09-04T12:00	6884	441	-13.6	-28.5	0	23
2023-09-04T12:00	6903	440	-13.7	-28.5	360	23
2023-09-04T12:00	6922	439	-13.9	-28.6	359	23
2023-09-04T12:00	6947	437	-14.1	-28.8	359	23
2023-09-04T12:00	6982	435	-14.3	-29.8	359	24
2023-09-04T12:00	7010	434	-14.5	-30.2	358	24
2023-09-04T12:00	7041	432	-14.8	-30.2	359	24
2023-09-04T12:00	7070	430	-15.0	-30.4	359	24
2023-09-04T12:00	7090	429	-15.1	-30.3	359	24
2023-09-04T12:00	7107	428	-15.3	-30.1	359	24
2023-09-04T12:00	7125	427	-15.4	-30.4	360	23
2023-09-04T12:00	7148	426	-15.4	-31.0	360	23
2023-09-04T12:00	7164	425	-15.4	-32.0	360	22
2023-09-04T12:00	7183	424	-15.5	-32.2	360	22
2023-09-04T12:00	7200	423	-15.5	-32.5	0	22
2023-09-04T12:00	7221	422	-15.6	-33.3	0	22
2023-09-04T12:00	7237	421	-15.5	-33.9	1	22
2023-09-04T12:00	7262	420	-15.6	-34.3	1	22
2023-09-04T12:00	7282	418	-15.6	-35.3	2	22
2023-09-04T12:00	7306	417	-15.6	-36.2	2	22
2023-09-04T12:00	7329	416	-15.5	-36.7	2	22
2023-09-04T12:00	7356	414	-15.7	-36.8	2	23
2023-09-04T12:00	7386	413	-15.9	-37.0	2	23
2023-09-04T12:00	7419	411	-16.2	-37.2	1	23
2023-09-04T12:00	7438	410	-16.4	-37.2	360	24
2023-09-04T12:00	7461	408	-16.4	-37.7	358	24
2023-09-04T12:00	7486	407	-16.6	-38.2	356	24
2023-09-04T12:00	7516	406	-16.6	-38.8	354	25
2023-09-04T12:00	7545	404	-16.7	-39.4	353	25
2023-09-04T12:00	7575	402	-17.0	-39.6	352	25
2023-09-04T12:00	7604	401	-17.2	-39.4	351	25
2023-09-04T12:00	7634	399	-17.5	-39.3	350	25
2023-09-04T12:00	7660	398	-17.7	-39.3	350	25
2023-09-04T12:00	7688	396	-17.9	-39.2	350	25
2023-09-04T12:00	7720	395	-18.0	-40.2	350	25
2023-09-04T12:00	7752	393	-18.2	-40.4	350	26
2023-09-04T12:00	7783	391	-18.5		350	26
2023-09-04T12:00	7813	390	-18.8	-40.4	351	26
2023-09-04T12:00	7847	388	-19.1	-41.1	352	26
2023-09-04T12:00	7875	386	-19.3	-41.0	353	26
2023-09-04T12:00	7905	385	-19.6	-41.2	354	26
2023-09-04T12:00	7928	384	-19.9	-41.3	354	26
2023-09-04T12:00	7965	382	-20.2	-41.5	354	26
2023-09-04T12:00	7998	380	-20.5	-41.7	354	26
2023-09-04T12:00	8028	379	-20.8	-41.9	354	25
2023-09-04T12:00	8057	377	-21.0	-41.8	353	25
2023-09-04T12:00	8085	376	-21.3	-42.1	354	25
2023-09-04T12:00	8112	374	-21.5	-42.3	354	25
2023-09-04T12:00	8144	373	-21.8	-42.4	354	25
2023-09-04T12:00	8180	371	-22.1	-42.5	355	25
2023-09-04T12:00	8214	369	-22.4	-42.6	355	25
2023-09-04T12:00	8242	368	-22.7	-43.0	355	25
2023-09-04T12:00	8271	366	-22.9	-43.4	355	25
2023-09-04T12:00	8299	365	-23.1	-43.6	356	24
2023-09-04T12:00	8326	364	-23.3	-43.6	356	24
2023-09-04T12:00	8357	362	-23.6	-43.8	355	24
2023-09-04T12:00	8384	361	-23.8	-44.3	355	24
2023-09-04T12:00	8416	359	-24.0	-44.7	354	24
2023-09-04T12:00	8450	357	-24.3	-44.9	354	24
2023-09-04T12:00	8480	356	-24.5	-44.9	353	24
2023-09-04T12:00	8507	355	-24.8	-44.9	353	24
2023-09-04T12:00	8539	353	-25.1	-45.0	353	24
2023-09-04T12:00	8570	352	-25.2	-45.6	354	25
2023-09-04T12:00	8601	350	-25.5	-46.2	355	25
2023-09-04T12:00	8631	349	-25.7	-46.4	356	26
2023-09-04T12:00	8663	347	-26.0	-46.4	357	26
2023-09-04T12:00	8694	346	-26.2	-46.2	358	26
2023-09-04T12:00	8724	344	-26.3		358	27
2023-09-04T12:00	8749	343	-26.5	-46.9	358	27
2023-09-04T12:00	8781	342	-26.7	-47.0	358	27
2023-09-04T12:00	8805	340	-27.0	-47.1	358	27
2023-09-04T12:00	8837	339	-27.2	-47.2	358	27
2023-09-04T12:00	8865	338	-27.5	-47.4	359	27
2023-09-04T12:00	8897	336	-27.7	-47.8	359	26
2023-09-04T12:00	8929	335	-28.0	-47.8	359	26
2023-09-04T12:00	8958	333	-28.2	-47.5	359	26
2023-09-04T12:00	8989	332	-28.5	-47.5	360	26
2023-09-04T12:00	9014	331	-28.7	-48.1	360	26
2023-09-04T12:00	9043	329	-28.8	-48.6	360	26
2023-09-04T12:00	9066	328	-28.9	-48.8	360	26
2023-09-04T12:00	9087	327	-29.1	-49.2	360	26
2023-09-04T12:00	9108	326	-29.2	-49.4	359	26
2023-09-04T12:00	9130	325	-29.3	-49.6	359	26
2023-09-04T12:00	9157	324	-29.6	-49.7	358	25
2023-09-04T12:00	9180	323	-29.7	-49.9	358	25
2023-09-04T12:00	9207	322	-29.8	-50.1	358	25
2023-09-04T12:00	9235	320	-30.1	-50.3	358	25
2023-09-04T12:00	9263	319	-30.2	-50.9	358	26
2023-09-04T12:00	9288	318	-30.3	-51.1	358	26
2023-09-04T12:00	9313	317	-30.4	-51.2	358	26
2023-09-04T12:00	9338	316	-30.5		358	27
2023-09-04T12:00	9361	315	-30.7	-51.5	357	27
2023-09-04T12:00	9386	314	-30.9	-51.5	357	27
2023-09-04T12:00	9411	313	-31.1	-51.6	357	27
2023-09-04T12:00	9439	311	-31.4	-51.7	357	27
2023-09-04T12:00	9466	310	-31.6	-51.9	357	28
2023-09-04T12:00	9494	309	-31.8	-52.5	357	28
2023-09-04T12:00	9525	308	-32.0	-53.5	357	28
2023-09-04T12:00	9564	306	-32.1	-54.6	358	28
2023-09-04T12:00	9593	305	-32.3	-54.9	358	28
2023-09-04T12:00	9618	304	-32.5	-54.9	359	28
2023-09-04T12:00	9648	302	-32.6	-55.5	359	28
2023-09-04T12:00	9680	301	-32.7	-55.7	360	27
2023-09-04T12:00	9709	300	-33.0	-55.9	0	27
2023-09-04T12:00	9740	298	-33.2	-56.1	0	27
2023-09-04T12:00	9769	297	-33.4	-56.1	0	27
2023-09-04T12:00	9797	296	-33.6	-56.3	0	27
2023-09-04T12:00	9825	295	-33.9	-56.6	0	27
2023-09-04T12:00	9850	294	-34.0	-56.6	0	27
2023-09-04T12:00	9878	293	-34.3	-56.9	1	27
2023-09-04T12:00	9908	291	-34.5	-56.9	1	28
2023-09-04T12:00	9938	290	-34.7	-57.3	1	28
2023-09-04T12:00	9963	289	-34.8	-57.6	1	28
2023-09-04T12:00	9983	288	-34.9	-58.0	1	28
2023-09-04T12:00	10006	287	-35.0	-58.3	0	29
2023-09-04T12:00	10028	286	-35.2	-58.2	360	29
2023-09-04T12:00	10049	286	-35.3	-58.2	359	29
2023-09-04T12:00	10067	285	-35.5	-58.2	359	29
2023-09-04T12:00	10089	284	-35.7	-58.5	359	29
2023-09-04T12:00	10110	283	-35.8	-58.6	358	29
2023-09-04T12:00	10132	282	-36.0	-58.7	359	29
2023-09-04T12:00	10152	281	-36.2	-58.8	358	29
2023-09-04T12:00	10177	280	-36.3	-58.8	358	29
2023-09-04T12:00	10204	279	-36.5	-58.1	358	29
2023-09-04T12:00	10227	278	-36.8	-57.9	358	30
2023-09-04T12:00	10254	277	-37.0	-57.7	358	30
2023-09-04T12:00	10284	276	-37.3	-57.2	357	30
2023-09-04T12:00	10316	275	-37.6	-56.7	357	30
2023-09-04T12:00	10344	274	-37.9	-56.4	357	30
2023-09-04T12:00	10372	272	-38.2	-56.4	356	30
2023-09-04T12:00	10400	271	-38.4	-55.3	356	30
2023-09-04T12:00	10427	270	-38.7	-54.0	356	29
2023-09-04T12:00	10457	269	-38.9	-54.4	356	29
2023-09-04T12:00	10485	268	-39.2	-56.6	357	29
2023-09-04T12:00	10514	267	-39.4	-58.3	358	28
2023-09-04T12:00	10537	266	-39.6	-58.1	359	28
2023-09-04T12:00	10564	265	-39.8	-57.1	0	29
2023-09-04T12:00	10587	264	-40.0	-55.7	1	29
2023-09-04T12:00	10617	263	-40.3	-54.6	2	29
2023-09-04T12:00	10649	262	-40.5	-54.7	2	29
2023-09-04T12:00	10677	261	-40.8	-55.1	3	29
2023-09-04T12:00	10706	260	-41.0	-55.3	3	29
2023-09-04T12:00	10735	258	-41.3	-55.6	4	29
2023-09-04T12:00	10759	257	-41.6	-55.9	4	28
2023-09-04T12:00	10785	256	-41.8	-56.1	5	28
2023-09-04T12:00	10809	256	-42.0	-56.1	5	28
2023-09-04T12:00	10831	255	-42.3	-56.1	6	28
2023-09-04T12:00	10853	254	-42.5	-56.0	6	28
2023-09-04T12:00	10872	253	-42.6	-56.0	6	28
2023-09-04T12:00	10892	252	-42.8	-55.8	6	28
2023-09-04T12:00	10911	252	-43.0	-55.7	6	28
2023-09-04T12:00	10930	251	-43.2	-55.6	6	28
2023-09-04T12:00	10951	250	-43.3	-55.7	6	28
2023-09-04T12:00	10970	250	-43.5	-55.8	6	28
2023-09-04T12:00	10990	249	-43.7	-55.6	6	28
2023-09-04T12:00	11008	248	-43.9	-55.2	6	27
2023-09-04T12:00	11027	247	-44.0	-54.7	6	27
2023-09-04T12:00	11046	247	-44.1	-54.9	6	27
2023-09-04T12:00	11066	246	-44.2	-55.7	7	27
2023-09-04T12:00	11086	245	-44.4	-57.5	7	27
2023-09-04T12:00	11105	245	-44.5	-57.2	7	28
2023-09-04T12:00	11127	244	-44.7	-56.3	7	28
2023-09-04T12:00	11148	243	-44.9	-55.9	7	29
2023-09-04T12:00	11172	242	-45.2	-56.0	6	29
2023-09-04T12:00	11206	241	-45.5	-56.2	5	29
2023-09-04T12:00	11240	240	-45.7	-56.6	4	30
2023-09-04T12:00	11272	239	-46.0	-57.0	4	30
2023-09-04T12:00	11302	237	-46.1	-57.7	4	30
2023-09-04T12:00	11329	237	-46.2	-58.7	4	30
2023-09-04T12:00	11355	236	-46.3	-59.3	5	30
2023-09-04T12:00	11382	235	-46.5	-59.5	5	30
2023-09-04T12:00	11409	234	-46.7	-59.9	5	30
2023-09-04T12:00	11434	233	-46.9	-60.2	5	30
2023-09-04T12:00	11461	232	-47.1	-60.5	5	30
2023-09-04T12:00	11485	231	-47.3	-60.6	6	30
2023-09-04T12:00	11508	230	-47.4	-60.3	6	30
2023-09-04T12:00	11526	230	-47.5	-60.7	7	30
2023-09-04T12:00	11548	229	-47.6	-61.6	7	30
2023-09-04T12:00	11565	228	-47.6	-61.5	8	30
2023-09-04T12:00	11583	228	-47.8	-60.7	8	30
2023-09-04T12:00	11604	227	-47.9	-59.4	9	30
2023-09-04T12:00	11620	226	-48.1	-58.2	9	30
2023-09-04T12:00	11639	226	-48.3	-57.4	8	30
2023-09-04T12:00	11656	225	-48.4	-57.4	8	30
2023-09-04T12:00	11673	225	-48.3	-59.4	8	30
2023-09-04T12:00	11689	224	-48.3	-62.3	7	29
2023-09-04T12:00	11711	223	-48.4	-63.4	7	29
2023-09-04T12:00	11730	223	-48.6	-63.6	7	29
2023-09-04T12:00	11748	222	-48.7	-63.4	7	29
2023-09-04T12:00	11766	221	-48.9	-63.4	7	29
2023-09-04T12:00	11782	221	-49.1	-63.5	7	29
2023-09-04T12:00	11800	220	-49.2	-63.7	7	29
2023-09-04T12:00	11817	220	-49.3	-64.0	7	29
2023-09-04T12:00	11834	219	-49.5	-64.1	6	28
2023-09-04T12:00	11852	219	-49.6	-64.0	6	28
2023-09-04T12:00	11867	218	-49.8	-64.1	7	28
2023-09-04T12:00	11887	217	-50.0	-64.2	7	28
2023-09-04T12:00	11905	217	-50.1	-64.3	7	28
2023-09-04T12:00	11924	216	-50.3	-64.6	8	28
2023-09-04T12:00	11941	216	-50.4	-64.6	8	28
2023-09-04T12:00	11960	215	-50.6	-64.8	8	28
2023-09-04T12:00	11977	214	-50.7	-64.9	8	28
2023-09-04T12:00	11996	214	-50.9	-65.1	9	28
2023-09-04T12:00	12017	213	-51.0	-65.3	9	27
2023-09-04T12:00	12032	213	-51.1	-65.3	9	27
2023-09-04T12:00	12051	212	-51.2	-65.4	9	27
2023-09-04T12:00	12068	211	-51.3	-65.6	9	27
2023-09-04T12:00	12087	211	-51.4	-65.8	9	27
2023-09-04T12:00	12105	210	-51.5	-66.1	9	27
2023-09-04T12:00	12122	210	-51.6	-66.5	9	27
2023-09-04T12:00	12141	209	-51.5	-66.7	10	26
2023-09-04T12:00	12160	208	-51.5	-66.9	10	26
2023-09-04T12:00	12180	208	-51.6	-67.0	11	26
2023-09-04T12:00	12197	207	-51.7	-67.2	11	26
2023-09-04T12:00	12217	207	-51.8	-67.4	11	26
2023-09-04T12:00	12234	206	-52.0	-67.5	11	26
2023-09-04T12:00	12253	205	-52.1	-67.4	11	26
2023-09-04T12:00	12272	205	-52.3	-67.7	10	26
2023-09-04T12:00	12291	204	-52.3	-68.2	10	26
2023-09-04T12:00	12314	204	-52.2	-69.1	9	26
2023-09-04T12:00	12328	203	-52.1	-69.7	8	26
2023-09-04T12:00	12349	202	-52.1	-69.7	7	26
2023-09-04T12:00	12368	202	-52.2	-69.7	7	26
2023-09-04T12:00	12394	201	-52.3	-69.7	7	27
2023-09-04T12:00	12421	200	-52.5	-69.8	7	27
2023-09-04T12:00	12445	199	-52.7	-69.9	7	27
2023-09-04T12:00	12470	199	-52.9	-70.0	7	28
2023-09-04T12:00	12495	198	-53.1	-70.3	7	28
2023-09-04T12:00	12520	197	-53.4	-70.5	8	28
2023-09-04T12:00	12541	196	-53.6	-70.5	8	29
2023-09-04T12:00	12564	196	-53.9	-70.6	8	29
2023-09-04T12:00	12584	195	-54.0	-70.6	8	29
2023-09-04T12:00	12605	195	-54.2	-70.8	8	29
2023-09-04T12:00	12626	194	-54.4	-70.9	8	29
2023-09-04T12:00	12648	193	-54.6	-71.0	8	29
2023-09-04T12:00	12669	193	-54.8	-70.9	8	29
2023-09-04T12:00	12690	192	-54.9	-70.9	8	29
2023-09-04T12:00	12713	191	-55.2	-71.0	8	29
2023-09-04T12:00	12732	191	-55.3	-71.1	8	29
2023-09-04T12:00	12754	190	-55.6	-71.3	9	29
2023-09-04T12:00	12774	189	-55.8	-71.4	9	29
2023-09-04T12:00	12795	189	-55.9	-71.5	9	29
2023-09-04T12:00	12814	188	-56.1	-71.6	9	29
2023-09-04T12:00	12837	188	-56.1	-71.6	10	29
2023-09-04T12:00	12857	187	-56.4	-71.7	11	29
2023-09-04T12:00	12881	186	-56.5	-71.6	11	29
2023-09-04T12:00	12902	186	-56.6	-71.6	12	29
2023-09-04T12:00	12924	185	-56.8	-71.5	13	28
2023-09-04T12:00	12949	184	-57.0	-71.5	13	28
2023-09-04T12:00	12967	184	-57.2	-71.5	14	28
2023-09-04T12:00	12988	183	-57.3	-71.4	14	28
2023-09-04T12:00	13012	182	-57.5	-71.5	14	28
2023-09-04T12:00	13032	182	-57.6	-71.4	14	28
2023-09-04T12:00	13053	181	-57.7	-71.4	14	27
2023-09-04T12:00	13074	181	-57.8	-71.6	14	27
2023-09-04T12:00	13095	180	-58.1	-72.0	14	27
2023-09-04T12:00	13117	179	-58.1	-72.1	14	28
2023-09-04T12:00	13140	179	-58.1	-72.4	14	28
2023-09-04T12:00	13159	178	-58.2	-72.6	15	28
2023-09-04T12:00	13182	178	-58.3	-72.6	15	28
2023-09-04T12:00	13204	177	-58.4	-72.4	15	28
2023-09-04T12:00	13224	176	-58.5	-72.1	16	28
2023-09-04T12:00	13246	176	-58.6	-71.7	16	28
2023-09-04T12:00	13268	175	-58.8	-71.5	17	28
2023-09-04T12:00	13289	175	-58.9	-71.2	17	28
2023-09-04T12:00	13309	174	-59.0	-71.1	17	27
2023-09-04T12:00	13331	173	-59.1	-71.1	17	27
2023-09-04T12:00	13353	173	-59.2	-71.1	18	26
2023-09-04T12:00	13374	172	-59.2	-71.0	18	26
2023-09-04T12:00	13396	172	-58.9	-70.7	18	25
2023-09-04T12:00	13418	171	-58.8	-70.6	18	25
2023-09-04T12:00	13437	171	-58.8	-70.6	18	24
2023-09-04T12:00	13460	170	-59.0	-70.8	18	24
2023-09-04T12:00	13480	169	-59.0	-70.8	17	23
2023-09-04T12:00	13500	169	-59.3	-71.1	16	23
2023-09-04T12:00	13524	168	-59.4	-71.4	15	23
2023-09-04T12:00	13545	168	-59.3	-71.7	15	23
2023-09-04T12:00	13565	167	-59.1	-72.1	14	23
2023-09-04T12:00	13583	167	-59.1	-72.6	14	23
2023-09-04T12:00	13604	166	-59.2	-72.7	14	23
2023-09-04T12:00	13623	166	-59.3	-72.5	14	23
2023-09-04T12:00	13642	165	-59.5	-72.3	15	23
2023-09-04T12:00	13664	164	-59.7	-72.2	15	23
2023-09-04T12:00	13682	164	-59.8	-72.0	15	22
2023-09-04T12:00	13702	163	-59.9	-72.2	15	22
2023-09-04T12:00	13720	163	-59.8	-72.5	15	21
2023-09-04T12:00	13739	163	-59.5	-73.0	15	21
2023-09-04T12:00	13759	162	-59.5	-73.9	14	20
2023-09-04T12:00	13778	161	-59.4	-74.9	14	20
2023-09-04T12:00	13798	161	-59.3	-76.0	14	20
2023-09-04T12:00	13815	161	-59.1	-77.0	14	20
2023-09-04T12:00	13833	160	-58.9	-77.7	15	19
2023-09-04T12:00	13853	160	-58.9	-78.0	15	19
2023-09-04T12:00	13870	159	-59.0	-77.8	15	19
2023-09-04T12:00	13890	159	-59.1	-77.4	15	19
2023-09-04T12:00	13908	158	-59.2	-77.2	15	19
2023-09-04T12:00	13928	158	-59.4	-77.0	14	18
2023-09-04T12:00	13949	157	-59.5	-76.6	13	18
2023-09-04T12:00	13969	157	-59.6	-76.2	12	18
2023-09-04T12:00	13988	156	-59.8	-75.8	10	17
2023-09-04T12:00	14009	156	-59.9	-75.4	8	17
2023-09-04T12:00	14030	155	-60.0	-75.0	6	17
2023-09-04T12:00	14056	154	-60.2	-74.7	4	16
2023-09-04T12:00	14083	154	-60.4	-74.4	3	16
2023-09-04T12:00	14108	153	-60.6	-74.2	3	16
2023-09-04T12:00	14132	153	-60.7	-74.0	3	16
2023-09-04T12:00	14157	152	-61.0		2	16
2023-09-04T12:00	14181	151	-61.1	-73.9	2	16
2023-09-04T12:00	14201	151	-61.4	-74.0	0	16
2023-09-04T12:00	14227	150	-61.6	-74.0	359	16
2023-09-04T12:00	14249	150	-61.9	-74.0	357	16
2023-09-04T12:00	14275	149	-62.1	-74.0	355	16
2023-09-04T12:00	14296	149	-62.3	-74.1	354	16
2023-09-04T12:00	14321	148	-62.5	-74.1	353	16
2023-09-04T12:00	14349	147	-62.8	-74.2	352	16
2023-09-04T12:00	14369	147	-62.9	-74.1	352	17
2023-09-04T12:00	14390	146	-63.1	-74.2	351	17
2023-09-04T12:00	14413	146	-63.2	-74.2	351	17
2023-09-04T12:00	14434	145	-63.4	-74.2	351	17
2023-09-04T12:00	14455	145	-63.6	-74.3	350	17
2023-09-04T12:00	14480	144	-63.8	-74.4	350	18
2023-09-04T12:00	14500	144	-64.0	-74.5	351	18
2023-09-04T12:00	14520	143	-64.0	-74.5	351	19
2023-09-04T12:00	14538	143	-64.1	-74.7	351	19
2023-09-04T12:00	14560	142	-64.3	-75.0	352	20
2023-09-04T12:00	14585	142	-64.4	-75.3	353	20
2023-09-04T12:00	14607	141	-64.3	-75.3	355	21
2023-09-04T12:00	14627	141	-64.2	-75.4	356	21
2023-09-04T12:00	14647	140	-64.3	-75.6	357	21
2023-09-04T12:00	14670	140	-64.3	-75.7	358	21
2023-09-04T12:00	14689	139	-64.5	-75.9	358	21
2023-09-04T12:00	14711	139	-64.6	-76.0	358	21
2023-09-04T12:00	14731	138	-64.8	-76.2	358	21
2023-09-04T12:00	14752	138	-65.0	-76.4	358	21
2023-09-04T12:00	14774	137	-65.2	-76.6	358	21
2023-09-04T12:00	14797	137	-65.4	-76.8	359	21
2023-09-04T12:00	14818	136	-65.5	-77.0	359	20
2023-09-04T12:00	14839	136	-65.7	-77.1	0	20
2023-09-04T12:00	14862	135	-65.8	-77.2	1	20
2023-09-04T12:00	14883	135	-66.0	-77.4	2	20
2023-09-04T12:00	14903	135	-66.0	-77.3	3	19
2023-09-04T12:00	14923	134	-66.1	-77.4	4	19
2023-09-04T12:00	14945	134	-66.3	-77.7	5	19
2023-09-04T12:00	14964	133	-66.2	-77.7	7	19
2023-09-04T12:00	14987	133	-66.3	-78.1	9	19
2023-09-04T12:00	15007	132	-66.1	-78.3	10	19
2023-09-04T12:00	15027	132	-65.8	-78.5	12	19
2023-09-04T12:00	15048	131	-65.8	-79.1	14	19
2023-09-04T12:00	15067	131	-65.7	-79.6	15	19
2023-09-04T12:00	15087	131	-65.6	-79.9	17	19
2023-09-04T12:00	15110	130	-65.6	-80.2	20	18
2023-09-04T12:00	15130	130	-65.7	-80.4	22	18
2023-09-04T12:00	15152	129	-65.8	-80.6	24	17
2023-09-04T12:00	15181	129	-65.8	-80.6	27	16
2023-09-04T12:00	15212	128	-65.9	-80.6	29	15
2023-09-04T12:00	15235	127	-65.8	-80.5	30	14
2023-09-04T12:00	15259	127	-65.8	-80.6	31	13
2023-09-04T12:00	15282	126	-65.9	-80.7	31	12
2023-09-04T12:00	15305	126	-65.9	-80.8	30	12
2023-09-04T12:00	15328	125	-66.0	-80.9	28	11
2023-09-04T12:00	15354	125	-66.1	-81.0	26	10
2023-09-04T12:00	15378	124	-66.2	-81.2	23	10
2023-09-04T12:00	15399	124	-66.3	-81.4	20	9
2023-09-04T12:00	15422	124	-66.3	-81.4	17	9
2023-09-04T12:00	15442	123	-66.3	-81.6	13	8
2023-09-04T12:00	15465	123	-66.4	-81.7	10	8
2023-09-04T12:00	15486	122	-66.5	-81.8	8	8
2023-09-04T12:00	15507	122	-66.6	-81.9	5	9
2023-09-04T12:00	15529	121	-66.8	-82.0	3	9
2023-09-04T12:00	15553	121	-66.9	-82.1	360	10
2023-09-04T12:00	15577	120	-67.1	-82.3	356	10
2023-09-04T12:00	15602	120	-67.2	-82.3	352	11
2023-09-04T12:00	15624	119	-67.3	-82.5	349	11
2023-09-04T12:00	15647	119	-67.3	-82.6	347	12
2023-09-04T12:00	15671	119	-67.3	-82.7	347	12
2023-09-04T12:00	15695	118	-67.4	-82.8	348	13
2023-09-04T12:00	15720	118	-67.4	-82.9	349	13
2023-09-04T12:00	15746	117	-67.3	-82.9	351	13
2023-09-04T12:00	15770	117	-67.4	-82.9	352	14
2023-09-04T12:00	15791	116	-67.4	-82.9	354	14
2023-09-04T12:00	15816	116	-67.5	-82.9	356	15
2023-09-04T12:00	15842	115	-67.7	-83.2	358	15
2023-09-04T12:00	15866	115	-67.6	-83.1	1	15
2023-09-04T12:00	15890	114	-67.5	-83.2	5	14
2023-09-04T12:00	15914	114	-67.2	-83.2	8	14
2023-09-04T12:00	15936	113	-66.9	-83.1	11	14
2023-09-04T12:00	15960	113	-66.6	-83.1	14	14
2023-09-04T12:00	15986	113	-66.5	-83.2	16	14
2023-09-04T12:00	16008	112	-66.4	-83.2	17	13
2023-09-04T12:00	16030	112	-66.3	-83.2	18	13
2023-09-04T12:00	16055	111	-66.3	-83.2	18	13
2023-09-04T12:00	16075	111	-66.3	-83.3	19	12
2023-09-04T12:00	16096	110	-66.3	-83.3	18	12
2023-09-04T12:00	16123	110	-66.2	-83.3	18	11
2023-09-04T12:00	16147	110	-66.1	-83.2	16	11
2023-09-04T12:00	16169	109	-65.9	-83.1	13	10
2023-09-04T12:00	16193	109	-65.7	-82.9	9	10
2023-09-04T12:00	16218	108	-65.8	-83.0	4	10
2023-09-04T12:00	16239	108	-65.8	-82.9	359	10
2023-09-04T12:00	16264	108	-65.9	-83.0	355	10
2023-09-04T12:00	16284	107	-66.0	-83.1	353	11
2023-09-04T12:00	16303	107	-66.0	-83.1	352	11
2023-09-04T12:00	16325	106	-65.9	-83.1	353	12
2023-09-04T12:00	16343	106	-65.9	-83.2	355	12
2023-09-04T12:00	16368	106	-65.8	-83.2	357	13
2023-09-04T12:00	16388	105	-65.7	-83.3	359	13
2023-09-04T12:00	16407	105	-65.5	-83.3	1	14
2023-09-04T12:00	16430	105	-65.3	-83.2	2	15
2023-09-04T12:00	16453	104	-65.4	-83.5	5	15
2023-09-04T12:00	16475	104	-65.4	-83.7	7	16
2023-09-04T12:00	16497	103	-65.2	-83.7	10	16
2023-09-04T12:00	16519	103	-65.2	-84.0	13	16
2023-09-04T12:00	16537	103	-65.0	-84.2	16	16
2023-09-04T12:00	16561	102	-64.6	-84.1	19	15
2023-09-04T12:00	16582	102	-64.4	-84.3	21	15
2023-09-04T12:00	16612	102	-64.4	-84.6	24	14
2023-09-04T12:00	16637	101	-64.2	-84.6	28	13
2023-09-04T12:00	16669	101	-64.1	-84.5	31	12
2023-09-04T12:00	16698	100	-64.3	-84.8	35	11
2023-09-04T12:00	16725	100	-64.3	-84.8	38	11
2023-09-04T12:00	16742	99	-64.3	-84.8	41	10
2023-09-04T12:00	16766	99	-64.2	-84.8	42	10
2023-09-04T12:00	16787	99	-64.1	-84.8	43	10
2023-09-04T12:00	16805	98	-64.1	-84.8	43	9
2023-09-04T12:00	16827	98	-64.2	-85.0	42	9
2023-09-04T12:00	16850	98	-64.2	-85.0	40	8
2023-09-04T12:00	16870	97	-64.2	-85.0	37	8
2023-09-04T12:00	16892	97	-64.0	-84.7	34	8
2023-09-04T12:00	16911	97	-64.1	-84.8	30	7
2023-09-04T12:00	16933	96	-64.2	-84.7	26	7
2023-09-04T12:00	16957	96	-64.3	-84.8	22	7
2023-09-04T12:00	16975	96	-64.5	-84.8	18	7
2023-09-04T12:00	17000	95	-64.6	-84.9	16	8
2023-09-04T12:00	17020	95	-64.6	-85.0	15	8
2023-09-04T12:00	17041	95	-64.5	-85.1	15	8
2023-09-04T12:00	17064	94	-64.2	-85.1	14	8
2023-09-04T12:00	17084	94	-64.0	-85.1	15	8
2023-09-04T12:00	17108	94	-63.7	-85.2	15	7
2023-09-04T12:00	17130	93	-63.6	-85.5	16	7
2023-09-04T12:00	17153	93	-63.4	-85.5	16	7
2023-09-04T12:00	17175	93	-63.2	-85.3	16	6
2023-09-04T12:00	17198	92	-63.3	-85.6	16	6
2023-09-04T12:00	17220	92	-63.3	-85.4	15	6
2023-09-04T12:00	17244	92	-63.5	-85.6	14	6
2023-09-04T12:00	17264	91	-63.4	-85.5	14	7
2023-09-04T12:00	17288	91	-63.4	-85.5	15	7
2023-09-04T12:00	17307	91	-63.3	-85.6	15	7
2023-09-04T12:00	17331	90	-63.1	-85.4	15	8
2023-09-04T12:00	17357	90	-63.0	-85.3	14	8
2023-09-04T12:00	17375	90	-62.9	-85.3	12	8
2023-09-04T12:00	17399	89	-62.9	-85.3	11	7
2023-09-04T12:00	17423	89	-63.0	-85.3	10	7
2023-09-04T12:00	17445	89	-63.1	-85.2	9	7
2023-09-04T12:00	17468	88	-63.1	-85.2	8	7
2023-09-04T12:00	17491	88	-63.0	-85.3	7	8
2023-09-04T12:00	17512	88	-63.0	-85.3	6	8
2023-09-04T12:00	17538	87	-63.0	-85.3	4	8
2023-09-04T12:00	17556	87	-63.0	-85.3	1	8
2023-09-04T12:00	17582	87	-63.0	-85.5	358	9
2023-09-04T12:00	17605	86	-63.0	-85.7	356	9
2023-09-04T12:00	17628	86	-62.7	-85.7	355	9
2023-09-04T12:00	17651	86	-62.2	-85.5	356	10
2023-09-04T12:00	17673	85	-61.8	-85.4	358	10
2023-09-04T12:00	17695	85	-61.6	-85.5	0	10
2023-09-04T12:00	17718	85	-61.5	-85.4	4	10
2023-09-04T12:00	17741	84	-61.5	-85.6	8	9
2023-09-04T12:00	17765	84	-61.5	-85.6	13	9
2023-09-04T12:00	17789	84	-61.2	-85.4	17	8
2023-09-04T12:00	17812	83	-60.9	-85.4	20	7
2023-09-04T12:00	17832	83	-60.8	-85.3	22	7
2023-09-04T12:00	17856	83	-60.7	-85.2	22	6
2023-09-04T12:00	17879	83	-60.4	-85.0	21	6
2023-09-04T12:00	17905	82	-60.4	-85.0	19	5
2023-09-04T12:00	17925	82	-60.4	-85.0	17	5
2023-09-04T12:00	17948	82	-60.4	-85.0	16	5
2023-09-04T12:00	17973	81	-60.5	-85.1	15	5
2023-09-04T12:00	17995	81	-60.5	-84.8	16	5
2023-09-04T12:00	18016	81	-60.5	-84.8	18	5
2023-09-04T12:00	18040	80	-60.6	-84.9	22	5
2023-09-04T12:00	18063	80	-60.7	-85.0	27	6
2023-09-04T12:00	18089	80	-60.7	-85.0	34	6
2023-09-04T12:00	18107	80	-60.7	-85.0	40	7
2023-09-04T12:00	18130	79	-60.6	-85.2	44	7
2023-09-04T12:00	18153	79	-60.6	-85.2	47	7
2023-09-04T12:00	18177	79	-60.4	-85.0	48	8
2023-09-04T12:00	18199	78	-60.4	-85.0	48	8
2023-09-04T12:00	18220	78	-60.4	-85.0	46	8
2023-09-04T12:00	18244	78	-60.4	-85.0	45	8
2023-09-04T12:00	18266	78	-60.5	-85.1	46	8
2023-09-04T12:00	18290	77	-60.6	-85.2	48	8
2023-09-04T12:00	18311	77	-60.5	-85.1	52	8
2023-09-04T12:00	18336	77	-60.4	-85.0	57	8
2023-09-04T12:00	18356	76	-60.2	-84.8	61	8
2023-09-04T12:00	18378	76	-60.1	-85.0	64	8
2023-09-04T12:00	18401	76	-60.1	-85.0	67	8
2023-09-04T12:00	18426	76	-60.1	-85.0	70	7
2023-09-04T12:00	18450	75	-60.1	-85.0	73	7
2023-09-04T12:00	18475	75	-60.1	-85.0	76	6
2023-09-04T12:00	18501	75	-60.0	-84.9	79	5
2023-09-04T12:00	18524	74	-60.1	-85.0	81	4
2023-09-04T12:00	18547	74	-60.1	-85.0	80	3
2023-09-04T12:00	18570	74	-60.1	-85.0	74	3
2023-09-04T12:00	18597	74	-60.1	-85.0	65	3
2023-09-04T12:00	18618	73	-60.2	-85.1	54	2
2023-09-04T12:00	18644	73	-60.1	-85.0	45	3
2023-09-04T12:00	18669	73	-60.1	-85.0	38	3
2023-09-04T12:00	18693	72	-60.0	-84.9	31	3
2023-09-04T12:00	18715	72	-59.8	-84.8	23	3
2023-09-04T12:00	18740	72	-59.8	-84.8	14	3
2023-09-04T12:00	18766	72	-59.9	-84.9	7	3
2023-09-04T12:00	18790	71	-60.0	-84.9	3	3
2023-09-04T12:00	18813	71	-60.0	-84.9	1	4
2023-09-04T12:00	18839	71	-60.1	-85.0	2	4
2023-09-04T12:00	18863	71	-60.2	-85.1	4	4
2023-09-04T12:00	18888	70	-60.2	-84.8	6	5
2023-09-04T12:00	18911	70	-60.2	-84.8	8	5
2023-09-04T12:00	18932	70	-60.3	-84.9	10	6
2023-09-04T12:00	18958	69	-60.4	-85.0	12	6
2023-09-04T12:00	18984	69	-60.5	-85.1	15	7
2023-09-04T12:00	19006	69	-60.6	-85.2	18	7
2023-09-04T12:00	19033	69	-60.7	-85.2	21	7
2023-09-04T12:00	19056	68	-60.6	-85.2	24	7
2023-09-04T12:00	19079	68	-60.5	-85.3	27	7
2023-09-04T12:00	19102	68	-60.2	-85.1	30	7
2023-09-04T12:00	19124	68	-60.3	-85.2	34	7
2023-09-04T12:00	19150	67	-60.4	-85.3	38	6
2023-09-04T12:00	19172	67	-60.6	-85.4	40	6
2023-09-04T12:00	19193	67	-60.6	-85.4	42	6
2023-09-04T12:00	19221	67	-60.5	-85.3	41	6
2023-09-04T12:00	19239	66	-60.2	-85.1	40	5
2023-09-04T12:00	19265	66	-60.0	-85.2	38	5
2023-09-04T12:00	19287	66	-59.9	-85.1	35	5
2023-09-04T12:00	19313	66	-60.0	-85.2	31	4
2023-09-04T12:00	19336	65	-60.2	-85.1	26	4
2023-09-04T12:00	19358	65	-60.4	-85.3	18	4
2023-09-04T12:00	19380	65	-60.4	-85.3	11	4
2023-09-04T12:00	19406	65	-60.3	-85.2	5	4
2023-09-04T12:00	19430	64	-60.2	-85.1	2	5
2023-09-04T12:00	19453	64	-60.2	-85.1	2	5
2023-09-04T12:00	19477	64	-60.2	-85.1	3	6
2023-09-04T12:00	19497	64	-60.2	-85.1	5	6
2023-09-04T12:00	19525	63	-60.2	-85.1	7	7
2023-09-04T12:00	19551	63	-60.2	-85.1	9	7
2023-09-04T12:00	19572	63	-60.2	-85.4	12	7
2023-09-04T12:00	19595	63	-60.1	-85.3	15	7
2023-09-04T12:00	19617	62	-60.0	-85.2	19	7
2023-09-04T12:00	19642	62	-59.8	-85.1	24	7
2023-09-04T12:00	19666	62	-59.9	-85.1	29	7
2023-09-04T12:00	19691	62	-59.8	-85.1	33	7
2023-09-04T12:00	19717	62	-59.7	-85.0	37	7
2023-09-04T12:00	19741	61	-59.5	-85.1	40	7
2023-09-04T12:00	19765	61	-59.5	-85.1	43	7
2023-09-04T12:00	19792	61	-59.6	-85.2	47	7
2023-09-04T12:00	19812	61	-59.5	-85.1	50	7
2023-09-04T12:00	19842	60	-59.3	-85.0	53	7
2023-09-04T12:00	19867	60	-59.0	-85.0	55	7
2023-09-04T12:00	19889	60	-58.8	-84.9	57	7
2023-09-04T12:00	19914	60	-58.8	-84.9	58	7
2023-09-04T12:00	19938	59	-58.6	-84.7	59	7
2023-09-04T12:00	19962	59	-58.3	-84.8	61	7
2023-09-04T12:00	19985	59	-58.2	-84.7	63	6
2023-09-04T12:00	20012	59	-58.2	-84.7	65	6
2023-09-04T12:00	20039	58	-58.1	-84.6	67	5
2023-09-04T12:00	20062	58	-57.9	-84.2	69	5
2023-09-04T12:00	20084	58	-58.0	-84.2	69	4
2023-09-04T12:00	20109	58	-58.1	-84.3	68	4
2023-09-04T12:00	20133	58	-58.1	-84.3	67	4
2023-09-04T12:00	20155	57	-58.3	-84.2	64	4
2023-09-04T12:00	20180	57	-58.4	-84.3	59	4
2023-09-04T12:00	20204	57	-58.5	-84.3	53	4
2023-09-04T12:00	20230	57	-58.4	-84.3	46	4
2023-09-04T12:00	20254	56	-58.5	-84.3	40	4
2023-09-04T12:00	20277	56	-58.7	-84.5	37	5
2023-09-04T12:00	20303	56	-58.8	-84.6	38	5
2023-09-04T12:00	20326	56	-58.9	-84.6	41	5
2023-09-04T12:00	20351	56	-58.8	-84.6	45	6
2023-09-04T12:00	20373	55	-58.9	-84.6	51	6
2023-09-04T12:00	20401	55	-58.9	-84.6	56	5
2023-09-04T12:00	20426	55	-58.8	-84.6	60	5
2023-09-04T12:00	20446	55	-58.8	-84.6	64	4
2023-09-04T12:00	20469	55	-58.6	-84.7	67	3
2023-09-04T12:00	20495	54	-58.6	-84.7	69	3
2023-09-04T12:00	20516	54	-58.5	-84.6	68	2
2023-09-04T12:00	20541	54	-58.5	-84.6	60	1
2023-09-04T12:00	20562	54	-58.5	-84.6	43	1
2023-09-04T12:00	20584	54	-58.4	-84.6	27	1
2023-09-04T12:00	20607	53	-58.4	-84.6	21	2
2023-09-04T12:00	20632	53	-58.4	-84.6	22	3
2023-09-04T12:00	20652	53	-58.4	-84.6	24	4
2023-09-04T12:00	20678	53	-58.4	-84.6	25	5
2023-09-04T12:00	20701	53	-58.5	-84.6	26	5
2023-09-04T12:00	20727	52	-58.6	-84.4	25	6
2023-09-04T12:00	20750	52	-58.5	-84.6	25	6
2023-09-04T12:00	20771	52	-58.5	-84.6	26	6
2023-09-04T12:00	20796	52	-58.4	-84.6	27	6
2023-09-04T12:00	20817	52	-58.4	-84.6	28	6
2023-09-04T12:00	20840	51	-58.5	-84.6	30	5
2023-09-04T12:00	20865	51	-58.4	-84.6	30	5
2023-09-04T12:00	20889	51	-58.4	-84.6	29	5
2023-09-04T12:00	20915	51	-58.4	-84.6	27	5
2023-09-04T12:00	20937	51	-58.2	-84.4	23	5
2023-09-04T12:00	20961	50	-58.1	-84.6	19	4
2023-09-04T12:00	20987	50	-57.9	-84.5	16	4
2023-09-04T12:00	21008	50	-57.9	-84.5	15	4
2023-09-04T12:00	21034	50	-57.8	-84.4	14	4
2023-09-04T12:00	21052	50	-57.4	-84.4	14	5
2023-09-04T12:00	21077	50	-57.1	-84.2	14	5
2023-09-04T12:00	21107	49	-56.9	-84.0	14	5
2023-09-04T12:00	21132	49	-56.7	-83.9	12	5
2023-09-04T12:00	21156	49	-56.7	-83.9	10	5
2023-09-04T12:00	21180	49	-56.7	-83.9	7	5
2023-09-04T12:00	21204	49	-56.7	-83.9	3	5
2023-09-04T12:00	21228	48	-56.8	-83.6	1	5
2023-09-04T12:00	21255	48	-56.8	-83.6	360	5
2023-09-04T12:00	21283	48	-56.8	-83.6	359	5
2023-09-04T12:00	21306	48	-56.8	-83.6	0	5
2023-09-04T12:00	21329	48	-56.9	-83.7	2	5
2023-09-04T12:00	21353	47	-57.0	-83.8	5	5
2023-09-04T12:00	21380	47	-57.1	-83.9	8	6
2023-09-04T12:00	21403	47	-57.2	-83.6	12	6
2023-09-04T12:00	21430	47	-57.3	-83.7	17	6
2023-09-04T12:00	21454	47	-57.3	-83.7	23	6
2023-09-04T12:00	21479	47	-57.4	-84.1	28	6
2023-09-04T12:00	21509	46	-57.3	-84.0	34	6
2023-09-04T12:00	21528	46	-57.1	-83.9	40	6
2023-09-04T12:00	21555	46	-57.0	-83.8	45	6
2023-09-04T12:00	21580	46	-57.0	-83.8	51	6
2023-09-04T12:00	21603	46	-57.1	-83.9	58	5
2023-09-04T12:00	21630	45	-57.1	-83.9	65	5
2023-09-04T12:00	21652	45	-57.2	-83.9	72	5
2023-09-04T12:00	21678	45	-57.2	-83.9	77	5
2023-09-04T12:00	21703	45	-57.3	-83.7	79	5
2023-09-04T12:00	21726	45	-57.5	-83.9	80	5
2023-09-04T12:00	21755	45	-57.6	-84.3	78	5
2023-09-04T12:00	21784	44	-57.4	-84.1	77	5
2023-09-04T12:00	21804	44	-57.1	-83.9	75	5
2023-09-04T12:00	21831	44	-56.9	-83.7	74	5
2023-09-04T12:00	21860	44	-56.8	-83.6	73	5
2023-09-04T12:00	21886	44	-56.9	-83.7	71	6
2023-09-04T12:00	21908	43	-57.0	-83.8	69	6
2023-09-04T12:00	21937	43	-57.0	-83.8	66	6
2023-09-04T12:00	21960	43	-56.9	-83.7	65	6
2023-09-04T12:00	21987	43	-56.9	-83.7	64	6
2023-09-04T12:00	22012	43	-57.0	-83.8	63	6
2023-09-04T12:00	22039	43	-57.0	-83.8	64	6
2023-09-04T12:00	22064	42	-57.0	-83.8	65	5
2023-09-04T12:00	22090	42	-57.0	-83.8	67	5
2023-09-04T12:00	22118	42	-57.1	-83.9	69	5
2023-09-04T12:00	22145	42	-57.1	-83.9	72	5
2023-09-04T12:00	22166	42	-57.2	-83.6	77	4
2023-09-04T12:00	22193	42	-57.4	-83.8	83	4
2023-09-04T12:00	22217	41	-57.6	-83.9	89	4
2023-09-04T12:00	22245	41	-57.6	-83.9	95	4
2023-09-04T12:00	22270	41	-57.5	-83.9	101	4
2023-09-04T12:00	22298	41	-57.7	-84.0	106	3
2023-09-04T12:00	22326	41	-57.8	-84.1	110	3
2023-09-04T12:00	22353	40	-57.8	-84.1	115	3
2023-09-04T12:00	22378	40	-57.8	-84.1	119	2
2023-09-04T12:00	22404	40	-57.8	-84.1	125	2
2023-09-04T12:00	22430	40	-57.8	-84.1	134	1
2023-09-04T12:00	22455	40	-57.9	-84.2	149	1
2023-09-04T12:00	22482	40	-57.9	-84.2	166	1
2023-09-04T12:00	22502	40	-57.9	-84.2	177	1
2023-09-04T12:00	22535	39	-57.8	-84.1	184	1
2023-09-04T12:00	22557	39	-57.8	-84.1	189	1
2023-09-04T12:00	22584	39	-57.7	-84.0	196	2
2023-09-04T12:00	22611	39	-57.8	-84.1	203	2
2023-09-04T12:00	22634	39	-57.9	-84.2	210	2
2023-09-04T12:00	22665	39	-58.0	-84.2	215	3
2023-09-04T12:00	22690	38	-58.1	-84.3	218	3
2023-09-04T12:00	22715	38	-58.2	-84.4	220	3
2023-09-04T12:00	22743	38	-58.3	-84.2	221	4
2023-09-04T12:00	22769	38	-58.4	-84.3	221	4
2023-09-04T12:00	22797	38	-58.6	-84.4	223	4
2023-09-04T12:00	22820	38	-58.7	-84.5	225	4
2023-09-04T12:00	22848	37	-58.8	-84.6	227	3
2023-09-04T12:00	22873	37	-58.9	-84.6	230	3
2023-09-04T12:00	22891	37	-58.9	-84.6	231	3
2023-09-04T12:00	22924	37	-59.0	-84.7	232	3
2023-09-04T12:00	22953	37	-59.1	-84.5	231	3
2023-09-04T12:00	22977	37	-59.2	-84.6	232	3
2023-09-04T12:00	23006	37	-59.4	-84.7	234	3
2023-09-04T12:00	23027	36	-59.5	-84.8	237	2
2023-09-04T12:00	23053	36	-59.6	-84.9	241	2
2023-09-04T12:00	23080	36	-59.6	-84.9	246	2
2023-09-04T12:00	23105	36	-59.6	-85.2	254	2
2023-09-04T12:00	23133	36	-59.5	-85.1	268	1
2023-09-04T12:00	23150	36	-59.5	-85.1	288	2
2023-09-04T12:00	23184	36	-59.5	-85.1	308	2
2023-09-04T12:00	23205	35	-59.4	-85.0	323	2
2023-09-04T12:00	23236	35	-59.2	-84.9	334	3
2023-09-04T12:00	23262	35	-59.3	-85.0	343	4
2023-09-04T12:00	23287	35	-59.4	-85.0	351	4
2023-09-04T12:00	23311	35	-59.5	-85.1	359	5
2023-09-04T12:00	23341	35	-59.3	-85.0	6	5
2023-09-04T12:00	23363	34	-59.2	-84.9	14	5
2023-09-04T12:00	23389	34	-59.1	-84.8	22	6
2023-09-04T12:00	23408	34	-59.2	-84.9	29	6
2023-09-04T12:00	23439	34	-59.2	-84.9	35	6
2023-09-04T12:00	23464	34	-59.2	-84.9	40	6
2023-09-04T12:00	23486	34	-59.2	-85.2	44	6
2023-09-04T12:00	23517	34	-59.2	-85.2	45	6
2023-09-04T12:00	23545	34	-59.2	-85.2	44	6
2023-09-04T12:00	23565	33	-59.3	-85.2	41	6
2023-09-04T12:00	23589	33	-59.1	-85.1	37	6
2023-09-04T12:00	23618	33	-59.0	-85.0	33	6
2023-09-04T12:00	23638	33	-58.9	-85.3	30	7
2023-09-04T12:00	23661	33	-58.8	-85.2	29	7
2023-09-04T12:00	23687	33	-58.5	-84.9	29	7
2023-09-04T12:00	23713	33	-58.4	-84.9	29	7
2023-09-04T12:00	23740	32	-58.3	-84.8	30	7
2023-09-04T12:00	23763	32	-58.1	-85.0	30	7
2023-09-04T12:00	23789	32	-58.0	-84.9	31	7
2023-09-04T12:00	23816	32	-57.9	-84.8	32	7
2023-09-04T12:00	23834	32	-57.7	-84.7	33	7
2023-09-04T12:00	23863	32	-57.4	-84.8	34	7
2023-09-04T12:00	23888	32	-57.2	-84.6	35	7
2023-09-04T12:00	23918	32	-57.0	-84.5	35	8
2023-09-04T12:00	23942	31	-56.8	-84.3	35	8
2023-09-04T12:00	23966	31	-56.6	-84.2	36	9
2023-09-04T12:00	23988	31	-56.4	-84.0	36	9
2023-09-04T12:00	24015	31	-56.3	-83.9	37	10
2023-09-04T12:00	24039	31	-56.3	-83.9	38	10
2023-09-04T12:00	24063	31	-56.0	-83.7	39	10
2023-09-04T12:00	24096	31	-55.8	-83.6	39	11
2023-09-04T12:00	24120	31	-55.8	-83.6	38	11
2023-09-04T12:00	24138	30	-55.9	-83.6	37	11
2023-09-04T12:00	24170	30	-56.0	-83.7	36	11
2023-09-04T12:00	24199	30	-55.9	-83.6	35	11
2023-09-04T12:00	24226	30	-55.8	-83.6	35	11
2023-09-04T12:00	24248	30	-55.9	-83.6	37	11
2023-09-04T12:00	24272	30	-55.9	-83.6	39	11
2023-09-04T12:00	24305	30	-55.9	-83.6	42	11
2023-09-04T12:00	24326	30	-55.9	-83.6	45	11
2023-09-04T12:00	24357	29	-55.8	-83.6	49	11
2023-09-04T12:00	24386	29	-55.7	-83.5	53	10
2023-09-04T12:00	24415	29	-55.6	-83.4	57	10
2023-09-04T12:00	24435	29	-55.5		61	9
2023-09-04T12:00	24468	29	-55.5		67	9
2023-09-04T12:00	24494	29	-55.6	-83.4	74	8
2023-09-04T12:00	24515	29	-55.6	-83.4	82	8
2023-09-04T12:00	24543	29	-55.6	-83.8	90	8
2023-09-04T12:00	24572	28	-55.3	-83.6	96	8
2023-09-04T12:00	24601	28	-55.0		99	8
2023-09-04T12:00	24622	28	-54.8	-83.2	100	8
2023-09-04T12:00	24651	28	-54.7	-83.1	100	8
2023-09-04T12:00	24676	28	-54.4	-83.3	98	8
2023-09-04T12:00	24708	28	-54.2	-83.1	97	8
2023-09-04T12:00	24727	28	-54.1	-83.1	96	8
2023-09-04T12:00	24758	28	-53.9	-82.9	96	9
2023-09-04T12:00	24774	28	-53.9	-82.9	97	9
2023-09-04T12:00	24806	27	-54.0	-82.6	99	8
2023-09-04T12:00	24834	27	-54.0	-82.6	102	8
2023-09-04T12:00	24861	27	-53.9	-82.5	107	8
2023-09-04T12:00	24885	27	-53.9	-82.5	112	8
2023-09-04T12:00	24915	27	-54.0	-82.6	118	8
2023-09-04T12:00	24938	27	-53.9	-82.5	124	8
2023-09-04T12:00	24969	27	-53.8	-82.4	129	8
2023-09-04T12:00	24994	27	-53.8	-82.4	134	8
2023-09-04T12:00	25021	27	-53.7	-82.3	136	7
2023-09-04T12:00	25041	26	-53.8	-82.4	137	7
2023-09-04T12:00	25070	26	-53.8	-82.4	137	7
2023-09-04T12:00	25093	26	-53.7	-82.3	134	6
2023-09-04T12:00	25125	26	-53.8	-82.4	130	6
2023-09-04T12:00	25148	26	-53.9	-82.5	124	5
2023-09-04T12:00	25176	26	-54.0	-82.6	116	5
2023-09-04T12:00	25205	26	-53.9	-82.5	108	6
2023-09-04T12:00	25230	26	-53.9	-82.5	102	6
2023-09-04T12:00	25260	26	-54.0	-82.6	97	7
2023-09-04T12:00	25291	25	-54.1	-82.6	96	7
2023-09-04T12:00	25312	25	-54.3	-82.8	97	7
2023-09-04T12:00	25341	25	-54.2	-82.7	101	7
2023-09-04T12:00	25375	25	-53.8	-82.8	109	6
2023-09-04T12:00	25401	25	-53.4	-82.5	118	6
2023-09-04T12:00	25424	25	-53.2	-82.4	129	5
2023-09-04T12:00	25450	25	-52.9	-82.1	141	5
2023-09-04T12:00	25482	25	-52.8	-82.1	152	5
2023-09-04T12:00	25509	25	-52.9	-82.1	161	5
2023-09-04T12:00	25538	25	-52.9	-82.1	170	5
2023-09-04T12:00	25565	24	-53.0	-82.2	177	5
2023-09-04T12:00	25592	24	-53.0	-82.2	184	5
2023-09-04T12:00	25628	24	-53.0	-82.2	190	4
2023-09-04T12:00	25645	24	-53.0	-82.2	195	4
2023-09-04T12:00	25663	24	-53.0	-82.2	200	4
2023-09-04T12:00	25701	24	-53.0	-82.2	206	4
2023-09-04T12:00	25721	24	-53.0	-82.2	214	4
2023-09-04T12:00	25749	24	-52.9	-82.1	223	4
2023-09-04T12:00	25771	24	-52.8	-82.1	233	3
2023-09-04T12:00	25808	24	-52.7	-82.0	243	3
2023-09-04T12:00	25826	23	-52.4	-82.2	254	2
2023-09-04T12:00	25860	23	-52.1	-82.0	270	2
2023-09-04T12:00	25871	23	-51.9	-81.8	305	1
2023-09-04T12:00	25904	23	-51.9	-81.8	358	1
2023-09-04T12:00	25925	23	-52.0	-81.9	22	2
2023-09-04T12:00	25947	23	-52.1	-81.5	32	3
2023-09-04T12:00	25972	23	-52.2	-81.6	38	4
2023-09-04T12:00	26003	23	-52.3	-81.7	43	4
2023-09-04T12:00	26019	23	-52.4	-81.8	47	5
2023-09-04T12:00	26053	23	-52.5	-81.8	52	6
2023-09-04T12:00	26069	23	-52.6	-81.9	56	6
2023-09-04T12:00	26099	22	-52.6	-81.9	60	7
2023-09-04T12:00	26122	22	-52.4	-81.8	63	7
2023-09-04T12:00	26149	22	-52.2	-81.6	67	7
2023-09-04T12:00	26163	22	-52.2	-81.6	71	7
2023-09-04T12:00	26195	22	-52.3	-81.7	75	6
2023-09-04T12:00	26223	22	-52.5	-81.8	79	6
2023-09-04T12:00	26252	22	-52.6	-81.9	84	5
2023-09-04T12:00	26274	22	-52.7	-82.0	87	5
2023-09-04T12:00	26293	22	-52.6	-81.9	90	5
2023-09-04T12:00	26320	22	-52.4	-81.8	93	5
2023-09-04T12:00	26348	22	-52.3	-81.7	97	5
2023-09-04T12:00	26376	22	-52.3	-82.1	103	4
2023-09-04T12:00	26398	21	-52.2	-82.1	113	4
2023-09-04T12:00	26419	21	-51.9	-81.8	128	3
2023-09-04T12:00	26451	21	-51.9	-81.8	147	3
2023-09-04T12:00	26478	21	-51.9	-81.8	170	3
2023-09-04T12:00	26498	21	-51.9	-81.8	192	3
2023-09-04T12:00	26527	21	-51.9	-81.8	211	3
2023-09-04T12:00	26551	21	-51.9	-81.8	225	4
2023-09-04T12:00	26579	21	-51.9	-81.8	236	5
2023-09-04T12:00	26610	21	-51.8	-81.8	243	5
2023-09-04T12:00	26628	21	-51.7	-81.7	248	6
2023-09-04T12:00	26653	21	-51.7	-81.7	250	6
2023-09-04T12:00	26672	21	-51.8	-81.8	252	7
2023-09-04T12:00	26706	20	-51.7	-81.7	253	7
2023-09-04T12:00	26731	20	-51.5	-81.5	254	8
2023-09-04T12:00	26762	20	-51.4	-81.5	255	8
2023-09-04T12:00	26787	20	-51.3	-81.4	256	9
2023-09-04T12:00	26818	20	-51.2	-81.3	259	9
2023-09-04T12:00	26843	20	-51.3	-81.4	262	9
2023-09-04T12:00	26867	20	-51.4	-81.5	266	9
2023-09-04T12:00	26896	20	-51.3	-81.4	271	8
2023-09-04T12:00	26926	20	-51.1	-81.2	278	8
2023-09-04T12:00	26952	20	-50.8	-81.5	285	8
2023-09-04T12:00	26983	20	-50.6	-81.3	292	8
2023-09-04T12:00	27008	20	-50.5	-81.3	300	8
2023-09-04T12:00	27036	19	-50.4	-81.2	307	7
2023-09-04T12:00	27061	19	-50.4	-81.2	313	7
2023-09-04T12:00	27087	19	-50.3	-81.1	318	7
2023-09-04T12:00	27132	19	-50.3	-81.1	322	7
2023-09-04T12:00	27144	19	-50.4	-81.2	326	7
2023-09-04T12:00	27179	19	-50.4	-80.7	329	7
2023-09-04T12:00	27195	19	-50.4	-80.7	333	6
2023-09-04T12:00	27228	19	-50.5	-80.8	336	6
2023-09-04T12:00	27245	19	-50.5	-80.8	340	5
2023-09-04T12:00	27284	19	-50.7	-80.9	343	5
2023-09-04T12:00	27305	19	-50.8	-81.0	344	5
2023-09-04T12:00	27328	19	-50.9	-81.1	344	4
2023-09-04T12:00	27362	19	-51.0	-81.2	342	4
2023-09-04T12:00	27385	18	-51.0	-81.2	339	4
2023-09-04T12:00	27403	18	-51.0	-81.2	336	4
2023-09-04T12:00	27434	18	-51.0	-81.2	333	3
2023-09-04T12:00	27459	18	-51.0	-81.2	329	3
2023-09-04T12:00	27485	18	-51.0	-81.2	325	2
2023-09-04T12:00	27516	18	-50.9	-81.6	321	2
2023-09-04T12:00	27541	18	-50.6	-81.3	319	2
2023-09-04T12:00	27567	18	-50.3	-81.1	321	2
2023-09-04T12:00	27600	18	-50.0	-80.9	326	1
2023-09-04T12:00	27622	18	-49.9	-80.8	336	1
2023-09-04T12:00	27652	18	-49.9	-80.8	354	0
2023-09-04T12:00	27676	18	-49.9	-80.8	14	0
2023-09-04T12:00	27700	18	-49.8	-81.3	324	0
2023-09-04T12:00	27722	18	-49.5	-81.1	311	0
2023-09-04T12:00	27752	17	-49.2	-80.8	321	1
2023-09-04T12:00	27791	17	-48.9	-80.6	332	1
2023-09-04T12:00	27813	17	-48.6	-80.4	343	1
2023-09-04T12:00	27836	17	-48.2	-80.7	357	1
2023-09-04T12:00	27868	17	-47.8	-80.4	31	0
2023-09-04T12:00	27896	17	-47.5	-80.2	116	0
2023-09-04T12:00	27919	17	-47.5	-79.6	141	1
2023-09-04T12:00	27945	17	-47.7	-79.7	145	1
2023-09-04T12:00	27979	17	-47.8	-79.8	144	2
2023-09-04T12:00	28004	17	-47.9	-79.9	140	2
2023-09-04T12:00	28037	17	-48.0	-79.9	136	2
2023-09-04T12:00	28060	17	-47.9	-79.9	132	3
2023-09-04T12:00	28096	17	-47.8	-79.8	129	3
2023-09-04T12:00	28127	17	-47.9	-79.9	127	2
2023-09-04T12:00	28151	16	-48.1	-79.5	130	2
2023-09-04T12:00	28180	16	-48.2	-79.6	137	2
2023-09-04T12:00	28211	16	-48.4	-79.7	147	2
2023-09-04T12:00	28244	16	-48.6	-79.9	157	3
2023-09-04T12:00	28266	16	-48.7	-79.9	166	3
2023-09-04T12:00	28306	16	-48.7	-79.9	173	4
2023-09-04T12:00	28341	16	-48.4	-80.2	178	4
2023-09-04T12:00	28366	16	-48.1	-80.0	181	4
2023-09-04T12:00	28396	16	-48.0	-79.9	182	4
2023-09-04T12:00	28442	16	-48.1	-80.0	182	4
2023-09-04T12:00	28460	16	-48.3	-80.2	180	3
2023-09-04T12:00	28486	16	-48.5	-80.3	178	3
2023-09-04T12:00	28513	16	-48.5	-80.3	177	2
2023-09-04T12:00	28544	15	-48.4	-80.2	177	2
2023-09-04T12:00	28587	15	-48.3	-80.2	179	2
2023-09-04T12:00	28607	15	-48.3	-80.2	179	2
2023-09-04T12:00	28641	15	-48.3	-80.2	177	2
2023-09-04T12:00	28663	15	-48.3	-80.2	173	2
2023-09-04T12:00	28690	15	-48.4	-80.2	167	2
2023-09-04T12:00	28719	15	-48.5	-79.8	161	2
2023-09-04T12:00	28742	15	-48.6	-79.9	159	2
2023-09-04T12:00	28783	15	-48.7	-79.9	160	2
2023-09-04T12:00	28810	15	-48.8	-80.0	163	3
2023-09-04T12:00	28830	15	-48.7	-79.9	168	3
2023-09-04T12:00	28867	15	-48.7	-79.9	173	3
2023-09-04T12:00	28893	15	-48.7	-79.9	179	3
2023-09-04T12:00	28908	15	-48.8	-80.0	186	3
2023-09-04T12:00	28933	15	-49.0	-80.2	195	3
2023-09-04T12:00	28974	15	-49.3	-80.4	203	3
2023-09-04T12:00	28992	14	-49.4	-80.5	211	3
2023-09-04T12:00	29021	14	-49.5	-80.5	217	3
2023-09-04T12:00	29053	14	-49.6	-80.6	219	3
2023-09-04T12:00	29083	14	-49.8	-80.3	220	4
2023-09-04T12:00	29102	14	-50.0	-80.4	221	4
2023-09-04T12:00	29121	14	-50.1	-80.5	221	4
2023-09-04T12:00	29140	14	-50.3	-80.6	221	4
2023-09-04T12:00	29175	14	-50.4	-80.7	223	4
2023-09-04T12:00	29190	14	-50.5	-80.8	225	4
2023-09-04T12:00	29235	14	-50.7	-80.9	231	3
2023-09-04T12:00	29259	14	-50.8	-81.0	241	3
2023-09-04T12:00	29274	14	-51.0	-81.2	258	3
2023-09-04T12:00	29314	14	-51.2	-81.3	277	3
2023-09-04T12:00	29336	14	-51.3	-81.4	294	3
2023-09-04T12:00	29369	14	-51.3	-81.4	307	3
2023-09-04T12:00	29387	14	-51.1	-81.2	317	4
2023-09-04T12:00	29418	14	-50.8	-81.5	325	4
2023-09-04T12:00	29454	13	-50.6	-81.3	332	5
2023-09-04T12:00	29458	13	-50.6	-81.3	339	5
2023-09-04T12:00	29493	13	-50.6	-81.3	345	5
2023-09-04T12:00	29520	13	-50.5	-81.3	350	6
2023-09-04T12:00	29552	13	-50.4	-81.2	356	6
2023-09-04T12:00	29580	13	-50.3	-81.1	2	6
2023-09-04T12:00	29610	13	-50.2	-81.0	9	5
2023-09-04T12:00	29631	13	-50.1	-81.0	16	5
2023-09-04T12:00	29657	13	-50.0	-81.4	22	5
2023-09-04T12:00	29685	13	-49.9	-81.3	26	5
2023-09-04T12:00	29723	13	-49.9	-81.3	28	5
2023-09-04T12:00	29747	13	-49.7	-81.2	27	5
2023-09-04T12:00	29760	13	-49.5	-81.1	24	5
2023-09-04T12:00	29797	13	-49.4	-81.0	20	5
2023-09-04T12:00	29821	13	-49.4	-81.0	16	4
2023-09-04T12:00	29849	13	-49.3	-80.9	12	4
2023-09-04T12:00	29871	13	-49.1	-80.8	10	4
2023-09-04T12:00	29912	13	-48.9	-80.6	9	4
2023-09-04T12:00	29928	13	-48.9	-80.6	8	4
2023-09-04T12:00	29965	12	-48.9	-80.6	8	4
2023-09-04T12:00	29992	12	-48.9	-80.6	6	4
2023-09-04T12:00	30024	12	-49.0	-80.7	4	4
2023-09-04T12:00	30037	12	-48.9	-80.6	1	4
2023-09-04T12:00	30073	12	-48.9	-80.6	358	5
2023-09-04T12:00	30099	12	-48.8	-80.5	356	5
2023-09-04T12:00	30138	12	-48.5	-80.3	356	5
2023-09-04T12:00	30162	12	-48.4	-80.8	1	5
2023-09-04T12:00	30176	12	-48.3	-80.7	9	5
2023-09-04T12:00	30199	12	-48.1	-80.6	22	4
2023-09-04T12:00	30235	12	-47.8	-80.4	37	4
2023-09-04T12:00	30254	12	-47.6	-80.2	52	4
2023-09-04T12:00	30269	12	-47.3	-80.0	67	4
2023-09-04T12:00	30300	12	-47.0	-79.8	81	3
2023-09-04T12:00	30343	12	-46.8	-79.6	94	4
2023-09-04T12:00	30347	12	-46.9	-79.7	105	4
2023-09-04T12:00	30392	12	-47.0	-79.8	113	4
2023-09-04T12:00	30415	12	-47.0	-79.8	118	5
2023-09-04T12:00	30427	12	-46.9	-79.7	122	5
2023-09-04T12:00	30452	12	-47.0	-79.8	125	6
2023-09-04T12:00	30490	12	-47.2	-79.4	128	6
2023-09-04T12:00	30513	11	-47.4	-79.5	131	6
2023-09-04T12:00	30544	11	-47.5	-79.6	134	7
2023-09-04T12:00	30562	11	-47.5	-79.6	137	7
2023-09-04T12:00	30588	11	-47.6	-79.6	141	7
2023-09-04T12:00	30609	11	-47.7	-79.7	145	7
2023-09-04T12:00	30653	11	-47.8	-79.8	150	7
2023-09-04T12:00	30662	11	-47.7	-79.7	156	6
2023-09-04T12:00	30697	11	-47.5	-79.6	163	6
2023-09-04T12:00	30725	11	-47.4	-79.5	172	5
2023-09-04T12:00	30747	11	-47.5	-80.2	181	5
2023-09-04T12:00	30769	11	-47.6	-80.2	191	5
2023-09-04T12:00	30808	11	-47.6	-79.6	201	5
2023-09-04T12:00	30825	11	-47.6	-79.6	211	5
2023-09-04T12:00	30859	11	-47.6	-79.6	221	5
2023-09-04T12:00	30878	11	-47.5	-79.6	231	5
2023-09-04T12:00	30898	11	-47.4	-79.5	241	5
2023-09-04T12:00	30940	11	-47.5	-79.6	252	5
2023-09-04T12:00	30954	11	-47.7	-79.7	262	5
2023-09-04T12:00	30962	11	-47.8	-79.8	272	6
2023-09-04T12:00	31002	11	-47.7	-79.7	279	6
2023-09-04T12:00	31025	11	-47.6	-80.2	285	7
2023-09-04T12:00	31061	11	-47.4	-80.1	291	7
2023-09-04T12:00	31097	11	-47.3	-80.0	295	8
2023-09-04T12:00	31117	10	-47.3	-80.0	298	8
2023-09-04T12:00	31132	10	-47.1	-79.9	302	8
2023-09-04T12:00	31159	10	-47.0	-79.8	304	8
2023-09-04T12:00	31200	10	-47.1	-79.9	307	8
2023-09-04T12:00	31219	10	-47.2	-79.9	310	8
2023-09-04T12:00	31225	10	-47.2	-79.9	314	9
2023-09-04T12:00	31270	10	-47.3	-79.4	316	9
2023-09-04T12:00	31288	10	-47.3	-79.4	318	9
2023-09-04T12:00	31336	10	-47.4	-79.5	321	9
2023-09-04T12:00	31350	10	-47.5	-79.6	323	9
2023-09-04T12:00	31375	10	-47.7	-79.7	327	8
2023-09-04T12:00	31406	10	-47.7	-79.7	331	8
2023-09-04T12:00	31440	10	-47.6	-79.6	335	8
2023-09-04T12:00	31462	10	-47.6	-79.6	338	9
2023-09-04T12:00	31486	10	-47.5	-79.6	341	9
2023-09-04T12:00	31506	10	-47.5	-79.6	343	9
2023-09-04T12:00	31537	10	-47.4	-80.1	345	8
2023-09-04T12:00	31595	10	-47.3	-80.0	346	8
2023-09-04T12:00	31608	10	-46.8	-79.6	347	7
2023-09-04T12:00	31629	10	-46.4	-79.3	347	6
2023-09-04T12:00	31660	10	-46.0	-79.7	346	4
2023-09-04T12:00	31686	10	-45.9	-79.6	343	3
2023-09-04T12:00	31729	10	-45.9	-79.6	338	3
2023-09-04T12:00	31740	10	-45.9	-79.6	333	2
2023-09-04T12:00	31759	10	-45.8	-79.6	326	2
2023-09-04T12:00	31791	9	-45.7	-79.5	315	2
2023-09-04T12:00	31822	9	-45.5	-79.3	299	2
2023-09-04T12:00	31861	9	-45.5	-79.3	278	2
2023-09-04T12:00	31887	9	-45.5	-78.7	256	2
2023-09-04T12:00	31917	9	-45.7	-78.8	240	2
2023-09-04T12:00	31965	9	-45.8	-78.9	229	3
2023-09-04T12:00	31972	9	-45.9	-79.0	223	4
2023-09-04T12:00	32003	9	-46.0	-79.1	220	5
2023-09-04T12:00	32041	9	-46.1	-79.1	220	5
2023-09-04T12:00	32063	9	-46.2	-79.2	221	6
2023-09-04T12:00	32106	9	-46.2	-79.2	223	6
2023-09-04T12:00	32119	9	-46.4	-79.3	226	6
2023-09-04T12:00	32150	9	-46.5	-79.4	229	6
2023-09-04T12:00	32193	9	-46.5	-79.4	233	6
2023-09-04T12:00	32219	9	-46.3	-79.3	237	5
2023-09-04T12:00	32260	9	-46.2	-79.2	246	5
2023-09-04T12:00	32287	9	-46.1	-79.1	251	4
2023-09-04T12:00	32306	9	-46.1	-79.1	258	4
2023-09-04T12:00	32347	9	-46.0	-79.1	269	3
2023-09-04T12:00	32362	9	-45.9	-79.0	284	3
2023-09-04T12:00	32399	9	-45.9	-79.0	301	3
2023-09-04T12:00	32418	9	-45.9	-79.0	316	3
2023-09-04T12:00	32460	9	-45.9	-79.0	329	4
2023-09-04T12:00	32475	9	-45.9	-79.0	338	4
2023-09-04T12:00	32516	9	-45.8	-78.9	345	4
2023-09-04T12:00	32524	8	-45.6	-78.8	349	5
2023-09-04T12:00	32547	8	-45.5	-78.7	353	5
2023-09-04T12:00	32588	8	-45.5	-78.7	356	5
2023-09-04T12:00	32619	8	-45.4	-79.3	358	6
2023-09-04T12:00	32664	8	-45.4	-79.3	1	6
2023-09-04T12:00	32678	8	-45.3	-79.2	3	6
2023-09-04T12:00	32721	8	-45.4	-79.3	4	6
2023-09-04T12:00	32729	8	-45.4	-79.3	5	5
2023-09-04T12:00	32745	8	-45.4	-79.3	7	5
2023-09-04T12:00	32790	8	-45.3	-79.2	10	5
2023-09-04T12:00	32817	8	-45.3	-79.2	13	6
2023-09-04T12:00	32842	8	-45.1	-79.0	16	6
2023-09-04T12:00	32864	8	-45.0	-79.0	19	7
2023-09-04T12:00	32870	8	-44.9	-78.9	21	8
2023-09-04T12:00	32925	8	-44.9	-78.9	24	9
2023-09-04T12:00	32932	8	-44.9	-78.9	27	9
2023-09-04T12:00	32967	8	-44.8	-78.8	31	9
2023-09-04T12:00	33006	8	-44.7	-78.8	36	8
2023-09-04T12:00	33036	8	-44.8	-78.8	41	8
2023-09-04T12:00	33055	8	-44.8	-78.8	47	7
2023-09-04T12:00	33094	8	-44.8	-78.8	52	7
2023-09-04T12:00	33108	8	-44.9	-78.9	57	6
2023-09-04T12:00	33152	8	-44.9	-78.9	61	6
2023-09-04T12:00	33169	8	-44.8	-78.8	63	5
2023-09-04T18:00	114	1014	23.1	12.8	195	1
2023-09-04T18:00	142	1010	23.2	11.8	195	1
2023-09-04T18:00	168	1007	22.9	11.7	185	1
2023-09-04T18:00	192	1005	22.7	11.7	182	2
2023-09-04T18:00	214	1002	22.5	11.7	182	2
2023-09-04T18:00	235	1000	22.3	11.7	181	2
2023-09-04T18:00	257	997	22.1	11.7	179	2
2023-09-04T18:00	281	994	21.9	11.6	175	1
2023-09-04T18:00	305	992	21.6	11.6	170	1
2023-09-04T18:00	330	989	21.4	11.5	165	1
2023-09-04T18:00	353	986	21.2	11.7	161	1
2023-09-04T18:00	379	983	20.9	11.9	152	1
2023-09-04T18:00	404	980	20.7	12.0	127	0
2023-09-04T18:00	428	978	20.5		95	1
2023-09-04T18:00	448	975	20.3	12.0	77	1
2023-09-04T18:00	467	973	20.1	11.8	70	1
2023-09-04T18:00	487	971	19.9	11.8	69	1
2023-09-04T18:00	509	968	19.7	11.8	66	1
2023-09-04T18:00	532	966	19.4	11.6	60	1
2023-09-04T18:00	555	963	19.2	11.8	50	1
2023-09-04T18:00	580	960	19.0	11.7	39	1
2023-09-04T18:00	608	957	18.8	11.8	31	1
2023-09-04T18:00	632	955	18.5	11.7	27	2
2023-09-04T18:00	654	952	18.3	11.6	26	2
2023-09-04T18:00	674	950	18.1	11.7	24	2
2023-09-04T18:00	699	947	17.9	11.6	23	2
2023-09-04T18:00	724	944	17.6	11.6	22	2
2023-09-04T18:00	750	942	17.4	11.5	21	2
2023-09-04T18:00	774	939	17.2	11.5	21	2
2023-09-04T18:00	801	936	16.9	11.4	23	2
2023-09-04T18:00	828	933	16.6	11.3	28	2
2023-09-04T18:00	857	930	16.4	11.4	34	2
2023-09-04T18:00	882	927	16.1	11.2	40	2
2023-09-04T18:00	905	925	15.9	11.3	42	2
2023-09-04T18:00	931	922	15.7	11.2	40	2
2023-09-04T18:00	958	919	15.4	11.1	34	2
2023-09-04T18:00	986	916	15.1	11.1	27	2
2023-09-04T18:00	1013	913	14.9	11.1	20	2
2023-09-04T18:00	1038	910	14.7	11.0	15	2
2023-09-04T18:00	1060	908	14.5	11.1	13	2
2023-09-04T18:00	1089	905	14.2	10.9	13	2
2023-09-04T18:00	1114	902	13.9	10.9	16	2
2023-09-04T18:00	1138	900	13.8	10.8	21	2
2023-09-04T18:00	1161	897	13.7	10.8	30	1
2023-09-04T18:00	1186	894	13.6	10.8	43	1
2023-09-04T18:00	1216	892	13.4	10.5	55	2
2023-09-04T18:00	1242	889	13.5	10.4	63	2
2023-09-04T18:00	1268	886	13.7	10.2	66	2
2023-09-04T18:00	1297	883	13.7	10.1	67	2
2023-09-04T18:00	1326	880	13.7	9.5	68	2
2023-09-04T18:00	1353	877	13.6	7.8	72	3
2023-09-04T18:00	1376	874	13.7	6.4	76	3
2023-09-04T18:00	1401	872	13.7	7.4	81	3
2023-09-04T18:00	1419	870	13.6	9.0	83	2
2023-09-04T18:00	1445	868	13.5	10.0	85	2
2023-09-04T18:00	1463	865	13.5	9.7	85	1
2023-09-04T18:00	1487	863	13.4	9.6	86	1
2023-09-04T18:00	1506	861	13.3	9.5	69	0
2023-09-04T18:00	1532	859	13.2	9.3	47	0
2023-09-04T18:00	1553	856	13.3	9.3	47	1
2023-09-04T18:00	1576	854	13.5	9.3	51	1
2023-09-04T18:00	1597	852	13.4	9.3	56	2
2023-09-04T18:00	1620	850	13.3	9.0	61	3
2023-09-04T18:00	1640	848	13.3	8.2	64	3
2023-09-04T18:00	1657	846	13.5	9.4	64	3
2023-09-04T18:00	1689	843	13.3	9.5	59	3
2023-09-04T18:00	1710	841	13.3	9.6	50	4
2023-09-04T18:00	1734	838	13.2	9.5	41	4
2023-09-04T18:00	1764	836	13.1	9.3	36	4
2023-09-04T18:00	1786	833	13.0	9.2	34	5
2023-09-04T18:00	1806	831	12.8	9.1	34	5
2023-09-04T18:00	1826	829	12.7	9.0	35	6
2023-09-04T18:00	1850	827	12.6	8.9	35	6
2023-09-04T18:00	1872	825	12.5	8.6	34	6
2023-09-04T18:00	1893	822	12.4	8.4	33	7
2023-09-04T18:00	1918	820	12.3	8.1	31	7
2023-09-04T18:00	1941	818	12.2	7.8	31	7
2023-09-04T18:00	1968	815	12.1	7.9	31	7
2023-09-04T18:00	1990	813	12.0	8.0	33	6
2023-09-04T18:00	2013	811	11.9	7.5	34	6
2023-09-04T18:00	2036	809	11.8	7.8	35	6
2023-09-04T18:00	2063	806	11.6	7.0	34	5
2023-09-04T18:00	2087	804	11.5	6.8	32	5
2023-09-04T18:00	2114	801	11.4	6.7	30	5
2023-09-04T18:00	2142	799	11.3	6.5	27	5
2023-09-04T18:00	2161	797	11.1	6.4	27	5
2023-09-04T18:00	2182	795	11.0	6.2	27	5
2023-09-04T18:00	2202	793	10.9	6.3	29	5
2023-09-04T18:00	2224	791	10.8	6.0	32	5
2023-09-04T18:00	2249	789	10.7	5.7	34	5
2023-09-04T18:00	2267	787	10.5	5.4	34	5
2023-09-04T18:00	2288	785	10.3	5.5	33	5
2023-09-04T18:00	2307	783	10.3	4.6	30	4
2023-09-04T18:00	2331	781	10.2	4.1	25	4
2023-09-04T18:00	2350	779	10.2	3.6	20	4
2023-09-04T18:00	2371	777	10.1	3.4	17	4
2023-09-04T18:00	2398	774	10.2	2.9	15	5
2023-09-04T18:00	2422	772	10.2	1.9	16	5
2023-09-04T18:00	2446	770	10.3	0.3	16	6
2023-09-04T18:00	2470	768	10.3	0.2	17	6
2023-09-04T18:00	2492	766	10.3	0.6	16	7
2023-09-04T18:00	2512	764	10.4	0.9	16	7
2023-09-04T18:00	2532	762	10.3	0.9	17	7
2023-09-04T18:00	2552	760	10.3	0.9	18	7
2023-09-04T18:00	2582	758	10.1	0.0	21	7
2023-09-04T18:00	2600	756	10.1	-1.8	23	6
2023-09-04T18:00	2620	754	10.1	-2.0	25	6
2023-09-04T18:00	2645	752	9.9	-1.7	25	6
2023-09-04T18:00	2676	749	9.7	-1.4	24	6
2023-09-04T18:00	2700	747	9.6	-0.9	24	7
2023-09-04T18:00	2723	745	9.4	-0.2	25	7
2023-09-04T18:00	2750	742	9.3	-0.2	26	7
2023-09-04T18:00	2771	740	9.1	1.3	28	7
2023-09-04T18:00	2795	738	9.0	0.9	30	8
2023-09-04T18:00	2811	737	8.9	1.1	31	7
2023-09-04T18:00	2833	735	8.9	0.4	34	7
2023-09-04T18:00	2854	733	8.9	-1.6	37	7
2023-09-04T18:00	2876	731	9.0	-2.4	41	7
2023-09-04T18:00	2900	729	9.0	-4.5	43	7
2023-09-04T18:00	2924	727	8.8	-1.7	43	7
2023-09-04T18:00	2947	725	8.6	-0.1	41	7
2023-09-04T18:00	2968	723	8.4	0.0	39	8
2023-09-04T18:00	2989	721	8.2	0.4	37	8
2023-09-04T18:00	3011	719	8.0	0.7	37	9
2023-09-04T18:00	3036	717	7.7	1.1	37	10
2023-09-04T18:00	3064	715	7.6	0.8	38	10
2023-09-04T18:00	3086	713	7.6	-0.1	39	11
2023-09-04T18:00	3107	711	7.6	-0.1	40	10
2023-09-04T18:00	3135	709	7.4	-0.5	41	10
2023-09-04T18:00	3152	707	7.3	-1.4	40	10
2023-09-04T18:00	3179	705	7.3	-2.2	39	10
2023-09-04T18:00	3198	703	7.1		36	10
2023-09-04T18:00	3221	701	7.0	-2.0	33	10
2023-09-04T18:00	3242	699	6.9	-2.2	31	11
2023-09-04T18:00	3267	697	7.1	-2.4	28	11
2023-09-04T18:00	3298	695	7.1	-2.8	26	12
2023-09-04T18:00	3321	693	7.1	-3.0	26	12
2023-09-04T18:00	3344	691	7.0	-2.4	26	12
2023-09-04T18:00	3368	689	6.9	-2.7	26	12
2023-09-04T18:00	3389	687	6.8	-3.4	26	11
2023-09-04T18:00	3416	685	6.6	-3.1	26	11
2023-09-04T18:00	3434	683	6.5	-3.2	25	12
2023-09-04T18:00	3460	681	6.3	-3.4	24	12
2023-09-04T18:00	3480	679	6.1	-3.0	22	12
2023-09-04T18:00	3500	678	6.0	-2.9	20	12
2023-09-04T18:00	3526	676	5.9	-3.7	19	12
2023-09-04T18:00	3550	674	5.8	-3.3	18	13
2023-09-04T18:00	3578	671	5.7	-3.4	18	13
2023-09-04T18:00	3609	669	5.5	-5.1	17	13
2023-09-04T18:00	3643	666	5.4	-5.0	17	13
2023-09-04T18:00	3662	664	5.2	-4.4	17	13
2023-09-04T18:00	3683	663	5.0	-4.3	16	13
2023-09-04T18:00	3709	661	4.8	-3.4	15	13
2023-09-04T18:00	3736	658	4.6	-3.8	13	13
2023-09-04T18:00	3760	656	4.4	-4.0	12	13
2023-09-04T18:00	3781	655	4.2	-3.7	12	13
2023-09-04T18:00	3806	653	4.0	-3.4	11	13
2023-09-04T18:00	3831	651	3.8	-3.8	11	13
2023-09-04T18:00	3852	649	3.6	-4.3	11	14
2023-09-04T18:00	3879	647	3.5	-5.6	10	14
2023-09-04T18:00	3899	645	3.4	-6.1	10	15
2023-09-04T18:00	3923	643	3.2	-6.9	10	15
2023-09-04T18:00	3946	642	3.0	-4.7	9	15
2023-09-04T18:00	3969	640	2.8	-4.2	9	14
2023-09-04T18:00	3993	638	2.6	-4.2	8	14
2023-09-04T18:00	4020	636	2.4	-4.4	7	14
2023-09-04T18:00	4040	634	2.2	-4.3	6	14
2023-09-04T18:00	4060	633	2.0	-4.4	6	13
2023-09-04T18:00	4083	631	1.8	-4.3	5	13
2023-09-04T18:00	4109	629	1.6	-4.4	5	13
2023-09-04T18:00	4134	627	1.4	-4.5	3	13
2023-09-04T18:00	4163	625	1.1	-4.8	2	13
2023-09-04T18:00	4196	622	0.9	-5.1	1	13
2023-09-04T18:00	4227	620	0.6	-5.0	360	13
2023-09-04T18:00	4245	618	0.5	-5.0	360	13
2023-09-04T18:00	4266	617	0.3	-5.2	360	14
2023-09-04T18:00	4289	615	0.2		359	15
2023-09-04T18:00	4313	613	0.2	-6.4	358	15
2023-09-04T18:00	4341	611	0.7	-10.6	358	15
2023-09-04T18:00	4371	609	0.8	-12.3	357	15
2023-09-04T18:00	4398	607	1.1	-18.4	357	15
2023-09-04T18:00	4421	605	1.3	-23.2	358	15
2023-09-04T18:00	4449	603	1.2	-17.9	359	15
2023-09-04T18:00	4472	601	1.1	-9.7	1	15
2023-09-04T18:00	4489	600	1.0	-9.8	4	15
2023-09-04T18:00	4509	598	0.8	-9.4	6	16
2023-09-04T18:00	4536	596	0.5	-9.0	8	16
2023-09-04T18:00	4560	595	0.3	-9.1	9	16
2023-09-04T18:00	4584	593	0.1		11	16
2023-09-04T18:00	4606	591	-0.1	-8.4	12	16
2023-09-04T18:00	4627	589	-0.3	-7.6	12	16
2023-09-04T18:00	4653	588	-0.5	-7.2	12	16
2023-09-04T18:00	4677	586	-0.7	-6.9	11	16
2023-09-04T18:00	4695	585	-0.8	-7.0	9	15
2023-09-04T18:00	4713	583	-1.0	-7.3	8	15
2023-09-04T18:00	4739	581	-1.1	-6.9	8	15
2023-09-04T18:00	4762	580	-1.0	-8.1	8	15
2023-09-04T18:00	4788	578	-0.9	-8.7	8	15
2023-09-04T18:00	4807	576	-0.9	-9.1	7	14
2023-09-04T18:00	4830	575	-1.1	-9.2	7	14
2023-09-04T18:00	4851	573	-1.2	-9.0	6	14
2023-09-04T18:00	4876	571	-1.4	-8.9	5	15
2023-09-04T18:00	4897	570	-1.5	-9.1	4	15
2023-09-04T18:00	4919	568	-1.5	-9.6	4	15
2023-09-04T18:00	4941	567	-1.6	-10.1	4	15
2023-09-04T18:00	4967	565	-1.7	-10.8	5	15
2023-09-04T18:00	4992	563	-1.8	-11.1	6	15
2023-09-04T18:00	5013	562	-1.9	-11.8	6	15
2023-09-04T18:00	5033	560	-2.0	-12.5	6	15
2023-09-04T18:00	5052	559	-2.1	-13.3	6	16
2023-09-04T18:00	5072	558	-2.3	-13.7	6	16
2023-09-04T18:00	5092	556	-2.4	-14.5	7	16
2023-09-04T18:00	5109	555	-2.5	-14.8	8	16
2023-09-04T18:00	5129	553	-2.6	-14.4	9	16
2023-09-04T18:00	5150	552	-2.8	-14.1	10	16
2023-09-04T18:00	5169	551	-2.8	-14.3	12	16
2023-09-04T18:00	5195	549	-2.9	-15.8	14	17
2023-09-04T18:00	5219	547	-2.9	-16.2	16	17
2023-09-04T18:00	5243	546	-3.0	-16.7	17	18
2023-09-04T18:00	5260	544	-3.1	-17.1	19	18
2023-09-04T18:00	5280	543	-3.0	-17.8	20	18
2023-09-04T18:00	5300	542	-2.9	-20.5	21	18
2023-09-04T18:00	5322	540	-2.7	-21.2	22	18
2023-09-04T18:00	5353	538	-2.9	-16.7	23	18
2023-09-04T18:00	5379	536	-3.1	-16.1	25	19
2023-09-04T18:00	5402	535	-3.3	-16.3	26	19
2023-09-04T18:00	5433	533	-3.2	-12.6	27	19
2023-09-04T18:00	5459	531	-3.3	-12.9	28	18
2023-09-04T18:00	5484	529	-3.4	-13.0	29	18
2023-09-04T18:00	5507	528	-3.5	-13.2	30	18
2023-09-04T18:00	5534	526	-3.6	-13.5	31	18
2023-09-04T18:00	5554	525	-3.5	-14.8	31	18
2023-09-04T18:00	5575	523	-3.6	-14.7	30	18
2023-09-04T18:00	5598	522	-3.7	-14.7	28	19
2023-09-04T18:00	5622	520	-3.9	-16.2	27	19
2023-09-04T18:00	5649	518	-4.1	-17.8	26	19
2023-09-04T18:00	5678	517	-4.3		26	18
2023-09-04T18:00	5701	515	-4.5	-18.7	27	18
2023-09-04T18:00	5731	513	-4.7	-20.1	28	18
2023-09-04T18:00	5756	511	-4.8	-20.2	28	18
2023-09-04T18:00	5782	510	-4.9	-20.3	28	18
2023-09-04T18:00	5805	508	-5.1	-20.3	28	18
2023-09-04T18:00	5825	507	-5.2	-20.4	27	18
2023-09-04T18:00	5850	505	-5.3	-20.7	26	19
2023-09-04T18:00	5875	504	-5.5	-20.6	25	19
2023-09-04T18:00	5897	502	-5.6	-20.6	24	19
2023-09-04T18:00	5920	501	-5.8	-21.2	23	19
2023-09-04T18:00	5946	499	-6.1	-21.3	23	18
2023-09-04T18:00	5972	497	-6.3	-21.0	23	18
2023-09-04T18:00	6000	496	-6.5	-21.0	24	18
2023-09-04T18:00	6019	494	-6.7	-21.0	23	18
2023-09-04T18:00	6042	493	-6.9	-21.0	22	18
2023-09-04T18:00	6066	492	-7.1	-21.1	20	18
2023-09-04T18:00	6085	490	-7.3	-21.4	19	17
2023-09-04T18:00	6105	489	-7.4	-21.5	17	17
2023-09-04T18:00	6125	488	-7.5	-21.6	16	17
2023-09-04T18:00	6144	487	-7.6	-21.8	16	17
2023-09-04T18:00	6163	485	-7.7	-22.4	16	17
2023-09-04T18:00	6182	484	-7.7	-22.9	17	17
2023-09-04T18:00	6199	483	-7.8	-23.2	17	18
2023-09-04T18:00	6217	482	-7.9	-23.3	17	18
2023-09-04T18:00	6238	481	-8.1	-23.5	18	18
2023-09-04T18:00	6256	480	-8.2	-23.3	18	18
2023-09-04T18:00	6275	478	-8.3	-23.3	18	18
2023-09-04T18:00	6296	477	-8.5	-23.4	18	18
2023-09-04T18:00	6317	476	-8.7	-23.5	18	18
2023-09-04T18:00	6337	475	-8.8	-23.6	18	18
2023-09-04T18:00	6361	473	-9.1	-23.8	19	18
2023-09-04T18:00	6388	472	-9.3	-23.9	19	19
2023-09-04T18:00	6417	470	-9.5	-24.1	20	19
2023-09-04T18:00	6440	468	-9.7	-24.0	20	19
2023-09-04T18:00	6465	467	-10.0	-24.0	21	19
2023-09-04T18:00	6495	465	-10.2	-24.2	21	18
2023-09-04T18:00	6521	464	-10.4	-26.3	20	18
2023-09-04T18:00	6544	462	-10.5	-26.3	20	18
2023-09-04T18:00	6568	461	-10.7	-26.1	19	18
2023-09-04T18:00	6591	459	-10.9	-26.3	18	18
2023-09-04T18:00	6623	457	-11.1	-26.0	17	18
2023-09-04T18:00	6650	456	-11.3	-26.0	15	19
2023-09-04T18:00	6679	454	-11.5	-25.5	14	19
2023-09-04T18:00	6699	453	-11.5	-26.5	12	20
2023-09-04T18:00	6734	451	-11.6	-26.9	11	20
2023-09-04T18:00	6760	449	-11.6	-27.6	11	20
2023-09-04T18:00	6789	448	-11.8	-27.7	11	19
2023-09-04T18:00	6817	446	-12.1	-27.8	12	19
2023-09-04T18:00	6848	444	-12.3	-27.8	13	18
2023-09-04T18:00	6877	442	-12.5	-27.9	14	18
2023-09-04T18:00	6908	441	-12.7	-28.0	15	18
2023-09-04T18:00	6935	439	-12.8	-29.7	15	18
2023-09-04T18:00	6964	437	-12.9	-31.1	15	18
2023-09-04T18:00	6988	436	-13.1	-31.2	16	18
2023-09-04T18:00	7010	435	-13.3	-31.2	17	18
2023-09-04T18:00	7040	433	-13.5	-31.5	18	18
2023-09-04T18:00	7065	432	-13.6	-32.3	19	18
2023-09-04T18:00	7096	430	-13.8	-32.3	19	18
2023-09-04T18:00	7125	428	-14.0	-32.3	19	18
2023-09-04T18:00	7156	427	-14.2	-34.7	18	17
2023-09-04T18:00	7183	425	-14.3	-34.0	18	17
2023-09-04T18:00	7213	423	-14.4	-34.7	17	17
2023-09-04T18:00	7235	422	-14.5	-35.1	17	17
2023-09-04T18:00	7257	421	-14.6	-34.7	18	17
2023-09-04T18:00	7277	420	-14.8	-34.3	18	17
2023-09-04T18:00	7300	418	-15.0	-33.4	19	17
2023-09-04T18:00	7327	417	-15.2	-33.1	19	17
2023-09-04T18:00	7351	416	-15.4	-33.4	19	16
2023-09-04T18:00	7373	414	-15.6	-33.5	19	16
2023-09-04T18:00	7394	413	-15.8	-33.6	19	16
2023-09-04T18:00	7417	412	-16.0	-33.8	19	16
2023-09-04T18:00	7439	411	-16.2	-34.3	19	16
2023-09-04T18:00	7460	410	-16.4	-34.2	20	16
2023-09-04T18:00	7483	408	-16.6	-33.7	21	16
2023-09-04T18:00	7513	407	-16.8	-35.2	23	16
2023-09-04T18:00	7542	405	-16.9	-37.5	24	16
2023-09-04T18:00	7570	404	-17.2	-37.3	24	16
2023-09-04T18:00	7601	402	-17.4	-37.0	24	17
2023-09-04T18:00	7629	401	-17.6	-36.9	24	17
2023-09-04T18:00	7652	399	-17.8	-37.6	23	17
2023-09-04T18:00	7674	398	-17.9	-37.2	23	17
2023-09-04T18:00	7699	397	-18.1	-37.7	23	17
2023-09-04T18:00	7724	395	-18.3	-38.0	23	17
2023-09-04T18:00	7751	394	-18.5	-38.0	23	18
2023-09-04T18:00	7776	393	-18.7	-38.0	23	18
2023-09-04T18:00	7803	391	-19.0	-37.3	22	18
2023-09-04T18:00	7831	390	-19.2	-37.2	22	17
2023-09-04T18:00	7853	389	-19.4	-35.3	22	17
2023-09-04T18:00	7879	387	-19.6	-35.8	22	17
2023-09-04T18:00	7905	386	-19.9	-36.7	22	16
2023-09-04T18:00	7933	385	-20.1	-37.1	22	16
2023-09-04T18:00	7960	383	-20.3	-37.5	22	16
2023-09-04T18:00	7988	382	-20.5	-36.2	22	16
2023-09-04T18:00	8016	380	-20.7	-36.0	23	16
2023-09-04T18:00	8044	379	-21.0	-36.0	23	16
2023-09-04T18:00	8071	377	-21.2	-36.2	23	16
2023-09-04T18:00	8097	376	-21.5	-36.0	23	16
2023-09-04T18:00	8124	375	-21.7	-35.6	23	16
2023-09-04T18:00	8143	374	-21.9	-35.6	23	16
2023-09-04T18:00	8161	373	-22.1	-35.7	22	16
2023-09-04T18:00	8183	372	-22.3	-36.1	22	16
2023-09-04T18:00	8203	371	-22.4	-36.7	22	16
2023-09-04T18:00	8222	370	-22.5	-37.3	22	16
2023-09-04T18:00	8239	369	-22.7	-37.4	21	16
2023-09-04T18:00	8260	368	-22.9	-37.5	21	16
2023-09-04T18:00	8281	367	-23.1	-37.9	21	16
2023-09-04T18:00	8301	366	-23.2	-38.0	21	16
2023-09-04T18:00	8322	365	-23.4	-37.8	21	16
2023-09-04T18:00	8341	364	-23.6	-37.9	20	16
2023-09-04T18:00	8364	363	-23.8	-37.9	20	16
2023-09-04T18:00	8382	362	-24.0	-38.0	19	16
2023-09-04T18:00	8400	361	-24.2	-38.2	19	16
2023-09-04T18:00	8419	360	-24.3	-38.2	19	16
2023-09-04T18:00	8439	359	-24.5	-38.3	19	16
2023-09-04T18:00	8457	358	-24.7	-38.6	19	16
2023-09-04T18:00	8475	357	-24.9	-38.7	20	16
2023-09-04T18:00	8495	356	-25.1		21	16
2023-09-04T18:00	8516	355	-25.2	-38.4	21	16
2023-09-04T18:00	8535	354	-25.4	-38.1	22	16
2023-09-04T18:00	8554	353	-25.5	-38.0	23	16
2023-09-04T18:00	8572	352	-25.7	-38.2	23	16
2023-09-04T18:00	8592	351	-25.9	-38.8	23	16
2023-09-04T18:00	8609	351	-26.0	-39.3	23	16
2023-09-04T18:00	8630	350	-26.1	-38.2	23	16
2023-09-04T18:00	8649	349	-26.3	-36.5	22	16
2023-09-04T18:00	8667	348	-26.5	-35.8	21	16
2023-09-04T18:00	8686	347	-26.6	-36.0	21	16
2023-09-04T18:00	8705	346	-26.8	-36.2	20	16
2023-09-04T18:00	8727	345	-27.0	-36.6	20	16
2023-09-04T18:00	8746	344	-27.1	-37.2	20	16
2023-09-04T18:00	8766	343	-27.1	-38.1	20	16
2023-09-04T18:00	8786	342	-27.2	-37.9	20	16
2023-09-04T18:00	8808	341	-27.4	-38.3	20	16
2023-09-04T18:00	8827	340	-27.5	-38.7	20	17
2023-09-04T18:00	8847	339	-27.6	-38.9	20	17
2023-09-04T18:00	8867	338	-27.6	-40.8	21	18
2023-09-04T18:00	8887	337	-27.7	-42.2	21	18
2023-09-04T18:00	8911	336	-27.8	-43.6	21	19
2023-09-04T18:00	8934	335	-27.8	-44.4	21	19
2023-09-04T18:00	8957	334	-27.9	-45.2	21	20
2023-09-04T18:00	8978	333	-28.0	-45.3	21	20
2023-09-04T18:00	8995	332	-28.2	-45.8	21	20
2023-09-04T18:00	9014	331	-28.3	-46.0	21	21
2023-09-04T18:00	9033	331	-28.5	-46.4	21	21
2023-09-04T18:00	9055	330	-28.6	-46.8	21	21
2023-09-04T18:00	9073	329	-28.8	-47.0	21	21
2023-09-04T18:00	9094	328	-28.9	-47.0	21	22
2023-09-04T18:00	9113	327	-29.1	-47.1	22	22
2023-09-04T18:00	9134	326	-29.2	-47.0	22	23
2023-09-04T18:00	9155	325	-29.4	-46.7	22	23
2023-09-04T18:00	9174	324	-29.5	-47.0	21	23
2023-09-04T18:00	9194	323	-29.6	-46.2	21	23
2023-09-04T18:00	9213	322	-29.7	-42.6	20	23
2023-09-04T18:00	9231	322	-29.8	-40.1	19	24
2023-09-04T18:00	9251	321	-29.9	-38.9	18	24
2023-09-04T18:00	9271	320	-30.0	-39.2	17	24
2023-09-04T18:00	9291	319	-30.1	-39.8	17	24
2023-09-04T18:00	9309	318	-30.2	-40.1	16	24
2023-09-04T18:00	9329	317	-30.3	-37.4	16	24
2023-09-04T18:00	9349	316	-30.5	-36.7	16	24
2023-09-04T18:00	9370	315	-30.7	-37.0	16	24
2023-09-04T18:00	9388	315	-30.8	-36.8	15	24
2023-09-04T18:00	9408	314	-31.0	-36.9	15	24
2023-09-04T18:00	9428	313	-31.2	-37.1	15	24
2023-09-04T18:00	9448	312	-31.4	-37.2	15	24
2023-09-04T18:00	9468	311	-31.6	-37.5	14	24
2023-09-04T18:00	9488	310	-31.7	-37.5	14	23
2023-09-04T18:00	9507	309	-31.9	-37.7	13	23
2023-09-04T18:00	9526	308	-32.1	-38.1	13	23
2023-09-04T18:00	9545	308	-32.2	-38.6	12	23
2023-09-04T18:00	9563	307	-32.3	-39.0	12	23
2023-09-04T18:00	9582	306	-32.4	-39.2	11	23
2023-09-04T18:00	9602	305	-32.6	-39.5	11	23
2023-09-04T18:00	9620	304	-32.7	-40.1	11	23
2023-09-04T18:00	9639	304	-32.8	-40.8	11	23
2023-09-04T18:00	9658	303	-33.0	-41.5	11	23
2023-09-04T18:00	9677	302	-33.1	-42.2	11	23
2023-09-04T18:00	9697	301	-33.2	-42.0	11	23
2023-09-04T18:00	9719	300	-33.4	-41.2	11	22
2023-09-04T18:00	9737	299	-33.6	-41.5	11	22
2023-09-04T18:00	9757	299	-33.7	-42.0	11	22
2023-09-04T18:00	9776	298	-33.9	-42.7	11	22
2023-09-04T18:00	9796	297	-34.1	-42.7	11	22
2023-09-04T18:00	9816	296	-34.2	-41.9	11	22
2023-09-04T18:00	9833	295	-34.3	-42.0	11	22
2023-09-04T18:00	9852	294	-34.5	-43.3	11	22
2023-09-04T18:00	9871	294	-34.6	-43.9	11	22
2023-09-04T18:00	9891	293	-34.8	-43.6	10	22
2023-09-04T18:00	9911	292	-34.9	-43.6	9	22
2023-09-04T18:00	9932	291	-35.0	-43.3	9	22
2023-09-04T18:00	9951	290	-35.2	-41.4	8	22
2023-09-04T18:00	9971	289	-35.4	-40.7	8	22
2023-09-04T18:00	9990	289	-35.6	-39.9	8	22
2023-09-04T18:00	10010	288	-35.7	-39.8	8	22
2023-09-04T18:00	10028	287	-35.9	-40.1	8	22
2023-09-04T18:00	10047	286	-36.1	-40.2	8	22
2023-09-04T18:00	10067	286	-36.3	-40.4	8	22
2023-09-04T18:00	10085	285	-36.4	-40.3	7	22
2023-09-04T18:00	10105	284	-36.6	-40.3	7	22
2023-09-04T18:00	10126	283	-36.7	-40.4	7	22
2023-09-04T18:00	10144	282	-36.9	-40.5	7	22
2023-09-04T18:00	10162	282	-37.0	-40.8	7	22
2023-09-04T18:00	10184	281	-37.1	-41.1	7	22
2023-09-04T18:00	10204	280	-37.2	-41.0	6	22
2023-09-04T18:00	10225	279	-37.4	-41.4	6	22
2023-09-04T18:00	10244	278	-37.5	-41.4	6	22
2023-09-04T18:00	10263	278	-37.6	-41.0	6	22
2023-09-04T18:00	10284	277	-37.7	-41.3	7	22
2023-09-04T18:00	10303	276	-37.7	-42.2	8	22
2023-09-04T18:00	10321	275	-37.8	-43.2	9	22
2023-09-04T18:00	10340	274	-37.8	-43.7	10	22
2023-09-04T18:00	10360	274	-37.7	-44.2	11	22
2023-09-04T18:00	10381	273	-37.6	-45.7	12	22
2023-09-04T18:00	10400	272	-37.6	-46.7	13	22
2023-09-04T18:00	10421	271	-37.8	-46.5	14	22
2023-09-04T18:00	10438	271	-37.9	-46.3	14	22
2023-09-04T18:00	10458	270	-38.1	-46.5	15	22
2023-09-04T18:00	10478	269	-38.2	-46.6	15	22
2023-09-04T18:00	10497	268	-38.4	-46.8	16	22
2023-09-04T18:00	10519	267	-38.6	-47.0	16	22
2023-09-04T18:00	10538	267	-38.8	-47.2	17	22
2023-09-04T18:00	10556	266	-38.9	-47.3	17	22
2023-09-04T18:00	10574	265	-39.1	-47.4	18	22
2023-09-04T18:00	10596	264	-39.3	-47.5	18	23
2023-09-04T18:00	10617	264	-39.5	-47.6	19	23
2023-09-04T18:00	10634	263	-39.7	-47.8	19	23
2023-09-04T18:00	10654	262	-39.9	-47.9	19	23
2023-09-04T18:00	10675	261	-40.0	-48.0	20	23
2023-09-04T18:00	10695	261	-40.2	-48.3	20	23
2023-09-04T18:00	10715	260	-40.4	-48.5	20	23
2023-09-04T18:00	10737	259	-40.6	-48.6	21	23
2023-09-04T18:00	10753	258	-40.8	-48.8	21	24
2023-09-04T18:00	10774	258	-41.0	-48.8	21	24
2023-09-04T18:00	10794	257	-41.2	-48.9	21	24
2023-09-04T18:00	10814	256	-41.4	-49.0	21	24
2023-09-04T18:00	10834	255	-41.6	-49.1	20	24
2023-09-04T18:00	10855	255	-41.8	-49.3	20	24
2023-09-04T18:00	10874	254	-42.0	-49.5	20	24
2023-09-04T18:00	10892	253	-42.1	-49.7	20	24
2023-09-04T18:00	10914	252	-42.3	-49.9	20	24
2023-09-04T18:00	10933	252	-42.5	-50.2	20	25
2023-09-04T18:00	10955	251	-42.7	-50.5	19	25
2023-09-04T18:00	10974	250	-42.9	-51.2	19	25
2023-09-04T18:00	10993	249	-43.0	-52.3	18	25
2023-09-04T18:00	11014	249	-43.1	-53.4	18	26
2023-09-04T18:00	11035	248	-43.3	-53.9	17	26
2023-09-04T18:00	11054	247	-43.4	-54.0	16	26
2023-09-04T18:00	11073	246	-43.5	-54.7	15	25
2023-09-04T18:00	11093	246	-43.7	-55.5	14	25
2023-09-04T18:00	11113	245	-43.8	-56.1	14	25
2023-09-04T18:00	11134	244	-43.9	-56.5	13	25
2023-09-04T18:00	11154	243	-43.9	-56.9	13	25
2023-09-04T18:00	11174	243	-44.0	-57.4	13	25
2023-09-04T18:00	11193	242	-44.1	-57.9	12	25
2023-09-04T18:00	11212	241	-44.2	-58.4	12	24
2023-09-04T18:00	11232	241	-44.3	-59.1	13	24
2023-09-04T18:00	11252	240	-44.3	-59.5	13	24
2023-09-04T18:00	11271	239	-44.5	-60.1	13	24
2023-09-04T18:00	11293	239	-44.6	-60.4	13	24
2023-09-04T18:00	11312	238	-44.8	-60.7	14	24
2023-09-04T18:00	11331	237	-44.9		14	24
2023-09-04T18:00	11351	236	-45.1	-60.8	14	24
2023-09-04T18:00	11372	236	-45.2	-60.8	14	24
2023-09-04T18:00	11392	235	-45.5	-61.0	15	24
2023-09-04T18:00	11412	234	-45.6	-60.9	15	23
2023-09-04T18:00	11432	234	-45.8		16	23
2023-09-04T18:00	11452	233	-45.9	-61.3	16	23
2023-09-04T18:00	11472	232	-46.1	-61.7	16	23
2023-09-04T18:00	11494	231	-46.2	-62.2	15	22
2023-09-04T18:00	11515	231	-46.3	-62.7	15	22
2023-09-04T18:00	11535	230	-46.4	-62.9	14	22
2023-09-04T18:00	11554	229	-46.6	-62.8	13	22
2023-09-04T18:00	11574	229	-46.8	-62.7	13	22
2023-09-04T18:00	11594	228	-47.0	-62.8	13	22
2023-09-04T18:00	11614	227	-47.2	-63.1	12	22
2023-09-04T18:00	11633	227	-47.2	-63.3	12	22
2023-09-04T18:00	11653	226	-47.4	-63.1	12	22
2023-09-04T18:00	11675	225	-47.5	-62.3	12	22
2023-09-04T18:00	11692	225	-47.7	-62.3	12	22
2023-09-04T18:00	11711	224	-47.8	-62.8	12	22
2023-09-04T18:00	11731	223	-47.9	-63.2	11	22
2023-09-04T18:00	11752	223	-48.0	-63.1	10	22
2023-09-04T18:00	11772	222	-48.1	-62.6	9	22
2023-09-04T18:00	11793	221	-48.2	-62.0	9	22
2023-09-04T18:00	11813	220	-48.4	-62.1	8	22
2023-09-04T18:00	11832	220	-48.4	-62.9	7	23
2023-09-04T18:00	11853	219	-48.6	-63.9	7	23
2023-09-04T18:00	11874	219	-48.7	-63.7	7	23
2023-09-04T18:00	11894	218	-48.9	-63.2	6	23
2023-09-04T18:00	11912	217	-49.0	-62.9	6	23
2023-09-04T18:00	11932	217	-49.2	-62.7	6	24
2023-09-04T18:00	11953	216	-49.4	-62.5	5	24
2023-09-04T18:00	11974	215	-49.6	-62.3	5	24
2023-09-04T18:00	11995	215	-49.8	-62.0	5	24
2023-09-04T18:00	12015	214	-49.9	-61.7	4	24
2023-09-04T18:00	12033	213	-50.1	-61.5	4	25
2023-09-04T18:00	12057	213	-50.3	-61.5	4	25
2023-09-04T18:00	12076	212	-50.5	-61.5	4	25
2023-09-04T18:00	12095	211	-50.7	-61.5	4	25
2023-09-04T18:00	12114	211	-50.9	-61.5	4	25
2023-09-04T18:00	12134	210	-51.1	-61.5	3	25
2023-09-04T18:00	12154	209	-51.3	-61.3	3	25
2023-09-04T18:00	12174	209	-51.5	-61.0	3	25
2023-09-04T18:00	12192	208	-51.6	-60.3	3	24
2023-09-04T18:00	12212	207	-51.7	-59.8	3	24
2023-09-04T18:00	12231	207	-51.9	-59.7	3	24
2023-09-04T18:00	12250	206	-52.1	-59.6	3	24
2023-09-04T18:00	12270	206	-52.3	-59.6	3	24
2023-09-04T18:00	12287	205	-52.4	-59.5	3	24
2023-09-04T18:00	12306	204	-52.6	-59.5	4	23
2023-09-04T18:00	12325	204	-52.8	-59.6	4	23
2023-09-04T18:00	12345	203	-52.9	-59.8	4	23
2023-09-04T18:00	12365	203	-53.0	-60.4	4	23
2023-09-04T18:00	12385	202	-53.1	-61.5	5	23
2023-09-04T18:00	12404	201	-53.1		5	23
2023-09-04T18:00	12420	201	-53.2	-62.7	5	23
2023-09-04T18:00	12439	200	-53.3	-62.8	5	23
2023-09-04T18:00	12461	200	-53.4	-63.0	4	22
2023-09-04T18:00	12481	199	-53.6	-63.4	4	22
2023-09-04T18:00	12501	198	-53.7	-63.3	4	22
2023-09-04T18:00	12522	198	-53.9	-63.3	4	23
2023-09-04T18:00	12542	197	-54.0	-62.8	4	23
2023-09-04T18:00	12561	197	-54.2	-62.3	4	23
2023-09-04T18:00	12580	196	-54.4	-62.1	4	23
2023-09-04T18:00	12600	195	-54.4	-62.2	4	23
2023-09-04T18:00	12621	195	-54.6	-62.7	4	23
2023-09-04T18:00	12642	194	-54.8	-62.8	3	23
2023-09-04T18:00	12662	193	-54.9	-62.5	2	23
2023-09-04T18:00	12683	193	-55.1	-62.4	1	23
2023-09-04T18:00	12702	192	-55.2	-62.6	0	23
2023-09-04T18:00	12722	192	-55.2	-63.1	360	23
2023-09-04T18:00	12741	191	-55.3	-63.7	359	23
2023-09-04T18:00	12760	190	-55.3	-63.9	360	22
2023-09-04T18:00	12781	190	-55.4	-64.1	1	22
2023-09-04T18:00	12801	189	-55.5	-64.5	1	22
2023-09-04T18:00	12819	189	-55.6	-65.0	2	22
2023-09-04T18:00	12841	188	-55.7	-65.3	3	22
2023-09-04T18:00	12860	188	-55.9	-65.4	3	22
2023-09-04T18:00	12878	187	-56.0	-65.3	3	22
2023-09-04T18:00	12900	186	-56.2	-65.2	4	22
2023-09-04T18:00	12919	186	-56.4	-65.2	4	22
2023-09-04T18:00	12939	185	-56.5	-65.1	4	22
2023-09-04T18:00	12960	185	-56.7	-65.2	4	21
2023-09-04T18:00	12979	184	-56.9	-65.2	4	21
2023-09-04T18:00	12997	183	-57.1	-65.3	4	21
2023-09-04T18:00	13021	183	-57.3	-65.3	4	21
2023-09-04T18:00	13041	182	-57.5	-65.4	4	21
2023-09-04T18:00	13061	182	-57.6	-65.3	4	21
2023-09-04T18:00	13083	181	-57.8	-65.3	4	22
2023-09-04T18:00	13102	180	-58.0	-65.5	4	22
2023-09-04T18:00	13123	180	-58.2	-65.8	4	22
2023-09-04T18:00	13143	179	-58.3	-66.2	4	22
2023-09-04T18:00	13163	179	-58.4	-66.7	4	22
2023-09-04T18:00	13186	178	-58.6	-67.0	5	22
2023-09-04T18:00	13208	177	-58.7	-67.0	5	22
2023-09-04T18:00	13229	177	-58.9	-67.0	5	22
2023-09-04T18:00	13248	176	-59.0	-66.8	5	21
2023-09-04T18:00	13273	176	-59.2	-66.7	5	21
2023-09-04T18:00	13294	175	-59.3	-66.7	5	21
2023-09-04T18:00	13315	174	-59.4	-66.8	5	21
2023-09-04T18:00	13338	174	-59.6	-67.0	5	21
2023-09-04T18:00	13357	173	-59.8	-67.1	6	20
2023-09-04T18:00	13379	173	-60.0	-66.9	6	20
2023-09-04T18:00	13400	172	-60.2	-66.7	7	20
2023-09-04T18:00	13421	172	-60.4	-66.5	7	19
2023-09-04T18:00	13442	171	-60.5	-66.3	7	19
2023-09-04T18:00	13464	170	-60.7	-66.3	7	19
2023-09-04T18:00	13483	170	-60.8	-66.4	7	18
2023-09-04T18:00	13506	169	-61.0	-66.7	7	18
2023-09-04T18:00	13527	169	-61.2	-67.1	7	18
2023-09-04T18:00	13550	168	-61.4	-67.4	6	18
2023-09-04T18:00	13570	167	-61.6	-67.6	4	18
2023-09-04T18:00	13591	167	-61.7	-67.7	2	18
2023-09-04T18:00	13617	166	-61.8	-67.7	0	19
2023-09-04T18:00	13637	166	-62.0	-67.8	358	19
2023-09-04T18:00	13660	165	-62.1	-67.7	356	19
2023-09-04T18:00	13682	164	-62.1	-67.6	355	19
2023-09-04T18:00	13706	164	-62.1	-67.5	354	19
2023-09-04T18:00	13726	163	-62.2	-67.6	354	19
2023-09-04T18:00	13746	163	-62.3	-67.8	354	19
2023-09-04T18:00	13766	162	-62.5	-68.1	354	19
2023-09-04T18:00	13787	162	-62.7	-68.5	355	18
2023-09-04T18:00	13811	161	-62.5	-69.0	355	18
2023-09-04T18:00	13833	161	-62.5	-70.3	355	18
2023-09-04T18:00	13851	160	-62.1	-72.1	355	17
2023-09-04T18:00	13872	159	-61.0	-74.0	355	17
2023-09-04T18:00	13893	159	-60.7	-77.0	355	17
2023-09-04T18:00	13913	158	-60.6	-79.5	354	18
2023-09-04T18:00	13936	158	-60.7	-80.1	354	18
2023-09-04T18:00	13954	157	-60.9	-79.6	353	18
2023-09-04T18:00	13974	157	-61.0	-78.9	352	18
2023-09-04T18:00	13994	156	-61.1	-78.4	352	18
2023-09-04T18:00	14014	156	-61.3	-78.1	352	18
2023-09-04T18:00	14035	155	-61.4	-77.8	352	18
2023-09-04T18:00	14053	155	-61.6	-77.5	352	18
2023-09-04T18:00	14075	154	-61.8	-77.4	351	18
2023-09-04T18:00	14094	154	-62.0	-77.3	351	18
2023-09-04T18:00	14116	153	-62.2	-77.2	352	18
2023-09-04T18:00	14136	153	-62.3	-77.2	352	18
2023-09-04T18:00	14156	152	-62.5	-77.2	352	17
2023-09-04T18:00	14178	152	-62.6	-77.2	352	17
2023-09-04T18:00	14198	151	-62.8	-77.4	352	16
2023-09-04T18:00	14219	151	-62.9	-77.5	352	16
2023-09-04T18:00	14239	150	-63.0	-77.6	353	15
2023-09-04T18:00	14260	150	-63.0	-77.7	353	15
2023-09-04T18:00	14280	149	-63.0	-77.8	353	15
2023-09-04T18:00	14301	149	-62.9	-77.8	353	14
2023-09-04T18:00	14321	148	-63.0	-77.9	352	15
2023-09-04T18:00	14343	148	-63.2	-77.9	352	15
2023-09-04T18:00	14364	147	-63.3	-77.8	351	15
2023-09-04T18:00	14385	147	-63.5	-77.7	350	15
2023-09-04T18:00	14406	146	-63.6	-77.4	349	15
2023-09-04T18:00	14427	146	-63.7	-77.2	349	15
2023-09-04T18:00	14447	145	-63.9	-77.1	348	15
2023-09-04T18:00	14467	145	-64.1	-77.0	348	15
2023-09-04T18:00	14490	144	-64.3	-77.0	348	16
2023-09-04T18:00	14510	144	-64.4	-76.8	347	16
2023-09-04T18:00	14529	143	-64.6	-76.6	347	16
2023-09-04T18:00	14551	143	-64.8	-76.4	348	16
2023-09-04T18:00	14574	142	-65.0	-76.2	349	16
2023-09-04T18:00	14592	142	-65.1	-75.9	350	16
2023-09-04T18:00	14614	141	-65.3	-75.6	351	16
2023-09-04T18:00	14634	141	-65.5	-75.4	353	16
2023-09-04T18:00	14655	140	-65.6		354	16
2023-09-04T18:00	14675	140	-65.7	-75.0	356	16
2023-09-04T18:00	14697	139	-65.9	-74.9	357	16
2023-09-04T18:00	14718	139	-66.1	-74.8	358	16
2023-09-04T18:00	14738	139	-66.2	-74.7	359	16
2023-09-04T18:00	14760	138	-66.3	-74.7	359	16
2023-09-04T18:00	14781	138	-66.4	-74.7	359	15
2023-09-04T18:00	14802	137	-66.5	-74.7	359	15
2023-09-04T18:00	14821	137	-66.5	-74.7	360	14
2023-09-04T18:00	14841	136	-66.5	-74.6	1	14
2023-09-04T18:00	14864	136	-66.5	-74.6	1	13
2023-09-04T18:00	14884	135	-66.6	-74.6	2	13
2023-09-04T18:00	14905	135	-66.8	-74.7	3	13
2023-09-04T18:00	14925	134	-66.9		4	13
2023-09-04T18:00	14947	134	-67.1	-74.7	5	13
2023-09-04T18:00	14966	133	-67.2	-74.7	7	13
2023-09-04T18:00	14985	133	-67.4	-74.8	9	13
2023-09-04T18:00	15006	133	-67.6	-75.0	11	13
2023-09-04T18:00	15027	132	-67.7	-75.2	13	13
2023-09-04T18:00	15047	132	-67.8	-75.6	15	13
2023-09-04T18:00	15064	131	-67.8	-76.1	18	13
2023-09-04T18:00	15085	131	-67.8	-76.8	20	13
2023-09-04T18:00	15105	130	-67.4	-77.3	22	13
2023-09-04T18:00	15121	130	-67.3	-78.1	24	12
2023-09-04T18:00	15141	130	-67.3	-79.0	25	12
2023-09-04T18:00	15160	129	-67.4	-79.6	26	12
2023-09-04T18:00	15179	129	-67.5	-80.0	27	12
2023-09-04T18:00	15196	128	-67.5	-80.0	28	12
2023-09-04T18:00	15216	128	-67.5	-80.0	28	11
2023-09-04T18:00	15235	128	-67.6	-80.1	28	11
2023-09-04T18:00	15256	127	-67.5	-80.3	26	11
2023-09-04T18:00	15277	127	-66.9	-80.1	24	10
2023-09-04T18:00	15295	126	-66.0	-79.8	19	10
2023-09-04T18:00	15316	126	-66.0	-80.3	15	10
2023-09-04T18:00	15337	125	-65.7	-80.4	11	11
2023-09-04T18:00	15354	125	-65.7	-80.7	7	11
2023-09-04T18:00	15373	125	-65.6	-80.8	5	11
2023-09-04T18:00	15394	124	-65.6	-81.0	2	12
2023-09-04T18:00	15417	124	-65.8	-81.2	1	13
2023-09-04T18:00	15440	123	-65.9	-81.4	360	13
2023-09-04T18:00	15463	123	-65.9	-81.6	360	14
2023-09-04T18:00	15481	122	-65.6	-81.4	360	14
2023-09-04T18:00	15504	122	-65.6	-81.5	0	15
2023-09-04T18:00	15525	122	-65.6	-81.6	1	15
2023-09-04T18:00	15544	121	-65.7	-81.7	2	15
2023-09-04T18:00	15566	121	-65.9	-81.8	3	15
2023-09-04T18:00	15588	120	-66.0	-81.8	5	15
2023-09-04T18:00	15606	120	-66.1	-81.9	7	15
2023-09-04T18:00	15631	120	-66.2	-81.9	9	15
2023-09-04T18:00	15649	119	-66.3	-82.0	11	15
2023-09-04T18:00	15669	119	-66.4	-82.1	13	15
2023-09-04T18:00	15689	118	-66.4	-82.1	15	15
2023-09-04T18:00	15713	118	-66.5	-82.1	17	15
2023-09-04T18:00	15732	118	-66.6	-82.2	20	16
2023-09-04T18:00	15756	117	-66.5	-82.2	22	16
2023-09-04T18:00	15778	117	-66.6	-82.4	24	16
2023-09-04T18:00	15801	116	-66.6	-82.4	26	17
2023-09-04T18:00	15824	116	-66.6	-82.6	28	17
2023-09-04T18:00	15844	115	-66.7	-82.8	31	17
2023-09-04T18:00	15866	115	-66.7	-82.9	33	16
2023-09-04T18:00	15886	115	-66.4	-82.9	36	16
2023-09-04T18:00	15909	114	-66.2	-83.0	39	15
2023-09-04T18:00	15932	114	-66.0	-83.1	43	14
2023-09-04T18:00	15955	113	-65.6	-82.9	46	14
2023-09-04T18:00	15974	113	-65.5	-83.0	49	13
2023-09-04T18:00	16000	112	-65.4	-83.0	51	13
2023-09-04T18:00	16022	112	-65.4	-83.1	52	12
2023-09-04T18:00	16044	112	-65.2	-83.0	52	12
2023-09-04T18:00	16064	111	-65.3	-83.1	51	12
2023-09-04T18:00	16084	111	-65.4	-83.2	48	11
2023-09-04T18:00	16107	110	-65.5	-83.2	46	11
2023-09-04T18:00	16129	110	-65.6	-83.2	44	10
2023-09-04T18:00	16150	110	-65.8	-83.2	41	10
2023-09-04T18:00	16173	109	-65.9	-83.2	39	10
2023-09-04T18:00	16194	109	-66.0	-83.3	37	9
2023-09-04T18:00	16220	108	-65.9	-83.2	35	9
2023-09-04T18:00	16240	108	-65.8	-83.1	33	8
2023-09-04T18:00	16262	108	-65.6	-82.9	31	8
2023-09-04T18:00	16286	107	-65.5	-82.8	28	8
2023-09-04T18:00	16309	107	-65.6	-82.9	24	7
2023-09-04T18:00	16333	106	-65.6	-82.8	20	7
2023-09-04T18:00	16357	106	-65.6	-82.8	17	8
2023-09-04T18:00	16379	106	-65.8	-83.0	15	8
2023-09-04T18:00	16402	105	-65.9	-83.1	15	8
2023-09-04T18:00	16423	105	-66.1	-83.2	16	9
2023-09-04T18:00	16446	104	-66.1	-83.2	18	9
2023-09-04T18:00	16468	104	-66.0	-83.2	20	10
2023-09-04T18:00	16491	104	-66.1	-83.4	22	10
2023-09-04T18:00	16511	103	-66.1	-83.5	24	10
2023-09-04T18:00	16533	103	-66.1	-83.6	27	10
2023-09-04T18:00	16554	103	-66.2	-83.9	29	10
2023-09-04T18:00	16573	102	-66.0	-84.1	32	10
2023-09-04T18:00	16598	102	-65.6	-84.0	34	9
2023-09-04T18:00	16618	102	-65.3	-84.1	37	9
2023-09-04T18:00	16639	101	-65.3	-84.5	41	8
2023-09-04T18:00	16661	101	-65.3	-84.7	45	7
2023-09-04T18:00	16684	101	-65.0	-84.7	48	7
2023-09-04T18:00	16705	100	-64.6	-84.7	50	6
2023-09-04T18:00	16726	100	-64.4	-84.7	50	6
2023-09-04T18:00	16747	99	-64.4	-84.9	48	5
2023-09-04T18:00	16770	99	-64.4	-85.0	44	4
2023-09-04T18:00	16794	99	-64.3	-85.1	38	4
2023-09-04T18:00	16818	98	-64.3	-85.1	31	3
2023-09-04T18:00	16839	98	-64.5	-85.1	21	3
2023-09-04T18:00	16861	98	-64.6	-85.2	10	3
2023-09-04T18:00	16886	97	-64.8	-85.2	360	3
2023-09-04T18:00	16908	97	-65.0	-85.2	352	4
2023-09-04T18:00	16929	97	-65.1	-85.3	349	4
2023-09-04T18:00	16950	96	-65.2	-85.4	348	5
2023-09-04T18:00	16969	96	-65.3	-85.5	350	5
2023-09-04T18:00	16992	96	-65.3	-85.6	352	6
2023-09-04T18:00	17014	95	-65.2	-85.7	354	6
2023-09-04T18:00	17032	95	-65.1		355	6
2023-09-04T18:00	17051	95	-64.9	-85.7	357	6
2023-09-04T18:00	17071	94	-64.6	-85.6	358	6
2023-09-04T18:00	17095	94	-64.6	-85.8	359	6
2023-09-04T18:00	17114	94	-64.7	-85.9	0	6
2023-09-04T18:00	17135	93	-64.5	-85.9	1	6
2023-09-04T18:00	17156	93	-64.3	-85.7	1	6
2023-09-04T18:00	17179	93	-64.1	-85.7	360	7
2023-09-04T18:00	17203	92	-63.9	-85.7	359	7
2023-09-04T18:00	17223	92	-63.6	-85.8	357	7
2023-09-04T18:00	17245	92	-63.5	-85.9	356	7
2023-09-04T18:00	17269	91	-63.4	-86.2	354	7
2023-09-04T18:00	17293	91	-63.0	-86.1	352	6
2023-09-04T18:00	17315	91	-62.7	-86.1	349	6
2023-09-04T18:00	17335	90	-62.7	-86.1	347	6
2023-09-04T18:00	17359	90	-62.8	-86.2	345	6
2023-09-04T18:00	17380	90	-62.8	-86.2	344	6
2023-09-04T18:00	17405	89	-62.7	-86.1	344	6
2023-09-04T18:00	17425	89	-62.8	-86.2	345	6
2023-09-04T18:00	17448	89	-62.9	-86.3	348	6
2023-09-04T18:00	17472	88	-62.8	-86.2	352	6
2023-09-04T18:00	17491	88	-62.7	-86.1	356	6
2023-09-04T18:00	17515	88	-62.7	-86.1	1	7
2023-09-04T18:00	17537	87	-62.7	-86.3	6	7
2023-09-04T18:00	17562	87	-62.4	-86.1	11	7
2023-09-04T18:00	17584	87	-62.4	-86.3	16	7
2023-09-04T18:00	17605	86	-62.0	-86.0	21	7
2023-09-04T18:00	17628	86	-61.8	-85.9	26	8
2023-09-04T18:00	17653	86	-61.8	-85.9	30	8
2023-09-04T18:00	17676	85	-61.8	-86.1	35	8
2023-09-04T18:00	17697	85	-61.8	-86.1	38	8
2023-09-04T18:00	17721	85	-61.8	-86.1	41	8
2023-09-04T18:00	17745	85	-61.8	-86.1	43	8
2023-09-04T18:00	17767	84	-61.7	-86.0	45	7
2023-09-04T18:00	17790	84	-61.7	-86.0	46	7
2023-09-04T18:00	17812	84	-61.6	-85.9	48	7
2023-09-04T18:00	17834	83	-61.6	-86.2	49	6
2023-09-04T18:00	17856	83	-61.5	-86.1	50	6
2023-09-04T18:00	17881	83	-61.4	-86.0	51	6
2023-09-04T18:00	17903	82	-61.4	-86.0	51	6
2023-09-04T18:00	17924	82	-61.5	-86.1	50	6
2023-09-04T18:00	17947	82	-61.6	-86.2	49	6
2023-09-04T18:00	17967	82	-61.7	-86.3	47	6
2023-09-04T18:00	17993	81	-61.5	-86.1	44	6
2023-09-04T18:00	18016	81	-61.5	-86.4	42	6
2023-09-04T18:00	18039	81	-61.4	-86.3	38	6
2023-09-04T18:00	18061	80	-61.4	-86.3	35	5
2023-09-04T18:00	18083	80	-61.5	-86.4	31	5
2023-09-04T18:00	18105	80	-61.6	-86.5	27	5
2023-09-04T18:00	18130	79	-61.7	-86.5	22	5
2023-09-04T18:00	18154	79	-61.8	-86.6	18	5
2023-09-04T18:00	18175	79	-61.7	-86.5	14	5
2023-09-04T18:00	18199	79	-61.7	-86.5	11	5
2023-09-04T18:00	18224	78	-61.6	-86.5	9	5
2023-09-04T18:00	18247	78	-61.5	-86.4	8	5
2023-09-04T18:00	18268	78	-61.6	-86.5	6	5
2023-09-04T18:00	18289	77	-61.5	-86.4	4	5
2023-09-04T18:00	18311	77	-61.4	-86.3	2	5
2023-09-04T18:00	18336	77	-61.5	-86.4	359	4
2023-09-04T18:00	18360	77	-61.7	-86.5	356	4
2023-09-04T18:00	18385	76	-61.7	-86.3	352	4
2023-09-04T18:00	18405	76	-61.9	-86.4	346	3
2023-09-04T18:00	18429	76	-62.0	-86.5	339	3
2023-09-04T18:00	18451	75	-62.1	-86.6	331	4
2023-09-04T18:00	18471	75	-62.1	-86.6	325	4
2023-09-04T18:00	18496	75	-62.3	-86.7	322	4
2023-09-04T18:00	18520	75	-62.3	-86.7	321	4
2023-09-04T18:00	18540	74	-62.2	-86.9	322	4
2023-09-04T18:00	18565	74	-62.3	-87.0	325	4
2023-09-04T18:00	18589	74	-61.9	-86.7	328	4
2023-09-04T18:00	18610	74	-61.8	-86.9	330	5
2023-09-04T18:00	18632	73	-61.4	-86.6	333	5
2023-09-04T18:00	18653	73	-61.4	-86.9	335	6
2023-09-04T18:00	18676	73	-61.2	-86.7	338	6
2023-09-04T18:00	18700	72	-61.1	-86.6	343	6
2023-09-04T18:00	18723	72	-61.2	-86.7	349	6
2023-09-04T18:00	18747	72	-61.3	-86.8	356	6
2023-09-04T18:00	18769	72	-61.3	-86.8	2	7
2023-09-04T18:00	18796	71	-61.2	-86.7	8	7
2023-09-04T18:00	18819	71	-61.1	-86.6	14	7
2023-09-04T18:00	18842	71	-61.0	-86.6	19	7
2023-09-04T18:00	18866	71	-61.0	-86.6	23	7
2023-09-04T18:00	18889	70	-60.8	-86.4	26	7
2023-09-04T18:00	18913	70	-60.7	-86.3	29	7
2023-09-04T18:00	18934	70	-60.8	-86.4	32	7
2023-09-04T18:00	18960	69	-60.9	-86.8	34	7
2023-09-04T18:00	18984	69	-61.0	-86.9	35	7
2023-09-04T18:00	19003	69	-60.7	-86.6	35	6
2023-09-04T18:00	19027	69	-60.6	-86.6	33	6
2023-09-04T18:00	19050	68	-60.4	-86.7	30	5
2023-09-04T18:00	19076	68	-60.1	-86.5	26	5
2023-09-04T18:00	19096	68	-60.0	-86.4	22	5
2023-09-04T18:00	19118	68	-59.9	-86.3	19	4
2023-09-04T18:00	19141	67	-60.0	-86.4	19	4
2023-09-04T18:00	19161	67	-60.1	-86.5	21	4
2023-09-04T18:00	19186	67	-59.9	-86.3	24	4
2023-09-04T18:00	19204	67	-59.9	-86.3	27	5
2023-09-04T18:00	19224	67	-59.9	-86.3	28	5
2023-09-04T18:00	19245	66	-60.0	-86.4	29	5
2023-09-04T18:00	19271	66	-60.0	-86.4	28	6
2023-09-04T18:00	19291	66	-59.8	-86.6	28	6
2023-09-04T18:00	19310	66	-59.7	-86.5	27	6
2023-09-04T18:00	19333	65	-59.7	-86.5	28	6
2023-09-04T18:00	19349	65	-59.5	-86.4	29	6
2023-09-04T18:00	19373	65	-59.2	-86.2	32	5
2023-09-04T18:00	19396	65	-59.1		37	5
2023-09-04T18:00	19418	65	-59.1		44	5
2023-09-04T18:00	19439	64	-59.2	-86.2	51	4
2023-09-04T18:00	19462	64	-59.4	-86.3	56	4
2023-09-04T18:00	19485	64	-59.3	-86.2	61	4
2023-09-04T18:00	19504	64	-59.2	-86.2	63	4
2023-09-04T18:00	19528	63	-59.3	-86.2	63	4
2023-09-04T18:00	19554	63	-59.4	-86.3	60	3
2023-09-04T18:00	19574	63	-59.4	-86.3	55	3
2023-09-04T18:00	19597	63	-59.3	-86.2	48	3
2023-09-04T18:00	19619	63	-59.4	-86.0	42	3
2023-09-04T18:00	19640	62	-59.6	-86.1	37	3
2023-09-04T18:00	19664	62	-59.6	-86.1	35	3
2023-09-04T18:00	19689	62	-59.7	-86.2	33	3
2023-09-04T18:00	19714	62	-59.7	-86.2	31	2
2023-09-04T18:00	19735	61	-59.7	-86.2	29	2
2023-09-04T18:00	19759	61	-59.7	-86.2	23	2
2023-09-04T18:00	19784	61	-59.8	-86.3	16	3
2023-09-04T18:00	19805	61	-60.0	-86.4	10	3
2023-09-04T18:00	19830	60	-60.0	-86.4	6	4
2023-09-04T18:00	19852	60	-59.9	-86.3	3	4
2023-09-04T18:00	19875	60	-59.8	-86.3	1	4
2023-09-04T18:00	19899	60	-59.8	-86.3	1	5
2023-09-04T18:00	19925	60	-59.9	-86.7	1	5
2023-09-04T18:00	19948	59	-59.8	-86.6	2	5
2023-09-04T18:00	19974	59	-59.9	-86.7	3	5
2023-09-04T18:00	19993	59	-59.8	-86.6	3	5
2023-09-04T18:00	20020	59	-59.6	-86.5	3	5
2023-09-04T18:00	20042	58	-59.7	-86.5	2	5
2023-09-04T18:00	20067	58	-59.6	-86.5	1	5
2023-09-04T18:00	20088	58	-59.4	-86.3	1	5
2023-09-04T18:00	20113	58	-59.5	-86.4	1	5
2023-09-04T18:00	20138	58	-59.5	-86.4	3	5
2023-09-04T18:00	20162	57	-59.4	-86.3	6	5
2023-09-04T18:00	20188	57	-59.5	-86.4	9	5
2023-09-04T18:00	20210	57	-59.4	-86.3	12	5
2023-09-04T18:00	20233	57	-59.4	-86.3	15	5
2023-09-04T18:00	20256	56	-59.5	-86.4	19	5
2023-09-04T18:00	20279	56	-59.5	-86.4	24	4
2023-09-04T18:00	20304	56	-59.6	-86.5	29	4
2023-09-04T18:00	20328	56	-59.5	-86.4	33	5
2023-09-04T18:00	20350	56	-59.6	-86.5	36	5
2023-09-04T18:00	20373	55	-59.6	-86.5	37	5
2023-09-04T18:00	20394	55	-59.4	-86.3	37	6
2023-09-04T18:00	20420	55	-59.4	-86.3	36	7
2023-09-04T18:00	20445	55	-59.5	-86.4	35	7
2023-09-04T18:00	20467	55	-59.6	-86.5	33	8
2023-09-04T18:00	20489	54	-59.6	-86.5	32	8
2023-09-04T18:00	20513	54	-59.6	-86.5	32	9
2023-09-04T18:00	20539	54	-59.5	-86.4	32	9
2023-09-04T18:00	20561	54	-59.3	-86.6	34	8
2023-09-04T18:00	20581	54	-59.0	-86.4	36	8
2023-09-04T18:00	20608	53	-59.1	-86.5	39	8
2023-09-04T18:00	20630	53	-59.2	-86.2	41	7
2023-09-04T18:00	20653	53	-59.3	-86.2	43	6
2023-09-04T18:00	20679	53	-59.5	-86.4	45	6
2023-09-04T18:00	20703	53	-59.6	-86.1	46	6
2023-09-04T18:00	20725	52	-59.8	-86.3	45	5
2023-09-04T18:00	20749	52	-59.9	-86.3	45	5
2023-09-04T18:00	20771	52	-59.9	-86.7	44	5
2023-09-04T18:00	20793	52	-59.8	-86.6	45	6
2023-09-04T18:00	20821	52	-59.5	-86.4	47	6
2023-09-04T18:00	20848	51	-59.3	-86.6	49	7
2023-09-04T18:00	20871	51	-59.3	-86.6	51	7
2023-09-04T18:00	20893	51	-59.2	-86.5	52	8
2023-09-04T18:00	20917	51	-59.0	-86.4	53	8
2023-09-04T18:00	20948	51	-58.9	-86.3	53	8
2023-09-04T18:00	20972	50	-58.8	-86.2	52	9
2023-09-04T18:00	20995	50	-58.8	-86.2	52	9
2023-09-04T18:00	21015	50	-58.5	-86.0	51	9
2023-09-04T18:00	21042	50	-58.6	-86.1	50	9
2023-09-04T18:00	21066	50	-58.7	-86.1	49	9
2023-09-04T18:00	21090	49	-58.5	-86.4	48	9
2023-09-04T18:00	21114	49	-58.3	-86.2	48	9
2023-09-04T18:00	21139	49	-58.3	-86.2	46	9
2023-09-04T18:00	21165	49	-58.3	-86.2	45	9
2023-09-04T18:00	21193	49	-58.3	-86.2	43	8
2023-09-04T18:00	21215	48	-58.3	-86.2	42	8
2023-09-04T18:00	21237	48	-57.7	-85.8	42	8
2023-09-04T18:00	21268	48	-57.7	-86.2	42	7
2023-09-04T18:00	21285	48	-57.4	-86.0	43	7
2023-09-04T18:00	21309	48	-57.2	-85.8	42	6
2023-09-04T18:00	21335	48	-57.2	-85.8	40	6
2023-09-04T18:00	21362	47	-57.1	-85.7	36	5
2023-09-04T18:00	21383	47	-56.7	-85.9	30	5
2023-09-04T18:00	21409	47	-56.5	-85.8	23	5
2023-09-04T18:00	21435	47	-56.0		17	5
2023-09-04T18:00	21458	47	-56.0		12	5
2023-09-04T18:00	21486	46	-56.0		9	5
2023-09-04T18:00	21508	46	-56.0		6	5
2023-09-04T18:00	21531	46	-55.7	-84.7	5	5
2023-09-04T18:00	21557	46	-55.8	-84.8	3	6
2023-09-04T18:00	21580	46	-55.9	-84.8	2	6
2023-09-04T18:00	21606	46	-56.1	-85.0	2	6
2023-09-04T18:00	21628	45	-56.4	-84.8	4	6
2023-09-04T18:00	21649	45	-56.6	-84.9	7	6
2023-09-04T18:00	21677	45	-56.5	-84.9	10	6
2023-09-04T18:00	21698	45	-56.5	-84.9	14	6
2023-09-04T18:00	21725	45	-56.6	-84.9	16	5
2023-09-04T18:00	21750	45	-56.7	-85.0	18	5
2023-09-04T18:00	21774	44	-56.8	-85.1	17	5
2023-09-04T18:00	21796	44	-56.9	-85.2	16	4
2023-09-04T18:00	21823	44	-57.0	-85.2	15	4
2023-09-04T18:00	21851	44	-57.1	-85.3	15	3
2023-09-04T18:00	21869	44	-57.1	-85.3	15	3
2023-09-04T18:00	21894	44	-57.3	-85.5	18	3
2023-09-04T18:00	21917	43	-57.4	-85.6	22	2
2023-09-04T18:00	21939	43	-57.6	-85.3	26	2
2023-09-04T18:00	21970	43	-57.7	-85.8	28	3
2023-09-04T18:00	21989	43	-57.7	-85.8	26	3
2023-09-04T18:00	22017	43	-57.7	-85.8	23	3
2023-09-04T18:00	22040	43	-57.6	-85.7	19	4
2023-09-04T18:00	22064	42	-57.5	-85.6	17	4
2023-09-04T18:00	22088	42	-57.4	-86.0	17	4
2023-09-04T18:00	22107	42	-57.3	-85.9	19	5
2023-09-04T18:00	22136	42	-57.0	-85.7	23	5
2023-09-04T18:00	22162	42	-56.9	-85.6	26	5
2023-09-04T18:00	22188	42	-56.9	-85.6	29	5
2023-09-04T18:00	22211	41	-57.0	-85.7	32	5
2023-09-04T18:00	22238	41	-57.0	-85.7	33	5
2023-09-04T18:00	22266	41	-57.1	-85.3	33	5
2023-09-04T18:00	22288	41	-57.2	-85.4	33	5
2023-09-04T18:00	22317	41	-57.3	-85.5	32	5
2023-09-04T18:00	22334	41	-57.3	-85.5	31	6
2023-09-04T18:00	22358	40	-57.2	-85.4	30	6
2023-09-04T18:00	22381	40	-57.2	-85.4	29	6
2023-09-04T18:00	22411	40	-57.3	-85.5	28	6
2023-09-04T18:00	22438	40	-57.3	-85.5	27	6
2023-09-04T18:00	22463	40	-57.4	-85.6	27	6
2023-09-04T18:00	22485	40	-57.4	-85.6	26	6
2023-09-04T18:00	22514	39	-57.5	-85.6	26	5
2023-09-04T18:00	22540	39	-57.4	-86.0	26	5
2023-09-04T18:00	22571	39	-57.4	-86.0	28	5
2023-09-04T18:00	22590	39	-57.3	-85.9	31	6
2023-09-04T18:00	22618	39	-57.2	-85.8	33	6
2023-09-04T18:00	22646	39	-57.3	-85.9	35	6
2023-09-04T18:00	22675	38	-57.1	-85.7	37	7
2023-09-04T18:00	22697	38	-57.1	-85.7	38	7
2023-09-04T18:00	22725	38	-57.1	-85.7	38	7
2023-09-04T18:00	22750	38	-57.1	-85.7	39	6
2023-09-04T18:00	22774	38	-57.1	-85.7	41	6
2023-09-04T18:00	22804	38	-57.0	-85.7	43	6
2023-09-04T18:00	22830	38	-57.1	-85.7	46	6
2023-09-04T18:00	22854	37	-56.9	-85.6	50	5
2023-09-04T18:00	22881	37	-56.8	-85.5	53	5
2023-09-04T18:00	22903	37	-56.7	-85.9	57	5
2023-09-04T18:00	22929	37	-56.6	-85.8	62	4
2023-09-04T18:00	22952	37	-56.4	-85.7	67	4
2023-09-04T18:00	22983	37	-56.2	-85.5	71	3
2023-09-04T18:00	23006	37	-56.1	-85.5	73	2
2023-09-04T18:00	23022	36	-56.0		70	1
2023-09-04T18:00	23059	36	-56.1	-85.5	45	1
2023-09-04T18:00	23075	36	-56.0		347	0
2023-09-04T18:00	23101	36	-55.6	-85.1	338	1
2023-09-04T18:00	23134	36	-55.4	-84.9	2	1
2023-09-04T18:00	23152	36	-55.4	-84.9	27	1
2023-09-04T18:00	23176	36	-55.6	-85.1	39	2
2023-09-04T18:00	23203	35	-55.8	-85.2	46	2
2023-09-04T18:00	23228	35	-55.9	-84.8	51	3
2023-09-04T18:00	23258	35	-56.1	-85.0	57	3
2023-09-04T18:00	23282	35	-56.2	-85.1	63	4
2023-09-04T18:00	23306	35	-56.2	-85.1	68	4
2023-09-04T18:00	23331	35	-56.0		73	4
2023-09-04T18:00	23359	35	-55.9	-85.3	77	4
2023-09-04T18:00	23386	34	-56.0		78	4
2023-09-04T18:00	23406	34	-56.0		78	4
2023-09-04T18:00	23437	34	-56.0		77	4
2023-09-04T18:00	23462	34	-55.9	-85.3	76	4
2023-09-04T18:00	23487	34	-55.9	-85.3	73	4
2023-09-04T18:00	23518	34	-55.9	-85.3	70	4
2023-09-04T18:00	23546	34	-56.0	-84.9	66	4
2023-09-04T18:00	23572	33	-56.1	-85.0	63	4
2023-09-04T18:00	23605	33	-56.2	-85.1	61	4
2023-09-04T18:00	23622	33	-56.4	-85.2	61	4
2023-09-04T18:00	23652	33	-56.5	-85.3	64	5
2023-09-04T18:00	23682	33	-56.5	-85.3	69	5
2023-09-04T18:00	23706	33	-56.6	-85.4	73	5
2023-09-04T18:00	23735	33	-56.7	-85.0	76	5
2023-09-04T18:00	23765	32	-57.0	-85.2	78	5
2023-09-04T18:00	23788	32	-57.2	-85.4	79	5
2023-09-04T18:00	23818	32	-57.5	-85.6	80	5
2023-09-04T18:00	23847	32	-57.6	-85.7	82	5
2023-09-04T18:00	23869	32	-57.6	-85.7	85	4
2023-09-04T18:00	23893	32	-57.7	-85.8	89	4
2023-09-04T18:00	23927	32	-57.6	-85.7	96	3
2023-09-04T18:00	23951	31	-57.6	-85.7	103	3
2023-09-04T18:00	23981	31	-57.6	-85.7	111	3
2023-09-04T18:00	24006	31	-57.7	-85.8	118	3
2023-09-04T18:00	24033	31	-57.9		123	3
2023-09-04T18:00	24062	31	-58.0	-86.0	127	4
2023-09-04T18:00	24082	31	-58.1		130	4
2023-09-04T18:00	24112	31	-58.2	-86.2	133	3
2023-09-04T18:00	24140	31	-58.3	-86.2	137	3
2023-09-04T18:00	24170	30	-58.3	-86.2	144	2
2023-09-04T18:00	24199	30	-58.3	-86.2	156	2
2023-09-04T18:00	24221	30	-58.5	-86.4	173	2
2023-09-04T18:00	24248	30	-58.6	-86.5	191	1
2023-09-04T18:00	24277	30	-58.4	-86.3	201	1
2023-09-04T18:00	24297	30	-58.2	-86.2	199	1
2023-09-04T18:00	24336	30	-58.1		187	1
2023-09-04T18:00	24353	30	-58.3	-86.2	170	2
2023-09-04T18:00	24386	29	-58.3	-86.7	158	2
2023-09-04T18:00	24407	29	-58.3	-86.7	154	2
2023-09-04T18:00	24442	29	-58.2	-86.6	154	2
2023-09-04T18:00	24464	29	-58.1	-86.5	160	2
2023-09-04T18:00	24487	29	-58.0	-86.9	169	2
2023-09-04T18:00	24519	29	-57.3	-86.4	183	1
2023-09-04T18:00	24542	29	-57.2	-86.3	226	0
2023-09-04T18:00	24567	29	-57.1	-86.2	328	1
2023-09-04T18:00	24596	28	-57.1	-86.2	347	2
2023-09-04T18:00	24623	28	-56.9	-86.1	353	3
2023-09-04T18:00	24641	28	-56.8	-86.0	356	4
2023-09-04T18:00	24669	28	-56.8	-86.0	358	5
2023-09-04T18:00	24703	28	-56.9	-86.1	359	5
2023-09-04T18:00	24722	28	-57.1	-85.7	1	6
2023-09-04T18:00	24755	28	-57.2	-85.8	4	7
2023-09-04T18:00	24780	28	-57.1	-85.7	6	8
2023-09-04T18:00	24806	27	-57.1	-85.7	7	8
2023-09-04T18:00	24829	27	-56.9	-86.1	8	8
2023-09-04T18:00	24855	27	-56.8	-86.0	10	7
2023-09-04T18:00	24875	27	-56.8	-86.0	11	7
2023-09-04T18:00	24910	27	-56.8	-86.0	13	7
2023-09-04T18:00	24936	27	-56.7	-85.9	15	7
2023-09-04T18:00	24959	27	-56.6	-85.8	18	7
2023-09-04T18:00	24981	27	-56.3	-85.6	20	7
2023-09-04T18:00	25012	27	-56.1	-86.0	22	8
2023-09-04T18:00	25039	27	-56.1	-86.0	23	9
2023-09-04T18:00	25058	26	-55.9	-85.8	24	9
2023-09-04T18:00	25089	26	-55.7	-85.7	24	9
2023-09-04T18:00	25112	26	-55.7	-85.7	24	8
2023-09-04T18:00	25141	26	-55.4	-85.4	25	8
2023-09-04T18:00	25168	26	-55.1	-85.2	25	7
2023-09-04T18:00	25193	26	-55.1	-85.2	26	6
2023-09-04T18:00	25222	26	-55.1	-85.2	28	6
2023-09-04T18:00	25247	26	-55.1	-85.2	31	5
2023-09-04T18:00	25273	26	-55.2	-85.3	33	4
2023-09-04T18:00	25299	25	-55.3	-84.9	35	4
2023-09-04T18:00	25319	25	-55.3	-84.9	32	3
2023-09-04T18:00	25356	25	-55.3	-85.4	26	3
2023-09-04T18:00	25380	25	-55.1	-85.2	18	3
2023-09-04T18:00	25411	25	-54.7	-84.9	12	4
2023-09-04T18:00	25434	25	-54.5	-84.8	9	5
2023-09-04T18:00	25465	25	-54.5	-84.8	9	6
2023-09-04T18:00	25491	25	-54.6	-84.8	10	7
2023-09-04T18:00	25517	25	-54.7	-84.9	11	8
2023-09-04T18:00	25544	24	-54.7	-84.9	14	8
2023-09-04T18:00	25571	24	-54.6	-84.8	16	8
2023-09-04T18:00	25603	24	-54.6	-84.8	17	9
2023-09-04T18:00	25624	24	-54.5	-85.3	18	9
2023-09-04T18:00	25659	24	-54.3	-85.2	19	9
2023-09-04T18:00	25688	24	-53.8	-84.8	19	9
2023-09-04T18:00	25716	24	-53.5	-84.6	20	9
2023-09-04T18:00	25733	24	-53.3	-84.4	21	8
2023-09-04T18:00	25769	24	-53.3	-84.4	23	7
2023-09-04T18:00	25793	24	-53.0	-84.2	25	6
2023-09-04T18:00	25828	23	-52.8	-84.1	27	5
2023-09-04T18:00	25850	23	-52.8	-84.1	27	4
2023-09-04T18:00	25879	23	-52.8	-84.1	21	2
2023-09-04T18:00	25899	23	-52.8	-84.1	356	1
2023-09-04T18:00	25928	23	-52.6	-83.9	301	1
2023-09-04T18:00	25955	23	-52.6	-83.9	277	2
2023-09-04T18:00	25986	23	-52.4	-84.4	272	3
2023-09-04T18:00	26016	23	-52.4	-84.4	275	3
2023-09-04T18:00	26041	23	-52.1	-84.2	281	3
2023-09-04T18:00	26067	23	-51.7	-83.9	290	3
2023-09-04T18:00	26103	22	-51.6	-83.8	301	4
2023-09-04T18:00	26120	22	-51.7	-83.9	310	4
2023-09-04T18:00	26151	22	-51.7	-83.9	318	4
2023-09-04T18:00	26175	22	-51.6	-83.8	325	5
2023-09-04T18:00	26209	22	-51.0	-83.3	330	6
2023-09-04T18:00	26233	22	-50.9	-83.3	335	6
2023-09-04T18:00	26255	22	-50.6	-83.1	341	7
2023-09-04T18:00	26277	22	-50.5	-83.0	346	8
2023-09-04T18:00	26313	22	-50.4	-83.6	351	8
2023-09-04T18:00	26340	22	-50.2	-83.5	356	9
2023-09-04T18:00	26364	22	-50.1	-82.7	1	9
2023-09-04T18:00	26393	21	-49.8	-82.5	6	9
2023-09-04T18:00	26417	21	-49.8	-82.5	10	9
2023-09-04T18:00	26447	21	-49.9	-82.5	15	9
2023-09-04T18:00	26475	21	-49.7	-82.4	19	9
2023-09-04T18:00	26506	21	-49.7	-82.4	23	9
2023-09-04T18:00	26524	21	-49.9	-82.5	26	9
2023-09-04T18:00	26558	21	-50.1	-82.7	29	9
2023-09-04T18:00	26576	21	-50.3	-82.8	31	9
2023-09-04T18:00	26611	21	-50.4	-82.9	33	8
2023-09-04T18:00	26633	21	-50.0	-82.6	35	8
2023-09-04T18:00	26666	21	-49.8	-82.5	36	8
2023-09-04T18:00	26694	21	-49.7	-82.4	38	7
2023-09-04T18:00	26722	20	-49.9	-82.5	40	6
2023-09-04T18:00	26739	20	-50.0	-82.6	43	6
2023-09-04T18:00	26764	20	-50.0	-82.6	47	5
2023-09-04T18:00	26796	20	-49.9	-82.5	52	4
2023-09-04T18:00	26827	20	-49.7	-82.4	59	3
2023-09-04T18:00	26854	20	-49.5	-82.3	67	3
2023-09-04T18:00	26887	20	-49.3	-82.8	77	2
2023-09-04T18:00	26913	20	-49.4	-82.9	92	1
2023-09-04T18:00	26927	20	-49.4	-82.9	127	1
2023-09-04T18:00	26968	20	-49.5	-82.3	188	1
2023-09-04T18:00	26994	20	-49.4	-82.2	224	1
2023-09-04T18:00	27024	20	-49.3	-82.1	248	1
2023-09-04T18:00	27048	19	-49.1	-82.7	268	1
2023-09-04T18:00	27080	19	-49.1	-82.7	285	2
2023-09-04T18:00	27113	19	-49.1	-82.7	299	2
2023-09-04T18:00	27147	19	-49.3	-82.1	312	2
2023-09-04T18:00	27172	19	-49.4	-82.2	328	2
2023-09-04T18:00	27205	19	-49.4	-82.2	347	2
2023-09-04T18:00	27228	19	-49.4	-82.2	5	2
2023-09-04T18:00	27261	19	-49.4	-82.2	17	3
2023-09-04T18:00	27290	19	-49.4	-82.2	25	3
2023-09-04T18:00	27316	19	-49.5	-82.3	31	3
2023-09-04T18:00	27339	19	-49.7	-82.4	35	3
2023-09-04T18:00	27377	19	-49.9	-82.5	38	3
2023-09-04T18:00	27402	18	-49.9	-82.5	40	3
2023-09-04T18:00	27427	18	-49.9	-82.5	38	3
2023-09-04T18:00	27458	18	-50.1	-82.7	33	2
2023-09-04T18:00	27487	18	-50.1	-82.7	22	2
2023-09-04T18:00	27513	18	-50.2	-82.8	4	1
2023-09-04T18:00	27544	18	-50.3	-82.8	338	1
2023-09-04T18:00	27575	18	-50.4	-82.9	314	1
2023-09-04T18:00	27606	18	-50.6	-82.4	298	2
2023-09-04T18:00	27632	18	-50.8	-82.6	290	2
2023-09-04T18:00	27656	18	-51.0	-82.7	288	3
2023-09-04T18:00	27690	18	-51.2	-82.9	289	3
2023-09-04T18:00	27738	18	-51.3	-82.9	292	3
2023-09-04T18:00	27746	17	-51.4	-83.0	296	4
2023-09-04T18:00	27777	17	-51.4	-83.0	300	4
2023-09-04T18:00	27808	17	-51.5	-83.7	304	4
2023-09-04T18:00	27823	17	-51.5	-83.7	308	4
2023-09-04T18:00	27866	17	-51.6	-83.8	314	4
2023-09-04T18:00	27882	17	-51.5	-83.7	321	4
2023-09-04T18:00	27916	17	-51.6	-83.8	328	4
2023-09-04T18:00	27947	17	-51.7	-83.9	334	4
2023-09-04T18:00	27973	17	-51.8	-83.9	338	4
2023-09-04T18:00	27998	17	-51.9	-84.0	339	4
2023-09-04T18:00	28016	17	-51.8	-83.9	337	3
2023-09-04T18:00	28049	17	-51.8	-83.9	330	3
2023-09-04T18:00	28083	17	-51.7	-83.9	319	2
2023-09-04T18:00	28100	17	-51.6	-83.8	305	2
2023-09-04T18:00	28132	16	-51.7	-83.9	290	2
2023-09-04T18:00	28154	16	-51.7	-83.9	280	2
2023-09-04T18:00	28183	16	-51.7	-83.9	278	2
2023-09-04T18:00	28220	16	-51.8	-83.9	281	3
2023-09-04T18:00	28247	16	-52.0	-83.5	287	4
2023-09-04T18:00	28271	16	-52.1	-83.5	294	5
2023-09-04T18:00	28290	16	-52.2	-83.6	299	5
2023-09-04T18:00	28322	16	-52.3	-84.3	304	6
2023-09-04T18:00	28352	16	-51.9	-84.0	309	6
2023-09-04T18:00	28370	16	-51.7	-83.9	313	6
2023-09-04T18:00	28402	16	-51.7	-83.9	317	6
2023-09-04T18:00	28430	16	-51.7	-83.9	320	6
2023-09-04T18:00	28463	16	-51.5	-83.7	323	6
2023-09-04T18:00	28497	16	-51.6	-83.8	325	6
2023-09-04T18:00	28516	16	-51.5	-83.7	327	6
2023-09-04T18:00	28557	15	-51.4	-83.6	329	6
2023-09-04T18:00	28573	15	-51.2	-83.5	332	6
2023-09-04T18:00	28608	15	-51.0	-84.0	334	6
2023-09-04T18:00	28632	15	-50.9	-84.0	335	6
2023-09-04T18:00	28661	15	-50.8	-83.9	335	6
2023-09-04T18:00	28688	15	-50.6	-83.7	334	6
2023-09-04T18:00	28724	15	-50.4	-83.6	331	6
2023-09-04T18:00	28745	15	-50.3	-83.5	328	5
2023-09-04T18:00	28785	15	-50.3	-83.5	325	5
2023-09-04T18:00	28810	15	-50.3	-83.5	323	5
2023-09-04T18:00	28827	15	-50.5	-83.7	324	5
2023-09-04T18:00	28869	15	-50.3	-83.5	326	5
2023-09-04T18:00	28885	15	-50.1	-83.4	329	6
2023-09-04T18:00	28913	15	-49.9	-83.2	332	6
2023-09-04T18:00	28946	15	-49.9	-83.2	335	6
2023-09-04T18:00	28979	14	-49.8	-83.2	340	6
2023-09-04T18:00	28995	14	-49.4	-83.7	345	5
2023-09-04T18:00	29029	14	-49.0	-83.4	349	5
2023-09-04T18:00	29063	14	-48.6	-83.1	352	4
2023-09-04T18:00	29088	14	-48.4	-82.9	352	4
2023-09-04T18:00	29117	14	-48.1	-82.7	348	3
2023-09-04T18:00	29143	14	-47.7	-82.4	340	3
2023-09-04T18:00	29173	14	-47.5	-82.3	332	3
2023-09-04T18:00	29202	14	-47.3	-82.2	328	3
2023-09-04T18:00	29237	14	-47.1	-82.0	329	4
2023-09-04T18:00	29258	14	-46.9	-81.9	333	4
2023-09-04T18:00	29286	14	-46.4	-81.5	339	5
2023-09-04T18:00	29310	14	-46.5	-81.6	345	5
2023-09-04T18:00	29344	14	-46.6	-81.7	351	5
2023-09-04T18:00	29367	14	-46.5	-81.6	356	5
2023-09-04T18:00	29415	14	-46.5	-81.6	1	5
2023-09-04T18:00	29442	13	-46.5	-81.6	4	5
2023-09-04T18:00	29472	13	-46.5	-81.6	7	5
2023-09-04T18:00	29506	13	-46.6	-81.7	7	5
2023-09-04T18:00	29516	13	-46.6	-81.7	7	5
2023-09-04T18:00	29547	13	-46.6	-81.7	7	5
2023-09-04T18:00	29579	13	-46.7	-81.7	6	5
2023-09-04T18:00	29601	13	-46.8	-81.8	6	6
2023-09-04T18:00	29631	13	-46.9	-81.9	7	6
2023-09-04T18:00	29670	13	-47.0	-81.9	8	7
2023-09-04T18:00	29714	13	-47.1	-81.2	8	7
2023-09-04T18:00	29733	13	-47.2	-81.3	9	7
2023-09-04T18:00	29761	13	-47.2	-81.3	10	7
2023-09-04T18:00	29787	13	-47.0	-81.1	11	7
2023-09-04T18:00	29820	13	-47.1	-81.2	14	7
2023-09-04T18:00	29845	13	-47.2	-82.1	17	6
2023-09-04T18:00	29894	13	-47.3	-82.2	21	5
2023-09-04T18:00	29905	13	-47.3	-82.2	23	4
2023-09-04T18:00	29936	13	-47.1	-82.0	21	4
2023-09-04T18:00	29969	12	-46.7	-81.7	12	3
2023-09-04T18:00	29998	12	-46.3	-81.4	359	3
2023-09-04T18:00	30028	12	-46.2	-81.4	347	3
2023-09-04T18:00	30049	12	-46.3	-81.4	340	4
2023-09-04T18:00	30080	12	-46.4	-81.5	335	4
2023-09-04T18:00	30102	12	-46.5	-81.6	331	5
2023-09-04T18:00	30129	12	-46.5	-81.6	327	5
2023-09-04T18:00	30183	12	-46.6	-81.7	323	6
2023-09-04T18:00	30207	12	-46.7	-81.7	320	6
2023-09-04T18:00	30217	12	-46.9	-81.9	317	7
2023-09-04T18:00	30238	12	-47.0	-81.9	316	7
2023-09-04T18:00	30275	12	-47.1	-82.0	317	7
2023-09-04T18:00	30326	12	-46.9	-81.9	319	7
2023-09-04T18:00	30354	12	-46.8	-81.8	322	7
2023-09-04T18:00	30386	12	-46.8	-81.8	326	7
2023-09-04T18:00	30406	12	-46.8	-81.8	330	7
2023-09-04T18:00	30434	12	-46.6	-81.7	336	7
2023-09-04T18:00	30471	12	-46.5	-81.6	343	6
2023-09-04T18:00	30487	12	-46.2	-82.3	351	6
2023-09-04T18:00	30497	11	-45.9	-82.1	0	6
2023-09-04T18:00	30525	11	-45.8	-82.0	9	6
2023-09-04T18:00	30573	11	-45.5	-81.8	17	6
2023-09-04T18:00	30602	11	-44.8	-81.3	23	6
2023-09-04T18:00	30627	11	-44.2	-80.9	28	6
2023-09-04T18:00	30652	11	-43.8	-80.6	31	7
2023-09-04T18:00	30668	11	-43.7	-81.6	35	8
2023-09-04T18:00	30707	11	-43.4	-81.4	39	8
2023-09-04T18:00	30731	11	-43.0	-81.1	46	8
2023-09-04T18:00	30762	11	-42.7	-79.8	53	8
2023-09-04T18:00	30788	11	-42.6	-79.7	61	8
2023-09-04T18:00	30822	11	-42.7	-79.8	69	8
2023-09-04T18:00	30823	11	-42.8	-79.9	76	8
2023-09-04T18:00	30874	11	-42.9	-80.0	81	8
2023-09-04T18:00	30888	11	-43.2	-80.2	87	9
2023-09-04T18:00	30915	11	-43.4	-80.3	92	9
2023-09-04T18:00	30967	11	-43.6	-80.4	96	10
2023-09-04T18:00	30994	11	-43.8	-80.6	103	11
2023-09-04T18:00	31027	11	-43.9	-80.7	105	11
2023-09-04T18:00	31036	11	-43.9	-80.7	108	12
2023-09-04T18:00	31073	11	-43.8	-80.6	110	12
2023-09-04T18:00	31104	11	-43.9	-80.7	112	12
2023-09-04T18:00	31125	10	-43.9	-80.7	114	12
2023-09-04T18:00	31150	10	-43.9	-80.7	117	12
2023-09-04T18:00	31193	10	-44.0	-80.7	119	11
2023-09-04T18:00	31211	10	-44.1	-80.8	120	11
2023-09-04T18:00	31240	10	-44.2	-80.9	122	11
2023-09-04T18:00	31259	10	-44.4	-80.1	123	10
2023-09-04T18:00	31301	10	-44.7	-80.3	125	10
2023-09-04T18:00	31315	10	-44.9	-80.4	126	9
2023-09-04T18:00	31354	10	-45.1	-80.6	128	8
2023-09-04T18:00	31369	10	-45.3	-80.7	129	8
2023-09-04T18:00	31400	10	-45.4	-80.8	131	7
2023-09-04T18:00	31429	10	-45.5	-80.9	131	6
2023-09-04T18:00	31451	10	-45.6	-80.9	130	5
2023-09-04T18:00	31473	10	-45.6	-80.9	126	4
2023-09-04T18:00	31512	10	-45.5	-80.9	116	3
2023-09-04T18:00	31546	10	-45.4	-81.7	93	2
2023-09-04T18:00	31572	10	-45.3	-81.6	52	2
2023-09-04T18:00	31606	10	-45.0	-81.4	17	2
2023-09-04T18:00	31637	10	-44.8	-81.3	1	3
2023-09-04T18:00	31675	10	-44.7	-81.2	353	4
2023-09-04T18:00	31692	10	-44.6	-81.2	350	5
2023-09-04T18:00	31740	10	-44.6	-81.2	348	5
2023-09-04T18:00	31754	10	-44.5	-81.1	349	6
2023-09-04T18:00	31789	9	-44.4	-81.0	353	6
2023-09-04T18:00	31818	9	-44.3	-80.9	360	6
2023-09-04T18:00	31868	9	-44.4	-81.0	10	6
2023-09-04T18:00	31883	9	-44.6	-81.2	21	6
2023-09-04T18:00	31910	9	-44.4	-81.0	32	6
2023-09-04T18:00	31955	9	-44.3	-80.9	40	6
2023-09-04T18:00	31970	9	-44.3	-80.9	47	6
2023-09-04T18:00	32002	9	-44.3	-80.9	54	6
2023-09-04T18:00	32032	9	-44.2	-80.9	60	5
2023-09-04T18:00	32066	9	-44.1	-80.8	66	5
2023-09-04T18:00	32092	9	-44.3	-80.9	72	5
2023-09-04T18:00	32133	9	-44.4	-81.0	77	5
2023-09-04T18:00	32152	9	-44.5	-81.1	80	5
2023-09-04T18:00	32183	9	-44.4	-81.0	82	5
2023-09-04T18:00	32208	9	-44.3	-80.9	82	5
2023-09-04T18:00	32232	9	-44.4	-81.0	84	4
2023-09-04T18:00	32257	9	-44.5	-81.1	88	4
2023-09-04T18:00	32295	9	-44.5	-81.1	96	4
2023-09-04T18:00	32341	9	-44.3	-80.9	106	5
2023-09-04T18:00	32351	9	-44.2	-80.9	118	5
2023-09-04T18:00	32404	9	-44.3	-80.9	130	5
2023-09-04T18:00	32423	9	-44.0	-80.7	142	5
2023-09-04T18:00	32457	9	-43.8	-80.6	151	6
2023-09-04T18:00	32492	9	-43.8	-80.6	156	6
2023-09-04T18:00	32503	9	-43.9	-80.7	160	7
2023-09-04T18:00	32511	9	-44.0	-80.7	162	7
2023-09-04T18:00	32555	8	-44.2	-80.9	163	6
2023-09-04T18:00	32573	8	-44.4	-81.0	162	6
2023-09-04T18:00	32605	8	-44.0	-80.7	160	5
2023-09-04T18:00	32632	8	-43.7	-80.5	158	4
2023-09-04T18:00	32670	8	-43.6	-80.4	158	3
2023-09-04T18:00	32696	8	-43.5	-80.4	168	2
2023-09-04T18:00	32723	8	-43.4	-81.4	185	2
2023-09-05T00:00	112	1014	18.0	13.5	140	2
2023-09-05T00:00	139	1011	19.7	13.0	162	3
2023-09-05T00:00	169	1007	20.7	12.7	162	4
2023-09-05T00:00	201	1004	20.9	12.6	164	5
2023-09-05T00:00	231	1000	20.8	12.5	166	5
2023-09-05T00:00	256	997	20.7	12.5	168	5
2023-09-05T00:00	279	994	20.5	12.4	169	5
2023-09-05T00:00	304	991	20.3	12.4	169	5
2023-09-05T00:00	329	989	20.1	12.3	168	5
2023-09-05T00:00	351	986	19.9	12.3	165	5
2023-09-05T00:00	372	984	19.8	12.4	161	5
2023-09-05T00:00	402	980	19.6	12.0	158	4
2023-09-05T00:00	428	977	19.5	12.0	155	4
2023-09-05T00:00	454	975	19.3	11.9	153	4
2023-09-05T00:00	475	972	19.1	11.8	152	4
2023-09-05T00:00	499	969	18.9	11.7	150	5
2023-09-05T00:00	528	966	18.7	11.6	147	5
2023-09-05T00:00	550	964	18.5	11.5	145	5
2023-09-05T00:00	577	961	18.3	11.7	142	6
2023-09-05T00:00	605	958	18.0	11.6	139	5
2023-09-05T00:00	623	955	17.9	11.6	137	5
2023-09-05T00:00	643	953	17.7	11.7	135	5
2023-09-05T00:00	664	951	17.5	12.0	131	5
2023-09-05T00:00	693	948	17.2	11.8	126	5
2023-09-05T00:00	721	945	17.0	11.8	122	5
2023-09-05T00:00	739	942	16.8	12.0	120	5
2023-09-05T00:00	772	939	16.5	11.7	122	5
2023-09-05T00:00	795	936	16.3	11.7	126	5
2023-09-05T00:00	827	933	16.0	11.7	131	5
2023-09-05T00:00	847	931	15.8	11.8	136	5
2023-09-05T00:00	872	928	15.6	11.6	138	5
2023-09-05T00:00	900	925	15.4	11.6	137	5
2023-09-05T00:00	925	922	15.2	11.6	134	5
2023-09-05T00:00	946	920	15.1	11.2	130	5
2023-09-05T00:00	971	917	15.0	10.9	127	5
2023-09-05T00:00	996	914	15.2	10.0	125	5
2023-09-05T00:00	1019	912	15.6	8.6	124	4
2023-09-05T00:00	1048	909	15.4	8.1	123	4
2023-09-05T00:00	1076	906	15.3	8.0	121	3
2023-09-05T00:00	1101	903	15.3	8.3	118	3
2023-09-05T00:00	1125	901	15.2	8.7	113	3
2023-09-05T00:00	1150	898	15.3	9.4	107	2
2023-09-05T00:00	1180	895	15.3	10.8	101	2
2023-09-05T00:00	1208	892	15.3	10.5	97	2
2023-09-05T00:00	1237	889	15.1	10.4	98	1
2023-09-05T00:00	1260	886	15.0	10.4	99	1
2023-09-05T00:00	1285	884	14.9	10.1	97	1
2023-09-05T00:00	1317	881	14.8	9.9	80	0
2023-09-05T00:00	1343	878	14.7	9.8	33	0
2023-09-05T00:00	1367	875	14.7	9.9	359	0
2023-09-05T00:00	1393	873	14.6	10.0	332	0
2023-09-05T00:00	1416	870	14.4	9.8	286	0
2023-09-05T00:00	1441	868	14.3	10.1	245	1
2023-09-05T00:00	1462	866	14.1	9.9	227	1
2023-09-05T00:00	1481	864	14.0	9.9	218	1
2023-09-05T00:00	1504	861	13.8	10.0	212	1
2023-09-05T00:00	1541	858	13.5	10.1	206	1
2023-09-05T00:00	1569	855	13.4	10.0	196	1
2023-09-05T00:00	1595	852	13.3	9.6	168	0
2023-09-05T00:00	1617	850	13.2	9.7	115	0
2023-09-05T00:00	1647	847	12.9	9.5	86	1
2023-09-05T00:00	1675	844	12.7	9.4	76	1
2023-09-05T00:00	1697	842	12.6	9.5	76	2
2023-09-05T00:00	1719	840	12.5	9.4	80	2
2023-09-05T00:00	1744	837	12.4	8.9	88	2
2023-09-05T00:00	1766	835	12.4	8.8	97	2
2023-09-05T00:00	1788	833	12.3	8.5	102	1
2023-09-05T00:00	1811	830	12.2		96	1
2023-09-05T00:00	1836	828	12.0	8.3	77	1
2023-09-05T00:00	1858	826	11.9	8.4	56	1
2023-09-05T00:00	1881	824	11.8	8.4	43	2
2023-09-05T00:00	1901	822	11.7	8.2	37	2
2023-09-05T00:00	1926	819	11.6	8.0	35	3
2023-09-05T00:00	1946	817	11.5	7.8	36	3
2023-09-05T00:00	1967	815	11.4	7.8	38	3
2023-09-05T00:00	1989	813	11.2	7.8	39	4
2023-09-05T00:00	2006	811	11.1	7.7	40	4
2023-09-05T00:00	2032	809	11.1	7.7	39	4
2023-09-05T00:00	2056	807	11.2	7.3	38	3
2023-09-05T00:00	2078	804	11.3	6.0	37	3
2023-09-05T00:00	2101	802	11.4	4.5	37	3
2023-09-05T00:00	2125	800	11.6	3.3	37	4
2023-09-05T00:00	2152	797	11.6	3.2	36	4
2023-09-05T00:00	2171	795	11.8	2.6	36	4
2023-09-05T00:00	2194	793	12.0	0.4	37	5
2023-09-05T00:00	2219	791	12.1	0.0	38	5
2023-09-05T00:00	2238	789	12.3	-0.5	37	5
2023-09-05T00:00	2254	788	12.4	-0.8	33	5
2023-09-05T00:00	2274	786	12.3	-0.4	27	5
2023-09-05T00:00	2298	783	12.3	-0.4	20	5
2023-09-05T00:00	2336	780	12.4	-0.9	14	5
2023-09-05T00:00	2356	778	12.4	-0.6	10	5
2023-09-05T00:00	2376	776	12.3	-0.1	9	5
2023-09-05T00:00	2396	774	12.2	-1.3	10	5
2023-09-05T00:00	2427	772	12.1	-2.4	12	5
2023-09-05T00:00	2456	769	12.0	-2.5	15	6
2023-09-05T00:00	2482	767	11.8	-1.5	19	6
2023-09-05T00:00	2502	765	11.7	-0.9	23	6
2023-09-05T00:00	2525	763	11.5	-0.5	28	6
2023-09-05T00:00	2550	760	11.4	-1.3	31	6
2023-09-05T00:00	2566	759	11.4	-2.7	33	6
2023-09-05T00:00	2585	757	11.2	-0.8	32	6
2023-09-05T00:00	2613	754	10.9	2.0	27	6
2023-09-05T00:00	2644	752	10.6	1.7	22	6
2023-09-05T00:00	2665	750	10.4	2.1	17	6
2023-09-05T00:00	2684	748	10.3	2.4	14	6
2023-09-05T00:00	2711	746	10.1	2.0	15	6
2023-09-05T00:00	2746	743	9.9	0.3	19	6
2023-09-05T00:00	2768	741	9.9	-0.8	24	6
2023-09-05T00:00	2795	738	9.8	-0.1	29	6
2023-09-05T00:00	2827	735	9.7	-0.4	33	6
2023-09-05T00:00	2857	733	9.5	-0.3	36	6
2023-09-05T00:00	2875	731	9.3	0.8	36	6
2023-09-05T00:00	2901	729	9.1	-0.3	36	6
2023-09-05T00:00	2929	727	9.1	-1.7	35	6
2023-09-05T00:00	2948	725	9.2	-3.5	36	6
2023-09-05T00:00	2971	723	9.2	-5.6	37	6
2023-09-05T00:00	2988	721	9.2	-5.7	42	5
2023-09-05T00:00	3019	719	9.2	-5.5	47	5
2023-09-05T00:00	3042	717	9.0	-6.0	52	6
2023-09-05T00:00	3065	715	9.0	-6.8	55	6
2023-09-05T00:00	3080	713	9.1	-9.6	55	6
2023-09-05T00:00	3100	711	9.1	-10.4	53	6
2023-09-05T00:00	3125	709	8.9	-7.8	49	5
2023-09-05T00:00	3150	707	8.8	-7.4	47	5
2023-09-05T00:00	3186	704	8.5	-4.3	47	5
2023-09-05T00:00	3213	702	8.2	-2.6	50	5
2023-09-05T00:00	3231	700	8.0	-1.5	54	5
2023-09-05T00:00	3248	699	7.9	-2.3	57	5
2023-09-05T00:00	3276	697	7.8	-2.9	58	6
2023-09-05T00:00	3308	694	7.6	-3.8	58	6
2023-09-05T00:00	3331	692	7.5	-4.3	56	6
2023-09-05T00:00	3353	690	7.3	-3.6	56	7
2023-09-05T00:00	3380	688	7.1	-3.4	56	7
2023-09-05T00:00	3402	686	7.0	-3.2	57	7
2023-09-05T00:00	3428	684	6.8	-3.4	59	8
2023-09-05T00:00	3446	682	6.6	-3.5	61	8
2023-09-05T00:00	3478	680	6.4	-4.9	62	8
2023-09-05T00:00	3502	678	6.3	-5.4	61	8
2023-09-05T00:00	3523	676	6.1	-4.8	59	8
2023-09-05T00:00	3543	674	5.9	-4.0	57	8
2023-09-05T00:00	3562	673	5.8	-4.5	56	8
2023-09-05T00:00	3591	671	5.8	-4.2	55	8
2023-09-05T00:00	3611	669	5.6	-4.3	54	8
2023-09-05T00:00	3630	667	5.5	-4.6	52	8
2023-09-05T00:00	3655	665	5.5	-6.3	49	8
2023-09-05T00:00	3680	663	5.4	-4.8	47	9
2023-09-05T00:00	3710	661	5.3	-5.5	45	9
2023-09-05T00:00	3731	659	5.2	-6.6	45	9
2023-09-05T00:00	3757	657	5.2	-9.2	46	10
2023-09-05T00:00	3773	656	5.3	-11.7	47	11
2023-09-05T00:00	3795	654	5.2	-12.6	49	11
2023-09-05T00:00	3821	652	5.1	-13.3	50	12
2023-09-05T00:00	3851	649	4.9	-12.8	50	12
2023-09-05T00:00	3880	647	4.8	-11.4	51	12
2023-09-05T00:00	3903	645	4.6	-10.4	51	11
2023-09-05T00:00	3924	643	4.4	-8.8	51	11
2023-09-05T00:00	3958	641	4.1	-8.1	52	10
2023-09-05T00:00	3992	638	3.8	-8.6	53	10
2023-09-05T00:00	4019	636	3.8	-10.5	54	10
2023-09-05T00:00	4041	634	3.7	-12.0	56	10
2023-09-05T00:00	4061	633	3.6	-12.9	57	10
2023-09-05T00:00	4084	631	3.6	-16.3	58	10
2023-09-05T00:00	4114	629	3.4	-15.6	58	10
2023-09-05T00:00	4147	626	3.3	-17.0	56	9
2023-09-05T00:00	4166	625	3.2	-13.2	54	9
2023-09-05T00:00	4192	623	2.9	-6.6	53	9
2023-09-05T00:00	4216	621	2.6	-6.3	51	10
2023-09-05T00:00	4236	619	2.7	-10.3	49	10
2023-09-05T00:00	4265	617	2.7	-16.2	47	10
2023-09-05T00:00	4300	615	2.6	-21.4	45	11
2023-09-05T00:00	4321	613	2.5	-21.3	42	11
2023-09-05T00:00	4347	611	2.4	-12.4	39	10
2023-09-05T00:00	4367	609	2.4	-13.0	36	10
2023-09-05T00:00	4388	608	2.3	-13.2	34	10
2023-09-05T00:00	4416	606	2.1	-10.5	31	9
2023-09-05T00:00	4436	604	2.0	-11.1	29	9
2023-09-05T00:00	4460	602	1.7	-8.9	28	9
2023-09-05T00:00	4491	600	1.4	-7.6	28	8
2023-09-05T00:00	4517	598	1.2	-8.1	28	8
2023-09-05T00:00	4534	597	1.1	-7.9	28	9
2023-09-05T00:00	4552	595	1.0	-9.1	28	9
2023-09-05T00:00	4571	594	1.0	-12.5	27	10
2023-09-05T00:00	4597	592	1.1	-16.3	27	10
2023-09-05T00:00	4622	590	1.0	-19.8	26	10
2023-09-05T00:00	4645	589	1.1	-20.2	25	11
2023-09-05T00:00	4664	587	1.0		23	11
2023-09-05T00:00	4693	585	0.9	-20.8	20	11
2023-09-05T00:00	4726	583	0.8	-23.6	18	11
2023-09-05T00:00	4753	581	0.7	-20.9	17	11
2023-09-05T00:00	4780	579	0.5	-21.4	16	11
2023-09-05T00:00	4800	577	0.4	-19.6	16	11
2023-09-05T00:00	4826	576	0.1	-13.7	17	11
2023-09-05T00:00	4846	574	-0.1	-14.6	17	11
2023-09-05T00:00	4866	573	0.0	-15.7	17	11
2023-09-05T00:00	4891	571	-0.1	-15.9	17	11
2023-09-05T00:00	4921	569	-0.4	-16.4	17	11
2023-09-05T00:00	4936	568	-0.5	-16.4	17	11
2023-09-05T00:00	4953	566	-0.6	-16.6	17	11
2023-09-05T00:00	4977	565	-0.7	-17.0	16	12
2023-09-05T00:00	5003	563	-0.7	-17.6	16	12
2023-09-05T00:00	5018	562	-0.7	-17.4	16	12
2023-09-05T00:00	5036	561	-0.7	-17.6	15	12
2023-09-05T00:00	5059	559	-0.8	-19.4	15	12
2023-09-05T00:00	5078	558	-0.9	-21.3	14	12
2023-09-05T00:00	5106	556	-1.1	-25.3	12	11
2023-09-05T00:00	5129	554	-1.2	-32.5	10	11
2023-09-05T00:00	5154	552	-1.2	-26.4	8	11
2023-09-05T00:00	5174	551	-1.4	-20.7	7	12
2023-09-05T00:00	5202	549	-1.6	-16.8	8	12
2023-09-05T00:00	5230	547	-1.8	-16.1	9	12
2023-09-05T00:00	5254	546	-2.0	-15.8	10	11
2023-09-05T00:00	5272	544	-2.2	-15.4	11	11
2023-09-05T00:00	5291	543	-2.3		13	10
2023-09-05T00:00	5315	541	-2.5	-14.8	16	10
2023-09-05T00:00	5338	540	-2.7	-14.4	19	9
2023-09-05T00:00	5368	538	-3.0	-13.8	22	9
2023-09-05T00:00	5390	536	-3.1	-14.3	24	9
2023-09-05T00:00	5417	535	-3.1	-16.4	26	9
2023-09-05T00:00	5430	533	-3.1	-17.1	27	8
2023-09-05T00:00	5449	532	-3.1	-17.3	29	8
2023-09-05T00:00	5468	531	-3.1	-18.2	30	8
2023-09-05T00:00	5489	529	-3.2	-18.9	32	8
2023-09-05T00:00	5520	528	-3.3	-21.6	33	8
2023-09-05T00:00	5540	526	-3.4	-22.3	33	8
2023-09-05T00:00	5555	525	-3.5	-21.6	33	8
2023-09-05T00:00	5578	524	-3.7	-21.0	33	8
2023-09-05T00:00	5597	522	-3.9	-19.7	34	8
2023-09-05T00:00	5621	521	-4.1	-19.5	35	7
2023-09-05T00:00	5648	519	-4.4	-19.4	36	7
2023-09-05T00:00	5672	517	-4.6	-19.3	34	7
2023-09-05T00:00	5698	516	-4.9	-19.2	31	8
2023-09-05T00:00	5722	514	-5.1	-19.2	27	8
2023-09-05T00:00	5741	513	-5.3	-19.3	24	8
2023-09-05T00:00	5767	511	-5.6	-19.4	21	9
2023-09-05T00:00	5796	509	-5.8	-19.4	21	9
2023-09-05T00:00	5818	508	-6.1	-19.4	21	9
2023-09-05T00:00	5847	506	-6.3	-18.7	24	9
2023-09-05T00:00	5872	504	-6.5	-18.6	27	9
2023-09-05T00:00	5902	503	-6.7	-19.0	29	9
2023-09-05T00:00	5921	501	-6.9	-19.2	31	9
2023-09-05T00:00	5944	500	-7.0	-19.9	31	9
2023-09-05T00:00	5973	498	-7.2	-21.8	30	8
2023-09-05T00:00	6008	496	-7.4	-20.8	28	8
2023-09-05T00:00	6037	494	-7.7	-20.9	27	8
2023-09-05T00:00	6060	492	-7.9	-20.8	26	8
2023-09-05T00:00	6088	491	-8.1	-21.0	27	8
2023-09-05T00:00	6118	489	-8.3	-21.4	29	8
2023-09-05T00:00	6152	487	-8.5	-21.7	31	8
2023-09-05T00:00	6174	485	-8.7	-21.3	33	9
2023-09-05T00:00	6205	483	-8.8	-22.4	35	9
2023-09-05T00:00	6235	481	-9.0	-22.9	36	9
2023-09-05T00:00	6261	480	-9.1	-23.3	35	9
2023-09-05T00:00	6290	478	-9.3	-24.6	33	9
2023-09-05T00:00	6308	477	-9.4	-24.3	31	9
2023-09-05T00:00	6338	475	-9.6	-24.0	28	9
2023-09-05T00:00	6368	473	-9.9	-24.1	25	10
2023-09-05T00:00	6405	471	-10.2	-24.4	23	10
2023-09-05T00:00	6426	470	-10.3	-24.5	21	10
2023-09-05T00:00	6445	468	-10.5	-24.7	18	10
2023-09-05T00:00	6465	467	-10.6	-24.7	16	10
2023-09-05T00:00	6485	466	-10.8	-24.9	13	10
2023-09-05T00:00	6512	464	-10.8	-25.7	10	10
2023-09-05T00:00	6544	463	-10.9	-26.3	9	10
2023-09-05T00:00	6567	461	-10.9	-27.0	11	10
2023-09-05T00:00	6590	460	-11.0	-26.6	14	10
2023-09-05T00:00	6622	458	-11.2	-26.2	17	10
2023-09-05T00:00	6650	456	-11.5	-26.0	20	10
2023-09-05T00:00	6679	454	-11.7	-25.5	20	11
2023-09-05T00:00	6706	453	-11.8	-26.2	19	11
2023-09-05T00:00	6726	452	-11.9	-26.5	17	11
2023-09-05T00:00	6746	450	-12.0	-27.1	14	12
2023-09-05T00:00	6768	449	-12.1	-27.9	11	12
2023-09-05T00:00	6796	447	-12.2		8	12
2023-09-05T00:00	6830	446	-12.4	-27.8	7	11
2023-09-05T00:00	6859	444	-12.6	-27.7	7	11
2023-09-05T00:00	6883	442	-12.8	-27.9	9	10
2023-09-05T00:00	6909	441	-12.9	-28.1	11	10
2023-09-05T00:00	6938	439	-13.1	-28.3	13	10
2023-09-05T00:00	6967	438	-13.2	-28.8	14	10
2023-09-05T00:00	6995	436	-13.2	-30.0	14	10
2023-09-05T00:00	7025	434	-13.3	-30.6	13	10
2023-09-05T00:00	7051	433	-13.4	-30.2	12	11
2023-09-05T00:00	7083	431	-13.7	-30.3	11	11
2023-09-05T00:00	7115	429	-13.9	-30.5	10	10
2023-09-05T00:00	7147	427	-14.2	-30.8	8	10
2023-09-05T00:00	7176	426	-14.4	-30.9	7	10
2023-09-05T00:00	7204	424	-14.6	-31.3	5	10
2023-09-05T00:00	7234	422	-14.8	-32.0	4	10
2023-09-05T00:00	7260	421	-15.0	-32.4	4	9
2023-09-05T00:00	7292	419	-15.2	-32.8	4	9
2023-09-05T00:00	7321	418	-15.4	-32.6	4	9
2023-09-05T00:00	7353	416	-15.7	-32.3	6	8
2023-09-05T00:00	7385	414	-15.9	-33.4	7	8
2023-09-05T00:00	7413	413	-16.0	-33.1	8	8
2023-09-05T00:00	7445	411	-16.3	-33.5	8	8
2023-09-05T00:00	7471	409	-16.5	-33.9	7	8
2023-09-05T00:00	7498	408	-16.7	-34.2	5	9
2023-09-05T00:00	7532	406	-17.0	-34.3	3	9
2023-09-05T00:00	7561	404	-17.3	-34.4	1	9
2023-09-05T00:00	7590	403	-17.6	-34.3	359	9
2023-09-05T00:00	7621	401	-17.8	-34.4	358	10
2023-09-05T00:00	7649	400	-18.1	-34.6	357	10
2023-09-05T00:00	7674	398	-18.3	-35.0	358	10
2023-09-05T00:00	7699	397	-18.5	-35.4	358	10
2023-09-05T00:00	7729	396	-18.6	-36.7	359	10
2023-09-05T00:00	7756	394	-18.7	-37.2	358	10
2023-09-05T00:00	7785	393	-19.0	-37.4	356	10
2023-09-05T00:00	7811	391	-19.2	-37.3	353	10
2023-09-05T00:00	7837	390	-19.4	-37.0	351	10
2023-09-05T00:00	7869	388	-19.7	-37.2	349	10
2023-09-05T00:00	7894	387	-19.9	-37.6	349	10
2023-09-05T00:00	7923	385	-20.1	-37.6	349	10
2023-09-05T00:00	7948	384	-20.3	-37.5	350	10
2023-09-05T00:00	7979	382	-20.5	-38.1	351	10
2023-09-05T00:00	8009	381	-20.8	-37.7	351	10
2023-09-05T00:00	8040	379	-21.0	-37.6	352	10
2023-09-05T00:00	8066	378	-21.2	-37.7	353	10
2023-09-05T00:00	8094	377	-21.4	-38.1	354	11
2023-09-05T00:00	8122	375	-21.5	-39.3	355	11
2023-09-05T00:00	8145	374	-21.6	-40.1	357	11
2023-09-05T00:00	8173	372	-21.8	-40.1	358	11
2023-09-05T00:00	8199	371	-21.9	-40.2	359	10
2023-09-05T00:00	8230	370	-22.1	-40.4	0	10
2023-09-05T00:00	8255	368	-22.3	-40.7	2	10
2023-09-05T00:00	8284	367	-22.4	-40.9	4	9
2023-09-05T00:00	8312	365	-22.6	-41.2	6	9
2023-09-05T00:00	8340	364	-22.7	-41.6	8	9
2023-09-05T00:00	8367	363	-22.9	-42.1	10	9
2023-09-05T00:00	8398	361	-23.1	-42.5	10	10
2023-09-05T00:00	8431	360	-23.3	-43.0	9	10
2023-09-05T00:00	8457	358	-23.4	-42.6	9	10
2023-09-05T00:00	8482	357	-23.6	-42.2	8	11
2023-09-05T00:00	8506	356	-23.8	-41.7	9	11
2023-09-05T00:00	8533	355	-24.1	-40.9	10	11
2023-09-05T00:00	8560	353	-24.3	-40.0	11	12
2023-09-05T00:00	8586	352	-24.6	-38.9	12	12
2023-09-05T00:00	8612	351	-24.8	-38.5	12	12
2023-09-05T00:00	8639	349	-25.1	-37.8	12	13
2023-09-05T00:00	8668	348	-25.4	-36.7	11	13
2023-09-05T00:00	8694	347	-25.6	-36.7	11	13
2023-09-05T00:00	8720	346	-25.8	-36.4	11	13
2023-09-05T00:00	8745	344	-26.0	-36.8	11	13
2023-09-05T00:00	8770	343	-26.3	-36.8	11	14
2023-09-05T00:00	8797	342	-26.5	-37.3	12	13
2023-09-05T00:00	8825	341	-26.7	-38.3	12	13
2023-09-05T00:00	8848	339	-26.9	-39.2	12	13
2023-09-05T00:00	8875	338	-27.0	-39.2	12	13
2023-09-05T00:00	8900	337	-27.1	-38.0	12	13
2023-09-05T00:00	8923	336	-27.3	-37.5	11	13
2023-09-05T00:00	8952	335	-27.5	-37.5	10	13
2023-09-05T00:00	8975	334	-27.6	-38.4	9	13
2023-09-05T00:00	9002	332	-27.8	-37.8	8	13
2023-09-05T00:00	9032	331	-28.1	-36.9	7	13
2023-09-05T00:00	9064	330	-28.4	-36.6	6	14
2023-09-05T00:00	9091	328	-28.6	-36.1	6	14
2023-09-05T00:00	9112	327	-28.9	-36.2	6	14
2023-09-05T00:00	9141	326	-29.1	-36.3	7	14
2023-09-05T00:00	9168	325	-29.3	-36.6	6	14
2023-09-05T00:00	9193	324	-29.5	-37.0	5	14
2023-09-05T00:00	9215	323	-29.6	-37.3	4	14
2023-09-05T00:00	9237	322	-29.8	-37.6	2	14
2023-09-05T00:00	9265	320	-30.0	-37.7	1	15
2023-09-05T00:00	9294	319	-30.2	-37.9	1	15
2023-09-05T00:00	9320	318	-30.5	-38.2	2	15
2023-09-05T00:00	9349	317	-30.7	-38.2	2	15
2023-09-05T00:00	9376	315	-30.9	-38.4	4	15
2023-09-05T00:00	9400	314	-31.2	-38.6	5	15
2023-09-05T00:00	9418	313	-31.3	-38.5	7	14
2023-09-05T00:00	9447	312	-31.5	-38.7	9	14
2023-09-05T00:00	9466	311	-31.7	-38.9	12	13
2023-09-05T00:00	9487	310	-31.9	-39.0	14	13
2023-09-05T00:00	9511	309	-32.0	-38.8	14	13
2023-09-05T00:00	9537	308	-32.2	-39.2	14	13
2023-09-05T00:00	9567	307	-32.4	-40.2	13	13
2023-09-05T00:00	9597	306	-32.6	-40.9	12	14
2023-09-05T00:00	9631	304	-32.8	-40.5	11	14
2023-09-05T00:00	9655	303	-33.0	-40.5	10	14
2023-09-05T00:00	9680	302	-33.2	-40.6	10	15
2023-09-05T00:00	9704	301	-33.4	-40.8	10	15
2023-09-05T00:00	9728	300	-33.6	-41.1	11	15
2023-09-05T00:00	9758	299	-33.6	-43.0	13	15
2023-09-05T00:00	9787	298	-33.4	-46.0	14	15
2023-09-05T00:00	9810	296	-33.4	-46.1	15	15
2023-09-05T00:00	9836	295	-33.6	-46.3	15	15
2023-09-05T00:00	9863	294	-33.7	-46.4	14	15
2023-09-05T00:00	9889	293	-33.9	-46.7	14	15
2023-09-05T00:00	9916	292	-34.0	-47.6	14	15
2023-09-05T00:00	9943	291	-34.2	-47.8	14	14
2023-09-05T00:00	9974	290	-34.4	-48.0	15	14
2023-09-05T00:00	9999	289	-34.7	-48.2	16	14
2023-09-05T00:00	10025	288	-34.8	-48.4	17	13
2023-09-05T00:00	10056	286	-35.1	-48.5	18	13
2023-09-05T00:00	10080	285	-35.3	-48.2	18	13
2023-09-05T00:00	10106	284	-35.6	-47.7	18	13
2023-09-05T00:00	10132	283	-35.8	-47.3	17	13
2023-09-05T00:00	10165	282	-36.1	-47.3	16	14
2023-09-05T00:00	10196	281	-36.4	-47.6	14	14
2023-09-05T00:00	10223	280	-36.5	-48.1	13	14
2023-09-05T00:00	10250	278	-36.8	-48.4	12	15
2023-09-05T00:00	10274	277	-37.0	-48.5	11	15
2023-09-05T00:00	10303	276	-37.2	-48.4	10	15
2023-09-05T00:00	10330	275	-37.4	-48.2	10	16
2023-09-05T00:00	10357	274	-37.7	-48.1	10	16
2023-09-05T00:00	10384	273	-37.9	-48.3	10	16
2023-09-05T00:00	10412	272	-38.2	-48.8	11	16
2023-09-05T00:00	10439	271	-38.4	-48.9	11	17
2023-09-05T00:00	10466	270	-38.7	-48.9	11	17
2023-09-05T00:00	10491	269	-38.9	-48.8	11	16
2023-09-05T00:00	10518	268	-39.2	-48.7	10	16
2023-09-05T00:00	10543	267	-39.4	-48.9	10	16
2023-09-05T00:00	10566	266	-39.6	-49.1	10	16
2023-09-05T00:00	10589	265	-39.8	-49.1	10	16
2023-09-05T00:00	10609	264	-40.0	-49.1	10	16
2023-09-05T00:00	10631	263	-40.2	-49.2	9	16
2023-09-05T00:00	10653	263	-40.4	-49.3	9	16
2023-09-05T00:00	10672	262	-40.6	-49.3	9	16
2023-09-05T00:00	10696	261	-40.8	-49.4	9	16
2023-09-05T00:00	10716	260	-41.0	-49.6	9	16
2023-09-05T00:00	10738	259	-41.2	-49.7	9	16
2023-09-05T00:00	10759	258	-41.4	-49.7	9	16
2023-09-05T00:00	10780	258	-41.6	-49.7	9	16
2023-09-05T00:00	10805	257	-41.8	-49.8	9	16
2023-09-05T00:00	10837	256	-42.1	-50.0	9	16
2023-09-05T00:00	10858	255	-42.3	-50.3	10	16
2023-09-05T00:00	10882	254	-42.5	-50.1	10	16
2023-09-05T00:00	10903	253	-42.7	-49.7	10	16
2023-09-05T00:00	10926	252	-42.9	-49.4	10	17
2023-09-05T00:00	10949	251	-43.1	-49.5	11	17
2023-09-05T00:00	10978	250	-43.4	-50.0	11	17
2023-09-05T00:00	11003	249	-43.5	-51.1	12	17
2023-09-05T00:00	11031	248	-43.5	-52.2	11	18
2023-09-05T00:00	11060	247	-43.8	-52.3	10	18
2023-09-05T00:00	11087	246	-43.9	-52.4	10	18
2023-09-05T00:00	11113	245	-44.1	-52.7	9	18
2023-09-05T00:00	11140	244	-44.3	-52.8	8	18
2023-09-05T00:00	11163	243	-44.5	-53.2	8	18
2023-09-05T00:00	11192	242	-44.7	-53.8	8	18
2023-09-05T00:00	11214	242	-44.9	-54.0	7	18
2023-09-05T00:00	11238	241	-45.1	-54.2	7	18
2023-09-05T00:00	11265	240	-45.2	-55.0	7	19
2023-09-05T00:00	11286	239	-45.3	-55.6	7	19
2023-09-05T00:00	11311	238	-45.4	-56.0	7	19
2023-09-05T00:00	11335	237	-45.6	-56.3	7	19
2023-09-05T00:00	11355	237	-45.7	-56.4	7	19
2023-09-05T00:00	11377	236	-45.9	-56.6	7	19
2023-09-05T00:00	11397	235	-46.1	-56.7	8	19
2023-09-05T00:00	11417	234	-46.2	-56.8	8	19
2023-09-05T00:00	11438	234	-46.3	-57.2	8	19
2023-09-05T00:00	11458	233	-46.5	-57.5	8	19
2023-09-05T00:00	11478	232	-46.6	-57.4	9	19
2023-09-05T00:00	11501	231	-46.8	-57.5	9	19
2023-09-05T00:00	11521	231	-47.0	-57.8	9	20
2023-09-05T00:00	11541	230	-47.1	-57.9	9	20
2023-09-05T00:00	11560	229	-47.2	-58.0	8	20
2023-09-05T00:00	11579	229	-47.4	-58.4	8	20
2023-09-05T00:00	11599	228	-47.5	-59.0	8	20
2023-09-05T00:00	11618	227	-47.6	-59.4	8	20
2023-09-05T00:00	11635	227	-47.8	-59.5	8	20
2023-09-05T00:00	11657	226	-47.9	-59.4	9	19
2023-09-05T00:00	11678	225	-48.1	-59.4	9	19
2023-09-05T00:00	11698	225	-48.3	-59.3	9	19
2023-09-05T00:00	11718	224	-48.5	-59.5	9	19
2023-09-05T00:00	11741	223	-48.7	-59.6	10	19
2023-09-05T00:00	11759	222	-48.9	-59.8	10	19
2023-09-05T00:00	11778	222	-49.1	-60.1	10	19
2023-09-05T00:00	11798	221	-49.2	-60.3	10	19
2023-09-05T00:00	11816	221	-49.4	-60.5	10	19
2023-09-05T00:00	11836	220	-49.5	-60.5	10	19
2023-09-05T00:00	11854	219	-49.6	-60.4	10	19
2023-09-05T00:00	11874	219	-49.8	-60.5	10	19
2023-09-05T00:00	11893	218	-49.9	-60.6	10	19
2023-09-05T00:00	11912	217	-50.1	-61.0	9	19
2023-09-05T00:00	11934	217	-50.3	-61.3	8	19
2023-09-05T00:00	11952	216	-50.5	-61.8	8	19
2023-09-05T00:00	11972	215	-50.6	-61.8	7	19
2023-09-05T00:00	11991	215	-50.8	-61.6	7	19
2023-09-05T00:00	12009	214	-51.0	-61.4	7	19
2023-09-05T00:00	12027	214	-51.1		7	19
2023-09-05T00:00	12046	213	-51.3	-61.5	6	19
2023-09-05T00:00	12062	212	-51.4	-61.7	5	19
2023-09-05T00:00	12082	212	-51.5	-61.9	5	19
2023-09-05T00:00	12100	211	-51.6	-62.2	4	19
2023-09-05T00:00	12117	211	-51.7	-62.7	3	19
2023-09-05T00:00	12136	210	-51.8	-62.9	1	19
2023-09-05T00:00	12155	209	-51.9	-62.7	1	19
2023-09-05T00:00	12173	209	-52.1	-63.0	360	19
2023-09-05T00:00	12191	208	-52.1	-63.8	360	19
2023-09-05T00:00	12209	208	-52.2	-64.8	359	19
2023-09-05T00:00	12227	207	-52.3	-65.4	360	19
2023-09-05T00:00	12241	207	-52.4	-65.6	360	18
2023-09-05T00:00	12258	206	-52.5	-65.5	0	18
2023-09-05T00:00	12276	206	-52.7	-65.2	1	18
2023-09-05T00:00	12295	205	-52.9	-65.0	1	18
2023-09-05T00:00	12315	204	-53.0	-64.9	1	18
2023-09-05T00:00	12333	204	-53.1	-64.9	1	18
2023-09-05T00:00	12353	203	-53.3	-65.0	1	18
2023-09-05T00:00	12370	203	-53.5	-65.0	360	19
2023-09-05T00:00	12389	202	-53.6	-65.1	359	19
2023-09-05T00:00	12408	201	-53.7	-65.4	358	19
2023-09-05T00:00	12427	201	-53.9	-65.8	358	19
2023-09-05T00:00	12446	200	-54.1	-66.0	358	18
2023-09-05T00:00	12463	200	-54.2	-65.9	358	18
2023-09-05T00:00	12481	199	-54.4	-66.0	359	18
2023-09-05T00:00	12500	199	-54.5	-65.9	359	18
2023-09-05T00:00	12519	198	-54.6	-66.0	359	18
2023-09-05T00:00	12537	197	-54.7	-66.0	359	18
2023-09-05T00:00	12556	197	-54.8	-65.9	358	18
2023-09-05T00:00	12576	196	-55.0	-65.9	358	17
2023-09-05T00:00	12593	196	-55.2	-65.8	357	17
2023-09-05T00:00	12613	195	-55.3	-65.7	357	17
2023-09-05T00:00	12633	194	-55.4	-65.7	356	18
2023-09-05T00:00	12653	194	-55.5	-65.9	356	18
2023-09-05T00:00	12672	193	-55.6	-66.2	356	18
2023-09-05T00:00	12691	193	-55.8	-66.4	356	18
2023-09-05T00:00	12710	192	-55.9	-66.5	355	18
2023-09-05T00:00	12730	192	-56.0	-66.5	354	18
2023-09-05T00:00	12748	191	-56.0	-66.3	353	19
2023-09-05T00:00	12768	190	-56.2	-66.3	353	19
2023-09-05T00:00	12789	190	-56.3	-66.3	352	19
2023-09-05T00:00	12807	189	-56.4	-66.4	352	19
2023-09-05T00:00	12826	189	-56.6	-66.6	351	20
2023-09-05T00:00	12845	188	-56.7	-66.7	351	20
2023-09-05T00:00	12866	187	-56.9	-66.8	351	20
2023-09-05T00:00	12885	187	-57.0	-66.8	350	20
2023-09-05T00:00	12906	186	-57.2	-66.9	350	21
2023-09-05T00:00	12925	186	-57.4	-67.0	350	21
2023-09-05T00:00	12945	185	-57.6	-67.1	349	21
2023-09-05T00:00	12966	184	-57.7	-67.1	349	22
2023-09-05T00:00	12986	184	-57.9	-67.3	349	22
2023-09-05T00:00	13008	183	-58.0	-67.4	348	22
2023-09-05T00:00	13028	183	-58.1	-67.5	348	22
2023-09-05T00:00	13048	182	-58.3	-67.5	348	22
2023-09-05T00:00	13071	181	-58.5	-67.6	347	22
2023-09-05T00:00	13092	181	-58.7	-67.6	347	22
2023-09-05T00:00	13112	180	-58.9	-67.7	348	22
2023-09-05T00:00	13131	180	-59.1	-67.8	348	22
2023-09-05T00:00	13154	179	-59.2	-67.9	348	22
2023-09-05T00:00	13171	179	-59.4	-68.1	348	22
2023-09-05T00:00	13192	178	-59.6	-68.1	348	22
2023-09-05T00:00	13213	177	-59.7	-68.0	348	22
2023-09-05T00:00	13231	177	-59.9	-68.0	348	22
2023-09-05T00:00	13254	176	-60.0	-67.9	348	22
2023-09-05T00:00	13275	176	-60.2	-68.1	348	22
2023-09-05T00:00	13295	175	-60.3	-68.2	348	22
2023-09-05T00:00	13319	174	-60.4	-68.3	349	22
2023-09-05T00:00	13339	174	-60.6	-68.4	349	22
2023-09-05T00:00	13359	173	-60.8	-68.5	348	22
2023-09-05T00:00	13380	173	-61.0	-68.5	348	22
2023-09-05T00:00	13399	172	-61.2	-68.6	348	21
2023-09-05T00:00	13422	171	-61.4	-68.7	348	21
2023-09-05T00:00	13442	171	-61.5	-68.8	347	21
2023-09-05T00:00	13463	170	-61.6	-68.9	347	21
2023-09-05T00:00	13485	170	-61.7	-69.0	347	21
2023-09-05T00:00	13506	169	-61.8	-69.2	347	21
2023-09-05T00:00	13526	169	-61.9	-69.3	347	21
2023-09-05T00:00	13548	168	-62.1	-69.6	347	21
2023-09-05T00:00	13567	168	-62.2	-69.7	347	21
2023-09-05T00:00	13587	167	-62.3	-69.9	347	21
2023-09-05T00:00	13609	166	-62.5	-70.0	347	21
2023-09-05T00:00	13630	166	-62.7	-70.3	346	21
2023-09-05T00:00	13649	165	-62.8	-70.5	346	21
2023-09-05T00:00	13671	165	-62.7	-70.5	347	21
2023-09-05T00:00	13690	164	-62.8	-70.7	347	21
2023-09-05T00:00	13709	164	-62.8	-70.7	347	21
2023-09-05T00:00	13730	163	-62.9	-70.7	347	21
2023-09-05T00:00	13749	163	-63.1	-70.7	347	21
2023-09-05T00:00	13771	162	-63.1	-70.6	346	21
2023-09-05T00:00	13791	162	-62.9	-70.3	346	21
2023-09-05T00:00	13813	161	-63.0	-70.3	345	21
2023-09-05T00:00	13833	160	-63.1	-70.4	345	21
2023-09-05T00:00	13853	160	-63.2	-70.3	344	21
2023-09-05T00:00	13874	159	-63.3	-70.3	344	21
2023-09-05T00:00	13894	159	-63.4	-70.2	343	21
2023-09-05T00:00	13915	158	-63.6	-70.2	343	21
2023-09-05T00:00	13936	158	-63.8	-70.3	342	20
2023-09-05T00:00	13957	157	-64.0	-70.5	342	19
2023-09-05T00:00	13979	157	-64.1	-70.8	341	19
2023-09-05T00:00	14000	156	-64.2	-71.2	341	18
2023-09-05T00:00	14020	156	-63.9	-71.3	340	17
2023-09-05T00:00	14037	155	-63.6	-71.5	340	17
2023-09-05T00:00	14060	155	-63.5	-71.9	340	17
2023-09-05T00:00	14079	154	-63.4	-72.4	340	17
2023-09-05T00:00	14098	154	-63.5	-72.9	340	17
2023-09-05T00:00	14118	153	-63.5	-73.2	340	17
2023-09-05T00:00	14138	153	-63.7	-73.6	340	17
2023-09-05T00:00	14159	152	-63.8	-73.9	340	18
2023-09-05T00:00	14180	152	-63.9	-74.1	340	18
2023-09-05T00:00	14199	151	-64.0	-74.4	340	18
2023-09-05T00:00	14221	151	-64.1	-74.7	340	18
2023-09-05T00:00	14242	150	-64.1	-74.9	340	18
2023-09-05T00:00	14264	150	-64.2	-75.2	341	17
2023-09-05T00:00	14283	149	-64.4	-75.6	341	17
2023-09-05T00:00	14304	149	-64.5	-75.9	341	16
2023-09-05T00:00	14325	148	-64.5	-76.1	339	15
2023-09-05T00:00	14344	148	-64.4	-76.4	337	15
2023-09-05T00:00	14375	147	-64.6	-77.0	334	14
2023-09-05T00:00	14394	146	-64.7	-77.5	332	13
2023-09-05T00:00	14413	146	-64.4	-77.7	331	13
2023-09-05T00:00	14432	145	-64.0	-77.8	332	13
2023-09-05T00:00	14453	145	-63.9	-78.2	333	13
2023-09-05T00:00	14472	145	-63.9	-78.3	336	13
2023-09-05T00:00	14493	144	-63.7	-77.9	339	13
2023-09-05T00:00	14513	144	-63.8		342	13
2023-09-05T00:00	14532	143	-63.6	-77.6	345	13
2023-09-05T00:00	14552	143	-63.5	-77.6	347	13
2023-09-05T00:00	14568	142	-63.5	-77.8	349	12
2023-09-05T00:00	14588	142	-63.6	-78.1	351	12
2023-09-05T00:00	14609	141	-63.4	-78.1	352	12
2023-09-05T00:00	14629	141	-63.3		354	11
2023-09-05T00:00	14650	140	-63.3		354	11
2023-09-05T00:00	14669	140	-63.5	-78.3	355	10
2023-09-05T00:00	14689	139	-63.6	-78.2	354	10
2023-09-05T00:00	14713	139	-63.8	-78.1	353	9
2023-09-05T00:00	14735	139	-64.0	-77.9	352	8
2023-09-05T00:00	14751	138	-64.1	-77.7	351	8
2023-09-05T00:00	14774	138	-64.2	-77.5	351	8
2023-09-05T00:00	14795	137	-64.3	-77.4	353	7
2023-09-05T00:00	14815	137	-64.2	-77.3	354	7
2023-09-05T00:00	14834	136	-63.9	-77.0	355	7
2023-09-05T00:00	14857	136	-64.0	-77.2	356	8
2023-09-05T00:00	14879	135	-64.1	-77.3	357	8
2023-09-05T00:00	14901	135	-64.2	-77.4	359	8
2023-09-05T00:00	14924	134	-64.4	-77.7	1	9
2023-09-05T00:00	14947	134	-64.6	-77.9	3	9
2023-09-05T00:00	14977	133	-64.8	-78.2	5	9
2023-09-05T00:00	15001	133	-65.1	-78.5	5	9
2023-09-05T00:00	15032	132	-65.3	-78.7	4	10
2023-09-05T00:00	15062	131	-65.5	-79.0	3	10
2023-09-05T00:00	15087	131	-65.8	-79.2	2	10
2023-09-05T00:00	15112	130	-66.0	-79.4	3	11
2023-09-05T00:00	15147	129	-66.3	-79.7	4	11
2023-09-05T00:00	15175	129	-66.6	-79.9	5	12
2023-09-05T00:00	15211	128	-66.9	-80.2	5	12
2023-09-05T00:00	15235	128	-67.1	-80.4	4	12
2023-09-05T00:00	15257	127	-67.3	-80.6	2	12
2023-09-05T00:00	15282	127	-67.5	-80.9	360	12
2023-09-05T00:00	15307	126	-67.6	-81.0	358	11
2023-09-05T00:00	15334	126	-67.8	-81.2	359	11
2023-09-05T00:00	15357	125	-68.0	-81.2	360	11
2023-09-05T00:00	15381	125	-68.2	-81.2	2	10
2023-09-05T00:00	15405	124	-68.4	-81.2	5	10
2023-09-05T00:00	15425	124	-68.6	-81.2	7	10
2023-09-05T00:00	15449	123	-68.8	-81.3	10	10
2023-09-05T00:00	15474	123	-68.9	-81.3	12	10
2023-09-05T00:00	15497	122	-68.9	-81.2	14	10
2023-09-05T00:00	15519	122	-69.1	-81.3	17	9
2023-09-05T00:00	15542	121	-69.2	-81.3	20	9
2023-09-05T00:00	15562	121	-69.3	-81.3	24	9
2023-09-05T00:00	15585	120	-69.4	-81.4	28	8
2023-09-05T00:00	15607	120	-69.5	-81.4	32	8
2023-09-05T00:00	15629	119	-69.6	-81.5	36	7
2023-09-05T00:00	15649	119	-69.5	-81.4	39	7
2023-09-05T00:00	15671	119	-69.2	-81.1	40	6
2023-09-05T00:00	15693	118	-69.1	-81.1	39	5
2023-09-05T00:00	15713	118	-69.0	-81.1	39	4
2023-09-05T00:00	15736	117	-68.9	-81.2	39	3
2023-09-05T00:00	15755	117	-68.4	-81.2	43	3
2023-09-05T00:00	15779	117	-67.8	-81.2	54	2
2023-09-05T00:00	15798	116	-67.2	-81.2	68	2
2023-09-05T00:00	15818	116	-66.7	-81.5	81	2
2023-09-05T00:00	15838	115	-66.4	-81.9	89	2
2023-09-05T00:00	15858	115	-66.1	-82.1	94	2
2023-09-05T00:00	15880	115	-66.0	-82.6	96	1
2023-09-05T00:00	15901	114	-65.7	-82.7	95	1
2023-09-05T00:00	15921	114	-65.5	-83.0	71	0
2023-09-05T00:00	15942	113	-65.1	-83.0	282	1
2023-09-05T00:00	15964	113	-64.9	-83.2	280	1
2023-09-05T00:00	15983	113	-64.8	-83.3	281	2
2023-09-05T00:00	16002	112	-64.6	-83.3	284	3
2023-09-05T00:00	16023	112	-64.4	-83.3	288	4
2023-09-05T00:00	16046	111	-64.4	-83.3	292	4
2023-09-05T00:00	16068	111	-64.4	-83.3	295	5
2023-09-05T00:00	16093	111	-64.4	-83.1	297	6
2023-09-05T00:00	16117	110	-64.6	-83.2	298	6
2023-09-05T00:00	16135	110	-64.7	-83.2	300	7
2023-09-05T00:00	16158	109	-64.9	-83.3	301	7
2023-09-05T00:00	16180	109	-65.0	-83.1	302	8
2023-09-05T00:00	16201	109	-65.2	-83.1	304	8
2023-09-05T00:00	16222	108	-65.4	-83.2	306	8
2023-09-05T00:00	16243	108	-65.6	-83.3	308	8
2023-09-05T00:00	16266	108	-65.8	-83.2	311	8
2023-09-05T00:00	16291	107	-66.1	-83.4	315	9
2023-09-05T00:00	16314	107	-66.3	-83.4	318	9
2023-09-05T00:00	16336	106	-66.4	-83.5	322	9
2023-09-05T00:00	16356	106	-66.5	-83.6	326	9
2023-09-05T00:00	16377	106	-66.4	-83.6	331	8
2023-09-05T00:00	16400	105	-66.2	-83.5	335	8
2023-09-05T00:00	16419	105	-65.8	-83.3	340	7
2023-09-05T00:00	16440	104	-65.7	-83.3	344	6
2023-09-05T00:00	16461	104	-65.8	-83.5	348	6
2023-09-05T00:00	16479	104	-65.7	-83.6	351	5
2023-09-05T00:00	16499	103	-65.7	-83.7	354	5
2023-09-05T00:00	16522	103	-65.6	-83.8	355	4
2023-09-05T00:00	16543	103	-65.5	-84.1	355	4
2023-09-05T00:00	16568	102	-65.4	-84.2	354	4
2023-09-05T00:00	16587	102	-65.0	-84.2	351	4
2023-09-05T00:00	16609	102	-64.5	-84.0	349	5
2023-09-05T00:00	16629	101	-64.6	-84.4	347	5
2023-09-05T00:00	16649	101	-64.7	-84.7	346	5
2023-09-05T00:00	16671	101	-64.7	-84.8	345	5
2023-09-05T00:00	16693	100	-64.4	-84.7	344	5
2023-09-05T00:00	16712	100	-64.2	-84.7	343	6
2023-09-05T00:00	16734	100	-64.0	-84.7	342	6
2023-09-05T00:00	16753	99	-64.2	-84.8	342	6
2023-09-05T00:00	16776	99	-64.3	-84.9	342	7
2023-09-05T00:00	16801	99	-64.5	-84.9	343	8
2023-09-05T00:00	16820	98	-64.6	-85.0	345	8
2023-09-05T00:00	16841	98	-64.7	-85.1	347	9
2023-09-05T00:00	16864	97	-64.8	-85.2	349	9
2023-09-05T00:00	16886	97	-64.8	-85.2	351	9
2023-09-05T00:00	16907	97	-64.9	-85.3	353	9
2023-09-05T00:00	16925	96	-64.8	-85.3	355	9
2023-09-05T00:00	16950	96	-64.7	-85.4	356	9
2023-09-05T00:00	16971	96	-64.4	-85.3	357	9
2023-09-05T00:00	16989	95	-64.4	-85.5	358	8
2023-09-05T00:00	17013	95	-64.4	-85.5	359	8
2023-09-05T00:00	17034	95	-64.5	-85.7	1	8
2023-09-05T00:00	17056	94	-64.5	-85.7	4	8
2023-09-05T00:00	17079	94	-64.3	-85.7	7	8
2023-09-05T00:00	17099	94	-64.1	-85.5	11	8
2023-09-05T00:00	17122	93	-64.1	-85.7	14	8
2023-09-05T00:00	17146	93	-64.1	-85.7	17	8
2023-09-05T00:00	17168	93	-64.3	-85.9	18	8
2023-09-05T00:00	17190	92	-64.2	-85.8	19	8
2023-09-05T00:00	17211	92	-64.3	-85.7	19	9
2023-09-05T00:00	17233	92	-64.3	-85.7	19	10
2023-09-05T00:00	17254	91	-64.1	-85.5	19	10
2023-09-05T00:00	17277	91	-64.2	-85.6	20	11
2023-09-05T00:00	17298	91	-64.3	-85.7	21	11
2023-09-05T00:00	17321	90	-64.4	-85.8	23	11
2023-09-05T00:00	17343	90	-64.3	-85.7	25	10
2023-09-05T00:00	17367	90	-63.8	-85.5	27	10
2023-09-05T00:00	17388	89	-63.8	-85.6	30	9
2023-09-05T00:00	17409	89	-63.7	-85.7	32	9
2023-09-05T00:00	17429	89	-63.6	-85.8	34	8
2023-09-05T00:00	17454	89	-63.8	-86.0	35	7
2023-09-05T00:00	17475	88	-63.8	-86.2	36	7
2023-09-05T00:00	17500	88	-63.6	-86.2	35	6
2023-09-05T00:00	17522	88	-63.5	-86.1	33	5
2023-09-05T00:00	17543	87	-63.5	-86.3	29	5
2023-09-05T00:00	17566	87	-63.3	-86.4	25	4
2023-09-05T00:00	17588	87	-63.1	-86.2	20	4
2023-09-05T00:00	17611	86	-63.2	-86.3	16	4
2023-09-05T00:00	17633	86	-63.3	-86.6	13	4
2023-09-05T00:00	17655	86	-63.4	-86.7	13	4
2023-09-05T00:00	17678	85	-63.4	-86.7	16	4
2023-09-05T00:00	17699	85	-63.3	-86.6	20	5
2023-09-05T00:00	17718	85	-63.0	-86.4	25	5
2023-09-05T00:00	17740	84	-62.9	-86.5	31	5
2023-09-05T00:00	17765	84	-62.9	-86.5	35	5
2023-09-05T00:00	17787	84	-62.8	-86.4	39	5
2023-09-05T00:00	17807	84	-62.7	-86.3	42	5
2023-09-05T00:00	17830	83	-62.7	-86.3	43	5
2023-09-05T00:00	17854	83	-62.8	-86.4	43	4
2023-09-05T00:00	17875	83	-62.7	-86.3	42	4
2023-09-05T00:00	17897	82	-62.8	-86.4	40	3
2023-09-05T00:00	17921	82	-63.0	-86.4	36	3
2023-09-05T00:00	17941	82	-63.1	-86.4	29	2
2023-09-05T00:00	17965	81	-63.3	-86.4	17	2
2023-09-05T00:00	17986	81	-63.4	-86.5	1	2
2023-09-05T00:00	18006	81	-63.6	-86.6	348	2
2023-09-05T00:00	18029	81	-63.7	-86.7	343	2
2023-09-05T00:00	18049	80	-63.7	-86.9	346	2
2023-09-05T00:00	18068	80	-63.6	-86.8	352	2
2023-09-05T00:00	18089	80	-63.2	-86.7	357	2
2023-09-05T00:00	18111	80	-63.1	-86.9	0	2
2023-09-05T00:00	18134	79	-63.0	-87.0	2	1
2023-09-05T00:00	18152	79	-62.6	-87.0	5	1
2023-09-05T00:00	18175	79	-62.3	-86.7	19	1
2023-09-05T00:00	18196	78	-62.2	-86.9	71	0
2023-09-05T00:00	18219	78	-62.0	-86.8	96	1
2023-09-05T00:00	18243	78	-61.9	-86.7	87	1
2023-09-05T00:00	18264	78	-61.7	-86.5	67	1
2023-09-05T00:00	18284	77	-61.9	-86.7	50	1
2023-09-05T00:00	18309	77	-62.0	-86.8	40	2
2023-09-05T00:00	18329	77	-62.0	-86.8	36	2
2023-09-05T00:00	18352	77	-61.7	-86.5	37	3
2023-09-05T00:00	18371	76	-61.4	-86.6	40	3
2023-09-05T00:00	18395	76	-61.3	-86.5	45	4
2023-09-05T00:00	18417	76	-61.3	-86.5	51	4
2023-09-05T00:00	18440	75	-61.2	-86.7	57	5
2023-09-05T00:00	18461	75	-61.2	-86.7	64	5
2023-09-05T00:00	18483	75	-61.1	-86.6	69	5
2023-09-05T00:00	18501	75	-60.7	-86.6	73	4
2023-09-05T00:00	18524	74	-60.2	-86.3	75	4
2023-09-05T00:00	18546	74	-60.2	-86.3	77	3
2023-09-05T00:00	18570	74	-60.2	-86.3	78	3
2023-09-05T00:00	18591	74	-60.3	-86.3	80	3
2023-09-05T00:00	18613	73	-60.4		81	3
2023-09-05T00:00	18633	73	-60.4		82	3
2023-09-05T00:00	18654	73	-60.4		82	3
2023-09-05T00:00	18677	73	-60.5	-86.5	82	3
2023-09-05T00:00	18697	72	-60.5	-86.5	83	3
2023-09-05T00:00	18722	72	-60.5	-86.5	88	3
2023-09-05T00:00	18746	72	-60.2	-86.3	97	2
2023-09-05T00:00	18765	72	-60.1	-86.2	112	2
2023-09-05T00:00	18791	71	-60.1	-86.2	129	2
2023-09-05T00:00	18812	71	-60.0	-86.1	144	2
2023-09-05T00:00	18834	71	-60.0	-86.1	155	3
2023-09-05T00:00	18858	71	-60.1	-86.2	165	3
2023-09-05T00:00	18877	70	-60.2	-86.3	175	2
2023-09-05T00:00	18902	70	-60.3	-86.3	187	2
2023-09-05T00:00	18920	70	-60.3	-86.3	201	2
2023-09-05T00:00	18940	70	-60.4		220	1
2023-09-05T00:00	18964	69	-60.5	-86.5	242	1
2023-09-05T00:00	18985	69	-60.5	-86.5	272	1
2023-09-05T00:00	19011	69	-60.4	-86.7	319	1
2023-09-05T00:00	19033	69	-60.1	-86.5	351	1
2023-09-05T00:00	19058	68	-59.9	-86.7	360	1
2023-09-05T00:00	19079	68	-59.7	-86.5	0	2
2023-09-05T00:00	19101	68	-59.6	-86.5	358	3
2023-09-05T00:00	19124	68	-59.4	-86.3	358	3
2023-09-05T00:00	19148	67	-59.6	-86.5	0	3
2023-09-05T00:00	19175	67	-59.4	-86.3	5	3
2023-09-05T00:00	19195	67	-59.1		12	3
2023-09-05T00:00	19219	67	-59.1		19	3
2023-09-05T00:00	19243	66	-59.2	-86.2	25	3
2023-09-05T00:00	19263	66	-59.3	-86.2	27	3
2023-09-05T00:00	19286	66	-59.3	-86.2	25	3
2023-09-05T00:00	19311	66	-59.2	-86.2	19	3
2023-09-05T00:00	19333	65	-59.3	-86.2	7	3
2023-09-05T00:00	19356	65	-59.4	-86.3	353	3
2023-09-05T00:00	19377	65	-59.3	-86.2	341	3
2023-09-05T00:00	19407	65	-59.2	-86.2	335	4
2023-09-05T00:00	19432	64	-59.2	-86.2	332	4
2023-09-05T00:00	19453	64	-59.3	-86.2	331	4
2023-09-05T00:00	19475	64	-59.3	-86.2	332	5
2023-09-05T00:00	19494	64	-59.3	-86.2	333	5
2023-09-05T00:00	19518	63	-59.3	-86.2	334	5
2023-09-05T00:00	19542	63	-59.3	-86.2	337	6
2023-09-05T00:00	19560	63	-59.1		341	6
2023-09-05T00:00	19584	63	-59.0	-86.0	345	6
2023-09-05T00:00	19607	63	-59.0	-86.0	350	6
2023-09-05T00:00	19627	62	-59.2	-86.2	355	6
2023-09-05T00:00	19653	62	-59.3	-86.2	358	6
2023-09-05T00:00	19674	62	-59.4	-86.3	0	5
2023-09-05T00:00	19694	62	-59.3	-86.2	3	5
2023-09-05T00:00	19718	61	-59.2	-86.2	7	5
2023-09-05T00:00	19741	61	-59.1	-86.5	13	5
2023-09-05T00:00	19764	61	-59.1	-86.5	20	4
2023-09-05T00:00	19787	61	-59.2	-86.5	26	4
2023-09-05T00:00	19807	61	-59.1	-86.5	30	4
2023-09-05T00:00	19832	60	-59.2	-86.5	32	4
2023-09-05T00:00	19853	60	-59.3	-86.6	32	4
2023-09-05T00:00	19877	60	-59.1	-86.5	30	4
2023-09-05T00:00	19898	60	-59.1	-86.5	27	4
2023-09-05T00:00	19925	59	-59.1	-86.5	23	4
2023-09-05T00:00	19946	59	-58.9	-86.3	20	4
2023-09-05T00:00	19969	59	-58.9	-86.3	18	4
2023-09-05T00:00	19993	59	-58.9	-86.3	17	4
2023-09-05T00:00	20014	59	-58.8	-86.2	17	4
2023-09-05T00:00	20038	58	-58.7	-86.1	17	4
2023-09-05T00:00	20058	58	-58.8	-86.2	17	4
2023-09-05T00:00	20082	58	-58.7	-86.1	17	4
2023-09-05T00:00	20108	58	-58.7	-86.1	16	4
2023-09-05T00:00	20131	58	-58.5	-86.0	17	5
2023-09-05T00:00	20153	57	-58.6	-86.1	17	5
2023-09-05T00:00	20174	57	-58.8	-86.2	19	5
2023-09-05T00:00	20199	57	-58.8	-85.9	21	5
2023-09-05T00:00	20220	57	-59.0	-86.0	24	6
2023-09-05T00:00	20245	57	-59.1		27	6
2023-09-05T00:00	20272	56	-59.2	-86.2	30	6
2023-09-05T00:00	20295	56	-59.2	-86.2	32	6
2023-09-05T00:00	20315	56	-59.2	-86.2	32	5
2023-09-05T00:00	20343	56	-59.2	-86.5	29	5
2023-09-05T00:00	20361	55	-59.2	-86.5	25	5
2023-09-05T00:00	20383	55	-59.0	-86.4	19	5
2023-09-05T00:00	20408	55	-58.9	-86.3	14	5
2023-09-05T00:00	20427	55	-58.8	-86.6	12	5
2023-09-05T00:00	20451	55	-58.7	-86.5	13	5
2023-09-05T00:00	20476	54	-58.6	-86.5	15	5
2023-09-05T00:00	20499	54	-58.2	-86.2	18	5
2023-09-05T00:00	20521	54	-58.1	-86.5	20	6
2023-09-05T00:00	20544	54	-58.1	-86.5	21	6
2023-09-05T00:00	20566	54	-57.6	-86.1	21	6
2023-09-05T00:00	20587	54	-57.5	-86.1	20	6
2023-09-05T00:00	20611	53	-57.4	-86.0	20	6
2023-09-05T00:00	20632	53	-57.3	-85.9	20	6
2023-09-05T00:00	20656	53	-57.4	-86.0	20	6
2023-09-05T00:00	20682	53	-57.5	-85.6	21	6
2023-09-05T00:00	20706	53	-57.5	-85.6	23	6
2023-09-05T00:00	20730	52	-57.4	-85.6	24	5
2023-09-05T00:00	20754	52	-57.5	-85.6	25	5
2023-09-05T00:00	20776	52	-57.5	-85.6	27	5
2023-09-05T00:00	20802	52	-57.5	-85.6	29	4
2023-09-05T00:00	20825	52	-57.5	-85.6	32	4
2023-09-05T00:00	20847	51	-57.4	-85.6	36	4
2023-09-05T00:00	20872	51	-57.4	-86.0	40	4
2023-09-05T00:00	20895	51	-57.3	-85.9	43	3
2023-09-05T00:00	20917	51	-57.2	-85.8	44	3
2023-09-05T00:00	20943	51	-57.2	-85.8	44	3
2023-09-05T00:00	20965	50	-57.3	-85.9	43	3
2023-09-05T00:00	20989	50	-57.2	-85.4	42	2
2023-09-05T00:00	21013	50	-57.3	-85.5	39	2
2023-09-05T00:00	21039	50	-57.2	-85.4	34	2
2023-09-05T00:00	21062	50	-57.3	-85.5	26	2
2023-09-05T00:00	21085	49	-57.2	-85.4	20	2
2023-09-05T00:00	21113	49	-57.3	-85.5	18	3
2023-09-05T00:00	21137	49	-57.3	-85.5	19	3
2023-09-05T00:00	21159	49	-57.3	-85.5	23	3
2023-09-05T00:00	21182	49	-57.3	-85.5	28	4
2023-09-05T00:00	21208	49	-57.4	-85.6	32	4
2023-09-05T00:00	21235	48	-57.6	-85.7	34	4
2023-09-05T00:00	21253	48	-57.7	-85.8	33	4
2023-09-05T00:00	21281	48	-57.7	-85.8	30	4
2023-09-05T00:00	21306	48	-57.5	-85.6	25	4
2023-09-05T00:00	21333	48	-57.5	-85.6	19	5
2023-09-05T00:00	21353	47	-57.5	-85.6	14	5
2023-09-05T00:00	21379	47	-57.5	-85.6	10	5
2023-09-05T00:00	21405	47	-57.5	-85.6	8	6
2023-09-05T00:00	21424	47	-57.3	-85.5	8	6
2023-09-05T00:00	21454	47	-57.4	-85.6	9	5
2023-09-05T00:00	21475	47	-57.2	-85.4	11	5
2023-09-05T00:00	21497	46	-57.3	-85.5	14	5
2023-09-05T00:00	21530	46	-57.3	-85.5	17	5
2023-09-05T00:00	21549	46	-57.5	-85.6	19	5
2023-09-05T00:00	21572	46	-57.7	-85.8	20	5
2023-09-05T00:00	21599	46	-57.8	-85.9	19	4
2023-09-05T00:00	21623	45	-58.0	-86.0	18	4
2023-09-05T00:00	21648	45	-57.9	-85.5	16	4
2023-09-05T00:00	21670	45	-58.0	-85.6	14	3
2023-09-05T00:00	21695	45	-58.2	-85.8	13	3
2023-09-05T00:00	21720	45	-58.4	-85.9	13	3
2023-09-05T00:00	21743	45	-58.4	-85.9	13	3
2023-09-05T00:00	21768	44	-58.5	-86.0	10	2
2023-09-05T00:00	21791	44	-58.5	-86.0	5	2
2023-09-05T00:00	21817	44	-58.3	-86.2	0	2
2023-09-05T00:00	21841	44	-58.3	-86.2	358	2
2023-09-05T00:00	21867	44	-58.3	-86.2	360	3
2023-09-05T00:00	21888	44	-58.4	-86.3	4	3
2023-09-05T00:00	21911	43	-58.5	-86.0	7	4
2023-09-05T00:00	21936	43	-58.6	-86.1	10	4
2023-09-05T00:00	21958	43	-58.6	-86.1	12	5
2023-09-05T00:00	21985	43	-58.8	-86.2	13	5
2023-09-05T00:00	22011	43	-58.9	-86.3	13	5
2023-09-05T00:00	22034	43	-58.9	-86.3	13	6
2023-09-05T00:00	22058	42	-58.8	-86.2	13	6
2023-09-05T00:00	22082	42	-59.0	-86.4	13	7
2023-09-05T00:00	22108	42	-59.1	-86.5	15	8
2023-09-05T00:00	22132	42	-59.2	-86.5	16	8
2023-09-05T00:00	22156	42	-59.3	-86.6	17	9
2023-09-05T00:00	22184	42	-59.4	-86.3	16	9
2023-09-05T00:00	22203	41	-59.5	-86.4	16	9
2023-09-05T00:00	22230	41	-59.5	-86.4	14	9
2023-09-05T00:00	22253	41	-59.6	-86.5	13	9
2023-09-05T00:00	22275	41	-59.7	-86.5	11	8
2023-09-05T00:00	22306	41	-59.8	-86.6	11	8
2023-09-05T00:00	22325	41	-59.8	-87.0	11	8
2023-09-05T00:00	22350	40	-59.8	-87.0	11	8
2023-09-05T00:00	22378	40	-59.7	-86.9	10	8
2023-09-05T00:00	22402	40	-59.6	-86.8	8	8
2023-09-05T00:00	22428	40	-59.6	-86.8	6	8
2023-09-05T00:00	22453	40	-59.7	-86.9	5	8
2023-09-05T00:00	22480	40	-59.7	-86.9	4	8
2023-09-05T00:00	22504	39	-59.7	-86.9	3	8
2023-09-05T00:00	22529	39	-59.8	-87.0	3	8
2023-09-05T00:00	22557	39	-59.9	-87.1	4	8
2023-09-05T00:00	22578	39	-60.0	-87.1	5	8
2023-09-05T00:00	22603	39	-60.0	-87.1	6	7
2023-09-05T00:00	22634	39	-59.8	-87.0	8	7
2023-09-05T00:00	22658	39	-59.7	-86.9	11	6
2023-09-05T00:00	22683	38	-59.7	-86.9	15	6
2023-09-05T00:00	22706	38	-59.6	-87.2	20	6
2023-09-05T00:00	22737	38	-59.4	-87.1	24	6
2023-09-05T00:00	22764	38	-59.2	-86.9	28	6
2023-09-05T00:00	22784	38	-59.1	-86.8	32	6
2023-09-05T00:00	22809	38	-59.1	-86.8	34	5
2023-09-05T00:00	22838	37	-59.1	-86.8	35	5
2023-09-05T00:00	22856	37	-59.1	-86.8	34	5
2023-09-05T00:00	22885	37	-59.2	-86.9	32	5
2023-09-05T00:00	22910	37	-59.3	-86.6	30	5
2023-09-05T00:00	22932	37	-59.4	-86.7	29	6
2023-09-05T00:00	22959	37	-59.4	-86.7	29	6
2023-09-05T00:00	22986	37	-59.4	-86.7	29	7
2023-09-05T00:00	23007	36	-59.4	-86.7	32	7
2023-09-05T00:00	23032	36	-59.4	-87.1	34	8
2023-09-05T00:00	23054	36	-59.3	-87.0	38	8
2023-09-05T00:00	23079	36	-59.0	-86.8	42	9
2023-09-05T00:00	23107	36	-58.8	-86.6	47	9
2023-09-05T00:00	23128	36	-58.9	-86.7	51	9
2023-09-05T00:00	23151	36	-59.0	-86.8	55	9
2023-09-05T00:00	23175	35	-59.0	-86.8	59	9
2023-09-05T00:00	23205	35	-59.1	-86.8	61	9
2023-09-05T00:00	23224	35	-59.2	-86.9	62	9
2023-09-05T00:00	23247	35	-59.2	-86.9	62	8
2023-09-05T00:00	23270	35	-59.0	-86.8	63	8
2023-09-05T00:00	23295	35	-58.8	-86.6	63	7
2023-09-05T00:00	23317	35	-58.7	-86.5	63	7
2023-09-05T00:00	23345	35	-58.7	-86.5	64	6
2023-09-05T00:00	23365	34	-58.7	-86.5	66	6
2023-09-05T00:00	23392	34	-58.7	-86.5	68	6
2023-09-05T00:00	23416	34	-58.7	-86.5	71	6
2023-09-05T00:00	23441	34	-58.7	-86.5	73	6
2023-09-05T00:00	23461	34	-58.7	-87.0	75	6
2023-09-05T00:00	23483	34	-58.6	-86.9	76	6
2023-09-05T00:00	23510	34	-58.5	-86.8	75	6
2023-09-05T00:00	23531	34	-57.7	-86.7	74	6
2023-09-05T00:00	23556	33	-57.6	-86.6	73	5
2023-09-05T00:00	23583	33	-57.6	-86.6	73	5
2023-09-05T00:00	23609	33	-57.8	-86.7	76	5
2023-09-05T00:00	23632	33	-57.8	-86.3	81	5
2023-09-05T00:00	23661	33	-57.8	-86.3	86	5
2023-09-05T00:00	23679	33	-57.8	-86.3	91	5
2023-09-05T00:00	23702	33	-57.8	-86.3	94	5
2023-09-05T00:00	23728	32	-57.8	-86.3	95	5
2023-09-05T00:00	23757	32	-57.6	-86.1	94	5
2023-09-05T00:00	23778	32	-57.3	-86.4	92	5
2023-09-05T00:00	23808	32	-57.2	-86.3	89	5
2023-09-05T00:00	23833	32	-57.2	-86.3	87	5
2023-09-05T00:00	23853	32	-57.3	-86.4	85	5
2023-09-05T00:00	23885	32	-57.3	-86.4	85	5
2023-09-05T00:00	23902	32	-57.4	-86.4	87	5
2023-09-05T00:00	23930	31	-57.1	-86.2	89	5
2023-09-05T00:00	23960	31	-57.0	-86.1	91	5
2023-09-05T00:00	23985	31	-56.9	-86.1	94	5
2023-09-05T00:00	24007	31	-56.7	-85.9	98	5
2023-09-05T00:00	24032	31	-56.4	-86.2	102	5
2023-09-05T00:00	24061	31	-56.3	-86.1	105	5
2023-09-05T00:00	24089	31	-56.4	-86.2	108	5
2023-09-05T00:00	24108	31	-56.5	-86.3	109	5
2023-09-05T00:00	24135	30	-56.3	-85.6	109	5
2023-09-05T00:00	24164	30	-56.3	-85.6	109	4
2023-09-05T00:00	24189	30	-56.4	-85.7	109	4
2023-09-05T00:00	24212	30	-56.4	-85.7	107	4
2023-09-05T00:00	24239	30	-56.6	-85.8	102	4
2023-09-05T00:00	24265	30	-56.6	-85.8	96	4
2023-09-05T00:00	24291	30	-56.5	-86.3	90	5
2023-09-05T00:00	24314	30	-55.7	-85.7	85	6
2023-09-05T00:00	24345	29	-55.6	-85.6	82	6
2023-09-05T00:00	24368	29	-55.6	-85.6	81	7
2023-09-05T00:00	24391	29	-55.3	-85.4	82	8
2023-09-05T00:00	24418	29	-55.4	-85.4	84	9
2023-09-05T00:00	24439	29	-55.4	-86.0	88	10
2023-09-05T00:00	24462	29	-55.3	-85.9	92	10
2023-09-05T00:00	24484	29	-54.9	-85.6	96	10
2023-09-05T00:00	24510	29	-54.2	-85.1	98	10
2023-09-05T00:00	24533	29	-54.1	-85.0	100	10
2023-09-05T00:00	24560	29	-54.1	-85.0	101	10
2023-09-05T00:00	24584	28	-53.9	-84.9	102	10
2023-09-05T00:00	24604	28	-53.9	-85.5	103	9
2023-09-05T00:00	24629	28	-53.3	-85.0	106	9
2023-09-05T00:00	24655	28	-53.0	-84.8	110	8
2023-09-05T00:00	24678	28	-53.0	-84.8	114	8
2023-09-05T00:00	24703	28	-53.0	-84.8	117	7
2023-09-05T00:00	24729	28	-53.0	-84.8	120	6
2023-09-05T00:00	24757	28	-52.9	-84.7	122	5
2023-09-05T00:00	24776	28	-52.4	-84.4	122	4
2023-09-05T00:00	24802	27	-52.0	-84.1	120	3
2023-09-05T00:00	24827	27	-51.9	-84.0	115	2
2023-09-05T00:00	24851	27	-51.8	-83.9	94	1
2023-09-05T00:00	24877	27	-51.7	-83.9	25	1
2023-09-05T00:00	24900	27	-51.7	-83.9	352	1
2023-09-05T00:00	24926	27	-51.6	-83.8	349	1
2023-09-05T00:00	24952	27	-51.3	-83.6	4	1
2023-09-05T00:00	24980	27	-50.8	-83.2	56	1
2023-09-05T00:00	25002	27	-50.7	-83.1	97	1
2023-09-05T00:00	25034	27	-50.8	-83.2	109	2
2023-09-05T00:00	25053	26	-50.9	-83.3	113	3
2023-09-05T00:00	25076	26	-50.9	-83.3	114	4
2023-09-05T00:00	25101	26	-50.9	-83.3	115	5
2023-09-05T00:00	25134	26	-51.1	-83.4	116	5
2023-09-05T00:00	25154	26	-51.2	-83.5	117	6
2023-09-05T00:00	25186	26	-51.4	-83.0	118	6
2023-09-05T00:00	25206	26	-51.6	-83.2	119	7
2023-09-05T00:00	25235	26	-51.8	-83.3	120	7
2023-09-05T00:00	25257	26	-51.9	-83.4	121	8
2023-09-05T00:00	25283	26	-52.1	-83.5	122	9
2023-09-05T00:00	25315	25	-52.2	-83.6	123	9
2023-09-05T00:00	25333	25	-52.4	-83.8	124	10
2023-09-05T00:00	25356	25	-52.6	-83.9	125	10
2023-09-05T00:00	25390	25	-52.6	-83.9	127	10
2023-09-05T00:00	25404	25	-52.5	-84.4	130	10
2023-09-05T00:00	25437	25	-52.3	-84.3	133	10
2023-09-05T00:00	25461	25	-52.1	-84.2	137	9
2023-09-05T00:00	25488	25	-51.7	-83.9	142	8
2023-09-05T00:00	25517	25	-51.6	-83.8	146	8
2023-09-05T00:00	25539	25	-51.5	-83.7	151	7
2023-09-05T00:00	25562	24	-51.5	-83.7	156	6
2023-09-05T00:00	25584	24	-51.5	-83.7	160	5
2023-09-05T00:00	25612	24	-51.3	-83.6	166	4
2023-09-05T00:00	25631	24	-51.3	-83.6	171	4
2023-09-05T00:00	25669	24	-51.5	-83.7	176	3
2023-09-05T00:00	25686	24	-51.6	-83.8	182	3
2023-09-05T00:00	25716	24	-51.7	-83.9	188	2
2023-09-05T00:00	25741	24	-51.8	-83.9	196	2
2023-09-05T00:00	25765	24	-51.8	-83.9	210	1
2023-09-05T00:00	25792	24	-51.8	-83.9	233	1
2023-09-05T00:00	25816	23	-51.8	-83.9	256	1
2023-09-05T00:00	25844	23	-51.7	-83.9	268	1
2023-09-05T00:00	25868	23	-51.8	-83.9	275	2
2023-09-05T00:00	25901	23	-52.0	-83.5	281	2
2023-09-05T00:00	25923	23	-52.2	-83.6	289	2
2023-09-05T00:00	25950	23	-52.5	-83.8	299	2
2023-09-05T00:00	25975	23	-52.7	-84.0	312	2
2023-09-05T00:00	26004	23	-52.8	-84.1	327	2
2023-09-05T00:00	26025	23	-52.9	-84.1	343	2
2023-09-05T00:00	26054	23	-52.9	-84.1	360	2
2023-09-05T00:00	26078	23	-53.0	-84.2	15	2
2023-09-05T00:00	26109	22	-53.2	-84.4	28	3
2023-09-05T00:00	26128	22	-53.3	-84.4	39	3
2023-09-05T00:00	26166	22	-53.3	-84.4	47	3
2023-09-05T00:00	26188	22	-53.0	-84.8	55	3
2023-09-05T00:00	26211	22	-53.0	-84.8	62	3
2023-09-05T00:00	26238	22	-52.8	-84.7	68	3
2023-09-05T00:00	26267	22	-52.8	-84.7	75	3
2023-09-05T00:00	26291	22	-52.9	-84.7	82	3
2023-09-05T00:00	26320	22	-53.0	-84.8	91	3
2023-09-05T00:00	26347	22	-53.1	-84.9	101	3
2023-09-05T00:00	26379	22	-53.1	-84.3	111	3
2023-09-05T00:00	26399	21	-53.2	-84.4	120	3
2023-09-05T00:00	26435	21	-53.2	-84.4	127	4
2023-09-05T00:00	26459	21	-53.1	-84.3	133	4
2023-09-05T00:00	26488	21	-53.0	-84.2	139	5
2023-09-05T00:00	26516	21	-52.9	-84.1	146	5
2023-09-05T00:00	26539	21	-52.9	-84.7	152	5
2023-09-05T00:00	26563	21	-53.0	-84.8	159	5
2023-09-05T00:00	26599	21	-53.1	-84.9	166	5
2023-09-05T00:00	26629	21	-53.2	-85.0	174	5
2023-09-05T00:00	26652	21	-53.3	-85.0	181	6
2023-09-05T00:00	26681	21	-53.1	-84.9	186	6
2023-09-05T00:00	26710	20	-53.2	-85.0	191	7
2023-09-05T00:00	26746	20	-53.2	-85.0	194	7
2023-09-05T00:00	26762	20	-53.1	-84.9	196	8
2023-09-05T00:00	26792	20	-52.9	-84.7	199	8
2023-09-05T00:00	26831	20	-52.8	-84.7	202	8
2023-09-05T00:00	26854	20	-52.9	-84.7	207	8
2023-09-05T00:00	26883	20	-52.7	-84.6	212	8
2023-09-05T00:00	26906	20	-52.6	-84.5	219	8
2023-09-05T00:00	26930	20	-52.6	-84.5	225	8
2023-09-05T00:00	26961	20	-52.6	-84.5	232	8
2023-09-05T00:00	26988	20	-52.5	-84.4	238	8
2023-09-05T00:00	27016	20	-52.6	-84.5	245	8
2023-09-05T00:00	27045	19	-52.6	-84.5	252	8
2023-09-05T00:00	27070	19	-52.6	-84.5	259	8
2023-09-05T00:00	27094	19	-52.6	-84.5	265	8
2023-09-05T00:00	27118	19	-52.4	-84.4	272	8
2023-09-05T00:00	27146	19	-52.2	-84.2	277	7
2023-09-05T00:00	27171	19	-52.1	-84.2	283	7
2023-09-05T00:00	27196	19	-52.0	-84.8	288	6
2023-09-05T00:00	27228	19	-52.1	-84.2	292	5
2023-09-05T00:00	27254	19	-52.0	-84.1	297	5
2023-09-05T00:00	27279	19	-52.0	-84.1	301	4
2023-09-05T00:00	27306	19	-52.0	-84.1	304	4
2023-09-05T00:00	27333	19	-52.1	-84.2	305	3
2023-09-05T00:00	27356	19	-52.1	-84.2	301	3
2023-09-05T00:00	27379	18	-51.8	-84.6	292	3
2023-09-05T00:00	27412	18	-51.6	-84.5	278	2
2023-09-05T00:00	27434	18	-51.6	-84.5	264	2
2023-09-05T00:00	27475	18	-51.5	-84.4	252	2
2023-09-05T00:00	27492	18	-51.1	-84.1	249	3
2023-09-05T00:00	27512	18	-51.0	-84.0	253	3
2023-09-05T00:00	27535	18	-51.0	-84.0	263	3
2023-09-05T00:00	27559	18	-50.7	-83.8	277	3
2023-09-05T00:00	27589	18	-50.5	-83.7	288	3
2023-09-05T00:00	27612	18	-50.6	-83.7	296	4
2023-09-05T00:00	27645	18	-50.6	-83.7	302	4
2023-09-05T00:00	27665	18	-50.5	-83.7	306	3
2023-09-05T00:00	27705	18	-50.1	-83.4	311	3
2023-09-05T00:00	27729	17	-49.9	-84.0	315	3
2023-09-05T00:00	27751	17	-49.6	-83.8	320	2
2023-09-05T00:00	27775	17	-49.3	-83.6	325	2
2023-09-05T00:00	27807	17	-49.4	-83.7	328	2
2023-09-05T00:00	27827	17	-49.4	-83.7	331	2
2023-09-05T00:00	27857	17	-49.4	-83.7	335	2
2023-09-05T00:00	27884	17	-49.5	-83.7	340	2
2023-09-05T00:00	27909	17	-49.3	-83.6	346	3
2023-09-05T00:00	27942	17	-49.1	-83.4	350	3
2023-09-05T00:00	27972	17	-49.0	-83.4	354	4
2023-09-05T00:00	28004	17	-49.1	-83.4	359	4
2023-09-05T00:00	28034	17	-49.3	-83.6	3	4
2023-09-05T00:00	28060	17	-49.5	-82.9	10	4
2023-09-05T00:00	28094	17	-49.4	-83.7	19	4
2023-09-05T00:00	28117	16	-49.0	-83.4	30	4
2023-09-05T00:00	28144	16	-49.2	-83.5	43	3
2023-09-05T00:00	28169	16	-49.3	-83.6	54	3
2023-09-05T00:00	28206	16	-49.1	-83.4	62	3
2023-09-05T00:00	28238	16	-48.8	-83.2	68	3
2023-09-05T00:00	28252	16	-48.7	-83.2	74	2
2023-09-05T00:00	28285	16	-48.6	-83.1	82	2
2023-09-05T00:00	28314	16	-48.7	-83.2	100	1
2023-09-05T00:00	28352	16	-48.7	-83.2	130	1
2023-09-05T00:00	28377	16	-48.7	-83.2	159	1
2023-09-05T00:00	28415	16	-48.4	-82.9	174	2
2023-09-05T00:00	28429	16	-48.3	-82.9	180	2
2023-09-05T00:00	28469	16	-48.5	-83.0	182	2
2023-09-05T00:00	28496	16	-48.4	-82.9	181	2
2023-09-05T00:00	28516	15	-48.5	-83.0	180	2
2023-09-05T00:00	28560	15	-48.5	-83.0	181	1
2023-09-05T00:00	28581	15	-48.6	-83.1	188	1
2023-09-05T00:00	28605	15	-48.7	-83.2	198	1
2023-09-05T00:00	28642	15	-48.6	-83.1	203	0
2023-09-05T00:00	28666	15	-48.7	-83.2	164	0
2023-09-05T00:00	28704	15	-48.5	-83.0	87	0
2023-09-05T00:00	28731	15	-48.7	-83.2	70	1
2023-09-05T00:00	28772	15	-48.8	-83.2	63	2
2023-09-05T00:00	28794	15	-48.7	-83.2	59	2
2023-09-05T00:00	28815	15	-48.9	-83.3	57	3
2023-09-05T00:00	28853	15	-49.0	-82.6	57	3
2023-09-05T00:00	28877	15	-49.2	-82.7	59	4
2023-09-05T00:00	28907	15	-49.3	-82.8	62	4
2023-09-05T00:00	28942	15	-49.4	-82.9	67	5
2023-09-05T00:00	28963	14	-49.5	-82.9	72	5
2023-09-05T00:00	29001	14	-49.5	-83.7	77	5
2023-09-05T00:00	29025	14	-49.2	-83.5	81	4
2023-09-05T00:00	29066	14	-48.9	-83.3	86	4
2023-09-05T00:00	29081	14	-49.0	-83.4	91	4
2023-09-05T00:00	29107	14	-49.0	-83.4	97	4
2023-09-05T00:00	29133	14	-48.9	-83.3	104	3
2023-09-05T00:00	29173	14	-49.0	-83.4	114	3
2023-09-05T00:00	29200	14	-48.7	-83.2	127	2
2023-09-05T00:00	29229	14	-48.7	-83.2	146	2
2023-09-05T00:00	29256	14	-48.9	-83.3	172	2
2023-09-05T00:00	29279	14	-49.0	-83.4	200	2
2023-09-05T00:00	29303	14	-49.2	-83.5	221	2
2023-09-05T00:00	29326	14	-49.4	-82.9	236	3
2023-09-05T00:00	29365	14	-49.5	-82.9	247	3
2023-09-05T00:00	29387	14	-49.7	-83.1	255	3
2023-09-05T00:00	29427	14	-49.6	-83.8	262	3
2023-09-05T00:00	29450	13	-49.6	-83.8	271	2
2023-09-05T00:00	29481	13	-49.6	-83.8	282	2
2023-09-05T00:00	29508	13	-49.4	-83.7	300	1
2023-09-05T00:00	29527	13	-49.4	-83.7	323	1
2023-09-05T00:00	29562	13	-49.5	-83.7	338	1
2023-09-05T00:00	29590	13	-49.7	-83.9	344	1
2023-09-05T00:00	29614	13	-49.7	-83.9	346	1
2023-09-05T00:00	29646	13	-49.6	-83.8	346	1
2023-09-05T00:00	29666	13	-49.6	-83.8	345	1
2023-09-05T00:00	29694	13	-49.6	-83.8	341	1
2023-09-05T00:00	29723	13	-49.8	-84.0	331	1
2023-09-05T00:00	29755	13	-49.9	-84.0	314	1
2023-09-05T00:00	29783	13	-50.0	-83.3	298	1
2023-09-05T00:00	29813	13	-50.1	-83.4	289	1
2023-09-05T00:00	29844	13	-50.2	-83.5	287	2
2023-09-05T00:00	29857	13	-50.2	-83.5	289	2
2023-09-05T00:00	29900	13	-50.2	-83.5	292	2
2023-09-05T00:00	29924	13	-50.2	-84.2	294	2
2023-09-05T00:00	29950	12	-50.3	-84.3	292	2
2023-09-05T00:00	29982	12	-50.0	-84.1	286	2
2023-09-05T00:00	30019	12	-49.7	-83.9	272	2
2023-09-05T00:00	30035	12	-49.6	-83.8	251	1
2023-09-05T00:00	30066	12	-49.5	-83.7	234	2
2023-09-05T00:00	30096	12	-49.6	-83.8	230	2
2023-09-05T00:00	30129	12	-49.6	-83.8	235	2
2023-09-05T00:00	30150	12	-49.5	-83.7	248	2
2023-09-05T00:00	30187	12	-49.4	-83.7	267	2
2023-09-05T00:00	30205	12	-49.5	-83.7	285	3
2023-09-05T00:00	30233	12	-49.6	-83.8	297	4
2023-09-05T00:00	30269	12	-49.8	-84.0	306	4
2023-09-05T00:00	30301	12	-49.6	-83.8	312	5
2023-09-05T00:00	30332	12	-49.7	-83.9	316	6
2023-09-05T00:00	30350	12	-49.7	-83.9	319	6
2023-09-05T00:00	30388	12	-49.9	-84.0	322	6
2023-09-05T00:00	30409	12	-50.1	-84.2	325	5
2023-09-05T00:00	30441	12	-50.1	-84.2	328	5
2023-09-05T00:00	30471	12	-49.8	-84.0	334	4
2023-09-05T00:00	30504	11	-49.3	-83.6	345	3
2023-09-05T00:00	30524	11	-48.9	-84.2	3	2
2023-09-05T00:00	30545	11	-48.4	-83.8	24	3
2023-09-05T00:00	30576	11	-48.3	-83.8	39	3
2023-09-05T00:00	30612	11	-48.3	-83.8	48	3
2023-09-05T00:00	30629	11	-47.9	-83.5	56	4
2023-09-05T00:00	30658	11	-48.1	-83.6	64	4
2023-09-05T00:00	30687	11	-48.3	-83.8	72	5
2023-09-05T00:00	30715	11	-48.4	-83.8	80	5
2023-09-05T00:00	30745	11	-48.4	-83.8	87	6
2023-09-05T00:00	30768	11	-48.4	-82.9	93	6
2023-09-05T00:00	30801	11	-48.3	-82.9	98	7
2023-09-05T00:00	30834	11	-48.4	-82.9	103	7
2023-09-05T00:00	30861	11	-48.4	-82.9	108	8
2023-09-05T00:00	30897	11	-48.4	-82.9	112	9
2023-09-05T00:00	30915	11	-48.3	-82.9	115	9
2023-09-05T00:00	30949	11	-48.2	-82.8	118	10
2023-09-05T00:00	30975	11	-48.2	-82.8	122	10
2023-09-05T00:00	31008	11	-48.4	-82.9	125	10
2023-09-05T00:00	31024	11	-48.5	-83.0	130	10
2023-09-05T00:00	31064	11	-48.3	-82.9	134	9
2023-09-05T00:00	31101	10	-48.3	-82.9	139	9
2023-09-05T00:00	31113	10	-48.4	-82.9	143	9
2023-09-05T00:00	31145	10	-48.5	-83.0	148	8
2023-09-05T00:00	31177	10	-48.6	-83.1	152	8
2023-09-05T00:00	31189	10	-48.6	-83.1	157	7
2023-09-05T00:00	31243	10	-48.7	-83.2	164	7
2023-09-05T00:00	31268	10	-48.7	-83.2	172	6
2023-09-05T00:00	31291	10	-48.3	-83.8	184	5
2023-09-05T00:00	31306	10	-48.2	-83.7	197	5
2023-09-05T00:00	31348	10	-48.1	-83.6	211	5
2023-09-05T00:00	31366	10	-47.7	-83.4	225	5
2023-09-05T00:00	31394	10	-47.2	-84.1	237	4
2023-09-05T00:00	31412	10	-46.9	-83.9	248	4
2023-09-05T00:00	31445	10	-46.0	-83.2	259	4
2023-09-05T00:00	31471	10	-46.0	-83.2	267	4
2023-09-05T00:00	31492	10	-45.9	-83.2	274	3
2023-09-05T00:00	31538	10	-45.8	-83.1	277	3
2023-09-05T00:00	31549	10	-45.7	-83.0	276	3
2023-09-05T00:00	31592	10	-45.7	-83.0	272	2
2023-09-05T00:00	31629	10	-45.6	-82.9	262	2
2023-09-05T00:00	31645	10	-45.4	-82.8	248	1
2023-09-05T00:00	31696	10	-45.1	-82.6	222	1
2023-09-05T00:00	31710	10	-45.0	-82.5	163	0
2023-09-05T00:00	31737	10	-45.0	-82.5	119	1
2023-09-05T00:00	31765	9	-45.0	-82.5	113	1
2023-09-05T00:00	31772	9	-45.1	-82.6	119	2
2023-09-05T00:00	31817	9	-45.0	-82.5	129	2
2023-09-05T00:00	31847	9	-44.8	-82.4	138	3
2023-09-05T00:00	31873	9	-44.9	-82.5	145	4
2023-09-05T00:00	31905	9	-45.0	-82.5	150	5
2023-09-05T00:00	31937	9	-45.0	-82.5	155	5
2023-09-05T00:00	31964	9	-45.0	-82.5	159	6
2023-09-05T00:00	31969	9	-45.1	-82.6	165	6
2023-09-05T00:00	32022	9	-45.1	-82.6	171	6
2023-09-05T00:00	32047	9	-45.2	-82.7	178	6
2023-09-05T00:00	32064	9	-45.2	-82.7	187	6
2023-09-05T00:00	32107	9	-45.0	-82.5	196	5
2023-09-05T00:00	32134	9	-44.9	-82.5	207	5
2023-09-05T00:00	32166	9	-44.9	-82.5	218	4
2023-09-05T00:00	32190	9	-44.8	-82.4	229	4
2023-09-05T00:00	32212	9	-44.8	-82.4	238	4
2023-09-05T00:00	32234	9	-44.9	-82.5	244	4
2023-09-05T00:00	32284	9	-44.9	-82.5	247	4
2023-09-05T00:00	32298	9	-44.7	-82.3	248	4
2023-09-05T00:00	32307	9	-44.4	-82.1	247	4
2023-09-05T00:00	32351	9	-44.2	-82.0	247	4
2023-09-05T00:00	32368	9	-44.1	-81.9	249	4
2023-09-05T00:00	32420	9	-43.6	-81.5	256	4
2023-09-05T00:00	32427	9	-43.2	-81.3	267	4
2023-09-05T00:00	32461	9	-43.0	-81.1	281	4
2023-09-05T00:00	32487	9	-43.0	-81.1	294	4
2023-09-05T00:00	32506	8	-42.7	-80.9	305	4
2023-09-05T00:00	32547	8	-42.4	-80.7	315	4
2023-09-05T00:00	32561	8	-42.4	-80.7	324	4
2023-09-05T00:00	32587	8	-42.2	-80.6	333	3
2023-09-05T00:00	32628	8	-41.9	-80.4	341	3
2023-09-05T00:00	32645	8	-41.8	-80.3	348	3
2023-09-05T00:00	32679	8	-41.7	-80.2	356	3
2023-09-05T00:00	32700	8	-41.9	-80.4	4	3
2023-09-05T00:00	32726	8	-42.0	-80.4	13	3
2023-09-05T00:00	32752	8	-42.1	-80.5	20	3
2023-09-05T00:00	32788	8	-42.0	-80.4	26	2
2023-09-05T00:00	32812	8	-42.0	-80.4	29	2
2023-09-05T00:00	32833	8	-41.9	-80.4	31	1
2023-09-05T00:00	32847	8	-41.9	-80.4	32	1
2023-09-05T00:00	32893	8	-41.8	-80.3	227	0
2023-09-05T00:00	32912	8	-41.8	-80.3	224	1
2023-09-05T00:00	32925	8	-42.0	-80.4	231	2
2023-09-05T00:00	32953	8	-42.0	-80.4	241	2
2023-09-05T00:00	32996	8	-41.9	-80.4	252	3
2023-09-05T00:00	33032	8	-41.9	-80.4	264	4
2023-09-05T00:00	33042	8	-41.7	-80.2	275	4
2023-09-05T00:00	33073	8	-41.7	-80.2	286	5
2023-09-05T00:00	33118	8	-41.8	-80.3	295	6
2023-09-05T00:00	33125	8	-41.8	-80.3	303	6
2023-09-05T00:00	33155	8	-41.6	-80.1	310	7
2023-09-05T00:00	33184	8	-41.6	-80.1	316	8
2023-09-05T00:00	33238	8	-41.7	-80.2	320	9
2023-09-05T00:00	33260	8	-41.9	-80.4	324	9
2023-09-05T00:00	33291	8	-42.0	-80.4	328	10
2023-09-05T00:00	33293	8	-41.9	-80.4	330	11
2023-09-05T00:00	33329	8	-41.6	-80.1	334	12
2023-09-05T00:00	33386	7	-41.4	-80.0	337	12
2023-09-05T00:00	33405	7	-41.2	-79.9	340	13
2023-09-05T00:00	33421	7	-41.2	-79.9	344	13
2023-09-05T00:00	33456	7	-41.3	-79.9	347	13
2023-09-05T00:00	33506	7	-41.5	-80.1	349	13
2023-09-05T00:00	33539	7	-41.6	-80.1	353	11
2023-09-05T00:00	33551	7	-41.6	-80.1	355	10
2023-09-05T00:00	33591	7	-41.6	-80.1	357	9
2023-09-05T00:00	33606	7	-41.5	-80.1	358	9
2023-09-05T00:00	33643	7	-41.5	-80.1	359	8
2023-09-05T00:00	33682	7	-41.6	-80.1	360	7
2023-09-05T00:00	33693	7	-41.6	-80.1	1	6
2023-09-05T00:00	33729	7	-41.6	-80.1	3	6
2023-09-05T00:00	33752	7	-41.7	-80.2	5	5
2023-09-05T00:00	33791	7	-41.8	-80.3	7	5
2023-09-05T00:00	33811	7	-41.9	-80.4	9	4
2023-09-05T00:00	33857	7	-41.9	-80.4	9	3
2023-09-05T00:00	33860	7	-42.0	-80.4	9	3
2023-09-05T00:00	33905	7	-42.0	-80.4	5	2
2023-09-05T00:00	33942	7	-41.9	-80.4	355	1
2023-09-05T00:00	33982	7	-41.7	-80.2	273	0
2023-09-05T00:00	33983	7	-41.4	-80.0	216	1
2023-09-05T00:00	34005	7	-41.3	-79.9	209	2
2023-09-05T00:00	34028	7	-41.1	-79.8	210	2
2023-09-05T00:00	34056	7	-41.0	-79.7	213	3
2023-09-05T00:00	34067	7	-40.8	-79.6	219	3
2023-09-05T00:00	34085	7	-40.8	-79.6	227	4
2023-09-05T00:00	34124	7	-40.8	-79.6	234	4
2023-09-05T00:00	34167	7	-40.8	-79.6	240	5
2023-09-05T00:00	34175	7	-40.9	-79.7	244	6
2023-09-05T00:00	34199	7	-40.5	-79.4	246	7
2023-09-05T00:00	34222	7	-40.2	-79.2	247	7
2023-09-05T00:00	34263	7	-40.3	-79.2	248	8
2023-09-05T00:00	34269	7	-40.4	-79.3	248	8
2023-09-05T00:00	34305	7	-40.5	-79.4	248	9
2023-09-05T00:00	34320	6	-40.5	-79.4	249	9
2023-09-05T00:00	34366	6	-40.5	-79.4	249	9
2023-09-05T00:00	34406	6	-40.6	-79.5	249	10
2023-09-05T00:00	34424	6	-40.9	-79.7	248	10
2023-09-05T00:00	34450	6	-41.1	-79.8	248	10
2023-09-05T00:00	34486	6	-41.1	-79.8	249	10
2023-09-05T00:00	34507	6	-41.3	-79.9	250	10
2023-09-05T00:00	34542	6	-41.4	-80.0	252	10
2023-09-05T00:00	34584	6	-41.6	-80.1	255	10
2023-09-05T00:00	34636	6	-41.5	-80.1	262	10
2023-09-05T00:00	34657	6	-41.5	-80.1	264	10
2023-09-05T00:00	34662	6	-41.6	-80.1	266	9
2023-09-05T00:00	34683	6	-41.7	-80.2	267	9
2023-09-05T00:00	34720	6	-41.8	-80.3	270	9
2023-09-05T00:00	34755	6	-41.9	-80.4	272	9
2023-09-05T00:00	34797	6	-42.1	-80.5	277	9
2023-09-05T00:00	34818	6	-42.2	-80.6	279	9
2023-09-05T00:00	34838	6	-42.3	-80.6	281	9
2023-09-05T00:00	34852	6	-42.2	-80.6	285	10
2023-09-05T00:00	34890	6	-42.1	-80.5	288	10
2023-09-05T00:00	34923	6	-42.0	-80.4	290	10
2023-09-05T00:00	34925	6	-41.8	-80.3	293	10
2023-09-05T00:00	34948	6	-41.8	-80.3	295	10
2023-09-05T00:00	34987	6	-41.8	-80.3	299	10
2023-09-05T00:00	34995	6	-41.5	-80.1	302	10
2023-09-05T00:00	35007	6	-41.4	-80.0	306	9
2023-09-05T00:00	35034	6	-41.3	-79.9	310	9
2023-09-05T00:00	35089	6	-41.3	-79.9	313	8
2023-09-05T00:00	35092	6	-41.2	-79.9	318	8
2023-09-05T00:00	35129	6	-41.1	-79.8	320	7
2023-09-05T00:00	35141	6	-40.8	-79.6	326	6
2023-09-05T00:00	35169	6	-40.9	-79.7	332	5
2023-09-05T00:00	35204	6	-41.0	-79.7	338	5
2023-09-05T00:00	35221	6	-41.0	-79.7	344	4
2023-09-05T00:00	35229	6	-41.0	-79.7	349	3
2023-09-05T00:00	35271	6	-40.7	-79.5	350	3
2023-09-05T00:00	35291	6	-40.2	-79.2	345	3
2023-09-05T00:00	35319	6	-39.8	-78.9	335	2
2023-09-05T00:00	35341	6	-39.5	-78.7	321	2
2023-09-05T00:00	35342	6	-39.4	-78.6	307	3
2023-09-05T00:00	35360	6	-39.4	-78.6	295	3
2023-09-05T00:00	35383	6	-39.4	-78.6	287	4
2023-09-05T00:00	35410	6	-39.3	-78.5	282	4
2023-09-05T00:00	35428	6	-39.3	-78.5	279	5
2023-09-05T00:00	35445	6	-39.4	-78.6	276	6
2023-09-05T00:00	35498	5	-39.4	-78.6	275	6
2023-09-05T00:00	35506	5	-39.6	-78.8	270	7
2023-09-05T00:00	35532	5	-39.7	-78.8	267	7
2023-09-05T00:00	35554	5	-39.6	-78.8	264	7
2023-09-05T06:00	112	1013	14.8	12.8	150	2
2023-09-05T06:00	135	1010	15.5	12.7	183	3
2023-09-05T06:00	159	1007	16.7	11.7	186	5
2023-09-05T06:00	185	1004	17.7	11.3	189	6
2023-09-05T06:00	212	1001	18.6	10.9	192	8
2023-09-05T06:00	234	998	18.8	10.8	194	9
2023-09-05T06:00	258	995	18.9	10.7	195	10
2023-09-05T06:00	283	992	19.3	10.0	195	10
2023-09-05T06:00	309	990	19.4	10.3	194	10
2023-09-05T06:00	336	987	19.3	10.2	192	10
2023-09-05T06:00	359	984	19.2	10.2	189	10
2023-09-05T06:00	381	981	19.1	10.4	186	9
2023-09-05T06:00	404	979	18.9	10.3	183	9
2023-09-05T06:00	428	976	18.8	10.5	181	9
2023-09-05T06:00	447	974	18.6	10.6	180	9
2023-09-05T06:00	468	971	18.5	10.8	180	9
2023-09-05T06:00	493	969	18.3	10.7	180	9
2023-09-05T06:00	515	966	18.1	10.6	180	10
2023-09-05T06:00	538	963	18.0	10.6	180	10
2023-09-05T06:00	562	961	17.8	10.5	179	10
2023-09-05T06:00	585	958	17.6	10.5	178	11
2023-09-05T06:00	606	956	17.4	10.4	176	11
2023-09-05T06:00	632	953	17.2	10.4	174	11
2023-09-05T06:00	653	951	17.0	10.5	173	11
2023-09-05T06:00	679	948	16.8	10.5	171	11
2023-09-05T06:00	703	945	16.6	10.5	170	11
2023-09-05T06:00	729	942	16.4	10.5	169	11
2023-09-05T06:00	757	939	16.2	10.4	168	11
2023-09-05T06:00	779	937	16.1	10.5	166	11
2023-09-05T06:00	806	934	15.9	10.7	165	11
2023-09-05T06:00	831	931	15.7	10.8	163	11
2023-09-05T06:00	854	928	15.5	10.8	160	10
2023-09-05T06:00	882	925	15.5	10.8	157	10
2023-09-05T06:00	906	923	15.6	10.6	153	9
2023-09-05T06:00	931	920	15.7	10.8	148	9
2023-09-05T06:00	955	917	15.6	10.2	143	8
2023-09-05T06:00	981	915	15.9	10.9	138	8
2023-09-05T06:00	1001	912	16.0	11.0	135	8
2023-09-05T06:00	1025	910	16.0	10.9	132	8
2023-09-05T06:00	1049	907	16.2	10.7	131	8
2023-09-05T06:00	1072	905	16.0	10.7	131	8
2023-09-05T06:00	1095	903	15.8	10.6	132	8
2023-09-05T06:00	1114	900	15.7	10.6	133	7
2023-09-05T06:00	1137	898	15.5		134	7
2023-09-05T06:00	1160	896	15.3	10.6	135	7
2023-09-05T06:00	1186	893	15.2	10.8	136	6
2023-09-05T06:00	1214	890	15.0	10.5	138	6
2023-09-05T06:00	1243	887	14.8	10.3	142	6
2023-09-05T06:00	1272	884	14.6	10.1	147	5
2023-09-05T06:00	1296	881	14.5	10.1	152	5
2023-09-05T06:00	1318	879	14.3	9.8	157	4
2023-09-05T06:00	1343	877	14.2	9.6	161	4
2023-09-05T06:00	1366	874	14.1	9.6	161	4
2023-09-05T06:00	1392	871	14.0	9.7	157	4
2023-09-05T06:00	1417	869	14.0	9.2	150	4
2023-09-05T06:00	1443	866	14.0	9.4	142	4
2023-09-05T06:00	1468	864	13.8	9.9	134	4
2023-09-05T06:00	1494	861	13.6	9.9	126	4
2023-09-05T06:00	1520	858	13.6	9.3	118	3
2023-09-05T06:00	1545	856	13.7	8.8	109	3
2023-09-05T06:00	1572	853	13.8	8.5	99	3
2023-09-05T06:00	1597	851	13.9	8.7	91	3
2023-09-05T06:00	1619	848	13.9	8.6	87	3
2023-09-05T06:00	1645	846	13.8	8.0	87	3
2023-09-05T06:00	1668	843	13.7	8.1	90	3
2023-09-05T06:00	1691	841	13.7	7.2	94	3
2023-09-05T06:00	1715	839	13.6	6.7	98	3
2023-09-05T06:00	1740	836	13.5	7.1	102	3
2023-09-05T06:00	1767	834	13.5	7.1	104	3
2023-09-05T06:00	1792	831	13.5	5.3	106	3
2023-09-05T06:00	1823	828	13.8	1.8	109	3
2023-09-05T06:00	1853	825	14.3	-2.9	114	3
2023-09-05T06:00	1878	823	14.5	-7.1	119	3
2023-09-05T06:00	1905	820	14.6	-13.6	122	4
2023-09-05T06:00	1929	818	14.5	-14.2	122	4
2023-09-05T06:00	1950	816	14.3	-9.1	118	4
2023-09-05T06:00	1977	813	14.2	-11.2	113	4
2023-09-05T06:00	2003	811	14.0		107	4
2023-09-05T06:00	2025	808	13.9	-14.8	102	4
2023-09-05T06:00	2053	806	13.7	-14.8	97	4
2023-09-05T06:00	2079	803	13.5	-10.7	95	5
2023-09-05T06:00	2109	800	13.3	-8.3	93	5
2023-09-05T06:00	2135	798	13.3	-9.9	92	6
2023-09-05T06:00	2164	795	13.3	-8.8	90	6
2023-09-05T06:00	2185	793	13.2	-5.5	86	6
2023-09-05T06:00	2212	791	12.9	0.2	82	7
2023-09-05T06:00	2237	788	12.8	0.5	76	7
2023-09-05T06:00	2258	786	12.7	-0.6	70	7
2023-09-05T06:00	2288	784	12.7	-1.6	63	7
2023-09-05T06:00	2311	781	12.7	-1.0	57	7
2023-09-05T06:00	2338	779	12.6	-1.0	53	6
2023-09-05T06:00	2356	777	12.6	-1.4	49	6
2023-09-05T06:00	2379	775	12.4	0.1	48	6
2023-09-05T06:00	2398	773	12.3	2.0	48	5
2023-09-05T06:00	2424	771	12.1	1.9	46	5
2023-09-05T06:00	2449	769	12.0	1.4	44	6
2023-09-05T06:00	2469	767	12.1	-1.4	41	6
2023-09-05T06:00	2497	764	12.1	-3.1	38	6
2023-09-05T06:00	2525	762	12.2	-3.2	34	6
2023-09-05T06:00	2554	759	11.9	-2.3	31	6
2023-09-05T06:00	2579	757	11.8	-3.5	27	6
2023-09-05T06:00	2607	754	11.5	-2.0	23	7
2023-09-05T06:00	2632	752	11.3	-3.5	21	7
2023-09-05T06:00	2653	750	11.2	-3.0	21	7
2023-09-05T06:00	2679	748	10.9	-2.2	22	7
2023-09-05T06:00	2701	746	10.8	-2.8	26	7
2023-09-05T06:00	2731	743	10.5	-0.9	30	7
2023-09-05T06:00	2752	741	10.6	-1.5	33	6
2023-09-05T06:00	2774	739	10.5	-1.4	36	6
2023-09-05T06:00	2801	737	10.4	-1.8	37	5
2023-09-05T06:00	2832	734	10.2	-1.3	37	5
2023-09-05T06:00	2861	732	10.1	-1.6	35	5
2023-09-05T06:00	2889	729	9.9	-1.9	32	5
2023-09-05T06:00	2912	727	9.8	-2.2	30	5
2023-09-05T06:00	2941	725	9.7	-2.8	27	5
2023-09-05T06:00	2963	723	9.7	-4.6	25	5
2023-09-05T06:00	2986	721	9.7	-5.6	23	5
2023-09-05T06:00	3011	718	9.6	-5.7	21	5
2023-09-05T06:00	3036	716	9.5	-6.6	18	5
2023-09-05T06:00	3057	715	9.4	-7.7	15	5
2023-09-05T06:00	3077	713	9.4	-10.7	13	5
2023-09-05T06:00	3102	711	9.3	-10.3	11	5
2023-09-05T06:00	3129	708	9.1	-9.8	10	6
2023-09-05T06:00	3146	707	9.0	-8.2	10	6
2023-09-05T06:00	3165	705	9.0	-9.6	10	6
2023-09-05T06:00	3189	703	8.9	-11.1	11	7
2023-09-05T06:00	3211	701	8.7	-9.7	12	7
2023-09-05T06:00	3240	699	8.6	-9.7	13	7
2023-09-05T06:00	3263	697	8.5	-10.8	14	6
2023-09-05T06:00	3289	695	8.5	-13.3	16	6
2023-09-05T06:00	3311	693	8.3	-12.3	19	6
2023-09-05T06:00	3336	691	8.0	-6.7	22	6
2023-09-05T06:00	3354	689	8.0	-8.9	23	6
2023-09-05T06:00	3376	687	7.8	-7.5	23	6
2023-09-05T06:00	3401	685	7.8	-10.3	22	6
2023-09-05T06:00	3428	683	7.8	-13.5	22	7
2023-09-05T06:00	3456	681	7.6	-11.5	22	7
2023-09-05T06:00	3484	678	7.3	-9.1	22	6
2023-09-05T06:00	3509	676	7.0	-8.9	23	6
2023-09-05T06:00	3535	674	6.7	-7.8	24	6
2023-09-05T06:00	3558	672	6.5	-6.7	25	7
2023-09-05T06:00	3580	671	6.4	-7.1	25	7
2023-09-05T06:00	3604	669	6.3	-10.3	25	7
2023-09-05T06:00	3631	666	6.1	-11.2	25	7
2023-09-05T06:00	3661	664	5.9	-11.8	25	7
2023-09-05T06:00	3684	662	5.8	-10.3	25	7
2023-09-05T06:00	3703	661	5.7	-10.4	25	7
2023-09-05T06:00	3720	659	5.7	-11.2	25	7
2023-09-05T06:00	3740	658	5.6	-12.0	25	6
2023-09-05T06:00	3761	656	5.5	-12.6	26	6
2023-09-05T06:00	3785	654	5.3	-13.1	27	6
2023-09-05T06:00	3810	652	5.1	-13.0	29	6
2023-09-05T06:00	3832	650	5.0	-13.1	31	6
2023-09-05T06:00	3861	648	4.8	-13.2	32	6
2023-09-05T06:00	3891	646	4.6	-13.0	32	6
2023-09-05T06:00	3912	644	4.4	-12.6	31	6
2023-09-05T06:00	3934	642	4.1	-12.4	31	6
2023-09-05T06:00	3955	640	3.9	-12.0	31	6
2023-09-05T06:00	3983	638	3.7	-11.4	31	6
2023-09-05T06:00	4002	637	3.5	-10.4	30	6
2023-09-05T06:00	4025	635	3.3	-10.5	30	6
2023-09-05T06:00	4047	633	3.1	-10.4	29	6
2023-09-05T06:00	4068	632	3.0	-11.1	28	5
2023-09-05T06:00	4090	630	2.9	-11.3	28	5
2023-09-05T06:00	4113	628	2.7	-11.4	27	5
2023-09-05T06:00	4139	626	2.6	-11.7	26	5
2023-09-05T06:00	4157	625	2.4	-11.7	24	6
2023-09-05T06:00	4180	623	2.3	-11.7	22	6
2023-09-05T06:00	4207	621	2.1	-11.5	20	6
2023-09-05T06:00	4234	619	1.9	-11.1	20	6
2023-09-05T06:00	4262	617	1.8	-11.9	21	6
2023-09-05T06:00	4289	615	1.7	-11.9	24	6
2023-09-05T06:00	4310	613	1.7	-12.1	26	6
2023-09-05T06:00	4331	611	2.1	-23.5	27	6
2023-09-05T06:00	4359	609	2.3	-24.6	27	6
2023-09-05T06:00	4382	608	2.2	-24.1	26	6
2023-09-05T06:00	4403	606	2.3	-19.0	25	6
2023-09-05T06:00	4427	604	2.3	-17.7	24	6
2023-09-05T06:00	4454	602	2.0	-11.3	23	6
2023-09-05T06:00	4475	600	1.8	-12.5	23	6
2023-09-05T06:00	4499	599	1.8	-16.2	22	6
2023-09-05T06:00	4519	597	1.7	-16.1	22	7
2023-09-05T06:00	4542	596	1.6	-16.2	21	7
2023-09-05T06:00	4566	594	1.4	-16.5	22	7
2023-09-05T06:00	4588	592	1.3	-16.4	23	7
2023-09-05T06:00	4611	590	1.2	-16.9	25	7
2023-09-05T06:00	4639	589	1.1	-16.6	26	7
2023-09-05T06:00	4660	587	0.9	-16.9	27	7
2023-09-05T06:00	4685	585	0.7	-17.0	27	7
2023-09-05T06:00	4709	583	0.5	-16.8	27	7
2023-09-05T06:00	4734	582	0.3	-16.1	25	7
2023-09-05T06:00	4754	580	0.2	-17.0	24	7
2023-09-05T06:00	4779	578	0.3	-18.6	23	7
2023-09-05T06:00	4805	576	0.2	-17.4	22	7
2023-09-05T06:00	4829	575	0.1	-17.4	21	7
2023-09-05T06:00	4852	573	-0.1	-18.6	20	8
2023-09-05T06:00	4877	571	-0.2	-19.9	20	8
2023-09-05T06:00	4901	569	-0.4	-18.5	19	8
2023-09-05T06:00	4924	568	-0.5	-18.0	18	7
2023-09-05T06:00	4947	566	-0.7	-17.7	17	7
2023-09-05T06:00	4974	564	-1.0	-17.8	16	7
2023-09-05T06:00	4994	563	-1.2	-17.8	16	7
2023-09-05T06:00	5017	561	-1.4	-17.8	15	7
2023-09-05T06:00	5042	560	-1.6	-18.4	15	7
2023-09-05T06:00	5068	558	-1.7	-21.4	13	7
2023-09-05T06:00	5090	556	-1.9	-17.4	12	6
2023-09-05T06:00	5119	554	-2.2	-15.7	11	6
2023-09-05T06:00	5140	553	-2.3	-16.3	11	6
2023-09-05T06:00	5165	551	-2.4	-17.2	11	6
2023-09-05T06:00	5196	549	-2.7	-17.2	11	6
2023-09-05T06:00	5218	547	-2.8	-16.7	11	6
2023-09-05T06:00	5243	546	-3.1	-16.2	10	7
2023-09-05T06:00	5268	544	-3.3	-16.2	8	7
2023-09-05T06:00	5299	542	-3.5	-16.8	6	7
2023-09-05T06:00	5328	540	-3.6		5	7
2023-09-05T06:00	5350	538	-3.7	-18.2	4	7
2023-09-05T06:00	5375	536	-3.9	-18.5	4	7
2023-09-05T06:00	5398	535	-4.0	-20.9	4	7
2023-09-05T06:00	5420	533	-4.1	-20.2	3	7
2023-09-05T06:00	5445	532	-4.3	-21.6	1	7
2023-09-05T06:00	5467	530	-4.4	-20.9	359	7
2023-09-05T06:00	5492	529	-4.5	-20.7	356	6
2023-09-05T06:00	5520	527	-4.6	-21.7	353	6
2023-09-05T06:00	5546	525	-4.6	-22.6	349	6
2023-09-05T06:00	5574	523	-4.8	-22.8	345	6
2023-09-05T06:00	5598	521	-4.9	-22.9	343	6
2023-09-05T06:00	5622	520	-5.1	-23.1	341	7
2023-09-05T06:00	5644	518	-5.2	-23.8	341	7
2023-09-05T06:00	5670	517	-5.4	-23.4	341	6
2023-09-05T06:00	5695	515	-5.5	-23.6	342	6
2023-09-05T06:00	5713	514	-5.6	-24.2	343	6
2023-09-05T06:00	5735	513	-5.7	-24.5	344	6
2023-09-05T06:00	5751	511	-5.8	-24.9	345	6
2023-09-05T06:00	5774	510	-5.9	-25.4	346	6
2023-09-05T06:00	5794	509	-6.1	-25.4	346	6
2023-09-05T06:00	5815	507	-6.2	-25.4	347	6
2023-09-05T06:00	5835	506	-6.3	-25.3	347	6
2023-09-05T06:00	5859	504	-6.5	-25.3	348	6
2023-09-05T06:00	5886	503	-6.6	-25.2	348	7
2023-09-05T06:00	5913	501	-6.8	-25.3	347	7
2023-09-05T06:00	5938	499	-7.0	-25.2	345	6
2023-09-05T06:00	5965	498	-7.2	-25.1	341	6
2023-09-05T06:00	5986	496	-7.5	-25.0	338	7
2023-09-05T06:00	6011	495	-7.7	-25.0	336	7
2023-09-05T06:00	6037	493	-7.9	-24.7	336	7
2023-09-05T06:00	6065	491	-8.1	-24.8	338	8
2023-09-05T06:00	6084	490	-8.2	-24.7	341	8
2023-09-05T06:00	6108	489	-8.4	-25.4	344	8
2023-09-05T06:00	6132	487	-8.6	-26.6	346	8
2023-09-05T06:00	6160	485	-8.8	-28.2	348	8
2023-09-05T06:00	6183	484	-8.8	-30.0	350	8
2023-09-05T06:00	6205	482	-8.9	-31.6	351	8
2023-09-05T06:00	6229	481	-9.1	-32.7	351	8
2023-09-05T06:00	6253	479	-9.3	-33.4	352	9
2023-09-05T06:00	6279	478	-9.5	-33.7	353	9
2023-09-05T06:00	6300	477	-9.7	-33.7	355	9
2023-09-05T06:00	6322	475	-9.9	-33.9	357	9
2023-09-05T06:00	6345	474	-10.1	-34.0	358	10
2023-09-05T06:00	6365	473	-10.2	-33.8	359	10
2023-09-05T06:00	6387	471	-10.4	-33.6	360	10
2023-09-05T06:00	6406	470	-10.6	-33.0	360	10
2023-09-05T06:00	6427	469	-10.8	-32.0	0	10
2023-09-05T06:00	6454	467	-10.9	-28.9	1	10
2023-09-05T06:00	6476	466	-11.1	-28.5	2	10
2023-09-05T06:00	6500	464	-11.3	-27.4	3	10
2023-09-05T06:00	6527	463	-11.5	-27.0	3	10
2023-09-05T06:00	6548	462	-11.7	-26.4	3	10
2023-09-05T06:00	6567	460	-11.9	-26.2	3	10
2023-09-05T06:00	6587	459	-12.1	-26.2	2	10
2023-09-05T06:00	6605	458	-12.2	-26.1	1	10
2023-09-05T06:00	6626	457	-12.3	-27.1	360	10
2023-09-05T06:00	6647	456	-12.4	-28.4	359	10
2023-09-05T06:00	6667	454	-12.5	-28.4	357	10
2023-09-05T06:00	6690	453	-12.6	-29.1	356	10
2023-09-05T06:00	6712	452	-12.8	-29.2	356	10
2023-09-05T06:00	6733	450	-12.9	-29.3	355	11
2023-09-05T06:00	6754	449	-13.0	-30.0	355	11
2023-09-05T06:00	6774	448	-13.1	-30.5	355	11
2023-09-05T06:00	6798	447	-13.3	-30.3	355	11
2023-09-05T06:00	6819	445	-13.4	-30.5	354	11
2023-09-05T06:00	6841	444	-13.5	-31.1	353	11
2023-09-05T06:00	6862	443	-13.7	-30.5	352	11
2023-09-05T06:00	6885	441	-13.9	-30.4	351	11
2023-09-05T06:00	6910	440	-14.0	-31.0	349	11
2023-09-05T06:00	6940	438	-14.1	-34.7	347	11
2023-09-05T06:00	6963	437	-14.2	-37.0	346	11
2023-09-05T06:00	6986	436	-14.4	-37.0	346	10
2023-09-05T06:00	7008	434	-14.5	-35.9	345	10
2023-09-05T06:00	7027	433	-14.6	-36.8	346	10
2023-09-05T06:00	7048	432	-14.8	-37.1	346	10
2023-09-05T06:00	7071	431	-14.9	-37.0	347	10
2023-09-05T06:00	7096	429	-15.1	-37.1	347	10
2023-09-05T06:00	7125	428	-15.2	-37.3	348	10
2023-09-05T06:00	7151	426	-15.4	-37.6	348	11
2023-09-05T06:00	7179	425	-15.6	-37.8	348	11
2023-09-05T06:00	7199	424	-15.7	-37.9	348	11
2023-09-05T06:00	7222	422	-15.8	-38.1	347	11
2023-09-05T06:00	7243	421	-15.9	-38.0	347	11
2023-09-05T06:00	7271	420	-16.1	-36.9	346	12
2023-09-05T06:00	7297	418	-16.3	-36.8	345	12
2023-09-05T06:00	7321	417	-16.4	-37.4	344	12
2023-09-05T06:00	7352	415	-16.6	-37.8	343	12
2023-09-05T06:00	7377	414	-16.8	-37.5	342	12
2023-09-05T06:00	7406	412	-17.0	-37.5	341	11
2023-09-05T06:00	7430	411	-17.1	-37.6	340	12
2023-09-05T06:00	7449	410	-17.2	-37.2	340	12
2023-09-05T06:00	7473	408	-17.3	-37.1	339	12
2023-09-05T06:00	7499	407	-17.5	-37.2	339	12
2023-09-05T06:00	7528	405	-17.7	-37.4	339	12
2023-09-05T06:00	7550	404	-17.7	-37.5	338	12
2023-09-05T06:00	7572	403	-17.8	-37.7	337	11
2023-09-05T06:00	7594	402	-17.9	-38.0	336	11
2023-09-05T06:00	7623	400	-18.1	-38.1	335	11
2023-09-05T06:00	7651	399	-18.2	-38.3	334	10
2023-09-05T06:00	7672	398	-18.3		332	10
2023-09-05T06:00	7695	396	-18.4	-38.9	331	10
2023-09-05T06:00	7720	395	-18.6	-39.7	329	10
2023-09-05T06:00	7745	394	-18.7	-39.4	329	10
2023-09-05T06:00	7775	392	-18.8	-39.5	329	9
2023-09-05T06:00	7802	391	-19.0	-39.9	331	9
2023-09-05T06:00	7824	390	-19.1	-39.8	332	9
2023-09-05T06:00	7847	388	-19.3	-40.0	334	9
2023-09-05T06:00	7870	387	-19.5	-40.5	334	9
2023-09-05T06:00	7895	386	-19.6	-41.0	333	9
2023-09-05T06:00	7920	385	-19.7	-40.3	332	9
2023-09-05T06:00	7948	383	-19.9	-37.9	332	9
2023-09-05T06:00	7971	382	-20.1	-36.3	332	9
2023-09-05T06:00	7995	381	-20.3	-34.2	334	9
2023-09-05T06:00	8016	380	-20.4	-34.3	336	9
2023-09-05T06:00	8037	379	-20.6	-34.1	338	9
2023-09-05T06:00	8060	377	-20.8	-32.0	339	9
2023-09-05T06:00	8087	376	-21.0	-31.1	339	9
2023-09-05T06:00	8122	374	-21.3	-32.3	339	9
2023-09-05T06:00	8151	373	-21.5	-32.3	338	9
2023-09-05T06:00	8173	372	-21.7	-30.5	338	9
2023-09-05T06:00	8196	370	-22.0	-31.0	338	9
2023-09-05T06:00	8220	369	-22.2	-31.3	338	9
2023-09-05T06:00	8241	368	-22.3	-32.9	338	9
2023-09-05T06:00	8263	367	-22.5	-34.8	338	9
2023-09-05T06:00	8284	366	-22.7	-37.2	338	9
2023-09-05T06:00	8305	365	-22.8	-37.3	337	9
2023-09-05T06:00	8326	364	-23.0	-37.8	336	9
2023-09-05T06:00	8345	363	-23.1	-36.4	335	9
2023-09-05T06:00	8365	362	-23.2	-38.9	335	9
2023-09-05T06:00	8384	361	-23.3	-40.7	334	9
2023-09-05T06:00	8407	360	-23.5	-41.4	335	9
2023-09-05T06:00	8427	359	-23.6	-40.5	335	9
2023-09-05T06:00	8446	358	-23.8	-36.7	337	9
2023-09-05T06:00	8472	357	-24.0	-35.6	338	9
2023-09-05T06:00	8493	356	-24.2	-35.4	340	9
2023-09-05T06:00	8518	355	-24.4	-35.1	342	9
2023-09-05T06:00	8540	353	-24.6	-35.0	344	9
2023-09-05T06:00	8564	352	-24.9	-34.9	346	9
2023-09-05T06:00	8593	351	-25.1	-34.5	348	9
2023-09-05T06:00	8616	350	-25.3	-33.9	350	9
2023-09-05T06:00	8641	349	-25.5	-33.8	352	9
2023-09-05T06:00	8668	347	-25.7	-33.8	353	10
2023-09-05T06:00	8692	346	-25.9	-34.1	353	10
2023-09-05T06:00	8712	345	-26.0	-34.5	353	11
2023-09-05T06:00	8730	344	-26.0	-34.9	354	12
2023-09-05T06:00	8750	343	-26.0	-35.2	354	12
2023-09-05T06:00	8771	342	-26.0	-35.3	354	12
2023-09-05T06:00	8791	341	-26.1	-35.2	354	12
2023-09-05T06:00	8812	341	-26.2	-35.3	353	12
2023-09-05T06:00	8831	340	-26.3		354	12
2023-09-05T06:00	8849	339	-26.4	-36.1	354	12
2023-09-05T06:00	8871	338	-26.6	-36.3	354	11
2023-09-05T06:00	8891	337	-26.7	-36.2	354	11
2023-09-05T06:00	8910	336	-26.9	-36.3	353	11
2023-09-05T06:00	8928	335	-27.1	-36.4	353	11
2023-09-05T06:00	8948	334	-27.2	-36.9	352	11
2023-09-05T06:00	8969	333	-27.3	-37.4	351	11
2023-09-05T06:00	8988	332	-27.4	-37.7	350	11
2023-09-05T06:00	9007	331	-27.5	-38.0	350	11
2023-09-05T06:00	9027	330	-27.7	-38.1	348	11
2023-09-05T06:00	9049	329	-27.9	-38.3	347	11
2023-09-05T06:00	9072	328	-28.0	-39.0	345	11
2023-09-05T06:00	9092	327	-28.0	-39.2	344	11
2023-09-05T06:00	9113	326	-28.2	-39.4	343	11
2023-09-05T06:00	9138	325	-28.4	-39.9	343	10
2023-09-05T06:00	9162	324	-28.4	-40.3	343	10
2023-09-05T06:00	9187	323	-28.7	-40.3	344	10
2023-09-05T06:00	9209	322	-28.9	-40.4	345	9
2023-09-05T06:00	9231	321	-29.1	-40.5	346	9
2023-09-05T06:00	9253	320	-29.3	-40.4	346	9
2023-09-05T06:00	9275	319	-29.4	-40.3	346	9
2023-09-05T06:00	9299	318	-29.6	-40.4	346	9
2023-09-05T06:00	9318	317	-29.9	-40.6	345	9
2023-09-05T06:00	9340	316	-30.1	-40.5	344	9
2023-09-05T06:00	9360	315	-30.3	-40.5	343	9
2023-09-05T06:00	9382	314	-30.5	-40.5	343	9
2023-09-05T06:00	9404	313	-30.7	-40.4	343	9
2023-09-05T06:00	9429	312	-30.9	-40.8	344	10
2023-09-05T06:00	9453	311	-31.1	-40.9	344	10
2023-09-05T06:00	9474	310	-31.3	-40.9	345	10
2023-09-05T06:00	9498	309	-31.5	-40.9	345	10
2023-09-05T06:00	9525	308	-31.7	-40.9	345	11
2023-09-05T06:00	9548	307	-31.9		345	11
2023-09-05T06:00	9571	306	-32.1	-41.0	345	11
2023-09-05T06:00	9593	305	-32.3	-41.1	345	11
2023-09-05T06:00	9612	304	-32.5	-41.0	345	11
2023-09-05T06:00	9636	303	-32.7	-41.1	346	11
2023-09-05T06:00	9657	302	-32.9	-41.3	346	11
2023-09-05T06:00	9679	302	-33.1	-41.5	347	11
2023-09-05T06:00	9702	301	-33.3	-41.7	347	11
2023-09-05T06:00	9725	300	-33.5	-41.8	347	11
2023-09-05T06:00	9747	299	-33.7	-41.9	348	11
2023-09-05T06:00	9771	298	-33.9	-42.0	348	11
2023-09-05T06:00	9793	297	-34.1	-42.1	348	11
2023-09-05T06:00	9815	296	-34.3	-42.3	348	12
2023-09-05T06:00	9832	295	-34.5	-42.4	348	12
2023-09-05T06:00	9855	294	-34.7	-42.5	348	11
2023-09-05T06:00	9875	293	-34.8	-42.5	348	11
2023-09-05T06:00	9897	292	-35.1	-42.7	349	11
2023-09-05T06:00	9915	292	-35.2	-42.7	350	11
2023-09-05T06:00	9934	291	-35.4	-42.9	351	11
2023-09-05T06:00	9956	290	-35.5	-43.8	352	11
2023-09-05T06:00	9976	289	-35.5	-44.3	352	11
2023-09-05T06:00	9999	288	-35.7	-44.3	352	11
2023-09-05T06:00	10019	287	-35.8	-44.2	352	11
2023-09-05T06:00	10040	286	-36.0	-44.5	352	11
2023-09-05T06:00	10061	285	-36.2	-44.9	352	11
2023-09-05T06:00	10083	285	-36.3	-45.1	352	11
2023-09-05T06:00	10102	284	-36.5	-45.1	351	11
2023-09-05T06:00	10125	283	-36.7	-45.1	351	11
2023-09-05T06:00	10144	282	-36.9	-45.2	350	11
2023-09-05T06:00	10165	281	-37.1	-45.1	349	11
2023-09-05T06:00	10185	280	-37.3	-45.2	347	11
2023-09-05T06:00	10207	280	-37.4	-45.6	346	11
2023-09-05T06:00	10229	279	-37.6	-46.2	345	11
2023-09-05T06:00	10251	278	-37.7	-46.8	344	11
2023-09-05T06:00	10271	277	-37.9	-47.0	344	11
2023-09-05T06:00	10293	276	-38.1	-47.1	344	11
2023-09-05T06:00	10313	275	-38.2	-47.0	344	11
2023-09-05T06:00	10331	275	-38.4	-47.1	343	11
2023-09-05T06:00	10350	274	-38.6	-47.2	343	11
2023-09-05T06:00	10370	273	-38.7	-47.3	342	11
2023-09-05T06:00	10392	272	-38.8	-47.6	342	11
2023-09-05T06:00	10414	271	-39.0	-47.6	342	11
2023-09-05T06:00	10433	270	-39.2	-47.7	342	11
2023-09-05T06:00	10455	270	-39.4	-47.8	342	11
2023-09-05T06:00	10475	269	-39.6	-47.8	342	11
2023-09-05T06:00	10494	268	-39.7	-47.7	342	12
2023-09-05T06:00	10516	267	-40.0	-48.0	342	12
2023-09-05T06:00	10538	266	-40.2	-48.2	342	12
2023-09-05T06:00	10559	266	-40.3	-48.5	341	12
2023-09-05T06:00	10581	265	-40.5	-48.7	341	12
2023-09-05T06:00	10601	264	-40.6	-48.9	341	13
2023-09-05T06:00	10625	263	-40.8	-49.3	340	13
2023-09-05T06:00	10646	262	-40.9	-49.6	340	13
2023-09-05T06:00	10667	261	-41.0	-49.9	339	13
2023-09-05T06:00	10688	261	-41.2	-50.1	339	13
2023-09-05T06:00	10708	260	-41.4	-50.1	338	14
2023-09-05T06:00	10729	259	-41.6	-50.1	338	14
2023-09-05T06:00	10752	258	-41.8	-50.5	338	14
2023-09-05T06:00	10773	257	-41.9	-50.7	337	14
2023-09-05T06:00	10795	257	-42.1	-51.0	337	14
2023-09-05T06:00	10816	256	-42.2	-50.9	337	14
2023-09-05T06:00	10836	255	-42.4	-51.0	337	14
2023-09-05T06:00	10860	254	-42.6	-51.0	337	14
2023-09-05T06:00	10881	253	-42.8	-50.3	337	13
2023-09-05T06:00	10901	252	-43.0	-50.8	337	13
2023-09-05T06:00	10923	252	-43.1	-50.7	337	13
2023-09-05T06:00	10943	251	-43.3	-50.6	337	13
2023-09-05T06:00	10965	250	-43.5	-50.1	337	13
2023-09-05T06:00	10986	249	-43.7	-48.8	336	13
2023-09-05T06:00	11006	249	-44.0	-47.9	336	13
2023-09-05T06:00	11028	248	-44.1	-47.7	336	13
2023-09-05T06:00	11049	247	-44.2	-47.8	337	14
2023-09-05T06:00	11070	246	-44.4	-48.0	337	14
2023-09-05T06:00	11091	245	-44.5	-48.3	338	14
2023-09-05T06:00	11110	245	-44.6	-48.4	338	14
2023-09-05T06:00	11133	244	-44.8	-48.6	338	14
2023-09-05T06:00	11153	243	-44.9	-48.9	338	13
2023-09-05T06:00	11173	242	-45.1	-49.3	339	13
2023-09-05T06:00	11195	242	-45.2	-49.6	339	13
2023-09-05T06:00	11216	241	-45.4	-50.0	339	14
2023-09-05T06:00	11235	240	-45.6	-50.0	339	14
2023-09-05T06:00	11257	239	-45.7	-49.9	339	14
2023-09-05T06:00	11278	239	-45.9	-50.2	339	14
2023-09-05T06:00	11297	238	-46.1	-50.5	339	14
2023-09-05T06:00	11320	237	-46.3	-50.8	338	14
2023-09-05T06:00	11341	236	-46.5	-51.0	338	14
2023-09-05T06:00	11360	236	-46.6	-51.2	337	14
2023-09-05T06:00	11383	235	-46.8	-51.3	337	14
2023-09-05T06:00	11405	234	-46.9	-51.3	336	15
2023-09-05T06:00	11428	233	-47.2	-51.6	335	15
2023-09-05T06:00	11448	233	-47.3	-51.6	335	15
2023-09-05T06:00	11471	232	-47.4	-51.7	335	15
2023-09-05T06:00	11492	231	-47.5	-51.9	336	15
2023-09-05T06:00	11513	230	-47.6	-52.1	336	15
2023-09-05T06:00	11534	230	-47.8	-52.3	337	15
2023-09-05T06:00	11556	229	-48.0	-52.5	337	15
2023-09-05T06:00	11577	228	-48.2	-52.7	338	16
2023-09-05T06:00	11600	227	-48.4	-52.9	338	16
2023-09-05T06:00	11620	227	-48.6	-53.0	338	16
2023-09-05T06:00	11642	226	-48.8	-53.0	338	16
2023-09-05T06:00	11664	225	-49.0	-53.1	338	15
2023-09-05T06:00	11687	224	-49.2	-53.1	338	15
2023-09-05T06:00	11706	224	-49.4	-53.2	338	15
2023-09-05T06:00	11728	223	-49.6	-53.4	339	15
2023-09-05T06:00	11749	222	-49.8	-53.6	339	15
2023-09-05T06:00	11772	221	-50.0	-53.9	339	15
2023-09-05T06:00	11791	221	-50.2	-54.2	339	15
2023-09-05T06:00	11814	220	-50.4	-54.5	339	15
2023-09-05T06:00	11834	219	-50.5	-54.6	339	15
2023-09-05T06:00	11855	219	-50.7	-54.8	338	15
2023-09-05T06:00	11877	218	-50.9	-55.0	337	15
2023-09-05T06:00	11898	217	-51.0	-55.1	336	15
2023-09-05T06:00	11920	216	-51.2	-55.4	335	15
2023-09-05T06:00	11940	216	-51.4	-55.7	335	15
2023-09-05T06:00	11961	215	-51.4	-55.8	334	15
2023-09-05T06:00	11982	214	-51.6	-56.2	334	15
2023-09-05T06:00	12004	214	-51.8	-56.4	334	15
2023-09-05T06:00	12023	213	-52.0	-56.6	334	15
2023-09-05T06:00	12044	212	-52.1	-56.8	334	15
2023-09-05T06:00	12068	212	-52.3	-57.2	334	15
2023-09-05T06:00	12089	211	-52.4	-57.4	334	15
2023-09-05T06:00	12109	210	-52.6	-57.7	334	15
2023-09-05T06:00	12130	210	-52.8	-57.9	334	15
2023-09-05T06:00	12150	209	-52.9	-57.9	334	14
2023-09-05T06:00	12172	208	-53.1	-58.0	334	14
2023-09-05T06:00	12193	207	-53.4	-58.3	333	14
2023-09-05T06:00	12216	207	-53.5	-58.3	334	14
2023-09-05T06:00	12237	206	-53.8	-58.5	334	14
2023-09-05T06:00	12260	205	-54.0	-58.6	334	14
2023-09-05T06:00	12283	205	-54.2	-58.7	334	15
2023-09-05T06:00	12303	204	-54.3	-58.7	335	15
2023-09-05T06:00	12325	203	-54.6	-59.0	335	14
2023-09-05T06:00	12344	203	-54.7	-59.2	336	14
2023-09-05T06:00	12369	202	-54.8	-59.5	336	14
2023-09-05T06:00	12389	201	-55.0	-59.7	336	14
2023-09-05T06:00	12411	201	-55.2	-59.8	336	14
2023-09-05T06:00	12432	200	-55.4	-59.9	335	15
2023-09-05T06:00	12454	199	-55.6	-60.1	335	15
2023-09-05T06:00	12477	199	-55.8	-60.3	335	15
2023-09-05T06:00	12497	198	-56.0	-60.4	334	15
2023-09-05T06:00	12519	197	-56.2	-60.6	334	15
2023-09-05T06:00	12539	197	-56.4	-60.8	334	16
2023-09-05T06:00	12560	196	-56.6	-61.1	333	16
2023-09-05T06:00	12580	195	-56.7	-61.3	333	16
2023-09-05T06:00	12602	195	-56.8	-61.4	333	16
2023-09-05T06:00	12624	194	-57.0	-61.6	333	16
2023-09-05T06:00	12647	193	-57.1	-61.8	333	16
2023-09-05T06:00	12666	193	-57.1	-61.9	332	16
2023-09-05T06:00	12688	192	-57.2	-62.1	332	16
2023-09-05T06:00	12711	191	-57.2	-62.3	331	16
2023-09-05T06:00	12731	191	-57.3	-63.1	331	16
2023-09-05T06:00	12753	190	-57.3	-63.8	331	16
2023-09-05T06:00	12775	189	-57.4	-64.3	331	16
2023-09-05T06:00	12796	189	-57.4	-64.5	331	16
2023-09-05T06:00	12820	188	-57.3	-64.9	331	16
2023-09-05T06:00	12842	187	-57.3	-65.5	332	17
2023-09-05T06:00	12862	187	-57.4	-66.1	333	17
2023-09-05T06:00	12884	186	-57.5	-66.4	334	17
2023-09-05T06:00	12908	185	-57.6	-66.7	335	18
2023-09-05T06:00	12929	185	-57.7	-67.1	336	18
2023-09-05T06:00	12951	184	-57.8	-67.4	337	18
2023-09-05T06:00	12975	184	-57.8	-67.3	339	19
2023-09-05T06:00	12993	183	-57.9	-67.2	340	19
2023-09-05T06:00	13016	182	-58.1	-67.3	341	19
2023-09-05T06:00	13039	182	-58.2	-67.3	341	19
2023-09-05T06:00	13060	181	-58.4	-67.5	342	19
2023-09-05T06:00	13083	180	-58.6	-67.5	342	19
2023-09-05T06:00	13104	180	-58.7	-67.4	343	19
2023-09-05T06:00	13126	179	-58.9	-67.5	343	19
2023-09-05T06:00	13148	179	-59.2	-67.6	343	19
2023-09-05T06:00	13170	178	-59.4	-67.7	343	19
2023-09-05T06:00	13191	177	-59.5	-67.6	343	19
2023-09-05T06:00	13214	177	-59.7	-67.7	343	19
2023-09-05T06:00	13238	176	-60.0	-67.9	344	19
2023-09-05T06:00	13259	175	-60.1	-68.0	345	19
2023-09-05T06:00	13281	175	-60.3	-68.4	346	19
2023-09-05T06:00	13303	174	-60.4	-68.7	346	19
2023-09-05T06:00	13325	174	-60.6	-69.1	347	19
2023-09-05T06:00	13347	173	-60.7	-69.3	347	19
2023-09-05T06:00	13368	172	-60.9	-69.5	348	19
2023-09-05T06:00	13393	172	-61.1	-69.6	348	18
2023-09-05T06:00	13413	171	-61.3	-69.7	347	18
2023-09-05T06:00	13434	170	-61.5	-69.8	347	18
2023-09-05T06:00	13456	170	-61.7	-69.9	347	18
2023-09-05T06:00	13478	169	-61.9	-70.0	346	18
2023-09-05T06:00	13500	169	-62.1	-70.1	346	18
2023-09-05T06:00	13523	168	-62.3	-70.2	346	17
2023-09-05T06:00	13544	168	-62.5	-70.3	346	17
2023-09-05T06:00	13565	167	-62.7	-70.4	347	17
2023-09-05T06:00	13588	166	-62.8	-70.5	347	17
2023-09-05T06:00	13611	166	-63.0	-70.7	346	17
2023-09-05T06:00	13632	165	-63.2	-70.9	346	17
2023-09-05T06:00	13657	164	-63.5	-71.1	346	17
2023-09-05T06:00	13680	164	-63.6	-71.0	345	17
2023-09-05T06:00	13701	163	-63.8	-71.1	345	17
2023-09-05T06:00	13724	163	-64.0	-71.2	345	17
2023-09-05T06:00	13744	162	-64.2	-71.3	344	16
2023-09-05T06:00	13767	162	-64.4	-71.4	344	16
2023-09-05T06:00	13788	161	-64.6	-71.4	344	16
2023-09-05T06:00	13810	160	-64.8	-71.5	344	16
2023-09-05T06:00	13837	160	-65.0	-71.6	344	15
2023-09-05T06:00	13862	159	-65.1	-71.6	344	15
2023-09-05T06:00	13883	158	-65.2	-71.7	344	14
2023-09-05T06:00	13907	158	-65.3	-71.7	343	14
2023-09-05T06:00	13927	157	-65.4	-71.7	343	14
2023-09-05T06:00	13949	157	-65.6	-71.8	343	14
2023-09-05T06:00	13971	156	-65.8	-71.9	343	13
2023-09-05T06:00	13992	156	-66.0	-72.0	342	13
2023-09-05T06:00	14014	155	-66.2	-72.2	342	13
2023-09-05T06:00	14036	155	-66.2	-72.2	342	12
2023-09-05T06:00	14060	154	-66.1	-72.1	341	12
2023-09-05T06:00	14083	153	-66.2	-72.2	340	11
2023-09-05T06:00	14105	153	-66.3	-72.3	340	11
2023-09-05T06:00	14126	152	-66.4	-72.3	339	11
2023-09-05T06:00	14147	152	-66.5	-72.4	337	10
2023-09-05T06:00	14170	151	-66.4	-72.2	336	9
2023-09-05T06:00	14191	151	-66.5	-72.3	335	9
2023-09-05T06:00	14215	150	-66.7	-72.3	333	9
2023-09-05T06:00	14234	150	-66.8	-72.3	331	8
2023-09-05T06:00	14256	149	-66.9	-72.3	329	8
2023-09-05T06:00	14280	148	-67.0	-72.3	326	8
2023-09-05T06:00	14300	148	-67.1	-72.5	323	8
2023-09-05T06:00	14321	147	-67.2	-72.9	321	9
2023-09-05T06:00	14343	147	-67.1	-73.4	320	9
2023-09-05T06:00	14362	146	-66.8	-74.1	320	10
2023-09-05T06:00	14384	146	-66.0	-74.6	320	10
2023-09-05T06:00	14405	145	-65.4	-75.6	321	11
2023-09-05T06:00	14426	145	-65.2	-76.9	323	11
2023-09-05T06:00	14449	144	-65.1	-78.0	325	11
2023-09-05T06:00	14469	144	-65.0	-78.8	327	11
2023-09-05T06:00	14488	143	-64.6	-79.1	330	11
2023-09-05T06:00	14510	143	-64.5	-79.5	332	11
2023-09-05T06:00	14530	142	-64.4	-79.9	335	12
2023-09-05T06:00	14551	142	-64.3	-80.1	337	12
2023-09-05T06:00	14574	141	-64.2	-80.2	339	12
2023-09-05T06:00	14594	141	-64.4	-80.5	340	13
2023-09-05T06:00	14614	140	-64.3	-80.6	341	13
2023-09-05T06:00	14635	140	-63.9	-80.5	341	13
2023-09-05T06:00	14655	140	-64.0	-80.7	341	13
2023-09-05T06:00	14674	139	-63.9	-80.6	340	13
2023-09-05T06:00	14697	139	-64.0	-80.8	339	13
2023-09-05T06:00	14717	138	-64.0	-80.8	337	13
2023-09-05T06:00	14745	138	-64.2	-80.9	336	12
2023-09-05T06:00	14768	137	-64.4	-81.0	336	11
2023-09-05T06:00	14795	136	-64.6	-81.0	335	11
2023-09-05T06:00	14823	136	-64.7	-81.0	335	10
2023-09-05T06:00	14845	135	-64.9	-81.0	334	9
2023-09-05T06:00	14867	135	-65.1	-81.1	332	8
2023-09-05T06:00	14889	134	-65.2	-81.2	330	8
2023-09-05T06:00	14916	134	-65.4	-81.3	328	7
2023-09-05T06:00	14940	133	-65.7	-81.4	325	7
2023-09-05T06:00	14964	133	-65.9	-81.5	322	7
2023-09-05T06:00	14986	132	-66.1	-81.6	320	7
2023-09-05T06:00	15009	132	-66.3	-81.7	318	6
2023-09-05T06:00	15030	131	-66.5	-81.8	318	6
2023-09-05T06:00	15051	131	-66.6	-81.9	319	6
2023-09-05T06:00	15075	130	-66.6	-81.8	320	7
2023-09-05T06:00	15097	130	-66.7	-81.9	322	7
2023-09-05T06:00	15118	129	-66.9	-82.1	323	7
2023-09-05T06:00	15139	129	-66.9	-82.1	324	8
2023-09-05T06:00	15161	128	-66.9	-82.1	324	8
2023-09-05T06:00	15184	128	-66.9	-82.2	323	9
2023-09-05T06:00	15206	127	-67.0	-82.3	322	9
2023-09-05T06:00	15229	127	-66.9	-82.3	319	9
2023-09-05T06:00	15250	127	-66.1	-81.7	317	10
2023-09-05T06:00	15272	126	-66.0	-81.7	315	10
2023-09-05T06:00	15294	126	-66.0	-81.6	314	10
2023-09-05T06:00	15315	125	-66.1	-81.7	313	10
2023-09-05T06:00	15333	125	-66.3	-81.7	313	10
2023-09-05T06:00	15358	124	-66.4	-81.7	314	11
2023-09-05T06:00	15381	124	-66.6	-81.8	316	11
2023-09-05T06:00	15401	123	-66.8	-81.9	318	12
2023-09-05T06:00	15426	123	-66.7	-81.9	321	13
2023-09-05T06:00	15450	122	-66.5	-81.9	324	14
2023-09-05T06:00	15470	122	-66.2	-81.8	327	14
2023-09-05T06:00	15493	122	-66.0	-81.8	330	15
2023-09-05T06:00	15516	121	-65.9	-82.0	333	16
2023-09-05T06:00	15536	121	-65.6	-81.9	335	16
2023-09-05T06:00	15560	120	-65.5	-81.9	337	16
2023-09-05T06:00	15583	120	-65.7	-82.2	340	16
2023-09-05T06:00	15604	119	-65.6	-82.2	342	16
2023-09-05T06:00	15624	119	-65.7	-82.4	343	16
2023-09-05T06:00	15648	119	-65.7	-82.6	344	16
2023-09-05T06:00	15671	118	-65.5	-82.5	346	15
2023-09-05T06:00	15693	118	-65.6	-82.6	347	15
2023-09-05T06:00	15717	117	-65.8	-82.7	348	15
2023-09-05T06:00	15738	117	-66.0	-82.7	350	14
2023-09-05T06:00	15762	116	-66.1	-82.8	352	14
2023-09-05T06:00	15786	116	-66.4	-83.0	355	14
2023-09-05T06:00	15808	115	-66.4	-82.9	358	13
2023-09-05T06:00	15831	115	-66.5	-82.9	1	13
2023-09-05T06:00	15849	115	-66.7	-83.1	4	12
2023-09-05T06:00	15872	114	-66.7	-83.1	7	11
2023-09-05T06:00	15897	114	-66.8	-83.2	10	11
2023-09-05T06:00	15921	113	-66.8	-83.2	13	10
2023-09-05T06:00	15943	113	-66.8	-83.3	16	9
2023-09-05T06:00	15963	112	-66.7	-83.3	18	8
2023-09-05T06:00	15985	112	-66.5	-83.2	21	7
2023-09-05T06:00	16010	112	-66.2		24	7
2023-09-05T06:00	16032	111	-66.1	-83.1	26	6
2023-09-05T06:00	16056	111	-66.2	-83.2	29	5
2023-09-05T06:00	16078	110	-66.3	-83.2	33	5
2023-09-05T06:00	16099	110	-66.3	-83.2	37	4
2023-09-05T06:00	16124	110	-66.3	-83.2	41	4
2023-09-05T06:00	16146	109	-66.3	-83.2	46	3
2023-09-05T06:00	16169	109	-66.3	-83.2	50	3
2023-09-05T06:00	16193	108	-66.4	-83.2	51	2
2023-09-05T06:00	16218	108	-66.5	-83.2	45	2
2023-09-05T06:00	16240	107	-66.7	-83.4	25	1
2023-09-05T06:00	16267	107	-66.7	-83.5	345	1
2023-09-05T06:00	16287	107	-66.4	-83.3	310	1
2023-09-05T06:00	16311	106	-66.2	-83.4	293	2
2023-09-05T06:00	16333	106	-66.0	-83.5	284	2
2023-09-05T06:00	16357	105	-65.6	-83.4	281	2
2023-09-05T06:00	16380	105	-65.2	-83.5	284	2
2023-09-05T06:00	16404	105	-64.7	-83.4	290	2
2023-09-05T06:00	16428	104	-64.6	-83.5	298	3
2023-09-05T06:00	16453	104	-64.7	-83.7	303	3
2023-09-05T06:00	16475	103	-64.8	-83.9	306	3
2023-09-05T06:00	16496	103	-65.0	-84.2	306	3
2023-09-05T06:00	16518	103	-65.0	-84.2	304	3
2023-09-05T06:00	16543	102	-64.9	-84.2	301	3
2023-09-05T06:00	16567	102	-64.8	-84.3	297	2
2023-09-05T06:00	16587	101	-64.7	-84.3	297	2
2023-09-05T06:00	16608	101	-64.8	-84.5	300	2
2023-09-05T06:00	16633	101	-64.6	-84.4	308	2
2023-09-05T06:00	16653	100	-64.6	-84.4	321	2
2023-09-05T06:00	16679	100	-64.8	-84.5	336	2
2023-09-05T06:00	16700	100	-64.9	-84.7	353	2
2023-09-05T06:00	16722	99	-65.0	-84.8	6	2
2023-09-05T06:00	16744	99	-64.8	-84.9	14	2
2023-09-05T06:00	16769	99	-64.6	-84.9	18	2
2023-09-05T06:00	16790	98	-64.4	-85.0	17	2
2023-09-05T06:00	16815	98	-63.8	-84.7	10	2
2023-09-05T06:00	16836	97	-63.7	-84.9	351	1
2023-09-05T06:00	16863	97	-63.7	-84.9	326	2
2023-09-05T06:00	16883	97	-63.8	-85.1	310	2
2023-09-05T06:00	16904	96	-63.9	-85.2	304	3
2023-09-05T06:00	16930	96	-63.9	-85.4	303	4
2023-09-05T06:00	16953	96	-63.6	-85.3	302	4
2023-09-05T06:00	16978	95	-63.7	-85.4	301	4
2023-09-05T06:00	17002	95	-63.7	-85.5	298	4
2023-09-05T06:00	17027	95	-63.4	-85.5	292	4
2023-09-05T06:00	17048	94	-63.1	-85.4	281	3
2023-09-05T06:00	17072	94	-63.1	-85.6	267	3
2023-09-05T06:00	17092	93	-62.8	-85.4	252	3
2023-09-05T06:00	17118	93	-62.7	-85.5	242	3
2023-09-05T06:00	17139	93	-62.7	-85.5	238	3
2023-09-05T06:00	17165	92	-62.6	-85.4	241	4
2023-09-05T06:00	17184	92	-62.6	-85.6	248	4
2023-09-05T06:00	17208	92	-62.3	-85.4	259	4
2023-09-05T06:00	17232	91	-61.9	-85.3	270	5
2023-09-05T06:00	17256	91	-61.9	-85.5	279	5
2023-09-05T06:00	17282	91	-61.8	-85.4	287	6
2023-09-05T06:00	17303	90	-61.7	-85.3	294	6
2023-09-05T06:00	17330	90	-61.9	-85.7	301	7
2023-09-05T06:00	17353	90	-62.0	-85.8	306	7
2023-09-05T06:00	17377	89	-62.0	-86.0	312	7
2023-09-05T06:00	17400	89	-61.8	-85.9	316	7
2023-09-05T06:00	17421	89	-61.7	-86.0	320	7
2023-09-05T06:00	17445	88	-61.7	-86.0	323	7
2023-09-05T06:00	17470	88	-61.7	-86.0	324	7
2023-09-05T06:00	17492	88	-61.6	-86.2	324	7
2023-09-05T06:00	17517	87	-61.4	-86.0	322	6
2023-09-05T06:00	17541	87	-61.3	-86.0	319	6
2023-09-05T06:00	17564	87	-61.3	-86.0	315	6
2023-09-05T06:00	17587	86	-61.1	-86.1	311	6
2023-09-05T06:00	17613	86	-61.1	-86.1	309	6
2023-09-05T06:00	17637	86	-61.0	-86.0	309	6
2023-09-05T06:00	17661	85	-60.9	-85.9	310	7
2023-09-05T06:00	17686	85	-60.9	-85.9	313	7
2023-09-05T06:00	17710	85	-61.1	-86.1	316	8
2023-09-05T06:00	17732	84	-61.2	-86.2	320	8
2023-09-05T06:00	17755	84	-61.3	-86.2	325	8
2023-09-05T06:00	17782	84	-61.3	-86.2	331	8
2023-09-05T06:00	17806	83	-61.3	-86.2	336	9
2023-09-05T06:00	17828	83	-61.3	-86.2	342	9
2023-09-05T06:00	17848	83	-61.3	-86.2	347	10
2023-09-05T06:00	17873	82	-61.2	-86.2	351	10
2023-09-05T06:00	17899	82	-61.3	-86.2	353	11
2023-09-05T06:00	17917	82	-61.4	-86.6	354	11
2023-09-05T06:00	17940	81	-61.3	-86.5	355	11
2023-09-05T06:00	17964	81	-61.0	-86.6	356	12
2023-09-05T06:00	17989	81	-60.9	-86.5	356	12
2023-09-05T06:00	18012	81	-60.7	-86.3	357	12
2023-09-05T06:00	18039	80	-60.7	-86.3	357	12
2023-09-05T06:00	18059	80	-60.7	-86.6	358	12
2023-09-05T06:00	18087	80	-60.7	-86.6	358	12
2023-09-05T06:00	18106	79	-60.5	-86.5	358	11
2023-09-05T06:00	18133	79	-60.4		358	11
2023-09-05T06:00	18156	79	-60.4		358	11
2023-09-05T06:00	18178	78	-60.5	-86.5	359	11
2023-09-05T06:00	18200	78	-60.5	-86.5	1	11
2023-09-05T06:00	18226	78	-60.5	-86.2	3	10
2023-09-05T06:00	18250	78	-60.6	-86.3	6	10
2023-09-05T06:00	18272	77	-60.7	-86.3	9	9
2023-09-05T06:00	18298	77	-60.8	-86.4	12	9
2023-09-05T06:00	18321	77	-60.9	-86.5	14	9
2023-09-05T06:00	18345	76	-60.9	-86.8	15	8
2023-09-05T06:00	18365	76	-60.7	-86.6	17	8
2023-09-05T06:00	18388	76	-60.7	-86.6	18	7
2023-09-05T06:00	18418	76	-60.7	-86.6	19	7
2023-09-05T06:00	18432	75	-60.7	-86.6	20	6
2023-09-05T06:00	18458	75	-60.7	-86.6	22	6
2023-09-05T06:00	18480	75	-60.7	-86.6	23	6
2023-09-05T06:00	18506	74	-60.8		25	5
2023-09-05T06:00	18530	74	-60.8	-86.4	27	5
2023-09-05T06:00	18554	74	-60.9	-86.5	27	5
2023-09-05T06:00	18576	74	-61.1	-86.6	27	5
2023-09-05T06:00	18600	73	-61.3	-86.8	25	5
2023-09-05T06:00	18628	73	-61.4	-86.6	21	5
2023-09-05T06:00	18651	73	-61.5	-86.7	15	4
2023-09-05T06:00	18673	72	-61.7	-86.8	8	4
2023-09-05T06:00	18699	72	-61.9	-87.0	3	4
2023-09-05T06:00	18720	72	-62.0	-87.1	2	4
2023-09-05T06:00	18746	72	-62.0	-87.1	4	4
2023-09-05T06:00	18771	71	-61.9	-87.3	10	3
2023-09-05T06:00	18797	71	-61.8	-87.2	15	3
2023-09-05T06:00	18822	71	-61.9	-87.3	18	3
2023-09-05T06:00	18847	70	-62.0	-87.3	17	3
2023-09-05T06:00	18876	70	-61.9	-87.3	12	3
2023-09-05T06:00	18901	70	-61.9	-87.3	7	4
2023-09-05T06:00	18925	70	-61.7	-87.1	2	4
2023-09-05T06:00	18951	69	-61.8	-87.2	360	5
2023-09-05T06:00	18975	69	-61.9	-87.3	359	5
2023-09-05T06:00	19000	69	-61.9	-87.3	1	6
2023-09-05T06:00	19028	68	-62.0	-87.3	5	6
2023-09-05T06:00	19055	68	-62.1	-87.4	10	6
2023-09-05T06:00	19078	68	-62.1	-87.4	16	6
2023-09-05T06:00	19103	68	-62.0	-87.3	21	6
2023-09-05T06:00	19129	67	-61.8	-87.5	23	6
2023-09-05T06:00	19155	67	-61.6	-87.3	24	6
2023-09-05T06:00	19182	67	-61.6	-87.3	22	5
2023-09-05T06:00	19205	67	-61.3	-87.4	19	5
2023-09-05T06:00	19231	66	-61.3	-87.4	17	5
2023-09-05T06:00	19248	66	-61.1	-87.3	15	4
2023-09-05T06:00	19278	66	-61.2	-87.3	15	4
2023-09-05T06:00	19301	65	-61.2	-87.0	15	4
2023-09-05T06:00	19324	65	-61.3	-87.1	15	4
2023-09-05T06:00	19352	65	-61.4	-87.2	15	4
2023-09-05T06:00	19376	65	-61.4	-87.2	14	4
2023-09-05T06:00	19395	64	-61.4	-87.2	13	4
2023-09-05T06:00	19417	64	-61.3	-87.4	10	4
2023-09-05T06:00	19441	64	-61.2	-87.3	7	4
2023-09-05T06:00	19464	64	-61.2	-87.3	4	5
2023-09-05T06:00	19489	64	-61.2	-87.3	1	5
2023-09-05T06:00	19511	63	-61.2	-87.3	1	5
2023-09-05T06:00	19536	63	-61.2	-87.3	2	5
2023-09-05T06:00	19559	63	-61.4	-87.5	7	6
2023-09-05T06:00	19585	63	-61.2	-87.3	12	6
2023-09-05T06:00	19603	62	-61.2	-87.3	18	6
2023-09-05T06:00	19628	62	-61.1	-87.3	24	6
2023-09-05T06:00	19652	62	-60.8	-87.4	30	6
2023-09-05T06:00	19675	62	-60.9	-87.5	35	6
2023-09-05T06:00	19698	61	-60.9	-87.5	39	6
2023-09-05T06:00	19718	61	-60.9	-87.5	41	5
2023-09-05T06:00	19740	61	-60.8	-87.4	42	5
2023-09-05T06:00	19765	61	-60.6	-87.6	42	4
2023-09-05T06:00	19787	61	-60.2	-87.3	38	3
2023-09-05T06:00	19812	60	-59.8	-87.0	32	3
2023-09-05T06:00	19837	60	-59.7	-87.3	24	2
2023-09-05T06:00	19858	60	-59.7	-87.3	17	2
2023-09-05T06:00	19876	60	-59.8	-87.4	16	2
2023-09-05T06:00	19908	59	-59.7	-86.9	21	3
2023-09-05T06:00	19924	59	-59.7	-86.9	30	3
2023-09-05T06:00	19951	59	-59.6	-86.8	41	3
2023-09-05T06:00	19974	59	-59.5	-86.8	52	3
2023-09-05T06:00	19997	59	-59.5	-86.8	62	3
2023-09-05T06:00	20020	58	-59.5	-86.8	73	4
2023-09-05T06:00	20044	58	-59.6	-86.8	82	4
2023-09-05T06:00	20075	58	-59.7	-87.3	89	4
2023-09-05T06:00	20097	58	-59.5	-87.1	94	4
2023-09-05T06:00	20121	57	-59.0	-86.8	97	4
2023-09-05T06:00	20146	57	-58.8	-86.6	99	4
2023-09-05T06:00	20174	57	-58.8	-86.6	99	4
2023-09-05T06:00	20199	57	-58.9	-86.7	100	4
2023-09-05T06:00	20225	56	-58.9	-86.7	101	4
2023-09-05T06:00	20247	56	-59.0	-86.8	102	4
2023-09-05T06:00	20277	56	-59.1	-86.8	102	4
2023-09-05T06:00	20304	56	-59.1	-86.8	100	4
2023-09-05T06:00	20328	56	-59.2	-86.5	97	4
2023-09-05T06:00	20350	55	-59.2	-86.5	91	4
2023-09-05T06:00	20381	55	-59.3	-86.6	85	4
2023-09-05T06:00	20407	55	-59.5	-86.8	80	4
2023-09-05T06:00	20434	55	-59.7	-86.9	77	4
2023-09-05T06:00	20460	54	-59.8	-87.0	79	4
2023-09-05T06:00	20486	54	-59.9	-87.1	83	4
2023-09-05T06:00	20508	54	-59.6	-86.8	90	4
2023-09-05T06:00	20533	54	-59.4	-87.1	96	4
2023-09-05T06:00	20562	53	-59.3	-87.0	102	4
2023-09-05T06:00	20588	53	-59.3	-87.0	105	4
2023-09-05T06:00	20613	53	-59.4	-87.1	107	4
2023-09-05T06:00	20634	53	-59.2	-86.9	110	4
2023-09-05T06:00	20664	53	-59.3	-87.0	115	4
2023-09-05T06:00	20687	52	-59.5	-86.8	122	4
2023-09-05T06:00	20711	52	-59.5	-86.8	130	4
2023-09-05T06:00	20741	52	-59.6	-86.8	138	4
2023-09-05T06:00	20768	52	-59.7	-86.9	142	4
2023-09-05T06:00	20795	52	-59.7	-86.9	143	3
2023-09-05T06:00	20822	51	-59.7	-86.9	139	3
2023-09-05T06:00	20845	51	-59.8	-87.0	130	3
2023-09-05T06:00	20871	51	-59.9	-87.1	116	2
2023-09-05T06:00	20900	51	-59.7	-87.3	99	2
2023-09-05T06:00	20922	50	-59.7	-87.3	85	2
2023-09-05T06:00	20947	50	-59.7	-87.3	76	2
2023-09-05T06:00	20976	50	-59.6	-87.2	70	2
2023-09-05T06:00	20999	50	-59.6	-87.2	67	2
2023-09-05T06:00	21020	50	-59.4	-87.1	66	2
2023-09-05T06:00	21048	50	-59.3	-87.0	65	3
2023-09-05T06:00	21074	49	-59.3	-87.0	64	3
2023-09-05T06:00	21100	49	-59.2	-86.9	64	4
2023-09-05T06:00	21121	49	-59.2	-86.9	64	4
2023-09-05T06:00	21144	49	-59.1	-86.8	64	4
2023-09-05T06:00	21173	49	-59.2	-86.9	66	4
2023-09-05T06:00	21198	48	-59.2	-86.9	68	4
2023-09-05T06:00	21217	48	-59.2	-86.9	70	3
2023-09-05T06:00	21248	48	-59.3	-87.0	72	3
2023-09-05T06:00	21273	48	-59.4	-87.1	73	3
2023-09-05T06:00	21293	48	-59.4	-86.7	72	2
2023-09-05T06:00	21319	47	-59.5	-86.8	68	2
2023-09-05T06:00	21345	47	-59.6	-86.8	59	2
2023-09-05T06:00	21369	47	-59.6	-86.8	46	1
2023-09-05T06:00	21396	47	-59.6	-86.8	33	1
2023-09-05T06:00	21424	47	-59.7	-86.9	21	1
2023-09-05T06:00	21446	46	-59.7	-86.9	14	1
2023-09-05T06:00	21476	46	-59.7	-87.3	12	1
2023-09-05T06:00	21498	46	-59.6	-87.2	18	2
2023-09-05T06:00	21528	46	-59.6	-87.2	26	2
2023-09-05T06:00	21555	46	-59.5	-87.1	31	2
2023-09-05T06:00	21581	45	-59.3	-87.4	33	3
2023-09-05T06:00	21608	45	-59.1	-87.3	34	3
2023-09-05T06:00	21642	45	-58.9	-87.1	36	4
2023-09-05T06:00	21655	45	-58.6	-86.9	40	4
2023-09-05T06:00	21684	45	-58.2	-87.0	48	4
2023-09-05T06:00	21715	45	-57.9	-86.8	60	4
2023-09-05T06:00	21735	44	-57.9	-86.8	74	4
2023-09-05T06:00	21758	44	-57.8	-86.7	87	4
2023-09-05T06:00	21787	44	-57.8	-86.7	99	5
2023-09-05T06:00	21814	44	-57.7	-86.7	110	5
2023-09-05T06:00	21840	44	-57.5	-86.5	118	6
2023-09-05T06:00	21860	43	-57.6	-86.6	123	6
2023-09-05T06:00	21897	43	-57.7	-86.7	126	6
2023-09-05T06:00	21919	43	-57.8	-86.7	127	7
2023-09-05T06:00	21945	43	-57.6	-86.6	126	7
2023-09-05T06:00	21974	43	-57.3	-86.4	123	6
2023-09-05T06:00	22001	43	-57.3	-86.4	120	6
2023-09-05T06:00	22018	42	-57.3	-86.4	116	6
2023-09-05T06:00	22049	42	-57.3	-86.4	111	5
2023-09-05T06:00	22075	42	-57.2	-86.3	108	5
2023-09-05T06:00	22101	42	-57.1	-86.2	106	5
2023-09-05T06:00	22125	42	-57.0	-86.1	106	5
2023-09-05T06:00	22147	42	-56.8	-86.0	108	5
2023-09-05T06:00	22173	41	-56.6	-86.3	111	5
2023-09-05T06:00	22203	41	-56.6	-86.3	113	5
2023-09-05T06:00	22230	41	-56.6	-85.8	115	5
2023-09-05T06:00	22252	41	-56.7	-85.9	116	4
2023-09-05T06:00	22278	41	-56.7	-85.9	116	4
2023-09-05T06:00	22312	41	-56.8	-86.0	116	4
2023-09-05T06:00	22337	40	-56.9	-86.1	116	4
2023-09-05T06:00	22362	40	-56.9	-86.1	116	4
2023-09-05T06:00	22389	40	-57.0	-86.1	115	4
2023-09-05T06:00	22412	40	-57.1	-86.2	115	4
2023-09-05T06:00	22444	40	-57.1	-86.2	113	5
2023-09-05T06:00	22463	40	-57.2	-86.3	112	5
2023-09-05T06:00	22492	39	-57.2	-85.8	109	4
2023-09-05T06:00	22518	39	-57.3	-85.9	105	4
2023-09-05T06:00	22548	39	-57.4	-86.0	100	3
2023-09-05T06:00	22581	39	-57.5	-86.1	95	3
2023-09-05T06:00	22606	39	-57.6	-86.6	92	2
2023-09-05T06:00	22632	38	-57.7	-86.7	94	2
2023-09-05T06:00	22655	38	-57.6	-86.6	99	2
2023-09-05T06:00	22683	38	-57.4	-86.4	106	2
2023-09-05T06:00	22710	38	-57.4	-86.4	112	3
2023-09-05T06:00	22735	38	-57.5	-86.5	118	3
2023-09-05T06:00	22768	38	-57.6	-86.6	125	3
2023-09-05T06:00	22787	38	-57.6	-86.6	134	3
2023-09-05T06:00	22825	37	-57.7	-86.7	144	3
2023-09-05T06:00	22847	37	-57.7	-86.7	152	3
2023-09-05T06:00	22875	37	-57.7	-86.7	156	3
2023-09-05T06:00	22901	37	-57.6	-86.6	158	3
2023-09-05T06:00	22922	37	-57.4	-86.4	157	2
2023-09-05T06:00	22951	37	-57.3	-86.4	157	2
2023-09-05T06:00	22976	36	-57.3	-86.4	157	2
2023-09-05T06:00	23002	36	-57.2	-86.3	161	1
2023-09-05T06:00	23035	36	-57.3	-86.4	174	1
2023-09-05T06:00	23053	36	-57.3	-86.4	256	0
2023-09-05T06:00	23093	36	-57.4	-86.4	314	1
2023-09-05T06:00	23113	36	-57.3	-86.4	326	1
2023-09-05T06:00	23140	36	-57.2	-86.3	332	2
2023-09-05T06:00	23166	35	-57.1	-86.7	339	2
2023-09-05T06:00	23186	35	-57.0	-86.6	345	2
2023-09-05T06:00	23217	35	-57.0	-86.6	352	2
2023-09-05T06:00	23248	35	-56.8	-86.5	359	2
2023-09-05T06:00	23278	35	-56.8	-86.5	4	2
2023-09-05T06:00	23301	35	-56.8	-86.5	6	2
2023-09-05T06:00	23328	34	-56.9	-86.6	6	2
2023-09-05T06:00	23352	34	-56.9	-86.1	4	2
2023-09-05T06:00	23382	34	-57.0	-86.1	2	2
2023-09-05T06:00	23405	34	-57.1	-86.2	1	2
2023-09-05T06:00	23431	34	-57.0	-86.1	2	3
2023-09-05T06:00	23460	34	-56.9	-86.1	3	3
2023-09-05T06:00	23491	34	-57.0	-86.6	5	4
2023-09-05T06:00	23511	33	-57.0	-86.6	8	5
2023-09-05T06:00	23533	33	-56.9	-86.6	11	5
2023-09-05T06:00	23563	33	-56.8	-86.5	14	5
2023-09-05T06:00	23589	33	-56.6	-86.3	18	5
2023-09-05T06:00	23623	33	-56.5	-86.3	23	5
2023-09-05T06:00	23643	33	-56.4	-86.2	30	5
2023-09-05T06:00	23676	33	-56.2	-86.0	37	4
2023-09-05T06:00	23707	33	-56.0	-86.4	44	4
2023-09-05T06:00	23726	32	-55.8	-86.3	48	4
2023-09-05T06:00	23756	32	-55.9	-85.8	50	5
2023-09-05T06:00	23782	32	-55.9	-85.8	52	5
2023-09-05T06:00	23807	32	-55.9	-85.8	53	5
2023-09-05T06:00	23836	32	-56.0	-85.9	55	6
2023-09-05T06:00	23854	32	-56.2	-86.0	56	6
2023-09-05T06:00	23888	32	-56.4	-85.7	58	6
2023-09-05T06:00	23913	31	-56.5	-85.8	59	6
2023-09-05T06:00	23937	31	-56.6	-85.8	58	6
2023-09-05T06:00	23961	31	-56.7	-85.9	57	6
2023-09-05T06:00	23994	31	-56.8	-86.0	54	7
2023-09-05T06:00	24025	31	-56.9	-86.1	52	7
2023-09-05T06:00	24043	31	-56.9	-86.1	50	8
2023-09-05T06:00	24074	31	-56.9	-86.1	48	8
2023-09-05T06:00	24102	31	-56.8	-86.5	47	8
2023-09-05T06:00	24130	30	-56.7	-86.4	46	8
2023-09-05T06:00	24155	30	-56.4	-86.2	46	7
2023-09-05T06:00	24184	30	-56.0	-86.4	48	6
2023-09-05T06:00	24212	30	-55.7	-86.2	52	6
2023-09-05T06:00	24241	30	-55.5	-86.1	58	5
2023-09-05T06:00	24269	30	-55.5	-86.1	68	4
2023-09-05T06:00	24297	30	-55.5	-86.1	83	3
2023-09-05T06:00	24331	29	-55.5	-86.1	99	3
2023-09-05T06:00	24353	29	-55.5	-86.1	115	3
2023-09-05T06:00	24373	29	-55.6	-85.6	127	3
2023-09-05T06:00	24404	29	-55.7	-85.7	136	4
2023-09-05T06:00	24432	29	-55.8	-85.7	143	4
2023-09-05T06:00	24452	29	-55.7	-85.7	149	4
2023-09-05T06:00	24489	29	-55.6	-85.6	157	3
2023-09-05T06:00	24514	29	-55.7	-85.7	168	3
2023-09-05T06:00	24536	29	-55.8	-85.7	183	3
2023-09-05T06:00	24568	28	-55.8	-85.7	200	2
2023-09-05T06:00	24592	28	-55.9	-85.8	219	2
2023-09-05T06:00	24624	28	-55.9	-85.8	241	2
2023-09-05T06:00	24656	28	-55.7	-85.7	265	2
2023-09-05T06:00	24682	28	-55.6	-85.6	284	2
2023-09-05T06:00	24714	28	-55.9	-85.8	296	2
2023-09-05T06:00	24736	28	-56.1	-86.0	302	3
2023-09-05T06:00	24773	27	-56.0	-85.9	304	3
2023-09-05T06:00	24801	27	-56.0	-85.9	307	4
2023-09-05T06:00	24830	27	-55.9	-85.8	310	4
2023-09-05T06:00	24855	27	-55.8	-85.7	315	4
2023-09-05T06:00	24883	27	-55.8	-85.7	320	5
2023-09-05T06:00	24913	27	-55.8	-85.7	325	5
2023-09-05T06:00	24933	27	-56.0	-85.9	332	5
2023-09-05T06:00	24971	27	-56.1	-86.0	340	5
2023-09-05T06:00	25002	27	-56.2	-86.0	349	5
2023-09-05T06:00	25035	26	-56.4	-86.2	0	5
2023-09-05T06:00	25059	26	-56.5	-86.3	10	6
2023-09-05T06:00	25084	26	-56.4	-85.7	20	6
2023-09-05T06:00	25123	26	-56.6	-85.8	28	6
2023-09-05T06:00	25147	26	-56.7	-85.9	35	7
2023-09-05T06:00	25169	26	-56.9	-86.1	41	7
2023-09-05T06:00	25209	26	-56.9	-86.1	45	8
2023-09-05T06:00	25240	26	-57.1	-86.2	48	8
2023-09-05T06:00	25266	25	-57.3	-86.9	50	8
2023-09-05T06:00	25293	25	-56.8	-86.5	50	8
2023-09-05T06:00	25329	25	-56.4	-86.2	48	8
2023-09-05T06:00	25356	25	-56.3	-86.6	44	7
2023-09-05T06:00	25394	25	-56.2	-86.6	38	6
2023-09-05T06:00	25422	25	-56.1	-86.5	26	5
2023-09-05T06:00	25451	25	-55.7	-86.8	9	4
2023-09-05T06:00	25479	25	-55.3	-86.5	348	3
2023-09-05T06:00	25516	24	-55.1	-86.4	330	3
2023-09-05T06:00	25541	24	-54.9	-86.2	320	4
2023-09-05T06:00	25557	24	-54.7	-86.1	317	4
2023-09-05T06:00	25584	24	-54.5	-85.9	320	4
2023-09-05T06:00	25617	24	-54.1	-85.6	328	3
2023-09-05T06:00	25645	24	-53.9	-85.5	341	3
2023-09-05T06:00	25675	24	-53.8	-85.4	356	3
2023-09-05T06:00	25714	24	-53.7	-85.3	12	3
2023-09-05T06:00	25733	24	-53.7	-85.3	29	4
2023-09-05T06:00	25765	24	-53.8	-85.4	46	4
2023-09-05T06:00	25797	23	-53.8	-85.4	62	4
2023-09-05T06:00	25827	23	-53.8	-85.4	76	4
2023-09-05T06:00	25852	23	-53.6	-85.3	90	4
2023-09-05T06:00	25877	23	-53.2	-85.6	105	4
2023-09-05T06:00	25900	23	-52.7	-85.3	120	4
2023-09-05T06:00	25932	23	-52.2	-84.9	135	4
2023-09-05T06:00	25960	23	-51.9	-84.7	148	4
2023-09-05T06:00	25990	23	-52.0	-84.8	160	4
2023-09-05T06:00	26030	23	-52.2	-84.9	170	5
2023-09-05T06:00	26050	23	-52.2	-84.9	177	5
2023-09-05T06:00	26084	22	-52.1	-84.8	184	6
2023-09-05T06:00	26100	22	-51.8	-84.6	189	6
2023-09-05T06:00	26138	22	-51.5	-84.4	194	6
2023-09-05T06:00	26161	22	-51.2	-84.2	200	6
2023-09-05T06:00	26191	22	-51.1	-84.1	205	6
2023-09-05T06:00	26217	22	-50.9	-84.0	212	6
2023-09-05T06:00	26256	22	-50.9	-84.0	219	6
2023-09-05T06:00	26283	22	-51.0	-84.0	227	6
2023-09-05T06:00	26315	22	-51.1	-84.1	236	6
2023-09-05T06:00	26344	22	-51.2	-84.2	244	6
2023-09-05T06:00	26377	21	-51.3	-83.6	252	6
2023-09-05T06:00	26401	21	-51.5	-83.7	259	6
2023-09-05T06:00	26432	21	-51.6	-83.8	265	6
2023-09-05T06:00	26459	21	-51.8	-83.9	271	6
2023-09-05T06:00	26491	21	-52.0	-84.1	277	6
2023-09-05T06:00	26513	21	-52.2	-84.2	284	6
2023-09-05T06:00	26552	21	-52.4	-84.4	292	6
2023-09-05T06:00	26584	21	-52.5	-84.4	299	6
2023-09-05T06:00	26607	21	-52.5	-84.4	306	6
2023-09-05T06:00	26637	21	-52.6	-84.5	312	7
2023-09-05T06:00	26666	20	-52.5	-84.4	316	7
2023-09-05T06:00	26697	20	-52.5	-84.4	319	8
2023-09-05T06:00	26730	20	-52.5	-84.4	321	8
2023-09-05T06:00	26756	20	-52.5	-84.4	323	8
2023-09-05T06:00	26784	20	-52.3	-84.3	324	7
2023-09-05T06:00	26821	20	-52.3	-84.3	325	7
2023-09-05T06:00	26857	20	-52.3	-84.3	325	6
2023-09-05T06:00	26880	20	-52.3	-84.3	325	4
2023-09-05T06:00	26907	20	-52.3	-84.3	326	3
2023-09-05T06:00	26930	20	-52.4	-84.4	328	3
2023-09-05T06:00	26974	20	-52.5	-84.4	330	2
2023-09-05T06:00	27005	19	-52.6	-84.5	332	2
2023-09-05T06:00	27026	19	-52.7	-84.6	327	1
2023-09-05T06:00	27056	19	-52.6	-84.5	299	1
2023-09-05T06:00	27100	19	-52.5	-85.1	221	1
2023-09-05T06:00	27125	19	-52.3	-85.0	195	1
2023-09-05T06:00	27156	19	-52.0	-84.8	188	2
2023-09-05T06:00	27188	19	-52.0	-84.8	185	3
2023-09-05T06:00	27221	19	-52.0	-84.8	186	4
2023-09-05T06:00	27252	19	-52.0	-84.8	189	4
2023-09-05T06:00	27275	19	-51.8	-84.6	195	4
2023-09-05T06:00	27306	19	-51.6	-84.5	202	3
2023-09-05T06:00	27329	18	-51.7	-84.5	213	3
2023-09-05T06:00	27367	18	-51.8	-84.6	225	3
2023-09-05T06:00	27402	18	-51.6	-84.5	241	2
2023-09-05T06:00	27415	18	-51.5	-84.4	260	2
2023-09-05T06:00	27450	18	-51.5	-84.4	281	2
2023-09-05T06:00	27494	18	-51.6	-84.5	298	2
2023-09-05T06:00	27518	18	-51.6	-84.5	309	2
2023-09-05T06:00	27544	18	-51.7	-84.5	312	2
2023-09-05T06:00	27573	18	-51.7	-84.5	311	2
2023-09-05T06:00	27601	18	-51.7	-84.5	306	2
2023-09-05T06:00	27630	18	-51.8	-84.6	302	2
2023-09-05T06:00	27649	18	-51.8	-84.6	298	2
2023-09-05T06:00	27676	18	-51.9	-84.7	294	2
2023-09-05T06:00	27718	17	-51.9	-84.7	283	1
2023-09-05T06:00	27744	17	-51.8	-84.6	261	1
2023-09-05T06:00	27780	17	-51.5	-84.4	240	2
2023-09-05T06:00	27812	17	-51.3	-84.3	230	2
2023-09-05T06:00	27837	17	-51.4	-84.3	231	2
2023-09-05T06:00	27873	17	-51.5	-84.4	238	2
2023-09-05T06:00	27901	17	-51.7	-84.5	249	3
2023-09-05T06:00	27927	17	-51.7	-84.5	260	3
2023-09-05T06:00	27952	17	-51.6	-84.5	267	3
2023-09-05T06:00	27999	17	-51.4	-84.3	270	3
2023-09-05T06:00	28028	17	-51.2	-84.2	268	2
2023-09-05T06:00	28054	17	-51.2	-84.2	260	2
2023-09-05T06:00	28089	16	-51.0	-84.0	249	2
2023-09-05T06:00	28112	16	-50.9	-84.0	243	2
2023-09-05T06:00	28145	16	-50.7	-83.8	243	3
2023-09-05T06:00	28183	16	-50.7	-83.8	248	4
2023-09-05T06:00	28213	16	-50.7	-83.8	254	4
2023-09-05T06:00	28262	16	-50.6	-83.7	260	5
2023-09-05T06:00	28273	16	-50.7	-83.8	266	5
2023-09-05T06:00	28312	16	-50.7	-83.8	271	6
2023-09-05T06:00	28356	16	-50.8	-83.9	276	6
2023-09-05T06:00	28377	16	-50.8	-83.9	280	6
2023-09-05T06:00	28407	16	-50.9	-84.0	284	6
2023-09-05T06:00	28446	16	-51.0	-84.0	287	6
2023-09-05T06:00	28465	16	-50.9	-84.0	290	6
2023-09-05T06:00	28508	15	-50.8	-83.9	292	6
2023-09-05T06:00	28539	15	-50.8	-83.9	296	6
2023-09-05T06:00	28573	15	-51.0	-84.0	299	6
2023-09-05T06:00	28599	15	-51.0	-84.0	303	6
2023-09-05T06:00	28619	15	-51.1	-84.1	307	5
2023-09-05T06:00	28671	15	-51.0	-84.0	310	5
2023-09-05T06:00	28688	15	-50.8	-83.9	312	5
2023-09-05T06:00	28730	15	-50.8	-83.9	313	4
2023-09-05T06:00	28748	15	-50.9	-84.0	312	4
2023-09-05T06:00	28791	15	-50.8	-84.7	309	3
2023-09-05T06:00	28826	15	-50.5	-84.5	298	2
2023-09-05T06:00	28832	15	-50.1	-84.2	272	1
2023-09-05T06:00	28885	15	-50.0	-84.1	242	2
2023-09-05T06:00	28896	15	-50.0	-84.1	229	2
2023-09-05T06:00	28933	14	-50.0	-84.1	227	2
2023-09-05T06:00	28973	14	-50.0	-84.1	231	2
2023-09-05T06:00	29000	14	-49.9	-84.0	243	2
2023-09-05T06:00	29019	14	-49.8	-84.0	261	2
2023-09-05T06:00	29058	14	-49.7	-83.9	282	3
2023-09-05T06:00	29095	14	-49.8	-84.0	300	4
2023-09-05T06:00	29121	14	-49.9	-84.0	312	4
2023-09-05T06:00	29150	14	-50.0	-84.1	321	5
2023-09-05T06:00	29176	14	-49.9	-84.0	327	6
2023-09-05T06:00	29213	14	-49.7	-83.9	332	7
2023-09-05T06:00	29237	14	-49.6	-83.8	335	7
2023-09-05T06:00	29265	14	-49.6	-83.8	337	6
2023-09-05T06:00	29298	14	-49.5	-83.7	339	6
2023-09-05T06:00	29326	14	-49.1	-84.3	341	5
2023-09-05T06:00	29366	14	-48.7	-84.1	346	5
2023-09-05T06:00	29390	13	-48.3	-83.8	353	4
2023-09-05T06:00	29433	13	-47.6	-83.3	2	4
2023-09-05T06:00	29450	13	-47.0	-82.9	11	5
2023-09-05T06:00	29473	13	-46.7	-82.6	19	5
2023-09-05T06:00	29524	13	-46.6	-82.6	26	5
2023-09-05T06:00	29549	13	-46.4	-82.4	32	5
2023-09-05T06:00	29573	13	-46.2	-82.3	35	6
2023-09-05T06:00	29600	13	-46.3	-82.4	37	6
2023-09-05T06:00	29629	13	-46.4	-82.4	38	7
2023-09-05T06:00	29674	13	-46.6	-82.6	39	7
2023-09-05T06:00	29703	13	-46.8	-82.7	40	7
2023-09-05T06:00	29732	13	-47.0	-81.9	42	7
2023-09-05T06:00	29776	13	-47.1	-82.0	43	7
2023-09-05T06:00	29794	13	-47.0	-81.9	46	7
2023-09-05T06:00	29831	13	-46.9	-81.9	48	6
2023-09-05T06:00	29855	13	-47.0	-81.9	50	6
2023-09-05T06:00	29904	12	-47.2	-82.1	52	5
2023-09-05T06:00	29933	12	-47.4	-82.2	54	4
2023-09-05T06:00	29955	12	-47.6	-82.4	54	4
2023-09-05T06:00	29981	12	-47.5	-82.3	53	4
2023-09-05T06:00	30009	12	-47.3	-83.1	50	4
2023-09-05T06:00	30050	12	-47.1	-82.9	47	5
2023-09-05T06:00	30065	12	-46.9	-82.8	44	5
2023-09-05T06:00	30120	12	-46.9	-82.8	42	6
2023-09-05T06:00	30144	12	-46.9	-82.8	41	6
2023-09-05T06:00	30148	12	-46.8	-82.7	42	6
2023-09-05T06:00	30205	12	-46.7	-82.6	43	5
2023-09-05T06:00	30230	12	-46.8	-82.7	46	5
2023-09-05T06:00	30249	12	-46.8	-82.7	50	5
2023-09-05T06:00	30288	12	-46.8	-82.7	55	4
2023-09-05T06:00	30308	12	-46.8	-82.7	60	3
2023-09-05T06:00	30337	12	-47.0	-82.9	65	3
2023-09-05T06:00	30368	12	-47.2	-82.1	69	2
2023-09-05T06:00	30407	12	-47.4	-82.2	71	2
2023-09-05T06:00	30428	12	-47.5	-82.3	67	1
2023-09-05T06:00	30475	11	-47.7	-82.4	30	0
2023-09-05T06:00	30505	11	-47.8	-82.5	286	1
2023-09-05T06:00	30539	11	-48.0	-82.7	275	2
2023-09-05T06:00	30560	11	-48.0	-82.7	274	2
2023-09-05T06:00	30585	11	-48.0	-82.7	276	3
2023-09-05T06:00	30630	11	-48.1	-82.7	280	4
2023-09-05T06:00	30665	11	-48.2	-82.8	284	5
2023-09-05T06:00	30686	11	-48.2	-82.8	289	6
2023-09-05T06:00	30728	11	-48.1	-82.7	293	7
2023-09-05T06:00	30755	11	-48.1	-82.7	296	8
2023-09-05T06:00	30799	11	-48.1	-82.7	299	8
2023-09-05T06:00	30818	11	-48.2	-82.8	301	9
2023-09-05T06:00	30848	11	-48.2	-82.8	303	9
2023-09-05T06:00	30875	11	-48.2	-82.8	305	9
2023-09-05T06:00	30932	11	-48.2	-83.7	306	9
2023-09-05T06:00	30941	11	-48.2	-83.7	308	8
2023-09-05T06:00	30979	11	-48.1	-83.6	309	8
2023-09-05T06:00	31005	11	-47.8	-83.4	311	7
2023-09-05T06:00	31037	11	-47.6	-83.3	314	7
2023-09-05T06:00	31074	10	-47.6	-83.3	318	7
2023-09-05T06:00	31096	10	-47.6	-83.3	324	7
2023-09-05T06:00	31141	10	-47.5	-83.2	332	7
2023-09-05T06:00	31144	10	-47.4	-83.1	342	7
2023-09-05T06:00	31193	10	-47.4	-83.1	353	7
2023-09-05T06:00	31227	10	-47.5	-83.2	3	7
2023-09-05T06:00	31233	10	-47.5	-83.2	13	8
2023-09-05T06:00	31296	10	-47.3	-83.1	21	8
2023-09-05T06:00	31319	10	-47.3	-83.1	29	9
2023-09-05T06:00	31356	10	-47.1	-82.9	36	10
2023-09-05T06:00	31375	10	-46.7	-82.6	42	11
2023-09-05T06:00	31396	10	-46.5	-82.5	47	12
2023-09-05T06:00	31425	10	-46.4	-82.4	52	12
2023-09-05T06:00	31459	10	-46.4	-82.4	57	12
2023-09-05T06:00	31497	10	-46.4	-82.4	63	12
2023-09-05T06:00	31548	10	-46.5	-82.5	69	12
2023-09-05T06:00	31560	10	-46.4	-82.4	76	12
2023-09-05T06:00	31581	10	-46.2	-82.3	83	11
2023-09-05T06:00	31597	10	-45.9	-82.1	91	11
2023-09-05T06:00	31641	10	-45.8	-82.0	97	11
2023-09-05T06:00	31667	10	-45.9	-82.1	103	11
2023-09-05T06:00	31719	10	-46.1	-82.2	107	10
2023-09-05T06:00	31746	9	-46.2	-82.3	112	10
2023-09-05T06:00	31755	9	-46.4	-82.4	117	10
2023-09-05T06:00	31784	9	-46.6	-82.6	121	9
2023-09-05T06:00	31822	9	-46.8	-82.7	126	9
2023-09-05T06:00	31871	9	-46.9	-82.8	130	8
2023-09-05T06:00	31891	9	-46.9	-82.8	133	8
2023-09-05T06:00	31915	9	-46.9	-82.8	136	7
2023-09-05T06:00	31963	9	-47.0	-82.9	138	6
2023-09-05T06:00	31972	9	-47.0	-82.9	138	5
2023-09-05T06:00	32015	9	-46.9	-82.8	135	5
2023-09-05T06:00	32058	9	-46.9	-82.8	129	4
2023-09-05T06:00	32086	9	-46.9	-82.8	118	3
2023-09-05T06:00	32114	9	-46.7	-82.6	101	3
2023-09-05T06:00	32148	9	-46.7	-82.6	82	3
2023-09-05T06:00	32167	9	-46.7	-82.6	67	3
2023-09-05T06:00	32199	9	-46.8	-82.7	56	4
2023-09-05T06:00	32249	9	-46.7	-82.6	49	4
2023-09-05T06:00	32272	9	-46.5	-82.5	45	5
2023-09-05T06:00	32289	9	-46.4	-82.4	44	6
2023-09-05T06:00	32313	9	-46.4	-82.4	44	6
2023-09-05T06:00	32351	9	-46.6	-82.6	46	6
2023-09-05T06:00	32407	9	-46.9	-82.8	48	7
2023-09-05T06:00	32435	9	-46.9	-82.8	52	7
2023-09-05T06:00	32441	9	-47.0	-82.9	56	7
2023-09-05T06:00	32496	8	-47.1	-82.9	62	7
2023-09-05T06:00	32512	8	-47.2	-83.0	67	7
2023-09-05T06:00	32565	8	-47.3	-83.1	73	7
2023-09-05T06:00	32577	8	-47.3	-83.1	77	8
2023-09-05T06:00	32589	8	-47.2	-83.0	80	8
2023-09-05T06:00	32652	8	-47.2	-83.0	83	9
2023-09-05T06:00	32678	8	-47.2	-83.0	86	9
2023-09-05T06:00	32685	8	-47.0	-82.9	90	8
2023-09-05T06:00	32764	8	-46.8	-82.7	96	8
2023-09-05T06:00	32773	8	-46.6	-82.6	105	8
2023-09-05T06:00	32818	8	-46.3	-83.4	127	7
2023-09-05T06:00	32843	8	-46.2	-83.4	137	7
2023-09-05T06:00	32881	8	-46.1	-83.3	146	7
2023-09-05T06:00	32886	8	-46.0	-83.2	153	6
2023-09-05T06:00	32915	8	-45.7	-83.0	158	6
2023-09-05T06:00	32965	8	-45.2	-82.7	161	5
2023-09-05T06:00	33003	8	-44.6	-82.2	159	4
2023-09-05T06:00	33027	8	-44.0	-81.8	152	3
2023-09-05T06:00	33050	8	-43.6	-81.5	138	3
2023-09-05T06:00	33085	8	-43.1	-81.2	122	2
2023-09-05T06:00	33111	8	-42.6	-80.8	112	3
2023-09-05T06:00	33123	8	-42.1	-80.5	111	4
2023-09-05T06:00	33168	8	-41.7	-80.2	113	5
2023-09-05T06:00	33187	8	-41.4	-80.0	117	6
2023-09-05T06:00	33229	8	-41.3	-79.9	122	6
2023-09-05T06:00	33259	8	-41.2	-79.9	127	7
2023-09-05T06:00	33303	8	-41.0	-79.7	134	7
2023-09-05T06:00	33316	7	-40.6	-79.5	141	8
2023-09-05T06:00	33362	7	-40.2	-79.2	149	8
2023-09-05T06:00	33375	7	-40.2	-79.2	157	8
2023-09-05T06:00	33429	7	-40.4	-79.3	163	9
2023-09-05T06:00	33464	7	-40.5	-79.4	168	9
2023-09-05T06:00	33484	7	-40.7	-79.5	173	9
2023-09-05T06:00	33501	7	-40.9	-79.7	177	10
2023-09-05T06:00	33519	7	-41.1	-79.8	180	10
2023-09-05T06:00	33555	7	-41.3	-79.9	184	10
2023-09-05T06:00	33615	7	-41.5	-80.1	188	10
2023-09-05T06:00	33678	7	-41.6	-80.1	197	9
2023-09-05T06:00	33721	7	-41.6	-80.1	202	9
2023-09-05T06:00	33764	7	-41.6	-80.1	209	8
2023-09-05T06:00	33773	7	-41.6	-80.1	217	8
2023-09-05T06:00	33829	7	-41.6	-80.1	225	7
2023-09-05T06:00	33831	7	-41.4	-80.0	235	7
2023-09-05T06:00	33879	7	-41.3	-79.9	246	6
2023-09-05T06:00	33914	7	-41.3	-79.9	257	6
2023-09-05T06:00	33945	7	-41.2	-79.9	266	6
2023-09-05T06:00	33980	7	-40.9	-79.7	274	5
2023-09-05T06:00	34014	7	-40.3	-79.2	280	5
2023-09-05T06:00	34029	7	-39.9	-79.0	286	4
2023-09-05T06:00	34082	7	-39.8	-78.9	296	4
2023-09-05T06:00	34111	7	-39.9	-79.0	310	3
2023-09-05T06:00	34155	7	-40.0	-79.0	332	3
2023-09-05T06:00	34163	7	-40.1	-79.1	352	3
2023-09-05T06:00	34214	7	-40.2	-79.2	4	3
2023-09-05T06:00	34248	7	-40.3	-79.2	12	3
2023-09-05T06:00	34254	7	-40.3	-79.2	18	3
2023-09-05T06:00	34313	6	-40.2	-79.2	25	3
2023-09-05T06:00	34334	6	-40.1	-79.1	37	3
2023-09-05T06:00	34375	6	-40.1	-79.1	54	2
2023-09-05T06:00	34406	6	-40.1	-79.1	68	3
2023-09-05T06:00	34414	6	-40.0	-79.0	75	3
2023-09-05T06:00	34478	6	-39.8	-78.9	75	4
2023-09-05T06:00	34506	6	-39.7	-78.8	72	4
2023-09-05T06:00	34520	6	-39.5	-78.7	70	4
2023-09-05T06:00	34523	6	-39.3	-78.5	68	5
2023-09-05T06:00	34613	6	-39.1	-78.4	70	5
2023-09-05T06:00	34640	6	-38.9	-78.3	74	5
2023-09-05T06:00	34683	6	-38.5	-78.0	91	4
2023-09-05T06:00	34705	6	-38.3	-77.9	101	4
2023-09-05T06:00	34727	6	-38.2	-77.8	110	5
2023-09-05T06:00	34804	6	-38.2	-77.8	116	5
2023-09-05T06:00	34815	6	-38.1	-77.7	120	6
2023-09-05T06:00	34856	6	-38.1	-77.7	121	7
2023-09-05T06:00	34858	6	-38.1	-77.7	122	8
2023-09-05T06:00	34904	6	-38.3	-77.9	125	8
2023-09-05T06:00	34973	6	-38.4	-77.9	128	8
2023-09-05T06:00	34986	6	-38.5	-78.0	131	8
2023-09-05T06:00	35021	6	-38.5	-78.0	135	8
2023-09-05T06:00	35070	6	-38.5	-78.0	143	7
2023-09-05T06:00	35092	6	-38.7	-78.1	147	6
2023-09-05T06:00	35126	6	-38.8	-78.2	151	5
2023-09-05T06:00	35139	6	-38.9	-78.3	154	5
2023-09-05T06:00	35164	6	-39.0	-78.3	154	4
2023-09-05T12:00	-999					
2023-09-05T12:00	135	1009	23.3	12.9	179	3
2023-09-05T12:00	161	1006	22.1	12.2	174	4
2023-09-05T12:00	187	1003	21.8	12.0	169	5
2023-09-05T12:00	208	1001	21.7	11.9	163	5
2023-09-05T12:00	229	998	21.5	11.9	158	5
2023-09-05T12:00	255	995	21.3	12.0	154	4
2023-09-05T12:00	276	993	21.0	11.9	154	4
2023-09-05T12:00	295	991	20.8	11.9	155	4
2023-09-05T12:00	317	988	20.5	11.7	156	5
2023-09-05T12:00	338	986	20.3	11.6	156	5
2023-09-05T12:00	363	983	20.1	11.6	156	5
2023-09-05T12:00	383	980	19.9	11.6	157	5
2023-09-05T12:00	407	978	19.7	11.6	159	6
2023-09-05T12:00	429	975	19.5	11.5	159	6
2023-09-05T12:00	450	973	19.3	11.6	159	7
2023-09-05T12:00	473	970	19.2	11.5	156	7
2023-09-05T12:00	496	968	18.9	11.4	153	7
2023-09-05T12:00	521	965	18.8	11.5	149	7
2023-09-05T12:00	548	962	18.5	11.4	145	7
2023-09-05T12:00	572	959	18.3	11.3	142	7
2023-09-05T12:00	603	956	17.9	11.2	140	7
2023-09-05T12:00	631	953	17.7	11.3	139	7
2023-09-05T12:00	652	950	17.5	11.3	137	7
2023-09-05T12:00	678	947	17.2	11.2	136	7
2023-09-05T12:00	702	945	17.0	11.2	134	7
2023-09-05T12:00	730	942	16.8	11.2	132	7
2023-09-05T12:00	752	939	16.7	11.1	131	6
2023-09-05T12:00	774	937	16.4	11.0	132	6
2023-09-05T12:00	802	934	16.3	10.9	136	6
2023-09-05T12:00	827	931	16.3	10.6	142	6
2023-09-05T12:00	856	928	16.2	10.3	151	5
2023-09-05T12:00	878	925	16.6	9.9	161	5
2023-09-05T12:00	899	923	16.9	10.1	168	5
2023-09-05T12:00	922	921	16.6	10.0	170	6
2023-09-05T12:00	945	918	16.5	10.1	167	7
2023-09-05T12:00	968	916	16.4	10.2	163	7
2023-09-05T12:00	997	913	16.2	10.2	159	8
2023-09-05T12:00	1030	910	16.3	10.0	157	8
2023-09-05T12:00	1048	907	16.2	10.1	155	8
2023-09-05T12:00	1073	905	16.4	8.9	154	7
2023-09-05T12:00	1099	902	16.4	7.8	154	7
2023-09-05T12:00	1124	899	16.4	7.0	154	6
2023-09-05T12:00	1147	897	16.4	6.8	155	5
2023-09-05T12:00	1170	894	16.2	6.8	155	5
2023-09-05T12:00	1195	892	16.0	6.7	156	4
2023-09-05T12:00	1220	889	15.9	6.4	155	4
2023-09-05T12:00	1246	886	15.8	6.4	151	4
2023-09-05T12:00	1277	883	15.6	5.8	142	3
2023-09-05T12:00	1303	881	15.4	5.9	127	3
2023-09-05T12:00	1325	878	15.2	5.8	110	3
2023-09-05T12:00	1349	876	15.1	5.8	98	3
2023-09-05T12:00	1370	873	15.0	5.5	95	4
2023-09-05T12:00	1392	871	15.0	5.6	97	4
2023-09-05T12:00	1410	869	15.3	4.1	103	4
2023-09-05T12:00	1430	867	16.0	-0.4	111	5
2023-09-05T12:00	1448	865	16.2	0.3	121	5
2023-09-05T12:00	1469	863	16.2	-0.5	133	4
2023-09-05T12:00	1489	861	16.5	-3.0	144	4
2023-09-05T12:00	1510	859	16.6	-4.0	154	4
2023-09-05T12:00	1532	857	16.7	-4.4	163	4
2023-09-05T12:00	1549	855	16.7	-4.4	169	3
2023-09-05T12:00	1570	853	16.6	-4.6	178	2
2023-09-05T12:00	1590	851	16.6	-4.8	194	1
2023-09-05T12:00	1614	849	16.5	-4.7	271	1
2023-09-05T12:00	1633	847	16.4		338	1
2023-09-05T12:00	1655	845	16.3	-4.4	356	2
2023-09-05T12:00	1675	843	16.2	-4.2	8	3
2023-09-05T12:00	1696	841	16.0	-4.3	19	3
2023-09-05T12:00	1716	839	15.9	-4.4	33	3
2023-09-05T12:00	1737	837	15.8	-4.3	51	3
2023-09-05T12:00	1758	834	15.6	-4.4	76	2
2023-09-05T12:00	1780	832	15.4	-4.4	102	3
2023-09-05T12:00	1801	830	15.2	-4.5	121	3
2023-09-05T12:00	1821	828	15.1	-4.9	133	3
2023-09-05T12:00	1840	826	15.0	-5.4	143	3
2023-09-05T12:00	1862	824	14.8	-5.8	153	3
2023-09-05T12:00	1884	822	14.6	-6.9	166	3
2023-09-05T12:00	1903	820	14.5	-8.9	181	4
2023-09-05T12:00	1926	818	14.5	-3.6	195	4
2023-09-05T12:00	1946	816	14.2	3.9	209	4
2023-09-05T12:00	1967	814	14.0	4.2	219	4
2023-09-05T12:00	1988	812	13.9	4.2	228	4
2023-09-05T12:00	2008	810	13.7	4.1	233	4
2023-09-05T12:00	2030	808	13.5	3.9	236	4
2023-09-05T12:00	2048	806	13.3	3.9	238	4
2023-09-05T12:00	2070	804	13.2	4.5	241	4
2023-09-05T12:00	2088	802	13.2	4.5	243	3
2023-09-05T12:00	2108	800	13.6	3.8	247	3
2023-09-05T12:00	2129	799	13.7	3.7	252	2
2023-09-05T12:00	2150	797	13.6	4.2	260	2
2023-09-05T12:00	2170	795	13.6	3.9	277	1
2023-09-05T12:00	2189	793	13.5	3.4	334	1
2023-09-05T12:00	2209	791	13.4	3.3	21	1
2023-09-05T12:00	2230	789	13.2	3.2	32	2
2023-09-05T12:00	2250	787	13.1	2.2	35	3
2023-09-05T12:00	2270	785	13.1	1.6	34	3
2023-09-05T12:00	2289	783	13.0	1.4	35	3
2023-09-05T12:00	2312	781	13.0	1.2	40	3
2023-09-05T12:00	2331	780	12.9	0.3	50	4
2023-09-05T12:00	2352	778	13.2	-1.7	64	4
2023-09-05T12:00	2371	776	13.4	-2.1	78	4
2023-09-05T12:00	2390	774	13.3	0.2	90	4
2023-09-05T12:00	2410	772	13.2	-0.3	99	4
2023-09-05T12:00	2429	771	13.0	-0.6	105	4
2023-09-05T12:00	2448	769	12.9	-0.7	108	4
2023-09-05T12:00	2466	767	12.7	-1.3	109	3
2023-09-05T12:00	2487	765	12.6	-2.3	108	3
2023-09-05T12:00	2508	763	12.5	-2.9	105	2
2023-09-05T12:00	2524	762	12.4	-3.5	100	2
2023-09-05T12:00	2545	760	12.3	-4.8	86	1
2023-09-05T12:00	2565	758	12.2	-5.4	40	1
2023-09-05T12:00	2584	756	12.1	-5.5	350	1
2023-09-05T12:00	2606	755	12.0	-5.6	335	2
2023-09-05T12:00	2626	753	11.8	-5.7	330	2
2023-09-05T12:00	2645	751	11.7	-5.6	327	2
2023-09-05T12:00	2665	749	11.6	-5.5	326	2
2023-09-05T12:00	2685	747	11.4	-5.5	324	2
2023-09-05T12:00	2704	746	11.2	-5.5	321	2
2023-09-05T12:00	2725	744	11.1	-5.5	319	2
2023-09-05T12:00	2746	742	10.9	-4.6	320	2
2023-09-05T12:00	2766	740	10.7	-4.4	322	2
2023-09-05T12:00	2786	738	10.5	-4.2	326	3
2023-09-05T12:00	2805	737	10.3	-3.8	329	3
2023-09-05T12:00	2825	735	10.1	-3.7	332	4
2023-09-05T12:00	2846	733	9.9	-3.8	337	4
2023-09-05T12:00	2865	731	9.7	-3.7	342	4
2023-09-05T12:00	2887	729	9.5	-3.6	348	4
2023-09-05T12:00	2909	728	9.3	-2.8	354	5
2023-09-05T12:00	2930	726	9.2	-4.1	360	5
2023-09-05T12:00	2952	724	9.2	-7.5	4	5
2023-09-05T12:00	2972	722	9.2	-5.6	7	6
2023-09-05T12:00	2992	720	9.1	-4.5	8	6
2023-09-05T12:00	3012	719	9.0	-4.5	9	6
2023-09-05T12:00	3032	717	8.9	-4.4	9	6
2023-09-05T12:00	3055	715	8.7	-4.4	11	6
2023-09-05T12:00	3072	713	8.6	-4.6	13	6
2023-09-05T12:00	3094	711	8.5	-4.8	16	6
2023-09-05T12:00	3113	710	8.4	-5.3	19	5
2023-09-05T12:00	3133	708	8.5	-5.6	23	5
2023-09-05T12:00	3154	706	8.5	-6.1	26	4
2023-09-05T12:00	3175	705	8.5	-7.2	30	3
2023-09-05T12:00	3195	703	8.5	-7.8	32	1
2023-09-05T12:00	3215	701	8.5	-7.1	356	0
2023-09-05T12:00	3235	699	8.6	-8.1	237	1
2023-09-05T12:00	3258	697	8.8	-8.0	241	2
2023-09-05T12:00	3282	696	8.9	-8.6	248	3
2023-09-05T12:00	3302	694	8.9	-7.9	254	3
2023-09-05T12:00	3322	692	8.9	-7.5	259	4
2023-09-05T12:00	3343	690	8.8	-7.3	263	4
2023-09-05T12:00	3364	689	8.6	-7.1	268	4
2023-09-05T12:00	3384	687	8.4	-6.6	274	4
2023-09-05T12:00	3405	685	8.3	-7.2	282	4
2023-09-05T12:00	3427	683	8.3	-8.2	293	4
2023-09-05T12:00	3449	682	8.1	-8.2	306	4
2023-09-05T12:00	3470	680	8.0	-8.4	318	4
2023-09-05T12:00	3492	678	8.0	-8.3	331	4
2023-09-05T12:00	3511	676	8.0	-8.5	345	3
2023-09-05T12:00	3532	675	8.0	-10.0	2	2
2023-09-05T12:00	3556	673	7.8	-8.9	27	1
2023-09-05T12:00	3575	671	7.6	-8.9	63	1
2023-09-05T12:00	3599	669	7.5	-9.2	111	1
2023-09-05T12:00	3624	667	7.4	-6.3	180	1
2023-09-05T12:00	3643	666	7.2	-6.0	233	1
2023-09-05T12:00	3669	664	7.0	-6.0	261	2
2023-09-05T12:00	3689	662	6.9	-6.1	278	3
2023-09-05T12:00	3711	660	6.7	-6.4	290	4
2023-09-05T12:00	3733	658	6.5	-6.6	300	5
2023-09-05T12:00	3753	657	6.4	-6.8	307	6
2023-09-05T12:00	3776	655	6.2	-7.1	312	6
2023-09-05T12:00	3795	653	6.2	-6.9	317	6
2023-09-05T12:00	3817	652	6.2	-8.6	321	6
2023-09-05T12:00	3845	649	6.2	-10.3	326	5
2023-09-05T12:00	3872	647	6.1	-11.3	332	4
2023-09-05T12:00	3893	646	6.2	-11.8	335	3
2023-09-05T12:00	3912	644	6.0	-11.4	332	2
2023-09-05T12:00	3935	642	5.9	-11.0	320	2
2023-09-05T12:00	3956	641	5.7	-10.8	306	3
2023-09-05T12:00	3978	639	5.5	-10.4	301	4
2023-09-05T12:00	4000	637	5.3	-10.0	301	5
2023-09-05T12:00	4023	636	5.1	-9.5	305	6
2023-09-05T12:00	4044	634	4.9	-9.0	310	7
2023-09-05T12:00	4065	632	4.7	-8.2	315	7
2023-09-05T12:00	4089	630	4.4	-7.5	320	7
2023-09-05T12:00	4112	629	4.2	-6.8	326	8
2023-09-05T12:00	4136	627	4.0	-6.0	331	7
2023-09-05T12:00	4156	625	3.8	-6.0	336	7
2023-09-05T12:00	4177	624	3.6	-6.0	337	7
2023-09-05T12:00	4199	622	3.5	-6.0	333	6
2023-09-05T12:00	4220	620	3.2	-6.2	325	6
2023-09-05T12:00	4244	618	3.0	-6.5	317	6
2023-09-05T12:00	4264	617	2.9	-6.8	311	7
2023-09-05T12:00	4287	615	2.8	-6.3	309	7
2023-09-05T12:00	4308	614	2.7	-5.9	311	7
2023-09-05T12:00	4328	612	2.5	-5.7	315	7
2023-09-05T12:00	4349	610	2.4	-5.4	322	7
2023-09-05T12:00	4380	608	2.1	-5.3	329	7
2023-09-05T12:00	4409	606	2.0	-6.5	336	7
2023-09-05T12:00	4435	604	1.9	-5.9	339	7
2023-09-05T12:00	4459	602	1.8	-5.3	340	8
2023-09-05T12:00	4481	601	1.7	-5.6	339	8
2023-09-05T12:00	4502	599	1.6	-6.0	337	9
2023-09-05T12:00	4525	597	1.4	-6.2	336	8
2023-09-05T12:00	4546	596	1.2	-6.3	337	8
2023-09-05T12:00	4579	593	0.9	-6.7	339	7
2023-09-05T12:00	4611	591	0.9	-8.8	343	7
2023-09-05T12:00	4640	589	1.0	-9.5	348	6
2023-09-05T12:00	4661	587	0.9	-9.5	351	5
2023-09-05T12:00	4682	586	0.8	-10.0	352	5
2023-09-05T12:00	4702	584	0.8	-10.1	348	4
2023-09-05T12:00	4725	583	0.8	-10.2	340	4
2023-09-05T12:00	4743	581	0.6	-9.8	329	4
2023-09-05T12:00	4765	580	0.4	-9.4	316	4
2023-09-05T12:00	4784	578	0.3	-9.1	306	4
2023-09-05T12:00	4804	577	0.2	-9.4	299	4
2023-09-05T12:00	4826	575	0.0	-9.4	295	5
2023-09-05T12:00	4849	574	0.0	-9.5	295	6
2023-09-05T12:00	4869	572	-0.1	-9.9	296	6
2023-09-05T12:00	4889	571	-0.2	-11.0	298	6
2023-09-05T12:00	4909	569	-0.4	-11.4	301	6
2023-09-05T12:00	4931	568	-0.6	-11.7	305	6
2023-09-05T12:00	4967	565	-0.9	-12.5	310	6
2023-09-05T12:00	4994	563	-1.1	-12.7	316	5
2023-09-05T12:00	5021	561	-1.4	-12.7	322	5
2023-09-05T12:00	5055	559	-1.7	-13.2	330	5
2023-09-05T12:00	5084	557	-1.9	-13.9	338	5
2023-09-05T12:00	5110	555	-2.1	-14.3	346	5
2023-09-05T12:00	5131	554	-2.3	-14.6	353	5
2023-09-05T12:00	5155	552	-2.5	-14.9	355	5
2023-09-05T12:00	5175	551	-2.6	-14.9	353	4
2023-09-05T12:00	5198	549	-2.9	-15.0	348	4
2023-09-05T12:00	5230	547	-3.1	-15.2	342	4
2023-09-05T12:00	5260	545	-3.3	-14.8	338	5
2023-09-05T12:00	5282	543	-3.4	-14.4	337	5
2023-09-05T12:00	5301	542	-3.6	-13.6	339	5
2023-09-05T12:00	5319	541	-3.8	-13.3	342	6
2023-09-05T12:00	5342	539	-4.0	-13.0	344	7
2023-09-05T12:00	5370	537	-4.1	-13.7	346	7
2023-09-05T12:00	5390	536	-4.3	-13.6	346	8
2023-09-05T12:00	5415	534	-4.5	-13.7	344	8
2023-09-05T12:00	5440	532	-4.7	-14.4	341	7
2023-09-05T12:00	5466	531	-4.7	-14.8	335	6
2023-09-05T12:00	5487	529	-4.7	-16.2	329	6
2023-09-05T12:00	5514	528	-4.8	-15.3	325	6
2023-09-05T12:00	5540	526	-4.9	-15.7	323	6
2023-09-05T12:00	5577	523	-5.1	-16.7	324	6
2023-09-05T12:00	5601	522	-5.1	-16.6	325	6
2023-09-05T12:00	5624	520	-5.3	-16.6	324	5
2023-09-05T12:00	5642	519	-5.5	-16.6	323	5
2023-09-05T12:00	5664	518	-5.7	-16.4	321	5
2023-09-05T12:00	5686	516	-5.9	-16.6	320	5
2023-09-05T12:00	5713	514	-6.0	-17.2	322	5
2023-09-05T12:00	5744	512	-6.0	-15.4	326	5
2023-09-05T12:00	5778	510	-6.1	-15.1	330	6
2023-09-05T12:00	5804	508	-6.2	-14.9	334	6
2023-09-05T12:00	5830	507	-6.4	-15.1	338	7
2023-09-05T12:00	5855	505	-6.5	-15.0	341	8
2023-09-05T12:00	5877	504	-6.7	-15.4	345	8
2023-09-05T12:00	5900	502	-6.8	-15.3	347	8
2023-09-05T12:00	5921	501	-6.9	-15.5	349	8
2023-09-05T12:00	5949	499	-7.0	-16.0	349	8
2023-09-05T12:00	5972	498	-7.2	-16.3	347	8
2023-09-05T12:00	5997	496	-7.3	-16.5	344	7
2023-09-05T12:00	6026	494	-7.4	-17.0	340	7
2023-09-05T12:00	6051	492	-7.6	-17.0	336	6
2023-09-05T12:00	6081	491	-7.9	-17.2	335	6
2023-09-05T12:00	6108	489	-8.1	-17.6	335	7
2023-09-05T12:00	6138	487	-8.3	-17.4	338	7
2023-09-05T12:00	6169	485	-8.6	-17.7	340	7
2023-09-05T12:00	6194	483	-8.8	-17.7	342	7
2023-09-05T12:00	6222	482	-9.1	-17.8	343	7
2023-09-05T12:00	6244	480	-9.3	-17.8	342	7
2023-09-05T12:00	6277	479	-9.6	-17.8	342	7
2023-09-05T12:00	6301	477	-9.8	-18.3	343	7
2023-09-05T12:00	6324	475	-10.0	-18.4	346	7
2023-09-05T12:00	6351	474	-10.2	-18.7	350	6
2023-09-05T12:00	6372	473	-10.3	-19.1	353	6
2023-09-05T12:00	6392	471	-10.4	-19.1	355	6
2023-09-05T12:00	6418	470	-10.6	-19.4	356	5
2023-09-05T12:00	6446	468	-10.8	-19.6	357	5
2023-09-05T12:00	6474	466	-10.8	-20.0	357	5
2023-09-05T12:00	6495	465	-10.8	-19.3	358	5
2023-09-05T12:00	6516	464	-10.9	-20.0	358	6
2023-09-05T12:00	6538	462	-10.9	-21.6	356	6
2023-09-05T12:00	6566	461	-11.1	-21.1	355	7
2023-09-05T12:00	6592	459	-11.3	-21.3	354	8
2023-09-05T12:00	6614	458	-11.4	-21.0	354	9
2023-09-05T12:00	6639	456	-11.6	-21.3	355	9
2023-09-05T12:00	6661	455	-11.7	-21.9	355	9
2023-09-05T12:00	6695	453	-12.0	-23.2	356	9
2023-09-05T12:00	6716	452	-12.1	-23.0	357	9
2023-09-05T12:00	6743	450	-12.3	-23.1	357	9
2023-09-05T12:00	6768	449	-12.5	-23.3	356	9
2023-09-05T12:00	6788	448	-12.7	-23.4	356	9
2023-09-05T12:00	6816	446	-12.9	-22.8	357	9
2023-09-05T12:00	6840	444	-13.1	-23.1	358	9
2023-09-05T12:00	6868	443	-13.3	-24.3	358	10
2023-09-05T12:00	6892	442	-13.5	-24.3	359	10
2023-09-05T12:00	6914	440	-13.6	-24.5	358	10
2023-09-05T12:00	6939	439	-13.8	-24.3	358	10
2023-09-05T12:00	6969	437	-14.1	-24.8	357	10
2023-09-05T12:00	6990	436	-14.2	-25.7	356	10
2023-09-05T12:00	7011	435	-14.5	-26.2	355	10
2023-09-05T12:00	7038	433	-14.6	-27.4	354	10
2023-09-05T12:00	7063	432	-14.8	-27.1	354	10
2023-09-05T12:00	7098	430	-15.0	-27.3	354	10
2023-09-05T12:00	7131	428	-15.3	-25.4	356	10
2023-09-05T12:00	7153	427	-15.5	-25.5	357	10
2023-09-05T12:00	7174	425	-15.6	-26.5	358	10
2023-09-05T12:00	7194	424	-15.8	-25.7	359	9
2023-09-05T12:00	7218	423	-16.1	-25.2	1	9
2023-09-05T12:00	7242	422	-16.2	-25.0	2	9
2023-09-05T12:00	7263	420	-16.4	-25.2	4	9
2023-09-05T12:00	7288	419	-16.7	-25.3	5	9
2023-09-05T12:00	7313	418	-16.9	-25.6	3	9
2023-09-05T12:00	7335	416	-17.1		1	10
2023-09-05T12:00	7365	415	-17.3	-26.4	357	10
2023-09-05T12:00	7391	413	-17.6	-26.5	355	11
2023-09-05T12:00	7416	412	-17.8	-25.2	353	11
2023-09-05T12:00	7437	411	-18.0	-24.9	352	11
2023-09-05T12:00	7454	410	-18.1	-25.4	351	10
2023-09-05T12:00	7481	408	-18.3	-25.2	350	9
2023-09-05T12:00	7507	407	-18.5	-25.0	350	8
2023-09-05T12:00	7529	406	-18.7	-24.9	350	8
2023-09-05T12:00	7553	404	-18.9	-24.6	350	8
2023-09-05T12:00	7576	403	-19.2	-24.6	351	8
2023-09-05T12:00	7596	402	-19.3	-24.8	351	8
2023-09-05T12:00	7621	401	-19.5	-25.2	350	8
2023-09-05T12:00	7646	399	-19.7	-25.3	348	9
2023-09-05T12:00	7672	398	-19.9	-25.7	346	9
2023-09-05T12:00	7698	397	-20.0	-26.2	344	9
2023-09-05T12:00	7722	395	-20.1	-26.5	343	8
2023-09-05T12:00	7747	394	-20.3	-26.7	344	8
2023-09-05T12:00	7769	393	-20.5	-26.5	346	8
2023-09-05T12:00	7791	392	-20.6	-26.2	350	8
2023-09-05T12:00	7816	390	-20.7	-25.7	353	8
2023-09-05T12:00	7840	389	-20.9	-25.9	355	8
2023-09-05T12:00	7866	388	-21.1	-26.2	355	9
2023-09-05T12:00	7883	387	-21.2	-26.1	355	10
2023-09-05T12:00	7909	385	-21.4	-26.2	354	10
2023-09-05T12:00	7938	384	-21.6	-26.4	353	10
2023-09-05T12:00	7959	383	-21.7	-26.5	352	10
2023-09-05T12:00	7979	382	-21.9	-26.4	352	10
2023-09-05T12:00	8010	380	-22.0	-26.4	352	9
2023-09-05T12:00	8030	379	-22.2	-27.0	352	9
2023-09-05T12:00	8060	378	-22.4	-26.8	352	10
2023-09-05T12:00	8081	376	-22.5	-26.8	352	11
2023-09-05T12:00	8102	375	-22.7	-26.8	350	11
2023-09-05T12:00	8135	374	-22.9	-26.4	349	12
2023-09-05T12:00	8162	372	-23.1	-25.9	346	12
2023-09-05T12:00	8195	371	-23.4	-25.9	343	13
2023-09-05T12:00	8226	369	-23.6	-26.0	340	13
2023-09-05T12:00	8252	368	-23.9	-26.0	338	13
2023-09-05T12:00	8283	366	-24.1	-26.2	336	13
2023-09-05T12:00	8317	365	-24.3	-26.7	336	13
2023-09-05T12:00	8346	363	-24.5	-26.6	336	13
2023-09-05T12:00	8373	362	-24.6	-26.8	337	13
2023-09-05T12:00	8392	361	-24.7	-26.8	338	13
2023-09-05T12:00	8414	360	-24.9	-26.9	338	12
2023-09-05T12:00	8437	359	-25.0	-27.0	337	12
2023-09-05T12:00	8466	357	-25.2	-27.3	335	11
2023-09-05T12:00	8490	356	-25.3	-27.2	332	11
2023-09-05T12:00	8514	355	-25.5	-27.3	330	11
2023-09-05T12:00	8537	354	-25.6	-27.4	328	12
2023-09-05T12:00	8558	353	-25.8	-27.8	327	13
2023-09-05T12:00	8580	352	-25.9	-28.1	325	13
2023-09-05T12:00	8605	350	-26.0	-28.8	323	14
2023-09-05T12:00	8629	349	-26.2	-28.9	322	14
2023-09-05T12:00	8657	348	-26.4	-29.3	321	15
2023-09-05T12:00	8677	347	-26.5	-30.1	320	15
2023-09-05T12:00	8702	346	-26.6	-30.2	320	14
2023-09-05T12:00	8725	345	-26.7	-29.9	319	14
2023-09-05T12:00	8745	344	-26.9	-30.0	319	14
2023-09-05T12:00	8769	343	-27.1	-30.4	319	14
2023-09-05T12:00	8796	341	-27.2		319	14
2023-09-05T12:00	8818	340	-27.4	-30.9	319	13
2023-09-05T12:00	8845	339	-27.6	-31.5	319	13
2023-09-05T12:00	8874	338	-27.8	-31.8	319	12
2023-09-05T12:00	8898	336	-28.0	-31.9	319	12
2023-09-05T12:00	8924	335	-28.2	-32.3	319	12
2023-09-05T12:00	8952	334	-28.3	-32.5	319	12
2023-09-05T12:00	8983	333	-28.5	-32.3	320	12
2023-09-05T12:00	9010	331	-28.8	-32.3	321	12
2023-09-05T12:00	9034	330	-29.0	-32.4	322	12
2023-09-05T12:00	9059	329	-29.1	-32.6	322	12
2023-09-05T12:00	9077	328	-29.2	-32.7	322	12
2023-09-05T12:00	9102	327	-29.3	-32.4	322	12
2023-09-05T12:00	9126	326	-29.5	-32.3	322	12
2023-09-05T12:00	9147	325	-29.7	-32.8	322	13
2023-09-05T12:00	9171	324	-29.9	-33.5	322	13
2023-09-05T12:00	9198	323	-30.1	-33.9	322	12
2023-09-05T12:00	9218	322	-30.3	-34.2	322	12
2023-09-05T12:00	9244	321	-30.5	-34.1	323	11
2023-09-05T12:00	9268	319	-30.7	-33.8	324	11
2023-09-05T12:00	9294	318	-30.9	-33.4	326	10
2023-09-05T12:00	9319	317	-31.2	-33.0	329	10
2023-09-05T12:00	9355	316	-31.5	-33.2	331	10
2023-09-05T12:00	9377	315	-31.7	-33.4	332	11
2023-09-05T12:00	9400	314	-32.0	-33.7	332	11
2023-09-05T12:00	9426	312	-32.2	-33.9	331	11
2023-09-05T12:00	9451	311	-32.4	-34.1	330	11
2023-09-05T12:00	9472	310	-32.6	-34.6	330	11
2023-09-05T12:00	9497	309	-32.8	-35.3	331	11
2023-09-05T12:00	9528	308	-33.0	-35.4	331	11
2023-09-05T12:00	9551	307	-33.2	-35.1	330	11
2023-09-05T12:00	9581	306	-33.4	-35.4	327	12
2023-09-05T12:00	9613	304	-33.5	-37.1	325	12
2023-09-05T12:00	9639	303	-33.7	-38.2	323	13
2023-09-05T12:00	9661	302	-33.9	-39.2	322	13
2023-09-05T12:00	9682	301	-34.0	-39.8	322	13
2023-09-05T12:00	9704	300	-34.2	-40.1	322	13
2023-09-05T12:00	9730	299	-34.4	-40.5	322	13
2023-09-05T12:00	9757	298	-34.6	-40.8	322	13
2023-09-05T12:00	9779	297	-34.8	-41.0	321	13
2023-09-05T12:00	9803	296	-34.9	-41.6	320	13
2023-09-05T12:00	9825	295	-35.0	-41.9	319	12
2023-09-05T12:00	9850	294	-35.2	-42.0	318	12
2023-09-05T12:00	9871	293	-35.4	-42.0	317	12
2023-09-05T12:00	9894	292	-35.6	-41.6	316	12
2023-09-05T12:00	9916	291	-35.7	-41.2	315	12
2023-09-05T12:00	9940	290	-35.9	-40.9	314	12
2023-09-05T12:00	9963	289	-36.2	-40.9	313	12
2023-09-05T12:00	9985	288	-36.4	-41.2	313	11
2023-09-05T12:00	10009	287	-36.6	-41.7	313	11
2023-09-05T12:00	10032	286	-36.7	-42.7	313	12
2023-09-05T12:00	10058	285	-36.9	-42.9	314	12
2023-09-05T12:00	10093	284	-37.1	-43.3	315	12
2023-09-05T12:00	10125	283	-37.4	-44.1	316	13
2023-09-05T12:00	10148	282	-37.5	-44.8	316	13
2023-09-05T12:00	10180	280	-37.8	-45.0	317	14
2023-09-05T12:00	10203	279	-38.1	-44.9	317	14
2023-09-05T12:00	10234	278	-38.3	-44.9	317	14
2023-09-05T12:00	10270	277	-38.7	-44.9	317	13
2023-09-05T12:00	10297	276	-39.0	-45.4	317	13
2023-09-05T12:00	10327	275	-39.2	-46.2	318	13
2023-09-05T12:00	10348	274	-39.4	-46.5	319	13
2023-09-05T12:00	10369	273	-39.5	-46.7	319	14
2023-09-05T12:00	10394	272	-39.8	-46.9	319	15
2023-09-05T12:00	10419	271	-40.0	-47.3	319	15
2023-09-05T12:00	10444	270	-40.0	-49.2	318	16
2023-09-05T12:00	10468	269	-40.1	-51.3	318	16
2023-09-05T12:00	10495	268	-40.3	-51.1	317	17
2023-09-05T12:00	10519	267	-40.5	-51.8	317	17
2023-09-05T12:00	10542	266	-40.5	-52.2	316	17
2023-09-05T12:00	10563	265	-40.6	-51.1	315	17
2023-09-05T12:00	10590	264	-40.7	-50.5	315	17
2023-09-05T12:00	10623	263	-41.0	-51.2	315	17
2023-09-05T12:00	10648	262	-41.2	-51.6	315	17
2023-09-05T12:00	10670	261	-41.5	-51.9	316	17
2023-09-05T12:00	10692	260	-41.7	-52.0	317	16
2023-09-05T12:00	10720	259	-41.9	-52.0	318	16
2023-09-05T12:00	10743	258	-42.1	-51.5	318	16
2023-09-05T12:00	10769	257	-42.3	-51.3	318	16
2023-09-05T12:00	10794	256	-42.6	-51.8	317	16
2023-09-05T12:00	10815	255	-42.7	-52.0	317	16
2023-09-05T12:00	10838	255	-42.9		317	16
2023-09-05T12:00	10860	254	-43.0	-52.2	317	16
2023-09-05T12:00	10883	253	-43.3	-52.6	318	16
2023-09-05T12:00	10903	252	-43.5	-53.3	318	15
2023-09-05T12:00	10925	251	-43.7	-54.0	318	15
2023-09-05T12:00	10946	251	-43.8	-54.7	318	15
2023-09-05T12:00	10968	250	-44.0	-54.8	318	15
2023-09-05T12:00	10993	249	-44.2	-54.2	319	15
2023-09-05T12:00	11016	248	-44.4	-54.7	319	15
2023-09-05T12:00	11037	247	-44.5	-55.6	320	15
2023-09-05T12:00	11060	246	-44.8	-55.3	320	15
2023-09-05T12:00	11085	245	-44.9	-54.6	321	16
2023-09-05T12:00	11110	244	-45.1	-55.7	321	16
2023-09-05T12:00	11134	244	-45.2	-57.6	321	16
2023-09-05T12:00	11156	243	-45.4	-59.7	322	16
2023-09-05T12:00	11180	242	-45.6	-60.6	323	16
2023-09-05T12:00	11206	241	-45.8	-60.8	325	16
2023-09-05T12:00	11232	240	-45.9	-60.8	326	16
2023-09-05T12:00	11254	239	-46.1	-60.8	326	16
2023-09-05T12:00	11278	238	-46.3	-60.8	326	16
2023-09-05T12:00	11301	238	-46.5	-60.7	326	16
2023-09-05T12:00	11325	237	-46.7	-60.5	326	17
2023-09-05T12:00	11349	236	-46.9	-60.7	326	17
2023-09-05T12:00	11369	235	-47.1	-61.2	326	17
2023-09-05T12:00	11393	234	-47.3	-61.4	326	17
2023-09-05T12:00	11414	234	-47.5	-61.5	326	17
2023-09-05T12:00	11434	233	-47.7	-61.6	326	17
2023-09-05T12:00	11458	232	-47.8	-61.6	326	17
2023-09-05T12:00	11480	231	-48.0	-61.4	325	17
2023-09-05T12:00	11502	230	-48.2	-61.4	325	17
2023-09-05T12:00	11525	230	-48.3	-61.7	325	17
2023-09-05T12:00	11547	229	-48.5	-61.9	326	17
2023-09-05T12:00	11568	228	-48.7	-61.7	326	16
2023-09-05T12:00	11594	227	-48.9	-61.6	327	16
2023-09-05T12:00	11617	226	-49.1	-61.8	327	16
2023-09-05T12:00	11642	226	-49.3	-61.9	327	16
2023-09-05T12:00	11664	225	-49.5	-61.8	327	16
2023-09-05T12:00	11687	224	-49.7	-61.8	328	16
2023-09-05T12:00	11707	223	-49.9	-61.9	328	16
2023-09-05T12:00	11731	223	-50.1	-61.9	328	16
2023-09-05T12:00	11751	222	-50.3	-62.0	328	16
2023-09-05T12:00	11777	221	-50.5	-62.1	327	16
2023-09-05T12:00	11798	220	-50.7	-62.4	327	16
2023-09-05T12:00	11821	220	-50.8	-62.5	327	16
2023-09-05T12:00	11844	219	-51.1	-62.7	327	16
2023-09-05T12:00	11869	218	-51.2	-62.7	328	16
2023-09-05T12:00	11888	217	-51.4	-62.8	328	16
2023-09-05T12:00	11914	216	-51.6	-62.9	328	16
2023-09-05T12:00	11938	216	-51.8	-63.0	328	17
2023-09-05T12:00	11960	215	-52.0	-63.1	327	17
2023-09-05T12:00	11983	214	-52.2	-63.1	327	17
2023-09-05T12:00	12006	213	-52.4	-63.1	327	17
2023-09-05T12:00	12029	213	-52.6	-63.3	327	17
2023-09-05T12:00	12052	212	-52.8	-63.4	326	17
2023-09-05T12:00	12072	211	-53.1	-63.7	326	17
2023-09-05T12:00	12093	210	-53.2	-63.8	324	17
2023-09-05T12:00	12120	210	-53.3	-64.0	323	17
2023-09-05T12:00	12145	209	-53.5	-64.3	322	18
2023-09-05T12:00	12168	208	-53.7	-64.4	321	18
2023-09-05T12:00	12192	207	-53.9	-64.6	320	19
2023-09-05T12:00	12218	206	-54.1	-64.8	320	19
2023-09-05T12:00	12237	206	-54.1	-64.8	319	19
2023-09-05T12:00	12260	205	-54.3	-65.0	319	19
2023-09-05T12:00	12285	204	-54.5	-65.0	320	19
2023-09-05T12:00	12310	203	-54.6	-64.7	321	19
2023-09-05T12:00	12332	203	-54.8	-64.7	322	20
2023-09-05T12:00	12354	202	-54.9	-65.2	322	20
2023-09-05T12:00	12379	201	-54.8	-66.0	323	20
2023-09-05T12:00	12401	201	-54.9	-66.8	323	20
2023-09-05T12:00	12425	200	-55.0	-67.1	324	20
2023-09-05T12:00	12447	199	-55.1	-67.1	324	20
2023-09-05T12:00	12468	198	-55.2	-67.2	326	20
2023-09-05T12:00	12493	198	-55.4	-67.4	327	20
2023-09-05T12:00	12515	197	-55.5	-67.5	328	20
2023-09-05T12:00	12538	196	-55.6	-67.5	329	20
2023-09-05T12:00	12561	196	-55.7	-67.4	330	20
2023-09-05T12:00	12583	195	-55.8	-66.9	331	20
2023-09-05T12:00	12609	194	-56.0	-66.4	331	20
2023-09-05T12:00	12629	194	-56.2	-66.1	331	20
2023-09-05T12:00	12650	193	-56.3	-65.9	331	20
2023-09-05T12:00	12674	192	-56.5	-65.6	331	20
2023-09-05T12:00	12695	192	-56.7	-64.8	332	20
2023-09-05T12:00	12719	191	-56.8	-63.4	332	20
2023-09-05T12:00	12741	190	-57.0	-62.1	333	20
2023-09-05T12:00	12763	189	-57.2	-61.4	333	20
2023-09-05T12:00	12789	189	-57.4	-61.1	334	20
2023-09-05T12:00	12811	188	-57.5	-61.0	334	19
2023-09-05T12:00	12833	187	-57.7	-61.1	334	19
2023-09-05T12:00	12856	187	-57.8	-61.3	334	19
2023-09-05T12:00	12878	186	-58.0	-61.6	334	19
2023-09-05T12:00	12899	185	-58.1	-61.8	333	18
2023-09-05T12:00	12921	185	-58.3	-62.1	333	18
2023-09-05T12:00	12948	184	-58.5	-62.5	332	18
2023-09-05T12:00	12974	183	-58.7	-62.8	331	18
2023-09-05T12:00	12997	183	-58.9	-63.2	330	18
2023-09-05T12:00	13018	182	-59.0	-63.4	329	18
2023-09-05T12:00	13039	181	-59.1	-63.5	329	18
2023-09-05T12:00	13062	181	-59.4	-63.9	329	18
2023-09-05T12:00	13085	180	-59.6	-64.1	329	18
2023-09-05T12:00	13107	179	-59.8	-64.4	329	18
2023-09-05T12:00	13128	179	-60.0	-64.8	329	18
2023-09-05T12:00	13150	178	-60.2	-65.3	329	18
2023-09-05T12:00	13173	178	-60.3	-65.6	329	19
2023-09-05T12:00	13194	177	-60.4	-65.9	329	19
2023-09-05T12:00	13215	176	-60.5	-66.0	329	19
2023-09-05T12:00	13238	176	-60.6	-66.1	329	20
2023-09-05T12:00	13260	175	-60.7	-66.0	329	20
2023-09-05T12:00	13283	174	-60.9	-65.9	330	20
2023-09-05T12:00	13310	174	-61.0	-65.6	330	21
2023-09-05T12:00	13331	173	-61.2	-65.6	331	21
2023-09-05T12:00	13357	172	-61.4	-66.0	331	22
2023-09-05T12:00	13379	172	-61.4	-66.4	332	22
2023-09-05T12:00	13398	171	-61.4		333	23
2023-09-05T12:00	13420	171	-61.6	-67.3	333	23
2023-09-05T12:00	13444	170	-61.7	-67.3	334	23
2023-09-05T12:00	13465	169	-61.8	-67.4	334	23
2023-09-05T12:00	13486	169	-61.9	-67.6	334	22
2023-09-05T12:00	13510	168	-62.1	-68.0	334	22
2023-09-05T12:00	13532	168	-62.1	-68.3	335	22
2023-09-05T12:00	13553	167	-62.3	-69.0	335	21
2023-09-05T12:00	13576	166	-62.4	-69.6	336	21
2023-09-05T12:00	13599	166	-62.5	-70.2	336	21
2023-09-05T12:00	13623	165	-62.7	-70.7	336	21
2023-09-05T12:00	13644	165	-62.9	-71.2	336	21
2023-09-05T12:00	13666	164	-63.0	-71.5	336	21
2023-09-05T12:00	13687	163	-63.1	-71.7	336	21
2023-09-05T12:00	13709	163	-63.2	-71.9	336	20
2023-09-05T12:00	13732	162	-63.2	-72.0	336	20
2023-09-05T12:00	13755	162	-63.3	-72.1	336	20
2023-09-05T12:00	13781	161	-63.5	-72.1	336	20
2023-09-05T12:00	13806	160	-63.7	-72.1	337	20
2023-09-05T12:00	13828	160	-63.9	-72.0	336	20
2023-09-05T12:00	13850	159	-64.0	-71.9	336	19
2023-09-05T12:00	13876	158	-64.1	-71.9	336	19
2023-09-05T12:00	13901	158	-64.2	-72.1	335	19
2023-09-05T12:00	13933	157	-64.1	-72.1	334	18
2023-09-05T12:00	13959	156	-64.1	-72.3	334	17
2023-09-05T12:00	13983	156	-64.1	-72.5	333	17
2023-09-05T12:00	14008	155	-64.2	-72.8	331	16
2023-09-05T12:00	14030	154	-64.3	-73.1	330	16
2023-09-05T12:00	14057	154	-64.3	-73.2	328	16
2023-09-05T12:00	14081	153	-64.1	-73.1	327	16
2023-09-05T12:00	14105	153	-64.1	-73.2	325	16
2023-09-05T12:00	14131	152	-64.3	-73.6	323	15
2023-09-05T12:00	14155	151	-64.1	-73.7	321	15
2023-09-05T12:00	14183	151	-64.1	-74.0	319	15
2023-09-05T12:00	14205	150	-64.2	-74.3	318	14
2023-09-05T12:00	14229	150	-64.2	-74.4	317	14
2023-09-05T12:00	14253	149	-64.2	-74.6	318	14
2023-09-05T12:00	14275	148	-64.3	-74.8	319	14
2023-09-05T12:00	14299	148	-64.2	-75.1	321	14
2023-09-05T12:00	14325	147	-64.2	-75.5	324	14
2023-09-05T12:00	14352	147	-64.0	-75.8	326	15
2023-09-05T12:00	14373	146	-63.8	-76.1	328	15
2023-09-05T12:00	14399	145	-63.8	-76.4	330	15
2023-09-05T12:00	14423	145	-63.9	-76.8	331	15
2023-09-05T12:00	14447	144	-63.9	-76.9	332	15
2023-09-05T12:00	14473	144	-64.1	-77.1	332	15
2023-09-05T12:00	14496	143	-64.3	-77.2	333	15
2023-09-05T12:00	14521	143	-64.5	-77.2	333	15
2023-09-05T12:00	14548	142	-64.7	-77.2	334	15
2023-09-05T12:00	14568	141	-64.9	-77.3	335	15
2023-09-05T12:00	14592	141	-65.1	-77.4	337	15
2023-09-05T12:00	14617	140	-65.3	-77.6	338	15
2023-09-05T12:00	14637	140	-65.2	-77.7	339	15
2023-09-05T12:00	14660	139	-65.2	-78.0	339	14
2023-09-05T12:00	14684	139	-65.2	-78.3	340	14
2023-09-05T12:00	14707	138	-65.3	-78.7	340	13
2023-09-05T12:00	14729	138	-65.1	-78.9	340	12
2023-09-05T12:00	14756	137	-65.0	-79.1	340	11
2023-09-05T12:00	14777	137	-65.0	-79.3	341	11
2023-09-05T12:00	14797	136	-65.1	-79.6	341	10
2023-09-05T12:00	14820	136	-65.1	-79.7	342	10
2023-09-05T12:00	14842	135	-65.2	-79.8	342	9
2023-09-05T12:00	14866	135	-65.2	-79.8	341	9
2023-09-05T12:00	14886	134	-65.4	-80.0	339	9
2023-09-05T12:00	14912	134	-65.5	-80.1	337	8
2023-09-05T12:00	14937	133	-65.5	-80.0	333	8
2023-09-05T12:00	14963	133	-65.8	-80.3	329	8
2023-09-05T12:00	14991	132	-66.0	-80.4	325	7
2023-09-05T12:00	15014	132	-66.1	-80.5	322	7
2023-09-05T12:00	15035	131	-66.2	-80.7	320	7
2023-09-05T12:00	15057	131	-66.0	-80.6	319	7
2023-09-05T12:00	15081	130	-65.9	-80.9	319	7
2023-09-05T12:00	15101	130	-65.8	-81.1	319	7
2023-09-05T12:00	15122	129	-65.7	-81.3	318	8
2023-09-05T12:00	15145	129	-65.5	-81.3	317	8
2023-09-05T12:00	15166	128	-65.5	-81.6	315	8
2023-09-05T12:00	15189	128	-65.5	-81.7	314	8
2023-09-05T12:00	15209	127	-65.5	-81.8	313	8
2023-09-05T12:00	15233	127	-65.6	-81.9	313	8
2023-09-05T12:00	15253	126	-65.7	-82.0	314	8
2023-09-05T12:00	15272	126	-65.7	-82.0	315	8
2023-09-05T12:00	15300	125	-65.8	-82.2	316	8
2023-09-05T12:00	15322	125	-65.7	-82.2	318	8
2023-09-05T12:00	15345	125	-65.7	-82.3	320	8
2023-09-05T12:00	15365	124	-65.8	-82.6	321	8
2023-09-05T12:00	15389	124	-65.5	-82.6	321	8
2023-09-05T12:00	15413	123	-64.7	-82.2	321	9
2023-09-05T12:00	15434	123	-64.5	-82.3	320	9
2023-09-05T12:00	15455	122	-64.4	-82.3	318	10
2023-09-05T12:00	15480	122	-64.5	-82.5	317	10
2023-09-05T12:00	15501	121	-64.6	-82.6	315	10
2023-09-05T12:00	15525	121	-64.7	-82.7	314	10
2023-09-05T12:00	15553	120	-64.8	-82.8	314	10
2023-09-05T12:00	15578	120	-64.9	-82.8	313	10
2023-09-05T12:00	15601	119	-65.0	-82.8	313	10
2023-09-05T12:00	15624	119	-65.2	-82.8	312	10
2023-09-05T12:00	15647	118	-65.3	-82.8	311	11
2023-09-05T12:00	15671	118	-65.5	-82.9	310	11
2023-09-05T12:00	15693	118	-65.6	-83.0	310	11
2023-09-05T12:00	15716	117	-65.5	-83.0	311	11
2023-09-05T12:00	15743	117	-65.2	-82.9	314	11
2023-09-05T12:00	15767	116	-64.5	-82.5	317	11
2023-09-05T12:00	15790	116	-64.4	-82.5	320	11
2023-09-05T12:00	15814	115	-64.5	-82.7	323	11
2023-09-05T12:00	15838	115	-64.6	-82.8	325	11
2023-09-05T12:00	15861	114	-64.6	-82.8	327	11
2023-09-05T12:00	15884	114	-64.7	-82.8	328	10
2023-09-05T12:00	15910	114	-64.9	-82.9	328	10
2023-09-05T12:00	15935	113	-65.1	-82.9	328	10
2023-09-05T12:00	15959	113	-65.3	-83.0	326	10
2023-09-05T12:00	15985	112	-65.4	-83.0	324	9
2023-09-05T12:00	16010	112	-65.8	-83.2	320	9
2023-09-05T12:00	16034	111	-65.9	-83.3	317	9
2023-09-05T12:00	16055	111	-65.7	-83.2	315	9
2023-09-05T12:00	16077	110	-65.5	-83.2	315	9
2023-09-05T12:00	16101	110	-65.1	-82.9	316	9
2023-09-05T12:00	16128	110	-65.0	-83.0	318	9
2023-09-05T12:00	16151	109	-65.0	-83.2	320	9
2023-09-05T12:00	16174	109	-64.7	-83.1	322	9
2023-09-05T12:00	16199	108	-64.6	-83.0	324	9
2023-09-05T12:00	16220	108	-64.7	-83.1	325	9
2023-09-05T12:00	16241	107	-65.0	-83.3	326	9
2023-09-05T12:00	16265	107	-65.1	-83.3	328	9
2023-09-05T12:00	16287	107	-65.3	-83.4	329	8
2023-09-05T12:00	16309	106	-65.5	-83.7	330	8
2023-09-05T12:00	16334	106	-65.5	-83.8	331	7
2023-09-05T12:00	16359	105	-65.1	-83.6	331	6
2023-09-05T12:00	16382	105	-64.9		332	6
2023-09-05T12:00	16405	105	-64.8	-83.8	332	5
2023-09-05T12:00	16429	104	-64.8	-84.0	331	4
2023-09-05T12:00	16452	104	-64.6	-84.1	329	4
2023-09-05T12:00	16477	103	-64.2	-84.0	324	3
2023-09-05T12:00	16500	103	-64.0	-84.0	314	2
2023-09-05T12:00	16527	103	-64.1	-84.1	293	2
2023-09-05T12:00	16553	102	-64.2	-84.2	255	1
2023-09-05T12:00	16575	102	-64.4	-84.3	223	2
2023-09-05T12:00	16601	101	-64.4	-84.3	207	2
2023-09-05T12:00	16627	101	-64.6	-84.4	200	3
2023-09-05T12:00	16654	100	-64.7	-84.4	197	4
2023-09-05T12:00	16677	100	-64.8	-84.6	198	4
2023-09-05T12:00	16704	100	-64.9	-84.9	200	4
2023-09-05T12:00	16729	99	-64.6	-84.9	205	5
2023-09-05T12:00	16752	99	-64.0	-84.7	212	5
2023-09-05T12:00	16777	98	-63.5	-84.6	223	4
2023-09-05T12:00	16804	98	-63.6	-84.8	236	4
2023-09-05T12:00	16828	98	-63.8	-85.0	248	5
2023-09-05T12:00	16851	97	-64.0	-85.1	258	5
2023-09-05T12:00	16876	97	-64.1	-85.1	265	5
2023-09-05T12:00	16898	97	-64.2	-85.0	270	5
2023-09-05T12:00	16922	96	-64.4	-85.2	274	5
2023-09-05T12:00	16946	96	-64.5	-85.2	276	5
2023-09-05T12:00	16972	95	-64.5	-85.2	279	5
2023-09-05T12:00	16994	95	-64.6	-85.5	282	5
2023-09-05T12:00	17021	95	-64.3	-85.4	284	6
2023-09-05T12:00	17041	94	-64.1	-85.4	286	6
2023-09-05T12:00	17064	94	-64.0	-85.5	287	6
2023-09-05T12:00	17090	94	-63.9	-85.4	286	6
2023-09-05T12:00	17116	93	-63.8	-85.5	285	6
2023-09-05T12:00	17137	93	-63.8	-85.5	282	6
2023-09-05T12:00	17161	92	-63.9	-85.4	279	5
2023-09-05T12:00	17186	92	-63.9	-85.4	276	5
2023-09-05T12:00	17215	92	-64.2	-85.6	275	5
2023-09-05T12:00	17237	91	-64.3	-85.5	276	5
2023-09-05T12:00	17260	91	-64.3	-85.5	279	5
2023-09-05T12:00	17282	91	-64.0	-85.3	284	5
2023-09-05T12:00	17308	90	-64.2	-85.5	291	5
2023-09-05T12:00	17331	90	-64.4	-85.6	298	5
2023-09-05T12:00	17357	90	-64.3	-85.5	304	5
2023-09-05T12:00	17380	89	-64.4	-85.6	310	6
2023-09-05T12:00	17405	89	-64.4	-85.6	316	5
2023-09-05T12:00	17428	89	-64.4	-85.9	321	5
2023-09-05T12:00	17452	88	-64.4	-86.1	326	4
2023-09-05T12:00	17478	88	-64.1	-86.2	330	4
2023-09-05T12:00	17501	87	-63.6	-86.2	332	3
2023-09-05T12:00	17525	87	-63.1	-86.2	328	2
2023-09-05T12:00	17549	87	-62.5	-86.2	314	2
2023-09-05T12:00	17574	86	-61.9	-85.9	296	2
2023-09-05T12:00	17597	86	-61.6	-85.9	288	2
2023-09-05T12:00	17622	86	-61.4	-86.0	288	3
2023-09-05T12:00	17645	85	-61.3	-86.0	294	3
2023-09-05T12:00	17671	85	-61.3	-86.0	301	3
2023-09-05T12:00	17692	85	-61.1	-85.8	308	3
2023-09-05T12:00	17716	84	-61.1	-85.8	314	3
2023-09-05T12:00	17740	84	-61.1	-85.8	316	3
2023-09-05T12:00	17768	84	-61.1	-85.8	313	3
2023-09-05T12:00	17788	83	-60.7	-85.8	306	3
2023-09-05T12:00	17814	83	-60.4	-85.5	295	3
2023-09-05T12:00	17838	83	-60.3	-85.5	284	3
2023-09-05T12:00	17864	83	-60.4	-85.5	275	4
2023-09-05T12:00	17887	82	-60.6	-86.0	269	4
2023-09-05T12:00	17911	82	-60.4	-85.8	267	4
2023-09-05T12:00	17935	82	-59.9	-85.4	269	4
2023-09-05T12:00	17960	81	-59.8	-85.3	274	4
2023-09-05T12:00	17985	81	-59.7	-85.3	282	4
2023-09-05T12:00	18008	81	-59.8	-85.3	289	4
2023-09-05T12:00	18036	80	-60.0	-85.5	295	4
2023-09-05T12:00	18062	80	-60.1	-85.3	300	4
2023-09-05T12:00	18085	80	-60.3	-85.5	303	4
2023-09-05T12:00	18112	79	-60.5	-85.6	305	4
2023-09-05T12:00	18136	79	-60.7	-85.5	306	5
2023-09-05T12:00	18159	79	-60.9	-85.7	308	5
2023-09-05T12:00	18187	78	-61.0	-85.7	309	5
2023-09-05T12:00	18210	78	-61.2	-85.6	310	5
2023-09-05T12:00	18236	78	-61.3	-85.7	311	5
2023-09-05T12:00	18264	77	-61.6	-85.9	312	5
2023-09-05T12:00	18287	77	-61.8	-86.1	311	6
2023-09-05T12:00	18314	77	-61.8	-86.1	309	6
2023-09-05T12:00	18336	76	-62.0	-86.3	307	6
2023-09-05T12:00	18360	76	-62.2	-86.2	304	6
2023-09-05T12:00	18387	76	-62.3	-86.3	302	6
2023-09-05T12:00	18414	76	-62.5		301	6
2023-09-05T12:00	18439	75	-62.4	-86.3	300	6
2023-09-05T12:00	18465	75	-62.5		300	6
2023-09-05T12:00	18490	75	-62.6	-86.5	301	7
2023-09-05T12:00	18515	74	-62.6	-86.5	302	7
2023-09-05T12:00	18538	74	-62.6	-86.5	303	7
2023-09-05T12:00	18561	74	-62.5	-86.7	305	7
2023-09-05T12:00	18590	73	-62.6	-86.7	308	7
2023-09-05T12:00	18612	73	-62.7	-86.8	311	7
2023-09-05T12:00	18634	73	-62.6	-86.7	314	7
2023-09-05T12:00	18659	73	-62.4	-86.6	318	7
2023-09-05T12:00	18687	72	-62.4	-86.8	321	7
2023-09-05T12:00	18708	72	-62.4	-86.8	323	6
2023-09-05T12:00	18734	72	-62.2	-86.7	324	6
2023-09-05T12:00	18756	71	-62.1	-86.9	323	6
2023-09-05T12:00	18783	71	-61.8	-86.6	321	6
2023-09-05T12:00	18808	71	-61.5	-86.7	320	6
2023-09-05T12:00	18828	71	-61.4	-86.6	318	5
2023-09-05T12:00	18855	70	-61.3	-86.5	317	4
2023-09-05T12:00	18882	70	-61.2	-86.7	315	4
2023-09-05T12:00	18910	70	-61.1	-86.6	310	3
2023-09-05T12:00	18932	69	-61.0	-86.6	302	3
2023-09-05T12:00	18959	69	-60.6	-86.3	291	3
2023-09-05T12:00	18982	69	-60.5	-86.2	281	3
2023-09-05T12:00	19007	69	-60.6	-86.3	275	3
2023-09-05T12:00	19033	68	-60.5	-86.2	271	3
2023-09-05T12:00	19057	68	-60.5	-86.2	268	3
2023-09-05T12:00	19083	68	-60.5	-85.9	268	4
2023-09-05T12:00	19105	68	-60.7	-86.0	269	3
2023-09-05T12:00	19131	67	-60.9	-86.2	272	3
2023-09-05T12:00	19160	67	-61.0	-86.3	278	3
2023-09-05T12:00	19180	67	-61.0	-86.3	286	2
2023-09-05T12:00	19203	66	-61.1	-86.4	296	2
2023-09-05T12:00	19230	66	-61.0	-86.3	305	2
2023-09-05T12:00	19252	66	-60.9	-86.2	312	2
2023-09-05T12:00	19273	66	-60.9	-86.2	320	1
2023-09-05T12:00	19301	65	-61.1	-86.6	333	1
2023-09-05T12:00	19331	65	-60.9	-86.5	358	1
2023-09-05T12:00	19350	65	-60.4		27	1
2023-09-05T12:00	19379	65	-60.2	-86.3	41	1
2023-09-05T12:00	19400	64	-60.1	-86.5	42	1
2023-09-05T12:00	19426	64	-59.9	-86.3	30	1
2023-09-05T12:00	19451	64	-59.6	-86.1	340	0
2023-09-05T12:00	19476	64	-59.4	-86.0	283	1
2023-09-05T12:00	19501	63	-59.3	-85.9	267	1
2023-09-05T12:00	19528	63	-59.4	-86.0	263	2
2023-09-05T12:00	19553	63	-59.6	-86.1	264	2
2023-09-05T12:00	19576	63	-59.7	-86.2	269	2
2023-09-05T12:00	19604	62	-59.7	-86.2	277	2
2023-09-05T12:00	19629	62	-59.6	-86.1	288	2
2023-09-05T12:00	19654	62	-59.4	-86.0	303	1
2023-09-05T12:00	19682	62	-59.4	-86.0	328	1
2023-09-05T12:00	19710	61	-59.4	-86.0	0	1
2023-09-05T12:00	19730	61	-59.5	-86.0	20	1
2023-09-05T12:00	19757	61	-59.6	-86.1	25	2
2023-09-05T12:00	19782	61	-59.5	-86.0	21	2
2023-09-05T12:00	19808	60	-59.3	-85.9	15	3
2023-09-05T12:00	19835	60	-59.2	-85.8	8	3
2023-09-05T12:00	19859	60	-59.2	-86.2	2	3
2023-09-05T12:00	19886	60	-59.1		357	4
2023-09-05T12:00	19907	59	-58.9	-85.9	352	4
2023-09-05T12:00	19937	59	-58.9	-85.9	347	4
2023-09-05T12:00	19964	59	-58.9	-85.9	345	5
2023-09-05T12:00	19988	59	-59.0	-86.0	344	5
2023-09-05T12:00	20015	58	-59.0	-85.7	345	5
2023-09-05T12:00	20036	58	-59.1	-85.7	347	5
2023-09-05T12:00	20062	58	-59.1	-85.7	350	5
2023-09-05T12:00	20090	58	-59.1	-85.7	353	5
2023-09-05T12:00	20115	57	-59.0	-85.7	355	5
2023-09-05T12:00	20142	57	-59.2	-85.8	357	5
2023-09-05T12:00	20167	57	-59.3	-85.9	359	5
2023-09-05T12:00	20193	57	-59.3	-85.9	2	4
2023-09-05T12:00	20222	57	-59.3	-85.9	5	4
2023-09-05T12:00	20248	56	-59.3	-85.9	8	4
2023-09-05T12:00	20272	56	-59.4	-86.0	13	3
2023-09-05T12:00	20299	56	-59.5	-86.0	17	3
2023-09-05T12:00	20328	56	-59.5	-86.0	21	3
2023-09-05T12:00	20354	55	-59.6	-86.1	22	3
2023-09-05T12:00	20376	55	-59.7	-86.2	22	3
2023-09-05T12:00	20402	55	-59.6	-86.1	20	2
2023-09-05T12:00	20431	55	-59.4	-86.0	15	2
2023-09-05T12:00	20455	54	-59.3	-85.9	6	2
2023-09-05T12:00	20482	54	-59.4	-86.0	355	2
2023-09-05T12:00	20505	54	-59.6	-86.1	347	2
2023-09-05T12:00	20532	54	-59.5	-86.0	344	3
2023-09-05T12:00	20564	54	-59.7	-86.2	344	3
2023-09-05T12:00	20587	53	-59.6	-86.1	346	4
2023-09-05T12:00	20611	53	-59.5	-86.0	347	5
2023-09-05T12:00	20639	53	-59.6	-86.1	349	5
2023-09-05T12:00	20664	53	-59.7	-86.2	351	6
2023-09-05T12:00	20688	52	-59.7	-86.2	353	6
2023-09-05T12:00	20714	52	-59.6	-86.1	356	6
2023-09-05T12:00	20741	52	-59.5	-86.0	358	6
2023-09-05T12:00	20764	52	-59.4	-86.3	0	6
2023-09-05T12:00	20792	52	-59.4	-86.3	2	5
2023-09-05T12:00	20819	51	-59.2	-86.2	4	5
2023-09-05T12:00	20844	51	-58.8	-85.9	6	4
2023-09-05T12:00	20872	51	-58.7	-86.1	9	4
2023-09-05T12:00	20900	51	-58.5	-86.0	13	3
2023-09-05T12:00	20932	50	-58.5	-86.0	17	3
2023-09-05T12:00	20953	50	-58.4	-85.9	21	2
2023-09-05T12:00	20981	50	-58.5	-86.0	24	2
2023-09-05T12:00	21007	50	-58.4	-85.9	28	2
2023-09-05T12:00	21032	50	-58.3	-85.8	32	2
2023-09-05T12:00	21059	49	-58.2	-85.8	36	2
2023-09-05T12:00	21079	49	-57.9	-85.5	39	2
2023-09-05T12:00	21103	49	-57.6	-85.3	41	2
2023-09-05T12:00	21133	49	-57.7	-85.8	41	2
2023-09-05T12:00	21156	49	-57.5	-85.6	41	2
2023-09-05T12:00	21183	48	-57.4	-85.6	40	3
2023-09-05T12:00	21206	48	-57.3	-85.5	39	3
2023-09-05T12:00	21232	48	-57.2	-85.4	39	3
2023-09-05T12:00	21258	48	-57.3	-85.1	37	3
2023-09-05T12:00	21285	48	-57.4	-85.2	36	3
2023-09-05T12:00	21309	48	-57.3	-85.1	35	3
2023-09-05T12:00	21337	47	-57.4	-85.2	34	3
2023-09-05T12:00	21357	47	-57.5	-85.2	35	3
2023-09-05T12:00	21389	47	-57.4	-85.2	39	2
2023-09-05T12:00	21410	47	-57.4	-85.2	46	3
2023-09-05T12:00	21437	47	-57.6	-85.3	53	3
2023-09-05T12:00	21463	46	-57.6	-85.3	59	3
2023-09-05T12:00	21487	46	-57.6	-85.3	64	3
2023-09-05T12:00	21516	46	-57.6	-85.3	68	3
2023-09-05T12:00	21543	46	-57.7	-85.4	72	3
2023-09-05T12:00	21570	46	-57.8	-85.5	78	3
2023-09-05T12:00	21597	45	-57.9	-85.2	84	2
2023-09-05T12:00	21618	45	-58.1	-85.3	91	2
2023-09-05T12:00	21645	45	-58.2	-85.4	99	1
2023-09-05T12:00	21671	45	-58.2	-85.4	109	1
2023-09-05T12:00	21694	45	-58.2	-85.4	144	0
2023-09-05T12:00	21724	45	-58.2	-85.4	281	1
2023-09-05T12:00	21745	44	-58.3	-85.5	294	1
2023-09-05T12:00	21772	44	-58.3	-85.8	302	2
2023-09-05T12:00	21801	44	-58.2	-85.8	308	3
2023-09-05T12:00	21824	44	-58.1	-85.7	313	4
2023-09-05T12:00	21847	44	-58.1	-85.7	316	5
2023-09-05T12:00	21873	43	-57.8	-85.5	319	6
2023-09-05T12:00	21897	43	-57.8	-85.5	321	7
2023-09-05T12:00	21921	43	-57.8	-85.5	323	7
2023-09-05T12:00	21947	43	-57.7	-85.4	325	7
2023-09-05T12:00	21978	43	-57.7	-85.8	327	7
2023-09-05T12:00	22007	43	-57.6	-85.7	331	6
2023-09-05T12:00	22032	42	-57.4	-85.6	336	6
2023-09-05T12:00	22059	42	-57.4	-85.6	343	5
2023-09-05T12:00	22085	42	-57.4	-85.6	353	4
2023-09-05T12:00	22113	42	-57.3	-85.5	6	3
2023-09-05T12:00	22136	42	-57.4	-85.2	21	3
2023-09-05T12:00	22163	41	-57.6	-85.3	33	3
2023-09-05T12:00	22195	41	-57.7	-85.4	40	3
2023-09-05T12:00	22223	41	-57.8	-85.5	40	3
2023-09-05T12:00	22249	41	-57.8	-85.5	33	2
2023-09-05T12:00	22275	41	-57.7	-85.4	22	3
2023-09-05T12:00	22303	41	-57.7	-85.4	14	3
2023-09-05T12:00	22330	40	-57.7	-85.4	11	3
2023-09-05T12:00	22360	40	-57.8	-85.5	11	3
2023-09-05T12:00	22387	40	-57.8	-85.5	16	3
2023-09-05T12:00	22419	40	-57.7	-85.4	23	3
2023-09-05T12:00	22443	40	-57.7	-85.8	32	3
2023-09-05T12:00	22477	40	-57.5	-85.6	39	3
2023-09-05T12:00	22499	39	-57.4	-85.6	45	4
2023-09-05T12:00	22535	39	-57.4	-85.6	49	4
2023-09-05T12:00	22554	39	-57.4	-85.6	51	5
2023-09-05T12:00	22587	39	-57.4	-85.6	53	5
2023-09-05T12:00	22610	39	-57.2	-85.4	53	6
2023-09-05T12:00	22636	38	-56.9	-85.6	53	6
2023-09-05T12:00	22666	38	-56.7	-85.4	52	7
2023-09-05T12:00	22696	38	-56.4	-85.2	50	7
2023-09-05T12:00	22722	38	-56.4	-85.2	48	8
2023-09-05T12:00	22748	38	-56.4	-85.2	47	8
2023-09-05T12:00	22779	38	-56.5	-85.3	49	8
2023-09-05T12:00	22803	38	-56.4	-85.2	52	8
2023-09-05T12:00	22830	37	-56.2	-85.1	57	8
2023-09-05T12:00	22861	37	-56.2	-84.6	63	9
2023-09-05T12:00	22881	37	-56.4	-84.8	69	9
2023-09-05T12:00	22909	37	-56.6	-84.9	74	8
2023-09-05T12:00	22935	37	-56.7	-85.0	79	8
2023-09-05T12:00	22962	37	-56.8	-85.1	84	8
2023-09-05T12:00	22993	36	-56.9	-85.2	88	8
2023-09-05T12:00	23017	36	-56.9	-85.2	91	7
2023-09-05T12:00	23045	36	-56.8	-85.1	92	7
2023-09-05T12:00	23061	36	-56.7	-85.0	92	7
2023-09-05T12:00	23093	36	-56.6	-85.4	90	6
2023-09-05T12:00	23120	36	-56.4	-85.2	87	6
2023-09-05T12:00	23148	36	-56.2	-85.1	83	6
2023-09-05T12:00	23168	35	-56.0		79	6
2023-09-05T12:00	23194	35	-55.8	-85.2	75	6
2023-09-05T12:00	23222	35	-55.6	-85.1	71	6
2023-09-05T12:00	23252	35	-55.5	-85.0	67	6
2023-09-05T12:00	23276	35	-55.6	-84.6	65	6
2023-09-05T12:00	23305	35	-55.8	-84.8	65	6
2023-09-05T12:00	23327	35	-55.8	-84.8	68	6
2023-09-05T12:00	23358	34	-55.7	-84.7	74	7
2023-09-05T12:00	23382	34	-55.7	-84.7	80	7
2023-09-05T12:00	23417	34	-55.8	-84.8	88	7
2023-09-05T12:00	23438	34	-55.9	-84.8	95	7
2023-09-05T12:00	23469	34	-56.0	-84.9	103	7
2023-09-05T12:00	23496	34	-56.0	-84.9	110	7
2023-09-05T12:00	23524	34	-56.0	-84.9	117	7
2023-09-05T12:00	23547	33	-55.9	-84.8	124	7
2023-09-05T12:00	23576	33	-55.8	-84.8	130	7
2023-09-05T12:00	23609	33	-55.8	-84.8	136	6
2023-09-05T12:00	23636	33	-55.8	-84.8	142	6
2023-09-05T12:00	23662	33	-55.8	-84.8	149	6
2023-09-05T12:00	23691	33	-55.8	-84.8	155	5
2023-09-05T12:00	23720	32	-55.5	-84.5	162	4
2023-09-05T12:00	23747	32	-55.6	-84.6	169	4
2023-09-05T12:00	23780	32	-55.8	-84.8	175	3
2023-09-05T12:00	23808	32	-56.0	-84.5	181	3
2023-09-05T12:00	23834	32	-56.2	-84.6	186	3
2023-09-05T12:00	23868	32	-56.4	-84.8	186	2
2023-09-05T12:00	23897	32	-56.6	-84.9	180	2
2023-09-05T12:00	23926	31	-56.7	-85.0	165	1
2023-09-05T12:00	23952	31	-56.8	-85.1	143	1
2023-09-05T12:00	23983	31	-56.9	-85.2	126	1
2023-09-05T12:00	24009	31	-57.0	-85.2	121	2
2023-09-05T12:00	24036	31	-57.1	-85.3	122	2
2023-09-05T12:00	24061	31	-57.0	-85.2	129	2
2023-09-05T12:00	24094	31	-56.9	-85.2	139	2
2023-09-05T12:00	24126	30	-56.9	-85.2	150	2
2023-09-05T12:00	24153	30	-56.9	-85.6	162	2
2023-09-05T12:00	24180	30	-56.9	-85.6	176	2
2023-09-05T12:00	24211	30	-56.8	-85.5	193	2
2023-09-05T12:00	24240	30	-56.5	-85.3	217	1
2023-09-05T12:00	24269	30	-56.1	-85.5	252	1
2023-09-05T12:00	24297	30	-55.8	-85.2	287	2
2023-09-05T12:00	24317	30	-55.8	-85.2	313	2
2023-09-05T12:00	24359	29	-55.9	-85.3	330	3
2023-09-05T12:00	24379	29	-56.0	-84.9	342	3
2023-09-05T12:00	24405	29	-56.0	-84.9	352	4
2023-09-05T12:00	24427	29	-55.9	-84.8	360	4
2023-09-05T12:00	24459	29	-55.8	-84.8	7	5
2023-09-05T12:00	24485	29	-55.9	-84.8	15	5
2023-09-05T12:00	24513	29	-56.0	-84.9	22	5
2023-09-05T12:00	24537	29	-55.9	-85.3	28	6
2023-09-05T12:00	24574	28	-55.7	-85.2	32	6
2023-09-05T12:00	24598	28	-55.6	-85.1	34	6
2023-09-05T12:00	24628	28	-55.4	-84.9	32	5
2023-09-05T12:00	24650	28	-55.1	-85.2	28	5
2023-09-05T12:00	24681	28	-54.8	-85.0	21	4
2023-09-05T12:00	24707	28	-54.4	-84.7	9	2
2023-09-05T12:00	24735	28	-54.0	-84.4	342	1
2023-09-05T12:00	24766	28	-53.8	-84.2	285	1
2023-09-05T12:00	24789	27	-53.7	-84.2	247	2
2023-09-05T12:00	24818	27	-53.7	-84.2	233	3
2023-09-05T12:00	24843	27	-53.7	-84.2	228	3
2023-09-05T12:00	24873	27	-53.7	-84.2	226	4
2023-09-05T12:00	24901	27	-53.7	-84.2	226	5
2023-09-05T12:00	24926	27	-53.6	-84.1	227	6
2023-09-05T12:00	24951	27	-53.8	-83.7	227	6
2023-09-05T12:00	24983	27	-53.9	-84.3	227	7
2023-09-05T12:00	25003	27	-53.9	-84.3	226	7
2023-09-05T12:00	25037	26	-53.6	-84.1	225	7
2023-09-05T12:00	25061	26	-53.3	-83.9	223	7
2023-09-05T12:00	25094	26	-53.2	-83.8	222	7
2023-09-05T12:00	25125	26	-53.2	-83.8	221	6
2023-09-05T12:00	25151	26	-53.1	-83.7	222	5
2023-09-05T12:00	25182	26	-53.0	-83.6	223	5
2023-09-05T12:00	25212	26	-53.1	-83.7	228	4
2023-09-05T12:00	25249	26	-53.2	-83.8	235	4
2023-09-05T12:00	25263	25	-53.4	-83.4	244	3
2023-09-05T12:00	25297	25	-53.7	-83.7	258	3
2023-09-05T12:00	25327	25	-53.9	-83.8	276	3
2023-09-05T12:00	25355	25	-54.0	-83.9	296	3
2023-09-05T12:00	25388	25	-54.1	-84.0	316	3
2023-09-05T12:00	25409	25	-54.3	-83.6	333	3
2023-09-05T12:00	25445	25	-54.6	-83.9	349	3
2023-09-05T12:00	25484	25	-54.8	-84.0	3	4
2023-09-05T12:00	25503	25	-55.0	-84.2	16	4
2023-09-05T12:00	25536	24	-55.1	-84.2	27	5
2023-09-05T12:00	25572	24	-55.3	-84.4	36	5
2023-09-05T12:00	25591	24	-55.5	-84.5	42	6
2023-09-05T12:00	25617	24	-55.6	-84.6	46	6
2023-09-05T12:00	25660	24	-55.6	-84.6	48	6
2023-09-05T12:00	25676	24	-55.3	-84.9	48	6
2023-09-05T12:00	25714	24	-55.3	-84.9	46	5
2023-09-05T12:00	25745	24	-55.3	-84.9	43	5
2023-09-05T12:00	25764	24	-55.3	-84.9	40	4
2023-09-05T12:00	25791	23	-55.3	-84.9	35	4
2023-09-05T12:00	25822	23	-55.1	-84.7	30	3
2023-09-05T12:00	25852	23	-55.0	-84.6	20	3
2023-09-05T12:00	25888	23	-55.1	-84.7	7	3
2023-09-05T12:00	25911	23	-55.1	-84.7	354	3
2023-09-05T12:00	25939	23	-55.3	-84.9	346	3
2023-09-05T12:00	25971	23	-55.3	-84.9	343	4
2023-09-05T12:00	25996	23	-55.3	-84.9	342	5
2023-09-05T12:00	26016	23	-55.2	-84.8	343	5
2023-09-05T12:00	26056	23	-55.0	-85.1	345	6
2023-09-05T12:00	26081	22	-54.7	-84.9	348	7
2023-09-05T12:00	26110	22	-54.4	-84.7	352	7
2023-09-05T12:00	26142	22	-54.1	-84.5	358	8
2023-09-05T12:00	26167	22	-53.8	-84.2	4	8
2023-09-05T12:00	26197	22	-53.8	-84.2	11	8
2023-09-05T12:00	26233	22	-53.9	-84.3	18	9
2023-09-05T12:00	26265	22	-54.0	-84.4	25	9
2023-09-05T12:00	26290	22	-54.0	-84.4	32	8
2023-09-05T12:00	26336	22	-53.9	-84.3	39	8
2023-09-05T12:00	26349	22	-53.7	-84.2	46	8
2023-09-05T12:00	26385	21	-53.5	-84.0	55	7
2023-09-05T12:00	26409	21	-53.3	-83.9	66	7
2023-09-05T12:00	26449	21	-53.3	-83.9	77	7
2023-09-05T12:00	26477	21	-53.3	-84.4	87	8
2023-09-05T12:00	26501	21	-53.4	-84.5	96	8
2023-09-05T12:00	26532	21	-53.2	-84.4	103	9
2023-09-05T12:00	26563	21	-52.7	-84.0	109	10
2023-09-05T12:00	26581	21	-52.2	-84.2	115	10
2023-09-05T12:00	26620	21	-51.8	-83.9	120	10
2023-09-05T12:00	26655	21	-51.5	-83.7	125	10
2023-09-05T12:00	26672	20	-51.4	-83.6	130	10
2023-09-05T12:00	26712	20	-51.4	-83.6	135	9
2023-09-05T12:00	26731	20	-51.4	-83.6	141	9
2023-09-05T12:00	26769	20	-51.2	-83.5	148	8
2023-09-05T12:00	26779	20	-50.7	-83.1	155	8
2023-09-05T12:00	26819	20	-50.5	-83.0	161	7
2023-09-05T12:00	26840	20	-50.5	-83.0	167	7
2023-09-05T12:00	26881	20	-50.6	-83.1	172	7
2023-09-05T12:00	26905	20	-50.7	-83.1	175	7
2023-09-05T12:00	26927	20	-50.5	-83.0	179	6
2023-09-05T12:00	26958	20	-50.3	-82.8	182	6
2023-09-05T12:00	26984	20	-50.2	-82.8	185	6
2023-09-05T12:00	27014	19	-50.3	-82.8	187	5
2023-09-05T12:00	27036	19	-50.4	-82.9	187	5
2023-09-05T12:00	27056	19	-50.5	-83.0	183	5
2023-09-05T12:00	27094	19	-50.5	-83.0	175	5
2023-09-05T12:00	27123	19	-50.4	-82.9	166	5
2023-09-05T12:00	27156	19	-50.3	-82.8	160	6
2023-09-05T12:00	27179	19	-50.0	-82.6	157	7
2023-09-05T12:00	27206	19	-50.0	-82.6	157	8
2023-09-05T12:00	27238	19	-50.1	-82.7	158	8
2023-09-05T12:00	27271	19	-50.0	-82.6	161	8
2023-09-05T12:00	27291	19	-50.0	-82.6	165	8
2023-09-05T12:00	27323	19	-49.8	-82.5	170	7
2023-09-05T12:00	27353	18	-49.4	-82.2	175	6
2023-09-05T12:00	27383	18	-49.1	-82.7	181	5
2023-09-05T12:00	27416	18	-49.1	-82.7	187	5
2023-09-05T12:00	27444	18	-48.9	-82.5	193	4
2023-09-05T12:00	27478	18	-48.8	-82.4	199	3
2023-09-05T12:00	27499	18	-48.6	-82.3	204	3
2023-09-05T12:00	27540	18	-48.4	-82.2	208	2
2023-09-05T12:00	27560	18	-48.3	-82.1	208	2
2023-09-05T12:00	27590	18	-48.4	-82.2	201	2
2023-09-05T12:00	27621	18	-48.5	-82.2	191	2
2023-09-05T12:00	27661	18	-48.5	-82.2	184	2
2023-09-05T12:00	27689	18	-48.4	-81.4	182	3
2023-09-05T12:00	27720	17	-48.4	-81.4	184	3
2023-09-05T12:00	27758	17	-48.6	-81.6	188	4
2023-09-05T12:00	27780	17	-48.7	-81.7	193	4
2023-09-05T12:00	27807	17	-48.7	-81.7	200	4
2023-09-05T12:00	27841	17	-48.7	-81.7	207	4
2023-09-05T12:00	27866	17	-48.7	-81.7	213	4
2023-09-05T12:00	27908	17	-48.7	-81.7	217	4
2023-09-05T12:00	27946	17	-48.9	-81.8	216	4
2023-09-05T12:00	27971	17	-48.9	-81.8	210	3
2023-09-05T12:00	27994	17	-48.9	-81.8	201	3
2023-09-05T12:00	28018	17	-48.9	-81.8	189	3
2023-09-05T12:00	28056	17	-48.9	-81.8	179	4
2023-09-05T12:00	28083	17	-48.9	-82.5	173	4
2023-09-05T12:00	28121	16	-48.9	-82.5	171	5
2023-09-05T12:00	28142	16	-48.8	-82.4	172	6
2023-09-05T12:00	28172	16	-48.4	-82.2	174	7
2023-09-05T12:00	28204	16	-47.9	-81.8	177	8
2023-09-05T12:00	28244	16	-47.7	-81.6	180	8
2023-09-05T12:00	28268	16	-47.7	-81.6	182	9
2023-09-05T12:00	28297	16	-47.6	-81.6	184	10
2023-09-05T12:00	28320	16	-47.6	-81.6	186	10
2023-09-05T12:00	28348	16	-47.5	-81.5	188	10
2023-09-05T12:00	28383	16	-47.5	-81.5	190	11
2023-09-05T12:00	28405	16	-47.4	-81.4	192	11
2023-09-05T12:00	28441	16	-47.4	-81.4	194	11
2023-09-05T12:00	28453	16	-47.5	-81.5	197	11
2023-09-05T12:00	28491	16	-47.7	-81.6	200	11
2023-09-05T12:00	28533	15	-47.8	-81.7	203	10
2023-09-05T12:00	28540	15	-47.8	-81.7	207	10
2023-09-05T12:00	28590	15	-47.8	-81.7	212	9
2023-09-05T12:00	28606	15	-47.8	-81.7	217	9
2023-09-05T12:00	28628	15	-47.8	-81.7	223	8
2023-09-05T12:00	28672	15	-47.8	-81.7	229	7
2023-09-05T12:00	28679	15	-47.7	-81.6	235	7
2023-09-05T12:00	28706	15	-47.7	-81.6	238	7
2023-09-05T12:00	28749	15	-47.7	-81.6	239	7
2023-09-05T12:00	28768	15	-47.3	-82.2	236	7
2023-09-05T12:00	28801	15	-47.0	-81.9	232	7
2023-09-05T12:00	28834	15	-47.0	-81.9	227	7
2023-09-05T12:00	28867	15	-46.9	-81.9	222	7
2023-09-05T12:00	28905	15	-47.0	-81.9	216	7
2023-09-05T12:00	28925	15	-47.1	-81.2	210	7
2023-09-05T12:00	28958	14	-47.2	-81.3	205	7
2023-09-05T12:00	28997	14	-47.2	-81.3	203	8
2023-09-05T12:00	29019	14	-47.2	-81.3	203	8
2023-09-05T12:00	29053	14	-47.3	-81.4	206	8
2023-09-05T12:00	29083	14	-47.2	-81.3	210	8
2023-09-05T12:00	29098	14	-46.9	-81.1	214	9
2023-09-05T12:00	29159	14	-46.9	-81.1	218	9
2023-09-05T12:00	29173	14	-47.1	-81.2	223	9
2023-09-05T12:00	29206	14	-47.3	-81.4	227	9
2023-09-05T12:00	29255	14	-47.5	-81.5	232	9
2023-09-05T12:00	29276	14	-47.6	-81.6	236	9
2023-09-05T12:00	29314	14	-47.8	-81.7	240	9
2023-09-05T12:00	29324	14	-47.9	-81.8	243	9
2023-09-05T12:00	29370	14	-47.9	-81.8	245	8
2023-09-05T12:00	29389	14	-47.9	-81.8	247	8
2023-09-05T12:00	29440	13	-48.1	-81.9	247	7
2023-09-05T12:00	29462	13	-48.3	-82.1	247	7
2023-09-05T12:00	29499	13	-48.5	-82.2	246	7
2023-09-05T12:00	29524	13	-48.6	-82.3	244	7
2023-09-05T12:00	29542	13	-48.7	-82.4	241	7
2023-09-05T12:00	29577	13	-48.8	-82.4	239	7
2023-09-05T12:00	29625	13	-48.9	-82.5	236	8
2023-09-05T12:00	29645	13	-48.7	-82.4	234	8
2023-09-05T12:00	29683	13	-48.6	-82.3	232	8
2023-09-05T12:00	29721	13	-48.5	-82.2	231	8
2023-09-05T12:00	29747	13	-48.4	-82.2	229	8
2023-09-05T12:00	29774	13	-48.4	-82.2	227	8
2023-09-05T12:00	29806	13	-48.3	-82.1	225	8
2023-09-05T12:00	29837	13	-48.3	-82.1	223	8
2023-09-05T12:00	29876	13	-48.2	-82.0	222	8
2023-09-05T12:00	29899	13	-48.2	-82.8	221	8
2023-09-05T12:00	29905	13	-47.9	-82.6	222	8
2023-09-05T12:00	29955	12	-47.7	-82.4	224	8
2023-09-05T12:00	29989	12	-47.6	-82.4	227	8
2023-09-05T12:00	30017	12	-47.7	-82.4	230	8
2023-09-05T12:00	30044	12	-47.5	-82.3	232	8
2023-09-05T12:00	30065	12	-47.4	-82.2	232	8
2023-09-05T12:00	30099	12	-47.5	-82.3	232	8
2023-09-05T12:00	30139	12	-47.7	-81.6	231	8
2023-09-05T12:00	30143	12	-47.7	-81.6	230	8
2023-09-05T12:00	30187	12	-47.8	-81.7	229	8
2023-09-05T12:00	30198	12	-47.9	-81.8	229	7
2023-09-05T12:00	30242	12	-48.1	-81.9	228	7
2023-09-05T12:00	30266	12	-48.2	-82.0	228	6
2023-09-05T12:00	30281	12	-47.9	-82.6	229	6
2023-09-05T12:00	30318	12	-47.4	-82.2	230	5
2023-09-05T12:00	30335	12	-47.1	-82.0	232	5
2023-09-05T12:00	30369	12	-46.9	-81.9	232	5
2023-09-05T12:00	30387	12	-46.5	-81.6	231	4
2023-09-05T12:00	30438	12	-46.3	-81.4	226	4
2023-09-05T12:00	30455	12	-46.3	-81.4	216	3
2023-09-05T12:00	30480	11	-46.4	-81.5	204	3
2023-09-05T12:00	30526	11	-46.4	-81.5	193	3
2023-09-05T12:00	30543	11	-46.3	-81.4	184	3
2023-09-05T12:00	30572	11	-46.2	-81.4	178	3
2023-09-05T12:00	30603	11	-46.3	-81.4	172	3
2023-09-05T12:00	30630	11	-46.6	-81.7	166	2
2023-09-05T12:00	30654	11	-46.8	-81.8	161	2
2023-09-05T12:00	30691	11	-46.9	-81.9	159	2
2023-09-05T12:00	30711	11	-47.0	-81.9	164	2
2023-09-05T12:00	30752	11	-46.9	-81.9	174	2
2023-09-05T12:00	30765	11	-46.8	-81.8	184	2
2023-09-05T12:00	30816	11	-46.8	-81.8	193	3
2023-09-05T12:00	30832	11	-46.9	-81.9	199	3
2023-09-05T12:00	30871	11	-46.8	-81.8	203	4
2023-09-05T12:00	30893	11	-46.8	-81.8	206	4
2023-09-05T12:00	30930	11	-47.0	-81.9	206	4
2023-09-05T12:00	30954	11	-47.1	-82.0	207	4
2023-09-05T12:00	30984	11	-47.3	-82.2	207	5
2023-09-05T12:00	31020	11	-47.3	-82.2	208	5
2023-09-05T12:00	31049	11	-47.4	-82.2	210	6
2023-09-05T12:00	31087	11	-47.3	-82.2	212	7
2023-09-05T12:00	31119	10	-47.3	-82.2	215	7
2023-09-05T12:00	31158	10	-47.3	-82.2	218	8
2023-09-05T12:00	31181	10	-47.4	-82.2	221	9
2023-09-05T12:00	31204	10	-47.3	-82.2	225	9
2023-09-05T12:00	31248	10	-47.2	-82.1	230	9
2023-09-05T12:00	31273	10	-47.2	-82.1	235	10
2023-09-05T12:00	31311	10	-47.4	-82.2	239	10
2023-09-05T12:00	31343	10	-47.7	-82.4	243	10
2023-09-05T12:00	31367	10	-47.9	-82.6	246	10
2023-09-05T12:00	31402	10	-47.9	-82.6	249	10
2023-09-05T12:00	31441	10	-47.7	-82.4	251	11
2023-09-05T12:00	31442	10	-47.6	-82.4	253	11
2023-09-05T12:00	31486	10	-47.5	-82.3	256	11
2023-09-05T12:00	31511	10	-47.3	-82.2	257	10
2023-09-05T12:00	31550	10	-46.9	-82.8	259	10
2023-09-05T12:00	31595	10	-46.4	-82.4	260	10
2023-09-05T12:00	31603	10	-45.9	-82.1	262	9
2023-09-05T12:00	31643	10	-45.5	-81.8	266	9
2023-09-05T12:00	31667	10	-45.3	-81.6	271	8
2023-09-05T12:00	31708	10	-45.2	-81.6	279	8
2023-09-05T12:00	31726	10	-45.2	-81.6	287	7
2023-09-05T12:00	31753	9	-45.1	-81.5	296	7
2023-09-05T12:00	31796	9	-45.0	-81.4	301	7
2023-09-05T12:00	31833	9	-44.8	-81.3	302	6
2023-09-05T12:00	31846	9	-44.6	-81.2	298	6
2023-09-05T12:00	31895	9	-44.6	-81.2	292	6
2023-09-05T12:00	31918	9	-44.6	-81.2	283	6
2023-09-05T12:00	31941	9	-44.5	-81.1	274	6
2023-09-05T12:00	31961	9	-44.5	-81.1	268	7
2023-09-05T12:00	31981	9	-44.6	-81.2	265	7
2023-09-05T12:00	32039	9	-44.5	-81.1	264	8
2023-09-05T12:00	32064	9	-44.5	-81.1	264	8
2023-09-05T12:00	32072	9	-44.6	-81.2	266	9
2023-09-05T12:00	32113	9	-44.6	-81.2	267	10
2023-09-05T12:00	32130	9	-44.5	-81.1	269	10
2023-09-05T12:00	32183	9	-44.3	-80.9	270	10
2023-09-05T12:00	32201	9	-44.0	-80.7	271	11
2023-09-05T12:00	32205	9	-43.6	-81.5	271	11
2023-09-05T12:00	32253	9	-43.2	-81.3	271	11
2023-09-05T12:00	32281	9	-42.8	-81.0	272	12
2023-09-05T12:00	32331	9	-42.5	-80.8	272	12
2023-09-05T12:00	32342	9	-42.3	-80.6	272	13
2023-09-05T12:00	32351	9	-42.1	-80.5	273	13
2023-09-05T12:00	32369	9	-42.0	-80.4	275	14
2023-09-05T12:00	32415	9	-41.9	-80.4	276	14
2023-09-05T18:00	115	1009	24.0	13.3	183	2
2023-09-05T18:00	140	1006	24.5		182	2
2023-09-05T18:00	160	1004	24.5	11.9	174	3
2023-09-05T18:00	192	1001	24.3	11.7	170	3
2023-09-05T18:00	216	998	24.1	11.6	168	4
2023-09-05T18:00	240	995	23.9	11.6	166	4
2023-09-05T18:00	261	992	23.7	11.5	165	4
2023-09-05T18:00	286	990	23.5	11.5	165	4
2023-09-05T18:00	310	987	23.3	11.6	163	4
2023-09-05T18:00	332	984	23.1	11.6	161	4
2023-09-05T18:00	356	982	22.8	11.5	158	4
2023-09-05T18:00	378	979	22.6	11.5	157	4
2023-09-05T18:00	403	976	22.4	11.4	157	4
2023-09-05T18:00	430	973	22.1	11.3	159	4
2023-09-05T18:00	454	971	21.9	11.3	163	4
2023-09-05T18:00	478	968	21.7	11.3	165	4
2023-09-05T18:00	502	965	21.5	11.2	167	4
2023-09-05T18:00	527	963	21.2	11.2	167	4
2023-09-05T18:00	552	960	21.0	11.0	166	4
2023-09-05T18:00	576	957	20.8	10.9	165	4
2023-09-05T18:00	598	955	20.6	10.7	164	4
2023-09-05T18:00	624	952	20.4	10.6	164	4
2023-09-05T18:00	645	949	20.2	10.7	164	4
2023-09-05T18:00	673	947	19.9	10.7	165	4
2023-09-05T18:00	699	944	19.6	10.7	166	4
2023-09-05T18:00	721	941	19.4	10.5	166	4
2023-09-05T18:00	746	939	19.2	10.3	165	4
2023-09-05T18:00	769	936	19.0	10.1	163	4
2023-09-05T18:00	798	933	18.8	10.0	161	4
2023-09-05T18:00	823	930	18.6	9.9	160	4
2023-09-05T18:00	848	927	18.3	9.8	161	4
2023-09-05T18:00	872	925	18.1	9.8	162	4
2023-09-05T18:00	901	922	17.8	9.6	164	4
2023-09-05T18:00	929	919	17.6	9.6	165	4
2023-09-05T18:00	955	916	17.3	9.7	166	3
2023-09-05T18:00	979	913	17.1	9.5	166	3
2023-09-05T18:00	1004	911	16.9	9.4	166	3
2023-09-05T18:00	1030	908	16.7	9.2	166	3
2023-09-05T18:00	1058	905	16.4	8.9	167	3
2023-09-05T18:00	1086	902	16.3		169	2
2023-09-05T18:00	1111	899	16.2	8.4	172	2
2023-09-05T18:00	1135	897	16.9	5.8	180	2
2023-09-05T18:00	1159	894	16.9	5.3	192	2
2023-09-05T18:00	1185	892	17.2	3.1	207	2
2023-09-05T18:00	1209	889	17.5	2.4	220	2
2023-09-05T18:00	1231	887	17.4	2.0	227	2
2023-09-05T18:00	1255	884	17.4	1.6	230	2
2023-09-05T18:00	1283	881	17.2	1.7	230	2
2023-09-05T18:00	1309	879	17.0	1.6	228	2
2023-09-05T18:00	1336	876	16.8	1.5	227	2
2023-09-05T18:00	1361	873	16.7	1.6	228	2
2023-09-05T18:00	1390	870	16.5	0.8	233	1
2023-09-05T18:00	1419	867	16.4	-0.7	238	1
2023-09-05T18:00	1444	865	16.6	-1.4	245	1
2023-09-05T18:00	1473	862	16.9	-3.3	257	0
2023-09-05T18:00	1501	859	17.0	-5.7	52	0
2023-09-05T18:00	1526	856	17.3	-4.1	45	1
2023-09-05T18:00	1552	854	17.3	-3.9	26	1
2023-09-05T18:00	1577	851	17.2	-4.1	11	1
2023-09-05T18:00	1600	849	17.2	-4.5	2	2
2023-09-05T18:00	1628	846	17.0	-4.7	0	3
2023-09-05T18:00	1655	844	16.9	-4.7	0	3
2023-09-05T18:00	1681	841	16.8	-4.4	0	4
2023-09-05T18:00	1708	838	16.6	-4.3	359	4
2023-09-05T18:00	1732	836	16.4	-4.2	356	5
2023-09-05T18:00	1758	833	16.2	-3.9	353	5
2023-09-05T18:00	1780	831	16.2	-3.8	351	5
2023-09-05T18:00	1807	829	16.1	-3.8	348	6
2023-09-05T18:00	1837	826	16.0	-3.2	345	6
2023-09-05T18:00	1863	823	16.0	-1.6	342	6
2023-09-05T18:00	1893	820	15.9	1.0	340	6
2023-09-05T18:00	1922	818	15.8	4.5	337	5
2023-09-05T18:00	1950	815	15.6	3.9	336	5
2023-09-05T18:00	1980	812	15.5	3.7	334	5
2023-09-05T18:00	2011	809	15.4	3.1	333	4
2023-09-05T18:00	2039	806	15.2	2.5	331	4
2023-09-05T18:00	2066	804	15.1	1.3	330	4
2023-09-05T18:00	2092	801	15.2	1.8	329	4
2023-09-05T18:00	2121	798	15.1	1.0	327	4
2023-09-05T18:00	2149	796	15.0	0.9	325	3
2023-09-05T18:00	2174	794	14.9	0.3	322	3
2023-09-05T18:00	2199	791	14.8	-0.4	317	3
2023-09-05T18:00	2228	789	14.6	-1.0	312	2
2023-09-05T18:00	2256	786	14.4	-0.9	308	2
2023-09-05T18:00	2281	784	14.3	-2.0	304	2
2023-09-05T18:00	2305	781	14.2	-2.6	301	1
2023-09-05T18:00	2331	779	14.1	-3.1	299	1
2023-09-05T18:00	2359	776	14.0	-1.9	299	1
2023-09-05T18:00	2392	773	13.8	-1.2	300	1
2023-09-05T18:00	2421	771	13.7	-1.1	301	1
2023-09-05T18:00	2448	768	13.5	-1.3	302	2
2023-09-05T18:00	2474	766	13.3	-1.2	306	2
2023-09-05T18:00	2499	764	13.1	-1.1	310	3
2023-09-05T18:00	2526	761	12.9	-1.5	314	3
2023-09-05T18:00	2555	758	12.7	-1.7	318	4
2023-09-05T18:00	2582	756	12.5	-2.0	319	4
2023-09-05T18:00	2613	753	12.4	-3.1	320	4
2023-09-05T18:00	2645	750	12.1	-2.5	319	4
2023-09-05T18:00	2674	748	12.0	-4.7	317	4
2023-09-05T18:00	2702	745	11.9	-5.1	317	5
2023-09-05T18:00	2729	743	11.7	-3.2	317	5
2023-09-05T18:00	2757	740	11.5	-2.8	318	5
2023-09-05T18:00	2781	738	11.4	-4.2	319	5
2023-09-05T18:00	2805	736	11.3	-4.0	320	4
2023-09-05T18:00	2834	734	11.1	-3.0	320	4
2023-09-05T18:00	2859	731	10.8	-2.1	319	4
2023-09-05T18:00	2883	729	10.7	-2.1	318	4
2023-09-05T18:00	2911	727	10.5	-2.1	317	4
2023-09-05T18:00	2935	725	10.4	-2.2	315	4
2023-09-05T18:00	2959	723	10.3	-4.0	314	4
2023-09-05T18:00	2985	720	10.2	-4.7	314	4
2023-09-05T18:00	3008	718	10.0	-3.9	314	4
2023-09-05T18:00	3031	716	9.8	-3.7	315	5
2023-09-05T18:00	3059	714	9.6	-3.8	316	5
2023-09-05T18:00	3088	712	9.4	-4.5	316	5
2023-09-05T18:00	3120	709	9.3	-5.7	316	5
2023-09-05T18:00	3150	706	9.2	-6.5	315	6
2023-09-05T18:00	3179	704	9.2	-7.0	315	6
2023-09-05T18:00	3204	702	9.1	-6.7	314	6
2023-09-05T18:00	3229	699	9.0	-7.6	315	5
2023-09-05T18:00	3256	697	9.0	-8.9	315	5
2023-09-05T18:00	3283	695	8.9	-8.6	316	5
2023-09-05T18:00	3310	693	8.9	-8.4	317	5
2023-09-05T18:00	3335	691	9.0	-10.1	318	5
2023-09-05T18:00	3358	689	8.8	-10.1	318	5
2023-09-05T18:00	3389	686	8.5	-4.6	317	6
2023-09-05T18:00	3420	684	8.4	-6.7	315	6
2023-09-05T18:00	3444	681	8.3	-9.3	314	6
2023-09-05T18:00	3472	679	8.1	-9.3	313	7
2023-09-05T18:00	3499	677	7.9	-9.2	313	7
2023-09-05T18:00	3527	675	7.7	-9.7	314	7
2023-09-05T18:00	3552	673	7.5	-10.7	314	7
2023-09-05T18:00	3580	670	7.3	-9.6	314	7
2023-09-05T18:00	3614	668	7.0	-4.9	313	7
2023-09-05T18:00	3641	665	6.8	-5.3	313	7
2023-09-05T18:00	3668	663	6.7	-6.4	314	7
2023-09-05T18:00	3691	661	6.7	-6.7	315	7
2023-09-05T18:00	3718	659	6.5	-7.0	316	7
2023-09-05T18:00	3742	657	6.3	-7.2	316	7
2023-09-05T18:00	3769	655	6.2	-7.4	314	8
2023-09-05T18:00	3795	653	6.0	-7.7	312	8
2023-09-05T18:00	3827	651	5.9	-7.6	310	7
2023-09-05T18:00	3853	648	5.8	-7.7	309	7
2023-09-05T18:00	3881	646	5.6	-7.8	308	7
2023-09-05T18:00	3909	644	5.4	-7.9	309	7
2023-09-05T18:00	3939	642	5.2	-8.1	310	7
2023-09-05T18:00	3965	640	5.1	-8.4	311	8
2023-09-05T18:00	3992	638	4.9	-8.3	312	8
2023-09-05T18:00	4015	636	4.9	-8.3	312	8
2023-09-05T18:00	4044	633	4.7	-8.4	311	8
2023-09-05T18:00	4073	631	4.5	-8.9	309	8
2023-09-05T18:00	4100	629	4.3	-8.9	307	8
2023-09-05T18:00	4126	627	4.2	-9.0	304	8
2023-09-05T18:00	4154	625	4.0	-9.0	303	8
2023-09-05T18:00	4182	623	3.9	-9.2	302	8
2023-09-05T18:00	4209	621	3.8	-9.1	302	8
2023-09-05T18:00	4238	618	3.7	-9.2	302	8
2023-09-05T18:00	4270	616	3.6	-9.5	302	8
2023-09-05T18:00	4299	614	3.5	-10.0	304	8
2023-09-05T18:00	4326	612	3.5	-12.0	306	8
2023-09-05T18:00	4357	609	3.4	-12.6	308	8
2023-09-05T18:00	4387	607	3.2	-13.2	310	8
2023-09-05T18:00	4414	605	3.0	-13.7	313	8
2023-09-05T18:00	4441	603	2.8	-14.7	316	8
2023-09-05T18:00	4468	601	2.6	-15.6	318	8
2023-09-05T18:00	4498	599	2.5	-17.6	321	8
2023-09-05T18:00	4526	597	2.8	-30.0	323	8
2023-09-05T18:00	4557	595	2.8	-27.3	325	8
2023-09-05T18:00	4583	593	2.7	-23.8	326	7
2023-09-05T18:00	4609	591	2.6	-22.7	328	7
2023-09-05T18:00	4639	589	2.3	-19.0	330	7
2023-09-05T18:00	4664	587	2.0	-16.1	332	7
2023-09-05T18:00	4690	585	1.8	-15.0	335	7
2023-09-05T18:00	4718	583	1.6	-14.7	336	7
2023-09-05T18:00	4747	581	1.4	-16.0	337	7
2023-09-05T18:00	4776	579	1.2	-15.1	338	8
2023-09-05T18:00	4804	577	0.9	-14.8	339	8
2023-09-05T18:00	4833	575	0.7	-17.2	339	8
2023-09-05T18:00	4861	573	0.6	-15.9	339	8
2023-09-05T18:00	4893	570	0.3	-15.9	339	8
2023-09-05T18:00	4920	568	0.2	-17.3	339	7
2023-09-05T18:00	4948	566	0.1	-21.4	339	7
2023-09-05T18:00	4975	564	-0.1	-18.6	340	7
2023-09-05T18:00	5000	563	-0.3	-19.0	340	7
2023-09-05T18:00	5027	561	-0.5	-21.1	341	7
2023-09-05T18:00	5050	559	-0.7	-22.4	340	7
2023-09-05T18:00	5080	557	-0.9	-23.5	340	7
2023-09-05T18:00	5109	555	-1.2	-20.1	340	7
2023-09-05T18:00	5133	553	-1.4	-20.4	340	7
2023-09-05T18:00	5158	552	-1.5	-19.7	340	7
2023-09-05T18:00	5184	550	-1.7	-20.0	340	7
2023-09-05T18:00	5213	548	-1.9	-22.3	341	8
2023-09-05T18:00	5240	546	-2.1	-21.3	343	8
2023-09-05T18:00	5267	544	-2.3	-20.3	346	8
2023-09-05T18:00	5299	542	-2.5	-20.1	349	8
2023-09-05T18:00	5329	540	-2.8	-20.6	351	8
2023-09-05T18:00	5356	538	-2.9	-22.1	352	8
2023-09-05T18:00	5384	536	-3.2	-22.3	352	8
2023-09-05T18:00	5411	534	-3.4	-23.6	351	8
2023-09-05T18:00	5441	532	-3.6	-24.5	349	8
2023-09-05T18:00	5469	530	-3.8	-24.7	347	8
2023-09-05T18:00	5491	529	-4.0	-24.1	346	8
2023-09-05T18:00	5518	527	-4.1	-23.5	345	8
2023-09-05T18:00	5542	526	-4.2	-23.4	345	8
2023-09-05T18:00	5568	524	-4.4	-23.5	345	8
2023-09-05T18:00	5598	522	-4.6	-23.5	345	8
2023-09-05T18:00	5622	520	-4.8	-23.2	344	8
2023-09-05T18:00	5645	519	-4.9	-23.2	342	9
2023-09-05T18:00	5672	517	-5.1	-22.4	341	9
2023-09-05T18:00	5696	515	-5.3	-22.0	340	9
2023-09-05T18:00	5719	514	-5.4	-22.2	339	9
2023-09-05T18:00	5740	512	-5.5	-22.6	339	8
2023-09-05T18:00	5764	511	-5.7	-23.0	340	8
2023-09-05T18:00	5786	509	-5.8	-23.5	342	8
2023-09-05T18:00	5810	508	-6.1	-23.4	344	7
2023-09-05T18:00	5837	506	-6.3	-23.6	347	7
2023-09-05T18:00	5869	504	-6.5	-24.7	349	7
2023-09-05T18:00	5896	502	-6.7	-26.4	349	7
2023-09-05T18:00	5919	501	-6.9	-27.0	348	7
2023-09-05T18:00	5943	499	-7.0	-27.6	347	7
2023-09-05T18:00	5971	498	-7.3	-26.3	344	8
2023-09-05T18:00	5992	496	-7.5	-26.0	341	8
2023-09-05T18:00	6020	494	-7.7	-25.0	338	8
2023-09-05T18:00	6050	493	-7.9	-24.8	337	8
2023-09-05T18:00	6077	491	-8.2	-24.7	336	8
2023-09-05T18:00	6108	489	-8.5	-25.0	336	8
2023-09-05T18:00	6132	487	-8.6	-25.7	337	7
2023-09-05T18:00	6158	486	-8.8	-26.3	337	7
2023-09-05T18:00	6185	484	-9.1	-26.0	336	7
2023-09-05T18:00	6213	482	-9.3	-26.4	333	7
2023-09-05T18:00	6244	480	-9.5	-26.6	330	7
2023-09-05T18:00	6275	479	-9.6	-29.8	327	7
2023-09-05T18:00	6302	477	-9.7	-30.3	325	7
2023-09-05T18:00	6331	475	-9.9	-30.7	325	7
2023-09-05T18:00	6360	473	-10.0	-30.5	326	8
2023-09-05T18:00	6384	472	-10.1	-31.9	327	8
2023-09-05T18:00	6408	470	-10.2	-34.0	328	8
2023-09-05T18:00	6434	469	-10.2	-36.8	327	7
2023-09-05T18:00	6453	467	-10.3	-37.5	326	7
2023-09-05T18:00	6481	466	-10.3	-37.5	326	7
2023-09-05T18:00	6502	464	-10.4	-37.9	326	7
2023-09-05T18:00	6527	463	-10.5	-37.5	327	7
2023-09-05T18:00	6555	461	-10.6	-37.1	327	7
2023-09-05T18:00	6587	459	-10.8	-35.7	328	8
2023-09-05T18:00	6615	458	-11.0	-32.0	327	8
2023-09-05T18:00	6640	456	-11.2	-25.8	325	9
2023-09-05T18:00	6661	455	-11.4	-23.0	323	8
2023-09-05T18:00	6691	453	-11.7	-22.4	321	8
2023-09-05T18:00	6720	452	-11.9	-22.2	321	8
2023-09-05T18:00	6743	450	-12.0	-23.1	323	8
2023-09-05T18:00	6763	449	-12.2	-22.7	326	8
2023-09-05T18:00	6785	448	-12.4	-22.1	329	8
2023-09-05T18:00	6810	446	-12.6	-21.8	331	8
2023-09-05T18:00	6837	445	-12.8	-21.7	332	9
2023-09-05T18:00	6863	443	-13.1	-22.1	330	9
2023-09-05T18:00	6891	442	-13.3	-22.3	328	9
2023-09-05T18:00	6922	440	-13.5	-22.4	325	9
2023-09-05T18:00	6954	438	-13.8	-22.6	323	10
2023-09-05T18:00	6981	436	-14.1	-22.7	322	10
2023-09-05T18:00	7004	435	-14.3	-22.7	321	9
2023-09-05T18:00	7028	434	-14.5	-22.9	321	9
2023-09-05T18:00	7052	432	-14.7	-23.0	322	9
2023-09-05T18:00	7077	431	-15.0	-23.1	324	10
2023-09-05T18:00	7111	429	-15.3	-23.2	325	10
2023-09-05T18:00	7140	427	-15.6	-23.3	326	9
2023-09-05T18:00	7162	426	-15.8	-23.3	327	9
2023-09-05T18:00	7184	425	-16.0	-23.5	327	9
2023-09-05T18:00	7206	423	-16.2	-23.6	326	9
2023-09-05T18:00	7230	422	-16.4	-23.7	326	9
2023-09-05T18:00	7254	421	-16.6	-23.7	325	9
2023-09-05T18:00	7277	420	-16.8	-23.8	325	9
2023-09-05T18:00	7301	418	-17.0	-23.9	324	9
2023-09-05T18:00	7328	417	-17.2	-23.9	324	9
2023-09-05T18:00	7353	415	-17.4	-24.0	325	9
2023-09-05T18:00	7374	414	-17.6	-24.1	326	9
2023-09-05T18:00	7398	413	-17.9	-24.2	328	9
2023-09-05T18:00	7421	411	-18.1	-24.2	330	9
2023-09-05T18:00	7451	410	-18.4	-24.3	332	9
2023-09-05T18:00	7484	408	-18.7	-24.5	334	9
2023-09-05T18:00	7514	406	-18.9	-24.6	335	10
2023-09-05T18:00	7541	405	-19.1	-24.8	337	10
2023-09-05T18:00	7563	404	-19.3	-25.1	338	10
2023-09-05T18:00	7586	403	-19.5	-25.1	339	10
2023-09-05T18:00	7613	401	-19.7	-25.6	340	10
2023-09-05T18:00	7635	400	-19.8	-25.8	341	11
2023-09-05T18:00	7657	399	-20.0	-25.1	340	11
2023-09-05T18:00	7683	397	-20.2	-24.6	340	11
2023-09-05T18:00	7708	396	-20.4	-23.9	339	11
2023-09-05T18:00	7742	394	-20.6	-23.8	337	10
2023-09-05T18:00	7767	393	-20.8	-24.0	336	10
2023-09-05T18:00	7798	391	-21.1	-24.0	336	10
2023-09-05T18:00	7823	390	-21.3		336	10
2023-09-05T18:00	7848	388	-21.5	-24.2	336	9
2023-09-05T18:00	7876	387	-21.8	-24.2	337	9
2023-09-05T18:00	7904	386	-22.0	-24.1	338	9
2023-09-05T18:00	7929	384	-22.2	-24.3	338	9
2023-09-05T18:00	7958	383	-22.4	-25.1	338	9
2023-09-05T18:00	7980	382	-22.6	-25.7	338	9
2023-09-05T18:00	8005	380	-22.7	-27.4	336	9
2023-09-05T18:00	8030	379	-22.9	-26.5	335	9
2023-09-05T18:00	8053	378	-23.1	-26.4	335	9
2023-09-05T18:00	8078	377	-23.3	-26.3	335	9
2023-09-05T18:00	8100	375	-23.4	-26.4	335	10
2023-09-05T18:00	8122	374	-23.6	-26.4	336	10
2023-09-05T18:00	8147	373	-23.8	-26.6	336	10
2023-09-05T18:00	8172	372	-24.0	-26.9	336	10
2023-09-05T18:00	8198	370	-24.2	-27.2	337	10
2023-09-05T18:00	8224	369	-24.4	-26.9	337	10
2023-09-05T18:00	8251	368	-24.5	-26.6	337	9
2023-09-05T18:00	8278	366	-24.7	-27.1	338	9
2023-09-05T18:00	8300	365	-24.9	-27.2	339	9
2023-09-05T18:00	8323	364	-25.1	-27.2	339	9
2023-09-05T18:00	8348	363	-25.4	-27.4	340	9
2023-09-05T18:00	8373	362	-25.6	-27.7	340	10
2023-09-05T18:00	8397	360	-25.8	-27.8	341	10
2023-09-05T18:00	8420	359	-25.9	-27.6	340	10
2023-09-05T18:00	8445	358	-26.1	-27.1	339	10
2023-09-05T18:00	8471	357	-26.2	-26.7	338	10
2023-09-05T18:00	8497	355	-26.3	-27.0	336	10
2023-09-05T18:00	8530	354	-26.5	-27.0	334	10
2023-09-05T18:00	8558	352	-26.7	-27.4	332	10
2023-09-05T18:00	8586	351	-26.9	-27.6	331	11
2023-09-05T18:00	8613	350	-27.1	-27.8	331	11
2023-09-05T18:00	8635	349	-27.2	-28.0	330	11
2023-09-05T18:00	8661	347	-27.3	-28.2	329	11
2023-09-05T18:00	8685	346	-27.5	-28.4	328	11
2023-09-05T18:00	8714	345	-27.7	-28.6	326	12
2023-09-05T18:00	8735	344	-27.8	-28.9	325	12
2023-09-05T18:00	8759	343	-27.9	-29.7	325	11
2023-09-05T18:00	8782	342	-27.9	-30.6	325	12
2023-09-05T18:00	8808	341	-28.2		326	12
2023-09-05T18:00	8829	339	-28.4	-30.9	327	12
2023-09-05T18:00	8849	338	-28.6	-31.2	328	12
2023-09-05T18:00	8874	337	-28.8	-31.5	329	12
2023-09-05T18:00	8897	336	-29.0	-31.7	329	12
2023-09-05T18:00	8922	335	-29.2	-31.8	328	12
2023-09-05T18:00	8946	334	-29.4	-31.9	328	12
2023-09-05T18:00	8966	333	-29.6	-32.2	328	12
2023-09-05T18:00	8991	332	-29.8	-33.0	328	12
2023-09-05T18:00	9015	331	-30.0	-34.0	329	12
2023-09-05T18:00	9034	330	-30.2	-34.5	330	12
2023-09-05T18:00	9058	329	-30.3	-34.8	331	12
2023-09-05T18:00	9081	328	-30.5	-35.2	331	12
2023-09-05T18:00	9105	327	-30.5	-34.8	331	11
2023-09-05T18:00	9127	326	-30.3	-34.8	330	11
2023-09-05T18:00	9149	325	-30.4	-36.4	329	12
2023-09-05T18:00	9172	324	-30.5	-36.2	329	12
2023-09-05T18:00	9194	323	-30.6	-36.9	328	12
2023-09-05T18:00	9216	322	-30.7	-37.0	328	12
2023-09-05T18:00	9237	321	-30.9	-36.9	327	12
2023-09-05T18:00	9260	320	-31.1	-37.0	327	12
2023-09-05T18:00	9285	318	-31.3	-37.3	328	12
2023-09-05T18:00	9307	317	-31.5	-37.2	329	12
2023-09-05T18:00	9329	316	-31.7	-35.6	330	11
2023-09-05T18:00	9351	315	-31.8	-35.8	331	11
2023-09-05T18:00	9379	314	-32.0	-37.1	331	11
2023-09-05T18:00	9409	313	-32.1	-37.2	330	11
2023-09-05T18:00	9428	312	-32.3	-37.7	328	11
2023-09-05T18:00	9449	311	-32.5	-38.3	327	11
2023-09-05T18:00	9474	310	-32.7	-38.9	326	11
2023-09-05T18:00	9497	309	-32.9	-38.8	326	11
2023-09-05T18:00	9517	308	-33.1	-38.7	327	11
2023-09-05T18:00	9538	307	-33.3	-38.8	328	11
2023-09-05T18:00	9559	306	-33.4	-38.8	330	11
2023-09-05T18:00	9579	305	-33.5	-39.5	332	11
2023-09-05T18:00	9602	304	-33.7	-39.8	334	11
2023-09-05T18:00	9625	303	-33.8	-39.3	335	11
2023-09-05T18:00	9649	302	-34.0	-39.3	336	11
2023-09-05T18:00	9674	301	-34.3	-39.4	336	11
2023-09-05T18:00	9694	300	-34.5	-39.5	336	11
2023-09-05T18:00	9715	299	-34.6	-39.6	336	11
2023-09-05T18:00	9740	298	-34.9	-39.6	336	11
2023-09-05T18:00	9764	297	-35.1	-39.7	337	11
2023-09-05T18:00	9786	296	-35.2	-40.2	337	11
2023-09-05T18:00	9811	295	-35.4	-40.1	338	11
2023-09-05T18:00	9833	295	-35.6	-39.7	338	11
2023-09-05T18:00	9856	294	-35.8	-39.8	338	11
2023-09-05T18:00	9880	293	-35.9	-40.0	338	12
2023-09-05T18:00	9902	292	-36.2	-40.2	338	12
2023-09-05T18:00	9925	291	-36.4	-40.4	338	12
2023-09-05T18:00	9948	290	-36.6	-40.7	339	12
2023-09-05T18:00	9971	289	-36.7	-41.3	340	12
2023-09-05T18:00	9992	288	-36.9	-41.8	340	12
2023-09-05T18:00	10012	287	-37.1	-41.8	340	12
2023-09-05T18:00	10035	286	-37.3	-42.0	341	12
2023-09-05T18:00	10055	285	-37.5	-42.3	341	12
2023-09-05T18:00	10075	284	-37.6	-42.5	341	12
2023-09-05T18:00	10096	284	-37.8	-42.7	341	12
2023-09-05T18:00	10118	283	-38.0	-43.0	341	13
2023-09-05T18:00	10139	282	-38.1	-43.9	342	13
2023-09-05T18:00	10160	281	-38.1	-46.2	342	13
2023-09-05T18:00	10179	280	-38.1	-47.3	343	13
2023-09-05T18:00	10208	279	-38.2	-47.2	343	13
2023-09-05T18:00	10231	278	-38.4	-46.3	344	14
2023-09-05T18:00	10254	277	-38.7	-46.0	344	14
2023-09-05T18:00	10277	276	-38.9	-45.9	345	14
2023-09-05T18:00	10298	275	-39.1	-45.7	345	14
2023-09-05T18:00	10317	275	-39.3	-45.4	344	14
2023-09-05T18:00	10337	274	-39.5	-45.0	344	14
2023-09-05T18:00	10358	273	-39.6	-44.5	344	14
2023-09-05T18:00	10380	272	-39.8	-44.6	344	14
2023-09-05T18:00	10400	271	-40.0	-44.8	343	14
2023-09-05T18:00	10422	270	-40.2	-45.3	343	14
2023-09-05T18:00	10445	269	-40.4	-45.8	343	14
2023-09-05T18:00	10467	269	-40.6	-46.3	343	14
2023-09-05T18:00	10494	268	-40.8	-46.9	343	14
2023-09-05T18:00	10520	267	-41.0	-46.5	343	14
2023-09-05T18:00	10541	266	-41.2	-45.6	343	14
2023-09-05T18:00	10567	265	-41.4	-45.4	343	15
2023-09-05T18:00	10590	264	-41.6	-45.8	343	15
2023-09-05T18:00	10612	263	-41.7	-46.2	342	15
2023-09-05T18:00	10632	262	-41.8	-46.2	342	15
2023-09-05T18:00	10654	261	-42.0	-46.2	343	15
2023-09-05T18:00	10680	260	-42.3	-46.6	343	16
2023-09-05T18:00	10706	259	-42.5	-47.0	343	16
2023-09-05T18:00	10730	258	-42.6	-47.2	343	16
2023-09-05T18:00	10754	257	-42.9	-47.4	342	16
2023-09-05T18:00	10777	257	-43.1	-47.3	342	16
2023-09-05T18:00	10800	256	-43.3	-47.4	341	16
2023-09-05T18:00	10824	255	-43.5	-47.6	341	16
2023-09-05T18:00	10848	254	-43.7	-47.7	341	16
2023-09-05T18:00	10870	253	-43.9	-47.9	341	16
2023-09-05T18:00	10891	252	-44.1	-47.9	341	16
2023-09-05T18:00	10913	251	-44.3	-47.9	342	16
2023-09-05T18:00	10934	251	-44.4	-48.0	342	16
2023-09-05T18:00	10957	250	-44.6	-48.6	342	16
2023-09-05T18:00	10982	249	-44.8	-49.0	342	16
2023-09-05T18:00	11004	248	-44.9	-49.8	342	15
2023-09-05T18:00	11025	247	-45.0	-50.0	342	15
2023-09-05T18:00	11045	247	-45.1	-49.6	342	15
2023-09-05T18:00	11064	246	-45.3	-49.7	343	15
2023-09-05T18:00	11084	245	-45.4	-50.0	343	15
2023-09-05T18:00	11106	244	-45.5	-50.6	343	15
2023-09-05T18:00	11126	244	-45.6	-51.2	343	15
2023-09-05T18:00	11146	243	-45.7	-51.5	343	14
2023-09-05T18:00	11165	242	-45.8	-51.6	343	14
2023-09-05T18:00	11190	241	-45.9	-51.7	343	14
2023-09-05T18:00	11213	240	-46.1	-51.9	342	14
2023-09-05T18:00	11236	240	-46.2	-52.3	341	14
2023-09-05T18:00	11263	239	-46.3	-52.4	340	14
2023-09-05T18:00	11288	238	-46.5	-52.3	338	14
2023-09-05T18:00	11314	237	-46.6	-52.3	337	14
2023-09-05T18:00	11337	236	-46.8	-52.8	336	15
2023-09-05T18:00	11358	235	-47.0	-53.4	336	15
2023-09-05T18:00	11383	234	-47.1	-53.6	336	15
2023-09-05T18:00	11406	234	-47.4	-53.7	335	15
2023-09-05T18:00	11429	233	-47.5	-53.4	335	15
2023-09-05T18:00	11451	232	-47.7	-53.2	334	15
2023-09-05T18:00	11474	231	-47.9	-53.5	334	15
2023-09-05T18:00	11494	230	-48.0	-54.6	333	15
2023-09-05T18:00	11514	230	-48.1	-58.0	333	15
2023-09-05T18:00	11537	229	-48.2	-63.8	332	15
2023-09-05T18:00	11558	228	-48.3	-65.0	331	15
2023-09-05T18:00	11580	227	-48.3	-64.0	330	15
2023-09-05T18:00	11604	227	-48.4	-63.8	329	15
2023-09-05T18:00	11627	226	-48.4	-63.7	328	15
2023-09-05T18:00	11650	225	-48.5	-64.3	326	15
2023-09-05T18:00	11673	224	-48.5	-64.8	326	15
2023-09-05T18:00	11695	223	-48.7	-65.0	325	16
2023-09-05T18:00	11719	223	-48.8	-64.7	324	16
2023-09-05T18:00	11743	222	-49.0	-64.5	324	16
2023-09-05T18:00	11769	221	-49.3	-64.4	323	16
2023-09-05T18:00	11795	220	-49.6	-64.4	323	16
2023-09-05T18:00	11822	219	-49.8	-64.4	323	17
2023-09-05T18:00	11846	218	-50.0	-64.5	323	17
2023-09-05T18:00	11868	218	-50.2	-64.6	323	17
2023-09-05T18:00	11891	217	-50.4	-64.6	323	17
2023-09-05T18:00	11912	216	-50.6	-64.6	323	17
2023-09-05T18:00	11935	215	-50.8	-64.8	324	17
2023-09-05T18:00	11958	215	-50.9	-64.9	325	17
2023-09-05T18:00	11982	214	-51.1	-65.0	326	17
2023-09-05T18:00	12006	213	-51.3	-65.1	326	17
2023-09-05T18:00	12029	212	-51.4	-65.2	326	18
2023-09-05T18:00	12050	212	-51.6	-65.4	326	18
2023-09-05T18:00	12072	211	-51.7	-65.5	326	18
2023-09-05T18:00	12093	210	-51.9	-65.6	325	18
2023-09-05T18:00	12115	210	-52.0	-65.6	325	18
2023-09-05T18:00	12136	209	-52.2	-65.3	324	18
2023-09-05T18:00	12157	208	-52.3	-65.0	324	18
2023-09-05T18:00	12179	207	-52.5	-65.1	323	18
2023-09-05T18:00	12201	207	-52.7	-65.8	323	18
2023-09-05T18:00	12223	206	-52.8	-65.8	322	18
2023-09-05T18:00	12244	205	-53.0	-65.2	322	18
2023-09-05T18:00	12267	205	-53.2	-65.0	322	19
2023-09-05T18:00	12286	204	-53.3	-65.3	321	19
2023-09-05T18:00	12308	203	-53.4	-65.6	321	19
2023-09-05T18:00	12328	203	-53.5	-65.4	321	19
2023-09-05T18:00	12348	202	-53.6	-64.9	320	18
2023-09-05T18:00	12370	201	-53.8	-64.0	320	18
2023-09-05T18:00	12390	201	-53.9	-62.4	319	18
2023-09-05T18:00	12413	200	-53.9	-60.8	319	18
2023-09-05T18:00	12434	199	-54.0	-59.8	319	18
2023-09-05T18:00	12453	199	-54.1	-59.6	320	18
2023-09-05T18:00	12474	198	-54.3	-60.1	320	18
2023-09-05T18:00	12495	198	-54.5	-61.1	321	18
2023-09-05T18:00	12518	197	-54.4		323	19
2023-09-05T18:00	12541	196	-54.6	-63.0	324	19
2023-09-05T18:00	12562	195	-54.8	-63.3	325	19
2023-09-05T18:00	12584	195	-55.0	-63.6	327	19
2023-09-05T18:00	12609	194	-55.2	-64.3	328	19
2023-09-05T18:00	12630	193	-55.3	-65.6	329	19
2023-09-05T18:00	12652	193	-55.4	-67.0	331	19
2023-09-05T18:00	12675	192	-55.6	-68.1	332	19
2023-09-05T18:00	12696	191	-55.7	-68.4	333	19
2023-09-05T18:00	12718	191	-55.9	-68.6	334	19
2023-09-05T18:00	12740	190	-56.0	-68.6	335	19
2023-09-05T18:00	12762	189	-56.1	-68.5	336	19
2023-09-05T18:00	12784	189	-56.2	-67.9	336	19
2023-09-05T18:00	12805	188	-56.4	-67.1	336	19
2023-09-05T18:00	12826	188	-56.5	-66.3	335	20
2023-09-05T18:00	12848	187	-56.7	-65.7	335	20
2023-09-05T18:00	12872	186	-56.9	-65.2	334	20
2023-09-05T18:00	12898	185	-57.0	-64.9	333	19
2023-09-05T18:00	12918	185	-57.1	-64.7	331	19
2023-09-05T18:00	12941	184	-57.3	-64.6	330	19
2023-09-05T18:00	12965	183	-57.5	-64.4	329	19
2023-09-05T18:00	12992	183	-57.8	-64.5	329	19
2023-09-05T18:00	13014	182	-57.9	-64.3	328	19
2023-09-05T18:00	13038	181	-58.1	-64.3	328	19
2023-09-05T18:00	13062	181	-58.3	-64.4	329	19
2023-09-05T18:00	13087	180	-58.4	-64.6	329	19
2023-09-05T18:00	13111	179	-58.6	-65.0	330	19
2023-09-05T18:00	13135	179	-58.7	-65.4	331	19
2023-09-05T18:00	13160	178	-58.9	-65.8	331	19
2023-09-05T18:00	13182	177	-59.1	-66.0	332	19
2023-09-05T18:00	13206	177	-59.3	-66.0	332	19
2023-09-05T18:00	13228	176	-59.5	-66.0	333	19
2023-09-05T18:00	13250	175	-59.7	-66.1	333	19
2023-09-05T18:00	13273	175	-59.9	-66.2	334	19
2023-09-05T18:00	13294	174	-60.1	-66.5	334	19
2023-09-05T18:00	13317	173	-60.2	-66.6	335	19
2023-09-05T18:00	13339	173	-60.4	-66.9	335	19
2023-09-05T18:00	13363	172	-60.5	-67.0	335	19
2023-09-05T18:00	13386	172	-60.7	-67.2	334	19
2023-09-05T18:00	13409	171	-60.9	-67.3	333	19
2023-09-05T18:00	13431	170	-61.1	-67.4	333	19
2023-09-05T18:00	13453	170	-61.3	-67.5	332	19
2023-09-05T18:00	13477	169	-61.5	-67.7	331	19
2023-09-05T18:00	13498	168	-61.7	-67.9	331	19
2023-09-05T18:00	13519	168	-61.9	-68.1	330	19
2023-09-05T18:00	13542	167	-62.1	-68.3	330	19
2023-09-05T18:00	13564	167	-62.2	-68.5	331	19
2023-09-05T18:00	13584	166	-62.4	-68.9	331	19
2023-09-05T18:00	13607	166	-62.6	-69.2	331	19
2023-09-05T18:00	13631	165	-62.7	-69.4	331	20
2023-09-05T18:00	13657	164	-62.9	-69.5	332	20
2023-09-05T18:00	13680	164	-63.0	-69.3	331	21
2023-09-05T18:00	13702	163	-63.2	-69.3	331	21
2023-09-05T18:00	13726	162	-63.4	-69.4	331	21
2023-09-05T18:00	13748	162	-63.6	-69.4	331	21
2023-09-05T18:00	13771	161	-63.7	-69.4	330	22
2023-09-05T18:00	13792	161	-63.9	-69.4	330	22
2023-09-05T18:00	13814	160	-64.1	-69.4	330	22
2023-09-05T18:00	13836	159	-64.3	-69.5	330	22
2023-09-05T18:00	13854	159	-64.4	-69.7	329	22
2023-09-05T18:00	13875	158	-64.6	-69.9	329	21
2023-09-05T18:00	13897	158	-64.7	-70.1	328	21
2023-09-05T18:00	13918	157	-64.8	-70.5	328	21
2023-09-05T18:00	13941	157	-64.8	-71.0	327	21
2023-09-05T18:00	13962	156	-64.8	-71.6	327	21
2023-09-05T18:00	13983	156	-64.9	-72.3	327	21
2023-09-05T18:00	14005	155	-64.9	-72.9	327	21
2023-09-05T18:00	14027	155	-64.9	-73.3	327	21
2023-09-05T18:00	14048	154	-64.9	-73.5	328	21
2023-09-05T18:00	14069	154	-65.0	-73.8	328	21
2023-09-05T18:00	14089	153	-65.1	-73.9	329	21
2023-09-05T18:00	14110	152	-65.1	-73.8	330	21
2023-09-05T18:00	14130	152	-65.2	-73.7	330	21
2023-09-05T18:00	14151	151	-65.2	-73.6	331	21
2023-09-05T18:00	14173	151	-65.3	-73.6	331	21
2023-09-05T18:00	14189	150	-65.3	-73.6	331	21
2023-09-05T18:00	14209	150	-65.4	-73.6	331	22
2023-09-05T18:00	14232	149	-65.6	-73.8	330	22
2023-09-05T18:00	14252	149	-65.8	-73.9	330	23
2023-09-05T18:00	14272	148	-65.9	-73.8	329	23
2023-09-05T18:00	14291	148	-65.9	-73.8	329	23
2023-09-05T18:00	14313	147	-66.0	-73.9	329	23
2023-09-05T18:00	14332	147	-66.1	-74.2	328	22
2023-09-05T18:00	14355	146	-66.2	-74.5	328	22
2023-09-05T18:00	14376	146	-66.1	-74.7	328	21
2023-09-05T18:00	14398	145	-66.0	-74.8	328	21
2023-09-05T18:00	14421	145	-66.1	-75.1	328	20
2023-09-05T18:00	14440	144	-66.2	-75.2	328	20
2023-09-05T18:00	14461	144	-66.2		328	19
2023-09-05T18:00	14482	143	-66.3	-75.1	329	19
2023-09-05T18:00	14503	143	-66.4	-75.1	329	19
2023-09-05T18:00	14526	142	-66.5	-75.2	329	19
2023-09-05T18:00	14548	142	-66.6	-75.2	330	18
2023-09-05T18:00	14570	141	-66.7	-75.4	330	18
2023-09-05T18:00	14592	141	-66.7	-75.6	330	18
2023-09-05T18:00	14614	140	-66.6	-75.7	330	17
2023-09-05T18:00	14637	140	-66.5	-75.8	330	17
2023-09-05T18:00	14658	139	-66.5	-76.0	329	17
2023-09-05T18:00	14681	139	-66.7	-76.3	329	16
2023-09-05T18:00	14703	138	-66.7	-76.6	328	16
2023-09-05T18:00	14725	138	-66.9	-77.2	327	16
2023-09-05T18:00	14747	137	-66.7	-77.4	326	16
2023-09-05T18:00	14770	137	-66.4	-77.6	326	16
2023-09-05T18:00	14793	136	-66.3	-78.0	326	16
2023-09-05T18:00	14816	136	-66.4	-78.4	326	16
2023-09-05T18:00	14839	135	-66.4	-78.8	326	15
2023-09-05T18:00	14863	135	-66.5	-79.2	326	15
2023-09-05T18:00	14883	134	-66.5	-79.5	326	15
2023-09-05T18:00	14907	134	-66.4	-79.8	325	14
2023-09-05T18:00	14928	133	-66.1	-80.1	325	14
2023-09-05T18:00	14950	133	-66.0	-80.6	324	14
2023-09-05T18:00	14971	132	-65.2	-80.5	324	14
2023-09-05T18:00	14993	132	-65.2	-80.9	323	14
2023-09-05T18:00	15015	131	-65.3	-81.2	322	14
2023-09-05T18:00	15036	131	-65.3	-81.4	322	14
2023-09-05T18:00	15056	130	-65.4	-81.6	322	14
2023-09-05T18:00	15081	130	-65.4	-81.7	322	14
2023-09-05T18:00	15103	129	-65.2	-81.6	323	14
2023-09-05T18:00	15125	129	-65.1	-81.7	324	14
2023-09-05T18:00	15148	128	-65.1	-81.7	325	14
2023-09-05T18:00	15169	128	-65.1	-81.7	327	14
2023-09-05T18:00	15191	128	-65.2	-81.7	328	15
2023-09-05T18:00	15212	127	-65.4	-81.8	330	15
2023-09-05T18:00	15235	127	-65.5	-81.9	332	15
2023-09-05T18:00	15256	126	-65.6	-82.0	333	14
2023-09-05T18:00	15276	126	-65.7	-82.2	333	14
2023-09-05T18:00	15299	125	-65.7	-82.2	333	14
2023-09-05T18:00	15321	125	-65.7	-82.4	332	13
2023-09-05T18:00	15347	124	-65.7	-82.5	331	12
2023-09-05T18:00	15366	124	-65.7	-82.5	329	12
2023-09-05T18:00	15388	124	-65.8	-82.7	328	11
2023-09-05T18:00	15407	123	-65.8	-82.8	328	11
2023-09-05T18:00	15430	123	-65.5	-82.7	327	11
2023-09-05T18:00	15451	122	-65.2	-82.6	327	11
2023-09-05T18:00	15471	122	-65.2	-82.7	326	11
2023-09-05T18:00	15494	121	-64.9	-82.5	325	11
2023-09-05T18:00	15514	121	-65.0	-82.7	324	11
2023-09-05T18:00	15536	121	-65.2	-82.8	324	11
2023-09-05T18:00	15556	120	-65.2	-82.8	324	11
2023-09-05T18:00	15580	120	-65.2	-82.8	325	11
2023-09-05T18:00	15600	119	-65.0	-82.8	327	11
2023-09-05T18:00	15619	119	-65.0	-82.8	328	11
2023-09-05T18:00	15639	118	-65.1	-82.9	328	11
2023-09-05T18:00	15662	118	-65.1	-82.9	328	11
2023-09-05T18:00	15682	118	-65.0	-82.9	327	10
2023-09-05T18:00	15704	117	-65.0	-82.8	327	10
2023-09-05T18:00	15725	117	-65.0	-82.8	326	10
2023-09-05T18:00	15747	116	-65.1	-82.9	325	10
2023-09-05T18:00	15769	116	-65.2	-83.0	324	10
2023-09-05T18:00	15790	116	-65.3	-83.1	323	10
2023-09-05T18:00	15812	115	-65.2	-83.0	321	10
2023-09-05T18:00	15833	115	-65.2	-83.0	320	10
2023-09-05T18:00	15855	114	-65.4	-83.2	320	10
2023-09-05T18:00	15878	114	-65.4	-83.2	321	10
2023-09-05T18:00	15901	114	-65.3	-83.1	323	10
2023-09-05T18:00	15923	113	-65.4	-83.3	326	10
2023-09-05T18:00	15946	113	-65.4	-83.4	328	11
2023-09-05T18:00	15967	112	-65.3	-83.4	329	11
2023-09-05T18:00	15993	112	-65.2	-83.5	329	11
2023-09-05T18:00	16014	111	-65.1	-83.6	328	11
2023-09-05T18:00	16039	111	-65.0	-83.6	326	11
2023-09-05T18:00	16059	111	-64.7	-83.6	323	11
2023-09-05T18:00	16082	110	-64.6	-83.6	321	11
2023-09-05T18:00	16106	110	-64.7	-83.7	320	11
2023-09-05T18:00	16129	109	-64.9	-83.9	319	11
2023-09-05T18:00	16155	109	-65.1	-84.1	319	11
2023-09-05T18:00	16177	108	-65.1	-84.2	318	12
2023-09-05T18:00	16201	108	-64.8	-84.0	318	12
2023-09-05T18:00	16225	108	-64.5	-83.9	317	12
2023-09-05T18:00	16247	107	-64.2	-83.8	316	12
2023-09-05T18:00	16271	107	-64.2	-83.9	315	12
2023-09-05T18:00	16293	106	-64.3	-84.1	315	12
2023-09-05T18:00	16316	106	-64.3	-84.2	316	12
2023-09-05T18:00	16340	106	-64.0	-84.1	318	12
2023-09-05T18:00	16364	105	-64.0	-84.3	319	11
2023-09-05T18:00	16384	105	-63.8	-84.2	320	11
2023-09-05T18:00	16409	104	-63.7	-84.4	320	11
2023-09-05T18:00	16432	104	-63.4	-84.3	319	12
2023-09-05T18:00	16456	104	-63.4	-84.6	317	12
2023-09-05T18:00	16479	103	-63.1	-84.6	316	12
2023-09-05T18:00	16502	103	-62.9	-84.4	315	12
2023-09-05T18:00	16525	103	-62.9	-84.6	316	12
2023-09-05T18:00	16548	102	-63.0	-84.6	319	11
2023-09-05T18:00	16572	102	-62.8	-84.5	322	11
2023-09-05T18:00	16595	101	-62.7	-84.4	326	10
2023-09-05T18:00	16619	101	-62.7	-84.4	331	10
2023-09-05T18:00	16642	101	-62.9	-84.6	335	9
2023-09-05T18:00	16666	100	-62.9	-84.6	340	9
2023-09-05T18:00	16689	100	-62.9	-84.6	344	8
2023-09-05T18:00	16712	99	-62.9	-84.6	348	8
2023-09-05T18:00	16739	99	-63.1	-84.7	352	8
2023-09-05T18:00	16759	99	-63.1	-84.7	355	7
2023-09-05T18:00	16782	98	-63.2	-84.8	356	7
2023-09-05T18:00	16801	98	-63.1	-84.7	355	8
2023-09-05T18:00	16823	98	-63.1	-84.7	353	8
2023-09-05T18:00	16849	97	-63.1	-84.7	351	8
2023-09-05T18:00	16871	97	-63.2	-84.8	348	9
2023-09-05T18:00	16894	97	-63.4	-85.0	346	9
2023-09-05T18:00	16919	96	-63.4	-85.0	344	10
2023-09-05T18:00	16941	96	-63.5	-85.0	342	10
2023-09-05T18:00	16961	96	-63.5	-85.0	340	10
2023-09-05T18:00	16980	95	-63.6	-85.1	339	10
2023-09-05T18:00	17003	95	-63.6	-85.3	338	9
2023-09-05T18:00	17025	95	-63.5	-85.2	337	9
2023-09-05T18:00	17048	94	-63.4	-85.3	337	9
2023-09-05T18:00	17071	94	-63.4	-85.3	338	8
2023-09-05T18:00	17095	93	-63.4	-85.5	339	7
2023-09-05T18:00	17117	93	-63.2	-85.3	340	7
2023-09-05T18:00	17140	93	-63.3	-85.6	341	6
2023-09-05T18:00	17164	92	-63.4	-85.7	342	5
2023-09-05T18:00	17185	92	-63.5	-85.7	342	5
2023-09-05T18:00	17208	92	-63.7	-85.9	340	5
2023-09-05T18:00	17228	91	-63.8	-86.2	337	4
2023-09-05T18:00	17253	91	-63.3	-86.0	334	4
2023-09-05T18:00	17276	91	-62.8	-85.8	329	4
2023-09-05T18:00	17299	90	-62.8	-86.0	324	3
2023-09-05T18:00	17323	90	-62.9	-86.3	316	3
2023-09-05T18:00	17343	90	-62.8	-86.4	307	3
2023-09-05T18:00	17367	89	-62.3	-86.3	299	3
2023-09-05T18:00	17388	89	-61.5	-85.9	293	3
2023-09-05T18:00	17408	89	-61.1	-85.6	290	3
2023-09-05T18:00	17432	88	-60.9	-85.7	288	3
2023-09-05T18:00	17454	88	-61.1	-85.8	286	4
2023-09-05T18:00	17478	88	-61.1	-85.8	286	4
2023-09-05T18:00	17496	88	-61.1	-85.6	286	4
2023-09-05T18:00	17520	87	-61.3	-85.7	288	4
2023-09-05T18:00	17545	87	-61.4	-85.8	291	5
2023-09-05T18:00	17566	87	-61.4	-85.5	295	5
2023-09-05T18:00	17589	86	-61.6	-85.7	299	5
2023-09-05T18:00	17613	86	-61.7	-85.8	302	5
2023-09-05T18:00	17635	86	-61.9	-85.7	304	5
2023-09-05T18:00	17657	85	-62.0	-85.8	306	5
2023-09-05T18:00	17680	85	-62.2	-85.9	306	5
2023-09-05T18:00	17703	85	-62.3	-86.0	306	6
2023-09-05T18:00	17729	84	-62.4	-85.9	307	6
2023-09-05T18:00	17749	84	-62.5	-86.0	308	6
2023-09-05T18:00	17770	84	-62.6	-86.3	309	6
2023-09-05T18:00	17793	83	-62.7	-86.3	311	6
2023-09-05T18:00	17815	83	-62.6	-86.3	312	5
2023-09-05T18:00	17836	83	-62.6	-86.3	313	5
2023-09-05T18:00	17861	83	-62.6	-86.5	314	5
2023-09-05T18:00	17884	82	-62.3	-86.3	315	4
2023-09-05T18:00	17906	82	-62.1	-86.3	318	5
2023-09-05T18:00	17929	82	-62.1	-86.6	321	5
2023-09-05T18:00	17952	81	-61.4	-86.0	324	6
2023-09-05T18:00	17973	81	-61.3	-86.0	326	6
2023-09-05T18:00	17998	81	-61.3	-86.0	328	7
2023-09-05T18:00	18018	80	-61.5	-86.1	329	7
2023-09-05T18:00	18044	80	-61.6	-85.9	330	8
2023-09-05T18:00	18068	80	-61.7	-86.0	331	8
2023-09-05T18:00	18089	80	-61.8	-86.1	332	8
2023-09-05T18:00	18115	79	-61.9	-86.2	333	8
2023-09-05T18:00	18140	79	-61.9	-86.2	333	8
2023-09-05T18:00	18164	79	-61.6	-86.2	334	7
2023-09-05T18:00	18187	78	-61.6	-86.2	333	7
2023-09-05T18:00	18210	78	-61.5	-86.1	332	6
2023-09-05T18:00	18235	78	-61.5	-86.1	331	5
2023-09-05T18:00	18257	77	-61.6	-86.2	329	5
2023-09-05T18:00	18283	77	-61.7	-86.3	328	5
2023-09-05T18:00	18306	77	-61.8	-86.4	330	5
2023-09-05T18:00	18326	77	-61.8	-86.6	333	5
2023-09-05T18:00	18353	76	-61.5	-86.4	339	6
2023-09-05T18:00	18378	76	-60.9	-86.2	345	6
2023-09-05T18:00	18400	76	-60.7	-86.3	350	7
2023-09-05T18:00	18423	75	-60.7	-86.3	355	7
2023-09-05T18:00	18447	75	-60.6	-86.3	359	7
2023-09-05T18:00	18467	75	-60.2	-86.3	3	8
2023-09-05T18:00	18486	75	-59.9	-86.0	6	9
2023-09-05T18:00	18513	74	-60.0	-86.4	8	9
2023-09-05T18:00	18533	74	-59.6	-86.1	10	10
2023-09-05T18:00	18558	74	-58.6	-85.7	12	10
2023-09-05T18:00	18584	73	-58.5	-85.6	13	10
2023-09-05T18:00	18604	73	-58.4	-85.9	14	9
2023-09-05T18:00	18628	73	-57.7	-85.4	14	8
2023-09-05T18:00	18653	73	-57.7	-85.4	16	7
2023-09-05T18:00	18674	72	-57.8	-85.1	17	6
2023-09-05T18:00	18696	72	-57.9	-85.2	18	5
2023-09-05T18:00	18721	72	-57.9	-85.2	19	5
2023-09-05T18:00	18743	72	-57.9	-85.2	19	4
2023-09-05T18:00	18765	71	-57.9	-85.2	16	3
2023-09-05T18:00	18791	71	-58.0	-85.2	11	3
2023-09-05T18:00	18812	71	-58.0	-84.9	3	3
2023-09-05T18:00	18838	71	-58.0	-84.9	355	3
2023-09-05T18:00	18863	70	-58.2	-85.0	349	3
2023-09-05T18:00	18886	70	-58.4	-85.2	346	3
2023-09-05T18:00	18909	70	-58.5	-85.3	347	3
2023-09-05T18:00	18929	70	-58.5	-85.3	351	3
2023-09-05T18:00	18952	69	-58.3	-85.1	359	3
2023-09-05T18:00	18978	69	-58.2	-85.4	9	3
2023-09-05T18:00	19001	69	-58.2	-85.4	19	3
2023-09-05T18:00	19021	69	-58.3	-85.5	27	3
2023-09-05T18:00	19047	68	-58.3	-85.5	32	4
2023-09-05T18:00	19075	68	-58.4	-85.2	35	4
2023-09-05T18:00	19095	68	-58.5	-85.3	38	4
2023-09-05T18:00	19123	67	-58.4	-85.2	40	4
2023-09-05T18:00	19148	67	-58.4	-85.2	42	4
2023-09-05T18:00	19170	67	-58.3	-85.1	43	4
2023-09-05T18:00	19197	67	-58.5	-85.3	44	4
2023-09-05T18:00	19221	66	-58.6	-85.4	44	4
2023-09-05T18:00	19247	66	-58.8	-85.5	43	4
2023-09-05T18:00	19273	66	-59.0	-85.3	43	4
2023-09-05T18:00	19296	66	-59.2	-85.5	43	4
2023-09-05T18:00	19323	65	-59.2	-85.5	44	4
2023-09-05T18:00	19348	65	-59.4	-85.3	47	5
2023-09-05T18:00	19372	65	-59.6	-85.5	49	4
2023-09-05T18:00	19398	65	-59.8	-85.6	52	4
2023-09-05T18:00	19422	64	-60.0	-85.8	55	3
2023-09-05T18:00	19446	64	-59.9	-86.0	56	3
2023-09-05T18:00	19472	64	-59.8	-85.9	55	2
2023-09-05T18:00	19495	64	-59.9	-86.0	48	2
2023-09-05T18:00	19522	63	-59.9	-86.0	34	1
2023-09-05T18:00	19547	63	-59.8	-85.9	21	2
2023-09-05T18:00	19569	63	-59.8	-85.9	13	2
2023-09-05T18:00	19593	63	-59.9	-86.0	9	2
2023-09-05T18:00	19616	62	-60.0	-86.1	8	2
2023-09-05T18:00	19640	62	-60.3	-86.0	9	2
2023-09-05T18:00	19666	62	-60.4	-86.1	11	2
2023-09-05T18:00	19692	62	-60.5	-86.2	16	3
2023-09-05T18:00	19711	61	-60.5	-86.5	23	3
2023-09-05T18:00	19739	61	-60.4		29	3
2023-09-05T18:00	19762	61	-60.4		32	3
2023-09-05T18:00	19787	61	-60.4		32	3
2023-09-05T18:00	19807	60	-60.4	-86.7	29	3
2023-09-05T18:00	19835	60	-59.9	-86.3	21	3
2023-09-05T18:00	19858	60	-59.7	-86.2	10	3
2023-09-05T18:00	19880	60	-59.8	-86.3	3	3
2023-09-05T18:00	19904	60	-60.0	-86.4	1	3
2023-09-05T18:00	19928	59	-60.0	-86.4	4	3
2023-09-05T18:00	19954	59	-59.8	-86.3	9	4
2023-09-05T18:00	19979	59	-59.6	-86.1	14	5
2023-09-05T18:00	20004	59	-59.4	-86.3	17	5
2023-09-05T18:00	20025	58	-59.5	-86.4	19	5
2023-09-05T18:00	20050	58	-59.4	-86.3	21	5
2023-09-05T18:00	20073	58	-59.4	-86.3	24	4
2023-09-05T18:00	20099	58	-59.5	-86.4	27	4
2023-09-05T18:00	20122	57	-59.4	-86.3	29	3
2023-09-05T18:00	20149	57	-59.4	-86.3	29	3
2023-09-05T18:00	20173	57	-59.3	-86.2	25	3
2023-09-05T18:00	20198	57	-58.9	-85.9	20	3
2023-09-05T18:00	20222	57	-58.9	-86.3	14	4
2023-09-05T18:00	20244	56	-58.6	-86.1	11	4
2023-09-05T18:00	20272	56	-58.4	-85.9	10	4
2023-09-05T18:00	20293	56	-58.3	-85.8	10	5
2023-09-05T18:00	20320	56	-58.3	-85.8	11	5
2023-09-05T18:00	20340	55	-58.4	-85.9	12	5
2023-09-05T18:00	20370	55	-58.5	-86.0	13	5
2023-09-05T18:00	20397	55	-58.5	-85.6	12	5
2023-09-05T18:00	20421	55	-58.3	-85.8	11	5
2023-09-05T18:00	20443	55	-58.3	-85.8	9	5
2023-09-05T18:00	20466	54	-58.2	-85.8	7	4
2023-09-05T18:00	20491	54	-58.2	-85.8	7	4
2023-09-05T18:00	20518	54	-58.3	-85.8	10	4
2023-09-05T18:00	20539	54	-58.4	-85.9	17	4
2023-09-05T18:00	20564	54	-57.9	-85.5	26	4
2023-09-05T18:00	20592	53	-57.8	-85.5	35	5
2023-09-05T18:00	20618	53	-57.9	-85.5	42	5
2023-09-05T18:00	20642	53	-57.8	-85.5	47	6
2023-09-05T18:00	20669	53	-57.8	-85.5	51	6
2023-09-05T18:00	20693	53	-57.8	-85.5	53	6
2023-09-05T18:00	20716	52	-57.5	-85.6	54	5
2023-09-05T18:00	20744	52	-57.3	-85.5	53	4
2023-09-05T18:00	20769	52	-57.1	-85.3	50	4
2023-09-05T18:00	20793	52	-57.2	-85.4	47	3
2023-09-05T18:00	20819	51	-57.3	-85.5	42	3
2023-09-05T18:00	20844	51	-57.2	-85.4	36	3
2023-09-05T18:00	20870	51	-57.1	-85.3	30	3
2023-09-05T18:00	20895	51	-57.2	-85.0	27	3
2023-09-05T18:00	20917	51	-57.2	-85.0	25	3
2023-09-05T18:00	20942	50	-57.1	-84.9	25	3
2023-09-05T18:00	20963	50	-57.3	-85.1	27	4
2023-09-05T18:00	20989	50	-57.4	-85.2	30	4
2023-09-05T18:00	21018	50	-57.6	-85.3	34	4
2023-09-05T18:00	21041	50	-57.7	-85.4	38	4
2023-09-05T18:00	21069	49	-57.7	-85.4	42	3
2023-09-05T18:00	21093	49	-57.8	-85.5	46	3
2023-09-05T18:00	21120	49	-57.9	-85.2	50	3
2023-09-05T18:00	21148	49	-58.0	-85.2	55	2
2023-09-05T18:00	21175	49	-58.0	-85.2	62	2
2023-09-05T18:00	21196	48	-58.1	-85.3	74	2
2023-09-05T18:00	21223	48	-58.2	-85.4	95	1
2023-09-05T18:00	21249	48	-58.3	-85.5	126	1
2023-09-05T18:00	21275	48	-58.3	-85.5	151	1
2023-09-05T18:00	21300	48	-58.4	-85.5	166	2
2023-09-05T18:00	21329	47	-58.2	-85.4	174	2
2023-09-05T18:00	21357	47	-58.2	-85.4	179	2
2023-09-05T18:00	21380	47	-58.4	-85.5	183	3
2023-09-05T18:00	21404	47	-58.5	-85.6	187	3
2023-09-05T18:00	21431	47	-58.7	-85.8	191	2
2023-09-05T18:00	21458	47	-58.8	-85.9	193	2
2023-09-05T18:00	21482	46	-58.8	-85.9	196	2
2023-09-05T18:00	21507	46	-58.8	-85.9	198	2
2023-09-05T18:00	21532	46	-58.7	-85.8	201	2
2023-09-05T18:00	21557	46	-58.7	-85.8	206	2
2023-09-05T18:00	21582	46	-58.7	-85.8	213	2
2023-09-05T18:00	21615	45	-58.7	-85.8	224	2
2023-09-05T18:00	21635	45	-58.8	-85.9	238	2
2023-09-05T18:00	21659	45	-59.0	-86.4	252	2
2023-09-05T18:00	21686	45	-58.6	-86.1	264	2
2023-09-05T18:00	21708	45	-58.3	-85.8	273	2
2023-09-05T18:00	21736	44	-58.4	-85.9	281	2
2023-09-05T18:00	21761	44	-58.5	-86.0	293	2
2023-09-05T18:00	21784	44	-58.5	-86.0	316	1
2023-09-05T18:00	21807	44	-58.4	-85.9	2	1
2023-09-05T18:00	21833	44	-58.2	-85.8	40	2
2023-09-05T18:00	21857	44	-58.2	-86.2	59	2
2023-09-05T18:00	21881	43	-58.3	-86.2	70	3
2023-09-05T18:00	21907	43	-58.2	-86.2	80	3
2023-09-05T18:00	21931	43	-57.4	-85.6	88	3
2023-09-05T18:00	21954	43	-57.3	-85.9	97	3
2023-09-05T18:00	21979	43	-57.1	-85.7	104	3
2023-09-05T18:00	22006	43	-57.0	-85.7	111	3
2023-09-05T18:00	22029	42	-56.9	-85.6	116	2
2023-09-05T18:00	22055	42	-56.6	-85.4	123	2
2023-09-05T18:00	22080	42	-56.3	-85.1	133	2
2023-09-05T18:00	22101	42	-56.2	-85.1	145	2
2023-09-05T18:00	22129	42	-56.1	-85.0	155	2
2023-09-05T18:00	22157	42	-56.1	-85.0	159	2
2023-09-05T18:00	22185	41	-56.3	-85.1	153	2
2023-09-05T18:00	22208	41	-56.2	-85.1	140	2
2023-09-05T18:00	22229	41	-56.2	-85.1	129	2
2023-09-05T18:00	22260	41	-56.0	-84.9	126	2
2023-09-05T18:00	22284	41	-55.8	-84.8	131	2
2023-09-05T18:00	22314	41	-55.6	-84.6	142	3
2023-09-05T18:00	22331	40	-55.6	-85.1	158	3
2023-09-05T18:00	22362	40	-55.4	-84.9	177	3
2023-09-05T18:00	22386	40	-55.3	-84.9	195	3
2023-09-05T18:00	22411	40	-55.2	-84.3	210	3
2023-09-05T18:00	22440	40	-55.3	-84.4	220	4
2023-09-05T18:00	22464	40	-55.3	-84.4	226	4
2023-09-05T18:00	22493	39	-55.3	-84.4	230	4
2023-09-05T18:00	22518	39	-55.3	-84.4	231	3
2023-09-05T18:00	22543	39	-55.4	-84.5	232	3
2023-09-05T18:00	22566	39	-55.1	-84.7	231	3
2023-09-05T18:00	22590	39	-55.1	-84.7	232	4
2023-09-05T18:00	22613	39	-55.1	-84.7	233	4
2023-09-05T18:00	22642	39	-54.9	-84.6	234	4
2023-09-05T18:00	22669	38	-54.7	-84.4	236	4
2023-09-05T18:00	22694	38	-54.5	-84.3	238	5
2023-09-05T18:00	22718	38	-54.4	-84.2	241	5
2023-09-05T18:00	22748	38	-54.4	-84.2	244	6
2023-09-05T18:00	22764	38	-54.6	-84.3	246	6
2023-09-05T18:00	22791	38	-54.6	-84.3	249	7
2023-09-05T18:00	22822	38	-54.5	-84.3	251	7
2023-09-05T18:00	22842	37	-54.4	-84.2	253	7
2023-09-05T18:00	22874	37	-54.5	-84.3	255	8
2023-09-05T18:00	22893	37	-54.6	-84.3	258	8
2023-09-05T18:00	22915	37	-54.8	-84.5	260	8
2023-09-05T18:00	22941	37	-54.8	-84.5	263	8
2023-09-05T18:00	22967	37	-54.6	-84.3	266	8
2023-09-05T18:00	22987	37	-54.7	-84.4	269	8
2023-09-05T18:00	23019	36	-54.7	-84.4	271	7
2023-09-05T18:00	23045	36	-54.8	-84.5	272	7
2023-09-05T18:00	23068	36	-54.6	-84.3	273	7
2023-09-05T18:00	23093	36	-54.6	-84.3	275	6
2023-09-05T18:00	23119	36	-54.8	-84.5	278	6
2023-09-05T18:00	23146	36	-55.0	-84.2	281	6
2023-09-05T18:00	23168	36	-55.2	-84.3	284	5
2023-09-05T18:00	23198	35	-55.3	-84.4	286	5
2023-09-05T18:00	23223	35	-55.6	-84.6	287	5
2023-09-05T18:00	23245	35	-55.8	-84.8	286	4
2023-09-05T18:00	23277	35	-55.7	-84.7	285	4
2023-09-05T18:00	23304	35	-55.8	-84.8	287	3
2023-09-05T18:00	23334	35	-55.9	-84.8	291	3
2023-09-05T18:00	23359	34	-55.9	-84.8	297	3
2023-09-05T18:00	23382	34	-55.8	-84.8	304	4
2023-09-05T18:00	23404	34	-55.8	-84.8	310	4
2023-09-05T18:00	23430	34	-55.9	-84.8	315	5
2023-09-05T18:00	23452	34	-56.0	-84.9	318	5
2023-09-05T18:00	23480	34	-56.2	-85.1	320	6
2023-09-05T18:00	23498	34	-56.3	-85.1	321	7
2023-09-05T18:00	23526	34	-56.4	-85.2	321	7
2023-09-05T18:00	23554	33	-56.5	-85.3	323	8
2023-09-05T18:00	23579	33	-56.3	-85.1	326	8
2023-09-05T18:00	23606	33	-56.2	-85.1	330	8
2023-09-05T18:00	23632	33	-56.2	-85.5	336	8
2023-09-05T18:00	23657	33	-55.8	-85.2	342	8
2023-09-05T18:00	23675	33	-55.8	-85.2	348	8
2023-09-05T18:00	23704	33	-55.8	-85.2	354	8
2023-09-05T18:00	23738	33	-55.8	-85.2	1	8
2023-09-05T18:00	23757	32	-55.7	-84.7	9	7
2023-09-05T18:00	23789	32	-56.0	-84.9	16	7
2023-09-05T18:00	23811	32	-56.2	-85.1	23	7
2023-09-05T18:00	23841	32	-56.0	-84.9	27	7
2023-09-05T18:00	23867	32	-56.0	-84.9	28	7
2023-09-05T18:00	23893	32	-55.9	-85.3	26	7
2023-09-05T18:00	23917	32	-56.0		23	7
2023-09-05T18:00	23944	31	-55.8	-85.2	21	7
2023-09-05T18:00	23967	31	-55.6	-85.1	18	7
2023-09-05T18:00	23999	31	-55.3	-84.9	16	6
2023-09-05T18:00	24021	31	-55.5	-85.0	13	6
2023-09-05T18:00	24050	31	-55.7	-85.2	10	6
2023-09-05T18:00	24080	31	-55.9	-84.8	7	5
2023-09-05T18:00	24103	31	-55.9	-84.8	3	5
2023-09-05T18:00	24127	31	-56.1	-85.0	359	5
2023-09-05T18:00	24158	30	-56.2	-85.1	355	4
2023-09-05T18:00	24187	30	-56.3	-84.7	352	5
2023-09-05T18:00	24219	30	-56.5	-84.9	350	5
2023-09-05T18:00	24247	30	-56.8	-85.1	349	5
2023-09-05T18:00	24277	30	-57.0	-85.2	350	6
2023-09-05T18:00	24303	30	-57.0	-85.2	353	6
2023-09-05T18:00	24332	30	-57.2	-85.4	356	6
2023-09-05T18:00	24361	29	-57.4	-85.6	360	6
2023-09-05T18:00	24385	29	-57.6	-85.7	3	6
2023-09-05T18:00	24416	29	-57.5	-85.6	7	5
2023-09-05T18:00	24447	29	-57.3	-85.5	11	5
2023-09-05T18:00	24473	29	-57.3	-85.5	16	4
2023-09-05T18:00	24503	29	-57.4	-85.6	24	3
2023-09-05T18:00	24531	29	-57.6	-85.7	34	3
2023-09-05T18:00	24558	29	-57.8	-85.9	45	3
2023-09-05T18:00	24589	28	-58.0	-85.6	55	3
2023-09-05T18:00	24617	28	-58.2	-85.8	64	4
2023-09-05T18:00	24643	28	-58.3	-85.8	72	4
2023-09-05T18:00	24671	28	-58.5	-86.0	80	5
2023-09-05T18:00	24703	28	-58.6	-86.1	87	5
2023-09-05T18:00	24726	28	-58.6	-86.5	95	5
2023-09-05T18:00	24755	28	-58.5	-86.4	102	5
2023-09-05T18:00	24782	28	-58.2	-86.6	108	5
2023-09-05T18:00	24816	27	-57.5	-86.5	114	5
2023-09-05T18:00	24844	27	-57.1	-86.2	119	4
2023-09-05T18:00	24866	27	-56.8	-86.0	125	4
2023-09-05T18:00	24894	27	-56.8	-86.0	131	4
2023-09-05T18:00	24917	27	-57.0	-86.1	138	4
2023-09-05T18:00	24948	27	-57.0	-86.1	142	4
2023-09-05T18:00	24975	27	-57.0	-85.7	141	3
2023-09-05T18:00	25005	27	-57.1	-85.7	137	3
2023-09-05T18:00	25026	27	-56.9	-86.1	128	3
2023-09-05T18:00	25056	26	-56.5	-85.8	116	2
2023-09-05T18:00	25084	26	-56.3	-85.6	96	2
2023-09-05T18:00	25109	26	-55.9	-85.3	60	1
2023-09-05T18:00	25143	26	-55.9	-85.3	21	1
2023-09-05T18:00	25168	26	-55.9	-85.3	6	2
2023-09-05T18:00	25192	26	-56.0		6	3
2023-09-05T18:00	25217	26	-55.9	-85.8	12	3
2023-09-05T18:00	25239	26	-55.5	-85.5	23	3
2023-09-05T18:00	25265	26	-55.3	-85.4	37	3
2023-09-05T18:00	25293	25	-54.8	-85.5	53	3
2023-09-05T18:00	25324	25	-54.0	-84.9	70	3
2023-09-05T18:00	25346	25	-54.0	-84.9	91	2
2023-09-05T18:00	25379	25	-54.1	-84.5	115	2
2023-09-05T18:00	25400	25	-54.2	-84.5	137	3
2023-09-05T18:00	25425	25	-54.2	-84.5	153	3
2023-09-05T18:00	25446	25	-54.3	-84.6	164	4
2023-09-05T18:00	25477	25	-54.3	-84.6	171	5
2023-09-05T18:00	25497	25	-54.2	-84.5	176	6
2023-09-05T18:00	25524	25	-54.2	-84.5	179	7
2023-09-05T18:00	25561	24	-54.3	-84.6	180	7
2023-09-05T18:00	25585	24	-54.3	-84.6	180	7
2023-09-05T18:00	25616	24	-54.2	-84.5	180	8
2023-09-05T18:00	25642	24	-53.3	-83.9	181	7
2023-09-05T18:00	25663	24	-53.2	-84.4	182	7
2023-09-05T18:00	25686	24	-53.4	-83.9	185	7
2023-09-05T18:00	25713	24	-53.5	-84.0	189	6
2023-09-05T18:00	25747	24	-53.6	-84.1	193	5
2023-09-05T18:00	25771	24	-53.7	-84.2	198	5
2023-09-05T18:00	25795	24	-53.8	-84.2	202	4
2023-09-05T18:00	25820	23	-53.7	-84.2	204	4
2023-09-05T18:00	25857	23	-53.6	-84.1	204	4
2023-09-05T18:00	25881	23	-53.4	-84.5	202	4
2023-09-05T18:00	25909	23	-53.3	-84.4	198	4
2023-09-05T18:00	25939	23	-53.0	-84.2	195	4
2023-09-05T18:00	25960	23	-53.1	-84.3	193	4
2023-09-05T18:00	25988	23	-53.2	-84.4	193	5
2023-09-05T18:00	26014	23	-53.1	-84.3	194	6
2023-09-05T18:00	26041	23	-52.9	-84.1	194	6
2023-09-05T18:00	26074	23	-53.0	-84.2	193	7
2023-09-05T18:00	26092	22	-53.0	-84.2	192	8
2023-09-05T18:00	26126	22	-53.1	-84.3	191	8
2023-09-05T18:00	26154	22	-53.2	-84.4	191	9
2023-09-05T18:00	26182	22	-53.0	-84.2	191	10
2023-09-05T18:00	26202	22	-52.6	-83.9	192	10
2023-09-05T18:00	26236	22	-52.3	-83.7	194	11
2023-09-05T18:00	26268	22	-52.0	-83.5	198	11
2023-09-05T18:00	26294	22	-52.0	-83.5	202	11
2023-09-05T18:00	26323	22	-52.0	-83.5	207	11
2023-09-05T18:00	26349	22	-51.9	-83.4	211	11
2023-09-05T18:00	26376	22	-52.0	-83.5	216	11
2023-09-05T18:00	26403	21	-52.1	-83.5	220	11
2023-09-05T18:00	26441	21	-52.1	-83.5	224	12
2023-09-05T18:00	26464	21	-51.9	-83.4	228	12
2023-09-05T18:00	26483	21	-52.1	-83.5	233	12
2023-09-05T18:00	26506	21	-51.6	-83.2	238	12
2023-09-05T18:00	26542	21	-51.6	-83.2	244	12
2023-09-05T18:00	26573	21	-51.5	-83.1	249	12
2023-09-05T18:00	26593	21	-51.6	-83.2	254	13
2023-09-05T18:00	26625	21	-51.6	-83.2	259	13
2023-09-05T18:00	26649	21	-51.6	-83.2	264	13
2023-09-05T18:00	26682	21	-51.6	-83.8	268	13
2023-09-05T18:00	26705	20	-51.6	-83.8	272	13
2023-09-05T18:00	26738	20	-50.9	-83.3	275	13
2023-09-05T18:00	26755	20	-50.6	-83.1	278	13
2023-09-05T18:00	26784	20	-50.3	-82.8	281	12
2023-09-05T18:00	26805	20	-50.2	-83.5	285	11
2023-09-05T18:00	26839	20	-50.1	-83.4	290	11
2023-09-05T18:00	26861	20	-49.8	-83.2	294	10
2023-09-05T18:00	26895	20	-49.8	-82.5	298	9
2023-09-05T18:00	26914	20	-49.7	-82.4	301	9
2023-09-05T18:00	26949	20	-49.8	-82.5	305	8
2023-09-05T18:00	26966	20	-49.8	-82.5	309	7
2023-09-05T18:00	26999	20	-50.0	-82.6	315	7
2023-09-05T18:00	27018	19	-50.1	-82.7	322	6
2023-09-05T18:00	27062	19	-50.2	-82.8	328	5
2023-09-05T18:00	27080	19	-50.3	-82.8	332	5
2023-09-05T18:00	27111	19	-50.1	-82.7	331	4
2023-09-05T18:00	27139	19	-49.8	-82.5	325	4
2023-09-05T18:00	27170	19	-49.8	-82.5	317	4
2023-09-05T18:00	27191	19	-49.7	-82.4	308	4
2023-09-05T18:00	27231	19	-49.5	-82.3	302	5
2023-09-05T18:00	27252	19	-49.5	-82.3	299	5
2023-09-05T18:00	27280	19	-49.5	-82.3	299	5
2023-09-05T18:00	27308	19	-49.4	-82.2	302	5
2023-09-05T18:00	27340	19	-49.3	-82.8	306	6
2023-09-05T18:00	27358	18	-49.3	-82.8	310	6
2023-09-05T18:00	27392	18	-49.2	-82.7	315	6
2023-09-05T18:00	27426	18	-49.0	-82.6	319	6
2023-09-05T18:00	27449	18	-49.2	-82.7	323	7
2023-09-05T18:00	27482	18	-49.2	-82.0	327	7
2023-09-05T18:00	27510	18	-49.1	-82.0	330	7
2023-09-05T18:00	27537	18	-49.2	-82.0	332	7
2023-09-05T18:00	27564	18	-49.2	-82.0	335	7
2023-09-05T18:00	27600	18	-49.4	-82.2	337	7
2023-09-05T18:00	27633	18	-49.5	-82.3	338	6
2023-09-05T18:00	27657	18	-49.6	-82.3	339	5
2023-09-05T18:00	27686	18	-49.7	-82.4	339	4
2023-09-05T18:00	27722	18	-49.9	-82.5	336	3
2023-09-05T18:00	27753	17	-50.1	-82.7	329	2
2023-09-05T18:00	27778	17	-49.9	-82.5	318	2
2023-09-05T18:00	27807	17	-49.7	-82.4	309	2
2023-09-05T18:00	27851	17	-49.7	-82.4	306	2
2023-09-05T18:00	27876	17	-49.7	-82.4	308	2
2023-09-05T18:00	27909	17	-49.5	-82.9	313	3
2023-09-05T18:00	27945	17	-49.4	-82.9	317	3
2023-09-05T18:00	27967	17	-49.2	-82.7	321	3
2023-09-05T18:00	27991	17	-48.8	-82.4	322	3
2023-09-05T18:00	28028	17	-48.7	-82.4	320	3
2023-09-05T18:00	28057	17	-48.7	-82.4	315	2
2023-09-05T18:00	28084	17	-48.9	-82.5	306	2
2023-09-05T18:00	28111	16	-49.0	-82.6	298	2
2023-09-05T18:00	28148	16	-49.0	-82.6	294	3
2023-09-05T18:00	28169	16	-48.9	-82.5	293	4
2023-09-05T18:00	28200	16	-48.8	-82.4	294	4
2023-09-05T18:00	28228	16	-48.9	-82.5	295	4
2023-09-05T18:00	28266	16	-48.9	-82.5	295	5
2023-09-05T18:00	28279	16	-49.0	-81.9	293	5
2023-09-05T18:00	28323	16	-49.2	-82.0	291	5
2023-09-05T18:00	28351	16	-49.5	-82.3	288	5
2023-09-05T18:00	28380	16	-49.8	-82.5	286	5
2023-09-05T18:00	28402	16	-49.8	-82.5	286	6
2023-09-05T18:00	28435	16	-49.8	-82.5	288	6
2023-09-05T18:00	28455	16	-49.9	-82.5	291	7
2023-09-05T18:00	28492	16	-50.0	-82.6	294	7
2023-09-05T18:00	28517	16	-50.0	-82.6	296	8
2023-09-05T18:00	28546	15	-49.8	-82.5	299	8
2023-09-05T18:00	28572	15	-49.9	-83.2	301	8
2023-09-05T18:00	28598	15	-49.9	-83.2	303	8
2023-09-05T18:00	28634	15	-49.7	-83.1	305	9
2023-09-05T18:00	28653	15	-49.6	-83.0	307	9
2023-09-05T18:00	28681	15	-49.7	-82.4	309	9
2023-09-05T18:00	28707	15	-49.8	-82.5	312	8
2023-09-05T18:00	28738	15	-50.0	-82.6	316	7
2023-09-05T18:00	28762	15	-50.1	-82.7	322	6
2023-09-05T18:00	28790	15	-50.0	-82.6	329	5
2023-09-05T18:00	28820	15	-49.9	-82.5	340	5
2023-09-05T18:00	28852	15	-49.8	-82.5	354	4
2023-09-05T18:00	28879	15	-50.0	-82.6	13	3
2023-09-05T18:00	28909	15	-50.1	-82.7	35	3
2023-09-05T18:00	28929	15	-50.3	-82.8	57	3
2023-09-05T18:00	28955	14	-50.4	-82.9	75	4
2023-09-05T18:00	28996	14	-50.5	-83.0	88	4
2023-09-05T18:00	29016	14	-50.4	-82.9	96	4
2023-09-05T18:00	29064	14	-50.1	-83.4	102	4
2023-09-05T18:00	29084	14	-50.0	-83.3	106	4
2023-09-05T18:00	29113	14	-49.6	-83.0	110	3
2023-09-05T18:00	29132	14	-49.5	-82.9	114	2
2023-09-05T18:00	29171	14	-49.2	-82.7	122	2
2023-09-05T18:00	29189	14	-48.9	-83.3	136	1
2023-09-05T18:00	29225	14	-48.5	-83.0	159	1
2023-09-05T18:00	29260	14	-48.5	-83.0	160	0
2023-09-05T18:00	29284	14	-48.5	-83.0	110	0
2023-09-05T18:00	29295	14	-48.3	-82.9	92	1
2023-09-05T18:00	29360	14	-47.8	-82.5	93	1
2023-09-05T18:00	29380	14	-47.7	-82.4	98	2
2023-09-05T18:00	29400	14	-47.2	-82.1	106	2
2023-09-05T18:00	29432	13	-47.3	-82.2	116	2
2023-09-05T18:00	29470	13	-47.0	-81.9	134	1
2023-09-05T18:00	29489	13	-46.7	-81.7	185	1
2023-09-05T18:00	29518	13	-46.6	-81.7	249	1
2023-09-05T18:00	29543	13	-46.4	-81.5	267	2
2023-09-05T18:00	29575	13	-46.2	-81.4	270	2
2023-09-05T18:00	29612	13	-45.8	-81.1	268	3
2023-09-05T18:00	29638	13	-45.5	-81.8	265	3
2023-09-05T18:00	29667	13	-45.4	-81.7	263	4
2023-09-05T18:00	29700	13	-45.5	-81.8	263	4
2023-09-05T18:00	29721	13	-45.5	-80.9	264	5
2023-09-05T18:00	29753	13	-45.3	-80.7	267	5
2023-09-05T18:00	29777	13	-45.3	-80.7	272	5
2023-09-05T18:00	29804	13	-45.4	-80.8	277	5
2023-09-05T18:00	29836	13	-45.2	-80.7	282	5
2023-09-05T18:00	29869	13	-45.1	-80.6	289	5
2023-09-05T18:00	29915	13	-45.2	-80.7	296	5
2023-09-05T18:00	29927	13	-45.3	-80.7	302	5
2023-09-05T18:00	29957	12	-45.5	-80.9	308	5
2023-09-05T18:00	29984	12	-45.4	-80.8	312	6
2023-09-05T18:00	30026	12	-45.0	-80.5	315	6
2023-09-05T18:00	30042	12	-45.0	-80.5	317	7
2023-09-05T18:00	30077	12	-44.7	-80.3	318	7
2023-09-05T18:00	30119	12	-44.7	-80.3	319	7
2023-09-05T18:00	30139	12	-44.9	-80.4	319	8
2023-09-05T18:00	30185	12	-45.2	-80.7	319	8
2023-09-05T18:00	30218	12	-45.3	-80.7	319	8
2023-09-05T18:00	30229	12	-45.6	-80.9	318	8
2023-09-05T18:00	30271	12	-45.9	-81.2	316	7
2023-09-05T18:00	30309	12	-46.1	-81.3	315	7
2023-09-05T18:00	30334	12	-46.4	-81.5	313	7
2023-09-05T18:00	30367	12	-46.5	-80.8	312	7
2023-09-05T18:00	30404	12	-46.8	-81.0	312	7
2023-09-05T18:00	30436	12	-47.0	-81.1	311	7
2023-09-05T18:00	30465	12	-47.2	-81.3	311	7
2023-09-05T18:00	30510	12	-47.4	-81.4	311	7
2023-09-05T18:00	30540	11	-47.5	-81.5	311	8
2023-09-05T18:00	30557	11	-47.7	-81.6	312	7
2023-09-05T18:00	30577	11	-48.0	-81.9	312	7
2023-09-05T18:00	30631	11	-48.2	-82.0	313	7
2023-09-05T18:00	30657	11	-48.2	-82.0	313	6
2023-09-05T18:00	30690	11	-47.7	-81.6	313	5
2023-09-05T18:00	30732	11	-47.9	-81.8	310	5
2023-09-05T18:00	30751	11	-48.0	-82.7	304	4
2023-09-05T18:00	30780	11	-47.8	-82.5	296	4
2023-09-05T18:00	30805	11	-47.9	-82.6	287	4
2023-09-05T18:00	30848	11	-48.0	-82.7	280	4
2023-09-05T18:00	30859	11	-47.8	-82.5	277	4
2023-09-05T18:00	30907	11	-47.4	-82.2	276	5
2023-09-05T18:00	30939	11	-47.3	-82.2	276	5
2023-09-05T18:00	30969	11	-47.4	-82.2	276	5
2023-09-05T18:00	31000	11	-47.5	-82.3	275	5
2023-09-05T18:00	31029	11	-47.7	-82.4	273	5
2023-09-05T18:00	31076	11	-47.8	-82.5	271	5
2023-09-05T18:00	31090	11	-47.5	-82.3	271	5
2023-09-05T18:00	31128	10	-47.2	-82.1	274	5
2023-09-05T18:00	31151	10	-47.0	-82.9	280	5
2023-09-05T18:00	31191	10	-46.5	-82.5	291	5
2023-09-05T18:00	31218	10	-45.8	-82.0	303	5
2023-09-05T18:00	31249	10	-45.5	-81.8	316	5
2023-09-05T18:00	31275	10	-45.1	-81.5	327	5
2023-09-05T18:00	31304	10	-45.2	-81.6	338	5
2023-09-05T18:00	31336	10	-45.3	-81.6	348	5
2023-09-05T18:00	31364	10	-44.9	-82.5	358	4
2023-09-05T18:00	31396	10	-43.8	-81.7	7	4
2023-09-05T18:00	31408	10	-42.4	-80.7	14	3
2023-09-05T18:00	31441	10	-42.2	-80.6	18	2
2023-09-05T18:00	31488	10	-42.1	-80.5	20	1
2023-09-05T18:00	31512	10	-42.2	-80.6	62	0
2023-09-05T18:00	31533	10	-42.3	-80.6	184	1
2023-09-05T18:00	31566	10	-42.2	-80.6	181	2
2023-09-05T18:00	31594	10	-41.9	-80.4	177	3
2023-09-05T18:00	31635	10	-41.8	-80.3	175	4
2023-09-05T18:00	31674	10	-41.7	-80.2	175	4
2023-09-05T18:00	31681	10	-41.7	-80.2	179	4
2023-09-05T18:00	31717	10	-41.6	-80.1	187	4
2023-09-05T18:00	31742	10	-41.4	-80.0	197	4
2023-09-05T18:00	31786	10	-41.5	-80.1	211	4
2023-09-05T18:00	31802	9	-41.3	-79.9	227	3
2023-09-05T18:00	31813	9	-40.9	-79.7	243	3
2023-09-05T18:00	31843	9	-40.4	-79.3	258	3
2023-09-05T18:00	31880	9	-39.6	-78.8	271	3
2023-09-05T18:00	31914	9	-39.0	-78.3	281	3
2023-09-05T18:00	31929	9	-38.9	-78.3	289	3
2023-09-05T18:00	31951	9	-38.7	-78.1	295	3
2023-09-05T18:00	31988	9	-38.9	-78.3	300	3
2023-09-05T18:00	31999	9	-39.0	-78.3	306	3
2023-09-05T18:00	32049	9	-39.2	-78.5	314	2
2023-09-05T18:00	32065	9	-39.4	-78.6	325	2
2023-09-05T18:00	32107	9	-39.6	-78.8	339	2
2023-09-05T18:00	32143	9	-39.9	-79.0	355	2
2023-09-05T18:00	32157	9	-40.2	-79.2	11	2
2023-09-05T18:00	32196	9	-40.4	-79.3	24	3
2023-09-05T18:00	32218	9	-40.6	-79.5	35	3
2023-09-05T18:00	32265	9	-40.7	-79.5	43	3
2023-09-05T18:00	32277	9	-40.9	-79.7	47	3
2023-09-05T18:00	32308	9	-41.0	-79.7	49	4
2023-09-05T18:00	32326	9	-41.1	-79.8	48	4
2023-09-05T18:00	32367	9	-41.3	-79.9	46	4
2023-09-05T18:00	32407	9	-41.5	-80.1	44	4
2023-09-05T18:00	32418	9	-41.8	-80.3	41	4
2023-09-06T00:00	114	1010	18.7	12.2	203	2
2023-09-06T00:00	143	1006	20.0	11.2	215	3
2023-09-06T00:00	174	1003	22.1	10.0	210	4
2023-09-06T00:00	194	1000	22.4	10.2	207	5
2023-09-06T00:00	220	997	22.3	10.1	206	5
2023-09-06T00:00	246	995	22.2	10.0	206	5
2023-09-06T00:00	268	992	22.1	10.2	206	5
2023-09-06T00:00	291	989	22.0	10.3	207	5
2023-09-06T00:00	323	986	21.9	9.5	207	5
2023-09-06T00:00	347	983	21.8	9.7	207	5
2023-09-06T00:00	375	980	21.5	9.7	206	4
2023-09-06T00:00	397	977	21.4	9.6	203	4
2023-09-06T00:00	421	974	21.2	10.2	198	4
2023-09-06T00:00	446	972	20.9	10.8	191	4
2023-09-06T00:00	468	969	20.8	10.8	185	4
2023-09-06T00:00	495	966	20.6	10.7	181	4
2023-09-06T00:00	513	964	20.4	10.7	180	4
2023-09-06T00:00	532	962	20.3	10.7	182	4
2023-09-06T00:00	553	960	20.1	10.4	187	4
2023-09-06T00:00	573	957	20.0	10.3	193	4
2023-09-06T00:00	599	955	19.9	9.9	197	4
2023-09-06T00:00	623	952	19.7	9.7	197	3
2023-09-06T00:00	647	949	19.6	9.3	195	3
2023-09-06T00:00	671	947	19.5	9.5	190	3
2023-09-06T00:00	700	944	19.4	9.0	185	2
2023-09-06T00:00	722	941	19.4	8.5	182	2
2023-09-06T00:00	746	938	19.4	8.3	183	1
2023-09-06T00:00	773	936	19.5	6.0	194	1
2023-09-06T00:00	798	933	19.5	5.7	228	0
2023-09-06T00:00	825	930	19.4	5.4	291	0
2023-09-06T00:00	852	927	19.1	6.1	336	0
2023-09-06T00:00	874	925	18.8	7.3	356	1
2023-09-06T00:00	897	922	18.6	7.5	5	1
2023-09-06T00:00	922	919	18.3	8.0	10	1
2023-09-06T00:00	948	917	18.1	8.2	14	1
2023-09-06T00:00	969	914	17.8	8.7	18	2
2023-09-06T00:00	993	912	17.6	8.7	22	2
2023-09-06T00:00	1020	909	17.7	8.7	24	1
2023-09-06T00:00	1043	907	18.1	5.3	24	1
2023-09-06T00:00	1068	904	18.3	3.3	21	1
2023-09-06T00:00	1093	901	18.5	1.6	13	1
2023-09-06T00:00	1119	899	18.7	0.7	5	2
2023-09-06T00:00	1144	896	18.7	1.3	358	2
2023-09-06T00:00	1163	894	18.5	1.3	352	2
2023-09-06T00:00	1193	891	18.3	0.6	348	2
2023-09-06T00:00	1224	888	18.3	-1.4	343	2
2023-09-06T00:00	1249	885	18.2	-1.5	337	2
2023-09-06T00:00	1277	882	18.2	-2.8	326	1
2023-09-06T00:00	1300	880	18.2	-4.0	310	1
2023-09-06T00:00	1320	878	18.3	-4.5	293	1
2023-09-06T00:00	1342	875	18.4	-5.1	282	1
2023-09-06T00:00	1366	873	18.5	-3.0	277	1
2023-09-06T00:00	1392	870	18.6	-5.9	274	1
2023-09-06T00:00	1414	868	18.5	-5.6	264	1
2023-09-06T00:00	1437	866	18.4	-4.8	176	0
2023-09-06T00:00	1459	863	18.2	-4.8	129	1
2023-09-06T00:00	1488	861	18.1	-4.7	121	1
2023-09-06T00:00	1515	858	17.9	-5.0	114	1
2023-09-06T00:00	1546	855	17.9	-8.2	105	1
2023-09-06T00:00	1570	852	17.6	-2.4	93	2
2023-09-06T00:00	1594	850	17.3	-0.2	79	2
2023-09-06T00:00	1614	848	17.1	0.7	68	2
2023-09-06T00:00	1635	846	16.8	1.2	61	2
2023-09-06T00:00	1657	844	16.6	1.4	59	2
2023-09-06T00:00	1677	841	16.4	1.9	60	2
2023-09-06T00:00	1707	839	16.1	1.8	59	2
2023-09-06T00:00	1730	837	16.0	2.0	54	3
2023-09-06T00:00	1751	834	15.8	1.9	47	3
2023-09-06T00:00	1772	832	15.7	1.8	42	4
2023-09-06T00:00	1794	830	15.6	1.7	39	5
2023-09-06T00:00	1816	828	15.4	2.0	40	5
2023-09-06T00:00	1838	826	15.2	2.6	43	5
2023-09-06T00:00	1859	824	15.1	3.1	47	5
2023-09-06T00:00	1875	822	14.9	3.7	50	4
2023-09-06T00:00	1897	820	14.8	3.8	48	3
2023-09-06T00:00	1925	818	14.8	2.1	42	3
2023-09-06T00:00	1945	815	14.7	2.2	31	2
2023-09-06T00:00	1976	813	14.5	2.2	18	2
2023-09-06T00:00	2007	810	14.4	0.8	4	2
2023-09-06T00:00	2034	807	14.3	-0.4	353	2
2023-09-06T00:00	2061	804	14.6	-4.4	348	1
2023-09-06T00:00	2094	801	14.6	-5.3	352	2
2023-09-06T00:00	2120	799	14.6	-5.4	359	2
2023-09-06T00:00	2147	796	14.6	-8.6	2	3
2023-09-06T00:00	2171	794	14.5	-10.5	1	3
2023-09-06T00:00	2192	792	14.4	-12.2	356	3
2023-09-06T00:00	2214	790	14.4	-14.0	346	3
2023-09-06T00:00	2233	788	14.3	-15.3	334	3
2023-09-06T00:00	2263	786	14.1	-14.2	322	3
2023-09-06T00:00	2285	783	13.9	-14.7	314	2
2023-09-06T00:00	2314	781	13.9	-16.6	307	2
2023-09-06T00:00	2336	779	13.8	-18.7	301	2
2023-09-06T00:00	2361	776	13.7	-21.1	296	2
2023-09-06T00:00	2382	774	13.6	-21.6	290	2
2023-09-06T00:00	2408	772	13.4	-21.2	288	2
2023-09-06T00:00	2434	769	13.3	-20.9	286	2
2023-09-06T00:00	2456	767	13.2	-21.1	284	3
2023-09-06T00:00	2479	765	13.1	-19.2	279	3
2023-09-06T00:00	2505	763	13.0	-16.3	272	3
2023-09-06T00:00	2531	761	12.7	-6.0	263	3
2023-09-06T00:00	2558	758	12.3	-3.8	254	3
2023-09-06T00:00	2581	756	12.0	-2.7	249	3
2023-09-06T00:00	2601	754	11.8	-2.6	251	2
2023-09-06T00:00	2623	752	11.6	-2.2	262	3
2023-09-06T00:00	2646	750	11.5	-2.8	274	3
2023-09-06T00:00	2668	748	11.5	-5.9	282	3
2023-09-06T00:00	2689	746	11.4	-5.7	285	4
2023-09-06T00:00	2724	744	11.2	-2.7	283	4
2023-09-06T00:00	2745	741	11.0	-3.1	278	4
2023-09-06T00:00	2766	739	10.7	-1.2	272	4
2023-09-06T00:00	2795	737	10.4	-0.8	268	4
2023-09-06T00:00	2815	735	10.3	-0.7	266	4
2023-09-06T00:00	2835	733	10.2	-0.9	265	3
2023-09-06T00:00	2867	731	10.0	-1.4	267	3
2023-09-06T00:00	2895	728	9.7	-1.9	271	3
2023-09-06T00:00	2919	726	9.6	-2.0	280	2
2023-09-06T00:00	2942	724	9.5	-3.3	291	2
2023-09-06T00:00	2960	722	9.5	-4.2	302	3
2023-09-06T00:00	2984	720	9.6	-7.2	313	2
2023-09-06T00:00	3014	718	9.5	-7.4	327	2
2023-09-06T00:00	3042	715	9.5	-7.7	345	2
2023-09-06T00:00	3071	713	9.9	-20.5	7	2
2023-09-06T00:00	3090	711	9.9	-21.4	22	2
2023-09-06T00:00	3113	709	9.7	-22.4	27	2
2023-09-06T00:00	3137	707	9.7	-22.3	24	2
2023-09-06T00:00	3163	705	9.8	-22.2	19	2
2023-09-06T00:00	3189	703	9.8	-22.5	14	2
2023-09-06T00:00	3221	700	9.9	-26.6	8	3
2023-09-06T00:00	3247	698	10.0	-28.0	2	3
2023-09-06T00:00	3267	696	9.9	-31.0	358	3
2023-09-06T00:00	3298	694	9.9	-27.1	357	3
2023-09-06T00:00	3318	692	10.0	-18.8	0	3
2023-09-06T00:00	3341	690	9.8	-15.0	6	3
2023-09-06T00:00	3363	688	9.7	-16.7	13	4
2023-09-06T00:00	3393	686	9.5	-18.5	20	4
2023-09-06T00:00	3415	684	9.3	-18.9	25	4
2023-09-06T00:00	3432	682	9.2	-19.0	28	5
2023-09-06T00:00	3453	681	9.1	-19.5	29	5
2023-09-06T00:00	3477	679	9.0	-19.3	29	6
2023-09-06T00:00	3503	677	8.8	-17.0	27	6
2023-09-06T00:00	3528	675	8.6	-16.6	23	7
2023-09-06T00:00	3556	673	8.3	-15.5	19	7
2023-09-06T00:00	3575	671	8.1	-15.1	15	7
2023-09-06T00:00	3600	669	7.9	-15.4	11	7
2023-09-06T00:00	3624	667	7.8	-15.7	8	7
2023-09-06T00:00	3655	664	7.6	-16.2	5	7
2023-09-06T00:00	3680	662	7.4	-16.4	3	7
2023-09-06T00:00	3704	660	7.3	-16.7	360	7
2023-09-06T00:00	3733	658	7.1	-16.9	357	7
2023-09-06T00:00	3755	656	7.0	-17.4	355	7
2023-09-06T00:00	3774	655	6.9	-17.6	353	7
2023-09-06T00:00	3796	653	6.8	-17.8	351	7
2023-09-06T00:00	3824	651	6.8	-18.2	348	6
2023-09-06T00:00	3850	649	6.7	-18.2	346	6
2023-09-06T00:00	3875	647	6.6	-17.9	346	6
2023-09-06T00:00	3890	646	6.6	-17.6	347	6
2023-09-06T00:00	3906	644	6.4	-17.4	352	6
2023-09-06T00:00	3926	643	6.3	-17.3	360	6
2023-09-06T00:00	3952	641	6.2	-17.5	7	6
2023-09-06T00:00	3985	638	5.9	-18.1	13	6
2023-09-06T00:00	4008	636	5.8	-18.6	16	6
2023-09-06T00:00	4029	635	5.6	-18.3	15	6
2023-09-06T00:00	4055	633	5.5	-17.0	13	6
2023-09-06T00:00	4084	630	5.1	-14.5	11	6
2023-09-06T00:00	4111	628	4.9	-14.4	8	7
2023-09-06T00:00	4131	627	4.7	-14.5	7	7
2023-09-06T00:00	4150	625	4.5	-14.5	7	8
2023-09-06T00:00	4170	624	4.3	-14.4	7	8
2023-09-06T00:00	4202	621	4.1	-14.5	8	8
2023-09-06T00:00	4231	619	3.8	-15.0	9	8
2023-09-06T00:00	4256	617	3.6	-15.1	11	8
2023-09-06T00:00	4273	616	3.4	-14.3	11	8
2023-09-06T00:00	4295	614	3.2	-14.0	9	8
2023-09-06T00:00	4325	612	3.0	-13.0	4	8
2023-09-06T00:00	4351	610	2.8	-13.4	359	9
2023-09-06T00:00	4370	609	2.7	-12.7	354	9
2023-09-06T00:00	4384	607	2.7	-12.3	351	9
2023-09-06T00:00	4406	606	2.6	-13.0	349	9
2023-09-06T00:00	4440	603	2.5	-14.8	348	8
2023-09-06T00:00	4468	601	2.3	-15.4	346	8
2023-09-06T00:00	4490	600	2.2	-16.4	342	8
2023-09-06T00:00	4511	598	2.1		337	8
2023-09-06T00:00	4534	596	2.0	-17.1	331	9
2023-09-06T00:00	4561	594	1.9	-16.2	327	10
2023-09-06T00:00	4590	592	1.7	-16.3	325	10
2023-09-06T00:00	4614	590	1.6	-18.7	325	10
2023-09-06T00:00	4630	589	1.5	-17.7	326	10
2023-09-06T00:00	4650	588	1.4	-20.1	326	10
2023-09-06T00:00	4670	586	1.3	-23.5	326	10
2023-09-06T00:00	4702	584	1.2	-22.2	325	10
2023-09-06T00:00	4721	583	1.1	-23.4	323	10
2023-09-06T00:00	4745	581	1.0	-22.0	321	10
2023-09-06T00:00	4769	579	1.0	-27.5	320	10
2023-09-06T00:00	4793	577	0.8	-19.8	319	9
2023-09-06T00:00	4820	576	0.6	-18.4	319	9
2023-09-06T00:00	4844	574	0.5	-19.5	320	9
2023-09-06T00:00	4874	572	0.4	-20.9	320	9
2023-09-06T00:00	4906	570	0.2	-21.6	321	8
2023-09-06T00:00	4927	568	0.1	-22.2	321	8
2023-09-06T00:00	4943	567	0.0	-22.0	323	8
2023-09-06T00:00	4961	566	-0.2	-21.9	324	8
2023-09-06T00:00	4978	564	-0.3	-21.9	325	8
2023-09-06T00:00	4998	563	-0.5	-22.3	325	8
2023-09-06T00:00	5022	561	-0.6	-22.4	326	8
2023-09-06T00:00	5053	559	-0.9	-22.6	325	8
2023-09-06T00:00	5076	557	-1.1	-23.1	325	9
2023-09-06T00:00	5103	556	-1.3	-22.8	326	9
2023-09-06T00:00	5128	554	-1.5	-22.7	326	9
2023-09-06T00:00	5149	552	-1.6	-22.5	327	9
2023-09-06T00:00	5175	550	-1.8	-22.2	327	8
2023-09-06T00:00	5204	549	-2.1	-22.1	329	8
2023-09-06T00:00	5227	547	-2.3	-22.0	330	8
2023-09-06T00:00	5243	546	-2.4	-22.0	332	7
2023-09-06T00:00	5264	544	-2.6	-21.8	332	8
2023-09-06T00:00	5289	543	-2.8	-21.6	332	8
2023-09-06T00:00	5323	541	-3.0	-21.9	331	9
2023-09-06T00:00	5343	539	-3.1	-23.5	330	9
2023-09-06T00:00	5362	538	-3.3	-24.8	329	9
2023-09-06T00:00	5386	536	-3.4	-25.0	327	8
2023-09-06T00:00	5420	534	-3.7	-25.7	325	8
2023-09-06T00:00	5438	533	-3.8	-25.7	324	8
2023-09-06T00:00	5457	531	-4.0	-25.8	323	8
2023-09-06T00:00	5475	530	-4.2	-25.9	323	8
2023-09-06T00:00	5498	528	-4.4	-25.9	324	9
2023-09-06T00:00	5530	526	-4.7	-25.8	325	9
2023-09-06T00:00	5556	525	-4.9	-26.2	327	9
2023-09-06T00:00	5581	523	-5.0	-26.8	328	9
2023-09-06T00:00	5604	521	-5.1	-26.0	330	10
2023-09-06T00:00	5631	519	-5.3		331	10
2023-09-06T00:00	5668	517	-5.6	-23.6	332	10
2023-09-06T00:00	5699	515	-5.8	-24.2	333	10
2023-09-06T00:00	5720	514	-6.1	-24.1	333	10
2023-09-06T00:00	5740	512	-6.2	-24.6	334	10
2023-09-06T00:00	5760	511	-6.3	-26.1	335	11
2023-09-06T00:00	5775	510	-6.5	-27.1	335	11
2023-09-06T00:00	5792	509	-6.6	-27.9	334	11
2023-09-06T00:00	5817	507	-6.7	-29.9	334	11
2023-09-06T00:00	5845	506	-6.9	-29.7	333	10
2023-09-06T00:00	5862	505	-7.0	-29.7	332	10
2023-09-06T00:00	5882	503	-7.1	-29.6	332	11
2023-09-06T00:00	5902	502	-7.3	-29.7	333	11
2023-09-06T00:00	5925	500	-7.4	-30.0	334	11
2023-09-06T00:00	5956	498	-7.7	-30.8	335	11
2023-09-06T00:00	5985	497	-7.8	-31.1	336	12
2023-09-06T00:00	6013	495	-8.0	-31.1	336	12
2023-09-06T00:00	6047	493	-8.3	-31.6	335	12
2023-09-06T00:00	6072	491	-8.4	-31.8	333	12
2023-09-06T00:00	6105	489	-8.5	-32.8	332	13
2023-09-06T00:00	6126	488	-8.6	-33.2	331	13
2023-09-06T00:00	6154	486	-8.7	-32.6	332	13
2023-09-06T00:00	6186	484	-8.9	-31.1	334	14
2023-09-06T00:00	6205	483	-9.0	-30.5	336	14
2023-09-06T00:00	6235	481	-9.3	-30.1	339	14
2023-09-06T00:00	6269	479	-9.5	-30.2	340	14
2023-09-06T00:00	6304	477	-9.8	-30.7	340	14
2023-09-06T00:00	6322	475	-9.9	-30.7	338	14
2023-09-06T00:00	6341	474	-10.1	-30.0	336	14
2023-09-06T00:00	6357	473	-10.2	-30.3	334	14
2023-09-06T00:00	6377	472	-10.4	-31.1	332	14
2023-09-06T00:00	6393	471	-10.5	-31.3	331	13
2023-09-06T00:00	6414	470	-10.6	-28.4	331	13
2023-09-06T00:00	6433	469	-10.8	-26.2	331	13
2023-09-06T00:00	6449	468	-10.9	-24.3	331	13
2023-09-06T00:00	6468	466	-11.1	-24.5	331	13
2023-09-06T00:00	6486	465	-11.3	-24.2	330	13
2023-09-06T00:00	6508	464	-11.5	-23.6	330	13
2023-09-06T00:00	6525	463	-11.6	-24.0	330	13
2023-09-06T00:00	6544	462	-11.8	-24.8	330	13
2023-09-06T00:00	6564	461	-12.0	-25.5	331	13
2023-09-06T00:00	6586	459	-12.1	-25.9	331	13
2023-09-06T00:00	6615	458	-12.3	-27.7	331	13
2023-09-06T00:00	6644	456	-12.5		331	13
2023-09-06T00:00	6669	454	-12.7	-29.9	330	13
2023-09-06T00:00	6697	453	-12.8	-31.4	329	12
2023-09-06T00:00	6725	451	-13.0	-31.3	327	11
2023-09-06T00:00	6762	449	-13.3	-29.5	325	11
2023-09-06T00:00	6783	448	-13.6	-28.5	324	11
2023-09-06T00:00	6801	447	-13.7	-28.8	323	11
2023-09-06T00:00	6822	445	-13.9	-29.6	323	11
2023-09-06T00:00	6844	444	-14.0	-27.8	324	12
2023-09-06T00:00	6869	443	-14.3	-23.4	324	12
2023-09-06T00:00	6897	441	-14.6	-23.1	324	12
2023-09-06T00:00	6925	439	-14.9	-22.8	324	12
2023-09-06T00:00	6956	438	-15.1	-23.4	324	13
2023-09-06T00:00	6985	436	-15.3	-23.3	323	13
2023-09-06T00:00	7013	434	-15.5	-23.3	323	13
2023-09-06T00:00	7048	432	-15.8	-23.5	322	14
2023-09-06T00:00	7079	431	-16.1	-23.5	321	14
2023-09-06T00:00	7109	429	-16.3	-23.5	321	14
2023-09-06T00:00	7141	427	-16.5	-23.8	322	14
2023-09-06T00:00	7169	425	-16.7	-23.7	323	14
2023-09-06T00:00	7195	424	-17.0	-23.7	323	14
2023-09-06T00:00	7218	423	-17.2	-23.8	323	14
2023-09-06T00:00	7246	421	-17.4	-23.8	322	14
2023-09-06T00:00	7273	419	-17.5	-23.9	321	13
2023-09-06T00:00	7300	418	-17.7	-24.0	321	13
2023-09-06T00:00	7329	416	-17.9	-24.0	321	13
2023-09-06T00:00	7355	415	-18.1	-24.1	322	13
2023-09-06T00:00	7385	413	-18.3	-24.3	323	13
2023-09-06T00:00	7410	412	-18.5	-25.1	324	13
2023-09-06T00:00	7430	411	-18.6	-25.3	326	13
2023-09-06T00:00	7450	410	-18.8	-25.8	328	13
2023-09-06T00:00	7478	408	-18.9	-26.4	330	13
2023-09-06T00:00	7506	407	-19.1	-27.5	332	13
2023-09-06T00:00	7532	405	-19.3	-29.9	334	13
2023-09-06T00:00	7567	403	-19.4	-31.8	335	14
2023-09-06T00:00	7600	401	-19.6	-31.9	336	14
2023-09-06T00:00	7634	400	-19.9	-33.5	337	14
2023-09-06T00:00	7663	398	-20.1	-33.2	338	14
2023-09-06T00:00	7682	397	-20.3	-32.7	339	15
2023-09-06T00:00	7700	396	-20.4	-32.5	340	15
2023-09-06T00:00	7718	395	-20.6	-32.4	340	15
2023-09-06T00:00	7743	394	-20.8	-31.4	340	15
2023-09-06T00:00	7769	392	-21.0	-31.5	340	15
2023-09-06T00:00	7798	391	-21.3	-31.4	340	15
2023-09-06T00:00	7825	390	-21.5	-30.5	339	15
2023-09-06T00:00	7842	389	-21.6	-30.2	337	14
2023-09-06T00:00	7859	388	-21.7	-30.3	335	14
2023-09-06T00:00	7874	387	-21.8	-30.2	333	14
2023-09-06T00:00	7891	386	-21.9	-30.5	332	14
2023-09-06T00:00	7909	385	-22.1	-30.6	331	14
2023-09-06T00:00	7926	384	-22.2	-30.4	331	13
2023-09-06T00:00	7945	383	-22.4	-30.2	331	13
2023-09-06T00:00	7961	382	-22.5	-30.5	331	13
2023-09-06T00:00	7979	381	-22.7	-31.3	332	13
2023-09-06T00:00	7997	380	-22.8	-31.6	332	13
2023-09-06T00:00	8018	379	-22.9	-32.2	333	13
2023-09-06T00:00	8036	378	-23.0	-32.9	334	13
2023-09-06T00:00	8055	377	-23.2	-33.3	335	13
2023-09-06T00:00	8073	376	-23.3	-33.7	335	13
2023-09-06T00:00	8094	375	-23.5	-34.0	336	13
2023-09-06T00:00	8113	374	-23.6	-34.0	336	13
2023-09-06T00:00	8131	373	-23.8	-34.1	337	12
2023-09-06T00:00	8153	372	-24.0	-34.5	337	12
2023-09-06T00:00	8177	371	-24.2	-35.8	337	11
2023-09-06T00:00	8203	370	-24.3	-38.6	337	11
2023-09-06T00:00	8228	369	-24.4	-40.3	336	11
2023-09-06T00:00	8254	367	-24.4	-42.3	336	10
2023-09-06T00:00	8282	366	-24.6	-42.7	336	10
2023-09-06T00:00	8312	364	-24.8	-44.4	336	10
2023-09-06T00:00	8351	362	-25.1	-45.9	336	10
2023-09-06T00:00	8381	361	-25.3	-46.5	336	11
2023-09-06T00:00	8398	360	-25.5	-46.2	335	11
2023-09-06T00:00	8416	359	-25.6	-46.0	334	11
2023-09-06T00:00	8435	358	-25.8	-45.7	334	11
2023-09-06T00:00	8453	357	-26.0	-45.8	334	10
2023-09-06T00:00	8473	356	-26.1	-46.1	335	10
2023-09-06T00:00	8494	355	-26.2	-47.9	336	10
2023-09-06T00:00	8516	354	-26.3	-48.7	337	10
2023-09-06T00:00	8538	353	-26.5	-48.7	338	10
2023-09-06T00:00	8562	352	-26.6	-48.6	339	10
2023-09-06T00:00	8584	351	-26.9	-48.7	339	10
2023-09-06T00:00	8607	350	-27.1	-48.9	339	10
2023-09-06T00:00	8628	349	-27.2	-49.1	339	10
2023-09-06T00:00	8651	348	-27.3	-49.5	338	10
2023-09-06T00:00	8673	347	-27.5	-49.9	336	10
2023-09-06T00:00	8697	346	-27.6	-50.1	334	10
2023-09-06T00:00	8721	344	-27.8	-50.0	332	10
2023-09-06T00:00	8751	343	-28.0	-50.4	331	10
2023-09-06T00:00	8782	341	-28.2	-50.8	330	10
2023-09-06T00:00	8808	340	-28.3	-51.2	330	10
2023-09-06T00:00	8835	339	-28.4	-51.6	331	10
2023-09-06T00:00	8859	338	-28.6	-51.4	331	10
2023-09-06T00:00	8883	337	-28.8	-51.1	332	10
2023-09-06T00:00	8909	335	-29.0	-51.1	332	10
2023-09-06T00:00	8933	334	-29.2	-50.8	332	10
2023-09-06T00:00	8957	333	-29.5	-51.6	333	10
2023-09-06T00:00	8979	332	-29.6	-50.8	333	11
2023-09-06T00:00	9006	331	-29.7	-47.9	334	11
2023-09-06T00:00	9035	330	-29.9	-46.9	334	12
2023-09-06T00:00	9060	328	-30.1	-46.3	336	12
2023-09-06T00:00	9082	327	-30.3	-46.2	337	12
2023-09-06T00:00	9099	327	-30.4	-45.5	339	12
2023-09-06T00:00	9121	326	-30.6	-45.6	341	12
2023-09-06T00:00	9140	325	-30.7	-45.7	343	12
2023-09-06T00:00	9169	323	-31.0	-46.0	344	12
2023-09-06T00:00	9196	322	-31.2	-47.5	345	12
2023-09-06T00:00	9224	321	-31.4	-48.3	345	12
2023-09-06T00:00	9250	320	-31.6	-48.5	346	13
2023-09-06T00:00	9277	319	-31.9	-49.8	346	13
2023-09-06T00:00	9298	318	-32.0	-51.4	346	13
2023-09-06T00:00	9323	316	-32.3	-52.7	346	13
2023-09-06T00:00	9350	315	-32.5	-53.2	346	13
2023-09-06T00:00	9375	314	-32.7	-53.6	345	13
2023-09-06T00:00	9404	313	-32.9	-53.0	344	13
2023-09-06T00:00	9430	312	-33.0	-53.2	344	14
2023-09-06T00:00	9454	311	-33.1	-52.5	343	14
2023-09-06T00:00	9477	310	-33.2	-50.6	343	14
2023-09-06T00:00	9498	309	-33.4	-49.1	342	15
2023-09-06T00:00	9518	308	-33.5	-47.0	342	15
2023-09-06T00:00	9537	307	-33.7	-46.1	341	15
2023-09-06T00:00	9557	306	-33.8	-45.1	340	15
2023-09-06T00:00	9576	305	-33.9	-44.6	340	15
2023-09-06T00:00	9596	304	-34.1	-43.8	340	15
2023-09-06T00:00	9617	303	-34.2	-43.4	340	15
2023-09-06T00:00	9636	303	-34.4	-43.6	341	16
2023-09-06T00:00	9655	302	-34.5	-42.8	341	16
2023-09-06T00:00	9674	301	-34.6	-41.2	341	16
2023-09-06T00:00	9694	300	-34.7	-40.5	342	16
2023-09-06T00:00	9711	299	-34.8	-41.1	342	17
2023-09-06T00:00	9729	299	-34.9	-40.7	342	17
2023-09-06T00:00	9747	298	-35.0	-40.2	342	17
2023-09-06T00:00	9766	297	-35.1	-41.1	342	17
2023-09-06T00:00	9785	296	-35.2	-41.4	342	17
2023-09-06T00:00	9805	295	-35.4	-41.3	342	17
2023-09-06T00:00	9822	295	-35.5	-41.1	342	17
2023-09-06T00:00	9843	294	-35.7	-41.1	342	17
2023-09-06T00:00	9866	293	-35.9	-41.1	342	17
2023-09-06T00:00	9886	292	-36.1	-40.8	341	17
2023-09-06T00:00	9905	291	-36.2	-41.1	340	17
2023-09-06T00:00	9924	290	-36.4	-41.6	338	17
2023-09-06T00:00	9942	290	-36.6	-42.1	337	17
2023-09-06T00:00	9960	289	-36.7	-42.1	336	17
2023-09-06T00:00	9977	288	-36.9	-42.1	336	17
2023-09-06T00:00	9997	287	-37.0	-42.5	337	17
2023-09-06T00:00	10016	287	-37.2	-43.0	337	17
2023-09-06T00:00	10036	286	-37.3	-42.9	337	17
2023-09-06T00:00	10052	285	-37.4	-42.7	338	17
2023-09-06T00:00	10072	284	-37.6	-42.6	338	17
2023-09-06T00:00	10089	284	-37.8	-42.5	338	17
2023-09-06T00:00	10107	283	-37.9	-42.6	338	17
2023-09-06T00:00	10125	282	-38.1	-42.7	338	17
2023-09-06T00:00	10144	281	-38.3	-42.8	338	17
2023-09-06T00:00	10163	280	-38.5	-42.9	338	17
2023-09-06T00:00	10182	280	-38.6	-42.9	338	17
2023-09-06T00:00	10201	279	-38.8	-43.0	338	17
2023-09-06T00:00	10222	278	-39.0	-43.2	338	17
2023-09-06T00:00	10242	277	-39.2	-43.9	338	17
2023-09-06T00:00	10261	276	-39.3	-44.4	338	17
2023-09-06T00:00	10282	276	-39.5	-44.3	337	16
2023-09-06T00:00	10303	275	-39.7	-44.3	336	16
2023-09-06T00:00	10322	274	-39.8	-44.4	336	16
2023-09-06T00:00	10340	273	-40.0	-44.4	336	16
2023-09-06T00:00	10361	272	-40.2	-44.3	336	17
2023-09-06T00:00	10381	272	-40.3	-44.2	336	17
2023-09-06T00:00	10401	271	-40.5	-44.3	336	17
2023-09-06T00:00	10420	270	-40.6	-45.0	337	17
2023-09-06T00:00	10440	269	-40.6	-45.3	337	17
2023-09-06T00:00	10458	269	-40.8	-45.5	337	17
2023-09-06T00:00	10475	268	-40.9	-45.4	337	17
2023-09-06T00:00	10497	267	-41.0	-46.3	338	17
2023-09-06T00:00	10514	266	-41.1	-46.5	338	17
2023-09-06T00:00	10533	266	-41.1	-47.4	338	17
2023-09-06T00:00	10550	265	-41.2	-48.0	339	17
2023-09-06T00:00	10568	264	-41.3	-47.8	339	17
2023-09-06T00:00	10587	264	-41.5	-48.3	339	17
2023-09-06T00:00	10607	263	-41.6	-49.2	339	17
2023-09-06T00:00	10626	262	-41.7	-48.6	339	17
2023-09-06T00:00	10646	261	-41.9	-48.1	339	17
2023-09-06T00:00	10666	261	-42.1	-48.2	339	17
2023-09-06T00:00	10686	260	-42.3	-48.6	340	17
2023-09-06T00:00	10704	259	-42.4	-49.0	340	17
2023-09-06T00:00	10723	258	-42.6	-48.9	341	17
2023-09-06T00:00	10741	258	-42.8	-49.1	342	17
2023-09-06T00:00	10762	257	-42.9	-49.4	342	17
2023-09-06T00:00	10782	256	-43.1	-49.6	343	17
2023-09-06T00:00	10802	255	-43.3	-49.7	343	17
2023-09-06T00:00	10822	255	-43.4	-50.3	343	17
2023-09-06T00:00	10842	254	-43.6	-52.0	344	17
2023-09-06T00:00	10858	253	-43.7	-51.8	343	17
2023-09-06T00:00	10879	252	-43.9	-50.8	343	17
2023-09-06T00:00	10896	252	-44.1	-51.1	342	17
2023-09-06T00:00	10916	251	-44.3	-51.6	342	17
2023-09-06T00:00	10935	250	-44.4	-51.0	342	17
2023-09-06T00:00	10955	250	-44.6	-50.5	341	17
2023-09-06T00:00	10974	249	-44.8	-50.0	341	17
2023-09-06T00:00	10991	248	-44.9	-49.5	342	17
2023-09-06T00:00	11009	248	-45.1	-49.7	342	17
2023-09-06T00:00	11027	247	-45.2	-50.0	342	17
2023-09-06T00:00	11047	246	-45.4	-50.2	342	17
2023-09-06T00:00	11066	245	-45.6	-50.6	342	17
2023-09-06T00:00	11086	245	-45.7	-51.2	342	17
2023-09-06T00:00	11104	244	-45.9	-51.8	342	17
2023-09-06T00:00	11123	243	-46.0	-52.4	342	16
2023-09-06T00:00	11143	243	-46.1	-53.3	342	16
2023-09-06T00:00	11161	242	-46.3	-53.6	341	16
2023-09-06T00:00	11180	241	-46.4	-53.7	340	16
2023-09-06T00:00	11201	241	-46.6	-54.4	339	16
2023-09-06T00:00	11219	240	-46.7	-54.9	338	16
2023-09-06T00:00	11240	239	-46.9	-55.1	337	16
2023-09-06T00:00	11259	238	-47.0	-55.3	336	16
2023-09-06T00:00	11278	238	-47.2	-55.9	336	16
2023-09-06T00:00	11299	237	-47.3	-56.7	335	15
2023-09-06T00:00	11320	236	-47.5	-58.0	335	15
2023-09-06T00:00	11340	236	-47.6	-59.4	334	15
2023-09-06T00:00	11361	235	-47.6	-60.2	334	15
2023-09-06T00:00	11382	234	-47.6	-59.8	334	15
2023-09-06T00:00	11401	233	-47.6	-58.0	335	15
2023-09-06T00:00	11422	233	-47.7	-56.6	335	15
2023-09-06T00:00	11442	232	-47.8	-56.9	336	15
2023-09-06T00:00	11462	231	-47.8	-57.7	336	15
2023-09-06T00:00	11481	231	-47.9	-57.3	337	15
2023-09-06T00:00	11504	230	-48.1	-57.0	338	15
2023-09-06T00:00	11525	229	-48.2	-57.3	338	15
2023-09-06T00:00	11546	228	-48.1	-58.0	339	15
2023-09-06T00:00	11565	228	-48.2	-59.5	339	15
2023-09-06T00:00	11587	227	-48.3	-59.9	339	15
2023-09-06T00:00	11605	226	-48.4	-59.2	339	15
2023-09-06T00:00	11625	226	-48.6	-58.6	338	15
2023-09-06T00:00	11644	225	-48.8	-58.4	338	16
2023-09-06T00:00	11664	224	-49.0	-58.3	338	16
2023-09-06T00:00	11682	224	-49.1	-58.2	338	16
2023-09-06T00:00	11704	223	-49.3	-57.9	338	16
2023-09-06T00:00	11725	222	-49.5	-57.4	338	16
2023-09-06T00:00	11745	221	-49.6	-57.5	338	16
2023-09-06T00:00	11768	221	-49.7	-58.2	337	16
2023-09-06T00:00	11783	220	-49.9	-59.0	336	16
2023-09-06T00:00	11805	219	-50.0	-59.0	335	16
2023-09-06T00:00	11826	219	-50.1	-58.9	334	16
2023-09-06T00:00	11844	218	-50.3	-60.7	333	16
2023-09-06T00:00	11865	217	-50.5	-65.2	332	16
2023-09-06T00:00	11885	217	-50.6	-68.5	332	16
2023-09-06T00:00	11905	216	-50.7	-67.7	332	16
2023-09-06T00:00	11925	215	-50.9	-66.8	332	16
2023-09-06T00:00	11944	215	-51.0	-66.2	332	16
2023-09-06T00:00	11962	214	-51.2	-65.9	332	16
2023-09-06T00:00	11982	214	-51.4	-65.5	331	16
2023-09-06T00:00	12000	213	-51.5	-64.9	331	16
2023-09-06T00:00	12022	212	-51.6	-64.5	331	16
2023-09-06T00:00	12042	212	-51.8	-64.5	330	16
2023-09-06T00:00	12065	211	-51.9	-64.6	330	17
2023-09-06T00:00	12081	210	-52.0	-65.2	330	17
2023-09-06T00:00	12102	210	-52.0	-66.0	329	17
2023-09-06T00:00	12122	209	-52.1	-66.7	329	17
2023-09-06T00:00	12142	208	-52.2	-66.7	330	18
2023-09-06T00:00	12162	208	-52.4	-66.8	330	18
2023-09-06T00:00	12183	207	-52.5	-67.0	330	18
2023-09-06T00:00	12203	206	-52.7	-67.2	331	18
2023-09-06T00:00	12222	206	-52.7	-67.2	331	19
2023-09-06T00:00	12242	205	-52.8	-67.2	331	19
2023-09-06T00:00	12262	205	-52.9	-67.3	331	19
2023-09-06T00:00	12283	204	-53.0	-67.4	331	19
2023-09-06T00:00	12303	203	-53.2	-67.6	331	19
2023-09-06T00:00	12323	203	-53.3	-67.7	331	20
2023-09-06T00:00	12343	202	-53.4	-67.7	332	20
2023-09-06T00:00	12365	201	-53.6	-67.7	332	20
2023-09-06T00:00	12383	201	-53.8	-67.7	332	20
2023-09-06T00:00	12403	200	-53.9	-67.7	332	20
2023-09-06T00:00	12421	199	-54.1	-67.8	332	20
2023-09-06T00:00	12443	199	-54.2	-67.8	332	20
2023-09-06T00:00	12463	198	-54.4	-67.8	332	20
2023-09-06T00:00	12482	198	-54.5	-67.7	331	20
2023-09-06T00:00	12502	197	-54.6	-67.6	331	19
2023-09-06T00:00	12520	196	-54.8	-67.7	332	19
2023-09-06T00:00	12543	196	-54.9	-67.8	332	19
2023-09-06T00:00	12566	195	-55.1	-67.9	332	19
2023-09-06T00:00	12586	194	-55.3	-68.0	332	19
2023-09-06T00:00	12606	194	-55.4	-68.1	332	19
2023-09-06T00:00	12628	193	-55.4	-68.2	332	18
2023-09-06T00:00	12649	193	-55.5	-68.4	333	18
2023-09-06T00:00	12671	192	-55.7	-68.5	333	18
2023-09-06T00:00	12689	191	-55.8	-68.0	333	18
2023-09-06T00:00	12711	191	-55.9	-67.2	334	18
2023-09-06T00:00	12733	190	-56.0	-66.4	334	18
2023-09-06T00:00	12755	189	-56.2	-66.2	334	18
2023-09-06T00:00	12775	189	-56.4	-66.4	333	18
2023-09-06T00:00	12796	188	-56.6	-67.0	333	18
2023-09-06T00:00	12817	188	-56.8	-67.9	333	18
2023-09-06T00:00	12840	187	-57.0	-68.8	333	19
2023-09-06T00:00	12861	186	-57.0	-69.0	333	19
2023-09-06T00:00	12879	186	-57.2	-68.4	333	19
2023-09-06T00:00	12902	185	-57.3	-67.2	334	19
2023-09-06T00:00	12924	184	-57.4	-66.0	334	20
2023-09-06T00:00	12945	184	-57.5	-65.4	335	20
2023-09-06T00:00	12967	183	-57.6	-65.4	335	20
2023-09-06T00:00	12987	183	-57.8	-65.7	335	20
2023-09-06T00:00	13008	182	-58.0	-65.8	334	20
2023-09-06T00:00	13030	181	-58.2	-65.9	334	20
2023-09-06T00:00	13050	181	-58.4	-66.1	333	21
2023-09-06T00:00	13074	180	-58.6	-66.2	332	21
2023-09-06T00:00	13098	179	-58.8	-66.4	332	21
2023-09-06T00:00	13117	179	-59.0	-66.6	331	21
2023-09-06T00:00	13138	178	-59.2	-66.8	331	21
2023-09-06T00:00	13160	178	-59.3	-66.9	331	21
2023-09-06T00:00	13181	177	-59.4	-66.8	332	21
2023-09-06T00:00	13201	176	-59.6	-66.8	332	22
2023-09-06T00:00	13222	176	-59.7	-66.9	332	22
2023-09-06T00:00	13241	175	-59.9	-67.3	332	22
2023-09-06T00:00	13260	175	-60.0	-67.8	332	22
2023-09-06T00:00	13281	174	-60.1	-68.2	332	22
2023-09-06T00:00	13304	174	-60.3	-68.7	332	22
2023-09-06T00:00	13324	173	-60.5	-69.1	332	23
2023-09-06T00:00	13344	172	-60.6	-69.3	332	23
2023-09-06T00:00	13364	172	-60.6	-69.3	332	23
2023-09-06T00:00	13385	171	-60.8	-69.5	332	23
2023-09-06T00:00	13406	171	-60.9	-69.6	332	23
2023-09-06T00:00	13426	170	-61.1	-69.7	332	23
2023-09-06T00:00	13445	170	-61.2	-69.5	332	22
2023-09-06T00:00	13466	169	-61.3	-68.9	332	22
2023-09-06T00:00	13485	169	-61.4	-68.2	332	21
2023-09-06T00:00	13508	168	-61.6	-67.6	331	21
2023-09-06T00:00	13529	167	-61.8	-67.2	331	20
2023-09-06T00:00	13550	167	-62.0	-67.0	331	20
2023-09-06T00:00	13568	166	-62.1	-66.9	331	20
2023-09-06T00:00	13586	166	-62.1	-67.0	331	20
2023-09-06T00:00	13608	165	-62.2	-67.5	332	20
2023-09-06T00:00	13627	165	-62.2	-68.1	333	20
2023-09-06T00:00	13648	164	-62.0	-68.7	333	20
2023-09-06T00:00	13668	164	-62.1	-69.4	334	20
2023-09-06T00:00	13687	163	-62.1	-69.6	334	20
2023-09-06T00:00	13707	163	-62.2	-69.7	335	20
2023-09-06T00:00	13725	162	-62.4	-69.8	335	20
2023-09-06T00:00	13744	162	-62.5	-69.7	335	20
2023-09-06T00:00	13762	161	-62.7	-69.7	335	21
2023-09-06T00:00	13782	161	-62.8	-69.6	335	21
2023-09-06T00:00	13802	160	-63.0	-69.7	335	21
2023-09-06T00:00	13822	160	-63.2		335	21
2023-09-06T00:00	13842	159	-63.4	-69.8	335	21
2023-09-06T00:00	13861	159	-63.6	-69.8	335	21
2023-09-06T00:00	13882	158	-63.8	-69.9	336	21
2023-09-06T00:00	13904	158	-64.0	-70.0	336	21
2023-09-06T00:00	13923	157	-64.2	-70.0	336	21
2023-09-06T00:00	13945	156	-64.4	-69.9	337	21
2023-09-06T00:00	13967	156	-64.5	-69.7	337	21
2023-09-06T00:00	13987	155	-64.7	-69.6	338	22
2023-09-06T00:00	14009	155	-64.9	-69.6	339	22
2023-09-06T00:00	14031	154	-65.0	-69.6	339	22
2023-09-06T00:00	14050	154	-65.2	-69.8	340	22
2023-09-06T00:00	14072	153	-65.4	-70.0	340	22
2023-09-06T00:00	14093	153	-65.5		340	22
2023-09-06T00:00	14112	152	-65.7	-70.4	340	22
2023-09-06T00:00	14133	152	-65.8	-70.5	340	22
2023-09-06T00:00	14153	151	-65.9	-70.7	340	22
2023-09-06T00:00	14174	151	-65.9	-70.7	339	22
2023-09-06T00:00	14192	150	-66.0	-70.8	339	22
2023-09-06T00:00	14213	150	-66.1	-70.8	339	22
2023-09-06T00:00	14233	149	-66.3	-71.0	339	22
2023-09-06T00:00	14256	149	-66.4	-71.1	340	22
2023-09-06T00:00	14277	148	-66.6	-71.3	341	22
2023-09-06T00:00	14300	148	-66.8	-71.7	342	22
2023-09-06T00:00	14320	147	-66.9	-72.1	343	21
2023-09-06T00:00	14341	147	-67.1	-72.8	344	21
2023-09-06T00:00	14362	146	-67.1	-73.5	344	20
2023-09-06T00:00	14384	146	-66.9	-74.1	343	20
2023-09-06T00:00	14402	145	-66.9	-75.1	342	19
2023-09-06T00:00	14423	145	-66.9	-75.9	341	19
2023-09-06T00:00	14442	144	-66.6	-76.3	340	19
2023-09-06T00:00	14464	144	-66.6	-76.8	339	18
2023-09-06T00:00	14484	143	-66.5	-77.1	338	18
2023-09-06T00:00	14505	143	-66.3	-77.1	337	18
2023-09-06T00:00	14526	142	-66.3	-77.3	336	18
2023-09-06T00:00	14545	142	-66.4	-77.5	335	18
2023-09-06T00:00	14567	141	-66.4	-77.6	335	18
2023-09-06T00:00	14587	141	-66.4	-77.6	334	17
2023-09-06T00:00	14607	140	-66.6	-77.7	335	17
2023-09-06T00:00	14626	140	-66.7	-77.6	335	17
2023-09-06T00:00	14650	139	-66.9	-77.5	336	17
2023-09-06T00:00	14673	139	-66.9	-77.2	336	17
2023-09-06T00:00	14694	138	-66.9	-76.9	337	16
2023-09-06T00:00	14717	138	-67.0	-76.8	337	16
2023-09-06T00:00	14738	137	-67.2	-76.9	337	16
2023-09-06T00:00	14759	137	-67.3	-77.1	336	16
2023-09-06T00:00	14778	136	-67.4	-77.4	335	16
2023-09-06T00:00	14801	136	-67.5	-77.8	335	16
2023-09-06T00:00	14821	135	-67.4	-78.0	334	15
2023-09-06T00:00	14843	135	-67.3	-78.2	333	15
2023-09-06T00:00	14865	134	-67.3	-78.6	331	15
2023-09-06T00:00	14884	134	-67.3	-79.1	330	14
2023-09-06T00:00	14906	133	-67.4	-79.6	329	14
2023-09-06T00:00	14926	133	-67.2	-79.9	328	14
2023-09-06T00:00	14948	133	-66.9	-80.0	328	14
2023-09-06T00:00	14971	132	-66.8	-80.3	327	14
2023-09-06T00:00	14992	132	-66.8	-80.6	327	13
2023-09-06T00:00	15014	131	-66.7	-80.7	327	13
2023-09-06T00:00	15035	131	-66.8	-80.8	327	13
2023-09-06T00:00	15056	130	-66.9	-81.0	326	13
2023-09-06T00:00	15077	130	-67.1	-81.2	326	13
2023-09-06T00:00	15100	129	-67.2	-81.4	326	13
2023-09-06T00:00	15119	129	-67.0	-81.4	326	14
2023-09-06T00:00	15143	128	-66.9	-81.5	325	14
2023-09-06T00:00	15162	128	-66.8	-81.7	323	14
2023-09-06T00:00	15183	127	-66.8	-82.0	322	14
2023-09-06T00:00	15202	127	-66.7	-82.2	321	15
2023-09-06T00:00	15224	127	-66.7	-82.4	321	15
2023-09-06T00:00	15247	126	-66.5	-82.5	321	15
2023-09-06T00:00	15265	126	-66.4	-82.6	320	15
2023-09-06T00:00	15285	125	-66.4	-82.8	320	15
2023-09-06T00:00	15307	125	-66.4	-83.1	320	15
2023-09-06T00:00	15325	124	-65.9	-83.0	320	15
2023-09-06T00:00	15350	124	-65.4	-82.9	321	16
2023-09-06T00:00	15369	124	-65.2	-83.1	321	16
2023-09-06T00:00	15392	123	-65.0	-83.2	322	15
2023-09-06T00:00	15411	123	-65.0	-83.5	324	15
2023-09-06T00:00	15434	122	-64.8	-83.7	325	15
2023-09-06T00:00	15452	122	-64.5	-83.7	325	14
2023-09-06T00:00	15473	122	-64.3	-83.7	325	14
2023-09-06T00:00	15494	121	-64.3	-83.9	325	14
2023-09-06T00:00	15513	121	-64.0	-83.7	325	14
2023-09-06T00:00	15534	120	-63.8	-83.7	326	14
2023-09-06T00:00	15555	120	-63.9	-83.9	327	14
2023-09-06T00:00	15579	119	-64.0	-84.0	328	13
2023-09-06T00:00	15601	119	-64.0	-84.0	330	13
2023-09-06T00:00	15623	119	-64.1	-84.1	332	13
2023-09-06T00:00	15641	118	-64.1	-83.9	333	13
2023-09-06T00:00	15662	118	-64.2	-84.0	333	13
2023-09-06T00:00	15684	117	-64.4	-84.2	332	13
2023-09-06T00:00	15704	117	-64.5	-84.2	332	13
2023-09-06T00:00	15725	117	-64.6	-84.2	331	13
2023-09-06T00:00	15745	116	-64.6	-84.2	331	13
2023-09-06T00:00	15764	116	-64.8	-84.5	331	13
2023-09-06T00:00	15786	115	-64.7	-84.4	332	13
2023-09-06T00:00	15807	115	-64.6	-84.5	333	13
2023-09-06T00:00	15827	115	-64.6	-84.5	334	13
2023-09-06T00:00	15850	114	-64.6	-84.5	335	12
2023-09-06T00:00	15869	114	-64.6	-84.5	336	12
2023-09-06T00:00	15890	114	-64.6	-84.5	337	12
2023-09-06T00:00	15910	113	-64.7	-84.7	339	12
2023-09-06T00:00	15931	113	-64.6	-84.6	340	12
2023-09-06T00:00	15953	112	-64.5	-84.7	342	12
2023-09-06T00:00	15971	112	-64.4	-84.6	343	11
2023-09-06T00:00	15993	112	-64.4	-84.7	343	11
2023-09-06T00:00	16014	111	-64.5	-84.8	343	11
2023-09-06T00:00	16034	111	-64.6	-84.9	342	11
2023-09-06T00:00	16056	111	-64.6	-84.9	341	10
2023-09-06T00:00	16076	110	-64.7	-85.0	339	10
2023-09-06T00:00	16097	110	-64.8	-85.0	338	10
2023-09-06T00:00	16121	109	-64.7	-85.0	337	10
2023-09-06T00:00	16142	109	-64.7	-85.0	335	9
2023-09-06T00:00	16163	109	-64.6	-84.9	333	9
2023-09-06T00:00	16183	108	-64.8	-85.2	331	8
2023-09-06T00:00	16205	108	-64.9	-85.3	329	8
2023-09-06T00:00	16226	107	-64.9	-85.3	325	7
2023-09-06T00:00	16248	107	-64.9	-85.3	321	7
2023-09-06T00:00	16271	107	-64.6	-85.2	317	7
2023-09-06T00:00	16291	106	-64.6	-85.2	313	7
2023-09-06T00:00	16313	106	-64.7	-85.4	310	7
2023-09-06T00:00	16335	106	-64.6	-85.5	310	7
2023-09-06T00:00	16356	105	-64.4	-85.3	311	7
2023-09-06T00:00	16379	105	-64.5	-85.5	314	8
2023-09-06T00:00	16401	104	-64.4	-85.5	317	8
2023-09-06T00:00	16421	104	-64.4	-85.5	322	8
2023-09-06T00:00	16438	104	-64.5	-85.5	326	8
2023-09-06T00:00	16462	103	-64.5	-85.5	330	9
2023-09-06T00:00	16480	103	-64.5	-85.5	333	9
2023-09-06T00:00	16501	103	-64.5	-85.5	335	9
2023-09-06T00:00	16523	102	-64.3	-85.5	336	9
2023-09-06T00:00	16542	102	-64.3	-85.5	336	9
2023-09-06T00:00	16566	102	-64.2	-85.6	336	9
2023-09-06T00:00	16586	101	-64.0	-85.6	335	9
2023-09-06T00:00	16606	101	-63.7	-85.4	334	9
2023-09-06T00:00	16628	101	-63.7	-85.4	334	9
2023-09-06T00:00	16645	100	-63.9	-85.5	336	9
2023-09-06T00:00	16667	100	-64.0	-85.8	339	9
2023-09-06T00:00	16690	100	-63.8	-85.6	342	9
2023-09-06T00:00	16709	99	-63.7	-85.7	344	8
2023-09-06T00:00	16730	99	-63.5	-85.7	344	8
2023-09-06T00:00	16753	99	-63.2	-85.9	342	7
2023-09-06T00:00	16772	98	-63.0	-85.9	339	7
2023-09-06T00:00	16792	98	-62.8	-86.0	336	6
2023-09-06T00:00	16811	98	-62.6	-85.8	335	6
2023-09-06T00:00	16832	97	-62.7	-85.9	334	6
2023-09-06T00:00	16857	97	-62.9	-86.1	336	6
2023-09-06T00:00	16878	97	-63.1	-86.2	337	6
2023-09-06T00:00	16900	96	-62.9	-85.8	339	6
2023-09-06T00:00	16920	96	-63.0	-85.9	340	6
2023-09-06T00:00	16944	96	-63.2	-86.1	341	6
2023-09-06T00:00	16966	95	-63.3	-86.2	343	6
2023-09-06T00:00	16987	95	-63.4	-86.5	344	6
2023-09-06T00:00	17006	95	-63.5	-86.5	345	6
2023-09-06T00:00	17025	94	-62.9	-86.3	346	6
2023-09-06T00:00	17046	94	-62.6	-86.3	345	5
2023-09-06T00:00	17067	94	-62.7	-86.3	344	5
2023-09-06T00:00	17089	93	-62.7	-86.6	342	5
2023-09-06T00:00	17111	93	-62.5		339	5
2023-09-06T00:00	17135	93	-62.4	-86.3	336	5
2023-09-06T00:00	17160	92	-62.3	-86.3	335	6
2023-09-06T00:00	17177	92	-62.4	-86.3	334	6
2023-09-06T00:00	17199	92	-62.4	-86.3	333	6
2023-09-06T00:00	17220	91	-62.5		334	7
2023-09-06T00:00	17241	91	-62.5		335	7
2023-09-06T00:00	17263	91	-62.3	-86.5	336	6
2023-09-06T00:00	17282	90	-62.2	-86.7	338	6
2023-09-06T00:00	17304	90	-61.5	-86.1	341	6
2023-09-06T00:00	17325	90	-61.4	-86.3	346	5
2023-09-06T00:00	17345	90	-61.4	-86.3	352	5
2023-09-06T00:00	17369	89	-61.2	-86.4	359	5
2023-09-06T00:00	17388	89	-60.8	-86.1	4	4
2023-09-06T00:00	17410	89	-60.5	-85.9	7	4
2023-09-06T00:00	17428	88	-60.4	-86.1	7	4
2023-09-06T00:00	17453	88	-60.3	-85.7	6	4
2023-09-06T00:00	17472	88	-60.4	-85.8	5	4
2023-09-06T00:00	17495	87	-60.5	-85.9	5	3
2023-09-06T00:00	17516	87	-60.6	-86.0	4	3
2023-09-06T00:00	17536	87	-60.7	-85.8	1	3
2023-09-06T00:00	17557	87	-60.8	-85.8	357	3
2023-09-06T00:00	17582	86	-60.9	-85.9	352	3
2023-09-06T00:00	17600	86	-61.0	-86.0	346	3
2023-09-06T00:00	17623	86	-61.2	-86.2	340	3
2023-09-06T00:00	17643	85	-61.2	-86.2	337	3
2023-09-06T00:00	17663	85	-61.2	-86.2	334	3
2023-09-06T00:00	17685	85	-61.2	-86.2	333	3
2023-09-06T00:00	17703	85	-61.2	-86.2	333	4
2023-09-06T00:00	17727	84	-61.3	-86.2	334	4
2023-09-06T00:00	17749	84	-61.4	-86.3	336	4
2023-09-06T00:00	17769	84	-61.6	-86.5	337	4
2023-09-06T00:00	17790	83	-61.8	-86.4	338	5
2023-09-06T00:00	17813	83	-61.8	-86.4	338	5
2023-09-06T00:00	17833	83	-62.0	-86.5	337	6
2023-09-06T00:00	17855	82	-62.1	-86.6	335	6
2023-09-06T00:00	17879	82	-62.3	-86.7	334	6
2023-09-06T00:00	17901	82	-62.4	-86.8	332	6
2023-09-06T00:00	17922	82	-62.4	-86.8	331	5
2023-09-06T00:00	17941	81	-62.4	-86.8	331	5
2023-09-06T00:00	17964	81	-62.3	-87.0	334	4
2023-09-06T00:00	17986	81	-62.0	-86.8	340	3
2023-09-06T00:00	18006	80	-61.9	-86.7	349	3
2023-09-06T00:00	18034	80	-62.0	-86.8	3	2
2023-09-06T00:00	18054	80	-62.0	-87.1	17	2
2023-09-06T00:00	18078	80	-62.1	-87.1	25	1
2023-09-06T00:00	18098	79	-62.0	-87.1	22	1
2023-09-06T00:00	18121	79	-61.8	-87.2	2	1
2023-09-06T00:00	18143	79	-61.4	-86.9	336	1
2023-09-06T00:00	18168	78	-61.3	-86.8	321	2
2023-09-06T00:00	18187	78	-61.3	-86.8	313	2
2023-09-06T00:00	18211	78	-61.4	-86.9	310	2
2023-09-06T00:00	18233	78	-61.3	-86.8	307	3
2023-09-06T00:00	18256	77	-61.3	-86.8	303	3
2023-09-06T00:00	18278	77	-61.4	-86.9	298	3
2023-09-06T00:00	18298	77	-61.6	-87.0	293	3
2023-09-06T00:00	18324	76	-61.4	-86.9	290	3
2023-09-06T00:00	18345	76	-61.5	-86.7	290	3
2023-09-06T00:00	18371	76	-61.7	-86.8	293	2
2023-09-06T00:00	18391	76	-61.8	-86.9	298	2
2023-09-06T00:00	18413	75	-61.8	-87.2	303	2
2023-09-06T00:00	18436	75	-61.6	-87.0	304	1
2023-09-06T00:00	18458	75	-61.6	-87.0	297	1
2023-09-06T00:00	18482	75	-61.1	-87.0	277	1
2023-09-06T00:00	18501	74	-60.8		257	1
2023-09-06T00:00	18528	74	-60.9	-86.8	246	1
2023-09-06T00:00	18553	74	-61.0	-86.9	240	2
2023-09-06T00:00	18574	73	-61.2	-87.0	237	2
2023-09-06T00:00	18599	73	-61.3	-86.8	234	3
2023-09-06T00:00	18619	73	-61.5	-87.0	231	3
2023-09-06T00:00	18642	73	-61.7	-87.1	228	4
2023-09-06T00:00	18662	72	-61.8	-87.2	225	4
2023-09-06T00:00	18684	72	-61.4	-86.9	223	4
2023-09-06T00:00	18702	72	-61.1	-87.0	221	4
2023-09-06T00:00	18728	72	-61.2	-87.0	219	5
2023-09-06T00:00	18750	71	-61.3	-87.1	218	5
2023-09-06T00:00	18771	71	-61.3	-87.1	217	6
2023-09-06T00:00	18791	71	-61.4	-87.2	218	6
2023-09-06T00:00	18814	71	-61.4	-87.2	220	6
2023-09-06T00:00	18835	70	-61.6	-87.3	225	6
2023-09-06T00:00	18856	70	-61.3	-87.1	231	6
2023-09-06T00:00	18881	70	-61.2	-87.0	239	6
2023-09-06T00:00	18903	70	-61.1	-87.0	247	6
2023-09-06T00:00	18921	69	-61.1	-87.3	255	6
2023-09-06T00:00	18943	69	-60.8	-87.0	261	6
2023-09-06T00:00	18963	69	-60.7	-87.0	267	6
2023-09-06T00:00	18984	69	-60.7	-87.0	272	6
2023-09-06T00:00	19007	68	-60.9	-87.1	276	6
2023-09-06T00:00	19029	68	-61.0	-87.5	279	5
2023-09-06T00:00	19054	68	-60.5	-87.2	279	5
2023-09-06T00:00	19074	68	-60.2	-87.3	278	5
2023-09-06T00:00	19097	68	-59.8	-87.4	278	4
2023-09-06T00:00	19119	67	-59.2	-86.9	281	5
2023-09-06T00:00	19140	67	-58.9	-87.1	288	5
2023-09-06T00:00	19164	67	-58.6	-86.9	297	6
2023-09-06T00:00	19183	67	-58.2	-86.6	304	7
2023-09-06T00:00	19205	66	-57.8	-86.3	310	8
2023-09-06T00:00	19229	66	-57.5	-86.5	315	8
2023-09-06T00:00	19252	66	-57.4	-86.4	319	8
2023-09-06T00:00	19272	66	-57.0	-86.1	322	8
2023-09-06T00:00	19296	65	-56.4	-85.7	324	8
2023-09-06T00:00	19320	65	-56.3	-85.6	327	8
2023-09-06T00:00	19339	65	-56.0		328	7
2023-09-06T00:00	19363	65	-56.1	-85.5	329	7
2023-09-06T00:00	19387	64	-56.2	-85.5	329	7
2023-09-06T00:00	19409	64	-56.4	-85.2	328	7
2023-09-06T00:00	19435	64	-56.5	-85.3	325	6
2023-09-06T00:00	19462	64	-56.7	-85.4	322	6
2023-09-06T00:00	19481	64	-56.8	-85.5	317	6
2023-09-06T00:00	19510	63	-57.0	-85.7	314	5
2023-09-06T00:00	19529	63	-57.2	-85.8	313	5
2023-09-06T00:00	19557	63	-57.3	-85.9	313	5
2023-09-06T00:00	19582	63	-57.2	-85.8	315	5
2023-09-06T00:00	19606	62	-57.3	-85.9	317	6
2023-09-06T00:00	19633	62	-57.4	-86.0	318	6
2023-09-06T00:00	19656	62	-57.5	-86.1	317	5
2023-09-06T00:00	19682	62	-57.5	-86.1	314	5
2023-09-06T00:00	19707	61	-57.0	-85.7	309	5
2023-09-06T00:00	19731	61	-56.9	-86.1	305	5
2023-09-06T00:00	19755	61	-56.8	-86.0	303	5
2023-09-06T00:00	19778	61	-56.7	-85.9	303	5
2023-09-06T00:00	19801	60	-56.8	-86.0	305	5
2023-09-06T00:00	19826	60	-57.0	-85.7	307	5
2023-09-06T00:00	19848	60	-57.1	-85.7	308	6
2023-09-06T00:00	19874	60	-57.2	-85.8	309	6
2023-09-06T00:00	19899	59	-57.4	-86.0	308	6
2023-09-06T00:00	19925	59	-57.6	-86.1	308	7
2023-09-06T00:00	19944	59	-57.7	-86.2	308	7
2023-09-06T00:00	19970	59	-57.6	-86.1	308	7
2023-09-06T00:00	19995	59	-57.7	-86.2	308	7
2023-09-06T00:00	20020	58	-57.8	-86.3	310	6
2023-09-06T00:00	20045	58	-57.6	-86.1	312	6
2023-09-06T00:00	20072	58	-57.6	-86.1	317	6
2023-09-06T00:00	20094	58	-57.4	-86.0	322	5
2023-09-06T00:00	20115	57	-57.3	-86.4	329	5
2023-09-06T00:00	20142	57	-57.2	-86.3	336	5
2023-09-06T00:00	20162	57	-57.2	-86.3	343	5
2023-09-06T00:00	20189	57	-57.1	-86.2	350	5
2023-09-06T00:00	20213	57	-56.5	-85.8	355	4
2023-09-06T00:00	20240	56	-56.2	-86.0	358	4
2023-09-06T00:00	20260	56	-56.1	-86.0	1	4
2023-09-06T00:00	20286	56	-56.2	-85.5	2	4
2023-09-06T00:00	20314	56	-56.3	-85.6	2	4
2023-09-06T00:00	20335	56	-56.4	-85.7	2	4
2023-09-06T00:00	20357	55	-56.5	-85.8	1	3
2023-09-06T00:00	20384	55	-56.5	-85.8	358	3
2023-09-06T00:00	20406	55	-56.5	-85.8	352	3
2023-09-06T00:00	20437	55	-56.6	-85.8	343	3
2023-09-06T00:00	20459	54	-56.4	-85.7	331	3
2023-09-06T00:00	20482	54	-56.4	-85.7	318	3
2023-09-06T00:00	20511	54	-56.4	-85.7	306	3
2023-09-06T00:00	20532	54	-56.6	-85.4	297	3
2023-09-06T00:00	20557	54	-56.8	-85.5	290	3
2023-09-06T00:00	20584	53	-57.0	-85.7	284	4
2023-09-06T00:00	20609	53	-57.3	-85.5	279	4
2023-09-06T00:00	20635	53	-57.5	-85.6	274	4
2023-09-06T00:00	20656	53	-57.7	-85.8	270	4
2023-09-06T00:00	20681	53	-57.9		267	4
2023-09-06T00:00	20706	52	-57.8	-85.9	265	4
2023-09-06T00:00	20733	52	-57.5	-86.1	267	4
2023-09-06T00:00	20752	52	-57.4	-86.0	271	3
2023-09-06T00:00	20781	52	-57.6	-86.1	279	3
2023-09-06T00:00	20803	52	-57.8	-86.3	290	3
2023-09-06T00:00	20830	51	-57.9	-86.4	302	3
2023-09-06T00:00	20857	51	-57.8	-86.3	313	3
2023-09-06T00:00	20880	51	-57.9	-86.4	321	3
2023-09-06T00:00	20900	51	-58.0	-86.4	331	3
2023-09-06T00:00	20928	51	-58.1	-86.5	343	2
2023-09-06T00:00	20948	50	-57.7	-86.2	359	2
2023-09-06T00:00	20978	50	-57.9		18	2
2023-09-06T00:00	21002	50	-58.0	-86.0	33	2
2023-09-06T00:00	21029	50	-58.1		42	2
2023-09-06T00:00	21051	50	-58.2	-86.2	45	2
2023-09-06T00:00	21081	49	-58.4	-86.3	47	2
2023-09-06T00:00	21104	49	-58.5	-86.0	47	2
2023-09-06T00:00	21125	49	-58.7	-86.1	49	2
2023-09-06T00:00	21153	49	-58.7	-86.1	52	2
2023-09-06T00:00	21179	49	-58.9	-86.7	56	3
2023-09-06T00:00	21207	48	-58.8	-86.6	60	3
2023-09-06T00:00	21233	48	-58.5	-86.4	63	4
2023-09-06T00:00	21251	48	-58.6	-86.5	64	4
2023-09-06T00:00	21279	48	-58.8	-86.6	64	4
2023-09-06T00:00	21304	48	-59.0	-86.4	61	5
2023-09-06T00:00	21330	47	-59.1	-86.5	58	5
2023-09-06T00:00	21356	47	-59.2	-86.5	54	5
2023-09-06T00:00	21375	47	-59.0	-86.4	49	5
2023-09-06T00:00	21404	47	-59.1	-86.5	44	5
2023-09-06T00:00	21429	47	-59.2	-86.5	38	5
2023-09-06T00:00	21459	46	-59.2	-86.5	30	5
2023-09-06T00:00	21480	46	-59.2	-86.5	21	5
2023-09-06T00:00	21506	46	-59.2	-86.5	13	5
2023-09-06T00:00	21531	46	-59.2	-86.5	6	6
2023-09-06T00:00	21556	46	-59.3	-86.6	2	6
2023-09-06T00:00	21581	46	-59.5	-86.8	0	6
2023-09-06T00:00	21603	45	-59.5	-87.1	1	6
2023-09-06T00:00	21630	45	-59.2	-86.9	4	6
2023-09-06T00:00	21653	45	-59.0	-86.8	8	6
2023-09-06T00:00	21679	45	-58.3	-86.7	13	6
2023-09-06T00:00	21702	45	-58.3	-86.7	19	6
2023-09-06T00:00	21728	45	-58.3	-86.7	27	5
2023-09-06T00:00	21753	44	-58.4	-86.3	36	4
2023-09-06T00:00	21780	44	-58.4	-86.3	47	4
2023-09-06T00:00	21806	44	-58.4	-86.3	59	4
2023-09-06T00:00	21828	44	-58.5	-86.4	69	3
2023-09-06T00:00	21856	44	-58.7	-86.5	77	3
2023-09-06T00:00	21881	43	-58.8	-86.6	83	2
2023-09-06T00:00	21908	43	-58.8	-86.6	86	2
2023-09-06T00:00	21936	43	-58.8	-86.6	79	1
2023-09-06T00:00	21960	43	-58.5	-86.4	308	0
2023-09-06T00:00	21987	43	-58.6	-86.5	291	1
2023-09-06T00:00	22010	43	-58.7	-86.5	289	2
2023-09-06T00:00	22034	42	-58.9	-86.7	288	3
2023-09-06T00:00	22058	42	-58.9	-86.7	288	3
2023-09-06T00:00	22085	42	-59.1	-86.8	289	4
2023-09-06T00:00	22110	42	-59.1	-86.8	291	4
2023-09-06T00:00	22135	42	-58.8	-86.6	295	4
2023-09-06T00:00	22160	42	-58.8	-86.6	300	4
2023-09-06T00:00	22186	41	-58.9	-86.7	306	4
2023-09-06T00:00	22215	41	-58.9	-86.7	311	3
2023-09-06T00:00	22239	41	-58.8	-86.6	314	3
2023-09-06T00:00	22266	41	-58.7	-87.0	316	3
2023-09-06T00:00	22290	41	-58.6	-86.9	318	2
2023-09-06T00:00	22312	41	-58.6	-86.9	323	1
2023-09-06T00:00	22340	40	-58.4	-86.7	337	1
2023-09-06T00:00	22368	40	-58.3	-86.7	16	1
2023-09-06T00:00	22391	40	-58.3	-86.7	53	1
2023-09-06T00:00	22415	40	-58.2	-86.6	57	0
2023-09-06T00:00	22442	40	-58.2	-86.6	14	0
2023-09-06T00:00	22467	40	-58.1	-86.5	327	1
2023-09-06T00:00	22494	39	-58.0	-86.4	317	1
2023-09-06T00:00	22519	39	-58.0	-86.4	316	2
2023-09-06T00:00	22540	39	-57.9	-86.4	317	3
2023-09-06T00:00	22573	39	-57.9	-86.4	320	3
2023-09-06T00:00	22593	39	-57.9	-86.4	322	4
2023-09-06T00:00	22622	39	-57.9	-86.4	325	4
2023-09-06T00:00	22648	38	-57.7	-86.7	328	4
2023-09-06T00:00	22667	38	-57.6	-86.6	331	4
2023-09-06T00:00	22695	38	-57.4	-86.4	335	4
2023-09-06T00:00	22722	38	-57.2	-86.3	338	4
2023-09-06T00:00	22747	38	-57.2	-86.3	342	4
2023-09-06T00:00	22777	38	-57.1	-86.2	347	4
2023-09-06T00:00	22797	38	-56.9	-86.1	354	4
2023-09-06T00:00	22823	37	-56.8	-86.5	1	4
2023-09-06T00:00	22849	37	-56.5	-86.3	9	4
2023-09-06T00:00	22878	37	-56.4	-86.2	15	5
2023-09-06T00:00	22901	37	-56.4	-86.2	21	5
2023-09-06T00:00	22923	37	-56.5	-86.3	26	6
2023-09-06T00:00	22951	37	-56.2	-86.0	32	6
2023-09-06T00:00	22976	37	-56.1	-86.0	36	6
2023-09-06T00:00	23004	36	-56.2	-86.0	40	6
2023-09-06T00:00	23028	36	-56.2	-86.0	44	6
2023-09-06T00:00	23049	36	-56.2	-85.5	47	5
2023-09-06T00:00	23077	36	-56.1	-85.5	50	4
2023-09-06T00:00	23100	36	-56.2	-85.5	53	4
2023-09-06T00:00	23124	36	-56.3	-85.6	57	3
2023-09-06T00:00	23148	36	-56.3	-85.6	61	3
2023-09-06T00:00	23171	35	-56.5	-85.8	64	2
2023-09-06T00:00	23194	35	-56.4	-85.7	65	2
2023-09-06T00:00	23223	35	-56.3	-86.1	66	2
2023-09-06T00:00	23240	35	-56.1	-86.0	66	2
2023-09-06T00:00	23271	35	-55.9	-85.8	67	2
2023-09-06T00:00	23295	35	-55.7	-85.7	68	2
2023-09-06T00:00	23314	35	-55.5	-85.5	70	2
2023-09-06T00:00	23343	34	-55.3	-85.9	70	3
2023-09-06T00:00	23370	34	-55.2	-85.8	70	3
2023-09-06T00:00	23391	34	-55.0	-85.7	70	3
2023-09-06T00:00	23416	34	-54.7	-85.5	71	4
2023-09-06T00:00	23442	34	-54.6	-85.4	75	4
2023-09-06T00:00	23466	34	-54.7	-85.5	82	4
2023-09-06T00:00	23495	34	-54.5	-85.3	92	3
2023-09-06T00:00	23516	34	-54.5	-85.3	104	3
2023-09-06T00:00	23542	33	-54.6	-84.8	117	3
2023-09-06T00:00	23571	33	-54.7	-84.9	128	4
2023-09-06T00:00	23590	33	-54.9	-85.1	138	4
2023-09-06T00:00	23610	33	-54.9	-85.1	146	4
2023-09-06T00:00	23639	33	-54.8	-85.0	153	4
2023-09-06T00:00	23659	33	-54.9	-85.1	159	4
2023-09-06T00:00	23693	33	-55.0	-85.1	166	4
2023-09-06T00:00	23713	33	-55.1	-85.2	172	3
2023-09-06T00:00	23737	32	-55.3	-85.4	179	3
2023-09-06T00:00	23768	32	-55.5	-85.5	185	3
2023-09-06T00:00	23789	32	-55.5	-85.5	192	2
2023-09-06T00:00	23818	32	-55.4	-85.4	201	1
2023-09-06T00:00	23847	32	-55.6	-85.6	233	0
2023-09-06T00:00	23866	32	-55.6	-85.6	345	1
2023-09-06T00:00	23897	32	-55.1	-85.2	0	1
2023-09-06T00:00	23920	31	-55.1	-85.2	4	2
2023-09-06T00:00	23941	31	-55.1	-85.2	4	3
2023-09-06T00:00	23968	31	-55.2	-85.3	2	3
2023-09-06T00:00	24000	31	-55.3	-85.4	360	3
2023-09-06T00:00	24020	31	-55.3	-85.4	358	3
2023-09-06T00:00	24046	31	-55.5	-85.5	357	3
2023-09-06T00:00	24076	31	-55.7	-85.7	358	4
2023-09-06T00:00	24103	31	-55.8	-85.2	1	4
2023-09-06T00:00	24129	30	-56.0		4	4
2023-09-06T00:00	24153	30	-56.1	-85.5	5	3
2023-09-06T00:00	24185	30	-56.2	-85.5	6	3
2023-09-06T00:00	24210	30	-56.3	-86.1	5	3
2023-09-06T00:00	24235	30	-55.9	-85.8	2	3
2023-09-06T00:00	24260	30	-55.5	-85.5	357	2
2023-09-06T00:00	24285	30	-55.4	-85.4	344	1
2023-09-06T00:00	24314	30	-55.6	-85.6	315	1
2023-09-06T00:00	24340	29	-55.5	-85.5	284	1
2023-09-06T00:00	24375	29	-55.6	-85.6	277	1
2023-09-06T00:00	24397	29	-55.7	-85.7	286	2
2023-09-06T00:00	24422	29	-55.6	-85.6	300	2
2023-09-06T00:00	24451	29	-54.9	-85.1	311	3
2023-09-06T00:00	24476	29	-55.1	-85.2	318	4
2023-09-06T00:00	24504	29	-55.3	-85.4	321	4
2023-09-06T00:00	24530	29	-55.4	-85.4	322	5
2023-09-06T00:00	24557	29	-55.5	-85.5	323	6
2023-09-06T00:00	24585	28	-55.6	-85.6	324	7
2023-09-06T00:00	24616	28	-55.6	-85.6	325	7
2023-09-06T00:00	24642	28	-55.7	-85.7	326	7
2023-09-06T00:00	24673	28	-55.8	-85.7	328	7
2023-09-06T00:00	24696	28	-55.9	-85.8	329	7
2023-09-06T00:00	24732	28	-55.8	-85.7	330	7
2023-09-06T00:00	24749	28	-55.9	-85.8	329	6
2023-09-06T00:00	24777	28	-55.9	-85.8	328	6
2023-09-06T00:00	24802	27	-55.9	-85.8	326	6
2023-09-06T00:00	24831	27	-55.6	-85.6	324	5
2023-09-06T00:00	24860	27	-55.6	-85.6	324	5
2023-09-06T00:00	24880	27	-55.4	-85.4	326	4
2023-09-06T00:00	24909	27	-55.2	-85.3	330	4
2023-09-06T00:00	24936	27	-55.3	-85.4	338	4
2023-09-06T00:00	24958	27	-55.3	-85.4	348	3
2023-09-06T00:00	24988	27	-55.3	-85.4	1	3
2023-09-06T00:00	25013	27	-55.5	-85.5	13	4
2023-09-06T00:00	25041	26	-55.7	-85.7	24	4
2023-09-06T00:00	25065	26	-55.8	-85.7	34	4
2023-09-06T00:00	25096	26	-55.9	-85.8	43	5
2023-09-06T00:00	25117	26	-56.0	-85.9	51	5
2023-09-06T00:00	25143	26	-56.0	-85.9	58	5
2023-09-06T00:00	25170	26	-56.0	-85.9	63	5
2023-09-06T00:00	25198	26	-55.9	-85.8	67	5
2023-09-06T00:00	25224	26	-55.7	-85.7	69	5
2023-09-06T00:00	25245	26	-55.5	-85.5	72	4
2023-09-06T00:00	25270	25	-55.5	-85.5	75	4
2023-09-06T00:00	25296	25	-55.6	-86.1	82	3
2023-09-06T00:00	25321	25	-55.5	-86.1	94	2
2023-09-06T00:00	25341	25	-55.3	-85.9	112	2
2023-09-06T00:00	25373	25	-55.2	-85.8	133	1
2023-09-06T00:00	25389	25	-55.1	-85.8	154	1
2023-09-06T00:00	25417	25	-55.1	-85.8	186	1
2023-09-06T00:00	25444	25	-55.2	-85.8	247	1
2023-09-06T00:00	25470	25	-55.3	-85.4	281	1
2023-09-06T00:00	25500	25	-55.2	-85.3	293	2
2023-09-06T00:00	25527	24	-55.2	-85.8	302	2
2023-09-06T00:00	25551	24	-55.2	-85.8	311	3
2023-09-06T00:00	25572	24	-55.3	-85.9	322	3
2023-09-06T00:00	25603	24	-55.1	-85.8	333	4
2023-09-06T00:00	25623	24	-54.7	-85.5	343	4
2023-09-06T00:00	25657	24	-54.4	-85.2	352	5
2023-09-06T00:00	25686	24	-54.3	-85.8	360	5
2023-09-06T00:00	25713	24	-54.3	-85.8	7	4
2023-09-06T00:00	25738	24	-54.2	-85.7	14	4
2023-09-06T00:00	25760	24	-54.0	-85.5	24	4
2023-09-06T00:00	25789	24	-53.9	-85.5	34	3
2023-09-06T00:00	25814	23	-53.6	-85.3	44	3
2023-09-06T00:00	25850	23	-53.5	-85.2	50	2
2023-09-06T00:00	25874	23	-53.4	-85.1	51	2
2023-09-06T00:00	25905	23	-53.4	-85.1	44	1
2023-09-06T00:00	25921	23	-53.4	-85.1	353	0
2023-09-06T00:00	25957	23	-52.9	-84.7	275	1
2023-09-06T00:00	25979	23	-52.3	-84.3	264	2
2023-09-06T00:00	26005	23	-52.3	-85.0	261	2
2023-09-06T00:00	26037	23	-52.0	-84.8	263	2
2023-09-06T00:00	26066	23	-51.7	-84.5	266	3
2023-09-06T00:00	26083	22	-51.8	-84.6	270	3
2023-09-06T00:00	26117	22	-51.7	-84.5	276	2
2023-09-06T00:00	26145	22	-51.5	-83.7	284	2
2023-09-06T00:00	26168	22	-51.6	-83.8	297	2
2023-09-06T00:00	26195	22	-51.7	-83.9	317	2
2023-09-06T00:00	26227	22	-51.5	-83.7	339	2
2023-09-06T00:00	26244	22	-51.5	-83.7	356	2
2023-09-06T00:00	26281	22	-51.5	-83.7	6	2
2023-09-06T00:00	26305	22	-51.6	-83.8	14	2
2023-09-06T00:00	26327	22	-51.6	-83.8	23	2
2023-09-06T00:00	26350	22	-51.5	-83.7	32	2
2023-09-06T00:00	26379	21	-51.4	-83.6	38	2
2023-09-06T00:00	26397	21	-51.3	-84.3	38	2
2023-09-06T00:00	26433	21	-51.1	-84.1	34	3
2023-09-06T00:00	26459	21	-50.8	-83.9	28	3
2023-09-06T00:00	26491	21	-50.3	-83.5	24	4
2023-09-06T00:00	26512	21	-50.3	-83.5	23	4
2023-09-06T00:00	26532	21	-50.5	-83.7	24	5
2023-09-06T00:00	26570	21	-50.7	-83.8	27	5
2023-09-06T00:00	26592	21	-50.7	-83.8	30	5
2023-09-06T00:00	26614	21	-50.5	-83.7	36	4
2023-09-06T00:00	26648	21	-50.6	-83.7	44	3
2023-09-06T00:00	26665	21	-50.6	-83.7	58	3
2023-09-06T00:00	26698	20	-50.3	-83.5	80	2
2023-09-06T00:00	26726	20	-50.3	-83.5	105	2
2023-09-06T00:00	26753	20	-50.3	-83.5	125	3
2023-09-06T00:00	26784	20	-50.5	-83.7	137	3
2023-09-06T00:00	26807	20	-50.6	-83.1	145	4
2023-09-06T00:00	26846	20	-50.8	-83.2	150	5
2023-09-06T00:00	26871	20	-51.0	-83.3	154	6
2023-09-06T00:00	26900	20	-51.1	-83.4	159	6
2023-09-06T00:00	26933	20	-51.2	-84.2	164	7
2023-09-06T00:00	26945	20	-51.1	-84.1	171	7
2023-09-06T00:00	26976	20	-50.3	-83.5	177	7
2023-09-06T00:00	26998	20	-50.1	-83.4	183	8
2023-09-06T00:00	27029	19	-50.2	-83.5	188	8
2023-09-06T00:00	27054	19	-50.3	-83.5	192	8
2023-09-06T00:00	27082	19	-50.4	-83.6	195	8
2023-09-06T00:00	27108	19	-50.4	-83.6	197	8
2023-09-06T00:00	27143	19	-50.1	-83.4	200	7
2023-09-06T00:00	27170	19	-49.9	-83.2	204	6
2023-09-06T00:00	27189	19	-50.0	-83.3	208	6
2023-09-06T00:00	27224	19	-50.2	-83.5	212	5
2023-09-06T00:00	27252	19	-50.3	-83.5	217	4
2023-09-06T00:00	27285	19	-50.4	-83.6	220	4
2023-09-06T00:00	27313	19	-50.6	-83.7	221	4
2023-09-06T00:00	27344	19	-50.6	-83.7	221	3
2023-09-06T00:00	27380	18	-50.5	-83.7	219	3
2023-09-06T00:00	27399	18	-50.4	-83.6	217	3
2023-09-06T00:00	27428	18	-50.6	-83.7	214	3
2023-09-06T00:00	27464	18	-50.6	-83.7	213	3
2023-09-06T00:00	27483	18	-50.7	-83.8	212	3
2023-09-06T00:00	27520	18	-50.7	-83.8	213	4
2023-09-06T00:00	27539	18	-50.6	-83.7	214	4
2023-09-06T00:00	27578	18	-50.4	-83.6	216	4
2023-09-06T00:00	27605	18	-50.1	-83.4	219	4
2023-09-06T00:00	27634	18	-50.2	-83.5	223	5
2023-09-06T00:00	27656	18	-50.2	-83.5	227	5
2023-09-06T00:00	27689	18	-50.1	-83.4	231	5
2023-09-06T00:00	27716	17	-50.0	-83.3	235	5
2023-09-06T00:00	27745	17	-49.9	-83.2	237	4
2023-09-06T00:00	27766	17	-49.9	-83.2	236	4
2023-09-06T00:00	27796	17	-49.8	-83.2	230	3
2023-09-06T00:00	27833	17	-49.8	-83.2	219	3
2023-09-06T00:00	27865	17	-49.6	-83.8	204	2
2023-09-06T00:00	27881	17	-49.4	-83.7	191	2
2023-09-06T00:00	27916	17	-49.2	-83.5	185	3
2023-09-06T00:00	27940	17	-49.0	-83.4	183	3
2023-09-06T00:00	27960	17	-49.0	-83.4	181	3
2023-09-06T00:00	27991	17	-49.0	-83.4	178	3
2023-09-06T00:00	28011	17	-49.0	-83.4	173	3
2023-09-06T00:00	28040	17	-49.0	-83.4	166	3
2023-09-06T00:00	28062	17	-48.8	-83.2	158	2
2023-09-06T00:00	28095	17	-48.8	-83.2	152	2
2023-09-06T00:00	28128	16	-48.6	-83.1	151	2
2023-09-06T00:00	28141	16	-48.5	-83.0	155	1
2023-09-06T00:00	28158	16	-48.3	-82.9	159	1
2023-09-06T00:00	28187	16	-48.4	-82.9	156	1
2023-09-06T00:00	28206	16	-48.4	-82.9	145	1
2023-09-06T00:00	28239	16	-48.2	-82.8	132	1
2023-09-06T00:00	28259	16	-48.1	-82.7	125	2
2023-09-06T00:00	28285	16	-47.8	-82.5	128	2
2023-09-06T00:00	28315	16	-47.4	-82.2	141	2
2023-09-06T00:00	28323	16	-47.2	-83.0	158	2
2023-09-06T00:00	28365	16	-47.2	-83.0	170	3
2023-09-06T00:00	28378	16	-47.1	-82.9	179	3
2023-09-06T00:00	28405	16	-46.3	-82.4	184	4
2023-09-06T00:00	28434	16	-46.1	-82.2	189	4
2023-09-06T00:00	28453	16	-46.2	-82.3	193	5
2023-09-06T00:00	28469	16	-46.3	-82.4	196	5
2023-09-06T00:00	28504	16	-46.5	-81.6	199	6
2023-09-06T00:00	28532	15	-46.6	-81.7	202	6
2023-09-06T00:00	28551	15	-46.8	-81.8	204	6
2023-09-06T00:00	28577	15	-47.0	-81.9	206	7
2023-09-06T00:00	28601	15	-47.2	-82.1	209	7
2023-09-06T00:00	28634	15	-47.4	-82.2	213	7
2023-09-06T00:00	28649	15	-47.5	-82.3	217	7
2023-09-06T00:00	28680	15	-47.0	-81.9	223	7
2023-09-06T00:00	28712	15	-46.9	-81.9	229	7
2023-09-06T00:00	28740	15	-46.5	-82.5	236	7
2023-09-06T00:00	28769	15	-46.5	-82.5	243	6
2023-09-06T00:00	28785	15	-46.3	-82.4	250	6
2023-09-06T00:00	28821	15	-46.2	-82.3	258	5
2023-09-06T00:00	28846	15	-45.9	-82.1	265	5
2023-09-06T00:00	28867	15	-45.9	-82.1	271	5
2023-09-06T00:00	28894	15	-46.0	-82.1	276	4
2023-09-06T00:00	28923	15	-46.1	-82.2	279	5
2023-09-06T00:00	28946	15	-46.1	-82.2	281	5
2023-09-06T00:00	28983	14	-46.0	-82.1	284	5
2023-09-06T00:00	29012	14	-46.0	-82.1	287	5
2023-09-06T00:00	29047	14	-46.1	-82.2	291	5
2023-09-06T00:00	29060	14	-46.3	-81.4	293	5
2023-09-06T00:00	29097	14	-46.5	-81.6	293	5
2023-09-06T00:00	29125	14	-46.5	-81.6	292	6
2023-09-06T00:00	29157	14	-46.6	-81.7	290	6
2023-09-06T00:00	29189	14	-46.7	-81.7	288	6
2023-09-06T00:00	29212	14	-46.9	-81.9	286	7
2023-09-06T00:00	29240	14	-47.2	-82.1	284	7
2023-09-06T00:00	29270	14	-47.4	-82.2	280	7
2023-09-06T00:00	29298	14	-47.6	-82.4	277	8
2023-09-06T00:00	29333	14	-47.7	-82.4	273	8
2023-09-06T00:00	29357	14	-47.8	-82.5	270	8
2023-09-06T00:00	29383	14	-47.9	-82.6	268	8
2023-09-06T00:00	29409	14	-48.0	-82.7	267	9
2023-09-06T00:00	29430	13	-48.1	-82.7	267	9
2023-09-06T00:00	29463	13	-47.8	-82.5	270	9
2023-09-06T00:00	29499	13	-47.6	-82.4	274	8
2023-09-06T00:00	29519	13	-47.4	-82.2	279	8
2023-09-06T00:00	29555	13	-47.3	-82.2	284	8
2023-09-06T00:00	29581	13	-47.4	-82.2	288	8
2023-09-06T00:00	29607	13	-47.6	-82.4	292	8
2023-09-06T00:00	29637	13	-47.8	-82.5	295	8
2023-09-06T00:00	29669	13	-48.0	-82.7	298	8
2023-09-06T00:00	29695	13	-48.2	-82.8	301	7
2023-09-06T00:00	29717	13	-48.4	-82.9	303	7
2023-09-06T00:00	29747	13	-48.6	-83.1	304	7
2023-09-06T00:00	29781	13	-48.7	-83.2	304	6
2023-09-06T00:00	29799	13	-48.8	-83.2	303	6
2023-09-06T00:00	29837	13	-48.9	-83.3	302	6
2023-09-06T00:00	29854	13	-48.7	-83.2	300	6
2023-09-06T00:00	29875	13	-48.3	-82.9	299	5
2023-09-06T00:00	29898	13	-48.4	-82.9	298	5
2023-09-06T00:00	29930	13	-48.4	-82.9	298	4
2023-09-06T00:00	29963	12	-48.4	-82.9	298	3
2023-09-06T00:00	29979	12	-48.5	-83.0	298	2
2023-09-06T00:00	30013	12	-48.6	-83.1	293	1
2023-09-06T00:00	30045	12	-48.7	-83.2	236	0
2023-09-06T00:00	30065	12	-48.8	-83.2	153	1
2023-09-06T00:00	30105	12	-48.9	-83.3	145	2
2023-09-06T00:00	30108	12	-48.9	-83.3	144	3
2023-09-06T00:00	30156	12	-48.8	-83.2	144	4
2023-09-06T00:00	30186	12	-48.8	-83.2	146	4
2023-09-06T00:00	30208	12	-48.3	-83.8	148	5
2023-09-06T00:00	30234	12	-47.9	-83.5	151	6
2023-09-06T00:00	30266	12	-47.4	-83.1	155	6
2023-09-06T00:00	30296	12	-47.4	-83.1	159	6
2023-09-06T00:00	30327	12	-47.1	-82.9	166	5
2023-09-06T00:00	30338	12	-47.1	-82.9	174	5
2023-09-06T00:00	30365	12	-47.0	-82.9	185	4
2023-09-06T00:00	30395	12	-46.6	-82.6	198	4
2023-09-06T00:00	30412	12	-46.5	-82.5	212	4
2023-09-06T00:00	30434	12	-46.2	-82.3	226	3
2023-09-06T00:00	30453	12	-46.0	-82.1	239	3
2023-09-06T00:00	30493	11	-46.1	-82.2	251	3
2023-09-06T00:00	30530	11	-46.1	-82.2	262	3
2023-09-06T00:00	30551	11	-46.2	-82.3	271	3
2023-09-06T00:00	30573	11	-46.1	-82.2	277	3
2023-09-06T00:00	30591	11	-46.0	-82.1	278	3
2023-09-06T00:00	30621	11	-45.9	-82.1	276	3
2023-09-06T00:00	30650	11	-45.8	-82.0	272	2
2023-09-06T00:00	30676	11	-45.8	-82.0	270	2
2023-09-06T00:00	30699	11	-45.9	-82.1	271	2
2023-09-06T00:00	30722	11	-46.0	-82.1	279	2
2023-09-06T00:00	30745	11	-46.2	-82.3	290	2
2023-09-06T00:00	30768	11	-46.3	-82.4	303	2
2023-09-06T00:00	30801	11	-46.5	-82.5	314	2
2023-09-06T00:00	30836	11	-46.4	-82.4	324	3
2023-09-06T00:00	30843	11	-46.3	-82.4	331	3
2023-09-06T00:00	30877	11	-46.3	-82.4	336	3
2023-09-06T00:00	30905	11	-46.2	-82.3	338	3
2023-09-06T00:00	30930	11	-45.9	-82.1	339	4
2023-09-06T00:00	30951	11	-45.9	-82.1	342	4
2023-09-06T00:00	30974	11	-46.0	-82.1	347	4
2023-09-06T00:00	31008	11	-46.2	-82.3	352	5
2023-09-06T00:00	31037	11	-46.2	-82.3	358	5
2023-09-06T00:00	31059	11	-46.1	-82.2	4	5
2023-09-06T00:00	31081	11	-45.9	-82.1	8	5
2023-09-06T00:00	31099	10	-45.7	-81.9	12	5
2023-09-06T00:00	31127	10	-45.7	-81.9	16	4
2023-09-06T00:00	31169	10	-45.6	-81.9	20	3
2023-09-06T00:00	31185	10	-45.6	-81.9	24	2
2023-09-06T00:00	31190	10	-45.7	-81.9	30	1
2023-09-06T00:00	31234	10	-45.8	-82.0	50	0
2023-09-06T00:00	31259	10	-45.9	-82.1	185	1
2023-09-06T00:00	31266	10	-45.8	-82.0	192	1
2023-09-06T00:00	31313	10	-45.8	-82.0	187	2
2023-09-06T00:00	31335	10	-45.8	-82.0	179	2
2023-09-06T00:00	31363	10	-45.9	-82.1	170	3
2023-09-06T00:00	31380	10	-46.0	-82.1	164	4
2023-09-06T00:00	31423	10	-46.0	-82.1	161	4
2023-09-06T00:00	31454	10	-46.3	-82.4	162	5
2023-09-06T00:00	31480	10	-46.3	-82.4	166	5
2023-09-06T00:00	31498	10	-46.4	-82.4	170	5
2023-09-06T00:00	31522	10	-46.5	-82.5	173	6
2023-09-06T00:00	31552	10	-46.7	-82.6	174	6
2023-09-06T00:00	31576	10	-46.7	-82.6	174	7
2023-09-06T00:00	31600	10	-46.6	-82.6	174	7
2023-09-06T00:00	31616	10	-46.6	-82.6	175	8
2023-09-06T00:00	31658	10	-46.7	-82.6	176	8
2023-09-06T00:00	31690	10	-46.6	-82.6	179	7
2023-09-06T00:00	31707	10	-46.6	-82.6	182	7
2023-09-06T00:00	31736	10	-46.6	-82.6	184	7
2023-09-06T00:00	31768	10	-46.6	-82.6	187	7
2023-09-06T00:00	31774	9	-46.5	-82.5	188	7
2023-09-06T00:00	31798	9	-46.5	-82.5	189	7
2023-09-06T00:00	31842	9	-46.5	-82.5	191	6
2023-09-06T00:00	31846	9	-46.4	-82.4	195	6
2023-09-06T00:00	31888	9	-46.4	-82.4	201	5
2023-09-06T00:00	31910	9	-46.2	-83.4	210	4
2023-09-06T00:00	31956	9	-46.0	-83.2	220	4
2023-09-06T00:00	31972	9	-45.8	-83.1	228	4
2023-09-06T00:00	31987	9	-45.7	-83.0	232	5
2023-09-06T00:00	32024	9	-45.6	-82.9	234	5
2023-09-06T00:00	32048	9	-45.1	-82.6	233	5
2023-09-06T00:00	32055	9	-44.4	-82.1	231	6
2023-09-06T00:00	32085	9	-44.5	-82.2	228	6
2023-09-06T00:00	32131	9	-44.5	-82.2	224	6
2023-09-06T00:00	32152	9	-44.5	-82.2	221	5
2023-09-06T00:00	32206	9	-44.5	-82.2	218	5
2023-09-06T00:00	32217	9	-44.5	-82.2	215	5
2023-09-06T00:00	32219	9	-44.3	-82.0	215	5
2023-09-06T00:00	32262	9	-44.3	-82.0	216	4
2023-09-06T00:00	32301	9	-44.3	-82.0	219	3
2023-09-06T00:00	32317	9	-44.2	-82.0	225	3
2023-09-06T00:00	32348	9	-43.9	-81.8	232	3
2023-09-06T00:00	32375	9	-43.3	-81.3	237	3
2023-09-06T00:00	32405	9	-43.2	-81.3	239	3
2023-09-06T00:00	32433	9	-42.9	-81.1	239	4
2023-09-06T00:00	32469	9	-42.8	-81.0	238	5
2023-09-06T00:00	32483	9	-42.6	-80.8	236	5
2023-09-06T00:00	32494	9	-42.2	-80.6	234	6
2023-09-06T00:00	32536	8	-41.9	-80.4	232	7
2023-09-06T00:00	32570	8	-41.8	-80.3	231	7
2023-09-06T00:00	32586	8	-41.9	-80.4	230	8
2023-09-06T00:00	32626	8	-42.0	-80.4	230	9
2023-09-06T00:00	32684	8	-41.9	-80.4	230	10
2023-09-06T00:00	32703	8	-42.0	-80.4	231	10
2023-09-06T00:00	32713	8	-42.1	-80.5	233	11
2023-09-06T00:00	32741	8	-42.1	-80.5	235	11
2023-09-06T00:00	32764	8	-41.9	-80.4	238	11
2023-09-06T00:00	32791	8	-41.8	-80.3	241	11
2023-09-06T00:00	32801	8	-41.6	-80.1	244	10
2023-09-06T00:00	32855	8	-41.2	-79.9	246	10
2023-09-06T00:00	32890	8	-41.0	-79.7	249	10
2023-09-06T00:00	32906	8	-41.0	-79.7	252	9
2023-09-06T00:00	32930	8	-41.2	-79.9	254	9
2023-09-06T00:00	32955	8	-41.3	-79.9	256	9
2023-09-06T00:00	32973	8	-41.3	-79.9	257	9
2023-09-06T00:00	33005	8	-41.1	-79.8	257	9
2023-09-06T00:00	33037	8	-40.8	-79.6	258	9
2023-09-06T00:00	33069	8	-40.4	-79.3	259	9
2023-09-06T00:00	33089	8	-40.4	-79.3	261	8
2023-09-06T00:00	33117	8	-40.5	-79.4	263	8
2023-09-06T00:00	33136	8	-40.5	-79.4	265	8
2023-09-06T00:00	33151	8	-40.5	-79.4	268	8
2023-09-06T00:00	33167	8	-40.6	-79.5	269	7
2023-09-06T00:00	33188	8	-40.8	-79.6	270	7
2023-09-06T00:00	33227	8	-41.0	-79.7	271	7
2023-09-06T00:00	33289	8	-41.3	-79.9	271	6
2023-09-06T00:00	33323	8	-41.6	-80.1	268	7
2023-09-06T00:00	33337	8	-41.7	-80.2	265	7
2023-09-06T00:00	33361	8	-41.9	-80.4	261	7
2023-09-06T00:00	33394	7	-41.8	-80.3	257	7
2023-09-06T00:00	33418	7	-41.8	-80.3	254	7
2023-09-06T00:00	33444	7	-41.9	-80.4	251	8
2023-09-06T00:00	33467	7	-41.9	-80.4	249	8
2023-09-06T00:00	33503	7	-42.0	-80.4	248	8
2023-09-06T00:00	33539	7	-42.0	-80.4	248	8
2023-09-06T00:00	33547	7	-42.1	-80.5	248	8
2023-09-06T00:00	33579	7	-42.1	-80.5	248	8
2023-09-06T00:00	33605	7	-41.9	-80.4	247	8
2023-09-06T00:00	33621	7	-41.6	-80.1	247	7
2023-09-06T00:00	33646	7	-41.5	-80.1	245	7
2023-09-06T00:00	33667	7	-41.4	-80.0	244	6
2023-09-06T00:00	33728	7	-41.2	-79.9	243	6
2023-09-06T00:00	33747	7	-41.2	-79.9	244	6
2023-09-06T00:00	33776	7	-41.3	-79.9	247	6
2023-09-06T00:00	33788	7	-41.3	-79.9	252	5
2023-09-06T00:00	33838	7	-41.2	-79.9	258	5
2023-09-06T00:00	33856	7	-41.2	-79.9	262	6
2023-09-06T00:00	33871	7	-41.0	-79.7	265	6
2023-09-06T00:00	33896	7	-41.0	-79.7	266	6
2023-09-06T00:00	33911	7	-41.0	-79.7	266	5
2023-09-06T00:00	33942	7	-41.0	-79.7	266	5
2023-09-06T00:00	33975	7	-40.9	-79.7	267	5
2023-09-06T00:00	34002	7	-40.8	-79.6	268	5
2023-09-06T00:00	34020	7	-40.8	-79.6	270	5
2023-09-06T00:00	34044	7	-40.7	-79.5	272	4
2023-09-06T00:00	34067	7	-40.8	-79.6	274	4
2023-09-06T00:00	34105	7	-40.9	-79.7	276	3
2023-09-06T00:00	34112	7	-40.9	-79.7	278	3
2023-09-06T00:00	34150	7	-40.7	-79.5	279	3
2023-09-06T00:00	34151	7	-40.8	-79.6	278	3
2023-09-06T00:00	34172	7	-40.7	-79.5	276	3
2023-09-06T00:00	34216	7	-40.7	-79.5	270	2
2023-09-06T00:00	34243	7	-40.9	-79.7	245	2
2023-09-06T00:00	34273	7	-40.5	-79.4	230	2
2023-09-06T00:00	34298	7	-40.4	-79.3	218	2
2023-09-06T00:00	34319	7	-40.4	-79.3	213	3
2023-09-06T00:00	34323	7	-40.3	-79.2	211	3
2023-09-06T00:00	34348	6	-40.2	-79.2	211	3
2023-09-06T00:00	34390	6	-40.1	-79.1	212	4
2023-09-06T00:00	34429	6	-40.1	-79.1	213	4
2023-09-06T00:00	34441	6	-40.1	-79.1	214	4
2023-09-06T00:00	34449	6	-40.1	-79.1	215	4
2023-09-06T00:00	34474	6	-40.2	-79.2	219	4
2023-09-06T00:00	34522	6	-40.2	-79.2	224	4
2023-09-06T00:00	34523	6	-40.3	-79.2	236	5
2023-09-06T00:00	34562	6	-40.2	-79.2	241	6
2023-09-06T00:00	34594	6	-40.0	-79.0	244	6
2023-09-06T00:00	34607	6	-39.8	-78.9	242	6
2023-09-06T00:00	34639	6	-39.5	-78.7	237	6
2023-09-06T00:00	34689	6	-39.3	-78.5	232	6
2023-09-06T00:00	34703	6	-38.8	-78.2	222	6
2023-09-06T00:00	34707	6	-38.7	-78.1	219	7
2023-09-06T00:00	34747	6	-38.8	-78.2	218	7
2023-09-06T00:00	34763	6	-38.5	-78.0	218	8
2023-09-06T00:00	34784	6	-38.4	-77.9	219	8
2023-09-06T00:00	34801	6	-38.4	-77.9	220	9
2023-09-06T00:00	34824	6	-38.2	-77.8	222	9
2023-09-06T00:00	34837	6	-38.1	-77.7	222	9
2023-09-06T00:00	34860	6	-38.0	-77.6	223	8
2023-09-06T06:00	112	1010	14.9	11.9	140	3
2023-09-06T06:00	138	1007	16.6	11.5	208	1
2023-09-06T06:00	166	1004	18.7	11.0	194	2
2023-09-06T06:00	193	1000	19.5	11.1	186	2
2023-09-06T06:00	220	997	19.6	11.1	178	2
2023-09-06T06:00	247	994	19.9	10.8	169	2
2023-09-06T06:00	271	991	19.9	10.8	159	2
2023-09-06T06:00	296	989	19.9	10.7	148	2
2023-09-06T06:00	321	986	19.9	10.6	139	3
2023-09-06T06:00	350	983	20.1	10.4	131	3
2023-09-06T06:00	371	980	20.1	10.4	126	3
2023-09-06T06:00	398	977	20.0	10.4	123	3
2023-09-06T06:00	424	974	19.8	10.4	123	3
2023-09-06T06:00	448	971	19.7	10.4	124	3
2023-09-06T06:00	479	968	19.5	10.2	127	3
2023-09-06T06:00	504	965	19.4	10.1	133	3
2023-09-06T06:00	531	962	19.2	10.0	140	3
2023-09-06T06:00	564	959	19.0	9.9	145	3
2023-09-06T06:00	590	955	18.9	9.7	147	3
2023-09-06T06:00	617	952	18.7	9.7	142	2
2023-09-06T06:00	647	949	18.9	8.3	129	2
2023-09-06T06:00	673	946	19.1	6.3	114	2
2023-09-06T06:00	696	944	19.2	4.6	104	3
2023-09-06T06:00	724	941	19.2	3.6	100	3
2023-09-06T06:00	749	938	19.2	2.9	101	3
2023-09-06T06:00	776	935	19.3	3.6	104	4
2023-09-06T06:00	801	932	19.1	4.1	107	4
2023-09-06T06:00	823	929	18.9	4.6	108	4
2023-09-06T06:00	853	926	18.8	4.3	108	4
2023-09-06T06:00	884	923	18.7	4.0	108	4
2023-09-06T06:00	911	920	18.8	3.5	108	4
2023-09-06T06:00	937	918	18.6	3.6	108	4
2023-09-06T06:00	964	915	18.6	2.2	108	3
2023-09-06T06:00	989	912	18.7	0.5	108	3
2023-09-06T06:00	1016	909	18.7	2.1	106	3
2023-09-06T06:00	1042	906	18.7	1.3	103	3
2023-09-06T06:00	1068	904	18.8	-0.8	97	3
2023-09-06T06:00	1093	901	18.6	-0.2	90	3
2023-09-06T06:00	1117	898	18.4	0.1	84	3
2023-09-06T06:00	1147	896	18.2	0.0	79	3
2023-09-06T06:00	1168	893	18.0	-0.1	76	3
2023-09-06T06:00	1199	890	17.9	-1.6	74	3
2023-09-06T06:00	1225	887	17.9	-3.0	72	3
2023-09-06T06:00	1251	884	17.8	-3.2	69	3
2023-09-06T06:00	1281	882	17.8	-3.6	65	3
2023-09-06T06:00	1304	879	17.8	-3.4	59	4
2023-09-06T06:00	1338	876	17.7	-4.2	53	4
2023-09-06T06:00	1363	873	17.7	-4.6	47	4
2023-09-06T06:00	1394	870	17.5	-4.9	41	4
2023-09-06T06:00	1418	867	17.4	-5.7	36	4
2023-09-06T06:00	1444	865	17.2	0.6	31	4
2023-09-06T06:00	1467	862	16.9	2.9	26	3
2023-09-06T06:00	1497	859	16.8	1.5	20	3
2023-09-06T06:00	1522	857	16.7	0.9	13	3
2023-09-06T06:00	1551	854	16.6	1.5	6	2
2023-09-06T06:00	1578	851	16.6	0.6	358	2
2023-09-06T06:00	1608	848	16.8	-2.7	351	2
2023-09-06T06:00	1635	845	16.6	-1.8	347	1
2023-09-06T06:00	1663	843	16.5	-0.7	345	1
2023-09-06T06:00	1696	840	16.2	0.4	358	0
2023-09-06T06:00	1721	837	15.9	1.3	24	0
2023-09-06T06:00	1751	834	15.7	2.0	21	0
2023-09-06T06:00	1782	831	15.4	2.6	4	1
2023-09-06T06:00	1807	829	15.2	2.9	355	1
2023-09-06T06:00	1835	826	14.9	2.9	353	1
2023-09-06T06:00	1861	823	14.7	2.4	357	1
2023-09-06T06:00	1893	820	14.8	-3.8	6	2
2023-09-06T06:00	1918	818	15.2	-16.3	18	2
2023-09-06T06:00	1943	815	15.2	-18.2	27	2
2023-09-06T06:00	1970	813	15.2	-19.5	32	2
2023-09-06T06:00	1997	810	15.0	-19.6	31	2
2023-09-06T06:00	2024	808	14.9	-19.8	28	2
2023-09-06T06:00	2051	805	14.7	-19.8	22	3
2023-09-06T06:00	2083	802	14.4	-19.5	17	3
2023-09-06T06:00	2107	799	14.3	-19.1	12	3
2023-09-06T06:00	2135	797	14.1	-18.2	9	3
2023-09-06T06:00	2164	794	14.0	-14.5	9	3
2023-09-06T06:00	2198	791	13.9	-14.6	11	3
2023-09-06T06:00	2220	789	13.8	-13.4	14	3
2023-09-06T06:00	2250	786	13.5	-12.1	17	3
2023-09-06T06:00	2276	784	13.3	-10.9	20	2
2023-09-06T06:00	2305	781	12.9	-5.3	21	2
2023-09-06T06:00	2332	778	12.7	-4.5	20	2
2023-09-06T06:00	2360	776	12.5	-5.6	18	2
2023-09-06T06:00	2389	773	12.6	-13.0	15	2
2023-09-06T06:00	2418	771	12.7	-16.2	12	3
2023-09-06T06:00	2445	768	12.7	-17.5	8	3
2023-09-06T06:00	2475	765	12.7	-16.8	5	3
2023-09-06T06:00	2501	763	12.4	-13.1	1	3
2023-09-06T06:00	2527	761	12.3	-11.2	358	3
2023-09-06T06:00	2552	758	12.2	-11.2	356	3
2023-09-06T06:00	2584	755	12.0	-11.4	356	2
2023-09-06T06:00	2609	753	11.8	-11.6	356	3
2023-09-06T06:00	2638	750	11.6	-10.9	357	3
2023-09-06T06:00	2667	748	11.4	-9.9	355	3
2023-09-06T06:00	2695	745	11.2	-11.6	351	3
2023-09-06T06:00	2723	743	11.1	-11.7	345	3
2023-09-06T06:00	2750	741	10.8	-6.5	339	3
2023-09-06T06:00	2776	738	11.7	-24.6	335	4
2023-09-06T06:00	2806	735	11.9	-26.5	334	4
2023-09-06T06:00	2838	733	11.6	-17.9	335	4
2023-09-06T06:00	2866	730	11.3	-10.9	337	4
2023-09-06T06:00	2894	728	11.2	-13.0	340	5
2023-09-06T06:00	2924	725	11.3	-14.0	342	4
2023-09-06T06:00	2955	723	11.2	-14.6	343	4
2023-09-06T06:00	2984	720	11.3	-17.2	342	4
2023-09-06T06:00	3011	718	11.2	-15.4	339	4
2023-09-06T06:00	3040	715	11.0	-15.6	335	5
2023-09-06T06:00	3066	713	10.9	-16.1	332	5
2023-09-06T06:00	3092	711	10.9	-16.8	329	5
2023-09-06T06:00	3120	708	10.8	-17.5	328	5
2023-09-06T06:00	3149	706	10.7	-18.1	328	5
2023-09-06T06:00	3176	704	10.6	-18.9	330	4
2023-09-06T06:00	3208	701	10.5	-19.4	332	4
2023-09-06T06:00	3236	698	10.3	-19.4	336	5
2023-09-06T06:00	3267	696	10.0	-19.6	340	5
2023-09-06T06:00	3295	694	9.8	-19.6	344	5
2023-09-06T06:00	3326	691	9.6	-19.7	348	5
2023-09-06T06:00	3356	689	9.5	-21.7	351	5
2023-09-06T06:00	3380	686	9.4	-22.6	354	6
2023-09-06T06:00	3408	684	9.3	-24.1	355	5
2023-09-06T06:00	3440	681	9.3	-24.6	355	5
2023-09-06T06:00	3470	679	9.1	-22.1	353	5
2023-09-06T06:00	3498	677	8.9	-20.4	350	5
2023-09-06T06:00	3526	674	8.7	-19.0	347	5
2023-09-06T06:00	3554	672	8.5	-20.0	345	5
2023-09-06T06:00	3585	670	8.4	-22.3	343	5
2023-09-06T06:00	3610	668	8.3	-21.6	342	6
2023-09-06T06:00	3638	665	8.1	-17.6	341	6
2023-09-06T06:00	3670	663	7.8	-17.2	341	6
2023-09-06T06:00	3689	661	7.6	-17.2	341	7
2023-09-06T06:00	3715	659	7.4	-17.2	342	7
2023-09-06T06:00	3742	657	7.1	-17.2	342	7
2023-09-06T06:00	3772	655	6.9	-16.8	341	8
2023-09-06T06:00	3800	652	6.7	-15.7	340	7
2023-09-06T06:00	3832	650	6.5	-15.1	338	7
2023-09-06T06:00	3860	648	6.3	-14.1	334	6
2023-09-06T06:00	3888	646	6.0	-13.2	329	6
2023-09-06T06:00	3913	643	5.8	-12.6	323	5
2023-09-06T06:00	3940	641	5.6	-12.2	319	5
2023-09-06T06:00	3968	639	5.3	-10.9	317	5
2023-09-06T06:00	3994	637	5.0	-10.9	319	5
2023-09-06T06:00	4020	635	4.8	-10.7	323	5
2023-09-06T06:00	4053	633	4.5	-9.5	329	5
2023-09-06T06:00	4079	630	4.3	-9.8	336	5
2023-09-06T06:00	4107	628	4.2	-9.9	343	5
2023-09-06T06:00	4135	626	4.0	-10.2	349	5
2023-09-06T06:00	4168	624	3.8	-9.8	354	5
2023-09-06T06:00	4195	622	3.6	-9.4	357	6
2023-09-06T06:00	4225	619	3.3	-9.0	359	6
2023-09-06T06:00	4257	617	3.4	-10.7	1	6
2023-09-06T06:00	4287	615	3.3	-10.1	1	6
2023-09-06T06:00	4313	612	3.0	-9.7	0	6
2023-09-06T06:00	4343	610	2.9	-10.4	359	6
2023-09-06T06:00	4369	608	2.6	-10.4	358	6
2023-09-06T06:00	4398	606	2.4	-10.4	356	6
2023-09-06T06:00	4426	604	2.1	-10.9	354	6
2023-09-06T06:00	4452	602	1.9	-11.3	352	7
2023-09-06T06:00	4484	600	1.7	-12.9	348	7
2023-09-06T06:00	4513	598	1.6	-14.1	345	7
2023-09-06T06:00	4541	596	1.4	-14.4	342	8
2023-09-06T06:00	4567	593	1.2	-14.7	340	8
2023-09-06T06:00	4595	591	1.1	-15.5	339	8
2023-09-06T06:00	4622	589	1.0	-16.1	340	9
2023-09-06T06:00	4653	587	0.9	-16.8	341	9
2023-09-06T06:00	4687	585	0.7	-17.0	342	9
2023-09-06T06:00	4715	583	0.5	-16.9	344	10
2023-09-06T06:00	4743	581	0.3	-17.0	345	10
2023-09-06T06:00	4768	579	0.2	-16.8	345	10
2023-09-06T06:00	4801	577	-0.1	-17.0	345	10
2023-09-06T06:00	4830	574	-0.3	-16.9	345	10
2023-09-06T06:00	4860	572	-0.5		345	10
2023-09-06T06:00	4888	570	-0.8	-16.9	344	10
2023-09-06T06:00	4920	568	-1.0	-17.0	343	9
2023-09-06T06:00	4948	566	-1.2	-17.3	342	9
2023-09-06T06:00	4977	564	-1.4	-18.0	340	9
2023-09-06T06:00	5010	562	-1.5	-18.3	339	9
2023-09-06T06:00	5041	560	-1.8	-18.7	338	10
2023-09-06T06:00	5068	557	-2.0	-19.0	338	10
2023-09-06T06:00	5099	555	-2.2	-19.8	339	10
2023-09-06T06:00	5127	553	-2.3	-20.4	341	10
2023-09-06T06:00	5156	551	-2.6	-20.4	342	9
2023-09-06T06:00	5186	549	-2.9	-20.5	344	9
2023-09-06T06:00	5215	547	-3.0	-20.2	344	9
2023-09-06T06:00	5246	545	-3.3	-20.3	345	9
2023-09-06T06:00	5275	543	-3.5	-20.6	345	10
2023-09-06T06:00	5303	541	-3.8	-20.8	345	10
2023-09-06T06:00	5330	539	-4.0	-21.5	346	10
2023-09-06T06:00	5361	537	-4.3	-22.2	347	10
2023-09-06T06:00	5391	535	-4.5	-22.8	348	11
2023-09-06T06:00	5420	533	-4.7	-23.5	347	11
2023-09-06T06:00	5457	531	-5.0	-24.4	345	11
2023-09-06T06:00	5485	529	-5.1	-25.1	344	11
2023-09-06T06:00	5510	527	-5.4	-25.3	343	11
2023-09-06T06:00	5537	525	-5.6	-25.8	344	11
2023-09-06T06:00	5565	523	-5.8	-26.0	345	11
2023-09-06T06:00	5595	522	-5.9	-26.7	347	11
2023-09-06T06:00	5623	520	-6.1	-27.3	348	11
2023-09-06T06:00	5655	518	-6.3	-27.5	348	11
2023-09-06T06:00	5686	515	-6.5	-27.8	348	11
2023-09-06T06:00	5715	514	-6.7	-28.1	348	10
2023-09-06T06:00	5746	511	-6.9	-28.5	347	10
2023-09-06T06:00	5776	510	-7.1	-28.8	346	10
2023-09-06T06:00	5805	508	-7.3	-29.2	345	10
2023-09-06T06:00	5831	506	-7.4		344	10
2023-09-06T06:00	5864	504	-7.5	-30.6	344	10
2023-09-06T06:00	5891	502	-7.6	-31.2	343	11
2023-09-06T06:00	5922	500	-7.9	-31.6	344	11
2023-09-06T06:00	5952	498	-8.1	-31.8	345	12
2023-09-06T06:00	5980	496	-8.2	-33.1	346	12
2023-09-06T06:00	6004	495	-8.3	-33.6	347	13
2023-09-06T06:00	6038	493	-8.5	-34.4	348	13
2023-09-06T06:00	6069	491	-8.6	-32.6	349	13
2023-09-06T06:00	6096	489	-8.9	-32.3	349	12
2023-09-06T06:00	6124	487	-9.0	-33.9	349	12
2023-09-06T06:00	6156	485	-9.3	-34.8	349	11
2023-09-06T06:00	6187	483	-9.4	-35.6	349	11
2023-09-06T06:00	6214	482	-9.5	-36.1	349	11
2023-09-06T06:00	6244	480	-9.7	-36.3	349	11
2023-09-06T06:00	6276	478	-9.9	-36.4	348	11
2023-09-06T06:00	6308	476	-10.2	-35.9	346	11
2023-09-06T06:00	6335	474	-10.5	-35.8	345	11
2023-09-06T06:00	6367	472	-10.7	-35.6	343	11
2023-09-06T06:00	6395	470	-10.9	-35.0	342	12
2023-09-06T06:00	6422	469	-11.2	-34.4	341	12
2023-09-06T06:00	6448	467	-11.4	-33.4	341	12
2023-09-06T06:00	6474	466	-11.6	-33.1	341	12
2023-09-06T06:00	6504	464	-11.9	-33.1	341	12
2023-09-06T06:00	6536	462	-12.2	-33.6	341	12
2023-09-06T06:00	6565	460	-12.5	-34.7	342	12
2023-09-06T06:00	6592	458	-12.7	-36.0	343	12
2023-09-06T06:00	6628	456	-12.9	-37.3	345	12
2023-09-06T06:00	6657	455	-13.1	-37.4	347	12
2023-09-06T06:00	6680	453	-13.3	-37.5	349	11
2023-09-06T06:00	6709	451	-13.5	-37.4	349	11
2023-09-06T06:00	6743	449	-13.8	-37.2	349	11
2023-09-06T06:00	6772	448	-13.9	-37.6	349	11
2023-09-06T06:00	6804	446	-14.1	-39.2	349	11
2023-09-06T06:00	6835	444	-14.4	-38.9	349	11
2023-09-06T06:00	6864	442	-14.6	-38.6	349	12
2023-09-06T06:00	6892	441	-14.8	-38.6	349	12
2023-09-06T06:00	6917	439	-15.0	-38.9	349	12
2023-09-06T06:00	6945	438	-15.2	-39.3	349	12
2023-09-06T06:00	6977	436	-15.5	-39.4	349	12
2023-09-06T06:00	7011	434	-15.7	-40.1	350	12
2023-09-06T06:00	7038	432	-15.8	-40.3	350	12
2023-09-06T06:00	7062	431	-16.0	-38.5	349	12
2023-09-06T06:00	7089	429	-16.2	-38.5	348	12
2023-09-06T06:00	7115	428	-16.4	-38.5	347	12
2023-09-06T06:00	7138	427	-16.6	-38.5	345	12
2023-09-06T06:00	7165	425	-16.8	-37.8	344	12
2023-09-06T06:00	7197	423	-16.9	-40.4	344	12
2023-09-06T06:00	7225	422	-17.0	-41.0	344	12
2023-09-06T06:00	7250	420	-17.1	-42.1	344	12
2023-09-06T06:00	7282	418	-17.4	-42.5	345	12
2023-09-06T06:00	7311	417	-17.7	-42.6	345	13
2023-09-06T06:00	7344	415	-18.0	-42.9	345	13
2023-09-06T06:00	7378	413	-18.2	-43.2	345	13
2023-09-06T06:00	7402	412	-18.4	-43.4	346	13
2023-09-06T06:00	7431	410	-18.7	-43.4	345	13
2023-09-06T06:00	7452	409	-18.8	-43.4	345	13
2023-09-06T06:00	7476	408	-19.0	-43.7	345	13
2023-09-06T06:00	7503	406	-19.2	-43.9	345	13
2023-09-06T06:00	7535	404	-19.5	-44.1	345	13
2023-09-06T06:00	7566	403	-19.7	-44.3	346	13
2023-09-06T06:00	7596	401	-20.0	-44.4	347	14
2023-09-06T06:00	7628	400	-20.2	-44.7	347	14
2023-09-06T06:00	7652	398	-20.4	-44.7	347	14
2023-09-06T06:00	7685	396	-20.6	-44.9	346	14
2023-09-06T06:00	7716	395	-20.8	-44.7	345	14
2023-09-06T06:00	7747	393	-21.0	-43.5	344	14
2023-09-06T06:00	7778	391	-21.3	-41.7	343	14
2023-09-06T06:00	7806	390	-21.6	-41.6	342	14
2023-09-06T06:00	7833	388	-21.8	-41.3	341	14
2023-09-06T06:00	7858	387	-21.8	-44.9	339	14
2023-09-06T06:00	7883	386	-21.9	-44.9	337	14
2023-09-06T06:00	7910	384	-22.0	-45.2	335	14
2023-09-06T06:00	7934	383	-22.2	-45.5	334	14
2023-09-06T06:00	7957	382	-22.3	-46.6	334	13
2023-09-06T06:00	7983	381	-22.5	-47.1	334	13
2023-09-06T06:00	8005	379	-22.7	-47.2	334	13
2023-09-06T06:00	8034	378	-22.9	-46.9	334	13
2023-09-06T06:00	8067	376	-23.1	-46.7	333	13
2023-09-06T06:00	8094	375	-23.3	-47.0	332	13
2023-09-06T06:00	8122	373	-23.4	-47.1	332	13
2023-09-06T06:00	8152	372	-23.7	-47.1	333	13
2023-09-06T06:00	8180	371	-23.9	-47.1	334	13
2023-09-06T06:00	8203	369	-24.0	-47.4	335	13
2023-09-06T06:00	8234	368	-24.3	-47.5	335	13
2023-09-06T06:00	8267	366	-24.5	-46.8	335	13
2023-09-06T06:00	8292	365	-24.7	-46.7	334	13
2023-09-06T06:00	8314	364	-24.8	-46.8	334	13
2023-09-06T06:00	8341	363	-25.0	-44.1	333	12
2023-09-06T06:00	8364	361	-25.2	-44.7	334	12
2023-09-06T06:00	8387	360	-25.4	-42.5	334	12
2023-09-06T06:00	8408	359	-25.6	-39.6	334	12
2023-09-06T06:00	8430	358	-25.7	-38.8	335	12
2023-09-06T06:00	8455	357	-25.9	-37.4	334	12
2023-09-06T06:00	8481	356	-26.1	-37.9	334	12
2023-09-06T06:00	8503	354	-26.3	-38.0	333	12
2023-09-06T06:00	8529	353	-26.6	-38.5	333	11
2023-09-06T06:00	8552	352	-26.8	-38.7	332	11
2023-09-06T06:00	8577	351	-27.0	-38.4	332	11
2023-09-06T06:00	8603	349	-27.3	-37.9	332	11
2023-09-06T06:00	8638	348	-27.5	-38.3	333	11
2023-09-06T06:00	8660	347	-27.7	-38.5	334	11
2023-09-06T06:00	8685	346	-28.0	-38.7	336	11
2023-09-06T06:00	8708	344	-28.2	-39.0	339	11
2023-09-06T06:00	8731	343	-28.4	-39.0	341	11
2023-09-06T06:00	8757	342	-28.6	-39.4	342	11
2023-09-06T06:00	8780	341	-28.8	-39.7	343	11
2023-09-06T06:00	8803	340	-28.9	-39.9	343	11
2023-09-06T06:00	8831	339	-29.1	-40.3	342	11
2023-09-06T06:00	8852	338	-29.2	-40.6	341	11
2023-09-06T06:00	8877	336	-29.4	-41.1	341	11
2023-09-06T06:00	8904	335	-29.7	-41.3	341	12
2023-09-06T06:00	8933	334	-29.9	-41.6	341	12
2023-09-06T06:00	8958	333	-30.0	-42.5	342	11
2023-09-06T06:00	8987	331	-30.3	-42.3	342	11
2023-09-06T06:00	9013	330	-30.5	-42.5	342	12
2023-09-06T06:00	9033	329	-30.7	-43.1	342	12
2023-09-06T06:00	9061	328	-30.9	-44.0	341	12
2023-09-06T06:00	9084	327	-31.1	-44.6	340	12
2023-09-06T06:00	9109	326	-31.3	-45.0	339	13
2023-09-06T06:00	9135	324	-31.4	-47.2	339	13
2023-09-06T06:00	9159	323	-31.4	-49.4	339	13
2023-09-06T06:00	9183	322	-31.6	-50.0	339	13
2023-09-06T06:00	9206	321	-31.7	-50.7	339	13
2023-09-06T06:00	9231	320	-31.8	-51.3	340	14
2023-09-06T06:00	9255	319	-31.9	-51.6	341	14
2023-09-06T06:00	9278	318	-31.8	-50.7	342	14
2023-09-06T06:00	9302	317	-31.9	-50.6	343	14
2023-09-06T06:00	9328	316	-32.2	-51.9	343	14
2023-09-06T06:00	9353	314	-32.4	-51.8	343	14
2023-09-06T06:00	9381	313	-32.5	-53.3	343	14
2023-09-06T06:00	9409	312	-32.8	-53.1	343	14
2023-09-06T06:00	9438	311	-32.9	-53.3	343	14
2023-09-06T06:00	9462	310	-33.1	-53.3	344	14
2023-09-06T06:00	9492	308	-33.3	-53.3	345	14
2023-09-06T06:00	9519	307	-33.5	-52.9	346	14
2023-09-06T06:00	9547	306	-33.7	-53.1	346	14
2023-09-06T06:00	9570	305	-33.8	-51.1	346	14
2023-09-06T06:00	9593	304	-34.1	-49.8	345	14
2023-09-06T06:00	9620	303	-34.3	-49.1	345	13
2023-09-06T06:00	9647	302	-34.5	-47.8	345	13
2023-09-06T06:00	9675	300	-34.8	-48.2	346	13
2023-09-06T06:00	9717	299	-35.2	-49.3	347	13
2023-09-06T06:00	9740	298	-35.4	-50.4	348	13
2023-09-06T06:00	9762	297	-35.6	-51.2	349	13
2023-09-06T06:00	9783	296	-35.7	-52.0	351	13
2023-09-06T06:00	9804	295	-35.9	-52.4	352	13
2023-09-06T06:00	9828	294	-36.1	-52.7	352	12
2023-09-06T06:00	9849	293	-36.3	-52.9	353	12
2023-09-06T06:00	9871	292	-36.5	-53.1	353	12
2023-09-06T06:00	9894	291	-36.7	-54.3	353	12
2023-09-06T06:00	9915	290	-36.9	-55.6	353	12
2023-09-06T06:00	9940	289	-37.1	-55.5	353	12
2023-09-06T06:00	9963	288	-37.3	-55.2	352	12
2023-09-06T06:00	9991	287	-37.5	-54.8	351	12
2023-09-06T06:00	10016	286	-37.7	-54.8	350	12
2023-09-06T06:00	10038	285	-37.7	-54.9	349	12
2023-09-06T06:00	10059	284	-37.8	-55.3	348	11
2023-09-06T06:00	10082	283	-38.0	-55.3	347	11
2023-09-06T06:00	10105	282	-38.2	-55.4	346	11
2023-09-06T06:00	10129	281	-38.3	-56.0	345	11
2023-09-06T06:00	10157	280	-38.4	-56.4	345	11
2023-09-06T06:00	10178	279	-38.5	-56.2	344	11
2023-09-06T06:00	10198	279	-38.7	-56.1	344	11
2023-09-06T06:00	10218	278	-38.9	-56.1	344	12
2023-09-06T06:00	10239	277	-39.0	-56.2	344	12
2023-09-06T06:00	10262	276	-39.2	-56.4	344	12
2023-09-06T06:00	10283	275	-39.3	-56.6	345	12
2023-09-06T06:00	10303	274	-39.5	-56.9	345	12
2023-09-06T06:00	10325	273	-39.7	-57.0	345	13
2023-09-06T06:00	10348	273	-39.9	-57.3	345	13
2023-09-06T06:00	10369	272	-40.0	-57.4	346	13
2023-09-06T06:00	10392	271	-40.2	-57.7	346	14
2023-09-06T06:00	10412	270	-40.3	-57.9	347	14
2023-09-06T06:00	10434	269	-40.4	-58.4	347	14
2023-09-06T06:00	10454	268	-40.5	-58.9	347	14
2023-09-06T06:00	10475	267	-40.7	-58.7	347	14
2023-09-06T06:00	10499	267	-40.9	-58.1	347	14
2023-09-06T06:00	10522	266	-41.1	-57.7	347	14
2023-09-06T06:00	10542	265	-41.3	-57.4	347	14
2023-09-06T06:00	10564	264	-41.5	-56.9	346	15
2023-09-06T06:00	10587	263	-41.7	-56.5	346	15
2023-09-06T06:00	10609	262	-41.9	-56.3	346	15
2023-09-06T06:00	10631	261	-42.1	-56.4	346	15
2023-09-06T06:00	10653	261	-42.3	-56.1	346	15
2023-09-06T06:00	10677	260	-42.5	-56.0	346	15
2023-09-06T06:00	10702	259	-42.7	-55.7	346	15
2023-09-06T06:00	10726	258	-42.9	-54.8	346	15
2023-09-06T06:00	10750	257	-43.1	-55.0	347	15
2023-09-06T06:00	10775	256	-43.3	-55.4	347	14
2023-09-06T06:00	10798	255	-43.6	-55.5	347	14
2023-09-06T06:00	10821	254	-43.8	-55.4	347	14
2023-09-06T06:00	10844	253	-44.0	-55.3	347	14
2023-09-06T06:00	10867	252	-44.2	-54.8	347	14
2023-09-06T06:00	10889	252	-44.4	-54.5	347	14
2023-09-06T06:00	10912	251	-44.6	-55.0	346	14
2023-09-06T06:00	10935	250	-44.8	-56.8	345	14
2023-09-06T06:00	10957	249	-44.9	-58.5	345	14
2023-09-06T06:00	10980	248	-45.1	-58.9	344	14
2023-09-06T06:00	11004	247	-45.3	-58.1	344	14
2023-09-06T06:00	11025	247	-45.5	-57.7	344	14
2023-09-06T06:00	11048	246	-45.7	-57.5	344	14
2023-09-06T06:00	11070	245	-45.9	-57.1	344	14
2023-09-06T06:00	11091	244	-46.1	-57.0	345	14
2023-09-06T06:00	11113	243	-46.3	-57.0	345	14
2023-09-06T06:00	11135	243	-46.5	-57.1	345	14
2023-09-06T06:00	11156	242	-46.7	-57.4	345	14
2023-09-06T06:00	11180	241	-46.8	-57.9	344	14
2023-09-06T06:00	11201	240	-46.9	-58.9	344	14
2023-09-06T06:00	11226	239	-47.1	-60.0	343	14
2023-09-06T06:00	11251	238	-47.2	-60.1	343	14
2023-09-06T06:00	11277	237	-47.5	-59.6	342	14
2023-09-06T06:00	11303	236	-47.7	-59.4	342	14
2023-09-06T06:00	11329	235	-48.0	-59.4	342	14
2023-09-06T06:00	11354	235	-48.1	-59.7	342	14
2023-09-06T06:00	11375	234	-48.2	-59.7	343	14
2023-09-06T06:00	11396	233	-48.2	-58.1	343	14
2023-09-06T06:00	11419	232	-48.4	-57.7	344	14
2023-09-06T06:00	11440	232	-48.6	-58.1	344	14
2023-09-06T06:00	11461	231	-48.8	-58.6	344	14
2023-09-06T06:00	11481	230	-48.9	-60.0	343	14
2023-09-06T06:00	11500	229	-49.1	-61.9	343	14
2023-09-06T06:00	11523	229	-49.2	-61.3	343	14
2023-09-06T06:00	11543	228	-49.4	-59.1	343	14
2023-09-06T06:00	11561	227	-49.6	-56.9	343	14
2023-09-06T06:00	11583	227	-49.8	-56.0	343	14
2023-09-06T06:00	11602	226	-50.0	-56.3	343	14
2023-09-06T06:00	11625	225	-50.1	-56.5	344	14
2023-09-06T06:00	11645	224	-50.3	-56.6	344	14
2023-09-06T06:00	11668	224	-50.6	-56.7	345	14
2023-09-06T06:00	11687	223	-50.8	-56.9	345	14
2023-09-06T06:00	11709	222	-50.9	-57.3	346	14
2023-09-06T06:00	11731	221	-51.2	-57.1	347	14
2023-09-06T06:00	11752	221	-51.3	-56.1	347	15
2023-09-06T06:00	11773	220	-51.5	-55.6	347	15
2023-09-06T06:00	11793	219	-51.6	-56.1	347	15
2023-09-06T06:00	11813	219	-51.7	-57.3	347	16
2023-09-06T06:00	11836	218	-51.8	-58.7	346	16
2023-09-06T06:00	11858	217	-51.8	-60.1	346	16
2023-09-06T06:00	11880	216	-51.8	-60.0	345	16
2023-09-06T06:00	11899	216	-51.9	-58.3	345	16
2023-09-06T06:00	11919	215	-52.1	-57.2	345	16
2023-09-06T06:00	11939	214	-52.2	-56.7	345	16
2023-09-06T06:00	11960	214	-52.3	-56.8	345	16
2023-09-06T06:00	11983	213	-52.4	-57.2	345	16
2023-09-06T06:00	12003	212	-52.5	-57.8	345	16
2023-09-06T06:00	12024	212	-52.7	-58.1	345	16
2023-09-06T06:00	12045	211	-52.8	-58.0	345	15
2023-09-06T06:00	12064	210	-52.9	-57.9	345	15
2023-09-06T06:00	12086	210	-53.1	-57.9	345	15
2023-09-06T06:00	12107	209	-53.2	-58.0	346	15
2023-09-06T06:00	12127	208	-53.4	-58.3	346	15
2023-09-06T06:00	12147	208	-53.6	-58.3	346	15
2023-09-06T06:00	12170	207	-53.7	-58.2	346	15
2023-09-06T06:00	12189	206	-53.8	-58.2	346	15
2023-09-06T06:00	12209	206	-54.0	-58.4	346	15
2023-09-06T06:00	12229	205	-54.1	-58.4	345	15
2023-09-06T06:00	12254	204	-54.3	-58.5	345	15
2023-09-06T06:00	12274	204	-54.5	-58.7	344	15
2023-09-06T06:00	12294	203	-54.7	-58.7	344	15
2023-09-06T06:00	12315	202	-54.8	-58.6	343	15
2023-09-06T06:00	12336	202	-55.0	-58.7	343	15
2023-09-06T06:00	12358	201	-55.1	-58.8	342	15
2023-09-06T06:00	12377	200	-55.3	-59.2	342	15
2023-09-06T06:00	12397	200	-55.4	-59.6	341	15
2023-09-06T06:00	12418	199	-55.5	-60.2	340	15
2023-09-06T06:00	12441	198	-55.7	-60.9	340	15
2023-09-06T06:00	12461	198	-55.7	-61.6	340	15
2023-09-06T06:00	12482	197	-55.8	-62.5	340	15
2023-09-06T06:00	12503	196	-55.6	-62.7	339	15
2023-09-06T06:00	12524	196	-55.8	-62.8	339	15
2023-09-06T06:00	12545	195	-55.9	-62.5	339	15
2023-09-06T06:00	12565	194	-56.1	-62.3	338	15
2023-09-06T06:00	12588	194	-56.3	-62.2	338	15
2023-09-06T06:00	12610	193	-56.5	-62.2	338	15
2023-09-06T06:00	12632	193	-56.6	-62.4	339	15
2023-09-06T06:00	12653	192	-56.8	-62.6	339	14
2023-09-06T06:00	12675	191	-56.9	-62.6	339	14
2023-09-06T06:00	12697	191	-57.1	-63.0	339	14
2023-09-06T06:00	12719	190	-57.3	-63.6	339	14
2023-09-06T06:00	12742	189	-57.5	-64.2	339	14
2023-09-06T06:00	12764	189	-57.6	-64.4	340	14
2023-09-06T06:00	12785	188	-57.8	-64.6	340	14
2023-09-06T06:00	12807	187	-58.0	-64.6	341	14
2023-09-06T06:00	12829	187	-58.2	-64.7	342	14
2023-09-06T06:00	12852	186	-58.4	-64.8	342	13
2023-09-06T06:00	12874	185	-58.6	-64.9	343	13
2023-09-06T06:00	12894	185	-58.7	-64.9	343	13
2023-09-06T06:00	12916	184	-58.9	-64.9	343	13
2023-09-06T06:00	12938	183	-59.1	-65.0	343	13
2023-09-06T06:00	12960	183	-59.1	-65.2	342	13
2023-09-06T06:00	12985	182	-59.0	-65.7	343	14
2023-09-06T06:00	13005	181	-59.0	-66.5	343	14
2023-09-06T06:00	13029	181	-59.1	-67.2	343	14
2023-09-06T06:00	13051	180	-59.2	-67.3	344	14
2023-09-06T06:00	13073	179	-59.3	-67.1	344	14
2023-09-06T06:00	13097	179	-59.6	-66.8	345	14
2023-09-06T06:00	13120	178	-59.7	-66.1	345	14
2023-09-06T06:00	13143	177	-59.9	-65.4	345	15
2023-09-06T06:00	13162	177	-60.1	-64.8	346	15
2023-09-06T06:00	13185	176	-60.3	-64.6	346	15
2023-09-06T06:00	13208	176	-60.4	-64.6	346	15
2023-09-06T06:00	13230	175	-60.6	-64.8	346	16
2023-09-06T06:00	13253	174	-60.7	-65.0	346	16
2023-09-06T06:00	13275	174	-60.9	-65.1	345	16
2023-09-06T06:00	13296	173	-61.0	-65.1	344	16
2023-09-06T06:00	13316	173	-61.2	-65.2	343	16
2023-09-06T06:00	13342	172	-61.4	-65.2	343	16
2023-09-06T06:00	13366	171	-61.6	-65.4	342	17
2023-09-06T06:00	13389	171	-61.7	-65.4	342	17
2023-09-06T06:00	13410	170	-61.9	-65.5	342	17
2023-09-06T06:00	13432	169	-62.0	-65.6	342	17
2023-09-06T06:00	13457	169	-62.3	-65.8	342	17
2023-09-06T06:00	13479	168	-62.5	-65.9	342	17
2023-09-06T06:00	13502	167	-62.6	-66.0	342	17
2023-09-06T06:00	13524	167	-62.8	-66.1	341	17
2023-09-06T06:00	13545	166	-63.0	-66.3	341	17
2023-09-06T06:00	13567	166	-63.1	-66.4	341	17
2023-09-06T06:00	13589	165	-63.3	-66.6	341	17
2023-09-06T06:00	13610	165	-63.4	-66.7	340	17
2023-09-06T06:00	13632	164	-63.6	-66.9	339	17
2023-09-06T06:00	13654	163	-63.8	-67.1	339	18
2023-09-06T06:00	13677	163	-63.9	-67.2	338	18
2023-09-06T06:00	13696	162	-64.1	-67.4	337	18
2023-09-06T06:00	13719	162	-64.2	-67.6	337	18
2023-09-06T06:00	13739	161	-64.3	-67.9	337	18
2023-09-06T06:00	13762	161	-64.4	-68.1	338	18
2023-09-06T06:00	13781	160	-64.5	-68.4	339	19
2023-09-06T06:00	13801	159	-64.6	-68.6	339	19
2023-09-06T06:00	13822	159	-64.6	-68.9	340	19
2023-09-06T06:00	13844	158	-64.6	-69.2	341	20
2023-09-06T06:00	13863	158	-64.6	-69.5	341	20
2023-09-06T06:00	13882	157	-64.6	-69.7	341	20
2023-09-06T06:00	13905	157	-64.7	-69.9	342	20
2023-09-06T06:00	13925	156	-64.8	-69.9	342	20
2023-09-06T06:00	13947	156	-65.0	-69.9	343	20
2023-09-06T06:00	13967	155	-65.2	-70.2	343	20
2023-09-06T06:00	13988	155	-65.3	-70.6	343	20
2023-09-06T06:00	14011	154	-65.4	-71.3	344	20
2023-09-06T06:00	14032	154	-65.5	-72.2	343	19
2023-09-06T06:00	14052	153	-65.5	-72.9	343	19
2023-09-06T06:00	14072	153	-65.6	-73.7	342	18
2023-09-06T06:00	14096	152	-65.6	-74.1	342	17
2023-09-06T06:00	14116	151	-65.7	-74.5	342	17
2023-09-06T06:00	14138	151	-65.8	-74.8	342	16
2023-09-06T06:00	14158	150	-65.8	-74.9	343	16
2023-09-06T06:00	14183	150	-65.6	-74.9	344	15
2023-09-06T06:00	14201	149	-65.4	-74.9	345	15
2023-09-06T06:00	14225	149	-65.3	-75.0	345	15
2023-09-06T06:00	14246	148	-65.3	-75.2	345	16
2023-09-06T06:00	14267	148	-65.4	-75.5	345	16
2023-09-06T06:00	14289	147	-65.5	-75.8	345	16
2023-09-06T06:00	14311	147	-65.6	-76.1	346	17
2023-09-06T06:00	14333	146	-65.7	-76.5	346	17
2023-09-06T06:00	14356	146	-65.5	-76.7	346	17
2023-09-06T06:00	14378	145	-65.2	-77.0	346	17
2023-09-06T06:00	14400	145	-65.1	-77.4	345	17
2023-09-06T06:00	14418	144	-65.1	-77.9	344	17
2023-09-06T06:00	14443	144	-65.2	-78.2	343	17
2023-09-06T06:00	14465	143	-65.2	-78.3	342	17
2023-09-06T06:00	14486	143	-65.2	-78.4	342	17
2023-09-06T06:00	14510	142	-65.3	-78.5	342	17
2023-09-06T06:00	14533	141	-65.5	-78.7	342	17
2023-09-06T06:00	14557	141	-65.7	-78.8	342	16
2023-09-06T06:00	14582	140	-65.6	-78.6	341	16
2023-09-06T06:00	14603	140	-65.7	-78.5	340	16
2023-09-06T06:00	14626	139	-65.9	-78.5	339	15
2023-09-06T06:00	14648	139	-66.0	-78.4	338	15
2023-09-06T06:00	14670	138	-66.0	-78.4	337	15
2023-09-06T06:00	14694	138	-66.2	-78.6	336	15
2023-09-06T06:00	14719	137	-66.1	-78.7	334	15
2023-09-06T06:00	14741	137	-66.0	-78.9	333	15
2023-09-06T06:00	14762	136	-65.8	-79.2	331	15
2023-09-06T06:00	14785	136	-65.9	-79.7	330	16
2023-09-06T06:00	14807	135	-66.0	-80.2	330	16
2023-09-06T06:00	14830	135	-65.8	-80.5	329	16
2023-09-06T06:00	14857	134	-65.4	-80.5	329	17
2023-09-06T06:00	14879	134	-65.0	-80.7	329	17
2023-09-06T06:00	14901	133	-65.2	-81.2	330	17
2023-09-06T06:00	14923	133	-65.3	-81.5	331	17
2023-09-06T06:00	14946	132	-65.1	-81.6	332	17
2023-09-06T06:00	14967	132	-64.9	-81.6	333	17
2023-09-06T06:00	14988	131	-64.8	-81.7	333	17
2023-09-06T06:00	15009	131	-64.9	-81.9	334	17
2023-09-06T06:00	15032	130	-65.0	-82.1	333	17
2023-09-06T06:00	15055	130	-65.1	-82.1	333	17
2023-09-06T06:00	15076	129	-65.2	-82.2	333	17
2023-09-06T06:00	15098	129	-65.4	-82.4	333	17
2023-09-06T06:00	15119	128	-65.5	-82.5	333	16
2023-09-06T06:00	15142	128	-65.6	-82.6	335	16
2023-09-06T06:00	15163	128	-65.4	-82.6	337	16
2023-09-06T06:00	15187	127	-65.1	-82.7	339	17
2023-09-06T06:00	15208	127	-64.9	-82.7	341	17
2023-09-06T06:00	15232	126	-64.8	-82.8	343	17
2023-09-06T06:00	15252	126	-64.8	-82.8	344	17
2023-09-06T06:00	15277	125	-64.9	-83.0	346	17
2023-09-06T06:00	15302	125	-65.1	-83.2	347	17
2023-09-06T06:00	15322	124	-65.0	-83.2	347	16
2023-09-06T06:00	15344	124	-65.0	-83.3	347	15
2023-09-06T06:00	15366	123	-65.0	-83.5	348	14
2023-09-06T06:00	15389	123	-65.0	-83.8	348	14
2023-09-06T06:00	15411	122	-64.9	-83.9	348	13
2023-09-06T06:00	15434	122	-64.7	-83.8	349	13
2023-09-06T06:00	15455	122	-64.5	-83.8	349	12
2023-09-06T06:00	15477	121	-64.6	-83.9	349	12
2023-09-06T06:00	15500	121	-64.8	-83.9	349	11
2023-09-06T06:00	15522	120	-64.9	-84.0	347	11
2023-09-06T06:00	15547	120	-65.0	-84.1	346	10
2023-09-06T06:00	15570	119	-65.1	-84.1	344	10
2023-09-06T06:00	15591	119	-65.2	-84.1	343	10
2023-09-06T06:00	15616	118	-65.2	-84.0	342	10
2023-09-06T06:00	15640	118	-65.2	-84.1	342	10
2023-09-06T06:00	15659	118	-65.2	-84.1	341	10
2023-09-06T06:00	15686	117	-65.1	-84.2	339	10
2023-09-06T06:00	15710	117	-64.8	-83.9	336	10
2023-09-06T06:00	15734	116	-64.8	-84.0	333	9
2023-09-06T06:00	15758	116	-64.9	-84.1	330	9
2023-09-06T06:00	15781	115	-64.9	-84.1	328	9
2023-09-06T06:00	15804	115	-64.8	-84.2	326	9
2023-09-06T06:00	15825	114	-64.7	-84.2	326	9
2023-09-06T06:00	15849	114	-64.5	-84.2	326	9
2023-09-06T06:00	15873	114	-64.1	-84.1	326	9
2023-09-06T06:00	15894	113	-64.0	-84.1	326	8
2023-09-06T06:00	15915	113	-63.7	-84.0	326	8
2023-09-06T06:00	15940	112	-63.6	-84.1	326	8
2023-09-06T06:00	15964	112	-63.6		328	7
2023-09-06T06:00	15989	111	-63.6		330	7
2023-09-06T06:00	16011	111	-63.6		333	7
2023-09-06T06:00	16035	111	-63.5	-84.1	336	7
2023-09-06T06:00	16056	110	-63.4	-84.0	339	7
2023-09-06T06:00	16079	110	-63.5	-84.1	340	7
2023-09-06T06:00	16103	109	-63.6		340	7
2023-09-06T06:00	16125	109	-63.8	-84.2	339	8
2023-09-06T06:00	16150	109	-64.0	-84.4	338	8
2023-09-06T06:00	16173	108	-64.1	-84.3	337	8
2023-09-06T06:00	16197	108	-64.0	-84.3	337	7
2023-09-06T06:00	16219	107	-63.9	-84.2	338	7
2023-09-06T06:00	16244	107	-64.0	-84.4	339	7
2023-09-06T06:00	16266	106	-64.0	-84.4	340	7
2023-09-06T06:00	16290	106	-63.9	-84.5	340	7
2023-09-06T06:00	16310	106	-63.9	-84.5	339	7
2023-09-06T06:00	16335	105	-63.8	-84.5	336	7
2023-09-06T06:00	16359	105	-63.8	-84.5	334	7
2023-09-06T06:00	16380	104	-63.9	-84.7	331	7
2023-09-06T06:00	16401	104	-64.0	-84.8	329	7
2023-09-06T06:00	16426	104	-64.1	-84.9	327	6
2023-09-06T06:00	16452	103	-64.0	-84.7	325	6
2023-09-06T06:00	16476	103	-64.1	-84.8	324	5
2023-09-06T06:00	16499	102	-64.2	-85.0	322	5
2023-09-06T06:00	16520	102	-64.3	-85.1	319	4
2023-09-06T06:00	16545	102	-64.3	-85.1	316	4
2023-09-06T06:00	16569	101	-64.2	-85.1	314	4
2023-09-06T06:00	16592	101	-64.2	-85.3	311	4
2023-09-06T06:00	16613	101	-64.1	-85.4	309	3
2023-09-06T06:00	16637	100	-63.9	-85.4	307	3
2023-09-06T06:00	16659	100	-63.9	-85.4	307	3
2023-09-06T06:00	16679	99	-63.7	-85.4	309	3
2023-09-06T06:00	16703	99	-63.5	-85.4	312	4
2023-09-06T06:00	16725	99	-63.5	-85.4	315	4
2023-09-06T06:00	16748	98	-63.5	-85.6	319	4
2023-09-06T06:00	16773	98	-63.5	-85.6	322	4
2023-09-06T06:00	16797	98	-63.5	-85.6	323	4
2023-09-06T06:00	16818	97	-63.6	-85.6	323	4
2023-09-06T06:00	16844	97	-63.6	-85.6	321	4
2023-09-06T06:00	16868	97	-63.7	-85.9	318	5
2023-09-06T06:00	16890	96	-63.8	-86.0	316	5
2023-09-06T06:00	16913	96	-63.9	-86.1	314	5
2023-09-06T06:00	16936	95	-63.9	-86.1	312	4
2023-09-06T06:00	16962	95	-63.8	-86.0	312	4
2023-09-06T06:00	16986	95	-63.8	-86.0	311	4
2023-09-06T06:00	17011	94	-64.0	-86.1	311	4
2023-09-06T06:00	17034	94	-64.0	-86.1	310	4
2023-09-06T06:00	17061	94	-64.1	-86.2	311	4
2023-09-06T06:00	17087	93	-64.3	-86.4	312	4
2023-09-06T06:00	17113	93	-64.2	-86.5	313	4
2023-09-06T06:00	17134	92	-64.2	-86.5	315	4
2023-09-06T06:00	17157	92	-64.1	-86.4	316	4
2023-09-06T06:00	17182	92	-63.9	-86.3	318	4
2023-09-06T06:00	17202	91	-64.0	-86.5	319	4
2023-09-06T06:00	17228	91	-64.0	-86.5	319	4
2023-09-06T06:00	17249	91	-63.8	-86.4	320	5
2023-09-06T06:00	17273	90	-63.8	-86.6	321	5
2023-09-06T06:00	17296	90	-63.8	-86.6	321	6
2023-09-06T06:00	17320	90	-64.0	-86.7	322	6
2023-09-06T06:00	17345	89	-63.8	-86.6	323	6
2023-09-06T06:00	17367	89	-63.7	-86.7	324	7
2023-09-06T06:00	17392	89	-63.5	-86.5	326	7
2023-09-06T06:00	17415	88	-63.5	-86.5	327	7
2023-09-06T06:00	17437	88	-63.5	-86.5	328	7
2023-09-06T06:00	17462	88	-63.5	-86.7	328	7
2023-09-06T06:00	17487	87	-63.4	-86.7	326	6
2023-09-06T06:00	17510	87	-63.3	-86.6	322	6
2023-09-06T06:00	17536	87	-63.5	-86.7	317	6
2023-09-06T06:00	17559	86	-63.7	-87.1	312	6
2023-09-06T06:00	17583	86	-63.4	-87.1	309	6
2023-09-06T06:00	17608	86	-62.7	-86.8	308	6
2023-09-06T06:00	17633	85	-62.4	-86.8	311	6
2023-09-06T06:00	17658	85	-62.3	-86.7	316	6
2023-09-06T06:00	17682	84	-62.3	-87.0	322	6
2023-09-06T06:00	17707	84	-62.3	-87.3	329	6
2023-09-06T06:00	17730	84	-62.0	-87.1	335	6
2023-09-06T06:00	17757	83	-61.4	-86.9	339	7
2023-09-06T06:00	17781	83	-61.1	-86.6	342	7
2023-09-06T06:00	17805	83	-60.9	-86.8	342	7
2023-09-06T06:00	17832	83	-60.9	-86.8	339	7
2023-09-06T06:00	17856	82	-60.9	-86.8	334	7
2023-09-06T06:00	17881	82	-60.8		327	7
2023-09-06T06:00	17911	81	-60.8	-86.4	320	7
2023-09-06T06:00	17937	81	-61.0	-86.6	314	8
2023-09-06T06:00	17962	81	-61.2	-86.7	310	8
2023-09-06T06:00	17983	80	-61.3	-86.8	308	8
2023-09-06T06:00	18006	80	-61.5	-87.0	309	8
2023-09-06T06:00	18031	80	-61.6	-87.0	313	8
2023-09-06T06:00	18058	80	-61.1	-86.6	319	8
2023-09-06T06:00	18081	79	-60.9	-86.8	326	7
2023-09-06T06:00	18108	79	-60.7	-87.0	334	7
2023-09-06T06:00	18131	79	-60.6	-86.9	341	7
2023-09-06T06:00	18155	78	-60.6	-86.9	348	7
2023-09-06T06:00	18177	78	-60.6	-86.9	354	7
2023-09-06T06:00	18203	78	-60.5	-86.8	359	6
2023-09-06T06:00	18229	77	-60.1	-86.8	4	6
2023-09-06T06:00	18253	77	-60.1	-86.8	9	6
2023-09-06T06:00	18279	77	-60.1	-86.8	14	5
2023-09-06T06:00	18304	76	-60.2	-86.9	16	4
2023-09-06T06:00	18326	76	-60.1	-86.8	17	4
2023-09-06T06:00	18355	76	-60.0	-86.8	13	4
2023-09-06T06:00	18377	76	-59.6	-86.8	6	3
2023-09-06T06:00	18401	75	-59.5	-86.8	358	4
2023-09-06T06:00	18425	75	-59.3	-86.6	351	4
2023-09-06T06:00	18450	75	-59.2	-86.5	347	5
2023-09-06T06:00	18473	74	-59.3	-86.6	345	5
2023-09-06T06:00	18501	74	-59.5	-86.4	344	6
2023-09-06T06:00	18523	74	-59.7	-86.5	343	7
2023-09-06T06:00	18549	74	-59.8	-86.6	342	8
2023-09-06T06:00	18575	73	-59.9	-86.7	340	8
2023-09-06T06:00	18600	73	-59.9	-86.7	339	9
2023-09-06T06:00	18623	73	-59.8	-86.6	338	10
2023-09-06T06:00	18650	72	-59.6	-86.8	337	10
2023-09-06T06:00	18672	72	-59.4	-86.7	337	10
2023-09-06T06:00	18694	72	-59.4	-86.7	337	9
2023-09-06T06:00	18724	71	-59.6	-86.5	338	9
2023-09-06T06:00	18750	71	-59.8	-86.6	339	9
2023-09-06T06:00	18773	71	-59.8	-86.6	340	9
2023-09-06T06:00	18797	71	-59.7	-86.5	342	9
2023-09-06T06:00	18823	70	-59.6	-86.5	343	9
2023-09-06T06:00	18846	70	-59.7	-86.9	346	9
2023-09-06T06:00	18873	70	-59.7	-86.9	349	10
2023-09-06T06:00	18899	70	-59.6	-86.8	352	10
2023-09-06T06:00	18921	69	-59.5	-86.8	355	10
2023-09-06T06:00	18947	69	-59.2	-86.9	359	10
2023-09-06T06:00	18971	69	-59.2	-86.9	2	10
2023-09-06T06:00	18998	68	-59.0	-86.8	5	10
2023-09-06T06:00	19024	68	-58.8	-86.6	8	10
2023-09-06T06:00	19042	68	-58.7	-86.5	10	10
2023-09-06T06:00	19067	68	-58.7	-86.5	13	10
2023-09-06T06:00	19093	67	-58.7	-86.5	16	9
2023-09-06T06:00	19119	67	-58.8	-86.6	19	9
2023-09-06T06:00	19142	67	-58.9	-86.3	23	9
2023-09-06T06:00	19167	67	-59.0	-86.4	26	9
2023-09-06T06:00	19195	66	-59.0	-86.8	30	9
2023-09-06T06:00	19217	66	-58.9	-86.7	35	9
2023-09-06T06:00	19237	66	-59.0	-86.8	39	9
2023-09-06T06:00	19265	66	-59.1	-86.8	44	9
2023-09-06T06:00	19290	65	-59.0	-86.8	49	8
2023-09-06T06:00	19314	65	-58.9	-86.7	53	8
2023-09-06T06:00	19340	65	-58.8	-86.6	57	7
2023-09-06T06:00	19365	65	-58.8	-86.6	62	7
2023-09-06T06:00	19389	64	-58.9	-86.7	67	6
2023-09-06T06:00	19411	64	-58.9	-86.7	75	5
2023-09-06T06:00	19434	64	-58.6	-86.5	85	5
2023-09-06T06:00	19459	64	-58.7	-86.5	97	4
2023-09-06T06:00	19485	63	-58.8	-86.6	110	4
2023-09-06T06:00	19509	63	-58.5	-86.4	122	4
2023-09-06T06:00	19534	63	-58.4	-86.3	131	4
2023-09-06T06:00	19555	63	-58.5	-86.4	138	4
2023-09-06T06:00	19578	62	-58.6	-86.5	143	3
2023-09-06T06:00	19602	62	-58.7	-86.5	147	3
2023-09-06T06:00	19627	62	-58.9	-86.7	154	2
2023-09-06T06:00	19650	62	-59.0	-86.4	163	2
2023-09-06T06:00	19669	61	-59.1	-86.5	179	2
2023-09-06T06:00	19695	61	-59.3	-86.6	198	1
2023-09-06T06:00	19719	61	-59.4	-86.7	215	1
2023-09-06T06:00	19744	61	-59.4	-86.7	226	1
2023-09-06T06:00	19767	61	-59.3	-86.6	234	0
2023-09-06T06:00	19794	60	-59.3	-86.6	48	0
2023-09-06T06:00	19816	60	-59.3	-86.6	48	1
2023-09-06T06:00	19844	60	-59.5	-86.8	45	1
2023-09-06T06:00	19868	60	-59.7	-86.9	43	2
2023-09-06T06:00	19897	59	-59.8	-87.0	43	2
2023-09-06T06:00	19920	59	-59.7	-86.9	44	2
2023-09-06T06:00	19943	59	-59.7	-86.9	47	2
2023-09-06T06:00	19971	59	-59.6	-86.8	50	2
2023-09-06T06:00	19995	58	-59.7	-86.9	52	2
2023-09-06T06:00	20022	58	-59.6	-86.8	55	2
2023-09-06T06:00	20045	58	-59.7	-86.9	59	1
2023-09-06T06:00	20069	58	-59.8	-87.0	66	1
2023-09-06T06:00	20095	57	-59.8	-87.0	76	1
2023-09-06T06:00	20121	57	-59.7	-86.9	85	0
2023-09-06T06:00	20148	57	-59.8	-87.0	311	0
2023-09-06T06:00	20176	57	-59.8	-87.0	319	1
2023-09-06T06:00	20197	57	-59.5	-87.1	335	1
2023-09-06T06:00	20221	56	-59.3	-87.0	351	1
2023-09-06T06:00	20248	56	-59.4	-87.1	5	1
2023-09-06T06:00	20270	56	-59.4	-87.1	18	2
2023-09-06T06:00	20296	56	-59.5	-87.1	27	2
2023-09-06T06:00	20326	55	-59.5	-86.8	31	2
2023-09-06T06:00	20349	55	-59.6	-86.8	33	2
2023-09-06T06:00	20376	55	-59.7	-86.9	30	2
2023-09-06T06:00	20400	55	-59.6	-86.8	22	2
2023-09-06T06:00	20428	54	-59.4	-86.7	6	1
2023-09-06T06:00	20452	54	-59.3	-87.0	342	1
2023-09-06T06:00	20477	54	-59.4	-87.1	322	2
2023-09-06T06:00	20502	54	-59.5	-87.1	313	2
2023-09-06T06:00	20529	54	-59.5	-87.1	311	3
2023-09-06T06:00	20553	53	-59.3	-87.0	313	4
2023-09-06T06:00	20576	53	-59.1	-87.3	316	5
2023-09-06T06:00	20606	53	-58.9	-87.1	321	5
2023-09-06T06:00	20632	53	-58.7	-87.0	327	6
2023-09-06T06:00	20653	53	-58.5	-86.8	333	6
2023-09-06T06:00	20679	52	-58.3	-86.7	339	7
2023-09-06T06:00	20705	52	-58.2	-87.0	346	7
2023-09-06T06:00	20732	52	-58.1	-87.0	352	7
2023-09-06T06:00	20758	52	-58.1	-87.0	357	8
2023-09-06T06:00	20779	52	-58.0	-86.9	2	8
2023-09-06T06:00	20805	51	-57.9	-86.8	7	8
2023-09-06T06:00	20830	51	-57.8	-86.7	10	7
2023-09-06T06:00	20855	51	-57.6	-86.6	13	7
2023-09-06T06:00	20876	51	-57.6	-86.6	15	6
2023-09-06T06:00	20906	50	-57.6	-86.1	15	6
2023-09-06T06:00	20928	50	-57.7	-86.2	13	5
2023-09-06T06:00	20952	50	-57.7	-86.2	8	5
2023-09-06T06:00	20981	50	-57.7	-86.2	360	4
2023-09-06T06:00	21001	50	-57.9	-86.4	349	4
2023-09-06T06:00	21032	50	-58.0	-86.4	336	4
2023-09-06T06:00	21054	49	-58.0	-86.4	323	3
2023-09-06T06:00	21082	49	-57.9	-86.4	310	3
2023-09-06T06:00	21107	49	-57.7	-86.7	301	3
2023-09-06T06:00	21133	49	-57.4	-86.4	299	2
2023-09-06T06:00	21159	49	-57.3	-86.4	308	2
2023-09-06T06:00	21181	48	-57.3	-86.4	326	2
2023-09-06T06:00	21210	48	-57.2	-86.3	347	2
2023-09-06T06:00	21234	48	-57.2	-86.3	7	3
2023-09-06T06:00	21260	48	-57.1	-86.2	24	3
2023-09-06T06:00	21285	48	-57.0	-86.1	38	3
2023-09-06T06:00	21315	47	-56.9	-86.1	50	4
2023-09-06T06:00	21344	47	-56.8	-86.0	58	4
2023-09-06T06:00	21369	47	-56.8	-86.0	62	4
2023-09-06T06:00	21391	47	-56.9	-86.1	63	4
2023-09-06T06:00	21418	47	-56.9	-86.1	61	3
2023-09-06T06:00	21446	46	-56.6	-85.8	56	2
2023-09-06T06:00	21470	46	-56.5	-85.8	46	2
2023-09-06T06:00	21499	46	-56.7	-85.9	31	1
2023-09-06T06:00	21522	46	-56.9	-85.6	3	1
2023-09-06T06:00	21543	46	-57.1	-85.7	313	1
2023-09-06T06:00	21569	45	-57.3	-85.9	281	1
2023-09-06T06:00	21595	45	-57.5	-86.1	271	2
2023-09-06T06:00	21624	45	-57.7	-85.8	269	2
2023-09-06T06:00	21648	45	-57.9		271	3
2023-09-06T06:00	21670	45	-58.1		274	3
2023-09-06T06:00	21696	45	-58.2	-86.2	279	3
2023-09-06T06:00	21721	44	-58.4	-86.3	284	4
2023-09-06T06:00	21750	44	-58.5	-86.4	290	4
2023-09-06T06:00	21779	44	-58.6	-86.5	296	5
2023-09-06T06:00	21803	44	-58.7	-86.5	303	5
2023-09-06T06:00	21832	44	-58.8	-86.6	311	6
2023-09-06T06:00	21857	43	-58.8	-86.6	319	6
2023-09-06T06:00	21880	43	-58.7	-87.0	328	6
2023-09-06T06:00	21904	43	-58.4	-86.7	337	6
2023-09-06T06:00	21930	43	-58.2	-86.6	346	6
2023-09-06T06:00	21961	43	-58.3	-86.7	356	6
2023-09-06T06:00	21985	43	-58.3	-86.7	4	6
2023-09-06T06:00	22014	42	-58.2	-86.6	10	6
2023-09-06T06:00	22037	42	-58.1	-86.5	11	6
2023-09-06T06:00	22067	42	-58.0	-86.4	10	6
2023-09-06T06:00	22091	42	-58.0	-86.4	5	6
2023-09-06T06:00	22115	42	-58.0	-86.9	359	6
2023-09-06T06:00	22146	41	-57.9	-86.8	354	6
2023-09-06T06:00	22171	41	-57.7	-86.7	350	6
2023-09-06T06:00	22199	41	-57.6	-86.6	347	6
2023-09-06T06:00	22224	41	-57.3	-86.4	347	6
2023-09-06T06:00	22250	41	-57.3	-86.4	349	6
2023-09-06T06:00	22280	41	-57.4	-86.4	353	6
2023-09-06T06:00	22306	40	-57.3	-86.4	360	6
2023-09-06T06:00	22333	40	-57.3	-86.4	8	6
2023-09-06T06:00	22362	40	-57.5	-86.1	17	6
2023-09-06T06:00	22389	40	-57.6	-86.1	25	6
2023-09-06T06:00	22412	40	-57.7	-86.2	33	6
2023-09-06T06:00	22442	40	-57.7	-86.2	39	6
2023-09-06T06:00	22466	39	-57.7	-86.2	44	6
2023-09-06T06:00	22493	39	-57.8	-86.3	47	7
2023-09-06T06:00	22515	39	-57.7	-86.7	49	6
2023-09-06T06:00	22543	39	-57.5	-86.5	51	6
2023-09-06T06:00	22566	39	-57.3	-86.4	54	6
2023-09-06T06:00	22592	39	-57.1	-86.2	58	5
2023-09-06T06:00	22616	38	-57.0	-86.1	62	5
2023-09-06T06:00	22645	38	-56.8	-86.0	67	5
2023-09-06T06:00	22672	38	-56.8	-86.0	72	5
2023-09-06T06:00	22699	38	-56.8	-86.0	77	5
2023-09-06T06:00	22722	38	-56.8	-86.0	84	4
2023-09-06T06:00	22749	38	-57.0	-86.1	93	4
2023-09-06T06:00	22774	38	-57.0	-86.1	102	4
2023-09-06T06:00	22805	37	-56.9	-86.1	111	4
2023-09-06T06:00	22828	37	-56.9	-86.1	119	4
2023-09-06T06:00	22857	37	-56.8	-86.0	125	3
2023-09-06T06:00	22880	37	-56.8	-86.0	130	3
2023-09-06T06:00	22912	37	-56.8	-86.0	133	2
2023-09-06T06:00	22933	37	-56.9	-86.1	130	2
2023-09-06T06:00	22965	36	-56.9	-86.1	108	1
2023-09-06T06:00	22992	36	-56.6	-86.3	49	1
2023-09-06T06:00	23017	36	-56.4	-86.2	21	2
2023-09-06T06:00	23049	36	-56.4	-86.2	13	2
2023-09-06T06:00	23071	36	-56.4	-86.2	10	3
2023-09-06T06:00	23097	36	-56.4	-86.2	9	3
2023-09-06T06:00	23131	36	-56.3	-86.1	9	3
2023-09-06T06:00	23160	35	-56.3	-86.1	9	3
2023-09-06T06:00	23179	35	-56.3	-86.1	10	2
2023-09-06T06:00	23211	35	-56.4	-85.7	12	2
2023-09-06T06:00	23236	35	-56.5	-85.8	15	2
2023-09-06T06:00	23268	35	-56.6	-85.8	17	1
2023-09-06T06:00	23296	35	-56.7	-85.9	16	1
2023-09-06T06:00	23325	34	-56.7	-85.9	8	1
2023-09-06T06:00	23349	34	-56.8	-86.0	358	2
2023-09-06T06:00	23378	34	-56.7	-85.9	352	2
2023-09-06T06:00	23401	34	-56.7	-85.9	349	3
2023-09-06T06:00	23428	34	-56.8	-86.0	348	3
2023-09-06T06:00	23450	34	-56.9	-86.1	347	3
2023-09-06T06:00	23481	34	-56.9	-86.1	346	3
2023-09-06T06:00	23506	33	-56.8	-86.0	344	4
2023-09-06T06:00	23530	33	-56.8	-86.0	342	4
2023-09-06T06:00	23564	33	-56.7	-86.4	342	4
2023-09-06T06:00	23593	33	-56.5	-86.3	343	5
2023-09-06T06:00	23618	33	-56.4	-86.2	346	5
2023-09-06T06:00	23645	33	-56.4	-86.2	350	6
2023-09-06T06:00	23670	33	-56.3	-86.1	354	6
2023-09-06T06:00	23695	32	-56.2	-86.0	358	6
2023-09-06T06:00	23730	32	-56.1	-86.0	2	6
2023-09-06T06:00	23759	32	-56.0	-85.9	7	5
2023-09-06T06:00	23791	32	-55.7	-86.2	13	4
2023-09-06T06:00	23819	32	-55.3	-85.9	22	3
2023-09-06T06:00	23848	32	-55.2	-85.8	40	2
2023-09-06T06:00	23877	32	-55.3	-85.4	88	1
2023-09-06T06:00	23911	31	-55.5	-85.5	137	2
2023-09-06T06:00	23943	31	-55.7	-85.7	154	3
2023-09-06T06:00	23967	31	-55.8	-85.7	159	3
2023-09-06T06:00	23997	31	-55.9	-85.8	159	3
2023-09-06T06:00	24025	31	-55.6	-85.6	157	3
2023-09-06T06:00	24054	31	-55.4	-85.4	154	3
2023-09-06T06:00	24077	31	-55.5	-85.5	152	2
2023-09-06T06:00	24105	30	-55.5	-85.5	154	2
2023-09-06T06:00	24131	30	-55.4	-85.4	162	2
2023-09-06T06:00	24152	30	-55.4	-85.4	176	1
2023-09-06T06:00	24179	30	-55.4	-85.4	191	1
2023-09-06T06:00	24204	30	-55.4	-85.4	201	1
2023-09-06T06:00	24229	30	-55.5	-85.5	205	1
2023-09-06T06:00	24254	30	-55.4	-85.4	199	1
2023-09-06T06:00	24290	30	-55.4	-85.4	180	1
2023-09-06T06:00	24316	29	-55.5	-85.5	153	1
2023-09-06T06:00	24344	29	-55.7	-85.7	132	1
2023-09-06T06:00	24375	29	-55.9	-85.3	122	2
2023-09-06T06:00	24402	29	-56.1	-85.5	118	2
2023-09-06T06:00	24431	29	-56.4	-85.7	119	3
2023-09-06T06:00	24453	29	-56.4	-85.7	121	3
2023-09-06T06:00	24480	29	-56.4	-86.2	123	4
2023-09-06T06:00	24515	29	-56.1	-86.0	124	4
2023-09-06T06:00	24534	28	-55.9	-85.8	124	5
2023-09-06T06:00	24566	28	-55.8	-85.7	123	5
2023-09-06T06:00	24594	28	-55.6	-86.1	121	6
2023-09-06T06:00	24618	28	-55.4	-86.0	121	5
2023-09-06T06:00	24648	28	-55.5	-86.1	123	5
2023-09-06T06:00	24683	28	-55.7	-86.2	128	4
2023-09-06T06:00	24709	28	-55.5	-86.1	137	4
2023-09-06T06:00	24730	28	-55.3	-85.9	152	3
2023-09-06T06:00	24765	27	-55.1	-85.8	170	3
2023-09-06T06:00	24786	27	-54.8	-85.5	185	4
2023-09-06T06:00	24821	27	-54.6	-86.0	196	4
2023-09-06T06:00	24842	27	-54.5	-85.9	204	4
2023-09-06T06:00	24867	27	-54.2	-85.7	210	4
2023-09-06T06:00	24897	27	-53.6	-85.3	214	4
2023-09-06T06:00	24920	27	-53.3	-85.0	218	4
2023-09-06T06:00	24956	27	-53.1	-84.9	222	3
2023-09-06T06:00	24984	27	-53.0	-84.8	230	2
2023-09-06T06:00	25008	26	-52.8	-84.7	255	1
2023-09-06T06:00	25030	26	-52.9	-84.7	329	1
2023-09-06T06:00	25063	26	-52.9	-84.7	3	2
2023-09-06T06:00	25092	26	-52.7	-84.6	13	2
2023-09-06T06:00	25124	26	-52.6	-84.5	19	3
2023-09-06T06:00	25148	26	-52.6	-84.5	23	4
2023-09-06T06:00	25175	26	-52.8	-84.7	28	4
2023-09-06T06:00	25209	26	-52.9	-84.7	34	4
2023-09-06T06:00	25236	26	-53.0	-84.2	41	5
2023-09-06T06:00	25265	25	-53.0	-84.8	49	5
2023-09-06T06:00	25294	25	-52.9	-84.7	57	5
2023-09-06T06:00	25320	25	-52.8	-84.7	66	4
2023-09-06T06:00	25347	25	-52.8	-84.7	75	4
2023-09-06T06:00	25379	25	-52.9	-84.7	82	4
2023-09-06T06:00	25404	25	-52.8	-84.7	87	3
2023-09-06T06:00	25434	25	-52.6	-84.5	87	3
2023-09-06T06:00	25471	25	-52.6	-84.5	85	2
2023-09-06T06:00	25498	25	-52.5	-84.4	83	2
2023-09-06T06:00	25531	24	-52.4	-84.4	88	1
2023-09-06T06:00	25559	24	-52.4	-84.4	130	0
2023-09-06T06:00	25590	24	-52.5	-84.4	203	1
2023-09-06T06:00	25620	24	-52.7	-84.6	221	1
2023-09-06T06:00	25650	24	-52.8	-84.1	230	2
2023-09-06T06:00	25684	24	-53.0	-84.2	242	1
2023-09-06T06:00	25707	24	-53.3	-84.4	263	1
2023-09-06T06:00	25746	24	-53.5	-84.6	302	1
2023-09-06T06:00	25774	23	-53.3	-84.4	339	1
2023-09-06T06:00	25808	23	-53.3	-84.4	354	2
2023-09-06T06:00	25839	23	-53.4	-84.5	358	2
2023-09-06T06:00	25872	23	-53.6	-84.6	358	2
2023-09-06T06:00	25894	23	-53.6	-84.6	357	2
2023-09-06T06:00	25927	23	-53.6	-85.3	360	2
2023-09-06T06:00	25954	23	-53.3	-85.0	7	2
2023-09-06T06:00	25994	23	-52.9	-84.7	20	2
2023-09-06T06:00	26023	23	-52.7	-84.6	37	2
2023-09-06T06:00	26049	23	-52.8	-84.7	54	3
2023-09-06T06:00	26078	22	-52.9	-84.7	69	3
2023-09-06T06:00	26103	22	-53.1	-84.9	80	3
2023-09-06T06:00	26150	22	-53.1	-84.3	90	4
2023-09-06T06:00	26175	22	-53.3	-84.4	101	4
2023-09-06T06:00	26195	22	-53.3	-84.4	114	4
2023-09-06T06:00	26232	22	-53.2	-85.0	130	4
2023-09-06T06:00	26259	22	-53.0	-84.8	145	4
2023-09-06T06:00	26297	22	-52.7	-84.6	156	4
2023-09-06T06:00	26315	22	-52.4	-85.1	164	5
2023-09-06T06:00	26350	21	-52.1	-84.8	169	5
2023-09-06T06:00	26380	21	-52.0	-84.8	172	5
2023-09-06T06:00	26403	21	-52.1	-84.8	174	6
2023-09-06T06:00	26432	21	-52.1	-84.8	175	6
2023-09-06T06:00	26455	21	-51.9	-84.7	176	7
2023-09-06T06:00	26483	21	-51.8	-83.9	176	7
2023-09-06T06:00	26520	21	-51.8	-83.9	177	8
2023-09-06T06:00	26544	21	-52.0	-84.1	178	9
2023-09-06T06:00	26572	21	-52.1	-84.2	181	9
2023-09-06T06:00	26594	21	-52.1	-84.2	185	10
2023-09-06T06:00	26619	21	-51.8	-83.9	190	10
2023-09-06T06:00	26650	21	-51.7	-83.9	195	10
2023-09-06T06:00	26672	20	-51.7	-83.9	201	10
2023-09-06T06:00	26700	20	-51.7	-83.9	208	10
2023-09-06T06:00	26727	20	-51.8	-83.9	213	10
2023-09-06T06:00	26752	20	-51.8	-83.9	219	10
2023-09-06T06:00	26775	20	-51.9	-84.0	224	10
2023-09-06T06:00	26816	20	-52.0	-84.1	230	10
2023-09-06T06:00	26839	20	-51.9	-84.0	236	10
2023-09-06T06:00	26866	20	-51.5	-84.4	241	10
2023-09-06T06:00	26892	20	-51.2	-84.2	246	11
2023-09-06T06:00	26913	20	-51.2	-84.2	250	10
2023-09-06T06:00	26950	20	-51.1	-84.1	254	10
2023-09-06T06:00	26981	20	-51.1	-84.1	256	10
2023-09-06T06:00	27002	19	-51.1	-84.1	257	9
2023-09-06T06:00	27044	19	-51.0	-84.0	257	9
2023-09-06T06:00	27066	19	-50.8	-83.9	256	8
2023-09-06T06:00	27093	19	-50.9	-84.0	253	7
2023-09-06T06:00	27129	19	-51.0	-84.0	248	6
2023-09-06T06:00	27159	19	-51.0	-84.0	241	5
2023-09-06T06:00	27197	19	-50.8	-83.9	234	5
2023-09-06T06:00	27225	19	-50.5	-83.7	227	5
2023-09-06T06:00	27253	19	-50.3	-83.5	223	5
2023-09-06T06:00	27292	19	-50.1	-83.4	224	4
2023-09-06T06:00	27316	19	-49.9	-83.2	229	4
2023-09-06T06:00	27338	18	-49.9	-83.2	238	4
2023-09-06T06:00	27382	18	-50.0	-83.3	248	3
2023-09-06T06:00	27410	18	-50.2	-83.5	261	3
2023-09-06T06:00	27446	18	-50.0	-84.1	275	3
2023-09-06T06:00	27471	18	-49.6	-83.8	291	3
2023-09-06T06:00	27507	18	-49.4	-83.7	306	3
2023-09-06T06:00	27537	18	-49.5	-82.9	318	3
2023-09-06T06:00	27564	18	-49.7	-83.1	326	3
2023-09-06T06:00	27596	18	-49.7	-83.1	330	2
2023-09-06T06:00	27627	18	-49.6	-83.0	332	2
2023-09-06T06:00	27669	18	-49.5	-82.9	328	2
2023-09-06T06:00	27699	17	-49.4	-83.7	313	1
2023-09-06T06:00	27716	17	-49.3	-83.6	286	1
2023-09-06T06:00	27752	17	-49.3	-83.6	267	2
2023-09-06T06:00	27788	17	-49.4	-83.7	260	2
2023-09-06T06:00	27819	17	-49.4	-83.7	257	3
2023-09-06T06:00	27838	17	-49.4	-83.7	256	3
2023-09-06T06:00	27878	17	-49.4	-83.7	257	3
2023-09-06T06:00	27910	17	-49.3	-83.6	259	3
2023-09-06T06:00	27932	17	-49.0	-83.4	264	3
2023-09-06T06:00	27963	17	-48.9	-83.3	268	3
2023-09-06T06:00	27993	17	-48.9	-83.3	271	3
2023-09-06T06:00	28015	17	-48.9	-83.3	271	3
2023-09-06T06:00	28044	17	-48.9	-83.3	267	3
2023-09-06T06:00	28074	17	-48.8	-83.2	261	3
2023-09-06T06:00	28103	16	-48.8	-83.2	257	3
2023-09-06T06:00	28116	16	-48.9	-83.3	255	3
2023-09-06T06:00	28166	16	-48.9	-83.3	256	3
2023-09-06T06:00	28201	16	-48.9	-83.3	257	3
2023-09-06T06:00	28217	16	-48.9	-83.3	259	4
2023-09-06T06:00	28250	16	-48.8	-83.2	263	4
2023-09-06T06:00	28278	16	-48.8	-83.2	268	4
2023-09-06T06:00	28310	16	-48.9	-83.3	275	4
2023-09-06T06:00	28341	16	-49.0	-82.6	283	4
2023-09-06T06:00	28366	16	-49.0	-82.6	291	4
2023-09-06T06:00	28396	16	-49.1	-82.7	296	5
2023-09-06T06:00	28421	16	-49.3	-82.8	300	5
2023-09-06T06:00	28458	16	-49.4	-82.9	304	5
2023-09-06T06:00	28485	16	-49.5	-82.9	308	6
2023-09-06T06:00	28515	15	-49.5	-82.9	312	6
2023-09-06T06:00	28556	15	-49.5	-82.9	315	7
2023-09-06T06:00	28573	15	-49.5	-83.7	317	8
2023-09-06T06:00	28609	15	-49.4	-83.7	319	8
2023-09-06T06:00	28630	15	-49.1	-83.4	321	9
2023-09-06T06:00	28669	15	-48.8	-83.2	324	9
2023-09-06T06:00	28698	15	-48.6	-83.1	327	9
2023-09-06T06:00	28741	15	-48.5	-83.0	331	9
2023-09-06T06:00	28761	15	-48.5	-83.0	335	8
2023-09-06T06:00	28805	15	-48.4	-82.9	340	7
2023-09-06T06:00	28829	15	-48.4	-82.9	344	7
2023-09-06T06:00	28853	15	-48.5	-83.0	347	6
2023-09-06T06:00	28897	15	-48.4	-82.9	349	5
2023-09-06T06:00	28924	15	-48.3	-82.9	350	4
2023-09-06T06:00	28958	14	-48.2	-82.8	351	3
2023-09-06T06:00	28978	14	-48.2	-82.8	352	2
2023-09-06T06:00	29021	14	-48.3	-82.9	353	2
2023-09-06T06:00	29047	14	-48.2	-82.8	355	2
2023-09-06T06:00	29080	14	-48.0	-82.7	355	2
2023-09-06T06:00	29111	14	-48.1	-82.7	353	2
2023-09-06T06:00	29135	14	-48.1	-82.7	353	3
2023-09-06T06:00	29168	14	-48.1	-82.7	354	3
2023-09-06T06:00	29219	14	-48.2	-82.8	358	3
2023-09-06T06:00	29241	14	-48.3	-82.9	3	4
2023-09-06T06:00	29271	14	-48.2	-82.8	11	4
2023-09-06T06:00	29293	14	-48.0	-82.7	19	4
2023-09-06T06:00	29343	14	-47.9	-83.5	29	3
2023-09-06T06:00	29358	14	-47.7	-83.4	39	3
2023-09-06T06:00	29397	14	-47.3	-83.1	51	3
2023-09-06T06:00	29423	13	-47.2	-83.0	66	2
2023-09-06T06:00	29460	13	-47.2	-83.0	86	2
2023-09-06T06:00	29477	13	-47.3	-83.1	111	2
2023-09-06T06:00	29518	13	-47.4	-83.1	139	2
2023-09-06T06:00	29543	13	-47.5	-83.2	171	2
2023-09-06T06:00	29578	13	-47.5	-83.2	202	2
2023-09-06T06:00	29607	13	-47.3	-83.1	223	3
2023-09-06T06:00	29646	13	-46.9	-82.8	235	4
2023-09-06T06:00	29673	13	-46.6	-82.6	240	5
2023-09-06T06:00	29703	13	-46.5	-82.5	243	6
2023-09-06T06:00	29717	13	-46.5	-82.5	244	7
2023-09-06T06:00	29763	13	-46.5	-82.5	244	8
2023-09-06T06:00	29791	13	-46.4	-82.4	244	8
2023-09-06T06:00	29817	13	-46.2	-82.3	243	9
2023-09-06T06:00	29837	13	-46.1	-82.2	242	9
2023-09-06T06:00	29885	13	-46.0	-82.1	241	10
2023-09-06T06:00	29900	12	-45.9	-82.1	241	10
2023-09-06T06:00	29945	12	-45.6	-81.9	241	11
2023-09-06T06:00	29972	12	-45.5	-81.8	241	11
2023-09-06T06:00	30003	12	-45.5	-81.8	242	11
2023-09-06T06:00	30046	12	-45.5	-81.8	243	11
2023-09-06T06:00	30071	12	-45.7	-81.9	244	11
2023-09-06T06:00	30112	12	-46.1	-82.2	246	12
2023-09-06T06:00	30142	12	-46.3	-82.4	247	11
2023-09-06T06:00	30155	12	-46.3	-82.4	249	11
2023-09-06T06:00	30184	12	-46.3	-82.4	250	11
2023-09-06T06:00	30217	12	-46.4	-82.4	251	10
2023-09-06T06:00	30240	12	-46.4	-82.4	252	9
2023-09-06T06:00	30261	12	-46.3	-82.4	251	9
2023-09-06T06:00	30305	12	-46.3	-82.4	250	8
2023-09-06T06:00	30344	12	-46.6	-82.6	248	7
2023-09-06T06:00	30362	12	-46.8	-82.7	243	6
2023-09-06T06:00	30390	12	-46.9	-82.8	234	5
2023-09-06T06:00	30435	12	-46.9	-82.8	220	4
2023-09-06T06:00	30452	12	-46.4	-82.4	206	4
2023-09-06T06:00	30483	11	-46.1	-82.2	194	4
2023-09-06T06:00	30521	11	-46.0	-82.1	188	4
2023-09-06T06:00	30546	11	-46.0	-82.1	186	4
2023-09-06T06:00	30565	11	-45.9	-82.1	188	4
2023-09-06T06:00	30602	11	-45.9	-82.1	194	4
2023-09-06T06:00	30637	11	-45.8	-82.0	200	4
2023-09-06T06:00	30656	11	-46.0	-82.1	207	4
2023-09-06T06:00	30688	11	-46.3	-82.4	214	4
2023-09-06T06:00	30717	11	-46.4	-82.4	218	4
2023-09-06T06:00	30749	11	-46.6	-82.6	221	4
2023-09-06T06:00	30773	11	-46.7	-82.6	220	4
2023-09-06T06:00	30807	11	-46.6	-82.6	217	4
2023-09-06T06:00	30834	11	-46.6	-82.6	213	4
2023-09-06T06:00	30872	11	-46.6	-82.6	210	4
2023-09-06T06:00	30884	11	-46.7	-82.6	210	5
2023-09-06T06:00	30917	11	-46.6	-82.6	212	5
2023-09-06T06:00	30947	11	-46.7	-82.6	216	6
2023-09-06T06:00	30988	11	-46.8	-82.7	222	6
2023-09-06T06:00	31031	11	-46.9	-82.8	229	6
2023-09-06T06:00	31042	11	-46.9	-82.8	236	7
2023-09-06T06:00	31094	10	-46.8	-82.7	243	7
2023-09-06T06:00	31119	10	-46.4	-82.4	249	7
2023-09-06T06:00	31145	10	-46.1	-83.3	254	7
2023-09-06T06:00	31175	10	-45.6	-82.9	259	7
2023-09-06T06:00	31206	10	-44.7	-82.3	264	6
2023-09-06T06:00	31239	10	-43.8	-81.7	268	6
2023-09-06T06:00	31271	10	-43.3	-81.3	273	6
2023-09-06T06:00	31299	10	-43.2	-81.3	276	6
2023-09-06T06:00	31329	10	-43.3	-81.3	279	7
2023-09-06T06:00	31349	10	-43.5	-81.5	281	7
2023-09-06T06:00	31388	10	-43.6	-81.5	281	7
2023-09-06T06:00	31412	10	-43.7	-81.6	281	7
2023-09-06T06:00	31446	10	-43.8	-81.7	281	6
2023-09-06T06:00	31483	10	-43.8	-81.7	282	6
2023-09-06T06:00	31514	10	-43.8	-81.7	286	6
2023-09-06T06:00	31523	10	-43.7	-81.6	291	5
2023-09-06T06:00	31560	10	-43.7	-81.6	298	5
2023-09-06T06:00	31589	10	-43.7	-81.6	306	5
2023-09-06T06:00	31634	10	-43.8	-81.7	314	5
2023-09-06T06:00	31654	10	-43.9	-81.8	320	4
2023-09-06T06:00	31694	10	-44.0	-81.8	323	4
2023-09-06T06:00	31721	10	-44.1	-81.9	322	4
2023-09-06T06:00	31754	10	-44.2	-82.0	317	4
2023-09-06T06:00	31768	9	-44.1	-81.9	310	3
2023-09-06T06:00	31810	9	-43.9	-81.8	301	3
2023-09-06T06:00	31822	9	-43.8	-81.7	289	3
2023-09-06T06:00	31858	9	-43.6	-81.5	273	2
2023-09-06T06:00	31899	9	-43.3	-81.3	255	2
2023-09-06T06:00	31925	9	-43.1	-81.2	241	3
2023-09-06T06:00	31953	9	-42.8	-81.0	234	3
2023-09-06T06:00	31988	9	-42.4	-80.7	230	3
2023-09-06T06:00	31999	9	-42.1	-80.5	229	4
2023-09-06T06:00	32060	9	-41.8	-80.3	229	4
2023-09-06T06:00	32093	9	-41.6	-80.1	231	4
2023-09-06T06:00	32117	9	-41.8	-80.3	236	4
2023-09-06T06:00	32157	9	-42.0	-80.4	239	4
2023-09-06T06:00	32174	9	-42.2	-80.6	244	4
2023-09-06T06:00	32189	9	-42.4	-80.7	250	3
2023-09-06T06:00	32240	9	-42.7	-80.9	259	3
2023-09-06T06:00	32269	9	-42.9	-81.1	269	3
2023-09-06T06:00	32299	9	-42.9	-81.1	280	4
2023-09-06T06:00	32325	9	-43.0	-81.1	288	4
2023-09-06T06:00	32360	9	-42.9	-81.1	295	4
2023-09-06T06:00	32374	9	-42.9	-81.1	300	5
2023-09-06T06:00	32417	9	-42.9	-81.1	306	5
2023-09-06T06:00	32429	9	-43.0	-81.1	312	5
2023-09-06T06:00	32476	9	-43.1	-81.2	318	6
2023-09-06T06:00	32509	9	-43.1	-81.2	323	6
2023-09-06T06:00	32527	8	-43.1	-81.2	327	6
2023-09-06T06:00	32559	8	-43.2	-81.3	330	7
2023-09-06T06:00	32579	8	-43.3	-81.3	332	7
2023-09-06T06:00	32620	8	-43.3	-81.3	334	7
2023-09-06T06:00	32658	8	-43.2	-81.3	336	7
2023-09-06T06:00	32679	8	-43.1	-81.2	339	7
2023-09-06T06:00	32703	8	-42.9	-81.1	343	6
2023-09-06T06:00	32750	8	-42.7	-80.9	347	5
2023-09-06T06:00	32771	8	-42.5	-80.8	352	4
2023-09-06T06:00	32807	8	-42.4	-80.7	358	3
2023-09-06T06:00	32831	8	-42.5	-80.8	3	3
2023-09-06T06:00	32840	8	-42.5	-80.8	5	2
2023-09-06T06:00	32917	8	-42.5	-80.8	4	2
2023-09-06T06:00	32943	8	-42.5	-80.8	343	1
2023-09-06T06:00	32956	8	-42.4	-80.7	308	1
2023-09-06T06:00	33008	8	-42.3	-80.6	267	1
2023-09-06T06:00	33042	8	-42.0	-80.4	257	1
2023-09-06T06:00	33093	8	-41.7	-80.2	265	1
2023-09-06T06:00	33123	8	-41.3	-79.9	298	2
2023-09-06T06:00	33136	8	-41.1	-79.8	311	3
2023-09-06T06:00	33175	8	-41.1	-79.8	318	4
2023-09-06T06:00	33192	8	-41.1	-79.8	323	4
2023-09-06T06:00	33233	8	-40.9	-79.7	325	5
2023-09-06T06:00	33258	8	-40.7	-79.5	326	5
2023-09-06T06:00	33293	8	-40.5	-79.4	325	5
2023-09-06T06:00	33318	8	-40.4	-79.3	322	5
2023-09-06T06:00	33345	8	-40.4	-79.3	318	5
2023-09-06T06:00	33381	7	-40.6	-79.5	313	5
2023-09-06T06:00	33395	7	-40.8	-79.6	308	4
2023-09-06T06:00	33438	7	-40.9	-79.7	305	4
2023-09-06T06:00	33446	7	-40.8	-79.6	305	4
2023-09-06T06:00	33464	7	-40.7	-79.5	308	3
2023-09-06T06:00	33527	7	-40.5	-79.4	313	3
2023-09-06T06:00	33550	7	-40.4	-79.3	319	2
2023-09-06T06:00	33575	7	-40.3	-79.2	320	2
2023-09-06T06:00	33595	7	-40.2	-79.2	313	2
2023-09-06T06:00	33634	7	-40.0	-79.0	291	1
2023-09-06T06:00	33657	7	-39.8	-78.9	256	1
2023-09-06T06:00	33695	7	-39.6	-78.8	228	2
2023-09-06T06:00	33738	7	-39.5	-78.7	215	2
2023-09-06T06:00	33785	7	-39.4	-78.6	213	3
2023-09-06T06:00	33798	7	-39.4	-78.6	220	4
2023-09-06T06:00	33803	7	-39.2	-78.5	231	4
2023-09-06T06:00	33862	7	-39.0	-78.3	241	4
2023-09-06T12:00	112	1011	25.6	14.1	180	1
2023-09-06T12:00	140	1008	23.9	13.0	147	1
2023-09-06T12:00	171	1005	23.7	12.6	138	2
2023-09-06T12:00	197	1001	23.3	12.5	130	2
2023-09-06T12:00	222	998	23.0	12.3	122	2
2023-09-06T12:00	249	995	22.6	12.4	118	3
2023-09-06T12:00	270	993	22.5	12.1	116	3
2023-09-06T12:00	294	990	22.3	12.2	118	3
2023-09-06T12:00	327	986	22.1	12.3	123	2
2023-09-06T12:00	360	983	21.7	12.3	135	2
2023-09-06T12:00	397	979	21.3	12.0	154	1
2023-09-06T12:00	429	975	21.1	12.1	166	1
2023-09-06T12:00	455	972	20.8	12.1	163	2
2023-09-06T12:00	488	968	20.5	11.9	151	2
2023-09-06T12:00	522	965	20.1	12.0	140	3
2023-09-06T12:00	550	961	19.9	12.0	132	3
2023-09-06T12:00	574	959	19.6	11.7	129	4
2023-09-06T12:00	601	956	19.4	11.7	129	4
2023-09-06T12:00	629	953	19.1	11.7	135	4
2023-09-06T12:00	658	950	18.8	11.6	146	4
2023-09-06T12:00	681	947	18.6	11.4	160	4
2023-09-06T12:00	705	944	19.2	6.6	174	4
2023-09-06T12:00	734	941	19.5	6.3	184	4
2023-09-06T12:00	758	938	19.4	5.9	190	4
2023-09-06T12:00	780	936	19.2	5.5	193	4
2023-09-06T12:00	807	933	19.1	5.0	194	4
2023-09-06T12:00	832	930	18.9	4.8	191	3
2023-09-06T12:00	855	928	18.8	4.8	184	3
2023-09-06T12:00	883	925	18.7	4.5	171	2
2023-09-06T12:00	916	921	18.7	3.6	154	2
2023-09-06T12:00	949	918	18.5	3.0	142	2
2023-09-06T12:00	973	915	18.4	2.1	136	2
2023-09-06T12:00	1001	912	18.2	1.4	134	3
2023-09-06T12:00	1030	909	18.0	1.3	132	3
2023-09-06T12:00	1062	906	17.9	-1.0	127	2
2023-09-06T12:00	1085	903	17.9	-1.2	118	2
2023-09-06T12:00	1119	900	18.0	1.4	98	1
2023-09-06T12:00	1140	897	18.0	1.6	73	1
2023-09-06T12:00	1162	895	18.0	1.3	58	1
2023-09-06T12:00	1186	893	18.0	0.9	59	1
2023-09-06T12:00	1211	890	17.9	0.1	75	1
2023-09-06T12:00	1236	888	17.8	0.7	96	1
2023-09-06T12:00	1256	885	17.7	1.4	109	1
2023-09-06T12:00	1282	883	17.5	1.7	113	2
2023-09-06T12:00	1309	880	17.3	2.1	111	2
2023-09-06T12:00	1330	878	17.1	2.2	105	2
2023-09-06T12:00	1354	875	17.2	-1.4	96	2
2023-09-06T12:00	1379	873	17.0	-2.3	84	2
2023-09-06T12:00	1401	870	17.0		74	2
2023-09-06T12:00	1426	868	16.9	-4.4	67	2
2023-09-06T12:00	1451	865	16.9	-5.3	62	2
2023-09-06T12:00	1476	863	16.7	1.5	56	3
2023-09-06T12:00	1500	860	16.3	3.1	50	3
2023-09-06T12:00	1524	858	16.2	3.1	44	3
2023-09-06T12:00	1549	856	15.9	3.0	40	4
2023-09-06T12:00	1568	853	15.8	3.5	37	4
2023-09-06T12:00	1593	851	16.3	-7.0	34	4
2023-09-06T12:00	1619	848	16.7	-13.5	30	3
2023-09-06T12:00	1643	846	17.0	-21.1	22	2
2023-09-06T12:00	1664	844	16.9	-20.5	12	2
2023-09-06T12:00	1685	842	17.0	-19.5	3	2
2023-09-06T12:00	1710	839	17.0	-18.4	2	2
2023-09-06T12:00	1739	837	17.0	-18.2	8	2
2023-09-06T12:00	1761	834	16.8	-18.4	16	2
2023-09-06T12:00	1787	832	16.7	-15.9	23	2
2023-09-06T12:00	1813	829	16.6	-14.6	27	2
2023-09-06T12:00	1842	826	16.6	-14.6	30	2
2023-09-06T12:00	1875	823	16.2	-8.9	33	2
2023-09-06T12:00	1902	821	15.8	-4.7	38	2
2023-09-06T12:00	1926	818	15.5	-2.5	46	2
2023-09-06T12:00	1955	816	15.3	-2.4	54	2
2023-09-06T12:00	1980	813	15.1	-1.7	59	2
2023-09-06T12:00	2003	811	14.8	-0.6	58	2
2023-09-06T12:00	2029	808	14.6	-0.5	54	3
2023-09-06T12:00	2061	806	14.3	-1.1	49	3
2023-09-06T12:00	2084	803	14.1	-1.8	44	3
2023-09-06T12:00	2111	801	14.0	-3.6	41	3
2023-09-06T12:00	2136	798	13.8	-0.1	40	3
2023-09-06T12:00	2162	796	13.6	1.2	41	3
2023-09-06T12:00	2185	794	13.4	1.0	45	3
2023-09-06T12:00	2208	791	13.2	-1.0	49	3
2023-09-06T12:00	2230	789	13.2	-4.0	52	3
2023-09-06T12:00	2249	787	13.2	-6.1	54	2
2023-09-06T12:00	2279	785	13.2	-7.1	59	2
2023-09-06T12:00	2300	783	13.1	-3.6	71	2
2023-09-06T12:00	2321	781	13.1	-6.5	87	2
2023-09-06T12:00	2343	779	13.5		102	2
2023-09-06T12:00	2363	777	13.7	-17.1	110	2
2023-09-06T12:00	2383	775	13.6	-12.7	111	2
2023-09-06T12:00	2402	773	13.4	-10.1	102	2
2023-09-06T12:00	2429	771	13.4	-10.8	83	1
2023-09-06T12:00	2454	769	13.3	-10.9	59	1
2023-09-06T12:00	2474	767	13.2	-10.6	44	2
2023-09-06T12:00	2499	765	13.1		39	2
2023-09-06T12:00	2514	763	13.0	-13.1	43	2
2023-09-06T12:00	2540	761	13.0	-14.6	52	2
2023-09-06T12:00	2562	759	12.9	-15.4	60	2
2023-09-06T12:00	2581	757	12.9	-16.7	60	2
2023-09-06T12:00	2607	755	12.8	-15.5	56	3
2023-09-06T12:00	2628	753	12.6	-15.1	51	3
2023-09-06T12:00	2647	751	12.5	-15.3	52	4
2023-09-06T12:00	2669	749	12.5	-15.4	58	4
2023-09-06T12:00	2700	747	12.4	-15.9	66	4
2023-09-06T12:00	2720	745	12.3	-17.6	70	5
2023-09-06T12:00	2740	743	12.4	-26.2	69	5
2023-09-06T12:00	2768	740	12.5	-26.1	63	5
2023-09-06T12:00	2789	738	12.4	-23.5	55	5
2023-09-06T12:00	2811	736	12.4	-21.0	49	6
2023-09-06T12:00	2833	734	12.3	-19.5	44	6
2023-09-06T12:00	2860	732	12.3	-17.6	42	6
2023-09-06T12:00	2888	730	12.2	-17.6	40	6
2023-09-06T12:00	2908	728	12.0	-18.3	38	5
2023-09-06T12:00	2930	726	11.9	-18.4	35	5
2023-09-06T12:00	2952	724	11.7	-18.5	34	4
2023-09-06T12:00	2975	722	11.6	-18.7	33	4
2023-09-06T12:00	2994	720	11.6	-19.0	32	4
2023-09-06T12:00	3016	719	11.3	-19.1	29	4
2023-09-06T12:00	3043	716	11.2	-19.7	26	5
2023-09-06T12:00	3065	714	11.1	-19.2	24	5
2023-09-06T12:00	3085	713	10.9	-19.0	24	6
2023-09-06T12:00	3109	711	10.8	-18.9	25	6
2023-09-06T12:00	3134	709	10.7	-18.7	27	5
2023-09-06T12:00	3157	707	10.5	-18.9	27	5
2023-09-06T12:00	3182	704	10.4	-19.0	23	5
2023-09-06T12:00	3207	702	10.2	-18.7	17	5
2023-09-06T12:00	3237	700	9.9	-17.3	10	5
2023-09-06T12:00	3260	698	9.7	-15.4	5	5
2023-09-06T12:00	3278	696	9.7	-14.8	3	5
2023-09-06T12:00	3304	694	9.6	-15.0	2	5
2023-09-06T12:00	3327	692	9.3	-14.3	360	5
2023-09-06T12:00	3347	690	9.1	-14.1	355	5
2023-09-06T12:00	3372	689	9.0	-14.2	349	5
2023-09-06T12:00	3391	687	8.8	-13.9	343	4
2023-09-06T12:00	3411	685	8.6	-14.5	340	4
2023-09-06T12:00	3433	683	8.6	-15.2	344	4
2023-09-06T12:00	3453	682	8.6	-15.8	353	4
2023-09-06T12:00	3479	680	8.4	-15.6	4	4
2023-09-06T12:00	3501	678	8.2	-15.4	13	5
2023-09-06T12:00	3524	676	8.1	-15.5	21	5
2023-09-06T12:00	3547	674	8.0	-15.2	24	5
2023-09-06T12:00	3575	672	7.8	-15.4	22	4
2023-09-06T12:00	3610	669	7.5	-16.0	13	4
2023-09-06T12:00	3636	667	7.4	-15.9	4	5
2023-09-06T12:00	3656	665	7.3	-16.1	359	6
2023-09-06T12:00	3676	663	7.3	-16.9	359	6
2023-09-06T12:00	3701	662	7.2	-17.1	3	7
2023-09-06T12:00	3720	660	7.1	-17.0	8	7
2023-09-06T12:00	3742	658	7.1	-16.5	11	7
2023-09-06T12:00	3766	656	6.9	-15.3	13	7
2023-09-06T12:00	3795	654	6.7	-12.8	12	6
2023-09-06T12:00	3814	652	6.5	-11.8	10	6
2023-09-06T12:00	3838	650	6.4	-7.6	8	7
2023-09-06T12:00	3863	649	6.0	-7.9	8	7
2023-09-06T12:00	3885	647	5.9	-8.0	7	7
2023-09-06T12:00	3918	644	5.6	-9.0	6	8
2023-09-06T12:00	3946	642	5.4	-10.0	4	7
2023-09-06T12:00	3976	640	5.1	-10.4	1	7
2023-09-06T12:00	3999	638	4.9	-9.7	359	7
2023-09-06T12:00	4029	636	4.7	-9.3	357	6
2023-09-06T12:00	4045	634	4.5		354	6
2023-09-06T12:00	4079	632	4.2	-8.5	350	5
2023-09-06T12:00	4106	630	4.0	-8.5	346	5
2023-09-06T12:00	4126	628	3.8	-8.5	344	4
2023-09-06T12:00	4148	626	3.6	-8.4	344	4
2023-09-06T12:00	4171	625	3.5	-8.3	344	4
2023-09-06T12:00	4190	623	3.4	-9.0	342	5
2023-09-06T12:00	4214	621	3.5	-10.2	336	5
2023-09-06T12:00	4239	619	3.3	-10.7	328	5
2023-09-06T12:00	4258	618	3.2	-11.0	321	6
2023-09-06T12:00	4279	616	3.1	-11.1	316	6
2023-09-06T12:00	4298	615	3.0	-10.9	312	5
2023-09-06T12:00	4322	613	2.8	-10.7	311	5
2023-09-06T12:00	4352	611	2.6	-10.4	314	5
2023-09-06T12:00	4376	609	2.3	-10.7	319	5
2023-09-06T12:00	4400	607	2.2	-10.7	326	5
2023-09-06T12:00	4424	605	2.0	-11.1	334	6
2023-09-06T12:00	4446	604	1.8	-11.5	341	7
2023-09-06T12:00	4468	602	1.6	-11.8	346	7
2023-09-06T12:00	4489	600	1.5		348	8
2023-09-06T12:00	4510	599	1.3	-12.0	349	9
2023-09-06T12:00	4534	597	1.1	-12.5	348	9
2023-09-06T12:00	4556	596	0.9	-12.9	346	8
2023-09-06T12:00	4577	594	0.8	-13.2	345	8
2023-09-06T12:00	4600	592	0.8	-14.3	345	7
2023-09-06T12:00	4620	591	0.7	-14.5	347	7
2023-09-06T12:00	4649	589	0.6	-14.8	349	7
2023-09-06T12:00	4674	587	0.4	-15.0	350	7
2023-09-06T12:00	4699	585	0.3	-15.0	349	8
2023-09-06T12:00	4720	583	0.1	-15.1	347	8
2023-09-06T12:00	4742	582	0.0	-15.4	344	8
2023-09-06T12:00	4761	580	-0.1	-15.6	340	8
2023-09-06T12:00	4784	579	-0.2	-15.6	336	7
2023-09-06T12:00	4803	577	-0.4	-15.5	332	6
2023-09-06T12:00	4824	576	-0.4	-15.4	330	5
2023-09-06T12:00	4844	574	-0.6	-15.5	332	4
2023-09-06T12:00	4867	573	-0.7	-15.9	340	4
2023-09-06T12:00	4891	571	-0.8	-16.4	353	4
2023-09-06T12:00	4917	569	-0.9	-15.7	1	4
2023-09-06T12:00	4952	567	-1.1	-16.0	3	5
2023-09-06T12:00	4979	565	-1.3	-16.5	1	6
2023-09-06T12:00	5008	563	-1.5	-15.9	357	7
2023-09-06T12:00	5028	561	-1.8	-16.1	354	7
2023-09-06T12:00	5054	559	-1.9	-16.5	351	7
2023-09-06T12:00	5086	557	-2.1	-17.8	349	7
2023-09-06T12:00	5107	556	-2.3	-18.2	350	6
2023-09-06T12:00	5129	554	-2.5	-19.2	356	5
2023-09-06T12:00	5151	553	-2.5	-18.6	4	5
2023-09-06T12:00	5178	551	-2.8	-16.5	11	5
2023-09-06T12:00	5197	549	-3.0	-15.8	13	6
2023-09-06T12:00	5217	548	-3.1	-15.2	10	7
2023-09-06T12:00	5241	546	-3.2	-15.2	6	8
2023-09-06T12:00	5264	545	-3.4	-15.9	0	8
2023-09-06T12:00	5281	543	-3.5	-16.4	355	8
2023-09-06T12:00	5310	542	-3.6	-17.0	350	8
2023-09-06T12:00	5333	540	-3.7	-17.2	347	7
2023-09-06T12:00	5359	538	-3.8	-17.4	347	7
2023-09-06T12:00	5397	536	-4.1	-17.6	349	7
2023-09-06T12:00	5423	534	-4.4	-17.0	351	7
2023-09-06T12:00	5449	532	-4.6	-16.8	352	7
2023-09-06T12:00	5474	531	-4.8	-16.7	352	8
2023-09-06T12:00	5496	529	-5.0	-16.5	351	8
2023-09-06T12:00	5518	528	-5.1	-16.3	351	7
2023-09-06T12:00	5540	526	-5.2	-15.9	351	7
2023-09-06T12:00	5566	525	-5.5	-15.7	351	7
2023-09-06T12:00	5585	523	-5.7	-15.3	350	7
2023-09-06T12:00	5608	522	-5.9	-15.2	349	7
2023-09-06T12:00	5632	520	-6.0	-15.2	351	6
2023-09-06T12:00	5653	518	-6.2	-15.1	354	6
2023-09-06T12:00	5679	517	-6.4	-15.1	359	6
2023-09-06T12:00	5699	515	-6.6	-15.3	4	7
2023-09-06T12:00	5724	514	-6.8	-15.5	5	7
2023-09-06T12:00	5748	512	-7.1	-15.5	5	8
2023-09-06T12:00	5775	511	-7.3	-15.7	4	9
2023-09-06T12:00	5804	509	-7.6	-16.0	4	9
2023-09-06T12:00	5831	507	-7.8	-16.4	3	9
2023-09-06T12:00	5851	506	-8.0	-16.7	1	9
2023-09-06T12:00	5881	504	-8.1	-16.0	359	8
2023-09-06T12:00	5914	501	-8.3	-15.9	357	8
2023-09-06T12:00	5941	500	-8.4	-16.0	356	7
2023-09-06T12:00	5963	498	-8.4	-16.2	357	6
2023-09-06T12:00	5985	497	-8.6	-16.3	359	6
2023-09-06T12:00	6005	496	-8.7	-16.5	0	6
2023-09-06T12:00	6023	494	-8.8	-16.5	360	7
2023-09-06T12:00	6050	493	-9.0	-16.7	358	7
2023-09-06T12:00	6068	492	-9.2	-17.1	358	8
2023-09-06T12:00	6090	490	-9.2	-17.3	358	9
2023-09-06T12:00	6119	488	-9.4	-17.4	358	9
2023-09-06T12:00	6150	486	-9.6	-18.2	358	9
2023-09-06T12:00	6177	485	-9.8	-18.7	357	9
2023-09-06T12:00	6202	483	-10.0	-20.7	355	9
2023-09-06T12:00	6225	482	-10.1	-20.3	352	9
2023-09-06T12:00	6251	480	-10.2	-22.4	350	8
2023-09-06T12:00	6275	478	-10.4	-21.5	350	7
2023-09-06T12:00	6313	476	-10.6	-19.3	352	7
2023-09-06T12:00	6359	473	-10.9	-19.6	355	7
2023-09-06T12:00	6396	471	-11.1	-19.6	358	7
2023-09-06T12:00	6417	470	-11.2	-21.0	359	7
2023-09-06T12:00	6441	468	-11.0	-30.7	359	8
2023-09-06T12:00	6461	467	-11.1	-30.7	358	8
2023-09-06T12:00	6490	465	-11.2	-29.9	355	8
2023-09-06T12:00	6524	463	-11.6	-28.3	353	8
2023-09-06T12:00	6545	462	-11.8	-28.6	350	7
2023-09-06T12:00	6573	461	-12.0	-29.5	348	7
2023-09-06T12:00	6592	459	-12.2	-30.2	347	7
2023-09-06T12:00	6622	458	-12.3	-30.3	347	8
2023-09-06T12:00	6644	456	-12.6	-27.7	346	8
2023-09-06T12:00	6664	455	-12.8	-25.2	346	8
2023-09-06T12:00	6688	453	-12.9	-22.6	345	8
2023-09-06T12:00	6710	452	-13.1	-22.3	345	8
2023-09-06T12:00	6735	451	-13.2	-22.8	346	8
2023-09-06T12:00	6756	449	-13.4	-23.2	347	7
2023-09-06T12:00	6786	448	-13.5	-25.7	349	7
2023-09-06T12:00	6811	446	-13.6	-26.8	349	7
2023-09-06T12:00	6832	445	-13.7	-25.9	348	7
2023-09-06T12:00	6857	444	-13.7	-28.4	347	8
2023-09-06T12:00	6880	442	-14.0	-29.5	346	8
2023-09-06T12:00	6908	441	-14.0	-31.8	345	9
2023-09-06T12:00	6937	439	-14.1	-29.9	344	9
2023-09-06T12:00	6960	438	-14.4	-29.4	343	8
2023-09-06T12:00	6988	436	-14.6	-31.2	342	8
2023-09-06T12:00	7017	434	-14.8	-31.5	341	7
2023-09-06T12:00	7041	433	-15.0	-31.6	341	6
2023-09-06T12:00	7059	432	-15.2	-30.6	342	6
2023-09-06T12:00	7084	431	-15.4	-29.4	344	6
2023-09-06T12:00	7103	429	-15.6	-28.7	346	6
2023-09-06T12:00	7129	428	-15.8	-27.4	349	6
2023-09-06T12:00	7157	426	-16.0	-27.0	351	7
2023-09-06T12:00	7177	425	-16.2	-28.1	353	7
2023-09-06T12:00	7200	424	-16.4	-29.1	354	8
2023-09-06T12:00	7226	422	-16.5	-30.3	353	9
2023-09-06T12:00	7255	421	-16.8	-31.6	351	9
2023-09-06T12:00	7274	420	-17.0	-32.0	350	9
2023-09-06T12:00	7297	418	-17.1	-32.5	349	9
2023-09-06T12:00	7329	417	-17.4	-33.8	350	8
2023-09-06T12:00	7351	415	-17.6	-34.9	353	8
2023-09-06T12:00	7377	414	-17.8	-37.0	356	8
2023-09-06T12:00	7396	413	-18.0	-37.6	357	8
2023-09-06T12:00	7421	412	-18.2	-38.2	355	9
2023-09-06T12:00	7445	410	-18.5	-39.4	352	9
2023-09-06T12:00	7472	409	-18.7		350	9
2023-09-06T12:00	7491	408	-18.9	-41.7	350	10
2023-09-06T12:00	7511	407	-19.1	-43.1	352	10
2023-09-06T12:00	7537	405	-19.1	-43.2	354	11
2023-09-06T12:00	7564	404	-19.3	-35.9	356	12
2023-09-06T12:00	7590	402	-19.7	-31.0	356	12
2023-09-06T12:00	7617	401	-19.8	-30.5	356	13
2023-09-06T12:00	7640	400	-20.1	-32.8	354	13
2023-09-06T12:00	7666	398	-20.2	-35.6	353	12
2023-09-06T12:00	7686	397	-20.5	-30.7	353	12
2023-09-06T12:00	7712	396	-20.6	-30.5	353	12
2023-09-06T12:00	7736	394	-20.9	-30.0	354	11
2023-09-06T12:00	7760	393	-21.1	-30.7	355	11
2023-09-06T12:00	7779	392	-21.2	-30.1	355	11
2023-09-06T12:00	7802	391	-21.3	-30.4	356	11
2023-09-06T12:00	7828	390	-21.5	-31.3	357	11
2023-09-06T12:00	7854	388	-21.7	-32.2	358	11
2023-09-06T12:00	7882	387	-21.9	-30.8	360	11
2023-09-06T12:00	7908	385	-22.1	-30.7	1	11
2023-09-06T12:00	7926	384	-22.3	-30.6	1	11
2023-09-06T12:00	7952	383	-22.4	-30.5	1	11
2023-09-06T12:00	7983	382	-22.5	-28.4	0	12
2023-09-06T12:00	8003	380	-22.8	-27.9	358	12
2023-09-06T12:00	8032	379	-22.9	-28.8	356	11
2023-09-06T12:00	8055	378	-23.2	-28.8	354	11
2023-09-06T12:00	8079	377	-23.4	-28.8	352	11
2023-09-06T12:00	8104	375	-23.6	-29.0	351	10
2023-09-06T12:00	8127	374	-23.8	-28.7	352	10
2023-09-06T12:00	8153	373	-24.0		355	10
2023-09-06T12:00	8172	372	-24.2	-28.1	358	10
2023-09-06T12:00	8201	370	-24.4	-27.9	360	10
2023-09-06T12:00	8230	369	-24.7	-27.8	359	11
2023-09-06T12:00	8257	367	-24.9	-28.0	357	11
2023-09-06T12:00	8285	366	-25.2	-28.6	355	12
2023-09-06T12:00	8310	365	-25.4	-28.6	353	12
2023-09-06T12:00	8335	363	-25.5	-28.6	353	11
2023-09-06T12:00	8358	362	-25.7	-28.9	353	11
2023-09-06T12:00	8387	361	-25.8	-29.0	354	10
2023-09-06T12:00	8414	360	-26.1	-29.1	354	10
2023-09-06T12:00	8440	358	-26.3	-29.1	352	11
2023-09-06T12:00	8467	357	-26.5	-29.3	349	11
2023-09-06T12:00	8488	356	-26.7	-30.0	345	12
2023-09-06T12:00	8510	355	-26.8	-30.8	343	12
2023-09-06T12:00	8541	353	-26.8	-30.4	342	12
2023-09-06T12:00	8567	352	-27.1	-30.8	343	12
2023-09-06T12:00	8589	351	-27.2	-31.1	345	12
2023-09-06T12:00	8628	349	-27.3	-31.5	348	12
2023-09-06T12:00	8647	348	-27.6	-31.6	350	13
2023-09-06T12:00	8676	347	-27.8	-32.0	349	13
2023-09-06T12:00	8695	346	-28.0	-32.0	347	13
2023-09-06T12:00	8721	344	-28.1	-32.4	343	12
2023-09-06T12:00	8752	343	-28.3	-33.1	338	11
2023-09-06T12:00	8770	342	-28.5	-34.0	332	10
2023-09-06T12:00	8795	341	-28.4	-35.0	327	10
2023-09-06T12:00	8818	340	-28.6	-34.9	324	10
2023-09-06T12:00	8843	339	-28.8	-35.1	322	10
2023-09-06T12:00	8870	337	-28.9	-34.9	320	10
2023-09-06T12:00	8901	336	-29.2	-35.1	317	10
2023-09-06T12:00	8924	335	-29.4	-35.7	314	10
2023-09-06T12:00	8945	334	-29.4	-35.5	312	11
2023-09-06T12:00	8973	333	-29.5	-35.8	311	12
2023-09-06T12:00	8994	332	-29.7	-36.5	311	12
2023-09-06T12:00	9021	330	-29.8	-36.7	312	12
2023-09-06T12:00	9042	329	-30.0	-35.9	312	12
2023-09-06T12:00	9072	328	-30.0	-35.8	311	12
2023-09-06T12:00	9095	327	-30.4	-36.2	311	11
2023-09-06T12:00	9120	326	-30.6	-36.5	312	10
2023-09-06T12:00	9164	324	-30.9	-36.3	315	10
2023-09-06T12:00	9196	322	-31.2	-36.8	320	9
2023-09-06T12:00	9220	321	-31.4	-37.4	324	9
2023-09-06T12:00	9242	320	-31.5	-38.0	325	9
2023-09-06T12:00	9277	319	-31.7	-38.0	325	10
2023-09-06T12:00	9302	318	-31.9	-37.9	323	10
2023-09-06T12:00	9334	316	-32.1	-37.9	322	10
2023-09-06T12:00	9356	315	-32.4	-38.4	321	9
2023-09-06T12:00	9379	314	-32.5	-38.4	320	9
2023-09-06T12:00	9400	313	-32.7	-38.6	320	8
2023-09-06T12:00	9417	312	-32.8	-39.0	319	8
2023-09-06T12:00	9437	312	-33.0	-39.2	319	8
2023-09-06T12:00	9457	311	-33.2	-39.6	319	8
2023-09-06T12:00	9479	310	-33.3	-39.0	320	8
2023-09-06T12:00	9501	309	-33.5	-39.3	321	8
2023-09-06T12:00	9524	308	-33.7	-39.0	321	8
2023-09-06T12:00	9547	307	-34.0	-39.1	321	8
2023-09-06T12:00	9574	305	-34.1	-40.6	321	8
2023-09-06T12:00	9602	304	-34.0	-42.3	322	9
2023-09-06T12:00	9633	303	-34.3	-42.8	323	10
2023-09-06T12:00	9654	302	-34.5	-43.3	324	11
2023-09-06T12:00	9676	301	-34.6	-43.8	326	11
2023-09-06T12:00	9703	300	-34.9	-43.8	327	11
2023-09-06T12:00	9723	299	-35.1	-43.9	328	11
2023-09-06T12:00	9743	298	-35.3	-44.0	329	11
2023-09-06T12:00	9766	297	-35.5	-44.3	329	10
2023-09-06T12:00	9785	296	-35.5	-44.3	330	10
2023-09-06T12:00	9806	296	-35.8	-44.8	330	10
2023-09-06T12:00	9827	295	-35.9	-45.7	331	10
2023-09-06T12:00	9850	294	-36.0	-45.3	331	10
2023-09-06T12:00	9872	293	-36.2	-44.5	332	11
2023-09-06T12:00	9895	292	-36.3	-45.8	333	11
2023-09-06T12:00	9916	291	-36.5	-47.5	334	11
2023-09-06T12:00	9938	290	-36.7	-47.8	336	11
2023-09-06T12:00	9958	289	-36.9	-47.9	336	11
2023-09-06T12:00	9981	288	-37.0	-47.7	337	11
2023-09-06T12:00	10002	287	-37.2	-47.0	337	11
2023-09-06T12:00	10022	286	-37.2	-47.3	338	11
2023-09-06T12:00	10045	286	-37.4	-47.7	338	11
2023-09-06T12:00	10064	285	-37.5	-47.6	338	11
2023-09-06T12:00	10087	284	-37.7	-47.4	338	11
2023-09-06T12:00	10113	283	-38.0	-47.4	337	11
2023-09-06T12:00	10134	282	-38.2	-47.4	336	11
2023-09-06T12:00	10161	281	-38.4	-47.0	335	11
2023-09-06T12:00	10200	279	-38.8	-47.0	335	11
2023-09-06T12:00	10226	278	-39.1	-47.4	336	12
2023-09-06T12:00	10250	277	-39.3	-48.1	338	12
2023-09-06T12:00	10268	276	-39.4	-48.9	340	13
2023-09-06T12:00	10294	275	-39.5	-50.1	342	13
2023-09-06T12:00	10316	274	-39.6	-51.4	343	14
2023-09-06T12:00	10340	274	-39.8	-51.8	343	14
2023-09-06T12:00	10361	273	-39.9	-52.4	344	14
2023-09-06T12:00	10384	272	-40.1	-52.5	345	14
2023-09-06T12:00	10407	271	-40.3	-52.4	345	14
2023-09-06T12:00	10433	270	-40.5	-52.4	346	15
2023-09-06T12:00	10454	269	-40.7	-52.6	346	15
2023-09-06T12:00	10485	268	-41.0	-52.5	346	15
2023-09-06T12:00	10515	267	-41.4	-52.7	345	16
2023-09-06T12:00	10537	266	-41.6	-52.9	344	16
2023-09-06T12:00	10557	265	-41.8	-52.9	343	16
2023-09-06T12:00	10583	264	-42.1	-52.9	342	16
2023-09-06T12:00	10612	263	-42.2	-53.4	342	16
2023-09-06T12:00	10639	262	-42.4	-53.8	343	16
2023-09-06T12:00	10660	261	-42.6	-54.0	343	16
2023-09-06T12:00	10681	260	-42.6	-55.0	344	15
2023-09-06T12:00	10706	259	-42.7	-56.2	344	15
2023-09-06T12:00	10727	258	-42.8	-56.4	344	15
2023-09-06T12:00	10750	257	-42.9	-56.1	343	16
2023-09-06T12:00	10771	257	-43.1	-56.4	343	16
2023-09-06T12:00	10796	256	-43.3	-56.5	342	16
2023-09-06T12:00	10818	255	-43.6	-56.5	342	16
2023-09-06T12:00	10839	254	-43.7	-56.7	342	16
2023-09-06T12:00	10862	253	-43.9	-57.2	342	16
2023-09-06T12:00	10883	252	-44.1	-57.8	343	16
2023-09-06T12:00	10905	252	-44.2	-58.3	343	16
2023-09-06T12:00	10925	251	-44.4		343	16
2023-09-06T12:00	10948	250	-44.5	-58.0	343	16
2023-09-06T12:00	10970	249	-44.8	-58.4	343	16
2023-09-06T12:00	10993	248	-45.0	-58.7	342	16
2023-09-06T12:00	11011	248	-45.2	-59.2	341	16
2023-09-06T12:00	11029	247	-45.3	-59.6	340	16
2023-09-06T12:00	11051	246	-45.4	-59.6	339	16
2023-09-06T12:00	11075	245	-45.5	-59.8	338	16
2023-09-06T12:00	11096	244	-45.7	-59.8	338	16
2023-09-06T12:00	11118	244	-45.9	-59.6	337	16
2023-09-06T12:00	11141	243	-46.1	-59.7	337	16
2023-09-06T12:00	11162	242	-46.3	-59.9	337	16
2023-09-06T12:00	11184	241	-46.4	-60.0	338	15
2023-09-06T12:00	11205	240	-46.5	-60.0	339	15
2023-09-06T12:00	11228	240	-46.7	-60.1	339	15
2023-09-06T12:00	11251	239	-46.8	-60.1	339	15
2023-09-06T12:00	11276	238	-47.0	-59.9	339	15
2023-09-06T12:00	11299	237	-47.3	-59.9	339	15
2023-09-06T12:00	11321	236	-47.6	-59.9	338	15
2023-09-06T12:00	11344	236	-47.7	-59.7	338	15
2023-09-06T12:00	11368	235	-48.0	-59.6	337	15
2023-09-06T12:00	11390	234	-48.0	-59.3	337	15
2023-09-06T12:00	11413	233	-48.1	-59.6	337	16
2023-09-06T12:00	11435	232	-48.2	-60.3	338	16
2023-09-06T12:00	11458	231	-48.2	-60.9	338	16
2023-09-06T12:00	11482	231	-48.4	-61.4	338	16
2023-09-06T12:00	11504	230	-48.6	-61.4	338	16
2023-09-06T12:00	11528	229	-48.7	-61.2	339	16
2023-09-06T12:00	11552	228	-49.0	-61.5	339	16
2023-09-06T12:00	11577	227	-49.1	-61.7	339	16
2023-09-06T12:00	11598	227	-49.2	-62.0	339	16
2023-09-06T12:00	11622	226	-49.5	-62.1	340	16
2023-09-06T12:00	11644	225	-49.7	-61.8	340	16
2023-09-06T12:00	11668	224	-49.8	-61.3	341	16
2023-09-06T12:00	11693	223	-50.0	-60.6	341	16
2023-09-06T12:00	11721	222	-50.2	-60.7	341	16
2023-09-06T12:00	11746	222	-50.4	-62.5	342	16
2023-09-06T12:00	11770	221	-50.5	-64.0	342	16
2023-09-06T12:00	11791	220	-50.7	-64.3	343	16
2023-09-06T12:00	11813	219	-50.9	-64.2	343	16
2023-09-06T12:00	11839	218	-51.1	-64.0	344	16
2023-09-06T12:00	11864	218	-51.2	-63.7	344	16
2023-09-06T12:00	11889	217	-51.4	-63.3	344	16
2023-09-06T12:00	11912	216	-51.5	-62.6	343	16
2023-09-06T12:00	11936	215	-51.8	-62.0	343	16
2023-09-06T12:00	11959	214	-52.0	-61.7	343	16
2023-09-06T12:00	11981	214	-52.2	-62.1	343	16
2023-09-06T12:00	12004	213	-52.3	-62.5	343	16
2023-09-06T12:00	12026	212	-52.4	-63.0	343	16
2023-09-06T12:00	12050	211	-52.5	-63.3	343	16
2023-09-06T12:00	12075	211	-52.8	-63.7	343	16
2023-09-06T12:00	12095	210	-52.9	-63.9	342	16
2023-09-06T12:00	12123	209	-53.2	-64.3	341	17
2023-09-06T12:00	12152	208	-53.5	-64.8	340	17
2023-09-06T12:00	12177	207	-53.5	-65.1	339	17
2023-09-06T12:00	12201	206	-53.5	-65.0	337	17
2023-09-06T12:00	12228	206	-53.6	-64.9	337	17
2023-09-06T12:00	12253	205	-53.9	-64.9	336	17
2023-09-06T12:00	12278	204	-54.1	-64.6	336	17
2023-09-06T12:00	12305	203	-54.2	-64.5	336	17
2023-09-06T12:00	12329	202	-54.4	-64.5	336	17
2023-09-06T12:00	12353	202	-54.7	-65.1	335	17
2023-09-06T12:00	12373	201	-54.7	-66.2	335	17
2023-09-06T12:00	12395	200	-54.9	-67.8	335	17
2023-09-06T12:00	12416	200	-55.0	-68.7	335	17
2023-09-06T12:00	12438	199	-55.0	-68.6	334	17
2023-09-06T12:00	12462	198	-55.4	-68.6	334	17
2023-09-06T12:00	12482	198	-55.5	-68.3	333	17
2023-09-06T12:00	12504	197	-55.7	-68.1	333	17
2023-09-06T12:00	12525	196	-55.8	-67.9	332	17
2023-09-06T12:00	12550	196	-56.1	-67.8	331	17
2023-09-06T12:00	12574	195	-56.3	-67.7	331	17
2023-09-06T12:00	12596	194	-56.5	-67.6	330	17
2023-09-06T12:00	12619	193	-56.6	-67.5	330	17
2023-09-06T12:00	12642	193	-56.8	-67.6	330	17
2023-09-06T12:00	12666	192	-56.9	-67.7	330	18
2023-09-06T12:00	12691	191	-57.1	-67.8	330	18
2023-09-06T12:00	12718	190	-57.3	-68.0	329	18
2023-09-06T12:00	12743	190	-57.6	-68.3	329	18
2023-09-06T12:00	12767	189	-57.7	-68.6	328	18
2023-09-06T12:00	12790	188	-57.9	-68.9	328	18
2023-09-06T12:00	12812	188	-58.1	-69.2	327	18
2023-09-06T12:00	12833	187	-58.2	-69.2	327	18
2023-09-06T12:00	12856	186	-58.3	-69.1	327	18
2023-09-06T12:00	12876	186	-58.5	-69.3	328	18
2023-09-06T12:00	12897	185	-58.6	-69.7	328	18
2023-09-06T12:00	12918	184	-58.5	-70.0	328	18
2023-09-06T12:00	12939	184	-58.5	-70.3	329	18
2023-09-06T12:00	12965	183	-58.6	-70.4	329	19
2023-09-06T12:00	12986	182	-58.7	-70.3	330	18
2023-09-06T12:00	13008	182	-58.8	-70.3	331	18
2023-09-06T12:00	13029	181	-59.0	-70.6	332	18
2023-09-06T12:00	13050	181	-59.1	-70.7	333	18
2023-09-06T12:00	13069	180	-59.1	-70.7	335	18
2023-09-06T12:00	13092	179	-59.3	-70.9	336	18
2023-09-06T12:00	13113	179	-59.5	-71.0	336	18
2023-09-06T12:00	13135	178	-59.6	-71.0	337	18
2023-09-06T12:00	13154	178	-59.8	-71.0	338	17
2023-09-06T12:00	13173	177	-59.9	-70.9	339	17
2023-09-06T12:00	13196	176	-60.1	-70.6	340	17
2023-09-06T12:00	13217	176	-60.3	-69.8	342	17
2023-09-06T12:00	13245	175	-60.6	-68.8	342	16
2023-09-06T12:00	13274	174	-60.7	-67.7	342	16
2023-09-06T12:00	13297	174	-60.9	-67.0	342	15
2023-09-06T12:00	13321	173	-60.9	-66.5	340	15
2023-09-06T12:00	13344	172	-61.2	-66.6	339	14
2023-09-06T12:00	13366	172	-61.3	-66.6	339	14
2023-09-06T12:00	13389	171	-61.5	-66.9	338	15
2023-09-06T12:00	13411	170	-61.7	-67.1	338	15
2023-09-06T12:00	13433	170	-61.8	-67.4	339	15
2023-09-06T12:00	13456	169	-62.0	-67.8	338	15
2023-09-06T12:00	13480	169	-62.2	-68.2	338	16
2023-09-06T12:00	13500	168	-62.3	-68.6	337	16
2023-09-06T12:00	13524	167	-62.5	-69.1	337	16
2023-09-06T12:00	13547	167	-62.5	-69.7	336	16
2023-09-06T12:00	13568	166	-62.6	-70.3	334	17
2023-09-06T12:00	13588	166	-62.7	-70.9	333	17
2023-09-06T12:00	13614	165	-62.9	-71.4	332	17
2023-09-06T12:00	13638	164	-62.9	-71.5	331	18
2023-09-06T12:00	13660	164	-63.3	-71.7	330	18
2023-09-06T12:00	13685	163	-63.3	-71.5	330	19
2023-09-06T12:00	13707	162	-63.5	-71.3	330	19
2023-09-06T12:00	13729	162	-63.5	-70.9	329	19
2023-09-06T12:00	13749	161	-63.7	-70.6	329	19
2023-09-06T12:00	13770	161	-63.7	-70.2	329	19
2023-09-06T12:00	13791	160	-63.6	-69.7	329	18
2023-09-06T12:00	13812	160	-63.5	-69.2	329	18
2023-09-06T12:00	13834	159	-63.8	-69.0	330	18
2023-09-06T12:00	13858	159	-64.0	-68.8	331	17
2023-09-06T12:00	13880	158	-64.1	-68.8	332	17
2023-09-06T12:00	13902	157	-64.3	-69.1	332	16
2023-09-06T12:00	13925	157	-64.5	-69.6	331	16
2023-09-06T12:00	13948	156	-64.6	-70.2	331	15
2023-09-06T12:00	13970	156	-64.7	-70.9	330	15
2023-09-06T12:00	13991	155	-64.8	-71.6	329	15
2023-09-06T12:00	14013	155	-64.6	-72.2	328	15
2023-09-06T12:00	14035	154	-64.5	-72.7	328	16
2023-09-06T12:00	14055	153	-64.7	-73.3	329	16
2023-09-06T12:00	14075	153	-64.7	-73.7	330	16
2023-09-06T12:00	14098	152	-64.7	-74.2	331	16
2023-09-06T12:00	14120	152	-64.8	-74.7	332	16
2023-09-06T12:00	14141	151	-64.8	-75.1	333	17
2023-09-06T12:00	14164	151	-64.8	-75.3	334	17
2023-09-06T12:00	14190	150	-64.8	-75.4	334	17
2023-09-06T12:00	14214	150	-65.1	-75.7	334	17
2023-09-06T12:00	14237	149	-65.2	-75.8	334	17
2023-09-06T12:00	14263	148	-65.3	-75.7	334	17
2023-09-06T12:00	14289	148	-65.6	-75.9	334	17
2023-09-06T12:00	14314	147	-65.7	-75.9	334	17
2023-09-06T12:00	14341	147	-65.8	-75.9	334	17
2023-09-06T12:00	14361	146	-66.0	-76.0	334	17
2023-09-06T12:00	14387	145	-66.1	-76.0	334	17
2023-09-06T12:00	14413	145	-66.3	-76.3	333	17
2023-09-06T12:00	14438	144	-66.4	-76.4	333	17
2023-09-06T12:00	14466	143	-66.6	-76.6	332	17
2023-09-06T12:00	14487	143	-66.8	-76.9	332	17
2023-09-06T12:00	14512	142	-66.7	-76.9	332	17
2023-09-06T12:00	14537	142	-66.8	-77.3	332	17
2023-09-06T12:00	14562	141	-66.9	-77.8	332	16
2023-09-06T12:00	14587	141	-66.8		331	16
2023-09-06T12:00	14608	140	-66.8	-78.4	330	16
2023-09-06T12:00	14635	139	-66.7	-78.7	328	15
2023-09-06T12:00	14661	139	-66.5	-79.0	325	15
2023-09-06T12:00	14688	138	-66.2	-79.2	323	15
2023-09-06T12:00	14710	138	-66.2	-79.8	322	15
2023-09-06T12:00	14734	137	-66.0	-80.1	322	15
2023-09-06T12:00	14758	137	-65.5	-80.2	322	15
2023-09-06T12:00	14779	136	-64.9	-80.2	324	15
2023-09-06T12:00	14800	136	-64.9	-80.6	326	15
2023-09-06T12:00	14819	135	-65.0	-80.9	328	15
2023-09-06T12:00	14842	135	-65.2	-81.2	329	15
2023-09-06T12:00	14862	134	-65.2	-81.2	331	15
2023-09-06T12:00	14884	134	-65.2	-81.2	332	15
2023-09-06T12:00	14908	133	-65.5	-81.3	334	15
2023-09-06T12:00	14932	133	-65.4	-81.3	335	15
2023-09-06T12:00	14955	132	-65.4	-81.3	336	15
2023-09-06T12:00	14977	132	-65.6	-81.4	337	16
2023-09-06T12:00	15006	131	-65.8	-81.5	338	16
2023-09-06T12:00	15028	131	-65.8	-81.5	339	16
2023-09-06T12:00	15053	130	-66.1	-81.7	340	16
2023-09-06T12:00	15079	130	-66.2	-81.7	341	16
2023-09-06T12:00	15101	129	-66.3	-81.8	342	16
2023-09-06T12:00	15126	129	-66.3	-81.9	342	16
2023-09-06T12:00	15147	128	-66.3	-82.1	343	15
2023-09-06T12:00	15173	128	-66.1	-82.1	343	15
2023-09-06T12:00	15194	127	-66.0	-82.1	343	15
2023-09-06T12:00	15219	127	-66.1	-82.2	343	14
2023-09-06T12:00	15244	126	-66.2	-82.3	343	14
2023-09-06T12:00	15267	126	-66.3	-82.4	343	14
2023-09-06T12:00	15290	125	-66.5	-82.6	342	13
2023-09-06T12:00	15312	125	-66.6	-82.8	341	12
2023-09-06T12:00	15339	124	-66.5	-82.8	338	11
2023-09-06T12:00	15369	124	-66.5	-82.9	335	10
2023-09-06T12:00	15396	123	-66.5	-83.0	332	9
2023-09-06T12:00	15423	123	-66.4	-82.9	330	8
2023-09-06T12:00	15444	122	-66.4	-83.0	329	8
2023-09-06T12:00	15467	122	-66.5	-83.2	329	8
2023-09-06T12:00	15491	121	-66.5	-83.3	329	9
2023-09-06T12:00	15514	121	-66.6	-83.6	329	9
2023-09-06T12:00	15537	120	-66.4	-83.6	328	9
2023-09-06T12:00	15564	120	-66.2		327	9
2023-09-06T12:00	15587	119	-65.9	-83.7	325	9
2023-09-06T12:00	15609	119	-65.5	-83.7	323	9
2023-09-06T12:00	15631	118	-65.5	-83.9	321	9
2023-09-06T12:00	15654	118	-65.6	-84.0	320	9
2023-09-06T12:00	15680	117	-65.8	-84.3	320	9
2023-09-06T12:00	15702	117	-65.8	-84.3	321	9
2023-09-06T12:00	15726	117	-65.8	-84.5	324	9
2023-09-06T12:00	15753	116	-65.5	-84.6	328	9
2023-09-06T12:00	15775	116	-64.4	-83.9	332	9
2023-09-06T12:00	15800	115	-63.6	-83.7	335	9
2023-09-06T12:00	15824	115	-63.5	-83.7	338	9
2023-09-06T12:00	15847	114	-63.7	-83.9	340	9
2023-09-06T12:00	15875	114	-63.9	-84.0	341	9
2023-09-06T12:00	15898	113	-64.1	-84.3	343	10
2023-09-06T12:00	15923	113	-64.0	-84.3	345	10
2023-09-06T12:00	15947	112	-63.9	-84.2	346	10
2023-09-06T12:00	15973	112	-63.8	-84.2	346	9
2023-09-06T12:00	15997	111	-63.7	-84.2	345	9
2023-09-06T12:00	16020	111	-63.7	-84.2	343	9
2023-09-06T12:00	16044	111	-63.7	-84.2	341	8
2023-09-06T12:00	16070	110	-63.9	-84.2	339	8
2023-09-06T12:00	16096	110	-63.9	-84.2	339	8
2023-09-06T12:00	16121	109	-64.0	-84.1	339	8
2023-09-06T12:00	16147	109	-64.1	-84.2	340	7
2023-09-06T12:00	16170	108	-64.2	-84.2	340	7
2023-09-06T12:00	16199	108	-64.3	-84.2	339	7
2023-09-06T12:00	16222	107	-64.3	-84.2	337	7
2023-09-06T12:00	16248	107	-64.4	-84.3	334	7
2023-09-06T12:00	16274	107	-64.3	-84.4	331	7
2023-09-06T12:00	16299	106	-63.9	-84.2	327	7
2023-09-06T12:00	16324	106	-63.7	-84.2	323	7
2023-09-06T12:00	16350	105	-64.0	-84.4	319	7
2023-09-06T12:00	16378	105	-64.0	-84.5	317	7
2023-09-06T12:00	16401	104	-63.9	-84.6	315	8
2023-09-06T12:00	16425	104	-63.8	-84.5	314	8
2023-09-06T12:00	16450	104	-63.5	-84.4	313	8
2023-09-06T12:00	16477	103	-63.5	-84.6	313	7
2023-09-06T12:00	16500	103	-63.5	-84.7	313	7
2023-09-06T12:00	16522	102	-63.5	-84.7	312	7
2023-09-06T12:00	16547	102	-63.6	-85.0	310	7
2023-09-06T12:00	16570	102	-63.6	-85.0	307	7
2023-09-06T12:00	16595	101	-63.5	-84.9	304	8
2023-09-06T12:00	16621	101	-63.6	-85.0	302	8
2023-09-06T12:00	16645	100	-63.6	-85.0	301	8
2023-09-06T12:00	16669	100	-63.7	-85.0	300	9
2023-09-06T12:00	16693	100	-63.8	-85.1	301	8
2023-09-06T12:00	16718	99	-63.8	-85.1	302	8
2023-09-06T12:00	16743	99	-63.8	-85.3	303	8
2023-09-06T12:00	16763	98	-63.7	-85.2	304	8
2023-09-06T12:00	16788	98	-63.8	-85.3	306	8
2023-09-06T12:00	16813	98	-63.7	-85.4	307	8
2023-09-06T12:00	16838	97	-63.7	-85.5	309	9
2023-09-06T12:00	16865	97	-63.6	-85.5	310	9
2023-09-06T12:00	16888	96	-63.4	-85.5	310	9
2023-09-06T12:00	16912	96	-63.3	-85.6	311	10
2023-09-06T12:00	16939	96	-63.2	-85.5	313	10
2023-09-06T12:00	16961	95	-63.1	-85.6	314	10
2023-09-06T12:00	16987	95	-63.2	-85.7	317	10
2023-09-06T12:00	17011	95	-63.2	-85.9	320	9
2023-09-06T12:00	17033	94	-62.9	-85.8	324	9
2023-09-06T12:00	17056	94	-62.6	-85.8	328	8
2023-09-06T12:00	17083	93	-62.4	-85.9	333	8
2023-09-06T12:00	17105	93	-62.3	-86.0	338	7
2023-09-06T12:00	17131	93	-62.1	-86.1	344	6
2023-09-06T12:00	17159	92	-62.0	-86.3	351	6
2023-09-06T12:00	17183	92	-61.5	-86.1	358	6
2023-09-06T12:00	17205	92	-60.9	-85.9	4	5
2023-09-06T12:00	17229	91	-60.5	-85.9	9	5
2023-09-06T12:00	17255	91	-60.5	-85.9	13	5
2023-09-06T12:00	17278	90	-60.5	-85.9	16	5
2023-09-06T12:00	17304	90	-60.5	-85.9	17	5
2023-09-06T12:00	17328	90	-60.5	-85.9	17	5
2023-09-06T12:00	17353	89	-60.4	-85.8	15	4
2023-09-06T12:00	17379	89	-60.3	-85.7	14	4
2023-09-06T12:00	17402	89	-60.2	-85.7	14	4
2023-09-06T12:00	17424	88	-60.2	-85.7	15	4
2023-09-06T12:00	17450	88	-60.2	-85.7	18	4
2023-09-06T12:00	17472	88	-60.3	-85.7	20	4
2023-09-06T12:00	17497	87	-60.5	-85.9	23	4
2023-09-06T12:00	17522	87	-60.6	-86.0	24	4
2023-09-06T12:00	17546	87	-60.8	-86.1	24	4
2023-09-06T12:00	17573	86	-60.8	-86.1	23	4
2023-09-06T12:00	17599	86	-60.6	-86.0	21	5
2023-09-06T12:00	17622	86	-60.5	-85.9	20	5
2023-09-06T12:00	17648	85	-60.6	-86.0	19	5
2023-09-06T12:00	17675	85	-60.9	-86.2	19	5
2023-09-06T12:00	17699	85	-61.1	-86.1	21	4
2023-09-06T12:00	17727	84	-61.2	-86.2	23	4
2023-09-06T12:00	17752	84	-61.2	-86.2	26	3
2023-09-06T12:00	17774	84	-61.4	-86.3	28	3
2023-09-06T12:00	17800	83	-61.5	-86.4	28	2
2023-09-06T12:00	17824	83	-61.4	-86.3	28	2
2023-09-06T12:00	17848	83	-61.6	-86.5	27	2
2023-09-06T12:00	17871	82	-61.9	-86.4	26	1
2023-09-06T12:00	17897	82	-62.1	-86.6	25	1
2023-09-06T12:00	17921	82	-62.2	-86.7	4	0
2023-09-06T12:00	17945	81	-62.1	-86.6	262	0
2023-09-06T12:00	17971	81	-62.2	-86.7	260	1
2023-09-06T12:00	17994	81	-62.3	-86.7	271	1
2023-09-06T12:00	18021	80	-62.4	-86.8	283	1
2023-09-06T12:00	18043	80	-62.4	-87.1	294	1
2023-09-06T12:00	18067	80	-62.1	-87.1	305	1
2023-09-06T12:00	18090	79	-61.8	-86.9	324	1
2023-09-06T12:00	18117	79	-61.8	-87.2	5	1
2023-09-06T12:00	18141	79	-61.4	-87.2	42	1
2023-09-06T12:00	18167	78	-61.1	-87.0	55	2
2023-09-06T12:00	18189	78	-61.0	-86.9	60	2
2023-09-06T12:00	18211	78	-61.0	-86.9	61	3
2023-09-06T12:00	18238	78	-60.9	-86.8	62	3
2023-09-06T12:00	18264	77	-60.7	-86.6	61	3
2023-09-06T12:00	18291	77	-60.7	-86.6	59	2
2023-09-06T12:00	18311	77	-60.8		54	2
2023-09-06T12:00	18337	76	-61.1	-87.0	45	2
2023-09-06T12:00	18360	76	-61.3	-86.8	29	1
2023-09-06T12:00	18388	76	-61.3	-86.8	2	1
2023-09-06T12:00	18414	75	-61.4	-86.9	334	1
2023-09-06T12:00	18441	75	-61.4	-86.9	319	1
2023-09-06T12:00	18468	75	-61.6	-87.0	315	2
2023-09-06T12:00	18486	74	-61.8	-87.2	316	2
2023-09-06T12:00	18518	74	-61.7	-87.1	319	3
2023-09-06T12:00	18543	74	-61.6	-87.0	322	3
2023-09-06T12:00	18572	74	-61.8	-87.2	325	3
2023-09-06T12:00	18589	73	-61.8	-87.2	328	3
2023-09-06T12:00	18617	73	-61.5	-87.3	332	3
2023-09-06T12:00	18644	73	-61.0	-86.9	339	3
2023-09-06T12:00	18670	72	-60.7	-87.0	348	3
2023-09-06T12:00	18696	72	-60.7	-87.0	357	3
2023-09-06T12:00	18721	72	-60.8	-87.0	7	3
2023-09-06T12:00	18744	71	-60.9	-87.1	15	2
2023-09-06T12:00	18772	71	-61.0	-87.2	22	2
2023-09-06T12:00	18797	71	-60.9	-87.1	31	2
2023-09-06T12:00	18822	71	-60.9	-87.1	44	1
2023-09-06T12:00	18843	70	-60.8	-87.0	64	1
2023-09-06T12:00	18871	70	-60.4	-87.1	89	1
2023-09-06T12:00	18896	70	-60.1	-86.8	110	1
2023-09-06T12:00	18924	69	-60.0	-86.8	127	1
2023-09-06T12:00	18946	69	-59.8	-86.6	143	1
2023-09-06T12:00	18971	69	-59.8	-86.6	157	1
2023-09-06T12:00	18998	69	-59.9	-87.1	169	2
2023-09-06T12:00	19021	68	-59.9	-87.1	179	2
2023-09-06T12:00	19046	68	-59.4	-86.7	188	2
2023-09-06T12:00	19074	68	-59.2	-86.5	196	2
2023-09-06T12:00	19102	68	-59.3	-86.6	203	3
2023-09-06T12:00	19126	67	-59.2	-86.5	210	3
2023-09-06T12:00	19154	67	-59.2	-86.5	217	3
2023-09-06T12:00	19176	67	-59.2	-86.5	224	4
2023-09-06T12:00	19203	66	-59.4	-86.7	230	4
2023-09-06T12:00	19228	66	-59.5	-86.4	235	5
2023-09-06T12:00	19254	66	-59.4	-86.3	239	5
2023-09-06T12:00	19280	66	-59.5	-86.4	243	6
2023-09-06T12:00	19302	65	-59.6	-86.5	247	6
2023-09-06T12:00	19326	65	-59.7	-86.9	253	6
2023-09-06T12:00	19353	65	-59.8	-87.0	260	7
2023-09-06T12:00	19381	65	-59.6	-86.8	268	7
2023-09-06T12:00	19406	64	-59.3	-86.6	276	7
2023-09-06T12:00	19430	64	-59.2	-86.5	283	7
2023-09-06T12:00	19456	64	-59.2	-86.5	289	8
2023-09-06T12:00	19481	64	-59.2	-86.9	293	8
2023-09-06T12:00	19505	63	-59.2	-86.9	297	8
2023-09-06T12:00	19530	63	-59.0	-86.8	300	8
2023-09-06T12:00	19556	63	-58.8	-86.6	301	8
2023-09-06T12:00	19584	63	-58.9	-86.7	303	8
2023-09-06T12:00	19603	62	-58.7	-87.0	304	7
2023-09-06T12:00	19630	62	-58.5	-86.8	305	7
2023-09-06T12:00	19657	62	-58.1	-86.5	307	7
2023-09-06T12:00	19681	62	-57.9	-86.4	310	6
2023-09-06T12:00	19709	61	-57.7	-86.7	316	6
2023-09-06T12:00	19732	61	-57.5	-86.5	322	5
2023-09-06T12:00	19760	61	-57.4	-86.4	329	5
2023-09-06T12:00	19783	61	-57.4	-86.4	335	5
2023-09-06T12:00	19808	60	-57.4	-86.4	340	5
2023-09-06T12:00	19833	60	-57.3	-86.4	343	4
2023-09-06T12:00	19860	60	-57.1	-86.2	343	4
2023-09-06T12:00	19887	60	-57.0	-85.7	341	4
2023-09-06T12:00	19914	59	-57.0	-85.7	338	3
2023-09-06T12:00	19934	59	-57.0	-85.7	334	3
2023-09-06T12:00	19961	59	-56.9	-85.6	333	3
2023-09-06T12:00	19985	59	-57.0	-85.7	336	2
2023-09-06T12:00	20013	58	-57.1	-85.7	343	2
2023-09-06T12:00	20040	58	-57.1	-85.7	354	1
2023-09-06T12:00	20063	58	-57.2	-85.8	11	1
2023-09-06T12:00	20091	58	-57.4	-86.0	36	1
2023-09-06T12:00	20118	57	-57.6	-86.1	71	1
2023-09-06T12:00	20142	57	-57.4	-86.0	100	1
2023-09-06T12:00	20170	57	-57.3	-85.9	111	0
2023-09-06T12:00	20195	57	-57.3	-85.9	76	0
2023-09-06T12:00	20219	57	-57.3	-85.9	330	0
2023-09-06T12:00	20245	56	-57.4	-86.0	322	1
2023-09-06T12:00	20270	56	-57.5	-86.1	317	1
2023-09-06T12:00	20298	56	-57.7	-85.8	312	1
2023-09-06T12:00	20324	56	-57.8	-85.9	306	1
2023-09-06T12:00	20349	55	-58.0	-86.0	304	1
2023-09-06T12:00	20377	55	-57.9		311	1
2023-09-06T12:00	20406	55	-57.9	-86.4	329	1
2023-09-06T12:00	20433	55	-57.8	-86.3	348	2
2023-09-06T12:00	20458	54	-57.7	-86.2	2	2
2023-09-06T12:00	20486	54	-57.4	-86.0	11	3
2023-09-06T12:00	20511	54	-57.2	-86.3	19	4
2023-09-06T12:00	20536	54	-57.3	-86.4	26	4
2023-09-06T12:00	20564	54	-57.1	-86.2	33	5
2023-09-06T12:00	20589	53	-57.0	-86.1	40	5
2023-09-06T12:00	20614	53	-57.0	-86.1	48	5
2023-09-06T12:00	20642	53	-56.9	-86.1	56	4
2023-09-06T12:00	20672	53	-56.9	-86.1	66	4
2023-09-06T12:00	20700	52	-56.4	-85.7	76	4
2023-09-06T12:00	20723	52	-56.4	-85.7	88	3
2023-09-06T12:00	20753	52	-56.4	-85.7	101	3
2023-09-06T12:00	20777	52	-56.7	-85.9	115	3
2023-09-06T12:00	20807	51	-56.9	-85.6	131	2
2023-09-06T12:00	20834	51	-57.0	-85.7	149	2
2023-09-06T12:00	20863	51	-57.3	-85.9	167	2
2023-09-06T12:00	20891	51	-57.5	-85.6	184	3
2023-09-06T12:00	20915	51	-57.7	-85.8	197	3
2023-09-06T12:00	20938	50	-57.8	-85.9	208	2
2023-09-06T12:00	20968	50	-57.7	-86.2	217	2
2023-09-06T12:00	20989	50	-57.6	-86.1	228	2
2023-09-06T12:00	21019	50	-57.6	-86.1	246	1
2023-09-06T12:00	21041	50	-57.5	-86.1	293	1
2023-09-06T12:00	21072	49	-57.5	-86.1	354	1
2023-09-06T12:00	21091	49	-57.5	-86.1	18	1
2023-09-06T12:00	21122	49	-57.5	-86.1	31	2
2023-09-06T12:00	21148	49	-57.5	-86.1	43	2
2023-09-06T12:00	21174	49	-57.6	-86.1	55	3
2023-09-06T12:00	21198	48	-57.6	-86.1	67	3
2023-09-06T12:00	21226	48	-57.6	-86.1	79	3
2023-09-06T12:00	21251	48	-57.7	-86.2	88	4
2023-09-06T12:00	21273	48	-57.6	-86.1	97	3
2023-09-06T12:00	21302	48	-57.4	-86.0	103	3
2023-09-06T12:00	21327	47	-57.3	-85.9	110	3
2023-09-06T12:00	21353	47	-57.5	-86.1	119	2
2023-09-06T12:00	21379	47	-57.5	-86.1	136	1
2023-09-06T12:00	21406	47	-57.5	-86.1	171	1
2023-09-06T12:00	21431	47	-57.7	-85.8	206	1
2023-09-06T12:00	21460	46	-57.9		225	2
2023-09-06T12:00	21481	46	-58.2	-86.2	233	2
2023-09-06T12:00	21509	46	-58.3	-86.2	239	3
2023-09-06T12:00	21535	46	-58.5	-86.4	243	3
2023-09-06T12:00	21560	46	-58.7	-86.5	247	3
2023-09-06T12:00	21585	46	-58.7	-86.5	253	3
2023-09-06T12:00	21606	45	-58.6	-86.5	260	3
2023-09-06T12:00	21638	45	-58.2	-86.6	269	2
2023-09-06T12:00	21658	45	-58.0	-86.4	283	2
2023-09-06T12:00	21686	45	-57.9	-86.4	300	2
2023-09-06T12:00	21715	45	-57.9	-86.4	323	1
2023-09-06T12:00	21737	44	-57.8	-86.3	355	1
2023-09-06T12:00	21765	44	-57.7	-86.2	38	1
2023-09-06T12:00	21792	44	-57.9	-86.4	75	1
2023-09-06T12:00	21819	44	-57.9	-86.4	104	1
2023-09-06T12:00	21841	44	-57.8	-86.7	138	1
2023-09-06T12:00	21869	44	-57.5	-86.5	176	1
2023-09-06T12:00	21898	43	-57.2	-86.3	200	2
2023-09-06T12:00	21924	43	-57.2	-86.3	210	3
2023-09-06T12:00	21949	43	-57.3	-86.4	213	3
2023-09-06T12:00	21976	43	-57.3	-86.4	211	4
2023-09-06T12:00	22008	43	-57.3	-86.4	205	4
2023-09-06T12:00	22033	42	-56.9	-86.1	197	4
2023-09-06T12:00	22058	42	-56.6	-86.3	190	4
2023-09-06T12:00	22086	42	-56.4	-86.2	186	4
2023-09-06T12:00	22114	42	-56.4	-86.2	187	4
2023-09-06T12:00	22137	42	-56.4	-86.2	191	4
2023-09-06T12:00	22168	42	-56.1	-86.0	198	4
2023-09-06T12:00	22187	41	-55.9	-85.8	205	5
2023-09-06T12:00	22218	41	-56.0	-85.9	211	5
2023-09-06T12:00	22242	41	-56.0	-85.9	215	6
2023-09-06T12:00	22266	41	-56.1	-85.5	219	6
2023-09-06T12:00	22293	41	-56.1	-85.5	223	7
2023-09-06T12:00	22321	41	-56.3	-85.6	227	7
2023-09-06T12:00	22346	40	-56.3	-85.6	232	7
2023-09-06T12:00	22373	40	-56.4	-85.7	239	7
2023-09-06T12:00	22399	40	-56.4	-85.7	247	7
2023-09-06T12:00	22433	40	-56.4	-85.7	256	7
2023-09-06T12:00	22460	40	-56.5	-85.8	264	7
2023-09-06T12:00	22483	40	-56.5	-85.8	271	7
2023-09-06T12:00	22512	39	-56.3	-85.6	276	7
2023-09-06T12:00	22538	39	-56.3	-85.6	280	8
2023-09-06T12:00	22560	39	-56.4	-85.7	284	8
2023-09-06T12:00	22589	39	-56.6	-85.8	288	8
2023-09-06T12:00	22613	39	-56.7	-85.9	292	8
2023-09-06T12:00	22642	39	-56.6	-85.8	296	8
2023-09-06T12:00	22669	38	-56.5	-85.8	301	8
2023-09-06T12:00	22697	38	-56.5	-85.8	307	9
2023-09-06T12:00	22717	38	-56.5	-86.3	313	9
2023-09-06T12:00	22748	38	-56.4	-86.2	319	9
2023-09-06T12:00	22771	38	-56.1	-86.0	326	8
2023-09-06T12:00	22798	38	-55.8	-86.3	331	8
2023-09-06T12:00	22828	37	-55.3	-85.9	337	7
2023-09-06T12:00	22856	37	-55.2	-85.8	343	7
2023-09-06T12:00	22878	37	-55.1	-85.8	349	6
2023-09-06T12:00	22903	37	-54.9	-85.6	355	5
2023-09-06T12:00	22933	37	-55.0	-85.7	1	4
2023-09-06T12:00	22957	37	-55.1	-85.8	8	3
2023-09-06T12:00	22988	37	-55.2	-85.8	13	3
2023-09-06T12:00	23014	36	-55.3	-85.9	15	3
2023-09-06T12:00	23042	36	-55.1	-85.8	13	2
2023-09-06T12:00	23065	36	-54.7	-85.5	8	3
2023-09-06T12:00	23088	36	-54.6	-85.4	3	3
2023-09-06T12:00	23121	36	-54.7	-85.5	1	4
2023-09-06T12:00	23147	36	-54.9	-85.6	2	4
2023-09-06T12:00	23175	35	-54.9	-85.6	5	4
2023-09-06T12:00	23202	35	-54.9	-85.6	9	4
2023-09-06T12:00	23227	35	-54.8	-85.5	13	4
2023-09-06T12:00	23253	35	-54.7	-85.5	16	4
2023-09-06T12:00	23280	35	-54.5	-85.3	19	4
2023-09-06T12:00	23308	35	-54.5	-85.3	21	4
2023-09-06T12:00	23335	35	-54.5	-85.3	24	4
2023-09-06T12:00	23358	34	-54.6	-85.4	29	4
2023-09-06T12:00	23392	34	-54.7	-85.5	37	3
2023-09-06T12:00	23419	34	-54.7	-85.5	45	3
2023-09-06T12:00	23445	34	-54.7	-85.5	53	3
2023-09-06T12:00	23466	34	-54.5	-85.3	61	3
2023-09-06T12:00	23498	34	-54.5	-85.3	71	3
2023-09-06T12:00	23520	34	-54.5	-85.3	83	2
2023-09-06T12:00	23550	33	-54.1	-85.0	93	2
2023-09-06T12:00	23578	33	-54.0	-84.9	98	2
2023-09-06T12:00	23606	33	-54.0	-84.9	94	2
2023-09-06T12:00	23630	33	-53.9	-84.9	84	2
2023-09-06T12:00	23663	33	-53.9	-84.9	74	3
2023-09-06T12:00	23687	33	-54.1	-85.0	65	3
2023-09-06T12:00	23716	33	-54.2	-85.1	59	2
2023-09-06T12:00	23747	32	-54.1	-85.0	56	2
2023-09-06T12:00	23767	32	-54.0	-84.9	55	2
2023-09-06T12:00	23798	32	-54.1	-85.0	55	1
2023-09-06T12:00	23831	32	-54.3	-85.2	54	1
2023-09-06T12:00	23854	32	-54.5	-84.8	44	1
2023-09-06T12:00	23886	32	-54.8	-85.0	17	0
2023-09-06T12:00	23909	32	-55.2	-85.3	308	0
2023-09-06T12:00	23943	31	-55.5	-85.0	271	1
2023-09-06T12:00	23971	31	-55.8	-85.2	262	1
2023-09-06T12:00	24003	31	-55.9	-85.3	263	1
2023-09-06T12:00	24028	31	-56.2	-85.5	270	2
2023-09-06T12:00	24059	31	-56.5	-85.8	281	2
2023-09-06T12:00	24083	31	-56.7	-85.9	294	2
2023-09-06T12:00	24119	31	-56.7	-85.9	308	3
2023-09-06T12:00	24151	30	-56.7	-85.9	321	3
2023-09-06T12:00	24175	30	-56.9	-86.1	334	3
2023-09-06T12:00	24205	30	-57.1	-86.2	345	3
2023-09-06T12:00	24229	30	-57.1	-86.2	355	3
2023-09-06T12:00	24253	30	-57.0	-86.1	3	3
2023-09-06T12:00	24288	30	-57.0	-86.1	12	3
2023-09-06T12:00	24314	30	-57.0	-86.1	24	2
2023-09-06T12:00	24346	30	-57.1	-86.2	47	1
2023-09-06T12:00	24378	29	-57.2	-86.3	86	1
2023-09-06T12:00	24405	29	-57.4	-86.4	116	1
2023-09-06T12:00	24435	29	-57.3	-86.4	129	2
2023-09-06T12:00	24456	29	-57.3	-86.4	137	2
2023-09-06T12:00	24495	29	-57.4	-86.4	148	1
2023-09-06T12:00	24518	29	-57.2	-86.8	172	1
2023-09-06T12:00	24547	29	-56.9	-86.6	207	1
2023-09-06T12:00	24569	28	-56.6	-86.3	230	2
2023-09-06T12:00	24601	28	-56.3	-86.6	239	2
2023-09-06T12:00	24632	28	-56.2	-86.6	244	3
2023-09-06T12:00	24660	28	-56.3	-86.6	246	3
2023-09-06T12:00	24690	28	-56.2	-86.6	246	3
2023-09-06T12:00	24718	28	-55.9	-86.3	246	3
2023-09-06T12:00	24744	28	-55.8	-86.3	244	3
2023-09-06T12:00	24773	28	-55.6	-86.1	240	2
2023-09-06T12:00	24804	27	-55.3	-85.9	234	2
2023-09-06T12:00	24827	27	-55.3	-85.9	223	1
2023-09-06T12:00	24857	27	-55.5	-86.1	208	1
2023-09-06T12:00	24883	27	-55.5	-86.1	193	0
2023-09-06T12:00	24911	27	-55.3	-85.9	336	0
2023-09-06T12:00	24938	27	-55.2	-85.8	328	1
2023-09-06T12:00	24969	27	-55.3	-85.9	321	1
2023-09-06T12:00	24996	27	-55.4	-86.0	318	2
2023-09-06T12:00	25019	27	-55.6	-85.6	318	3
2023-09-06T12:00	25048	26	-55.6	-85.6	319	3
2023-09-06T12:00	25081	26	-55.8	-85.7	321	4
2023-09-06T12:00	25102	26	-55.9	-85.8	322	3
2023-09-06T12:00	25131	26	-55.8	-86.3	323	3
2023-09-06T12:00	25161	26	-55.5	-86.1	321	3
2023-09-06T12:00	25188	26	-55.0	-85.7	316	2
2023-09-06T12:00	25221	26	-54.8	-85.5	305	2
2023-09-06T12:00	25243	26	-54.7	-85.5	286	1
2023-09-06T12:00	25270	26	-54.8	-85.5	262	1
2023-09-06T12:00	25294	25	-55.0	-85.7	244	2
2023-09-06T12:00	25321	25	-55.0	-85.7	235	2
2023-09-06T12:00	25351	25	-55.0	-85.7	233	2
2023-09-06T12:00	25384	25	-55.1	-85.8	236	3
2023-09-06T12:00	25404	25	-55.1	-85.8	244	3
2023-09-06T12:00	25431	25	-54.9	-85.6	257	3
2023-09-06T12:00	25459	25	-54.7	-85.5	273	3
2023-09-06T12:00	25490	25	-54.5	-85.9	286	4
2023-09-06T12:00	25517	25	-54.2	-85.7	297	4
2023-09-06T12:00	25545	24	-53.6		304	4
2023-09-06T12:00	25574	24	-53.2	-85.6	307	4
2023-09-06T12:00	25601	24	-53.1	-85.6	306	4
2023-09-06T12:00	25626	24	-52.8	-85.3	298	3
2023-09-06T12:00	25657	24	-52.3	-85.0	281	3
2023-09-06T12:00	25687	24	-52.0	-85.5	257	3
2023-09-06T12:00	25720	24	-51.9	-85.5	235	3
2023-09-06T12:00	25740	24	-51.6	-84.5	221	4
2023-09-06T12:00	25773	24	-51.3	-84.3	214	5
2023-09-06T12:00	25805	23	-51.2	-84.2	211	6
2023-09-06T12:00	25831	23	-51.4	-84.3	211	6
2023-09-06T12:00	25862	23	-51.5	-84.4	213	7
2023-09-06T12:00	25887	23	-51.5	-84.4	216	7
2023-09-06T12:00	25920	23	-51.1	-84.1	220	7
2023-09-06T12:00	25943	23	-50.9	-84.0	226	7
2023-09-06T12:00	25976	23	-50.7	-83.8	232	7
2023-09-06T12:00	25996	23	-50.7	-83.8	240	6
2023-09-06T12:00	26029	23	-50.7	-83.8	249	6
2023-09-06T12:00	26057	23	-50.8	-83.9	258	7
2023-09-06T12:00	26083	23	-51.0	-84.0	265	7
2023-09-06T12:00	26110	22	-50.9	-84.0	271	8
2023-09-06T12:00	26142	22	-50.7	-83.8	275	8
2023-09-06T12:00	26170	22	-50.5	-83.7	278	9
2023-09-06T12:00	26191	22	-50.5	-83.7	281	10
2023-09-06T12:00	26229	22	-50.5	-83.7	285	10
2023-09-06T12:00	26253	22	-50.5	-83.7	289	11
2023-09-06T12:00	26288	22	-50.5	-83.7	293	11
2023-09-06T12:00	26311	22	-50.7	-83.8	297	12
2023-09-06T12:00	26333	22	-50.8	-83.9	301	11
2023-09-06T12:00	26369	22	-50.8	-83.9	305	11
2023-09-06T12:00	26404	21	-50.7	-83.8	309	10
2023-09-06T12:00	26433	21	-50.5	-83.7	313	10
2023-09-06T12:00	26461	21	-50.6	-83.7	318	9
2023-09-06T12:00	26486	21	-50.7	-83.8	322	8
2023-09-06T12:00	26511	21	-50.8	-83.9	328	8
2023-09-06T12:00	26547	21	-50.9	-84.0	334	7
2023-09-06T12:00	26580	21	-51.1	-84.1	342	7
2023-09-06T12:00	26603	21	-51.2	-84.2	351	7
2023-09-06T12:00	26636	21	-51.4	-84.3	1	6
2023-09-06T12:00	26667	21	-51.3	-84.3	10	6
2023-09-06T12:00	26691	21	-51.2	-84.2	17	6
2023-09-06T12:00	26718	20	-51.1	-84.1	21	6
2023-09-06T12:00	26752	20	-50.9	-84.0	23	6
2023-09-06T12:00	26777	20	-50.6	-84.5	24	5
2023-09-06T12:00	26806	20	-50.6	-84.5	26	5
2023-09-06T12:00	26841	20	-50.5	-84.5	29	4
2023-09-06T12:00	26875	20	-50.2	-84.2	37	4
2023-09-06T12:00	26899	20	-49.9	-84.0	48	4
2023-09-06T12:00	26918	20	-49.9	-84.0	60	4
2023-09-06T12:00	26957	20	-50.0	-84.1	72	4
2023-09-06T12:00	26994	20	-50.0	-84.1	81	4
2023-09-06T12:00	27019	20	-50.0	-84.1	89	4
2023-09-06T12:00	27046	19	-50.2	-83.5	95	3
2023-09-06T12:00	27071	19	-50.1	-83.4	99	3
2023-09-06T12:00	27105	19	-50.0	-83.3	100	2
2023-09-06T12:00	27138	19	-50.1	-84.2	96	2
2023-09-06T12:00	27165	19	-50.1	-84.2	83	1
2023-09-06T12:00	27201	19	-50.1	-84.2	47	1
2023-09-06T12:00	27234	19	-50.1	-84.2	345	1
2023-09-06T12:00	27263	19	-50.0	-84.1	313	1
2023-09-06T12:00	27277	19	-50.1	-84.2	297	1
2023-09-06T12:00	27314	19	-50.2	-84.2	286	1
2023-09-06T12:00	27339	19	-50.2	-84.2	272	1
2023-09-06T12:00	27382	18	-50.1	-84.2	251	1
2023-09-06T12:00	27416	18	-50.1	-84.2	226	1
2023-09-06T12:00	27441	18	-50.1	-84.2	211	2
2023-09-06T12:00	27478	18	-50.1	-84.2	206	3
2023-09-06T12:00	27505	18	-49.9	-84.0	205	4
2023-09-06T12:00	27530	18	-49.8	-84.0	205	4
2023-09-06T12:00	27568	18	-49.8	-84.0	205	5
2023-09-06T12:00	27590	18	-49.8	-84.0	206	6
2023-09-06T12:00	27623	18	-49.7	-83.9	207	6
2023-09-06T12:00	27651	18	-49.6	-83.8	210	7
2023-09-06T12:00	27686	18	-49.4	-83.7	214	7
2023-09-06T12:00	27698	18	-49.3	-83.6	219	7
2023-09-06T12:00	27738	17	-49.4	-83.7	224	7
2023-09-06T12:00	27765	17	-49.4	-83.7	229	7
2023-09-06T12:00	27789	17	-49.4	-83.7	234	7
2023-09-06T12:00	27815	17	-49.3	-83.6	238	7
2023-09-06T12:00	27834	17	-49.1	-83.4	241	7
2023-09-06T12:00	27871	17	-48.9	-83.3	241	7
2023-09-06T12:00	27905	17	-48.6		240	7
2023-09-06T12:00	27937	17	-48.2	-83.7	238	8
2023-09-06T12:00	27949	17	-48.1	-83.6	236	8
2023-09-06T12:00	27989	17	-48.2	-83.7	234	8
2023-09-06T12:00	28015	17	-48.1	-83.6	234	8
2023-09-06T12:00	28041	17	-48.0	-82.7	234	8
2023-09-06T12:00	28069	17	-48.0	-82.7	235	8
2023-09-06T12:00	28107	17	-48.1	-82.7	234	9
2023-09-06T12:00	28129	16	-48.2	-82.8	233	9
2023-09-06T12:00	28149	16	-48.3	-82.9	231	9
2023-09-06T12:00	28182	16	-48.3	-82.9	228	8
2023-09-06T12:00	28210	16	-48.2	-82.8	223	8
2023-09-06T12:00	28239	16	-48.1	-82.7	219	9
2023-09-06T12:00	28268	16	-48.0	-83.6	215	9
2023-09-06T12:00	28291	16	-47.9	-83.5	212	9
2023-09-06T12:00	28323	16	-47.8	-83.4	210	9
2023-09-06T12:00	28353	16	-47.8	-83.4	209	9
2023-09-06T12:00	28383	16	-47.9	-83.5	207	10
2023-09-06T12:00	28414	16	-47.9	-83.5	204	10
2023-09-06T12:00	28456	16	-47.9	-83.5	200	11
2023-09-06T12:00	28477	16	-47.9	-83.5	197	11
2023-09-06T12:00	28504	16	-47.8	-83.4	195	12
2023-09-06T12:00	28540	15	-47.6	-83.3	194	12
2023-09-06T12:00	28562	15	-47.3	-83.1	195	13
2023-09-06T12:00	28596	15	-47.1	-82.9	196	13
2023-09-06T12:00	28622	15	-47.0	-82.9	199	13
2023-09-06T12:00	28653	15	-46.9	-82.8	202	14
2023-09-06T12:00	28681	15	-47.0	-82.9	205	14
2023-09-06T12:00	28721	15	-46.9	-82.8	209	14
2023-09-06T12:00	28749	15	-46.7	-82.6	214	14
2023-09-06T12:00	28777	15	-46.5	-82.5	218	14
2023-09-06T12:00	28800	15	-46.5	-82.5	222	13
2023-09-06T12:00	28832	15	-46.6	-82.6	226	13
2023-09-06T12:00	28869	15	-46.4	-82.4	230	12
2023-09-06T12:00	28890	15	-46.1	-82.2	232	12
2023-09-06T12:00	28919	15	-46.0	-82.1	233	11
2023-09-06T12:00	28941	15	-46.0	-83.2	232	11
2023-09-06T12:00	28990	14	-45.8	-83.1	230	10
2023-09-06T12:00	29016	14	-45.5	-82.9	228	10
2023-09-06T12:00	29050	14	-45.3	-82.7	228	10
2023-09-06T12:00	29068	14	-45.2	-82.7	230	10
2023-09-06T12:00	29102	14	-45.0	-82.5	234	10
2023-09-06T12:00	29131	14	-44.8	-82.4	239	10
2023-09-06T12:00	29147	14	-44.5	-82.2	244	10
2023-09-06T12:00	29203	14	-43.8	-81.7	249	11
2023-09-06T12:00	29219	14	-43.4	-81.4	253	11
2023-09-06T12:00	29244	14	-43.2	-81.3	258	11
2023-09-06T12:00	29280	14	-43.2	-81.3	264	11
2023-09-06T12:00	29300	14	-43.2	-81.3	271	10
2023-09-06T12:00	29332	14	-43.2	-81.3	278	10
2023-09-06T12:00	29359	14	-43.1	-81.2	284	10
2023-09-06T12:00	29389	14	-43.0	-81.1	289	10
2023-09-06T12:00	29418	14	-42.7	-80.9	293	9
2023-09-06T12:00	29447	14	-42.6	-80.8	296	9
2023-09-06T12:00	29467	13	-42.8	-81.0	300	9
2023-09-06T12:00	29493	13	-42.9	-81.1	304	8
2023-09-06T12:00	29527	13	-43.1	-81.2	308	8
2023-09-06T12:00	29569	13	-43.3	-81.3	313	8
2023-09-06T12:00	29603	13	-43.6	-81.5	318	7
2023-09-06T12:00	29604	13	-43.7	-81.6	323	7
2023-09-06T12:00	29652	13	-43.9	-81.8	328	7
2023-09-06T12:00	29680	13	-44.1	-81.9	335	6
2023-09-06T12:00	29707	13	-44.3	-82.0	343	6
2023-09-06T12:00	29730	13	-44.5	-82.2	352	6
2023-09-06T12:00	29758	13	-44.7	-82.3	1	6
2023-09-06T12:00	29785	13	-44.9	-81.4	9	6
2023-09-06T12:00	29820	13	-45.1	-81.5	15	6
2023-09-06T12:00	29863	13	-45.1	-81.5	19	6
2023-09-06T12:00	29883	13	-45.1	-81.5	22	6
2023-09-06T12:00	29906	13	-45.1	-82.6	23	5
2023-09-06T12:00	29932	13	-45.0	-82.5	23	4
2023-09-06T12:00	29959	13	-45.1	-82.6	23	4
2023-09-06T12:00	29993	12	-45.1	-82.6	22	3
2023-09-06T12:00	30002	12	-44.8	-82.4	20	3
2023-09-06T12:00	30056	12	-44.6	-82.2	14	3
2023-09-06T12:00	30077	12	-44.5	-82.2	5	2
2023-09-06T12:00	30107	12	-44.6	-82.2	353	2
2023-09-06T12:00	30133	12	-44.9	-82.5	340	2
2023-09-06T12:00	30165	12	-45.1	-82.6	325	2
2023-09-06T12:00	30196	12	-45.2	-82.7	306	2
2023-09-06T12:00	30229	12	-45.3	-82.7	283	2
2023-09-06T12:00	30237	12	-45.2	-82.7	264	2
2023-09-06T12:00	30274	12	-44.9	-82.5	253	3
2023-09-06T12:00	30325	12	-44.7	-82.3	247	4
2023-09-06T12:00	30334	12	-44.9	-82.5	245	4
2023-09-06T12:00	30368	12	-45.0	-82.5	244	5
2023-09-06T12:00	30388	12	-45.0	-82.5	244	5
2023-09-06T12:00	30418	12	-45.0	-82.5	243	6
2023-09-06T12:00	30458	12	-44.9	-82.5	243	6
2023-09-06T12:00	30492	12	-44.6	-82.2	244	7
2023-09-06T12:00	30518	12	-44.2	-82.0	245	7
2023-09-06T12:00	30534	11	-44.0	-81.8	246	8
2023-09-06T12:00	30589	11	-44.1	-81.9	248	8
2023-09-06T12:00	30610	11	-44.3	-82.0	250	8
2023-09-06T12:00	30637	11	-44.6	-82.2	252	8
2023-09-06T12:00	30664	11	-44.8	-82.4	253	8
2023-09-06T12:00	30686	11	-44.7	-82.3	254	8
2023-09-06T12:00	30728	11	-44.6	-82.2	253	8
2023-09-06T12:00	30749	11	-44.7	-82.3	252	7
2023-09-06T12:00	30779	11	-44.8	-82.4	250	7
2023-09-06T12:00	30815	11	-45.1	-82.6	248	7
2023-09-06T12:00	30828	11	-45.2	-82.7	246	7
2023-09-06T12:00	30867	11	-45.3	-82.7	245	8
2023-09-06T12:00	30912	11	-45.4	-82.8	243	8
2023-09-06T12:00	30914	11	-45.4	-82.8	243	8
2023-09-06T12:00	30961	11	-45.4	-82.8	243	8
2023-09-06T12:00	30994	11	-45.5	-82.9	244	8
2023-09-06T12:00	31021	11	-45.7	-83.0	245	8
2023-09-06T12:00	31053	11	-45.9	-83.2	245	7
2023-09-06T12:00	31082	11	-46.0	-83.2	246	7
2023-09-06T12:00	31117	11	-46.0	-83.2	247	6
2023-09-06T12:00	31142	11	-45.9	-83.2	248	6
2023-09-06T12:00	31166	10	-45.9	-83.2	249	6
2023-09-06T12:00	31202	10	-45.9	-83.2	250	6
2023-09-06T12:00	31228	10	-46.0	-83.2	251	6
2023-09-06T12:00	31239	10	-46.1	-83.3	252	7
2023-09-06T12:00	31285	10	-46.2	-82.3	252	7
2023-09-06T12:00	31321	10	-46.4	-82.4	253	8
2023-09-06T12:00	31348	10	-46.7	-82.6	254	8
2023-09-06T12:00	31351	10	-46.8	-82.7	255	8
2023-09-06T12:00	31405	10	-47.0	-82.9	255	7
2023-09-06T12:00	31421	10	-47.2	-83.0	256	7
2023-09-06T12:00	31476	10	-47.3	-83.1	255	7
2023-09-06T12:00	31486	10	-47.3	-83.1	253	6
2023-09-06T12:00	31523	10	-47.1	-82.9	250	6
2023-09-06T12:00	31544	10	-46.9	-82.8	246	6
2023-09-06T12:00	31574	10	-46.7	-83.7	241	6
2023-09-06T12:00	31613	10	-46.4	-83.5	237	6
2023-09-06T12:00	31622	10	-46.2	-83.4	233	6
2023-09-06T12:00	31652	10	-46.2	-83.4	230	6
2023-09-06T12:00	31690	10	-46.0	-83.2	228	7
2023-09-06T12:00	31702	10	-45.7	-83.0	229	7
2023-09-06T12:00	31726	10	-45.4	-82.8	230	8
2023-09-06T12:00	31770	10	-45.3	-82.7	232	8
2023-09-06T12:00	31813	9	-45.0	-82.5	235	10
2023-09-06T12:00	31845	9	-44.8	-82.4	238	10
2023-09-06T12:00	31882	9	-44.6	-82.2	241	11
2023-09-06T12:00	31889	9	-44.3	-82.0	245	11
2023-09-06T12:00	31907	9	-44.0	-81.8	249	11
2023-09-06T12:00	31935	9	-43.8	-81.7	254	11
2023-09-06T12:00	31969	9	-43.7	-81.6	257	10
2023-09-06T12:00	32003	9	-43.6	-81.5	260	10
2023-09-06T12:00	32026	9	-43.5	-81.5	262	9
2023-09-06T12:00	32047	9	-43.5	-81.5	264	9
2023-09-06T12:00	32060	9	-43.6	-81.5	267	8
2023-09-06T12:00	32117	9	-43.6	-81.5	270	8
2023-09-06T12:00	32156	9	-43.7	-81.6	275	7
2023-09-06T12:00	32181	9	-43.7	-81.6	276	6
2023-09-06T12:00	32219	9	-43.6	-81.5	274	6
2023-09-06T12:00	32225	9	-43.5	-81.5	269	6
2023-09-06T12:00	32257	9	-43.4	-81.4	260	5
2023-09-06T12:00	32303	9	-43.3	-81.3	250	5
2023-09-06T12:00	32327	9	-43.1	-81.2	240	5
2023-09-06T12:00	32364	9	-43.1	-81.2	230	5
2023-09-06T12:00	32387	9	-42.9	-81.1	213	6
2023-09-06T12:00	32437	9	-42.7	-80.9	205	6
2023-09-06T12:00	32459	9	-42.6	-80.8	198	7
2023-09-06T12:00	32477	9	-42.5	-80.8	193	8
2023-09-06T12:00	32517	9	-42.4	-80.7	189	8
2023-09-06T12:00	32544	9	-42.2	-80.6	186	9
2023-09-06T12:00	32585	8	-41.9	-80.4	185	10
2023-09-06T12:00	32595	8	-41.7	-80.2	186	11
2023-09-06T12:00	32626	8	-41.7	-80.2	187	12
2023-09-06T12:00	32647	8	-41.7	-80.2	189	12
2023-09-06T12:00	32690	8	-41.8	-80.3	192	13
2023-09-06T12:00	32725	8	-41.9	-80.4	194	13
2023-09-06T12:00	32761	8	-41.9	-80.4	197	13
2023-09-06T12:00	32768	8	-41.9	-80.4	200	13
2023-09-06T12:00	32794	8	-41.9	-80.4	202	13
2023-09-06T12:00	32846	8	-41.9	-80.4	203	13
2023-09-06T12:00	32876	8	-41.9	-80.4	204	12
2023-09-06T12:00	32889	8	-42.0	-80.4	205	12
2023-09-06T12:00	32921	8	-42.1	-80.5	206	12
2023-09-06T12:00	32946	8	-42.0	-80.4	208	12
2023-09-06T12:00	32975	8	-41.9	-80.4	211	12
2023-09-06T12:00	33007	8	-41.7	-80.2	213	12
2023-09-06T12:00	33033	8	-41.6	-80.1	215	12
2023-09-06T12:00	33054	8	-41.1	-79.8	217	12
2023-09-06T18:00	112	1010	25.9	10.9	100	2
2023-09-06T18:00	137	1007	26.5	10.2	90	2
2023-09-06T18:00	164	1004	26.5	9.6	95	3
2023-09-06T18:00	191	1001	26.3	9.5	97	3
2023-09-06T18:00	215	998	26.1	9.2	99	3
2023-09-06T18:00	243	995	25.9	9.3	100	4
2023-09-06T18:00	265	992	25.7	9.2	100	4
2023-09-06T18:00	288	990	25.4	9.2	98	4
2023-09-06T18:00	316	987	25.2	9.2	96	4
2023-09-06T18:00	344	984	24.9		93	4
2023-09-06T18:00	370	980	24.7	9.3	91	4
2023-09-06T18:00	401	977	24.4	9.2	90	4
2023-09-06T18:00	430	974	24.1	9.2	90	4
2023-09-06T18:00	456	971	23.8	9.0	91	4
2023-09-06T18:00	483	968	23.6	9.0	92	4
2023-09-06T18:00	511	965	23.3	9.0	93	4
2023-09-06T18:00	537	962	23.0	8.9	93	4
2023-09-06T18:00	566	959	22.8	8.9	92	4
2023-09-06T18:00	597	955	22.5	8.9	90	4
2023-09-06T18:00	624	952	22.2	8.8	88	4
2023-09-06T18:00	651	949	21.9	8.7	86	4
2023-09-06T18:00	680	947	21.7	8.8	84	4
2023-09-06T18:00	703	944	21.4	8.8	83	4
2023-09-06T18:00	729	941	21.2	8.7	82	4
2023-09-06T18:00	757	938	20.9	8.6	82	4
2023-09-06T18:00	785	935	20.7	8.6	83	4
2023-09-06T18:00	813	932	20.4	8.5	85	4
2023-09-06T18:00	837	929	20.1	8.4	88	4
2023-09-06T18:00	865	926	19.9	8.4	91	4
2023-09-06T18:00	889	924	19.6	8.4	92	4
2023-09-06T18:00	916	921	19.4	8.5	93	4
2023-09-06T18:00	945	918	19.1		94	4
2023-09-06T18:00	971	915	18.9	8.6	95	4
2023-09-06T18:00	999	912	18.6	8.6	95	5
2023-09-06T18:00	1027	909	18.4	8.7	96	4
2023-09-06T18:00	1054	906	18.2	8.3	96	4
2023-09-06T18:00	1080	903	18.1	7.4	96	4
2023-09-06T18:00	1107	900	17.9	7.2	96	4
2023-09-06T18:00	1136	897	17.7	7.0	98	4
2023-09-06T18:00	1165	894	17.5	6.0	101	4
2023-09-06T18:00	1193	891	17.4	5.0	105	4
2023-09-06T18:00	1223	888	17.5	2.2	110	3
2023-09-06T18:00	1251	885	17.7	0.0	112	3
2023-09-06T18:00	1280	882	17.8	-0.9	112	3
2023-09-06T18:00	1310	879	17.7	-1.3	111	3
2023-09-06T18:00	1342	876	17.4	2.0	111	4
2023-09-06T18:00	1370	873	17.1	4.0	112	4
2023-09-06T18:00	1397	870	17.0	3.6	114	4
2023-09-06T18:00	1426	868	16.9	2.3	115	4
2023-09-06T18:00	1452	865	17.1	-3.1	114	4
2023-09-06T18:00	1480	862	16.9	-3.7	109	4
2023-09-06T18:00	1507	859	16.9	-6.5	101	4
2023-09-06T18:00	1537	856	17.2	-13.4	90	3
2023-09-06T18:00	1564	854	17.3	-18.7	75	3
2023-09-06T18:00	1590	851	17.3	-19.1	60	3
2023-09-06T18:00	1616	848	17.5	-18.1	48	2
2023-09-06T18:00	1644	845	17.6	-17.4	43	2
2023-09-06T18:00	1673	843	17.5	-16.9	43	2
2023-09-06T18:00	1699	840	17.3	-14.5	46	2
2023-09-06T18:00	1727	837	17.1	-14.5	51	2
2023-09-06T18:00	1754	835	17.0	-15.3	54	2
2023-09-06T18:00	1782	832	16.9	-13.4	55	3
2023-09-06T18:00	1813	829	16.8	-10.5	53	3
2023-09-06T18:00	1840	826	16.6	-7.9	50	3
2023-09-06T18:00	1867	824	16.3	-6.9	46	3
2023-09-06T18:00	1896	821	16.1	-7.7	42	3
2023-09-06T18:00	1925	818	16.0	-9.4	38	3
2023-09-06T18:00	1955	815	15.8	-11.0	36	3
2023-09-06T18:00	1980	813	15.7	-14.6	35	3
2023-09-06T18:00	2010	810	15.7	-20.0	36	3
2023-09-06T18:00	2042	807	15.7	-9.2	38	3
2023-09-06T18:00	2069	804	15.4	-7.5	40	3
2023-09-06T18:00	2098	802	15.2	-7.3	39	3
2023-09-06T18:00	2126	799	15.0	-7.9	36	3
2023-09-06T18:00	2156	796	15.0	-12.0	33	3
2023-09-06T18:00	2186	793	15.0	-15.6	32	3
2023-09-06T18:00	2211	791	15.0	-15.6	32	4
2023-09-06T18:00	2247	788	14.9	-14.1	34	4
2023-09-06T18:00	2275	785	14.7	-13.6	37	4
2023-09-06T18:00	2305	782	14.5	-14.3	39	4
2023-09-06T18:00	2331	780	14.3	-14.2	41	3
2023-09-06T18:00	2361	777	14.1	-14.1	41	3
2023-09-06T18:00	2390	774	14.0	-14.1	40	2
2023-09-06T18:00	2417	772	13.9	-14.4	37	2
2023-09-06T18:00	2446	769	13.7	-14.5	29	2
2023-09-06T18:00	2474	766	13.6	-15.2	14	1
2023-09-06T18:00	2503	764	13.5	-15.8	353	1
2023-09-06T18:00	2531	761	13.3	-16.4	338	2
2023-09-06T18:00	2559	759	13.3	-16.4	334	2
2023-09-06T18:00	2588	756	13.2	-17.8	337	2
2023-09-06T18:00	2619	753	13.0	-20.1	345	2
2023-09-06T18:00	2652	751	13.0	-25.3	354	3
2023-09-06T18:00	2680	748	12.9	-24.0	3	3
2023-09-06T18:00	2708	745	12.8	-17.1	9	3
2023-09-06T18:00	2738	743	12.7	-15.7	12	3
2023-09-06T18:00	2768	740	12.6	-13.8	14	3
2023-09-06T18:00	2798	738	12.4	-13.2	14	3
2023-09-06T18:00	2827	735	12.1	-10.1	14	3
2023-09-06T18:00	2856	732	11.9	-10.5	16	3
2023-09-06T18:00	2883	730	11.7	-11.3	20	3
2023-09-06T18:00	2911	727	11.5	-13.0	23	3
2023-09-06T18:00	2941	725	11.3	-14.0	26	3
2023-09-06T18:00	2972	722	11.1	-16.6	29	3
2023-09-06T18:00	3002	720	10.9	-17.3	30	3
2023-09-06T18:00	3029	717	10.8	-17.1	31	3
2023-09-06T18:00	3060	715	10.6	-16.8	33	3
2023-09-06T18:00	3090	712	10.4	-16.7	34	4
2023-09-06T18:00	3119	710	10.2	-16.6	34	4
2023-09-06T18:00	3149	707	10.0	-15.1	34	4
2023-09-06T18:00	3176	705	9.8	-9.9	32	4
2023-09-06T18:00	3206	702	9.7	-9.9	30	4
2023-09-06T18:00	3234	700	9.5	-11.0	28	4
2023-09-06T18:00	3264	697	9.3	-11.1	26	4
2023-09-06T18:00	3292	695	9.2	-10.7	23	4
2023-09-06T18:00	3322	692	9.0	-10.7	21	5
2023-09-06T18:00	3351	690	8.9	-12.5	19	5
2023-09-06T18:00	3380	687	8.7	-12.5	17	5
2023-09-06T18:00	3412	685	8.6	-12.5	15	6
2023-09-06T18:00	3441	682	8.6	-12.8	13	6
2023-09-06T18:00	3471	680	8.4	-12.2	9	6
2023-09-06T18:00	3500	678	8.2	-7.9	5	6
2023-09-06T18:00	3530	675	8.0	-7.2	2	6
2023-09-06T18:00	3564	673	7.8	-6.5	360	6
2023-09-06T18:00	3592	670	7.6	-5.5	360	7
2023-09-06T18:00	3624	668	7.4	-5.1	1	7
2023-09-06T18:00	3654	665	7.3	-6.3	4	7
2023-09-06T18:00	3683	663	7.1	-6.5	6	8
2023-09-06T18:00	3714	660	6.9	-6.4	7	8
2023-09-06T18:00	3745	658	6.9	-6.4	7	8
2023-09-06T18:00	3774	655	6.7	-6.8	6	8
2023-09-06T18:00	3803	653	6.7	-7.8	5	8
2023-09-06T18:00	3832	651	6.7	-8.0	4	9
2023-09-06T18:00	3862	649	6.5	-7.0	3	9
2023-09-06T18:00	3892	646	6.2	-6.5	2	9
2023-09-06T18:00	3921	644	6.1	-6.1	3	9
2023-09-06T18:00	3950	642	5.9	-6.6	4	9
2023-09-06T18:00	3980	639	5.6	-5.9	4	8
2023-09-06T18:00	4010	637	5.3	-5.6	5	8
2023-09-06T18:00	4040	635	5.1	-6.2	5	8
2023-09-06T18:00	4069	632	4.9	-6.0	5	8
2023-09-06T18:00	4096	630	4.7	-6.2	5	8
2023-09-06T18:00	4125	628	4.5	-6.5	4	8
2023-09-06T18:00	4155	626	4.3	-6.8	4	7
2023-09-06T18:00	4186	623	4.2	-6.8	3	7
2023-09-06T18:00	4217	621	4.0	-6.9	3	7
2023-09-06T18:00	4247	619	3.8	-6.6	3	7
2023-09-06T18:00	4278	616	3.6	-7.7	3	7
2023-09-06T18:00	4310	614	3.4	-7.4	3	7
2023-09-06T18:00	4340	612	3.2	-7.2	3	6
2023-09-06T18:00	4370	609	3.0	-7.9	3	6
2023-09-06T18:00	4398	607	2.8	-7.9	2	6
2023-09-06T18:00	4428	605	2.6	-7.9	2	6
2023-09-06T18:00	4458	603	2.3	-8.0	0	6
2023-09-06T18:00	4488	600	2.1	-8.5	358	6
2023-09-06T18:00	4518	598	1.8	-8.9	356	6
2023-09-06T18:00	4549	596	1.5	-9.2	355	6
2023-09-06T18:00	4577	594	1.3	-9.2	354	6
2023-09-06T18:00	4609	592	1.1	-9.4	354	6
2023-09-06T18:00	4638	589	0.9	-10.0	355	6
2023-09-06T18:00	4667	587	0.9	-11.3	357	6
2023-09-06T18:00	4699	585	0.7	-11.7	358	6
2023-09-06T18:00	4725	583	0.5	-12.4	359	7
2023-09-06T18:00	4756	581	0.3	-12.7	360	7
2023-09-06T18:00	4785	579	0.0	-13.1	0	7
2023-09-06T18:00	4816	577	-0.2	-13.8	0	7
2023-09-06T18:00	4844	574	-0.4	-13.6	360	7
2023-09-06T18:00	4876	572	-0.7	-13.7	359	7
2023-09-06T18:00	4908	570	-0.9	-13.5	358	7
2023-09-06T18:00	4939	568	-1.1	-13.8	357	7
2023-09-06T18:00	4968	566	-1.3	-14.0	355	7
2023-09-06T18:00	4997	563	-1.5	-14.4	354	7
2023-09-06T18:00	5026	561	-1.7	-15.1	353	7
2023-09-06T18:00	5058	559	-1.8	-16.6	354	7
2023-09-06T18:00	5086	557	-2.0	-17.1	355	7
2023-09-06T18:00	5115	555	-2.2	-17.5	357	7
2023-09-06T18:00	5144	553	-2.3	-17.9	358	8
2023-09-06T18:00	5174	551	-2.5	-18.0	359	8
2023-09-06T18:00	5199	549	-2.7	-18.5	358	8
2023-09-06T18:00	5232	547	-2.9	-19.4	358	8
2023-09-06T18:00	5259	545	-3.0	-20.1	357	8
2023-09-06T18:00	5286	543	-3.2	-20.1	356	8
2023-09-06T18:00	5317	541	-3.5	-20.1	355	8
2023-09-06T18:00	5348	539	-3.7	-20.2	354	8
2023-09-06T18:00	5377	537	-4.0	-20.2	354	8
2023-09-06T18:00	5406	535	-4.2	-20.3	354	8
2023-09-06T18:00	5434	533	-4.4	-20.5	355	8
2023-09-06T18:00	5463	531	-4.6	-20.9	355	9
2023-09-06T18:00	5494	529	-4.8	-22.7	356	9
2023-09-06T18:00	5523	527	-4.9	-24.8	356	9
2023-09-06T18:00	5551	525	-5.2	-24.4	356	9
2023-09-06T18:00	5585	523	-5.4	-24.4	357	9
2023-09-06T18:00	5612	521	-5.7	-23.9	357	9
2023-09-06T18:00	5641	520	-5.9	-24.6	356	9
2023-09-06T18:00	5664	518	-6.0	-26.4	356	9
2023-09-06T18:00	5696	516	-6.1	-28.3	356	9
2023-09-06T18:00	5725	514	-6.3	-28.8	356	9
2023-09-06T18:00	5755	512	-6.4		357	9
2023-09-06T18:00	5783	510	-6.6	-29.6	358	9
2023-09-06T18:00	5812	508	-6.7	-30.2	360	9
2023-09-06T18:00	5840	506	-7.0	-30.2	1	9
2023-09-06T18:00	5873	504	-7.2	-29.8	0	9
2023-09-06T18:00	5905	502	-7.5	-30.5	358	9
2023-09-06T18:00	5935	500	-7.7	-29.7	356	9
2023-09-06T18:00	5966	498	-7.9	-29.4	353	9
2023-09-06T18:00	5995	496	-8.1	-28.3	351	10
2023-09-06T18:00	6022	495	-8.3	-23.7	350	10
2023-09-06T18:00	6055	493	-8.6	-21.7	350	10
2023-09-06T18:00	6088	491	-8.9	-21.4	350	10
2023-09-06T18:00	6118	489	-9.2	-20.8	350	10
2023-09-06T18:00	6147	487	-9.5	-21.2	350	10
2023-09-06T18:00	6175	485	-9.7	-20.9	350	10
2023-09-06T18:00	6206	483	-10.0	-20.7	349	10
2023-09-06T18:00	6228	482	-10.2	-20.6	347	10
2023-09-06T18:00	6256	480	-10.5	-20.2	345	10
2023-09-06T18:00	6286	478	-10.7	-20.1	343	10
2023-09-06T18:00	6317	476	-11.0	-20.2	340	11
2023-09-06T18:00	6344	474	-11.3	-20.2	337	11
2023-09-06T18:00	6377	472	-11.4	-21.6	335	11
2023-09-06T18:00	6409	470	-11.6	-22.3	332	11
2023-09-06T18:00	6435	469	-11.6	-25.4	330	10
2023-09-06T18:00	6465	467	-11.6	-26.1	328	10
2023-09-06T18:00	6499	465	-11.7	-26.2	327	9
2023-09-06T18:00	6524	463	-11.9	-25.8	327	9
2023-09-06T18:00	6551	462	-12.0	-25.4	328	9
2023-09-06T18:00	6576	460	-12.3	-25.5	329	9
2023-09-06T18:00	6607	458	-12.5	-25.4	330	9
2023-09-06T18:00	6637	457	-12.8	-25.5	331	10
2023-09-06T18:00	6661	455	-13.0	-25.5	331	10
2023-09-06T18:00	6684	454	-13.2	-25.6	332	10
2023-09-06T18:00	6712	452	-13.5	-26.0	332	10
2023-09-06T18:00	6742	450	-13.7	-26.4	333	10
2023-09-06T18:00	6772	448	-14.0	-26.3	334	10
2023-09-06T18:00	6808	447	-14.3	-26.4	334	9
2023-09-06T18:00	6831	445	-14.5	-26.5	334	9
2023-09-06T18:00	6863	443	-14.7	-26.5	332	9
2023-09-06T18:00	6894	441	-14.9	-26.8	330	9
2023-09-06T18:00	6923	440	-15.1	-27.3	327	9
2023-09-06T18:00	6949	438	-15.3	-27.2	324	9
2023-09-06T18:00	6971	437	-15.5	-27.4	321	9
2023-09-06T18:00	7001	435	-15.7	-27.2	318	9
2023-09-06T18:00	7033	433	-15.9	-27.8	316	9
2023-09-06T18:00	7063	432	-16.2	-27.7	315	9
2023-09-06T18:00	7089	430	-16.4	-26.5	315	9
2023-09-06T18:00	7115	429	-16.6	-25.9	315	9
2023-09-06T18:00	7147	427	-16.8	-25.7	316	9
2023-09-06T18:00	7175	425	-17.1	-26.3	317	9
2023-09-06T18:00	7201	424	-17.3	-26.9	319	8
2023-09-06T18:00	7228	422	-17.5	-27.5	321	8
2023-09-06T18:00	7251	421	-17.6	-28.0	322	8
2023-09-06T18:00	7278	419	-17.9	-28.7	323	8
2023-09-06T18:00	7304	418	-18.0	-29.4	322	8
2023-09-06T18:00	7323	417	-18.1	-29.6	321	8
2023-09-06T18:00	7345	416	-18.2	-29.8	319	8
2023-09-06T18:00	7369	414	-18.2	-30.9	319	8
2023-09-06T18:00	7395	413	-18.3	-31.1	319	9
2023-09-06T18:00	7422	411	-18.5	-31.5	321	9
2023-09-06T18:00	7451	410	-18.7	-32.3	323	9
2023-09-06T18:00	7473	409	-18.6	-34.3	325	8
2023-09-06T18:00	7497	407	-18.7	-35.9	328	8
2023-09-06T18:00	7518	406	-18.8	-37.2	329	8
2023-09-06T18:00	7543	405	-18.9	-38.9	331	7
2023-09-06T18:00	7566	404	-19.0	-39.1	332	7
2023-09-06T18:00	7591	402	-19.2	-39.4	333	7
2023-09-06T18:00	7624	401	-19.4	-40.0	334	7
2023-09-06T18:00	7647	399	-19.6	-39.8	334	8
2023-09-06T18:00	7675	398	-19.8		333	8
2023-09-06T18:00	7708	396	-20.0	-39.3	331	7
2023-09-06T18:00	7731	395	-20.3	-39.3	328	7
2023-09-06T18:00	7756	393	-20.5	-38.6	325	7
2023-09-06T18:00	7782	392	-20.6	-39.6	322	7
2023-09-06T18:00	7806	391	-20.8	-40.2	320	7
2023-09-06T18:00	7830	389	-21.0	-40.5	320	8
2023-09-06T18:00	7860	388	-21.2	-40.6	320	8
2023-09-06T18:00	7887	386	-21.4	-40.9	321	8
2023-09-06T18:00	7917	385	-21.6	-41.0	322	8
2023-09-06T18:00	7946	383	-21.9	-41.2	323	7
2023-09-06T18:00	7979	382	-22.1	-41.2	325	7
2023-09-06T18:00	8008	380	-22.2	-41.4	326	7
2023-09-06T18:00	8034	379	-22.4	-41.4	328	6
2023-09-06T18:00	8056	378	-22.5	-40.8	330	6
2023-09-06T18:00	8082	376	-22.7	-40.0	332	6
2023-09-06T18:00	8109	375	-23.0	-39.6	333	6
2023-09-06T18:00	8133	374	-23.2	-39.4	334	6
2023-09-06T18:00	8156	373	-23.4		333	7
2023-09-06T18:00	8181	371	-23.7	-39.1	333	7
2023-09-06T18:00	8214	370	-24.0	-38.9	332	8
2023-09-06T18:00	8243	368	-24.2	-38.9	331	8
2023-09-06T18:00	8276	366	-24.6	-38.7	332	8
2023-09-06T18:00	8308	365	-24.8	-38.6	332	8
2023-09-06T18:00	8336	363	-25.1	-38.8	334	8
2023-09-06T18:00	8362	362	-25.3	-38.6	336	9
2023-09-06T18:00	8392	361	-25.6	-38.7	337	9
2023-09-06T18:00	8423	359	-25.8	-38.5	337	10
2023-09-06T18:00	8449	358	-26.0	-39.0	337	10
2023-09-06T18:00	8473	357	-26.1	-39.6	336	11
2023-09-06T18:00	8493	356	-26.2	-40.9	335	11
2023-09-06T18:00	8513	355	-26.3	-41.9	335	11
2023-09-06T18:00	8536	354	-26.4	-41.1	334	11
2023-09-06T18:00	8557	352	-26.5	-40.2	334	11
2023-09-06T18:00	8581	351	-26.7	-36.7	334	11
2023-09-06T18:00	8603	350	-26.9	-35.7	335	10
2023-09-06T18:00	8625	349	-27.0	-37.0	336	10
2023-09-06T18:00	8647	348	-27.1	-37.8	336	10
2023-09-06T18:00	8669	347	-27.3	-37.4	337	10
2023-09-06T18:00	8690	346	-27.5	-37.4	337	10
2023-09-06T18:00	8714	345	-27.6	-38.5	337	10
2023-09-06T18:00	8735	344	-27.7	-39.5	338	10
2023-09-06T18:00	8766	342	-27.8	-40.3	338	10
2023-09-06T18:00	8800	341	-28.0	-42.0	338	10
2023-09-06T18:00	8826	340	-28.1	-42.4	339	10
2023-09-06T18:00	8852	338	-28.3	-42.6	339	10
2023-09-06T18:00	8879	337	-28.5	-43.1	340	10
2023-09-06T18:00	8904	336	-28.7	-42.9	340	11
2023-09-06T18:00	8930	335	-28.9	-43.1	341	11
2023-09-06T18:00	8960	333	-29.1	-43.5	341	11
2023-09-06T18:00	8990	332	-29.4	-43.5	341	11
2023-09-06T18:00	9021	330	-29.7	-43.5	341	11
2023-09-06T18:00	9053	329	-30.0	-43.4	341	12
2023-09-06T18:00	9082	328	-30.2	-43.3	339	12
2023-09-06T18:00	9111	326	-30.5	-43.5	337	12
2023-09-06T18:00	9141	325	-30.7	-43.9	335	12
2023-09-06T18:00	9173	324	-30.9	-44.2	334	12
2023-09-06T18:00	9199	322	-31.1	-44.0	335	12
2023-09-06T18:00	9224	321	-31.4	-43.9	337	12
2023-09-06T18:00	9254	320	-31.6	-43.9	340	13
2023-09-06T18:00	9275	319	-31.8	-44.0	342	13
2023-09-06T18:00	9296	318	-31.9	-45.1	344	14
2023-09-06T18:00	9321	317	-32.0	-47.0	344	14
2023-09-06T18:00	9347	316	-32.1	-48.6	345	15
2023-09-06T18:00	9376	314	-32.3	-48.5	345	15
2023-09-06T18:00	9406	313	-32.5	-50.5	344	15
2023-09-06T18:00	9436	312	-32.8	-51.3	344	15
2023-09-06T18:00	9464	310	-33.0	-51.2	343	15
2023-09-06T18:00	9492	309	-33.2	-51.7	342	15
2023-09-06T18:00	9522	308	-33.5	-51.8	340	15
2023-09-06T18:00	9547	307	-33.7	-52.0	339	15
2023-09-06T18:00	9571	306	-33.8	-51.7	338	15
2023-09-06T18:00	9596	305	-34.0	-51.9	337	15
2023-09-06T18:00	9619	304	-34.2	-52.1	337	15
2023-09-06T18:00	9642	303	-34.4	-52.3	336	15
2023-09-06T18:00	9664	302	-34.6	-52.4	335	15
2023-09-06T18:00	9685	301	-34.8	-52.3	335	15
2023-09-06T18:00	9709	300	-35.0	-52.3	334	15
2023-09-06T18:00	9732	299	-35.2	-52.6	332	15
2023-09-06T18:00	9754	298	-35.3	-52.8	332	15
2023-09-06T18:00	9776	297	-35.5	-51.8	331	15
2023-09-06T18:00	9798	296	-35.7	-50.7	331	15
2023-09-06T18:00	9823	295	-35.9	-49.7	330	16
2023-09-06T18:00	9848	294	-36.1	-48.6	330	16
2023-09-06T18:00	9873	293	-36.4	-48.1	329	16
2023-09-06T18:00	9895	292	-36.6	-48.0	327	16
2023-09-06T18:00	9918	291	-36.8	-48.3	326	16
2023-09-06T18:00	9949	290	-37.1	-48.8	325	15
2023-09-06T18:00	9976	288	-37.3	-49.1	324	15
2023-09-06T18:00	9998	287	-37.4	-49.3	323	15
2023-09-06T18:00	10023	286	-37.6	-49.3	322	15
2023-09-06T18:00	10050	285	-37.8	-49.5	322	15
2023-09-06T18:00	10079	284	-38.1	-49.9	322	15
2023-09-06T18:00	10107	283	-38.3	-50.0	322	15
2023-09-06T18:00	10130	282	-38.5	-50.0	322	15
2023-09-06T18:00	10156	281	-38.7	-50.2	321	15
2023-09-06T18:00	10179	280	-38.9	-50.4	320	15
2023-09-06T18:00	10207	279	-39.1	-51.0	319	15
2023-09-06T18:00	10235	278	-39.3	-51.3	319	15
2023-09-06T18:00	10259	277	-39.6	-51.7	319	15
2023-09-06T18:00	10290	276	-39.8	-51.7	320	15
2023-09-06T18:00	10316	275	-40.0	-51.7	321	15
2023-09-06T18:00	10339	274	-40.2	-51.8	322	15
2023-09-06T18:00	10364	273	-40.4	-51.6	323	15
2023-09-06T18:00	10387	272	-40.6	-51.4	325	15
2023-09-06T18:00	10412	271	-40.7	-51.1	326	15
2023-09-06T18:00	10436	270	-40.8	-51.0	327	15
2023-09-06T18:00	10457	269	-41.0	-51.0	328	15
2023-09-06T18:00	10478	268	-41.2	-51.0	328	15
2023-09-06T18:00	10499	267	-41.4	-51.1	329	15
2023-09-06T18:00	10521	266	-41.6	-51.4	329	15
2023-09-06T18:00	10543	265	-41.7	-51.3	330	15
2023-09-06T18:00	10564	265	-41.8	-51.1	330	15
2023-09-06T18:00	10585	264	-41.9	-49.9	331	15
2023-09-06T18:00	10610	263	-42.1	-48.8	331	15
2023-09-06T18:00	10634	262	-42.4	-48.9	331	15
2023-09-06T18:00	10656	261	-42.6	-49.0	331	15
2023-09-06T18:00	10679	260	-42.8	-49.0	331	16
2023-09-06T18:00	10710	259	-43.0	-49.1	331	16
2023-09-06T18:00	10733	258	-43.2	-49.2	331	16
2023-09-06T18:00	10753	257	-43.4	-49.3	332	16
2023-09-06T18:00	10776	256	-43.6	-49.4	332	16
2023-09-06T18:00	10796	256	-43.8	-49.6	333	16
2023-09-06T18:00	10822	255	-44.0	-49.9	333	16
2023-09-06T18:00	10850	254	-44.2	-50.3	333	16
2023-09-06T18:00	10874	253	-44.4	-51.1	333	16
2023-09-06T18:00	10899	252	-44.5	-51.7	333	16
2023-09-06T18:00	10924	251	-44.7	-52.5	332	16
2023-09-06T18:00	10948	250	-44.7	-53.2	331	16
2023-09-06T18:00	10976	249	-44.9	-52.8	329	16
2023-09-06T18:00	11001	248	-45.1	-53.0	328	16
2023-09-06T18:00	11026	247	-45.2	-54.3	328	16
2023-09-06T18:00	11050	246	-45.2	-55.2	328	15
2023-09-06T18:00	11073	245	-45.3	-55.4	328	15
2023-09-06T18:00	11097	244	-45.5	-55.0	328	14
2023-09-06T18:00	11124	243	-45.7	-54.6	328	14
2023-09-06T18:00	11152	242	-46.0	-54.4	328	14
2023-09-06T18:00	11176	242	-46.2	-54.4	328	14
2023-09-06T18:00	11198	241	-46.4	-54.4	327	14
2023-09-06T18:00	11218	240	-46.5	-54.3	327	13
2023-09-06T18:00	11242	239	-46.7	-54.6	326	13
2023-09-06T18:00	11264	238	-46.9	-55.2	326	13
2023-09-06T18:00	11287	238	-47.0	-55.6	325	13
2023-09-06T18:00	11308	237	-47.2	-55.4	325	13
2023-09-06T18:00	11329	236	-47.3	-54.9	325	13
2023-09-06T18:00	11352	235	-47.5	-54.6	325	13
2023-09-06T18:00	11374	234	-47.7	-54.3	326	13
2023-09-06T18:00	11395	234	-47.9	-54.1	327	13
2023-09-06T18:00	11418	233	-48.1	-54.2	328	13
2023-09-06T18:00	11439	232	-48.3	-54.4	329	13
2023-09-06T18:00	11462	231	-48.5	-54.7	330	14
2023-09-06T18:00	11483	231	-48.7	-55.1	331	14
2023-09-06T18:00	11507	230	-48.9	-55.6	332	14
2023-09-06T18:00	11529	229	-49.0	-55.8	333	14
2023-09-06T18:00	11550	228	-49.2	-55.8	333	14
2023-09-06T18:00	11571	228	-49.4	-55.8	333	14
2023-09-06T18:00	11592	227	-49.6	-55.7	333	14
2023-09-06T18:00	11614	226	-49.8	-55.8	334	14
2023-09-06T18:00	11636	225	-50.0	-56.0	335	15
2023-09-06T18:00	11658	225	-50.2	-56.4	335	15
2023-09-06T18:00	11678	224	-50.4	-56.8	336	15
2023-09-06T18:00	11699	223	-50.6	-57.3	336	15
2023-09-06T18:00	11723	222	-50.7	-57.9	336	15
2023-09-06T18:00	11743	222	-50.8	-58.5	336	15
2023-09-06T18:00	11765	221	-50.9	-59.0	336	15
2023-09-06T18:00	11788	220	-51.0	-59.4	335	15
2023-09-06T18:00	11809	219	-51.2	-59.9	335	16
2023-09-06T18:00	11829	219	-51.3	-60.4	334	16
2023-09-06T18:00	11852	218	-51.3	-61.0	333	16
2023-09-06T18:00	11874	217	-51.4	-61.8	332	16
2023-09-06T18:00	11896	216	-51.5	-62.3	331	16
2023-09-06T18:00	11919	216	-51.6	-62.6	331	16
2023-09-06T18:00	11939	215	-51.8	-62.9	330	16
2023-09-06T18:00	11960	214	-51.9	-63.1	330	17
2023-09-06T18:00	11983	214	-52.0	-63.4	330	17
2023-09-06T18:00	12002	213	-52.1	-63.7	329	17
2023-09-06T18:00	12024	212	-52.2	-64.0	329	17
2023-09-06T18:00	12046	212	-52.4	-64.2	329	17
2023-09-06T18:00	12067	211	-52.5	-64.1	329	17
2023-09-06T18:00	12089	210	-52.7	-64.2	329	17
2023-09-06T18:00	12111	209	-52.8	-64.1	329	17
2023-09-06T18:00	12129	209	-53.0	-64.2	330	16
2023-09-06T18:00	12151	208	-53.2	-64.3	330	16
2023-09-06T18:00	12172	207	-53.3	-64.4	329	16
2023-09-06T18:00	12193	207	-53.5	-64.6	329	16
2023-09-06T18:00	12214	206	-53.7	-64.7	329	16
2023-09-06T18:00	12236	205	-53.8	-64.7	328	16
2023-09-06T18:00	12256	205	-54.0	-64.8	327	16
2023-09-06T18:00	12276	204	-54.2	-64.8	327	16
2023-09-06T18:00	12300	203	-54.4	-64.9	327	17
2023-09-06T18:00	12322	203	-54.5	-65.0	327	17
2023-09-06T18:00	12341	202	-54.6	-65.2	327	17
2023-09-06T18:00	12363	201	-54.8	-65.3	327	17
2023-09-06T18:00	12383	201	-54.9	-65.4	327	17
2023-09-06T18:00	12404	200	-55.1	-65.5	327	17
2023-09-06T18:00	12427	199	-55.3	-65.5	326	17
2023-09-06T18:00	12448	199	-55.4	-65.5	326	17
2023-09-06T18:00	12468	198	-55.6	-65.5	326	17
2023-09-06T18:00	12490	197	-55.8	-65.5	327	17
2023-09-06T18:00	12512	197	-56.0	-65.6	327	17
2023-09-06T18:00	12532	196	-56.2	-65.6	327	17
2023-09-06T18:00	12553	195	-56.4	-65.8	328	17
2023-09-06T18:00	12574	195	-56.5	-65.9	328	17
2023-09-06T18:00	12595	194	-56.7	-66.1	328	17
2023-09-06T18:00	12616	193	-56.8	-66.2	328	17
2023-09-06T18:00	12637	193	-57.0	-66.3	328	17
2023-09-06T18:00	12659	192	-57.1	-66.3	328	17
2023-09-06T18:00	12679	192	-57.3	-66.4	328	17
2023-09-06T18:00	12699	191	-57.4	-66.4	327	17
2023-09-06T18:00	12722	190	-57.6	-66.5	327	17
2023-09-06T18:00	12741	190	-57.7	-66.7	326	18
2023-09-06T18:00	12761	189	-57.9	-67.0	326	18
2023-09-06T18:00	12783	188	-58.1	-67.4	326	19
2023-09-06T18:00	12805	188	-58.3		325	19
2023-09-06T18:00	12827	187	-58.4	-68.1	325	19
2023-09-06T18:00	12846	187	-58.4	-68.2	324	19
2023-09-06T18:00	12865	186	-58.5	-68.2	324	18
2023-09-06T18:00	12886	185	-58.5	-68.0	325	18
2023-09-06T18:00	12907	185	-58.6	-67.9	325	18
2023-09-06T18:00	12925	184	-58.7	-67.8	325	18
2023-09-06T18:00	12946	184	-58.9	-67.9	325	18
2023-09-06T18:00	12968	183	-59.1	-68.1	325	18
2023-09-06T18:00	12991	182	-59.2	-68.3	325	18
2023-09-06T18:00	13012	182	-59.4	-68.6	325	19
2023-09-06T18:00	13033	181	-59.4	-68.8	325	19
2023-09-06T18:00	13052	181	-59.5	-69.0	325	19
2023-09-06T18:00	13073	180	-59.6	-69.3	325	19
2023-09-06T18:00	13095	179	-59.7	-69.4	325	19
2023-09-06T18:00	13116	179	-59.8	-69.3	325	19
2023-09-06T18:00	13138	178	-59.9	-69.2	325	20
2023-09-06T18:00	13158	177	-60.1	-69.2	325	20
2023-09-06T18:00	13181	177	-60.3	-69.1	325	20
2023-09-06T18:00	13199	176	-60.5	-68.9	325	21
2023-09-06T18:00	13219	176	-60.7	-68.7	326	21
2023-09-06T18:00	13239	175	-60.8	-68.5	327	21
2023-09-06T18:00	13258	175	-61.0	-68.4	328	21
2023-09-06T18:00	13281	174	-61.1	-68.3	328	21
2023-09-06T18:00	13301	173	-61.3	-68.4	329	21
2023-09-06T18:00	13322	173	-61.4	-68.4	329	21
2023-09-06T18:00	13343	172	-61.5	-68.4	328	21
2023-09-06T18:00	13361	172	-61.7	-68.5	328	21
2023-09-06T18:00	13382	171	-61.8	-68.5	328	21
2023-09-06T18:00	13404	171	-62.1	-68.7	328	21
2023-09-06T18:00	13426	170	-62.3	-68.9	329	21
2023-09-06T18:00	13446	169	-62.5	-69.0	329	21
2023-09-06T18:00	13468	169	-62.5	-69.1	330	21
2023-09-06T18:00	13486	168	-62.7	-69.3	330	21
2023-09-06T18:00	13508	168	-62.8	-69.3	330	21
2023-09-06T18:00	13528	167	-62.9	-69.1	330	21
2023-09-06T18:00	13548	167	-63.1	-69.0	330	21
2023-09-06T18:00	13570	166	-63.2	-68.9	330	21
2023-09-06T18:00	13589	166	-63.4	-69.0	330	20
2023-09-06T18:00	13610	165	-63.5	-69.0	330	20
2023-09-06T18:00	13633	164	-63.7	-69.3	330	20
2023-09-06T18:00	13652	164	-63.9	-69.6	330	20
2023-09-06T18:00	13673	163	-64.0	-69.9	330	20
2023-09-06T18:00	13696	163	-64.0	-70.1	329	20
2023-09-06T18:00	13714	162	-64.1	-70.2	329	19
2023-09-06T18:00	13736	162	-64.3	-70.3	329	19
2023-09-06T18:00	13755	161	-64.4	-70.1	329	19
2023-09-06T18:00	13777	161	-64.5	-69.9	330	19
2023-09-06T18:00	13800	160	-64.6	-69.7	330	19
2023-09-06T18:00	13821	159	-64.6	-69.4	331	18
2023-09-06T18:00	13840	159	-64.6	-69.3	331	18
2023-09-06T18:00	13861	158	-64.6	-69.2	330	18
2023-09-06T18:00	13881	158	-64.8	-69.5	329	18
2023-09-06T18:00	13905	157	-64.9	-70.0	329	18
2023-09-06T18:00	13926	157	-65.0	-70.6	328	18
2023-09-06T18:00	13945	156	-64.9	-71.1	328	19
2023-09-06T18:00	13966	156	-64.8	-71.6	328	19
2023-09-06T18:00	13986	155	-64.7	-72.0	330	19
2023-09-06T18:00	14007	155	-64.4	-72.0	333	19
2023-09-06T18:00	14026	154	-64.4	-72.2	336	19
2023-09-06T18:00	14050	154	-64.2	-72.2	338	20
2023-09-06T18:00	14070	153	-64.2	-72.4	341	20
2023-09-06T18:00	14093	152	-64.1	-72.7	342	20
2023-09-06T18:00	14115	152	-64.0	-73.1	343	20
2023-09-06T18:00	14135	151	-64.1	-73.7	344	19
2023-09-06T18:00	14157	151	-64.0	-74.0	344	19
2023-09-06T18:00	14179	150	-64.2	-74.5	344	18
2023-09-06T18:00	14199	150	-64.3	-74.7	344	18
2023-09-06T18:00	14223	149	-64.5	-75.1	343	17
2023-09-06T18:00	14245	149	-64.6	-75.4	343	16
2023-09-06T18:00	14264	148	-64.8	-75.9	343	16
2023-09-06T18:00	14291	148	-64.8	-76.2	343	15
2023-09-06T18:00	14319	147	-64.9	-76.7	343	14
2023-09-06T18:00	14345	146	-65.0	-77.0	342	13
2023-09-06T18:00	14365	146	-65.1	-77.3	340	13
2023-09-06T18:00	14392	145	-65.3	-77.6	339	12
2023-09-06T18:00	14414	145	-65.4	-77.8	338	12
2023-09-06T18:00	14435	144	-65.5	-78.1	337	11
2023-09-06T18:00	14458	144	-65.3	-78.1	337	11
2023-09-06T18:00	14480	143	-65.2	-78.3	336	11
2023-09-06T18:00	14503	143	-65.2	-78.5	336	11
2023-09-06T18:00	14524	142	-65.2	-78.6	335	10
2023-09-06T18:00	14547	142	-65.3	-78.7	334	10
2023-09-06T18:00	14569	141	-65.5	-78.8	333	10
2023-09-06T18:00	14592	140	-65.7	-78.8	333	9
2023-09-06T18:00	14612	140	-65.8	-78.8	332	9
2023-09-06T18:00	14632	139	-66.0	-78.9	331	10
2023-09-06T18:00	14657	139	-66.1	-78.9	330	10
2023-09-06T18:00	14679	138	-66.3	-79.0	329	10
2023-09-06T18:00	14699	138	-66.5	-79.1	328	11
2023-09-06T18:00	14720	138	-66.6	-79.2	327	11
2023-09-06T18:00	14743	137	-66.7	-79.3	325	11
2023-09-06T18:00	14766	137	-66.7	-79.4	324	12
2023-09-06T18:00	14789	136	-66.8	-79.6	322	12
2023-09-06T18:00	14808	136	-66.8	-79.8	319	12
2023-09-06T18:00	14833	135	-66.8	-80.0	317	12
2023-09-06T18:00	14855	134	-66.8	-80.1	315	12
2023-09-06T18:00	14878	134	-67.0	-80.3	314	12
2023-09-06T18:00	14900	134	-67.1	-80.5	314	12
2023-09-06T18:00	14925	133	-67.3	-80.7	314	12
2023-09-06T18:00	14945	132	-67.4	-80.9	314	12
2023-09-06T18:00	14968	132	-67.4	-81.0	315	12
2023-09-06T18:00	14991	132	-67.4	-81.3	316	12
2023-09-06T18:00	15014	131	-67.3	-81.6	318	13
2023-09-06T18:00	15037	130	-66.7	-81.6	319	13
2023-09-06T18:00	15059	130	-66.2	-81.7	321	14
2023-09-06T18:00	15083	130	-66.1	-82.1	321	14
2023-09-06T18:00	15106	129	-66.0	-82.4	322	13
2023-09-06T18:00	15130	129	-65.6	-82.3	321	13
2023-09-06T18:00	15149	128	-65.5	-82.5	320	12
2023-09-06T18:00	15176	128	-65.4	-82.6	318	12
2023-09-06T18:00	15195	127	-65.3	-82.6	316	12
2023-09-06T18:00	15222	127	-65.1	-82.6	315	12
2023-09-06T18:00	15243	126	-65.0	-82.6	315	12
2023-09-06T18:00	15268	126	-64.8	-82.5	315	13
2023-09-06T18:00	15291	125	-64.4	-82.3	316	13
2023-09-06T18:00	15312	125	-64.4	-82.3	317	13
2023-09-06T18:00	15336	124	-64.5	-82.2	318	13
2023-09-06T18:00	15359	124	-64.7	-82.4	319	13
2023-09-06T18:00	15383	123	-64.8	-82.4	321	13
2023-09-06T18:00	15406	123	-64.9	-82.4	322	14
2023-09-06T18:00	15428	122	-65.1	-82.5	323	14
2023-09-06T18:00	15451	122	-65.2	-82.6	324	14
2023-09-06T18:00	15475	121	-65.4	-82.6	326	13
2023-09-06T18:00	15498	121	-65.5	-82.8	328	12
2023-09-06T18:00	15521	121	-65.3	-82.7	329	11
2023-09-06T18:00	15547	120	-65.1	-82.7	328	11
2023-09-06T18:00	15570	120	-64.9	-82.8	327	10
2023-09-06T18:00	15590	119	-64.8	-82.9	324	9
2023-09-06T18:00	15613	119	-64.6	-82.8	320	9
2023-09-06T18:00	15635	118	-64.5	-82.8	317	9
2023-09-06T18:00	15657	118	-64.6	-83.0	316	9
2023-09-06T18:00	15678	117	-64.7	-83.1	315	10
2023-09-06T18:00	15700	117	-64.8	-83.3	315	11
2023-09-06T18:00	15721	117	-64.7	-83.2	315	11
2023-09-06T18:00	15743	116	-64.7	-83.2	316	12
2023-09-06T18:00	15764	116	-64.8	-83.4	317	12
2023-09-06T18:00	15785	115	-64.8	-83.6	318	12
2023-09-06T18:00	15810	115	-64.7	-83.6	321	12
2023-09-06T18:00	15831	115	-64.6	-83.6	323	12
2023-09-06T18:00	15853	114	-64.4	-83.7	326	11
2023-09-06T18:00	15876	114	-64.2	-83.8	329	11
2023-09-06T18:00	15898	113	-64.2	-83.9	332	10
2023-09-06T18:00	15921	113	-63.9	-83.9	335	9
2023-09-06T18:00	15943	112	-63.7	-83.7	336	8
2023-09-06T18:00	15966	112	-63.7	-83.9	337	7
2023-09-06T18:00	15988	112	-63.8	-84.0	336	6
2023-09-06T18:00	16011	111	-63.8	-84.0	333	5
2023-09-06T18:00	16034	111	-63.9	-83.9	329	5
2023-09-06T18:00	16056	110	-63.9	-83.9	322	4
2023-09-06T18:00	16076	110	-64.0	-84.0	313	4
2023-09-06T18:00	16100	110	-64.1	-83.9	303	4
2023-09-06T18:00	16124	109	-64.2	-83.9	294	4
2023-09-06T18:00	16147	109	-64.3	-84.0	288	4
2023-09-06T18:00	16169	108	-64.4	-84.1	286	4
2023-09-06T18:00	16190	108	-64.2	-83.9	286	5
2023-09-06T18:00	16213	108	-64.3	-84.0	288	5
2023-09-06T18:00	16236	107	-64.3	-84.1	289	5
2023-09-06T18:00	16259	107	-64.2	-84.0	292	5
2023-09-06T18:00	16281	106	-64.1	-84.1	295	5
2023-09-06T18:00	16303	106	-64.0	-84.0	298	6
2023-09-06T18:00	16327	106	-63.9	-83.9	303	6
2023-09-06T18:00	16351	105	-64.0	-84.1	307	6
2023-09-06T18:00	16371	105	-63.9	-84.0	312	6
2023-09-06T18:00	16394	104	-64.0	-84.3	317	6
2023-09-06T18:00	16414	104	-63.9	-84.3	321	6
2023-09-06T18:00	16437	104	-63.6		325	6
2023-09-06T18:00	16462	103	-63.2	-84.2	329	6
2023-09-06T18:00	16482	103	-63.0	-84.2	333	6
2023-09-06T18:00	16506	103	-62.8	-84.2	335	6
2023-09-06T18:00	16530	102	-62.7	-84.1	338	6
2023-09-06T18:00	16551	102	-62.9	-84.2	341	7
2023-09-06T18:00	16575	101	-63.0	-84.3	344	7
2023-09-06T18:00	16596	101	-63.1	-84.4	347	7
2023-09-06T18:00	16619	101	-63.0	-84.3	350	7
2023-09-06T18:00	16643	100	-63.2	-84.5	352	7
2023-09-06T18:00	16663	100	-63.4	-84.5	353	7
2023-09-06T18:00	16684	100	-63.5	-84.6	353	7
2023-09-06T18:00	16707	99	-63.5	-84.6	352	7
2023-09-06T18:00	16728	99	-63.4	-84.6	350	7
2023-09-06T18:00	16752	99	-63.4	-84.6	348	7
2023-09-06T18:00	16777	98	-63.3	-84.7	346	7
2023-09-06T18:00	16799	98	-63.4	-84.8	345	7
2023-09-06T18:00	16821	97	-63.4	-85.0	345	6
2023-09-06T18:00	16844	97	-63.2	-85.0	348	6
2023-09-06T18:00	16867	97	-62.7	-84.7	351	6
2023-09-06T18:00	16889	96	-62.6	-84.8	356	5
2023-09-06T18:00	16912	96	-62.6	-84.8	1	5
2023-09-06T18:00	16932	96	-62.6	-84.8	6	5
2023-09-06T18:00	16958	95	-62.7	-84.9	10	5
2023-09-06T18:00	16979	95	-62.8	-85.0	13	5
2023-09-06T18:00	17000	95	-62.8	-85.0	14	4
2023-09-06T18:00	17022	94	-62.9	-85.1	13	4
2023-09-06T18:00	17045	94	-62.9	-85.1	8	3
2023-09-06T18:00	17070	94	-63.0	-85.2	358	3
2023-09-06T18:00	17094	93	-63.1	-85.4	340	2
2023-09-06T18:00	17118	93	-63.0	-85.3	313	2
2023-09-06T18:00	17141	93	-62.9	-85.5	287	2
2023-09-06T18:00	17165	92	-62.8	-85.6	273	2
2023-09-06T18:00	17186	92	-62.4	-85.5	268	3
2023-09-06T18:00	17208	92	-62.3	-85.6	268	3
2023-09-06T18:00	17231	91	-62.2	-85.7	271	3
2023-09-06T18:00	17252	91	-62.2	-85.7	274	3
2023-09-06T18:00	17278	91	-62.1	-85.6	275	3
2023-09-06T18:00	17301	90	-62.1	-85.6	276	3
2023-09-06T18:00	17323	90	-62.1	-85.6	276	3
2023-09-06T18:00	17346	90	-62.1	-85.6	277	3
2023-09-06T18:00	17367	89	-62.2	-85.7	278	4
2023-09-06T18:00	17392	89	-62.1	-85.6	280	4
2023-09-06T18:00	17416	89	-62.0	-85.8	282	4
2023-09-06T18:00	17439	88	-62.0	-85.8	285	5
2023-09-06T18:00	17460	88	-61.6	-85.7	288	5
2023-09-06T18:00	17486	88	-61.6	-85.7	291	5
2023-09-06T18:00	17511	87	-61.4	-85.8	294	5
2023-09-06T18:00	17533	87	-61.2	-85.6	298	4
2023-09-06T18:00	17553	87	-60.9	-85.7	301	4
2023-09-06T18:00	17579	86	-60.8	-85.6	303	4
2023-09-06T18:00	17605	86	-60.8	-85.6	304	4
2023-09-06T18:00	17627	86	-60.6	-85.4	301	4
2023-09-06T18:00	17649	85	-60.6	-85.7	295	4
2023-09-06T18:00	17673	85	-60.5	-85.6	289	4
2023-09-06T18:00	17696	85	-60.2	-85.4	285	5
2023-09-06T18:00	17717	84	-60.1	-85.6	284	6
2023-09-06T18:00	17740	84	-60.2	-85.7	285	6
2023-09-06T18:00	17764	84	-60.2	-85.7	288	6
2023-09-06T18:00	17792	83	-59.7	-85.3	293	6
2023-09-06T18:00	17817	83	-59.6	-85.2	301	6
2023-09-06T18:00	17840	83	-59.8	-85.3	309	5
2023-09-06T18:00	17864	82	-60.0	-85.5	318	5
2023-09-06T18:00	17886	82	-60.1	-85.6	324	5
2023-09-06T18:00	17907	82	-60.2	-85.7	328	5
2023-09-06T18:00	17932	81	-60.0	-85.8	329	5
2023-09-06T18:00	17957	81	-59.4	-85.3	330	5
2023-09-06T18:00	17982	81	-59.6	-85.5	332	5
2023-09-06T18:00	18007	81	-59.6	-85.5	335	5
2023-09-06T18:00	18035	80	-59.6	-85.5	340	4
2023-09-06T18:00	18059	80	-59.9	-85.4	345	4
2023-09-06T18:00	18083	80	-60.1	-85.6	350	4
2023-09-06T18:00	18102	79	-60.3	-85.5	354	4
2023-09-06T18:00	18130	79	-60.5	-85.6	357	4
2023-09-06T18:00	18151	79	-60.7	-85.8	358	4
2023-09-06T18:00	18176	78	-60.9	-85.7	356	3
2023-09-06T18:00	18199	78	-61.1	-85.8	350	3
2023-09-06T18:00	18224	78	-61.3	-86.0	341	3
2023-09-06T18:00	18246	77	-61.4	-86.0	331	3
2023-09-06T18:00	18269	77	-61.4	-86.3	321	3
2023-09-06T18:00	18291	77	-61.5	-86.4	314	4
2023-09-06T18:00	18316	77	-61.4	-86.3	311	4
2023-09-06T18:00	18339	76	-61.0	-86.3	310	4
2023-09-06T18:00	18364	76	-60.9	-86.2	311	4
2023-09-06T18:00	18390	76	-60.9	-86.2	314	4
2023-09-06T18:00	18412	75	-61.0	-86.3	318	4
2023-09-06T18:00	18436	75	-61.0	-86.3	322	4
2023-09-06T18:00	18459	75	-60.9	-86.2	326	4
2023-09-06T18:00	18482	75	-60.9	-86.2	330	4
2023-09-06T18:00	18507	74	-61.0	-86.3	333	4
2023-09-06T18:00	18529	74	-61.1	-86.4	335	3
2023-09-06T18:00	18554	74	-61.1	-86.4	336	3
2023-09-06T18:00	18576	73	-61.2	-86.4	335	3
2023-09-06T18:00	18600	73	-61.3	-86.5	333	3
2023-09-06T18:00	18624	73	-61.2	-86.4	331	3
2023-09-06T18:00	18647	73	-61.3	-86.5	329	3
2023-09-06T18:00	18673	72	-61.2	-86.4	327	3
2023-09-06T18:00	18696	72	-61.1	-86.4	324	4
2023-09-06T18:00	18720	72	-60.9	-86.2	320	4
2023-09-06T18:00	18742	71	-60.9	-86.2	313	4
2023-09-06T18:00	18770	71	-60.9	-86.2	304	4
2023-09-06T18:00	18792	71	-61.0	-86.3	297	4
2023-09-06T18:00	18818	71	-61.1	-86.4	293	4
2023-09-06T18:00	18842	70	-61.1	-86.4	294	4
2023-09-06T18:00	18868	70	-61.2	-86.4	297	5
2023-09-06T18:00	18890	70	-61.2	-86.7	302	5
2023-09-06T18:00	18914	70	-60.8	-86.4	305	6
2023-09-06T18:00	18937	69	-60.4		307	6
2023-09-06T18:00	18958	69	-60.2	-86.3	307	6
2023-09-06T18:00	18982	69	-60.1	-86.2	307	7
2023-09-06T18:00	19002	69	-60.0	-86.4	306	7
2023-09-06T18:00	19026	68	-59.8	-86.3	307	7
2023-09-06T18:00	19044	68	-59.7	-86.2	309	7
2023-09-06T18:00	19068	68	-59.7	-86.2	312	7
2023-09-06T18:00	19088	68	-59.5	-86.0	316	7
2023-09-06T18:00	19113	67	-59.5	-85.7	321	8
2023-09-06T18:00	19134	67	-59.5	-85.7	326	8
2023-09-06T18:00	19158	67	-59.5	-86.0	331	8
2023-09-06T18:00	19180	67	-59.5	-86.0	336	9
2023-09-06T18:00	19204	66	-59.4	-86.0	340	9
2023-09-06T18:00	19225	66	-59.4	-86.0	344	9
2023-09-06T18:00	19246	66	-59.2	-85.8	347	9
2023-09-06T18:00	19272	66	-59.2	-85.8	350	9
2023-09-06T18:00	19293	65	-59.2	-85.8	353	9
2023-09-06T18:00	19317	65	-59.3	-85.9	355	8
2023-09-06T18:00	19339	65	-59.3	-85.9	357	8
2023-09-06T18:00	19364	65	-59.2	-85.8	358	8
2023-09-06T18:00	19388	65	-59.1	-85.7	360	8
2023-09-06T18:00	19411	64	-59.3	-85.6	1	8
2023-09-06T18:00	19436	64	-59.5	-85.7	2	8
2023-09-06T18:00	19459	64	-59.6	-85.8	3	8
2023-09-06T18:00	19483	64	-59.7	-85.9	5	8
2023-09-06T18:00	19506	63	-59.7	-85.9	7	8
2023-09-06T18:00	19526	63	-59.7	-85.9	9	8
2023-09-06T18:00	19554	63	-59.5	-86.0	10	8
2023-09-06T18:00	19576	63	-59.6	-86.1	11	8
2023-09-06T18:00	19603	62	-59.6	-86.1	11	9
2023-09-06T18:00	19623	62	-59.3	-85.9	12	9
2023-09-06T18:00	19647	62	-59.2	-86.2	13	10
2023-09-06T18:00	19672	62	-58.9	-85.9	15	10
2023-09-06T18:00	19693	61	-58.7	-85.8	18	9
2023-09-06T18:00	19721	61	-58.8	-85.9	22	9
2023-09-06T18:00	19744	61	-58.7	-85.8	26	8
2023-09-06T18:00	19773	61	-58.5	-85.6	30	7
2023-09-06T18:00	19797	60	-58.6	-85.7	35	7
2023-09-06T18:00	19824	60	-58.5	-85.6	39	6
2023-09-06T18:00	19850	60	-58.6	-85.7	43	5
2023-09-06T18:00	19874	60	-58.3	-85.8	47	5
2023-09-06T18:00	19898	59	-58.2	-85.8	51	4
2023-09-06T18:00	19925	59	-57.9	-85.5	57	4
2023-09-06T18:00	19953	59	-57.8	-85.5	63	3
2023-09-06T18:00	19976	59	-57.9	-85.5	68	3
2023-09-06T18:00	20002	58	-58.1	-85.7	69	3
2023-09-06T18:00	20027	58	-58.2	-85.8	63	2
2023-09-06T18:00	20053	58	-58.2	-85.8	49	2
2023-09-06T18:00	20081	58	-57.9	-85.5	28	2
2023-09-06T18:00	20106	58	-58.0	-85.6	7	2
2023-09-06T18:00	20129	57	-58.1	-85.3	348	2
2023-09-06T18:00	20155	57	-58.3	-85.5	334	3
2023-09-06T18:00	20181	57	-58.4	-85.5	325	3
2023-09-06T18:00	20205	57	-58.5	-85.6	320	4
2023-09-06T18:00	20232	56	-58.6	-85.7	320	4
2023-09-06T18:00	20256	56	-58.6	-85.7	321	4
2023-09-06T18:00	20281	56	-58.8	-85.9	324	4
2023-09-06T18:00	20307	56	-58.7	-85.8	326	4
2023-09-06T18:00	20334	55	-58.6	-85.7	326	4
2023-09-06T18:00	20357	55	-58.6	-85.7	324	4
2023-09-06T18:00	20382	55	-58.4	-85.5	320	4
2023-09-06T18:00	20409	55	-58.5	-85.6	317	5
2023-09-06T18:00	20431	55	-58.6	-85.7	315	5
2023-09-06T18:00	20457	54	-58.7	-86.1	315	5
2023-09-06T18:00	20482	54	-58.3	-85.8	316	4
2023-09-06T18:00	20503	54	-58.3	-85.8	319	4
2023-09-06T18:00	20526	54	-58.3	-85.5	323	4
2023-09-06T18:00	20549	54	-58.5	-85.6	329	4
2023-09-06T18:00	20578	53	-58.6	-85.7	335	4
2023-09-06T18:00	20598	53	-58.7	-85.8	341	4
2023-09-06T18:00	20625	53	-58.7	-86.1	345	4
2023-09-06T18:00	20647	53	-58.4	-85.9	347	4
2023-09-06T18:00	20670	53	-57.9	-85.5	346	4
2023-09-06T18:00	20695	52	-57.8	-85.5	342	3
2023-09-06T18:00	20716	52	-57.9	-85.5	334	3
2023-09-06T18:00	20742	52	-58.0	-85.6	322	3
2023-09-06T18:00	20768	52	-58.0	-85.6	308	3
2023-09-06T18:00	20796	52	-58.0	-85.6	298	3
2023-09-06T18:00	20819	51	-58.2	-85.8	294	3
2023-09-06T18:00	20840	51	-58.4	-85.9	295	4
2023-09-06T18:00	20865	51	-58.5	-86.0	299	4
2023-09-06T18:00	20884	51	-58.0	-85.6	307	4
2023-09-06T18:00	20910	51	-58.0	-85.6	314	5
2023-09-06T18:00	20935	50	-58.1	-85.7	320	5
2023-09-06T18:00	20959	50	-58.0	-85.6	326	6
2023-09-06T18:00	20980	50	-58.1	-85.7	330	6
2023-09-06T18:00	21004	50	-58.1	-85.7	335	7
2023-09-06T18:00	21026	50	-58.2	-85.8	340	7
2023-09-06T18:00	21055	49	-58.3	-85.8	345	7
2023-09-06T18:00	21076	49	-58.3	-85.8	349	7
2023-09-06T18:00	21101	49	-58.2	-85.8	351	6
2023-09-06T18:00	21126	49	-58.0	-85.6	350	6
2023-09-06T18:00	21153	49	-57.8	-85.9	345	5
2023-09-06T18:00	21178	49	-57.4	-85.6	335	4
2023-09-06T18:00	21199	48	-57.2	-85.4	320	4
2023-09-06T18:00	21225	48	-57.3	-85.5	304	4
2023-09-06T18:00	21248	48	-57.4	-85.6	292	4
2023-09-06T18:00	21276	48	-57.5	-85.6	286	4
2023-09-06T18:00	21302	48	-57.7	-85.8	287	5
2023-09-06T18:00	21330	47	-57.6	-85.7	292	5
2023-09-06T18:00	21353	47	-57.1	-85.3	302	5
2023-09-06T18:00	21381	47	-56.9	-85.2	314	5
2023-09-06T18:00	21403	47	-57.0	-85.2	325	5
2023-09-06T18:00	21430	47	-57.0	-85.2	336	5
2023-09-06T18:00	21455	46	-56.9	-85.2	345	6
2023-09-06T18:00	21474	46	-57.0	-85.2	352	6
2023-09-06T18:00	21501	46	-57.0	-85.2	360	7
2023-09-06T18:00	21531	46	-57.0	-85.2	6	7
2023-09-06T18:00	21554	46	-57.0	-85.2	10	7
2023-09-06T18:00	21580	46	-56.8	-85.1	13	7
2023-09-06T18:00	21604	45	-56.7	-85.0	14	7
2023-09-06T18:00	21636	45	-56.5	-84.9	13	7
2023-09-06T18:00	21658	45	-56.4	-84.8	10	6
2023-09-06T18:00	21686	45	-56.4	-84.8	6	5
2023-09-06T18:00	21709	45	-56.6	-84.9	1	5
2023-09-06T18:00	21736	44	-56.7	-85.0	356	4
2023-09-06T18:00	21766	44	-57.0	-84.8	349	4
2023-09-06T18:00	21794	44	-57.2	-85.0	341	3
2023-09-06T18:00	21818	44	-57.4	-85.2	330	3
2023-09-06T18:00	21849	44	-57.6	-84.9	318	3
2023-09-06T18:00	21869	43	-57.9	-85.2	309	3
2023-09-06T18:00	21894	43	-58.1	-85.3	305	3
2023-09-06T18:00	21927	43	-58.3	-85.5	305	4
2023-09-06T18:00	21944	43	-58.3	-85.8	308	4
2023-09-06T18:00	21974	43	-57.9	-85.5	313	4
2023-09-06T18:00	21999	43	-57.8	-85.5	320	4
2023-09-06T18:00	22022	42	-57.7	-85.4	329	4
2023-09-06T18:00	22048	42	-57.7	-85.4	338	4
2023-09-06T18:00	22071	42	-57.8	-85.5	348	4
2023-09-06T18:00	22100	42	-57.9	-85.5	356	5
2023-09-06T18:00	22123	42	-58.1	-85.7	3	5
2023-09-06T18:00	22149	42	-58.2	-85.8	7	5
2023-09-06T18:00	22178	41	-58.2	-85.8	9	6
2023-09-06T18:00	22200	41	-58.1	-85.7	10	6
2023-09-06T18:00	22226	41	-57.8	-85.5	10	6
2023-09-06T18:00	22249	41	-57.7	-85.4	9	5
2023-09-06T18:00	22277	41	-57.8	-85.5	7	5
2023-09-06T18:00	22302	41	-57.8	-85.5	4	5
2023-09-06T18:00	22329	40	-58.0	-85.6	359	5
2023-09-06T18:00	22350	40	-58.1	-85.7	355	6
2023-09-06T18:00	22375	40	-58.1	-85.7	353	6
2023-09-06T18:00	22397	40	-58.2	-85.8	353	6
2023-09-06T18:00	22422	40	-58.2	-85.8	357	7
2023-09-06T18:00	22449	40	-57.8	-85.5	3	7
2023-09-06T18:00	22472	40	-57.7	-85.8	10	7
2023-09-06T18:00	22499	39	-57.8	-85.9	18	8
2023-09-06T18:00	22523	39	-57.8	-85.9	24	8
2023-09-06T18:00	22550	39	-57.6	-85.7	28	8
2023-09-06T18:00	22572	39	-57.5	-85.6	32	8
2023-09-06T18:00	22598	39	-57.6	-85.7	36	7
2023-09-06T18:00	22626	39	-57.6	-85.7	40	7
2023-09-06T18:00	22651	38	-57.3	-85.5	45	6
2023-09-06T18:00	22680	38	-57.3	-85.5	51	5
2023-09-06T18:00	22703	38	-57.1	-85.7	58	5
2023-09-06T18:00	22728	38	-57.0	-85.7	65	4
2023-09-06T18:00	22760	38	-57.0	-85.7	72	4
2023-09-06T18:00	22779	38	-56.8	-85.5	78	4
2023-09-06T18:00	22802	37	-56.4	-85.7	85	4
2023-09-06T18:00	22838	37	-55.7	-85.2	96	3
2023-09-06T18:00	22864	37	-55.5	-85.0	110	3
2023-09-06T18:00	22888	37	-55.2	-84.8	127	3
2023-09-06T18:00	22916	37	-55.2	-84.8	144	3
2023-09-06T18:00	22942	37	-55.3	-84.9	159	3
2023-09-06T18:00	22964	37	-55.5	-85.0	173	3
2023-09-06T18:00	22994	36	-55.6	-85.1	187	3
2023-09-06T18:00	23023	36	-55.4	-84.9	201	2
2023-09-06T18:00	23050	36	-55.0	-84.6	215	2
2023-09-06T18:00	23078	36	-55.1	-84.7	225	3
2023-09-06T18:00	23104	36	-55.2	-84.8	231	3
2023-09-06T18:00	23130	36	-55.3	-84.9	232	3
2023-09-06T18:00	23155	36	-55.0	-84.2	230	3
2023-09-06T18:00	23180	35	-55.1	-84.2	225	3
2023-09-06T18:00	23213	35	-55.3	-84.4	221	3
2023-09-06T18:00	23236	35	-55.6	-84.6	219	3
2023-09-06T18:00	23268	35	-55.7	-84.7	220	3
2023-09-06T18:00	23291	35	-55.7	-84.7	224	4
2023-09-06T18:00	23316	35	-55.6	-84.6	230	4
2023-09-06T18:00	23339	34	-55.5	-84.5	237	4
2023-09-06T18:00	23366	34	-55.6	-84.6	244	5
2023-09-06T18:00	23400	34	-55.8	-84.8	250	5
2023-09-06T18:00	23420	34	-56.0	-84.9	255	5
2023-09-06T18:00	23448	34	-56.1	-85.0	259	5
2023-09-06T18:00	23481	34	-56.2	-85.1	264	5
2023-09-06T18:00	23501	34	-56.3	-85.1	268	5
2023-09-06T18:00	23525	33	-56.2	-85.1	273	5
2023-09-06T18:00	23556	33	-56.1	-85.0	279	5
2023-09-06T18:00	23582	33	-55.9	-84.8	286	5
2023-09-06T18:00	23605	33	-55.9	-85.3	293	5
2023-09-06T18:00	23634	33	-55.7	-85.2	300	5
2023-09-06T18:00	23660	33	-55.5	-85.0	306	5
2023-09-06T18:00	23679	33	-55.3	-84.9	313	5
2023-09-06T18:00	23705	33	-55.3	-84.9	319	5
2023-09-06T18:00	23736	32	-55.4	-84.9	325	5
2023-09-06T18:00	23753	32	-55.5	-85.0	331	5
2023-09-06T18:00	23785	32	-55.0	-84.6	338	4
2023-09-06T18:00	23810	32	-54.7	-84.4	345	4
2023-09-06T18:00	23835	32	-54.5	-84.3	352	4
2023-09-06T18:00	23863	32	-54.4	-84.2	358	4
2023-09-06T18:00	23889	32	-54.5	-84.3	4	4
2023-09-06T18:00	23913	32	-54.6	-84.3	9	3
2023-09-06T18:00	23941	31	-54.8	-84.5	11	3
2023-09-06T18:00	23961	31	-54.9	-84.6	10	3
2023-09-06T18:00	23993	31	-54.7	-84.4	4	3
2023-09-06T18:00	24016	31	-54.2	-84.5	350	3
2023-09-06T18:00	24047	31	-53.6	-84.1	333	3
2023-09-06T18:00	24071	31	-53.5	-84.0	318	3
2023-09-06T18:00	24095	31	-53.7	-84.2	307	4
2023-09-06T18:00	24127	31	-53.9	-84.3	300	4
2023-09-06T18:00	24148	30	-54.0	-84.4	297	5
2023-09-06T18:00	24178	30	-54.0	-84.4	297	6
2023-09-06T18:00	24203	30	-53.9	-84.3	298	6
2023-09-06T18:00	24232	30	-53.8	-84.2	301	6
2023-09-06T18:00	24256	30	-53.6	-84.1	304	6
2023-09-06T18:00	24279	30	-53.6	-84.1	308	6
2023-09-06T18:00	24303	30	-53.7	-83.7	312	6
2023-09-06T18:00	24330	30	-53.9	-83.8	317	5
2023-09-06T18:00	24364	29	-54.1	-84.0	323	5
2023-09-06T18:00	24386	29	-54.2	-84.0	331	4
2023-09-06T18:00	24415	29	-54.2	-84.0	339	4
2023-09-06T18:00	24439	29	-54.2	-84.0	346	4
2023-09-06T18:00	24467	29	-54.3	-84.1	352	4
2023-09-06T18:00	24499	29	-54.5	-84.3	356	5
2023-09-06T18:00	24526	29	-54.7	-83.9	0	5
2023-09-06T18:00	24544	29	-54.8	-84.0	3	5
2023-09-06T18:00	24574	28	-54.9	-84.1	4	5
2023-09-06T18:00	24603	28	-55.1	-84.2	5	5
2023-09-06T18:00	24631	28	-55.2	-84.3	4	5
2023-09-06T18:00	24654	28	-55.4	-84.5	3	5
2023-09-06T18:00	24678	28	-55.6	-84.6	1	5
2023-09-06T18:00	24708	28	-55.8	-84.8	359	5
2023-09-06T18:00	24728	28	-55.9	-84.8	356	4
2023-09-06T18:00	24766	28	-55.7	-85.2	352	3
2023-09-06T18:00	24785	28	-55.2	-84.8	348	3
2023-09-06T18:00	24817	27	-54.8	-84.5	345	2
2023-09-06T18:00	24840	27	-54.9	-85.1	348	2
2023-09-06T18:00	24870	27	-54.9	-85.1	358	2
2023-09-06T18:00	24896	27	-54.7	-84.9	17	1
2023-09-06T18:00	24925	27	-54.4	-84.7	43	1
2023-09-06T18:00	24950	27	-54.3	-84.6	69	1
2023-09-06T18:00	24980	27	-54.4	-84.7	97	0
2023-09-06T18:00	25009	27	-54.2	-84.5	166	0
2023-09-06T18:00	25035	26	-53.8	-84.8	264	0
2023-09-06T18:00	25058	26	-53.0	-84.2	294	1
2023-09-06T18:00	25091	26	-52.3	-83.7	314	1
2023-09-06T18:00	25111	26	-52.3	-83.7	328	2
2023-09-06T18:00	25139	26	-52.3	-83.7	336	2
2023-09-06T18:00	25170	26	-52.4	-83.8	337	2
2023-09-06T18:00	25200	26	-52.5	-83.8	335	3
2023-09-06T18:00	25224	26	-52.5	-83.3	332	3
2023-09-06T18:00	25253	26	-52.5	-83.3	331	3
2023-09-06T18:00	25279	25	-52.7	-83.4	333	3
2023-09-06T18:00	25316	25	-52.8	-83.5	339	3
2023-09-06T18:00	25340	25	-52.8	-83.5	349	3
2023-09-06T18:00	25365	25	-52.9	-83.6	2	4
2023-09-06T18:00	25394	25	-53.1	-83.7	15	4
2023-09-06T18:00	25428	25	-53.2	-83.8	28	4
2023-09-06T18:00	25452	25	-53.3	-83.9	39	4
2023-09-06T18:00	25481	25	-53.3	-83.9	49	4
2023-09-06T18:00	25502	25	-53.1	-83.7	59	5
2023-09-06T18:00	25531	25	-53.2	-83.8	68	5
2023-09-06T18:00	25552	24	-53.3	-83.9	77	5
2023-09-06T18:00	25584	24	-53.5	-84.0	85	5
2023-09-06T18:00	25616	24	-53.6	-84.1	93	5
2023-09-06T18:00	25641	24	-53.6	-84.1	100	5
2023-09-06T18:00	25674	24	-53.6	-84.1	105	5
2023-09-06T18:00	25691	24	-53.5	-84.0	107	5
2023-09-06T18:00	25719	24	-53.2	-83.8	106	4
2023-09-06T18:00	25745	24	-53.2	-83.8	103	3
2023-09-06T18:00	25766	24	-53.4	-83.9	96	2
2023-09-06T18:00	25798	24	-53.4	-83.9	86	2
2023-09-06T18:00	25827	23	-53.2	-83.8	71	1
2023-09-06T18:00	25848	23	-53.3	-83.9	45	0
2023-09-06T18:00	25872	23	-53.3	-83.9	279	0
2023-09-06T18:00	25901	23	-53.2	-83.8	241	1
2023-09-06T18:00	25931	23	-53.0	-83.6	232	1
2023-09-06T18:00	25961	23	-52.9	-83.6	232	2
2023-09-06T18:00	25987	23	-53.0	-83.6	240	2
2023-09-06T18:00	26017	23	-53.2	-83.8	258	2
2023-09-06T18:00	26040	23	-53.0	-83.6	281	2
2023-09-06T18:00	26068	23	-52.8	-83.5	299	2
2023-09-06T18:00	26099	22	-52.7	-83.4	309	3
2023-09-06T18:00	26124	22	-52.8	-83.5	315	3
2023-09-06T18:00	26153	22	-52.9	-84.1	320	3
2023-09-06T18:00	26175	22	-52.8	-84.1	325	2
2023-09-06T18:00	26211	22	-52.6	-83.9	332	2
2023-09-06T18:00	26235	22	-52.3	-83.7	345	1
2023-09-06T18:00	26259	22	-52.2	-83.6	19	1
2023-09-06T18:00	26291	22	-52.3	-83.7	87	1
2023-09-06T18:00	26316	22	-52.4	-83.8	115	2
2023-09-06T18:00	26350	22	-52.5	-83.8	124	2
2023-09-06T18:00	26373	22	-52.5	-83.8	127	3
2023-09-06T18:00	26415	21	-52.2	-83.6	129	4
2023-09-06T18:00	26434	21	-52.1	-83.5	130	4
2023-09-06T18:00	26464	21	-51.6	-83.2	132	4
2023-09-06T18:00	26490	21	-51.5	-83.7	136	4
2023-09-06T18:00	26514	21	-51.2	-83.5	142	4
2023-09-06T18:00	26544	21	-51.0	-83.3	150	4
2023-09-06T18:00	26572	21	-50.8	-83.2	159	4
2023-09-06T18:00	26604	21	-50.6	-83.1	169	5
2023-09-06T18:00	26635	21	-50.7	-83.1	177	5
2023-09-06T18:00	26668	21	-50.7	-83.1	183	5
2023-09-06T18:00	26688	21	-50.7	-83.1	187	6
2023-09-06T18:00	26719	20	-50.7	-82.5	190	7
2023-09-06T18:00	26749	20	-50.7	-82.5	193	7
2023-09-06T18:00	26770	20	-50.8	-82.6	196	8
2023-09-06T18:00	26794	20	-50.9	-82.7	200	9
2023-09-06T18:00	26828	20	-51.1	-82.8	204	9
2023-09-06T18:00	26855	20	-51.1	-82.8	210	9
2023-09-06T18:00	26886	20	-50.7	-83.1	216	10
2023-09-06T18:00	26906	20	-50.3	-82.8	222	10
2023-09-06T18:00	26933	20	-49.7	-82.4	228	10
2023-09-06T18:00	26969	20	-49.4	-82.2	233	9
2023-09-06T18:00	26995	20	-49.4	-82.2	238	9
2023-09-06T18:00	27016	19	-49.4	-82.2	243	9
2023-09-06T18:00	27048	19	-49.3	-82.1	247	9
2023-09-06T18:00	27080	19	-49.3	-82.1	250	8
2023-09-06T18:00	27104	19	-49.2	-82.0	252	8
2023-09-06T18:00	27130	19	-49.1	-82.0	255	8
2023-09-06T18:00	27150	19	-49.2	-82.0	257	8
2023-09-06T18:00	27184	19	-49.3	-82.1	260	8
2023-09-06T18:00	27214	19	-49.6	-82.3	263	7
2023-09-06T18:00	27242	19	-49.7	-82.4	265	7
2023-09-06T18:00	27273	19	-49.8	-82.5	267	7
2023-09-06T18:00	27299	19	-49.8	-82.5	267	6
2023-09-06T18:00	27324	19	-49.8	-82.5	267	6
2023-09-06T18:00	27358	19	-49.6	-82.3	265	5
2023-09-06T18:00	27388	18	-49.5	-82.3	265	5
2023-09-06T18:00	27407	18	-49.5	-82.3	265	5
2023-09-06T18:00	27438	18	-49.6	-82.3	267	5
2023-09-06T18:00	27455	18	-49.6	-82.3	270	6
2023-09-06T18:00	27495	18	-49.7	-82.4	274	6
2023-09-06T18:00	27524	18	-49.8	-82.5	277	7
2023-09-06T18:00	27556	18	-49.9	-82.5	280	8
2023-09-06T18:00	27583	18	-50.1	-82.7	282	8
2023-09-06T18:00	27616	18	-50.0	-82.6	284	9
2023-09-06T18:00	27633	18	-49.9	-81.9	285	9
2023-09-06T18:00	27666	18	-50.1	-82.1	287	9
2023-09-06T18:00	27691	18	-50.3	-82.2	289	9
2023-09-06T18:00	27718	18	-50.5		289	9
2023-09-06T18:00	27746	17	-50.6	-82.4	289	9
2023-09-06T18:00	27775	17	-50.6	-82.4	289	9
2023-09-06T18:00	27806	17	-50.5		288	9
2023-09-06T18:00	27837	17	-50.6	-83.1	288	9
2023-09-06T18:00	27871	17	-50.5	-83.0	289	9
2023-09-06T18:00	27893	17	-50.5	-83.0	293	9
2023-09-06T18:00	27916	17	-50.6	-83.1	298	9
2023-09-06T18:00	27950	17	-50.3	-82.8	303	9
2023-09-06T18:00	27985	17	-49.9	-82.5	308	9
2023-09-06T18:00	28009	17	-49.9	-82.5	313	9
2023-09-06T18:00	28038	17	-49.8	-82.5	317	9
2023-09-06T18:00	28067	17	-49.6	-82.3	320	8
2023-09-06T18:00	28095	17	-49.8	-82.5	323	8
2023-09-06T18:00	28124	16	-49.9	-82.5	326	7
2023-09-06T18:00	28159	16	-50.1	-82.7	328	7
2023-09-06T18:00	28179	16	-50.2	-82.8	330	7
2023-09-06T18:00	28205	16	-50.2	-82.8	332	6
2023-09-06T18:00	28232	16	-50.3	-82.2	332	6
2023-09-06T18:00	28263	16	-50.4	-82.3	332	6
2023-09-06T18:00	28296	16	-50.4	-82.3	330	6
2023-09-06T18:00	28321	16	-50.6	-82.4	328	6
2023-09-06T18:00	28350	16	-50.8	-82.6	325	6
2023-09-06T18:00	28381	16	-50.9	-82.7	323	6
2023-09-06T18:00	28412	16	-50.9	-83.3	321	6
2023-09-06T18:00	28434	16	-50.7	-83.1	319	6
2023-09-06T18:00	28460	16	-50.6	-83.1	318	6
2023-09-06T18:00	28489	16	-50.5	-83.0	317	6
2023-09-06T18:00	28519	16	-50.3	-82.8	316	6
2023-09-06T18:00	28550	15	-50.1	-83.4	316	7
2023-09-06T18:00	28579	15	-49.6	-83.0	316	7
2023-09-06T18:00	28609	15	-49.5	-82.9	314	7
2023-09-06T18:00	28623	15	-49.0	-82.6	312	7
2023-09-06T18:00	28655	15	-48.6	-82.3	310	8
2023-09-06T18:00	28688	15	-48.3	-82.1	307	8
2023-09-06T18:00	28714	15	-48.4	-82.2	304	8
2023-09-06T18:00	28747	15	-48.0	-82.7	303	9
2023-09-06T18:00	28770	15	-47.7	-82.4	302	9
2023-09-06T18:00	28791	15	-47.5	-81.5	301	10
2023-09-06T18:00	28823	15	-47.2	-81.3	301	10
2023-09-06T18:00	28850	15	-47.3	-81.4	302	10
2023-09-06T18:00	28880	15	-47.5	-81.5	303	10
2023-09-06T18:00	28903	15	-47.8	-81.7	306	10
2023-09-06T18:00	28934	15	-47.9	-81.8	309	10
2023-09-06T18:00	28972	14	-47.7	-81.6	313	10
2023-09-06T18:00	28989	14	-47.6	-81.6	316	10
2023-09-06T18:00	29031	14	-47.6	-81.6	318	10
2023-09-06T18:00	29059	14	-47.7	-81.6	319	9
2023-09-06T18:00	29088	14	-48.0	-81.9	319	9
2023-09-06T18:00	29119	14	-47.9	-81.8	319	8
2023-09-06T18:00	29139	14	-47.8	-81.7	319	8
2023-09-06T18:00	29175	14	-47.8	-81.7	319	7
2023-09-06T18:00	29206	14	-47.8	-81.7	317	6
2023-09-06T18:00	29236	14	-47.7	-81.6	315	5
2023-09-06T18:00	29264	14	-47.7	-81.6	310	4
2023-09-06T18:00	29303	14	-47.8	-81.7	300	3
2023-09-06T18:00	29327	14	-47.9	-81.8	285	3
2023-09-06T18:00	29363	14	-47.9	-81.8	270	3
2023-09-06T18:00	29382	14	-47.5	-81.5	261	3
2023-09-06T18:00	29403	14	-46.9	-81.9	259	4
2023-09-06T18:00	29445	13	-46.6	-81.7	260	4
2023-09-06T18:00	29478	13	-46.8	-81.8	263	5
2023-09-06T18:00	29511	13	-46.9	-81.9	266	5
2023-09-06T18:00	29529	13	-47.1	-82.0	268	4
2023-09-06T18:00	29563	13	-47.0	-81.9	268	4
2023-09-06T18:00	29585	13	-46.6	-81.7	264	3
2023-09-06T18:00	29621	13	-46.3	-81.4	252	2
2023-09-06T18:00	29653	13	-46.2	-81.4	230	2
2023-09-06T18:00	29683	13	-46.2	-81.4	209	3
2023-09-06T18:00	29719	13	-46.1	-81.3	198	3
2023-09-06T18:00	29756	13	-46.0	-81.2	194	4
2023-09-06T18:00	29779	13	-46.0	-81.2	193	5
2023-09-06T18:00	29813	13	-46.1	-81.3	194	6
2023-09-06T18:00	29837	13	-46.2	-81.4	196	6
2023-09-06T18:00	29875	13	-46.1	-81.3	200	7
2023-09-06T18:00	29901	13	-46.0	-81.2	204	8
2023-09-06T18:00	29938	13	-46.0	-81.2	208	8
2023-09-06T18:00	29962	12	-45.9	-81.2	211	9
2023-09-06T18:00	30000	12	-45.6	-80.9	215	10
2023-09-06T18:00	30024	12	-45.6	-80.9	219	10
2023-09-06T18:00	30056	12	-44.8	-81.3	223	10
2023-09-06T18:00	30108	12	-43.7	-80.5	227	11
2023-09-06T18:00	30126	12	-43.6	-80.4	232	11
2023-09-06T18:00	30159	12	-43.4	-80.3	237	11
2023-09-06T18:00	30185	12	-43.1	-80.1	242	11
2023-09-06T18:00	30198	12	-42.9	-80.0	247	11
2023-09-06T18:00	30231	12	-43.0	-80.0	253	11
2023-09-06T18:00	30269	12	-43.1	-80.1	258	11
2023-09-06T18:00	30300	12	-43.0	-80.0	264	11
2023-09-06T18:00	30318	12	-43.0	-80.0	271	11
2023-09-06T18:00	30365	12	-43.0	-80.0	277	10
2023-09-06T18:00	30390	12	-43.1	-80.1	282	10
2023-09-06T18:00	30426	12	-43.3	-80.2	288	10
2023-09-06T18:00	30446	12	-43.2	-80.2	292	10
2023-09-06T18:00	30471	12	-43.1	-80.1	297	9
2023-09-06T18:00	30503	12	-43.0	-80.0	300	9
2023-09-06T18:00	30537	11	-42.8	-79.9	303	8
2023-09-06T18:00	30575	11	-42.6	-79.7	304	8
2023-09-06T18:00	30605	11	-42.7	-79.8	305	7
2023-09-06T18:00	30624	11	-42.8	-79.9	305	7
2023-09-06T18:00	30657	11	-42.8	-79.9	305	7
2023-09-06T18:00	30670	11	-42.6	-79.7	305	6
2023-09-06T18:00	30700	11	-42.1	-79.4	306	6
2023-09-06T18:00	30742	11	-42.0	-79.3	307	6
2023-09-06T18:00	30751	11	-41.8	-79.2	308	5
2023-09-06T18:00	30792	11	-41.6	-79.0	307	5
2023-09-06T18:00	30823	11	-41.7	-79.1	306	5
2023-09-06T18:00	30844	11	-41.4	-80.0	302	5
2023-09-06T18:00	30875	11	-41.1	-79.8	298	5
2023-09-06T18:00	30887	11	-40.7	-79.5	295	5
2023-09-06T18:00	30923	11	-40.4	-79.3	293	5
2023-09-06T18:00	30961	11	-40.3	-79.2	292	5
2023-09-06T18:00	30988	11	-40.0	-79.0	293	5
2023-09-06T18:00	31007	11	-39.8	-78.9	295	5
2023-09-06T18:00	31032	11	-39.7	-78.8	297	5
2023-09-06T18:00	31055	11	-39.6	-78.8	299	5
2023-09-06T18:00	31092	11	-39.6	-78.8	299	5
2023-09-06T18:00	31117	11	-39.8	-78.9	298	5
2023-09-06T18:00	31165	10	-39.9	-79.0	296	5
2023-09-06T18:00	31183	10	-40.1	-79.1	294	5
2023-09-06T18:00	31223	10	-40.1	-79.1	293	5
2023-09-06T18:00	31246	10	-40.1	-79.1	294	5
2023-09-06T18:00	31278	10	-40.3	-79.2	295	5
2023-09-06T18:00	31301	10	-40.3	-79.2	298	5
2023-09-06T18:00	31344	10	-40.2	-79.2	301	4
2023-09-06T18:00	31362	10	-40.2	-79.2	303	4
2023-09-06T18:00	31390	10	-40.1	-79.1	305	5
2023-09-06T18:00	31414	10	-40.0	-79.0	306	5
2023-09-06T18:00	31447	10	-40.1	-79.1	307	5
2023-09-06T18:00	31481	10	-40.1	-79.1	309	6
2023-09-06T18:00	31525	10	-40.0	-79.0	312	6
2023-09-06T18:00	31534	10	-39.9	-79.0	316	6
2023-09-06T18:00	31560	10	-40.0	-79.0	319	6
2023-09-06T18:00	31607	10	-40.0	-79.0	323	5
2023-09-06T18:00	31630	10	-39.8	-78.9	326	5
2023-09-06T18:00	31652	10	-39.7	-78.8	328	5
2023-09-06T18:00	31706	10	-39.6	-78.8	329	4
2023-09-06T18:00	31722	10	-39.5	-78.7	328	3
2023-09-06T18:00	31763	10	-39.3	-78.5	324	2
2023-09-06T18:00	31794	10	-39.3	-78.5	313	1
2023-09-06T18:00	31825	9	-39.1	-78.4	203	0
2023-09-06T18:00	31860	9	-39.0	-78.3	159	1
2023-09-06T18:00	31865	9	-38.8	-78.2	149	1
2023-09-06T18:00	31893	9	-38.6	-78.1	142	2
2023-09-06T18:00	31934	9	-38.7	-78.1	138	2
2023-09-06T18:00	31967	9	-38.9	-78.3	137	2
2023-09-06T18:00	31999	9	-39.2	-78.5	140	3
2023-09-06T18:00	32033	9	-39.3	-78.5	145	3
2023-09-06T18:00	32075	9	-39.3	-78.5	150	3
2023-09-06T18:00	32085	9	-39.3	-78.5	156	4
2023-09-06T18:00	32112	9	-39.3	-78.5	163	4
2023-09-06T18:00	32168	9	-39.3	-78.5	170	4
2023-09-06T18:00	32169	9	-39.2	-78.5	179	5
2023-09-06T18:00	32211	9	-39.2	-78.5	187	5
2023-09-06T18:00	32235	9	-39.4	-78.6	194	6
2023-09-06T18:00	32256	9	-39.4	-78.6	200	6
2023-09-06T18:00	32295	9	-39.2	-78.5	206	7
2023-09-06T18:00	32322	9	-39.2	-78.5	212	7
2023-09-06T18:00	32349	9	-39.3	-78.5	217	8
2023-09-06T18:00	32377	9	-39.4	-78.6	221	8
2023-09-06T18:00	32403	9	-39.6	-78.8	226	8
2023-09-06T18:00	32440	9	-39.7	-78.8	230	8
2023-09-06T18:00	32456	9	-39.8	-78.9	235	8
2023-09-06T18:00	32486	9	-39.7	-78.8	240	8
2023-09-06T18:00	32531	9	-39.7	-78.8	245	8
2023-09-06T18:00	32540	9	-39.5	-78.7	250	7
2023-09-06T18:00	32586	8	-39.3	-78.5	254	7
2023-09-06T18:00	32615	8	-39.0	-78.3	259	7
2023-09-06T18:00	32632	8	-38.8	-78.2	263	7
2023-09-06T18:00	32682	8	-38.9	-78.3	267	6
2023-09-06T18:00	32688	8	-39.0	-78.3	270	6
2023-09-06T18:00	32749	8	-39.1	-78.4	273	6
2023-09-06T18:00	32769	8	-39.2	-78.5	276	6
2023-09-06T18:00	32798	8	-39.3	-78.5	278	7
2023-09-06T18:00	32812	8	-39.4	-78.6	280	7
2023-09-06T18:00	32875	8	-39.5	-78.7	283	6
2023-09-06T18:00	32889	8	-39.5	-78.7	286	6
2023-09-06T18:00	32923	8	-39.5	-78.7	291	6
2023-09-06T18:00	32961	8	-38.9	-78.3	295	5
2023-09-06T18:00	32970	8	-38.5	-78.0	301	5
2023-09-06T18:00	33020	8	-38.5	-78.0	307	4
2023-09-06T18:00	33031	8	-38.8	-78.2	313	4
2023-09-06T18:00	33070	8	-38.9	-78.3	318	4
2023-09-06T18:00	33105	8	-39.1	-78.4	322	3
2023-09-06T18:00	33118	8	-39.2	-78.5	325	3
2023-09-06T18:00	33158	8	-39.3	-78.5	328	2
2023-09-06T18:00	33192	8	-39.3	-78.5	330	2
2023-09-06T18:00	33241	8	-39.3	-78.5	331	1
2023-09-06T18:00	33264	8	-39.3	-78.5	325	1
2023-09-06T18:00	33300	8	-39.4	-78.6	241	0
2023-09-06T18:00	33324	8	-39.3	-78.5	196	1
2023-09-06T18:00	33365	8	-39.3	-78.5	194	2
2023-09-06T18:00	33400	8	-39.3	-78.5	196	4
2023-09-06T18:00	33417	8	-39.2	-78.5	200	5
2023-09-06T18:00	33436	7	-38.9	-78.3	204	6
2023-09-06T18:00	33473	7	-38.9	-78.3	208	7
2023-09-06T18:00	33506	7	-38.8	-78.2	211	7
2023-09-06T18:00	33548	7	-38.7	-78.1	213	8
2023-09-06T18:00	33579	7	-38.6	-78.1	214	8
2023-09-06T18:00	33603	7	-38.5	-78.0	214	7
2023-09-06T18:00	33642	7	-38.4	-77.9	214	7
2023-09-06T18:00	33669	7	-38.5	-78.0	214	6
2023-09-06T18:00	33703	7	-38.6	-78.1	216	6
2023-09-06T18:00	33733	7	-38.7	-78.1	218	5
2023-09-06T18:00	33788	7	-38.6	-78.1	221	6
2023-09-06T18:00	33795	7	-38.6	-78.1	223	6
2023-09-06T18:00	33834	7	-38.6	-78.1	224	7
2023-09-06T18:00	33847	7	-38.7	-78.1	225	8
2023-09-06T18:00	33902	7	-38.7	-78.1	225	8
2023-09-06T18:00	33931	7	-38.8	-78.2	225	8
2023-09-06T18:00	33965	7	-38.7	-78.1	225	9
2023-09-06T18:00	33984	7	-38.6	-78.1	226	9
2023-09-06T18:00	33995	7	-38.5	-78.0	228	9
2023-09-06T18:00	34043	7	-38.5	-78.0	230	9
2023-09-06T18:00	34047	7	-38.6	-78.1	231	9
2023-09-06T18:00	34080	7	-38.7	-78.1	233	9
2023-09-06T18:00	34116	7	-38.7	-78.1	234	10
2023-09-06T18:00	34167	7	-38.8	-78.2	236	9
2023-09-06T18:00	34173	7	-38.7	-78.1	239	9
2023-09-06T18:00	34210	7	-38.6	-78.1	241	8
2023-09-06T18:00	34234	7	-38.3	-77.9	244	8
2023-09-06T18:00	34288	7	-38.3	-77.9	246	7
2023-09-06T18:00	34298	7	-38.1	-77.7	246	7
2023-09-06T18:00	34330	7	-38.2	-77.8	246	6
2023-09-06T18:00	34341	7	-37.7	-77.4	244	6
2023-09-06T18:00	34373	7	-37.4	-77.2	240	5
2023-09-06T18:00	34444	7	-37.1	-77.0	233	4
2023-09-06T18:00	34481	6	-37.1	-77.0	212	3
2023-09-06T18:00	34512	6	-37.0	-77.0	203	3
2023-09-06T18:00	34530	6	-36.9	-76.9	202	4
2023-09-06T18:00	34550	6	-37.0	-77.0	207	4
2023-09-06T18:00	34606	6	-36.8	-76.8	214	4
2023-09-06T18:00	34630	6	-36.6	-76.7	222	5
2023-09-06T18:00	34650	6	-36.4	-76.5	229	6
2023-09-06T18:00	34656	6	-36.5	-76.6	234	6
2023-09-06T18:00	34688	6	-36.6	-76.7	239	7
2023-09-06T18:00	34733	6	-36.7	-76.7	241	7
2023-09-06T18:00	34753	6	-36.8	-76.8	241	8
2023-09-06T18:00	34803	6	-36.7	-76.7	239	8
2023-09-06T18:00	34823	6	-36.4	-76.5	238	9
2023-09-06T18:00	34844	6	-36.1	-76.3	236	9
2023-09-06T18:00	34884	6	-36.1	-76.3	236	9
2023-09-07T00:00	112	1011	19.6	12.6	100	3
2023-09-07T00:00	137	1008	20.6	12.9	119	4
2023-09-07T00:00	162	1005	21.7	12.3	121	5
2023-09-07T00:00	188	1002	22.3	12.0	122	6
2023-09-07T00:00	211	1000	23.2	12.0	124	7
2023-09-07T00:00	239	997	23.3	12.1	127	8
2023-09-07T00:00	264	994	23.2	12.8	128	8
2023-09-07T00:00	288	991	23.1	12.7	129	7
2023-09-07T00:00	309	988	22.9	12.6	129	7
2023-09-07T00:00	333	985	22.8	12.6	128	7
2023-09-07T00:00	364	982	22.6	12.0	125	7
2023-09-07T00:00	383	980	22.4	12.1	123	7
2023-09-07T00:00	412	977	22.2	11.7	122	7
2023-09-07T00:00	439	974	22.0	11.7	121	7
2023-09-07T00:00	467	971	21.7	11.5	120	7
2023-09-07T00:00	489	968	21.5	11.7	120	7
2023-09-07T00:00	518	965	21.3	11.9	118	7
2023-09-07T00:00	550	961	21.0	12.5	117	7
2023-09-07T00:00	579	958	20.7	12.4	115	7
2023-09-07T00:00	603	956	20.5	12.5	113	7
2023-09-07T00:00	628	953	20.3	12.4	112	7
2023-09-07T00:00	655	950	20.0	12.1	110	7
2023-09-07T00:00	678	947	19.9	11.8	108	7
2023-09-07T00:00	702	945	19.7	11.8	106	7
2023-09-07T00:00	726	942	19.5	11.7	104	7
2023-09-07T00:00	753	939	19.2	11.5	103	7
2023-09-07T00:00	784	936	19.0	11.4	102	7
2023-09-07T00:00	808	933	18.8	11.6	101	7
2023-09-07T00:00	832	930	18.6	11.8	100	7
2023-09-07T00:00	858	928	18.3	11.8	98	7
2023-09-07T00:00	885	925	18.1	12.0	96	7
2023-09-07T00:00	912	922	17.9	11.2	95	8
2023-09-07T00:00	935	919	17.8	11.1	95	8
2023-09-07T00:00	957	917	17.6	10.7	96	8
2023-09-07T00:00	979	914	17.4	10.2	98	7
2023-09-07T00:00	1011	911	17.2	9.6	100	7
2023-09-07T00:00	1043	908	17.1	8.6	101	7
2023-09-07T00:00	1072	905	17.1	7.2	100	7
2023-09-07T00:00	1103	902	16.9	7.4	98	6
2023-09-07T00:00	1128	899	16.8	7.2	95	6
2023-09-07T00:00	1155	896	16.7	6.9	92	6
2023-09-07T00:00	1181	893	16.5	7.2	88	5
2023-09-07T00:00	1212	890	17.1	0.9	84	5
2023-09-07T00:00	1239	887	17.4	2.0	79	4
2023-09-07T00:00	1263	885	17.6	2.6	72	3
2023-09-07T00:00	1295	882	17.9	-1.2	63	2
2023-09-07T00:00	1321	879	18.0	-4.0	49	2
2023-09-07T00:00	1349	876	17.8	-0.3	38	2
2023-09-07T00:00	1370	874	17.7	-0.9	35	2
2023-09-07T00:00	1389	872	17.8	-3.3	41	2
2023-09-07T00:00	1412	869	17.9	-7.6	50	3
2023-09-07T00:00	1435	867	18.1	-14.2	61	3
2023-09-07T00:00	1462	864	18.1	-17.5	73	3
2023-09-07T00:00	1488	862	18.0	-18.6	83	3
2023-09-07T00:00	1510	860	17.9	-18.7	92	3
2023-09-07T00:00	1526	858	17.8	-18.6	97	3
2023-09-07T00:00	1550	855	17.6	-18.5	97	2
2023-09-07T00:00	1575	853	17.4	-18.5	91	2
2023-09-07T00:00	1598	851	17.3	-18.2	83	3
2023-09-07T00:00	1617	849	17.3	-18.9	77	3
2023-09-07T00:00	1637	847	17.3	-20.5	74	4
2023-09-07T00:00	1656	845	17.3	-21.1	73	5
2023-09-07T00:00	1678	843	17.3	-19.9	72	5
2023-09-07T00:00	1696	841	17.1	-16.6	71	5
2023-09-07T00:00	1724	838	16.8	-12.7	70	5
2023-09-07T00:00	1762	835	16.8	-14.4	69	4
2023-09-07T00:00	1785	832	16.7	-16.0	66	4
2023-09-07T00:00	1809	830	16.7	-11.7	63	4
2023-09-07T00:00	1831	828	16.5	-6.6	59	4
2023-09-07T00:00	1857	825	16.4	-8.4	56	4
2023-09-07T00:00	1878	823	16.5	-13.4	53	4
2023-09-07T00:00	1897	821	16.4	-12.4	51	4
2023-09-07T00:00	1924	819	16.3	-12.8	51	5
2023-09-07T00:00	1947	816	16.2	-13.9	52	5
2023-09-07T00:00	1971	814	16.2	-15.0	53	5
2023-09-07T00:00	1998	811	16.0	-16.1	56	5
2023-09-07T00:00	2023	809	15.9	-17.4	60	4
2023-09-07T00:00	2047	807	15.8	-19.1	68	4
2023-09-07T00:00	2075	804	15.7	-19.1	77	4
2023-09-07T00:00	2103	802	15.6	-22.9	83	4
2023-09-07T00:00	2130	799	15.7	-24.1	83	4
2023-09-07T00:00	2157	796	15.5	-21.4	80	4
2023-09-07T00:00	2184	794	15.3	-16.1	76	5
2023-09-07T00:00	2211	791	15.1	-17.0	72	4
2023-09-07T00:00	2233	789	14.9	-16.4	68	4
2023-09-07T00:00	2260	787	14.8	-16.7	65	4
2023-09-07T00:00	2286	784	14.8	-16.9	61	3
2023-09-07T00:00	2311	782	14.7	-17.5	55	3
2023-09-07T00:00	2341	779	14.6	-17.0	48	3
2023-09-07T00:00	2367	777	14.5	-16.0	42	4
2023-09-07T00:00	2401	774	14.3	-13.2	38	4
2023-09-07T00:00	2433	771	14.1	-13.6	37	4
2023-09-07T00:00	2461	768	13.9	-13.5	38	4
2023-09-07T00:00	2487	766	13.7	-11.5	41	4
2023-09-07T00:00	2515	763	13.5	-9.4	45	4
2023-09-07T00:00	2542	761	13.2	-9.2	49	4
2023-09-07T00:00	2579	757	12.9	-9.5	51	4
2023-09-07T00:00	2614	754	12.8	-10.7	49	4
2023-09-07T00:00	2640	752	12.8	-11.5	44	4
2023-09-07T00:00	2663	750	12.7	-13.0	39	4
2023-09-07T00:00	2687	748	12.6	-14.6	36	4
2023-09-07T00:00	2710	746	12.6	-14.8	38	4
2023-09-07T00:00	2741	743	12.5	-15.7	44	4
2023-09-07T00:00	2763	741	12.4	-15.2	52	4
2023-09-07T00:00	2786	739	12.3	-14.5	59	3
2023-09-07T00:00	2807	737	12.2	-15.2	61	3
2023-09-07T00:00	2826	736	12.1	-14.6	58	3
2023-09-07T00:00	2842	734	12.0	-14.2	49	3
2023-09-07T00:00	2859	732	11.9	-15.6	39	3
2023-09-07T00:00	2886	730	11.7	-15.7	31	3
2023-09-07T00:00	2914	728	11.4		28	4
2023-09-07T00:00	2943	725	11.3	-14.6	28	4
2023-09-07T00:00	2966	723	11.2	-14.6	30	4
2023-09-07T00:00	2989	721	11.1	-13.4	33	4
2023-09-07T00:00	3015	719	10.8	-11.9	36	4
2023-09-07T00:00	3040	717	10.6	-11.4	36	4
2023-09-07T00:00	3069	714	10.4	-10.9	33	4
2023-09-07T00:00	3090	712	10.2	-9.4	29	4
2023-09-07T00:00	3119	710	9.9	-9.4	24	4
2023-09-07T00:00	3145	708	9.7	-9.6	23	4
2023-09-07T00:00	3164	706	9.5	-9.8	24	4
2023-09-07T00:00	3198	703	9.3	-9.9	27	4
2023-09-07T00:00	3227	701	9.0	-10.4	30	4
2023-09-07T00:00	3249	699	8.8		33	4
2023-09-07T00:00	3282	696	8.5	-11.9	34	3
2023-09-07T00:00	3310	694	8.3	-13.2	35	3
2023-09-07T00:00	3327	692	8.2	-14.5	37	3
2023-09-07T00:00	3356	690	8.3	-28.2	44	2
2023-09-07T00:00	3381	688	8.2	-30.3	53	3
2023-09-07T00:00	3402	686	8.2	-28.9	60	3
2023-09-07T00:00	3429	684	8.3	-30.2	62	3
2023-09-07T00:00	3461	681	8.4	-27.6	60	3
2023-09-07T00:00	3486	679	8.3	-26.6	53	3
2023-09-07T00:00	3512	677	8.0	-18.2	45	3
2023-09-07T00:00	3542	675	7.8	-18.0	37	3
2023-09-07T00:00	3573	672	7.6	-19.0	32	4
2023-09-07T00:00	3595	670	7.5	-20.6	30	4
2023-09-07T00:00	3620	668	7.2	-15.8	29	4
2023-09-07T00:00	3641	666	7.0	-13.5	29	4
2023-09-07T00:00	3673	664	6.8	-13.4	28	4
2023-09-07T00:00	3701	662	6.6	-13.3	28	4
2023-09-07T00:00	3725	660	6.5	-16.3	30	4
2023-09-07T00:00	3750	658	6.6	-20.9	33	4
2023-09-07T00:00	3769	656	6.7	-22.0	37	4
2023-09-07T00:00	3797	654	6.8	-26.3	40	5
2023-09-07T00:00	3821	652	6.7	-24.2	42	6
2023-09-07T00:00	3845	650	6.5	-22.6	43	7
2023-09-07T00:00	3866	648	6.4	-21.3	43	7
2023-09-07T00:00	3887	647	6.3	-20.7	42	7
2023-09-07T00:00	3914	645	6.1	-17.0	41	7
2023-09-07T00:00	3937	643	6.0	-9.7	40	6
2023-09-07T00:00	3967	641	5.7	-8.1	40	6
2023-09-07T00:00	3993	638	5.5	-8.0	40	7
2023-09-07T00:00	4017	637	5.4	-7.7	40	7
2023-09-07T00:00	4033	635	5.3	-7.6	40	7
2023-09-07T00:00	4051	634	5.1	-7.4	39	7
2023-09-07T00:00	4076	632	5.0	-7.2	37	6
2023-09-07T00:00	4101	630	4.8	-7.1	35	6
2023-09-07T00:00	4121	629	4.6		34	6
2023-09-07T00:00	4138	627	4.4	-7.2	34	5
2023-09-07T00:00	4158	625	4.3	-7.1	35	5
2023-09-07T00:00	4191	623	4.0	-7.5	34	4
2023-09-07T00:00	4219	621	3.8	-7.9	32	4
2023-09-07T00:00	4244	619	3.6	-7.8	27	4
2023-09-07T00:00	4270	617	3.5	-8.9	22	4
2023-09-07T00:00	4292	615	3.3	-8.5	19	4
2023-09-07T00:00	4314	614	3.1	-8.1	19	4
2023-09-07T00:00	4332	612	2.9	-8.0	20	4
2023-09-07T00:00	4350	611	2.8	-8.1	20	4
2023-09-07T00:00	4369	610	2.6	-8.1	18	4
2023-09-07T00:00	4389	608	2.4	-8.4	13	4
2023-09-07T00:00	4414	606	2.2	-8.4	7	4
2023-09-07T00:00	4445	604	1.9	-8.4	1	4
2023-09-07T00:00	4466	602	1.7	-8.3	358	4
2023-09-07T00:00	4486	601	1.5	-8.5	359	4
2023-09-07T00:00	4507	599	1.4		1	5
2023-09-07T00:00	4537	597	1.2	-9.7	4	5
2023-09-07T00:00	4565	595	1.1	-11.9	7	5
2023-09-07T00:00	4587	593	1.0	-11.9	10	6
2023-09-07T00:00	4607	592	0.9	-11.8	12	6
2023-09-07T00:00	4636	590	0.7	-11.7	13	6
2023-09-07T00:00	4666	588	0.5	-12.6	14	7
2023-09-07T00:00	4691	586	0.5	-14.6	15	7
2023-09-07T00:00	4708	584	0.4	-15.5	14	7
2023-09-07T00:00	4728	583	0.4	-15.8	13	7
2023-09-07T00:00	4751	581	0.2	-16.7	12	7
2023-09-07T00:00	4787	579	0.0	-16.7	11	7
2023-09-07T00:00	4808	577	-0.1	-16.7	10	8
2023-09-07T00:00	4829	576	-0.3	-16.9	11	8
2023-09-07T00:00	4854	574	-0.4	-17.1	11	8
2023-09-07T00:00	4886	572	-0.5	-17.1	11	8
2023-09-07T00:00	4914	570	-0.7	-17.5	10	8
2023-09-07T00:00	4945	568	-0.9	-18.7	8	8
2023-09-07T00:00	4968	566	-1.0	-19.9	6	9
2023-09-07T00:00	4983	565	-1.1	-20.4	4	9
2023-09-07T00:00	5002	563	-1.2	-21.1	3	9
2023-09-07T00:00	5021	562	-1.3	-21.7	1	9
2023-09-07T00:00	5049	560	-1.5	-21.8	359	9
2023-09-07T00:00	5083	558	-1.6	-22.2	358	8
2023-09-07T00:00	5114	556	-1.8	-22.4	356	8
2023-09-07T00:00	5139	554	-1.9	-22.9	355	8
2023-09-07T00:00	5160	552	-2.1	-23.0	356	8
2023-09-07T00:00	5181	551	-2.3	-22.8	356	8
2023-09-07T00:00	5203	549	-2.4	-22.6	358	8
2023-09-07T00:00	5234	547	-2.6	-23.0	360	8
2023-09-07T00:00	5267	545	-2.9	-15.6	2	8
2023-09-07T00:00	5294	543	-3.2	-13.8	5	7
2023-09-07T00:00	5311	542	-3.3	-13.9	7	7
2023-09-07T00:00	5327	541	-3.5	-14.0	10	7
2023-09-07T00:00	5347	539	-3.6	-14.1	12	7
2023-09-07T00:00	5372	538	-3.8	-14.3	14	7
2023-09-07T00:00	5406	535	-4.1	-14.8	16	7
2023-09-07T00:00	5433	534	-4.3	-14.9	17	7
2023-09-07T00:00	5449	532	-4.4	-14.5	17	6
2023-09-07T00:00	5469	531	-4.6	-14.5	16	6
2023-09-07T00:00	5503	529	-4.8	-14.8	14	6
2023-09-07T00:00	5540	527	-5.1	-14.5	11	6
2023-09-07T00:00	5558	525	-5.2	-14.8	7	6
2023-09-07T00:00	5575	524	-5.4	-15.4	5	6
2023-09-07T00:00	5592	523	-5.5	-15.3	3	6
2023-09-07T00:00	5611	522	-5.7	-15.4	2	6
2023-09-07T00:00	5629	520	-5.8	-15.6	2	6
2023-09-07T00:00	5646	519	-6.0	-16.4	1	6
2023-09-07T00:00	5664	518	-6.1	-17.7	1	6
2023-09-07T00:00	5683	517	-6.2	-17.5	2	6
2023-09-07T00:00	5703	516	-6.4	-16.8	2	7
2023-09-07T00:00	5725	514	-6.6	-16.3	4	7
2023-09-07T00:00	5758	512	-6.9	-15.7	5	8
2023-09-07T00:00	5784	510	-7.1	-16.5	6	8
2023-09-07T00:00	5800	509	-7.2	-17.2	8	8
2023-09-07T00:00	5821	508	-7.3	-17.5	11	8
2023-09-07T00:00	5850	506	-7.6	-18.2	14	8
2023-09-07T00:00	5885	504	-7.9	-18.5	17	8
2023-09-07T00:00	5918	502	-8.1	-18.3	20	8
2023-09-07T00:00	5941	500	-8.4	-17.9	21	8
2023-09-07T00:00	5958	499	-8.5	-17.8	20	8
2023-09-07T00:00	5975	498	-8.5	-17.9	18	8
2023-09-07T00:00	5993	497	-8.7	-18.0	16	8
2023-09-07T00:00	6013	495	-8.8	-18.0	14	8
2023-09-07T00:00	6031	494	-9.0	-18.1	12	8
2023-09-07T00:00	6052	493	-9.2	-18.3	11	9
2023-09-07T00:00	6071	492	-9.3	-18.5	11	9
2023-09-07T00:00	6095	490	-9.5	-18.8	10	9
2023-09-07T00:00	6122	488	-9.7	-19.3	11	10
2023-09-07T00:00	6153	486	-10.0	-19.5	11	10
2023-09-07T00:00	6184	484	-10.2	-20.5	11	10
2023-09-07T00:00	6216	483	-10.4	-21.4	10	9
2023-09-07T00:00	6234	481	-10.5	-21.8	9	9
2023-09-07T00:00	6253	480	-10.6	-22.2	8	9
2023-09-07T00:00	6273	479	-10.7	-23.8	8	8
2023-09-07T00:00	6290	478	-10.8	-23.7	10	8
2023-09-07T00:00	6312	477	-10.9	-24.8	12	8
2023-09-07T00:00	6334	475	-11.1	-24.5	14	8
2023-09-07T00:00	6368	473	-11.3	-24.2	15	9
2023-09-07T00:00	6399	471	-11.5	-24.7	16	9
2023-09-07T00:00	6428	469	-11.7	-25.0	14	9
2023-09-07T00:00	6456	468	-11.9	-24.9	11	9
2023-09-07T00:00	6486	466	-12.2	-24.5	7	9
2023-09-07T00:00	6512	464	-12.4	-24.4	3	9
2023-09-07T00:00	6540	463	-12.7	-24.4	0	10
2023-09-07T00:00	6566	461	-13.0	-24.2	359	10
2023-09-07T00:00	6599	459	-13.3	-24.3	359	9
2023-09-07T00:00	6619	458	-13.4	-24.7	0	9
2023-09-07T00:00	6647	456	-13.6	-23.6	2	9
2023-09-07T00:00	6686	454	-13.9	-23.4	4	9
2023-09-07T00:00	6708	452	-14.1	-23.6	5	9
2023-09-07T00:00	6727	451	-14.3	-23.4	5	9
2023-09-07T00:00	6745	450	-14.5	-22.9	3	9
2023-09-07T00:00	6763	449	-14.7	-22.9	1	9
2023-09-07T00:00	6783	448	-14.8	-23.1	359	9
2023-09-07T00:00	6801	447	-15.0	-23.1	358	9
2023-09-07T00:00	6820	446	-15.1	-23.5	357	9
2023-09-07T00:00	6838	445	-15.2	-24.4	357	9
2023-09-07T00:00	6858	444	-15.4	-24.7	357	9
2023-09-07T00:00	6877	442	-15.6	-24.8	358	9
2023-09-07T00:00	6897	441	-15.7	-24.8	360	9
2023-09-07T00:00	6922	440	-15.9	-24.7	2	9
2023-09-07T00:00	6957	438	-16.2	-24.7	6	9
2023-09-07T00:00	6985	436	-16.4	-26.0	8	10
2023-09-07T00:00	7018	434	-16.5	-26.0	9	10
2023-09-07T00:00	7044	433	-16.7	-25.7	8	10
2023-09-07T00:00	7069	431	-16.8	-25.3	5	10
2023-09-07T00:00	7100	430	-17.0	-25.0	2	11
2023-09-07T00:00	7133	428	-17.3	-24.8	0	11
2023-09-07T00:00	7155	426	-17.5	-24.8	360	11
2023-09-07T00:00	7189	424	-17.7	-25.7	0	12
2023-09-07T00:00	7215	423	-17.8	-26.2	2	12
2023-09-07T00:00	7242	421	-17.9	-28.7	2	13
2023-09-07T00:00	7270	420	-17.9	-29.8	2	13
2023-09-07T00:00	7298	418	-18.0	-30.7	0	13
2023-09-07T00:00	7328	417	-18.2	-30.4	359	14
2023-09-07T00:00	7356	415	-18.4	-29.8	358	14
2023-09-07T00:00	7392	413	-18.7	-29.7	357	14
2023-09-07T00:00	7429	411	-19.0	-29.8	357	13
2023-09-07T00:00	7454	410	-19.2	-29.8	357	13
2023-09-07T00:00	7473	409	-19.3	-29.9	357	12
2023-09-07T00:00	7490	408	-19.5	-30.3	357	12
2023-09-07T00:00	7509	407	-19.6	-31.0	357	11
2023-09-07T00:00	7534	405	-19.8	-32.0	356	11
2023-09-07T00:00	7563	404	-20.0	-32.8	354	10
2023-09-07T00:00	7590	402	-20.2	-33.6	352	10
2023-09-07T00:00	7619	401	-20.4	-34.0	350	9
2023-09-07T00:00	7656	399	-20.6	-34.7	348	8
2023-09-07T00:00	7688	397	-20.7	-35.9	348	8
2023-09-07T00:00	7708	396	-20.9		348	8
2023-09-07T00:00	7728	395	-21.0	-36.3	350	8
2023-09-07T00:00	7747	394	-21.1	-35.9	350	8
2023-09-07T00:00	7764	393	-21.3	-35.6	351	8
2023-09-07T00:00	7781	392	-21.4	-35.5	351	8
2023-09-07T00:00	7800	391	-21.6	-35.6	351	8
2023-09-07T00:00	7816	390	-21.7	-35.6	351	8
2023-09-07T00:00	7832	389	-21.8	-35.8	351	8
2023-09-07T00:00	7852	388	-22.0	-36.0	352	8
2023-09-07T00:00	7868	387	-22.1	-36.2	352	8
2023-09-07T00:00	7887	386	-22.3	-36.4	352	8
2023-09-07T00:00	7907	385	-22.4		352	8
2023-09-07T00:00	7924	384	-22.5	-36.9	351	9
2023-09-07T00:00	7945	383	-22.7	-37.0	350	9
2023-09-07T00:00	7967	382	-22.8	-38.6	348	9
2023-09-07T00:00	7986	381	-23.0	-39.0	346	9
2023-09-07T00:00	8008	380	-23.1	-38.0	345	9
2023-09-07T00:00	8029	379	-23.3	-37.1	344	10
2023-09-07T00:00	8046	378	-23.4	-37.8	344	10
2023-09-07T00:00	8066	377	-23.5	-38.8	343	10
2023-09-07T00:00	8085	376	-23.6	-38.4	342	10
2023-09-07T00:00	8109	375	-23.8	-37.9	341	10
2023-09-07T00:00	8134	374	-24.0	-38.3	340	10
2023-09-07T00:00	8157	372	-24.1	-38.4	338	10
2023-09-07T00:00	8181	371	-24.4	-38.2	337	10
2023-09-07T00:00	8215	369	-24.6	-37.8	337	10
2023-09-07T00:00	8248	368	-24.8	-38.2	336	10
2023-09-07T00:00	8281	366	-25.0	-38.9	336	10
2023-09-07T00:00	8314	364	-25.0	-41.0	337	10
2023-09-07T00:00	8350	363	-25.1	-41.9	338	10
2023-09-07T00:00	8372	362	-25.1	-43.1	338	10
2023-09-07T00:00	8392	360	-25.2	-43.7	339	10
2023-09-07T00:00	8415	359	-25.3	-43.7	339	10
2023-09-07T00:00	8445	358	-25.5	-44.2	339	10
2023-09-07T00:00	8474	356	-25.7	-44.3	339	10
2023-09-07T00:00	8496	355	-25.9	-44.4	339	10
2023-09-07T00:00	8517	354	-26.0	-44.2	340	11
2023-09-07T00:00	8537	353	-26.2	-44.1	340	11
2023-09-07T00:00	8558	352	-26.3	-44.4	340	11
2023-09-07T00:00	8579	351	-26.4	-44.7	339	11
2023-09-07T00:00	8603	350	-26.5	-44.8	338	11
2023-09-07T00:00	8630	349	-26.7	-44.6	337	11
2023-09-07T00:00	8660	347	-27.0	-44.4	337	11
2023-09-07T00:00	8689	346	-27.2	-44.3	338	11
2023-09-07T00:00	8717	345	-27.5	-44.4	338	11
2023-09-07T00:00	8739	344	-27.7	-44.5	339	11
2023-09-07T00:00	8760	343	-27.8	-44.4	339	10
2023-09-07T00:00	8780	342	-28.0	-44.5	338	10
2023-09-07T00:00	8805	341	-28.3	-44.6	338	10
2023-09-07T00:00	8822	340	-28.5	-44.7	338	10
2023-09-07T00:00	8843	339	-28.7	-45.0	338	10
2023-09-07T00:00	8867	338	-28.8	-45.8	338	10
2023-09-07T00:00	8887	337	-29.0	-45.9	338	10
2023-09-07T00:00	8908	336	-29.2	-46.2	339	10
2023-09-07T00:00	8927	335	-29.3	-46.4	339	10
2023-09-07T00:00	8949	334	-29.5	-46.5	339	10
2023-09-07T00:00	8972	333	-29.7	-46.7	338	10
2023-09-07T00:00	8998	331	-29.9	-47.1	338	10
2023-09-07T00:00	9022	330	-30.1	-47.6	338	10
2023-09-07T00:00	9046	329	-30.2	-47.7	338	10
2023-09-07T00:00	9066	328	-30.4	-47.7	338	10
2023-09-07T00:00	9088	327	-30.6		338	10
2023-09-07T00:00	9107	326	-30.8		337	10
2023-09-07T00:00	9131	325	-30.9	-46.9	337	10
2023-09-07T00:00	9156	324	-31.1	-46.9	337	11
2023-09-07T00:00	9184	323	-31.3	-46.5	338	11
2023-09-07T00:00	9206	322	-31.4	-45.8	339	11
2023-09-07T00:00	9229	321	-31.6	-45.6	340	12
2023-09-07T00:00	9253	320	-31.9	-45.9	341	12
2023-09-07T00:00	9283	318	-32.1	-46.3	341	12
2023-09-07T00:00	9305	317	-32.3	-46.1	340	12
2023-09-07T00:00	9323	317	-32.5	-45.6	340	12
2023-09-07T00:00	9344	316	-32.5	-45.7	339	12
2023-09-07T00:00	9361	315	-32.6	-46.2	339	12
2023-09-07T00:00	9381	314	-32.7	-45.9	338	12
2023-09-07T00:00	9401	313	-32.9	-46.0	338	13
2023-09-07T00:00	9419	312	-32.9	-46.0	338	13
2023-09-07T00:00	9439	311	-33.0	-45.9	339	13
2023-09-07T00:00	9458	311	-33.1	-46.1	339	13
2023-09-07T00:00	9476	310	-33.3	-46.3	340	13
2023-09-07T00:00	9493	309	-33.4	-46.4	341	13
2023-09-07T00:00	9513	308	-33.6	-46.5	342	13
2023-09-07T00:00	9533	307	-33.8	-46.6	343	13
2023-09-07T00:00	9552	306	-33.9	-46.7	345	13
2023-09-07T00:00	9571	306	-34.1	-46.9	346	13
2023-09-07T00:00	9591	305	-34.3	-47.1	347	13
2023-09-07T00:00	9607	304	-34.4	-47.1	347	14
2023-09-07T00:00	9628	303	-34.6	-47.2	348	14
2023-09-07T00:00	9648	302	-34.8	-47.2	348	14
2023-09-07T00:00	9669	301	-35.0	-47.3	349	14
2023-09-07T00:00	9688	300	-35.1	-47.3	349	14
2023-09-07T00:00	9712	300	-35.3	-47.3	348	14
2023-09-07T00:00	9731	299	-35.5	-47.4	348	14
2023-09-07T00:00	9750	298	-35.7	-47.4	348	14
2023-09-07T00:00	9773	297	-35.9	-47.3	348	15
2023-09-07T00:00	9801	296	-36.1	-47.4	348	15
2023-09-07T00:00	9823	295	-36.3	-47.5	348	15
2023-09-07T00:00	9841	294	-36.5	-47.4	348	15
2023-09-07T00:00	9860	293	-36.7	-47.2	347	15
2023-09-07T00:00	9877	292	-36.9	-47.2	346	15
2023-09-07T00:00	9897	292	-37.1	-47.3	345	15
2023-09-07T00:00	9916	291	-37.3	-47.3	345	15
2023-09-07T00:00	9935	290	-37.4		344	15
2023-09-07T00:00	9953	289	-37.6	-47.5	344	15
2023-09-07T00:00	9972	288	-37.8	-47.0	343	15
2023-09-07T00:00	9991	288	-38.0	-47.0	343	15
2023-09-07T00:00	10011	287	-38.1	-47.2	343	15
2023-09-07T00:00	10030	286	-38.3	-47.2	342	15
2023-09-07T00:00	10049	285	-38.5	-46.8	342	15
2023-09-07T00:00	10068	284	-38.7	-46.6	341	15
2023-09-07T00:00	10087	284	-38.9	-46.7	341	15
2023-09-07T00:00	10105	283	-39.0	-46.8	341	15
2023-09-07T00:00	10122	282	-39.2	-46.7	341	15
2023-09-07T00:00	10142	281	-39.4	-46.7	341	15
2023-09-07T00:00	10159	281	-39.6	-46.8	341	15
2023-09-07T00:00	10177	280	-39.7	-46.7	341	15
2023-09-07T00:00	10195	279	-39.9	-46.6	340	15
2023-09-07T00:00	10213	278	-40.1	-46.7	339	15
2023-09-07T00:00	10232	278	-40.3	-46.6	338	15
2023-09-07T00:00	10250	277	-40.4	-46.6	337	16
2023-09-07T00:00	10269	276	-40.5	-46.5	336	16
2023-09-07T00:00	10288	275	-40.7	-46.8	335	16
2023-09-07T00:00	10305	275	-40.7	-46.9	334	16
2023-09-07T00:00	10323	274	-40.8	-47.0	334	16
2023-09-07T00:00	10341	273	-40.8	-47.3	335	16
2023-09-07T00:00	10359	273	-40.8	-48.2	336	16
2023-09-07T00:00	10377	272	-40.8	-49.6	336	16
2023-09-07T00:00	10396	271	-40.8	-49.7	337	16
2023-09-07T00:00	10414	270	-41.0	-49.5	337	16
2023-09-07T00:00	10433	270	-41.2	-49.2	337	16
2023-09-07T00:00	10452	269	-41.3	-48.9	337	16
2023-09-07T00:00	10470	268	-41.4		336	15
2023-09-07T00:00	10489	267	-41.5	-49.8	336	15
2023-09-07T00:00	10509	267	-41.6	-49.7	336	15
2023-09-07T00:00	10526	266	-41.7	-50.1	336	16
2023-09-07T00:00	10543	265	-41.8	-50.7	336	16
2023-09-07T00:00	10563	264	-42.0	-51.2	336	16
2023-09-07T00:00	10583	264	-42.1	-50.6	336	16
2023-09-07T00:00	10601	263	-42.2	-50.9	336	16
2023-09-07T00:00	10620	262	-42.4	-51.4	336	17
2023-09-07T00:00	10636	262	-42.5	-51.7	336	17
2023-09-07T00:00	10656	261	-42.6	-51.5	336	17
2023-09-07T00:00	10675	260	-42.8	-51.3	337	17
2023-09-07T00:00	10693	259	-42.9	-51.5	337	17
2023-09-07T00:00	10709	259	-43.1	-51.8	337	17
2023-09-07T00:00	10729	258	-43.2	-52.1	337	17
2023-09-07T00:00	10747	257	-43.4	-52.4	337	17
2023-09-07T00:00	10766	257	-43.5	-52.9	337	17
2023-09-07T00:00	10784	256	-43.6	-53.0	336	17
2023-09-07T00:00	10803	255	-43.8	-53.0	336	18
2023-09-07T00:00	10820	255	-44.0	-52.9	336	18
2023-09-07T00:00	10840	254	-44.1	-53.0	337	18
2023-09-07T00:00	10858	253	-44.3	-53.1	338	18
2023-09-07T00:00	10878	252	-44.5	-52.8	338	18
2023-09-07T00:00	10897	252	-44.7	-52.7	339	18
2023-09-07T00:00	10914	251	-44.8	-52.7	340	18
2023-09-07T00:00	10935	250	-45.0	-52.9	340	18
2023-09-07T00:00	10953	250	-45.1	-53.0	341	18
2023-09-07T00:00	10970	249	-45.3	-53.2	342	18
2023-09-07T00:00	10986	248	-45.4	-53.5	342	18
2023-09-07T00:00	11006	248	-45.5	-53.9	342	18
2023-09-07T00:00	11023	247	-45.7	-54.2	342	19
2023-09-07T00:00	11044	246	-45.9	-54.3	342	19
2023-09-07T00:00	11061	246	-46.0	-54.6	341	19
2023-09-07T00:00	11081	245	-46.1	-54.9	341	19
2023-09-07T00:00	11101	244	-46.3	-55.5	340	19
2023-09-07T00:00	11121	243	-46.4	-55.9	340	19
2023-09-07T00:00	11142	243	-46.6	-56.5	339	19
2023-09-07T00:00	11160	242	-46.8	-56.8	339	19
2023-09-07T00:00	11178	241	-46.9	-56.8	338	18
2023-09-07T00:00	11197	241	-47.1	-57.1	338	18
2023-09-07T00:00	11215	240	-47.2	-57.4	337	18
2023-09-07T00:00	11232	239	-47.3	-57.4	337	18
2023-09-07T00:00	11252	239	-47.4	-57.4	336	18
2023-09-07T00:00	11269	238	-47.6	-57.5	336	18
2023-09-07T00:00	11288	237	-47.7	-57.4	335	18
2023-09-07T00:00	11309	237	-47.9	-57.5	335	18
2023-09-07T00:00	11328	236	-48.0	-57.5	335	18
2023-09-07T00:00	11346	235	-48.2	-57.6	335	18
2023-09-07T00:00	11366	235	-48.3	-57.7	334	18
2023-09-07T00:00	11385	234	-48.4	-57.8	334	18
2023-09-07T00:00	11402	233	-48.6	-58.0	333	18
2023-09-07T00:00	11423	232	-48.7	-58.5	332	18
2023-09-07T00:00	11443	232	-48.9	-58.8	332	18
2023-09-07T00:00	11463	231	-49.0	-58.9	332	18
2023-09-07T00:00	11481	230	-49.2	-58.9	332	18
2023-09-07T00:00	11502	230	-49.4	-59.1	333	18
2023-09-07T00:00	11521	229	-49.5	-59.2	334	18
2023-09-07T00:00	11541	228	-49.6	-59.4	334	18
2023-09-07T00:00	11560	228	-49.8	-59.5	335	19
2023-09-07T00:00	11580	227	-49.9	-59.8	335	19
2023-09-07T00:00	11599	226	-50.0	-60.3	335	19
2023-09-07T00:00	11621	226	-50.1		336	19
2023-09-07T00:00	11641	225	-50.2	-61.0	335	20
2023-09-07T00:00	11660	224	-50.3	-61.3	335	20
2023-09-07T00:00	11680	224	-50.5	-61.7	335	20
2023-09-07T00:00	11699	223	-50.5	-62.0	335	20
2023-09-07T00:00	11717	222	-50.6	-62.3	335	20
2023-09-07T00:00	11738	222	-50.7	-62.5	335	20
2023-09-07T00:00	11759	221	-50.8	-62.7	335	20
2023-09-07T00:00	11780	220	-50.9	-63.0	335	20
2023-09-07T00:00	11798	219	-51.1	-63.3	334	21
2023-09-07T00:00	11818	219	-51.2	-63.5	334	21
2023-09-07T00:00	11838	218	-51.3	-63.7	334	21
2023-09-07T00:00	11858	217	-51.4	-63.9	334	21
2023-09-07T00:00	11880	217	-51.5	-64.0	333	21
2023-09-07T00:00	11902	216	-51.7	-63.8	333	21
2023-09-07T00:00	11923	215	-51.8	-63.6	333	21
2023-09-07T00:00	11943	215	-52.0	-63.4	333	21
2023-09-07T00:00	11963	214	-52.1	-63.4	332	21
2023-09-07T00:00	11983	213	-52.3	-63.6	332	21
2023-09-07T00:00	12002	213	-52.5	-63.7	332	21
2023-09-07T00:00	12023	212	-52.7	-63.8	332	21
2023-09-07T00:00	12045	211	-52.8	-63.9	332	21
2023-09-07T00:00	12063	211	-53.0	-64.3	332	21
2023-09-07T00:00	12084	210	-53.1	-64.7	331	21
2023-09-07T00:00	12104	209	-53.2	-65.1	330	20
2023-09-07T00:00	12125	209	-53.3	-65.5	330	20
2023-09-07T00:00	12143	208	-53.4	-65.8	329	20
2023-09-07T00:00	12163	207	-53.6	-65.9	328	20
2023-09-07T00:00	12185	207	-53.7	-65.8	328	20
2023-09-07T00:00	12203	206	-53.8	-65.7	328	20
2023-09-07T00:00	12224	206	-54.0	-65.8	328	20
2023-09-07T00:00	12244	205	-54.1	-65.6	328	20
2023-09-07T00:00	12264	204	-54.3	-65.6	328	20
2023-09-07T00:00	12285	204	-54.4	-65.6	328	20
2023-09-07T00:00	12307	203	-54.5	-65.8	328	20
2023-09-07T00:00	12325	202	-54.6	-66.1	328	20
2023-09-07T00:00	12345	202	-54.7	-66.3	328	20
2023-09-07T00:00	12365	201	-54.9	-66.4	328	21
2023-09-07T00:00	12385	200	-55.1	-66.4	328	21
2023-09-07T00:00	12404	200	-55.2	-66.3	328	21
2023-09-07T00:00	12424	199	-55.4	-66.2	327	21
2023-09-07T00:00	12441	199	-55.5	-66.0	327	21
2023-09-07T00:00	12462	198	-55.6	-66.0	327	21
2023-09-07T00:00	12484	197	-55.8	-66.1	327	21
2023-09-07T00:00	12504	197	-56.0	-66.2	327	21
2023-09-07T00:00	12525	196	-56.2	-66.3	327	21
2023-09-07T00:00	12544	195	-56.3	-66.3	328	21
2023-09-07T00:00	12564	195	-56.5	-66.5	328	21
2023-09-07T00:00	12584	194	-56.6	-66.5	328	21
2023-09-07T00:00	12605	194	-56.8	-66.6	328	21
2023-09-07T00:00	12623	193	-56.9	-66.5	328	22
2023-09-07T00:00	12643	192	-57.0	-66.3	328	22
2023-09-07T00:00	12665	192	-57.1	-66.3	328	22
2023-09-07T00:00	12683	191	-57.3	-66.3	328	22
2023-09-07T00:00	12703	191	-57.4	-66.2	329	22
2023-09-07T00:00	12723	190	-57.6	-66.0	329	22
2023-09-07T00:00	12742	189	-57.8	-65.7	328	23
2023-09-07T00:00	12760	189	-58.0	-65.6	328	23
2023-09-07T00:00	12781	188	-58.2	-65.6	327	23
2023-09-07T00:00	12800	188	-58.3	-65.9	327	23
2023-09-07T00:00	12820	187	-58.4	-66.1	327	23
2023-09-07T00:00	12838	187	-58.6	-66.3	327	23
2023-09-07T00:00	12858	186	-58.8	-66.4	327	23
2023-09-07T00:00	12877	185	-58.9	-66.3	328	23
2023-09-07T00:00	12896	185	-59.1	-66.2	328	22
2023-09-07T00:00	12916	184	-59.3	-66.1	328	22
2023-09-07T00:00	12936	184	-59.4	-66.1	329	22
2023-09-07T00:00	12954	183	-59.5	-66.2	329	22
2023-09-07T00:00	12975	183	-59.6	-66.4	329	22
2023-09-07T00:00	12996	182	-59.8	-66.9	329	22
2023-09-07T00:00	13018	181	-59.8	-67.1	328	22
2023-09-07T00:00	13039	181	-60.0	-67.6	328	21
2023-09-07T00:00	13058	180	-60.0	-67.9	329	21
2023-09-07T00:00	13078	180	-60.0	-68.2	329	21
2023-09-07T00:00	13098	179	-60.0	-68.5	329	21
2023-09-07T00:00	13118	178	-60.1	-68.9	330	21
2023-09-07T00:00	13137	178	-60.1	-69.1	330	20
2023-09-07T00:00	13157	177	-60.1	-69.2	330	20
2023-09-07T00:00	13178	177	-59.9	-69.2	330	20
2023-09-07T00:00	13198	176	-59.8	-69.4	330	20
2023-09-07T00:00	13217	176	-59.9	-69.8	329	20
2023-09-07T00:00	13236	175	-60.0	-70.1	329	19
2023-09-07T00:00	13257	174	-60.2	-70.3	328	19
2023-09-07T00:00	13276	174	-60.3	-70.3	328	19
2023-09-07T00:00	13293	173	-60.4	-70.3	329	19
2023-09-07T00:00	13315	173	-60.6	-70.4	329	19
2023-09-07T00:00	13334	172	-60.7	-70.5	329	19
2023-09-07T00:00	13353	172	-60.8	-70.5	329	19
2023-09-07T00:00	13374	171	-61.0	-70.6	329	20
2023-09-07T00:00	13395	171	-61.1	-70.5	329	20
2023-09-07T00:00	13416	170	-61.3	-70.6	329	20
2023-09-07T00:00	13438	169	-61.4	-70.6	328	20
2023-09-07T00:00	13458	169	-61.6	-70.7	328	21
2023-09-07T00:00	13479	168	-61.6	-70.5	328	21
2023-09-07T00:00	13499	168	-61.8	-70.5	328	21
2023-09-07T00:00	13519	167	-61.9	-70.4	327	21
2023-09-07T00:00	13537	167	-62.1	-70.4	327	21
2023-09-07T00:00	13560	166	-62.2	-70.4	326	20
2023-09-07T00:00	13580	166	-62.3	-70.5	325	20
2023-09-07T00:00	13601	165	-62.1	-70.4	325	20
2023-09-07T00:00	13619	165	-62.0	-70.5	324	20
2023-09-07T00:00	13642	164	-62.2	-70.7	324	20
2023-09-07T00:00	13662	163	-62.3	-70.9	325	20
2023-09-07T00:00	13682	163	-62.3	-71.0	325	20
2023-09-07T00:00	13702	162	-62.3	-71.0	326	20
2023-09-07T00:00	13723	162	-62.4	-71.2	327	20
2023-09-07T00:00	13743	161	-62.4	-71.1	328	20
2023-09-07T00:00	13761	161	-62.5	-71.1	329	20
2023-09-07T00:00	13782	160	-62.6	-71.1	330	20
2023-09-07T00:00	13801	160	-62.7	-71.0	330	20
2023-09-07T00:00	13820	159	-62.8	-71.0	331	20
2023-09-07T00:00	13839	159	-63.0	-71.0	332	20
2023-09-07T00:00	13860	158	-63.1	-71.0	332	20
2023-09-07T00:00	13878	158	-63.3	-71.1	333	20
2023-09-07T00:00	13899	157	-63.4	-71.2	334	20
2023-09-07T00:00	13917	157	-63.5	-71.3	334	20
2023-09-07T00:00	13937	156	-63.6	-71.5	335	20
2023-09-07T00:00	13956	156	-63.8	-71.8	336	19
2023-09-07T00:00	13977	155	-63.9	-72.1	336	19
2023-09-07T00:00	13999	155	-64.0	-72.5	337	19
2023-09-07T00:00	14021	154	-64.2	-73.0	337	18
2023-09-07T00:00	14041	154	-64.1	-73.3	337	17
2023-09-07T00:00	14062	153	-64.0	-73.6	336	17
2023-09-07T00:00	14083	153	-64.1	-73.9	336	17
2023-09-07T00:00	14102	152	-64.2	-74.1	335	16
2023-09-07T00:00	14123	152	-64.3	-74.1	334	16
2023-09-07T00:00	14145	151	-64.5	-74.2	333	16
2023-09-07T00:00	14164	151	-64.6	-74.2	332	16
2023-09-07T00:00	14184	150	-64.7	-74.2	331	16
2023-09-07T00:00	14203	150	-64.8	-74.2	330	15
2023-09-07T00:00	14222	149	-64.9	-74.3	329	15
2023-09-07T00:00	14239	149	-65.1	-74.6	328	15
2023-09-07T00:00	14261	148	-65.1	-74.9	328	15
2023-09-07T00:00	14279	148	-65.0	-75.1	329	15
2023-09-07T00:00	14300	147	-64.9	-75.6	329	15
2023-09-07T00:00	14319	147	-64.8	-76.1	330	15
2023-09-07T00:00	14337	146	-64.6	-76.4	330	15
2023-09-07T00:00	14356	146	-64.7	-77.0	330	15
2023-09-07T00:00	14375	145	-64.7	-77.4	330	15
2023-09-07T00:00	14395	145	-64.7	-77.7	329	14
2023-09-07T00:00	14413	145	-64.8	-78.2	329	14
2023-09-07T00:00	14431	144	-64.8	-78.5	329	14
2023-09-07T00:00	14450	144	-64.8	-78.8	328	13
2023-09-07T00:00	14472	143	-64.7	-79.0	327	13
2023-09-07T00:00	14494	143	-64.7	-79.2	327	12
2023-09-07T00:00	14513	142	-64.7	-79.5	326	12
2023-09-07T00:00	14533	142	-64.8	-79.7	325	12
2023-09-07T00:00	14553	141	-64.8	-79.8	324	12
2023-09-07T00:00	14573	141	-64.9	-79.9	323	12
2023-09-07T00:00	14593	140	-64.9	-80.0	322	12
2023-09-07T00:00	14615	140	-65.0		321	12
2023-09-07T00:00	14635	139	-65.0		319	12
2023-09-07T00:00	14656	139	-65.1	-80.2	318	12
2023-09-07T00:00	14674	139	-65.3	-80.3	316	12
2023-09-07T00:00	14695	138	-65.4	-80.4	315	13
2023-09-07T00:00	14715	138	-65.6	-80.5	315	13
2023-09-07T00:00	14737	137	-65.5	-80.4	314	13
2023-09-07T00:00	14755	137	-65.6	-80.4	314	14
2023-09-07T00:00	14773	136	-65.7	-80.4	314	14
2023-09-07T00:00	14793	136	-65.8	-80.5	315	15
2023-09-07T00:00	14815	135	-66.0	-80.7	316	15
2023-09-07T00:00	14833	135	-66.0	-80.8	318	15
2023-09-07T00:00	14853	135	-66.1	-81.0	321	15
2023-09-07T00:00	14873	134	-65.8	-80.9	324	15
2023-09-07T00:00	14892	134	-65.7	-81.1	326	15
2023-09-07T00:00	14912	133	-65.9	-81.4	328	14
2023-09-07T00:00	14931	133	-65.9	-81.6	330	14
2023-09-07T00:00	14952	132	-66.0	-81.9	330	14
2023-09-07T00:00	14973	132	-65.7	-81.9	329	13
2023-09-07T00:00	14991	131	-65.6	-82.1	327	13
2023-09-07T00:00	15013	131	-65.7	-82.4	326	13
2023-09-07T00:00	15035	131	-65.5	-82.5	324	13
2023-09-07T00:00	15054	130	-65.3	-82.5	322	13
2023-09-07T00:00	15073	130	-65.3	-82.6	321	13
2023-09-07T00:00	15092	129	-65.3	-82.6	319	13
2023-09-07T00:00	15114	129	-65.4	-82.7	318	13
2023-09-07T00:00	15135	128	-65.6	-82.9	317	13
2023-09-07T00:00	15157	128	-65.3	-82.6	316	13
2023-09-07T00:00	15180	128	-65.5	-82.8	315	14
2023-09-07T00:00	15197	127	-65.7	-82.9	315	14
2023-09-07T00:00	15217	127	-65.9	-83.1	315	14
2023-09-07T00:00	15239	126	-65.7	-83.0	316	14
2023-09-07T00:00	15260	126	-65.6	-83.1	317	14
2023-09-07T00:00	15281	125	-65.5	-83.1	319	15
2023-09-07T00:00	15304	125	-65.5	-83.1	321	15
2023-09-07T00:00	15324	124	-65.6	-83.2	323	15
2023-09-07T00:00	15345	124	-65.5	-83.1	324	15
2023-09-07T00:00	15366	124	-65.6	-83.2	325	16
2023-09-07T00:00	15388	123	-65.7	-83.2	327	16
2023-09-07T00:00	15409	123	-65.9	-83.2	328	16
2023-09-07T00:00	15427	122	-65.9	-83.2	329	17
2023-09-07T00:00	15448	122	-66.0	-83.2	331	17
2023-09-07T00:00	15469	122	-66.0	-83.2	332	17
2023-09-07T00:00	15491	121	-66.1	-83.2	333	17
2023-09-07T00:00	15513	121	-66.2	-83.4	335	17
2023-09-07T00:00	15532	120	-66.2	-83.5	335	16
2023-09-07T00:00	15553	120	-66.0	-83.4	336	15
2023-09-07T00:00	15577	119	-65.8	-83.5	336	13
2023-09-07T00:00	15610	119	-65.6	-83.5	335	12
2023-09-07T00:00	15633	118	-65.4	-83.5	334	11
2023-09-07T00:00	15655	118	-65.4	-83.6	332	10
2023-09-07T00:00	15680	117	-65.5	-83.8	330	10
2023-09-07T00:00	15701	117	-65.6	-83.8	327	9
2023-09-07T00:00	15721	117	-65.7	-83.8	324	9
2023-09-07T00:00	15739	116	-65.8	-83.8	321	8
2023-09-07T00:00	15760	116	-65.9	-83.9	319	8
2023-09-07T00:00	15779	115	-65.9	-83.9	317	8
2023-09-07T00:00	15798	115	-65.8	-83.9	316	8
2023-09-07T00:00	15820	115	-65.7	-83.9	314	8
2023-09-07T00:00	15839	114	-65.6	-83.9	313	9
2023-09-07T00:00	15859	114	-65.3	-83.9	311	9
2023-09-07T00:00	15881	114	-65.2	-83.9	311	10
2023-09-07T00:00	15899	113	-65.1	-83.9	310	11
2023-09-07T00:00	15919	113	-64.8	-83.8	311	11
2023-09-07T00:00	15940	112	-64.7	-83.8	313	12
2023-09-07T00:00	15960	112	-64.8	-84.0	316	11
2023-09-07T00:00	15980	112	-64.8	-84.2	321	11
2023-09-07T00:00	16003	111	-64.6	-84.2	326	11
2023-09-07T00:00	16027	111	-64.4	-84.3	331	10
2023-09-07T00:00	16047	111	-64.0	-84.1	334	10
2023-09-07T00:00	16069	110	-63.9	-84.2	335	9
2023-09-07T00:00	16089	110	-64.0	-84.4	334	9
2023-09-07T00:00	16113	109	-64.0	-84.5	330	8
2023-09-07T00:00	16134	109	-64.1	-84.6	326	8
2023-09-07T00:00	16158	109	-64.1	-84.5	321	7
2023-09-07T00:00	16178	108	-64.3	-84.6	317	7
2023-09-07T00:00	16201	108	-64.4	-84.6	313	7
2023-09-07T00:00	16222	107	-64.6	-84.7	311	8
2023-09-07T00:00	16244	107	-64.8	-84.9	310	8
2023-09-07T00:00	16268	107	-64.9	-85.0	310	8
2023-09-07T00:00	16287	106	-64.9	-85.0	311	9
2023-09-07T00:00	16309	106	-64.5	-84.8	314	9
2023-09-07T00:00	16329	106	-64.4	-84.7	317	9
2023-09-07T00:00	16351	105	-64.3	-84.8	321	9
2023-09-07T00:00	16369	105	-64.1	-84.8	324	9
2023-09-07T00:00	16391	104	-64.1	-84.9	328	9
2023-09-07T00:00	16411	104	-63.9	-84.7	331	9
2023-09-07T00:00	16432	104	-63.9	-84.9	334	9
2023-09-07T00:00	16450	103	-63.9	-85.0	336	9
2023-09-07T00:00	16472	103	-63.9	-85.0	337	8
2023-09-07T00:00	16491	103	-63.5	-84.9	336	8
2023-09-07T00:00	16514	102	-63.4	-85.0	334	7
2023-09-07T00:00	16533	102	-63.2	-85.0	330	6
2023-09-07T00:00	16553	102	-63.0	-84.8	325	6
2023-09-07T00:00	16576	101	-63.1	-84.9	319	5
2023-09-07T00:00	16596	101	-63.1	-84.9	314	5
2023-09-07T00:00	16616	101	-63.1	-84.9	309	4
2023-09-07T00:00	16635	100	-63.0	-85.0	305	4
2023-09-07T00:00	16657	100	-62.7	-84.7	301	4
2023-09-07T00:00	16677	100	-62.4	-84.7	297	3
2023-09-07T00:00	16697	99	-62.5	-84.8	294	3
2023-09-07T00:00	16718	99	-62.6	-84.8	294	3
2023-09-07T00:00	16739	99	-62.7	-85.1	298	2
2023-09-07T00:00	16762	98	-62.7	-85.1	306	2
2023-09-07T00:00	16781	98	-62.6	-85.0	314	2
2023-09-07T00:00	16801	98	-62.7	-85.1	318	2
2023-09-07T00:00	16824	97	-62.6	-85.0	318	2
2023-09-07T00:00	16841	97	-62.7	-85.1	315	2
2023-09-07T00:00	16861	97	-62.7	-85.1	310	3
2023-09-07T00:00	16882	96	-62.6	-85.0	304	3
2023-09-07T00:00	16901	96	-62.6	-85.0	297	3
2023-09-07T00:00	16922	96	-62.7	-85.1	289	3
2023-09-07T00:00	16943	96	-62.9	-85.3	282	3
2023-09-07T00:00	16962	95	-63.0	-85.3	275	4
2023-09-07T00:00	16985	95	-63.0	-85.3	271	5
2023-09-07T00:00	17006	95	-63.1	-85.2	268	5
2023-09-07T00:00	17025	94	-63.2	-85.5	268	5
2023-09-07T00:00	17045	94	-63.1	-85.4	271	6
2023-09-07T00:00	17068	94	-63.1	-85.4	276	6
2023-09-07T00:00	17088	93	-63.2	-85.5	282	6
2023-09-07T00:00	17106	93	-63.2	-85.5	289	6
2023-09-07T00:00	17128	93	-63.2	-85.5	295	6
2023-09-07T00:00	17148	92	-63.2	-85.5	301	6
2023-09-07T00:00	17168	92	-63.3	-85.6	305	6
2023-09-07T00:00	17190	92	-63.3	-85.6	309	6
2023-09-07T00:00	17211	91	-63.4	-85.7	311	6
2023-09-07T00:00	17232	91	-63.4	-85.9	313	7
2023-09-07T00:00	17251	91	-63.4	-85.9	314	7
2023-09-07T00:00	17271	91	-63.1	-85.8	314	7
2023-09-07T00:00	17294	90	-63.0	-85.7	314	7
2023-09-07T00:00	17313	90	-63.0	-85.9	313	8
2023-09-07T00:00	17334	90	-63.0	-85.9	312	8
2023-09-07T00:00	17354	89	-63.0	-86.1	312	8
2023-09-07T00:00	17377	89	-62.9	-86.3	314	8
2023-09-07T00:00	17397	89	-62.7	-86.1	316	8
2023-09-07T00:00	17417	88	-62.5	-86.2	319	7
2023-09-07T00:00	17439	88	-62.3	-86.3	322	7
2023-09-07T00:00	17462	88	-62.3	-86.3	324	7
2023-09-07T00:00	17482	88	-62.2	-86.4	325	7
2023-09-07T00:00	17504	87	-61.8	-86.1	325	7
2023-09-07T00:00	17524	87	-61.8	-86.1	325	7
2023-09-07T00:00	17545	87	-61.8	-86.1	325	7
2023-09-07T00:00	17566	86	-61.9	-86.2	325	7
2023-09-07T00:00	17588	86	-61.9	-86.2	326	6
2023-09-07T00:00	17608	86	-61.9	-86.2	328	5
2023-09-07T00:00	17630	85	-61.9	-86.2	331	5
2023-09-07T00:00	17652	85	-62.0	-86.3	335	4
2023-09-07T00:00	17675	85	-61.9	-86.2	339	4
2023-09-07T00:00	17694	85	-61.7	-86.0	343	3
2023-09-07T00:00	17716	84	-61.7	-86.3	346	3
2023-09-07T00:00	17734	84	-61.6	-86.2	346	2
2023-09-07T00:00	17758	84	-61.6	-86.2	345	2
2023-09-07T00:00	17779	83	-61.5	-86.4	342	2
2023-09-07T00:00	17797	83	-61.5	-86.4	339	2
2023-09-07T00:00	17823	83	-61.4	-86.3	338	2
2023-09-07T00:00	17843	83	-61.5	-86.4	340	2
2023-09-07T00:00	17861	82	-61.5	-86.4	341	2
2023-09-07T00:00	17884	82	-61.6	-86.5	342	2
2023-09-07T00:00	17902	82	-61.7	-86.5	339	2
2023-09-07T00:00	17925	81	-61.8	-86.6	331	2
2023-09-07T00:00	17942	81	-61.8	-86.6	319	2
2023-09-07T00:00	17964	81	-61.7	-86.5	308	2
2023-09-07T00:00	17984	81	-61.5	-86.7	300	3
2023-09-07T00:00	18007	80	-61.5	-86.7	297	3
2023-09-07T00:00	18028	80	-61.6	-87.0	298	4
2023-09-07T00:00	18047	80	-61.4	-86.9	303	4
2023-09-07T00:00	18068	80	-60.8		309	5
2023-09-07T00:00	18088	79	-60.4		316	5
2023-09-07T00:00	18110	79	-60.2	-86.6	324	5
2023-09-07T00:00	18129	79	-59.9	-86.3	332	6
2023-09-07T00:00	18156	78	-60.0	-86.4	339	6
2023-09-07T00:00	18179	78	-60.0	-86.4	346	7
2023-09-07T00:00	18201	78	-59.9	-86.3	350	8
2023-09-07T00:00	18222	78	-59.8	-86.3	353	8
2023-09-07T00:00	18241	77	-59.7	-86.2	356	9
2023-09-07T00:00	18263	77	-59.5	-86.4	357	9
2023-09-07T00:00	18283	77	-59.3	-86.2	358	9
2023-09-07T00:00	18304	77	-59.3	-86.2	358	8
2023-09-07T00:00	18329	76	-59.3	-86.2	355	8
2023-09-07T00:00	18348	76	-59.2	-86.2	351	8
2023-09-07T00:00	18374	76	-59.1		345	7
2023-09-07T00:00	18397	76	-59.3	-86.2	338	7
2023-09-07T00:00	18419	75	-59.4	-86.0	330	6
2023-09-07T00:00	18442	75	-59.5	-86.0	323	6
2023-09-07T00:00	18463	75	-59.7	-86.2	318	6
2023-09-07T00:00	18484	74	-59.8	-86.3	316	6
2023-09-07T00:00	18504	74	-59.8	-86.3	318	5
2023-09-07T00:00	18525	74	-59.9	-86.3	324	5
2023-09-07T00:00	18547	74	-59.6	-86.5	331	5
2023-09-07T00:00	18570	73	-59.4	-86.3	339	5
2023-09-07T00:00	18592	73	-59.3	-86.2	345	5
2023-09-07T00:00	18611	73	-59.2	-86.2	351	5
2023-09-07T00:00	18634	73	-59.3	-86.2	357	5
2023-09-07T00:00	18658	72	-59.5	-86.4	2	5
2023-09-07T00:00	18678	72	-59.4	-86.3	7	6
2023-09-07T00:00	18699	72	-59.4	-86.3	11	6
2023-09-07T00:00	18723	72	-59.4	-86.3	15	6
2023-09-07T00:00	18744	71	-59.5	-86.4	18	5
2023-09-07T00:00	18764	71	-59.5	-86.4	22	5
2023-09-07T00:00	18790	71	-59.5	-86.4	27	5
2023-09-07T00:00	18811	71	-59.6	-86.5	32	4
2023-09-07T00:00	18835	70	-59.6	-86.5	37	4
2023-09-07T00:00	18855	70	-59.3	-86.2	40	3
2023-09-07T00:00	18876	70	-59.0	-86.4	41	3
2023-09-07T00:00	18901	70	-59.1	-86.5	40	2
2023-09-07T00:00	18924	69	-59.1		38	2
2023-09-07T00:00	18942	69	-59.2	-86.2	34	2
2023-09-07T00:00	18968	69	-59.3	-86.2	30	2
2023-09-07T00:00	18988	69	-59.3	-86.2	26	2
2023-09-07T00:00	19007	68	-59.2	-86.2	22	2
2023-09-07T00:00	19030	68	-59.1		20	3
2023-09-07T00:00	19050	68	-59.2	-86.2	18	3
2023-09-07T00:00	19071	68	-59.4	-86.3	18	3
2023-09-07T00:00	19093	68	-59.5	-86.4	20	3
2023-09-07T00:00	19115	67	-59.6	-86.5	24	3
2023-09-07T00:00	19137	67	-59.4	-86.3	29	3
2023-09-07T00:00	19158	67	-59.3	-86.6	33	3
2023-09-07T00:00	19178	67	-59.3	-86.6	36	3
2023-09-07T00:00	19204	66	-59.1	-86.5	35	3
2023-09-07T00:00	19223	66	-59.1	-86.5	30	3
2023-09-07T00:00	19246	66	-59.1	-86.5	21	3
2023-09-07T00:00	19269	66	-58.8	-86.2	11	3
2023-09-07T00:00	19290	65	-58.9	-86.3	2	3
2023-09-07T00:00	19312	65	-58.8	-86.2	354	3
2023-09-07T00:00	19334	65	-58.8	-86.2	348	3
2023-09-07T00:00	19354	65	-58.9	-86.3	345	3
2023-09-07T00:00	19375	65	-58.9	-86.3	342	3
2023-09-07T00:00	19399	64	-58.9	-86.3	340	3
2023-09-07T00:00	19421	64	-58.8	-86.2	340	2
2023-09-07T00:00	19441	64	-58.4	-86.3	342	2
2023-09-07T00:00	19461	64	-58.1		347	2
2023-09-07T00:00	19485	63	-57.9		354	1
2023-09-07T00:00	19508	63	-58.0	-86.0	4	1
2023-09-07T00:00	19536	63	-58.0	-86.0	12	2
2023-09-07T00:00	19557	63	-58.0	-86.0	17	2
2023-09-07T00:00	19581	63	-58.0	-85.6	19	2
2023-09-07T00:00	19603	62	-58.2	-85.8	18	3
2023-09-07T00:00	19626	62	-58.4	-85.9	15	3
2023-09-07T00:00	19649	62	-58.5	-86.0	9	3
2023-09-07T00:00	19669	62	-58.1	-85.7	1	3
2023-09-07T00:00	19692	61	-58.2	-85.8	352	3
2023-09-07T00:00	19714	61	-58.2	-85.8	344	3
2023-09-07T00:00	19740	61	-58.3	-85.8	336	3
2023-09-07T00:00	19764	61	-58.5	-86.0	328	4
2023-09-07T00:00	19786	61	-58.6	-86.1	321	4
2023-09-07T00:00	19809	60	-58.8	-85.9	316	5
2023-09-07T00:00	19835	60	-59.0	-86.0	313	5
2023-09-07T00:00	19857	60	-59.2	-86.2	312	6
2023-09-07T00:00	19880	60	-59.3	-86.2	312	7
2023-09-07T00:00	19899	59	-59.2	-86.2	313	7
2023-09-07T00:00	19925	59	-59.0	-86.4	315	8
2023-09-07T00:00	19947	59	-58.9	-86.3	318	8
2023-09-07T00:00	19970	59	-59.1	-86.5	321	8
2023-09-07T00:00	19995	59	-59.2	-86.5	326	8
2023-09-07T00:00	20015	58	-59.3	-86.6	331	8
2023-09-07T00:00	20041	58	-58.7	-86.5	336	8
2023-09-07T00:00	20063	58	-58.6	-86.5	341	8
2023-09-07T00:00	20086	58	-58.6	-86.5	346	8
2023-09-07T00:00	20110	57	-58.7	-86.5	352	7
2023-09-07T00:00	20133	57	-58.8	-86.6	359	7
2023-09-07T00:00	20158	57	-58.8	-86.6	5	6
2023-09-07T00:00	20181	57	-58.7	-86.5	11	6
2023-09-07T00:00	20201	57	-58.6	-86.5	15	6
2023-09-07T00:00	20223	56	-58.5	-86.4	18	6
2023-09-07T00:00	20246	56	-58.3	-86.2	19	6
2023-09-07T00:00	20266	56	-58.3	-86.2	19	6
2023-09-07T00:00	20290	56	-58.3	-86.2	19	6
2023-09-07T00:00	20311	56	-58.4	-86.3	18	6
2023-09-07T00:00	20335	55	-58.1		18	6
2023-09-07T00:00	20359	55	-58.2	-86.2	17	6
2023-09-07T00:00	20381	55	-58.2	-86.2	17	6
2023-09-07T00:00	20402	55	-58.3	-86.2	17	6
2023-09-07T00:00	20425	55	-58.2	-86.2	16	7
2023-09-07T00:00	20446	54	-58.1		16	7
2023-09-07T00:00	20474	54	-58.0	-86.4	16	7
2023-09-07T00:00	20494	54	-58.0	-86.4	16	7
2023-09-07T00:00	20515	54	-57.9	-86.4	16	7
2023-09-07T00:00	20538	54	-57.9	-86.4	16	6
2023-09-07T00:00	20562	53	-57.5	-86.1	16	5
2023-09-07T00:00	20583	53	-57.0	-85.7	14	5
2023-09-07T00:00	20607	53	-57.0	-85.7	9	4
2023-09-07T00:00	20631	53	-57.1	-85.7	0	4
2023-09-07T00:00	20655	53	-57.2	-85.8	348	3
2023-09-07T00:00	20675	53	-57.3	-85.9	338	3
2023-09-07T00:00	20696	52	-57.3	-85.9	332	4
2023-09-07T00:00	20723	52	-57.2	-85.8	333	4
2023-09-07T00:00	20741	52	-57.2	-85.8	337	5
2023-09-07T00:00	20767	52	-57.2	-85.8	343	5
2023-09-07T00:00	20792	52	-57.3	-85.9	351	6
2023-09-07T00:00	20818	51	-57.3	-85.9	358	6
2023-09-07T00:00	20839	51	-57.1	-85.7	4	7
2023-09-07T00:00	20859	51	-57.1	-85.7	10	7
2023-09-07T00:00	20883	51	-57.2	-85.8	15	7
2023-09-07T00:00	20907	51	-56.9	-86.1	19	7
2023-09-07T00:00	20930	50	-56.7	-85.9	21	7
2023-09-07T00:00	20953	50	-56.5	-85.8	22	7
2023-09-07T00:00	20974	50	-56.6	-85.8	22	7
2023-09-07T00:00	20998	50	-56.4	-85.7	22	6
2023-09-07T00:00	21025	50	-56.4	-85.7	24	6
2023-09-07T00:00	21047	50	-56.2	-85.5	28	5
2023-09-07T00:00	21069	49	-56.2	-85.5	34	4
2023-09-07T00:00	21089	49	-56.2	-85.5	42	4
2023-09-07T00:00	21113	49	-56.2	-85.5	50	3
2023-09-07T00:00	21137	49	-56.3	-85.6	59	3
2023-09-07T00:00	21163	49	-56.4	-85.7	67	3
2023-09-07T00:00	21181	48	-56.4	-85.7	74	3
2023-09-07T00:00	21210	48	-56.4	-85.2	78	3
2023-09-07T00:00	21233	48	-56.6	-85.4	81	3
2023-09-07T00:00	21258	48	-56.8	-85.5	82	3
2023-09-07T00:00	21279	48	-56.9	-85.6	81	3
2023-09-07T00:00	21305	48	-57.0	-85.7	80	2
2023-09-07T00:00	21328	47	-57.1	-85.7	78	2
2023-09-07T00:00	21352	47	-57.2	-85.8	76	2
2023-09-07T00:00	21374	47	-57.2	-85.8	76	2
2023-09-07T00:00	21402	47	-57.3	-85.9	77	2
2023-09-07T00:00	21425	47	-57.4	-85.6	80	2
2023-09-07T00:00	21450	47	-57.5	-85.6	86	2
2023-09-07T00:00	21472	46	-57.5	-85.6	96	2
2023-09-07T00:00	21502	46	-57.7	-85.8	108	2
2023-09-07T00:00	21524	46	-57.8	-85.9	122	2
2023-09-07T00:00	21547	46	-58.0	-86.0	138	2
2023-09-07T00:00	21570	46	-58.0	-86.0	155	2
2023-09-07T00:00	21594	45	-57.9		176	1
2023-09-07T00:00	21615	45	-57.9		202	1
2023-09-07T00:00	21638	45	-57.9		234	1
2023-09-07T00:00	21665	45	-58.0	-86.4	264	2
2023-09-07T00:00	21686	45	-58.1	-86.5	285	2
2023-09-07T00:00	21708	45	-58.1	-86.5	300	3
2023-09-07T00:00	21730	44	-57.4	-86.4	312	3
2023-09-07T00:00	21756	44	-57.0	-86.1	320	4
2023-09-07T00:00	21777	44	-56.9	-86.1	327	4
2023-09-07T00:00	21804	44	-56.7	-85.9	332	4
2023-09-07T00:00	21826	44	-56.5	-85.8	335	3
2023-09-07T00:00	21846	44	-56.3	-85.6	335	3
2023-09-07T00:00	21870	44	-56.3	-85.6	331	2
2023-09-07T00:00	21891	43	-56.2	-85.5	321	2
2023-09-07T00:00	21914	43	-56.2	-85.5	304	2
2023-09-07T00:00	21943	43	-56.2	-85.5	288	2
2023-09-07T00:00	21964	43	-56.2	-85.5	286	2
2023-09-07T00:00	21992	43	-56.3	-85.6	295	2
2023-09-07T00:00	22011	43	-56.3	-85.6	308	2
2023-09-07T00:00	22038	42	-55.9	-85.3	321	3
2023-09-07T00:00	22062	42	-55.9	-85.3	331	3
2023-09-07T00:00	22088	42	-55.9	-85.3	340	4
2023-09-07T00:00	22107	42	-55.9	-85.3	349	4
2023-09-07T00:00	22134	42	-55.8	-85.2	358	4
2023-09-07T00:00	22159	42	-55.7	-85.2	7	4
2023-09-07T00:00	22184	41	-55.7	-85.2	17	4
2023-09-07T00:00	22205	41	-55.7	-85.2	27	3
2023-09-07T00:00	22229	41	-55.8	-85.2	39	3
2023-09-07T00:00	22260	41	-55.8	-85.2	53	3
2023-09-07T00:00	22283	41	-55.7	-85.2	70	2
2023-09-07T00:00	22306	41	-55.7	-85.2	90	2
2023-09-07T00:00	22327	40	-55.7	-85.2	113	2
2023-09-07T00:00	22358	40	-55.9	-85.3	136	2
2023-09-07T00:00	22382	40	-55.9	-85.3	156	2
2023-09-07T00:00	22398	40	-55.9	-85.3	173	2
2023-09-07T00:00	22426	40	-56.0		186	2
2023-09-07T00:00	22451	40	-56.1	-85.5	199	2
2023-09-07T00:00	22478	40	-56.0		210	2
2023-09-07T00:00	22500	39	-56.1	-85.5	221	2
2023-09-07T00:00	22531	39	-56.0		231	2
2023-09-07T00:00	22547	39	-56.1	-85.5	241	2
2023-09-07T00:00	22576	39	-56.3	-85.6	254	2
2023-09-07T00:00	22600	39	-56.3	-85.6	270	2
2023-09-07T00:00	22624	39	-56.5	-85.8	287	2
2023-09-07T00:00	22649	39	-56.7	-85.4	301	3
2023-09-07T00:00	22672	38	-56.7	-85.4	310	3
2023-09-07T00:00	22695	38	-56.8	-85.5	316	3
2023-09-07T00:00	22722	38	-56.7	-85.4	321	3
2023-09-07T00:00	22742	38	-56.8	-86.0	328	3
2023-09-07T00:00	22765	38	-56.6	-85.8	338	2
2023-09-07T00:00	22788	38	-56.6	-85.8	355	2
2023-09-07T00:00	22815	38	-56.6	-85.8	17	2
2023-09-07T00:00	22835	37	-56.7	-85.9	38	2
2023-09-07T00:00	22861	37	-56.8	-85.5	49	2
2023-09-07T00:00	22883	37	-56.9	-85.6	50	2
2023-09-07T00:00	22907	37	-57.0	-85.7	41	2
2023-09-07T00:00	22929	37	-57.1	-85.7	24	2
2023-09-07T00:00	22955	37	-57.0	-85.7	7	2
2023-09-07T00:00	22976	37	-57.0	-86.1	355	3
2023-09-07T00:00	23003	36	-57.0	-86.1	349	4
2023-09-07T00:00	23028	36	-57.0	-86.1	347	5
2023-09-07T00:00	23046	36	-57.1	-86.2	348	5
2023-09-07T00:00	23074	36	-57.2	-86.3	351	6
2023-09-07T00:00	23091	36	-57.1	-86.2	356	6
2023-09-07T00:00	23122	36	-56.6	-86.3	2	6
2023-09-07T00:00	23142	36	-56.1	-86.0	9	6
2023-09-07T00:00	23170	35	-55.9	-85.8	17	6
2023-09-07T00:00	23188	35	-55.8	-85.7	23	5
2023-09-07T00:00	23214	35	-55.8	-85.7	28	5
2023-09-07T00:00	23242	35	-55.7	-85.7	29	5
2023-09-07T00:00	23265	35	-55.4	-85.4	26	5
2023-09-07T00:00	23290	35	-55.3	-85.4	22	6
2023-09-07T00:00	23317	35	-55.1	-85.8	19	6
2023-09-07T00:00	23341	35	-55.1	-85.8	18	7
2023-09-07T00:00	23366	34	-54.8	-85.5	19	7
2023-09-07T00:00	23386	34	-54.5	-85.3	22	7
2023-09-07T00:00	23413	34	-54.2	-85.1	27	7
2023-09-07T00:00	23433	34	-54.2	-85.1	33	7
2023-09-07T00:00	23462	34	-54.1	-85.0	40	6
2023-09-07T00:00	23486	34	-54.1	-85.0	47	6
2023-09-07T00:00	23509	34	-53.9	-84.9	53	6
2023-09-07T00:00	23535	33	-53.8	-84.8	58	5
2023-09-07T00:00	23562	33	-53.8	-84.8	62	5
2023-09-07T00:00	23587	33	-53.7	-84.7	67	4
2023-09-07T00:00	23613	33	-53.8	-84.8	72	3
2023-09-07T00:00	23643	33	-53.6	-84.6	82	2
2023-09-07T00:00	23670	33	-53.6	-84.6	104	2
2023-09-07T00:00	23697	33	-53.5	-84.6	141	1
2023-09-07T00:00	23724	33	-53.8	-84.8	172	1
2023-09-07T00:00	23753	32	-53.9	-84.3	190	2
2023-09-07T00:00	23778	32	-53.9	-84.3	200	2
2023-09-07T00:00	23805	32	-54.1	-84.5	207	2
2023-09-07T00:00	23831	32	-54.2	-84.5	213	2
2023-09-07T00:00	23861	32	-54.5	-84.8	219	3
2023-09-07T00:00	23880	32	-54.7	-84.4	224	3
2023-09-07T00:00	23909	32	-55.0	-84.6	230	4
2023-09-07T00:00	23943	31	-55.2	-84.8	235	4
2023-09-07T00:00	23967	31	-55.4	-84.9	240	4
2023-09-07T00:00	23987	31	-55.5	-85.0	243	4
2023-09-07T00:00	24013	31	-55.6	-85.6	244	4
2023-09-07T00:00	24039	31	-55.3	-85.4	244	4
2023-09-07T00:00	24069	31	-55.2	-85.3	243	3
2023-09-07T00:00	24087	31	-55.2	-85.3	243	3
2023-09-07T00:00	24115	31	-55.1	-85.2	243	3
2023-09-07T00:00	24143	30	-55.2	-85.3	246	2
2023-09-07T00:00	24163	30	-55.3	-85.4	253	2
2023-09-07T00:00	24190	30	-55.4	-85.4	263	1
2023-09-07T00:00	24216	30	-55.6	-85.6	279	1
2023-09-07T00:00	24235	30	-55.6	-85.1	302	1
2023-09-07T00:00	24261	30	-55.7	-85.2	337	1
2023-09-07T00:00	24291	30	-55.9	-85.3	20	1
2023-09-07T00:00	24310	30	-56.1	-85.5	51	1
2023-09-07T00:00	24346	30	-56.2	-85.5	68	1
2023-09-07T00:00	24365	29	-56.3	-85.6	77	2
2023-09-07T00:00	24389	29	-56.4	-85.7	82	2
2023-09-07T00:00	24415	29	-56.5	-85.8	87	3
2023-09-07T00:00	24447	29	-56.6	-85.8	92	3
2023-09-07T00:00	24471	29	-56.6	-85.8	102	2
2023-09-07T00:00	24494	29	-56.6	-86.3	116	2
2023-09-07T00:00	24522	29	-56.7	-86.4	132	2
2023-09-07T00:00	24544	29	-56.1	-86.5	141	3
2023-09-07T00:00	24566	29	-55.2	-85.8	145	3
2023-09-07T00:00	24593	28	-54.9	-85.6	146	4
2023-09-07T00:00	24613	28	-54.7	-85.5	146	5
2023-09-07T00:00	24637	28	-54.7	-85.5	147	5
2023-09-07T00:00	24660	28	-54.7	-85.5	149	6
2023-09-07T00:00	24680	28	-54.8	-85.5	152	5
2023-09-07T00:00	24706	28	-54.7	-85.5	154	5
2023-09-07T00:00	24735	28	-54.6	-85.4	157	4
2023-09-07T00:00	24754	28	-54.3	-85.2	160	3
2023-09-07T00:00	24780	28	-54.4	-85.2	163	2
2023-09-07T00:00	24805	27	-54.3	-85.2	171	2
2023-09-07T00:00	24832	27	-54.2	-85.1	183	2
2023-09-07T00:00	24853	27	-54.3	-85.2	200	2
2023-09-07T00:00	24878	27	-54.4	-85.2	214	2
2023-09-07T00:00	24899	27	-54.4	-85.2	225	2
2023-09-07T00:00	24925	27	-54.3	-85.2	231	3
2023-09-07T00:00	24952	27	-54.3	-85.2	234	3
2023-09-07T00:00	24977	27	-54.2	-85.1	237	4
2023-09-07T00:00	25002	27	-54.2	-85.1	239	4
2023-09-07T00:00	25025	27	-54.3	-85.2	242	4
2023-09-07T00:00	25053	26	-54.5	-84.8	247	4
2023-09-07T00:00	25080	26	-54.7	-84.9	253	4
2023-09-07T00:00	25104	26	-54.7	-84.9	263	3
2023-09-07T00:00	25129	26	-54.7	-84.9	275	3
2023-09-07T00:00	25152	26	-54.9	-85.1	288	3
2023-09-07T00:00	25176	26	-55.1	-85.2	298	3
2023-09-07T00:00	25202	26	-55.2	-85.3	305	3
2023-09-07T00:00	25230	26	-55.4	-85.4	306	3
2023-09-07T00:00	25255	26	-55.2	-85.3	303	3
2023-09-07T00:00	25285	25	-55.0	-85.1	296	3
2023-09-07T00:00	25301	25	-54.9	-85.1	286	2
2023-09-07T00:00	25333	25	-54.9	-85.6	275	2
2023-09-07T00:00	25349	25	-54.9	-85.6	265	3
2023-09-07T00:00	25380	25	-55.1	-85.2	258	3
2023-09-07T00:00	25403	25	-55.1	-85.2	251	3
2023-09-07T00:00	25429	25	-55.1	-85.2	246	3
2023-09-07T00:00	25459	25	-55.3	-85.4	240	3
2023-09-07T00:00	25485	25	-55.4	-85.4	235	4
2023-09-07T00:00	25503	25	-55.3	-85.9	231	4
2023-09-07T00:00	25536	25	-54.9	-85.6	230	5
2023-09-07T00:00	25557	24	-54.6	-85.4	232	6
2023-09-07T00:00	25577	24	-54.6	-85.4	235	6
2023-09-07T00:00	25598	24	-54.7	-85.5	241	6
2023-09-07T00:00	25627	24	-54.5	-85.3	249	7
2023-09-07T00:00	25652	24	-54.3	-85.2	257	7
2023-09-07T00:00	25684	24	-54.0	-85.5	265	7
2023-09-07T00:00	25703	24	-54.0	-85.5	271	7
2023-09-07T00:00	25739	24	-54.0	-85.5	275	7
2023-09-07T00:00	25755	24	-53.9	-85.5	278	7
2023-09-07T00:00	25782	24	-53.5	-85.2	282	7
2023-09-07T00:00	25807	23	-53.3	-85.0	285	6
2023-09-07T00:00	25828	23	-53.0	-84.8	291	6
2023-09-07T00:00	25858	23	-52.8	-84.7	298	5
2023-09-07T00:00	25887	23	-52.7	-84.6	308	5
2023-09-07T00:00	25905	23	-52.7	-84.6	319	4
2023-09-07T00:00	25936	23	-52.6	-84.5	330	4
2023-09-07T00:00	25957	23	-52.7	-84.6	341	4
2023-09-07T00:00	25981	23	-52.7	-84.6	348	3
2023-09-07T00:00	26009	23	-52.5	-84.4	353	3
2023-09-07T00:00	26031	23	-52.3	-84.3	353	3
2023-09-07T00:00	26056	23	-52.1	-84.2	350	3
2023-09-07T00:00	26080	23	-52.0	-84.1	346	3
2023-09-07T00:00	26113	22	-52.0	-84.1	342	3
2023-09-07T00:00	26134	22	-51.9	-84.0	338	3
2023-09-07T00:00	26162	22	-52.0	-84.1	334	3
2023-09-07T00:00	26187	22	-52.1	-84.2	329	3
2023-09-07T00:00	26212	22	-52.0	-84.1	323	4
2023-09-07T00:00	26240	22	-51.8	-83.9	317	4
2023-09-07T00:00	26263	22	-51.7	-84.5	312	5
2023-09-07T00:00	26284	22	-51.2	-84.2	308	6
2023-09-07T00:00	26308	22	-50.9	-84.0	304	6
2023-09-07T00:00	26333	22	-50.9	-84.0	300	7
2023-09-07T00:00	26360	22	-51.1	-84.1	297	7
2023-09-07T00:00	26390	21	-51.2	-84.2	293	8
2023-09-07T00:00	26410	21	-51.4	-83.6	290	9
2023-09-07T00:00	26439	21	-51.4	-83.6	289	9
2023-09-07T00:00	26460	21	-51.1	-83.4	289	10
2023-09-07T00:00	26490	21	-51.0	-84.0	290	10
2023-09-07T00:00	26515	21	-51.1	-84.1	292	10
2023-09-07T00:00	26548	21	-50.9	-84.0	296	9
2023-09-07T00:00	26570	21	-50.5	-83.7	300	9
2023-09-07T00:00	26596	21	-50.2	-83.5	305	8
2023-09-07T00:00	26624	21	-50.1	-83.4	309	8
2023-09-07T00:00	26643	21	-50.2	-83.5	313	8
2023-09-07T00:00	26671	21	-50.3	-83.5	317	7
2023-09-07T00:00	26697	20	-50.3	-83.5	320	7
2023-09-07T00:00	26723	20	-50.5	-83.7	324	7
2023-09-07T00:00	26754	20	-50.6	-83.7	326	7
2023-09-07T00:00	26774	20	-50.8	-83.9	328	7
2023-09-07T00:00	26795	20	-50.6	-83.7	329	7
2023-09-07T00:00	26814	20	-50.5	-83.7	330	7
2023-09-07T00:00	26849	20	-50.2	-83.5	332	6
2023-09-07T00:00	26867	20	-49.7	-83.1	335	6
2023-09-07T00:00	26898	20	-49.9	-83.2	339	6
2023-09-07T00:00	26925	20	-50.0	-83.3	343	6
2023-09-07T00:00	26947	20	-49.9	-83.2	346	6
2023-09-07T00:00	26969	20	-49.9	-83.2	346	6
2023-09-07T00:00	26995	20	-49.9	-83.2	344	6
2023-09-07T00:00	27015	19	-49.9	-83.2	341	6
2023-09-07T00:00	27058	19	-49.9	-83.2	336	6
2023-09-07T00:00	27078	19	-49.9	-83.2	333	6
2023-09-07T00:00	27101	19	-49.9	-83.2	331	6
2023-09-07T00:00	27129	19	-50.0	-83.3	330	6
2023-09-07T00:00	27159	19	-50.0	-83.3	331	6
2023-09-07T00:00	27180	19	-49.8	-83.2	331	6
2023-09-07T00:00	27211	19	-49.8	-83.2	330	6
2023-09-07T00:00	27227	19	-49.7	-83.1	328	6
2023-09-07T00:00	27255	19	-49.3	-83.6	326	6
2023-09-07T00:00	27278	19	-49.0	-83.4	325	5
2023-09-07T00:00	27309	19	-48.9	-83.3	325	5
2023-09-07T00:00	27329	19	-48.8	-83.2	326	4
2023-09-07T00:00	27357	19	-48.7	-83.2	329	4
2023-09-07T00:00	27374	18	-48.7	-83.2	333	3
2023-09-07T00:00	27408	18	-48.5	-83.0	337	3
2023-09-07T00:00	27437	18	-48.2	-82.8	341	3
2023-09-07T00:00	27454	18	-48.0	-82.7	345	3
2023-09-07T00:00	27487	18	-48.0	-82.7	349	3
2023-09-07T00:00	27505	18	-48.1	-82.7	354	3
2023-09-07T00:00	27536	18	-48.1	-82.7	359	3
2023-09-07T00:00	27554	18	-48.2	-82.8	6	3
2023-09-07T00:00	27573	18	-48.1	-82.7	13	3
2023-09-07T00:00	27603	18	-47.9	-82.6	23	3
2023-09-07T00:00	27632	18	-47.8	-82.5	35	2
2023-09-07T00:00	27661	18	-47.8	-82.5	50	2
2023-09-07T00:00	27683	18	-47.6	-82.4	69	1
2023-09-07T00:00	27710	18	-47.6	-82.4	91	1
2023-09-07T00:00	27739	17	-47.6	-82.4	124	1
2023-09-07T00:00	27757	17	-47.7	-82.4	174	1
2023-09-07T00:00	27770	17	-47.7	-82.4	206	1
2023-09-07T00:00	27809	17	-47.8	-82.5	217	2
2023-09-07T00:00	27826	17	-47.9	-82.6	220	2
2023-09-07T00:00	27852	17	-47.9	-82.6	223	3
2023-09-07T00:00	27875	17	-48.0	-82.7	226	4
2023-09-07T00:00	27902	17	-48.0	-82.7	230	5
2023-09-07T00:00	27933	17	-48.1	-82.7	235	5
2023-09-07T00:00	27951	17	-48.0	-82.7	239	6
2023-09-07T00:00	27985	17	-47.9	-82.6	243	6
2023-09-07T00:00	28011	17	-47.7	-82.4	245	5
2023-09-07T00:00	28029	17	-47.3	-83.1	247	5
2023-09-07T00:00	28050	17	-46.6	-82.6	247	4
2023-09-07T00:00	28079	17	-46.5	-82.5	248	3
2023-09-07T00:00	28109	17	-46.4	-82.4	249	3
2023-09-07T00:00	28138	16	-46.6	-82.6	251	2
2023-09-07T00:00	28160	16	-46.7	-82.6	251	2
2023-09-07T00:00	28193	16	-46.8	-82.7	247	2
2023-09-07T00:00	28227	16	-46.8	-81.8	241	2
2023-09-07T00:00	28246	16	-46.7	-81.7	237	2
2023-09-07T00:00	28272	16	-46.7	-81.7	236	3
2023-09-07T00:00	28301	16	-46.7	-81.7	237	3
2023-09-07T00:00	28325	16	-46.9	-81.9	240	4
2023-09-07T00:00	28353	16	-47.2	-82.1	242	4
2023-09-07T00:00	28382	16	-47.4	-82.2	244	5
2023-09-07T00:00	28412	16	-47.6	-82.4	245	6
2023-09-07T00:00	28425	16	-47.7	-82.4	246	7
2023-09-07T00:00	28463	16	-47.6	-82.4	245	7
2023-09-07T00:00	28492	16	-47.7	-82.4	245	7
2023-09-07T00:00	28519	16	-47.8	-82.5	244	7
2023-09-07T00:00	28558	15	-47.8	-82.5	243	7
2023-09-07T00:00	28576	15	-47.7	-82.4	243	7
2023-09-07T00:00	28603	15	-47.7	-82.4	242	7
2023-09-07T00:00	28625	15	-47.7	-82.4	241	7
2023-09-07T00:00	28660	15	-47.7	-82.4	239	7
2023-09-07T00:00	28694	15	-47.4	-83.1	238	7
2023-09-07T00:00	28721	15	-47.0	-82.9	237	7
2023-09-07T00:00	28750	15	-47.0	-82.9	236	7
2023-09-07T00:00	28774	15	-47.0	-82.9	236	7
2023-09-07T00:00	28797	15	-47.0	-82.9	236	7
2023-09-07T00:00	28826	15	-46.9	-82.8	235	7
2023-09-07T00:00	28847	15	-46.7	-82.6	235	7
2023-09-07T00:00	28871	15	-46.5	-82.5	235	7
2023-09-07T00:00	28907	15	-46.3	-82.4	234	7
2023-09-07T00:00	28922	15	-46.4	-82.4	234	7
2023-09-07T00:00	28955	15	-46.5	-82.5	234	7
2023-09-07T00:00	28976	14	-46.4	-82.4	235	7
2023-09-07T00:00	29003	14	-46.5	-82.5	236	7
2023-09-07T00:00	29036	14	-46.6	-82.6	238	7
2023-09-07T00:00	29055	14	-46.7	-82.6	240	8
2023-09-07T00:00	29071	14	-46.5	-82.5	243	8
2023-09-07T00:00	29097	14	-46.6	-82.6	245	8
2023-09-07T00:00	29120	14	-46.6	-82.6	248	8
2023-09-07T00:00	29149	14	-46.7	-81.7	250	9
2023-09-07T00:00	29163	14	-46.9	-81.9	252	9
2023-09-07T00:00	29200	14	-47.0	-81.9	253	10
2023-09-07T00:00	29227	14	-47.0	-81.9	253	10
2023-09-07T00:00	29239	14	-47.1	-82.0	254	10
2023-09-07T00:00	29260	14	-47.2	-82.1	255	11
2023-09-07T00:00	29286	14	-47.3	-82.2	257	11
2023-09-07T00:00	29311	14	-47.3	-82.2	260	11
2023-09-07T00:00	29329	14	-47.3	-82.2	263	12
2023-09-07T00:00	29343	14	-47.2	-82.1	266	12
2023-09-07T00:00	29379	14	-47.0	-82.9	270	12
2023-09-07T00:00	29401	14	-47.0	-82.9	274	12
2023-09-07T00:00	29415	14	-47.0	-82.9	277	12
2023-09-07T00:00	29456	14	-46.8	-82.7	280	12
2023-09-07T00:00	29468	13	-46.7	-82.6	282	12
2023-09-07T00:00	29496	13	-46.6	-82.6	283	11
2023-09-07T00:00	29524	13	-46.4	-82.4	282	11
2023-09-07T00:00	29531	13	-46.4	-82.4	281	10
2023-09-07T00:00	29563	13	-46.3	-82.4	278	10
2023-09-07T00:00	29592	13	-46.2	-82.3	276	9
2023-09-07T00:00	29611	13	-46.3	-82.4	275	9
2023-09-07T00:00	29640	13	-46.2	-82.3	274	9
2023-09-07T00:00	29668	13	-46.0	-82.1	274	9
2023-09-07T00:00	29697	13	-46.0	-82.1	275	9
2023-09-07T00:00	29709	13	-46.2	-82.3	275	9
2023-09-07T00:00	29729	13	-46.3	-82.4	274	9
2023-09-07T00:00	29774	13	-46.3	-82.4	273	8
2023-09-07T00:00	29800	13	-46.0	-82.1	271	8
2023-09-07T00:00	29821	13	-46.0	-82.1	271	8
2023-09-07T00:00	29826	13	-45.7	-81.9	271	9
2023-09-07T00:00	29867	13	-45.5	-81.8	272	9
2023-09-07T00:00	29881	13	-45.5	-81.8	274	10
2023-09-07T00:00	29921	13	-45.7	-81.9	275	11
2023-09-07T00:00	29939	13	-45.8	-82.0	277	12
2023-09-07T00:00	29972	12	-45.8	-82.0	279	13
2023-09-07T00:00	29999	12	-45.6	-81.9	280	13
2023-09-07T00:00	30019	12	-45.4	-81.7	282	13
2023-09-07T00:00	30055	12	-45.1	-81.5	284	13
2023-09-07T00:00	30093	12	-45.0	-81.4	287	13
2023-09-07T00:00	30113	12	-45.1	-81.5	289	13
2023-09-07T00:00	30150	12	-45.1	-81.5	291	13
2023-09-07T00:00	30160	12	-45.1	-81.5	293	13
2023-09-07T00:00	30197	12	-45.0	-81.4	294	12
2023-09-07T00:00	30224	12	-45.0	-81.4	294	12
2023-09-07T00:00	30252	12	-45.1	-81.5	294	12
2023-09-07T00:00	30282	12	-45.1	-81.5	294	11
2023-09-07T00:00	30313	12	-45.2	-81.6	294	10
2023-09-07T00:00	30336	12	-45.2	-81.6	294	10
2023-09-07T00:00	30369	12	-45.3	-81.6	293	9
2023-09-07T00:00	30396	12	-45.4	-81.7	293	8
2023-09-07T00:00	30420	12	-45.4	-81.7	292	7
2023-09-07T00:00	30445	12	-45.5	-81.8	290	7
2023-09-07T00:00	30464	12	-45.6	-81.9	287	6
2023-09-07T00:00	30489	12	-45.7	-81.9	283	5
2023-09-07T00:00	30514	12	-45.6	-81.9	276	5
2023-09-07T00:00	30538	11	-45.6	-81.9	266	4
2023-09-07T00:00	30571	11	-45.6	-81.9	255	4
2023-09-07T00:00	30591	11	-45.7	-81.9	244	4
2023-09-07T00:00	30617	11	-45.8	-82.0	234	5
2023-09-07T00:00	30642	11	-45.6	-81.9	228	5
2023-09-07T00:00	30660	11	-45.5	-81.8	223	6
2023-09-07T00:00	30686	11	-45.4	-82.8	220	6
2023-09-07T00:00	30716	11	-45.4	-82.8	218	7
2023-09-07T00:00	30736	11	-45.2	-82.7	218	7
2023-09-07T00:00	30766	11	-44.8	-82.4	219	8
2023-09-07T00:00	30775	11	-44.6	-82.2	222	8
2023-09-07T00:00	30816	11	-44.5	-82.2	225	8
2023-09-07T00:00	30824	11	-44.3	-82.0	229	8
2023-09-07T00:00	30854	11	-44.1	-81.9	233	8
2023-09-07T00:00	30888	11	-43.8	-81.7	235	8
2023-09-07T00:00	30917	11	-43.8	-81.7	237	8
2023-09-07T00:00	30942	11	-43.8	-81.7	238	9
2023-09-07T00:00	30948	11	-43.9	-81.8	240	9
2023-09-07T00:00	30984	11	-44.0	-81.8	241	9
2023-09-07T00:00	31014	11	-44.0	-81.8	243	9
2023-09-07T00:00	31047	11	-44.1	-81.9	249	9
2023-09-07T00:00	31063	11	-44.2	-82.0	253	10
2023-09-07T00:00	31116	11	-44.2	-82.0	256	10
2023-09-07T00:00	31130	11	-44.3	-82.0	260	10
2023-09-07T00:00	31147	10	-44.3	-82.0	264	10
2023-09-07T00:00	31178	10	-44.3	-82.0	267	10
2023-09-07T00:00	31199	10	-44.2	-82.0	269	10
2023-09-07T00:00	31215	10	-44.3	-82.0	271	10
2023-09-07T00:00	31236	10	-44.4	-82.1	273	9
2023-09-07T00:00	31266	10	-44.2	-82.0	274	9
2023-09-07T00:00	31307	10	-44.1	-81.9	274	9
2023-09-07T00:00	31325	10	-43.8	-81.7	273	8
2023-09-07T00:00	31364	10	-43.8	-81.7	272	8
2023-09-07T00:00	31376	10	-43.9	-81.8	270	8
2023-09-07T00:00	31391	10	-43.9	-81.8	270	8
2023-09-07T00:00	31432	10	-43.8	-81.7	270	9
2023-09-07T00:00	31456	10	-43.6	-81.5	270	9
2023-09-07T00:00	31482	10	-43.7	-81.6	271	9
2023-09-07T00:00	31503	10	-43.8	-81.7	272	8
2023-09-07T00:00	31532	10	-43.9	-81.8	273	8
2023-09-07T00:00	31552	10	-43.8	-81.7	273	8
2023-09-07T00:00	31573	10	-43.9	-81.8	273	8
2023-09-07T00:00	31611	10	-44.0	-81.8	272	8
2023-09-07T00:00	31631	10	-44.0	-81.8	272	8
2023-09-07T00:00	31645	10	-44.0	-81.8	272	8
2023-09-07T00:00	31677	10	-44.1	-81.9	272	8
2023-09-07T00:00	31697	10	-44.2	-82.0	272	8
2023-09-07T00:00	31736	10	-44.2	-82.0	271	8
2023-09-07T00:00	31748	10	-44.1	-81.9	270	8
2023-09-07T00:00	31767	10	-44.1	-81.9	268	8
2023-09-07T00:00	31794	10	-43.9	-81.8	265	7
2023-09-07T00:00	31826	9	-43.7	-81.6	263	7
2023-09-07T00:00	31859	9	-43.7	-81.6	261	7
2023-09-07T00:00	31866	9	-43.5	-81.5	262	7
2023-09-07T00:00	31902	9	-43.3	-81.3	265	7
2023-09-07T00:00	31921	9	-43.2	-81.3	269	7
2023-09-07T00:00	31951	9	-43.1	-81.2	274	7
2023-09-07T00:00	31965	9	-42.9	-81.1	278	7
2023-09-07T00:00	31980	9	-42.8	-81.0	281	7
2023-09-07T00:00	32002	9	-42.8	-81.0	281	7
2023-09-07T00:00	32024	9	-42.9	-81.1	281	7
2023-09-07T00:00	32064	9	-43.0	-81.1	278	7
2023-09-07T00:00	32066	9	-43.1	-81.2	275	7
2023-09-07T00:00	32092	9	-43.1	-81.2	272	7
2023-09-07T00:00	32137	9	-43.1	-81.2	270	7
2023-09-07T00:00	32160	9	-43.1	-81.2	269	7
2023-09-07T00:00	32172	9	-43.2	-81.3	268	7
2023-09-07T00:00	32187	9	-43.3	-81.3	268	7
2023-09-07T00:00	32211	9	-43.4	-81.4	268	7
2023-09-07T00:00	32245	9	-43.5	-81.5	268	7
2023-09-07T00:00	32291	9	-43.7	-81.6	269	7
2023-09-07T00:00	32312	9	-43.8	-81.7	270	7
2023-09-07T00:00	32329	9	-44.0	-81.8	272	8
2023-09-07T00:00	32341	9	-44.1	-81.9	274	8
2023-09-07T00:00	32358	9	-44.3	-82.0	277	8
2023-09-07T00:00	32395	9	-44.3	-82.0	281	9
2023-09-07T00:00	32410	9	-44.2	-82.0	285	9
2023-09-07T00:00	32442	9	-43.9	-81.8	288	9
2023-09-07T00:00	32456	9	-43.8	-81.7	292	10
2023-09-07T00:00	32485	9	-43.8	-81.7	294	10
2023-09-07T00:00	32517	9	-43.6	-81.5	297	11
2023-09-07T00:00	32531	9	-43.5	-81.5	300	11
2023-09-07T00:00	32561	9	-43.5	-81.5	302	12
2023-09-07T00:00	32592	8	-43.5	-81.5	305	12
2023-09-07T00:00	32620	8	-43.4	-81.4	310	12
2023-09-07T00:00	32653	8	-43.3	-81.3	311	12
2023-09-07T00:00	32675	8	-43.2	-81.3	312	11
2023-09-07T00:00	32701	8	-42.8	-81.0	314	10
2023-09-07T00:00	32724	8	-42.7	-80.9	315	9
2023-09-07T00:00	32754	8	-42.8	-81.0	318	8
2023-09-07T00:00	32764	8	-42.7	-80.9	325	7
2023-09-07T00:00	32813	8	-42.8	-81.0	329	7
2023-09-07T00:00	32834	8	-42.8	-81.0	333	6
2023-09-07T00:00	32871	8	-42.8	-81.0	336	6
2023-09-07T00:00	32886	8	-42.8	-81.0	337	6
2023-09-07T00:00	32915	8	-42.9	-81.1	337	6
2023-09-07T00:00	32926	8	-42.9	-81.1	336	6
2023-09-07T00:00	32961	8	-42.9	-81.1	335	5
2023-09-07T00:00	32979	8	-42.8	-81.0	334	5
2023-09-07T00:00	33032	8	-42.6	-80.8	332	4
2023-09-07T00:00	33044	8	-42.6	-80.8	330	3
2023-09-07T00:00	33086	8	-42.5	-80.8	324	3
2023-09-07T00:00	33107	8	-42.3	-80.6	313	2
2023-09-07T00:00	33118	8	-41.9	-80.4	291	2
2023-09-07T00:00	33141	8	-41.7	-80.2	262	2
2023-09-07T00:00	33156	8	-41.7	-80.2	243	2
2023-09-07T00:00	33191	8	-41.7	-80.2	233	2
2023-09-07T00:00	33207	8	-41.7	-80.2	228	3
2023-09-07T00:00	33226	8	-41.8	-80.3	225	4
2023-09-07T00:00	33264	8	-41.9	-80.4	223	4
2023-09-07T00:00	33277	8	-41.8	-80.3	221	5
2023-09-07T00:00	33300	8	-41.7	-80.2	221	5
2023-09-07T06:00	112	1011	16.0	12.0	70	4
2023-09-07T06:00	137	1008	16.9	11.6	98	3
2023-09-07T06:00	158	1006	19.0	10.4	103	4
2023-09-07T06:00	180	1003	20.8	10.2	107	5
2023-09-07T06:00	201	1001	21.2	10.2	109	6
2023-09-07T06:00	228	998	21.6	9.9	111	7
2023-09-07T06:00	245	996	21.7	9.6	113	7
2023-09-07T06:00	265	993	21.8	9.7	115	7
2023-09-07T06:00	287	991	21.8	9.3	117	7
2023-09-07T06:00	308	988	21.8	9.4	119	7
2023-09-07T06:00	333	986	21.6	9.7	121	7
2023-09-07T06:00	351	984	21.6	10.3	122	7
2023-09-07T06:00	372	981	21.7	9.7	122	7
2023-09-07T06:00	392	979	21.7	8.8	121	7
2023-09-07T06:00	414	977	21.6	8.9	120	8
2023-09-07T06:00	435	974	21.4	9.6	119	8
2023-09-07T06:00	452	972	21.2	9.8	119	8
2023-09-07T06:00	471	970	21.0	9.8	119	8
2023-09-07T06:00	494	968	20.9	9.6	119	8
2023-09-07T06:00	516	965	20.7	9.6	119	8
2023-09-07T06:00	534	963	20.5	9.3	118	8
2023-09-07T06:00	554	961	20.4	9.0	117	8
2023-09-07T06:00	578	958	20.2	9.1	116	8
2023-09-07T06:00	600	956	20.0	9.5	115	8
2023-09-07T06:00	626	953	19.7	9.4	115	8
2023-09-07T06:00	647	950	19.5		115	8
2023-09-07T06:00	670	948	19.3	9.7	116	8
2023-09-07T06:00	692	946	19.1	9.7	118	8
2023-09-07T06:00	713	943	18.9	9.4	119	8
2023-09-07T06:00	738	941	18.8	8.7	120	8
2023-09-07T06:00	764	938	18.5	8.6	120	8
2023-09-07T06:00	790	935	18.3	8.4	121	8
2023-09-07T06:00	809	933	18.2	8.3	121	7
2023-09-07T06:00	834	930	17.9	8.2	123	7
2023-09-07T06:00	860	927	17.7	8.3	125	6
2023-09-07T06:00	893	924	17.4	7.9	126	6
2023-09-07T06:00	914	921	17.3	8.2	126	6
2023-09-07T06:00	935	919	17.1	8.1	126	6
2023-09-07T06:00	960	916	17.0	7.8	127	6
2023-09-07T06:00	986	914	16.9	7.6	128	5
2023-09-07T06:00	1010	911	16.7	7.2	130	5
2023-09-07T06:00	1033	909	16.6	7.1	131	6
2023-09-07T06:00	1050	907	16.4	7.1	133	6
2023-09-07T06:00	1076	904	16.2	7.1	133	6
2023-09-07T06:00	1097	902	16.1	6.8	132	6
2023-09-07T06:00	1121	899	16.1	5.3	132	6
2023-09-07T06:00	1148	896	16.3	2.8	131	6
2023-09-07T06:00	1172	894	16.4	1.5	129	5
2023-09-07T06:00	1196	891	16.5	0.8	127	6
2023-09-07T06:00	1218	889	16.4	0.1	124	6
2023-09-07T06:00	1248	886	16.8	-4.8	122	6
2023-09-07T06:00	1269	884	16.8	-5.2	121	7
2023-09-07T06:00	1293	881	16.7	-5.8	121	7
2023-09-07T06:00	1315	879	16.6	-6.0	122	7
2023-09-07T06:00	1342	876	16.4	-3.8	122	7
2023-09-07T06:00	1366	874	16.0	-0.7	122	7
2023-09-07T06:00	1388	871	15.7	0.7	121	7
2023-09-07T06:00	1412	869	15.6	1.0	119	7
2023-09-07T06:00	1433	867	15.8	-3.3	118	6
2023-09-07T06:00	1456	865	16.6	-19.9	117	6
2023-09-07T06:00	1477	862	16.9	-18.3	116	5
2023-09-07T06:00	1499	860	17.2	-18.8	115	5
2023-09-07T06:00	1518	858	17.2	-20.3	114	4
2023-09-07T06:00	1540	856	17.1	-21.5	113	4
2023-09-07T06:00	1560	854	17.0	-21.8	112	4
2023-09-07T06:00	1583	852	16.9	-21.4	112	3
2023-09-07T06:00	1602	850	16.8	-21.4	111	3
2023-09-07T06:00	1622	848	16.7	-21.1	109	3
2023-09-07T06:00	1646	845	16.5	-20.8	104	3
2023-09-07T06:00	1670	843	16.4	-20.1	97	4
2023-09-07T06:00	1694	841	16.3	-20.1	92	4
2023-09-07T06:00	1717	838	16.2	-20.2	91	4
2023-09-07T06:00	1741	836	16.1	-13.0	92	4
2023-09-07T06:00	1767	834	15.8	-13.2	95	5
2023-09-07T06:00	1786	831	15.7	-12.4	98	5
2023-09-07T06:00	1808	829	15.4	-11.6	101	5
2023-09-07T06:00	1832	827	15.2	-11.0	102	5
2023-09-07T06:00	1856	825	15.3	-11.0	102	6
2023-09-07T06:00	1880	822	15.4	-15.5	102	6
2023-09-07T06:00	1901	820	15.4	-16.1	100	6
2023-09-07T06:00	1921	818	15.4	-16.7	97	5
2023-09-07T06:00	1941	816	15.4	-18.5	94	5
2023-09-07T06:00	1967	814	15.5	-20.3	91	4
2023-09-07T06:00	1989	812	15.5	-19.9	91	3
2023-09-07T06:00	2013	809	15.5	-18.9	94	2
2023-09-07T06:00	2046	807	15.3	-18.1	98	2
2023-09-07T06:00	2070	804	15.3	-16.9	100	3
2023-09-07T06:00	2092	802	15.2	-16.4	99	3
2023-09-07T06:00	2109	800	15.1	-17.3	97	4
2023-09-07T06:00	2127	799	15.0	-18.6	95	4
2023-09-07T06:00	2148	797	15.1	-23.0	94	4
2023-09-07T06:00	2179	794	15.2	-27.0	93	4
2023-09-07T06:00	2202	792	15.2	-25.5	91	4
2023-09-07T06:00	2224	790	15.1	-23.9	89	4
2023-09-07T06:00	2246	788	15.2	-20.9	85	4
2023-09-07T06:00	2268	786	15.2	-18.8	80	4
2023-09-07T06:00	2286	784	15.1	-20.0	72	3
2023-09-07T06:00	2305	782	15.0	-19.8	63	4
2023-09-07T06:00	2324	780	14.9	-18.9	56	4
2023-09-07T06:00	2342	779	14.9	-17.3	52	4
2023-09-07T06:00	2365	776	14.7	-16.4	52	5
2023-09-07T06:00	2386	774	14.6	-16.3	54	5
2023-09-07T06:00	2406	773	14.4	-16.5	56	5
2023-09-07T06:00	2426	771	14.3	-16.9	58	5
2023-09-07T06:00	2442	769	14.2	-19.2	59	5
2023-09-07T06:00	2460	768	14.0	-17.2	58	5
2023-09-07T06:00	2479	766	13.8	-15.8	56	5
2023-09-07T06:00	2498	764	13.7	-15.3	54	5
2023-09-07T06:00	2515	763	13.5	-15.0	53	5
2023-09-07T06:00	2535	761	13.4	-15.7	52	6
2023-09-07T06:00	2558	759	13.3	-14.9	53	6
2023-09-07T06:00	2586	756	13.2	-15.7	55	6
2023-09-07T06:00	2608	754	13.2	-19.7	59	6
2023-09-07T06:00	2624	753	13.2	-19.7	64	6
2023-09-07T06:00	2644	751	13.1	-23.7	67	6
2023-09-07T06:00	2672	749	13.1	-29.0	70	6
2023-09-07T06:00	2690	747	13.0	-22.5	69	6
2023-09-07T06:00	2712	745	12.8	-16.8	67	6
2023-09-07T06:00	2732	743	12.6	-12.1	62	6
2023-09-07T06:00	2751	742	12.4	-10.5	58	6
2023-09-07T06:00	2777	739	12.2	-10.6	54	7
2023-09-07T06:00	2805	737	12.0	-11.1	52	7
2023-09-07T06:00	2829	735	11.9	-11.0	51	7
2023-09-07T06:00	2852	733	11.7	-10.7	52	6
2023-09-07T06:00	2870	731	11.6	-10.6	55	6
2023-09-07T06:00	2890	729	11.5	-13.0	58	6
2023-09-07T06:00	2910	727	11.4	-13.6	61	5
2023-09-07T06:00	2938	725	11.1	-12.1	62	5
2023-09-07T06:00	2958	723	10.9	-10.8	61	5
2023-09-07T06:00	2981	721	10.8	-10.9	59	4
2023-09-07T06:00	3008	719	10.6	-10.9	55	4
2023-09-07T06:00	3025	718	10.5	-10.7	50	4
2023-09-07T06:00	3043	716	10.3	-10.4	47	4
2023-09-07T06:00	3061	714	10.2	-10.6	45	4
2023-09-07T06:00	3085	712	10.1	-11.4	44	4
2023-09-07T06:00	3112	710	10.0	-10.8	43	4
2023-09-07T06:00	3138	708	9.8	-11.4	44	4
2023-09-07T06:00	3154	706	9.7	-12.7	47	4
2023-09-07T06:00	3177	705	9.5	-13.4	52	4
2023-09-07T06:00	3207	702	9.3	-13.5	57	4
2023-09-07T06:00	3225	700	9.1	-13.7	60	4
2023-09-07T06:00	3248	699	8.9	-14.3	61	4
2023-09-07T06:00	3275	696	8.7	-15.3	58	4
2023-09-07T06:00	3298	694	8.6	-16.8	54	4
2023-09-07T06:00	3322	692	8.5	-20.1	51	4
2023-09-07T06:00	3342	691	8.4	-20.9	48	4
2023-09-07T06:00	3361	689	8.2	-19.8	47	5
2023-09-07T06:00	3383	687	8.0	-20.5	47	5
2023-09-07T06:00	3406	685	8.0	-22.0	47	5
2023-09-07T06:00	3432	683	8.0	-27.1	47	5
2023-09-07T06:00	3461	681	8.1	-30.3	45	5
2023-09-07T06:00	3479	679	7.9	-30.2	42	5
2023-09-07T06:00	3497	678	7.9	-29.4	40	5
2023-09-07T06:00	3516	676	7.8	-25.5	38	5
2023-09-07T06:00	3538	674	7.8	-27.2	37	5
2023-09-07T06:00	3564	672	7.6		37	5
2023-09-07T06:00	3590	670	7.4	-28.5	37	5
2023-09-07T06:00	3611	668	7.4	-22.3	36	5
2023-09-07T06:00	3633	667	7.2	-25.4	34	5
2023-09-07T06:00	3658	665	7.2	-22.0	33	5
2023-09-07T06:00	3684	663	7.2	-27.2	31	4
2023-09-07T06:00	3710	660	7.2	-24.6	30	4
2023-09-07T06:00	3742	658	7.1	-22.9	29	4
2023-09-07T06:00	3761	656	7.2	-25.2	27	5
2023-09-07T06:00	3779	655	7.1	-25.1	24	5
2023-09-07T06:00	3798	653	7.1	-22.3	22	5
2023-09-07T06:00	3816	652	6.9	-15.4	21	6
2023-09-07T06:00	3835	650	6.6	-9.0	22	6
2023-09-07T06:00	3855	649	6.4	-8.1	24	6
2023-09-07T06:00	3879	647	6.2	-7.7	26	6
2023-09-07T06:00	3902	645	5.9	-7.5	28	6
2023-09-07T06:00	3925	643	5.7	-7.0	30	6
2023-09-07T06:00	3949	642	5.5	-7.0	31	6
2023-09-07T06:00	3975	639	5.2	-6.9	31	6
2023-09-07T06:00	4003	637	4.9	-7.0	31	6
2023-09-07T06:00	4023	636	4.7	-7.1	31	6
2023-09-07T06:00	4040	634	4.6	-7.0	31	6
2023-09-07T06:00	4058	633	4.4	-7.0	31	6
2023-09-07T06:00	4077	632	4.2	-7.0	32	5
2023-09-07T06:00	4095	630	4.0	-7.1	34	5
2023-09-07T06:00	4113	629	3.9	-7.1	34	5
2023-09-07T06:00	4134	627	3.6	-7.1	35	5
2023-09-07T06:00	4160	625	3.4	-7.2	35	5
2023-09-07T06:00	4184	623	3.2	-7.3	36	5
2023-09-07T06:00	4210	621	3.0	-7.4	38	5
2023-09-07T06:00	4239	619	2.7	-7.5	40	6
2023-09-07T06:00	4260	617	2.5	-7.5	42	6
2023-09-07T06:00	4284	616	2.3	-7.4	43	6
2023-09-07T06:00	4311	614	2.1	-7.5	41	7
2023-09-07T06:00	4336	612	1.9	-9.0	38	7
2023-09-07T06:00	4353	610	1.9	-9.9	34	7
2023-09-07T06:00	4373	609	1.8	-10.4	31	7
2023-09-07T06:00	4391	607	1.8	-12.2	29	7
2023-09-07T06:00	4411	606	1.7	-13.5	28	7
2023-09-07T06:00	4433	604	1.7	-13.9	27	7
2023-09-07T06:00	4455	603	1.5	-13.9	25	6
2023-09-07T06:00	4478	601	1.3	-13.7	23	6
2023-09-07T06:00	4510	599	1.1	-13.9	22	6
2023-09-07T06:00	4532	597	1.0	-14.0	22	6
2023-09-07T06:00	4551	595	0.8	-13.5	23	6
2023-09-07T06:00	4569	594	0.7	-13.2	25	6
2023-09-07T06:00	4586	593	0.5	-13.3	27	6
2023-09-07T06:00	4605	591	0.4	-13.6	28	6
2023-09-07T06:00	4631	589	0.3	-14.1	29	5
2023-09-07T06:00	4659	588	0.2	-14.3	28	6
2023-09-07T06:00	4681	586	0.0	-14.3	27	6
2023-09-07T06:00	4703	584	-0.2	-14.2	25	6
2023-09-07T06:00	4726	583	-0.4	-14.9	24	6
2023-09-07T06:00	4748	581	-0.5	-15.9	23	6
2023-09-07T06:00	4771	579	-0.6	-16.4	22	6
2023-09-07T06:00	4789	578	-0.7	-16.2	22	6
2023-09-07T06:00	4816	576	-0.8	-16.7	22	6
2023-09-07T06:00	4842	574	-0.9	-16.2	23	6
2023-09-07T06:00	4865	573	-1.1	-16.5	25	6
2023-09-07T06:00	4890	571	-1.2	-16.6	27	6
2023-09-07T06:00	4910	569	-1.4	-16.9	28	6
2023-09-07T06:00	4928	568	-1.4	-20.1	28	7
2023-09-07T06:00	4948	567	-1.5	-21.4	27	7
2023-09-07T06:00	4966	565	-1.6	-20.7	25	7
2023-09-07T06:00	4983	564	-1.8	-21.0	22	7
2023-09-07T06:00	5002	563	-1.9	-21.3	20	7
2023-09-07T06:00	5023	561	-1.9	-22.5	18	7
2023-09-07T06:00	5047	560	-2.1	-17.8	15	7
2023-09-07T06:00	5075	558	-2.4	-15.0	12	6
2023-09-07T06:00	5094	556	-2.6	-15.0	10	6
2023-09-07T06:00	5116	555	-2.8	-15.4	9	6
2023-09-07T06:00	5141	553	-2.8	-17.8	8	6
2023-09-07T06:00	5167	551	-2.9	-16.0	7	6
2023-09-07T06:00	5196	549	-3.1	-14.5	6	6
2023-09-07T06:00	5212	548	-3.2	-15.0	5	6
2023-09-07T06:00	5232	547	-3.4	-14.9	4	7
2023-09-07T06:00	5250	545	-3.5	-15.3	2	7
2023-09-07T06:00	5268	544	-3.6	-15.3	1	7
2023-09-07T06:00	5284	543	-3.8	-14.8	0	7
2023-09-07T06:00	5304	542	-3.9	-14.2	359	7
2023-09-07T06:00	5321	541	-4.1	-14.3	359	7
2023-09-07T06:00	5340	539	-4.3	-15.0	358	7
2023-09-07T06:00	5359	538	-4.4	-15.1	358	6
2023-09-07T06:00	5378	537	-4.6	-15.0	358	6
2023-09-07T06:00	5397	535	-4.6	-18.9	358	6
2023-09-07T06:00	5413	534	-4.7	-17.7	358	6
2023-09-07T06:00	5434	533	-4.9	-17.9	358	6
2023-09-07T06:00	5452	532	-5.0	-18.3	358	6
2023-09-07T06:00	5473	530	-5.2	-18.2	357	6
2023-09-07T06:00	5497	529	-5.5	-16.6	356	6
2023-09-07T06:00	5521	527	-5.7	-16.9	356	6
2023-09-07T06:00	5541	526	-5.9	-17.4	358	6
2023-09-07T06:00	5564	524	-6.1	-17.8	0	6
2023-09-07T06:00	5589	522	-6.2	-17.6	2	6
2023-09-07T06:00	5616	521	-6.5	-18.4	2	6
2023-09-07T06:00	5645	519	-6.6	-20.4	1	5
2023-09-07T06:00	5667	517	-6.7	-19.8	359	5
2023-09-07T06:00	5689	516	-6.9	-19.6	356	5
2023-09-07T06:00	5714	514	-7.2	-19.1	355	5
2023-09-07T06:00	5739	513	-7.3	-18.6	355	5
2023-09-07T06:00	5761	511	-7.5	-19.8	356	5
2023-09-07T06:00	5782	510	-7.6	-21.9	357	5
2023-09-07T06:00	5800	508	-7.7	-21.9	357	5
2023-09-07T06:00	5826	507	-7.9	-21.9	357	5
2023-09-07T06:00	5848	505	-8.1	-19.7	356	5
2023-09-07T06:00	5871	504	-8.3	-19.8	355	5
2023-09-07T06:00	5895	502	-8.5	-18.7	354	5
2023-09-07T06:00	5921	501	-8.7	-19.2	354	5
2023-09-07T06:00	5946	499	-8.9	-18.5	356	5
2023-09-07T06:00	5972	497	-9.1	-18.9	358	4
2023-09-07T06:00	6000	496	-9.2	-19.7	3	4
2023-09-07T06:00	6026	494	-9.2	-20.8	8	4
2023-09-07T06:00	6054	492	-9.3	-20.6	13	4
2023-09-07T06:00	6080	490	-9.6	-20.5	16	4
2023-09-07T06:00	6105	489	-9.8	-20.4	16	4
2023-09-07T06:00	6128	487	-10.0	-20.2	15	4
2023-09-07T06:00	6149	486	-10.1	-20.0	13	4
2023-09-07T06:00	6175	484	-10.3	-19.7	12	4
2023-09-07T06:00	6195	483	-10.5	-20.2	11	4
2023-09-07T06:00	6219	482	-10.7	-20.5	11	4
2023-09-07T06:00	6243	480	-11.0	-20.8	12	4
2023-09-07T06:00	6269	479	-11.2	-20.8	12	5
2023-09-07T06:00	6298	477	-11.5	-21.1	12	5
2023-09-07T06:00	6324	475	-11.7	-21.3	11	6
2023-09-07T06:00	6348	474	-11.9	-22.1	10	6
2023-09-07T06:00	6371	472	-12.0	-25.1	9	7
2023-09-07T06:00	6396	471	-12.0	-29.3	9	7
2023-09-07T06:00	6422	469	-12.0	-31.8	8	7
2023-09-07T06:00	6447	468	-12.1	-32.6	8	7
2023-09-07T06:00	6474	466	-12.3	-32.9	9	7
2023-09-07T06:00	6499	464	-12.5	-33.1	9	8
2023-09-07T06:00	6524	463	-12.7	-33.6	10	8
2023-09-07T06:00	6547	461	-12.9	-33.9	10	8
2023-09-07T06:00	6569	460	-13.1	-26.1	10	8
2023-09-07T06:00	6591	459	-13.3	-26.0	9	8
2023-09-07T06:00	6610	458	-13.4	-27.1	9	7
2023-09-07T06:00	6629	457	-13.6	-29.1	8	7
2023-09-07T06:00	6648	455	-13.8	-29.5	7	7
2023-09-07T06:00	6668	454	-14.0	-29.8	6	7
2023-09-07T06:00	6689	453	-14.1	-30.1	5	7
2023-09-07T06:00	6709	452	-14.3	-29.5	4	7
2023-09-07T06:00	6736	450	-14.6		5	7
2023-09-07T06:00	6764	448	-14.9	-29.0	6	7
2023-09-07T06:00	6790	447	-15.1	-28.1	9	7
2023-09-07T06:00	6816	445	-15.4	-24.5	12	7
2023-09-07T06:00	6842	444	-15.6	-25.5	15	7
2023-09-07T06:00	6871	442	-15.4	-29.6	18	7
2023-09-07T06:00	6894	441	-15.5	-30.0	20	7
2023-09-07T06:00	6915	440	-15.6	-30.7	21	7
2023-09-07T06:00	6937	438	-15.8	-31.1	20	7
2023-09-07T06:00	6958	437	-15.9	-31.7	18	7
2023-09-07T06:00	6980	436	-16.1	-31.8	16	8
2023-09-07T06:00	7009	434	-16.3	-31.8	14	8
2023-09-07T06:00	7036	433	-16.6	-31.8	13	9
2023-09-07T06:00	7065	431	-16.8	-31.8	13	9
2023-09-07T06:00	7092	429	-17.0	-32.3	13	10
2023-09-07T06:00	7115	428	-17.1	-32.8	13	10
2023-09-07T06:00	7136	427	-17.1	-34.4	12	10
2023-09-07T06:00	7161	425	-17.1	-33.5	11	10
2023-09-07T06:00	7188	424	-17.3	-32.5	11	10
2023-09-07T06:00	7216	422	-17.5	-32.7	11	10
2023-09-07T06:00	7244	421	-17.7	-32.6	11	10
2023-09-07T06:00	7271	419	-17.9	-32.3	11	10
2023-09-07T06:00	7297	418	-18.1	-32.4	11	10
2023-09-07T06:00	7318	417	-18.2	-32.6	11	10
2023-09-07T06:00	7345	415	-18.4	-32.7	9	10
2023-09-07T06:00	7369	414	-18.6	-32.6	7	10
2023-09-07T06:00	7398	412	-18.8	-32.7	6	10
2023-09-07T06:00	7427	411	-19.0	-33.0	4	10
2023-09-07T06:00	7449	409	-19.1	-32.9	3	10
2023-09-07T06:00	7470	408	-19.2	-34.4	2	10
2023-09-07T06:00	7493	407	-19.2	-35.0	2	11
2023-09-07T06:00	7513	406	-19.3	-35.5	2	11
2023-09-07T06:00	7535	405	-19.5	-35.2	1	11
2023-09-07T06:00	7555	404	-19.6	-35.6	1	11
2023-09-07T06:00	7575	402	-19.7	-36.1	360	11
2023-09-07T06:00	7600	401	-19.9	-36.4	359	11
2023-09-07T06:00	7620	400	-20.1	-36.6	358	11
2023-09-07T06:00	7640	399	-20.2	-37.0	358	11
2023-09-07T06:00	7659	398	-20.4	-37.2	358	11
2023-09-07T06:00	7678	397	-20.5	-37.2	358	11
2023-09-07T06:00	7699	396	-20.7	-38.1	358	11
2023-09-07T06:00	7722	395	-20.9	-37.7	359	11
2023-09-07T06:00	7746	393	-21.1	-37.6	359	11
2023-09-07T06:00	7768	392	-21.3	-37.6	359	11
2023-09-07T06:00	7790	391	-21.4	-37.9	360	11
2023-09-07T06:00	7812	390	-21.5	-38.4	360	11
2023-09-07T06:00	7837	388	-21.6	-38.9	360	11
2023-09-07T06:00	7854	387	-21.7	-38.4	359	12
2023-09-07T06:00	7876	386	-21.9	-38.4	358	12
2023-09-07T06:00	7894	385	-22.0	-38.7	358	12
2023-09-07T06:00	7911	384	-22.1	-38.7	358	12
2023-09-07T06:00	7931	384	-22.3	-38.5	358	12
2023-09-07T06:00	7949	383	-22.4	-38.4	358	12
2023-09-07T06:00	7968	382	-22.6	-38.6	359	12
2023-09-07T06:00	7987	381	-22.7	-39.0	360	11
2023-09-07T06:00	8006	380	-22.8	-40.0	360	11
2023-09-07T06:00	8025	379	-22.9	-40.5	360	11
2023-09-07T06:00	8045	378	-23.1	-41.2	360	11
2023-09-07T06:00	8063	377	-23.1	-41.6	360	11
2023-09-07T06:00	8082	376	-23.2	-41.9	360	11
2023-09-07T06:00	8098	375	-23.4	-42.1	359	11
2023-09-07T06:00	8118	374	-23.5	-42.2	359	11
2023-09-07T06:00	8135	373	-23.6	-42.8	358	11
2023-09-07T06:00	8152	372	-23.7	-42.8	356	11
2023-09-07T06:00	8171	371	-23.8	-43.1	355	11
2023-09-07T06:00	8190	370	-24.0	-43.0	354	11
2023-09-07T06:00	8208	369	-24.1	-43.1	352	11
2023-09-07T06:00	8226	368	-24.2	-43.4	351	11
2023-09-07T06:00	8245	367	-24.4	-43.6	350	11
2023-09-07T06:00	8263	366	-24.5	-43.6	350	11
2023-09-07T06:00	8281	366	-24.7	-43.8	350	11
2023-09-07T06:00	8300	365	-24.8	-43.8	351	11
2023-09-07T06:00	8317	364	-25.0	-43.9	351	11
2023-09-07T06:00	8337	363	-25.1	-43.9	351	11
2023-09-07T06:00	8357	362	-25.3	-44.0	351	10
2023-09-07T06:00	8377	361	-25.4	-44.0	351	10
2023-09-07T06:00	8399	360	-25.6	-43.9	352	10
2023-09-07T06:00	8423	359	-25.7	-44.0	353	10
2023-09-07T06:00	8445	357	-25.9	-43.8	354	10
2023-09-07T06:00	8468	356	-26.1	-43.8	355	10
2023-09-07T06:00	8490	355	-26.3	-44.0	356	10
2023-09-07T06:00	8519	354	-26.5	-44.1	357	10
2023-09-07T06:00	8547	352	-26.7	-44.2	357	10
2023-09-07T06:00	8574	351	-26.9	-44.2	355	10
2023-09-07T06:00	8606	350	-27.2	-44.4	354	10
2023-09-07T06:00	8632	348	-27.4	-44.4	352	10
2023-09-07T06:00	8655	347	-27.6	-44.4	349	10
2023-09-07T06:00	8677	346	-27.8	-44.4	347	10
2023-09-07T06:00	8700	345	-28.0	-44.3	345	11
2023-09-07T06:00	8724	344	-28.2	-44.5	343	11
2023-09-07T06:00	8747	343	-28.4	-44.7	342	10
2023-09-07T06:00	8770	342	-28.5	-44.6	342	10
2023-09-07T06:00	8792	341	-28.7	-44.8	341	10
2023-09-07T06:00	8813	340	-28.9	-44.9	342	10
2023-09-07T06:00	8834	339	-29.0	-44.8	342	10
2023-09-07T06:00	8856	338	-29.2	-44.7	342	10
2023-09-07T06:00	8876	337	-29.4	-44.8	342	10
2023-09-07T06:00	8897	336	-29.6	-44.9	343	11
2023-09-07T06:00	8916	335	-29.7	-44.9	343	11
2023-09-07T06:00	8935	334	-29.9	-44.9	344	11
2023-09-07T06:00	8953	333	-30.0	-44.9	345	11
2023-09-07T06:00	8973	332	-30.2	-45.0	346	11
2023-09-07T06:00	8991	331	-30.4	-45.1	346	11
2023-09-07T06:00	9009	330	-30.5	-45.1	346	11
2023-09-07T06:00	9030	329	-30.7	-45.1	346	11
2023-09-07T06:00	9048	329	-30.9	-45.0	346	11
2023-09-07T06:00	9067	328	-31.1	-44.8	345	11
2023-09-07T06:00	9086	327	-31.3	-44.8	345	11
2023-09-07T06:00	9106	326	-31.4	-44.6	345	11
2023-09-07T06:00	9125	325	-31.6	-44.7	345	11
2023-09-07T06:00	9145	324	-31.8	-44.7	345	11
2023-09-07T06:00	9163	323	-32.0	-44.0	344	11
2023-09-07T06:00	9185	322	-32.1	-43.2	343	12
2023-09-07T06:00	9203	321	-32.3	-42.9	342	12
2023-09-07T06:00	9222	321	-32.4	-43.1	340	12
2023-09-07T06:00	9238	320	-32.5	-43.4	339	12
2023-09-07T06:00	9257	319	-32.7	-43.7	338	12
2023-09-07T06:00	9277	318	-32.7	-43.7	337	12
2023-09-07T06:00	9296	317	-32.8	-44.2	337	12
2023-09-07T06:00	9315	316	-33.0	-44.7	337	12
2023-09-07T06:00	9333	316	-33.1	-45.1	337	12
2023-09-07T06:00	9351	315	-33.2	-45.7	337	12
2023-09-07T06:00	9370	314	-33.4	-45.9	338	12
2023-09-07T06:00	9389	313	-33.5	-45.1	338	12
2023-09-07T06:00	9405	312	-33.7	-45.1	338	12
2023-09-07T06:00	9424	312	-33.8	-45.0	338	12
2023-09-07T06:00	9443	311	-33.9	-45.8	339	12
2023-09-07T06:00	9462	310	-34.0	-47.2	339	13
2023-09-07T06:00	9480	309	-34.2	-47.3	339	13
2023-09-07T06:00	9498	308	-34.3	-47.3	339	13
2023-09-07T06:00	9517	307	-34.5	-47.5	340	13
2023-09-07T06:00	9535	307	-34.7	-47.9	340	13
2023-09-07T06:00	9554	306	-34.8	-48.2	341	13
2023-09-07T06:00	9573	305	-35.0	-48.0	341	13
2023-09-07T06:00	9591	304	-35.2	-48.0	342	13
2023-09-07T06:00	9609	303	-35.3	-48.1	342	13
2023-09-07T06:00	9627	303	-35.5	-48.5	342	13
2023-09-07T06:00	9645	302	-35.7	-49.3	342	13
2023-09-07T06:00	9664	301	-35.8	-49.3	342	13
2023-09-07T06:00	9683	300	-36.0	-49.3	342	13
2023-09-07T06:00	9701	299	-36.2	-49.5	342	13
2023-09-07T06:00	9719	299	-36.3	-50.1	342	13
2023-09-07T06:00	9736	298	-36.5	-50.6	342	13
2023-09-07T06:00	9754	297	-36.6	-50.6	343	14
2023-09-07T06:00	9774	296	-36.8	-51.0	343	14
2023-09-07T06:00	9793	295	-36.9	-50.7	344	14
2023-09-07T06:00	9810	295	-37.1	-50.4	344	14
2023-09-07T06:00	9829	294	-37.3	-50.2	345	14
2023-09-07T06:00	9846	293	-37.4	-50.9	345	14
2023-09-07T06:00	9866	292	-37.6	-51.7	346	15
2023-09-07T06:00	9885	292	-37.7	-52.2	346	15
2023-09-07T06:00	9904	291	-37.8	-51.8	347	15
2023-09-07T06:00	9921	290	-37.9	-52.0	348	14
2023-09-07T06:00	9940	289	-38.1	-53.5	349	14
2023-09-07T06:00	9957	288	-38.3	-54.4	350	14
2023-09-07T06:00	9976	288	-38.5	-54.0	351	14
2023-09-07T06:00	9998	287	-38.6	-53.5	351	15
2023-09-07T06:00	10014	286	-38.8	-53.5	351	15
2023-09-07T06:00	10034	285	-38.9	-52.7	351	15
2023-09-07T06:00	10054	284	-39.1	-51.1	351	15
2023-09-07T06:00	10074	284	-39.3	-50.7	350	15
2023-09-07T06:00	10092	283	-39.5	-50.1	350	15
2023-09-07T06:00	10110	282	-39.6	-49.8	349	15
2023-09-07T06:00	10129	281	-39.8	-49.6	349	15
2023-09-07T06:00	10147	281	-40.0	-49.6	349	16
2023-09-07T06:00	10165	280	-40.1	-49.4	349	16
2023-09-07T06:00	10184	279	-40.3	-49.7	349	16
2023-09-07T06:00	10202	278	-40.4	-49.6	349	16
2023-09-07T06:00	10220	278	-40.7	-49.4	348	16
2023-09-07T06:00	10238	277	-40.8	-49.2	347	16
2023-09-07T06:00	10256	276	-41.0	-49.3	345	16
2023-09-07T06:00	10276	275	-41.0	-51.0	344	16
2023-09-07T06:00	10295	275	-40.8	-52.8	342	17
2023-09-07T06:00	10314	274	-40.9	-52.8	342	17
2023-09-07T06:00	10331	273	-40.9	-53.3	341	17
2023-09-07T06:00	10349	272	-41.0	-53.2	341	17
2023-09-07T06:00	10370	272	-41.2	-51.3	341	16
2023-09-07T06:00	10390	271	-41.4	-50.1	341	16
2023-09-07T06:00	10409	270	-41.5	-49.8	341	17
2023-09-07T06:00	10427	269	-41.7	-50.0	341	17
2023-09-07T06:00	10445	269	-41.8	-50.6	340	17
2023-09-07T06:00	10464	268	-42.0	-51.1	340	17
2023-09-07T06:00	10482	267	-42.1	-51.8	340	17
2023-09-07T06:00	10501	266	-42.3	-52.5	340	17
2023-09-07T06:00	10517	266	-42.4	-52.9	340	17
2023-09-07T06:00	10538	265	-42.6	-53.7	340	17
2023-09-07T06:00	10556	264	-42.7	-53.9	340	17
2023-09-07T06:00	10574	263	-42.9	-54.0	340	17
2023-09-07T06:00	10593	263	-43.1	-54.7	340	17
2023-09-07T06:00	10613	262	-43.2		341	17
2023-09-07T06:00	10630	261	-43.3	-55.4	341	17
2023-09-07T06:00	10649	261	-43.4	-55.2	341	17
2023-09-07T06:00	10669	260	-43.5	-54.5	341	17
2023-09-07T06:00	10685	259	-43.6	-54.2	340	17
2023-09-07T06:00	10704	258	-43.7	-54.3	340	17
2023-09-07T06:00	10724	258	-43.9	-54.4	340	17
2023-09-07T06:00	10743	257	-44.1	-54.4	340	17
2023-09-07T06:00	10760	256	-44.2	-54.4	340	17
2023-09-07T06:00	10780	256	-44.4	-54.5	340	17
2023-09-07T06:00	10797	255	-44.5	-54.5	340	17
2023-09-07T06:00	10816	254	-44.7	-54.6	340	17
2023-09-07T06:00	10835	253	-44.8	-54.5	340	17
2023-09-07T06:00	10855	253	-45.0	-54.6	340	18
2023-09-07T06:00	10873	252	-45.2	-54.8	340	18
2023-09-07T06:00	10890	251	-45.3	-54.9	340	18
2023-09-07T06:00	10910	251	-45.4	-54.7	340	19
2023-09-07T06:00	10928	250	-45.5	-54.6	340	19
2023-09-07T06:00	10949	249	-45.7	-54.6	340	19
2023-09-07T06:00	10969	248	-45.8	-54.5	340	20
2023-09-07T06:00	10986	248	-46.0	-54.4	340	20
2023-09-07T06:00	11004	247	-46.1	-54.2	340	20
2023-09-07T06:00	11022	246	-46.3	-54.4	340	20
2023-09-07T06:00	11041	246	-46.4	-54.5	341	20
2023-09-07T06:00	11060	245	-46.6	-54.4	341	20
2023-09-07T06:00	11080	244	-46.7	-53.9	341	20
2023-09-07T06:00	11098	244	-46.9	-53.5	341	20
2023-09-07T06:00	11116	243	-47.0	-53.5	341	20
2023-09-07T06:00	11136	242	-47.1	-54.4	341	20
2023-09-07T06:00	11154	242	-47.2	-55.6	342	20
2023-09-07T06:00	11172	241	-47.3	-56.2	342	20
2023-09-07T06:00	11192	240	-47.5	-56.0	342	20
2023-09-07T06:00	11210	240	-47.6	-56.0	343	20
2023-09-07T06:00	11227	239	-47.7	-56.5	343	20
2023-09-07T06:00	11246	238	-47.8	-57.0	343	20
2023-09-07T06:00	11265	238	-47.9	-56.9	344	20
2023-09-07T06:00	11283	237	-48.1	-56.6	344	20
2023-09-07T06:00	11304	236	-48.3	-56.6	344	20
2023-09-07T06:00	11320	236	-48.4	-56.6	345	20
2023-09-07T06:00	11339	235	-48.6	-56.7	345	20
2023-09-07T06:00	11358	234	-48.7	-56.6	345	20
2023-09-07T06:00	11377	234	-48.9	-56.9	345	20
2023-09-07T06:00	11396	233	-49.0	-57.1	345	21
2023-09-07T06:00	11416	232	-49.2	-57.3	345	21
2023-09-07T06:00	11434	231	-49.3	-57.4	345	21
2023-09-07T06:00	11454	231	-49.5	-57.6	345	21
2023-09-07T06:00	11472	230	-49.7	-57.7	345	21
2023-09-07T06:00	11493	229	-49.8	-57.7	345	21
2023-09-07T06:00	11511	229	-49.9	-57.5	345	22
2023-09-07T06:00	11528	228	-50.1	-57.5	345	22
2023-09-07T06:00	11548	227	-50.2	-57.3	344	22
2023-09-07T06:00	11567	227	-50.4	-57.3	344	22
2023-09-07T06:00	11587	226	-50.5	-57.6	343	23
2023-09-07T06:00	11605	226	-50.6	-58.3	343	23
2023-09-07T06:00	11625	225	-50.7	-59.3	342	23
2023-09-07T06:00	11643	224	-50.8	-60.0	342	23
2023-09-07T06:00	11660	224	-50.9	-60.3	342	23
2023-09-07T06:00	11680	223	-51.0	-60.5	342	24
2023-09-07T06:00	11694	222	-51.2	-61.1	342	24
2023-09-07T06:00	11716	222	-51.1	-61.2	342	24
2023-09-07T06:00	11735	221	-51.2	-61.1	341	24
2023-09-07T06:00	11753	220	-51.3	-60.3	341	24
2023-09-07T06:00	11773	220	-51.5	-59.4	341	24
2023-09-07T06:00	11791	219	-51.6	-58.4	341	24
2023-09-07T06:00	11808	219	-51.7	-57.8	341	24
2023-09-07T06:00	11827	218	-51.8	-57.5	341	24
2023-09-07T06:00	11847	217	-52.0	-57.7	340	24
2023-09-07T06:00	11865	217	-52.1	-57.9	340	24
2023-09-07T06:00	11885	216	-52.3	-58.3	339	24
2023-09-07T06:00	11906	215	-52.5	-58.8	339	24
2023-09-07T06:00	11924	215	-52.6	-59.1	339	24
2023-09-07T06:00	11943	214	-52.8	-59.5	338	24
2023-09-07T06:00	11964	213	-53.0	-59.8	338	23
2023-09-07T06:00	11983	213	-53.1	-59.8	337	23
2023-09-07T06:00	12002	212	-53.3	-59.5	337	23
2023-09-07T06:00	12023	211	-53.4	-58.9	336	23
2023-09-07T06:00	12044	211	-53.5	-58.6	336	23
2023-09-07T06:00	12065	210	-53.7	-58.6	335	23
2023-09-07T06:00	12087	209	-53.9	-58.7	335	23
2023-09-07T06:00	12105	209	-54.1	-58.7	335	23
2023-09-07T06:00	12126	208	-54.2	-58.7	335	23
2023-09-07T06:00	12145	207	-54.4	-58.8	334	23
2023-09-07T06:00	12168	207	-54.6	-59.3	334	23
2023-09-07T06:00	12188	206	-54.6	-59.7	334	23
2023-09-07T06:00	12206	205	-54.8	-59.9	334	23
2023-09-07T06:00	12228	205	-55.0	-59.8	334	23
2023-09-07T06:00	12249	204	-55.1	-59.7	334	23
2023-09-07T06:00	12267	204	-55.3	-59.9	334	23
2023-09-07T06:00	12289	203	-55.4	-60.2	333	23
2023-09-07T06:00	12309	202	-55.5	-60.4	333	23
2023-09-07T06:00	12329	202	-55.6	-60.4	333	23
2023-09-07T06:00	12349	201	-55.8	-60.5	333	23
2023-09-07T06:00	12371	200	-55.9	-60.6	333	23
2023-09-07T06:00	12389	200	-56.1	-60.9	333	23
2023-09-07T06:00	12409	199	-56.3	-61.1	333	23
2023-09-07T06:00	12429	198	-56.4	-61.0	333	23
2023-09-07T06:00	12448	198	-56.5	-60.8	334	24
2023-09-07T06:00	12467	197	-56.6	-60.7	334	24
2023-09-07T06:00	12491	197	-56.8	-60.9	334	24
2023-09-07T06:00	12511	196	-56.9	-61.1	335	24
2023-09-07T06:00	12531	195	-57.1	-61.3	335	24
2023-09-07T06:00	12553	195	-57.2	-61.4	336	24
2023-09-07T06:00	12572	194	-57.5	-61.5	336	24
2023-09-07T06:00	12592	193	-57.7	-61.6	336	23
2023-09-07T06:00	12612	193	-57.8	-61.9	336	23
2023-09-07T06:00	12630	192	-58.0	-62.2	336	23
2023-09-07T06:00	12653	192	-58.1	-62.4	336	23
2023-09-07T06:00	12672	191	-58.3	-62.4	336	23
2023-09-07T06:00	12691	190	-58.3	-62.3	336	23
2023-09-07T06:00	12712	190	-58.4	-62.5	336	23
2023-09-07T06:00	12730	189	-58.5	-62.8	336	23
2023-09-07T06:00	12751	189	-58.6	-63.0	335	23
2023-09-07T06:00	12771	188	-58.7	-63.2	335	23
2023-09-07T06:00	12788	187	-59.0	-63.6	334	23
2023-09-07T06:00	12808	187	-59.0	-63.7	333	23
2023-09-07T06:00	12828	186	-59.1	-63.9	332	23
2023-09-07T06:00	12847	186	-59.2	-64.0	332	22
2023-09-07T06:00	12869	185	-59.3		331	22
2023-09-07T06:00	12887	184	-59.3	-64.6	331	23
2023-09-07T06:00	12908	184	-59.3	-64.8	330	23
2023-09-07T06:00	12929	183	-59.5	-65.2	330	23
2023-09-07T06:00	12947	183	-59.6	-65.3	329	23
2023-09-07T06:00	12966	182	-59.7	-65.5	329	23
2023-09-07T06:00	12988	182	-59.7	-65.4	329	23
2023-09-07T06:00	13008	181	-59.9	-65.4	329	23
2023-09-07T06:00	13027	180	-60.0	-65.1	329	23
2023-09-07T06:00	13044	180	-60.0	-64.9	329	23
2023-09-07T06:00	13066	179	-60.2	-64.9	330	23
2023-09-07T06:00	13085	179	-60.4	-65.1	331	23
2023-09-07T06:00	13106	178	-60.5	-65.3	332	23
2023-09-07T06:00	13127	178	-60.4	-65.5	334	23
2023-09-07T06:00	13146	177	-60.4	-66.0	335	22
2023-09-07T06:00	13165	176	-60.5	-66.6	335	22
2023-09-07T06:00	13187	176	-60.4	-67.0	336	22
2023-09-07T06:00	13209	175	-60.5	-67.4	336	22
2023-09-07T06:00	13232	175	-60.7	-67.6	336	22
2023-09-07T06:00	13250	174	-60.8	-67.7	336	22
2023-09-07T06:00	13268	174	-61.1	-67.9	337	21
2023-09-07T06:00	13288	173	-61.2	-67.9	337	21
2023-09-07T06:00	13309	172	-61.4	-68.0	337	21
2023-09-07T06:00	13329	172	-61.6	-68.2	337	20
2023-09-07T06:00	13347	171	-61.8	-68.6	336	20
2023-09-07T06:00	13366	171	-61.9	-69.0	336	20
2023-09-07T06:00	13388	170	-61.9	-69.2	335	20
2023-09-07T06:00	13408	170	-61.9	-69.6	334	20
2023-09-07T06:00	13429	169	-62.0	-70.0	334	20
2023-09-07T06:00	13449	169	-62.1	-70.4	334	20
2023-09-07T06:00	13468	168	-61.9	-70.3	334	20
2023-09-07T06:00	13487	168	-62.0	-70.5	334	20
2023-09-07T06:00	13506	167	-62.0	-70.6	334	20
2023-09-07T06:00	13527	166	-62.2	-70.8	334	20
2023-09-07T06:00	13551	166	-62.3	-70.9	334	20
2023-09-07T06:00	13570	165	-62.4	-71.0	334	20
2023-09-07T06:00	13589	165	-62.5	-71.2	334	20
2023-09-07T06:00	13610	164	-62.6	-71.6	334	20
2023-09-07T06:00	13629	164	-62.7	-71.9	335	19
2023-09-07T06:00	13649	163	-62.7	-72.4	336	19
2023-09-07T06:00	13670	163	-62.6	-72.7	336	19
2023-09-07T06:00	13691	162	-62.3	-72.8	337	18
2023-09-07T06:00	13713	162	-62.4	-73.0	338	18
2023-09-07T06:00	13733	161	-62.5	-73.0	338	18
2023-09-07T06:00	13754	160	-62.6	-72.9	338	18
2023-09-07T06:00	13773	160	-62.7	-72.9	338	18
2023-09-07T06:00	13795	159	-62.7	-72.9	338	18
2023-09-07T06:00	13817	159	-62.8	-73.0	339	18
2023-09-07T06:00	13834	158	-62.8	-73.1	339	18
2023-09-07T06:00	13856	158	-62.7	-73.1	339	18
2023-09-07T06:00	13876	157	-62.6	-73.2	340	17
2023-09-07T06:00	13897	157	-62.6	-73.3	339	17
2023-09-07T06:00	13918	156	-62.8	-73.5	339	17
2023-09-07T06:00	13941	156	-62.8	-73.6	338	16
2023-09-07T06:00	13958	155	-63.0	-73.8	337	16
2023-09-07T06:00	13979	155	-63.1	-74.2	335	16
2023-09-07T06:00	14000	154	-63.2	-74.6	334	15
2023-09-07T06:00	14021	154	-63.2	-75.1	333	15
2023-09-07T06:00	14042	153	-63.1	-75.5	333	15
2023-09-07T06:00	14060	153	-63.0	-75.9	332	15
2023-09-07T06:00	14085	152	-62.8	-76.1	331	15
2023-09-07T06:00	14105	152	-62.9	-76.4	330	15
2023-09-07T06:00	14125	151	-63.1	-76.5	329	15
2023-09-07T06:00	14146	151	-63.2	-76.5	329	15
2023-09-07T06:00	14166	150	-63.2	-76.3	328	16
2023-09-07T06:00	14185	150	-63.2	-76.2	328	16
2023-09-07T06:00	14208	149	-63.3	-76.1	327	16
2023-09-07T06:00	14228	149	-63.4	-76.0	327	16
2023-09-07T06:00	14248	148	-63.4	-75.8	328	16
2023-09-07T06:00	14267	148	-63.5	-75.8	328	16
2023-09-07T06:00	14288	147	-63.6	-75.9	328	16
2023-09-07T06:00	14308	147	-63.6	-76.0	329	16
2023-09-07T06:00	14329	146	-63.7	-76.2	329	16
2023-09-07T06:00	14352	146	-63.8	-76.4	330	16
2023-09-07T06:00	14372	145	-64.0	-76.7	331	16
2023-09-07T06:00	14391	145	-64.1	-77.0	332	16
2023-09-07T06:00	14414	144	-64.2	-77.3	333	16
2023-09-07T06:00	14431	144	-64.2	-77.6	333	16
2023-09-07T06:00	14452	143	-64.2	-77.9	334	16
2023-09-07T06:00	14473	143	-64.4	-78.3	334	16
2023-09-07T06:00	14494	142	-64.6	-78.6	334	15
2023-09-07T06:00	14515	142	-64.7	-78.8	335	15
2023-09-07T06:00	14536	141	-64.7	-79.0	335	15
2023-09-07T06:00	14558	141	-64.7	-79.1	335	15
2023-09-07T06:00	14579	140	-64.8	-79.4	335	15
2023-09-07T06:00	14596	140	-65.0	-79.6	336	15
2023-09-07T06:00	14618	139	-65.1	-79.7	336	15
2023-09-07T06:00	14640	139	-65.3	-79.8	336	15
2023-09-07T06:00	14661	138	-65.4	-79.8	336	15
2023-09-07T06:00	14682	138	-65.4	-79.9	336	15
2023-09-07T06:00	14703	137	-65.5	-80.0	337	15
2023-09-07T06:00	14724	137	-65.6	-80.2	338	15
2023-09-07T06:00	14746	137	-65.8	-80.5	338	15
2023-09-07T06:00	14767	136	-65.8	-80.6	339	15
2023-09-07T06:00	14787	136	-65.7	-80.6	340	16
2023-09-07T06:00	14808	135	-65.6	-80.7	340	15
2023-09-07T06:00	14828	135	-65.7	-80.9	340	15
2023-09-07T06:00	14851	134	-65.7	-81.0	340	15
2023-09-07T06:00	14870	134	-65.7	-81.1	339	15
2023-09-07T06:00	14891	133	-65.8	-81.2	338	15
2023-09-07T06:00	14912	133	-65.8	-81.3	337	15
2023-09-07T06:00	14932	132	-65.8	-81.4	337	15
2023-09-07T06:00	14953	132	-65.9	-81.6	337	14
2023-09-07T06:00	14975	131	-65.9	-81.7	337	14
2023-09-07T06:00	14994	131	-66.0	-81.8	338	14
2023-09-07T06:00	15019	131	-66.1	-82.0	338	13
2023-09-07T06:00	15039	130	-66.1	-82.1	338	13
2023-09-07T06:00	15061	130	-66.0	-82.1	339	13
2023-09-07T06:00	15082	129	-66.0	-82.3	339	13
2023-09-07T06:00	15102	129	-66.1	-82.6	339	14
2023-09-07T06:00	15124	128	-66.0	-82.6	340	14
2023-09-07T06:00	15146	128	-66.0	-82.7	340	14
2023-09-07T06:00	15166	127	-65.9	-82.8	341	15
2023-09-07T06:00	15186	127	-65.8	-82.9	341	15
2023-09-07T06:00	15208	126	-65.7	-83.0	342	15
2023-09-07T06:00	15230	126	-65.6	-83.0	343	15
2023-09-07T06:00	15250	126	-65.6	-83.1	344	15
2023-09-07T06:00	15274	125	-65.6	-83.2	345	14
2023-09-07T06:00	15295	125	-65.7	-83.3	346	14
2023-09-07T06:00	15315	124	-65.7	-83.3	348	14
2023-09-07T06:00	15338	124	-65.6	-83.4	350	14
2023-09-07T06:00	15361	123	-65.4	-83.3	351	13
2023-09-07T06:00	15380	123	-65.5		353	13
2023-09-07T06:00	15402	123	-65.6	-83.4	354	12
2023-09-07T06:00	15422	122	-65.7	-83.3	354	12
2023-09-07T06:00	15441	122	-65.7	-83.3	355	11
2023-09-07T06:00	15463	121	-65.7	-83.3	354	11
2023-09-07T06:00	15484	121	-65.8	-83.4	353	10
2023-09-07T06:00	15504	120	-65.9	-83.5	352	10
2023-09-07T06:00	15527	120	-65.9	-83.7	351	10
2023-09-07T06:00	15546	120	-65.9	-83.9	351	10
2023-09-07T06:00	15568	119	-65.4	-83.7	350	10
2023-09-07T06:00	15587	119	-65.0	-83.6	350	10
2023-09-07T06:00	15610	118	-64.9	-83.8	351	10
2023-09-07T06:00	15630	118	-64.9	-84.0	352	10
2023-09-07T06:00	15650	118	-64.9	-84.2	353	9
2023-09-07T06:00	15673	117	-64.6		355	9
2023-09-07T06:00	15691	117	-64.5	-83.9	355	9
2023-09-07T06:00	15712	116	-64.5	-83.9	354	8
2023-09-07T06:00	15734	116	-64.7	-84.1	351	8
2023-09-07T06:00	15754	116	-64.8	-84.2	347	8
2023-09-07T06:00	15777	115	-64.9	-84.2	342	8
2023-09-07T06:00	15796	115	-64.9	-84.2	338	8
2023-09-07T06:00	15820	114	-64.9	-84.2	336	8
2023-09-07T06:00	15839	114	-65.0	-84.3	335	9
2023-09-07T06:00	15860	114	-64.7	-84.1	336	9
2023-09-07T06:00	15881	113	-64.5	-84.0	338	9
2023-09-07T06:00	15902	113	-64.6	-84.1	339	9
2023-09-07T06:00	15923	112	-64.6	-84.2	340	8
2023-09-07T06:00	15945	112	-64.2	-84.2	341	8
2023-09-07T06:00	15963	112	-64.0	-84.3	339	7
2023-09-07T06:00	15986	111	-63.8	-84.2	337	6
2023-09-07T06:00	16007	111	-63.6	-84.4	332	5
2023-09-07T06:00	16028	111	-63.5	-84.4	327	5
2023-09-07T06:00	16047	110	-63.5	-84.4	322	4
2023-09-07T06:00	16070	110	-63.5	-84.6	318	4
2023-09-07T06:00	16090	109	-63.5	-84.6	316	5
2023-09-07T06:00	16112	109	-63.3	-84.6	314	5
2023-09-07T06:00	16135	109	-63.1	-84.6	313	6
2023-09-07T06:00	16156	108	-62.8	-84.3	312	6
2023-09-07T06:00	16181	108	-62.8	-84.5	312	7
2023-09-07T06:00	16205	107	-62.8	-84.5	312	8
2023-09-07T06:00	16227	107	-62.9	-84.6	313	8
2023-09-07T06:00	16247	107	-62.9	-84.6	315	9
2023-09-07T06:00	16270	106	-62.8	-84.5	318	9
2023-09-07T06:00	16292	106	-62.5	-84.2	322	8
2023-09-07T06:00	16313	106	-62.5	-84.4	326	8
2023-09-07T06:00	16338	105	-62.6	-84.5	331	8
2023-09-07T06:00	16360	105	-62.7	-84.6	334	7
2023-09-07T06:00	16380	104	-62.7	-84.6	336	7
2023-09-07T06:00	16405	104	-62.8	-84.6	336	7
2023-09-07T06:00	16427	104	-62.7	-84.7	334	7
2023-09-07T06:00	16450	103	-62.6	-84.8	331	7
2023-09-07T06:00	16470	103	-62.5	-84.8	328	7
2023-09-07T06:00	16494	103	-62.4	-84.7	324	7
2023-09-07T06:00	16514	102	-62.6	-84.8	321	7
2023-09-07T06:00	16538	102	-62.7	-84.9	318	7
2023-09-07T06:00	16560	101	-62.9	-84.9	317	7
2023-09-07T06:00	16582	101	-63.0	-85.0	317	7
2023-09-07T06:00	16604	101	-63.1	-85.1	318	7
2023-09-07T06:00	16628	100	-63.0	-85.0	320	7
2023-09-07T06:00	16650	100	-62.8	-85.0	322	7
2023-09-07T06:00	16674	100	-62.8	-85.0	323	7
2023-09-07T06:00	16698	99	-62.9	-85.3	323	7
2023-09-07T06:00	16718	99	-62.9	-85.3	322	7
2023-09-07T06:00	16744	98	-62.6	-85.2	321	7
2023-09-07T06:00	16767	98	-62.4	-85.1	320	7
2023-09-07T06:00	16789	98	-62.5	-85.3	321	7
2023-09-07T06:00	16814	97	-62.3	-85.4	323	8
2023-09-07T06:00	16836	97	-62.0	-85.1	325	8
2023-09-07T06:00	16860	97	-61.9	-85.3	326	9
2023-09-07T06:00	16883	96	-61.9	-85.3	327	9
2023-09-07T06:00	16905	96	-62.1	-85.4	327	10
2023-09-07T06:00	16931	95	-62.2	-85.5	328	10
2023-09-07T06:00	16954	95	-62.3	-85.4	330	10
2023-09-07T06:00	16974	95	-62.5	-85.7	332	10
2023-09-07T06:00	16998	94	-62.4	-85.7	334	9
2023-09-07T06:00	17023	94	-62.0	-85.3	335	8
2023-09-07T06:00	17043	94	-62.0	-85.6	335	8
2023-09-07T06:00	17068	93	-61.9	-85.5	334	7
2023-09-07T06:00	17090	93	-62.1	-85.6	334	7
2023-09-07T06:00	17112	93	-62.2	-85.7	334	6
2023-09-07T06:00	17140	92	-62.3	-85.8	336	6
2023-09-07T06:00	17161	92	-62.3	-85.8	340	6
2023-09-07T06:00	17179	92	-62.0	-85.6	345	6
2023-09-07T06:00	17205	91	-62.0	-85.6	351	6
2023-09-07T06:00	17225	91	-62.3	-86.0	356	6
2023-09-07T06:00	17249	91	-62.2	-85.9	1	5
2023-09-07T06:00	17270	90	-61.9	-85.7	5	5
2023-09-07T06:00	17293	90	-61.8	-85.6	9	5
2023-09-07T06:00	17313	90	-61.9	-85.7	14	5
2023-09-07T06:00	17336	89	-62.0	-85.8	18	5
2023-09-07T06:00	17355	89	-62.0	-85.8	22	4
2023-09-07T06:00	17380	89	-62.0	-85.8	28	4
2023-09-07T06:00	17397	89	-61.9	-85.9	35	4
2023-09-07T06:00	17419	88	-61.9	-85.9	43	4
2023-09-07T06:00	17441	88	-61.8	-85.9	50	4
2023-09-07T06:00	17463	88	-61.6	-85.9	53	4
2023-09-07T06:00	17485	87	-61.6	-85.9	53	4
2023-09-07T06:00	17506	87	-61.6	-85.9	52	5
2023-09-07T06:00	17526	87	-61.6	-85.9	50	5
2023-09-07T06:00	17550	86	-61.7	-86.0	48	5
2023-09-07T06:00	17572	86	-61.6	-86.2	46	4
2023-09-07T06:00	17596	86	-61.5	-86.1	45	4
2023-09-07T06:00	17618	85	-61.2	-85.9	44	3
2023-09-07T06:00	17639	85	-61.2	-85.9	43	3
2023-09-07T06:00	17661	85	-61.2	-85.9	41	2
2023-09-07T06:00	17684	85	-61.4	-86.0	35	2
2023-09-07T06:00	17705	84	-61.6	-85.9	27	2
2023-09-07T06:00	17727	84	-61.8	-86.1	14	2
2023-09-07T06:00	17752	84	-61.9	-86.2	2	2
2023-09-07T06:00	17773	83	-62.1	-86.3	350	2
2023-09-07T06:00	17795	83	-62.1	-86.3	341	2
2023-09-07T06:00	17819	83	-61.9	-86.2	334	3
2023-09-07T06:00	17840	82	-61.9	-86.2	329	3
2023-09-07T06:00	17862	82	-62.0	-86.5	326	4
2023-09-07T06:00	17886	82	-61.9	-86.4	327	4
2023-09-07T06:00	17908	82	-61.9	-86.4	330	4
2023-09-07T06:00	17929	81	-62.0	-86.5	335	5
2023-09-07T06:00	17951	81	-61.8	-86.4	341	5
2023-09-07T06:00	17978	81	-61.7	-86.5	347	5
2023-09-07T06:00	17999	80	-61.5	-86.4	352	5
2023-09-07T06:00	18020	80	-61.5	-86.4	357	5
2023-09-07T06:00	18044	80	-61.6	-86.5	3	5
2023-09-07T06:00	18069	79	-61.7	-86.5	10	5
2023-09-07T06:00	18091	79	-61.8	-86.6	18	5
2023-09-07T06:00	18116	79	-61.7	-86.5	26	5
2023-09-07T06:00	18140	79	-61.7	-86.5	33	5
2023-09-07T06:00	18165	78	-61.5	-86.4	40	4
2023-09-07T06:00	18187	78	-61.5	-86.4	46	4
2023-09-07T06:00	18209	78	-61.6	-86.5	52	3
2023-09-07T06:00	18229	77	-61.7	-86.5	59	3
2023-09-07T06:00	18254	77	-61.8	-86.6	70	2
2023-09-07T06:00	18278	77	-61.9	-86.7	92	1
2023-09-07T06:00	18299	77	-61.6	-86.5	135	1
2023-09-07T06:00	18326	76	-61.6	-86.7	175	1
2023-09-07T06:00	18351	76	-61.6	-86.7	194	2
2023-09-07T06:00	18372	76	-61.6	-86.7	204	2
2023-09-07T06:00	18398	75	-61.6	-86.7	212	2
2023-09-07T06:00	18419	75	-61.4	-86.9	222	2
2023-09-07T06:00	18443	75	-61.3	-86.8	239	2
2023-09-07T06:00	18467	75	-61.4	-86.9	265	1
2023-09-07T06:00	18491	74	-61.1	-86.6	293	2
2023-09-07T06:00	18512	74	-60.8		311	2
2023-09-07T06:00	18533	74	-60.7	-86.6	323	3
2023-09-07T06:00	18558	73	-60.7	-86.6	331	3
2023-09-07T06:00	18582	73	-60.9	-86.8	336	4
2023-09-07T06:00	18607	73	-60.9	-86.8	340	4
2023-09-07T06:00	18624	73	-60.8		340	5
2023-09-07T06:00	18651	72	-60.7	-86.6	338	5
2023-09-07T06:00	18673	72	-60.5	-86.5	333	4
2023-09-07T06:00	18695	72	-60.5	-86.5	325	4
2023-09-07T06:00	18721	72	-60.4		318	4
2023-09-07T06:00	18744	71	-60.4		313	4
2023-09-07T06:00	18762	71	-60.5	-86.5	311	4
2023-09-07T06:00	18787	71	-60.3	-86.7	312	5
2023-09-07T06:00	18805	71	-60.1	-86.5	316	5
2023-09-07T06:00	18831	70	-59.8	-86.6	321	6
2023-09-07T06:00	18857	70	-59.5	-86.4	326	6
2023-09-07T06:00	18877	70	-59.3	-86.2	331	7
2023-09-07T06:00	18897	70	-59.2	-86.2	334	7
2023-09-07T06:00	18924	69	-59.3	-86.2	337	7
2023-09-07T06:00	18943	69	-59.3	-86.2	339	7
2023-09-07T06:00	18966	69	-59.3	-86.2	340	7
2023-09-07T06:00	18992	68	-59.2	-86.2	339	7
2023-09-07T06:00	19015	68	-59.1		338	6
2023-09-07T06:00	19036	68	-59.0	-86.0	337	6
2023-09-07T06:00	19057	68	-59.0	-86.4	337	6
2023-09-07T06:00	19082	68	-58.9	-86.3	338	6
2023-09-07T06:00	19105	67	-58.8	-86.2	340	6
2023-09-07T06:00	19131	67	-58.7	-86.1	343	6
2023-09-07T06:00	19153	67	-58.4	-85.9	346	6
2023-09-07T06:00	19174	67	-58.3	-85.8	349	6
2023-09-07T06:00	19199	66	-58.2	-86.2	352	7
2023-09-07T06:00	19220	66	-58.1		355	7
2023-09-07T06:00	19248	66	-58.2	-85.8	359	7
2023-09-07T06:00	19270	66	-58.3	-85.8	1	7
2023-09-07T06:00	19290	65	-58.1	-85.7	3	7
2023-09-07T06:00	19315	65	-58.0	-85.6	4	7
2023-09-07T06:00	19338	65	-58.0	-85.6	3	7
2023-09-07T06:00	19361	65	-58.1	-85.7	2	7
2023-09-07T06:00	19383	64	-58.2	-85.8	360	7
2023-09-07T06:00	19410	64	-58.3	-85.8	358	7
2023-09-07T06:00	19430	64	-58.3	-86.2	358	6
2023-09-07T06:00	19456	64	-58.0	-86.0	358	6
2023-09-07T06:00	19479	63	-57.7	-85.8	359	6
2023-09-07T06:00	19503	63	-57.6	-85.7	0	6
2023-09-07T06:00	19528	63	-57.5	-85.6	1	6
2023-09-07T06:00	19550	63	-57.6	-85.3	0	6
2023-09-07T06:00	19573	62	-57.8	-85.5	359	6
2023-09-07T06:00	19600	62	-58.1	-85.7	358	6
2023-09-07T06:00	19625	62	-58.3	-85.8	358	6
2023-09-07T06:00	19649	62	-58.5	-85.6	358	6
2023-09-07T06:00	19670	61	-58.6	-85.7	360	6
2023-09-07T06:00	19698	61	-58.5	-85.6	1	6
2023-09-07T06:00	19723	61	-58.6	-85.7	3	6
2023-09-07T06:00	19747	61	-58.8	-85.9	6	6
2023-09-07T06:00	19769	61	-59.0	-86.0	9	6
2023-09-07T06:00	19795	60	-59.3	-85.9	13	6
2023-09-07T06:00	19818	60	-59.5	-86.0	16	6
2023-09-07T06:00	19841	60	-59.6	-86.5	18	6
2023-09-07T06:00	19871	60	-59.5	-86.4	18	5
2023-09-07T06:00	19892	59	-59.4	-86.3	17	5
2023-09-07T06:00	19915	59	-59.2	-86.5	14	5
2023-09-07T06:00	19939	59	-58.9	-86.3	11	5
2023-09-07T06:00	19968	59	-58.8	-86.2	7	5
2023-09-07T06:00	19989	58	-58.8	-86.2	4	5
2023-09-07T06:00	20011	58	-58.9	-86.3	2	5
2023-09-07T06:00	20038	58	-58.9	-86.3	0	5
2023-09-07T06:00	20057	58	-58.9	-86.3	0	5
2023-09-07T06:00	20084	58	-58.9	-86.3	2	5
2023-09-07T06:00	20113	57	-58.9	-86.3	5	5
2023-09-07T06:00	20133	57	-58.8	-86.2	8	5
2023-09-07T06:00	20157	57	-58.7	-86.1	12	5
2023-09-07T06:00	20186	57	-58.8	-86.2	16	5
2023-09-07T06:00	20206	56	-58.8	-86.2	18	5
2023-09-07T06:00	20236	56	-58.5	-86.4	20	4
2023-09-07T06:00	20261	56	-58.1		20	4
2023-09-07T06:00	20283	56	-58.0	-86.0	17	4
2023-09-07T06:00	20301	56	-58.1	-86.5	10	3
2023-09-07T06:00	20329	55	-57.9	-86.4	357	2
2023-09-07T06:00	20355	55	-57.8	-86.3	338	2
2023-09-07T06:00	20377	55	-57.8	-86.3	320	2
2023-09-07T06:00	20401	55	-57.7	-86.2	309	2
2023-09-07T06:00	20423	55	-57.3	-85.9	304	2
2023-09-07T06:00	20447	54	-57.2	-85.8	302	2
2023-09-07T06:00	20474	54	-57.3	-85.9	302	2
2023-09-07T06:00	20494	54	-57.4	-86.0	301	3
2023-09-07T06:00	20520	54	-57.4	-86.0	302	3
2023-09-07T06:00	20540	54	-57.3	-85.9	303	3
2023-09-07T06:00	20567	53	-57.0	-85.7	305	4
2023-09-07T06:00	20584	53	-56.9	-85.6	307	4
2023-09-07T06:00	20611	53	-56.9	-85.6	309	4
2023-09-07T06:00	20636	53	-57.0	-85.7	312	4
2023-09-07T06:00	20660	53	-56.8	-85.5	316	4
2023-09-07T06:00	20678	52	-56.6	-85.4	321	4
2023-09-07T06:00	20701	52	-56.6	-85.4	326	4
2023-09-07T06:00	20727	52	-56.6	-85.4	330	4
2023-09-07T06:00	20751	52	-56.7	-85.4	333	3
2023-09-07T06:00	20774	52	-56.7	-85.4	335	3
2023-09-07T06:00	20801	51	-56.7	-85.4	335	3
2023-09-07T06:00	20821	51	-56.7	-85.4	335	3
2023-09-07T06:00	20845	51	-56.8	-85.5	333	3
2023-09-07T06:00	20871	51	-56.9	-85.6	329	3
2023-09-07T06:00	20895	51	-57.0	-85.7	325	3
2023-09-07T06:00	20914	50	-57.0	-85.2	319	3
2023-09-07T06:00	20939	50	-57.0	-85.2	314	2
2023-09-07T06:00	20963	50	-57.0	-85.2	310	2
2023-09-07T06:00	20989	50	-57.0	-85.2	309	2
2023-09-07T06:00	21013	50	-57.1	-85.3	311	2
2023-09-07T06:00	21037	50	-57.2	-85.4	315	2
2023-09-07T06:00	21058	49	-57.3	-85.9	318	2
2023-09-07T06:00	21085	49	-57.3	-85.9	319	2
2023-09-07T06:00	21107	49	-57.0	-85.7	319	3
2023-09-07T06:00	21133	49	-56.9	-85.6	318	3
2023-09-07T06:00	21159	49	-56.9	-85.6	318	3
2023-09-07T06:00	21178	48	-57.0	-85.7	318	4
2023-09-07T06:00	21208	48	-57.0	-85.7	319	4
2023-09-07T06:00	21232	48	-57.0	-85.7	320	5
2023-09-07T06:00	21258	48	-57.2	-85.8	320	5
2023-09-07T06:00	21282	48	-57.2	-85.8	320	5
2023-09-07T06:00	21303	47	-57.2	-85.8	321	5
2023-09-07T06:00	21330	47	-57.1	-85.7	322	5
2023-09-07T06:00	21359	47	-57.1	-85.7	323	5
2023-09-07T06:00	21382	47	-57.0	-85.7	324	5
2023-09-07T06:00	21405	47	-56.9	-85.6	324	5
2023-09-07T06:00	21430	47	-56.9	-85.6	324	5
2023-09-07T06:00	21459	46	-57.0	-85.7	325	6
2023-09-07T06:00	21481	46	-57.1	-85.7	328	6
2023-09-07T06:00	21509	46	-57.2	-85.4	332	6
2023-09-07T06:00	21536	46	-57.5	-85.6	338	6
2023-09-07T06:00	21563	46	-57.6	-85.7	344	7
2023-09-07T06:00	21584	45	-57.7	-85.8	350	7
2023-09-07T06:00	21611	45	-57.7	-85.8	355	7
2023-09-07T06:00	21638	45	-57.6	-85.7	360	7
2023-09-07T06:00	21657	45	-57.5	-85.6	4	7
2023-09-07T06:00	21687	45	-57.6	-85.7	8	7
2023-09-07T06:00	21711	44	-57.7	-85.8	13	7
2023-09-07T06:00	21737	44	-57.8	-85.9	17	7
2023-09-07T06:00	21768	44	-58.0	-86.0	22	7
2023-09-07T06:00	21784	44	-58.0	-86.0	26	7
2023-09-07T06:00	21818	44	-57.9		28	7
2023-09-07T06:00	21844	44	-57.9		30	7
2023-09-07T06:00	21872	43	-57.9		30	7
2023-09-07T06:00	21892	43	-57.9		29	7
2023-09-07T06:00	21911	43	-57.9		28	6
2023-09-07T06:00	21940	43	-58.0	-86.0	27	6
2023-09-07T06:00	21969	43	-58.1		26	6
2023-09-07T06:00	21991	43	-57.9		26	6
2023-09-07T06:00	22022	42	-57.9		26	5
2023-09-07T06:00	22047	42	-58.0	-86.0	26	5
2023-09-07T06:00	22066	42	-58.1		26	5
2023-09-07T06:00	22096	42	-58.2	-86.2	25	5
2023-09-07T06:00	22117	42	-58.3	-85.8	24	5
2023-09-07T06:00	22149	42	-58.4	-85.9	23	5
2023-09-07T06:00	22173	41	-58.4	-85.9	24	5
2023-09-07T06:00	22199	41	-58.5	-86.0	26	5
2023-09-07T06:00	22222	41	-58.5	-86.0	29	5
2023-09-07T06:00	22253	41	-58.6	-86.1	33	5
2023-09-07T06:00	22278	41	-58.7	-86.1	38	5
2023-09-07T06:00	22296	41	-58.8	-86.2	43	5
2023-09-07T06:00	22326	40	-58.8	-86.2	47	5
2023-09-07T06:00	22347	40	-58.9	-86.3	51	5
2023-09-07T06:00	22370	40	-59.0	-86.4	51	4
2023-09-07T06:00	22399	40	-59.1	-86.5	49	4
2023-09-07T06:00	22427	40	-58.9	-86.3	40	3
2023-09-07T06:00	22453	40	-58.8	-86.2	24	2
2023-09-07T06:00	22480	39	-58.8	-86.2	5	2
2023-09-07T06:00	22497	39	-58.8	-86.6	353	3
2023-09-07T06:00	22522	39	-58.8	-86.6	349	3
2023-09-07T06:00	22546	39	-58.7	-86.5	351	3
2023-09-07T06:00	22575	39	-58.6	-86.5	354	4
2023-09-07T06:00	22603	39	-58.5	-86.4	359	4
2023-09-07T06:00	22623	38	-58.4	-86.3	3	4
2023-09-07T06:00	22651	38	-58.3	-86.2	7	4
2023-09-07T06:00	22679	38	-58.2	-86.6	10	4
2023-09-07T06:00	22702	38	-58.2	-86.6	12	4
2023-09-07T06:00	22732	38	-58.0	-86.4	12	4
2023-09-07T06:00	22759	38	-57.8	-86.3	10	4
2023-09-07T06:00	22779	38	-57.8	-86.3	6	4
2023-09-07T06:00	22802	37	-57.6	-86.1	1	4
2023-09-07T06:00	22832	37	-57.3	-86.4	360	4
2023-09-07T06:00	22862	37	-57.2	-86.3	2	4
2023-09-07T06:00	22882	37	-57.1	-86.2	7	4
2023-09-07T06:00	22912	37	-56.8	-86.0	15	4
2023-09-07T06:00	22928	37	-56.8	-86.0	22	5
2023-09-07T06:00	22967	36	-56.7	-85.9	29	5
2023-09-07T06:00	22986	36	-56.7	-85.9	37	5
2023-09-07T06:00	23014	36	-56.8	-86.0	46	4
2023-09-07T06:00	23039	36	-56.7	-85.9	57	4
2023-09-07T06:00	23066	36	-56.7	-85.9	70	4
2023-09-07T06:00	23095	36	-56.7	-85.4	81	3
2023-09-07T06:00	23119	36	-56.7	-85.4	90	3
2023-09-07T06:00	23144	35	-56.7	-85.4	97	2
2023-09-07T06:00	23174	35	-56.7	-85.9	104	2
2023-09-07T06:00	23198	35	-56.4	-85.7	119	1
2023-09-07T06:00	23227	35	-56.4	-85.7	178	1
2023-09-07T06:00	23254	35	-56.5	-85.3	234	1
2023-09-07T06:00	23279	35	-56.6	-85.4	246	2
2023-09-07T06:00	23312	35	-56.6	-85.4	249	2
2023-09-07T06:00	23331	34	-56.6	-85.4	249	2
2023-09-07T06:00	23358	34	-56.6	-85.4	247	2
2023-09-07T06:00	23387	34	-56.6	-85.4	244	1
2023-09-07T06:00	23412	34	-56.8	-85.5	235	1
2023-09-07T06:00	23447	34	-56.8	-85.5	209	0
2023-09-07T06:00	23467	34	-57.0	-85.7	175	1
2023-09-07T06:00	23492	34	-57.1	-85.7	172	1
2023-09-07T06:00	23522	33	-57.2	-85.8	179	1
2023-09-07T06:00	23546	33	-57.2	-85.8	187	2
2023-09-07T06:00	23570	33	-57.2	-85.8	195	2
2023-09-07T06:00	23598	33	-57.3	-85.9	205	2
2023-09-07T06:00	23628	33	-57.4	-86.0	219	2
2023-09-07T06:00	23647	33	-57.3	-85.9	234	3
2023-09-07T06:00	23679	33	-57.2	-85.8	248	3
2023-09-07T06:00	23703	32	-57.3	-85.9	259	4
2023-09-07T06:00	23724	32	-57.3	-85.9	268	4
2023-09-07T06:00	23754	32	-57.3	-85.9	276	4
2023-09-07T06:00	23784	32	-57.3	-85.9	285	4
2023-09-07T06:00	23813	32	-57.1	-86.2	297	3
2023-09-07T06:00	23838	32	-56.7	-85.9	311	3
2023-09-07T06:00	23854	32	-56.4	-85.7	324	4
2023-09-07T06:00	23890	32	-56.3	-85.6	332	4
2023-09-07T06:00	23915	31	-56.3	-85.6	337	5
2023-09-07T06:00	23940	31	-56.3	-85.6	340	5
2023-09-07T06:00	23964	31	-56.4	-85.7	344	6
2023-09-07T06:00	23996	31	-56.6	-85.8	347	6
2023-09-07T06:00	24027	31	-56.7	-85.9	351	6
2023-09-07T06:00	24057	31	-56.7	-85.9	355	6
2023-09-07T06:00	24075	31	-56.6	-85.8	357	6
2023-09-07T06:00	24099	30	-56.6	-85.8	358	5
2023-09-07T06:00	24128	30	-56.5	-85.8	357	5
2023-09-07T06:00	24157	30	-56.1	-85.5	353	4
2023-09-07T06:00	24179	30	-55.9	-85.3	345	3
2023-09-07T06:00	24213	30	-55.8	-85.7	332	3
2023-09-07T06:00	24239	30	-55.8	-85.7	320	3
2023-09-07T06:00	24263	30	-55.8	-85.2	315	3
2023-09-07T06:00	24289	30	-55.8	-85.2	316	4
2023-09-07T06:00	24326	29	-55.7	-85.7	321	4
2023-09-07T06:00	24349	29	-55.5	-85.5	327	5
2023-09-07T06:00	24370	29	-55.5	-85.5	333	6
2023-09-07T06:00	24410	29	-55.5	-85.0	340	6
2023-09-07T06:00	24425	29	-55.6	-85.1	345	6
2023-09-07T06:00	24455	29	-55.7	-85.2	350	7
2023-09-07T06:00	24490	29	-55.7	-85.2	353	7
2023-09-07T06:00	24517	29	-55.8	-85.2	355	6
2023-09-07T06:00	24539	28	-55.9	-85.3	354	6
2023-09-07T06:00	24561	28	-55.9	-85.3	350	6
2023-09-07T06:00	24597	28	-56.0		345	6
2023-09-07T06:00	24629	28	-56.1	-85.5	339	6
2023-09-07T06:00	24644	28	-56.1	-85.5	333	6
2023-09-07T06:00	24686	28	-56.1	-85.5	328	6
2023-09-07T06:00	24716	28	-56.1	-85.5	325	6
2023-09-07T06:00	24738	28	-56.0		323	6
2023-09-07T06:00	24762	28	-56.0		324	6
2023-09-07T06:00	24790	27	-55.9	-85.8	328	6
2023-09-07T06:00	24806	27	-55.6	-85.6	333	6
2023-09-07T06:00	24845	27	-55.3	-85.4	340	6
2023-09-07T06:00	24869	27	-55.4	-85.4	346	6
2023-09-07T06:00	24898	27	-55.5	-85.5	352	6
2023-09-07T06:00	24926	27	-55.7	-85.7	358	5
2023-09-07T06:00	24951	27	-55.6	-85.1	3	5
2023-09-07T06:00	24980	27	-55.3	-84.9	5	4
2023-09-07T06:00	25007	26	-55.3	-85.4	5	4
2023-09-07T06:00	25033	26	-55.4	-85.4	2	4
2023-09-07T06:00	25061	26	-55.2	-85.3	358	4
2023-09-07T06:00	25097	26	-54.8	-85.0	355	5
2023-09-07T06:00	25120	26	-54.3	-85.2	354	5
2023-09-07T06:00	25140	26	-54.3	-85.2	355	5
2023-09-07T06:00	25167	26	-54.4	-85.2	358	6
2023-09-07T06:00	25204	26	-54.4	-85.2	2	6
2023-09-07T06:00	25220	26	-54.3	-85.2	6	7
2023-09-07T06:00	25253	25	-54.0	-84.9	10	7
2023-09-07T06:00	25272	25	-53.9	-84.9	13	7
2023-09-07T06:00	25308	25	-53.9	-84.9	14	8
2023-09-07T06:00	25337	25	-53.9	-84.3	14	8
2023-09-07T06:00	25366	25	-53.9	-84.3	14	8
2023-09-07T06:00	25398	25	-54.0	-84.4	14	8
2023-09-07T06:00	25416	25	-54.2	-84.5	15	8
2023-09-07T06:00	25445	25	-54.4	-84.7	17	9
2023-09-07T06:00	25475	25	-54.6	-84.8	19	9
2023-09-07T06:00	25504	24	-54.7	-84.9	22	9
2023-09-07T06:00	25531	24	-54.6	-84.8	25	9
2023-09-07T06:00	25558	24	-54.2	-84.5	26	8
2023-09-07T06:00	25595	24	-53.9	-84.9	26	8
2023-09-07T06:00	25614	24	-53.9	-84.9	26	7
2023-09-07T06:00	25637	24	-53.7	-84.7	24	6
2023-09-07T06:00	25674	24	-53.4	-85.1	22	5
2023-09-07T06:00	25700	24	-52.9	-84.7	21	4
2023-09-07T06:00	25716	24	-52.8	-84.7	21	4
2023-09-07T06:00	25747	24	-52.8	-84.7	23	3
2023-09-07T06:00	25774	23	-52.8	-84.1	29	2
2023-09-07T06:00	25801	23	-52.8	-84.1	39	2
2023-09-07T06:00	25833	23	-52.8	-84.1	59	1
2023-09-07T06:00	25863	23	-52.8	-84.1	92	1
2023-09-07T06:00	25888	23	-52.8	-84.1	124	1
2023-09-07T06:00	25908	23	-52.7	-84.0	143	1
2023-09-07T06:00	25938	23	-52.5	-83.8	153	1
2023-09-07T06:00	25965	23	-52.3	-83.7	158	1
2023-09-07T06:00	25990	23	-52.3	-83.7	159	1
2023-09-07T06:00	26021	23	-52.4	-83.8	155	1
2023-09-07T06:00	26052	22	-52.3	-83.7	149	1
2023-09-07T06:00	26071	22	-52.3	-83.7	146	1
2023-09-07T06:00	26106	22	-52.3	-83.7	155	1
2023-09-07T06:00	26132	22	-52.4	-83.8	175	1
2023-09-07T06:00	26168	22	-52.3	-83.7	194	1
2023-09-07T06:00	26195	22	-52.3	-83.7	202	1
2023-09-07T06:00	26223	22	-52.3	-83.7	201	1
2023-09-07T06:00	26249	22	-52.3	-83.7	192	1
2023-09-07T06:00	26277	22	-52.1	-84.2	174	1
2023-09-07T06:00	26306	22	-51.9	-84.0	153	1
2023-09-07T06:00	26334	22	-51.8	-83.9	135	1
2023-09-07T06:00	26364	21	-51.9	-84.0	123	1
2023-09-07T06:00	26390	21	-52.0	-84.1	118	1
2023-09-07T06:00	26413	21	-52.1	-84.2	121	1
2023-09-07T06:00	26445	21	-52.0	-84.1	131	1
2023-09-07T06:00	26487	21	-51.8	-83.9	142	2
2023-09-07T06:00	26502	21	-51.6	-83.8	149	2
2023-09-07T06:00	26533	21	-51.6	-83.8	153	3
2023-09-07T06:00	26557	21	-51.6	-83.8	155	3
2023-09-07T06:00	26588	21	-51.5	-83.7	158	4
2023-09-07T06:00	26616	21	-51.3	-83.6	161	4
2023-09-07T06:00	26654	21	-51.2	-83.5	166	4
2023-09-07T06:00	26669	20	-51.2	-83.5	173	4
2023-09-07T06:00	26698	20	-51.1	-83.4	182	4
2023-09-07T06:00	26732	20	-50.9	-84.0	190	4
2023-09-07T06:00	26768	20	-50.3	-83.5	196	4
2023-09-07T06:00	26785	20	-49.7	-83.1	200	4
2023-09-07T06:00	26821	20	-49.4	-82.9	202	4
2023-09-07T06:00	26844	20	-49.3	-82.8	204	4
2023-09-07T06:00	26874	20	-49.2	-82.7	207	4
2023-09-07T06:00	26902	20	-49.0	-82.6	211	3
2023-09-07T06:00	26921	20	-48.9	-82.5	215	3
2023-09-07T06:00	26959	20	-48.9	-82.5	217	3
2023-09-07T06:00	26975	19	-48.8	-82.4	220	3
2023-09-07T06:00	27009	19	-48.5	-82.2	222	2
2023-09-07T06:00	27046	19	-48.3	-82.1	226	2
2023-09-07T06:00	27074	19	-48.2	-82.0	231	3
2023-09-07T06:00	27104	19	-48.2	-82.8	237	3
2023-09-07T06:00	27135	19	-48.2	-82.8	241	3
2023-09-07T06:00	27154	19	-48.0	-82.7	243	4
2023-09-07T06:00	27185	19	-47.7	-82.4	244	5
2023-09-07T06:00	27211	19	-47.5	-82.3	244	5
2023-09-07T06:00	27239	19	-47.4	-82.2	245	6
2023-09-07T06:00	27266	19	-47.4	-82.2	245	6
2023-09-07T06:00	27304	19	-47.3	-82.2	245	6
2023-09-07T06:00	27328	19	-47.3	-82.2	245	7
2023-09-07T06:00	27350	18	-47.4	-82.2	245	7
2023-09-07T06:00	27380	18	-47.4	-82.2	244	7
2023-09-07T06:00	27413	18	-47.3	-82.2	244	8
2023-09-07T06:00	27443	18	-47.3	-82.2	244	8
2023-09-07T06:00	27468	18	-47.3	-82.2	246	8
2023-09-07T06:00	27499	18	-47.2	-82.1	250	8
2023-09-07T06:00	27521	18	-47.1	-82.0	256	8
2023-09-07T06:00	27556	18	-47.1	-82.0	262	8
2023-09-07T06:00	27592	18	-47.1	-82.0	267	8
2023-09-07T06:00	27615	18	-47.1	-82.0	271	9
2023-09-07T06:00	27657	18	-47.1	-82.0	275	9
2023-09-07T06:00	27669	18	-47.1	-81.2	278	10
2023-09-07T06:00	27706	17	-47.2	-81.3	281	10
2023-09-07T06:00	27730	17	-47.4	-81.4	284	10
2023-09-07T06:00	27752	17	-47.5	-81.5	288	11
2023-09-07T06:00	27800	17	-47.7	-81.6	292	11
2023-09-07T06:00	27818	17	-47.8	-81.7	296	12
2023-09-07T06:00	27845	17	-47.9	-81.8	299	12
2023-09-07T06:00	27885	17	-48.0	-81.9	302	13
2023-09-07T06:00	27921	17	-48.1	-81.9	305	13
2023-09-07T06:00	27936	17	-48.3	-82.1	306	13
2023-09-07T06:00	27966	17	-48.5	-82.2	307	13
2023-09-07T06:00	27993	17	-48.5	-82.2	307	12
2023-09-07T06:00	28029	17	-48.4	-82.2	307	11
2023-09-07T06:00	28065	17	-48.3	-82.1	305	10
2023-09-07T06:00	28084	16	-48.2	-82.0	303	9
2023-09-07T06:00	28108	16	-48.3	-82.1	300	8
2023-09-07T06:00	28151	16	-48.2	-82.0	296	8
2023-09-07T06:00	28187	16	-48.1	-81.9	293	7
2023-09-07T06:00	28209	16	-48.2	-82.8	290	7
2023-09-07T06:00	28244	16	-48.2	-82.8	289	7
2023-09-07T06:00	28264	16	-48.1	-82.7	291	7
2023-09-07T06:00	28292	16	-48.1	-82.7	294	8
2023-09-07T06:00	28322	16	-48.1	-82.7	298	9
2023-09-07T06:00	28356	16	-48.0	-82.7	302	9
2023-09-07T06:00	28376	16	-47.8	-82.5	306	10
2023-09-07T06:00	28414	16	-47.8	-82.5	309	10
2023-09-07T06:00	28444	16	-47.8	-82.5	312	10
2023-09-07T06:00	28474	16	-47.7	-82.4	314	9
2023-09-07T06:00	28505	15	-47.5	-82.3	315	9
2023-09-07T06:00	28532	15	-47.1	-82.0	317	8
2023-09-07T06:00	28553	15	-46.9	-81.9	317	8
2023-09-07T06:00	28592	15	-46.7	-81.7	318	7
2023-09-07T06:00	28623	15	-46.6	-81.7	319	7
2023-09-07T06:00	28650	15	-46.5	-81.6	319	7
2023-09-07T06:00	28681	15	-46.5	-81.6	320	7
2023-09-07T06:00	28714	15	-46.6	-81.7	321	7
2023-09-07T06:00	28746	15	-46.8	-81.8	322	7
2023-09-07T06:00	28760	15	-47.0	-81.9	324	6
2023-09-07T06:00	28807	15	-47.2	-82.1	326	6
2023-09-07T06:00	28839	15	-47.5	-81.5	328	6
2023-09-07T06:00	28854	15	-47.7	-81.6	328	6
2023-09-07T06:00	28899	15	-47.9	-81.8	325	6
2023-09-07T06:00	28923	15	-47.9	-81.8	321	6
2023-09-07T06:00	28953	14	-47.9	-81.8	316	6
2023-09-07T06:00	28972	14	-48.1	-82.7	311	6
2023-09-07T06:00	29022	14	-48.1	-82.7	308	7
2023-09-07T06:00	29035	14	-48.2	-82.8	305	7
2023-09-07T06:00	29064	14	-48.1	-82.7	303	8
2023-09-07T06:00	29110	14	-48.0	-82.7	302	8
2023-09-07T06:00	29112	14	-47.9	-82.6	301	8
2023-09-07T06:00	29160	14	-47.8	-82.5	302	8
2023-09-07T06:00	29202	14	-47.8	-82.5	305	8
2023-09-07T06:00	29208	14	-47.8	-82.5	309	8
2023-09-07T06:00	29253	14	-47.8	-82.5	315	7
2023-09-07T06:00	29275	14	-47.5	-82.3	322	7
2023-09-07T06:00	29312	14	-47.2	-82.1	329	7
2023-09-07T06:00	29339	14	-47.2	-82.1	335	7
2023-09-07T06:00	29360	14	-47.1	-82.0	341	7
2023-09-07T06:00	29388	14	-47.0	-81.9	346	7
2023-09-07T06:00	29432	13	-46.9	-81.9	349	7
2023-09-07T06:00	29475	13	-46.7	-82.6	351	6
2023-09-07T06:00	29490	13	-46.6	-82.6	352	6
2023-09-07T06:00	29515	13	-46.5	-82.5	350	6
2023-09-07T06:00	29543	13	-46.5	-82.5	348	5
2023-09-07T06:00	29575	13	-46.6	-81.7	345	5
2023-09-07T06:00	29614	13	-46.8	-81.8	342	4
2023-09-07T06:00	29628	13	-46.8	-81.8	342	4
2023-09-07T06:00	29674	13	-46.9	-81.9	343	3
2023-09-07T06:00	29706	13	-47.0	-81.9	344	3
2023-09-07T06:00	29719	13	-47.1	-82.0	345	2
2023-09-07T06:00	29762	13	-47.4	-82.2	344	2
2023-09-07T06:00	29788	13	-47.5	-82.3	341	1
2023-09-07T06:00	29809	13	-47.5	-82.3	335	1
2023-09-07T06:00	29841	13	-47.7	-82.4	312	0
2023-09-07T06:00	29881	13	-47.9	-82.6	174	0
2023-09-07T06:00	29905	13	-48.1	-82.7	170	1
2023-09-07T06:00	29931	12	-48.2	-82.8	176	1
2023-09-07T06:00	29962	12	-48.3	-82.9	187	2
2023-09-07T06:00	29997	12	-48.4	-82.9	202	2
2023-09-07T06:00	30030	12	-48.5	-83.0	219	2
2023-09-07T06:00	30072	12	-48.3	-82.9	245	3
2023-09-07T06:00	30105	12	-48.1	-82.7	250	3
2023-09-07T06:00	30130	12	-47.9	-82.6	251	3
2023-09-07T06:00	30168	12	-47.8	-82.5	244	2
2023-09-07T06:00	30201	12	-47.6	-83.3	230	2
2023-09-07T06:00	30233	12	-47.5	-83.2	212	2
2023-09-07T06:00	30242	12	-47.3	-83.1	199	2
2023-09-07T06:00	30286	12	-47.0	-82.9	195	3
2023-09-07T06:00	30315	12	-46.9	-82.8	198	3
2023-09-07T06:00	30347	12	-46.9	-82.8	205	3
2023-09-07T06:00	30351	12	-47.0	-82.9	214	3
2023-09-07T06:00	30398	12	-46.9	-82.8	224	4
2023-09-07T06:00	30438	12	-46.7	-82.6	234	4
2023-09-07T06:00	30456	12	-46.6	-82.6	243	4
2023-09-07T06:00	30489	11	-46.5	-82.5	250	4
2023-09-07T06:00	30539	11	-46.4	-82.4	254	5
2023-09-07T06:00	30581	11	-46.3	-82.4	257	5
2023-09-07T06:00	30603	11	-46.4	-82.4	256	6
2023-09-07T06:00	30639	11	-46.6	-82.6	255	6
2023-09-07T06:00	30647	11	-46.9	-82.8	255	7
2023-09-07T06:00	30685	11	-47.0	-82.9	256	7
2023-09-07T06:00	30722	11	-47.0	-82.9	257	7
2023-09-07T06:00	30747	11	-47.0	-82.9	258	7
2023-09-07T06:00	30786	11	-46.9	-82.8	260	7
2023-09-07T06:00	30801	11	-46.8	-82.7	260	7
2023-09-07T06:00	30839	11	-46.8	-82.7	260	7
2023-09-07T06:00	30868	11	-46.8	-82.7	259	7
2023-09-07T06:00	30892	11	-46.7	-82.6	258	6
2023-09-07T06:00	30902	11	-46.8	-82.7	257	6
2023-09-07T06:00	30965	11	-46.9	-82.8	258	6
2023-09-07T06:00	30970	11	-47.0	-82.9	259	6
2023-09-07T06:00	31012	11	-47.1	-82.9	261	6
2023-09-07T06:00	31038	11	-47.2	-82.1	264	6
2023-09-07T06:00	31074	11	-47.2	-83.0	269	6
2023-09-07T06:00	31099	10	-47.3	-83.1	273	6
2023-09-07T06:00	31139	10	-47.4	-83.1	278	6
2023-09-07T06:00	31165	10	-47.2	-83.0	281	6
2023-09-07T06:00	31180	10	-46.8	-82.7	284	5
2023-09-07T06:00	31234	10	-46.3	-82.4	287	5
2023-09-07T06:00	31258	10	-45.8	-83.1	292	5
2023-09-07T06:00	31271	10	-45.3	-82.7	298	4
2023-09-07T06:00	31305	10	-44.8	-82.4	306	3
2023-09-07T06:00	31321	10	-44.5	-82.2	317	3
2023-09-07T06:00	31371	10	-44.5	-82.2	328	3
2023-09-07T06:00	31395	10	-44.6	-82.2	339	2
2023-09-07T06:00	31428	10	-44.4	-82.1	345	2
2023-09-07T06:00	31467	10	-44.1	-81.9	346	2
2023-09-07T06:00	31482	10	-44.1	-81.9	343	2
2023-09-07T06:00	31528	10	-44.3	-82.0	338	2
2023-09-07T06:00	31556	10	-44.5	-82.2	333	2
2023-09-07T06:00	31601	10	-44.7	-81.2	329	2
2023-09-07T06:00	31617	10	-44.7	-81.2	325	3
2023-09-07T06:00	31635	10	-44.8	-81.3	321	3
2023-09-07T06:00	31663	10	-44.7	-81.2	319	4
2023-09-07T06:00	31693	10	-44.6	-82.2	317	4
2023-09-07T06:00	31708	10	-44.7	-82.3	315	4
2023-09-07T06:00	31772	9	-44.7	-82.3	313	4
2023-09-07T06:00	31789	9	-44.7	-82.3	311	4
2023-09-07T06:00	31820	9	-44.7	-82.3	308	4
2023-09-07T06:00	31842	9	-44.7	-82.3	305	4
2023-09-07T06:00	31854	9	-44.6	-82.2	302	4
2023-09-07T06:00	31907	9	-44.3	-82.0	302	4
2023-09-07T06:00	31932	9	-43.8	-81.7	305	4
2023-09-07T06:00	31962	9	-43.5	-81.5	312	4
2023-09-07T06:00	31991	9	-43.3	-81.3	321	4
2023-09-07T06:00	32002	9	-43.0	-81.1	330	4
2023-09-07T06:00	32054	9	-42.7	-80.9	337	5
2023-09-07T06:00	32087	9	-42.4	-80.7	342	5
2023-09-07T06:00	32092	9	-42.1	-80.5	346	5
2023-09-07T06:00	32114	9	-41.7	-80.2	349	6
2023-09-07T06:00	32150	9	-41.4	-80.0	351	6
2023-09-07T06:00	32183	9	-41.0	-79.7	351	6
2023-09-07T06:00	32209	9	-40.4	-79.3	350	6
2023-09-07T06:00	32225	9	-40.1	-79.1	348	5
2023-09-07T06:00	32251	9	-40.1	-79.1	343	4
2023-09-07T06:00	32258	9	-40.2	-79.2	336	3
2023-09-07T06:00	32336	9	-40.2	-79.2	325	3
2023-09-07T06:00	32338	9	-39.9	-79.0	308	2
2023-09-07T06:00	32354	9	-39.6	-78.8	288	2
2023-09-07T06:00	32413	9	-39.6	-78.8	273	2
2023-09-07T06:00	32452	9	-39.5	-78.7	264	2
2023-09-07T06:00	32487	9	-39.5	-78.7	260	2
2023-09-07T06:00	32510	9	-39.5	-78.7	259	2
2023-09-07T06:00	32547	8	-39.6	-78.8	258	3
2023-09-07T06:00	32585	8	-39.9	-79.0	259	3
2023-09-07T06:00	32623	8	-40.0	-79.0	261	3
2023-09-07T06:00	32649	8	-40.2	-79.2	264	4
2023-09-07T06:00	32680	8	-40.2	-79.2	266	4
2023-09-07T06:00	32689	8	-40.2	-79.2	268	4
2023-09-07T06:00	32736	8	-40.2	-79.2	270	4
2023-09-07T06:00	32780	8	-40.1	-79.1	272	4
2023-09-07T06:00	32814	8	-40.1	-79.1	273	4
2023-09-07T06:00	32827	8	-40.2	-79.2	274	4
2023-09-07T06:00	32846	8	-40.3	-79.2	276	4
2023-09-07T06:00	32890	8	-40.4	-79.3	279	4
2023-09-07T06:00	32930	8	-40.5	-79.4	283	4
2023-09-07T06:00	32946	8	-40.6	-79.5	286	5
2023-09-07T06:00	33003	8	-40.7	-79.5	289	5
2023-09-07T06:00	33027	8	-40.8	-79.6	291	5
2023-09-07T06:00	33058	8	-41.0	-79.7	292	5
2023-09-07T06:00	33091	8	-41.2	-79.9	293	5
2023-09-07T06:00	33156	8	-41.4	-80.0	293	6
2023-09-07T06:00	33189	8	-41.8	-80.3	294	6
2023-09-07T06:00	33209	8	-41.8	-80.3	295	6
2023-09-07T06:00	33255	8	-41.8	-80.3	294	6
2023-09-07T06:00	33302	8	-41.6	-80.1	293	6
2023-09-07T06:00	33311	8	-41.4	-80.0	291	5
2023-09-07T06:00	33345	8	-41.2	-79.9	287	5
2023-09-07T06:00	33390	7	-41.1	-79.8	282	4
2023-09-07T06:00	33423	7	-41.0	-79.7	275	3
2023-09-07T06:00	33461	7	-40.8	-79.6	270	3
2023-09-07T12:00	-999					
2023-09-07T12:00	137	1009	24.8	10.9	105	4
2023-09-07T12:00	166	1006	24.9	10.9	106	5
2023-09-07T12:00	190	1003	24.4	10.5	107	6
2023-09-07T12:00	217	1000	24.2	10.4	109	7
2023-09-07T12:00	244	997	24.1	10.5	110	7
2023-09-07T12:00	276	993	23.5	10.5	111	7
2023-09-07T12:00	299	990	23.0	10.4	111	7
2023-09-07T12:00	334	986	22.8	10.3	110	7
2023-09-07T12:00	367	983	22.3	10.3	108	7
2023-09-07T12:00	393	979	22.2	10.2	107	7
2023-09-07T12:00	426	976	21.9	10.2	107	7
2023-09-07T12:00	460	972	21.5	10.1	108	7
2023-09-07T12:00	486	969	21.4	10.2	111	6
2023-09-07T12:00	515	966	21.2	10.4	114	6
2023-09-07T12:00	546	963	20.8	10.2	116	6
2023-09-07T12:00	578	959	20.5	9.8	117	5
2023-09-07T12:00	596	957	20.3	9.6	117	5
2023-09-07T12:00	617	955	20.0	9.7	117	5
2023-09-07T12:00	638	952	19.8	9.5	119	5
2023-09-07T12:00	659	950	19.5	9.2	120	6
2023-09-07T12:00	686	947	19.2	9.1	120	6
2023-09-07T12:00	707	945	19.0	9.2	119	6
2023-09-07T12:00	725	943	19.0	8.8	115	5
2023-09-07T12:00	740	941	18.8	8.7	112	5
2023-09-07T12:00	760	939	18.6	8.2	110	6
2023-09-07T12:00	778	937	18.4	8.9	110	6
2023-09-07T12:00	793	935	18.3	8.3	112	6
2023-09-07T12:00	813	933	18.2	8.1	114	6
2023-09-07T12:00	828	932	18.2	7.3	115	6
2023-09-07T12:00	843	930	18.1	6.4	116	7
2023-09-07T12:00	863	928	18.1	6.3	117	7
2023-09-07T12:00	880	926	17.9	5.9	118	7
2023-09-07T12:00	901	924	17.8	5.6	121	7
2023-09-07T12:00	920	922	17.8	4.8	123	7
2023-09-07T12:00	934	920	17.7	4.4	124	7
2023-09-07T12:00	949	918	17.6	4.2	124	8
2023-09-07T12:00	967	916	17.4	4.1	123	8
2023-09-07T12:00	985	914	17.3	3.8	121	8
2023-09-07T12:00	1007	912	17.2	3.3	120	8
2023-09-07T12:00	1031	909	17.0	2.9	118	8
2023-09-07T12:00	1071	906	16.8	2.3	118	8
2023-09-07T12:00	1100	902	16.6	2.1	118	7
2023-09-07T12:00	1125	900	16.4	2.1	120	7
2023-09-07T12:00	1150	897	16.3	1.8	122	7
2023-09-07T12:00	1170	895	16.3	1.3	124	7
2023-09-07T12:00	1197	892	16.5	-1.6	126	7
2023-09-07T12:00	1221	890	17.1	1.9	129	7
2023-09-07T12:00	1245	887	17.6	-4.1	132	7
2023-09-07T12:00	1268	885	17.8	-10.9	136	7
2023-09-07T12:00	1291	882	17.8	-15.6	140	8
2023-09-07T12:00	1317	880	17.8	-18.6	141	8
2023-09-07T12:00	1338	877	17.7	-19.6	140	8
2023-09-07T12:00	1363	875	17.6	-20.1	138	8
2023-09-07T12:00	1390	872	17.5	-20.3	134	8
2023-09-07T12:00	1416	869	17.5	-19.3	130	8
2023-09-07T12:00	1435	868	17.5	-19.0	126	7
2023-09-07T12:00	1456	865	17.4	-18.0	122	7
2023-09-07T12:00	1480	863	17.3	-16.6	118	6
2023-09-07T12:00	1501	861	17.1	-10.1	114	6
2023-09-07T12:00	1518	859	17.0	-10.8	113	6
2023-09-07T12:00	1540	857	16.8	-9.1	113	6
2023-09-07T12:00	1567	854	16.8	-12.5	116	6
2023-09-07T12:00	1591	852	16.6	-7.9	120	6
2023-09-07T12:00	1616	849	16.7	-13.9	125	6
2023-09-07T12:00	1642	847	16.6	-16.5	129	6
2023-09-07T12:00	1670	844	16.5	-10.2	131	6
2023-09-07T12:00	1690	842	16.6	-14.3	133	6
2023-09-07T12:00	1715	839	16.7	-14.8	134	5
2023-09-07T12:00	1741	837	16.7	-16.2	134	5
2023-09-07T12:00	1769	834	16.5	-16.3	133	4
2023-09-07T12:00	1792	832	16.5	-17.9	130	4
2023-09-07T12:00	1822	829	16.4	-18.2	124	4
2023-09-07T12:00	1848	826	16.3	-17.8	117	4
2023-09-07T12:00	1874	824	16.3	-16.6	113	4
2023-09-07T12:00	1898	822	16.4	-17.1	112	4
2023-09-07T12:00	1919	819	16.3	-18.1	113	4
2023-09-07T12:00	1938	818	16.2	-20.0	113	4
2023-09-07T12:00	1957	816	16.2	-20.8	112	4
2023-09-07T12:00	1979	814	16.1	-20.9	108	4
2023-09-07T12:00	2000	811	16.1	-22.1	104	4
2023-09-07T12:00	2028	809	15.9	-22.5	101	4
2023-09-07T12:00	2055	806	15.6	-22.7	100	4
2023-09-07T12:00	2077	804	15.4	-22.8	99	5
2023-09-07T12:00	2095	802	15.3	-24.1	98	4
2023-09-07T12:00	2118	800	15.2	-25.7	96	4
2023-09-07T12:00	2145	798	15.1	-24.2	95	4
2023-09-07T12:00	2160	796	15.0	-23.8	99	4
2023-09-07T12:00	2181	794	14.9	-24.1	106	4
2023-09-07T12:00	2207	792	14.8	-25.2	113	4
2023-09-07T12:00	2228	790	14.7	-25.5	117	5
2023-09-07T12:00	2248	788	14.6	-25.3	119	6
2023-09-07T12:00	2266	786	14.6	-25.6	118	6
2023-09-07T12:00	2289	784	14.7	-26.7	117	6
2023-09-07T12:00	2311	782	14.6	-25.8	116	7
2023-09-07T12:00	2334	780	14.5	-26.8	117	7
2023-09-07T12:00	2361	778	14.4	-26.6	119	7
2023-09-07T12:00	2389	775	14.2	-25.8	123	7
2023-09-07T12:00	2414	773	14.0	-24.2	128	6
2023-09-07T12:00	2438	771	13.9	-22.7	133	5
2023-09-07T12:00	2457	769	13.8	-23.0	138	5
2023-09-07T12:00	2484	766	13.7	-24.6	140	4
2023-09-07T12:00	2510	764	13.6	-25.7	138	3
2023-09-07T12:00	2526	762	13.6	-24.0	131	3
2023-09-07T12:00	2547	760	13.4	-14.3	119	2
2023-09-07T12:00	2576	758	13.1	-13.0	108	2
2023-09-07T12:00	2598	756	12.9	-13.4	100	3
2023-09-07T12:00	2621	754	12.7	-14.1	97	3
2023-09-07T12:00	2639	752	12.6	-14.3	96	3
2023-09-07T12:00	2664	750	12.4	-14.5	95	3
2023-09-07T12:00	2692	748	12.1	-14.9	92	4
2023-09-07T12:00	2714	745	12.0	-14.9	88	4
2023-09-07T12:00	2738	743	11.8	-12.7	82	4
2023-09-07T12:00	2758	742	11.8	-18.4	77	4
2023-09-07T12:00	2782	740	11.7	-19.9	73	5
2023-09-07T12:00	2806	737	11.6	-24.9	70	5
2023-09-07T12:00	2830	735	11.7	-22.8	67	5
2023-09-07T12:00	2849	734	11.6	-21.9	63	5
2023-09-07T12:00	2865	732	11.5	-21.8	59	5
2023-09-07T12:00	2890	730	11.7	-24.0	56	5
2023-09-07T12:00	2914	728	11.6	-23.7	54	5
2023-09-07T12:00	2937	726	11.5	-24.7	55	5
2023-09-07T12:00	2962	724	11.3	-23.3	58	5
2023-09-07T12:00	2984	722	11.2	-22.2	65	4
2023-09-07T12:00	3011	720	11.0	-19.0	74	4
2023-09-07T12:00	3033	718	10.9	-18.3	83	3
2023-09-07T12:00	3051	716	10.8	-18.5	90	3
2023-09-07T12:00	3070	714	10.7	-17.5	93	3
2023-09-07T12:00	3095	712	10.5	-15.7	94	3
2023-09-07T12:00	3126	710	10.3	-18.3	94	4
2023-09-07T12:00	3147	708	10.2	-19.8	93	4
2023-09-07T12:00	3163	706	10.1	-19.7	91	5
2023-09-07T12:00	3186	704	9.9	-14.9	88	5
2023-09-07T12:00	3216	702	9.6	-14.5	85	5
2023-09-07T12:00	3238	700	9.5	-14.4	82	5
2023-09-07T12:00	3257	698	9.3	-14.0	80	5
2023-09-07T12:00	3281	697	9.1	-13.4	79	4
2023-09-07T12:00	3303	695	8.9	-13.5	80	4
2023-09-07T12:00	3322	693	8.7	-13.6	81	4
2023-09-07T12:00	3345	691	8.6	-14.3	82	4
2023-09-07T12:00	3376	689	8.4	-14.2	82	5
2023-09-07T12:00	3395	687	8.3	-15.5	83	5
2023-09-07T12:00	3418	685	8.1	-15.1	84	6
2023-09-07T12:00	3448	683	7.9	-15.3	84	6
2023-09-07T12:00	3473	681	7.7	-15.7	82	6
2023-09-07T12:00	3497	678	7.7	-18.7	80	6
2023-09-07T12:00	3518	677	7.7		76	6
2023-09-07T12:00	3534	675	7.7	-28.3	72	6
2023-09-07T12:00	3550	674	7.6		69	5
2023-09-07T12:00	3571	672	7.5	-28.5	65	5
2023-09-07T12:00	3593	670	7.4	-28.3	62	5
2023-09-07T12:00	3626	668	7.2	-25.2	61	5
2023-09-07T12:00	3645	666	7.1	-25.1	63	5
2023-09-07T12:00	3666	665	6.9	-25.1	67	5
2023-09-07T12:00	3684	663	6.8	-25.7	72	5
2023-09-07T12:00	3714	661	6.6	-30.0	76	5
2023-09-07T12:00	3736	659	6.5	-32.3	77	5
2023-09-07T12:00	3760	657	6.4	-31.7	76	6
2023-09-07T12:00	3791	655	6.3	-31.5	72	6
2023-09-07T12:00	3811	653	6.2	-32.4	69	6
2023-09-07T12:00	3836	651	6.1	-32.2	66	6
2023-09-07T12:00	3861	649	6.0	-32.3	64	6
2023-09-07T12:00	3877	648	5.9	-33.3	63	6
2023-09-07T12:00	3902	646	5.8	-32.7	62	7
2023-09-07T12:00	3932	644	5.6	-32.8	61	6
2023-09-07T12:00	3951	642	5.6	-26.0	61	6
2023-09-07T12:00	3971	640	5.4	-21.6	63	6
2023-09-07T12:00	3996	638	5.2	-20.2	66	6
2023-09-07T12:00	4028	636	4.9	-15.8	70	5
2023-09-07T12:00	4055	634	4.7	-16.7	73	5
2023-09-07T12:00	4076	632	4.5	-17.1	75	5
2023-09-07T12:00	4098	630	4.3	-17.7	75	6
2023-09-07T12:00	4120	629	4.2	-17.7	75	6
2023-09-07T12:00	4141	627	4.1	-19.8	75	6
2023-09-07T12:00	4168	625	4.0	-20.2	75	6
2023-09-07T12:00	4193	623	3.9	-20.9	76	6
2023-09-07T12:00	4213	621	3.8	-21.9	77	6
2023-09-07T12:00	4244	619	3.7	-23.0	79	6
2023-09-07T12:00	4266	618	3.6	-23.7	82	6
2023-09-07T12:00	4282	616	3.5	-22.7	85	6
2023-09-07T12:00	4298	615	3.5	-25.1	87	6
2023-09-07T12:00	4316	614	3.5	-25.5	87	6
2023-09-07T12:00	4336	612	3.4	-26.2	87	5
2023-09-07T12:00	4362	610	3.2	-27.0	88	5
2023-09-07T12:00	4384	609	3.0	-27.3	90	4
2023-09-07T12:00	4404	607	2.8	-27.6	95	4
2023-09-07T12:00	4432	605	2.6	-28.1	100	4
2023-09-07T12:00	4452	603	2.5	-28.8	102	4
2023-09-07T12:00	4472	602	2.4	-29.5	101	4
2023-09-07T12:00	4501	600	2.1	-29.7	100	4
2023-09-07T12:00	4518	598	1.9	-29.7	101	5
2023-09-07T12:00	4536	597	1.7	-29.2	105	5
2023-09-07T12:00	4556	596	1.6	-28.0	112	4
2023-09-07T12:00	4585	594	1.4	-22.0	120	4
2023-09-07T12:00	4615	592	1.2	-20.5	125	4
2023-09-07T12:00	4633	590	1.0	-18.3	126	5
2023-09-07T12:00	4655	588	0.8	-15.7	125	5
2023-09-07T12:00	4681	587	0.6	-16.5	123	5
2023-09-07T12:00	4700	585	0.4	-17.1	120	4
2023-09-07T12:00	4723	583	0.2	-15.4	117	4
2023-09-07T12:00	4752	581	-0.1	-14.3	114	3
2023-09-07T12:00	4782	579	-0.4	-15.9	111	3
2023-09-07T12:00	4811	577	-0.6	-16.8	107	2
2023-09-07T12:00	4828	576	-0.7	-18.0	105	2
2023-09-07T12:00	4846	575	-0.9	-18.3	103	2
2023-09-07T12:00	4863	573	-1.0	-17.7	104	2
2023-09-07T12:00	4885	572	-1.2	-18.1	103	1
2023-09-07T12:00	4914	570	-1.5	-19.9	100	1
2023-09-07T12:00	4935	568	-1.6	-21.5	94	1
2023-09-07T12:00	4963	566	-1.8	-20.8	86	2
2023-09-07T12:00	4997	564	-2.1	-20.9	76	2
2023-09-07T12:00	5026	562	-2.4	-22.2	65	2
2023-09-07T12:00	5050	560	-2.5	-23.0	56	3
2023-09-07T12:00	5070	558	-2.7	-23.5	49	4
2023-09-07T12:00	5102	556	-3.0	-23.3	44	4
2023-09-07T12:00	5125	555	-3.2	-20.6	42	5
2023-09-07T12:00	5151	553	-3.4	-17.9	42	6
2023-09-07T12:00	5181	551	-3.6	-18.4	43	6
2023-09-07T12:00	5196	550	-3.7	-18.5	44	6
2023-09-07T12:00	5213	549	-3.8	-18.8	45	6
2023-09-07T12:00	5230	547	-3.9	-19.0	45	6
2023-09-07T12:00	5248	546	-4.0	-19.3	45	6
2023-09-07T12:00	5264	545	-4.2	-19.4	43	6
2023-09-07T12:00	5285	543	-4.3	-19.8	40	6
2023-09-07T12:00	5312	542	-4.5	-20.3	36	6
2023-09-07T12:00	5342	540	-4.7	-21.1	33	6
2023-09-07T12:00	5368	538	-4.9	-20.8	33	6
2023-09-07T12:00	5395	536	-5.1	-19.3	36	6
2023-09-07T12:00	5426	534	-5.3	-19.6	40	6
2023-09-07T12:00	5452	532	-5.5	-21.3	43	6
2023-09-07T12:00	5479	530	-5.7	-21.7	43	6
2023-09-07T12:00	5510	528	-5.9	-23.0	39	7
2023-09-07T12:00	5531	527	-6.1	-23.9	34	7
2023-09-07T12:00	5561	525	-6.3	-24.6	29	7
2023-09-07T12:00	5589	523	-6.4	-25.3	26	7
2023-09-07T12:00	5613	521	-6.5	-26.1	23	7
2023-09-07T12:00	5631	520	-6.6	-26.5	20	7
2023-09-07T12:00	5654	519	-6.7	-27.6	16	6
2023-09-07T12:00	5675	517	-6.9	-27.8	10	6
2023-09-07T12:00	5705	515	-7.0	-27.8	5	6
2023-09-07T12:00	5728	514	-7.2	-27.9	2	6
2023-09-07T12:00	5755	512	-7.3	-27.7	1	7
2023-09-07T12:00	5785	510	-7.4	-26.9	2	7
2023-09-07T12:00	5812	508	-7.6	-25.2	3	7
2023-09-07T12:00	5841	506	-7.8	-20.7	4	7
2023-09-07T12:00	5864	505	-8.0	-21.4	5	7
2023-09-07T12:00	5892	503	-8.2	-21.2	5	7
2023-09-07T12:00	5920	501	-8.5	-21.3	5	7
2023-09-07T12:00	5948	499	-8.8	-21.2	5	7
2023-09-07T12:00	5978	497	-9.0	-21.9	4	7
2023-09-07T12:00	6005	496	-9.3	-21.7	4	8
2023-09-07T12:00	6035	494	-9.6	-22.0	2	7
2023-09-07T12:00	6062	492	-9.8	-22.2	1	7
2023-09-07T12:00	6094	490	-10.1	-21.9	1	7
2023-09-07T12:00	6124	488	-10.4	-22.3	1	7
2023-09-07T12:00	6147	487	-10.6	-24.2	1	7
2023-09-07T12:00	6176	485	-10.8	-24.1	2	7
2023-09-07T12:00	6206	483	-11.0	-23.4	2	7
2023-09-07T12:00	6229	481	-11.3	-22.8	4	8
2023-09-07T12:00	6255	480	-11.5	-23.0	8	8
2023-09-07T12:00	6282	478	-11.7	-23.0	13	8
2023-09-07T12:00	6309	476	-12.0	-23.1	18	9
2023-09-07T12:00	6339	475	-12.2	-23.7	22	9
2023-09-07T12:00	6368	473	-12.4	-24.2	24	10
2023-09-07T12:00	6395	471	-12.6	-24.7	25	10
2023-09-07T12:00	6418	470	-12.8	-25.3	25	9
2023-09-07T12:00	6449	468	-12.9	-26.3	24	9
2023-09-07T12:00	6471	466	-13.0	-26.1	24	9
2023-09-07T12:00	6499	465	-13.0	-27.2	25	8
2023-09-07T12:00	6531	463	-13.2	-27.8	26	8
2023-09-07T12:00	6556	461	-13.4	-28.4	27	8
2023-09-07T12:00	6584	460	-13.5	-28.8	27	8
2023-09-07T12:00	6616	458	-13.8	-29.4	24	8
2023-09-07T12:00	6639	456	-14.0	-29.9	19	8
2023-09-07T12:00	6662	455	-14.0	-30.3	14	8
2023-09-07T12:00	6681	454	-14.2	-30.4	10	9
2023-09-07T12:00	6703	453	-14.2	-30.5	9	9
2023-09-07T12:00	6723	451	-14.3	-30.6	9	10
2023-09-07T12:00	6747	450	-14.4	-30.7	10	10
2023-09-07T12:00	6778	448	-14.5	-30.9	12	10
2023-09-07T12:00	6802	447	-14.7	-31.2	13	10
2023-09-07T12:00	6826	445	-14.8		13	10
2023-09-07T12:00	6857	443	-15.0	-32.3	11	10
2023-09-07T12:00	6883	442	-15.1	-32.6	8	10
2023-09-07T12:00	6905	441	-15.3	-33.1	4	9
2023-09-07T12:00	6928	439	-15.4	-33.6	1	9
2023-09-07T12:00	6962	437	-15.7	-34.6	358	9
2023-09-07T12:00	6988	436	-15.8	-34.5	357	9
2023-09-07T12:00	7013	434	-16.0	-35.1	357	8
2023-09-07T12:00	7044	433	-16.1	-37.2	358	8
2023-09-07T12:00	7065	431	-16.2	-39.2	359	8
2023-09-07T12:00	7090	430	-16.3	-40.2	360	7
2023-09-07T12:00	7118	428	-16.5	-41.1	358	6
2023-09-07T12:00	7146	427	-16.6	-42.1	356	5
2023-09-07T12:00	7175	425	-16.6	-44.1	352	4
2023-09-07T12:00	7209	423	-16.6	-44.6	352	4
2023-09-07T12:00	7234	422	-16.6	-43.4	357	3
2023-09-07T12:00	7260	420	-16.8	-43.6	7	3
2023-09-07T12:00	7286	419	-17.0	-43.6	18	3
2023-09-07T12:00	7305	418	-17.1	-42.9	26	4
2023-09-07T12:00	7330	416	-17.3	-42.2	31	4
2023-09-07T12:00	7352	415	-17.4	-41.6	34	5
2023-09-07T12:00	7379	414	-17.7	-40.4	35	5
2023-09-07T12:00	7404	412	-17.9	-38.7	34	5
2023-09-07T12:00	7430	411	-18.1	-33.1	31	5
2023-09-07T12:00	7462	409	-18.4	-32.0	25	5
2023-09-07T12:00	7489	407	-18.6	-31.3	20	6
2023-09-07T12:00	7520	406	-18.9	-31.6	17	6
2023-09-07T12:00	7547	404	-19.1	-31.7	16	6
2023-09-07T12:00	7572	403	-19.4	-31.9	17	5
2023-09-07T12:00	7600	401	-19.6	-32.6	18	5
2023-09-07T12:00	7635	400	-19.9	-32.5	19	5
2023-09-07T12:00	7667	398	-20.2	-32.4	18	5
2023-09-07T12:00	7687	397	-20.4	-32.3	17	6
2023-09-07T12:00	7713	395	-20.7	-32.2	16	6
2023-09-07T12:00	7745	394	-20.9	-32.1	17	6
2023-09-07T12:00	7775	392	-21.3	-31.7	19	6
2023-09-07T12:00	7801	391	-21.5	-31.4	19	6
2023-09-07T12:00	7829	389	-21.8	-31.6	18	6
2023-09-07T12:00	7854	388	-22.0	-31.9	16	6
2023-09-07T12:00	7881	387	-22.2	-32.2	15	7
2023-09-07T12:00	7908	385	-22.5	-32.2	14	7
2023-09-07T12:00	7934	384	-22.7	-32.4	15	7
2023-09-07T12:00	7957	383	-22.9	-32.9	15	7
2023-09-07T12:00	7982	381	-23.1	-32.8	15	7
2023-09-07T12:00	8016	380	-23.4	-33.0	14	7
2023-09-07T12:00	8039	378	-23.6	-33.2	11	7
2023-09-07T12:00	8064	377	-23.7	-34.2	9	7
2023-09-07T12:00	8095	375	-23.9	-36.5	8	7
2023-09-07T12:00	8127	374	-24.0	-36.5	6	7
2023-09-07T12:00	8161	372	-24.4	-35.4	5	7
2023-09-07T12:00	8193	370	-24.5	-35.7	3	7
2023-09-07T12:00	8224	369	-24.7	-35.7	1	7
2023-09-07T12:00	8252	367	-25.0	-37.1	0	7
2023-09-07T12:00	8278	366	-25.2	-37.6	1	8
2023-09-07T12:00	8305	365	-25.4	-37.5	3	8
2023-09-07T12:00	8331	363	-25.7	-37.4	5	8
2023-09-07T12:00	8359	362	-25.9	-38.0	8	7
2023-09-07T12:00	8387	361	-26.1	-38.9	10	7
2023-09-07T12:00	8414	359	-26.4	-38.3	11	7
2023-09-07T12:00	8438	358	-26.6	-39.1	12	7
2023-09-07T12:00	8463	357	-26.7	-41.6	12	7
2023-09-07T12:00	8487	356	-26.8	-43.1	12	8
2023-09-07T12:00	8510	355	-27.0	-43.1	12	8
2023-09-07T12:00	8530	354	-27.1	-41.9	12	8
2023-09-07T12:00	8550	353	-27.3	-41.7	12	9
2023-09-07T12:00	8574	351	-27.5	-41.8	13	9
2023-09-07T12:00	8596	350	-27.7	-40.4	14	9
2023-09-07T12:00	8619	349	-27.9	-40.5	15	9
2023-09-07T12:00	8639	348	-28.1	-43.9	16	8
2023-09-07T12:00	8665	347	-28.3	-44.5	16	8
2023-09-07T12:00	8694	346	-28.6	-44.2	16	8
2023-09-07T12:00	8721	344	-28.8	-43.9	15	8
2023-09-07T12:00	8747	343	-29.0	-40.7	15	8
2023-09-07T12:00	8780	341	-29.3	-39.7	14	9
2023-09-07T12:00	8806	340	-29.5	-40.2	13	9
2023-09-07T12:00	8832	339	-29.7	-41.3	13	9
2023-09-07T12:00	8858	338	-29.9	-42.4	11	10
2023-09-07T12:00	8882	337	-30.1	-44.5	10	10
2023-09-07T12:00	8910	335	-30.3	-45.6	7	10
2023-09-07T12:00	8936	334	-30.5	-45.0	4	10
2023-09-07T12:00	8967	333	-30.7	-44.0	1	10
2023-09-07T12:00	8994	331	-30.9	-43.6	358	10
2023-09-07T12:00	9023	330	-31.1	-43.6	356	10
2023-09-07T12:00	9047	329	-31.3	-43.6	355	11
2023-09-07T12:00	9076	327	-31.5	-43.6	356	11
2023-09-07T12:00	9104	326	-31.7	-44.1	357	11
2023-09-07T12:00	9129	325	-31.9	-44.3	359	11
2023-09-07T12:00	9151	324	-32.1	-44.6	0	11
2023-09-07T12:00	9175	323	-32.2	-44.9	2	11
2023-09-07T12:00	9203	322	-32.5	-44.8	3	11
2023-09-07T12:00	9233	320	-32.7	-44.3	3	11
2023-09-07T12:00	9260	319	-33.0	-44.2	3	11
2023-09-07T12:00	9284	318	-33.2	-44.1	4	12
2023-09-07T12:00	9309	317	-33.4	-44.3	4	12
2023-09-07T12:00	9334	316	-33.6	-44.7	5	12
2023-09-07T12:00	9361	315	-33.6	-45.4	6	12
2023-09-07T12:00	9387	313	-33.8	-45.7	7	12
2023-09-07T12:00	9411	312	-33.9	-46.0	7	12
2023-09-07T12:00	9433	311	-34.1	-46.0	8	13
2023-09-07T12:00	9455	310	-34.3	-45.8	8	13
2023-09-07T12:00	9475	309	-34.5	-45.6	8	13
2023-09-07T12:00	9499	308	-34.7	-45.5	7	13
2023-09-07T12:00	9523	307	-35.0	-45.8	7	13
2023-09-07T12:00	9546	306	-35.2	-45.9	7	13
2023-09-07T12:00	9570	305	-35.3	-46.0	7	13
2023-09-07T12:00	9591	304	-35.5	-46.1	7	13
2023-09-07T12:00	9617	303	-35.8	-46.2	7	13
2023-09-07T12:00	9641	302	-36.0	-46.3	8	13
2023-09-07T12:00	9668	301	-36.2		7	13
2023-09-07T12:00	9690	300	-36.4	-46.5	7	14
2023-09-07T12:00	9715	299	-36.6	-46.6	6	14
2023-09-07T12:00	9738	298	-36.8	-46.8	5	14
2023-09-07T12:00	9762	297	-37.0	-47.3	4	14
2023-09-07T12:00	9791	296	-37.2	-48.1	3	14
2023-09-07T12:00	9817	295	-37.3	-48.3	1	15
2023-09-07T12:00	9839	294	-37.4	-48.4	360	15
2023-09-07T12:00	9863	293	-37.6	-48.6	358	15
2023-09-07T12:00	9887	292	-37.7	-49.0	358	15
2023-09-07T12:00	9913	290	-37.8	-49.5	358	16
2023-09-07T12:00	9939	289	-37.9	-50.3	358	16
2023-09-07T12:00	9963	288	-38.0	-50.6	359	16
2023-09-07T12:00	9991	287	-38.1	-50.3	359	16
2023-09-07T12:00	10012	286	-38.2	-50.0	359	17
2023-09-07T12:00	10033	285	-38.4	-49.8	359	17
2023-09-07T12:00	10057	285	-38.6	-49.9	358	17
2023-09-07T12:00	10079	284	-38.8	-50.1	358	17
2023-09-07T12:00	10100	283	-39.0	-50.0	356	17
2023-09-07T12:00	10122	282	-39.2	-50.0	355	17
2023-09-07T12:00	10142	281	-39.4	-49.9	355	17
2023-09-07T12:00	10160	280	-39.5	-50.1	354	17
2023-09-07T12:00	10179	279	-39.7	-50.2	354	17
2023-09-07T12:00	10197	279	-39.8	-49.9	354	17
2023-09-07T12:00	10216	278	-40.0	-49.9	354	17
2023-09-07T12:00	10233	277	-40.2	-49.8	355	17
2023-09-07T12:00	10252	276	-40.3	-49.5	355	18
2023-09-07T12:00	10270	276	-40.5	-49.4	356	18
2023-09-07T12:00	10288	275	-40.6	-49.2	356	18
2023-09-07T12:00	10305	274	-40.7	-49.0	356	18
2023-09-07T12:00	10324	274	-40.9	-48.3	356	18
2023-09-07T12:00	10342	273	-41.1	-48.2	355	18
2023-09-07T12:00	10362	272	-41.2	-48.1	355	18
2023-09-07T12:00	10381	271	-41.4	-48.2	354	18
2023-09-07T12:00	10399	271	-41.6	-48.3	354	18
2023-09-07T12:00	10416	270	-41.8	-48.4	354	18
2023-09-07T12:00	10437	269	-42.0	-48.6	353	18
2023-09-07T12:00	10455	268	-42.1	-48.9	353	18
2023-09-07T12:00	10473	268	-42.2	-49.1	352	18
2023-09-07T12:00	10494	267	-42.3	-49.4	352	18
2023-09-07T12:00	10512	266	-42.5	-50.2	351	18
2023-09-07T12:00	10531	265	-42.6	-50.9	351	18
2023-09-07T12:00	10549	265	-42.8	-51.1	351	18
2023-09-07T12:00	10569	264	-42.9	-51.1	351	18
2023-09-07T12:00	10589	263	-43.1	-51.1	350	18
2023-09-07T12:00	10609	262	-43.2	-50.8	350	18
2023-09-07T12:00	10628	262	-43.4	-50.3	350	18
2023-09-07T12:00	10648	261	-43.5	-49.8	349	18
2023-09-07T12:00	10664	260	-43.7	-49.7	349	18
2023-09-07T12:00	10685	259	-43.9	-49.7	349	18
2023-09-07T12:00	10706	259	-44.1	-49.7	350	18
2023-09-07T12:00	10726	258	-44.3	-49.8	350	18
2023-09-07T12:00	10746	257	-44.4	-49.9	350	18
2023-09-07T12:00	10765	256	-44.6	-50.0	350	18
2023-09-07T12:00	10785	255	-44.8	-50.3	351	18
2023-09-07T12:00	10806	255	-45.0	-50.5	351	19
2023-09-07T12:00	10825	254	-45.2	-50.6	352	19
2023-09-07T12:00	10843	253	-45.4	-50.8	352	19
2023-09-07T12:00	10863	253	-45.5	-51.2	352	19
2023-09-07T12:00	10884	252	-45.6	-52.1	352	19
2023-09-07T12:00	10902	251	-45.7	-52.1	352	19
2023-09-07T12:00	10920	250	-45.9	-51.6	352	19
2023-09-07T12:00	10939	250	-46.1	-51.3	351	19
2023-09-07T12:00	10958	249	-46.2	-51.3	351	19
2023-09-07T12:00	10978	248	-46.4	-51.5	351	19
2023-09-07T12:00	10997	247	-46.5	-51.7	351	19
2023-09-07T12:00	11017	247	-46.7	-52.0	351	19
2023-09-07T12:00	11036	246	-46.8	-52.1	352	20
2023-09-07T12:00	11056	245	-47.0	-52.3	352	20
2023-09-07T12:00	11074	245	-47.2	-52.5	352	20
2023-09-07T12:00	11096	244	-47.3	-52.7	352	19
2023-09-07T12:00	11113	243	-47.5	-52.9	352	19
2023-09-07T12:00	11132	242	-47.6	-53.1	352	19
2023-09-07T12:00	11151	242	-47.8	-53.3	352	19
2023-09-07T12:00	11170	241	-47.9	-53.4	352	19
2023-09-07T12:00	11191	240	-48.1	-53.5	352	19
2023-09-07T12:00	11209	240	-48.2	-53.6	352	19
2023-09-07T12:00	11229	239	-48.4	-53.8	352	19
2023-09-07T12:00	11248	238	-48.6	-53.9	352	19
2023-09-07T12:00	11267	238	-48.7	-54.0	352	19
2023-09-07T12:00	11286	237	-48.9	-54.1	352	19
2023-09-07T12:00	11307	236	-49.1	-54.0	352	19
2023-09-07T12:00	11325	235	-49.2	-54.0	351	19
2023-09-07T12:00	11344	235	-49.4	-54.1	351	19
2023-09-07T12:00	11365	234	-49.6	-54.3	350	19
2023-09-07T12:00	11385	233	-49.8	-54.4	350	19
2023-09-07T12:00	11403	233	-49.8	-54.6	349	20
2023-09-07T12:00	11422	232	-49.9	-55.1	349	20
2023-09-07T12:00	11440	231	-50.0	-55.3	348	20
2023-09-07T12:00	11460	231	-50.2	-55.4	348	20
2023-09-07T12:00	11475	230	-50.3	-55.3	347	20
2023-09-07T12:00	11495	229	-50.4	-55.5	346	20
2023-09-07T12:00	11515	229	-50.5	-55.7	345	20
2023-09-07T12:00	11533	228	-50.7	-56.0	345	20
2023-09-07T12:00	11553	227	-50.8	-56.1	345	20
2023-09-07T12:00	11574	227	-51.0	-56.2	345	21
2023-09-07T12:00	11591	226	-51.1	-56.4	346	21
2023-09-07T12:00	11613	225	-51.1	-56.7	346	21
2023-09-07T12:00	11632	225	-51.4	-57.0	345	21
2023-09-07T12:00	11651	224	-51.4	-56.8	345	21
2023-09-07T12:00	11667	223	-51.6	-56.9	344	21
2023-09-07T12:00	11685	223	-51.7	-57.0	343	21
2023-09-07T12:00	11707	222	-51.8	-57.3	343	21
2023-09-07T12:00	11724	221	-51.9	-57.6	342	21
2023-09-07T12:00	11745	221	-52.0	-57.8	342	21
2023-09-07T12:00	11763	220	-52.1	-57.8	342	21
2023-09-07T12:00	11783	219	-52.2	-57.7	341	21
2023-09-07T12:00	11802	219	-52.3	-57.6	341	22
2023-09-07T12:00	11823	218	-52.4	-57.8	340	22
2023-09-07T12:00	11841	218	-52.5	-58.2	340	22
2023-09-07T12:00	11862	217	-52.6	-58.4	339	22
2023-09-07T12:00	11881	216	-52.8	-58.5	339	22
2023-09-07T12:00	11898	216	-52.9	-58.2	339	22
2023-09-07T12:00	11918	215	-53.1	-58.3	339	22
2023-09-07T12:00	11938	214	-53.2	-58.6	340	22
2023-09-07T12:00	11957	214	-53.4	-59.1	340	22
2023-09-07T12:00	11975	213	-53.5	-59.5	340	22
2023-09-07T12:00	11993	212	-53.6	-59.9	340	21
2023-09-07T12:00	12014	212	-53.8	-60.5	340	21
2023-09-07T12:00	12032	211	-53.9		340	21
2023-09-07T12:00	12051	211	-54.0	-61.4	339	21
2023-09-07T12:00	12069	210	-54.1	-61.5	339	21
2023-09-07T12:00	12090	209	-54.3	-61.7	339	21
2023-09-07T12:00	12110	209	-54.5	-62.0	338	21
2023-09-07T12:00	12131	208	-54.7	-62.7	338	21
2023-09-07T12:00	12149	207	-54.8	-63.5	338	21
2023-09-07T12:00	12168	207	-54.9	-64.3	339	21
2023-09-07T12:00	12191	206	-55.0	-64.7	339	21
2023-09-07T12:00	12208	205	-55.1	-64.9	338	21
2023-09-07T12:00	12231	205	-55.2	-64.9	338	21
2023-09-07T12:00	12250	204	-55.3	-65.0	338	21
2023-09-07T12:00	12266	204	-55.4	-65.0	338	21
2023-09-07T12:00	12288	203	-55.6	-65.1	338	21
2023-09-07T12:00	12307	202	-55.8	-65.1	338	21
2023-09-07T12:00	12327	202	-55.9	-65.0	338	21
2023-09-07T12:00	12348	201	-56.1	-65.0	338	21
2023-09-07T12:00	12367	200	-56.3	-64.8	339	21
2023-09-07T12:00	12383	200	-56.5	-64.6	339	21
2023-09-07T12:00	12403	199	-56.6	-64.3	340	21
2023-09-07T12:00	12421	199	-56.8	-64.3	341	21
2023-09-07T12:00	12440	198	-57.0	-64.3	341	21
2023-09-07T12:00	12458	197	-57.1	-64.0	342	21
2023-09-07T12:00	12479	197	-57.2	-63.9	342	21
2023-09-07T12:00	12496	196	-57.3	-64.1	342	20
2023-09-07T12:00	12515	196	-57.4	-64.9	342	20
2023-09-07T12:00	12534	195	-57.5	-65.9	342	20
2023-09-07T12:00	12553	195	-57.6		341	20
2023-09-07T12:00	12574	194	-57.6	-66.9	341	20
2023-09-07T12:00	12593	193	-57.6	-66.8	341	20
2023-09-07T12:00	12616	193	-57.7	-66.4	340	20
2023-09-07T12:00	12636	192	-57.9	-65.8	340	20
2023-09-07T12:00	12656	191	-58.0	-65.0	340	20
2023-09-07T12:00	12676	191	-58.2	-64.6	339	20
2023-09-07T12:00	12696	190	-58.4	-64.3	339	20
2023-09-07T12:00	12715	190	-58.6	-64.1	338	20
2023-09-07T12:00	12736	189	-58.8	-64.0	338	20
2023-09-07T12:00	12756	188	-58.9	-63.8	338	20
2023-09-07T12:00	12779	188	-59.1	-63.8	337	20
2023-09-07T12:00	12798	187	-59.2	-63.7	337	20
2023-09-07T12:00	12818	187	-59.4	-64.0	337	21
2023-09-07T12:00	12839	186	-59.3	-64.0	336	21
2023-09-07T12:00	12858	185	-59.4	-64.1	336	21
2023-09-07T12:00	12877	185	-59.5	-64.2	335	21
2023-09-07T12:00	12897	184	-59.6	-64.4	336	22
2023-09-07T12:00	12915	184	-59.8	-65.0	336	22
2023-09-07T12:00	12935	183	-59.8	-65.8	337	22
2023-09-07T12:00	12955	183	-59.6	-66.7	338	22
2023-09-07T12:00	12976	182	-59.5	-67.5	339	22
2023-09-07T12:00	12996	181	-59.5	-68.1	339	22
2023-09-07T12:00	13018	181	-59.5	-67.9	340	22
2023-09-07T12:00	13038	180	-59.6	-67.3	340	21
2023-09-07T12:00	13057	180	-59.8	-66.7	340	21
2023-09-07T12:00	13077	179	-60.0	-66.4	340	21
2023-09-07T12:00	13095	178	-60.1	-66.2	340	21
2023-09-07T12:00	13115	178	-60.2	-66.2	340	21
2023-09-07T12:00	13136	177	-60.4	-66.4	340	20
2023-09-07T12:00	13157	177	-60.5	-66.4	340	20
2023-09-07T12:00	13174	176	-60.7	-66.6	340	20
2023-09-07T12:00	13194	176	-60.8	-66.7	340	19
2023-09-07T12:00	13212	175	-60.8	-66.9	340	19
2023-09-07T12:00	13232	175	-60.8	-67.1	340	19
2023-09-07T12:00	13253	174	-60.9	-67.4	340	19
2023-09-07T12:00	13272	173	-61.1	-67.6	340	19
2023-09-07T12:00	13292	173	-61.2	-67.7	339	19
2023-09-07T12:00	13312	172	-61.3	-67.8	338	19
2023-09-07T12:00	13332	172	-61.4	-68.0	338	19
2023-09-07T12:00	13352	171	-61.5	-68.1	337	19
2023-09-07T12:00	13372	171	-61.6	-68.2	336	19
2023-09-07T12:00	13392	170	-61.7	-68.4	335	19
2023-09-07T12:00	13412	170	-61.9	-68.7	334	19
2023-09-07T12:00	13432	169	-61.9	-69.0	334	19
2023-09-07T12:00	13453	168	-61.9	-69.4	334	19
2023-09-07T12:00	13473	168	-61.9	-70.0	335	19
2023-09-07T12:00	13492	167	-61.8	-70.4	335	19
2023-09-07T12:00	13510	167	-61.7	-70.8	336	19
2023-09-07T12:00	13531	166	-61.6	-71.1	336	19
2023-09-07T12:00	13551	166	-61.6	-71.6	336	19
2023-09-07T12:00	13571	165	-61.5	-71.9	335	19
2023-09-07T12:00	13593	165	-61.4	-72.0	335	19
2023-09-07T12:00	13612	164	-61.5	-72.2	335	19
2023-09-07T12:00	13635	164	-61.6	-72.4	335	19
2023-09-07T12:00	13656	163	-61.7	-72.8	335	18
2023-09-07T12:00	13676	163	-61.6	-73.1	336	18
2023-09-07T12:00	13696	162	-61.5	-73.2	336	17
2023-09-07T12:00	13717	161	-61.7	-73.6	336	17
2023-09-07T12:00	13736	161	-61.8	-73.8	337	17
2023-09-07T12:00	13756	160	-61.9	-73.9	336	17
2023-09-07T12:00	13775	160	-62.1	-74.1	335	17
2023-09-07T12:00	13795	159	-62.3	-74.2	334	17
2023-09-07T12:00	13814	159	-62.5	-74.4	332	16
2023-09-07T12:00	13838	158	-62.5	-74.4	329	16
2023-09-07T12:00	13859	158	-62.3	-74.2	327	16
2023-09-07T12:00	13877	157	-62.2	-74.2	326	16
2023-09-07T12:00	13898	157	-62.3	-74.4	325	16
2023-09-07T12:00	13918	156	-62.2	-74.3	325	16
2023-09-07T12:00	13938	156	-62.2	-74.3	325	16
2023-09-07T12:00	13959	155	-62.3	-74.4	325	16
2023-09-07T12:00	13980	155	-62.5	-74.6	325	16
2023-09-07T12:00	14000	154	-62.6	-74.6	324	16
2023-09-07T12:00	14022	154	-62.8	-74.6	324	16
2023-09-07T12:00	14042	153	-62.9	-74.6	324	16
2023-09-07T12:00	14063	153	-63.0	-74.6	325	17
2023-09-07T12:00	14084	152	-63.1	-74.6	326	17
2023-09-07T12:00	14105	152	-63.1	-74.6	328	17
2023-09-07T12:00	14123	151	-63.1	-74.6	329	17
2023-09-07T12:00	14144	151	-63.2	-74.6	331	17
2023-09-07T12:00	14167	150	-63.4	-74.8	333	17
2023-09-07T12:00	14187	150	-63.5	-74.9	335	17
2023-09-07T12:00	14206	149	-63.5	-74.9	337	17
2023-09-07T12:00	14229	149	-63.5	-74.9	339	16
2023-09-07T12:00	14252	148	-63.5	-75.0	341	16
2023-09-07T12:00	14272	148	-63.6	-75.2	343	16
2023-09-07T12:00	14294	147	-63.6	-75.3	344	16
2023-09-07T12:00	14317	146	-63.6	-75.3	345	15
2023-09-07T12:00	14338	146	-63.7	-75.4	346	15
2023-09-07T12:00	14360	145	-63.9	-75.5	348	15
2023-09-07T12:00	14381	145	-64.1	-75.8	349	14
2023-09-07T12:00	14403	144	-64.3	-76.2	350	14
2023-09-07T12:00	14425	144	-64.3	-76.7	352	13
2023-09-07T12:00	14447	143	-64.0	-77.1	353	12
2023-09-07T12:00	14466	143	-63.5	-77.6	355	12
2023-09-07T12:00	14489	142	-63.1	-78.1	357	12
2023-09-07T12:00	14510	142	-63.2	-79.0	359	11
2023-09-07T12:00	14532	141	-63.3	-79.5	0	11
2023-09-07T12:00	14553	141	-63.4	-79.8	1	11
2023-09-07T12:00	14574	140	-63.3	-79.8	2	12
2023-09-07T12:00	14597	140	-63.5	-80.2	2	12
2023-09-07T12:00	14617	139	-63.7	-80.3	2	12
2023-09-07T12:00	14639	139	-63.8	-80.3	1	12
2023-09-07T12:00	14658	139	-64.0	-80.4	0	12
2023-09-07T12:00	14680	138	-64.1	-80.5	359	12
2023-09-07T12:00	14702	138	-64.2	-80.6	359	12
2023-09-07T12:00	14721	137	-64.4	-80.7	357	12
2023-09-07T12:00	14744	137	-64.5	-80.7	356	12
2023-09-07T12:00	14767	136	-64.7	-80.8	355	12
2023-09-07T12:00	14788	136	-64.9	-81.0	353	11
2023-09-07T12:00	14808	135	-65.0	-81.0	352	11
2023-09-07T12:00	14829	135	-65.2	-81.1	351	11
2023-09-07T12:00	14849	134	-65.3		350	11
2023-09-07T12:00	14870	134	-65.4	-81.1	349	11
2023-09-07T12:00	14889	133	-65.6	-81.2	348	11
2023-09-07T12:00	14913	133	-65.8	-81.3	347	11
2023-09-07T12:00	14934	132	-66.0	-81.4	346	11
2023-09-07T12:00	14954	132	-66.1	-81.5	345	11
2023-09-07T12:00	14975	131	-66.3	-81.8	345	11
2023-09-07T12:00	14996	131	-66.2	-81.9	345	11
2023-09-07T12:00	15020	131	-65.9	-81.8	345	11
2023-09-07T12:00	15040	130	-65.7	-81.9	347	11
2023-09-07T12:00	15061	130	-65.5	-82.2	350	11
2023-09-07T12:00	15079	129	-65.3	-82.2	352	11
2023-09-07T12:00	15102	129	-65.1	-82.4	355	10
2023-09-07T12:00	15123	128	-65.1	-82.6	357	10
2023-09-07T12:00	15144	128	-65.1	-82.7	357	9
2023-09-07T12:00	15166	127	-65.1	-82.9	356	9
2023-09-07T12:00	15187	127	-64.9	-82.9	354	8
2023-09-07T12:00	15208	127	-64.7	-82.8	350	8
2023-09-07T12:00	15228	126	-64.7	-82.9	346	8
2023-09-07T12:00	15250	126	-64.6	-82.9	342	7
2023-09-07T12:00	15271	125	-64.5	-82.9	339	7
2023-09-07T12:00	15292	125	-64.4	-82.8	337	7
2023-09-07T12:00	15316	124	-64.2	-82.8	336	6
2023-09-07T12:00	15332	124	-64.2	-82.9	336	6
2023-09-07T12:00	15357	124	-64.3	-83.0	336	6
2023-09-07T12:00	15382	123	-64.5	-83.1	335	6
2023-09-07T12:00	15401	123	-64.5	-83.1	336	6
2023-09-07T12:00	15422	122	-64.6	-83.1	336	6
2023-09-07T12:00	15444	122	-64.7	-83.2	337	6
2023-09-07T12:00	15467	121	-64.8	-83.3	337	6
2023-09-07T12:00	15486	121	-64.8	-83.3	337	6
2023-09-07T12:00	15508	121	-64.9	-83.5	335	5
2023-09-07T12:00	15529	120	-64.9	-83.5	330	5
2023-09-07T12:00	15550	120	-64.9	-83.5	325	6
2023-09-07T12:00	15572	119	-64.9	-83.6	320	6
2023-09-07T12:00	15592	119	-64.9		316	7
2023-09-07T12:00	15615	118	-64.9	-83.8	313	8
2023-09-07T12:00	15634	118	-64.7	-83.8	312	9
2023-09-07T12:00	15657	118	-64.4	-83.7	311	9
2023-09-07T12:00	15679	117	-64.3	-83.9	311	10
2023-09-07T12:00	15701	117	-64.5	-84.2	311	10
2023-09-07T12:00	15723	116	-64.5	-84.2	312	10
2023-09-07T12:00	15742	116	-64.3	-84.0	313	10
2023-09-07T12:00	15766	116	-64.3	-84.1	314	11
2023-09-07T12:00	15789	115	-64.4	-84.1	316	11
2023-09-07T12:00	15808	115	-64.5	-84.2	317	11
2023-09-07T12:00	15830	114	-64.7	-84.2	319	11
2023-09-07T12:00	15851	114	-64.9	-84.4	321	11
2023-09-07T12:00	15874	113	-65.0	-84.3	323	11
2023-09-07T12:00	15895	113	-65.1	-84.4	325	11
2023-09-07T12:00	15914	113	-65.3	-84.5	327	12
2023-09-07T12:00	15936	112	-65.4	-84.5	330	11
2023-09-07T12:00	15958	112	-65.5	-84.5	332	11
2023-09-07T12:00	15980	112	-65.6	-84.6	334	11
2023-09-07T12:00	16001	111	-65.5	-84.5	336	10
2023-09-07T12:00	16022	111	-65.5	-84.6	336	10
2023-09-07T12:00	16045	110	-65.5	-84.6	337	9
2023-09-07T12:00	16068	110	-65.4	-84.6	337	8
2023-09-07T12:00	16089	110	-65.3	-84.6	336	8
2023-09-07T12:00	16110	109	-65.4	-84.8	335	8
2023-09-07T12:00	16132	109	-65.3	-84.7	335	8
2023-09-07T12:00	16154	108	-65.2	-84.7	336	8
2023-09-07T12:00	16176	108	-65.3	-84.8	337	8
2023-09-07T12:00	16198	108	-65.3	-84.9	337	9
2023-09-07T12:00	16220	107	-65.2	-85.0	336	9
2023-09-07T12:00	16241	107	-65.0	-84.8	336	10
2023-09-07T12:00	16263	106	-64.9	-84.9	336	10
2023-09-07T12:00	16285	106	-64.9	-85.0	338	10
2023-09-07T12:00	16305	106	-64.9	-85.3	342	10
2023-09-07T12:00	16331	105	-64.8	-85.3	347	10
2023-09-07T12:00	16354	105	-64.5	-85.4	352	10
2023-09-07T12:00	16377	104	-64.0	-85.1	358	10
2023-09-07T12:00	16401	104	-63.7	-85.2	3	9
2023-09-07T12:00	16422	104	-63.7	-85.4	7	9
2023-09-07T12:00	16445	103	-63.7	-85.4	10	8
2023-09-07T12:00	16466	103	-63.6	-85.5	13	7
2023-09-07T12:00	16487	103	-63.5	-85.4	14	7
2023-09-07T12:00	16509	102	-63.4	-85.3	13	6
2023-09-07T12:00	16530	102	-63.4	-85.3	13	6
2023-09-07T12:00	16552	102	-63.6	-85.5	12	5
2023-09-07T12:00	16575	101	-63.7	-85.4	10	5
2023-09-07T12:00	16595	101	-63.8	-85.5	8	5
2023-09-07T12:00	16616	100	-63.8	-85.5	5	4
2023-09-07T12:00	16639	100	-63.7	-85.4	1	4
2023-09-07T12:00	16663	100	-63.7	-85.4	357	4
2023-09-07T12:00	16686	99	-63.8	-85.6	354	4
2023-09-07T12:00	16707	99	-63.7	-85.5	352	4
2023-09-07T12:00	16730	99	-63.7	-85.7	353	4
2023-09-07T12:00	16751	98	-63.6	-85.6	354	4
2023-09-07T12:00	16775	98	-63.5	-85.6	357	4
2023-09-07T12:00	16798	98	-63.6	-85.6	0	4
2023-09-07T12:00	16818	97	-63.7	-85.9	3	4
2023-09-07T12:00	16843	97	-63.8	-86.0	7	3
2023-09-07T12:00	16864	97	-63.7	-85.9	13	3
2023-09-07T12:00	16889	96	-63.5	-85.7	22	3
2023-09-07T12:00	16910	96	-63.5	-85.9	34	2
2023-09-07T12:00	16931	95	-63.4	-85.9	43	3
2023-09-07T12:00	16954	95	-63.3	-85.8	50	3
2023-09-07T12:00	16976	95	-63.3	-86.0	53	3
2023-09-07T12:00	16999	94	-63.2	-85.9	57	3
2023-09-07T12:00	17021	94	-63.2	-86.1	61	3
2023-09-07T12:00	17042	94	-63.0	-85.9	67	3
2023-09-07T12:00	17065	93	-62.9	-86.1	73	3
2023-09-07T12:00	17088	93	-62.8	-86.0	78	3
2023-09-07T12:00	17109	93	-62.8	-86.0	83	2
2023-09-07T12:00	17132	92	-62.9	-86.1	86	2
2023-09-07T12:00	17153	92	-63.1	-86.0	87	1
2023-09-07T12:00	17178	92	-63.2	-86.1	83	1
2023-09-07T12:00	17198	91	-63.2	-86.1	62	1
2023-09-07T12:00	17222	91	-63.1	-86.0	5	1
2023-09-07T12:00	17246	91	-63.2	-86.1	325	1
2023-09-07T12:00	17268	90	-63.2	-86.3	310	1
2023-09-07T12:00	17290	90	-63.1	-86.2	302	2
2023-09-07T12:00	17314	90	-62.8	-86.2	297	3
2023-09-07T12:00	17337	89	-62.7	-86.3	294	3
2023-09-07T12:00	17357	89	-62.6	-86.5	292	4
2023-09-07T12:00	17381	89	-62.2	-86.4	291	4
2023-09-07T12:00	17405	88	-61.8	-86.4	290	4
2023-09-07T12:00	17429	88	-61.5	-86.4	290	4
2023-09-07T12:00	17449	88	-61.1	-86.4	291	3
2023-09-07T12:00	17475	87	-61.0	-86.3	293	3
2023-09-07T12:00	17497	87	-61.0	-86.3	296	3
2023-09-07T12:00	17519	87	-60.9	-86.2	299	2
2023-09-07T12:00	17539	86	-60.8	-86.4	303	2
2023-09-07T12:00	17563	86	-60.8	-86.4	310	2
2023-09-07T12:00	17582	86	-60.7	-86.3	318	3
2023-09-07T12:00	17606	86	-60.8	-86.4	327	3
2023-09-07T12:00	17631	85	-60.8	-86.4	335	3
2023-09-07T12:00	17653	85	-60.8	-86.4	342	3
2023-09-07T12:00	17673	85	-60.9	-86.5	347	4
2023-09-07T12:00	17697	84	-60.9	-86.5	350	4
2023-09-07T12:00	17719	84	-61.0	-86.6	352	4
2023-09-07T12:00	17741	84	-61.0	-86.6	353	5
2023-09-07T12:00	17762	83	-61.0	-86.6	354	5
2023-09-07T12:00	17787	83	-61.0	-86.6	355	5
2023-09-07T12:00	17805	83	-61.0	-86.6	356	4
2023-09-07T12:00	17828	83	-61.1	-86.6	357	4
2023-09-07T12:00	17849	82	-61.1	-86.6	357	4
2023-09-07T12:00	17873	82	-61.1	-86.6	357	3
2023-09-07T12:00	17892	82	-61.1	-86.6	356	3
2023-09-07T12:00	17914	81	-61.2	-87.0	353	3
2023-09-07T12:00	17935	81	-61.1	-87.0	349	2
2023-09-07T12:00	17957	81	-60.8	-87.0	343	2
2023-09-07T12:00	17977	81	-60.2	-86.9	336	3
2023-09-07T12:00	18002	80	-59.9	-86.7	331	3
2023-09-07T12:00	18024	80	-59.9	-86.7	327	4
2023-09-07T12:00	18047	80	-59.9	-86.7	327	5
2023-09-07T12:00	18069	79	-60.0	-86.8	328	5
2023-09-07T12:00	18092	79	-60.0	-86.8	330	6
2023-09-07T12:00	18113	79	-59.9	-86.7	333	6
2023-09-07T12:00	18135	79	-59.5	-86.8	335	6
2023-09-07T12:00	18160	78	-59.1	-86.5	336	6
2023-09-07T12:00	18181	78	-58.9	-86.7	337	6
2023-09-07T12:00	18206	78	-58.9	-86.7	338	6
2023-09-07T12:00	18230	77	-59.0	-86.8	340	6
2023-09-07T12:00	18249	77	-59.0	-86.8	343	6
2023-09-07T12:00	18273	77	-59.0	-86.8	349	5
2023-09-07T12:00	18296	77	-58.7	-86.5	356	5
2023-09-07T12:00	18317	76	-58.7	-86.5	3	4
2023-09-07T12:00	18338	76	-58.8	-86.6	10	4
2023-09-07T12:00	18363	76	-58.8	-86.2	15	4
2023-09-07T12:00	18384	76	-58.8	-86.2	18	4
2023-09-07T12:00	18408	75	-58.8	-86.6	19	3
2023-09-07T12:00	18428	75	-58.8	-86.6	18	3
2023-09-07T12:00	18452	75	-58.8	-86.6	17	3
2023-09-07T12:00	18471	74	-58.6	-86.5	16	3
2023-09-07T12:00	18497	74	-58.5	-86.4	17	3
2023-09-07T12:00	18518	74	-58.5	-86.4	17	3
2023-09-07T12:00	18538	74	-58.5	-86.4	15	2
2023-09-07T12:00	18560	73	-58.6	-86.5	8	2
2023-09-07T12:00	18584	73	-58.7	-86.5	358	2
2023-09-07T12:00	18607	73	-58.9	-86.7	350	2
2023-09-07T12:00	18627	73	-58.9	-86.7	346	3
2023-09-07T12:00	18650	72	-58.8	-86.6	346	3
2023-09-07T12:00	18672	72	-58.8	-86.6	349	3
2023-09-07T12:00	18695	72	-58.9	-86.7	355	3
2023-09-07T12:00	18717	72	-59.0	-86.8	3	3
2023-09-07T12:00	18740	71	-59.0	-86.8	10	3
2023-09-07T12:00	18764	71	-59.0	-86.4	17	3
2023-09-07T12:00	18788	71	-59.1	-86.5	22	4
2023-09-07T12:00	18814	71	-59.2	-86.5	26	4
2023-09-07T12:00	18833	70	-59.3	-86.6	28	4
2023-09-07T12:00	18859	70	-59.3	-86.6	30	4
2023-09-07T12:00	18883	70	-59.3	-86.6	30	4
2023-09-07T12:00	18908	70	-59.3	-87.0	31	4
2023-09-07T12:00	18930	69	-59.3	-87.0	32	4
2023-09-07T12:00	18956	69	-59.2	-86.9	34	4
2023-09-07T12:00	18979	69	-59.0	-86.8	38	4
2023-09-07T12:00	19002	68	-59.0	-86.8	42	4
2023-09-07T12:00	19023	68	-58.9	-86.7	47	4
2023-09-07T12:00	19050	68	-58.8	-86.6	50	4
2023-09-07T12:00	19072	68	-58.8	-86.6	51	4
2023-09-07T12:00	19095	67	-58.8	-86.6	52	4
2023-09-07T12:00	19118	67	-58.8	-86.6	50	4
2023-09-07T12:00	19145	67	-58.9	-86.7	47	3
2023-09-07T12:00	19170	67	-59.0	-86.8	41	3
2023-09-07T12:00	19187	66	-59.1	-86.8	33	3
2023-09-07T12:00	19213	66	-59.3	-87.0	25	3
2023-09-07T12:00	19236	66	-59.4	-87.1	18	2
2023-09-07T12:00	19262	66	-59.3	-87.0	16	2
2023-09-07T12:00	19284	65	-59.2	-86.9	19	2
2023-09-07T12:00	19307	65	-59.1	-86.8	26	2
2023-09-07T12:00	19331	65	-59.1	-86.8	35	2
2023-09-07T12:00	19354	65	-59.0	-86.8	44	2
2023-09-07T12:00	19377	65	-59.2	-86.9	48	2
2023-09-07T12:00	19400	64	-59.3	-87.0	48	2
2023-09-07T12:00	19423	64	-59.0	-86.8	40	2
2023-09-07T12:00	19443	64	-58.8	-86.6	26	1
2023-09-07T12:00	19470	64	-58.8	-86.6	10	2
2023-09-07T12:00	19491	63	-58.8	-86.6	359	2
2023-09-07T12:00	19515	63	-58.8	-86.6	354	2
2023-09-07T12:00	19536	63	-59.0	-86.8	352	2
2023-09-07T12:00	19564	63	-59.1	-86.8	351	3
2023-09-07T12:00	19584	62	-59.1	-86.8	350	3
2023-09-07T12:00	19608	62	-59.2	-86.9	349	3
2023-09-07T12:00	19631	62	-59.1	-86.8	346	3
2023-09-07T12:00	19654	62	-58.8	-87.0	343	3
2023-09-07T12:00	19678	61	-58.7	-87.0	339	3
2023-09-07T12:00	19702	61	-58.6	-86.9	336	3
2023-09-07T12:00	19724	61	-58.6	-86.9	335	4
2023-09-07T12:00	19744	61	-58.5	-86.8	336	4
2023-09-07T12:00	19769	61	-58.3	-86.7	340	4
2023-09-07T12:00	19792	60	-58.2	-86.6	345	5
2023-09-07T12:00	19813	60	-58.2	-87.0	352	5
2023-09-07T12:00	19840	60	-57.9	-86.8	0	5
2023-09-07T12:00	19863	60	-57.8	-86.7	8	5
2023-09-07T12:00	19886	59	-57.9	-86.4	15	5
2023-09-07T12:00	19911	59	-58.1	-86.5	20	5
2023-09-07T12:00	19930	59	-58.2	-86.6	22	5
2023-09-07T12:00	19955	59	-58.2	-86.6	22	6
2023-09-07T12:00	19976	59	-58.3	-86.7	21	6
2023-09-07T12:00	19997	58	-58.1	-86.5	21	6
2023-09-07T12:00	20023	58	-58.1	-86.5	22	6
2023-09-07T12:00	20048	58	-58.1	-86.5	25	6
2023-09-07T12:00	20074	58	-58.0	-86.4	28	6
2023-09-07T12:00	20097	58	-58.1	-86.5	31	6
2023-09-07T12:00	20118	57	-58.3	-86.7	32	6
2023-09-07T12:00	20145	57	-58.4	-86.7	32	6
2023-09-07T12:00	20171	57	-58.3	-86.7	30	5
2023-09-07T12:00	20198	57	-58.2	-86.6	28	5
2023-09-07T12:00	20220	56	-58.3	-86.7	26	4
2023-09-07T12:00	20242	56	-58.3	-86.7	23	4
2023-09-07T12:00	20270	56	-58.2	-86.6	19	4
2023-09-07T12:00	20295	56	-58.1	-86.5	12	4
2023-09-07T12:00	20320	56	-58.0	-86.4	4	4
2023-09-07T12:00	20344	55	-58.1	-86.5	355	4
2023-09-07T12:00	20374	55	-58.1	-86.5	349	4
2023-09-07T12:00	20392	55	-58.1	-86.5	345	5
2023-09-07T12:00	20420	55	-58.2	-86.6	345	5
2023-09-07T12:00	20442	54	-58.2	-86.6	347	5
2023-09-07T12:00	20467	54	-58.4	-86.7	350	5
2023-09-07T12:00	20493	54	-58.5	-86.4	355	5
2023-09-07T12:00	20517	54	-58.5	-86.4	358	5
2023-09-07T12:00	20541	54	-58.6	-86.5	1	6
2023-09-07T12:00	20570	53	-58.8	-86.6	3	6
2023-09-07T12:00	20592	53	-58.9	-86.7	3	6
2023-09-07T12:00	20616	53	-59.1	-86.8	2	5
2023-09-07T12:00	20641	53	-59.1	-86.8	2	5
2023-09-07T12:00	20666	53	-59.0	-86.8	1	5
2023-09-07T12:00	20692	52	-59.1	-86.8	1	5
2023-09-07T12:00	20715	52	-59.2	-86.9	2	5
2023-09-07T12:00	20739	52	-59.3	-87.0	4	5
2023-09-07T12:00	20764	52	-59.4	-87.1	7	5
2023-09-07T12:00	20788	52	-59.5	-87.1	9	6
2023-09-07T12:00	20812	51	-59.4	-87.1	10	6
2023-09-07T12:00	20838	51	-59.3	-87.4	11	6
2023-09-07T12:00	20861	51	-59.1	-87.3	11	6
2023-09-07T12:00	20881	51	-58.8	-87.0	10	6
2023-09-07T12:00	20906	51	-58.8	-87.5	9	6
2023-09-07T12:00	20930	50	-58.8	-87.5	8	7
2023-09-07T12:00	20951	50	-58.7	-87.4	8	7
2023-09-07T12:00	20973	50	-58.4	-87.2	8	7
2023-09-07T12:00	21001	50	-58.1	-87.0	8	6
2023-09-07T12:00	21024	50	-57.9	-86.8	8	6
2023-09-07T12:00	21047	49	-58.0	-86.9	9	6
2023-09-07T12:00	21074	49	-57.9	-86.8	8	5
2023-09-07T12:00	21095	49	-57.9	-86.8	6	5
2023-09-07T12:00	21118	49	-57.8	-86.7	3	5
2023-09-07T12:00	21142	49	-57.7	-86.7	359	5
2023-09-07T12:00	21167	49	-57.6	-86.6	356	5
2023-09-07T12:00	21188	48	-57.7	-86.7	355	5
2023-09-07T12:00	21213	48	-57.8	-86.7	355	5
2023-09-07T12:00	21235	48	-57.9	-86.8	357	5
2023-09-07T12:00	21262	48	-57.8	-86.7	359	5
2023-09-07T12:00	21283	48	-57.6	-86.6	1	5
2023-09-07T12:00	21309	47	-57.5	-86.5	4	5
2023-09-07T12:00	21332	47	-57.4	-86.4	6	4
2023-09-07T12:00	21358	47	-57.3	-86.9	9	4
2023-09-07T12:00	21384	47	-57.2	-86.3	13	4
2023-09-07T12:00	21408	47	-57.3	-86.4	15	3
2023-09-07T12:00	21432	47	-57.3	-86.4	16	3
2023-09-07T12:00	21459	46	-57.5	-86.5	12	2
2023-09-07T12:00	21480	46	-57.5	-86.5	358	1
2023-09-07T12:00	21504	46	-57.4	-86.4	332	1
2023-09-07T12:00	21528	46	-57.2	-86.3	307	1
2023-09-07T12:00	21551	46	-57.1	-86.2	296	2
2023-09-07T12:00	21577	45	-57.1	-86.2	293	2
2023-09-07T12:00	21604	45	-57.2	-86.3	292	2
2023-09-07T12:00	21626	45	-57.4	-86.4	292	3
2023-09-07T12:00	21656	45	-57.5	-86.5	290	3
2023-09-07T12:00	21680	45	-57.5	-86.5	288	3
2023-09-07T12:00	21702	45	-57.4	-86.4	285	3
2023-09-07T12:00	21730	44	-57.4	-86.4	284	3
2023-09-07T12:00	21751	44	-57.4	-86.4	284	3
2023-09-07T12:00	21781	44	-57.4	-86.4	288	3
2023-09-07T12:00	21806	44	-57.4	-86.4	293	3
2023-09-07T12:00	21829	44	-57.4	-86.4	298	4
2023-09-07T12:00	21852	44	-57.5	-86.5	301	4
2023-09-07T12:00	21877	43	-57.4	-86.9	302	5
2023-09-07T12:00	21903	43	-57.0	-86.6	302	5
2023-09-07T12:00	21930	43	-56.8	-86.5	301	6
2023-09-07T12:00	21954	43	-56.7	-86.4	300	6
2023-09-07T12:00	21975	43	-56.7	-86.4	299	6
2023-09-07T12:00	22003	43	-56.7	-86.4	298	6
2023-09-07T12:00	22029	42	-56.6	-86.3	299	7
2023-09-07T12:00	22049	42	-56.6	-86.3	300	7
2023-09-07T12:00	22077	42	-56.6	-86.3	303	7
2023-09-07T12:00	22104	42	-56.7	-86.4	307	7
2023-09-07T12:00	22128	42	-56.9	-86.6	313	7
2023-09-07T12:00	22150	42	-57.0	-86.6	320	7
2023-09-07T12:00	22179	41	-56.9	-86.6	329	6
2023-09-07T12:00	22204	41	-56.6	-86.3	340	6
2023-09-07T12:00	22230	41	-56.5	-86.3	352	5
2023-09-07T12:00	22257	41	-56.5	-86.3	3	5
2023-09-07T12:00	22278	41	-56.6	-86.3	11	5
2023-09-07T12:00	22306	41	-56.6	-86.3	15	5
2023-09-07T12:00	22331	40	-56.7	-86.4	14	5
2023-09-07T12:00	22355	40	-56.7	-86.4	11	6
2023-09-07T12:00	22385	40	-56.5	-86.3	8	6
2023-09-07T12:00	22406	40	-56.6	-86.3	6	6
2023-09-07T12:00	22430	40	-56.6	-86.3	6	6
2023-09-07T12:00	22458	40	-56.5	-86.3	8	6
2023-09-07T12:00	22485	39	-56.0	-86.4	11	6
2023-09-07T12:00	22504	39	-55.7	-86.2	16	6
2023-09-07T12:00	22533	39	-55.7	-86.2	22	6
2023-09-07T12:00	22561	39	-55.8	-86.3	28	6
2023-09-07T12:00	22590	39	-55.8	-86.3	34	7
2023-09-07T12:00	22620	39	-55.6	-86.1	39	7
2023-09-07T12:00	22643	38	-55.4	-86.0	43	7
2023-09-07T12:00	22670	38	-55.2	-85.8	46	7
2023-09-07T12:00	22691	38	-55.2	-85.8	47	6
2023-09-07T12:00	22720	38	-55.2	-85.8	46	6
2023-09-07T12:00	22742	38	-55.3	-85.9	42	5
2023-09-07T12:00	22767	38	-55.4	-86.0	37	4
2023-09-07T12:00	22791	38	-55.4	-86.0	30	4
2023-09-07T12:00	22817	37	-55.5	-86.1	22	4
2023-09-07T12:00	22838	37	-55.4	-86.0	17	4
2023-09-07T12:00	22863	37	-55.3	-85.9	14	4
2023-09-07T12:00	22888	37	-55.3	-85.9	13	4
2023-09-07T12:00	22908	37	-55.3	-85.9	12	4
2023-09-07T12:00	22935	37	-55.4	-86.0	12	5
2023-09-07T12:00	22966	37	-55.4	-86.0	14	5
2023-09-07T12:00	22990	36	-55.3	-85.9	16	5
2023-09-07T12:00	23019	36	-55.2	-85.8	21	5
2023-09-07T12:00	23039	36	-54.9	-85.6	28	5
2023-09-07T12:00	23064	36	-54.8	-85.5	36	5
2023-09-07T12:00	23091	36	-55.0	-85.7	45	5
2023-09-07T12:00	23118	36	-55.1	-85.8	52	5
2023-09-07T12:00	23144	36	-55.2	-85.8	59	6
2023-09-07T12:00	23166	35	-55.4	-86.0	64	6
2023-09-07T12:00	23187	35	-55.5	-86.1	68	6
2023-09-07T12:00	23218	35	-55.5	-86.1	70	5
2023-09-07T12:00	23246	35	-55.4	-86.0	68	5
2023-09-07T12:00	23269	35	-55.3	-85.9	64	5
2023-09-07T12:00	23296	35	-55.3	-85.9	57	5
2023-09-07T12:00	23321	35	-55.4	-86.0	49	5
2023-09-07T12:00	23344	34	-55.5	-85.5	41	5
2023-09-07T12:00	23368	34	-55.7	-85.7	34	5
2023-09-07T12:00	23397	34	-55.8	-85.7	29	6
2023-09-07T12:00	23416	34	-55.9	-85.8	26	6
2023-09-07T12:00	23448	34	-56.0	-85.9	25	7
2023-09-07T12:00	23474	34	-56.1	-86.0	26	7
2023-09-07T12:00	23496	34	-56.2	-86.0	29	7
2023-09-07T12:00	23525	33	-56.1	-86.0	34	7
2023-09-07T12:00	23548	33	-56.0	-85.9	40	7
2023-09-07T12:00	23576	33	-56.0	-85.9	48	7
2023-09-07T12:00	23603	33	-56.2	-86.0	56	7
2023-09-07T12:00	23633	33	-56.4	-86.2	66	6
2023-09-07T12:00	23659	33	-56.4	-86.2	76	6
2023-09-07T12:00	23682	33	-56.4	-86.2	85	6
2023-09-07T12:00	23705	33	-56.4	-86.2	94	6
2023-09-07T12:00	23732	32	-56.4	-86.2	101	6
2023-09-07T12:00	23758	32	-56.4	-86.2	106	6
2023-09-07T12:00	23784	32	-56.4	-86.2	110	6
2023-09-07T12:00	23809	32	-56.5	-86.3	113	6
2023-09-07T12:00	23835	32	-56.6	-86.3	113	5
2023-09-07T12:00	23864	32	-56.7	-86.4	112	5
2023-09-07T12:00	23892	32	-56.7	-86.4	108	5
2023-09-07T12:00	23915	31	-56.6	-86.3	104	4
2023-09-07T12:00	23939	31	-56.4	-86.2	99	4
2023-09-07T12:00	23965	31	-56.3	-86.6	94	4
2023-09-07T12:00	23996	31	-56.2	-86.6	90	4
2023-09-07T12:00	24017	31	-56.0	-86.4	87	4
2023-09-07T12:00	24054	31	-55.9	-86.3	85	4
2023-09-07T12:00	24076	31	-56.1	-86.0	85	5
2023-09-07T12:00	24100	31	-56.3	-86.1	86	5
2023-09-07T12:00	24125	30	-56.4	-86.2	88	5
2023-09-07T12:00	24148	30	-56.4	-86.2	92	5
2023-09-07T12:00	24176	30	-56.3	-86.1	97	5
2023-09-07T12:00	24204	30	-56.4	-86.2	105	4
2023-09-07T12:00	24225	30	-56.4	-86.2	113	4
2023-09-07T12:00	24253	30	-56.3	-86.1	122	4
2023-09-07T12:00	24277	30	-56.4	-86.2	129	5
2023-09-07T12:00	24306	30	-56.5	-86.3	136	5
2023-09-07T12:00	24327	29	-56.4	-86.2	142	5
2023-09-07T12:00	24351	29	-56.0	-86.4	146	5
2023-09-07T12:00	24385	29	-55.7	-86.2	150	5
2023-09-07T12:00	24408	29	-55.8	-86.3	154	5
2023-09-07T12:00	24437	29	-55.9	-86.3	158	5
2023-09-07T12:00	24457	29	-56.0	-85.9	163	5
2023-09-07T12:00	24484	29	-56.2	-86.0	169	5
2023-09-07T12:00	24512	29	-56.5	-86.3	175	5
2023-09-07T12:00	24539	29	-56.8	-86.0	180	5
2023-09-07T12:00	24564	28	-57.1	-86.2	183	5
2023-09-07T12:00	24598	28	-57.1	-86.2	184	5
2023-09-07T12:00	24615	28	-56.9	-86.6	183	5
2023-09-07T12:00	24645	28	-56.7	-86.4	181	5
2023-09-07T12:00	24674	28	-56.7	-86.4	180	5
2023-09-07T12:00	24692	28	-56.5	-86.8	181	4
2023-09-07T12:00	24721	28	-56.2	-86.6	185	3
2023-09-07T12:00	24747	28	-56.0	-86.4	194	3
2023-09-07T12:00	24777	27	-55.8	-86.9	208	2
2023-09-07T12:00	24796	27	-55.5	-86.7	224	2
2023-09-07T12:00	24827	27	-55.3	-86.5	236	2
2023-09-07T12:00	24854	27	-55.2	-86.4	242	2
2023-09-07T12:00	24883	27	-54.9	-86.2	241	2
2023-09-07T12:00	24903	27	-54.5	-85.9	237	3
2023-09-07T12:00	24930	27	-54.3	-86.4	233	3
2023-09-07T12:00	24953	27	-54.1	-86.3	231	4
2023-09-07T12:00	24983	27	-54.0	-86.2	233	4
2023-09-07T12:00	25008	27	-53.7	-86.0	235	5
2023-09-07T12:00	25032	26	-53.2	-85.6	236	6
2023-09-07T12:00	25062	26	-52.9	-85.4	237	6
2023-09-07T12:00	25087	26	-52.8	-85.3	236	7
2023-09-07T12:00	25116	26	-52.6	-85.2	235	7
2023-09-07T12:00	25140	26	-52.5	-85.1	234	8
2023-09-07T12:00	25166	26	-52.5	-85.1	234	8
2023-09-07T12:00	25192	26	-52.1	-84.8	234	9
2023-09-07T12:00	25218	26	-51.5	-84.4	235	9
2023-09-07T12:00	25241	26	-51.3	-84.3	236	9
2023-09-07T12:00	25272	25	-51.3	-84.3	238	8
2023-09-07T12:00	25299	25	-51.3	-84.3	241	8
2023-09-07T12:00	25318	25	-51.4	-84.3	244	7
2023-09-07T12:00	25352	25	-51.4	-84.3	248	7
2023-09-07T12:00	25374	25	-51.3	-84.3	254	6
2023-09-07T12:00	25399	25	-51.3	-84.3	261	6
2023-09-07T12:00	25421	25	-51.4	-84.3	271	5
2023-09-07T12:00	25455	25	-51.4	-84.3	282	5
2023-09-07T12:00	25477	25	-51.4	-84.3	294	5
2023-09-07T12:00	25503	25	-51.4	-84.3	301	5
2023-09-07T12:00	25529	24	-51.3	-84.3	304	5
2023-09-07T12:00	25554	24	-51.4	-84.3	303	6
2023-09-07T12:00	25577	24	-51.4	-84.3	300	6
2023-09-07T12:00	25605	24	-51.5	-84.4	298	6
2023-09-07T12:00	25631	24	-51.6	-84.5	297	7
2023-09-07T12:00	25662	24	-51.7	-84.5	298	7
2023-09-07T12:00	25687	24	-51.7	-84.5	301	6
2023-09-07T12:00	25714	24	-51.6	-84.5	304	6
2023-09-07T12:00	25736	24	-51.5	-84.4	308	6
2023-09-07T12:00	25766	24	-51.3	-84.3	311	5
2023-09-07T12:00	25789	23	-51.1	-84.1	314	5
2023-09-07T12:00	25814	23	-50.9	-84.0	317	4
2023-09-07T12:00	25842	23	-50.8	-83.9	321	4
2023-09-07T12:00	25876	23	-50.8	-83.9	323	4
2023-09-07T12:00	25900	23	-50.9	-84.0	322	4
2023-09-07T12:00	25932	23	-51.0	-84.0	318	3
2023-09-07T12:00	25948	23	-51.1	-84.1	308	3
2023-09-07T12:00	25982	23	-51.2	-84.2	296	3
2023-09-07T12:00	26010	23	-51.1	-84.1	283	3
2023-09-07T12:00	26039	23	-50.8	-83.9	272	4
2023-09-07T12:00	26061	23	-50.5	-84.5	264	4
2023-09-07T12:00	26089	22	-50.3	-84.3	257	4
2023-09-07T12:00	26116	22	-50.2	-84.2	251	4
2023-09-07T12:00	26148	22	-50.3	-84.3	246	4
2023-09-07T12:00	26168	22	-50.3	-84.3	241	4
2023-09-07T12:00	26197	22	-50.3	-83.5	240	4
2023-09-07T12:00	26230	22	-50.3	-83.5	241	4
2023-09-07T12:00	26249	22	-50.3	-83.5	245	4
2023-09-07T12:00	26274	22	-50.4	-83.6	250	4
2023-09-07T12:00	26304	22	-50.4	-83.6	256	5
2023-09-07T12:00	26329	22	-50.5	-83.7	263	5
2023-09-07T12:00	26354	22	-50.5	-83.7	270	5
2023-09-07T12:00	26388	21	-50.5	-83.7	278	5
2023-09-07T12:00	26425	21	-50.4	-83.6	285	5
2023-09-07T12:00	26444	21	-50.4	-83.6	292	5
2023-09-07T12:00	26469	21	-50.4	-83.6	299	5
2023-09-07T12:00	26496	21	-50.3	-83.5	305	5
2023-09-07T12:00	26534	21	-50.2	-84.2	311	5
2023-09-07T12:00	26554	21	-50.1	-84.2	315	4
2023-09-07T12:00	26570	21	-50.1	-84.2	317	4
2023-09-07T12:00	26609	21	-50.1	-84.2	317	4
2023-09-07T12:00	26637	21	-50.0	-84.1	315	4
2023-09-07T12:00	26660	21	-49.9	-84.0	313	4
2023-09-07T12:00	26686	20	-49.8	-84.0	311	4
2023-09-07T12:00	26716	20	-49.8	-84.0	309	4
2023-09-07T12:00	26744	20	-49.9	-84.0	308	4
2023-09-07T12:00	26775	20	-50.0	-84.1	306	4
2023-09-07T12:00	26796	20	-50.0	-83.3	303	3
2023-09-07T12:00	26830	20	-50.1	-83.4	297	3
2023-09-07T12:00	26857	20	-50.3	-83.5	288	3
2023-09-07T12:00	26876	20	-50.3	-83.5	277	3
2023-09-07T12:00	26901	20	-50.4	-83.6	266	3
2023-09-07T12:00	26931	20	-50.6	-83.7	259	4
2023-09-07T12:00	26957	20	-50.7	-83.8	254	4
2023-09-07T12:00	26983	20	-50.7	-83.8	252	4
2023-09-07T12:00	27020	19	-50.7	-83.8	250	5
2023-09-07T12:00	27042	19	-50.7	-83.8	248	5
2023-09-07T12:00	27070	19	-50.7	-83.8	246	5
2023-09-07T12:00	27095	19	-50.7	-83.8	245	6
2023-09-07T12:00	27128	19	-50.7	-83.8	245	6
2023-09-07T12:00	27148	19	-50.7	-83.8	246	7
2023-09-07T12:00	27177	19	-50.5	-83.7	248	8
2023-09-07T12:00	27194	19	-50.4	-84.4	251	8
2023-09-07T12:00	27225	19	-50.3	-84.3	253	9
2023-09-07T12:00	27258	19	-50.4	-83.6	254	9
2023-09-07T12:00	27284	19	-50.5	-83.7	255	9
2023-09-07T12:00	27303	19	-50.7	-83.8	256	9
2023-09-07T12:00	27336	19	-50.8	-83.9	257	8
2023-09-07T12:00	27361	18	-50.7	-83.8	258	8
2023-09-07T12:00	27388	18	-50.6	-83.7	261	8
2023-09-07T12:00	27416	18	-50.5	-84.5	264	8
2023-09-07T12:00	27431	18	-50.4	-84.4	268	8
2023-09-07T12:00	27463	18	-50.1	-84.2	271	9
2023-09-07T12:00	27490	18	-50.0	-84.1	274	9
2023-09-07T12:00	27522	18	-50.1	-84.2	277	10
2023-09-07T12:00	27557	18	-50.2	-84.2	279	11
2023-09-07T12:00	27579	18	-50.4	-83.6	281	12
2023-09-07T12:00	27606	18	-50.5	-83.7	283	13
2023-09-07T12:00	27632	18	-50.5	-83.7	285	13
2023-09-07T12:00	27663	18	-50.5	-83.7	285	13
2023-09-07T12:00	27679	18	-50.3	-84.3	286	12
2023-09-07T12:00	27709	18	-50.2	-84.2	286	12
2023-09-07T12:00	27750	17	-50.2	-84.2	285	11
2023-09-07T12:00	27772	17	-50.1	-84.2	283	10
2023-09-07T12:00	27797	17	-50.0	-84.1	281	9
2023-09-07T12:00	27828	17	-50.0	-84.1	278	8
2023-09-07T12:00	27850	17	-50.2	-84.2	276	8
2023-09-07T12:00	27864	17	-50.2	-84.2	272	7
2023-09-07T12:00	27898	17	-50.0	-84.1	270	6
2023-09-07T12:00	27945	17	-49.8	-84.0	268	5
2023-09-07T12:00	27965	17	-49.6	-83.8	267	5
2023-09-07T12:00	27990	17	-49.4	-83.7	269	5
2023-09-07T12:00	28023	17	-49.3	-83.6	271	6
2023-09-07T12:00	28056	17	-49.2	-83.5	275	6
2023-09-07T12:00	28083	17	-49.0	-83.4	280	7
2023-09-07T12:00	28111	16	-48.9	-83.3	284	7
2023-09-07T12:00	28126	16	-49.0	-83.4	289	7
2023-09-07T12:00	28162	16	-49.2	-83.5	293	7
2023-09-07T12:00	28187	16	-49.4	-83.7	295	7
2023-09-07T12:00	28216	16	-49.3	-83.6	296	7
2023-09-07T12:00	28238	16	-49.2	-83.5	294	6
2023-09-07T12:00	28279	16	-49.1	-83.4	290	6
2023-09-07T12:00	28302	16	-49.0	-83.4	285	5
2023-09-07T12:00	28325	16	-49.0	-83.4	281	5
2023-09-07T12:00	28352	16	-49.1	-83.4	277	5
2023-09-07T12:00	28381	16	-49.1	-83.4	275	5
2023-09-07T12:00	28412	16	-49.2	-83.5	272	5
2023-09-07T12:00	28430	16	-49.4	-83.7	270	5
2023-09-07T12:00	28463	16	-49.5	-83.7	266	5
2023-09-07T12:00	28493	16	-49.5	-83.7	264	6
2023-09-07T12:00	28510	16	-49.4	-83.7	263	6
2023-09-07T12:00	28544	15	-49.3	-83.6	263	6
2023-09-07T12:00	28568	15	-49.2	-83.5	263	7
2023-09-07T12:00	28597	15	-49.2	-83.5	265	7
2023-09-07T12:00	28628	15	-49.1	-83.4	267	8
2023-09-07T12:00	28658	15	-48.9	-83.3	270	8
2023-09-07T12:00	28674	15	-48.7	-84.1	274	8
2023-09-07T12:00	28699	15	-48.5	-83.9	278	8
2023-09-07T12:00	28733	15	-48.3	-83.8	282	8
2023-09-07T12:00	28760	15	-48.3	-83.8	286	8
2023-09-07T12:00	28794	15	-48.2	-83.7	289	8
2023-09-07T12:00	28802	15	-48.0	-83.6	291	7
2023-09-07T12:00	28832	15	-47.7	-83.4	293	7
2023-09-07T12:00	28850	15	-47.4	-83.1	295	7
2023-09-07T12:00	28887	15	-47.1	-82.9	297	7
2023-09-07T12:00	28909	15	-47.0	-82.9	299	7
2023-09-07T12:00	28940	15	-47.0	-82.9	301	7
2023-09-07T12:00	28960	14	-47.1	-82.9	303	7
2023-09-07T12:00	28990	14	-47.1	-82.9	305	7
2023-09-07T12:00	29012	14	-47.2	-83.0	305	7
2023-09-07T12:00	29043	14	-47.1	-82.9	303	7
2023-09-07T12:00	29066	14	-46.9	-82.8	298	7
2023-09-07T12:00	29098	14	-46.8	-82.7	292	6
2023-09-07T12:00	29133	14	-46.6	-82.6	284	6
2023-09-07T12:00	29150	14	-46.5	-82.5	277	7
2023-09-07T12:00	29169	14	-46.5	-82.5	270	7
2023-09-07T12:00	29207	14	-46.7	-82.6	266	7
2023-09-07T12:00	29235	14	-46.8	-82.7	263	8
2023-09-07T12:00	29256	14	-46.8	-82.7	262	8
2023-09-07T12:00	29285	14	-46.7	-82.6	264	8
2023-09-07T12:00	29310	14	-46.6	-82.6	268	8
2023-09-07T12:00	29341	14	-46.4	-82.4	273	8
2023-09-07T12:00	29364	14	-46.3	-82.4	278	8
2023-09-07T12:00	29385	14	-46.2	-82.3	281	8
2023-09-07T12:00	29415	14	-46.2	-83.4	284	8
2023-09-07T12:00	29444	13	-46.0	-83.2	286	8
2023-09-07T12:00	29475	13	-45.6	-82.9	288	7
2023-09-07T12:00	29510	13	-45.1	-82.6	290	7
2023-09-07T12:00	29539	13	-44.9	-82.5	291	7
2023-09-07T12:00	29552	13	-44.7	-82.3	291	7
2023-09-07T12:00	29596	13	-44.4	-82.1	289	7
2023-09-07T12:00	29609	13	-43.7	-81.6	287	7
2023-09-07T12:00	29624	13	-43.3	-81.3	286	7
2023-09-07T12:00	29670	13	-43.4	-81.4	284	7
2023-09-07T12:00	29692	13	-43.6	-81.5	283	8
2023-09-07T12:00	29721	13	-43.7	-81.6	282	8
2023-09-07T12:00	29754	13	-43.8	-81.7	281	8
2023-09-07T12:00	29772	13	-43.8	-81.7	279	9
2023-09-07T12:00	29798	13	-43.8	-81.7	277	9
2023-09-07T12:00	29821	13	-44.0	-81.8	276	9
2023-09-07T12:00	29845	13	-44.2	-82.0	275	10
2023-09-07T12:00	29851	13	-44.4	-82.1	275	10
2023-09-07T12:00	29894	13	-44.6	-82.2	276	10
2023-09-07T12:00	29908	13	-44.8	-81.3	278	10
2023-09-07T12:00	29941	13	-44.8	-82.4	280	10
2023-09-07T12:00	29967	12	-44.7	-82.3	282	10
2023-09-07T12:00	29995	12	-44.6	-82.2	283	10
2023-09-07T12:00	30027	12	-44.5	-82.2	285	10
2023-09-07T12:00	30061	12	-44.4	-82.1	286	9
2023-09-07T12:00	30082	12	-44.2	-82.0	289	9
2023-09-07T12:00	30102	12	-43.9	-81.8	291	9
2023-09-07T12:00	30133	12	-43.6	-81.5	294	9
2023-09-07T12:00	30159	12	-43.5	-81.5	297	9
2023-09-07T12:00	30169	12	-43.4	-81.4	301	9
2023-09-07T12:00	30218	12	-43.1	-81.2	305	8
2023-09-07T12:00	30238	12	-43.0	-81.1	309	8
2023-09-07T12:00	30255	12	-43.0	-81.1	311	8
2023-09-07T12:00	30291	12	-42.8	-81.0	312	8
2023-09-07T12:00	30308	12	-42.3	-80.6	311	8
2023-09-07T12:00	30351	12	-42.1	-80.5	309	8
2023-09-07T12:00	30378	12	-41.9	-80.4	307	8
2023-09-07T12:00	30411	12	-41.8	-80.3	306	8
2023-09-07T12:00	30431	12	-41.7	-80.2	306	7
2023-09-07T12:00	30451	12	-41.7	-80.2	307	7
2023-09-07T12:00	30488	12	-41.7	-80.2	307	7
2023-09-07T12:00	30509	12	-41.9	-80.4	306	6
2023-09-07T12:00	30526	11	-42.1	-80.5	304	6
2023-09-07T12:00	30566	11	-42.3	-80.6	300	5
2023-09-07T12:00	30598	11	-42.4	-80.7	296	4
2023-09-07T12:00	30628	11	-42.4	-80.7	290	4
2023-09-07T12:00	30653	11	-42.4	-80.7	281	3
2023-09-07T12:00	30688	11	-42.5	-80.8	265	3
2023-09-07T12:00	30706	11	-42.5	-80.8	240	2
2023-09-07T12:00	30730	11	-42.4	-80.7	219	3
2023-09-07T12:00	30768	11	-42.3	-80.6	207	4
2023-09-07T12:00	30777	11	-42.3	-80.6	202	5
2023-09-07T12:00	30821	11	-42.3	-80.6	202	5
2023-09-07T12:00	30841	11	-42.3	-80.6	203	6
2023-09-07T12:00	30863	11	-42.2	-80.6	205	7
2023-09-07T12:00	30905	11	-42.2	-80.6	208	8
2023-09-07T12:00	30925	11	-42.3	-80.6	211	8
2023-09-07T12:00	30947	11	-42.4	-80.7	214	9
2023-09-07T12:00	30979	11	-42.5	-80.8	216	9
2023-09-07T12:00	30999	11	-42.5	-80.8	217	9
2023-09-07T12:00	31034	11	-42.5	-80.8	218	9
2023-09-07T12:00	31054	11	-42.7	-80.9	219	10
2023-09-07T12:00	31083	11	-42.8	-81.0	220	10
2023-09-07T12:00	31097	11	-42.8	-81.0	222	9
2023-09-07T12:00	31158	10	-42.8	-81.0	224	9
2023-09-07T12:00	31159	10	-42.7	-80.9	227	8
2023-09-07T12:00	31185	10	-42.7	-80.9	231	8
2023-09-07T12:00	31209	10	-42.6	-80.8	235	8
2023-09-07T12:00	31252	10	-42.6	-80.8	237	7
2023-09-07T12:00	31279	10	-42.5	-80.8	239	7
2023-09-07T12:00	31290	10	-42.3	-80.6	241	7
2023-09-07T12:00	31328	10	-42.3	-80.6	243	7
2023-09-07T12:00	31366	10	-42.2	-80.6	247	8
2023-09-07T12:00	31380	10	-42.2	-80.6	251	8
2023-09-07T12:00	31417	10	-42.2	-80.6	255	8
2023-09-07T12:00	31444	10	-42.3	-80.6	257	9
2023-09-07T12:00	31476	10	-42.2	-80.6	258	9
2023-09-07T12:00	31491	10	-42.1	-80.5	256	9
2023-09-07T12:00	31515	10	-41.9	-80.4	253	9
2023-09-07T12:00	31544	10	-41.7	-80.2	248	9
2023-09-07T12:00	31563	10	-41.5	-80.1	244	9
2023-09-07T12:00	31602	10	-41.3	-79.9	240	9
2023-09-07T12:00	31607	10	-41.2	-79.9	237	9
2023-09-07T12:00	31649	10	-41.2	-79.9	234	9
2023-09-07T12:00	31661	10	-41.2	-79.9	232	9
2023-09-07T12:00	31692	10	-41.4	-80.0	230	9
2023-09-07T12:00	31717	10	-41.6	-80.1	229	9
2023-09-07T12:00	31749	10	-41.7	-80.2	228	10
2023-09-07T12:00	31768	10	-41.7	-80.2	229	10
2023-09-07T12:00	31805	10	-41.6	-80.1	232	10
2023-09-07T12:00	31836	9	-41.4	-80.0	235	10
2023-09-07T12:00	31848	9	-41.3	-79.9	238	11
2023-09-07T12:00	31877	9	-41.2	-79.9	239	11
2023-09-07T12:00	31903	9	-41.2	-79.9	240	12
2023-09-07T12:00	31933	9	-41.0	-79.7	239	12
2023-09-07T12:00	31970	9	-40.8	-79.6	239	12
2023-09-07T12:00	31986	9	-40.8	-79.6	240	13
2023-09-07T12:00	32002	9	-41.0	-79.7	243	13
2023-09-07T12:00	32030	9	-40.8	-79.6	245	13
2023-09-07T12:00	32050	9	-40.5	-79.4	248	14
2023-09-07T12:00	32082	9	-40.3	-79.2	251	14
2023-09-07T12:00	32119	9	-40.3	-79.2	253	14
2023-09-07T12:00	32169	9	-40.4	-79.3	255	14
2023-09-07T12:00	32171	9	-40.5	-79.4	257	15
2023-09-07T12:00	32213	9	-40.5	-79.4	259	15
2023-09-07T12:00	32233	9	-40.5	-79.4	261	15
2023-09-07T12:00	32241	9	-40.6	-79.5	263	15
2023-09-07T12:00	32259	9	-40.7	-79.5	264	15
2023-09-07T12:00	32297	9	-40.9	-79.7	266	15
2023-09-07T12:00	32339	9	-41.0	-79.7	267	14
2023-09-07T12:00	32345	9	-40.9	-79.7	268	14
2023-09-07T12:00	32376	9	-40.8	-79.6	270	14
2023-09-07T12:00	32386	9	-40.7	-79.5	271	13
2023-09-07T12:00	32435	9	-40.6	-79.5	272	13
2023-09-07T12:00	32438	9	-40.4	-79.3	273	12
2023-09-07T12:00	32481	9	-40.3	-79.2	274	12
2023-09-07T12:00	32513	9	-40.2	-79.2	274	11
2023-09-07T12:00	32542	9	-39.9	-79.0	275	11
2023-09-07T12:00	32555	9	-39.4	-78.6	275	10
2023-09-07T12:00	32608	8	-39.1	-78.4	276	10
2023-09-07T12:00	32651	8	-38.7	-78.1	279	10
2023-09-07T12:00	32669	8	-38.5	-78.0	281	10
2023-09-07T12:00	32674	8	-38.3	-77.9	282	10
2023-09-07T12:00	32683	8	-38.3	-77.9	283	9
2023-09-07T12:00	32725	8	-38.3	-77.9	283	9
2023-09-07T12:00	32755	8	-38.3	-77.9	284	9
2023-09-07T18:00	-999					
2023-09-07T18:00	126	1009	25.5		77	2
2023-09-07T18:00	148	1006	25.6	11.9	90	4
2023-09-07T18:00	172	1003	25.5	11.7	98	5
2023-09-07T18:00	196	1001	25.3	11.6	104	6
2023-09-07T18:00	219	998	25.2	11.6	108	6
2023-09-07T18:00	242	995	24.9	11.5	110	7
2023-09-07T18:00	265	993	24.7	11.6	111	7
2023-09-07T18:00	288	990	24.5	11.5	110	7
2023-09-07T18:00	313	987	24.3	11.5	109	7
2023-09-07T18:00	334	985	24.0	11.5	109	7
2023-09-07T18:00	352	983	24.0	11.3	109	7
2023-09-07T18:00	374	980	23.8	11.2	109	8
2023-09-07T18:00	397	978	23.6	11.2	110	8
2023-09-07T18:00	420	975	23.3	11.0	111	8
2023-09-07T18:00	442	973	23.2	10.9	112	8
2023-09-07T18:00	463	971	23.0	10.8	112	8
2023-09-07T18:00	483	968	22.8	10.8	112	8
2023-09-07T18:00	503	966	22.6	10.7	112	8
2023-09-07T18:00	523	964	22.4	10.6	111	8
2023-09-07T18:00	543	962	22.2	10.7	109	7
2023-09-07T18:00	564	959	22.0	10.5	108	7
2023-09-07T18:00	585	957	21.8	10.4	109	7
2023-09-07T18:00	607	955	21.6	10.4	110	8
2023-09-07T18:00	631	952	21.4	10.3	113	8
2023-09-07T18:00	652	950	21.2	10.3	115	8
2023-09-07T18:00	667	948	21.0	10.2	115	8
2023-09-07T18:00	688	946	20.9	10.2	115	8
2023-09-07T18:00	712	943	20.6	10.1	114	8
2023-09-07T18:00	735	941	20.4	10.1	114	8
2023-09-07T18:00	758	938	20.2	9.9	113	8
2023-09-07T18:00	778	936	20.0	9.9	112	7
2023-09-07T18:00	801	934	19.8	9.9	111	7
2023-09-07T18:00	818	932	19.6	9.8	110	6
2023-09-07T18:00	835	930	19.4	9.9	110	6
2023-09-07T18:00	852	928	19.3	10.0	111	6
2023-09-07T18:00	870	926	19.1	10.2	114	6
2023-09-07T18:00	890	924	18.9	10.2	118	5
2023-09-07T18:00	912	921	18.7	10.1	123	5
2023-09-07T18:00	938	919	18.4	9.9	127	5
2023-09-07T18:00	957	917	18.3	10.1	129	5
2023-09-07T18:00	972	915	18.1	10.0	129	5
2023-09-07T18:00	994	913	17.9	10.0	126	5
2023-09-07T18:00	1017	910	17.7	9.9	122	6
2023-09-07T18:00	1039	908	17.5	9.9	118	6
2023-09-07T18:00	1065	905	17.2	9.7	115	6
2023-09-07T18:00	1084	903	17.0	9.7	113	7
2023-09-07T18:00	1107	901	16.9	9.0	112	7
2023-09-07T18:00	1129	898	16.7	8.6	113	7
2023-09-07T18:00	1149	896	16.5	8.5	117	7
2023-09-07T18:00	1175	894	16.4	8.5	123	7
2023-09-07T18:00	1198	891	16.4	6.3	129	7
2023-09-07T18:00	1220	889	17.2	-0.8	134	8
2023-09-07T18:00	1241	887	18.4	-14.1	137	8
2023-09-07T18:00	1257	885	18.8	-15.5	137	7
2023-09-07T18:00	1275	883	19.0	-15.2	135	7
2023-09-07T18:00	1299	881	19.0	-15.0	132	7
2023-09-07T18:00	1325	878	18.8	-15.2	129	7
2023-09-07T18:00	1341	876	18.9	-15.2	126	6
2023-09-07T18:00	1369	873	18.9	-16.2	123	6
2023-09-07T18:00	1397	871	18.9	-16.6	121	7
2023-09-07T18:00	1426	868	18.8	-17.2	120	7
2023-09-07T18:00	1451	865	18.7	-17.1	120	7
2023-09-07T18:00	1477	863	18.6	-17.3	120	8
2023-09-07T18:00	1500	860	18.6	-19.4	123	8
2023-09-07T18:00	1525	858	18.6	-20.3	126	8
2023-09-07T18:00	1554	855	18.4	-21.1	129	8
2023-09-07T18:00	1578	852	18.4	-20.8	131	8
2023-09-07T18:00	1599	850	18.1	-7.9	133	7
2023-09-07T18:00	1620	848	17.8	-4.2	134	7
2023-09-07T18:00	1644	846	17.6	-5.8	135	6
2023-09-07T18:00	1668	844	17.5	-7.1	138	6
2023-09-07T18:00	1688	841	17.4	-9.1	141	6
2023-09-07T18:00	1709	839	17.2	-8.3	143	6
2023-09-07T18:00	1731	837	17.1	-11.2	143	6
2023-09-07T18:00	1755	835	17.0	-12.1	141	6
2023-09-07T18:00	1776	833	16.7	-6.1	138	7
2023-09-07T18:00	1802	830	16.4	-5.1	137	7
2023-09-07T18:00	1827	828	16.3	-5.4	137	7
2023-09-07T18:00	1854	825	16.1	-5.8	137	7
2023-09-07T18:00	1874	823	16.0	-5.9	138	7
2023-09-07T18:00	1899	821	15.8	-6.5	137	7
2023-09-07T18:00	1924	818	15.6	-6.6	135	6
2023-09-07T18:00	1947	816	15.6	-7.4	134	6
2023-09-07T18:00	1972	814	15.4	-5.8	133	6
2023-09-07T18:00	2002	811	15.2	-7.3	133	6
2023-09-07T18:00	2025	809	15.0	-7.3	133	6
2023-09-07T18:00	2047	807	15.0	-8.4	133	5
2023-09-07T18:00	2064	805	14.9	-9.0	130	5
2023-09-07T18:00	2095	802	14.7	-6.4	126	4
2023-09-07T18:00	2121	800	15.0	-10.0	122	4
2023-09-07T18:00	2142	797	14.9	-10.3	119	4
2023-09-07T18:00	2163	795	14.8		118	4
2023-09-07T18:00	2186	793	14.6	-11.7	117	4
2023-09-07T18:00	2210	791	14.4	-11.9	115	3
2023-09-07T18:00	2233	789	14.2	-12.0	114	3
2023-09-07T18:00	2256	787	14.0	-12.1	114	3
2023-09-07T18:00	2277	785	14.1	-13.3	116	4
2023-09-07T18:00	2296	783	14.1	-14.1	119	4
2023-09-07T18:00	2313	781	14.3	-16.2	122	4
2023-09-07T18:00	2331	780	14.7	-19.6	125	5
2023-09-07T18:00	2351	778	15.0	-25.9	127	5
2023-09-07T18:00	2375	776	15.1	-27.7	127	5
2023-09-07T18:00	2401	773	15.1	-28.5	127	5
2023-09-07T18:00	2425	771	15.0	-28.1	126	4
2023-09-07T18:00	2449	769	14.8	-25.4	124	4
2023-09-07T18:00	2473	767	14.6	-22.5	124	4
2023-09-07T18:00	2496	765	14.4	-19.4	125	4
2023-09-07T18:00	2518	763	14.2	-18.0	126	4
2023-09-07T18:00	2543	760	14.1	-19.1	126	5
2023-09-07T18:00	2567	758	14.0	-19.9	126	5
2023-09-07T18:00	2593	756	13.9	-20.0	125	4
2023-09-07T18:00	2620	754	13.8	-20.1	126	4
2023-09-07T18:00	2640	752	13.7	-20.5	127	4
2023-09-07T18:00	2662	750	13.6	-20.9	129	4
2023-09-07T18:00	2682	748	13.5	-20.1	129	4
2023-09-07T18:00	2704	746	13.3	-19.9	127	3
2023-09-07T18:00	2728	744	13.1	-20.2	123	4
2023-09-07T18:00	2746	742	12.9	-20.7	117	4
2023-09-07T18:00	2770	740	12.8	-20.9	112	4
2023-09-07T18:00	2798	738	12.6	-21.7	108	4
2023-09-07T18:00	2820	736	12.5	-21.8	106	4
2023-09-07T18:00	2845	734	12.4	-21.7	105	4
2023-09-07T18:00	2868	731	12.2	-21.5	105	4
2023-09-07T18:00	2893	729	12.0	-21.6	104	4
2023-09-07T18:00	2911	728	11.9	-21.7	101	4
2023-09-07T18:00	2929	726	11.8	-21.9	96	4
2023-09-07T18:00	2950	724	11.7	-21.8	89	4
2023-09-07T18:00	2977	722	11.6	-21.7	83	4
2023-09-07T18:00	3001	720	11.4	-21.9	81	4
2023-09-07T18:00	3020	718	11.3	-22.1	84	3
2023-09-07T18:00	3044	716	11.2	-22.5	90	3
2023-09-07T18:00	3072	714	11.1	-22.2	96	3
2023-09-07T18:00	3097	712	11.0	-21.4	100	3
2023-09-07T18:00	3123	709	10.9	-21.6	100	3
2023-09-07T18:00	3148	707	10.7	-21.9	98	3
2023-09-07T18:00	3168	706	10.6	-21.6	95	3
2023-09-07T18:00	3189	704	10.4	-21.9	94	3
2023-09-07T18:00	3214	702	10.2	-22.2	95	3
2023-09-07T18:00	3240	700	10.0	-22.3	98	3
2023-09-07T18:00	3262	698	9.8	-22.6	100	3
2023-09-07T18:00	3286	696	9.6	-14.6	100	3
2023-09-07T18:00	3307	694	9.5	-15.6	99	3
2023-09-07T18:00	3327	692	9.3	-15.0	97	3
2023-09-07T18:00	3349	690	9.1	-14.6	94	3
2023-09-07T18:00	3369	689	8.9	-14.5	89	3
2023-09-07T18:00	3392	687	8.8	-13.5	83	2
2023-09-07T18:00	3413	685	8.6	-13.5	77	2
2023-09-07T18:00	3437	683	8.6	-15.4	71	2
2023-09-07T18:00	3469	681	8.8	-19.8	68	2
2023-09-07T18:00	3500	678	9.0	-27.0	65	2
2023-09-07T18:00	3524	676	8.8	-26.7	64	3
2023-09-07T18:00	3549	674	8.7	-26.6	62	3
2023-09-07T18:00	3570	672	8.6	-26.2	61	3
2023-09-07T18:00	3592	670	8.6	-25.9	60	3
2023-09-07T18:00	3620	668	8.4	-26.0	62	3
2023-09-07T18:00	3641	666	8.2	-25.9	64	3
2023-09-07T18:00	3661	665	8.0	-25.9	67	3
2023-09-07T18:00	3680	663	7.8	-25.8	69	3
2023-09-07T18:00	3704	662	7.6	-25.8	70	3
2023-09-07T18:00	3723	660	7.5	-26.4	70	3
2023-09-07T18:00	3746	658	7.4	-28.1	72	3
2023-09-07T18:00	3773	656	7.4	-31.1	73	3
2023-09-07T18:00	3799	654	7.2	-31.5	74	3
2023-09-07T18:00	3823	652	7.1	-30.7	73	4
2023-09-07T18:00	3853	650	6.9	-30.3	71	4
2023-09-07T18:00	3879	647	6.6	-30.0	68	4
2023-09-07T18:00	3904	645	6.4	-30.1	66	5
2023-09-07T18:00	3932	643	6.4	-30.4	64	5
2023-09-07T18:00	3953	642	6.3	-30.5	63	5
2023-09-07T18:00	3976	640	6.1	-31.1	64	5
2023-09-07T18:00	4002	638	5.9	-31.8	65	5
2023-09-07T18:00	4025	636	5.8	-31.8	66	5
2023-09-07T18:00	4052	634	5.7	-32.8	66	5
2023-09-07T18:00	4077	632	5.5	-32.9	65	5
2023-09-07T18:00	4099	630	5.5	-30.3	63	5
2023-09-07T18:00	4121	628	5.3	-27.9	60	5
2023-09-07T18:00	4150	626	5.1	-25.6	55	5
2023-09-07T18:00	4179	624	4.9	-17.6	50	5
2023-09-07T18:00	4203	622	4.6	-15.4	45	5
2023-09-07T18:00	4231	620	4.3	-15.7	42	5
2023-09-07T18:00	4255	618	4.1	-14.7	41	5
2023-09-07T18:00	4286	616	3.7	-13.4	42	6
2023-09-07T18:00	4311	614	3.5	-13.3	44	6
2023-09-07T18:00	4332	612	3.3	-13.1	45	6
2023-09-07T18:00	4358	611	3.1	-12.8	47	6
2023-09-07T18:00	4381	609	2.8	-12.3	49	5
2023-09-07T18:00	4405	607	2.6	-12.2	50	5
2023-09-07T18:00	4430	605	2.4	-12.2	50	5
2023-09-07T18:00	4455	603	2.1	-12.2	50	4
2023-09-07T18:00	4479	601	1.9	-12.3	49	4
2023-09-07T18:00	4501	600	1.7	-12.3	46	4
2023-09-07T18:00	4525	598	1.5	-12.3	43	4
2023-09-07T18:00	4547	596	1.3	-12.3	41	5
2023-09-07T18:00	4567	595	1.1	-12.3	39	5
2023-09-07T18:00	4587	593	0.9	-12.5	36	5
2023-09-07T18:00	4607	592	0.7	-12.6	33	5
2023-09-07T18:00	4626	590	0.5	-12.9	28	5
2023-09-07T18:00	4649	589	0.3	-13.0	23	5
2023-09-07T18:00	4674	587	0.1	-13.4	18	5
2023-09-07T18:00	4692	586	-0.1	-13.3	15	5
2023-09-07T18:00	4713	584	-0.2	-13.0	15	5
2023-09-07T18:00	4739	582	-0.3	-15.0	16	5
2023-09-07T18:00	4763	580	-0.4	-15.2	17	5
2023-09-07T18:00	4792	579	-0.7	-15.8	19	4
2023-09-07T18:00	4811	577	-0.8		21	4
2023-09-07T18:00	4831	576	-1.0	-16.4	23	4
2023-09-07T18:00	4851	574	-1.1	-16.2	27	4
2023-09-07T18:00	4869	573	-1.2	-16.2	31	4
2023-09-07T18:00	4888	572	-1.3	-16.3	36	4
2023-09-07T18:00	4905	570	-1.4	-16.6	41	4
2023-09-07T18:00	4925	569	-1.6	-16.7	46	4
2023-09-07T18:00	4943	568	-1.7	-16.7	50	4
2023-09-07T18:00	4962	566	-1.9	-16.9	53	4
2023-09-07T18:00	4983	565	-2.0	-17.1	54	4
2023-09-07T18:00	5007	563	-2.2	-17.2	54	4
2023-09-07T18:00	5028	562	-2.4	-17.3	53	4
2023-09-07T18:00	5049	560	-2.5	-17.3	50	5
2023-09-07T18:00	5075	558	-2.7	-18.0	49	5
2023-09-07T18:00	5104	556	-2.9	-19.6	48	6
2023-09-07T18:00	5123	555	-3.0	-19.9	49	6
2023-09-07T18:00	5144	553	-3.2	-20.7	49	6
2023-09-07T18:00	5175	551	-3.4	-21.9	49	6
2023-09-07T18:00	5196	550	-3.5	-21.9	48	6
2023-09-07T18:00	5222	548	-3.7	-22.4	46	6
2023-09-07T18:00	5243	546	-3.9	-22.8	45	6
2023-09-07T18:00	5268	545	-4.1	-23.0	44	6
2023-09-07T18:00	5297	543	-4.3	-23.3	44	6
2023-09-07T18:00	5317	541	-4.5	-23.5	45	7
2023-09-07T18:00	5336	540	-4.6	-23.5	44	7
2023-09-07T18:00	5356	539	-4.8	-23.6	43	7
2023-09-07T18:00	5377	537	-5.0	-23.7	42	7
2023-09-07T18:00	5396	536	-5.1	-23.8	41	7
2023-09-07T18:00	5414	535	-5.3	-24.5	40	7
2023-09-07T18:00	5435	533	-5.4	-24.6	40	7
2023-09-07T18:00	5460	532	-5.6	-24.7	39	7
2023-09-07T18:00	5479	530	-5.8	-24.7	39	7
2023-09-07T18:00	5500	529	-6.0	-24.6	38	7
2023-09-07T18:00	5523	527	-6.2	-24.4	38	7
2023-09-07T18:00	5552	525	-6.4	-24.3	38	7
2023-09-07T18:00	5573	524	-6.6	-24.3	39	7
2023-09-07T18:00	5593	523	-6.8	-24.2	39	7
2023-09-07T18:00	5614	521	-7.0	-24.0	39	7
2023-09-07T18:00	5639	520	-7.3	-23.9	39	8
2023-09-07T18:00	5664	518	-7.5	-23.9	38	8
2023-09-07T18:00	5688	516	-7.6	-24.2	38	8
2023-09-07T18:00	5705	515	-7.7	-24.2	37	8
2023-09-07T18:00	5726	514	-7.9	-23.5	36	8
2023-09-07T18:00	5749	512	-8.1	-22.8	35	8
2023-09-07T18:00	5774	511	-8.3	-23.1	33	8
2023-09-07T18:00	5799	509	-8.4	-24.7	31	8
2023-09-07T18:00	5819	508	-8.5	-23.4	29	8
2023-09-07T18:00	5842	506	-8.6	-25.0	28	9
2023-09-07T18:00	5868	504	-8.7	-24.7	28	9
2023-09-07T18:00	5893	503	-8.9	-24.8	29	9
2023-09-07T18:00	5915	501	-9.0	-25.1	31	9
2023-09-07T18:00	5939	500	-9.2	-24.9	32	9
2023-09-07T18:00	5968	498	-9.4	-24.8	31	9
2023-09-07T18:00	5993	496	-9.6	-25.7	30	9
2023-09-07T18:00	6014	495	-9.5	-28.2	28	10
2023-09-07T18:00	6037	493	-9.6	-28.8	25	10
2023-09-07T18:00	6062	492	-9.7	-29.3	24	11
2023-09-07T18:00	6087	490	-9.8	-30.4	25	11
2023-09-07T18:00	6112	489	-9.9	-29.1	26	11
2023-09-07T18:00	6140	487	-10.1	-28.5	27	11
2023-09-07T18:00	6165	485	-10.3	-28.5	27	11
2023-09-07T18:00	6191	484	-10.4	-28.1	27	11
2023-09-07T18:00	6217	482	-10.5	-27.5	26	11
2023-09-07T18:00	6236	481	-10.5	-28.8	25	10
2023-09-07T18:00	6258	480	-10.5	-31.3	25	10
2023-09-07T18:00	6281	478	-10.5	-30.6	25	10
2023-09-07T18:00	6305	477	-10.5	-31.3	26	10
2023-09-07T18:00	6332	475	-10.5	-31.2	28	10
2023-09-07T18:00	6359	473	-10.6	-31.0	29	10
2023-09-07T18:00	6384	472	-10.8	-30.6	29	10
2023-09-07T18:00	6409	470	-11.0		29	11
2023-09-07T18:00	6432	469	-11.2	-29.7	28	11
2023-09-07T18:00	6463	467	-11.3	-29.1	28	10
2023-09-07T18:00	6489	465	-11.5	-29.8	28	10
2023-09-07T18:00	6514	464	-11.7	-30.7	29	10
2023-09-07T18:00	6538	462	-11.8	-31.0	29	10
2023-09-07T18:00	6559	461	-12.0	-31.5	28	10
2023-09-07T18:00	6588	459	-12.1	-30.7	27	10
2023-09-07T18:00	6613	458	-12.3	-30.5	25	11
2023-09-07T18:00	6640	456	-12.6		24	11
2023-09-07T18:00	6667	455	-12.8	-30.2	23	11
2023-09-07T18:00	6695	453	-13.0	-29.7	23	11
2023-09-07T18:00	6725	451	-13.2	-28.6	22	11
2023-09-07T18:00	6751	450	-13.4	-29.1	20	10
2023-09-07T18:00	6771	448	-13.4	-30.7	18	10
2023-09-07T18:00	6794	447	-13.6	-30.7	16	10
2023-09-07T18:00	6820	446	-13.9	-30.7	14	9
2023-09-07T18:00	6844	444	-14.1	-30.8	13	9
2023-09-07T18:00	6873	443	-14.4	-31.2	13	9
2023-09-07T18:00	6894	441	-14.5	-31.7	13	9
2023-09-07T18:00	6915	440	-14.7	-32.1	12	9
2023-09-07T18:00	6937	439	-14.8	-32.1	11	8
2023-09-07T18:00	6956	438	-15.0	-32.6	10	8
2023-09-07T18:00	6984	436	-15.2	-32.5	8	8
2023-09-07T18:00	7010	435	-15.4	-32.3	8	8
2023-09-07T18:00	7032	433	-15.6	-32.7	9	8
2023-09-07T18:00	7059	432	-15.7	-33.3	11	8
2023-09-07T18:00	7086	430	-15.8	-34.2	14	8
2023-09-07T18:00	7112	429	-16.0	-34.0	16	8
2023-09-07T18:00	7141	427	-16.1	-34.7	18	8
2023-09-07T18:00	7168	426	-16.2	-34.4	20	8
2023-09-07T18:00	7192	424	-16.3	-35.6	20	7
2023-09-07T18:00	7218	423	-16.5	-35.8	20	7
2023-09-07T18:00	7241	421	-16.7	-36.0	19	7
2023-09-07T18:00	7262	420	-16.8	-36.2	17	6
2023-09-07T18:00	7283	419	-17.0	-36.5	16	6
2023-09-07T18:00	7301	418	-17.1	-36.4	14	6
2023-09-07T18:00	7321	417	-17.2	-36.2	13	6
2023-09-07T18:00	7339	416	-17.4	-36.5	13	6
2023-09-07T18:00	7358	415	-17.5	-36.4	14	6
2023-09-07T18:00	7377	414	-17.7	-36.5	15	6
2023-09-07T18:00	7395	413	-17.9	-36.4	16	6
2023-09-07T18:00	7414	412	-18.1	-36.3	16	6
2023-09-07T18:00	7432	411	-18.2	-36.5	15	7
2023-09-07T18:00	7451	410	-18.3	-36.8	15	7
2023-09-07T18:00	7469	409	-18.5	-37.3	14	7
2023-09-07T18:00	7486	408	-18.6	-37.8	13	7
2023-09-07T18:00	7503	407	-18.7	-37.9	12	7
2023-09-07T18:00	7522	406	-18.9	-37.8	11	7
2023-09-07T18:00	7540	405	-19.1	-36.8	9	8
2023-09-07T18:00	7562	404	-19.2	-36.6	8	8
2023-09-07T18:00	7580	403	-19.4	-36.4	7	8
2023-09-07T18:00	7600	402	-19.6	-36.3	6	8
2023-09-07T18:00	7618	401	-19.8	-36.3	5	8
2023-09-07T18:00	7638	400	-19.9	-36.1	5	8
2023-09-07T18:00	7657	399	-20.1	-36.4	5	8
2023-09-07T18:00	7678	397	-20.2	-36.4	5	8
2023-09-07T18:00	7697	396	-20.4	-36.6	6	8
2023-09-07T18:00	7716	395	-20.5	-37.0	8	8
2023-09-07T18:00	7736	394	-20.6	-38.2	9	8
2023-09-07T18:00	7752	393	-20.7	-38.3	11	8
2023-09-07T18:00	7771	392	-20.8	-38.4	12	9
2023-09-07T18:00	7789	392	-20.9	-38.7	12	9
2023-09-07T18:00	7808	391	-21.1	-39.2	13	9
2023-09-07T18:00	7826	390	-21.2	-39.5	13	9
2023-09-07T18:00	7846	389	-21.3	-39.9	13	9
2023-09-07T18:00	7864	388	-21.4	-41.0	14	8
2023-09-07T18:00	7883	387	-21.5	-41.4	14	8
2023-09-07T18:00	7902	386	-21.6	-41.7	15	8
2023-09-07T18:00	7920	385	-21.8	-42.0	15	8
2023-09-07T18:00	7940	384	-21.9	-42.2	16	8
2023-09-07T18:00	7959	383	-22.0	-42.5	17	8
2023-09-07T18:00	7977	382	-22.2	-42.7	17	8
2023-09-07T18:00	7996	381	-22.3	-42.8	17	8
2023-09-07T18:00	8014	380	-22.5	-42.9	18	8
2023-09-07T18:00	8035	379	-22.6	-43.3	18	8
2023-09-07T18:00	8054	378	-22.7	-43.6	18	8
2023-09-07T18:00	8073	377	-22.9	-43.4	18	8
2023-09-07T18:00	8092	376	-23.1	-43.2	17	8
2023-09-07T18:00	8111	375	-23.3	-43.2	16	9
2023-09-07T18:00	8129	374	-23.4	-43.1	16	9
2023-09-07T18:00	8148	373	-23.5	-43.1	16	9
2023-09-07T18:00	8168	372	-23.6	-43.0	16	9
2023-09-07T18:00	8188	371	-23.8	-43.1	17	9
2023-09-07T18:00	8206	370	-24.0	-43.2	18	9
2023-09-07T18:00	8224	369	-24.1	-43.2	18	9
2023-09-07T18:00	8243	368	-24.3	-43.3	18	9
2023-09-07T18:00	8261	367	-24.4	-43.3	18	9
2023-09-07T18:00	8281	366	-24.6	-43.3	18	9
2023-09-07T18:00	8302	365	-24.8	-43.4	17	9
2023-09-07T18:00	8319	364	-24.9	-43.5	17	8
2023-09-07T18:00	8338	363	-25.1	-43.7	16	8
2023-09-07T18:00	8357	362	-25.2	-43.9	16	8
2023-09-07T18:00	8377	361	-25.4	-44.0	15	8
2023-09-07T18:00	8395	360	-25.6	-44.1	14	8
2023-09-07T18:00	8413	359	-25.7	-43.8	13	8
2023-09-07T18:00	8433	359	-25.9	-43.8	12	9
2023-09-07T18:00	8451	358	-26.0	-43.8	11	9
2023-09-07T18:00	8470	357	-26.2	-43.9	11	9
2023-09-07T18:00	8488	356	-26.4	-43.9	11	9
2023-09-07T18:00	8506	355	-26.5	-43.8	12	9
2023-09-07T18:00	8527	354	-26.7	-43.8	13	9
2023-09-07T18:00	8544	353	-26.8	-43.9	14	9
2023-09-07T18:00	8563	352	-27.0	-44.4	15	9
2023-09-07T18:00	8582	351	-27.1	-44.2	16	9
2023-09-07T18:00	8602	350	-27.3	-44.4	16	8
2023-09-07T18:00	8621	349	-27.4	-44.4	16	8
2023-09-07T18:00	8640	348	-27.6	-44.6	16	8
2023-09-07T18:00	8659	347	-27.8	-44.9	17	8
2023-09-07T18:00	8680	346	-27.9	-44.9	18	8
2023-09-07T18:00	8701	345	-28.1	-44.7	18	8
2023-09-07T18:00	8719	345	-28.2	-44.7	19	8
2023-09-07T18:00	8739	344	-28.4	-44.9	19	8
2023-09-07T18:00	8757	343	-28.5	-45.0	19	8
2023-09-07T18:00	8777	342	-28.7	-45.1	19	8
2023-09-07T18:00	8796	341	-28.8	-45.1	17	8
2023-09-07T18:00	8814	340	-29.0	-45.2	16	8
2023-09-07T18:00	8836	339	-29.2	-45.2	14	8
2023-09-07T18:00	8856	338	-29.4	-45.3	13	8
2023-09-07T18:00	8875	337	-29.5	-45.4	12	8
2023-09-07T18:00	8895	336	-29.7	-45.4	12	9
2023-09-07T18:00	8914	335	-29.9	-45.3	12	9
2023-09-07T18:00	8934	334	-30.1	-45.3	12	9
2023-09-07T18:00	8951	333	-30.3	-45.2	13	9
2023-09-07T18:00	8973	333	-30.4	-45.2	13	9
2023-09-07T18:00	8991	332	-30.6	-45.2	14	9
2023-09-07T18:00	9010	331	-30.8	-45.0	14	8
2023-09-07T18:00	9030	330	-31.0	-45.1	14	8
2023-09-07T18:00	9049	329	-31.1	-45.0	13	8
2023-09-07T18:00	9068	328	-31.3	-45.2	12	8
2023-09-07T18:00	9086	327	-31.4	-45.5	11	8
2023-09-07T18:00	9104	326	-31.6	-45.8	10	8
2023-09-07T18:00	9124	326	-31.7	-45.8	9	8
2023-09-07T18:00	9145	325	-31.9	-46.1	9	8
2023-09-07T18:00	9163	324	-32.0	-46.7	9	8
2023-09-07T18:00	9184	323	-32.1	-47.0	9	8
2023-09-07T18:00	9204	322	-32.2	-47.1	10	8
2023-09-07T18:00	9224	321	-32.3	-47.5	10	8
2023-09-07T18:00	9243	320	-32.4	-47.8	10	9
2023-09-07T18:00	9261	319	-32.6	-48.0	11	9
2023-09-07T18:00	9282	318	-32.7	-48.1	11	9
2023-09-07T18:00	9302	317	-32.9	-48.4	11	9
2023-09-07T18:00	9321	317	-33.1	-48.5	12	9
2023-09-07T18:00	9339	316	-33.2	-48.6	13	9
2023-09-07T18:00	9359	315	-33.4	-48.7	14	10
2023-09-07T18:00	9379	314	-33.5	-48.8	15	10
2023-09-07T18:00	9398	313	-33.6	-49.1	16	10
2023-09-07T18:00	9415	312	-33.7		16	10
2023-09-07T18:00	9434	311	-33.9	-49.8	17	10
2023-09-07T18:00	9455	311	-34.0	-50.0	17	10
2023-09-07T18:00	9473	310	-34.2	-50.2	16	10
2023-09-07T18:00	9493	309	-34.3	-50.3	16	10
2023-09-07T18:00	9511	308	-34.5	-50.4	15	10
2023-09-07T18:00	9531	307	-34.6	-50.5	14	10
2023-09-07T18:00	9548	306	-34.8	-50.6	14	10
2023-09-07T18:00	9568	306	-34.9	-50.0	13	10
2023-09-07T18:00	9588	305	-35.0	-48.5	13	10
2023-09-07T18:00	9607	304	-35.1	-48.2	13	10
2023-09-07T18:00	9624	303	-35.2	-48.4	13	10
2023-09-07T18:00	9644	302	-35.3	-49.7	13	10
2023-09-07T18:00	9664	301	-35.5	-48.6	13	10
2023-09-07T18:00	9683	301	-35.7	-47.9	12	10
2023-09-07T18:00	9702	300	-35.8	-47.8	12	10
2023-09-07T18:00	9723	299	-35.9		11	11
2023-09-07T18:00	9739	298	-36.0	-48.0	11	11
2023-09-07T18:00	9759	297	-36.1	-48.6	11	11
2023-09-07T18:00	9778	296	-36.2	-48.8	10	11
2023-09-07T18:00	9800	296	-36.4	-48.0	10	11
2023-09-07T18:00	9817	295	-36.5	-47.1	10	11
2023-09-07T18:00	9838	294	-36.7	-47.5	9	11
2023-09-07T18:00	9856	293	-36.9	-48.4	8	11
2023-09-07T18:00	9876	292	-37.1	-49.1	7	11
2023-09-07T18:00	9897	291	-37.3	-49.4	6	11
2023-09-07T18:00	9917	291	-37.5	-49.7	5	11
2023-09-07T18:00	9937	290	-37.6	-49.7	4	11
2023-09-07T18:00	9957	289	-37.8	-50.1	4	11
2023-09-07T18:00	9976	288	-38.0	-50.1	3	11
2023-09-07T18:00	9996	287	-38.1	-49.6	2	11
2023-09-07T18:00	10012	287	-38.3	-46.8	2	11
2023-09-07T18:00	10033	286	-38.4	-45.9	1	11
2023-09-07T18:00	10051	285	-38.6	-45.8	1	11
2023-09-07T18:00	10070	284	-38.8	-45.0	1	11
2023-09-07T18:00	10087	283	-38.9	-44.9	2	11
2023-09-07T18:00	10108	283	-39.1	-45.2	2	12
2023-09-07T18:00	10126	282	-39.2	-45.4	2	12
2023-09-07T18:00	10145	281	-39.3	-45.8	3	12
2023-09-07T18:00	10164	280	-39.4	-46.2	3	13
2023-09-07T18:00	10183	280	-39.5	-47.1	3	13
2023-09-07T18:00	10202	279	-39.6	-47.5	3	13
2023-09-07T18:00	10221	278	-39.8	-47.6	3	13
2023-09-07T18:00	10238	277	-39.9	-47.7	2	13
2023-09-07T18:00	10259	276	-40.1	-48.0	2	13
2023-09-07T18:00	10277	276	-40.3	-48.3	2	13
2023-09-07T18:00	10297	275	-40.4	-48.3	3	14
2023-09-07T18:00	10316	274	-40.6	-48.6	3	14
2023-09-07T18:00	10333	273	-40.7	-48.8	3	14
2023-09-07T18:00	10354	273	-40.9	-48.8	3	14
2023-09-07T18:00	10371	272	-41.1	-49.1	3	14
2023-09-07T18:00	10389	271	-41.2	-49.4	3	14
2023-09-07T18:00	10408	270	-41.4	-49.6	3	14
2023-09-07T18:00	10428	270	-41.6	-49.7	2	14
2023-09-07T18:00	10446	269	-41.7	-49.6	2	14
2023-09-07T18:00	10466	268	-41.9	-49.9	2	14
2023-09-07T18:00	10486	267	-42.0	-50.1	2	14
2023-09-07T18:00	10505	267	-42.1	-50.6	2	14
2023-09-07T18:00	10525	266	-42.2	-50.7	2	14
2023-09-07T18:00	10544	265	-42.4	-50.6	2	15
2023-09-07T18:00	10563	264	-42.4	-51.0	2	15
2023-09-07T18:00	10581	264	-42.5	-52.1	1	15
2023-09-07T18:00	10602	263	-42.7	-53.1	0	15
2023-09-07T18:00	10620	262	-42.8	-53.8	360	16
2023-09-07T18:00	10639	261	-43.0	-54.4	359	16
2023-09-07T18:00	10658	261	-43.2	-54.8	359	16
2023-09-07T18:00	10678	260	-43.4	-54.8	358	16
2023-09-07T18:00	10697	259	-43.6	-54.7	358	16
2023-09-07T18:00	10715	258	-43.7	-54.6	358	17
2023-09-07T18:00	10735	258	-43.9	-54.7	358	17
2023-09-07T18:00	10756	257	-44.1	-54.7	357	17
2023-09-07T18:00	10776	256	-44.3	-54.8	357	17
2023-09-07T18:00	10796	255	-44.5	-55.1	357	17
2023-09-07T18:00	10816	255	-44.7	-55.6	356	17
2023-09-07T18:00	10836	254	-44.9	-56.5	356	17
2023-09-07T18:00	10856	253	-45.1	-57.2	355	17
2023-09-07T18:00	10875	252	-45.3	-57.3	355	17
2023-09-07T18:00	10896	252	-45.4	-57.2	355	17
2023-09-07T18:00	10917	251	-45.6	-57.1	356	17
2023-09-07T18:00	10937	250	-45.8	-56.9	356	17
2023-09-07T18:00	10957	249	-46.0		356	17
2023-09-07T18:00	10975	249	-46.2	-55.3	357	17
2023-09-07T18:00	10998	248	-46.4	-54.7	357	17
2023-09-07T18:00	11016	247	-46.6	-54.7	357	17
2023-09-07T18:00	11036	246	-46.8	-55.2	356	17
2023-09-07T18:00	11055	246	-46.9	-55.7	356	17
2023-09-07T18:00	11076	245	-47.2	-55.9	357	17
2023-09-07T18:00	11097	244	-47.4	-56.1	357	17
2023-09-07T18:00	11119	243	-47.6	-55.4	357	17
2023-09-07T18:00	11138	243	-47.7	-53.7	357	17
2023-09-07T18:00	11157	242	-47.9	-52.7	358	17
2023-09-07T18:00	11177	241	-48.1	-52.6	358	17
2023-09-07T18:00	11197	240	-48.3	-52.9	358	17
2023-09-07T18:00	11219	240	-48.4	-53.2	358	17
2023-09-07T18:00	11240	239	-48.5	-53.3	357	17
2023-09-07T18:00	11260	238	-48.7	-53.6	357	17
2023-09-07T18:00	11280	237	-48.9	-53.7	356	17
2023-09-07T18:00	11300	237	-49.1	-53.8	355	17
2023-09-07T18:00	11320	236	-49.2	-53.8	355	17
2023-09-07T18:00	11340	235	-49.4	-54.0	355	17
2023-09-07T18:00	11359	235	-49.5	-54.1	354	17
2023-09-07T18:00	11379	234	-49.7	-54.2	354	17
2023-09-07T18:00	11398	233	-49.8	-54.3	353	17
2023-09-07T18:00	11417	232	-49.9	-54.3	353	18
2023-09-07T18:00	11438	232	-50.1	-54.4	352	18
2023-09-07T18:00	11459	231	-50.3	-54.6	352	18
2023-09-07T18:00	11479	230	-50.4	-54.6	352	18
2023-09-07T18:00	11500	230	-50.6	-54.8	351	18
2023-09-07T18:00	11520	229	-50.7	-55.0	351	17
2023-09-07T18:00	11539	228	-50.9	-55.2	350	17
2023-09-07T18:00	11560	227	-51.0	-55.3	350	17
2023-09-07T18:00	11578	227	-51.1	-55.6	350	17
2023-09-07T18:00	11598	226	-51.3	-56.0	350	17
2023-09-07T18:00	11618	225	-51.4	-56.3	350	17
2023-09-07T18:00	11638	225	-51.5	-56.6	350	17
2023-09-07T18:00	11654	224	-51.6	-56.9	350	17
2023-09-07T18:00	11675	223	-51.7	-57.0	350	17
2023-09-07T18:00	11695	223	-51.8	-57.0	349	17
2023-09-07T18:00	11714	222	-52.0	-57.2	349	17
2023-09-07T18:00	11732	221	-52.2	-57.3	349	17
2023-09-07T18:00	11752	221	-52.3	-57.3	349	17
2023-09-07T18:00	11771	220	-52.5	-57.6	349	17
2023-09-07T18:00	11790	219	-52.6	-57.7	349	17
2023-09-07T18:00	11809	219	-52.7	-57.9	350	17
2023-09-07T18:00	11830	218	-52.9	-58.3	350	17
2023-09-07T18:00	11847	218	-52.9	-58.6	350	18
2023-09-07T18:00	11868	217	-52.9	-58.7	350	18
2023-09-07T18:00	11887	216	-53.1	-58.8	350	18
2023-09-07T18:00	11906	216	-53.2	-58.8	351	18
2023-09-07T18:00	11925	215	-53.2	-59.0	351	18
2023-09-07T18:00	11946	214	-53.3	-59.6	352	18
2023-09-07T18:00	11963	214	-53.3	-59.9	352	18
2023-09-07T18:00	11980	213	-53.3	-59.8	352	18
2023-09-07T18:00	12001	212	-53.5	-59.7	351	18
2023-09-07T18:00	12022	212	-53.6	-59.6	350	18
2023-09-07T18:00	12040	211	-53.8	-59.7	349	17
2023-09-07T18:00	12062	210	-54.0	-59.7	348	17
2023-09-07T18:00	12082	210	-54.1	-59.8	347	18
2023-09-07T18:00	12104	209	-54.3	-60.0	346	18
2023-09-07T18:00	12124	208	-54.4	-60.2	345	18
2023-09-07T18:00	12143	208	-54.4	-60.2	345	19
2023-09-07T18:00	12160	207	-54.6	-60.4	344	19
2023-09-07T18:00	12179	207	-54.7	-60.5	344	19
2023-09-07T18:00	12200	206	-54.8	-60.6	344	19
2023-09-07T18:00	12218	205	-54.9	-60.7	344	19
2023-09-07T18:00	12237	205	-55.1	-60.7	344	19
2023-09-07T18:00	12256	204	-55.2	-60.8	344	19
2023-09-07T18:00	12276	203	-55.4	-61.0	344	19
2023-09-07T18:00	12297	203	-55.5	-61.1	343	20
2023-09-07T18:00	12315	202	-55.7	-61.2	343	20
2023-09-07T18:00	12334	202	-55.8	-61.2	343	20
2023-09-07T18:00	12354	201	-55.9	-61.2	343	20
2023-09-07T18:00	12374	200	-56.1	-61.2	344	20
2023-09-07T18:00	12394	200	-56.2	-61.3	344	20
2023-09-07T18:00	12413	199	-56.3	-61.4	344	20
2023-09-07T18:00	12433	199	-56.4	-61.4	344	20
2023-09-07T18:00	12454	198	-56.6	-61.6	344	20
2023-09-07T18:00	12473	197	-56.7	-61.7	344	20
2023-09-07T18:00	12494	197	-56.8	-61.9	344	20
2023-09-07T18:00	12513	196	-56.9	-62.0	344	20
2023-09-07T18:00	12532	195	-57.1	-62.2	344	20
2023-09-07T18:00	12553	195	-57.3	-62.2	343	20
2023-09-07T18:00	12571	194	-57.4	-62.2	343	20
2023-09-07T18:00	12591	194	-57.6	-62.3	342	20
2023-09-07T18:00	12611	193	-57.7	-62.3	341	20
2023-09-07T18:00	12631	192	-57.9	-62.3	341	20
2023-09-07T18:00	12651	192	-58.0	-62.3	340	21
2023-09-07T18:00	12669	191	-58.1	-62.3	340	21
2023-09-07T18:00	12689	191	-58.3	-62.4	339	21
2023-09-07T18:00	12707	190	-58.5	-62.5	339	21
2023-09-07T18:00	12725	190	-58.6	-62.6	339	21
2023-09-07T18:00	12745	189	-58.7	-62.8	339	21
2023-09-07T18:00	12766	188	-58.9	-63.1	339	21
2023-09-07T18:00	12785	188	-59.0	-63.3	340	21
2023-09-07T18:00	12805	187	-59.1	-63.5	341	21
2023-09-07T18:00	12825	187	-59.3	-63.9	342	21
2023-09-07T18:00	12846	186	-59.4	-64.4	344	21
2023-09-07T18:00	12867	185	-59.4	-65.2	345	21
2023-09-07T18:00	12888	185	-59.0	-66.2	346	21
2023-09-07T18:00	12908	184	-59.0	-67.5	346	21
2023-09-07T18:00	12929	183	-59.0	-68.6	346	20
2023-09-07T18:00	12951	183	-59.0	-69.0	346	20
2023-09-07T18:00	12970	182	-59.1	-69.2	345	20
2023-09-07T18:00	12991	182	-59.0	-69.1	345	20
2023-09-07T18:00	13015	181	-58.9	-69.1	346	20
2023-09-07T18:00	13037	180	-59.0	-69.4	346	19
2023-09-07T18:00	13059	180	-59.2	-69.8	347	19
2023-09-07T18:00	13082	179	-59.4	-70.1	348	19
2023-09-07T18:00	13105	178	-59.6	-70.3	349	19
2023-09-07T18:00	13127	178	-59.8	-70.5	349	18
2023-09-07T18:00	13151	177	-60.0	-70.7	349	18
2023-09-07T18:00	13172	177	-60.2	-70.9	348	18
2023-09-07T18:00	13193	176	-60.4	-71.2	348	17
2023-09-07T18:00	13214	175	-60.5	-71.2	347	17
2023-09-07T18:00	13236	175	-60.6	-71.3	346	17
2023-09-07T18:00	13256	174	-60.7	-71.4	345	17
2023-09-07T18:00	13277	174	-60.8	-71.5	344	18
2023-09-07T18:00	13298	173	-60.9	-71.5	343	18
2023-09-07T18:00	13317	172	-61.0	-71.3	342	18
2023-09-07T18:00	13338	172	-61.2	-71.0	342	18
2023-09-07T18:00	13356	171	-61.3	-70.3	341	18
2023-09-07T18:00	13378	171	-61.5	-69.7	341	18
2023-09-07T18:00	13398	170	-61.7	-69.1	341	18
2023-09-07T18:00	13420	170	-61.8	-68.4	342	18
2023-09-07T18:00	13440	169	-62.0	-67.9	343	18
2023-09-07T18:00	13459	168	-62.1	-67.5	343	18
2023-09-07T18:00	13480	168	-62.3	-67.4	344	18
2023-09-07T18:00	13501	167	-62.4	-67.4	345	18
2023-09-07T18:00	13522	167	-62.6	-67.6	345	18
2023-09-07T18:00	13543	166	-62.7	-67.7	345	18
2023-09-07T18:00	13562	166	-62.7	-67.7	346	19
2023-09-07T18:00	13583	165	-62.9	-68.0	346	19
2023-09-07T18:00	13604	165	-63.0	-68.3	346	19
2023-09-07T18:00	13624	164	-63.0	-68.7	346	19
2023-09-07T18:00	13644	164	-63.0	-69.1	346	18
2023-09-07T18:00	13665	163	-63.0	-69.7	346	18
2023-09-07T18:00	13685	162	-63.0	-70.1	345	18
2023-09-07T18:00	13706	162	-63.1	-70.5	343	18
2023-09-07T18:00	13726	161	-63.2	-70.9	342	18
2023-09-07T18:00	13748	161	-63.3	-71.2	342	18
2023-09-07T18:00	13770	160	-63.3	-71.6	341	18
2023-09-07T18:00	13788	160	-63.2	-71.9	342	18
2023-09-07T18:00	13808	159	-63.2	-72.3	343	17
2023-09-07T18:00	13826	159	-63.4	-72.9	344	17
2023-09-07T18:00	13848	158	-63.2	-73.0	346	17
2023-09-07T18:00	13869	158	-63.0	-73.1	348	17
2023-09-07T18:00	13889	157	-63.1	-73.5	349	17
2023-09-07T18:00	13910	157	-63.3	-73.9	351	17
2023-09-07T18:00	13933	156	-63.4	-74.1	352	16
2023-09-07T18:00	13953	156	-63.5	-74.1	354	16
2023-09-07T18:00	13973	155	-63.5	-74.2	354	16
2023-09-07T18:00	13996	154	-63.7	-74.4	355	15
2023-09-07T18:00	14018	154	-63.8	-74.5	356	15
2023-09-07T18:00	14040	153	-63.9	-74.6	356	14
2023-09-07T18:00	14059	153	-64.0	-74.7	356	14
2023-09-07T18:00	14084	152	-64.2	-75.0	356	13
2023-09-07T18:00	14103	152	-64.3	-75.3	355	13
2023-09-07T18:00	14126	151	-64.3	-75.5	354	12
2023-09-07T18:00	14146	151	-64.2	-75.7	353	12
2023-09-07T18:00	14167	150	-64.0	-75.8	352	12
2023-09-07T18:00	14187	150	-64.0	-75.9	351	12
2023-09-07T18:00	14210	149	-64.0	-75.8	351	12
2023-09-07T18:00	14231	149	-63.7	-75.5	352	12
2023-09-07T18:00	14250	148	-63.7	-75.4	353	12
2023-09-07T18:00	14269	148	-63.6	-75.2	354	12
2023-09-07T18:00	14291	147	-63.7	-75.3	356	11
2023-09-07T18:00	14312	147	-63.5	-75.1	358	11
2023-09-07T18:00	14335	146	-63.6	-75.1	359	11
2023-09-07T18:00	14353	146	-63.7	-75.2	360	11
2023-09-07T18:00	14377	145	-63.9	-75.2	360	10
2023-09-07T18:00	14399	145	-64.1	-75.3	359	10
2023-09-07T18:00	14417	144	-64.3	-75.4	359	9
2023-09-07T18:00	14437	144	-64.5	-75.4	358	9
2023-09-07T18:00	14459	143	-64.6	-75.4	358	9
2023-09-07T18:00	14479	143	-64.8	-75.5	357	9
2023-09-07T18:00	14501	142	-65.0	-75.6	357	9
2023-09-07T18:00	14524	142	-65.1	-75.7	357	9
2023-09-07T18:00	14544	141	-65.3	-76.0	357	9
2023-09-07T18:00	14565	141	-65.5	-76.3	357	9
2023-09-07T18:00	14585	140	-65.4	-76.5	356	8
2023-09-07T18:00	14605	140	-65.1	-76.6	356	8
2023-09-07T18:00	14626	139	-64.9	-76.8	355	8
2023-09-07T18:00	14646	139	-64.9	-77.1	354	8
2023-09-07T18:00	14666	138	-65.0	-77.5	354	8
2023-09-07T18:00	14686	138	-65.1	-77.8	353	8
2023-09-07T18:00	14707	137	-65.2	-78.0	352	8
2023-09-07T18:00	14728	137	-65.4	-78.4	351	8
2023-09-07T18:00	14747	137	-65.5	-78.7	350	7
2023-09-07T18:00	14767	136	-65.7	-79.1	350	7
2023-09-07T18:00	14790	136	-65.7	-79.3	349	7
2023-09-07T18:00	14812	135	-65.9	-79.5	349	7
2023-09-07T18:00	14832	135	-66.0	-79.7	349	8
2023-09-07T18:00	14853	134	-66.1	-79.8	349	8
2023-09-07T18:00	14874	134	-66.3	-80.0	350	8
2023-09-07T18:00	14896	133	-66.4	-80.1	351	8
2023-09-07T18:00	14915	133	-66.6	-80.3	351	8
2023-09-07T18:00	14935	132	-66.7	-80.5	349	8
2023-09-07T18:00	14956	132	-66.7	-80.7	344	8
2023-09-07T18:00	14978	131	-66.7	-80.8	338	8
2023-09-07T18:00	14999	131	-66.6	-81.0	331	9
2023-09-07T18:00	15018	131	-66.4	-81.1	326	9
2023-09-07T18:00	15040	130	-66.1	-81.1	323	9
2023-09-07T18:00	15061	130	-65.9	-81.4	322	9
2023-09-07T18:00	15082	129	-65.8	-81.6	323	9
2023-09-07T18:00	15104	129	-65.6	-81.8	325	8
2023-09-07T18:00	15129	128	-65.4	-81.9	328	8
2023-09-07T18:00	15154	128	-65.4	-82.1	329	7
2023-09-07T18:00	15174	127	-65.6	-82.4	328	7
2023-09-07T18:00	15198	127	-65.7	-82.6	324	7
2023-09-07T18:00	15217	126	-65.5	-82.6	320	8
2023-09-07T18:00	15240	126	-65.4	-82.7	317	8
2023-09-07T18:00	15259	126	-65.2	-82.7	315	9
2023-09-07T18:00	15279	125	-65.0	-82.6	315	10
2023-09-07T18:00	15300	125	-65.1	-82.7	315	10
2023-09-07T18:00	15320	124	-65.3	-82.7	315	11
2023-09-07T18:00	15344	124	-65.5	-82.9	316	11
2023-09-07T18:00	15363	123	-65.6	-82.9	317	12
2023-09-07T18:00	15384	123	-65.8	-83.0	318	12
2023-09-07T18:00	15406	123	-65.9	-83.0	320	12
2023-09-07T18:00	15429	122	-66.1	-83.2	323	13
2023-09-07T18:00	15451	122	-66.1	-83.2	326	13
2023-09-07T18:00	15472	121	-66.2	-83.2	329	13
2023-09-07T18:00	15493	121	-65.9	-83.0	332	13
2023-09-07T18:00	15515	120	-65.9	-83.1	335	13
2023-09-07T18:00	15535	120	-65.9	-83.2	338	13
2023-09-07T18:00	15558	120	-65.9	-83.2	341	12
2023-09-07T18:00	15581	119	-65.9	-83.3	345	12
2023-09-07T18:00	15602	119	-65.8	-83.4	349	11
2023-09-07T18:00	15625	118	-65.6	-83.4	353	11
2023-09-07T18:00	15645	118	-65.5	-83.5	357	11
2023-09-07T18:00	15666	117	-65.5	-83.7	360	10
2023-09-07T18:00	15688	117	-65.3	-83.7	1	10
2023-09-07T18:00	15710	117	-65.2	-83.7	2	10
2023-09-07T18:00	15732	116	-65.2	-83.8	3	10
2023-09-07T18:00	15752	116	-65.2	-83.8	3	10
2023-09-07T18:00	15774	115	-65.2	-83.8	3	10
2023-09-07T18:00	15794	115	-65.2	-83.9	3	10
2023-09-07T18:00	15816	115	-65.2	-84.0	4	10
2023-09-07T18:00	15839	114	-65.1	-84.1	5	10
2023-09-07T18:00	15862	114	-65.0	-84.2	7	9
2023-09-07T18:00	15883	113	-64.8	-84.3	9	9
2023-09-07T18:00	15906	113	-64.3	-84.0	10	9
2023-09-07T18:00	15927	112	-64.2	-84.0	10	8
2023-09-07T18:00	15950	112	-64.2	-84.2	9	8
2023-09-07T18:00	15970	112	-64.1	-84.2	7	7
2023-09-07T18:00	15991	111	-64.1	-84.3	5	6
2023-09-07T18:00	16013	111	-63.9	-84.3	3	6
2023-09-07T18:00	16035	111	-63.6		1	5
2023-09-07T18:00	16053	110	-63.5	-84.1	0	5
2023-09-07T18:00	16076	110	-63.4	-84.2	2	5
2023-09-07T18:00	16098	109	-63.3	-84.3	5	5
2023-09-07T18:00	16120	109	-63.3	-84.3	10	5
2023-09-07T18:00	16142	109	-63.4	-84.5	17	5
2023-09-07T18:00	16162	108	-63.4	-84.5	22	5
2023-09-07T18:00	16184	108	-63.3	-84.6	26	5
2023-09-07T18:00	16204	107	-63.0	-84.5	28	4
2023-09-07T18:00	16226	107	-63.1	-84.6	27	4
2023-09-07T18:00	16247	107	-63.2	-84.6	24	3
2023-09-07T18:00	16268	106	-63.3	-84.9	18	2
2023-09-07T18:00	16290	106	-63.3	-84.9	7	2
2023-09-07T18:00	16311	106	-63.4	-85.1	351	2
2023-09-07T18:00	16333	105	-63.2	-85.1	332	2
2023-09-07T18:00	16354	105	-62.9	-85.1	319	2
2023-09-07T18:00	16371	105	-62.9	-85.3	316	2
2023-09-07T18:00	16394	104	-62.9	-85.3	319	2
2023-09-07T18:00	16414	104	-62.9	-85.5	323	3
2023-09-07T18:00	16435	104	-62.8	-85.4	325	4
2023-09-07T18:00	16458	103	-62.5	-85.3	326	4
2023-09-07T18:00	16478	103	-62.4	-85.2	327	5
2023-09-07T18:00	16498	102	-62.5	-85.3	327	5
2023-09-07T18:00	16523	102	-62.6	-85.6	328	6
2023-09-07T18:00	16543	102	-62.6	-85.6	329	7
2023-09-07T18:00	16565	101	-62.5	-85.5	331	8
2023-09-07T18:00	16588	101	-62.5	-85.5	332	8
2023-09-07T18:00	16607	101	-62.5	-85.7	333	9
2023-09-07T18:00	16630	100	-62.4	-85.7	334	9
2023-09-07T18:00	16652	100	-62.3	-85.6	335	9
2023-09-07T18:00	16673	100	-62.1	-85.4	338	9
2023-09-07T18:00	16697	99	-62.1	-85.4	340	9
2023-09-07T18:00	16717	99	-62.2	-85.5	344	9
2023-09-07T18:00	16738	99	-62.2	-85.5	347	9
2023-09-07T18:00	16760	98	-62.2	-85.5	350	8
2023-09-07T18:00	16784	98	-62.3	-85.6	352	8
2023-09-07T18:00	16803	98	-62.3	-85.6	353	8
2023-09-07T18:00	16826	97	-62.4	-85.7	351	8
2023-09-07T18:00	16848	97	-62.4	-85.7	348	8
2023-09-07T18:00	16872	96	-62.4	-85.7	343	7
2023-09-07T18:00	16893	96	-62.4	-85.7	338	7
2023-09-07T18:00	16916	96	-62.5	-85.7	331	7
2023-09-07T18:00	16942	95	-62.5	-86.0	325	7
2023-09-07T18:00	16963	95	-62.6	-86.0	321	7
2023-09-07T18:00	16986	95	-62.6	-86.0	318	7
2023-09-07T18:00	17005	94	-62.5	-86.2	317	7
2023-09-07T18:00	17029	94	-62.4	-86.1	318	7
2023-09-07T18:00	17051	94	-62.2	-85.9	321	7
2023-09-07T18:00	17074	93	-62.2	-86.2	324	8
2023-09-07T18:00	17095	93	-62.3	-86.3	327	8
2023-09-07T18:00	17114	93	-62.3	-86.3	330	8
2023-09-07T18:00	17137	92	-62.4	-86.3	331	8
2023-09-07T18:00	17158	92	-62.3	-86.5	332	8
2023-09-07T18:00	17179	92	-62.2	-86.4	332	8
2023-09-07T18:00	17203	91	-62.2	-86.4	334	8
2023-09-07T18:00	17224	91	-62.2	-86.4	336	8
2023-09-07T18:00	17245	91	-62.2	-86.7	339	8
2023-09-07T18:00	17267	90	-61.9	-86.4	343	8
2023-09-07T18:00	17289	90	-61.7	-86.5	346	8
2023-09-07T18:00	17310	90	-61.6	-86.5	350	8
2023-09-07T18:00	17333	90	-61.5	-86.4	353	8
2023-09-07T18:00	17355	89	-61.3	-86.5	355	8
2023-09-07T18:00	17378	89	-61.2	-86.4	356	8
2023-09-07T18:00	17400	89	-60.9	-86.2	356	8
2023-09-07T18:00	17422	88	-61.0	-86.3	356	8
2023-09-07T18:00	17443	88	-61.0	-86.3	355	8
2023-09-07T18:00	17466	88	-61.0	-86.3	353	8
2023-09-07T18:00	17488	87	-61.0	-86.3	351	8
2023-09-07T18:00	17509	87	-60.8	-86.4	349	7
2023-09-07T18:00	17534	87	-60.7	-86.3	347	7
2023-09-07T18:00	17554	86	-60.6	-86.3	345	7
2023-09-07T18:00	17575	86	-60.7	-86.3	344	6
2023-09-07T18:00	17598	86	-60.7	-86.3	344	6
2023-09-07T18:00	17621	85	-60.7	-86.3	345	5
2023-09-07T18:00	17641	85	-60.9	-86.5	345	5
2023-09-07T18:00	17667	85	-61.0	-86.6	344	4
2023-09-07T18:00	17691	85	-61.0	-86.6	342	4
2023-09-07T18:00	17710	84	-61.0	-86.6	341	3
2023-09-07T18:00	17734	84	-61.1	-86.6	341	3
2023-09-07T18:00	17754	84	-61.1	-87.0	343	4
2023-09-07T18:00	17780	83	-61.0	-86.9	347	4
2023-09-07T18:00	17802	83	-60.7	-87.0	350	4
2023-09-07T18:00	17823	83	-60.5	-86.8	354	5
2023-09-07T18:00	17844	82	-60.1	-86.8	356	5
2023-09-07T18:00	17868	82	-60.0	-86.8	357	6
2023-09-07T18:00	17891	82	-60.0	-86.8	358	6
2023-09-07T18:00	17916	82	-60.1	-86.8	359	6
2023-09-07T18:00	17938	81	-60.1	-86.8	1	7
2023-09-07T18:00	17960	81	-60.2	-86.9	2	7
2023-09-07T18:00	17981	81	-60.2	-86.9	4	7
2023-09-07T18:00	18003	80	-60.1	-86.8	5	6
2023-09-07T18:00	18027	80	-60.1	-86.8	6	6
2023-09-07T18:00	18049	80	-60.2	-86.9	5	6
2023-09-07T18:00	18071	80	-60.3	-87.0	4	5
2023-09-07T18:00	18094	79	-60.3	-87.0	3	5
2023-09-07T18:00	18112	79	-60.2	-86.9	4	5
2023-09-07T18:00	18138	79	-60.3	-87.0	7	5
2023-09-07T18:00	18162	78	-60.3	-87.0	10	5
2023-09-07T18:00	18185	78	-60.3	-87.0	14	5
2023-09-07T18:00	18204	78	-60.4	-87.1	18	4
2023-09-07T18:00	18229	78	-60.4	-87.1	21	4
2023-09-07T18:00	18252	77	-60.5	-87.2	23	4
2023-09-07T18:00	18274	77	-60.3	-87.0	26	4
2023-09-07T18:00	18296	77	-60.3	-87.0	28	4
2023-09-07T18:00	18318	76	-60.2	-87.3	31	5
2023-09-07T18:00	18342	76	-59.9	-87.1	34	5
2023-09-07T18:00	18364	76	-59.8	-87.0	38	6
2023-09-07T18:00	18385	76	-59.6	-86.8	41	6
2023-09-07T18:00	18409	75	-59.6	-86.8	44	6
2023-09-07T18:00	18432	75	-59.7	-86.9	46	6
2023-09-07T18:00	18454	75	-59.8	-87.0	47	6
2023-09-07T18:00	18477	75	-60.0	-87.1	48	6
2023-09-07T18:00	18497	74	-60.1	-87.2	47	5
2023-09-07T18:00	18519	74	-59.7	-86.9	45	5
2023-09-07T18:00	18541	74	-59.8	-87.0	41	4
2023-09-07T18:00	18565	73	-59.9	-87.1	35	4
2023-09-07T18:00	18585	73	-60.0	-87.1	28	3
2023-09-07T18:00	18607	73	-60.1	-87.2	18	3
2023-09-07T18:00	18629	73	-60.0	-87.1	8	3
2023-09-07T18:00	18652	72	-60.0	-87.1	358	3
2023-09-07T18:00	18670	72	-60.0	-87.1	353	3
2023-09-07T18:00	18696	72	-59.9	-87.1	350	3
2023-09-07T18:00	18717	72	-59.9	-87.1	350	4
2023-09-07T18:00	18740	71	-59.9	-87.4	352	4
2023-09-07T18:00	18761	71	-59.9	-87.4	354	4
2023-09-07T18:00	18784	71	-59.6	-87.2	358	4
2023-09-07T18:00	18806	71	-59.6	-87.2	2	4
2023-09-07T18:00	18830	70	-59.6	-87.2	7	4
2023-09-07T18:00	18850	70	-59.7	-87.3	12	5
2023-09-07T18:00	18874	70	-59.8	-87.4	16	5
2023-09-07T18:00	18893	70	-59.8	-87.4	20	5
2023-09-07T18:00	18917	69	-59.6	-87.2	23	4
2023-09-07T18:00	18940	69	-59.7	-87.3	26	4
2023-09-07T18:00	18960	69	-59.7	-87.3	28	4
2023-09-07T18:00	18983	69	-59.7	-87.3	29	4
2023-09-07T18:00	19006	68	-59.4	-87.5	27	4
2023-09-07T18:00	19030	68	-59.3	-87.4	22	3
2023-09-07T18:00	19051	68	-59.2	-87.3	15	3
2023-09-07T18:00	19073	68	-59.0	-87.2	7	3
2023-09-07T18:00	19097	67	-59.0	-87.2	359	3
2023-09-07T18:00	19118	67	-59.1	-87.3	354	4
2023-09-07T18:00	19146	67	-59.2	-87.3	353	4
2023-09-07T18:00	19168	67	-59.2	-87.3	355	4
2023-09-07T18:00	19187	66	-59.2	-87.3	1	4
2023-09-07T18:00	19213	66	-58.9	-87.1	7	4
2023-09-07T18:00	19235	66	-58.9	-87.1	13	4
2023-09-07T18:00	19255	66	-58.9	-87.1	17	4
2023-09-07T18:00	19280	66	-58.7	-87.0	19	4
2023-09-07T18:00	19302	65	-58.6	-86.9	18	4
2023-09-07T18:00	19327	65	-58.6	-86.9	16	5
2023-09-07T18:00	19350	65	-58.7	-87.0	14	5
2023-09-07T18:00	19371	65	-58.6	-86.9	12	5
2023-09-07T18:00	19394	64	-58.5	-86.8	11	5
2023-09-07T18:00	19416	64	-58.6	-86.9	10	5
2023-09-07T18:00	19439	64	-58.6	-86.9	10	6
2023-09-07T18:00	19463	64	-58.5	-86.8	10	6
2023-09-07T18:00	19486	63	-58.4	-86.7	11	6
2023-09-07T18:00	19510	63	-58.5	-86.8	12	7
2023-09-07T18:00	19530	63	-58.6	-86.9	14	7
2023-09-07T18:00	19556	63	-58.5	-87.3	16	7
2023-09-07T18:00	19579	62	-58.2	-87.0	18	7
2023-09-07T18:00	19601	62	-57.8	-86.7	20	7
2023-09-07T18:00	19622	62	-57.9	-86.8	22	7
2023-09-07T18:00	19645	62	-57.9	-86.8	24	6
2023-09-07T18:00	19672	62	-57.9	-86.8	25	6
2023-09-07T18:00	19695	61	-57.9	-86.8	26	6
2023-09-07T18:00	19716	61	-58.0	-86.9	25	6
2023-09-07T18:00	19740	61	-57.9	-86.8	23	6
2023-09-07T18:00	19762	61	-57.7	-86.7	20	6
2023-09-07T18:00	19788	60	-57.5	-86.5	17	6
2023-09-07T18:00	19812	60	-57.5	-86.5	15	6
2023-09-07T18:00	19833	60	-57.4	-86.4	14	6
2023-09-07T18:00	19855	60	-57.4	-86.4	15	6
2023-09-07T18:00	19878	60	-57.6	-86.6	18	6
2023-09-07T18:00	19901	59	-57.6	-86.6	22	5
2023-09-07T18:00	19926	59	-57.5	-86.5	27	5
2023-09-07T18:00	19945	59	-57.5	-86.5	32	4
2023-09-07T18:00	19969	59	-57.6	-86.6	38	4
2023-09-07T18:00	19992	59	-57.7	-86.7	44	4
2023-09-07T18:00	20016	58	-57.6	-86.6	50	5
2023-09-07T18:00	20041	58	-57.8	-86.7	57	5
2023-09-07T18:00	20063	58	-57.8	-86.7	64	5
2023-09-07T18:00	20086	58	-57.7	-86.7	72	5
2023-09-07T18:00	20112	57	-57.5	-86.5	78	5
2023-09-07T18:00	20134	57	-57.3	-86.9	83	5
2023-09-07T18:00	20162	57	-57.3	-86.4	87	5
2023-09-07T18:00	20184	57	-57.4	-86.4	90	5
2023-09-07T18:00	20206	57	-57.6	-86.6	92	4
2023-09-07T18:00	20234	56	-57.8	-86.7	93	4
2023-09-07T18:00	20255	56	-58.0	-86.9	93	3
2023-09-07T18:00	20283	56	-58.1	-87.0	92	3
2023-09-07T18:00	20305	56	-58.1	-87.0	88	2
2023-09-07T18:00	20330	55	-58.1	-87.0	79	2
2023-09-07T18:00	20353	55	-58.2	-87.0	60	2
2023-09-07T18:00	20376	55	-58.2	-87.0	38	2
2023-09-07T18:00	20397	55	-58.3	-87.1	22	2
2023-09-07T18:00	20422	55	-58.2	-87.0	14	3
2023-09-07T18:00	20449	54	-58.1	-87.0	10	3
2023-09-07T18:00	20471	54	-58.1	-87.0	8	4
2023-09-07T18:00	20499	54	-58.1	-87.0	6	4
2023-09-07T18:00	20521	54	-58.1	-87.0	4	4
2023-09-07T18:00	20542	54	-58.2	-87.0	2	5
2023-09-07T18:00	20566	53	-58.1	-87.0	0	5
2023-09-07T18:00	20591	53	-57.9	-87.3	0	4
2023-09-07T18:00	20612	53	-57.7	-87.2	3	4
2023-09-07T18:00	20637	53	-57.6	-87.1	8	4
2023-09-07T18:00	20664	53	-57.4	-86.9	16	4
2023-09-07T18:00	20690	52	-56.9	-87.1	25	4
2023-09-07T18:00	20709	52	-56.6	-86.9	33	4
2023-09-07T18:00	20737	52	-56.6	-86.9	38	4
2023-09-07T18:00	20758	52	-56.8	-87.0	40	4
2023-09-07T18:00	20782	52	-56.7	-86.9	41	4
2023-09-07T18:00	20806	51	-56.6	-86.3	41	4
2023-09-07T18:00	20832	51	-56.5	-86.3	41	4
2023-09-07T18:00	20854	51	-56.4	-86.2	41	4
2023-09-07T18:00	20879	51	-56.5	-86.3	41	4
2023-09-07T18:00	20901	51	-56.3	-86.6	43	5
2023-09-07T18:00	20924	50	-56.1	-86.0	45	5
2023-09-07T18:00	20951	50	-56.3	-86.1	47	5
2023-09-07T18:00	20972	50	-56.4	-86.2	49	5
2023-09-07T18:00	20996	50	-56.3	-86.1	50	4
2023-09-07T18:00	21021	50	-56.4	-86.2	50	4
2023-09-07T18:00	21047	50	-56.3	-86.1	48	3
2023-09-07T18:00	21071	49	-56.4	-86.2	44	3
2023-09-07T18:00	21092	49	-56.5	-86.3	40	3
2023-09-07T18:00	21115	49	-56.5	-86.3	35	3
2023-09-07T18:00	21141	49	-56.5	-86.3	31	3
2023-09-07T18:00	21165	49	-56.5	-86.3	28	3
2023-09-07T18:00	21191	48	-56.6	-86.3	27	3
2023-09-07T18:00	21214	48	-56.6	-86.3	30	2
2023-09-07T18:00	21240	48	-56.7	-86.4	34	2
2023-09-07T18:00	21266	48	-56.7	-86.4	40	2
2023-09-07T18:00	21289	48	-56.8	-86.5	43	2
2023-09-07T18:00	21312	48	-56.6	-86.3	42	2
2023-09-07T18:00	21339	47	-56.6	-86.3	38	2
2023-09-07T18:00	21365	47	-56.7	-86.4	31	2
2023-09-07T18:00	21385	47	-56.7	-86.4	22	2
2023-09-07T18:00	21417	47	-56.6	-86.3	12	2
2023-09-07T18:00	21436	47	-56.5	-86.3	4	2
2023-09-07T18:00	21460	46	-56.6	-86.3	358	2
2023-09-07T18:00	21486	46	-56.8	-86.5	353	2
2023-09-07T18:00	21511	46	-57.0	-86.6	350	3
2023-09-07T18:00	21539	46	-57.2	-86.3	349	3
2023-09-07T18:00	21565	46	-57.3	-86.4	349	4
2023-09-07T18:00	21585	46	-57.4	-86.4	351	4
2023-09-07T18:00	21606	45	-57.6	-87.1	354	5
2023-09-07T18:00	21632	45	-57.6	-87.1	358	5
2023-09-07T18:00	21656	45	-57.5	-87.0	3	6
2023-09-07T18:00	21680	45	-57.2	-86.8	9	5
2023-09-07T18:00	21704	45	-57.1	-86.7	16	5
2023-09-07T18:00	21730	44	-57.2	-86.8	22	5
2023-09-07T18:00	21759	44	-57.2	-86.8	27	4
2023-09-07T18:00	21788	44	-57.3	-86.9	31	4
2023-09-07T18:00	21811	44	-57.4	-86.9	34	3
2023-09-07T18:00	21834	44	-57.6	-87.1	37	2
2023-09-07T18:00	21859	44	-57.6	-87.1	42	2
2023-09-07T18:00	21888	43	-57.5	-86.5	49	1
2023-09-07T18:00	21912	43	-57.6	-86.6	56	1
2023-09-07T18:00	21939	43	-57.8	-86.7	52	1
2023-09-07T18:00	21962	43	-58.0	-86.9	40	1
2023-09-07T18:00	21989	43	-58.1	-87.0	28	2
2023-09-07T18:00	22015	43	-58.0	-86.9	21	2
2023-09-07T18:00	22044	42	-58.2	-87.0	17	3
2023-09-07T18:00	22072	42	-58.3	-87.1	13	4
2023-09-07T18:00	22097	42	-58.5	-87.3	9	5
2023-09-07T18:00	22121	42	-58.5	-87.3	6	5
2023-09-07T18:00	22148	42	-58.6	-87.3	4	6
2023-09-07T18:00	22172	41	-58.6	-87.3	3	6
2023-09-07T18:00	22195	41	-58.3	-87.1	3	6
2023-09-07T18:00	22217	41	-58.0	-87.4	3	6
2023-09-07T18:00	22244	41	-57.9	-87.3	5	6
2023-09-07T18:00	22268	41	-57.9	-87.3	6	5
2023-09-07T18:00	22295	41	-57.8	-87.2	8	4
2023-09-07T18:00	22317	41	-57.7	-87.2	9	4
2023-09-07T18:00	22344	40	-57.7	-87.2	7	3
2023-09-07T18:00	22369	40	-57.5	-87.0	3	3
2023-09-07T18:00	22399	40	-57.4	-86.9	358	3
2023-09-07T18:00	22422	40	-57.4	-86.9	351	3
2023-09-07T18:00	22447	40	-57.5	-87.0	345	3
2023-09-07T18:00	22470	40	-57.6	-87.1	340	3
2023-09-07T18:00	22493	39	-57.7	-87.2	338	3
2023-09-07T18:00	22519	39	-57.9	-87.3	339	3
2023-09-07T18:00	22543	39	-57.9	-87.3	343	3
2023-09-07T18:00	22567	39	-57.4	-86.9	349	3
2023-09-07T18:00	22595	39	-57.3	-86.9	354	3
2023-09-07T18:00	22623	39	-57.4	-86.9	357	2
2023-09-07T18:00	22647	38	-57.5	-87.0	353	2
2023-09-07T18:00	22669	38	-57.4	-86.9	337	2
2023-09-07T18:00	22693	38	-57.1	-86.7	312	2
2023-09-07T18:00	22722	38	-57.0	-86.6	289	2
2023-09-07T18:00	22743	38	-56.8	-86.5	275	3
2023-09-07T18:00	22770	38	-57.0	-86.6	267	3
2023-09-07T18:00	22791	38	-57.1	-86.7	261	4
2023-09-07T18:00	22820	37	-57.2	-86.8	259	4
2023-09-07T18:00	22847	37	-57.4	-86.9	259	5
2023-09-07T18:00	22867	37	-57.5	-87.0	262	5
2023-09-07T18:00	22896	37	-57.2	-86.8	268	5
2023-09-07T18:00	22918	37	-57.3	-86.9	277	5
2023-09-07T18:00	22943	37	-57.1	-86.7	287	5
2023-09-07T18:00	22972	37	-57.0	-86.6	297	5
2023-09-07T18:00	22987	36	-57.0	-87.2	305	5
2023-09-07T18:00	23015	36	-57.1	-87.2	313	5
2023-09-07T18:00	23041	36	-56.9	-87.1	319	5
2023-09-07T18:00	23066	36	-56.9	-87.1	324	5
2023-09-07T18:00	23094	36	-56.9	-87.1	326	5
2023-09-07T18:00	23121	36	-56.9	-87.1	326	5
2023-09-07T18:00	23144	36	-56.8	-87.0	323	5
2023-09-07T18:00	23168	35	-56.6	-86.9	318	5
2023-09-07T18:00	23192	35	-56.4		312	5
2023-09-07T18:00	23223	35	-56.3	-87.2	308	5
2023-09-07T18:00	23250	35	-56.2	-87.2	307	6
2023-09-07T18:00	23277	35	-55.8	-86.9	309	6
2023-09-07T18:00	23301	35	-55.5	-86.7	313	6
2023-09-07T18:00	23326	35	-55.5	-86.7	319	6
2023-09-07T18:00	23349	34	-55.2	-86.4	326	6
2023-09-07T18:00	23375	34	-55.1	-86.4	332	6
2023-09-07T18:00	23402	34	-54.9	-86.2	337	6
2023-09-07T18:00	23426	34	-54.8	-86.1	339	6
2023-09-07T18:00	23455	34	-54.6	-86.7	337	6
2023-09-07T18:00	23480	34	-54.5	-86.6	335	6
2023-09-07T18:00	23511	34	-54.0	-86.2	331	6
2023-09-07T18:00	23535	33	-53.9	-86.2	328	6
2023-09-07T18:00	23554	33	-53.9	-86.2	327	7
2023-09-07T18:00	23593	33	-54.0	-86.2	327	7
2023-09-07T18:00	23615	33	-54.0	-85.5	328	7
2023-09-07T18:00	23639	33	-54.0	-85.5	330	7
2023-09-07T18:00	23666	33	-54.0	-85.5	335	7
2023-09-07T18:00	23696	33	-54.1	-85.6	340	7
2023-09-07T18:00	23726	32	-54.2	-85.7	346	7
2023-09-07T18:00	23754	32	-54.5	-85.9	352	7
2023-09-07T18:00	23778	32	-54.6	-86.0	357	7
2023-09-07T18:00	23804	32	-54.9	-85.6	2	7
2023-09-07T18:00	23839	32	-54.8	-85.5	5	7
2023-09-07T18:00	23860	32	-54.9	-86.2	6	7
2023-09-07T18:00	23889	32	-54.8	-86.1	6	7
2023-09-07T18:00	23913	32	-55.0	-85.7	4	7
2023-09-07T18:00	23940	31	-55.1	-85.8	1	7
2023-09-07T18:00	23969	31	-55.3	-85.9	358	7
2023-09-07T18:00	23993	31	-55.4	-86.0	354	7
2023-09-07T18:00	24020	31	-55.6	-86.1	351	7
2023-09-07T18:00	24048	31	-55.7	-86.2	348	7
2023-09-07T18:00	24080	31	-55.8	-86.3	346	8
2023-09-07T18:00	24100	31	-55.9	-86.3	345	8
2023-09-07T18:00	24127	30	-55.8	-86.3	344	8
2023-09-07T18:00	24158	30	-55.7	-86.2	344	9
2023-09-07T18:00	24187	30	-55.8	-86.3	345	9
2023-09-07T18:00	24209	30	-55.8	-86.9	345	10
2023-09-07T18:00	24234	30	-55.7	-86.8	345	11
2023-09-07T18:00	24260	30	-55.6	-86.7	345	11
2023-09-07T18:00	24294	30	-55.7	-86.2	345	11
2023-09-07T18:00	24313	30	-55.8	-86.3	344	11
2023-09-07T18:00	24346	29	-55.8	-86.3	343	11
2023-09-07T18:00	24369	29	-56.0	-86.4	344	11
2023-09-07T18:00	24396	29	-56.1	-86.5	345	11
2023-09-07T18:00	24421	29	-56.1	-86.5	348	11
2023-09-07T18:00	24452	29	-55.8	-86.3	351	11
2023-09-07T18:00	24473	29	-55.6	-86.1	353	11
2023-09-07T18:00	24503	29	-55.7	-86.2	356	11
2023-09-07T18:00	24531	29	-55.8	-86.3	359	11
2023-09-07T18:00	24552	29	-56.1	-86.5	0	11
2023-09-07T18:00	24577	28	-56.2	-86.6	1	11
2023-09-07T18:00	24600	28	-56.0	-87.0	0	10
2023-09-07T18:00	24626	28	-56.0	-87.0	358	10
2023-09-07T18:00	24656	28	-55.8	-86.9	356	10
2023-09-07T18:00	24679	28	-55.5	-86.7	354	10
2023-09-07T18:00	24706	28	-55.5	-86.7	354	10
2023-09-07T18:00	24732	28	-55.6	-86.7	356	10
2023-09-07T18:00	24758	28	-55.7	-86.8	359	10
2023-09-07T18:00	24781	28	-55.4	-86.6	3	10
2023-09-07T18:00	24817	27	-55.5	-86.1	6	10
2023-09-07T18:00	24834	27	-55.7	-86.2	9	10
2023-09-07T18:00	24864	27	-55.9	-86.3	11	10
2023-09-07T18:00	24891	27	-56.2	-86.6	14	10
2023-09-07T18:00	24920	27	-56.4		16	10
2023-09-07T18:00	24941	27	-56.6	-86.3	19	9
2023-09-07T18:00	24975	27	-56.7	-86.4	21	9
2023-09-07T18:00	24997	27	-56.8	-86.5	23	8
2023-09-07T18:00	25033	26	-56.9	-87.1	26	7
2023-09-07T18:00	25052	26	-56.8	-87.0	28	7
2023-09-07T18:00	25081	26	-56.8	-87.0	30	6
2023-09-07T18:00	25109	26	-56.9	-87.1	32	5
2023-09-07T18:00	25142	26	-56.9	-87.1	34	5
2023-09-07T18:00	25164	26	-56.9	-87.1	37	5
2023-09-07T18:00	25197	26	-56.9	-87.1	41	4
2023-09-07T18:00	25221	26	-56.8	-87.0	44	4
2023-09-07T18:00	25248	26	-56.6	-86.9	46	4
2023-09-07T18:00	25279	25	-56.4	-87.3	46	3
2023-09-07T18:00	25304	25	-56.5	-87.4	45	3
2023-09-07T18:00	25331	25	-56.5	-87.4	42	3
2023-09-07T18:00	25358	25	-56.4	-87.3	34	3
2023-09-07T18:00	25380	25	-56.5	-87.4	25	3
2023-09-07T18:00	25407	25	-56.4	-87.3	15	3
2023-09-07T18:00	25442	25	-56.4	-87.3	7	4
2023-09-07T18:00	25468	25	-55.9	-86.9	1	4
2023-09-07T18:00	25489	25	-55.6	-87.4	357	4
2023-09-07T18:00	25526	24	-55.0	-87.0	352	4
2023-09-07T18:00	25551	24	-54.7	-86.7	349	4
2023-09-07T18:00	25580	24	-54.6	-86.7	347	3
2023-09-07T18:00	25607	24	-54.5	-86.6	346	3
2023-09-07T18:00	25636	24	-54.5	-87.3	348	3
2023-09-07T18:00	25655	24	-54.1	-87.1	349	3
2023-09-07T18:00	25684	24	-53.0	-86.3	351	3
2023-09-07T18:00	25713	24	-52.7	-86.0	353	3
2023-09-07T18:00	25734	24	-52.1	-85.6	355	3
2023-09-07T18:00	25762	24	-52.1	-85.6	357	3
2023-09-07T18:00	25792	23	-51.9	-85.5	358	3
2023-09-07T18:00	25818	23	-51.5	-85.2	359	3
2023-09-07T18:00	25841	23	-51.4	-85.1	360	3
2023-09-07T18:00	25874	23	-51.3	-85.0	1	3
2023-09-07T18:00	25897	23	-51.3	-85.0	2	3
2023-09-07T18:00	25925	23	-51.1	-84.9	4	3
2023-09-07T18:00	25950	23	-50.9	-84.7	3	3
2023-09-07T18:00	25969	23	-50.3	-85.2	360	3
2023-09-07T18:00	26002	23	-50.1	-85.1	353	3
2023-09-07T18:00	26030	23	-49.9	-84.9	346	3
2023-09-07T18:00	26051	23	-50.0	-84.1	339	3
2023-09-07T18:00	26079	22	-50.1	-84.2	334	4
2023-09-07T18:00	26108	22	-50.2	-84.2	332	4
2023-09-07T18:00	26136	22	-50.1	-84.2	332	4
2023-09-07T18:00	26168	22	-50.0	-84.1	334	4
2023-09-07T18:00	26197	22	-50.1	-84.2	336	5
2023-09-07T18:00	26218	22	-50.2	-84.2	339	5
2023-09-07T18:00	26246	22	-50.3	-84.3	342	5
2023-09-07T18:00	26271	22	-50.1	-84.2	346	5
2023-09-07T18:00	26303	22	-50.0	-84.1	351	5
2023-09-07T18:00	26324	22	-50.1	-84.2	356	5
2023-09-07T18:00	26357	22	-50.1	-84.2	0	5
2023-09-07T18:00	26390	21	-50.2	-84.2	4	5
2023-09-07T18:00	26415	21	-50.4	-84.4	7	5
2023-09-07T18:00	26443	21	-50.5	-84.5	9	5
2023-09-07T18:00	26469	21	-50.3	-84.3	12	5
2023-09-07T18:00	26492	21	-50.3	-84.3	14	4
2023-09-07T18:00	26522	21	-50.3	-84.3	16	4
2023-09-07T18:00	26553	21	-50.3	-84.3	19	4
2023-09-07T18:00	26575	21	-50.4	-84.4	22	3
2023-09-07T18:00	26605	21	-50.5	-84.5	24	3
2023-09-07T18:00	26632	21	-50.6	-84.5	24	3
2023-09-07T18:00	26660	21	-50.8	-84.7	20	3
2023-09-07T18:00	26687	20	-50.8	-84.7	14	3
2023-09-07T18:00	26711	20	-50.5	-84.5	9	3
2023-09-07T18:00	26748	20	-50.6	-84.5	6	4
2023-09-07T18:00	26774	20	-50.7	-84.6	5	4
2023-09-07T18:00	26803	20	-50.8	-84.7	3	4
2023-09-07T18:00	26830	20	-50.9	-84.7	1	5
2023-09-07T18:00	26851	20	-50.9	-84.7	357	5
2023-09-07T18:00	26888	20	-50.9	-84.7	352	5
2023-09-07T18:00	26918	20	-51.0	-84.8	348	6
2023-09-07T18:00	26942	20	-51.1	-84.9	345	6
2023-09-07T18:00	26964	20	-51.1	-84.9	344	7
2023-09-07T18:00	27003	20	-51.0	-84.8	345	7
2023-09-07T18:00	27028	19	-50.9	-84.7	347	7
2023-09-07T18:00	27053	19	-50.5	-84.5	348	8
2023-09-07T18:00	27089	19	-50.5	-84.5	348	8
2023-09-07T18:00	27115	19	-50.6	-84.5	347	9
2023-09-07T18:00	27136	19	-50.7	-84.6	346	9
2023-09-07T18:00	27165	19	-50.4	-85.3	345	9
2023-09-07T18:00	27199	19	-50.1	-85.1	345	10
2023-09-07T18:00	27233	19	-49.8	-84.8	346	9
2023-09-07T18:00	27255	19	-49.6	-84.7	348	9
2023-09-07T18:00	27286	19	-49.2	-84.4	350	9
2023-09-07T18:00	27308	19	-49.1	-84.3	353	8
2023-09-07T18:00	27340	19	-49.2	-84.4	355	8
2023-09-07T18:00	27373	18	-49.3	-84.5	358	8
2023-09-07T18:00	27395	18	-49.2	-84.4	0	8
2023-09-07T18:00	27426	18	-49.2	-84.4	4	8
2023-09-07T18:00	27450	18	-49.2	-84.4	9	7
2023-09-07T18:00	27489	18	-48.9	-84.2	14	7
2023-09-07T18:00	27518	18	-48.8	-84.1	20	7
2023-09-07T18:00	27548	18	-48.9	-84.2	26	6
2023-09-07T18:00	27578	18	-48.9	-84.2	32	6
2023-09-07T18:00	27602	18	-48.8	-84.1	38	6
2023-09-07T18:00	27621	18	-48.6		45	5
2023-09-07T18:00	27659	18	-48.3	-83.8	53	5
2023-09-07T18:00	27687	18	-48.3	-83.8	61	4
2023-09-07T18:00	27718	18	-48.4	-83.8	69	4
2023-09-07T18:00	27747	17	-48.5	-83.9	77	3
2023-09-07T18:00	27784	17	-48.5	-83.9	87	3
2023-09-07T18:00	27805	17	-48.5	-83.9	98	3
2023-09-07T18:00	27843	17	-48.4	-83.8	113	2
2023-09-07T18:00	27871	17	-48.3	-83.8	130	2
2023-09-07T18:00	27897	17	-48.2	-83.7	149	2
2023-09-07T18:00	27923	17	-47.9	-83.5	168	2
2023-09-07T18:00	27948	17	-47.9	-83.5	188	2
2023-09-07T18:00	27971	17	-47.9	-83.5	207	3
2023-09-07T18:00	28009	17	-47.5	-83.2	224	3
2023-09-07T18:00	28031	17	-47.4	-83.1	237	3
2023-09-07T18:00	28067	17	-47.4	-83.1	248	3
2023-09-07T18:00	28097	17	-47.3	-83.1	254	4
2023-09-07T18:00	28129	16	-47.1	-82.9	257	4
2023-09-07T18:00	28162	16	-47.1	-82.9	260	4
2023-09-07T18:00	28182	16	-47.1	-82.9	261	5
2023-09-07T18:00	28215	16	-47.2	-83.0	264	5
2023-09-07T18:00	28248	16	-47.1	-82.9	266	5
2023-09-07T18:00	28274	16	-47.1	-82.9	268	5
2023-09-07T18:00	28313	16	-47.1	-82.9	270	6
2023-09-07T18:00	28326	16	-46.9	-83.9	271	6
2023-09-07T18:00	28364	16	-46.8	-83.8	271	6
2023-09-07T18:00	28391	16	-46.6	-83.6	271	7
2023-09-07T18:00	28416	16	-46.5	-83.6	272	7
2023-09-07T18:00	28440	16	-46.5	-83.6	274	8
2023-09-07T18:00	28474	16	-46.4	-83.5	276	8
2023-09-07T18:00	28499	16	-46.0	-83.2	278	8
2023-09-07T18:00	28536	15	-45.9	-83.2	281	8
2023-09-07T18:00	28557	15	-45.8	-83.1	284	8
2023-09-07T18:00	28595	15	-45.9	-83.2	289	8
2023-09-07T18:00	28615	15	-45.8	-83.1	293	8
2023-09-07T18:00	28655	15	-45.8	-83.1	298	8
2023-09-07T18:00	28673	15	-45.8	-83.1	303	8
2023-09-07T18:00	28709	15	-45.9	-83.2	306	8
2023-09-07T18:00	28728	15	-45.9	-83.2	309	9
2023-09-07T18:00	28771	15	-46.0	-83.2	312	9
2023-09-07T18:00	28795	15	-45.9	-83.2	313	10
2023-09-07T18:00	28837	15	-46.1	-83.3	315	10
2023-09-07T18:00	28855	15	-46.2	-83.4	317	10
2023-09-07T18:00	28880	15	-46.2	-82.3	318	9
2023-09-07T18:00	28907	15	-46.2	-82.3	320	9
2023-09-07T18:00	28951	15	-46.3	-82.4	320	8
2023-09-07T18:00	28974	14	-46.5	-82.5	320	7
2023-09-07T18:00	29005	14	-46.5	-82.5	318	6
2023-09-07T18:00	29033	14	-46.4	-83.5	314	6
2023-09-07T18:00	29067	14	-46.3	-82.4	310	5
2023-09-07T18:00	29094	14	-46.5	-82.5	308	5
2023-09-07T18:00	29136	14	-46.6	-82.6	309	5
2023-09-07T18:00	29155	14	-46.6	-82.6	312	5
2023-09-07T18:00	29191	14	-46.7	-82.6	315	5
2023-09-07T18:00	29227	14	-46.7	-82.6	316	5
2023-09-07T18:00	29251	14	-46.9	-82.8	315	5
2023-09-07T18:00	29280	14	-46.9	-82.8	311	5
2023-09-07T18:00	29323	14	-47.1	-82.9	304	5
2023-09-07T18:00	29340	14	-47.2	-83.0	296	5
2023-09-07T18:00	29388	14	-47.4	-83.1	291	6
2023-09-07T18:00	29408	14	-47.4	-83.1	289	6
2023-09-07T18:00	29425	14	-47.4	-83.1	290	7
2023-09-07T18:00	29464	13	-47.2	-84.1	293	7
2023-09-07T18:00	29502	13	-46.9	-83.9	296	8
2023-09-07T18:00	29544	13	-46.7	-83.7	300	8
2023-09-07T18:00	29557	13	-46.5	-83.6	303	8
2023-09-07T18:00	29588	13	-46.4	-83.5	306	8
2023-09-07T18:00	29625	13	-46.4	-83.5	307	8
2023-09-07T18:00	29650	13	-46.4	-83.5	308	8
2023-09-07T18:00	29678	13	-46.4	-83.5	309	8
2023-09-07T18:00	29715	13	-46.5	-83.6	308	8
2023-09-07T18:00	29739	13	-46.5	-83.6	305	7
2023-09-07T18:00	29758	13	-46.2	-83.4	301	6
2023-09-07T18:00	29797	13	-46.0	-83.2	295	6
2023-09-07T18:00	29814	13	-45.7	-83.0	290	5
2023-09-07T18:00	29855	13	-45.6	-82.9	286	5
2023-09-07T18:00	29887	13	-45.4	-82.8	285	5
2023-09-07T18:00	29904	13	-45.4	-82.8	286	5
2023-09-07T18:00	29943	13	-45.4	-82.8	288	5
2023-09-07T18:00	29968	12	-45.2	-82.7	290	5
2023-09-07T18:00	29998	12	-44.8	-82.4	292	5
2023-09-07T18:00	30022	12	-44.8	-82.4	293	5
2023-09-07T18:00	30038	12	-44.8	-82.4	293	6
2023-09-07T18:00	30079	12	-45.0	-82.5	293	6
2023-09-07T18:00	30096	12	-45.2	-82.7	294	6
2023-09-07T18:00	30138	12	-45.4	-82.8	295	7
2023-09-07T18:00	30153	12	-45.6	-82.9	296	7
2023-09-07T18:00	30176	12	-45.7	-83.0	299	7
2023-09-07T18:00	30220	12	-46.0	-83.2	303	7
2023-09-07T18:00	30238	12	-46.1	-83.3	308	7
2023-09-07T18:00	30273	12	-45.8	-83.1	314	7
2023-09-07T18:00	30290	12	-45.3	-82.7	321	6
2023-09-07T18:00	30328	12	-45.1	-82.6	328	6
2023-09-07T18:00	30358	12	-45.1	-82.6	332	5
2023-09-07T18:00	30378	12	-45.2	-82.7	332	5
2023-09-07T18:00	30402	12	-44.8	-82.4	329	4
2023-09-07T18:00	30422	12	-44.4	-82.1	321	4
2023-09-07T18:00	30454	12	-44.5	-82.2	312	4
2023-09-07T18:00	30482	12	-44.5	-82.2	301	4
2023-09-07T18:00	30507	12	-44.4	-82.1	289	4
2023-09-07T18:00	30537	11	-44.5	-82.2	279	4
2023-09-07T18:00	30552	11	-44.5	-82.2	270	4
2023-09-07T18:00	30594	11	-44.5	-82.2	264	5
2023-09-07T18:00	30616	11	-44.1	-81.9	260	5
2023-09-07T18:00	30639	11	-43.9	-81.8	257	6
2023-09-07T18:00	30667	11	-43.6	-81.5	255	6
2023-09-07T18:00	30693	11	-43.3	-81.3	254	7
2023-09-07T18:00	30722	11	-43.2	-81.3	252	8
2023-09-07T18:00	30758	11	-43.2	-81.3	251	9
2023-09-07T18:00	30780	11	-43.3	-81.3	250	10
2023-09-07T18:00	30809	11	-43.1	-81.2	251	10
2023-09-07T18:00	30832	11	-43.0	-81.1	254	10
2023-09-07T18:00	30867	11	-43.0	-81.1	258	10
2023-09-07T18:00	30886	11	-42.7	-80.9	264	11
2023-09-07T18:00	30916	11	-42.6	-80.8	270	11
2023-09-07T18:00	30963	11	-42.7	-80.9	277	11
2023-09-07T18:00	30980	11	-42.7	-80.9	284	12
2023-09-07T18:00	31022	11	-42.5	-80.8	290	12
2023-09-07T18:00	31038	11	-42.3	-80.6	295	12
2023-09-07T18:00	31068	11	-42.2	-80.6	299	13
2023-09-07T18:00	31085	11	-41.9	-80.4	302	13
2023-09-07T18:00	31139	10	-41.4	-80.0	304	13
2023-09-07T18:00	31159	10	-41.3	-79.9	304	12
2023-09-07T18:00	31193	10	-41.4	-80.0	303	12
2023-09-07T18:00	31222	10	-41.3	-79.9	302	12
2023-09-07T18:00	31245	10	-41.4	-80.0	301	12
2023-09-07T18:00	31269	10	-41.5	-80.1	302	12
2023-09-07T18:00	31318	10	-41.5	-80.1	303	12
2023-09-07T18:00	31338	10	-41.6	-80.1	306	12
2023-09-07T18:00	31363	10	-41.6	-80.1	309	11
2023-09-07T18:00	31395	10	-41.5	-80.1	312	11
2023-09-07T18:00	31436	10	-41.5	-80.1	315	11
2023-09-07T18:00	31459	10	-41.6	-80.1	316	10
2023-09-07T18:00	31485	10	-41.9	-80.4	316	10
2023-09-07T18:00	31530	10	-42.0	-80.4	316	9
2023-09-07T18:00	31546	10	-42.2	-80.6	316	9
2023-09-07T18:00	31589	10	-42.4	-80.7	316	8
2023-09-07T18:00	31604	10	-42.5	-80.8	317	7
2023-09-07T18:00	31644	10	-42.7	-80.9	318	7
2023-09-07T18:00	31666	10	-42.9	-81.1	320	6
2023-09-07T18:00	31690	10	-43.0	-81.1	322	5
2023-09-07T18:00	31739	10	-43.0	-81.1	321	4
2023-09-07T18:00	31778	10	-43.0	-81.1	318	3
2023-09-07T18:00	31808	10	-43.2	-81.3	308	3
2023-09-07T18:00	31828	9	-43.3	-81.3	290	2
2023-09-07T18:00	31851	9	-43.2	-81.3	274	3
2023-09-07T18:00	31878	9	-43.1	-81.2	266	3
2023-09-07T18:00	31903	9	-43.0	-81.1	264	4
2023-09-07T18:00	31945	9	-42.9	-81.1	265	4
2023-09-07T18:00	31977	9	-42.9	-81.1	267	5
2023-09-07T18:00	32000	9	-43.0	-81.1	269	5
2023-09-07T18:00	32013	9	-42.9	-81.1	271	6
2023-09-07T18:00	32078	9	-42.9	-81.1	273	6
2023-09-07T18:00	32111	9	-42.9	-81.1	277	7
2023-09-07T18:00	32129	9	-42.8	-81.0	281	8
2023-09-07T18:00	32169	9	-42.7	-80.9	285	8
2023-09-07T18:00	32184	9	-42.7	-80.9	289	9
2023-09-07T18:00	32217	9	-42.6	-80.8	292	9
2023-09-07T18:00	32236	9	-42.6	-80.8	294	10
2023-09-07T18:00	32279	9	-42.4	-80.7	295	10
2023-09-07T18:00	32317	9	-42.3	-80.6	296	10
2023-09-07T18:00	32342	9	-42.1	-80.5	297	10
2023-09-07T18:00	32379	9	-42.1	-80.5	299	10
2023-09-07T18:00	32403	9	-42.1	-80.5	301	9
2023-09-07T18:00	32424	9	-41.9	-80.4	304	8
2023-09-07T18:00	32456	9	-41.9	-80.4	307	8
2023-09-07T18:00	32488	9	-41.9	-80.4	310	7
2023-09-07T18:00	32536	9	-41.7	-80.2	312	7
2023-09-07T18:00	32573	9	-41.3	-79.9	314	6
2023-09-07T18:00	32584	8	-41.0	-79.7	315	5
2023-09-07T18:00	32612	8	-40.9	-79.7	315	5
2023-09-07T18:00	32656	8	-40.7	-79.5	314	4
2023-09-07T18:00	32679	8	-40.5	-79.4	311	3
2023-09-07T18:00	32704	8	-40.5	-79.4	299	2
2023-09-07T18:00	32754	8	-40.3	-79.2	266	1
2023-09-07T18:00	32769	8	-40.1	-79.1	222	2
2023-09-07T18:00	32806	8	-39.7	-78.8	201	3
2023-09-07T18:00	32839	8	-39.1	-78.4	193	4
2023-09-07T18:00	32875	8	-39.0	-78.3	189	5
2023-09-07T18:00	32898	8	-39.1	-78.4	187	6
2023-09-07T18:00	32915	8	-39.0	-78.3	186	7
2023-09-07T18:00	32968	8	-39.0	-78.3	186	8
2023-09-07T18:00	32979	8	-39.0	-78.3	187	9
2023-09-07T18:00	33002	8	-39.1	-78.4	190	9
2023-09-07T18:00	33048	8	-39.2	-78.5	193	10
2023-09-07T18:00	33077	8	-39.3	-78.5	197	10
2023-09-07T18:00	33110	8	-39.3	-78.5	201	11
2023-09-07T18:00	33128	8	-39.2	-78.5	205	11
2023-09-07T18:00	33134	8	-39.1	-78.4	210	11
2023-09-08T00:00	-999					
2023-09-08T00:00	127	1008	20.1	12.6	109	5
2023-09-08T00:00	152	1005	21.3	12.1	113	6
2023-09-08T00:00	174	1003	22.0	11.9	118	8
2023-09-08T00:00	197	1000	22.9	11.4	123	8
2023-09-08T00:00	225	997	23.1	11.1	127	9
2023-09-08T00:00	251	994	23.1	11.1	131	9
2023-09-08T00:00	273	992	23.0	11.0	134	10
2023-09-08T00:00	296	989	22.9	10.9	136	10
2023-09-08T00:00	317	986	22.8	10.8	137	11
2023-09-08T00:00	344	984	22.6	10.9	137	11
2023-09-08T00:00	366	981	22.4	10.8	137	11
2023-09-08T00:00	393	978	22.3	10.9	137	11
2023-09-08T00:00	420	975	22.0	10.8	136	11
2023-09-08T00:00	438	973	21.8	10.7	136	11
2023-09-08T00:00	466	970	21.6	10.7	135	11
2023-09-08T00:00	490	967	21.4	10.6	135	11
2023-09-08T00:00	513	964	21.1	10.5	135	11
2023-09-08T00:00	542	961	20.9	10.5	136	11
2023-09-08T00:00	568	958	20.7	10.4	137	11
2023-09-08T00:00	589	956	20.5	10.3	137	11
2023-09-08T00:00	610	954	20.3	10.2	137	12
2023-09-08T00:00	639	951	20.1	9.9	136	12
2023-09-08T00:00	662	948	19.9	9.9	135	12
2023-09-08T00:00	689	945	19.6	9.5	133	12
2023-09-08T00:00	717	942	19.4	9.5	131	12
2023-09-08T00:00	745	939	19.2	9.6	129	12
2023-09-08T00:00	770	936	19.0	9.8	127	12
2023-09-08T00:00	793	934	18.7	10.2	126	12
2023-09-08T00:00	818	931	18.5	10.1	125	13
2023-09-08T00:00	841	928	18.3	9.9	126	13
2023-09-08T00:00	866	926	18.1	9.8	126	13
2023-09-08T00:00	886	923	17.9	9.7	127	13
2023-09-08T00:00	916	921	17.6	9.8	128	12
2023-09-08T00:00	940	918	17.5	9.7	129	12
2023-09-08T00:00	967	915	17.6	8.1	129	11
2023-09-08T00:00	996	912	17.8		129	10
2023-09-08T00:00	1029	909	17.9	2.6	129	9
2023-09-08T00:00	1057	906	19.0	-6.8	129	7
2023-09-08T00:00	1078	903	19.5	-15.0	130	7
2023-09-08T00:00	1103	900	20.1	-15.5	131	6
2023-09-08T00:00	1130	898	20.2	-14.7	133	6
2023-09-08T00:00	1156	895	20.2	-16.8	136	7
2023-09-08T00:00	1178	893	20.2	-18.2	139	7
2023-09-08T00:00	1198	891	20.1	-18.8	141	7
2023-09-08T00:00	1219	888	20.1	-19.3	142	7
2023-09-08T00:00	1247	885	20.3	-18.7	141	6
2023-09-08T00:00	1276	882	20.2	-19.9	140	6
2023-09-08T00:00	1304	880	20.0	-14.1	138	5
2023-09-08T00:00	1331	877	19.8	-13.0	137	5
2023-09-08T00:00	1358	874	19.6	-11.2	138	5
2023-09-08T00:00	1377	872	19.3	-9.3	139	5
2023-09-08T00:00	1396	870	19.1	-8.6	138	5
2023-09-08T00:00	1419	868	19.0	-8.9	135	5
2023-09-08T00:00	1440	866	18.9	-8.8	132	5
2023-09-08T00:00	1464	863	18.6	-8.9	128	5
2023-09-08T00:00	1491	861	18.4	-8.8	128	5
2023-09-08T00:00	1511	859	18.3	-8.3	131	5
2023-09-08T00:00	1533	856	18.2	-8.2	138	5
2023-09-08T00:00	1553	854	18.0	-8.6	148	4
2023-09-08T00:00	1573	852	17.9	-8.4	158	4
2023-09-08T00:00	1593	850	17.7	-8.0	164	4
2023-09-08T00:00	1614	848	17.5	-7.6	164	3
2023-09-08T00:00	1638	846	17.3	-6.5	157	3
2023-09-08T00:00	1660	844	17.0	-6.3	146	3
2023-09-08T00:00	1683	842	16.9	-6.3	137	3
2023-09-08T00:00	1709	839	16.7	-7.1	134	3
2023-09-08T00:00	1731	837	16.6	-7.5	137	2
2023-09-08T00:00	1758	834	16.5	-7.7	145	2
2023-09-08T00:00	1781	832	16.4	-6.9	155	2
2023-09-08T00:00	1803	830	16.3	-7.0	162	2
2023-09-08T00:00	1822	828	16.3	-8.7	163	3
2023-09-08T00:00	1848	825	16.2	-9.2	159	3
2023-09-08T00:00	1872	823	16.1	-7.6	150	3
2023-09-08T00:00	1895	821	16.0	-6.7	140	3
2023-09-08T00:00	1915	819	15.8	-6.1	131	3
2023-09-08T00:00	1935	817	15.9	-7.9	124	4
2023-09-08T00:00	1956	815	16.1	-10.7	118	4
2023-09-08T00:00	1980	813	16.4	-18.2	112	5
2023-09-08T00:00	1998	811	16.5	-19.5	106	5
2023-09-08T00:00	2018	809	16.6	-15.6	100	6
2023-09-08T00:00	2035	807	16.5	-14.9	96	6
2023-09-08T00:00	2058	805	16.4	-14.6	93	5
2023-09-08T00:00	2073	803	16.3	-14.7	94	5
2023-09-08T00:00	2103	801	16.2	-15.2	98	4
2023-09-08T00:00	2127	799	16.1	-15.5	105	4
2023-09-08T00:00	2151	796	15.9	-15.4	111	4
2023-09-08T00:00	2173	794	15.8	-15.6	113	4
2023-09-08T00:00	2195	792	15.7	-15.4	111	4
2023-09-08T00:00	2217	790	15.5	-15.1	108	4
2023-09-08T00:00	2239	788	15.4	-15.2	107	4
2023-09-08T00:00	2259	786	15.3	-15.2	108	4
2023-09-08T00:00	2281	784	15.2	-15.2	111	4
2023-09-08T00:00	2301	782	15.1	-15.4	113	4
2023-09-08T00:00	2323	780	14.9	-15.5	113	4
2023-09-08T00:00	2352	778	14.7	-15.8	112	4
2023-09-08T00:00	2381	775	14.5	-16.2	110	4
2023-09-08T00:00	2406	773	14.4	-16.1	109	4
2023-09-08T00:00	2427	771	14.3	-16.3	108	4
2023-09-08T00:00	2450	769	14.2	-16.6	106	5
2023-09-08T00:00	2471	767	14.1	-16.7	102	5
2023-09-08T00:00	2494	765	14.0	-16.7	98	5
2023-09-08T00:00	2514	763	13.9	-16.6	94	4
2023-09-08T00:00	2536	761	13.7	-16.8	91	3
2023-09-08T00:00	2559	759	13.6	-17.1	90	2
2023-09-08T00:00	2582	757	13.5	-17.3	92	2
2023-09-08T00:00	2602	755	13.4	-17.0	92	2
2023-09-08T00:00	2630	752	13.3	-18.8	90	3
2023-09-08T00:00	2656	750	13.2	-19.4	86	3
2023-09-08T00:00	2681	748	13.0	-20.3	82	4
2023-09-08T00:00	2707	746	12.9	-20.5	80	4
2023-09-08T00:00	2726	744	12.8	-20.4	78	3
2023-09-08T00:00	2750	742	12.7	-20.8	76	3
2023-09-08T00:00	2769	740	12.6	-20.7	73	3
2023-09-08T00:00	2796	738	12.5	-20.0	71	3
2023-09-08T00:00	2824	735	12.3	-19.6	70	4
2023-09-08T00:00	2848	733	12.1	-17.8	69	5
2023-09-08T00:00	2872	731	11.9	-15.4	70	5
2023-09-08T00:00	2898	729	11.8	-15.6	71	6
2023-09-08T00:00	2926	726	11.6	-15.7	72	6
2023-09-08T00:00	2949	724	11.6	-16.0	73	6
2023-09-08T00:00	2974	722	11.5	-15.8	72	6
2023-09-08T00:00	3000	720	11.3	-16.1	72	6
2023-09-08T00:00	3023	718	11.1	-15.8	75	6
2023-09-08T00:00	3043	716	11.1	-15.8	80	6
2023-09-08T00:00	3070	714	11.1	-20.2	89	5
2023-09-08T00:00	3094	712	10.9	-16.9	99	5
2023-09-08T00:00	3117	710	10.8	-17.2	107	5
2023-09-08T00:00	3141	708	10.5	-17.2	110	5
2023-09-08T00:00	3173	705	10.4	-18.4	108	5
2023-09-08T00:00	3203	703	10.2	-19.2	100	5
2023-09-08T00:00	3225	701	10.2	-21.6	91	5
2023-09-08T00:00	3247	699	10.2	-22.8	84	6
2023-09-08T00:00	3269	697	10.1	-22.6	81	6
2023-09-08T00:00	3290	695	9.9	-22.9	81	6
2023-09-08T00:00	3313	693	9.7	-23.2	84	6
2023-09-08T00:00	3346	691	9.5	-23.2	88	5
2023-09-08T00:00	3378	688	9.3	-23.3	93	5
2023-09-08T00:00	3399	686	9.0	-23.5	95	4
2023-09-08T00:00	3423	684	8.8	-23.8	94	4
2023-09-08T00:00	3446	682	8.6	-24.1	90	4
2023-09-08T00:00	3469	680	8.5	-24.3	86	4
2023-09-08T00:00	3498	678	8.4	-24.6	82	4
2023-09-08T00:00	3521	676	8.3	-24.5	78	4
2023-09-08T00:00	3541	674	8.2	-24.5	72	4
2023-09-08T00:00	3567	672	8.0	-25.0	67	4
2023-09-08T00:00	3595	670	7.8	-25.3	63	4
2023-09-08T00:00	3614	668	7.7	-25.4	62	4
2023-09-08T00:00	3635	667	7.5	-25.5	64	5
2023-09-08T00:00	3658	665	7.4	-25.4	67	5
2023-09-08T00:00	3689	662	7.3	-22.8	69	5
2023-09-08T00:00	3719	660	7.0	-17.8	70	6
2023-09-08T00:00	3740	658	6.9	-18.4	70	6
2023-09-08T00:00	3765	656	6.9	-20.6	70	7
2023-09-08T00:00	3797	654	6.9	-18.2	71	7
2023-09-08T00:00	3816	652	6.8	-15.0	71	8
2023-09-08T00:00	3847	650	6.6	-9.1	70	8
2023-09-08T00:00	3881	647	6.3	-8.8	70	8
2023-09-08T00:00	3911	645	6.0	-9.0	69	8
2023-09-08T00:00	3937	643	5.7	-9.1	70	8
2023-09-08T00:00	3956	641	5.6	-9.3	73	7
2023-09-08T00:00	3984	639	5.4	-9.8	78	7
2023-09-08T00:00	4008	637	5.2	-10.4	82	6
2023-09-08T00:00	4033	635	5.1	-11.1	83	6
2023-09-08T00:00	4060	633	4.9	-10.2	80	6
2023-09-08T00:00	4088	631	4.7	-10.2	73	6
2023-09-08T00:00	4116	629	4.4	-10.4	64	6
2023-09-08T00:00	4141	627	4.2	-10.4	57	6
2023-09-08T00:00	4159	625	4.0	-10.6	53	6
2023-09-08T00:00	4183	623	3.8	-10.6	53	6
2023-09-08T00:00	4213	621	3.5	-10.9	57	6
2023-09-08T00:00	4237	619	3.4	-10.9	65	6
2023-09-08T00:00	4265	617	3.2	-11.9	74	6
2023-09-08T00:00	4286	616	3.1	-13.9	80	6
2023-09-08T00:00	4303	614	3.1	-12.7	83	6
2023-09-08T00:00	4322	613	2.9	-12.4	84	6
2023-09-08T00:00	4345	611	2.7	-12.8	83	6
2023-09-08T00:00	4374	609	2.4	-12.4	83	6
2023-09-08T00:00	4404	607	2.1	-12.6	83	6
2023-09-08T00:00	4427	605	1.9	-12.6	85	6
2023-09-08T00:00	4456	603	1.6	-13.0	85	6
2023-09-08T00:00	4478	601	1.4	-12.9	84	6
2023-09-08T00:00	4499	599	1.2	-13.0	82	6
2023-09-08T00:00	4519	598	1.0	-13.0	81	6
2023-09-08T00:00	4542	596	0.8	-12.9	81	6
2023-09-08T00:00	4567	594	0.5	-13.1	81	6
2023-09-08T00:00	4594	592	0.3	-13.0	82	6
2023-09-08T00:00	4625	590	0.0	-13.1	82	5
2023-09-08T00:00	4652	588	-0.3	-13.5	80	5
2023-09-08T00:00	4680	586	-0.5	-13.4	77	5
2023-09-08T00:00	4712	584	-0.9	-13.8	73	5
2023-09-08T00:00	4735	582	-1.1	-13.7	69	5
2023-09-08T00:00	4762	580	-1.3	-13.8	65	5
2023-09-08T00:00	4790	578	-1.6	-14.5	62	5
2023-09-08T00:00	4814	576	-1.8	-14.7	59	5
2023-09-08T00:00	4840	574	-2.0	-14.7	57	5
2023-09-08T00:00	4866	573	-2.3	-15.0	53	4
2023-09-08T00:00	4884	571	-2.4	-15.2	50	4
2023-09-08T00:00	4903	570	-2.6	-15.3	47	4
2023-09-08T00:00	4930	568	-2.7	-15.6	48	4
2023-09-08T00:00	4958	566	-2.9	-16.1	50	4
2023-09-08T00:00	4985	564	-3.1	-17.2	54	5
2023-09-08T00:00	5008	562	-3.3	-17.5	56	5
2023-09-08T00:00	5030	561	-3.5	-17.6	55	5
2023-09-08T00:00	5047	560	-3.7	-17.6	54	6
2023-09-08T00:00	5067	558	-3.8	-17.8	52	6
2023-09-08T00:00	5093	556	-4.0	-17.9	51	6
2023-09-08T00:00	5127	554	-4.3	-18.1	50	6
2023-09-08T00:00	5147	553	-4.6	-18.7	50	6
2023-09-08T00:00	5171	551	-4.8	-18.9	51	6
2023-09-08T00:00	5201	549	-5.0	-19.2	52	6
2023-09-08T00:00	5230	547	-5.2	-20.5	53	6
2023-09-08T00:00	5255	545	-5.3	-22.2	52	5
2023-09-08T00:00	5278	543	-5.4	-23.0	48	6
2023-09-08T00:00	5304	542	-5.6	-21.9	42	6
2023-09-08T00:00	5323	540	-5.8	-22.0	35	6
2023-09-08T00:00	5351	538	-6.0	-21.9	31	7
2023-09-08T00:00	5390	536	-6.3	-22.0	30	7
2023-09-08T00:00	5409	534	-6.5	-22.3	32	8
2023-09-08T00:00	5430	533	-6.6	-22.0	35	8
2023-09-08T00:00	5458	531	-6.8	-22.1	39	8
2023-09-08T00:00	5486	529	-6.8	-25.2	43	8
2023-09-08T00:00	5517	527	-6.5	-29.7	45	8
2023-09-08T00:00	5549	525	-6.4	-32.6	46	7
2023-09-08T00:00	5571	524	-6.3	-35.2	46	7
2023-09-08T00:00	5594	522	-6.4	-35.7	46	7
2023-09-08T00:00	5624	520	-6.5	-36.3	46	7
2023-09-08T00:00	5650	518	-6.6	-36.9	46	7
2023-09-08T00:00	5684	516	-6.7	-36.1	48	7
2023-09-08T00:00	5717	514	-6.9	-36.9	50	7
2023-09-08T00:00	5741	512	-7.0	-37.0	52	7
2023-09-08T00:00	5766	511	-7.1	-37.4	53	7
2023-09-08T00:00	5793	509	-7.2	-35.3	54	7
2023-09-08T00:00	5825	507	-7.3	-36.0	54	8
2023-09-08T00:00	5850	505	-7.3	-35.5	55	9
2023-09-08T00:00	5873	503	-7.4	-32.2	56	9
2023-09-08T00:00	5906	501	-7.6	-30.1	56	10
2023-09-08T00:00	5939	500	-7.9	-28.6	56	10
2023-09-08T00:00	5956	498	-8.0	-27.8	56	11
2023-09-08T00:00	5976	497	-8.2	-27.3	55	11
2023-09-08T00:00	6005	495	-8.4	-26.8	53	11
2023-09-08T00:00	6036	493	-8.7	-25.3	53	11
2023-09-08T00:00	6066	491	-8.9	-25.9	53	10
2023-09-08T00:00	6093	490	-9.1	-26.5	53	10
2023-09-08T00:00	6115	488	-9.3	-27.4	54	9
2023-09-08T00:00	6145	486	-9.5	-27.8	54	9
2023-09-08T00:00	6171	485	-9.7	-28.0	53	8
2023-09-08T00:00	6194	483	-9.8	-28.3	53	8
2023-09-08T00:00	6221	481	-10.0	-28.5	52	8
2023-09-08T00:00	6249	480	-10.3	-28.8	52	8
2023-09-08T00:00	6276	478	-10.5	-28.9	51	8
2023-09-08T00:00	6307	476	-10.7	-28.8	51	8
2023-09-08T00:00	6342	474	-11.0	-28.9	50	8
2023-09-08T00:00	6372	472	-11.1	-29.3	49	8
2023-09-08T00:00	6392	471	-11.2	-29.8	48	8
2023-09-08T00:00	6413	469	-11.4	-29.8	47	8
2023-09-08T00:00	6446	468	-11.6	-29.5	46	8
2023-09-08T00:00	6477	466	-11.9	-29.4	44	8
2023-09-08T00:00	6512	464	-12.2	-29.2	43	9
2023-09-08T00:00	6534	462	-12.4	-29.6	42	9
2023-09-08T00:00	6558	461	-12.6	-30.1	41	9
2023-09-08T00:00	6586	459	-12.7	-30.4	40	9
2023-09-08T00:00	6619	457	-13.0	-30.5	40	9
2023-09-08T00:00	6651	455	-13.0	-33.3	39	10
2023-09-08T00:00	6682	453	-13.3	-33.1	38	10
2023-09-08T00:00	6711	452	-13.5	-31.4	37	10
2023-09-08T00:00	6729	450	-13.6	-31.6	36	9
2023-09-08T00:00	6748	449	-13.7	-31.6	34	9
2023-09-08T00:00	6768	448	-13.9	-31.8	32	9
2023-09-08T00:00	6786	447	-14.0	-31.9	31	9
2023-09-08T00:00	6806	446	-14.2	-32.1	30	9
2023-09-08T00:00	6824	445	-14.4	-32.3	30	9
2023-09-08T00:00	6843	444	-14.5	-32.4	29	9
2023-09-08T00:00	6864	443	-14.7	-32.6	29	9
2023-09-08T00:00	6887	441	-14.9	-32.6	29	9
2023-09-08T00:00	6915	440	-15.2	-32.7	28	10
2023-09-08T00:00	6946	438	-15.4	-32.8	28	10
2023-09-08T00:00	6979	436	-15.7	-33.0	26	10
2023-09-08T00:00	7006	434	-16.0	-33.2	24	10
2023-09-08T00:00	7035	433	-16.2	-33.4	21	10
2023-09-08T00:00	7074	430	-16.5	-33.6	18	9
2023-09-08T00:00	7110	429	-16.9	-33.9	16	9
2023-09-08T00:00	7126	427	-17.0	-34.0	15	8
2023-09-08T00:00	7146	426	-17.2	-34.0	16	8
2023-09-08T00:00	7162	425	-17.4	-34.2	17	8
2023-09-08T00:00	7181	424	-17.5	-34.8	18	8
2023-09-08T00:00	7200	423	-17.6	-35.3	18	7
2023-09-08T00:00	7217	422	-17.7	-36.1	17	7
2023-09-08T00:00	7237	421	-17.7	-37.5	16	7
2023-09-08T00:00	7257	420	-17.8	-38.1	17	6
2023-09-08T00:00	7278	419	-17.9	-39.2	18	6
2023-09-08T00:00	7301	418	-17.8	-40.4	20	6
2023-09-08T00:00	7322	416	-17.8	-41.8	23	6
2023-09-08T00:00	7343	415	-17.7	-43.2	26	6
2023-09-08T00:00	7366	414	-17.8	-44.1	28	5
2023-09-08T00:00	7389	413	-17.9	-43.9	31	5
2023-09-08T00:00	7414	411	-18.1	-43.9	35	6
2023-09-08T00:00	7439	410	-18.2	-44.4	37	6
2023-09-08T00:00	7473	408	-18.4	-44.1	38	6
2023-09-08T00:00	7503	406	-18.5	-44.1	38	7
2023-09-08T00:00	7533	405	-18.7	-44.3	35	7
2023-09-08T00:00	7566	403	-19.0	-43.5	32	7
2023-09-08T00:00	7594	401	-19.2	-42.4	29	7
2023-09-08T00:00	7624	400	-19.5	-42.0	27	7
2023-09-08T00:00	7656	398	-19.8	-41.3	26	7
2023-09-08T00:00	7687	397	-20.0	-42.2	25	6
2023-09-08T00:00	7717	395	-20.3	-42.8	24	6
2023-09-08T00:00	7747	393	-20.5	-43.3	23	6
2023-09-08T00:00	7778	392	-20.7	-43.3	22	6
2023-09-08T00:00	7809	390	-21.0	-41.5	21	6
2023-09-08T00:00	7839	388	-21.2	-41.1	22	6
2023-09-08T00:00	7865	387	-21.5	-41.1	23	6
2023-09-08T00:00	7891	386	-21.7	-41.3	25	6
2023-09-08T00:00	7916	384	-21.9	-41.6	27	6
2023-09-08T00:00	7943	383	-22.1	-41.1	28	6
2023-09-08T00:00	7971	382	-22.3	-41.4	28	6
2023-09-08T00:00	8001	380	-22.6	-41.8	27	6
2023-09-08T00:00	8030	378	-22.8	-41.9	25	6
2023-09-08T00:00	8062	377	-23.0	-42.0	24	6
2023-09-08T00:00	8087	376	-23.3	-42.3	23	5
2023-09-08T00:00	8109	374	-23.5	-42.4	23	5
2023-09-08T00:00	8133	373	-23.7	-42.2	23	5
2023-09-08T00:00	8154	372	-23.9	-42.1	24	5
2023-09-08T00:00	8180	371	-24.1	-41.9	26	5
2023-09-08T00:00	8210	369	-24.3	-42.5	28	5
2023-09-08T00:00	8245	368	-24.7	-43.0	29	5
2023-09-08T00:00	8276	366	-25.0	-43.2	31	5
2023-09-08T00:00	8309	364	-25.3	-43.5	31	5
2023-09-08T00:00	8338	363	-25.5	-43.7	32	5
2023-09-08T00:00	8363	362	-25.7	-44.0	32	6
2023-09-08T00:00	8391	360	-25.9	-44.1	32	6
2023-09-08T00:00	8417	359	-26.2	-44.6	32	6
2023-09-08T00:00	8447	357	-26.4	-44.8	32	6
2023-09-08T00:00	8472	356	-26.6	-44.8	32	6
2023-09-08T00:00	8501	355	-26.8	-44.8	32	7
2023-09-08T00:00	8529	353	-27.1	-44.7	31	7
2023-09-08T00:00	8556	352	-27.3	-44.3	29	7
2023-09-08T00:00	8580	351	-27.5	-43.8	26	7
2023-09-08T00:00	8608	350	-27.7	-44.1	23	7
2023-09-08T00:00	8635	348	-27.9	-43.0	20	7
2023-09-08T00:00	8660	347	-28.1	-42.5	17	7
2023-09-08T00:00	8693	345	-28.3	-43.1	14	7
2023-09-08T00:00	8718	344	-28.6	-43.1	11	7
2023-09-08T00:00	8743	343	-28.8	-42.9	8	7
2023-09-08T00:00	8765	342	-28.9	-43.7	6	7
2023-09-08T00:00	8788	341	-29.0	-43.6	5	7
2023-09-08T00:00	8811	340	-29.2	-43.4	5	7
2023-09-08T00:00	8832	339	-29.4	-43.1	5	7
2023-09-08T00:00	8851	338	-29.6	-43.2	5	7
2023-09-08T00:00	8870	337	-29.7	-43.4	5	7
2023-09-08T00:00	8889	336	-29.9	-43.1	5	7
2023-09-08T00:00	8909	335	-30.1	-42.9	4	7
2023-09-08T00:00	8928	334	-30.2	-43.3	4	7
2023-09-08T00:00	8946	333	-30.4	-43.6	4	7
2023-09-08T00:00	8965	333	-30.5	-44.1	4	7
2023-09-08T00:00	8984	332	-30.6	-43.6	5	8
2023-09-08T00:00	9002	331	-30.8	-42.9	5	8
2023-09-08T00:00	9022	330	-31.0	-41.5	5	8
2023-09-08T00:00	9039	329	-31.2	-41.2	5	8
2023-09-08T00:00	9056	328	-31.3	-40.9	5	7
2023-09-08T00:00	9075	327	-31.4	-42.6	6	7
2023-09-08T00:00	9096	326	-31.6	-44.1	6	7
2023-09-08T00:00	9117	325	-31.7	-45.2	8	7
2023-09-08T00:00	9144	324	-32.0	-44.8	9	7
2023-09-08T00:00	9171	323	-32.2	-44.1	11	8
2023-09-08T00:00	9201	322	-32.5	-43.8	13	8
2023-09-08T00:00	9226	320	-32.6	-44.0	14	8
2023-09-08T00:00	9251	319	-32.7	-45.7	14	8
2023-09-08T00:00	9275	318	-32.8	-47.3	13	8
2023-09-08T00:00	9298	317	-32.9	-45.8	11	8
2023-09-08T00:00	9319	316	-33.1	-44.8	9	8
2023-09-08T00:00	9341	315	-33.4	-44.9	5	8
2023-09-08T00:00	9365	314	-33.5	-45.9	2	9
2023-09-08T00:00	9389	313	-33.7	-45.9	359	9
2023-09-08T00:00	9411	312	-33.8	-44.9	356	9
2023-09-08T00:00	9434	311	-34.0	-45.2	353	9
2023-09-08T00:00	9456	310	-34.1	-45.5	351	9
2023-09-08T00:00	9476	309	-34.2	-45.8	350	9
2023-09-08T00:00	9499	308	-34.3	-45.3	350	9
2023-09-08T00:00	9517	307	-34.4	-45.0	350	9
2023-09-08T00:00	9536	307	-34.5	-45.8	351	9
2023-09-08T00:00	9556	306	-34.7	-46.5	351	9
2023-09-08T00:00	9576	305	-34.9	-46.9	351	9
2023-09-08T00:00	9595	304	-35.1	-47.4	351	9
2023-09-08T00:00	9616	303	-35.2	-48.0	351	9
2023-09-08T00:00	9635	302	-35.4	-47.9	351	9
2023-09-08T00:00	9655	301	-35.5	-48.0	351	9
2023-09-08T00:00	9673	301	-35.7	-49.3	351	10
2023-09-08T00:00	9695	300	-35.7	-50.0	351	10
2023-09-08T00:00	9714	299	-35.8	-50.2	352	10
2023-09-08T00:00	9732	298	-36.0	-50.4	353	11
2023-09-08T00:00	9753	297	-36.2	-50.9	355	11
2023-09-08T00:00	9774	296	-36.3	-51.8	356	11
2023-09-08T00:00	9795	295	-36.4	-52.1	357	11
2023-09-08T00:00	9821	294	-36.6	-52.2	359	11
2023-09-08T00:00	9847	293	-36.8	-52.2	0	11
2023-09-08T00:00	9875	292	-37.0	-52.2	1	11
2023-09-08T00:00	9903	291	-37.3	-52.3	2	11
2023-09-08T00:00	9943	289	-37.7	-52.3	3	11
2023-09-08T00:00	9962	288	-37.8	-52.2	5	11
2023-09-08T00:00	9982	287	-38.1	-52.2	6	11
2023-09-08T00:00	10006	287	-38.2	-52.1	7	12
2023-09-08T00:00	10030	286	-38.5	-52.1	7	12
2023-09-08T00:00	10051	285	-38.7	-52.3	8	12
2023-09-08T00:00	10073	284	-38.9	-52.2	7	13
2023-09-08T00:00	10091	283	-39.1	-52.0	7	13
2023-09-08T00:00	10111	282	-39.2		5	13
2023-09-08T00:00	10129	281	-39.4	-52.3	4	13
2023-09-08T00:00	10149	281	-39.5	-52.7	3	13
2023-09-08T00:00	10169	280	-39.6	-53.5	1	13
2023-09-08T00:00	10190	279	-39.8	-53.7	360	13
2023-09-08T00:00	10211	278	-39.9	-53.5	358	13
2023-09-08T00:00	10232	277	-40.0	-53.4	357	13
2023-09-08T00:00	10251	276	-40.2	-53.5	356	13
2023-09-08T00:00	10271	276	-40.3	-53.5	355	13
2023-09-08T00:00	10290	275	-40.5	-53.6	355	13
2023-09-08T00:00	10310	274	-40.6	-53.6	355	13
2023-09-08T00:00	10331	273	-40.8	-53.9	355	13
2023-09-08T00:00	10351	272	-41.0	-54.3	356	13
2023-09-08T00:00	10374	271	-41.2	-54.5	356	12
2023-09-08T00:00	10395	271	-41.4	-54.1	356	12
2023-09-08T00:00	10417	270	-41.6	-54.1	356	12
2023-09-08T00:00	10436	269	-41.7	-54.3	356	12
2023-09-08T00:00	10458	268	-41.9	-54.4	356	12
2023-09-08T00:00	10477	267	-42.1	-54.4	356	12
2023-09-08T00:00	10498	267	-42.3	-54.4	356	12
2023-09-08T00:00	10517	266	-42.5	-54.4	356	12
2023-09-08T00:00	10537	265	-42.7	-54.4	356	12
2023-09-08T00:00	10558	264	-42.9	-54.4	356	12
2023-09-08T00:00	10578	263	-43.1	-54.5	355	12
2023-09-08T00:00	10598	263	-43.3	-54.6	355	12
2023-09-08T00:00	10619	262	-43.5	-54.7	355	12
2023-09-08T00:00	10637	261	-43.6	-54.7	355	12
2023-09-08T00:00	10656	260	-43.8	-54.8	355	12
2023-09-08T00:00	10677	260	-44.0	-55.1	355	12
2023-09-08T00:00	10697	259	-44.1	-55.5	354	12
2023-09-08T00:00	10718	258	-44.3	-56.0	354	12
2023-09-08T00:00	10738	257	-44.5	-56.3	354	12
2023-09-08T00:00	10756	256	-44.7	-56.3	354	12
2023-09-08T00:00	10776	256	-44.9	-56.3	354	12
2023-09-08T00:00	10795	255	-45.1	-56.5	355	12
2023-09-08T00:00	10815	254	-45.2	-56.9	355	12
2023-09-08T00:00	10836	254	-45.4	-57.3	356	11
2023-09-08T00:00	10854	253	-45.6	-57.1	356	11
2023-09-08T00:00	10875	252	-45.7	-56.7	356	11
2023-09-08T00:00	10895	251	-45.9	-56.2	356	11
2023-09-08T00:00	10917	250	-46.1	-55.8	355	11
2023-09-08T00:00	10936	250	-46.2	-55.8	354	11
2023-09-08T00:00	10957	249	-46.4	-56.0	354	11
2023-09-08T00:00	10977	248	-46.6	-56.1	353	11
2023-09-08T00:00	10997	247	-46.8	-56.1	352	11
2023-09-08T00:00	11015	247	-46.9	-56.2	351	11
2023-09-08T00:00	11038	246	-47.1	-56.3	350	11
2023-09-08T00:00	11058	245	-47.3	-55.8	349	11
2023-09-08T00:00	11080	244	-47.5	-55.2	349	11
2023-09-08T00:00	11100	244	-47.7	-55.0	348	11
2023-09-08T00:00	11122	243	-47.9	-55.0	348	11
2023-09-08T00:00	11145	242	-48.2	-55.0	347	12
2023-09-08T00:00	11166	241	-48.4	-54.9	346	12
2023-09-08T00:00	11189	240	-48.6	-54.6	345	12
2023-09-08T00:00	11213	239	-48.8	-54.5	343	12
2023-09-08T00:00	11235	239	-48.9	-54.8	342	13
2023-09-08T00:00	11254	238	-49.0	-55.2	340	13
2023-09-08T00:00	11276	237	-49.1	-55.7	339	13
2023-09-08T00:00	11294	236	-49.2	-55.9	339	13
2023-09-08T00:00	11314	236	-49.4	-56.0	338	13
2023-09-08T00:00	11336	235	-49.5	-55.8	338	13
2023-09-08T00:00	11356	234	-49.7	-55.9	338	13
2023-09-08T00:00	11375	234	-49.9	-55.9	338	13
2023-09-08T00:00	11397	233	-50.1	-56.1	338	13
2023-09-08T00:00	11417	232	-50.3	-56.2	339	13
2023-09-08T00:00	11437	231	-50.5	-56.3	339	14
2023-09-08T00:00	11456	231	-50.6	-56.4	339	14
2023-09-08T00:00	11476	230	-50.7	-56.5	340	14
2023-09-08T00:00	11493	229	-50.9	-56.5	339	14
2023-09-08T00:00	11513	229	-51.1	-56.6	339	14
2023-09-08T00:00	11535	228	-51.3	-56.7	339	14
2023-09-08T00:00	11553	227	-51.4	-56.8	339	14
2023-09-08T00:00	11573	227	-51.6	-57.0	339	14
2023-09-08T00:00	11594	226	-51.7	-57.1	339	14
2023-09-08T00:00	11612	225	-51.9	-57.2	338	14
2023-09-08T00:00	11632	225	-52.0	-57.3	338	14
2023-09-08T00:00	11652	224	-52.2	-57.5	338	14
2023-09-08T00:00	11673	223	-52.3	-57.8	337	14
2023-09-08T00:00	11693	222	-52.5	-58.0	337	14
2023-09-08T00:00	11712	222	-52.6	-58.2	337	14
2023-09-08T00:00	11731	221	-52.7	-58.2	337	14
2023-09-08T00:00	11751	220	-52.9	-58.4	337	14
2023-09-08T00:00	11769	220	-53.0	-58.6	337	14
2023-09-08T00:00	11790	219	-53.2	-58.8	337	14
2023-09-08T00:00	11808	218	-53.3	-59.0	337	14
2023-09-08T00:00	11828	218	-53.4	-59.2	337	14
2023-09-08T00:00	11849	217	-53.5	-59.4	337	14
2023-09-08T00:00	11870	216	-53.7	-59.5	337	14
2023-09-08T00:00	11889	216	-53.7	-59.4	337	14
2023-09-08T00:00	11910	215	-53.8	-59.6	337	15
2023-09-08T00:00	11929	214	-54.0	-59.9	337	15
2023-09-08T00:00	11948	214	-54.1	-60.1	337	15
2023-09-08T00:00	11969	213	-54.2	-60.2	338	15
2023-09-08T00:00	11991	212	-54.4	-60.4	338	15
2023-09-08T00:00	12011	212	-54.5	-60.5	338	16
2023-09-08T00:00	12031	211	-54.6	-60.6	338	16
2023-09-08T00:00	12052	210	-54.8	-60.9	338	16
2023-09-08T00:00	12073	210	-54.9	-61.3	338	16
2023-09-08T00:00	12092	209	-55.0	-61.6	338	16
2023-09-08T00:00	12112	208	-55.1	-61.8	338	17
2023-09-08T00:00	12131	208	-55.2	-61.8	339	16
2023-09-08T00:00	12151	207	-55.4	-61.8	339	16
2023-09-08T00:00	12169	207	-55.5	-61.5	339	16
2023-09-08T00:00	12189	206	-55.7	-61.2	339	16
2023-09-08T00:00	12210	205	-55.9	-60.8	339	16
2023-09-08T00:00	12229	205	-56.0	-60.6	339	16
2023-09-08T00:00	12252	204	-56.2	-60.7	339	16
2023-09-08T00:00	12272	203	-56.4	-61.0	339	16
2023-09-08T00:00	12292	203	-56.5	-61.1	339	16
2023-09-08T00:00	12311	202	-56.7	-61.2	338	16
2023-09-08T00:00	12330	201	-56.9	-61.5	338	16
2023-09-08T00:00	12350	201	-57.0	-62.1	337	16
2023-09-08T00:00	12371	200	-57.0	-62.8	336	16
2023-09-08T00:00	12393	199	-57.2	-63.5	336	16
2023-09-08T00:00	12413	199	-57.3	-64.0	335	16
2023-09-08T00:00	12435	198	-57.4	-64.6	335	16
2023-09-08T00:00	12454	197	-57.6	-65.3	336	17
2023-09-08T00:00	12473	197	-57.7	-65.7	336	17
2023-09-08T00:00	12494	196	-57.8	-65.7	337	17
2023-09-08T00:00	12514	196	-57.8	-64.9	337	17
2023-09-08T00:00	12536	195	-58.0	-63.9	338	18
2023-09-08T00:00	12556	194	-58.0	-62.7	339	18
2023-09-08T00:00	12579	194	-58.2	-62.3	339	18
2023-09-08T00:00	12599	193	-58.3	-62.1	340	18
2023-09-08T00:00	12621	192	-58.4	-62.1	340	18
2023-09-08T00:00	12639	192	-58.4	-62.2	340	18
2023-09-08T00:00	12661	191	-58.6	-62.5	340	18
2023-09-08T00:00	12680	190	-58.7	-62.9	340	18
2023-09-08T00:00	12703	190	-58.7	-63.1	340	18
2023-09-08T00:00	12723	189	-58.7	-63.3	340	18
2023-09-08T00:00	12741	189	-58.8	-63.4	339	18
2023-09-08T00:00	12763	188	-58.8	-63.4	339	18
2023-09-08T00:00	12785	187	-59.0	-63.6	338	18
2023-09-08T00:00	12805	187	-59.2	-63.8	338	18
2023-09-08T00:00	12825	186	-59.4	-64.1	337	18
2023-09-08T00:00	12843	186	-59.5	-64.3	338	17
2023-09-08T00:00	12863	185	-59.6	-64.4	339	17
2023-09-08T00:00	12885	184	-59.7	-64.4	340	17
2023-09-08T00:00	12905	184	-59.9	-64.4	342	17
2023-09-08T00:00	12928	183	-59.9	-64.5	343	17
2023-09-08T00:00	12947	183	-60.0	-64.9	344	17
2023-09-08T00:00	12969	182	-60.0	-65.5	344	16
2023-09-08T00:00	12988	181	-59.9	-66.2	345	16
2023-09-08T00:00	13010	181	-59.9	-67.2	344	16
2023-09-08T00:00	13032	180	-59.9	-68.1	344	16
2023-09-08T00:00	13052	179	-60.0	-68.9	343	15
2023-09-08T00:00	13073	179	-60.1	-69.5	343	16
2023-09-08T00:00	13095	178	-60.2	-70.2	343	16
2023-09-08T00:00	13116	178	-60.2	-70.8	342	16
2023-09-08T00:00	13137	177	-60.3	-71.3	342	16
2023-09-08T00:00	13156	177	-60.3	-71.4	341	16
2023-09-08T00:00	13175	176	-60.4	-71.3	340	17
2023-09-08T00:00	13198	175	-60.5	-71.0	339	17
2023-09-08T00:00	13217	175	-60.6	-70.9	339	17
2023-09-08T00:00	13236	174	-60.7	-70.8	339	17
2023-09-08T00:00	13259	174	-60.8	-71.0	339	17
2023-09-08T00:00	13277	173	-60.8	-71.2	340	17
2023-09-08T00:00	13299	173	-61.0	-71.8	340	17
2023-09-08T00:00	13319	172	-61.0	-72.0	340	17
2023-09-08T00:00	13340	171	-61.1	-72.3	341	17
2023-09-08T00:00	13363	171	-61.0	-72.1	341	17
2023-09-08T00:00	13382	170	-61.0	-71.8	342	17
2023-09-08T00:00	13402	170	-61.1	-71.2	342	17
2023-09-08T00:00	13423	169	-61.2	-70.4	342	17
2023-09-08T00:00	13442	169	-61.4	-69.7	342	17
2023-09-08T00:00	13463	168	-61.5	-68.9	341	16
2023-09-08T00:00	13483	167	-61.7	-68.4	340	16
2023-09-08T00:00	13504	167	-61.9	-68.1	339	16
2023-09-08T00:00	13522	166	-62.0	-68.0	338	16
2023-09-08T00:00	13542	166	-62.2	-68.1	338	16
2023-09-08T00:00	13567	165	-62.3	-68.3	338	16
2023-09-08T00:00	13587	165	-62.3	-68.5	338	17
2023-09-08T00:00	13609	164	-62.4	-68.8	339	17
2023-09-08T00:00	13632	163	-62.4	-69.0	340	17
2023-09-08T00:00	13653	163	-62.6	-69.3	341	17
2023-09-08T00:00	13673	162	-62.7	-69.5	341	17
2023-09-08T00:00	13695	162	-62.8	-69.6	342	17
2023-09-08T00:00	13717	161	-63.0	-69.9	343	17
2023-09-08T00:00	13738	161	-63.1	-70.2	345	17
2023-09-08T00:00	13757	160	-63.2	-70.6	347	17
2023-09-08T00:00	13781	160	-63.2	-71.1	348	16
2023-09-08T00:00	13803	159	-63.2	-71.5	350	16
2023-09-08T00:00	13827	158	-63.2	-71.9	351	16
2023-09-08T00:00	13847	158	-63.4	-72.3	351	15
2023-09-08T00:00	13869	157	-63.5	-72.5	351	15
2023-09-08T00:00	13891	157	-63.6	-72.7	350	15
2023-09-08T00:00	13914	156	-63.8	-72.8	349	15
2023-09-08T00:00	13935	156	-64.0	-73.0	348	14
2023-09-08T00:00	13956	155	-64.2	-73.1	346	14
2023-09-08T00:00	13977	155	-64.4	-73.2	345	14
2023-09-08T00:00	14000	154	-64.5	-73.2	343	13
2023-09-08T00:00	14021	153	-64.7	-73.5	340	13
2023-09-08T00:00	14042	153	-64.7	-73.6	338	13
2023-09-08T00:00	14061	152	-64.4	-73.6	336	12
2023-09-08T00:00	14085	152	-64.4	-73.8	334	13
2023-09-08T00:00	14103	151	-64.3	-74.0	333	13
2023-09-08T00:00	14125	151	-64.4	-74.4	332	13
2023-09-08T00:00	14145	150	-64.4	-74.7	331	13
2023-09-08T00:00	14164	150	-64.3	-74.9	330	13
2023-09-08T00:00	14187	149	-64.2	-75.1	329	13
2023-09-08T00:00	14209	149	-64.3	-75.5	328	13
2023-09-08T00:00	14229	148	-64.4	-75.9	327	13
2023-09-08T00:00	14252	148	-64.4	-76.2	327	13
2023-09-08T00:00	14272	147	-64.3	-76.3	327	13
2023-09-08T00:00	14296	147	-64.4	-76.6	328	13
2023-09-08T00:00	14313	146	-64.6	-77.1	329	13
2023-09-08T00:00	14335	146	-64.6	-77.3	331	13
2023-09-08T00:00	14357	145	-64.5	-77.4	333	12
2023-09-08T00:00	14378	145	-64.3	-77.4	335	11
2023-09-08T00:00	14400	144	-64.4	-77.4	336	11
2023-09-08T00:00	14421	144	-64.6	-77.4	337	10
2023-09-08T00:00	14444	143	-64.7	-77.2	337	10
2023-09-08T00:00	14464	143	-64.7	-76.9	336	10
2023-09-08T00:00	14486	142	-64.8	-76.7	335	10
2023-09-08T00:00	14507	142	-64.8	-76.5	335	10
2023-09-08T00:00	14526	141	-64.9	-76.5	335	10
2023-09-08T00:00	14549	141	-65.0	-76.7	335	10
2023-09-08T00:00	14570	140	-65.0	-76.8	335	10
2023-09-08T00:00	14591	140	-64.6	-76.7	335	11
2023-09-08T00:00	14612	139	-64.6	-77.1	335	11
2023-09-08T00:00	14634	139	-64.6	-77.4	334	11
2023-09-08T00:00	14655	138	-64.6	-77.8	333	11
2023-09-08T00:00	14674	138	-64.6	-78.1	332	11
2023-09-08T00:00	14696	137	-64.7	-78.6	331	11
2023-09-08T00:00	14717	137	-64.5	-78.6	330	10
2023-09-08T00:00	14738	136	-64.6	-79.0	328	10
2023-09-08T00:00	14763	136	-64.7	-79.2	326	10
2023-09-08T00:00	14783	135	-64.7	-79.4	324	11
2023-09-08T00:00	14803	135	-64.7	-79.5	324	11
2023-09-08T00:00	14822	135	-64.7	-79.6	324	11
2023-09-08T00:00	14842	134	-64.9	-79.9	324	12
2023-09-08T00:00	14863	134	-65.1	-80.2	324	12
2023-09-08T00:00	14884	133	-65.1	-80.3	323	12
2023-09-08T00:00	14903	133	-65.3	-80.5	322	12
2023-09-08T00:00	14924	132	-65.3	-80.7	320	13
2023-09-08T00:00	14947	132	-65.3	-80.9	319	13
2023-09-08T00:00	14967	131	-65.2	-81.0	318	14
2023-09-08T00:00	14989	131	-65.2	-81.2	319	14
2023-09-08T00:00	15009	131	-65.3	-81.5	322	14
2023-09-08T00:00	15029	130	-65.3	-81.6	325	14
2023-09-08T00:00	15051	130	-65.1	-81.6	329	14
2023-09-08T00:00	15070	129	-64.8	-81.5	332	14
2023-09-08T00:00	15091	129	-64.8	-81.7	335	13
2023-09-08T00:00	15114	128	-64.7	-81.9	338	13
2023-09-08T00:00	15133	128	-64.3	-81.7	340	13
2023-09-08T00:00	15153	127	-64.2	-81.8	342	13
2023-09-08T00:00	15171	127	-64.0	-81.8	345	13
2023-09-08T00:00	15194	127	-63.9	-81.8	347	13
2023-09-08T00:00	15215	126	-64.0	-82.0	351	12
2023-09-08T00:00	15239	126	-64.1	-82.2	355	12
2023-09-08T00:00	15264	125	-64.0	-82.1	0	12
2023-09-08T00:00	15292	125	-63.8	-82.1	5	11
2023-09-08T00:00	15310	124	-63.7	-82.2	10	11
2023-09-08T00:00	15334	124	-63.6	-82.2	14	11
2023-09-08T00:00	15356	123	-63.6	-82.3	19	10
2023-09-08T00:00	15375	123	-63.8	-82.5	23	10
2023-09-08T00:00	15395	123	-63.8	-82.5	26	10
2023-09-08T00:00	15418	122	-63.8	-82.7	30	9
2023-09-08T00:00	15438	122	-63.7	-82.7	33	9
2023-09-08T00:00	15460	121	-63.6	-82.7	35	8
2023-09-08T00:00	15481	121	-63.7	-82.9	36	8
2023-09-08T00:00	15504	120	-63.9	-83.1	36	7
2023-09-08T00:00	15525	120	-64.0	-83.1	34	6
2023-09-08T00:00	15546	120	-64.1	-83.2	31	6
2023-09-08T00:00	15566	119	-64.2	-83.3	27	5
2023-09-08T00:00	15588	119	-64.1	-83.3	22	4
2023-09-08T00:00	15609	118	-64.1	-83.5	13	4
2023-09-08T00:00	15631	118	-64.0	-83.6	2	4
2023-09-08T00:00	15650	118	-63.9	-83.7	351	4
2023-09-08T00:00	15674	117	-64.0	-83.9	342	5
2023-09-08T00:00	15692	117	-63.8		336	5
2023-09-08T00:00	15713	116	-63.7	-83.9	332	5
2023-09-08T00:00	15735	116	-63.6	-83.9	329	5
2023-09-08T00:00	15753	116	-63.3	-84.0	327	5
2023-09-08T00:00	15774	115	-63.0	-83.9	325	5
2023-09-08T00:00	15795	115	-63.0	-84.0	325	5
2023-09-08T00:00	15814	114	-62.9	-84.1	326	6
2023-09-08T00:00	15834	114	-62.9	-84.2	328	6
2023-09-08T00:00	15857	114	-62.7	-84.1	331	6
2023-09-08T00:00	15877	113	-62.8	-84.2	332	7
2023-09-08T00:00	15900	113	-62.8	-84.2	333	7
2023-09-08T00:00	15921	112	-62.9	-84.2	334	7
2023-09-08T00:00	15939	112	-63.0	-84.3	334	8
2023-09-08T00:00	15962	112	-63.2	-84.5	334	8
2023-09-08T00:00	15984	111	-63.3	-84.6	335	8
2023-09-08T00:00	16004	111	-63.0	-84.3	337	9
2023-09-08T00:00	16027	111	-62.9	-84.4	339	9
2023-09-08T00:00	16048	110	-62.9	-84.4	340	9
2023-09-08T00:00	16072	110	-63.1	-84.6	342	9
2023-09-08T00:00	16091	109	-63.2	-84.6	343	9
2023-09-08T00:00	16114	109	-63.1	-84.6	344	9
2023-09-08T00:00	16135	109	-63.2	-84.6	345	9
2023-09-08T00:00	16156	108	-63.3	-84.7	345	8
2023-09-08T00:00	16178	108	-63.4	-84.8	345	8
2023-09-08T00:00	16200	107	-63.5	-84.9	343	8
2023-09-08T00:00	16223	107	-63.4	-85.0	339	7
2023-09-08T00:00	16245	107	-63.2	-84.8	334	7
2023-09-08T00:00	16267	106	-63.2	-85.0	328	7
2023-09-08T00:00	16288	106	-63.3	-85.1	323	8
2023-09-08T00:00	16309	106	-63.3	-85.1	319	8
2023-09-08T00:00	16332	105	-63.3	-85.2	317	8
2023-09-08T00:00	16349	105	-63.2	-85.1	316	8
2023-09-08T00:00	16372	105	-63.3	-85.2	316	9
2023-09-08T00:00	16395	104	-63.3	-85.4	317	8
2023-09-08T00:00	16416	104	-63.1	-85.2	320	8
2023-09-08T00:00	16437	103	-63.1	-85.4	324	8
2023-09-08T00:00	16460	103	-63.0	-85.3	330	8
2023-09-08T00:00	16481	103	-62.9	-85.5	337	7
2023-09-08T00:00	16502	102	-62.8	-85.6	346	7
2023-09-08T00:00	16525	102	-62.5	-85.5	354	8
2023-09-08T00:00	16548	102	-62.5	-85.7	0	8
2023-09-08T00:00	16568	101	-62.4	-85.9	6	8
2023-09-08T00:00	16590	101	-62.2	-85.7	11	8
2023-09-08T00:00	16611	101	-62.1	-85.6	15	8
2023-09-08T00:00	16633	100	-62.1	-85.6	19	8
2023-09-08T00:00	16656	100	-62.2	-85.7	22	8
2023-09-08T00:00	16678	99	-62.2	-85.7	24	8
2023-09-08T00:00	16699	99	-62.3	-85.8	26	7
2023-09-08T00:00	16720	99	-62.4	-85.9	27	7
2023-09-08T00:00	16743	98	-62.4	-85.9	27	7
2023-09-08T00:00	16765	98	-62.5	-86.0	27	7
2023-09-08T00:00	16788	98	-62.6	-86.0	27	6
2023-09-08T00:00	16809	97	-62.7	-86.1	27	6
2023-09-08T00:00	16829	97	-62.8	-86.2	27	5
2023-09-08T00:00	16851	97	-62.9	-86.3	28	5
2023-09-08T00:00	16873	96	-62.9	-86.3	29	5
2023-09-08T00:00	16893	96	-62.7	-86.1	30	4
2023-09-08T00:00	16916	96	-62.6	-86.3	30	4
2023-09-08T00:00	16937	95	-62.6	-86.3	30	5
2023-09-08T00:00	16959	95	-62.5	-86.2	29	5
2023-09-08T00:00	16981	95	-62.2	-86.2	29	5
2023-09-08T00:00	17003	94	-62.3	-86.3	29	5
2023-09-08T00:00	17023	94	-62.3	-86.3	30	6
2023-09-08T00:00	17049	94	-62.4	-86.3	32	6
2023-09-08T00:00	17069	93	-62.4	-86.6	35	6
2023-09-08T00:00	17092	93	-62.4	-86.6	40	6
2023-09-08T00:00	17113	93	-62.1	-86.6	45	6
2023-09-08T00:00	17133	92	-61.6	-86.2	50	5
2023-09-08T00:00	17156	92	-61.7	-86.3	54	5
2023-09-08T00:00	17178	92	-61.8	-86.4	58	4
2023-09-08T00:00	17199	91	-61.8	-86.4	60	3
2023-09-08T00:00	17219	91	-62.0	-86.5	59	3
2023-09-08T00:00	17244	91	-62.1	-86.6	55	2
2023-09-08T00:00	17264	90	-62.1	-86.6	51	2
2023-09-08T00:00	17284	90	-61.8	-86.4	48	2
2023-09-08T00:00	17305	90	-61.7	-86.5	47	2
2023-09-08T00:00	17329	90	-61.7	-86.5	47	2
2023-09-08T00:00	17352	89	-61.5	-86.7	48	2
2023-09-08T00:00	17372	89	-61.3	-86.5	50	2
2023-09-08T00:00	17393	89	-61.0	-86.3	53	2
2023-09-08T00:00	17414	88	-61.1	-86.6	59	2
2023-09-08T00:00	17437	88	-61.0	-86.6	68	2
2023-09-08T00:00	17460	88	-61.0	-86.6	79	2
2023-09-08T00:00	17479	87	-61.0	-86.6	91	2
2023-09-08T00:00	17499	87	-61.1	-86.6	103	2
2023-09-08T00:00	17523	87	-60.9	-86.5	112	1
2023-09-08T00:00	17542	86	-60.9	-86.5	114	1
2023-09-08T00:00	17561	86	-61.0	-86.6	99	1
2023-09-08T00:00	17585	86	-61.0	-86.6	51	1
2023-09-08T00:00	17607	86	-60.9	-86.8	15	1
2023-09-08T00:00	17626	85	-61.0	-86.9	4	1
2023-09-08T00:00	17647	85	-61.0	-86.9	0	2
2023-09-08T00:00	17669	85	-61.1	-87.0	360	2
2023-09-08T00:00	17692	84	-61.1	-87.0	360	3
2023-09-08T00:00	17713	84	-61.2	-87.0	360	3
2023-09-08T00:00	17736	84	-61.1	-87.0	0	3
2023-09-08T00:00	17760	84	-61.1	-87.0	1	3
2023-09-08T00:00	17777	83	-61.0	-86.9	1	3
2023-09-08T00:00	17801	83	-61.0	-87.2	2	3
2023-09-08T00:00	17822	83	-61.0	-87.2	4	3
2023-09-08T00:00	17845	82	-60.9	-87.1	6	2
2023-09-08T00:00	17868	82	-60.9	-87.1	8	2
2023-09-08T00:00	17891	82	-60.9	-87.5	10	2
2023-09-08T00:00	17911	81	-60.8	-87.4	12	2
2023-09-08T00:00	17932	81	-60.7	-87.3	14	2
2023-09-08T00:00	17958	81	-60.6	-87.2	14	2
2023-09-08T00:00	17981	81	-60.4	-87.1	14	2
2023-09-08T00:00	18004	80	-60.4	-87.1	13	2
2023-09-08T00:00	18026	80	-60.5	-87.2	12	2
2023-09-08T00:00	18048	80	-60.5	-87.5	9	1
2023-09-08T00:00	18071	79	-60.4	-87.4	5	2
2023-09-08T00:00	18094	79	-60.3	-87.4	0	2
2023-09-08T00:00	18115	79	-60.1	-87.2	355	2
2023-09-08T00:00	18140	79	-60.0	-87.5	351	2
2023-09-08T00:00	18163	78	-59.8	-87.4	347	2
2023-09-08T00:00	18187	78	-59.8	-87.4	342	2
2023-09-08T00:00	18209	78	-59.9	-87.4	335	2
2023-09-08T00:00	18232	77	-59.8	-87.0	324	2
2023-09-08T00:00	18254	77	-59.9	-87.1	310	2
2023-09-08T00:00	18280	77	-60.0	-87.1	296	2
2023-09-08T00:00	18300	77	-60.1	-87.2	287	3
2023-09-08T00:00	18322	76	-60.2	-87.7	283	3
2023-09-08T00:00	18347	76	-60.0	-87.5	285	3
2023-09-08T00:00	18371	76	-59.5	-87.6	291	3
2023-09-08T00:00	18394	75	-59.2	-87.3	301	3
2023-09-08T00:00	18416	75	-58.9	-87.1	313	3
2023-09-08T00:00	18439	75	-58.9	-87.6	325	3
2023-09-08T00:00	18461	75	-58.7	-87.4	335	3
2023-09-08T00:00	18486	74	-58.7	-87.0	343	3
2023-09-08T00:00	18509	74	-58.9	-87.1	350	3
2023-09-08T00:00	18534	74	-59.0	-87.2	355	3
2023-09-08T00:00	18556	74	-59.0	-87.2	358	4
2023-09-08T00:00	18581	73	-59.1	-87.3	1	4
2023-09-08T00:00	18602	73	-59.1	-87.3	1	4
2023-09-08T00:00	18622	73	-59.1	-87.3	0	4
2023-09-08T00:00	18647	72	-59.1	-87.3	359	4
2023-09-08T00:00	18670	72	-58.9	-87.1	358	4
2023-09-08T00:00	18692	72	-58.9	-87.1	358	4
2023-09-08T00:00	18714	72	-59.0	-87.2	0	4
2023-09-08T00:00	18738	71	-59.1	-87.3	3	3
2023-09-08T00:00	18757	71	-59.2	-87.3	6	3
2023-09-08T00:00	18784	71	-59.2	-87.3	6	3
2023-09-08T00:00	18806	71	-59.3	-87.4	4	2
2023-09-08T00:00	18827	70	-59.3	-87.4	360	2
2023-09-08T00:00	18848	70	-59.4	-87.9	354	2
2023-09-08T00:00	18876	70	-59.1	-87.7	351	3
2023-09-08T00:00	18896	70	-58.7	-87.4	349	3
2023-09-08T00:00	18921	69	-58.6	-87.3	349	3
2023-09-08T00:00	18943	69	-58.6	-87.3	350	4
2023-09-08T00:00	18967	69	-58.7	-87.4	352	4
2023-09-08T00:00	18989	69	-58.7	-87.4	354	4
2023-09-08T00:00	19013	68	-58.6	-87.3	358	5
2023-09-08T00:00	19034	68	-58.7	-87.4	2	5
2023-09-08T00:00	19056	68	-58.7	-87.4	6	5
2023-09-08T00:00	19080	68	-58.8	-87.5	9	5
2023-09-08T00:00	19103	67	-58.8	-87.5	13	5
2023-09-08T00:00	19127	67	-58.9	-87.6	17	5
2023-09-08T00:00	19147	67	-58.8	-87.5	20	5
2023-09-08T00:00	19171	67	-58.9	-87.6	23	6
2023-09-08T00:00	19194	66	-59.0	-87.6	26	6
2023-09-08T00:00	19214	66	-59.0	-87.6	28	6
2023-09-08T00:00	19240	66	-59.1	-87.7	31	7
2023-09-08T00:00	19263	66	-59.1	-87.7	35	7
2023-09-08T00:00	19285	65	-58.8	-87.5	39	7
2023-09-08T00:00	19308	65	-58.7	-87.4	44	8
2023-09-08T00:00	19335	65	-58.9	-87.6	49	8
2023-09-08T00:00	19356	65	-58.7	-87.4	54	8
2023-09-08T00:00	19384	64	-58.9	-87.6	58	8
2023-09-08T00:00	19407	64	-58.9	-87.6	61	8
2023-09-08T00:00	19431	64	-59.0	-87.6	65	8
2023-09-08T00:00	19454	64	-59.0	-87.6	68	7
2023-09-08T00:00	19478	63	-59.1	-87.7	71	7
2023-09-08T00:00	19500	63	-59.1	-87.7	75	6
2023-09-08T00:00	19528	63	-59.2	-87.8	79	5
2023-09-08T00:00	19552	63	-59.3	-87.9	84	4
2023-09-08T00:00	19573	63	-59.3	-87.9	87	3
2023-09-08T00:00	19596	62	-59.3	-87.9	87	3
2023-09-08T00:00	19622	62	-59.4	-87.9	83	2
2023-09-08T00:00	19649	62	-59.5	-88.0	69	1
2023-09-08T00:00	19672	62	-59.4	-87.9	46	1
2023-09-08T00:00	19697	61	-59.4	-87.9	28	1
2023-09-08T00:00	19723	61	-59.3	-87.9	18	2
2023-09-08T00:00	19745	61	-59.2	-87.8	11	2
2023-09-08T00:00	19769	61	-59.2	-87.8	4	2
2023-09-08T00:00	19792	60	-59.1	-87.7	358	2
2023-09-08T00:00	19815	60	-59.2	-87.8	353	2
2023-09-08T00:00	19839	60	-59.3	-87.9	350	2
2023-09-08T00:00	19865	60	-59.4	-87.9	353	2
2023-09-08T00:00	19886	59	-59.4	-87.9	360	2
2023-09-08T00:00	19912	59	-59.1	-87.7	7	3
2023-09-08T00:00	19935	59	-59.2	-87.8	14	3
2023-09-08T00:00	19956	59	-59.4	-87.9	17	4
2023-09-08T00:00	19982	59	-59.5	-88.0	18	4
2023-09-08T00:00	20003	58	-59.5	-88.0	16	4
2023-09-08T00:00	20025	58	-59.4	-87.9	12	4
2023-09-08T00:00	20048	58	-59.0	-88.1	5	5
2023-09-08T00:00	20073	58	-58.8	-88.0	357	5
2023-09-08T00:00	20095	58	-58.4	-87.7	348	5
2023-09-08T00:00	20119	57	-58.4	-87.7	340	5
2023-09-08T00:00	20145	57	-58.4	-87.7	334	5
2023-09-08T00:00	20166	57	-58.4	-87.7	330	6
2023-09-08T00:00	20187	57	-58.5	-87.7	328	6
2023-09-08T00:00	20211	56	-58.4	-87.7	329	7
2023-09-08T00:00	20233	56	-58.5	-87.7	332	7
2023-09-08T00:00	20257	56	-58.5	-87.7	336	7
2023-09-08T00:00	20280	56	-58.4	-87.7	342	8
2023-09-08T00:00	20303	56	-58.2	-87.5	348	8
2023-09-08T00:00	20323	55	-58.0	-87.9	355	8
2023-09-08T00:00	20345	55	-57.6	-87.6	2	8
2023-09-08T00:00	20370	55	-57.4	-87.5	9	8
2023-09-08T00:00	20390	55	-57.3	-87.4	16	8
2023-09-08T00:00	20412	55	-57.2	-87.3	22	8
2023-09-08T00:00	20440	54	-57.2	-87.3	29	8
2023-09-08T00:00	20460	54	-57.3	-87.4	35	8
2023-09-08T00:00	20486	54	-57.3	-87.4	41	8
2023-09-08T00:00	20504	54	-57.3	-87.4	45	8
2023-09-08T00:00	20530	54	-57.5	-87.0	48	8
2023-09-08T00:00	20553	53	-57.5	-87.0	50	8
2023-09-08T00:00	20575	53	-57.5	-87.5	50	7
2023-09-08T00:00	20594	53	-57.2	-87.3	49	6
2023-09-08T00:00	20619	53	-57.0	-87.2	48	6
2023-09-08T00:00	20638	53	-57.1	-87.2	46	5
2023-09-08T00:00	20663	53	-57.1	-87.2	45	5
2023-09-08T00:00	20685	52	-57.1	-87.2	46	4
2023-09-08T00:00	20706	52	-56.9	-87.1	48	4
2023-09-08T00:00	20733	52	-56.9	-87.1	50	4
2023-09-08T00:00	20756	52	-57.0	-87.2	51	4
2023-09-08T00:00	20778	52	-57.1	-87.2	53	4
2023-09-08T00:00	20800	51	-57.2	-87.3	53	4
2023-09-08T00:00	20827	51	-57.3	-87.4	52	4
2023-09-08T00:00	20849	51	-57.4	-86.9	50	3
2023-09-08T00:00	20877	51	-57.5	-87.0	45	3
2023-09-08T00:00	20899	51	-57.6	-87.6	38	3
2023-09-08T00:00	20928	50	-57.5	-87.5	29	2
2023-09-08T00:00	20950	50	-57.4	-87.5	18	2
2023-09-08T00:00	20974	50	-57.4	-87.5	6	2
2023-09-08T00:00	20998	50	-57.5	-87.5	357	2
2023-09-08T00:00	21026	50	-57.4	-87.5	354	2
2023-09-08T00:00	21049	49	-57.4	-87.5	354	3
2023-09-08T00:00	21073	49	-57.5	-87.5	355	3
2023-09-08T00:00	21099	49	-57.5	-87.5	356	4
2023-09-08T00:00	21121	49	-57.6	-87.6	358	4
2023-09-08T00:00	21144	49	-57.6	-87.1	359	4
2023-09-08T00:00	21169	49	-57.7	-87.2	2	4
2023-09-08T00:00	21190	48	-57.8	-87.2	6	4
2023-09-08T00:00	21216	48	-58.0	-87.4	12	4
2023-09-08T00:00	21241	48	-58.2	-87.5	17	4
2023-09-08T00:00	21264	48	-58.2	-87.5	22	4
2023-09-08T00:00	21288	48	-58.3	-87.6	26	4
2023-09-08T00:00	21311	47	-58.3	-87.6	28	4
2023-09-08T00:00	21336	47	-58.2	-87.5	30	4
2023-09-08T00:00	21363	47	-58.1	-87.4	30	3
2023-09-08T00:00	21385	47	-58.2	-87.5	28	3
2023-09-08T00:00	21410	47	-58.2	-87.5	24	3
2023-09-08T00:00	21429	47	-58.3	-87.6	18	3
2023-09-08T00:00	21455	46	-58.4	-87.7	12	3
2023-09-08T00:00	21477	46	-58.5	-87.7	8	4
2023-09-08T00:00	21499	46	-58.6	-87.8	8	4
2023-09-08T00:00	21525	46	-58.6	-87.8	9	5
2023-09-08T00:00	21548	46	-58.7	-87.9	11	5
2023-09-08T00:00	21573	46	-58.8	-88.0	13	5
2023-09-08T00:00	21599	45	-58.7	-87.9	13	5
2023-09-08T00:00	21621	45	-58.7	-87.9	13	6
2023-09-08T00:00	21646	45	-58.5	-88.3	12	6
2023-09-08T00:00	21667	45	-58.3	-88.1	10	6
2023-09-08T00:00	21687	45	-58.0	-87.9	9	7
2023-09-08T00:00	21713	45	-57.8	-87.8	8	7
2023-09-08T00:00	21739	44	-57.6	-88.2	8	8
2023-09-08T00:00	21761	44	-57.4	-88.1	8	8
2023-09-08T00:00	21788	44	-57.3	-88.0	8	8
2023-09-08T00:00	21814	44	-57.3	-88.0	9	8
2023-09-08T00:00	21831	44	-57.1	-87.8	10	8
2023-09-08T00:00	21858	43	-56.9	-87.7	13	8
2023-09-08T00:00	21884	43	-56.7	-87.5	16	8
2023-09-08T00:00	21909	43	-56.3	-87.2	19	8
2023-09-08T00:00	21933	43	-56.0	-87.0	22	7
2023-09-08T00:00	21960	43	-55.8	-87.5	24	7
2023-09-08T00:00	21983	43	-55.6	-87.4	24	7
2023-09-08T00:00	22011	42	-55.7	-87.5	23	6
2023-09-08T00:00	22035	42	-55.7	-86.8	20	6
2023-09-08T00:00	22060	42	-55.7	-86.8	17	6
2023-09-08T00:00	22087	42	-55.6	-86.7	12	5
2023-09-08T00:00	22108	42	-55.5	-86.7	7	5
2023-09-08T00:00	22135	42	-55.3	-86.5	2	5
2023-09-08T00:00	22159	41	-55.3	-86.5	358	5
2023-09-08T00:00	22185	41	-55.3	-86.5	357	5
2023-09-08T00:00	22212	41	-55.2	-86.4	357	5
2023-09-08T00:00	22233	41	-55.2	-86.4	1	5
2023-09-08T00:00	22259	41	-55.2	-86.4	8	5
2023-09-08T00:00	22284	41	-55.3	-86.5	16	5
2023-09-08T00:00	22310	41	-55.4	-86.6	24	5
2023-09-08T00:00	22335	40	-55.4	-86.6	31	6
2023-09-08T00:00	22361	40	-55.3	-86.5	36	6
2023-09-08T00:00	22384	40	-55.3	-86.5	40	7
2023-09-08T00:00	22411	40	-55.3	-86.5	44	6
2023-09-08T00:00	22438	40	-55.4	-86.6	46	6
2023-09-08T00:00	22459	40	-55.5	-86.7	46	5
2023-09-08T00:00	22489	39	-55.6	-86.7	43	5
2023-09-08T00:00	22511	39	-55.7	-86.8	37	4
2023-09-08T00:00	22537	39	-55.8	-86.9	29	4
2023-09-08T00:00	22562	39	-55.8	-86.9	22	4
2023-09-08T00:00	22587	39	-55.7	-86.8	18	4
2023-09-08T00:00	22614	39	-55.8	-86.9	16	5
2023-09-08T00:00	22638	38	-55.9	-86.9	17	5
2023-09-08T00:00	22662	38	-55.9	-86.9	18	5
2023-09-08T00:00	22693	38	-56.1	-86.5	19	6
2023-09-08T00:00	22716	38	-56.2	-86.6	21	6
2023-09-08T00:00	22739	38	-56.4		22	6
2023-09-08T00:00	22762	38	-56.2	-87.2	23	7
2023-09-08T00:00	22791	38	-56.1	-87.1	25	7
2023-09-08T00:00	22814	37	-56.1	-87.1	26	7
2023-09-08T00:00	22842	37	-56.2	-87.2	27	7
2023-09-08T00:00	22865	37	-56.2	-87.2	27	8
2023-09-08T00:00	22888	37	-56.4		28	7
2023-09-08T00:00	22916	37	-56.5	-86.8	29	7
2023-09-08T00:00	22940	37	-56.6	-86.9	31	7
2023-09-08T00:00	22972	37	-56.8	-87.0	33	7
2023-09-08T00:00	22997	36	-57.0	-87.2	35	6
2023-09-08T00:00	23019	36	-57.2	-87.3	36	6
2023-09-08T00:00	23045	36	-57.2	-87.3	37	5
2023-09-08T00:00	23074	36	-57.3	-87.4	37	5
2023-09-08T00:00	23101	36	-57.5	-87.5	36	4
2023-09-08T00:00	23127	36	-57.5	-87.5	36	4
2023-09-08T00:00	23152	35	-57.6	-87.6	36	4
2023-09-08T00:00	23182	35	-57.4	-87.5	37	4
2023-09-08T00:00	23209	35	-57.2	-87.3	39	4
2023-09-08T00:00	23233	35	-57.1	-87.2	44	4
2023-09-08T00:00	23260	35	-57.1	-87.2	49	4
2023-09-08T00:00	23290	35	-57.0	-87.2	53	5
2023-09-08T00:00	23311	35	-57.2	-87.3	57	5
2023-09-08T00:00	23346	34	-57.2	-87.3	58	5
2023-09-08T00:00	23368	34	-57.3	-87.4	59	5
2023-09-08T00:00	23397	34	-57.4	-87.5	60	5
2023-09-08T00:00	23424	34	-57.2	-87.3	61	4
2023-09-08T00:00	23446	34	-57.1	-87.2	63	4
2023-09-08T00:00	23478	34	-57.2	-87.3	66	3
2023-09-08T00:00	23502	34	-57.2	-87.3	69	3
2023-09-08T00:00	23528	33	-57.2	-87.9	72	2
2023-09-08T00:00	23559	33	-56.9	-87.7	75	2
2023-09-08T00:00	23587	33	-56.7	-87.5	80	1
2023-09-08T00:00	23611	33	-56.9	-87.7	87	1
2023-09-08T00:00	23633	33	-57.1	-87.2	94	1
2023-09-08T00:00	23661	33	-57.3	-87.4	100	1
2023-09-08T00:00	23687	33	-57.5	-87.5	104	1
2023-09-08T00:00	23711	32	-57.5	-87.5	108	1
2023-09-08T00:00	23736	32	-57.5	-87.5	111	1
2023-09-08T00:00	23762	32	-57.5	-87.5	114	1
2023-09-08T00:00	23785	32	-57.3	-87.4	117	1
2023-09-08T00:00	23814	32	-57.1	-87.8	122	1
2023-09-08T00:00	23838	32	-57.0	-87.8	134	1
2023-09-08T00:00	23864	32	-57.1	-87.8	159	1
2023-09-08T00:00	23891	32	-57.0	-87.8	190	1
2023-09-08T00:00	23918	31	-57.0	-87.8	210	2
2023-09-08T00:00	23938	31	-57.1	-87.8	222	2
2023-09-08T00:00	23967	31	-57.0	-87.8	231	3
2023-09-08T00:00	23991	31	-57.0	-87.8	238	3
2023-09-08T00:00	24021	31	-56.8	-87.6	246	3
2023-09-08T00:00	24043	31	-56.7	-87.5	257	3
2023-09-08T00:00	24075	31	-56.5	-87.4	274	2
2023-09-08T00:00	24098	31	-56.2	-87.8	298	2
2023-09-08T00:00	24119	30	-56.1	-87.8	322	3
2023-09-08T00:00	24146	30	-56.0	-87.7	341	3
2023-09-08T00:00	24173	30	-55.8	-87.5	354	4
2023-09-08T00:00	24196	30	-55.8	-87.5	4	4
2023-09-08T00:00	24224	30	-55.8	-87.5	11	4
2023-09-08T00:00	24248	30	-55.6	-87.4	16	5
2023-09-08T00:00	24271	30	-55.3	-87.2	18	5
2023-09-08T00:00	24299	30	-55.3	-87.2	19	5
2023-09-08T00:00	24324	30	-55.1	-87.0	21	4
2023-09-08T00:00	24344	29	-55.0	-87.0	26	4
2023-09-08T00:00	24370	29	-54.9	-86.9	34	4
2023-09-08T00:00	24397	29	-54.5	-86.6	42	4
2023-09-08T00:00	24416	29	-54.5	-86.6	49	4
2023-09-08T00:00	24448	29	-54.4	-86.5	53	5
2023-09-08T00:00	24472	29	-54.2	-86.4	55	4
2023-09-08T00:00	24496	29	-54.1	-86.3	54	4
2023-09-08T00:00	24524	29	-54.1	-86.3	52	3
2023-09-08T00:00	24548	28	-54.1	-87.1	47	3
2023-09-08T00:00	24579	28	-53.7	-86.8	35	2
2023-09-08T00:00	24605	28	-53.6		5	1
2023-09-08T00:00	24632	28	-53.7	-86.0	330	1
2023-09-08T00:00	24656	28	-53.9	-86.2	315	2
2023-09-08T00:00	24680	28	-54.0	-86.2	312	2
2023-09-08T00:00	24708	28	-54.1	-86.3	314	3
2023-09-08T00:00	24734	28	-54.1	-86.3	318	3
2023-09-08T00:00	24762	28	-53.9	-86.2	323	3
2023-09-08T00:00	24796	27	-53.7	-86.0	327	3
2023-09-08T00:00	24815	27	-53.8	-86.8	332	3
2023-09-08T00:00	24845	27	-53.7	-86.8	338	3
2023-09-08T00:00	24869	27	-53.6		344	4
2023-09-08T00:00	24900	27	-53.6		350	4
2023-09-08T00:00	24924	27	-53.7	-86.0	356	4
2023-09-08T00:00	24954	27	-53.8	-86.1	2	4
2023-09-08T00:00	24978	27	-53.9	-86.2	7	4
2023-09-08T00:00	25007	27	-53.9	-86.2	13	4
2023-09-08T00:00	25034	26	-54.1	-86.3	20	4
2023-09-08T00:00	25062	26	-54.3	-85.8	26	4
2023-09-08T00:00	25091	26	-54.5	-85.9	33	4
2023-09-08T00:00	25116	26	-54.7	-86.1	38	4
2023-09-08T00:00	25144	26	-55.0	-86.3	41	4
2023-09-08T00:00	25172	26	-55.2	-86.4	40	4
2023-09-08T00:00	25205	26	-55.4	-86.6	36	3
2023-09-08T00:00	25225	26	-55.5	-86.7	29	3
2023-09-08T00:00	25254	26	-55.3	-86.5	23	4
2023-09-08T00:00	25288	25	-55.2	-86.4	19	4
2023-09-08T00:00	25306	25	-55.2	-86.4	18	4
2023-09-08T00:00	25339	25	-55.4	-86.6	22	4
2023-09-08T00:00	25360	25	-55.4	-86.6	30	3
2023-09-08T00:00	25390	25	-55.5	-86.7	41	3
2023-09-08T00:00	25413	25	-55.6	-86.7	56	2
2023-09-08T00:00	25451	25	-55.5	-87.3	75	2
2023-09-08T00:00	25473	25	-55.4	-87.2	91	2
2023-09-08T00:00	25495	25	-55.2	-87.1	101	2
2023-09-08T00:00	25519	24	-55.1	-87.0	102	1
2023-09-08T00:00	25549	24	-55.1	-87.0	93	1
2023-09-08T00:00	25572	24	-54.8	-87.6	78	1
2023-09-08T00:00	25597	24	-54.5	-87.3	60	1
2023-09-08T00:00	25622	24	-54.3	-87.2	36	1
2023-09-08T00:00	25653	24	-54.3	-87.2	358	1
2023-09-08T00:00	25678	24	-54.0	-87.0	328	1
2023-09-08T00:00	25702	24	-53.9	-86.9	323	1
2023-09-08T00:00	25734	24	-53.9	-86.9	330	1
2023-09-08T00:00	25753	24	-53.9	-86.9	342	2
2023-09-08T00:00	25783	24	-53.8	-86.8	352	2
2023-09-08T00:00	25807	23	-53.7	-86.8	359	3
2023-09-08T00:00	25828	23	-53.8	-86.8	2	3
2023-09-08T00:00	25859	23	-53.8	-86.8	1	3
2023-09-08T00:00	25877	23	-53.8	-86.8	355	2
2023-09-08T00:00	25909	23	-53.6	-86.7	341	2
2023-09-08T00:00	25937	23	-53.6	-86.7	323	2
2023-09-08T00:00	25964	23	-53.7	-86.0	308	2
2023-09-08T00:00	25989	23	-53.8	-86.1	302	2
2023-09-08T00:00	26021	23	-54.0	-86.2	303	2
2023-09-08T00:00	26040	23	-54.0	-86.2	309	2
2023-09-08T00:00	26065	22	-54.0	-86.2	318	2
2023-09-08T00:00	26090	22	-54.0	-86.2	324	2
2023-09-08T00:00	26117	22	-53.9	-86.2	325	2
2023-09-08T00:00	26144	22	-53.7	-86.8	322	3
2023-09-08T00:00	26172	22	-53.6	-86.7	316	3
2023-09-08T00:00	26202	22	-53.5	-86.6	311	3
2023-09-08T00:00	26224	22	-53.5	-86.6	307	4
2023-09-08T00:00	26259	22	-53.7	-86.8	304	4
2023-09-08T00:00	26284	22	-53.6	-86.7	302	4
2023-09-08T00:00	26312	22	-53.4	-86.5	300	4
2023-09-08T00:00	26333	22	-53.4	-86.5	297	4
2023-09-08T00:00	26361	21	-52.9	-86.2	293	3
2023-09-08T00:00	26379	21	-52.5	-86.8	288	3
2023-09-08T00:00	26411	21	-52.1	-86.5	282	3
2023-09-08T00:00	26442	21	-52.0	-86.4	276	2
2023-09-08T00:00	26464	21	-52.0	-86.4	273	2
2023-09-08T00:00	26495	21	-52.1	-86.5	275	3
2023-09-08T00:00	26524	21	-52.3	-85.8	281	3
2023-09-08T00:00	26551	21	-52.3	-85.8	288	3
2023-09-08T00:00	26576	21	-52.0	-85.5	294	4
2023-09-08T00:00	26603	21	-52.0	-85.5	299	5
2023-09-08T00:00	26629	21	-52.0	-85.5	302	6
2023-09-08T00:00	26654	21	-52.0	-85.5	305	6
2023-09-08T00:00	26685	20	-52.0	-85.5	308	7
2023-09-08T00:00	26702	20	-52.0	-86.4	311	7
2023-09-08T00:00	26737	20	-51.9	-86.3	316	6
2023-09-08T00:00	26769	20	-51.2	-85.8	322	6
2023-09-08T00:00	26786	20	-50.8	-85.6	329	6
2023-09-08T00:00	26817	20	-50.6	-85.4	337	5
2023-09-08T00:00	26849	20	-50.6	-85.4	343	5
2023-09-08T00:00	26875	20	-50.6	-85.4	347	5
2023-09-08T00:00	26901	20	-50.5	-85.3	350	4
2023-09-08T00:00	26926	20	-50.2	-85.1	351	4
2023-09-08T00:00	26953	20	-50.2	-85.1	352	3
2023-09-08T00:00	26986	20	-50.1	-85.1	353	3
2023-09-08T00:00	27016	19	-50.2	-85.1	355	2
2023-09-08T00:00	27041	19	-50.3	-85.2	358	2
2023-09-08T00:00	27067	19	-50.4	-85.3	3	1
2023-09-08T00:00	27096	19	-50.6	-85.4	8	1
2023-09-08T00:00	27120	19	-50.6	-85.4	4	1
2023-09-08T00:00	27142	19	-50.6	-85.4	311	0
2023-09-08T00:00	27189	19	-50.7	-85.5	263	1
2023-09-08T00:00	27202	19	-50.8	-85.6	255	1
2023-09-08T00:00	27236	19	-50.3	-85.2	254	2
2023-09-08T00:00	27264	19	-50.2	-85.1	255	3
2023-09-08T00:00	27298	19	-50.1	-85.1	256	3
2023-09-08T00:00	27316	19	-49.8	-84.8	258	4
2023-09-08T00:00	27346	18	-49.3	-85.5	262	4
2023-09-08T00:00	27373	18	-49.3	-85.5	265	5
2023-09-08T00:00	27408	18	-49.0	-85.3	269	6
2023-09-08T00:00	27427	18	-48.9	-85.3	271	6
2023-09-08T00:00	27453	18	-48.7	-85.1	273	7
2023-09-08T00:00	27480	18	-48.7	-85.1	274	8
2023-09-08T00:00	27505	18	-48.4	-84.9	274	8
2023-09-08T00:00	27528	18	-48.0	-84.6	274	9
2023-09-08T00:00	27555	18	-48.0	-84.6	275	9
2023-09-08T00:00	27593	18	-47.9	-84.6	276	10
2023-09-08T00:00	27615	18	-47.8	-84.5	278	10
2023-09-08T00:00	27636	18	-47.8	-84.5	281	11
2023-09-08T00:00	27663	18	-47.7	-84.4	284	12
2023-09-08T00:00	27690	18	-47.4	-84.2	288	12
2023-09-08T00:00	27721	17	-47.3	-84.1	291	13
2023-09-08T00:00	27749	17	-47.3	-84.1	294	13
2023-09-08T00:00	27773	17	-47.4	-84.2	297	13
2023-09-08T00:00	27811	17	-47.5	-84.3	300	13
2023-09-08T00:00	27833	17	-47.5	-84.3	302	13
2023-09-08T00:00	27861	17	-47.2	-84.1	303	13
2023-09-08T00:00	27888	17	-47.1	-84.0	304	12
2023-09-08T00:00	27915	17	-47.2	-84.1	306	12
2023-09-08T00:00	27932	17	-47.4	-84.2	307	11
2023-09-08T00:00	27960	17	-47.6	-83.3	308	10
2023-09-08T00:00	27994	17	-47.8	-83.4	310	10
2023-09-08T00:00	28027	17	-48.0	-83.6	311	9
2023-09-08T00:00	28048	17	-48.1	-83.6	312	9
2023-09-08T00:00	28078	17	-48.3	-83.8	314	8
2023-09-08T00:00	28101	16	-48.4	-83.8	316	7
2023-09-08T00:00	28134	16	-48.5	-83.9	318	7
2023-09-08T00:00	28162	16	-48.4	-83.8	320	7
2023-09-08T00:00	28201	16	-48.3	-83.8	322	7
2023-09-08T00:00	28212	16	-48.2	-83.7	323	7
2023-09-08T00:00	28241	16	-48.4	-83.8	323	8
2023-09-08T00:00	28279	16	-48.6		323	8
2023-09-08T00:00	28303	16	-48.8	-84.1	322	8
2023-09-08T00:00	28327	16	-48.8	-84.1	320	7
2023-09-08T00:00	28350	16	-48.8	-84.1	319	7
2023-09-08T00:00	28392	16	-48.8	-84.1	317	8
2023-09-08T00:00	28413	16	-48.6		316	8
2023-09-08T00:00	28440	16	-48.4	-84.9	316	9
2023-09-08T00:00	28480	16	-48.5	-85.0	317	9
2023-09-08T00:00	28491	16	-48.1	-84.7	318	9
2023-09-08T00:00	28530	15	-48.0	-84.6	319	9
2023-09-08T00:00	28557	15	-48.0	-84.6	320	9
2023-09-08T00:00	28581	15	-48.1	-84.7	323	8
2023-09-08T00:00	28607	15	-48.2	-84.8	325	8
2023-09-08T00:00	28643	15	-48.3	-84.8	328	8
2023-09-08T00:00	28651	15	-48.4	-84.9	330	7
2023-09-08T00:00	28684	15	-48.4	-83.8	332	7
2023-09-08T00:00	28727	15	-48.4	-83.8	332	7
2023-09-08T00:00	28752	15	-48.6		333	6
2023-09-08T00:00	28784	15	-48.6		333	6
2023-09-08T00:00	28805	15	-48.8	-84.1	332	5
2023-09-08T00:00	28840	15	-48.9	-84.2	330	5
2023-09-08T00:00	28865	15	-49.0	-84.3	326	4
2023-09-08T00:00	28895	15	-49.1	-84.3	318	4
2023-09-08T00:00	28908	15	-48.9	-84.2	306	3
2023-09-08T00:00	28940	15	-48.7	-84.1	292	3
2023-09-08T00:00	28964	14	-48.7	-84.1	279	3
2023-09-08T00:00	28998	14	-48.8	-84.1	268	4
2023-09-08T00:00	29026	14	-48.9	-84.2	262	4
2023-09-08T00:00	29058	14	-48.9	-85.3	259	4
2023-09-08T00:00	29071	14	-49.0	-85.3	259	4
2023-09-08T00:00	29107	14	-48.8	-85.2	261	5
2023-09-08T00:00	29129	14	-48.5	-85.0	265	5
2023-09-08T00:00	29147	14	-48.6	-85.0	268	6
2023-09-08T00:00	29181	14	-48.6	-85.0	272	6
2023-09-08T00:00	29211	14	-48.5	-85.0	276	6
2023-09-08T00:00	29239	14	-48.4	-84.9	281	7
2023-09-08T00:00	29259	14	-47.9	-84.6	287	7
2023-09-08T00:00	29297	14	-47.9	-84.6	293	7
2023-09-08T00:00	29320	14	-48.0	-84.6	299	7
2023-09-08T00:00	29357	14	-47.9	-84.6	303	6
2023-09-08T00:00	29376	14	-47.9	-84.6	304	6
2023-09-08T00:00	29407	14	-47.8	-84.5	302	6
2023-09-08T00:00	29431	13	-47.7	-84.4	298	6
2023-09-08T00:00	29450	13	-47.5	-84.3	292	5
2023-09-08T00:00	29482	13	-47.2	-84.1	286	5
2023-09-08T00:00	29518	13	-47.3	-84.1	281	5
2023-09-08T00:00	29554	13	-47.3	-84.1	278	5
2023-09-08T00:00	29558	13	-47.1	-84.0	275	5
2023-09-08T00:00	29617	13	-46.8	-83.8	273	5
2023-09-08T00:00	29638	13	-46.7	-83.7	272	5
2023-09-08T00:00	29654	13	-46.6	-83.6	271	5
2023-09-08T00:00	29688	13	-46.6	-83.6	271	5
2023-09-08T00:00	29716	13	-46.3	-83.4	273	6
2023-09-08T00:00	29743	13	-46.4	-83.5	275	6
2023-09-08T00:00	29759	13	-46.5	-83.6	278	7
2023-09-08T00:00	29797	13	-46.7	-83.7	280	7
2023-09-08T00:00	29821	13	-46.8	-83.8	282	8
2023-09-08T00:00	29866	13	-46.9	-83.9	283	8
2023-09-08T00:00	29881	13	-46.8	-83.8	283	9
2023-09-08T00:00	29906	13	-46.7	-83.7	284	9
2023-09-08T00:00	29945	12	-46.6	-83.6	285	8
2023-09-08T00:00	29964	12	-46.6	-83.6	286	8
2023-09-08T00:00	29993	12	-46.7	-83.7	288	8
2023-09-08T00:00	30019	12	-46.7	-83.7	289	8
2023-09-08T00:00	30037	12	-46.8	-83.8	290	8
2023-09-08T00:00	30055	12	-46.9	-83.9	290	8
2023-09-08T00:00	30109	12	-46.9	-83.9	288	7
2023-09-08T00:00	30121	12	-46.7	-83.7	284	7
2023-09-08T00:00	30159	12	-46.3	-83.4	279	7
2023-09-08T00:00	30191	12	-46.0	-83.2	274	6
2023-09-08T00:00	30210	12	-45.7	-83.0	270	6
2023-09-08T00:00	30233	12	-45.7	-83.0	268	6
2023-09-08T00:00	30271	12	-44.6	-82.2	268	7
2023-09-08T00:00	30293	12	-44.4	-82.1	269	7
2023-09-08T00:00	30338	12	-44.3	-82.0	272	7
2023-09-08T00:00	30352	12	-44.4	-82.1	275	7
2023-09-08T00:00	30367	12	-44.3	-82.0	279	7
2023-09-08T00:00	30400	12	-44.4	-82.1	283	7
2023-09-08T00:00	30436	12	-44.6	-82.2	287	7
2023-09-08T00:00	30465	12	-44.7	-82.3	291	8
2023-09-08T00:00	30480	12	-44.8	-82.4	295	8
2023-09-08T00:00	30525	11	-44.8	-82.4	298	8
2023-09-08T00:00	30538	11	-44.9	-82.5	300	9
2023-09-08T00:00	30561	11	-44.9	-82.5	301	9
2023-09-08T00:00	30592	11	-44.8	-82.4	300	9
2023-09-08T00:00	30627	11	-44.9	-82.5	300	10
2023-09-08T00:00	30662	11	-44.9	-82.5	300	10
2023-09-08T00:00	30673	11	-44.9	-82.5	300	11
2023-09-08T00:00	30718	11	-44.8	-82.4	302	11
2023-09-08T00:00	30724	11	-44.9	-82.5	304	11
2023-09-08T00:00	30762	11	-45.0	-82.5	307	11
2023-09-08T00:00	30791	11	-45.1	-82.6	309	11
2023-09-08T00:00	30820	11	-45.0	-82.5	312	12
2023-09-08T00:00	30846	11	-44.9	-82.5	313	12
2023-09-08T00:00	30871	11	-44.8	-82.4	315	11
2023-09-08T00:00	30898	11	-44.8	-82.4	316	11
2023-09-08T00:00	30918	11	-44.8	-82.4	317	10
2023-09-08T00:00	30952	11	-44.8	-82.4	318	10
2023-09-08T00:00	30978	11	-44.9	-82.5	320	9
2023-09-08T00:00	30989	11	-45.0	-82.5	322	8
2023-09-08T00:00	31022	11	-45.1	-82.6	324	7
2023-09-08T00:00	31045	11	-45.3	-82.7	326	6
2023-09-08T00:00	31079	11	-45.3	-82.7	327	5
2023-09-08T00:00	31107	10	-45.2	-82.7	328	5
2023-09-08T00:00	31141	10	-45.0	-82.5	327	3
2023-09-08T00:00	31159	10	-44.7	-82.3	321	2
2023-09-08T00:00	31195	10	-44.7	-82.3	300	1
2023-09-08T00:00	31216	10	-44.6	-82.2	245	1
2023-09-08T00:00	31258	10	-44.2	-82.0	218	2
2023-09-08T00:00	31272	10	-44.3	-82.0	214	3
2023-09-08T00:00	31294	10	-44.1	-81.9	217	4
2023-09-08T00:00	31332	10	-43.6	-81.5	222	5
2023-09-08T00:00	31353	10	-43.2	-81.3	227	5
2023-09-08T00:00	31387	10	-43.0	-81.1	233	6
2023-09-08T00:00	31394	10	-42.8	-81.0	238	6
2023-09-08T00:00	31428	10	-42.6	-80.8	244	7
2023-09-08T00:00	31454	10	-42.6	-80.8	250	7
2023-09-08T00:00	31486	10	-42.4	-80.7	256	7
2023-09-08T00:00	31528	10	-42.3	-80.6	263	8
2023-09-08T00:00	31551	10	-42.0	-80.4	270	8
2023-09-08T00:00	31586	10	-41.9	-80.4	276	9
2023-09-08T00:00	31604	10	-41.4	-80.0	283	9
2023-09-08T00:00	31646	10	-41.6	-80.1	290	9
2023-09-08T00:00	31659	10	-41.7	-80.2	297	9
2023-09-08T00:00	31702	10	-41.4	-80.0	304	9
2023-09-08T00:00	31706	10	-41.4	-80.0	311	8
2023-09-08T00:00	31740	10	-41.3	-79.9	318	8
2023-09-08T00:00	31755	10	-41.3	-79.9	326	7
2023-09-08T00:00	31798	9	-41.4	-80.0	332	6
2023-09-08T00:00	31809	9	-41.3	-79.9	336	6
2023-09-08T00:00	31833	9	-41.2	-79.9	337	6
2023-09-08T00:00	31883	9	-41.1	-79.8	335	6
2023-09-08T00:00	31914	9	-41.0	-79.7	332	6
2023-09-08T00:00	31939	9	-40.9	-79.7	329	6
2023-09-08T00:00	31954	9	-40.9	-79.7	326	6
2023-09-08T00:00	31991	9	-40.9	-79.7	323	6
2023-09-08T00:00	32014	9	-40.8	-79.6	319	6
2023-09-08T00:00	32058	9	-40.4	-79.3	316	5
2023-09-08T00:00	32089	9	-40.2	-79.2	315	5
2023-09-08T00:00	32129	9	-40.0	-79.0	318	5
2023-09-08T00:00	32181	9	-40.2	-79.2	323	4
2023-09-08T00:00	32189	9	-40.4	-79.3	327	4
2023-09-08T00:00	32213	9	-40.6	-79.5	332	4
2023-09-08T00:00	32254	9	-40.8	-79.6	335	3
2023-09-08T00:00	32282	9	-41.0	-79.7	337	3
2023-09-08T00:00	32322	9	-41.2	-79.9	337	2
2023-09-08T00:00	32365	9	-41.5	-80.1	322	1
2023-09-08T00:00	32395	9	-41.3	-79.9	294	1
2023-09-08T00:00	32409	9	-41.5	-80.1	257	1
2023-09-08T00:00	32455	9	-41.6	-80.1	234	1
2023-09-08T00:00	32480	9	-41.8	-80.3	221	1
2023-09-08T00:00	32490	9	-42.0	-80.4	213	1
2023-09-08T00:00	32516	9	-42.2	-80.6	206	2
2023-09-08T00:00	32551	8	-42.3	-80.6	198	2
2023-09-08T00:00	32572	8	-42.5	-80.8	190	2
2023-09-08T00:00	32601	8	-42.6	-80.8	185	3
2023-09-08T00:00	32621	8	-42.5	-80.8	184	3
2023-09-08T00:00	32645	8	-42.4	-80.7	185	4
2023-09-08T00:00	32666	8	-42.3	-80.6	191	4
2023-09-08T00:00	32707	8	-42.0	-80.4	198	4
2023-09-08T00:00	32735	8	-41.8	-80.3	206	5
2023-09-08T00:00	32745	8	-41.9	-80.4	213	5
2023-09-08T00:00	32796	8	-42.0	-80.4	219	6
2023-09-08T00:00	32816	8	-42.2	-80.6	224	6
2023-09-08T00:00	32837	8	-42.3	-80.6	229	7
2023-09-08T00:00	32876	8	-42.2	-80.6	233	7
2023-09-08T00:00	32881	8	-42.1	-80.5	239	8
2023-09-08T00:00	32918	8	-42.0	-80.4	244	8
2023-09-08T00:00	32947	8	-41.9	-80.4	250	8
2023-09-08T00:00	32979	8	-41.9	-80.4	257	8
2023-09-08T00:00	33008	8	-41.9	-80.4	263	9
2023-09-08T00:00	33028	8	-41.8	-80.3	270	9
2023-09-08T00:00	33078	8	-41.6	-80.1	282	10
2023-09-08T00:00	33100	8	-41.6	-80.1	286	10
2023-09-08T00:00	33125	8	-41.6	-80.1	289	10
2023-09-08T06:00	114	1009	15.8	12.7	120	3
2023-09-08T06:00	138	1006	16.8	12.2	145	4
2023-09-08T06:00	162	1003	18.9	11.6	146	5
2023-09-08T06:00	187	1001	19.9	11.4	147	7
2023-09-08T06:00	209	998	20.9	11.1	148	8
2023-09-08T06:00	233	995	21.2	11.0	149	9
2023-09-08T06:00	254	993	21.5	10.8	150	10
2023-09-08T06:00	277	990	21.5	10.7	152	9
2023-09-08T06:00	296	988	21.6	10.6	153	9
2023-09-08T06:00	322	985	21.7	10.7	154	8
2023-09-08T06:00	349	982	21.5	10.6	154	8
2023-09-08T06:00	370	980	21.5	10.6	153	7
2023-09-08T06:00	388	977	21.4	10.5	152	7
2023-09-08T06:00	410	975	21.3	10.5	150	7
2023-09-08T06:00	432	973	21.2	10.4	150	7
2023-09-08T06:00	454	970	21.0	10.4	150	7
2023-09-08T06:00	480	967	20.8	10.2	150	7
2023-09-08T06:00	499	965	20.6	10.2	151	7
2023-09-08T06:00	520	963	20.4	10.2	152	7
2023-09-08T06:00	543	960	20.2	10.2	155	7
2023-09-08T06:00	563	958	20.0	10.2	158	7
2023-09-08T06:00	586	955	19.8	10.3	163	6
2023-09-08T06:00	610	953	19.6	10.3	167	6
2023-09-08T06:00	633	950	19.4	10.3	170	5
2023-09-08T06:00	657	948	19.3	10.4	173	4
2023-09-08T06:00	678	945	19.3	10.4	175	4
2023-09-08T06:00	700	943	19.4	10.4	175	4
2023-09-08T06:00	723	940	19.4	10.5	173	4
2023-09-08T06:00	747	938	19.3	10.5	169	4
2023-09-08T06:00	772	935	19.2	9.7	164	4
2023-09-08T06:00	802	932	19.1	9.1	160	4
2023-09-08T06:00	828	929	18.8	9.0	156	3
2023-09-08T06:00	850	927	18.6	9.0	153	3
2023-09-08T06:00	872	924	18.4	8.9	152	3
2023-09-08T06:00	894	922	18.2	9.0	152	3
2023-09-08T06:00	918	919	18.0	9.1	152	3
2023-09-08T06:00	944	916	17.8	9.2	151	3
2023-09-08T06:00	971	914	17.5	9.0	149	3
2023-09-08T06:00	996	911	17.3	9.1	148	4
2023-09-08T06:00	1021	908	17.0	9.0	146	4
2023-09-08T06:00	1048	905	16.8	9.1	144	4
2023-09-08T06:00	1070	903	16.6	9.1	142	4
2023-09-08T06:00	1097	900	16.5	8.5	141	4
2023-09-08T06:00	1118	898	16.5	8.0	140	4
2023-09-08T06:00	1140	896	16.5	8.1	139	5
2023-09-08T06:00	1168	893	16.5	6.8	137	5
2023-09-08T06:00	1195	890	18.0	-10.9	135	6
2023-09-08T06:00	1222	887	18.5	-14.9	133	6
2023-09-08T06:00	1247	885	18.6	-15.3	129	6
2023-09-08T06:00	1269	882	18.8	-18.3	126	6
2023-09-08T06:00	1292	880	18.9	-19.2	122	6
2023-09-08T06:00	1315	877	18.8	-17.2	118	6
2023-09-08T06:00	1338	875	18.6	-10.8	115	6
2023-09-08T06:00	1362	873	18.6	-10.0	113	6
2023-09-08T06:00	1386	870	18.5	-7.1	113	6
2023-09-08T06:00	1412	868	18.3	-6.8	115	6
2023-09-08T06:00	1435	865	18.2	-5.0	118	6
2023-09-08T06:00	1460	863	18.3	-9.4	121	6
2023-09-08T06:00	1483	860	18.3	-14.8	122	6
2023-09-08T06:00	1506	858	18.4	-14.6	122	6
2023-09-08T06:00	1529	856	18.4	-14.9	120	6
2023-09-08T06:00	1554	853	18.3	-14.3	119	6
2023-09-08T06:00	1581	851	18.1	-12.8	120	7
2023-09-08T06:00	1605	848	17.8	-10.3	121	7
2023-09-08T06:00	1625	846	17.6	-9.3	124	7
2023-09-08T06:00	1651	844	17.4	-8.9	127	7
2023-09-08T06:00	1672	842	17.4	-9.6	131	7
2023-09-08T06:00	1694	839	17.3	-11.0	134	7
2023-09-08T06:00	1716	837	17.2	-12.0	137	7
2023-09-08T06:00	1736	835	17.2	-12.4	139	7
2023-09-08T06:00	1757	833	17.1	-12.7	139	7
2023-09-08T06:00	1782	831	17.0	-12.2	138	6
2023-09-08T06:00	1811	828	16.9	-13.7	135	6
2023-09-08T06:00	1837	825	16.9	-13.7	131	6
2023-09-08T06:00	1863	823	16.8	-14.1	128	5
2023-09-08T06:00	1886	821	16.7	-14.5	126	5
2023-09-08T06:00	1910	818	16.6	-15.2	125	5
2023-09-08T06:00	1935	816	16.6	-14.7	124	6
2023-09-08T06:00	1960	813	16.5	-11.9	123	6
2023-09-08T06:00	1987	811	16.3	-11.7	122	6
2023-09-08T06:00	2015	808	16.2	-13.7	122	5
2023-09-08T06:00	2041	806	16.1	-14.8	123	5
2023-09-08T06:00	2061	804	16.0	-15.0	125	5
2023-09-08T06:00	2085	802	15.9	-13.9	128	4
2023-09-08T06:00	2110	799	15.7	-11.9	130	4
2023-09-08T06:00	2144	796	15.5	-11.7	130	5
2023-09-08T06:00	2180	793	15.2	-12.0	129	5
2023-09-08T06:00	2205	790	15.1	-12.1	128	5
2023-09-08T06:00	2231	788	15.0	-12.6	127	6
2023-09-08T06:00	2250	786	14.8	-12.3	126	6
2023-09-08T06:00	2275	784	14.7	-12.4	124	6
2023-09-08T06:00	2307	781	14.6	-12.7	123	5
2023-09-08T06:00	2333	778	14.5	-13.0	121	5
2023-09-08T06:00	2359	776	14.3	-13.1	120	5
2023-09-08T06:00	2385	774	14.2	-13.8	120	5
2023-09-08T06:00	2408	771	14.0	-13.6	121	5
2023-09-08T06:00	2433	769	13.9	-13.9	124	5
2023-09-08T06:00	2454	767	13.7	-14.3	128	4
2023-09-08T06:00	2476	765	13.7	-14.5	131	4
2023-09-08T06:00	2504	763	13.6	-15.1	134	4
2023-09-08T06:00	2525	761	13.6	-18.3	135	4
2023-09-08T06:00	2550	758	13.5	-18.0	135	4
2023-09-08T06:00	2581	756	13.3	-18.1	134	4
2023-09-08T06:00	2607	753	13.2	-19.0	132	4
2023-09-08T06:00	2634	751	13.1	-19.2	129	4
2023-09-08T06:00	2660	749	12.9	-20.2	127	4
2023-09-08T06:00	2688	746	12.7	-19.3	125	4
2023-09-08T06:00	2712	744	12.5	-19.3	124	3
2023-09-08T06:00	2736	742	12.3	-16.9	121	3
2023-09-08T06:00	2762	740	12.1	-16.0	116	3
2023-09-08T06:00	2785	738	12.0	-15.8	110	3
2023-09-08T06:00	2807	736	11.9	-18.3	105	4
2023-09-08T06:00	2831	734	11.9	-18.3	103	4
2023-09-08T06:00	2853	732	11.8	-17.3	104	4
2023-09-08T06:00	2877	730	11.6	-17.6	107	4
2023-09-08T06:00	2900	728	11.4	-17.2	112	4
2023-09-08T06:00	2919	726	11.4	-18.1	117	4
2023-09-08T06:00	2939	724	11.3	-16.5	120	3
2023-09-08T06:00	2967	722	11.3	-16.4	121	3
2023-09-08T06:00	2990	720	11.1	-16.4	117	2
2023-09-08T06:00	3010	718	11.1	-16.3	105	2
2023-09-08T06:00	3035	716	10.9	-16.6	88	2
2023-09-08T06:00	3062	714	10.7	-16.9	76	2
2023-09-08T06:00	3086	711	10.5	-16.4	75	2
2023-09-08T06:00	3106	710	10.4	-17.7	79	3
2023-09-08T06:00	3128	708	10.3	-18.4	86	3
2023-09-08T06:00	3159	705	10.1		92	3
2023-09-08T06:00	3187	703	9.9	-21.3	96	4
2023-09-08T06:00	3216	700	9.8	-22.2	97	4
2023-09-08T06:00	3243	698	9.6	-22.2	95	4
2023-09-08T06:00	3264	696	9.5	-21.8	90	4
2023-09-08T06:00	3290	694	9.3	-19.9	84	4
2023-09-08T06:00	3312	692	9.1	-19.7	77	4
2023-09-08T06:00	3329	691	9.0	-20.6	72	4
2023-09-08T06:00	3346	689	8.9	-20.7	70	4
2023-09-08T06:00	3366	688	8.8	-19.4	73	4
2023-09-08T06:00	3388	686	8.7	-18.8	78	3
2023-09-08T06:00	3411	684	8.7	-25.0	84	3
2023-09-08T06:00	3438	682	8.8	-29.6	89	3
2023-09-08T06:00	3461	680	8.7	-28.4	92	4
2023-09-08T06:00	3491	677	8.5	-28.3	94	4
2023-09-08T06:00	3514	675	8.4	-28.1	96	4
2023-09-08T06:00	3543	673	8.3	-27.3	97	5
2023-09-08T06:00	3567	671	8.1	-22.4	97	5
2023-09-08T06:00	3590	669	7.9	-23.1	97	5
2023-09-08T06:00	3609	668	7.8	-23.3	97	5
2023-09-08T06:00	3628	666	7.6	-22.1	95	4
2023-09-08T06:00	3647	665	7.5	-22.1	93	4
2023-09-08T06:00	3669	663	7.5	-23.6	91	4
2023-09-08T06:00	3689	661	7.5	-16.4	87	4
2023-09-08T06:00	3715	659	7.2	-10.6	84	4
2023-09-08T06:00	3740	657	6.9	-10.5	80	3
2023-09-08T06:00	3758	656	6.8	-10.7	77	3
2023-09-08T06:00	3781	654	6.6	-11.7	76	3
2023-09-08T06:00	3807	652	6.4	-10.4	77	3
2023-09-08T06:00	3825	650	6.3	-12.3	79	3
2023-09-08T06:00	3851	648	6.2	-11.0	82	3
2023-09-08T06:00	3879	646	5.9	-10.4	83	3
2023-09-08T06:00	3906	644	5.6	-10.5	82	3
2023-09-08T06:00	3926	642	5.4	-10.7	78	3
2023-09-08T06:00	3949	641	5.3	-11.1	71	3
2023-09-08T06:00	3976	639	5.0	-11.0	62	2
2023-09-08T06:00	4003	637	4.8	-10.9	54	2
2023-09-08T06:00	4022	635	4.7	-10.8	50	2
2023-09-08T06:00	4048	633	4.6	-11.7	51	2
2023-09-08T06:00	4072	631	4.5	-14.6	53	2
2023-09-08T06:00	4093	629	4.3	-15.2	56	3
2023-09-08T06:00	4116	628	4.1	-12.3	56	3
2023-09-08T06:00	4142	626	3.8	-12.5	56	3
2023-09-08T06:00	4166	624	3.6	-12.9	56	4
2023-09-08T06:00	4188	622	3.5	-13.1	55	4
2023-09-08T06:00	4216	620	3.2	-13.1	54	4
2023-09-08T06:00	4242	618	2.9	-13.3	53	4
2023-09-08T06:00	4263	616	2.8	-13.3	53	4
2023-09-08T06:00	4283	615	2.6	-13.3	53	4
2023-09-08T06:00	4303	613	2.4	-13.2	54	4
2023-09-08T06:00	4325	612	2.1	-13.4	58	4
2023-09-08T06:00	4353	610	1.9	-13.4	62	4
2023-09-08T06:00	4377	608	1.6	-13.5	67	4
2023-09-08T06:00	4403	606	1.4	-13.4	71	4
2023-09-08T06:00	4430	604	1.1	-13.5	73	4
2023-09-08T06:00	4452	602	0.9	-13.4	73	4
2023-09-08T06:00	4477	600	0.7	-13.2	71	4
2023-09-08T06:00	4499	598	0.5	-14.0	67	4
2023-09-08T06:00	4523	597	0.4	-15.6	64	4
2023-09-08T06:00	4543	595	0.3	-15.9	62	5
2023-09-08T06:00	4569	593	0.1	-16.2	61	5
2023-09-08T06:00	4589	592	-0.1	-16.5	60	5
2023-09-08T06:00	4610	590	-0.3	-16.7	61	5
2023-09-08T06:00	4630	589	-0.5		60	5
2023-09-08T06:00	4654	587	-0.7	-16.8	60	5
2023-09-08T06:00	4685	585	-1.0	-17.0	59	5
2023-09-08T06:00	4714	583	-1.3	-17.2	58	5
2023-09-08T06:00	4733	581	-1.5	-17.3	57	5
2023-09-08T06:00	4755	580	-1.7	-17.4	56	5
2023-09-08T06:00	4783	578	-1.9	-17.4	56	5
2023-09-08T06:00	4812	576	-2.2	-17.6	56	5
2023-09-08T06:00	4839	574	-2.5	-17.7	56	5
2023-09-08T06:00	4857	572	-2.6	-17.7	53	5
2023-09-08T06:00	4877	571	-2.8	-17.8	50	5
2023-09-08T06:00	4894	570	-2.9	-18.0	46	6
2023-09-08T06:00	4911	568	-3.0	-18.3	43	6
2023-09-08T06:00	4932	567	-3.2	-18.6	41	6
2023-09-08T06:00	4951	565	-3.3	-19.0	39	7
2023-09-08T06:00	4971	564	-3.4	-19.5	38	7
2023-09-08T06:00	4994	562	-3.5	-19.8	37	8
2023-09-08T06:00	5025	560	-3.8	-20.3	36	8
2023-09-08T06:00	5051	558	-3.9	-20.3	36	9
2023-09-08T06:00	5073	557	-4.1	-20.6	35	9
2023-09-08T06:00	5097	555	-4.3	-21.3	35	9
2023-09-08T06:00	5126	553	-4.4	-21.4	35	9
2023-09-08T06:00	5150	551	-4.6	-21.7	34	9
2023-09-08T06:00	5174	550	-4.7	-22.8	34	9
2023-09-08T06:00	5201	548	-4.9	-22.8	34	10
2023-09-08T06:00	5225	546	-5.1	-22.5	34	10
2023-09-08T06:00	5243	545	-5.2	-22.3	35	9
2023-09-08T06:00	5270	543	-5.3	-22.2	36	9
2023-09-08T06:00	5296	541	-5.4	-23.2	36	8
2023-09-08T06:00	5323	539	-5.5	-25.0	35	8
2023-09-08T06:00	5351	538	-5.5	-28.2	34	7
2023-09-08T06:00	5372	536	-5.5	-30.2	34	7
2023-09-08T06:00	5391	535	-5.5	-32.1	34	7
2023-09-08T06:00	5412	533	-5.4	-32.8	36	8
2023-09-08T06:00	5434	532	-5.4	-34.2	38	8
2023-09-08T06:00	5455	530	-5.4	-33.7	39	8
2023-09-08T06:00	5476	529	-5.5	-31.2	40	7
2023-09-08T06:00	5507	527	-5.7	-30.0	40	7
2023-09-08T06:00	5532	525	-5.7	-31.8	40	7
2023-09-08T06:00	5558	524	-5.8	-32.6	40	7
2023-09-08T06:00	5581	522	-5.8	-33.6	40	7
2023-09-08T06:00	5603	521	-5.9	-34.9	38	7
2023-09-08T06:00	5622	519	-6.0	-32.2	34	7
2023-09-08T06:00	5648	517	-6.2	-31.6	31	7
2023-09-08T06:00	5677	516	-6.4	-30.3	28	6
2023-09-08T06:00	5700	514	-6.6	-30.1	26	6
2023-09-08T06:00	5721	513	-6.7	-30.4	27	6
2023-09-08T06:00	5742	511	-6.8	-30.5	30	5
2023-09-08T06:00	5763	510	-6.9	-29.2	32	5
2023-09-08T06:00	5787	508	-7.1	-28.7	33	5
2023-09-08T06:00	5807	507	-7.3	-30.2	33	5
2023-09-08T06:00	5829	506	-7.4	-31.4	32	5
2023-09-08T06:00	5860	504	-7.7	-32.6	32	5
2023-09-08T06:00	5880	502	-7.8	-32.2	32	5
2023-09-08T06:00	5902	501	-8.0	-28.8	32	5
2023-09-08T06:00	5933	499	-8.2	-30.2	33	5
2023-09-08T06:00	5958	497	-8.3	-29.4	33	5
2023-09-08T06:00	5990	495	-8.5	-29.9	33	4
2023-09-08T06:00	6010	494	-8.6	-32.2	32	4
2023-09-08T06:00	6029	493	-8.7	-33.8	30	4
2023-09-08T06:00	6052	491	-8.9	-37.6	29	4
2023-09-08T06:00	6070	490	-9.0	-35.0	28	3
2023-09-08T06:00	6096	489	-9.1	-28.5	29	3
2023-09-08T06:00	6124	487	-9.3	-28.4	31	3
2023-09-08T06:00	6151	485	-9.4	-28.6	34	3
2023-09-08T06:00	6178	484	-9.7	-28.8	38	3
2023-09-08T06:00	6196	482	-9.8	-29.0	43	3
2023-09-08T06:00	6222	481	-10.0	-29.8	47	3
2023-09-08T06:00	6246	479	-10.2	-29.7	50	3
2023-09-08T06:00	6269	478	-10.4	-29.5	52	3
2023-09-08T06:00	6293	476	-10.5	-29.7	51	3
2023-09-08T06:00	6315	475	-10.6	-30.2	50	4
2023-09-08T06:00	6341	473	-10.8	-31.2	48	4
2023-09-08T06:00	6371	471	-11.0	-32.5	47	4
2023-09-08T06:00	6396	470	-11.2	-32.9	49	4
2023-09-08T06:00	6419	468	-11.4	-32.8	52	4
2023-09-08T06:00	6447	467	-11.7	-33.6	57	4
2023-09-08T06:00	6469	465	-11.9	-34.6	60	4
2023-09-08T06:00	6490	464	-12.1	-34.5	60	4
2023-09-08T06:00	6509	463	-12.2	-34.4	58	4
2023-09-08T06:00	6531	462	-12.4	-34.0	56	4
2023-09-08T06:00	6550	461	-12.5	-35.4	55	4
2023-09-08T06:00	6569	459	-12.6	-35.3	56	4
2023-09-08T06:00	6592	458	-12.8	-35.2	59	5
2023-09-08T06:00	6617	457	-13.0	-34.7	63	5
2023-09-08T06:00	6638	455	-13.1	-34.7	66	5
2023-09-08T06:00	6660	454	-13.2	-34.7	68	5
2023-09-08T06:00	6685	452	-13.3	-34.2	69	5
2023-09-08T06:00	6710	451	-13.5	-34.1	69	5
2023-09-08T06:00	6738	449	-13.7	-33.2	67	5
2023-09-08T06:00	6768	447	-13.9	-33.2	64	5
2023-09-08T06:00	6795	446	-14.1	-33.1	61	5
2023-09-08T06:00	6814	445	-14.3	-33.2	59	5
2023-09-08T06:00	6834	444	-14.4	-33.2	60	5
2023-09-08T06:00	6854	443	-14.6	-33.3	62	5
2023-09-08T06:00	6873	441	-14.7	-33.5	64	5
2023-09-08T06:00	6894	440	-14.8	-33.9	67	5
2023-09-08T06:00	6913	439	-15.0	-34.7	69	5
2023-09-08T06:00	6935	438	-15.1	-35.7	70	5
2023-09-08T06:00	6957	436	-15.2	-36.1	70	5
2023-09-08T06:00	6978	435	-15.3	-36.5	67	5
2023-09-08T06:00	7008	434	-15.5	-37.2	64	5
2023-09-08T06:00	7043	432	-15.7	-38.9	61	5
2023-09-08T06:00	7065	430	-15.7	-39.6	59	5
2023-09-08T06:00	7085	429	-15.7	-40.0	57	5
2023-09-08T06:00	7110	428	-15.9	-39.4	57	5
2023-09-08T06:00	7131	426	-16.0	-40.5	58	5
2023-09-08T06:00	7159	425	-16.3	-40.7	59	6
2023-09-08T06:00	7180	424	-16.4	-40.9	60	6
2023-09-08T06:00	7214	422	-16.7	-40.2	60	6
2023-09-08T06:00	7234	421	-16.8	-39.7	61	6
2023-09-08T06:00	7254	420	-17.0	-39.9	62	5
2023-09-08T06:00	7274	418	-17.2	-39.5	63	5
2023-09-08T06:00	7293	417	-17.2	-37.6	64	5
2023-09-08T06:00	7317	416	-17.4	-36.0	66	5
2023-09-08T06:00	7338	415	-17.5	-35.9	68	5
2023-09-08T06:00	7359	414	-17.6	-35.5	69	5
2023-09-08T06:00	7380	413	-17.8	-35.6	70	4
2023-09-08T06:00	7402	411	-18.0	-35.5	71	4
2023-09-08T06:00	7423	410	-18.2	-35.5	71	4
2023-09-08T06:00	7444	409	-18.4	-35.4	71	4
2023-09-08T06:00	7463	408	-18.6	-35.3	70	5
2023-09-08T06:00	7483	407	-18.8	-35.7	69	5
2023-09-08T06:00	7501	406	-18.9	-35.6	68	5
2023-09-08T06:00	7519	405	-19.1	-35.7	67	5
2023-09-08T06:00	7537	404	-19.3	-35.7	65	5
2023-09-08T06:00	7559	403	-19.5	-35.9	64	5
2023-09-08T06:00	7577	402	-19.6	-36.1	62	5
2023-09-08T06:00	7598	401	-19.8	-36.1	61	5
2023-09-08T06:00	7619	400	-20.0	-35.9	61	4
2023-09-08T06:00	7637	399	-20.2	-36.0	60	4
2023-09-08T06:00	7657	398	-20.4	-36.1	60	4
2023-09-08T06:00	7678	396	-20.5	-36.1	59	4
2023-09-08T06:00	7698	395	-20.7	-36.3	56	4
2023-09-08T06:00	7719	394	-20.9	-36.5	51	3
2023-09-08T06:00	7739	393	-21.0	-36.6	45	3
2023-09-08T06:00	7759	392	-21.2	-36.7	39	3
2023-09-08T06:00	7779	391	-21.3	-36.8	34	3
2023-09-08T06:00	7801	390	-21.4	-37.0	31	3
2023-09-08T06:00	7821	389	-21.5	-37.4	28	3
2023-09-08T06:00	7843	388	-21.7	-38.1	26	3
2023-09-08T06:00	7863	387	-21.8	-37.6	25	3
2023-09-08T06:00	7883	386	-22.0	-37.5	24	3
2023-09-08T06:00	7901	385	-22.2	-37.6	24	3
2023-09-08T06:00	7920	384	-22.4	-37.7	26	3
2023-09-08T06:00	7939	383	-22.5	-37.6	28	3
2023-09-08T06:00	7960	381	-22.7	-37.5	29	3
2023-09-08T06:00	7980	380	-22.9	-37.5	30	3
2023-09-08T06:00	8000	379	-23.1	-37.5	30	3
2023-09-08T06:00	8020	378	-23.3	-37.5	30	3
2023-09-08T06:00	8038	377	-23.5	-37.6	29	4
2023-09-08T06:00	8057	376	-23.7	-37.5	27	4
2023-09-08T06:00	8080	375	-23.9	-37.5	24	4
2023-09-08T06:00	8099	374	-24.1	-37.5	20	4
2023-09-08T06:00	8120	373	-24.2	-37.4	16	4
2023-09-08T06:00	8140	372	-24.4	-37.4	12	4
2023-09-08T06:00	8159	371	-24.6	-37.4	9	4
2023-09-08T06:00	8179	370	-24.8	-37.5	6	4
2023-09-08T06:00	8198	369	-25.0	-37.6	5	4
2023-09-08T06:00	8219	368	-25.1	-37.5	4	4
2023-09-08T06:00	8236	367	-25.3	-37.6	3	4
2023-09-08T06:00	8257	366	-25.5	-37.7	2	4
2023-09-08T06:00	8276	365	-25.7	-37.9	1	3
2023-09-08T06:00	8298	364	-25.9	-38.0	359	3
2023-09-08T06:00	8316	363	-26.1	-38.1	358	3
2023-09-08T06:00	8337	362	-26.2	-38.1	356	3
2023-09-08T06:00	8356	361	-26.4	-38.2	355	3
2023-09-08T06:00	8375	360	-26.6	-38.3	355	3
2023-09-08T06:00	8395	359	-26.8	-38.3	356	3
2023-09-08T06:00	8416	358	-27.0	-38.3	357	4
2023-09-08T06:00	8437	357	-27.2		358	4
2023-09-08T06:00	8460	356	-27.4	-38.7	359	4
2023-09-08T06:00	8482	355	-27.6	-38.8	0	4
2023-09-08T06:00	8501	354	-27.8	-38.9	1	5
2023-09-08T06:00	8521	353	-28.0	-39.2	1	5
2023-09-08T06:00	8542	352	-28.2	-39.3	2	5
2023-09-08T06:00	8563	351	-28.4	-39.6	3	5
2023-09-08T06:00	8583	350	-28.5	-40.5	4	5
2023-09-08T06:00	8602	349	-28.4	-43.0	5	5
2023-09-08T06:00	8620	348	-28.4	-45.1	6	5
2023-09-08T06:00	8640	347	-28.5	-45.7	6	5
2023-09-08T06:00	8659	346	-28.6	-46.2	6	5
2023-09-08T06:00	8678	345	-28.7	-46.5	5	5
2023-09-08T06:00	8697	345	-28.8	-46.7	5	6
2023-09-08T06:00	8716	344	-28.9	-46.9	4	6
2023-09-08T06:00	8737	343	-29.0	-47.0	3	6
2023-09-08T06:00	8755	342	-29.1	-47.4	1	6
2023-09-08T06:00	8774	341	-29.3	-47.7	360	6
2023-09-08T06:00	8794	340	-29.4	-47.8	358	6
2023-09-08T06:00	8814	339	-29.4	-48.2	357	7
2023-09-08T06:00	8832	338	-29.6	-48.2	357	7
2023-09-08T06:00	8854	337	-29.7	-48.7	356	7
2023-09-08T06:00	8874	336	-29.9	-49.1	355	7
2023-09-08T06:00	8893	335	-30.0	-48.5	354	7
2023-09-08T06:00	8912	334	-30.2	-48.4	352	7
2023-09-08T06:00	8933	333	-30.3	-49.3	350	8
2023-09-08T06:00	8954	332	-30.4	-49.9	349	8
2023-09-08T06:00	8973	331	-30.5	-50.4	348	8
2023-09-08T06:00	8994	330	-30.6	-50.1	347	8
2023-09-08T06:00	9014	330	-30.7	-49.7	346	8
2023-09-08T06:00	9035	329	-30.9	-49.9	346	8
2023-09-08T06:00	9054	328	-31.0	-50.4	346	8
2023-09-08T06:00	9074	327	-31.2	-51.4	346	8
2023-09-08T06:00	9094	326	-31.3	-51.5	346	8
2023-09-08T06:00	9114	325	-31.5	-51.3	347	8
2023-09-08T06:00	9137	324	-31.7	-51.3	348	8
2023-09-08T06:00	9157	323	-31.9	-50.8	349	8
2023-09-08T06:00	9176	322	-32.1	-50.3	350	8
2023-09-08T06:00	9196	321	-32.2	-49.9	351	8
2023-09-08T06:00	9216	320	-32.4	-49.2	353	7
2023-09-08T06:00	9235	319	-32.6	-48.6	355	7
2023-09-08T06:00	9256	318	-32.8	-48.5	356	7
2023-09-08T06:00	9275	318	-33.0	-48.6	357	8
2023-09-08T06:00	9296	317	-33.1	-48.7	358	8
2023-09-08T06:00	9315	316	-33.2	-48.8	358	8
2023-09-08T06:00	9336	315	-33.4	-48.8	358	8
2023-09-08T06:00	9356	314	-33.5	-48.7	357	8
2023-09-08T06:00	9378	313	-33.6	-49.0	356	8
2023-09-08T06:00	9399	312	-33.8	-49.4	355	8
2023-09-08T06:00	9421	311	-33.9	-49.5	354	8
2023-09-08T06:00	9440	310	-34.1	-49.7	353	8
2023-09-08T06:00	9460	309	-34.3	-49.8	352	8
2023-09-08T06:00	9482	308	-34.5	-49.8	352	8
2023-09-08T06:00	9501	308	-34.7	-49.8	352	8
2023-09-08T06:00	9521	307	-34.9	-49.7	350	8
2023-09-08T06:00	9542	306	-35.1	-49.8	348	8
2023-09-08T06:00	9566	305	-35.2	-50.2	346	8
2023-09-08T06:00	9586	304	-35.4	-50.4	344	8
2023-09-08T06:00	9606	303	-35.6	-50.5	343	8
2023-09-08T06:00	9626	302	-35.8	-50.8	343	8
2023-09-08T06:00	9648	301	-36.0	-50.9	344	8
2023-09-08T06:00	9668	300	-36.1	-50.9	344	8
2023-09-08T06:00	9687	299	-36.3	-51.2	345	8
2023-09-08T06:00	9707	299	-36.5	-51.4	345	8
2023-09-08T06:00	9727	298	-36.7	-51.2	345	8
2023-09-08T06:00	9749	297	-36.9	-51.3	345	8
2023-09-08T06:00	9768	296	-37.1	-51.2	345	8
2023-09-08T06:00	9788	295	-37.2	-51.2	344	8
2023-09-08T06:00	9808	294	-37.4	-51.2	344	8
2023-09-08T06:00	9828	293	-37.6	-51.4	343	8
2023-09-08T06:00	9848	293	-37.8	-52.0	342	8
2023-09-08T06:00	9867	292	-38.0	-52.2	340	7
2023-09-08T06:00	9886	291	-38.2	-52.2	339	7
2023-09-08T06:00	9908	290	-38.3	-52.4	337	7
2023-09-08T06:00	9927	289	-38.5	-52.7	335	7
2023-09-08T06:00	9946	288	-38.7	-52.8	334	7
2023-09-08T06:00	9967	288	-38.9	-52.6	332	7
2023-09-08T06:00	9986	287	-39.0	-52.8	331	7
2023-09-08T06:00	10005	286	-39.2	-52.9	330	7
2023-09-08T06:00	10026	285	-39.4	-52.5	329	7
2023-09-08T06:00	10045	284	-39.6	-52.4	329	7
2023-09-08T06:00	10064	283	-39.8	-52.4	328	7
2023-09-08T06:00	10086	283	-40.0	-52.5	329	7
2023-09-08T06:00	10108	282	-40.2	-52.6	329	7
2023-09-08T06:00	10129	281	-40.4	-52.8	330	7
2023-09-08T06:00	10147	280	-40.5	-52.7	332	7
2023-09-08T06:00	10168	279	-40.7	-52.6	334	7
2023-09-08T06:00	10189	278	-40.8	-52.7	336	7
2023-09-08T06:00	10209	277	-41.0	-52.6	337	7
2023-09-08T06:00	10229	277	-41.2	-52.2	338	7
2023-09-08T06:00	10249	276	-41.4	-52.0	337	7
2023-09-08T06:00	10270	275	-41.6	-52.1	335	7
2023-09-08T06:00	10291	274	-41.7	-52.2	333	7
2023-09-08T06:00	10311	273	-41.9	-52.3	331	7
2023-09-08T06:00	10331	273	-42.0	-52.3	331	7
2023-09-08T06:00	10352	272	-42.2	-52.3	331	7
2023-09-08T06:00	10373	271	-42.4	-52.4	332	8
2023-09-08T06:00	10394	270	-42.6	-52.4	333	9
2023-09-08T06:00	10414	269	-42.8	-52.5	333	9
2023-09-08T06:00	10435	268	-43.0	-52.7	334	10
2023-09-08T06:00	10454	268	-43.1	-52.7	334	11
2023-09-08T06:00	10474	267	-43.3	-52.8	334	12
2023-09-08T06:00	10494	266	-43.5	-53.0	335	12
2023-09-08T06:00	10514	265	-43.6	-53.0	335	12
2023-09-08T06:00	10534	264	-43.8	-52.9	335	12
2023-09-08T06:00	10553	264	-44.0	-52.7	336	12
2023-09-08T06:00	10577	263	-44.2	-52.2	337	12
2023-09-08T06:00	10597	262	-44.4	-51.9	338	12
2023-09-08T06:00	10619	261	-44.5	-51.8	338	12
2023-09-08T06:00	10638	260	-44.7	-51.9	339	12
2023-09-08T06:00	10660	260	-44.8	-52.0	339	12
2023-09-08T06:00	10680	259	-45.0	-52.0	339	12
2023-09-08T06:00	10700	258	-45.2	-51.8	339	12
2023-09-08T06:00	10719	257	-45.3	-51.8	339	12
2023-09-08T06:00	10738	256	-45.5	-52.2	339	12
2023-09-08T06:00	10762	256	-45.7	-52.5	339	12
2023-09-08T06:00	10780	255	-45.8	-52.4	339	12
2023-09-08T06:00	10800	254	-46.0	-52.2	338	12
2023-09-08T06:00	10824	253	-46.2	-51.9	338	12
2023-09-08T06:00	10843	252	-46.4		337	12
2023-09-08T06:00	10864	252	-46.6	-51.8	337	12
2023-09-08T06:00	10884	251	-46.7	-51.9	336	12
2023-09-08T06:00	10906	250	-47.0	-52.1	336	12
2023-09-08T06:00	10927	249	-47.2	-51.9	336	12
2023-09-08T06:00	10946	249	-47.3	-51.6	336	12
2023-09-08T06:00	10966	248	-47.6	-51.7	337	12
2023-09-08T06:00	10987	247	-47.7	-51.7	338	12
2023-09-08T06:00	11007	246	-47.9	-52.1	338	12
2023-09-08T06:00	11028	245	-48.1	-52.5	338	12
2023-09-08T06:00	11050	245	-48.2	-52.8	338	12
2023-09-08T06:00	11068	244	-48.4	-53.3	337	12
2023-09-08T06:00	11090	243	-48.5	-53.5	337	12
2023-09-08T06:00	11111	242	-48.7	-53.5	337	12
2023-09-08T06:00	11130	242	-48.9	-53.5	337	12
2023-09-08T06:00	11152	241	-49.1		337	12
2023-09-08T06:00	11174	240	-49.3	-53.6	338	12
2023-09-08T06:00	11195	239	-49.5	-53.8	338	12
2023-09-08T06:00	11215	239	-49.6	-54.0	339	12
2023-09-08T06:00	11234	238	-49.8	-54.5	339	12
2023-09-08T06:00	11254	237	-49.9	-55.1	338	11
2023-09-08T06:00	11277	236	-50.1	-55.5	338	11
2023-09-08T06:00	11296	236	-50.3	-55.6	338	11
2023-09-08T06:00	11316	235	-50.5	-55.8	338	11
2023-09-08T06:00	11337	234	-50.6	-55.8	338	11
2023-09-08T06:00	11357	233	-50.8	-55.9	338	11
2023-09-08T06:00	11379	233	-51.0	-56.1	338	11
2023-09-08T06:00	11398	232	-51.2		337	11
2023-09-08T06:00	11420	231	-51.4	-56.5	337	11
2023-09-08T06:00	11442	231	-51.5	-56.3	337	11
2023-09-08T06:00	11462	230	-51.6	-56.1	338	11
2023-09-08T06:00	11483	229	-51.6	-56.1	339	11
2023-09-08T06:00	11503	228	-51.8	-57.0	339	11
2023-09-08T06:00	11522	228	-51.9	-58.1	340	11
2023-09-08T06:00	11543	227	-52.0	-58.8	340	11
2023-09-08T06:00	11566	226	-52.1	-58.9	340	11
2023-09-08T06:00	11586	225	-52.3	-58.5	339	11
2023-09-08T06:00	11605	225	-52.4	-58.2	338	11
2023-09-08T06:00	11628	224	-52.4	-57.9	338	12
2023-09-08T06:00	11648	223	-52.6	-57.6	337	12
2023-09-08T06:00	11666	223	-52.7	-57.4	337	12
2023-09-08T06:00	11689	222	-52.9	-57.5	337	12
2023-09-08T06:00	11710	221	-52.9	-57.0	337	12
2023-09-08T06:00	11730	220	-53.1	-56.8	337	12
2023-09-08T06:00	11750	220	-53.2	-56.9	337	12
2023-09-08T06:00	11770	219	-53.3	-57.1	337	12
2023-09-08T06:00	11790	218	-53.5	-57.3	337	12
2023-09-08T06:00	11811	218	-53.6	-57.6	337	12
2023-09-08T06:00	11834	217	-53.8	-58.3	337	12
2023-09-08T06:00	11854	216	-53.7	-59.0	337	12
2023-09-08T06:00	11877	216	-53.8	-59.8	336	12
2023-09-08T06:00	11895	215	-54.0	-60.3	336	12
2023-09-08T06:00	11916	214	-54.1	-60.5	336	12
2023-09-08T06:00	11935	213	-54.3	-60.6	336	12
2023-09-08T06:00	11957	213	-54.4	-60.4	335	12
2023-09-08T06:00	11977	212	-54.5	-60.3	335	13
2023-09-08T06:00	11998	211	-54.6	-60.2	335	13
2023-09-08T06:00	12019	211	-54.8	-60.0	335	13
2023-09-08T06:00	12042	210	-54.9	-59.8	336	13
2023-09-08T06:00	12060	209	-55.0	-60.0	336	13
2023-09-08T06:00	12082	209	-55.1	-60.4	337	13
2023-09-08T06:00	12101	208	-55.2	-60.9	337	13
2023-09-08T06:00	12120	207	-55.2	-61.2	338	13
2023-09-08T06:00	12142	207	-55.2	-61.6	338	13
2023-09-08T06:00	12163	206	-55.4	-61.9	339	14
2023-09-08T06:00	12184	205	-55.5	-62.0	339	14
2023-09-08T06:00	12204	205	-55.6	-62.1	339	14
2023-09-08T06:00	12224	204	-55.8	-62.2	339	14
2023-09-08T06:00	12244	203	-55.9	-62.3	339	14
2023-09-08T06:00	12267	203	-56.0	-62.6	338	14
2023-09-08T06:00	12286	202	-56.0	-62.8	337	14
2023-09-08T06:00	12307	201	-56.2	-63.1	335	14
2023-09-08T06:00	12329	201	-56.4	-63.3	334	14
2023-09-08T06:00	12348	200	-56.5	-63.3	334	14
2023-09-08T06:00	12372	199	-56.7	-63.5	334	15
2023-09-08T06:00	12392	199	-56.8	-63.8	334	15
2023-09-08T06:00	12415	198	-56.7	-63.9	335	15
2023-09-08T06:00	12436	197	-56.8	-64.1	336	15
2023-09-08T06:00	12456	197	-56.9	-64.2	337	14
2023-09-08T06:00	12475	196	-57.0	-64.3	338	14
2023-09-08T06:00	12496	196	-57.1	-64.3	338	14
2023-09-08T06:00	12516	195	-57.2	-64.3	337	14
2023-09-08T06:00	12536	194	-57.3	-64.4	337	14
2023-09-08T06:00	12556	194	-57.5	-64.5	336	14
2023-09-08T06:00	12577	193	-57.6	-64.6	335	14
2023-09-08T06:00	12599	192	-57.7	-64.7	334	14
2023-09-08T06:00	12615	192	-57.8	-64.9	333	15
2023-09-08T06:00	12638	191	-58.0	-65.1	332	15
2023-09-08T06:00	12660	190	-58.1	-65.5	332	15
2023-09-08T06:00	12679	190	-58.2	-65.9	331	16
2023-09-08T06:00	12700	189	-58.3	-66.2	331	16
2023-09-08T06:00	12720	189	-58.4	-66.4	331	16
2023-09-08T06:00	12743	188	-58.5	-66.4	332	16
2023-09-08T06:00	12762	187	-58.8	-66.6	332	16
2023-09-08T06:00	12783	187	-58.7	-66.5	333	16
2023-09-08T06:00	12805	186	-58.7	-66.4	334	15
2023-09-08T06:00	12824	186	-58.8	-66.4	334	15
2023-09-08T06:00	12846	185	-58.9	-66.5	335	15
2023-09-08T06:00	12868	184	-59.0	-66.5	335	15
2023-09-08T06:00	12890	184	-59.2	-66.3	335	15
2023-09-08T06:00	12910	183	-59.3	-65.9	335	15
2023-09-08T06:00	12932	182	-59.3	-65.3	334	15
2023-09-08T06:00	12952	182	-59.5	-65.2	334	15
2023-09-08T06:00	12972	181	-59.6	-65.2	334	15
2023-09-08T06:00	12993	181	-59.7	-65.2	334	15
2023-09-08T06:00	13013	180	-59.8	-65.4	334	14
2023-09-08T06:00	13033	179	-59.9	-65.5	334	14
2023-09-08T06:00	13053	179	-59.9	-65.7	333	14
2023-09-08T06:00	13076	178	-60.1	-66.1	332	14
2023-09-08T06:00	13096	178	-59.9	-66.2	331	14
2023-09-08T06:00	13115	177	-59.9	-66.5	330	14
2023-09-08T06:00	13136	177	-60.0	-66.9	330	14
2023-09-08T06:00	13156	176	-60.1	-67.2	330	14
2023-09-08T06:00	13179	175	-60.1	-67.2	330	14
2023-09-08T06:00	13200	175	-60.2	-67.2	331	14
2023-09-08T06:00	13219	174	-60.4	-67.2	331	14
2023-09-08T06:00	13240	174	-60.6	-67.2	332	14
2023-09-08T06:00	13262	173	-60.7	-67.2	332	14
2023-09-08T06:00	13283	172	-60.8	-67.3	332	14
2023-09-08T06:00	13304	172	-61.0	-67.6	333	14
2023-09-08T06:00	13321	171	-61.1	-67.9	334	14
2023-09-08T06:00	13344	171	-61.2	-68.1	334	14
2023-09-08T06:00	13365	170	-61.3	-68.3	335	14
2023-09-08T06:00	13387	170	-61.4		335	15
2023-09-08T06:00	13404	169	-61.4		336	15
2023-09-08T06:00	13425	169	-61.5	-68.4	336	15
2023-09-08T06:00	13444	168	-61.6	-68.3	336	15
2023-09-08T06:00	13468	167	-61.8	-68.4	336	15
2023-09-08T06:00	13487	167	-61.9	-68.3	336	15
2023-09-08T06:00	13510	166	-62.1	-68.4	336	16
2023-09-08T06:00	13533	166	-62.2	-68.4	336	16
2023-09-08T06:00	13551	165	-62.4	-68.6	336	16
2023-09-08T06:00	13576	164	-62.6	-68.9	337	16
2023-09-08T06:00	13597	164	-62.6	-68.9	338	15
2023-09-08T06:00	13618	163	-62.7	-69.0	338	15
2023-09-08T06:00	13642	163	-62.9	-69.1	338	15
2023-09-08T06:00	13666	162	-63.1	-69.3	338	14
2023-09-08T06:00	13689	161	-63.3	-69.5	338	14
2023-09-08T06:00	13709	161	-63.5	-69.7	337	14
2023-09-08T06:00	13730	160	-63.6	-69.8	336	14
2023-09-08T06:00	13753	160	-63.7	-70.0	336	13
2023-09-08T06:00	13774	159	-63.8	-70.2	335	13
2023-09-08T06:00	13796	159	-63.9		335	13
2023-09-08T06:00	13817	158	-64.0	-70.4	334	13
2023-09-08T06:00	13837	158	-64.1	-70.5	334	13
2023-09-08T06:00	13858	157	-64.2	-70.7	334	13
2023-09-08T06:00	13880	157	-64.3	-71.0	334	13
2023-09-08T06:00	13896	156	-64.3	-71.4	333	13
2023-09-08T06:00	13920	156	-64.2	-71.7	332	13
2023-09-08T06:00	13941	155	-64.2	-72.0	331	13
2023-09-08T06:00	13965	154	-64.3	-72.3	330	13
2023-09-08T06:00	13985	154	-64.5	-72.6	328	13
2023-09-08T06:00	14006	153	-64.6	-72.7	325	13
2023-09-08T06:00	14029	153	-64.8	-73.0	323	13
2023-09-08T06:00	14051	152	-64.8	-73.2	322	13
2023-09-08T06:00	14071	152	-64.8	-73.5	321	13
2023-09-08T06:00	14092	151	-64.8	-73.8	321	14
2023-09-08T06:00	14115	151	-64.7	-74.0	323	14
2023-09-08T06:00	14133	150	-64.7	-74.3	325	15
2023-09-08T06:00	14154	150	-64.7	-74.5	328	15
2023-09-08T06:00	14176	149	-64.7	-74.6	331	15
2023-09-08T06:00	14198	149	-64.7	-74.8	334	15
2023-09-08T06:00	14219	148	-64.5	-74.9	337	15
2023-09-08T06:00	14241	148	-64.4	-75.0	339	15
2023-09-08T06:00	14262	147	-64.4	-75.2	340	15
2023-09-08T06:00	14285	147	-64.4	-75.4	341	15
2023-09-08T06:00	14302	146	-64.4	-75.6	342	14
2023-09-08T06:00	14323	146	-64.5	-75.9	342	14
2023-09-08T06:00	14347	145	-64.6	-76.2	343	14
2023-09-08T06:00	14369	145	-64.4	-76.3	343	14
2023-09-08T06:00	14388	144	-64.4	-76.6	343	14
2023-09-08T06:00	14410	144	-64.4	-77.0	343	14
2023-09-08T06:00	14431	143	-64.4	-77.4	342	14
2023-09-08T06:00	14450	143	-64.5	-77.8	340	14
2023-09-08T06:00	14476	142	-64.3	-78.1	338	14
2023-09-08T06:00	14496	142	-64.3	-78.6	337	13
2023-09-08T06:00	14517	141	-64.2	-79.0	336	13
2023-09-08T06:00	14540	141	-63.9	-79.3	336	13
2023-09-08T06:00	14557	140	-63.9	-79.7	337	12
2023-09-08T06:00	14581	140	-63.9	-80.0	338	12
2023-09-08T06:00	14602	139	-63.8	-79.8	340	12
2023-09-08T06:00	14626	139	-63.8	-79.7	341	11
2023-09-08T06:00	14645	138	-63.9	-79.6	342	12
2023-09-08T06:00	14667	138	-63.8	-79.4	343	12
2023-09-08T06:00	14688	137	-63.8	-79.2	345	12
2023-09-08T06:00	14712	137	-63.9	-79.3	348	12
2023-09-08T06:00	14732	136	-64.1	-79.4	351	12
2023-09-08T06:00	14752	136	-64.1	-79.6	355	12
2023-09-08T06:00	14776	135	-63.6	-79.3	359	12
2023-09-08T06:00	14796	135	-63.3	-79.3	4	11
2023-09-08T06:00	14817	134	-63.3	-79.5	9	11
2023-09-08T06:00	14840	134	-63.4	-79.8	14	10
2023-09-08T06:00	14867	133	-63.3	-80.0	18	10
2023-09-08T06:00	14888	133	-62.9	-79.9	21	9
2023-09-08T06:00	14908	132	-62.7	-79.9	23	9
2023-09-08T06:00	14929	132	-62.7	-80.1	23	8
2023-09-08T06:00	14950	131	-62.8	-80.4	22	7
2023-09-08T06:00	14974	131	-62.8	-80.5	21	7
2023-09-08T06:00	14994	130	-62.8	-80.7	19	6
2023-09-08T06:00	15017	130	-62.7	-80.8	18	6
2023-09-08T06:00	15040	130	-62.6	-80.9	18	6
2023-09-08T06:00	15064	129	-62.7	-81.2	17	6
2023-09-08T06:00	15085	129	-62.7	-81.3	16	6
2023-09-08T06:00	15107	128	-62.8	-81.4	15	5
2023-09-08T06:00	15129	128	-62.9	-81.5	13	5
2023-09-08T06:00	15154	127	-63.1	-81.7	12	5
2023-09-08T06:00	15173	127	-63.2	-81.7	12	5
2023-09-08T06:00	15195	126	-63.3	-81.8	13	4
2023-09-08T06:00	15217	126	-63.5	-81.9	14	4
2023-09-08T06:00	15239	125	-63.6	-82.0	15	4
2023-09-08T06:00	15261	125	-63.7	-82.1	16	3
2023-09-08T06:00	15283	124	-63.9	-82.2	14	3
2023-09-08T06:00	15307	124	-64.0	-82.3	9	2
2023-09-08T06:00	15327	124	-64.1	-82.4	360	2
2023-09-08T06:00	15351	123	-64.2	-82.5	346	2
2023-09-08T06:00	15375	123	-64.4	-82.6	332	2
2023-09-08T06:00	15396	122	-64.5	-82.7	322	2
2023-09-08T06:00	15420	122	-64.7	-82.9	315	2
2023-09-08T06:00	15444	121	-64.8	-82.9	309	3
2023-09-08T06:00	15467	121	-65.0	-82.9	304	3
2023-09-08T06:00	15489	120	-65.1	-83.0	299	4
2023-09-08T06:00	15513	120	-65.3	-83.1	294	4
2023-09-08T06:00	15533	119	-65.3	-83.1	289	5
2023-09-08T06:00	15555	119	-65.4	-83.2	286	5
2023-09-08T06:00	15578	119	-65.6	-83.4	285	6
2023-09-08T06:00	15605	118	-65.7	-83.4	286	6
2023-09-08T06:00	15624	118	-65.8	-83.5	289	7
2023-09-08T06:00	15647	117	-65.8	-83.6	293	8
2023-09-08T06:00	15671	117	-65.7	-83.6	298	8
2023-09-08T06:00	15695	116	-65.5	-83.6	303	9
2023-09-08T06:00	15715	116	-65.6	-83.6	307	10
2023-09-08T06:00	15735	116	-65.5	-83.6	311	10
2023-09-08T06:00	15763	115	-65.6	-83.7	314	10
2023-09-08T06:00	15784	115	-65.5	-83.7	317	11
2023-09-08T06:00	15807	114	-65.5	-83.7	321	11
2023-09-08T06:00	15828	114	-65.4	-83.7	325	11
2023-09-08T06:00	15851	113	-65.4	-83.8	329	11
2023-09-08T06:00	15872	113	-65.3	-83.8	334	11
2023-09-08T06:00	15894	113	-65.3	-83.8	339	10
2023-09-08T06:00	15913	112	-65.1	-83.7	344	10
2023-09-08T06:00	15934	112	-65.0	-83.8	348	9
2023-09-08T06:00	15955	111	-65.0	-83.9	351	9
2023-09-08T06:00	15979	111	-64.6	-83.8	353	8
2023-09-08T06:00	15998	111	-64.5	-83.8	355	8
2023-09-08T06:00	16024	110	-64.4	-84.1	357	7
2023-09-08T06:00	16046	110	-64.2	-84.2	358	7
2023-09-08T06:00	16066	109	-64.0	-84.3	360	7
2023-09-08T06:00	16085	109	-63.9	-84.5	2	7
2023-09-08T06:00	16108	109	-63.7	-84.4	6	7
2023-09-08T06:00	16133	108	-63.6	-84.7	10	7
2023-09-08T06:00	16154	108	-63.6	-84.8	14	7
2023-09-08T06:00	16174	108	-63.4	-84.6	18	6
2023-09-08T06:00	16196	107	-63.2	-84.6	21	6
2023-09-08T06:00	16216	107	-63.1	-84.7	21	5
2023-09-08T06:00	16243	106	-63.1	-84.7	19	5
2023-09-08T06:00	16263	106	-63.2	-84.8	18	5
2023-09-08T06:00	16285	106	-63.3	-84.9	17	5
2023-09-08T06:00	16309	105	-63.5	-85.0	17	5
2023-09-08T06:00	16330	105	-63.5	-85.0	17	5
2023-09-08T06:00	16356	104	-63.5	-85.0	15	5
2023-09-08T06:00	16375	104	-63.4	-85.1	11	5
2023-09-08T06:00	16401	104	-63.2	-85.1	6	5
2023-09-08T06:00	16424	103	-63.1	-85.2	2	5
2023-09-08T06:00	16449	103	-63.1	-85.2	359	5
2023-09-08T06:00	16473	102	-63.2	-85.5	359	5
2023-09-08T06:00	16494	102	-63.1	-85.6	0	5
2023-09-08T06:00	16516	102	-62.9	-85.5	3	5
2023-09-08T06:00	16543	101	-62.9	-85.6	5	4
2023-09-08T06:00	16565	101	-62.8	-85.6	6	4
2023-09-08T06:00	16589	101	-62.7	-85.5	6	4
2023-09-08T06:00	16610	100	-62.7	-85.5	3	4
2023-09-08T06:00	16633	100	-62.7	-85.7	358	4
2023-09-08T06:00	16657	99	-62.8	-85.8	351	3
2023-09-08T06:00	16680	99	-62.9	-85.8	343	3
2023-09-08T06:00	16705	99	-63.0	-85.9	336	4
2023-09-08T06:00	16727	98	-63.1	-85.8	331	4
2023-09-08T06:00	16747	98	-63.1	-86.0	328	4
2023-09-08T06:00	16773	98	-63.1	-86.0	326	5
2023-09-08T06:00	16796	97	-63.2	-86.1	325	5
2023-09-08T06:00	16815	97	-63.1	-86.2	324	5
2023-09-08T06:00	16842	97	-62.9	-86.1	323	5
2023-09-08T06:00	16862	96	-62.7	-85.9	323	5
2023-09-08T06:00	16888	96	-62.7	-86.1	322	5
2023-09-08T06:00	16912	95	-62.7	-86.1	321	5
2023-09-08T06:00	16933	95	-62.6	-86.0	321	5
2023-09-08T06:00	16956	95	-62.6	-86.0	320	5
2023-09-08T06:00	16980	94	-62.7	-86.1	321	5
2023-09-08T06:00	17000	94	-62.6	-86.3	322	5
2023-09-08T06:00	17026	94	-62.5	-86.2	325	5
2023-09-08T06:00	17048	93	-62.5	-86.2	328	5
2023-09-08T06:00	17073	93	-62.5		332	5
2023-09-08T06:00	17094	93	-62.4	-86.3	334	5
2023-09-08T06:00	17117	92	-62.6	-86.5	335	4
2023-09-08T06:00	17135	92	-62.7	-86.6	335	4
2023-09-08T06:00	17161	92	-62.7	-86.3	334	4
2023-09-08T06:00	17186	91	-62.7	-86.3	331	4
2023-09-08T06:00	17210	91	-62.9	-86.7	327	4
2023-09-08T06:00	17235	91	-63.0	-86.8	325	5
2023-09-08T06:00	17257	90	-62.8	-86.6	324	5
2023-09-08T06:00	17277	90	-62.5		325	5
2023-09-08T06:00	17297	90	-62.6	-86.7	328	6
2023-09-08T06:00	17321	89	-62.7	-86.8	332	6
2023-09-08T06:00	17345	89	-62.3	-86.7	337	6
2023-09-08T06:00	17368	89	-61.8	-86.6	341	6
2023-09-08T06:00	17393	88	-61.5	-86.4	345	6
2023-09-08T06:00	17415	88	-61.5	-86.7	347	6
2023-09-08T06:00	17442	88	-61.6	-86.7	347	6
2023-09-08T06:00	17462	87	-61.5	-86.7	346	5
2023-09-08T06:00	17488	87	-61.4	-86.9	345	5
2023-09-08T06:00	17507	87	-61.1	-86.6	345	5
2023-09-08T06:00	17533	86	-60.9	-86.8	346	4
2023-09-08T06:00	17558	86	-60.8		347	4
2023-09-08T06:00	17579	86	-60.4	-86.7	348	4
2023-09-08T06:00	17601	85	-60.2	-86.9	349	3
2023-09-08T06:00	17621	85	-60.0	-86.8	348	3
2023-09-08T06:00	17646	85	-59.7	-86.5	347	3
2023-09-08T06:00	17672	84	-59.5	-86.4	347	2
2023-09-08T06:00	17692	84	-59.6	-86.8	349	2
2023-09-08T06:00	17720	84	-59.8	-87.0	352	2
2023-09-08T06:00	17740	83	-59.7	-86.9	357	2
2023-09-08T06:00	17768	83	-59.5	-86.8	1	3
2023-09-08T06:00	17790	83	-59.4	-86.7	3	3
2023-09-08T06:00	17812	83	-59.3	-86.6	4	3
2023-09-08T06:00	17834	82	-59.3	-86.6	4	3
2023-09-08T06:00	17860	82	-59.2	-86.5	2	3
2023-09-08T06:00	17881	82	-59.1	-86.8	0	3
2023-09-08T06:00	17906	81	-59.2	-86.9	359	3
2023-09-08T06:00	17926	81	-59.2	-86.9	358	3
2023-09-08T06:00	17954	81	-59.2	-86.9	359	3
2023-09-08T06:00	17979	80	-59.0	-86.8	1	4
2023-09-08T06:00	18000	80	-59.1	-86.8	4	4
2023-09-08T06:00	18021	80	-59.1	-86.8	7	4
2023-09-08T06:00	18048	79	-59.1	-86.8	9	5
2023-09-08T06:00	18068	79	-59.0	-86.8	11	5
2023-09-08T06:00	18095	79	-59.1	-86.8	11	6
2023-09-08T06:00	18119	79	-59.1	-86.8	10	6
2023-09-08T06:00	18142	78	-59.1	-86.8	9	7
2023-09-08T06:00	18160	78	-59.1	-86.8	7	7
2023-09-08T06:00	18188	78	-59.2	-86.9	6	7
2023-09-08T06:00	18211	77	-59.2	-86.9	5	8
2023-09-08T06:00	18232	77	-59.1	-87.3	4	8
2023-09-08T06:00	18259	77	-59.1	-87.3	3	8
2023-09-08T06:00	18282	77	-59.1	-87.3	4	9
2023-09-08T06:00	18305	76	-59.2	-87.3	5	9
2023-09-08T06:00	18326	76	-59.2	-86.9	7	9
2023-09-08T06:00	18353	76	-59.3	-87.4	9	9
2023-09-08T06:00	18378	75	-59.3	-87.4	12	9
2023-09-08T06:00	18400	75	-59.2	-87.3	14	8
2023-09-08T06:00	18420	75	-59.0	-87.2	17	8
2023-09-08T06:00	18448	75	-59.0	-87.2	20	7
2023-09-08T06:00	18467	74	-58.9	-87.1	23	7
2023-09-08T06:00	18498	74	-58.8	-87.0	25	6
2023-09-08T06:00	18519	74	-58.8	-87.0	28	6
2023-09-08T06:00	18539	73	-58.8	-87.5	30	5
2023-09-08T06:00	18565	73	-58.8	-87.5	31	5
2023-09-08T06:00	18589	73	-58.8	-87.5	30	5
2023-09-08T06:00	18612	73	-58.5	-87.3	27	5
2023-09-08T06:00	18638	72	-58.4	-87.2	24	5
2023-09-08T06:00	18655	72	-58.3	-87.1	20	5
2023-09-08T06:00	18681	72	-58.3	-87.1	17	6
2023-09-08T06:00	18706	72	-58.3	-87.1	16	6
2023-09-08T06:00	18728	71	-58.5	-87.3	16	6
2023-09-08T06:00	18752	71	-58.4	-87.2	17	5
2023-09-08T06:00	18772	71	-58.3	-87.1	20	5
2023-09-08T06:00	18800	71	-58.4	-87.2	24	5
2023-09-08T06:00	18821	70	-58.6	-87.3	28	5
2023-09-08T06:00	18843	70	-58.7	-87.4	32	4
2023-09-08T06:00	18867	70	-58.8	-87.0	35	4
2023-09-08T06:00	18893	69	-59.0	-87.2	38	4
2023-09-08T06:00	18912	69	-59.1	-87.3	40	4
2023-09-08T06:00	18934	69	-59.2	-87.3	44	3
2023-09-08T06:00	18961	69	-59.3	-87.4	49	3
2023-09-08T06:00	18986	68	-59.2	-87.3	56	3
2023-09-08T06:00	19014	68	-59.2	-87.3	65	2
2023-09-08T06:00	19032	68	-59.1	-87.3	75	2
2023-09-08T06:00	19051	68	-59.1	-87.7	85	2
2023-09-08T06:00	19080	67	-59.1	-87.7	91	2
2023-09-08T06:00	19106	67	-59.1	-87.7	94	2
2023-09-08T06:00	19132	67	-59.1	-87.7	94	2
2023-09-08T06:00	19155	67	-59.2	-87.3	94	1
2023-09-08T06:00	19175	66	-59.3	-87.4	99	1
2023-09-08T06:00	19207	66	-59.5	-87.6	119	1
2023-09-08T06:00	19230	66	-59.6	-87.6	168	1
2023-09-08T06:00	19253	66	-59.7	-87.7	204	1
2023-09-08T06:00	19279	65	-59.6	-87.6	221	2
2023-09-08T06:00	19303	65	-59.4	-87.9	231	2
2023-09-08T06:00	19327	65	-59.1	-87.7	240	2
2023-09-08T06:00	19353	65	-59.0	-87.6	248	3
2023-09-08T06:00	19380	64	-59.1	-87.7	255	3
2023-09-08T06:00	19406	64	-59.3	-87.9	263	3
2023-09-08T06:00	19428	64	-59.4	-87.5	270	3
2023-09-08T06:00	19450	64	-59.5	-87.6	279	3
2023-09-08T06:00	19474	63	-59.4	-87.5	289	3
2023-09-08T06:00	19497	63	-59.5	-87.6	299	4
2023-09-08T06:00	19518	63	-59.6	-87.6	308	4
2023-09-08T06:00	19549	63	-59.8	-87.8	316	5
2023-09-08T06:00	19572	62	-59.9	-87.9	323	6
2023-09-08T06:00	19598	62	-60.0	-87.9	330	6
2023-09-08T06:00	19624	62	-60.0	-87.9	336	7
2023-09-08T06:00	19650	62	-60.0	-87.9	341	7
2023-09-08T06:00	19673	61	-59.7	-88.2	346	7
2023-09-08T06:00	19696	61	-59.4	-87.9	350	6
2023-09-08T06:00	19725	61	-59.4	-87.9	353	6
2023-09-08T06:00	19746	61	-59.4	-87.9	354	6
2023-09-08T06:00	19773	60	-59.5	-88.0	354	5
2023-09-08T06:00	19799	60	-59.4	-87.9	355	5
2023-09-08T06:00	19822	60	-59.4	-87.9	356	6
2023-09-08T06:00	19847	60	-59.4	-87.9	358	6
2023-09-08T06:00	19868	59	-59.3	-87.9	1	6
2023-09-08T06:00	19899	59	-59.4	-87.9	5	7
2023-09-08T06:00	19917	59	-59.6	-88.1	9	7
2023-09-08T06:00	19950	59	-59.6	-88.1	13	7
2023-09-08T06:00	19969	58	-59.7	-88.2	18	7
2023-09-08T06:00	19992	58	-59.7	-88.2	23	6
2023-09-08T06:00	20022	58	-59.5	-88.0	27	6
2023-09-08T06:00	20050	58	-59.4	-87.9	32	6
2023-09-08T06:00	20071	58	-59.2	-87.8	36	6
2023-09-08T06:00	20093	57	-59.0	-87.6	39	6
2023-09-08T06:00	20120	57	-59.1	-87.7	42	7
2023-09-08T06:00	20141	57	-59.2	-87.8	44	7
2023-09-08T06:00	20167	57	-59.1	-87.7	45	8
2023-09-08T06:00	20194	56	-59.2	-87.8	47	8
2023-09-08T06:00	20218	56	-59.2	-87.8	47	8
2023-09-08T06:00	20246	56	-59.3	-87.9	48	8
2023-09-08T06:00	20269	56	-59.4	-87.9	49	8
2023-09-08T06:00	20294	56	-59.4	-87.9	50	8
2023-09-08T06:00	20321	55	-59.2	-87.8	52	8
2023-09-08T06:00	20345	55	-59.2	-87.8	54	8
2023-09-08T06:00	20364	55	-59.0	-87.6	56	8
2023-09-08T06:00	20394	55	-59.0	-88.1	59	8
2023-09-08T06:00	20416	54	-58.9	-88.0	63	7
2023-09-08T06:00	20439	54	-58.8	-88.0	66	7
2023-09-08T06:00	20468	54	-58.7	-87.9	70	6
2023-09-08T06:00	20491	54	-58.7	-87.9	73	5
2023-09-08T06:00	20520	54	-58.8	-88.0	77	4
2023-09-08T06:00	20539	53	-58.8	-88.0	81	4
2023-09-08T06:00	20566	53	-58.8	-88.0	86	3
2023-09-08T06:00	20593	53	-58.6	-87.8	93	2
2023-09-08T06:00	20617	53	-58.5	-87.7	100	2
2023-09-08T06:00	20640	53	-58.6	-87.8	105	2
2023-09-08T06:00	20666	52	-58.6	-87.8	105	2
2023-09-08T06:00	20693	52	-58.7	-87.9	96	1
2023-09-08T06:00	20711	52	-58.6	-87.8	81	1
2023-09-08T06:00	20741	52	-58.5	-87.7	65	1
2023-09-08T06:00	20768	51	-58.4	-87.7	53	2
2023-09-08T06:00	20792	51	-58.4	-87.7	46	2
2023-09-08T06:00	20817	51	-58.5	-87.7	42	2
2023-09-08T06:00	20844	51	-58.6	-87.8	38	3
2023-09-08T06:00	20871	51	-58.7	-87.4	36	3
2023-09-08T06:00	20896	50	-58.9	-87.6	35	3
2023-09-08T06:00	20925	50	-59.0	-87.6	34	4
2023-09-08T06:00	20947	50	-59.1	-87.7	35	4
2023-09-08T06:00	20968	50	-59.2	-87.8	36	4
2023-09-08T06:00	20997	50	-59.4	-87.9	37	5
2023-09-08T06:00	21025	49	-59.5	-88.0	39	5
2023-09-08T06:00	21051	49	-59.5	-88.0	41	5
2023-09-08T06:00	21076	49	-59.5	-88.0	42	5
2023-09-08T06:00	21102	49	-59.4	-87.9	42	5
2023-09-08T06:00	21132	49	-59.3	-87.9	42	5
2023-09-08T06:00	21156	48	-59.3	-87.9	41	5
2023-09-08T06:00	21182	48	-59.4	-88.4	40	5
2023-09-08T06:00	21206	48	-59.4	-88.4	39	5
2023-09-08T06:00	21234	48	-59.3	-88.3	39	5
2023-09-08T06:00	21262	48	-59.1	-88.2	38	5
2023-09-08T06:00	21290	47	-59.2	-88.3	35	5
2023-09-08T06:00	21304	47	-59.3	-88.3	31	4
2023-09-08T06:00	21338	47	-59.2	-88.3	25	4
2023-09-08T06:00	21362	47	-59.2	-88.3	20	4
2023-09-08T06:00	21390	47	-59.2	-88.3	17	4
2023-09-08T06:00	21412	46	-58.9	-88.0	19	4
2023-09-08T06:00	21446	46	-58.5	-88.3	23	4
2023-09-08T06:00	21465	46	-58.3	-88.1	29	4
2023-09-08T06:00	21498	46	-58.2	-88.1	34	4
2023-09-08T06:00	21518	46	-58.2	-88.1	38	4
2023-09-08T06:00	21549	45	-58.2	-88.1	40	4
2023-09-08T06:00	21574	45	-58.2	-88.1	41	5
2023-09-08T06:00	21596	45	-58.2	-88.1	40	5
2023-09-08T06:00	21621	45	-58.1	-88.0	39	5
2023-09-08T06:00	21649	45	-58.0	-87.9	37	5
2023-09-08T06:00	21668	45	-57.9	-87.8	36	5
2023-09-08T06:00	21696	44	-57.8	-87.8	36	5
2023-09-08T06:00	21722	44	-57.6	-87.6	38	5
2023-09-08T06:00	21744	44	-57.7	-87.7	41	5
2023-09-08T06:00	21769	44	-57.8	-87.8	46	5
2023-09-08T06:00	21803	44	-57.9	-87.8	51	4
2023-09-08T06:00	21826	44	-57.9	-87.8	55	4
2023-09-08T06:00	21846	43	-57.8	-87.8	58	4
2023-09-08T06:00	21874	43	-57.9	-87.8	59	4
2023-09-08T06:00	21900	43	-57.7	-87.7	56	4
2023-09-08T06:00	21925	43	-57.5	-87.5	51	3
2023-09-08T06:00	21946	43	-57.3	-87.4	43	3
2023-09-08T06:00	21980	42	-57.2	-87.9	34	3
2023-09-08T06:00	22005	42	-57.2	-87.9	25	3
2023-09-08T06:00	22031	42	-57.1	-87.8	18	2
2023-09-08T06:00	22049	42	-57.0	-87.2	13	2
2023-09-08T06:00	22073	42	-57.0	-87.2	11	2
2023-09-08T06:00	22098	42	-57.0	-87.2	13	2
2023-09-08T06:00	22123	41	-57.1	-87.2	17	2
2023-09-08T06:00	22155	41	-57.3	-87.4	24	2
2023-09-08T06:00	22185	41	-57.4	-87.5	32	2
2023-09-08T06:00	22206	41	-57.6	-87.1	36	2
2023-09-08T06:00	22231	41	-57.8	-87.2	37	3
2023-09-08T06:00	22261	41	-57.8	-87.2	35	3
2023-09-08T06:00	22287	40	-57.7	-87.2	30	3
2023-09-08T06:00	22312	40	-57.7	-87.7	26	4
2023-09-08T06:00	22339	40	-57.6	-87.6	24	4
2023-09-08T06:00	22361	40	-57.6	-87.6	25	4
2023-09-08T06:00	22391	40	-57.4	-87.5	29	3
2023-09-08T06:00	22414	40	-57.4	-87.5	37	3
2023-09-08T06:00	22441	39	-57.6	-87.6	47	2
2023-09-08T06:00	22463	39	-57.7	-87.7	56	2
2023-09-08T06:00	22499	39	-57.8	-87.8	60	2
2023-09-08T06:00	22523	39	-57.6	-87.6	54	2
2023-09-08T06:00	22551	39	-57.4	-87.5	37	2
2023-09-08T06:00	22570	39	-57.3	-87.4	19	2
2023-09-08T06:00	22599	39	-57.3	-87.4	6	2
2023-09-08T06:00	22626	38	-57.4	-87.5	359	3
2023-09-08T06:00	22648	38	-57.6	-87.6	353	3
2023-09-08T06:00	22672	38	-57.6	-87.6	349	3
2023-09-08T06:00	22700	38	-57.4	-87.5	344	3
2023-09-08T06:00	22729	38	-57.3	-87.4	339	3
2023-09-08T06:00	22758	38	-57.2	-87.3	333	2
2023-09-08T06:00	22781	37	-57.1	-87.2	328	2
2023-09-08T06:00	22814	37	-57.1	-87.8	327	2
2023-09-08T06:00	22835	37	-57.1	-87.8	332	3
2023-09-08T06:00	22863	37	-57.0	-87.8	339	4
2023-09-08T06:00	22892	37	-56.7	-87.5	346	4
2023-09-08T06:00	22913	37	-56.5	-87.4	351	5
2023-09-08T06:00	22937	36	-56.3	-87.2	355	6
2023-09-08T06:00	22965	36	-56.2	-87.2	359	6
2023-09-08T06:00	22992	36	-56.1	-87.1	1	7
2023-09-08T06:00	23019	36	-55.8	-87.5	2	6
2023-09-08T06:00	23037	36	-55.6	-86.7	2	6
2023-09-08T06:00	23063	36	-55.7	-86.8	1	6
2023-09-08T06:00	23099	36	-55.8	-86.9	357	6
2023-09-08T06:00	23123	35	-55.8	-86.9	352	5
2023-09-08T06:00	23152	35	-55.8	-86.9	347	5
2023-09-08T06:00	23171	35	-55.8	-86.9	343	5
2023-09-08T06:00	23209	35	-55.7	-86.8	340	6
2023-09-08T06:00	23238	35	-55.8	-86.9	339	6
2023-09-08T06:00	23258	35	-56.0	-87.0	338	6
2023-09-08T06:00	23279	35	-56.0	-87.0	339	5
2023-09-08T06:00	23307	34	-56.0	-87.0	341	5
2023-09-08T06:00	23344	34	-56.1	-87.1	345	5
2023-09-08T06:00	23362	34	-56.1	-87.1	351	5
2023-09-08T06:00	23399	34	-56.1	-87.1	358	5
2023-09-08T06:00	23413	34	-56.1	-87.1	5	5
2023-09-08T06:00	23456	34	-56.3	-87.2	11	5
2023-09-08T06:00	23471	34	-56.5	-87.4	16	6
2023-09-08T06:00	23507	33	-56.6	-86.9	18	6
2023-09-08T06:00	23529	33	-56.7	-86.9	18	5
2023-09-08T06:00	23559	33	-56.8	-87.0	17	5
2023-09-08T06:00	23584	33	-56.8	-87.0	15	5
2023-09-08T06:00	23613	33	-57.0	-87.2	12	5
2023-09-08T06:00	23642	33	-57.1	-87.2	11	6
2023-09-08T06:00	23671	33	-57.2	-87.3	10	6
2023-09-08T06:00	23704	32	-57.2	-87.3	10	7
2023-09-08T06:00	23724	32	-57.4	-87.5	10	7
2023-09-08T06:00	23743	32	-57.4	-87.5	10	7
2023-09-08T06:00	23777	32	-57.4	-87.5	9	8
2023-09-08T06:00	23807	32	-57.5	-87.5	9	8
2023-09-08T06:00	23827	32	-57.7	-87.7	10	8
2023-09-08T06:00	23854	32	-57.8	-87.8	10	8
2023-09-08T06:00	23886	31	-58.0	-87.9	10	8
2023-09-08T06:00	23919	31	-58.1	-88.0	10	8
2023-09-08T06:00	23949	31	-58.0	-87.9	10	8
2023-09-08T06:00	23969	31	-57.9	-87.8	10	9
2023-09-08T06:00	24005	31	-57.9	-87.8	11	9
2023-09-08T06:00	24033	31	-58.1	-88.0	13	9
2023-09-08T06:00	24059	31	-58.2	-88.1	16	9
2023-09-08T06:00	24079	30	-58.2	-88.1	19	9
2023-09-08T06:00	24109	30	-58.3	-88.1	22	9
2023-09-08T06:00	24141	30	-58.3	-88.1	26	8
2023-09-08T06:00	24158	30	-58.1	-88.0	29	8
2023-09-08T06:00	24190	30	-58.0	-87.9	33	8
2023-09-08T06:00	24215	30	-58.0	-87.9	36	8
2023-09-08T06:00	24240	30	-58.0	-87.9	39	7
2023-09-08T06:00	24265	30	-57.9	-87.8	40	7
2023-09-08T06:00	24305	29	-57.7	-88.3	40	7
2023-09-08T06:00	24324	29	-57.6	-88.2	39	7
2023-09-08T06:00	24345	29	-57.7	-88.3	37	6
2023-09-08T06:00	24377	29	-57.6	-88.2	34	6
2023-09-08T06:00	24407	29	-57.3	-88.0	31	6
2023-09-08T06:00	24430	29	-56.9	-87.7	28	6
2023-09-08T06:00	24469	29	-56.6	-88.1	27	6
2023-09-08T06:00	24493	29	-56.5	-88.1	26	6
2023-09-08T06:00	24508	28	-56.4	-88.0	27	6
2023-09-08T06:00	24541	28	-56.3	-87.9	30	6
2023-09-08T06:00	24570	28	-56.0	-87.7	34	6
2023-09-08T06:00	24593	28	-55.8	-87.5	38	6
2023-09-08T06:00	24629	28	-55.9	-86.9	42	6
2023-09-08T06:00	24649	28	-56.1	-87.1	46	7
2023-09-08T06:00	24678	28	-56.2	-87.2	49	7
2023-09-08T06:00	24710	28	-56.4	-87.3	52	7
2023-09-08T06:00	24738	27	-56.5	-87.4	54	7
2023-09-08T06:00	24770	27	-56.7	-86.9	56	7
2023-09-08T06:00	24794	27	-56.7	-86.9	55	7
2023-09-08T06:00	24831	27	-56.8	-87.0	52	6
2023-09-08T06:00	24849	27	-56.9	-87.1	46	6
2023-09-08T06:00	24872	27	-56.8	-87.0	40	5
2023-09-08T06:00	24901	27	-56.9	-87.1	35	5
2023-09-08T06:00	24934	27	-57.1	-87.2	33	5
2023-09-08T06:00	24957	27	-57.1	-87.2	34	5
2023-09-08T06:00	24978	26	-56.9	-87.7	37	6
2023-09-08T06:00	25016	26	-56.8	-87.6	40	6
2023-09-08T06:00	25044	26	-56.9	-87.7	43	6
2023-09-08T06:00	25066	26	-57.0	-87.8	45	6
2023-09-08T06:00	25095	26	-56.9	-87.7	46	6
2023-09-08T06:00	25111	26	-56.7	-87.5	46	6
2023-09-08T06:00	25148	26	-56.7	-87.5	44	6
2023-09-08T06:00	25183	26	-56.7	-87.5	42	6
2023-09-08T06:00	25210	26	-56.5	-88.1	40	6
2023-09-08T06:00	25231	25	-56.1	-87.8	38	6
2023-09-08T06:00	25268	25	-55.9	-87.6	36	6
2023-09-08T06:00	25293	25	-55.7	-87.5	33	6
2023-09-08T06:00	25329	25	-55.5	-88.1	31	6
2023-09-08T06:00	25343	25	-55.2	-87.8	29	7
2023-09-08T06:00	25380	25	-54.9	-87.6	29	7
2023-09-08T06:00	25404	25	-54.8	-87.6	30	6
2023-09-08T06:00	25430	25	-54.5	-87.3	34	6
2023-09-08T06:00	25460	25	-54.0	-87.0	40	5
2023-09-08T06:00	25487	24	-53.6	-86.7	47	5
2023-09-08T06:00	25521	24	-53.5	-86.6	54	5
2023-09-08T06:00	25544	24	-53.5	-86.6	60	4
2023-09-08T06:00	25572	24	-53.5	-86.6	65	4
2023-09-08T06:00	25603	24	-53.5	-86.6	70	3
2023-09-08T06:00	25628	24	-53.6	-86.7	73	2
2023-09-08T06:00	25661	24	-53.4	-86.5	72	2
2023-09-08T06:00	25684	24	-53.2	-86.4	59	1
2023-09-08T06:00	25712	24	-53.1	-86.3	39	1
2023-09-08T06:00	25748	23	-53.0	-86.3	28	2
2023-09-08T06:00	25776	23	-52.8	-86.1	29	2
2023-09-08T06:00	25819	23	-52.5	-85.9	35	3
2023-09-08T06:00	25832	23	-52.0	-85.5	43	4
2023-09-08T06:00	25861	23	-52.0	-85.5	49	4
2023-09-08T06:00	25885	23	-52.4	-85.8	53	5
2023-09-08T06:00	25923	23	-52.6		54	5
2023-09-08T06:00	25950	23	-52.5	-85.9	52	5
2023-09-08T06:00	25971	23	-52.3	-85.8	48	5
2023-09-08T06:00	26005	23	-52.3	-85.8	43	4
2023-09-08T06:00	26029	22	-52.4	-85.8	38	4
2023-09-08T06:00	26068	22	-52.5	-85.9	36	4
2023-09-08T06:00	26094	22	-52.6		36	4
2023-09-08T06:00	26111	22	-52.6		37	4
2023-09-08T06:00	26142	22	-52.6		37	4
2023-09-08T06:00	26186	22	-52.5	-85.9	34	4
2023-09-08T06:00	26201	22	-52.5	-85.9	28	4
2023-09-08T06:00	26237	22	-52.2	-85.7	17	3
2023-09-08T06:00	26264	22	-51.9	-86.3	359	3
2023-09-08T06:00	26277	22	-51.6	-86.1	336	2
2023-09-08T06:00	26303	21	-51.4	-86.0	314	2
2023-09-08T06:00	26354	21	-51.3	-85.9	299	3
2023-09-08T06:00	26373	21	-51.4	-86.0	290	3
2023-09-08T06:00	26404	21	-51.6	-85.2	287	3
2023-09-08T06:00	26447	21	-51.5	-85.2	289	2
2023-09-08T06:00	26475	21	-51.4	-85.1	299	2
2023-09-08T06:00	26512	21	-51.4	-85.1	319	1
2023-09-08T06:00	26520	21	-51.5	-85.2	341	2
2023-09-08T06:00	26562	21	-51.5	-85.2	357	2
2023-09-08T06:00	26589	21	-51.7	-85.3	8	2
2023-09-08T06:00	26609	21	-51.8	-85.4	17	3
2023-09-08T06:00	26634	20	-51.9	-85.5	27	3
2023-09-08T06:00	26667	20	-52.0	-85.5	35	3
2023-09-08T06:00	26690	20	-51.9	-85.5	42	3
2023-09-08T06:00	26716	20	-51.9	-85.5	47	2
2023-09-08T06:00	26757	20	-51.8	-85.4	50	1
2023-09-08T06:00	26787	20	-51.5	-86.1	312	0
2023-09-08T06:00	26808	20	-51.3	-85.9	246	1
2023-09-08T06:00	26833	20	-51.1	-85.8	248	3
2023-09-08T06:00	26852	20	-51.1	-85.8	252	4
2023-09-08T06:00	26895	20	-51.1	-85.8	257	5
2023-09-08T06:00	26948	20	-51.2	-85.8	262	6
2023-09-08T06:00	26963	19	-51.2	-85.8	266	6
2023-09-08T06:00	26990	19	-51.0	-85.7	271	7
2023-09-08T06:00	27006	19	-50.7	-85.5	275	7
2023-09-08T06:00	27051	19	-50.3	-85.2	279	7
2023-09-08T06:00	27073	19	-49.9	-86.0	283	7
2023-09-08T06:00	27099	19	-49.7	-85.8	287	7
2023-09-08T06:00	27125	19	-49.7	-85.8	291	7
2023-09-08T06:00	27146	19	-49.6	-85.8	295	7
2023-09-08T06:00	27178	19	-49.5	-84.6	298	7
2023-09-08T06:00	27227	19	-49.3	-84.5	300	8
2023-09-08T06:00	27253	19	-49.2	-84.4	301	8
2023-09-08T06:00	27260	19	-49.3	-84.5	302	7
2023-09-08T06:00	27292	18	-49.4	-84.6	303	7
2023-09-08T06:00	27321	18	-49.5	-84.6	304	6
2023-09-08T06:00	27364	18	-49.5	-84.6	307	6
2023-09-08T06:00	27394	18	-49.5	-84.6	311	5
2023-09-08T06:00	27435	18	-49.5	-84.6	315	5
2023-09-08T06:00	27457	18	-49.4	-84.6	320	4
2023-09-08T06:00	27480	18	-49.3	-84.5	324	4
2023-09-08T06:00	27498	18	-49.2	-84.4	327	4
2023-09-08T06:00	27543	18	-49.1	-84.3	330	4
2023-09-08T06:00	27567	18	-49.2	-84.4	333	4
2023-09-08T06:00	27604	18	-49.3	-84.5	338	4
2023-09-08T06:00	27637	18	-49.4	-84.6	344	3
2023-09-08T06:00	27659	17	-49.5	-84.6	352	3
2023-09-08T06:00	27680	17	-49.7	-84.8	360	3
2023-09-08T06:00	27713	17	-49.8	-84.8	7	3
2023-09-08T06:00	27759	17	-50.0	-85.0	12	3
2023-09-08T06:00	27778	17	-50.1	-85.1	16	2
2023-09-08T06:00	27817	17	-50.1	-85.1	21	2
2023-09-08T06:00	27861	17	-50.1	-85.1	29	1
2023-09-08T06:00	27868	17	-50.1	-85.1	48	1
2023-09-08T06:00	27906	17	-50.1	-85.1	86	1
2023-09-08T06:00	27929	17	-50.2	-85.1	131	1
2023-09-08T06:00	27969	17	-50.3	-85.2	167	1
2023-09-08T06:00	27998	17	-50.3	-85.2	202	1
2023-09-08T06:00	28032	17	-50.2	-85.1	235	1
2023-09-08T06:00	28043	16	-50.0	-85.0	259	2
2023-09-08T06:00	28068	16	-49.8	-84.8	276	3
2023-09-08T06:00	28118	16	-49.5	-85.7	288	3
2023-09-08T06:00	28144	16	-49.3	-85.5	298	4
2023-09-08T06:00	28162	16	-49.2	-85.5	307	4
2023-09-08T06:00	28196	16	-49.1	-85.4	315	5
2023-09-08T06:00	28238	16	-48.6	-85.0	323	5
2023-09-08T06:00	28253	16	-48.2	-84.8	330	5
2023-09-08T06:00	28281	16	-48.2	-84.8	336	6
2023-09-08T06:00	28312	16	-48.1	-84.7	340	6
2023-09-08T06:00	28342	16	-48.1	-84.7	344	6
2023-09-08T06:00	28368	16	-48.0	-84.6	346	6
2023-09-08T06:00	28395	16	-47.9	-84.6	347	5
2023-09-08T06:00	28425	16	-47.9	-84.6	346	5
2023-09-08T06:00	28455	15	-48.1	-84.7	343	4
2023-09-08T06:00	28472	15	-47.9	-84.6	335	4
2023-09-08T06:00	28513	15	-47.7	-84.4	324	3
2023-09-08T06:00	28543	15	-47.6	-84.3	308	3
2023-09-08T06:00	28579	15	-47.5	-84.3	294	3
2023-09-08T06:00	28604	15	-47.6	-84.3	284	4
2023-09-08T06:00	28629	15	-47.8	-84.5	281	4
2023-09-08T06:00	28670	15	-47.9	-84.6	281	5
2023-09-08T06:00	28696	15	-47.7	-84.4	284	5
2023-09-08T06:00	28729	15	-47.5	-84.3	288	6
2023-09-08T06:00	28759	15	-47.5	-84.3	292	6
2023-09-08T06:00	28791	15	-47.5	-84.3	296	6
2023-09-08T06:00	28817	15	-47.5	-84.3	299	7
2023-09-08T06:00	28829	15	-47.4	-84.2	301	7
2023-09-08T06:00	28862	15	-47.4	-84.2	303	7
2023-09-08T06:00	28887	14	-47.6	-84.3	306	7
2023-09-08T06:00	28931	14	-47.6	-84.3	310	6
2023-09-08T06:00	28951	14	-47.5	-84.3	314	6
2023-09-08T06:00	29000	14	-47.3	-84.1	318	6
2023-09-08T06:00	29012	14	-47.4	-84.2	321	6
2023-09-08T06:00	29042	14	-47.6	-84.3	322	6
2023-09-08T06:00	29075	14	-47.7	-84.4	321	5
2023-09-08T06:00	29089	14	-47.7	-84.4	319	5
2023-09-08T06:00	29133	14	-47.5	-84.3	315	4
2023-09-08T06:00	29158	14	-47.4	-84.2	311	4
2023-09-08T06:00	29185	14	-47.4	-84.2	308	4
2023-09-08T06:00	29234	14	-47.5	-84.3	307	4
2023-09-08T06:00	29267	14	-47.6	-84.3	307	4
2023-09-08T06:00	29280	14	-47.6	-84.3	309	4
2023-09-08T06:00	29328	14	-47.7	-84.4	312	5
2023-09-08T06:00	29335	14	-47.9	-84.6	315	6
2023-09-08T06:00	29381	13	-47.9	-84.6	318	6
2023-09-08T06:00	29419	13	-48.0	-84.6	321	6
2023-09-08T06:00	29434	13	-48.0	-84.6	322	6
2023-09-08T06:00	29467	13	-47.9	-84.6	322	6
2023-09-08T06:00	29516	13	-47.8	-84.5	320	7
2023-09-08T06:00	29524	13	-47.7	-84.4	318	7
2023-09-08T06:00	29561	13	-47.7	-84.4	315	7
2023-09-08T06:00	29603	13	-47.7	-84.4	314	7
2023-09-08T06:00	29624	13	-47.7	-84.4	313	8
2023-09-08T06:00	29651	13	-47.8	-84.5	313	8
2023-09-08T06:00	29666	13	-47.8	-84.5	313	8
2023-09-08T06:00	29732	13	-47.8	-84.5	313	9
2023-09-08T06:00	29752	13	-47.8	-84.5	314	9
2023-09-08T06:00	29761	13	-47.8	-84.5	317	9
2023-09-08T06:00	29792	13	-47.8	-84.5	319	10
2023-09-08T06:00	29837	13	-47.9	-84.6	323	10
2023-09-08T06:00	29873	13	-48.0	-84.6	326	10
2023-09-08T06:00	29925	12	-47.9	-84.6	329	10
2023-09-08T06:00	29942	12	-47.7	-84.4	331	9
2023-09-08T06:00	29963	12	-47.5	-84.3	333	9
2023-09-08T06:00	30003	12	-47.3	-84.1	334	8
2023-09-08T06:00	30017	12	-47.2	-84.1	335	7
2023-09-08T06:00	30054	12	-47.1	-84.0	335	6
2023-09-08T06:00	30081	12	-47.2	-84.1	334	6
2023-09-08T06:00	30120	12	-47.3	-84.1	333	6
2023-09-08T06:00	30143	12	-47.2	-84.1	332	6
2023-09-08T06:00	30195	12	-47.0	-83.9	330	6
2023-09-08T06:00	30201	12	-46.9	-83.9	327	7
2023-09-08T06:00	30220	12	-46.9	-83.9	325	8
2023-09-08T06:00	30268	12	-46.6	-83.6	323	8
2023-09-08T06:00	30293	12	-46.3	-83.4	321	9
2023-09-08T06:00	30321	12	-46.3	-83.4	319	9
2023-09-08T06:00	30331	12	-46.3	-83.4	317	9
2023-09-08T06:00	30383	12	-46.2	-83.4	315	9
2023-09-08T06:00	30412	12	-46.1	-83.3	313	8
2023-09-08T06:00	30455	11	-45.9	-83.2	311	8
2023-09-08T06:00	30485	11	-45.9	-83.2	311	7
2023-09-08T06:00	30501	11	-46.0	-83.2	311	7
2023-09-08T06:00	30516	11	-46.1	-83.3	313	7
2023-09-08T06:00	30569	11	-46.2	-83.4	316	7
2023-09-08T06:00	30588	11	-46.3	-83.4	319	7
2023-09-08T06:00	30615	11	-46.3	-83.4	323	7
2023-09-08T06:00	30669	11	-46.3	-83.4	326	6
2023-09-08T06:00	30686	11	-46.4	-83.5	329	6
2023-09-08T06:00	30699	11	-46.6	-83.6	331	6
2023-09-08T06:00	30748	11	-46.8	-83.8	333	5
2023-09-08T06:00	30764	11	-47.0	-83.9	334	5
2023-09-08T06:00	30795	11	-47.1	-84.0	335	4
2023-09-08T06:00	30823	11	-47.2	-84.1	336	4
2023-09-08T06:00	30857	11	-47.3	-84.1	339	3
2023-09-08T06:00	30897	11	-47.4	-84.2	341	2
2023-09-08T06:00	30930	11	-47.3	-84.1	341	2
2023-09-08T06:00	30971	11	-47.3	-84.1	334	1
2023-09-08T06:00	30987	11	-47.3	-84.1	309	1
2023-09-08T06:00	31006	11	-47.2	-84.1	282	1
2023-09-08T06:00	31051	10	-46.8	-83.8	279	1
2023-09-08T06:00	31070	10	-46.5	-83.6	285	2
2023-09-08T06:00	31098	10	-46.3	-83.4	290	3
2023-09-08T06:00	31123	10	-46.2	-83.4	293	3
2023-09-08T06:00	31181	10	-46.2	-83.4	293	4
2023-09-08T06:00	31202	10	-46.0	-83.2	293	5
2023-09-08T06:00	31240	10	-45.7	-83.0	292	6
2023-09-08T06:00	31265	10	-45.7	-83.0	290	7
2023-09-08T06:00	31300	10	-45.9	-83.2	288	7
2023-09-08T06:00	31310	10	-46.0	-83.2	286	8
2023-09-08T06:00	31361	10	-46.2	-83.4	285	9
2023-09-08T06:00	31389	10	-46.4	-83.5	283	9
2023-09-08T06:00	31432	10	-46.6	-83.6	283	10
2023-09-08T06:00	31473	10	-46.6	-83.6	284	10
2023-09-08T06:00	31483	10	-46.7	-83.7	287	10
2023-09-08T06:00	31538	10	-46.5	-83.6	290	10
2023-09-08T06:00	31560	10	-46.3	-83.4	293	9
2023-09-08T06:00	31577	10	-46.3	-83.4	297	9
2023-09-08T06:00	31598	10	-46.4	-83.5	300	8
2023-09-08T06:00	31657	10	-46.5	-83.6	302	7
2023-09-08T06:00	31690	10	-46.7	-83.7	304	5
2023-09-08T06:00	31724	9	-46.6	-83.6	303	4
2023-09-08T06:00	31752	9	-46.2	-83.4	301	4
2023-09-08T06:00	31782	9	-45.4	-82.8	300	3
2023-09-08T06:00	31805	9	-44.8	-82.4	301	3
2023-09-08T06:00	31867	9	-44.5	-82.2	306	4
2023-09-08T06:00	31905	9	-43.9	-81.8	324	5
2023-09-08T06:00	31949	9	-44.0	-81.8	331	5
2023-09-08T06:00	31980	9	-44.2	-82.0	337	6
2023-09-08T06:00	32028	9	-44.4	-82.1	340	6
2023-09-08T06:00	32045	9	-44.3	-82.0	341	6
2023-09-08T06:00	32105	9	-44.1	-81.9	338	5
2023-09-08T06:00	32150	9	-43.8	-81.7	333	5
2023-09-08T06:00	32155	9	-43.6	-81.5	329	4
2023-09-08T06:00	32169	9	-43.6	-81.5	327	4
2023-09-08T06:00	32205	9	-43.8	-81.7	328	4
2023-09-08T06:00	32235	9	-43.9	-81.8	333	4
2023-09-08T06:00	32283	9	-43.9	-81.8	338	4
2023-09-08T06:00	32317	9	-43.8	-81.7	342	4
2023-09-08T06:00	32335	9	-43.9	-81.8	342	4
2023-09-08T06:00	32343	9	-44.2	-82.0	337	4
2023-09-08T06:00	32421	9	-44.4	-82.1	328	4
2023-09-08T06:00	32429	9	-44.5	-82.2	315	4
2023-09-08T06:00	32444	9	-44.4	-82.1	303	4
2023-09-08T06:00	32479	8	-44.4	-82.1	292	5
2023-09-08T06:00	32524	8	-44.3	-82.0	285	5
2023-09-08T06:00	32537	8	-44.3	-82.0	280	6
2023-09-08T06:00	32582	8	-44.2	-82.0	278	6
2023-09-08T06:00	32612	8	-44.0	-81.8	279	7
2023-09-08T06:00	32629	8	-43.8	-81.7	281	7
2023-09-08T06:00	32652	8	-43.6	-81.5	285	8
2023-09-08T06:00	32681	8	-43.5	-81.5	291	8
2023-09-08T06:00	32730	8	-43.4	-81.4	297	8
2023-09-08T06:00	32789	8	-43.2	-81.3	304	8
2023-09-08T06:00	32805	8	-43.1	-81.2	319	7
2023-09-08T06:00	32827	8	-43.0	-81.1	327	7
2023-09-08T06:00	32851	8	-42.7	-80.9	336	7
2023-09-08T06:00	32896	8	-42.4	-80.7	345	7
2023-09-08T06:00	32910	8	-42.2	-80.6	353	7
2023-09-08T06:00	32962	8	-42.1	-80.5	1	6
2023-09-08T06:00	33001	8	-41.9	-80.4	15	5
2023-09-08T06:00	33031	8	-41.6	-80.1	22	5
2023-09-08T06:00	33087	8	-41.4	-80.0	29	4
2023-09-08T06:00	33119	8	-41.1	-79.8	37	3
2023-09-08T06:00	33128	8	-40.9	-79.7	46	3
2023-09-08T06:00	33165	8	-40.6	-79.5	57	2
2023-09-08T06:00	33204	8	-40.2	-79.2	72	2
2023-09-08T06:00	33240	8	-39.9	-79.0	88	2
2023-09-08T06:00	33258	8	-39.3	-78.5	115	2
2023-09-08T06:00	33306	8	-39.1	-78.4	123	3
2023-09-08T06:00	33350	7	-39.0	-78.3	127	3
2023-09-08T06:00	33368	7	-38.9	-78.3	129	3
2023-09-08T06:00	33428	7	-38.6	-78.1	134	4
2023-09-08T06:00	33449	7	-38.5	-78.0	137	4
2023-09-08T06:00	33521	7	-38.6	-78.1	140	5
2023-09-08T06:00	33560	7	-38.7	-78.1	148	6
2023-09-08T06:00	33565	7	-38.7	-78.1	153	6
2023-09-08T06:00	33605	7	-38.3	-77.9	158	6
2023-09-08T06:00	33647	7	-37.9	-77.6	164	6
2023-09-08T06:00	33711	7	-37.6	-77.4	170	6
2023-09-08T06:00	33756	7	-37.5	-77.3	182	4
2023-09-08T06:00	33797	7	-37.3	-77.2	181	3
2023-09-08T06:00	33811	7	-37.0	-77.0	174	2
2023-09-08T06:00	33862	7	-36.6	-76.7	160	2
2023-09-08T06:00	33894	7	-36.2	-76.4	143	2
2023-09-08T06:00	33921	7	-35.9	-76.2	130	2
2023-09-08T06:00	33929	7	-35.8	-76.1	120	2
2023-09-08T06:00	33979	7	-35.5	-75.9	110	1
2023-09-08T06:00	34030	7	-35.3	-75.8	96	1
2023-09-08T06:00	34091	7	-35.2	-75.7	270	1
2023-09-08T06:00	34119	7	-35.3	-75.8	259	1
2023-09-08T06:00	34132	7	-35.3	-75.8	254	2
2023-09-08T12:00	121	1008	25.0	12.6	132	1
2023-09-08T12:00	145	1005	23.9	12.2	130	1
2023-09-08T12:00	171	1002	23.7	12.0	132	2
2023-09-08T12:00	192	1000	23.4	11.8	135	2
2023-09-08T12:00	216	997	23.3	11.8	136	3
2023-09-08T12:00	238	995	23.1	11.8	137	3
2023-09-08T12:00	259	992	22.9	11.8	138	3
2023-09-08T12:00	288	989	22.7	11.8	138	4
2023-09-08T12:00	316	986	22.4	11.8	139	4
2023-09-08T12:00	345	982	22.1	11.7	138	4
2023-09-08T12:00	370	979	21.8	11.8	137	4
2023-09-08T12:00	405	976	21.6	11.7	134	4
2023-09-08T12:00	440	972	21.1	11.6	131	4
2023-09-08T12:00	479	967	20.9	11.6	128	4
2023-09-08T12:00	514	963	20.5	11.5	124	4
2023-09-08T12:00	543	960	20.3	11.5	121	4
2023-09-08T12:00	574	957	19.9	11.3	119	4
2023-09-08T12:00	601	954	19.6	11.4	116	4
2023-09-08T12:00	632	951	19.3	11.4	115	4
2023-09-08T12:00	654	948	19.1	11.2	115	4
2023-09-08T12:00	671	946	18.9	11.2	115	4
2023-09-08T12:00	691	944	18.8	11.2	116	4
2023-09-08T12:00	709	942	18.6	10.9	117	4
2023-09-08T12:00	731	939	18.4	10.6	117	4
2023-09-08T12:00	758	936	18.3	9.8	117	4
2023-09-08T12:00	783	934	18.1	9.9	118	4
2023-09-08T12:00	809	931	17.9	10.0	120	3
2023-09-08T12:00	836	928	17.6	9.9	124	3
2023-09-08T12:00	866	925	17.4	9.7	127	3
2023-09-08T12:00	894	922	17.0	9.6	131	3
2023-09-08T12:00	916	919	17.1	8.4	133	2
2023-09-08T12:00	944	916	17.0	8.1	135	2
2023-09-08T12:00	973	913	17.0	6.6	139	2
2023-09-08T12:00	996	911	16.8	6.5	145	2
2023-09-08T12:00	1022	908	16.6	6.2	149	3
2023-09-08T12:00	1046	905	16.6	4.7	150	4
2023-09-08T12:00	1069	903	17.0	0.0	149	5
2023-09-08T12:00	1102	900	17.4	-3.5	146	5
2023-09-08T12:00	1128	897	17.4	-4.2	143	6
2023-09-08T12:00	1148	895	17.5	-4.7	139	6
2023-09-08T12:00	1171	892	18.0	-10.5	136	6
2023-09-08T12:00	1207	889	18.5	-13.4	134	6
2023-09-08T12:00	1233	886	18.4	-10.5	135	6
2023-09-08T12:00	1256	884	18.4	-9.3	136	6
2023-09-08T12:00	1275	881	18.4	-9.4	139	6
2023-09-08T12:00	1302	879	18.2	-8.0	140	6
2023-09-08T12:00	1324	876	18.1		141	5
2023-09-08T12:00	1348	874	18.1	-10.3	141	5
2023-09-08T12:00	1370	872	18.0	-9.0	141	5
2023-09-08T12:00	1392	870	18.0	-8.6	142	5
2023-09-08T12:00	1412	867	18.0	-8.2	143	5
2023-09-08T12:00	1436	865	18.1	-7.6	143	6
2023-09-08T12:00	1460	863	18.1	-8.4	143	6
2023-09-08T12:00	1485	860	18.3	-11.9	143	6
2023-09-08T12:00	1509	858	18.3	-13.3	142	6
2023-09-08T12:00	1532	855	18.3	-12.4	141	6
2023-09-08T12:00	1558	853	18.1	-12.1	139	6
2023-09-08T12:00	1584	850	18.0	-12.2	137	6
2023-09-08T12:00	1612	847	17.9	-12.3	135	6
2023-09-08T12:00	1638	845	17.8	-12.7	133	6
2023-09-08T12:00	1663	842	17.7	-13.2	132	5
2023-09-08T12:00	1695	839	17.6	-13.2	133	5
2023-09-08T12:00	1721	837	17.5	-10.2	135	5
2023-09-08T12:00	1746	834	17.4	-10.3	141	5
2023-09-08T12:00	1766	832	17.3	-10.4	146	4
2023-09-08T12:00	1786	830	17.3	-12.6	151	4
2023-09-08T12:00	1809	828	17.3	-14.7	150	4
2023-09-08T12:00	1837	825	17.2	-14.2	146	5
2023-09-08T12:00	1865	822	17.1	-14.4	140	5
2023-09-08T12:00	1890	820	17.1	-15.0	134	5
2023-09-08T12:00	1915	818	17.1	-14.5	129	5
2023-09-08T12:00	1942	815	17.0	-14.8	127	5
2023-09-08T12:00	1969	812	16.9	-15.0	126	4
2023-09-08T12:00	1997	810	16.8	-15.4	126	4
2023-09-08T12:00	2027	807	16.7	-15.8	124	4
2023-09-08T12:00	2050	805	16.6	-16.1	122	4
2023-09-08T12:00	2071	803	16.5	-16.0	119	4
2023-09-08T12:00	2094	801	16.4	-16.2	116	3
2023-09-08T12:00	2115	799	16.3	-16.3	115	3
2023-09-08T12:00	2133	797	16.2	-16.2	118	3
2023-09-08T12:00	2154	795	16.2	-16.5	122	3
2023-09-08T12:00	2175	793	16.1	-16.7	123	3
2023-09-08T12:00	2204	790	16.0	-16.8	121	4
2023-09-08T12:00	2233	788	16.0		119	5
2023-09-08T12:00	2260	785	15.9	-16.5	115	6
2023-09-08T12:00	2285	783	15.8	-16.7	112	6
2023-09-08T12:00	2312	780	15.7	-17.4	109	6
2023-09-08T12:00	2338	778	15.6	-17.9	107	6
2023-09-08T12:00	2364	775	15.5	-18.3	106	6
2023-09-08T12:00	2390	773	15.3	-18.3	107	6
2023-09-08T12:00	2412	771	15.1	-18.3	109	6
2023-09-08T12:00	2434	769	15.0	-18.5	111	6
2023-09-08T12:00	2454	767	14.8	-18.6	112	5
2023-09-08T12:00	2476	765	14.7	-18.5	113	5
2023-09-08T12:00	2496	763	14.5	-18.7	113	4
2023-09-08T12:00	2518	761	14.3	-18.7	113	3
2023-09-08T12:00	2546	759	14.2	-18.9	113	3
2023-09-08T12:00	2571	757	14.0	-19.8	113	3
2023-09-08T12:00	2591	755	13.9	-19.7	114	4
2023-09-08T12:00	2616	753	13.8	-20.4	116	4
2023-09-08T12:00	2643	750	13.7	-21.0	120	4
2023-09-08T12:00	2666	748	13.6	-21.9	125	4
2023-09-08T12:00	2689	746	13.5	-22.6	130	4
2023-09-08T12:00	2721	743	13.3	-21.4	136	3
2023-09-08T12:00	2745	741	13.2	-21.5	141	3
2023-09-08T12:00	2769	739	13.1	-17.5	142	3
2023-09-08T12:00	2796	737	13.0	-20.3	139	3
2023-09-08T12:00	2825	734	13.0	-19.7	136	4
2023-09-08T12:00	2849	732	12.9	-17.5	132	4
2023-09-08T12:00	2879	730	12.7	-17.9	128	4
2023-09-08T12:00	2904	727	12.8	-22.8	122	4
2023-09-08T12:00	2925	725	12.8	-24.5	115	3
2023-09-08T12:00	2951	723	12.7	-23.9	109	3
2023-09-08T12:00	2971	721	12.5	-24.3	105	4
2023-09-08T12:00	2996	719	12.3	-24.6	104	4
2023-09-08T12:00	3024	717	12.2	-24.5	105	4
2023-09-08T12:00	3050	715	12.0	-24.8	105	4
2023-09-08T12:00	3077	712	11.9	-24.2	104	4
2023-09-08T12:00	3099	710	11.8	-23.9	102	4
2023-09-08T12:00	3126	708	11.7	-23.4	99	3
2023-09-08T12:00	3158	705	11.5	-23.3	95	3
2023-09-08T12:00	3196	702	11.3	-23.1	92	4
2023-09-08T12:00	3224	700	11.0	-22.6	90	4
2023-09-08T12:00	3253	698	10.8	-22.4	88	4
2023-09-08T12:00	3278	695	10.6	-22.1	86	3
2023-09-08T12:00	3308	693	10.5	-20.0	83	3
2023-09-08T12:00	3341	690	10.2	-15.1	82	4
2023-09-08T12:00	3365	688	10.0	-14.7	83	4
2023-09-08T12:00	3390	686	9.9	-13.8	86	5
2023-09-08T12:00	3412	684	9.7	-13.9	89	5
2023-09-08T12:00	3431	683	9.5	-13.8	93	5
2023-09-08T12:00	3457	681	9.4	-13.4	96	5
2023-09-08T12:00	3484	678	9.1	-13.5	97	4
2023-09-08T12:00	3514	676	9.0		95	3
2023-09-08T12:00	3537	674	8.9	-17.0	91	3
2023-09-08T12:00	3564	672	8.7	-16.2	86	2
2023-09-08T12:00	3586	670	8.6	-16.5	83	2
2023-09-08T12:00	3609	668	8.6	-22.4	82	2
2023-09-08T12:00	3632	666	8.5	-17.1	81	2
2023-09-08T12:00	3658	664	8.2	-17.5	81	2
2023-09-08T12:00	3678	662	8.1	-17.4	85	2
2023-09-08T12:00	3698	661	7.9	-17.3	96	2
2023-09-08T12:00	3720	659	7.7	-17.6	114	2
2023-09-08T12:00	3747	657	7.4	-17.2	128	2
2023-09-08T12:00	3771	655	7.2	-16.1	132	2
2023-09-08T12:00	3796	653	7.0	-15.4	127	2
2023-09-08T12:00	3822	651	6.7	-13.7	113	2
2023-09-08T12:00	3857	648	6.4	-12.7	94	2
2023-09-08T12:00	3884	646	6.2	-12.8	80	3
2023-09-08T12:00	3912	644	5.9	-13.0	73	3
2023-09-08T12:00	3943	642	5.7	-13.1	69	3
2023-09-08T12:00	3971	639	5.4	-13.3	66	3
2023-09-08T12:00	3998	637	5.1	-13.4	62	3
2023-09-08T12:00	4032	635	4.8	-13.6	60	4
2023-09-08T12:00	4059	632	4.6	-14.0	59	4
2023-09-08T12:00	4084	630	4.3	-14.1	62	4
2023-09-08T12:00	4113	628	4.1	-12.8	69	4
2023-09-08T12:00	4136	627	3.9	-13.2	78	4
2023-09-08T12:00	4158	625	3.7	-13.7	84	4
2023-09-08T12:00	4184	623	3.4	-13.4	86	4
2023-09-08T12:00	4205	621	3.3	-13.5	83	4
2023-09-08T12:00	4232	619	3.0		78	4
2023-09-08T12:00	4260	617	2.7	-13.7	72	4
2023-09-08T12:00	4291	615	2.4	-13.7	68	4
2023-09-08T12:00	4320	612	2.2	-13.0	68	4
2023-09-08T12:00	4349	610	1.9	-13.2	69	4
2023-09-08T12:00	4376	608	1.7	-13.4	71	4
2023-09-08T12:00	4397	606	1.4	-13.4	71	4
2023-09-08T12:00	4432	604	1.1	-13.5	70	3
2023-09-08T12:00	4459	602	0.9	-13.7	66	3
2023-09-08T12:00	4482	600	0.7	-13.8	59	2
2023-09-08T12:00	4508	598	0.4	-13.9	53	2
2023-09-08T12:00	4534	596	0.2	-14.1	50	2
2023-09-08T12:00	4557	595	0.0	-14.3	53	2
2023-09-08T12:00	4581	593	-0.2	-14.7	57	2
2023-09-08T12:00	4607	591	-0.5	-15.0	59	3
2023-09-08T12:00	4630	589	-0.7	-15.3	59	4
2023-09-08T12:00	4648	588	-0.8	-15.6	59	4
2023-09-08T12:00	4670	586	-1.0	-16.0	59	4
2023-09-08T12:00	4701	584	-1.2	-16.3	60	4
2023-09-08T12:00	4727	582	-1.5	-16.5	63	4
2023-09-08T12:00	4755	580	-1.7	-16.6	66	4
2023-09-08T12:00	4779	578	-1.9	-16.7	69	4
2023-09-08T12:00	4797	577	-2.1	-16.6	72	5
2023-09-08T12:00	4817	576	-2.2	-16.7	74	5
2023-09-08T12:00	4836	574	-2.3	-16.9	77	5
2023-09-08T12:00	4859	572	-2.5	-17.0	78	5
2023-09-08T12:00	4896	570	-2.7	-17.5	78	5
2023-09-08T12:00	4920	568	-2.8	-17.8	76	6
2023-09-08T12:00	4942	567	-2.7	-20.6	73	6
2023-09-08T12:00	4961	565	-2.8	-21.7	69	6
2023-09-08T12:00	4981	564	-2.8	-21.9	66	6
2023-09-08T12:00	4999	562	-2.8	-22.2	63	6
2023-09-08T12:00	5024	561	-2.8	-23.8	60	6
2023-09-08T12:00	5049	559	-3.0	-22.8	59	5
2023-09-08T12:00	5080	557	-3.3	-20.0	59	5
2023-09-08T12:00	5109	555	-3.4	-18.9	60	5
2023-09-08T12:00	5139	553	-3.5	-19.3	60	4
2023-09-08T12:00	5168	551	-3.8	-19.1	58	5
2023-09-08T12:00	5198	549	-4.0	-19.7	53	5
2023-09-08T12:00	5222	547	-4.0	-24.8	46	6
2023-09-08T12:00	5248	545	-4.1	-25.1	41	7
2023-09-08T12:00	5279	543	-4.4	-24.8	38	8
2023-09-08T12:00	5305	541	-4.6	-24.3	38	8
2023-09-08T12:00	5332	539	-4.8	-23.9	39	8
2023-09-08T12:00	5357	538	-5.0	-24.2	42	8
2023-09-08T12:00	5380	536	-5.2	-24.3	45	8
2023-09-08T12:00	5400	534	-5.3	-24.4	48	8
2023-09-08T12:00	5425	533	-5.5	-24.7	50	8
2023-09-08T12:00	5461	530	-5.8	-25.4	50	8
2023-09-08T12:00	5492	528	-6.0	-25.6	50	8
2023-09-08T12:00	5517	527	-6.2	-25.8	47	8
2023-09-08T12:00	5547	525	-6.4	-25.7	44	7
2023-09-08T12:00	5571	523	-6.5	-26.6	39	7
2023-09-08T12:00	5592	521	-6.6	-27.1	34	6
2023-09-08T12:00	5616	520	-6.8	-27.6	30	6
2023-09-08T12:00	5645	518	-6.9	-27.9	27	5
2023-09-08T12:00	5676	516	-7.1	-28.1	25	5
2023-09-08T12:00	5707	514	-7.3	-28.4	23	5
2023-09-08T12:00	5741	512	-7.6	-28.9	21	4
2023-09-08T12:00	5770	510	-7.7	-30.6	18	4
2023-09-08T12:00	5798	508	-7.8	-33.0	14	4
2023-09-08T12:00	5817	507	-7.9	-32.2	11	4
2023-09-08T12:00	5838	505	-8.1	-32.1	6	4
2023-09-08T12:00	5861	504	-8.3	-31.7	1	3
2023-09-08T12:00	5893	502	-8.5	-30.7	355	3
2023-09-08T12:00	5924	500	-8.7	-30.3	350	3
2023-09-08T12:00	5953	498	-8.9	-30.3	348	3
2023-09-08T12:00	5982	496	-9.1	-30.1	351	3
2023-09-08T12:00	6010	494	-9.3	-29.8	356	3
2023-09-08T12:00	6042	492	-9.5	-28.6	0	4
2023-09-08T12:00	6063	491	-9.7	-28.9	4	4
2023-09-08T12:00	6090	489	-9.9	-29.5	5	4
2023-09-08T12:00	6121	487	-10.0	-30.5	5	4
2023-09-08T12:00	6148	485	-10.1	-31.2	3	4
2023-09-08T12:00	6184	483	-10.3	-32.8	0	3
2023-09-08T12:00	6208	482	-10.4	-33.0	357	3
2023-09-08T12:00	6228	480	-10.6		354	3
2023-09-08T12:00	6251	479	-10.7	-34.4	351	3
2023-09-08T12:00	6284	477	-10.9	-35.1	349	2
2023-09-08T12:00	6314	475	-11.1	-35.6	344	2
2023-09-08T12:00	6346	473	-11.2	-35.9	334	2
2023-09-08T12:00	6367	472	-11.3	-36.0	317	2
2023-09-08T12:00	6390	470	-11.5	-36.1	294	2
2023-09-08T12:00	6418	469	-11.6	-36.1	273	2
2023-09-08T12:00	6451	467	-11.8	-36.6	255	2
2023-09-08T12:00	6479	465	-11.9	-34.9	241	2
2023-09-08T12:00	6513	463	-12.0	-34.9	231	3
2023-09-08T12:00	6542	461	-12.2	-34.8	225	3
2023-09-08T12:00	6576	459	-12.4	-34.5	222	3
2023-09-08T12:00	6606	457	-12.6	-34.2	219	3
2023-09-08T12:00	6634	456	-12.8	-34.1	215	2
2023-09-08T12:00	6658	454	-13.0	-34.2	208	2
2023-09-08T12:00	6690	452	-13.2	-34.4	200	2
2023-09-08T12:00	6725	450	-13.4	-34.4	192	2
2023-09-08T12:00	6752	449	-13.6	-34.1	188	2
2023-09-08T12:00	6774	447	-13.8	-34.2	193	1
2023-09-08T12:00	6794	446	-13.9	-34.4	205	2
2023-09-08T12:00	6817	445	-14.0	-34.8	217	2
2023-09-08T12:00	6841	443	-14.1	-35.1	225	2
2023-09-08T12:00	6873	442	-14.3	-35.2	228	2
2023-09-08T12:00	6900	440	-14.6		225	2
2023-09-08T12:00	6920	439	-14.7	-35.5	217	2
2023-09-08T12:00	6944	437	-14.9	-35.9	201	1
2023-09-08T12:00	6977	436	-15.0	-36.8	181	1
2023-09-08T12:00	7008	434	-15.2	-36.7	165	1
2023-09-08T12:00	7026	433	-15.3	-36.4	161	1
2023-09-08T12:00	7050	431	-15.4	-36.4	166	1
2023-09-08T12:00	7075	430	-15.6	-35.6	177	1
2023-09-08T12:00	7107	428	-15.8	-34.4	189	1
2023-09-08T12:00	7136	426	-16.0	-34.5	194	2
2023-09-08T12:00	7165	425	-16.3	-34.8	195	2
2023-09-08T12:00	7203	423	-16.6	-34.9	194	2
2023-09-08T12:00	7235	421	-16.9	-34.9	193	2
2023-09-08T12:00	7266	419	-17.1	-34.9	196	2
2023-09-08T12:00	7295	418	-17.4	-35.3	203	2
2023-09-08T12:00	7321	416	-17.6	-35.1	211	2
2023-09-08T12:00	7344	415	-17.8	-35.1	218	2
2023-09-08T12:00	7365	414	-18.0	-34.4	221	2
2023-09-08T12:00	7386	412	-18.1	-34.5	220	2
2023-09-08T12:00	7408	411	-18.3	-34.6	218	2
2023-09-08T12:00	7435	410	-18.6	-35.2	218	2
2023-09-08T12:00	7470	408	-18.8	-35.7	221	2
2023-09-08T12:00	7503	406	-19.1	-35.5	227	2
2023-09-08T12:00	7538	404	-19.4	-35.9	234	2
2023-09-08T12:00	7567	403	-19.6	-36.1	240	3
2023-09-08T12:00	7601	401	-19.9	-36.7	245	3
2023-09-08T12:00	7636	399	-20.1	-36.9	250	2
2023-09-08T12:00	7666	397	-20.3	-37.4	254	2
2023-09-08T12:00	7693	396	-20.5	-37.4	258	2
2023-09-08T12:00	7720	394	-20.7	-37.4	263	2
2023-09-08T12:00	7750	393	-21.0	-37.5	264	2
2023-09-08T12:00	7781	391	-21.3	-37.6	262	2
2023-09-08T12:00	7815	389	-21.6	-37.6	257	2
2023-09-08T12:00	7850	388	-21.9	-37.6	255	2
2023-09-08T12:00	7879	386	-22.2	-37.5	260	2
2023-09-08T12:00	7912	384	-22.5		274	2
2023-09-08T12:00	7944	383	-22.8	-37.8	294	2
2023-09-08T12:00	7975	381	-23.1	-37.6	313	2
2023-09-08T12:00	8008	379	-23.4	-37.8	324	2
2023-09-08T12:00	8047	377	-23.7	-37.7	327	2
2023-09-08T12:00	8080	375	-24.1	-37.9	324	2
2023-09-08T12:00	8113	374	-24.4	-37.9	319	2
2023-09-08T12:00	8140	372	-24.6	-37.9	315	2
2023-09-08T12:00	8163	371	-24.9	-37.9	314	3
2023-09-08T12:00	8186	370	-25.1	-38.0	317	3
2023-09-08T12:00	8208	369	-25.3	-37.8	322	3
2023-09-08T12:00	8232	368	-25.5	-37.7	326	3
2023-09-08T12:00	8252	367	-25.7	-37.7	328	3
2023-09-08T12:00	8278	365	-26.0	-37.8	328	3
2023-09-08T12:00	8311	364	-26.3	-38.0	325	3
2023-09-08T12:00	8346	362	-26.6	-38.1	323	3
2023-09-08T12:00	8376	360	-26.9	-38.3	323	3
2023-09-08T12:00	8406	359	-27.2	-38.3	325	3
2023-09-08T12:00	8437	357	-27.5	-38.4	329	3
2023-09-08T12:00	8469	356	-27.8	-38.4	333	4
2023-09-08T12:00	8500	354	-28.1	-38.6	336	4
2023-09-08T12:00	8532	353	-28.4	-38.6	339	4
2023-09-08T12:00	8563	351	-28.7	-38.9	340	4
2023-09-08T12:00	8590	350	-28.9	-39.5	341	4
2023-09-08T12:00	8619	348	-29.2	-39.5	341	3
2023-09-08T12:00	8650	347	-29.5	-39.5	341	3
2023-09-08T12:00	8679	346	-29.8	-39.7	340	3
2023-09-08T12:00	8712	344	-30.1	-40.3	337	3
2023-09-08T12:00	8743	342	-30.2	-41.3	333	4
2023-09-08T12:00	8775	341	-30.5	-42.2	329	4
2023-09-08T12:00	8806	339	-30.7	-42.5	326	5
2023-09-08T12:00	8835	338	-30.9	-42.7	324	5
2023-09-08T12:00	8866	337	-31.1	-44.0	323	5
2023-09-08T12:00	8896	335	-31.3	-45.0	321	5
2023-09-08T12:00	8925	334	-31.5	-46.0	319	5
2023-09-08T12:00	8956	332	-31.7	-46.2	315	5
2023-09-08T12:00	8983	331	-31.9	-46.1	310	5
2023-09-08T12:00	9009	330	-32.1	-46.2	304	5
2023-09-08T12:00	9038	328	-32.2	-47.0	299	6
2023-09-08T12:00	9071	327	-32.5	-47.1	295	6
2023-09-08T12:00	9106	325	-32.8	-47.4	292	6
2023-09-08T12:00	9129	324	-33.0	-47.9	290	6
2023-09-08T12:00	9152	323	-33.1	-48.1	291	5
2023-09-08T12:00	9177	322	-33.2	-48.6	293	5
2023-09-08T12:00	9206	321	-33.4	-49.2	296	5
2023-09-08T12:00	9227	320	-33.5	-49.7	298	5
2023-09-08T12:00	9254	318	-33.6	-50.2	299	5
2023-09-08T12:00	9283	317	-33.7	-50.0	299	5
2023-09-08T12:00	9312	316	-33.9	-50.1	299	6
2023-09-08T12:00	9333	315	-34.0	-50.8	299	6
2023-09-08T12:00	9358	314	-34.1	-51.2	300	6
2023-09-08T12:00	9388	313	-34.2	-51.2	301	7
2023-09-08T12:00	9417	311	-34.4	-51.6	302	7
2023-09-08T12:00	9442	310	-34.5	-51.8	303	8
2023-09-08T12:00	9466	309	-34.7	-51.8	303	8
2023-09-08T12:00	9491	308	-34.9	-51.7	303	8
2023-09-08T12:00	9519	307	-35.2	-51.6	304	9
2023-09-08T12:00	9549	305	-35.4	-51.6	304	9
2023-09-08T12:00	9571	304	-35.5	-51.5	304	10
2023-09-08T12:00	9593	303	-35.6	-51.7	304	10
2023-09-08T12:00	9619	302	-35.8	-51.9	304	11
2023-09-08T12:00	9647	301	-36.0	-51.7	304	11
2023-09-08T12:00	9678	300	-36.2	-52.0	304	11
2023-09-08T12:00	9708	298	-36.5	-52.7	303	12
2023-09-08T12:00	9741	297	-36.7	-52.7	303	12
2023-09-08T12:00	9768	296	-37.0	-52.6	303	12
2023-09-08T12:00	9800	295	-37.2	-52.4	304	12
2023-09-08T12:00	9825	293	-37.4	-52.5	305	12
2023-09-08T12:00	9851	292	-37.7	-52.5	306	12
2023-09-08T12:00	9881	291	-37.9	-51.7	308	12
2023-09-08T12:00	9910	290	-38.2	-51.7	309	11
2023-09-08T12:00	9934	289	-38.4	-52.0	310	11
2023-09-08T12:00	9954	288	-38.6	-52.2	311	11
2023-09-08T12:00	9977	287	-38.7	-51.9	312	11
2023-09-08T12:00	10005	286	-39.0	-51.3	314	10
2023-09-08T12:00	10033	285	-39.2	-51.1	316	10
2023-09-08T12:00	10059	284	-39.4	-50.8	318	10
2023-09-08T12:00	10083	283	-39.6	-50.3	319	10
2023-09-08T12:00	10106	282	-39.8	-49.6	319	10
2023-09-08T12:00	10137	280	-40.1	-48.9	319	11
2023-09-08T12:00	10165	279	-40.3	-49.3	318	11
2023-09-08T12:00	10200	278	-40.7	-49.3	317	11
2023-09-08T12:00	10222	277	-40.9	-49.4	316	11
2023-09-08T12:00	10246	276	-41.1	-49.4	316	11
2023-09-08T12:00	10274	275	-41.4	-49.5	316	11
2023-09-08T12:00	10306	274	-41.7	-49.6	315	11
2023-09-08T12:00	10331	272	-41.9	-49.5	315	11
2023-09-08T12:00	10361	271	-42.2	-49.6	315	11
2023-09-08T12:00	10400	270	-42.5	-50.1	316	11
2023-09-08T12:00	10425	269	-42.6	-51.2	316	11
2023-09-08T12:00	10451	268	-42.9	-51.3	316	11
2023-09-08T12:00	10481	267	-43.2	-51.3	317	11
2023-09-08T12:00	10513	265	-43.4	-51.3	317	11
2023-09-08T12:00	10536	264	-43.7	-51.4	318	10
2023-09-08T12:00	10558	263	-43.9	-51.4	319	10
2023-09-08T12:00	10583	263	-44.1	-51.3	319	10
2023-09-08T12:00	10610	261	-44.3	-51.4	320	10
2023-09-08T12:00	10642	260	-44.6	-51.6	320	11
2023-09-08T12:00	10670	259	-44.8	-52.2	321	11
2023-09-08T12:00	10693	258	-44.9	-52.6	321	11
2023-09-08T12:00	10713	257	-45.1	-52.8	320	11
2023-09-08T12:00	10735	257	-45.3	-52.8	320	11
2023-09-08T12:00	10757	256	-45.4	-52.9	319	11
2023-09-08T12:00	10780	255	-45.6	-53.0	319	11
2023-09-08T12:00	10802	254	-45.8	-53.1	319	11
2023-09-08T12:00	10826	253	-46.0	-53.3	319	11
2023-09-08T12:00	10849	252	-46.2	-53.6	320	12
2023-09-08T12:00	10875	251	-46.4	-53.6	320	12
2023-09-08T12:00	10907	250	-46.7	-53.5	320	12
2023-09-08T12:00	10937	249	-47.0	-53.5	320	12
2023-09-08T12:00	10976	248	-47.4	-53.6	319	12
2023-09-08T12:00	10999	247	-47.6	-53.6	319	12
2023-09-08T12:00	11030	245	-47.9	-54.0	319	12
2023-09-08T12:00	11057	244	-48.1	-54.4	320	12
2023-09-08T12:00	11082	244	-48.3	-54.7	321	12
2023-09-08T12:00	11107	243	-48.5	-54.6	321	12
2023-09-08T12:00	11130	242	-48.7	-54.4	322	12
2023-09-08T12:00	11150	241	-48.9	-54.3	322	12
2023-09-08T12:00	11171	240	-49.0	-54.2	322	13
2023-09-08T12:00	11193	239	-49.2	-54.6	322	12
2023-09-08T12:00	11216	239	-49.3	-55.1	322	12
2023-09-08T12:00	11244	238	-49.5	-55.6	323	12
2023-09-08T12:00	11265	237	-49.7	-55.9	324	12
2023-09-08T12:00	11287	236	-49.8	-56.7	325	12
2023-09-08T12:00	11308	235	-50.0	-58.7	326	12
2023-09-08T12:00	11330	235	-50.0	-60.0	326	11
2023-09-08T12:00	11351	234	-50.2	-60.1	326	11
2023-09-08T12:00	11374	233	-50.4	-59.7	326	11
2023-09-08T12:00	11399	232	-50.6	-59.4	326	12
2023-09-08T12:00	11425	231	-50.9	-59.1	325	12
2023-09-08T12:00	11452	230	-51.0	-58.2	325	12
2023-09-08T12:00	11481	229	-51.3	-58.1	324	12
2023-09-08T12:00	11505	228	-51.5	-58.6	324	12
2023-09-08T12:00	11527	228	-51.7	-58.9	324	12
2023-09-08T12:00	11547	227	-51.9	-59.0	324	12
2023-09-08T12:00	11568	226	-52.0	-59.1	324	12
2023-09-08T12:00	11590	225	-52.2	-59.2	324	12
2023-09-08T12:00	11611	225	-52.3	-59.1	324	12
2023-09-08T12:00	11630	224	-52.4	-58.8	324	12
2023-09-08T12:00	11651	223	-52.5	-58.3	323	12
2023-09-08T12:00	11670	223	-52.6	-57.9	323	12
2023-09-08T12:00	11691	222	-52.7	-57.6	323	12
2023-09-08T12:00	11711	221	-52.9	-57.7	323	12
2023-09-08T12:00	11731	220	-53.0	-58.2	324	12
2023-09-08T12:00	11752	220	-53.1	-59.0	325	12
2023-09-08T12:00	11774	219	-53.2	-59.2	325	12
2023-09-08T12:00	11795	218	-53.3	-59.0	325	12
2023-09-08T12:00	11814	218	-53.5	-59.0	325	12
2023-09-08T12:00	11835	217	-53.6	-59.0	324	12
2023-09-08T12:00	11854	216	-53.8	-58.9	323	12
2023-09-08T12:00	11874	216	-53.9	-58.7	322	12
2023-09-08T12:00	11893	215	-53.9	-58.8	322	12
2023-09-08T12:00	11914	214	-54.0	-59.5	322	12
2023-09-08T12:00	11935	214	-54.1	-60.5	323	12
2023-09-08T12:00	11956	213	-54.3	-61.1	323	12
2023-09-08T12:00	11976	212	-54.4	-60.9	322	12
2023-09-08T12:00	11996	212	-54.6	-60.6	322	12
2023-09-08T12:00	12017	211	-54.7	-60.2	322	12
2023-09-08T12:00	12035	210	-54.9	-60.3	322	12
2023-09-08T12:00	12056	210	-55.0	-60.3	322	13
2023-09-08T12:00	12076	209	-55.2	-60.3	322	13
2023-09-08T12:00	12095	208	-55.3	-60.2	323	14
2023-09-08T12:00	12117	208	-55.3	-60.4	323	14
2023-09-08T12:00	12136	207	-55.4	-61.1	324	15
2023-09-08T12:00	12157	206	-55.4	-62.0	324	15
2023-09-08T12:00	12175	206	-55.5	-63.2	324	15
2023-09-08T12:00	12198	205	-55.7	-64.2	325	15
2023-09-08T12:00	12217	204	-55.8	-64.6	325	15
2023-09-08T12:00	12237	204	-56.0	-64.8	325	15
2023-09-08T12:00	12259	203	-56.0	-64.5	326	15
2023-09-08T12:00	12278	202	-56.1	-64.3	326	15
2023-09-08T12:00	12297	202	-56.3	-64.3	327	15
2023-09-08T12:00	12315	201	-56.5	-64.4	327	15
2023-09-08T12:00	12338	201	-56.6	-64.4	327	15
2023-09-08T12:00	12354	200	-56.8	-64.7	327	15
2023-09-08T12:00	12377	199	-56.9	-65.0	328	14
2023-09-08T12:00	12398	199	-57.0	-65.5	328	14
2023-09-08T12:00	12417	198	-57.1	-65.9	328	14
2023-09-08T12:00	12436	197	-57.3	-65.9	327	14
2023-09-08T12:00	12457	197	-57.4	-65.5	327	14
2023-09-08T12:00	12476	196	-57.6	-65.2	328	14
2023-09-08T12:00	12497	196	-57.7	-65.0	328	14
2023-09-08T12:00	12515	195	-57.8	-65.1	329	14
2023-09-08T12:00	12535	194	-57.9	-65.5	331	14
2023-09-08T12:00	12555	194	-58.1		332	13
2023-09-08T12:00	12576	193	-58.2	-66.1	332	13
2023-09-08T12:00	12595	192	-58.4	-65.9	332	13
2023-09-08T12:00	12613	192	-58.5	-65.1	332	13
2023-09-08T12:00	12636	191	-58.7	-64.3	331	13
2023-09-08T12:00	12655	191	-58.8	-63.9	330	13
2023-09-08T12:00	12674	190	-58.9	-64.0	330	13
2023-09-08T12:00	12695	189	-59.0	-64.3	330	13
2023-09-08T12:00	12717	189	-59.1	-64.6	330	12
2023-09-08T12:00	12737	188	-59.3	-64.9	329	13
2023-09-08T12:00	12757	188	-59.5	-65.2	328	13
2023-09-08T12:00	12776	187	-59.6	-65.3	327	13
2023-09-08T12:00	12797	186	-59.7	-65.3	326	13
2023-09-08T12:00	12817	186	-59.8	-65.4	325	13
2023-09-08T12:00	12837	185	-60.0	-65.6	325	13
2023-09-08T12:00	12857	185	-59.9	-65.4	326	13
2023-09-08T12:00	12878	184	-60.1	-65.3	326	13
2023-09-08T12:00	12897	183	-60.2	-64.9	326	13
2023-09-08T12:00	12918	183	-60.3	-64.6	326	13
2023-09-08T12:00	12939	182	-60.4	-64.6	324	14
2023-09-08T12:00	12961	182	-60.5	-64.8	323	14
2023-09-08T12:00	12982	181	-60.5	-65.1	322	14
2023-09-08T12:00	13004	180	-60.6	-65.4	320	14
2023-09-08T12:00	13026	180	-60.6	-65.6	319	14
2023-09-08T12:00	13046	179	-60.7	-65.9	318	14
2023-09-08T12:00	13064	179	-60.7	-66.1	317	14
2023-09-08T12:00	13087	178	-60.8	-66.3	317	14
2023-09-08T12:00	13105	177	-60.9	-66.4	316	14
2023-09-08T12:00	13126	177	-61.0	-66.6	317	14
2023-09-08T12:00	13146	176	-61.1	-66.9	317	14
2023-09-08T12:00	13167	176	-61.2	-67.3	318	15
2023-09-08T12:00	13187	175	-61.2	-67.6	319	15
2023-09-08T12:00	13208	174	-61.2	-67.9	320	15
2023-09-08T12:00	13229	174	-61.1	-68.1	320	15
2023-09-08T12:00	13249	173	-61.2	-68.4	321	15
2023-09-08T12:00	13271	173	-61.3	-68.7	321	15
2023-09-08T12:00	13290	172	-61.4	-69.1	322	15
2023-09-08T12:00	13311	172	-61.3	-69.3	322	15
2023-09-08T12:00	13330	171	-61.4	-69.6	322	15
2023-09-08T12:00	13352	170	-61.5	-69.9	322	16
2023-09-08T12:00	13373	170	-61.7	-70.1	321	16
2023-09-08T12:00	13393	169	-61.8		321	16
2023-09-08T12:00	13414	169	-61.9	-70.2	321	16
2023-09-08T12:00	13434	168	-62.1	-70.3	321	16
2023-09-08T12:00	13456	168	-62.2	-70.1	322	15
2023-09-08T12:00	13477	167	-62.4	-70.0	322	15
2023-09-08T12:00	13495	167	-62.6	-69.9	323	15
2023-09-08T12:00	13514	166	-62.8	-69.7	324	15
2023-09-08T12:00	13538	165	-62.9	-69.5	324	15
2023-09-08T12:00	13556	165	-63.0	-69.3	324	15
2023-09-08T12:00	13577	164	-63.1	-69.1	324	15
2023-09-08T12:00	13597	164	-63.2	-69.0	324	15
2023-09-08T12:00	13619	163	-63.3	-69.0	323	15
2023-09-08T12:00	13638	163	-63.3	-69.1	323	14
2023-09-08T12:00	13658	162	-63.3	-69.6	323	14
2023-09-08T12:00	13679	162	-63.2	-70.5	323	14
2023-09-08T12:00	13699	161	-62.6	-71.2	324	14
2023-09-08T12:00	13721	161	-62.1	-72.1	324	14
2023-09-08T12:00	13739	160	-62.1	-73.2	324	13
2023-09-08T12:00	13760	160	-62.1	-74.0	323	13
2023-09-08T12:00	13779	159	-62.3	-74.5	322	13
2023-09-08T12:00	13800	159	-62.4	-74.6	321	13
2023-09-08T12:00	13822	158	-62.7	-74.9	320	13
2023-09-08T12:00	13843	157	-62.8	-75.0	319	13
2023-09-08T12:00	13865	157	-62.8	-75.1	319	14
2023-09-08T12:00	13888	156	-62.8	-75.2	320	14
2023-09-08T12:00	13907	156	-62.9	-75.4	321	14
2023-09-08T12:00	13932	155	-63.0	-75.6	322	14
2023-09-08T12:00	13951	155	-63.0	-75.7	323	15
2023-09-08T12:00	13974	154	-63.0	-75.7	324	15
2023-09-08T12:00	13996	154	-63.1	-75.9	324	15
2023-09-08T12:00	14015	153	-63.0		324	15
2023-09-08T12:00	14037	153	-63.1	-76.1	325	15
2023-09-08T12:00	14058	152	-63.3	-76.4	325	15
2023-09-08T12:00	14079	151	-63.4	-76.7	326	15
2023-09-08T12:00	14103	151	-63.4	-76.8	327	15
2023-09-08T12:00	14124	150	-63.5	-77.1	329	15
2023-09-08T12:00	14146	150	-63.5	-77.4	330	15
2023-09-08T12:00	14168	149	-63.5	-77.7	331	15
2023-09-08T12:00	14190	149	-63.4	-77.9	332	15
2023-09-08T12:00	14209	148	-63.2	-78.0	333	15
2023-09-08T12:00	14231	148	-63.1	-78.0	333	14
2023-09-08T12:00	14251	147	-63.2	-78.1	333	14
2023-09-08T12:00	14275	147	-63.4	-78.1	333	14
2023-09-08T12:00	14292	146	-63.6	-78.1	333	13
2023-09-08T12:00	14315	146	-63.7	-77.8	333	13
2023-09-08T12:00	14340	145	-63.9	-77.8	333	12
2023-09-08T12:00	14358	145	-64.0	-77.5	333	12
2023-09-08T12:00	14378	144	-64.1	-77.4	333	12
2023-09-08T12:00	14399	144	-64.2	-77.4	333	11
2023-09-08T12:00	14422	143	-64.3	-77.5	332	11
2023-09-08T12:00	14444	143	-64.3	-77.7	331	11
2023-09-08T12:00	14465	142	-64.1	-77.9	331	11
2023-09-08T12:00	14486	142	-64.1	-78.4	332	11
2023-09-08T12:00	14511	141	-64.0	-78.9	334	11
2023-09-08T12:00	14530	141	-64.0	-79.5	337	11
2023-09-08T12:00	14551	140	-63.8	-80.0	340	10
2023-09-08T12:00	14573	140	-63.7	-80.3	343	10
2023-09-08T12:00	14593	139	-63.7	-80.6	346	10
2023-09-08T12:00	14613	139	-63.7	-80.8	348	10
2023-09-08T12:00	14632	138	-63.8	-80.8	349	10
2023-09-08T12:00	14656	138	-63.9	-80.6	350	10
2023-09-08T12:00	14677	137	-64.0	-80.3	350	9
2023-09-08T12:00	14695	137	-64.0	-79.7	350	9
2023-09-08T12:00	14718	137	-64.2	-79.4	350	9
2023-09-08T12:00	14740	136	-64.3	-79.1	350	9
2023-09-08T12:00	14758	136	-64.4	-78.9	350	8
2023-09-08T12:00	14776	135	-64.2	-78.7	349	8
2023-09-08T12:00	14795	135	-64.1	-78.7	348	7
2023-09-08T12:00	14819	134	-64.0	-78.9	347	7
2023-09-08T12:00	14837	134	-64.0	-79.2	344	7
2023-09-08T12:00	14858	133	-63.8	-79.3	341	6
2023-09-08T12:00	14881	133	-63.8	-79.6	337	6
2023-09-08T12:00	14901	132	-63.8	-79.7	333	6
2023-09-08T12:00	14922	132	-63.8	-79.8	329	6
2023-09-08T12:00	14944	132	-63.8	-79.9	325	5
2023-09-08T12:00	14964	131	-63.9	-80.1	322	5
2023-09-08T12:00	14986	131	-64.0	-80.1	319	5
2023-09-08T12:00	15008	130	-64.1	-80.2	315	5
2023-09-08T12:00	15029	130	-64.3	-80.3	312	5
2023-09-08T12:00	15052	129	-64.5	-80.3	308	5
2023-09-08T12:00	15074	129	-64.6	-80.3	304	5
2023-09-08T12:00	15097	128	-64.8	-80.3	300	5
2023-09-08T12:00	15116	128	-65.0	-80.5	296	5
2023-09-08T12:00	15138	127	-65.1	-80.5	293	5
2023-09-08T12:00	15162	127	-65.3	-80.5	291	6
2023-09-08T12:00	15184	127	-65.4	-80.6	292	6
2023-09-08T12:00	15205	126	-65.6	-80.8	295	7
2023-09-08T12:00	15225	126	-65.6	-80.9	298	8
2023-09-08T12:00	15246	125	-65.6	-81.1	303	8
2023-09-08T12:00	15265	125	-65.5	-81.2	306	9
2023-09-08T12:00	15286	124	-65.4	-81.4	309	9
2023-09-08T12:00	15306	124	-65.1	-81.4	312	10
2023-09-08T12:00	15327	124	-65.1	-81.7	314	10
2023-09-08T12:00	15352	123	-65.0	-81.7	317	10
2023-09-08T12:00	15371	123	-65.1	-82.0	319	11
2023-09-08T12:00	15395	122	-65.1	-82.1	320	11
2023-09-08T12:00	15412	122	-65.1	-82.1	321	10
2023-09-08T12:00	15435	121	-65.0	-82.1	321	10
2023-09-08T12:00	15456	121	-64.9	-82.2	320	10
2023-09-08T12:00	15476	121	-64.9	-82.4	319	9
2023-09-08T12:00	15497	120	-64.8	-82.4	319	9
2023-09-08T12:00	15518	120	-64.7	-82.4	320	9
2023-09-08T12:00	15543	119	-64.7	-82.5	322	8
2023-09-08T12:00	15560	119	-64.7	-82.6	325	8
2023-09-08T12:00	15583	119	-64.7	-82.6	330	8
2023-09-08T12:00	15600	118	-64.7	-82.6	334	8
2023-09-08T12:00	15622	118	-64.8	-82.8	339	8
2023-09-08T12:00	15643	117	-64.9	-83.0	341	8
2023-09-08T12:00	15663	117	-64.7	-82.9	343	8
2023-09-08T12:00	15686	117	-64.4	-82.8	343	8
2023-09-08T12:00	15706	116	-64.2	-83.0	344	7
2023-09-08T12:00	15730	116	-63.9	-83.1	346	7
2023-09-08T12:00	15751	115	-63.5	-83.0	348	7
2023-09-08T12:00	15773	115	-63.1	-82.9	351	6
2023-09-08T12:00	15795	114	-62.9	-83.0	352	6
2023-09-08T12:00	15817	114	-63.0	-83.0	352	6
2023-09-08T12:00	15836	114	-63.1	-83.3	351	5
2023-09-08T12:00	15859	113	-63.2	-83.3	349	5
2023-09-08T12:00	15879	113	-63.3	-83.4	347	5
2023-09-08T12:00	15901	112	-63.0	-83.2	345	6
2023-09-08T12:00	15923	112	-63.0	-83.3	344	6
2023-09-08T12:00	15942	112	-63.1	-83.4	342	6
2023-09-08T12:00	15962	111	-63.2	-83.6	341	6
2023-09-08T12:00	15984	111	-63.3	-83.7	340	6
2023-09-08T12:00	16007	111	-63.3	-83.8	339	6
2023-09-08T12:00	16027	110	-63.2	-83.9	340	6
2023-09-08T12:00	16049	110	-63.2	-84.0	341	6
2023-09-08T12:00	16070	109	-63.2	-84.2	342	5
2023-09-08T12:00	16089	109	-63.2	-84.3	342	5
2023-09-08T12:00	16114	109	-63.3	-84.6	341	4
2023-09-08T12:00	16137	108	-63.3	-84.7	338	3
2023-09-08T12:00	16160	108	-62.9	-84.6	332	3
2023-09-08T12:00	16180	107	-62.2	-84.2	325	2
2023-09-08T12:00	16203	107	-62.2	-84.3	317	2
2023-09-08T12:00	16226	107	-62.4	-84.5	313	3
2023-09-08T12:00	16245	106	-62.5	-84.6	310	3
2023-09-08T12:00	16266	106	-62.8	-84.6	308	4
2023-09-08T12:00	16291	106	-62.8	-84.6	308	4
2023-09-08T12:00	16315	105	-63.0	-84.8	308	5
2023-09-08T12:00	16338	105	-63.2	-85.0	310	5
2023-09-08T12:00	16356	104	-63.3	-85.1	312	6
2023-09-08T12:00	16376	104	-63.4	-85.3	316	6
2023-09-08T12:00	16400	104	-63.0	-85.2	320	6
2023-09-08T12:00	16422	103	-62.6	-85.0	324	6
2023-09-08T12:00	16444	103	-62.5	-84.9	329	6
2023-09-08T12:00	16465	103	-62.6	-85.2	333	6
2023-09-08T12:00	16486	102	-62.7	-85.3	336	6
2023-09-08T12:00	16508	102	-62.8	-85.4	338	5
2023-09-08T12:00	16529	102	-62.8	-85.6	338	5
2023-09-08T12:00	16551	101	-62.7	-85.5	335	4
2023-09-08T12:00	16573	101	-62.7	-85.5	329	4
2023-09-08T12:00	16596	100	-62.6	-85.4	322	4
2023-09-08T12:00	16618	100	-62.6	-85.4	318	4
2023-09-08T12:00	16637	100	-62.5	-85.5	317	4
2023-09-08T12:00	16658	99	-62.4	-85.5	320	5
2023-09-08T12:00	16680	99	-62.3	-85.4	325	5
2023-09-08T12:00	16705	99	-62.4	-85.5	331	6
2023-09-08T12:00	16726	98	-62.3	-85.6	337	6
2023-09-08T12:00	16749	98	-62.2	-85.5	344	6
2023-09-08T12:00	16770	98	-62.2	-85.7	352	6
2023-09-08T12:00	16790	97	-62.0	-85.6	360	6
2023-09-08T12:00	16817	97	-61.8	-85.6	8	6
2023-09-08T12:00	16837	97	-61.6	-85.5	18	5
2023-09-08T12:00	16861	96	-61.3	-85.5	27	4
2023-09-08T12:00	16883	96	-61.1	-85.6	36	4
2023-09-08T12:00	16909	96	-61.0	-85.5	42	3
2023-09-08T12:00	16931	95	-61.0	-85.7	44	3
2023-09-08T12:00	16952	95	-60.9	-85.7	39	2
2023-09-08T12:00	16974	95	-60.6	-85.4	27	2
2023-09-08T12:00	16995	94	-60.7	-85.5	13	2
2023-09-08T12:00	17015	94	-60.8	-85.6	2	2
2023-09-08T12:00	17039	94	-60.8	-85.6	355	3
2023-09-08T12:00	17061	93	-60.9	-85.7	351	3
2023-09-08T12:00	17084	93	-61.0	-85.7	351	4
2023-09-08T12:00	17105	93	-61.1	-85.6	352	4
2023-09-08T12:00	17125	92	-61.2	-85.6	356	4
2023-09-08T12:00	17150	92	-61.2	-85.9	2	4
2023-09-08T12:00	17165	92	-61.3	-86.0	9	4
2023-09-08T12:00	17191	91	-61.1	-85.8	17	4
2023-09-08T12:00	17209	91	-60.7	-85.8	26	3
2023-09-08T12:00	17234	91	-60.5	-85.6	34	3
2023-09-08T12:00	17254	90	-60.6	-85.7	43	3
2023-09-08T12:00	17276	90	-60.6	-85.7	50	3
2023-09-08T12:00	17298	90	-60.7	-85.8	54	3
2023-09-08T12:00	17323	89	-60.7	-85.8	55	3
2023-09-08T12:00	17344	89	-60.7	-85.8	52	3
2023-09-08T12:00	17366	89	-60.7	-86.0	45	3
2023-09-08T12:00	17386	88	-60.4	-85.8	36	3
2023-09-08T12:00	17413	88	-60.3	-85.7	28	3
2023-09-08T12:00	17431	88	-60.3	-86.0	23	3
2023-09-08T12:00	17452	88	-60.2	-85.9	21	3
2023-09-08T12:00	17476	87	-60.2	-85.9	19	4
2023-09-08T12:00	17497	87	-60.2	-85.9	17	4
2023-09-08T12:00	17517	87	-60.0	-86.1	14	5
2023-09-08T12:00	17541	86	-59.9	-86.0	12	5
2023-09-08T12:00	17566	86	-59.8	-85.9	8	5
2023-09-08T12:00	17584	86	-59.9	-86.0	5	5
2023-09-08T12:00	17608	85	-59.9	-86.0	1	5
2023-09-08T12:00	17628	85	-60.0	-86.1	357	5
2023-09-08T12:00	17649	85	-60.0	-86.1	354	5
2023-09-08T12:00	17672	85	-59.9	-86.0	353	5
2023-09-08T12:00	17694	84	-59.8	-85.9	355	6
2023-09-08T12:00	17717	84	-59.9	-86.0	357	6
2023-09-08T12:00	17735	84	-59.9	-86.0	1	6
2023-09-08T12:00	17758	83	-59.9	-86.0	4	6
2023-09-08T12:00	17782	83	-59.8	-85.9	6	6
2023-09-08T12:00	17801	83	-59.8	-86.3	8	6
2023-09-08T12:00	17825	82	-59.8	-86.3	10	6
2023-09-08T12:00	17847	82	-59.9	-86.0	12	6
2023-09-08T12:00	17871	82	-60.1	-86.2	14	6
2023-09-08T12:00	17890	82	-60.2	-86.3	17	5
2023-09-08T12:00	17918	81	-60.3	-86.3	19	5
2023-09-08T12:00	17940	81	-60.3	-86.3	20	5
2023-09-08T12:00	17962	81	-60.4		21	4
2023-09-08T12:00	17984	80	-60.4		22	4
2023-09-08T12:00	18006	80	-60.4		23	4
2023-09-08T12:00	18032	80	-60.4		24	4
2023-09-08T12:00	18053	79	-60.3	-86.3	25	4
2023-09-08T12:00	18076	79	-60.4		25	3
2023-09-08T12:00	18097	79	-60.4		25	3
2023-09-08T12:00	18121	79	-60.4		24	3
2023-09-08T12:00	18146	78	-60.5	-86.5	24	3
2023-09-08T12:00	18164	78	-60.6	-86.6	26	3
2023-09-08T12:00	18191	78	-60.6	-86.6	29	3
2023-09-08T12:00	18211	77	-60.7	-86.6	34	3
2023-09-08T12:00	18238	77	-60.7	-86.6	40	3
2023-09-08T12:00	18256	77	-60.6	-86.6	46	3
2023-09-08T12:00	18277	77	-60.7	-86.6	50	3
2023-09-08T12:00	18302	76	-60.8		53	3
2023-09-08T12:00	18325	76	-60.9	-86.8	54	3
2023-09-08T12:00	18348	76	-61.0	-86.9	53	3
2023-09-08T12:00	18366	76	-61.1	-86.6	51	2
2023-09-08T12:00	18392	75	-61.1	-86.6	49	2
2023-09-08T12:00	18415	75	-61.2	-86.7	49	2
2023-09-08T12:00	18436	75	-61.2	-87.0	50	2
2023-09-08T12:00	18459	74	-61.1	-87.0	53	3
2023-09-08T12:00	18478	74	-61.1	-87.0	57	3
2023-09-08T12:00	18505	74	-61.1	-87.0	61	3
2023-09-08T12:00	18528	74	-60.9	-86.8	65	3
2023-09-08T12:00	18550	73	-60.9	-86.8	69	3
2023-09-08T12:00	18575	73	-61.0	-86.9	74	3
2023-09-08T12:00	18595	73	-61.1	-87.0	77	3
2023-09-08T12:00	18615	73	-61.2	-87.0	79	3
2023-09-08T12:00	18639	72	-61.1	-87.0	80	3
2023-09-08T12:00	18663	72	-61.0	-87.2	78	3
2023-09-08T12:00	18680	72	-60.8	-87.0	74	2
2023-09-08T12:00	18709	72	-60.7	-87.0	65	2
2023-09-08T12:00	18727	71	-60.6	-86.9	50	1
2023-09-08T12:00	18753	71	-60.5	-86.8	30	1
2023-09-08T12:00	18778	71	-60.5	-86.8	12	1
2023-09-08T12:00	18804	71	-60.5	-86.8	360	2
2023-09-08T12:00	18820	70	-60.6	-86.9	351	2
2023-09-08T12:00	18845	70	-60.8	-87.0	343	2
2023-09-08T12:00	18869	70	-60.9	-87.1	336	2
2023-09-08T12:00	18892	69	-60.7	-87.0	330	2
2023-09-08T12:00	18917	69	-60.7	-87.0	325	2
2023-09-08T12:00	18938	69	-60.8	-87.0	323	2
2023-09-08T12:00	18965	69	-60.9	-87.1	322	2
2023-09-08T12:00	18987	68	-60.9	-87.1	323	3
2023-09-08T12:00	19009	68	-61.0	-87.2	324	3
2023-09-08T12:00	19033	68	-60.9	-87.1	325	4
2023-09-08T12:00	19060	68	-60.7	-87.0	327	4
2023-09-08T12:00	19081	67	-60.6	-87.2	329	4
2023-09-08T12:00	19109	67	-60.5	-87.2	331	5
2023-09-08T12:00	19135	67	-60.4	-87.1	333	5
2023-09-08T12:00	19159	67	-60.3	-87.0	335	5
2023-09-08T12:00	19177	66	-60.2	-86.9	338	5
2023-09-08T12:00	19205	66	-60.2	-86.9	340	6
2023-09-08T12:00	19229	66	-60.1	-86.8	342	6
2023-09-08T12:00	19252	66	-60.2	-86.9	345	7
2023-09-08T12:00	19272	65	-60.3	-87.0	349	7
2023-09-08T12:00	19300	65	-60.3	-87.0	354	7
2023-09-08T12:00	19322	65	-60.3	-87.0	359	8
2023-09-08T12:00	19341	65	-60.2	-86.9	4	8
2023-09-08T12:00	19369	64	-59.9	-87.1	9	8
2023-09-08T12:00	19396	64	-59.7	-86.9	14	8
2023-09-08T12:00	19420	64	-59.7	-86.9	20	9
2023-09-08T12:00	19439	64	-59.7	-86.9	24	9
2023-09-08T12:00	19465	63	-59.5	-86.8	28	9
2023-09-08T12:00	19483	63	-59.3	-86.6	32	9
2023-09-08T12:00	19512	63	-59.4	-86.7	36	9
2023-09-08T12:00	19533	63	-59.5	-86.8	40	9
2023-09-08T12:00	19557	62	-59.6	-86.8	43	9
2023-09-08T12:00	19579	62	-59.7	-86.9	46	9
2023-09-08T12:00	19606	62	-59.7	-86.9	49	9
2023-09-08T12:00	19626	62	-59.7	-86.9	51	8
2023-09-08T12:00	19652	62	-59.7	-86.9	53	8
2023-09-08T12:00	19676	61	-59.7	-86.9	54	8
2023-09-08T12:00	19695	61	-59.7	-86.9	56	7
2023-09-08T12:00	19722	61	-59.8	-87.0	56	7
2023-09-08T12:00	19745	61	-59.9	-87.1	54	6
2023-09-08T12:00	19769	60	-59.9	-87.1	51	6
2023-09-08T12:00	19790	60	-59.9	-87.1	45	5
2023-09-08T12:00	19813	60	-59.8	-87.4	41	5
2023-09-08T12:00	19841	60	-59.5	-87.1	38	5
2023-09-08T12:00	19863	59	-59.3	-87.0	38	5
2023-09-08T12:00	19887	59	-59.1	-87.3	40	5
2023-09-08T12:00	19912	59	-58.8	-87.0	43	5
2023-09-08T12:00	19930	59	-58.5	-86.8	45	5
2023-09-08T12:00	19953	59	-58.5	-86.8	46	4
2023-09-08T12:00	19980	58	-58.6	-86.9	45	4
2023-09-08T12:00	20003	58	-58.8	-87.0	41	3
2023-09-08T12:00	20022	58	-58.8	-87.0	36	3
2023-09-08T12:00	20054	58	-58.7	-87.0	33	3
2023-09-08T12:00	20073	57	-58.5	-86.8	34	3
2023-09-08T12:00	20102	57	-58.4	-86.7	35	3
2023-09-08T12:00	20116	57	-58.1	-87.0	35	2
2023-09-08T12:00	20147	57	-57.7	-86.7	30	2
2023-09-08T12:00	20164	57	-57.4	-86.4	12	1
2023-09-08T12:00	20191	56	-57.3	-86.4	341	1
2023-09-08T12:00	20216	56	-57.3	-86.4	321	2
2023-09-08T12:00	20243	56	-57.4	-86.4	318	2
2023-09-08T12:00	20259	56	-57.3	-86.4	324	2
2023-09-08T12:00	20284	56	-57.1	-86.2	331	2
2023-09-08T12:00	20306	55	-57.0	-86.1	337	3
2023-09-08T12:00	20336	55	-57.0	-86.1	341	3
2023-09-08T12:00	20357	55	-57.0	-86.1	346	3
2023-09-08T12:00	20380	55	-57.1	-86.2	351	3
2023-09-08T12:00	20400	55	-57.0	-86.1	357	3
2023-09-08T12:00	20429	54	-57.0	-85.7	3	3
2023-09-08T12:00	20456	54	-57.1	-85.7	7	3
2023-09-08T12:00	20478	54	-57.2	-85.8	8	4
2023-09-08T12:00	20501	54	-57.3	-85.9	8	4
2023-09-08T12:00	20526	54	-57.4	-86.0	6	4
2023-09-08T12:00	20552	53	-57.4	-86.0	4	4
2023-09-08T12:00	20576	53	-57.4	-86.0	3	4
2023-09-08T12:00	20603	53	-57.5	-86.1	5	4
2023-09-08T12:00	20620	53	-57.6	-86.1	8	4
2023-09-08T12:00	20656	52	-57.7	-86.2	13	4
2023-09-08T12:00	20675	52	-57.8	-86.3	18	4
2023-09-08T12:00	20703	52	-57.7	-86.2	22	4
2023-09-08T12:00	20731	52	-57.7	-86.2	27	4
2023-09-08T12:00	20754	52	-57.9	-86.4	31	4
2023-09-08T12:00	20773	51	-58.0	-86.0	34	4
2023-09-08T12:00	20803	51	-58.2	-86.2	36	3
2023-09-08T12:00	20828	51	-58.4	-86.3	35	3
2023-09-08T12:00	20850	51	-58.5	-86.4	31	3
2023-09-08T12:00	20873	51	-58.5	-86.4	27	4
2023-09-08T12:00	20900	50	-58.5	-86.8	22	4
2023-09-08T12:00	20927	50	-58.4	-86.7	18	4
2023-09-08T12:00	20953	50	-58.2	-86.6	15	5
2023-09-08T12:00	20976	50	-57.9	-86.8	14	5
2023-09-08T12:00	20997	50	-57.8	-86.7	16	5
2023-09-08T12:00	21020	49	-57.7	-86.7	20	5
2023-09-08T12:00	21051	49	-57.6	-86.6	26	6
2023-09-08T12:00	21078	49	-57.5	-86.5	31	6
2023-09-08T12:00	21095	49	-57.5	-86.5	35	6
2023-09-08T12:00	21124	49	-57.2	-86.3	38	6
2023-09-08T12:00	21149	49	-57.0	-86.1	40	6
2023-09-08T12:00	21172	48	-56.9	-86.1	40	6
2023-09-08T12:00	21195	48	-56.9	-86.1	40	6
2023-09-08T12:00	21219	48	-56.9	-86.1	40	6
2023-09-08T12:00	21246	48	-56.8	-86.0	40	7
2023-09-08T12:00	21270	48	-56.8	-86.0	40	8
2023-09-08T12:00	21290	47	-56.9	-86.1	42	8
2023-09-08T12:00	21311	47	-56.9	-86.1	44	9
2023-09-08T12:00	21334	47	-56.8	-86.0	46	9
2023-09-08T12:00	21362	47	-56.9	-86.1	49	9
2023-09-08T12:00	21384	47	-56.8	-86.0	52	10
2023-09-08T12:00	21408	47	-56.8	-86.0	55	10
2023-09-08T12:00	21441	46	-56.8	-86.0	57	9
2023-09-08T12:00	21461	46	-56.8	-86.0	59	9
2023-09-08T12:00	21486	46	-56.8	-86.0	61	8
2023-09-08T12:00	21511	46	-56.6	-85.8	63	8
2023-09-08T12:00	21535	46	-56.5	-85.8	65	7
2023-09-08T12:00	21555	45	-56.5	-85.8	66	7
2023-09-08T12:00	21578	45	-56.4	-85.7	68	6
2023-09-08T12:00	21601	45	-56.5	-85.8	69	6
2023-09-08T12:00	21621	45	-56.5	-85.8	71	5
2023-09-08T12:00	21649	45	-56.5	-85.8	73	5
2023-09-08T12:00	21677	45	-56.5	-85.8	75	4
2023-09-08T12:00	21689	44	-56.4	-85.7	79	4
2023-09-08T12:00	21717	44	-56.3	-85.6	82	4
2023-09-08T12:00	21743	44	-56.3	-85.6	87	4
2023-09-08T12:00	21769	44	-56.2	-85.5	92	4
2023-09-08T12:00	21786	44	-56.3	-85.6	97	4
2023-09-08T12:00	21818	44	-56.5	-85.8	102	4
2023-09-08T12:00	21848	43	-56.7	-85.9	107	4
2023-09-08T12:00	21868	43	-56.9	-85.6	110	4
2023-09-08T12:00	21893	43	-57.0	-85.7	112	4
2023-09-08T12:00	21921	43	-57.1	-85.7	112	3
2023-09-08T12:00	21939	43	-57.2	-85.8	110	3
2023-09-08T12:00	21974	43	-57.4	-86.0	105	2
2023-09-08T12:00	21999	42	-57.6	-86.1	98	2
2023-09-08T12:00	22025	42	-57.8	-86.3	88	1
2023-09-08T12:00	22052	42	-58.0	-86.0	76	1
2023-09-08T12:00	22075	42	-58.1		64	1
2023-09-08T12:00	22097	42	-58.1		52	1
2023-09-08T12:00	22126	42	-58.2	-86.2	41	1
2023-09-08T12:00	22154	41	-58.3	-86.2	31	1
2023-09-08T12:00	22174	41	-58.5	-86.4	24	2
2023-09-08T12:00	22209	41	-58.6	-86.5	20	2
2023-09-08T12:00	22228	41	-58.7	-86.5	18	3
2023-09-08T12:00	22255	41	-58.7	-87.0	17	3
2023-09-08T12:00	22284	41	-58.6	-86.9	17	3
2023-09-08T12:00	22312	40	-58.2	-86.6	18	4
2023-09-08T12:00	22327	40	-58.0	-86.4	18	4
2023-09-08T12:00	22354	40	-58.1	-86.5	19	3
2023-09-08T12:00	22387	40	-58.1	-86.5	19	3
2023-09-08T12:00	22410	40	-58.2	-86.6	19	2
2023-09-08T12:00	22433	40	-58.3	-86.7	15	2
2023-09-08T12:00	22461	39	-58.4	-86.7	4	1
2023-09-08T12:00	22490	39	-58.5	-86.8	345	1
2023-09-08T12:00	22514	39	-58.5	-86.8	333	1
2023-09-08T12:00	22539	39	-58.5	-86.8	333	2
2023-09-08T12:00	22564	39	-58.3	-86.7	339	2
2023-09-08T12:00	22587	39	-58.1	-86.5	348	3
2023-09-08T12:00	22620	38	-58.1	-86.5	357	4
2023-09-08T12:00	22647	38	-58.2	-86.6	3	5
2023-09-08T12:00	22676	38	-58.3	-86.7	8	5
2023-09-08T12:00	22700	38	-58.3	-86.7	13	6
2023-09-08T12:00	22724	38	-58.4	-86.7	18	6
2023-09-08T12:00	22756	38	-58.4	-86.7	23	7
2023-09-08T12:00	22780	37	-58.4	-86.7	28	7
2023-09-08T12:00	22801	37	-58.2	-86.6	33	7
2023-09-08T12:00	22833	37	-58.1	-86.5	37	7
2023-09-08T12:00	22856	37	-57.9	-86.8	42	7
2023-09-08T12:00	22879	37	-57.8	-86.7	47	7
2023-09-08T12:00	22909	37	-57.6	-86.6	52	7
2023-09-08T12:00	22933	37	-57.2	-86.3	57	6
2023-09-08T12:00	22962	36	-57.0	-86.6	62	6
2023-09-08T12:00	22985	36	-57.0	-86.6	67	5
2023-09-08T12:00	23010	36	-56.9	-86.6	73	4
2023-09-08T12:00	23042	36	-56.9	-86.6	82	3
2023-09-08T12:00	23066	36	-56.9	-86.6	93	3
2023-09-08T12:00	23086	36	-56.8	-86.5	104	3
2023-09-08T12:00	23114	36	-56.6	-86.3	110	2
2023-09-08T12:00	23143	35	-56.4	-86.2	110	2
2023-09-08T12:00	23173	35	-56.3	-86.1	105	3
2023-09-08T12:00	23199	35	-56.2	-86.0	101	3
2023-09-08T12:00	23228	35	-56.2	-86.0	98	3
2023-09-08T12:00	23251	35	-56.2	-86.0	97	3
2023-09-08T12:00	23268	35	-56.1	-86.0	95	3
2023-09-08T12:00	23301	35	-55.9	-85.8	91	3
2023-09-08T12:00	23323	34	-55.7	-85.7	80	2
2023-09-08T12:00	23350	34	-55.7	-85.7	61	2
2023-09-08T12:00	23375	34	-55.6	-85.6	41	2
2023-09-08T12:00	23403	34	-55.7	-85.7	27	2
2023-09-08T12:00	23427	34	-55.7	-85.7	21	2
2023-09-08T12:00	23456	34	-55.6	-85.6	21	2
2023-09-08T12:00	23477	34	-55.5	-85.5	27	2
2023-09-08T12:00	23508	33	-55.5	-85.5	39	2
2023-09-08T12:00	23528	33	-55.3	-85.4	56	2
2023-09-08T12:00	23557	33	-55.2	-85.3	71	2
2023-09-08T12:00	23591	33	-55.2	-85.3	80	3
2023-09-08T12:00	23611	33	-55.3	-85.4	84	3
2023-09-08T12:00	23635	33	-55.3	-85.4	85	3
2023-09-08T12:00	23674	33	-55.3	-85.4	85	3
2023-09-08T12:00	23701	32	-55.1	-85.2	84	3
2023-09-08T12:00	23721	32	-55.1	-85.2	83	3
2023-09-08T12:00	23746	32	-55.1	-85.2	82	3
2023-09-08T12:00	23768	32	-55.1	-85.2	82	3
2023-09-08T12:00	23801	32	-55.2	-85.3	84	3
2023-09-08T12:00	23829	32	-55.3	-85.4	85	3
2023-09-08T12:00	23851	32	-55.4	-85.4	86	3
2023-09-08T12:00	23875	32	-55.5	-85.5	86	2
2023-09-08T12:00	23907	31	-55.5	-85.5	82	2
2023-09-08T12:00	23930	31	-55.4	-85.4	74	1
2023-09-08T12:00	23960	31	-55.4	-85.4	63	1
2023-09-08T12:00	23994	31	-55.4	-85.4	54	1
2023-09-08T12:00	24014	31	-55.3	-85.4	49	1
2023-09-08T12:00	24041	31	-55.3	-85.9	51	1
2023-09-08T12:00	24073	31	-55.1	-85.8	89	0
2023-09-08T12:00	24101	30	-55.0	-85.7	173	1
2023-09-08T12:00	24120	30	-55.0	-85.7	182	1
2023-09-08T12:00	24149	30	-55.1	-85.2	181	2
2023-09-08T12:00	24172	30	-55.2	-85.3	179	3
2023-09-08T12:00	24212	30	-55.3	-85.4	178	3
2023-09-08T12:00	24231	30	-55.3	-85.4	177	4
2023-09-08T12:00	24259	30	-55.5	-85.5	178	4
2023-09-08T12:00	24284	30	-55.7	-85.7	180	4
2023-09-08T12:00	24313	29	-55.8	-85.2	183	4
2023-09-08T12:00	24337	29	-56.0		186	4
2023-09-08T12:00	24365	29	-56.1	-85.5	189	5
2023-09-08T12:00	24395	29	-56.1	-85.5	193	5
2023-09-08T12:00	24421	29	-56.2	-86.0	197	5
2023-09-08T12:00	24454	29	-56.2	-86.0	201	5
2023-09-08T12:00	24479	29	-56.1	-86.0	205	6
2023-09-08T12:00	24507	29	-55.7	-85.7	209	6
2023-09-08T12:00	24539	28	-55.6	-86.1	213	5
2023-09-08T12:00	24555	28	-55.5	-86.1	217	5
2023-09-08T12:00	24591	28	-55.4	-86.0	223	5
2023-09-08T12:00	24613	28	-55.4	-86.0	230	4
2023-09-08T12:00	24637	28	-55.4	-85.4	238	4
2023-09-08T12:00	24665	28	-55.5	-85.5	245	4
2023-09-08T12:00	24700	28	-55.6	-85.6	251	4
2023-09-08T12:00	24721	28	-55.6	-85.6	254	3
2023-09-08T12:00	24754	27	-55.5	-85.5	256	3
2023-09-08T12:00	24775	27	-55.4	-85.4	258	2
2023-09-08T12:00	24806	27	-55.4	-85.4	266	2
2023-09-08T12:00	24839	27	-55.5	-85.5	283	2
2023-09-08T12:00	24855	27	-55.5	-85.5	305	1
2023-09-08T12:00	24892	27	-55.5	-85.5	323	2
2023-09-08T12:00	24915	27	-55.5	-85.5	335	2
2023-09-08T12:00	24943	27	-55.5	-86.1	341	2
2023-09-08T12:00	24971	27	-55.4	-86.0	344	3
2023-09-08T12:00	24995	26	-55.1	-85.8	345	3
2023-09-08T12:00	25025	26	-54.8	-85.5	343	3
2023-09-08T12:00	25053	26	-54.7	-85.5	338	2
2023-09-08T12:00	25077	26	-54.6	-85.4	331	2
2023-09-08T12:00	25103	26	-54.7	-85.5	324	2
2023-09-08T12:00	25132	26	-54.7	-85.5	319	2
2023-09-08T12:00	25160	26	-54.5	-85.3	317	1
2023-09-08T12:00	25184	26	-54.5	-85.3	320	1
2023-09-08T12:00	25214	26	-54.6	-85.4	330	1
2023-09-08T12:00	25244	25	-54.7	-85.5	350	1
2023-09-08T12:00	25269	25	-54.9	-85.1	16	1
2023-09-08T12:00	25302	25	-54.9	-85.1	36	2
2023-09-08T12:00	25322	25	-54.9	-85.1	46	2
2023-09-08T12:00	25364	25	-54.9	-85.1	49	3
2023-09-08T12:00	25383	25	-55.0	-85.1	51	4
2023-09-08T12:00	25417	25	-55.2	-85.3	51	4
2023-09-08T12:00	25435	25	-55.5	-85.5	52	4
2023-09-08T12:00	25461	25	-55.6	-85.6	54	4
2023-09-08T12:00	25492	24	-55.6	-85.6	58	4
2023-09-08T12:00	25513	24	-55.6	-85.6	61	4
2023-09-08T12:00	25556	24	-55.4	-85.4	67	4
2023-09-08T12:00	25569	24	-55.2	-85.8	73	4
2023-09-08T12:00	25596	24	-55.2	-85.8	77	4
2023-09-08T12:00	25631	24	-55.3	-85.4	81	5
2023-09-08T12:00	25665	24	-55.5	-85.5	84	5
2023-09-08T12:00	25694	24	-55.8	-85.7	86	4
2023-09-08T12:00	25717	24	-55.9	-85.8	87	4
2023-09-08T12:00	25746	24	-56.0	-85.9	86	4
2023-09-08T12:00	25779	23	-56.2	-86.0	84	3
2023-09-08T12:00	25787	23	-56.2	-86.0	78	3
2023-09-08T12:00	25834	23	-56.3	-86.1	64	2
2023-09-08T12:00	25859	23	-56.2	-86.0	44	2
2023-09-08T12:00	25884	23	-56.1	-86.0	30	2
2023-09-08T12:00	25921	23	-56.0	-85.9	25	3
2023-09-08T12:00	25939	23	-55.8	-86.3	24	4
2023-09-08T12:00	25972	23	-55.7	-86.2	25	4
2023-09-08T12:00	25995	23	-55.7	-86.2	27	4
2023-09-08T12:00	26032	23	-55.4	-86.0	28	4
2023-09-08T12:00	26052	22	-55.1	-85.8	28	4
2023-09-08T12:00	26090	22	-54.9	-86.2	28	3
2023-09-08T12:00	26104	22	-54.8	-86.1	27	3
2023-09-08T12:00	26133	22	-54.6	-86.0	25	2
2023-09-08T12:00	26159	22	-54.3	-85.8	22	2
2023-09-08T12:00	26197	22	-54.0	-85.5	21	2
2023-09-08T12:00	26223	22	-53.5	-85.9	22	2
2023-09-08T12:00	26241	22	-53.1	-85.6	24	2
2023-09-08T12:00	26277	22	-53.0	-85.5	25	2
2023-09-08T12:00	26299	22	-52.9	-85.4	26	1
2023-09-08T12:00	26328	21	-52.9	-85.4	29	1
2023-09-08T12:00	26352	21	-52.8	-85.3	35	1
2023-09-08T12:00	26385	21	-52.7	-85.3	42	1
2023-09-08T12:00	26408	21	-52.5	-85.1	46	2
2023-09-08T12:00	26439	21	-52.3	-85.0	49	3
2023-09-08T12:00	26463	21	-52.1	-84.8	51	4
2023-09-08T12:00	26501	21	-52.0	-84.8	53	5
2023-09-08T12:00	26519	21	-52.1	-84.8	55	6
2023-09-08T12:00	26555	21	-52.1	-84.8	57	6
2023-09-08T12:00	26580	21	-52.0	-84.1	58	6
2023-09-08T12:00	26600	21	-51.9	-84.0	57	6
2023-09-08T12:00	26627	21	-51.9	-84.0	56	5
2023-09-08T12:00	26664	20	-52.0	-84.1	53	4
2023-09-08T12:00	26680	20	-52.2	-84.2	52	4
2023-09-08T12:00	26722	20	-52.3	-84.3	52	3
2023-09-08T12:00	26732	20	-52.4	-84.4	55	1
2023-09-08T12:00	26770	20	-52.2	-84.2	80	0
2023-09-08T12:00	26791	20	-52.1	-84.2	236	1
2023-09-08T12:00	26823	20	-52.1	-84.2	246	1
2023-09-08T12:00	26856	20	-52.1	-84.8	257	2
2023-09-08T12:00	26877	20	-51.9	-84.7	275	1
2023-09-08T12:00	26920	20	-51.6	-84.5	304	1
2023-09-08T12:00	26938	20	-51.6	-84.5	340	1
2023-09-08T12:00	26965	19	-51.6	-84.5	7	1
2023-09-08T12:00	26990	19	-51.4	-84.3	22	2
2023-09-08T12:00	27019	19	-51.4	-84.3	32	2
2023-09-08T12:00	27042	19	-51.5	-84.4	39	2
2023-09-08T12:00	27081	19	-51.6	-84.5	45	3
2023-09-08T12:00	27113	19	-51.6	-83.8	50	3
2023-09-08T12:00	27134	19	-51.8	-83.9	55	3
2023-09-08T12:00	27165	19	-51.9	-84.0	60	4
2023-09-08T12:00	27180	19	-52.0	-84.1	63	4
2023-09-08T12:00	27221	19	-52.0	-84.1	67	3
2023-09-08T12:00	27248	19	-51.9	-84.7	71	3
2023-09-08T12:00	27284	19	-51.7	-84.5	76	2
2023-09-08T12:00	27313	18	-51.6	-84.5	85	1
2023-09-08T12:00	27328	18	-51.3	-84.3	104	1
2023-09-08T12:00	27367	18	-50.9	-84.0	150	0
2023-09-08T12:00	27391	18	-50.7	-83.8	238	0
2023-09-08T12:00	27416	18	-50.6	-84.5	282	1
2023-09-08T12:00	27451	18	-50.5	-84.5	307	1
2023-09-08T12:00	27459	18	-50.2	-84.2	320	1
2023-09-08T12:00	27494	18	-49.8	-84.0	325	1
2023-09-08T12:00	27526	18	-49.3	-83.6	323	1
2023-09-08T12:00	27555	18	-49.0	-83.4	314	1
2023-09-08T12:00	27586	18	-49.0	-83.4	301	2
2023-09-08T12:00	27619	18	-49.0	-83.4	289	2
2023-09-08T12:00	27649	18	-49.0	-83.4	280	2
2023-09-08T12:00	27658	17	-48.8	-83.2	275	3
2023-09-08T12:00	27711	17	-48.7	-83.2	275	3
2023-09-08T12:00	27736	17	-48.5	-83.0	278	3
2023-09-08T12:00	27767	17	-48.4	-82.9	283	4
2023-09-08T12:00	27788	17	-48.4	-82.9	289	5
2023-09-08T12:00	27822	17	-48.4	-82.9	294	5
2023-09-08T12:00	27850	17	-48.4	-82.9	298	6
2023-09-08T12:00	27878	17	-48.5	-83.0	301	6
2023-09-08T12:00	27906	17	-48.4	-82.9	303	6
2023-09-08T12:00	27936	17	-47.9	-82.6	305	6
2023-09-08T12:00	27958	17	-47.5	-82.3	305	6
2023-09-08T12:00	27984	17	-47.3	-83.1	305	5
2023-09-08T12:00	28014	17	-47.4	-83.1	306	5
2023-09-08T12:00	28044	17	-47.4	-83.1	308	4
2023-09-08T12:00	28080	16	-47.4	-82.2	313	3
2023-09-08T12:00	28099	16	-47.5	-82.3	321	2
2023-09-08T12:00	28124	16	-47.6	-82.4	333	2
2023-09-08T12:00	28159	16	-47.6	-82.4	343	1
2023-09-08T12:00	28182	16	-47.6	-82.4	336	1
2023-09-08T12:00	28202	16	-47.4	-82.2	276	1
2023-09-08T12:00	28244	16	-47.3	-82.2	245	1
2023-09-08T12:00	28284	16	-47.4	-82.2	240	2
2023-09-08T12:00	28308	16	-47.6	-82.4	240	2
2023-09-08T12:00	28322	16	-47.8	-82.5	241	3
2023-09-08T12:00	28363	16	-48.0	-82.7	242	4
2023-09-08T12:00	28398	16	-48.2	-82.8	244	5
2023-09-08T12:00	28415	16	-48.3	-82.9	245	5
2023-09-08T12:00	28448	16	-48.2	-82.8	247	6
2023-09-08T12:00	28487	15	-48.1	-82.7	249	7
2023-09-08T12:00	28521	15	-48.0	-82.7	252	7
2023-09-08T12:00	28539	15	-48.0	-82.7	254	8
2023-09-08T12:00	28566	15	-47.9	-82.6	258	8
2023-09-08T12:00	28589	15	-47.9	-82.6	263	8
2023-09-08T12:00	28624	15	-47.8	-82.5	268	8
2023-09-08T12:00	28656	15	-47.8	-82.5	273	8
2023-09-08T12:00	28678	15	-47.8	-83.4	278	8
2023-09-08T12:00	28718	15	-47.7	-83.4	281	8
2023-09-08T12:00	28750	15	-47.6	-83.3	284	7
2023-09-08T12:00	28763	15	-47.5	-83.2	284	7
2023-09-08T12:00	28796	15	-47.5	-83.2	283	6
2023-09-08T12:00	28810	15	-47.4	-83.1	279	6
2023-09-08T12:00	28840	15	-47.1	-82.9	273	5
2023-09-08T12:00	28882	15	-46.9	-82.8	265	5
2023-09-08T12:00	28911	14	-46.7	-82.6	256	5
2023-09-08T12:00	28947	14	-46.5	-82.5	247	4
2023-09-08T12:00	28972	14	-46.3	-82.4	241	4
2023-09-08T12:00	29007	14	-46.2	-82.3	238	4
2023-09-08T12:00	29033	14	-46.3	-82.4	241	4
2023-09-08T12:00	29046	14	-46.4	-82.4	248	4
2023-09-08T12:00	29081	14	-46.6	-82.6	256	5
2023-09-08T12:00	29125	14	-46.7	-82.6	264	5
2023-09-08T12:00	29134	14	-46.8	-82.7	270	5
2023-09-08T12:00	29180	14	-46.7	-82.6	274	6
2023-09-08T12:00	29203	14	-46.6	-82.6	276	6
2023-09-08T12:00	29236	14	-46.6	-82.6	276	6
2023-09-08T12:00	29264	14	-46.6	-82.6	273	6
2023-09-08T12:00	29298	14	-46.4	-82.4	268	5
2023-09-08T12:00	29324	14	-46.3	-82.4	262	5
2023-09-08T12:00	29356	14	-46.1	-82.2	255	5
2023-09-08T12:00	29386	13	-45.9	-82.1	250	5
2023-09-08T12:00	29410	13	-45.9	-82.1	247	5
2023-09-08T12:00	29458	13	-45.8	-82.0	247	6
2023-09-08T12:00	29484	13	-45.7	-81.9	247	6
2023-09-08T12:00	29496	13	-45.7	-81.9	248	6
2023-09-08T12:00	29525	13	-45.7	-81.9	248	6
2023-09-08T12:00	29567	13	-45.7	-81.9	248	6
2023-09-08T12:00	29599	13	-45.7	-81.9	247	6
2023-09-08T12:00	29623	13	-45.7	-81.9	245	6
2023-09-08T12:00	29647	13	-45.6	-81.9	244	6
2023-09-08T12:00	29684	13	-45.6	-81.9	244	6
2023-09-08T12:00	29693	13	-45.6	-81.9	244	5
2023-09-08T12:00	29745	13	-45.7	-81.9	244	5
2023-09-08T12:00	29768	13	-45.7	-81.9	244	5
2023-09-08T12:00	29792	13	-45.8	-82.0	243	6
2023-09-08T12:00	29818	13	-45.8	-82.0	241	6
2023-09-08T12:00	29861	13	-45.8	-82.0	239	7
2023-09-08T12:00	29888	13	-45.7	-81.9	237	8
2023-09-08T12:00	29930	12	-45.7	-81.9	237	9
2023-09-08T12:00	29957	12	-45.6	-81.9	237	10
2023-09-08T12:00	29969	12	-45.6	-81.9	238	10
2023-09-08T12:00	30013	12	-45.8	-82.0	240	11
2023-09-08T12:00	30043	12	-46.0	-82.1	243	11
2023-09-08T12:00	30046	12	-46.1	-82.2	246	12
2023-09-08T12:00	30109	12	-46.3	-82.4	248	12
2023-09-08T12:00	30131	12	-46.3	-82.4	251	12
2023-09-08T12:00	30144	12	-46.1	-82.2	253	12
2023-09-08T12:00	30192	12	-46.0	-82.1	255	12
2023-09-08T12:00	30201	12	-46.1	-82.2	256	12
2023-09-08T12:00	30259	12	-46.1	-82.2	256	11
2023-09-08T12:00	30304	12	-46.1	-82.2	256	10
2023-09-08T12:00	30328	12	-46.2	-82.3	256	10
2023-09-08T12:00	30366	12	-46.3	-82.4	255	9
2023-09-08T12:00	30388	12	-46.5	-82.5	253	9
2023-09-08T12:00	30412	12	-46.5	-82.5	251	9
2023-09-08T12:00	30443	12	-46.5	-82.5	249	8
2023-09-08T12:00	30465	11	-46.4	-82.4	246	8
2023-09-08T12:00	30508	11	-46.3	-82.4	244	8
2023-09-08T12:00	30521	11	-46.4	-82.4	243	8
2023-09-08T12:00	30566	11	-46.3	-82.4	242	8
2023-09-08T12:00	30593	11	-46.3	-82.4	242	8
2023-09-08T12:00	30609	11	-46.2	-83.4	243	8
2023-09-08T12:00	30628	11	-45.9	-83.2	244	8
2023-09-08T12:00	30679	11	-45.6	-82.9	245	8
2023-09-08T12:00	30702	11	-45.2	-82.7	247	9
2023-09-08T12:00	30741	11	-45.0	-82.5	250	9
2023-09-08T12:00	30766	11	-44.8	-82.4	252	9
2023-09-08T12:00	30780	11	-44.8	-82.4	255	9
2023-09-08T12:00	30827	11	-44.7	-82.3	258	10
2023-09-08T12:00	30835	11	-44.7	-82.3	260	10
2023-09-08T12:00	30881	11	-44.7	-82.3	263	11
2023-09-08T12:00	30917	11	-44.8	-82.4	267	11
2023-09-08T12:00	30949	11	-44.8	-82.4	271	12
2023-09-08T12:00	30969	11	-44.4	-82.1	275	12
2023-09-08T12:00	31006	11	-43.9	-81.8	279	12
2023-09-08T12:00	31039	11	-43.5	-81.5	283	12
2023-09-08T12:00	31056	11	-43.2	-81.3	286	12
2023-09-08T12:00	31083	10	-43.2	-81.3	287	11
2023-09-08T12:00	31107	10	-43.2	-81.3	288	11
2023-09-08T12:00	31136	10	-43.1	-81.2	288	10
2023-09-08T12:00	31176	10	-43.0	-81.1	289	10
2023-09-08T12:00	31192	10	-42.8	-81.0	291	10
2023-09-08T12:00	31231	10	-42.6	-80.8	293	10
2023-09-08T12:00	31253	10	-42.4	-80.7	295	10
2023-09-08T12:00	31287	10	-42.0	-80.4	296	10
2023-09-08T12:00	31311	10	-41.7	-80.2	296	10
2023-09-08T12:00	31328	10	-41.6	-80.1	297	10
2023-09-08T12:00	31366	10	-41.6	-80.1	298	11
2023-09-08T12:00	31404	10	-41.7	-80.2	299	11
2023-09-08T12:00	31411	10	-41.8	-80.3	300	10
2023-09-08T12:00	31460	10	-41.7	-80.2	303	10
2023-09-08T12:00	31470	10	-41.6	-80.1	305	9
2023-09-08T12:00	31504	10	-41.6	-80.1	307	9
2023-09-08T12:00	31555	10	-41.7	-80.2	310	8
2023-09-08T12:00	31588	10	-41.8	-80.3	314	7
2023-09-08T12:00	31609	10	-41.9	-80.4	315	6
2023-09-08T12:00	31676	10	-42.0	-80.4	315	5
2023-09-08T12:00	31691	10	-42.1	-80.5	315	4
2023-09-08T12:00	31704	10	-42.3	-80.6	313	4
2023-09-08T12:00	31738	10	-42.4	-80.7	310	3
2023-09-08T12:00	31778	9	-42.5	-80.8	302	2
2023-09-08T12:00	31851	9	-42.6	-80.8	219	1
2023-09-08T12:00	31858	9	-42.6	-80.8	190	2
2023-09-08T12:00	31884	9	-42.6	-80.8	182	2
2023-09-08T12:00	31924	9	-42.6	-80.8	180	3
2023-09-08T12:00	31956	9	-42.5	-80.8	181	3
2023-09-08T12:00	31983	9	-42.4	-80.7	184	4
2023-09-08T12:00	32009	9	-42.4	-80.7	188	4
2023-09-08T12:00	32033	9	-42.5	-80.8	192	5
2023-09-08T12:00	32083	9	-42.5	-80.8	196	5
2023-09-08T12:00	32102	9	-42.7	-80.9	200	6
2023-09-08T12:00	32128	9	-42.7	-80.9	203	6
2023-09-08T12:00	32155	9	-42.6	-80.8	208	7
2023-09-08T12:00	32179	9	-42.6	-80.8	215	6
2023-09-08T12:00	32209	9	-42.7	-80.9	222	6
2023-09-08T12:00	32252	9	-42.7	-80.9	230	6
2023-09-08T12:00	32277	9	-42.7	-80.9	238	6
2023-09-08T12:00	32318	9	-42.7	-80.9	244	6
2023-09-08T12:00	32334	9	-42.7	-80.9	249	6
2023-09-08T12:00	32372	9	-42.8	-81.0	253	6
2023-09-08T12:00	32383	9	-42.8	-81.0	257	6
2023-09-08T12:00	32450	9	-42.9	-81.1	261	6
2023-09-08T12:00	32479	9	-42.8	-81.0	265	6
2023-09-08T12:00	32535	8	-42.5	-80.8	275	7
2023-09-08T12:00	32554	8	-42.2	-80.6	279	6
2023-09-08T12:00	32603	8	-41.8	-80.3	286	6
2023-09-08T12:00	32608	8	-41.7	-80.2	289	5
2023-09-08T12:00	32665	8	-41.5	-80.1	292	5
2023-09-08T12:00	32680	8	-41.2	-79.9	292	4
2023-09-08T12:00	32709	8	-40.7	-79.5	284	4
2023-09-08T12:00	32747	8	-40.4	-79.3	272	4
2023-09-08T12:00	32790	8	-40.2	-79.2	256	4
2023-09-08T12:00	32822	8	-40.1	-79.1	241	4
2023-09-08T12:00	32844	8	-40.1	-79.1	228	5
2023-09-08T12:00	32858	8	-40.2	-79.2	219	6
2023-09-08T12:00	32909	8	-40.3	-79.2	213	7
2023-09-08T12:00	32911	8	-40.3	-79.2	209	8
2023-09-08T12:00	32927	8	-40.3	-79.2	208	9
2023-09-08T12:00	32977	8	-40.3	-79.2	208	9
2023-09-08T12:00	33012	8	-40.3	-79.2	209	10
2023-09-08T12:00	33021	8	-40.3	-79.2	211	10
2023-09-08T12:00	33073	8	-40.3	-79.2	214	11
2023-09-08T12:00	33112	8	-40.3	-79.2	217	11
2023-09-08T12:00	33136	8	-40.4	-79.3	221	12
2023-09-08T12:00	33147	8	-40.4	-79.3	225	12
2023-09-08T12:00	33171	8	-40.4	-79.3	229	13
2023-09-08T12:00	33209	8	-40.5	-79.4	233	13
2023-09-08T12:00	33236	8	-40.5	-79.4	236	14
2023-09-08T12:00	33281	8	-40.3	-79.2	239	15
2023-09-08T12:00	33322	8	-40.1	-79.1	241	15
2023-09-08T12:00	33394	7	-40.1	-79.1	245	15
2023-09-08T12:00	33404	7	-40.2	-79.2	247	15
2023-09-08T12:00	33413	7	-40.2	-79.2	251	15
2023-09-08T12:00	33450	7	-40.2	-79.2	254	15
2023-09-08T12:00	33478	7	-40.2	-79.2	255	15
2023-09-08T18:00	112	1007	25.2	12.8	90	3
2023-09-08T18:00	140	1004	25.9	12.2	98	3
2023-09-08T18:00	167	1000	25.9	11.7	100	4
2023-09-08T18:00	196	997	25.7	11.4	100	4
2023-09-08T18:00	220	995	25.6	11.2	101	5
2023-09-08T18:00	244	992	25.4	11.3	101	5
2023-09-08T18:00	267	989	25.2	11.3	101	5
2023-09-08T18:00	292	987	24.9	11.3	102	5
2023-09-08T18:00	313	984	24.7	11.4	103	5
2023-09-08T18:00	334	982	24.5	11.5	104	5
2023-09-08T18:00	356	979	24.3	11.4	106	4
2023-09-08T18:00	378	977	24.1	11.4	107	4
2023-09-08T18:00	400	974	23.9	11.4	108	4
2023-09-08T18:00	426	971	23.6	11.4	110	4
2023-09-08T18:00	451	969	23.4	11.4	112	4
2023-09-08T18:00	478	966	23.2	11.2	116	4
2023-09-08T18:00	503	963	23.0	11.3	120	4
2023-09-08T18:00	530	960	22.7	11.1	123	4
2023-09-08T18:00	551	958	22.5	11.1	125	4
2023-09-08T18:00	575	955	22.3	11.1	126	4
2023-09-08T18:00	598	952	22.1	11.0	128	4
2023-09-08T18:00	623	950	21.9	10.8	130	4
2023-09-08T18:00	648	947	21.7	10.7	133	4
2023-09-08T18:00	674	944	21.4	10.5	135	4
2023-09-08T18:00	696	942	21.2	10.5	138	4
2023-09-08T18:00	721	939	21.0	10.3	139	4
2023-09-08T18:00	743	937	20.8	10.2	140	4
2023-09-08T18:00	766	934	20.6	10.0	140	4
2023-09-08T18:00	793	931	20.4	9.3	140	4
2023-09-08T18:00	812	929	20.3	8.6	142	4
2023-09-08T18:00	837	927	20.1	8.6	145	4
2023-09-08T18:00	864	924	19.9	8.4	150	4
2023-09-08T18:00	888	921	19.7	8.5	156	4
2023-09-08T18:00	916	918	19.5		160	4
2023-09-08T18:00	940	916	19.2	8.6	164	5
2023-09-08T18:00	963	913	19.0	8.5	168	5
2023-09-08T18:00	988	910	18.9	8.1	173	5
2023-09-08T18:00	1009	908	18.8	7.9	178	6
2023-09-08T18:00	1032	906	18.6	8.0	184	5
2023-09-08T18:00	1050	904	18.5	7.7	190	5
2023-09-08T18:00	1072	902	18.5	7.1	194	5
2023-09-08T18:00	1091	899	18.5	6.6	195	4
2023-09-08T18:00	1114	897	18.6	5.8	192	3
2023-09-08T18:00	1136	895	18.6	4.7	184	3
2023-09-08T18:00	1160	892	18.9	0.8	174	3
2023-09-08T18:00	1184	890	18.9	-0.9	167	2
2023-09-08T18:00	1204	888	18.9	-2.4	164	2
2023-09-08T18:00	1224	886	18.9	-4.4	163	2
2023-09-08T18:00	1247	883	19.0	-6.8	160	2
2023-09-08T18:00	1270	881	19.1	-8.6	154	2
2023-09-08T18:00	1295	878	19.1	-9.1	145	2
2023-09-08T18:00	1317	876	19.2	-9.1	138	2
2023-09-08T18:00	1341	874	19.1	-8.2	134	2
2023-09-08T18:00	1366	871	18.9	-8.4	134	2
2023-09-08T18:00	1388	869	18.8	-8.7	138	2
2023-09-08T18:00	1412	866	18.7	-9.7	145	2
2023-09-08T18:00	1440	864	18.6	-12.3	150	3
2023-09-08T18:00	1462	861	18.5	-12.2	153	3
2023-09-08T18:00	1485	859	18.4	-12.9	152	3
2023-09-08T18:00	1506	857	18.3	-13.4	147	3
2023-09-08T18:00	1524	855	18.4	-14.2	139	3
2023-09-08T18:00	1553	852	18.4	-13.8	128	2
2023-09-08T18:00	1579	850	18.5	-13.3	115	2
2023-09-08T18:00	1601	847	18.5	-13.3	103	2
2023-09-08T18:00	1628	845	18.4	-13.3	96	3
2023-09-08T18:00	1648	843	18.6	-14.5	94	3
2023-09-08T18:00	1671	840	18.5	-14.5	96	3
2023-09-08T18:00	1698	838	18.3	-14.5	101	3
2023-09-08T18:00	1721	836	18.1	-14.5	107	3
2023-09-08T18:00	1745	833	17.9	-14.7	113	3
2023-09-08T18:00	1769	831	17.8	-14.8	116	3
2023-09-08T18:00	1787	829	17.7	-15.0	115	3
2023-09-08T18:00	1821	826	17.5	-16.2	109	2
2023-09-08T18:00	1848	823	17.4	-17.2	96	2
2023-09-08T18:00	1875	821	17.5	-17.7	78	2
2023-09-08T18:00	1896	819	17.5	-18.6	62	2
2023-09-08T18:00	1917	816	17.6	-20.7	55	2
2023-09-08T18:00	1944	814	17.4	-21.7	53	2
2023-09-08T18:00	1972	811	17.3	-21.8	54	2
2023-09-08T18:00	1997	809	17.2	-22.6	56	3
2023-09-08T18:00	2026	807	17.2	-20.3	58	3
2023-09-08T18:00	2046	804	17.1	-20.0	60	3
2023-09-08T18:00	2072	802	17.0	-20.7	61	3
2023-09-08T18:00	2096	800	16.9	-22.0	61	3
2023-09-08T18:00	2121	797	16.8	-23.1	60	3
2023-09-08T18:00	2143	795	16.7	-23.2	58	3
2023-09-08T18:00	2170	793	16.6	-23.2	56	3
2023-09-08T18:00	2195	790	16.4	-23.3	57	2
2023-09-08T18:00	2220	788	16.2		61	2
2023-09-08T18:00	2250	785	16.0	-24.1	67	2
2023-09-08T18:00	2283	782	15.9	-24.7	74	2
2023-09-08T18:00	2310	780	15.8	-24.3	79	3
2023-09-08T18:00	2332	778	15.7	-23.8	80	3
2023-09-08T18:00	2356	775	15.6	-24.1	78	3
2023-09-08T18:00	2388	772	15.4	-24.5	73	3
2023-09-08T18:00	2421	770	15.2	-24.4	67	4
2023-09-08T18:00	2446	767	14.9	-19.5	61	3
2023-09-08T18:00	2468	765	14.8	-20.1	58	3
2023-09-08T18:00	2499	763	14.6	-23.5	59	3
2023-09-08T18:00	2524	760	14.5	-25.9	64	3
2023-09-08T18:00	2553	758	14.4	-26.0	73	3
2023-09-08T18:00	2583	755	14.2	-26.7	80	3
2023-09-08T18:00	2604	753	14.1	-26.5	86	4
2023-09-08T18:00	2626	751	14.0	-27.1	89	4
2023-09-08T18:00	2648	749	13.9	-26.6	91	3
2023-09-08T18:00	2682	746	13.7	-28.3	92	3
2023-09-08T18:00	2718	743	13.6	-28.7	89	3
2023-09-08T18:00	2737	741	13.5	-29.1	82	2
2023-09-08T18:00	2766	739	13.4	-28.8	75	2
2023-09-08T18:00	2789	737	13.3	-28.5	71	2
2023-09-08T18:00	2812	735	13.3	-28.9	72	2
2023-09-08T18:00	2834	733	13.2	-28.9	75	2
2023-09-08T18:00	2859	730	13.2	-28.9	80	2
2023-09-08T18:00	2883	728	13.1	-29.0	84	2
2023-09-08T18:00	2912	726	13.0	-29.1	86	2
2023-09-08T18:00	2930	724	12.8	-28.8	87	2
2023-09-08T18:00	2961	722	12.7	-26.5	86	2
2023-09-08T18:00	2991	719	12.6	-28.3	81	2
2023-09-08T18:00	3025	716	12.4	-26.5	70	2
2023-09-08T18:00	3049	714	12.3	-26.0	56	2
2023-09-08T18:00	3069	712	12.1	-24.1	45	1
2023-09-08T18:00	3094	710	11.9	-18.7	44	1
2023-09-08T18:00	3123	708	11.7	-22.2	57	1
2023-09-08T18:00	3155	705	11.6	-24.0	78	2
2023-09-08T18:00	3176	703	11.5	-23.9	96	2
2023-09-08T18:00	3200	701	11.3	-24.0	106	3
2023-09-08T18:00	3224	699	11.1	-22.9	108	3
2023-09-08T18:00	3249	697	11.0	-20.0	107	4
2023-09-08T18:00	3271	695	10.8	-17.5	102	4
2023-09-08T18:00	3303	693	10.6	-19.0	96	4
2023-09-08T18:00	3331	690	10.4	-18.3	91	5
2023-09-08T18:00	3354	688	10.2	-17.9	88	5
2023-09-08T18:00	3386	686	10.0	-19.2	89	5
2023-09-08T18:00	3417	683	9.7	-19.3	91	4
2023-09-08T18:00	3443	681	9.5	-19.5	94	4
2023-09-08T18:00	3473	679	9.2	-19.9	95	4
2023-09-08T18:00	3495	677	9.0	-20.5	93	3
2023-09-08T18:00	3518	675	8.8	-20.7	88	3
2023-09-08T18:00	3548	673	8.7	-20.7	81	3
2023-09-08T18:00	3573	670	8.6	-18.3	77	3
2023-09-08T18:00	3594	669	8.5	-15.8	75	3
2023-09-08T18:00	3621	666	8.3	-14.2	75	3
2023-09-08T18:00	3648	664	8.0	-13.5	74	3
2023-09-08T18:00	3669	662	7.8	-12.9	72	2
2023-09-08T18:00	3700	660	7.5	-12.3	68	2
2023-09-08T18:00	3728	658	7.2	-11.7	61	2
2023-09-08T18:00	3760	655	6.9	-11.8	53	2
2023-09-08T18:00	3787	653	6.7	-12.1	45	2
2023-09-08T18:00	3814	651	6.5	-12.8	40	2
2023-09-08T18:00	3836	649	6.2	-12.9	39	2
2023-09-08T18:00	3868	647	6.0	-13.0	42	2
2023-09-08T18:00	3895	645	5.7	-13.3	44	2
2023-09-08T18:00	3920	643	5.5	-13.2	44	3
2023-09-08T18:00	3941	641	5.3	-13.3	43	3
2023-09-08T18:00	3964	639	5.1	-13.3	40	3
2023-09-08T18:00	3991	637	4.8	-13.3	38	3
2023-09-08T18:00	4027	634	4.5	-13.5	37	3
2023-09-08T18:00	4055	632	4.2	-13.6	37	3
2023-09-08T18:00	4081	630	4.0	-13.5	40	3
2023-09-08T18:00	4113	628	3.7	-13.5	43	3
2023-09-08T18:00	4141	626	3.4	-12.9	45	4
2023-09-08T18:00	4164	624	3.2	-14.2	47	4
2023-09-08T18:00	4194	622	3.0	-14.5	48	4
2023-09-08T18:00	4219	619	2.7	-14.4	50	3
2023-09-08T18:00	4250	617	2.4	-12.7	52	3
2023-09-08T18:00	4275	615	2.2	-13.1	57	2
2023-09-08T18:00	4305	613	1.9	-13.0	61	2
2023-09-08T18:00	4327	611	1.7	-13.0	61	2
2023-09-08T18:00	4346	610	1.5	-13.1	53	2
2023-09-08T18:00	4367	608	1.4	-12.9	43	2
2023-09-08T18:00	4399	606	1.1	-12.9	36	3
2023-09-08T18:00	4427	604	0.8	-13.0	32	3
2023-09-08T18:00	4450	602	0.6	-13.1	32	3
2023-09-08T18:00	4482	600	0.3	-13.5	35	3
2023-09-08T18:00	4500	598	0.2	-13.6	38	3
2023-09-08T18:00	4521	597	0.1	-14.4	41	3
2023-09-08T18:00	4544	595	-0.1	-15.2	43	3
2023-09-08T18:00	4577	593	-0.3	-15.8	44	2
2023-09-08T18:00	4605	590	-0.5	-15.6	44	2
2023-09-08T18:00	4637	588	-0.7	-16.0	45	2
2023-09-08T18:00	4667	586	-1.0	-16.6	47	2
2023-09-08T18:00	4700	584	-1.3	-17.1	50	2
2023-09-08T18:00	4724	582	-1.4	-17.6	53	3
2023-09-08T18:00	4748	580	-1.4	-19.5	56	3
2023-09-08T18:00	4779	578	-1.4	-20.3	60	3
2023-09-08T18:00	4802	576	-1.5	-19.3	63	3
2023-09-08T18:00	4822	574	-1.7	-18.5	65	4
2023-09-08T18:00	4850	573	-1.9	-18.5	66	4
2023-09-08T18:00	4877	570	-2.1	-18.6	65	4
2023-09-08T18:00	4909	568	-2.3	-19.2	64	4
2023-09-08T18:00	4933	567	-2.4	-20.5	62	4
2023-09-08T18:00	4961	565	-2.6	-21.4	61	4
2023-09-08T18:00	4983	563	-2.8	-20.6	60	4
2023-09-08T18:00	5009	561	-3.0	-20.1	61	4
2023-09-08T18:00	5039	559	-3.2	-20.0	61	4
2023-09-08T18:00	5065	557	-3.4	-20.3	63	5
2023-09-08T18:00	5089	555	-3.7	-20.2	65	5
2023-09-08T18:00	5119	553	-3.9	-20.1	68	5
2023-09-08T18:00	5146	552	-4.1	-20.1	72	5
2023-09-08T18:00	5165	550	-4.3	-20.1	75	5
2023-09-08T18:00	5195	548	-4.5	-20.3	78	5
2023-09-08T18:00	5220	546	-4.7	-20.7	80	5
2023-09-08T18:00	5245	545	-4.7		79	4
2023-09-08T18:00	5274	543	-4.7	-27.4	75	4
2023-09-08T18:00	5306	540	-4.7	-29.3	69	3
2023-09-08T18:00	5335	538	-4.9	-30.4	59	2
2023-09-08T18:00	5364	536	-5.1	-30.0	47	2
2023-09-08T18:00	5397	534	-5.4	-30.1	34	1
2023-09-08T18:00	5419	533	-5.4	-30.1	28	1
2023-09-08T18:00	5449	531	-5.6	-29.1	28	1
2023-09-08T18:00	5480	529	-5.8	-29.3	32	2
2023-09-08T18:00	5502	527	-6.0	-29.1	34	2
2023-09-08T18:00	5532	525	-6.2	-28.9	36	2
2023-09-08T18:00	5553	524	-6.4	-27.8	37	2
2023-09-08T18:00	5577	522	-6.6	-27.8	38	2
2023-09-08T18:00	5609	520	-6.8	-27.6	39	2
2023-09-08T18:00	5643	518	-7.1	-27.6	40	2
2023-09-08T18:00	5673	516	-7.3	-27.8	41	3
2023-09-08T18:00	5706	513	-7.5	-28.4	42	3
2023-09-08T18:00	5734	512	-7.6	-29.1	43	3
2023-09-08T18:00	5757	510	-7.7		46	3
2023-09-08T18:00	5789	508	-7.8	-30.0	50	3
2023-09-08T18:00	5822	506	-8.0	-27.6	55	3
2023-09-08T18:00	5852	504	-8.3	-27.7	59	3
2023-09-08T18:00	5880	502	-8.5	-27.5	60	3
2023-09-08T18:00	5910	500	-8.6	-30.2	60	3
2023-09-08T18:00	5944	498	-8.9	-28.9	58	3
2023-09-08T18:00	5965	496	-9.1	-28.3	53	2
2023-09-08T18:00	6001	494	-9.4	-28.0	42	1
2023-09-08T18:00	6032	492	-9.6	-28.3	11	1
2023-09-08T18:00	6053	491	-9.7	-28.6	331	1
2023-09-08T18:00	6082	489	-9.9	-30.7	315	1
2023-09-08T18:00	6103	488	-10.0	-32.4	312	1
2023-09-08T18:00	6120	486	-10.1	-33.8	314	1
2023-09-08T18:00	6151	485	-10.0	-34.3	334	0
2023-09-08T18:00	6183	483	-10.1	-34.5	56	0
2023-09-08T18:00	6210	481	-10.3	-34.5	70	1
2023-09-08T18:00	6236	479	-10.4	-33.8	64	1
2023-09-08T18:00	6263	478	-10.6	-34.0	54	2
2023-09-08T18:00	6290	476	-10.7	-34.3	44	2
2023-09-08T18:00	6316	474	-10.9	-34.1	34	2
2023-09-08T18:00	6344	473	-11.1	-33.8	26	3
2023-09-08T18:00	6382	471	-11.4	-33.5	19	3
2023-09-08T18:00	6405	469	-11.6	-33.5	16	3
2023-09-08T18:00	6435	467	-11.9		14	3
2023-09-08T18:00	6463	465	-12.2	-33.3	14	4
2023-09-08T18:00	6496	464	-12.5	-33.1	12	4
2023-09-08T18:00	6526	462	-12.7	-33.1	10	4
2023-09-08T18:00	6557	460	-13.0	-32.9	6	4
2023-09-08T18:00	6594	458	-13.3	-32.7	2	4
2023-09-08T18:00	6622	456	-13.6	-32.8	357	4
2023-09-08T18:00	6652	454	-13.9	-32.8	351	4
2023-09-08T18:00	6675	453	-14.1	-32.9	345	4
2023-09-08T18:00	6703	451	-14.3	-33.1	339	4
2023-09-08T18:00	6734	449	-14.5	-33.4	333	4
2023-09-08T18:00	6765	447	-14.7	-34.2	330	4
2023-09-08T18:00	6795	446	-14.8	-34.6	327	4
2023-09-08T18:00	6818	444	-15.0	-35.2	325	4
2023-09-08T18:00	6842	443	-15.0	-35.1	321	4
2023-09-08T18:00	6877	441	-15.3	-34.3	318	4
2023-09-08T18:00	6909	439	-15.6	-34.3	317	5
2023-09-08T18:00	6935	437	-15.8	-34.7	317	5
2023-09-08T18:00	6963	436	-16.0	-34.9	319	6
2023-09-08T18:00	6990	434	-16.3	-35.0	322	6
2023-09-08T18:00	7019	432	-16.5	-35.3	322	6
2023-09-08T18:00	7048	431	-16.7	-34.7	321	6
2023-09-08T18:00	7083	429	-17.0	-34.5	316	6
2023-09-08T18:00	7116	427	-17.1	-35.7	309	6
2023-09-08T18:00	7147	425	-17.3	-36.8	302	6
2023-09-08T18:00	7176	424	-17.4	-37.5	296	6
2023-09-08T18:00	7207	422	-17.7	-36.8	292	6
2023-09-08T18:00	7242	420	-17.9	-36.8	290	6
2023-09-08T18:00	7277	418	-18.1	-36.8	289	6
2023-09-08T18:00	7307	416	-18.3	-36.2	287	6
2023-09-08T18:00	7336	415	-18.6	-37.4	285	6
2023-09-08T18:00	7365	413	-18.8	-36.6	282	7
2023-09-08T18:00	7393	411	-19.0	-36.1	280	7
2023-09-08T18:00	7421	410	-19.2	-36.7	279	7
2023-09-08T18:00	7456	408	-19.4	-36.7	278	7
2023-09-08T18:00	7481	407	-19.6	-36.9	278	8
2023-09-08T18:00	7513	405	-19.8	-37.4	277	8
2023-09-08T18:00	7546	403	-20.1	-37.2	275	8
2023-09-08T18:00	7580	401	-20.4	-37.8	273	8
2023-09-08T18:00	7609	400	-20.6	-37.4	272	7
2023-09-08T18:00	7643	398	-20.8	-37.2	272	7
2023-09-08T18:00	7676	396	-21.0	-38.5	273	7
2023-09-08T18:00	7704	394	-21.1	-40.8	274	7
2023-09-08T18:00	7738	393	-21.3	-41.4	274	7
2023-09-08T18:00	7761	391	-21.4	-41.5	274	7
2023-09-08T18:00	7786	390	-21.6	-42.0	274	7
2023-09-08T18:00	7809	389	-21.7	-42.3	275	8
2023-09-08T18:00	7840	387	-22.0	-42.6	275	8
2023-09-08T18:00	7873	386	-22.2	-42.9	277	8
2023-09-08T18:00	7904	384	-22.4	-42.1	278	8
2023-09-08T18:00	7938	382	-22.7	-41.3	280	8
2023-09-08T18:00	7968	381	-23.0	-40.7	281	8
2023-09-08T18:00	7999	379	-23.3	-40.8	281	8
2023-09-08T18:00	8029	377	-23.5	-41.0	281	8
2023-09-08T18:00	8054	376	-23.7	-41.1	281	8
2023-09-08T18:00	8076	375	-24.0	-41.2	280	8
2023-09-08T18:00	8102	374	-24.2	-41.2	281	8
2023-09-08T18:00	8129	372	-24.5	-41.4	281	8
2023-09-08T18:00	8159	371	-24.7	-41.2	283	8
2023-09-08T18:00	8183	370	-25.0	-41.2	284	8
2023-09-08T18:00	8204	368	-25.2	-41.0	285	8
2023-09-08T18:00	8227	367	-25.4	-40.6	285	8
2023-09-08T18:00	8255	366	-25.6	-40.7	286	8
2023-09-08T18:00	8279	365	-25.8	-41.0	287	8
2023-09-08T18:00	8305	363	-26.1	-41.1	289	8
2023-09-08T18:00	8334	362	-26.4	-41.3	291	7
2023-09-08T18:00	8364	361	-26.6	-41.8	292	7
2023-09-08T18:00	8385	359	-26.8	-41.8	293	7
2023-09-08T18:00	8407	358	-27.0	-41.8	293	8
2023-09-08T18:00	8434	357	-27.2	-42.1	292	8
2023-09-08T18:00	8468	355	-27.5	-42.3	291	8
2023-09-08T18:00	8506	353	-27.9	-42.9	290	8
2023-09-08T18:00	8537	352	-28.1	-43.2	289	8
2023-09-08T18:00	8572	350	-28.4	-43.4	287	8
2023-09-08T18:00	8604	349	-28.6	-43.6	285	8
2023-09-08T18:00	8634	347	-28.9	-44.2	284	8
2023-09-08T18:00	8667	346	-29.1	-44.1	285	8
2023-09-08T18:00	8693	344	-29.3	-43.8	289	8
2023-09-08T18:00	8718	343	-29.5	-43.9	293	8
2023-09-08T18:00	8754	341	-29.7	-44.5	298	8
2023-09-08T18:00	8787	340	-30.0	-45.4	301	8
2023-09-08T18:00	8818	338	-30.2	-45.5	304	8
2023-09-08T18:00	8848	337	-30.5	-45.2	306	8
2023-09-08T18:00	8879	335	-30.8	-45.0	308	7
2023-09-08T18:00	8910	334	-31.0	-44.6	309	7
2023-09-08T18:00	8941	333	-31.3	-43.9	309	6
2023-09-08T18:00	8973	331	-31.5	-43.1	309	6
2023-09-08T18:00	8994	330	-31.6	-43.8	308	6
2023-09-08T18:00	9024	329	-31.7	-44.2	309	6
2023-09-08T18:00	9052	327	-31.9	-44.5	311	6
2023-09-08T18:00	9076	326	-32.1	-44.8	314	7
2023-09-08T18:00	9102	325	-32.3	-45.2	316	8
2023-09-08T18:00	9131	324	-32.4	-45.5	318	8
2023-09-08T18:00	9160	322	-32.6	-45.9	318	9
2023-09-08T18:00	9189	321	-32.7	-45.9	319	9
2023-09-08T18:00	9217	320	-32.9	-45.8	321	9
2023-09-08T18:00	9250	318	-33.2	-47.4	322	10
2023-09-08T18:00	9280	317	-33.4	-49.1	324	10
2023-09-08T18:00	9311	316	-33.7	-47.8	325	10
2023-09-08T18:00	9337	314	-33.9	-47.7	325	10
2023-09-08T18:00	9361	313	-34.1	-48.9	325	10
2023-09-08T18:00	9390	312	-34.3	-51.3	324	10
2023-09-08T18:00	9416	311	-34.5	-51.4	323	10
2023-09-08T18:00	9446	310	-34.7	-51.0	323	11
2023-09-08T18:00	9470	308	-34.9	-51.5	323	11
2023-09-08T18:00	9496	307	-35.1	-51.3	323	12
2023-09-08T18:00	9522	306	-35.3	-51.1	324	12
2023-09-08T18:00	9549	305	-35.6	-49.5	325	12
2023-09-08T18:00	9578	304	-35.8	-47.9	325	12
2023-09-08T18:00	9604	303	-36.0	-47.9	325	12
2023-09-08T18:00	9628	301	-36.3	-47.9	325	12
2023-09-08T18:00	9656	300	-36.5	-48.1	325	12
2023-09-08T18:00	9686	299	-36.7	-49.0	324	12
2023-09-08T18:00	9710	298	-36.9	-48.8	324	12
2023-09-08T18:00	9738	297	-37.1	-48.8	323	12
2023-09-08T18:00	9762	296	-37.4	-48.9	322	12
2023-09-08T18:00	9787	295	-37.5	-48.6	321	12
2023-09-08T18:00	9809	294	-37.7	-48.5	321	12
2023-09-08T18:00	9829	293	-37.9	-48.4	321	12
2023-09-08T18:00	9854	292	-38.1	-48.2	322	12
2023-09-08T18:00	9879	291	-38.4	-48.5	322	12
2023-09-08T18:00	9903	290	-38.6	-48.5	323	11
2023-09-08T18:00	9936	288	-38.8	-48.8	323	11
2023-09-08T18:00	9962	287	-39.0	-49.3	323	11
2023-09-08T18:00	9991	286	-39.2	-49.2	323	11
2023-09-08T18:00	10023	285	-39.5	-49.3	324	11
2023-09-08T18:00	10049	284	-39.7	-49.0	324	11
2023-09-08T18:00	10077	282	-40.0	-48.6	324	11
2023-09-08T18:00	10107	281	-40.2	-48.8	323	11
2023-09-08T18:00	10136	280	-40.5	-48.4	323	11
2023-09-08T18:00	10165	279	-40.7	-48.5	322	11
2023-09-08T18:00	10188	278	-41.0	-48.9	321	11
2023-09-08T18:00	10217	277	-41.2	-48.9	319	12
2023-09-08T18:00	10244	276	-41.5	-49.3	317	12
2023-09-08T18:00	10270	275	-41.6	-49.8	315	12
2023-09-08T18:00	10296	273	-41.9	-50.1	313	12
2023-09-08T18:00	10323	272	-42.1	-50.0	313	12
2023-09-08T18:00	10349	271	-42.3	-50.0	312	12
2023-09-08T18:00	10378	270	-42.6	-50.0	312	12
2023-09-08T18:00	10404	269	-42.8	-50.1	313	12
2023-09-08T18:00	10431	268	-43.0	-50.4	313	12
2023-09-08T18:00	10455	267	-43.2	-50.9	315	12
2023-09-08T18:00	10486	266	-43.4	-51.3	316	13
2023-09-08T18:00	10515	265	-43.7	-51.6	316	13
2023-09-08T18:00	10537	264	-43.8	-52.1	316	13
2023-09-08T18:00	10563	263	-44.0	-52.3	315	13
2023-09-08T18:00	10586	262	-44.2	-52.4	315	12
2023-09-08T18:00	10610	261	-44.4	-52.4	314	12
2023-09-08T18:00	10635	260	-44.6	-52.6	314	12
2023-09-08T18:00	10655	259	-44.7	-52.4	314	12
2023-09-08T18:00	10677	258	-44.9	-52.4	314	12
2023-09-08T18:00	10699	258	-45.1	-52.5	315	12
2023-09-08T18:00	10719	257	-45.3	-53.0	315	12
2023-09-08T18:00	10740	256	-45.4	-54.2	314	12
2023-09-08T18:00	10758	255	-45.5	-55.2	314	12
2023-09-08T18:00	10782	254	-45.7	-55.3	314	12
2023-09-08T18:00	10803	254	-45.9	-54.9	314	13
2023-09-08T18:00	10825	253	-46.0	-54.4	314	13
2023-09-08T18:00	10849	252	-46.2	-54.8	315	13
2023-09-08T18:00	10873	251	-46.4	-55.1	316	13
2023-09-08T18:00	10894	250	-46.6	-55.4	317	13
2023-09-08T18:00	10916	249	-46.8	-55.8	318	13
2023-09-08T18:00	10939	248	-47.0	-56.1	319	13
2023-09-08T18:00	10961	248	-47.2	-56.4	320	13
2023-09-08T18:00	10982	247	-47.4	-56.7	321	13
2023-09-08T18:00	11003	246	-47.6	-56.5	322	13
2023-09-08T18:00	11025	245	-47.7	-56.0	324	12
2023-09-08T18:00	11047	244	-47.9	-55.6	325	12
2023-09-08T18:00	11068	244	-48.0	-56.0	325	12
2023-09-08T18:00	11088	243	-48.1	-56.8	326	12
2023-09-08T18:00	11112	242	-48.2	-57.0	326	12
2023-09-08T18:00	11137	241	-48.4	-57.3	326	12
2023-09-08T18:00	11166	240	-48.6	-57.6	326	12
2023-09-08T18:00	11195	239	-48.8	-57.7	325	12
2023-09-08T18:00	11223	238	-49.0	-57.7	325	12
2023-09-08T18:00	11251	237	-49.2	-58.1	325	12
2023-09-08T18:00	11277	236	-49.3	-58.4	325	12
2023-09-08T18:00	11304	235	-49.5	-58.6	326	12
2023-09-08T18:00	11332	234	-49.6	-58.8	327	12
2023-09-08T18:00	11362	233	-49.9	-59.0	327	13
2023-09-08T18:00	11389	232	-50.1	-58.8	328	13
2023-09-08T18:00	11416	231	-50.3	-58.7	328	13
2023-09-08T18:00	11443	230	-50.5	-58.8	327	13
2023-09-08T18:00	11472	229	-50.7	-59.0	327	13
2023-09-08T18:00	11498	228	-50.9	-59.2	326	13
2023-09-08T18:00	11528	227	-51.1	-59.4	326	13
2023-09-08T18:00	11558	226	-51.3	-59.6	326	13
2023-09-08T18:00	11585	225	-51.6	-59.7	326	13
2023-09-08T18:00	11615	224	-51.8	-59.6	327	13
2023-09-08T18:00	11641	223	-52.0	-59.6	327	13
2023-09-08T18:00	11670	222	-52.3	-60.0	327	13
2023-09-08T18:00	11699	221	-52.4	-60.5	327	13
2023-09-08T18:00	11724	220	-52.6	-61.1	327	13
2023-09-08T18:00	11750	219	-52.8	-61.1	326	13
2023-09-08T18:00	11775	219	-53.0	-60.9	325	13
2023-09-08T18:00	11804	218	-53.2	-61.0	324	13
2023-09-08T18:00	11830	217	-53.5	-61.2	323	13
2023-09-08T18:00	11857	216	-53.7	-61.2	323	13
2023-09-08T18:00	11886	215	-53.9	-61.2	323	13
2023-09-08T18:00	11910	214	-54.1	-61.1	324	13
2023-09-08T18:00	11936	213	-54.3	-60.8	324	13
2023-09-08T18:00	11964	212	-54.6	-60.8	325	13
2023-09-08T18:00	11992	211	-54.7	-60.9	325	13
2023-09-08T18:00	12016	211	-54.9	-61.1	325	13
2023-09-08T18:00	12042	210	-55.1	-61.2	325	13
2023-09-08T18:00	12066	209	-55.4	-61.3	325	13
2023-09-08T18:00	12092	208	-55.5	-61.3	326	14
2023-09-08T18:00	12117	207	-55.6	-61.4	327	14
2023-09-08T18:00	12144	206	-55.8	-61.6	327	14
2023-09-08T18:00	12172	205	-56.0	-61.8	327	14
2023-09-08T18:00	12200	205	-56.2	-62.0	327	14
2023-09-08T18:00	12229	204	-56.4	-62.2	327	14
2023-09-08T18:00	12255	203	-56.5	-62.0	327	14
2023-09-08T18:00	12285	202	-56.6	-61.7	327	14
2023-09-08T18:00	12313	201	-56.7	-61.5	327	14
2023-09-08T18:00	12341	200	-57.0	-61.7	327	14
2023-09-08T18:00	12368	199	-57.1	-61.9	326	14
2023-09-08T18:00	12396	198	-57.3	-62.2	326	14
2023-09-08T18:00	12421	198	-57.5	-62.5	325	14
2023-09-08T18:00	12449	197	-57.6	-62.7	324	14
2023-09-08T18:00	12477	196	-57.8	-62.9	322	14
2023-09-08T18:00	12505	195	-58.0	-63.2	321	14
2023-09-08T18:00	12533	194	-58.1	-63.4	320	14
2023-09-08T18:00	12558	193	-58.3	-63.8	320	14
2023-09-08T18:00	12589	192	-58.4	-64.0	320	15
2023-09-08T18:00	12615	192	-58.6	-64.4	322	15
2023-09-08T18:00	12641	191	-58.7	-64.7	323	15
2023-09-08T18:00	12666	190	-58.7	-64.8	325	15
2023-09-08T18:00	12690	189	-58.9	-65.0	326	15
2023-09-08T18:00	12711	189	-59.1	-65.1	328	15
2023-09-08T18:00	12735	188	-59.2	-65.0	328	15
2023-09-08T18:00	12754	187	-59.4	-65.1	328	15
2023-09-08T18:00	12775	187	-59.5	-65.1	328	15
2023-09-08T18:00	12798	186	-59.6	-65.2	328	15
2023-09-08T18:00	12819	185	-59.7	-65.3	328	15
2023-09-08T18:00	12841	185	-59.9	-65.4	328	15
2023-09-08T18:00	12861	184	-60.0	-65.5	329	15
2023-09-08T18:00	12884	184	-60.2	-65.6	329	15
2023-09-08T18:00	12904	183	-60.3	-65.7	329	15
2023-09-08T18:00	12926	182	-60.4	-65.8	329	15
2023-09-08T18:00	12947	182	-60.6	-65.9	329	15
2023-09-08T18:00	12968	181	-60.8	-66.0	329	15
2023-09-08T18:00	12991	180	-60.9	-66.0	329	15
2023-09-08T18:00	13009	180	-61.0	-66.0	330	15
2023-09-08T18:00	13029	179	-61.1	-66.1	330	14
2023-09-08T18:00	13050	179	-61.2	-66.3	331	14
2023-09-08T18:00	13071	178	-61.3	-66.5	332	14
2023-09-08T18:00	13093	177	-61.3	-66.7	333	14
2023-09-08T18:00	13114	177	-61.4	-67.0	333	14
2023-09-08T18:00	13136	176	-61.5	-67.4	333	14
2023-09-08T18:00	13155	176	-61.5	-67.6	332	14
2023-09-08T18:00	13178	175	-61.5	-67.9	331	14
2023-09-08T18:00	13199	174	-61.6	-68.3	330	14
2023-09-08T18:00	13218	174	-61.7	-68.7	330	14
2023-09-08T18:00	13241	173	-61.7	-68.9	329	15
2023-09-08T18:00	13260	173	-61.9	-69.2	328	15
2023-09-08T18:00	13282	172	-62.0	-69.4	328	15
2023-09-08T18:00	13301	172	-62.1	-69.5	327	14
2023-09-08T18:00	13321	171	-62.2	-69.7	327	14
2023-09-08T18:00	13342	170	-62.3	-70.0	325	13
2023-09-08T18:00	13366	170	-62.4	-70.3	324	13
2023-09-08T18:00	13385	169	-62.5	-70.6	322	12
2023-09-08T18:00	13406	169	-62.4	-70.7	320	12
2023-09-08T18:00	13427	168	-62.3	-70.8	319	12
2023-09-08T18:00	13446	168	-62.3	-71.1	318	12
2023-09-08T18:00	13471	167	-62.4	-71.4	318	12
2023-09-08T18:00	13489	166	-62.2	-71.4	319	12
2023-09-08T18:00	13512	166	-62.3	-71.7	319	13
2023-09-08T18:00	13533	165	-62.3	-71.8	320	13
2023-09-08T18:00	13553	165	-62.4	-71.9	320	13
2023-09-08T18:00	13573	164	-62.6	-72.1	319	14
2023-09-08T18:00	13595	164	-62.6	-72.2	319	14
2023-09-08T18:00	13613	163	-62.4	-72.3	318	13
2023-09-08T18:00	13634	163	-62.4	-72.7	317	13
2023-09-08T18:00	13656	162	-62.3	-73.0	317	13
2023-09-08T18:00	13674	161	-62.1	-73.2	318	13
2023-09-08T18:00	13698	161	-62.2	-73.6	320	14
2023-09-08T18:00	13718	160	-62.2	-73.9	323	15
2023-09-08T18:00	13740	160	-62.2	-74.1	326	16
2023-09-08T18:00	13762	159	-61.9	-74.1	327	17
2023-09-08T18:00	13783	159	-62.0	-74.4	328	18
2023-09-08T18:00	13808	158	-62.2	-74.6	327	18
2023-09-08T18:00	13829	158	-62.4	-74.8	325	17
2023-09-08T18:00	13849	157	-62.5	-74.8	323	16
2023-09-08T18:00	13869	156	-62.7	-75.0	321	15
2023-09-08T18:00	13892	156	-62.7	-75.2	319	14
2023-09-08T18:00	13911	155	-62.8	-75.7	319	14
2023-09-08T18:00	13931	155	-62.7	-76.0	320	14
2023-09-08T18:00	13953	154	-62.4	-76.2	321	13
2023-09-08T18:00	13975	154	-62.4	-76.6	323	13
2023-09-08T18:00	13997	153	-62.4	-76.9	324	13
2023-09-08T18:00	14016	153	-62.5	-77.2	326	12
2023-09-08T18:00	14038	152	-62.7	-77.5	328	12
2023-09-08T18:00	14057	152	-62.8	-77.5	330	12
2023-09-08T18:00	14079	151	-62.9	-77.6	332	11
2023-09-08T18:00	14102	151	-63.0	-77.7	333	11
2023-09-08T18:00	14122	150	-63.1	-77.8	334	11
2023-09-08T18:00	14142	150	-63.2	-77.9	335	10
2023-09-08T18:00	14162	149	-63.1	-77.9	334	10
2023-09-08T18:00	14182	149	-63.2	-78.0	333	10
2023-09-08T18:00	14200	148	-63.2	-78.1	331	10
2023-09-08T18:00	14224	148	-63.3	-78.3	329	10
2023-09-08T18:00	14245	147	-63.3	-78.5	328	10
2023-09-08T18:00	14265	147	-63.2	-78.5	327	10
2023-09-08T18:00	14288	146	-63.3	-78.7	327	9
2023-09-08T18:00	14311	146	-63.2	-78.7	326	9
2023-09-08T18:00	14332	145	-63.2	-78.7	324	8
2023-09-08T18:00	14354	145	-63.3	-78.9	321	8
2023-09-08T18:00	14373	144	-63.4	-79.1	317	8
2023-09-08T18:00	14393	144	-63.3	-79.3	315	8
2023-09-08T18:00	14416	143	-63.3	-79.5	314	9
2023-09-08T18:00	14437	143	-63.3	-79.7	314	9
2023-09-08T18:00	14457	142	-63.3	-79.8	315	9
2023-09-08T18:00	14478	142	-63.3	-80.0	316	9
2023-09-08T18:00	14501	141	-63.2	-80.0	317	9
2023-09-08T18:00	14525	141	-63.1	-79.9	317	9
2023-09-08T18:00	14545	140	-63.1	-79.8	316	9
2023-09-08T18:00	14564	140	-63.2	-79.9	315	8
2023-09-08T18:00	14587	139	-63.2	-79.9	314	8
2023-09-08T18:00	14610	139	-63.3	-80.1	312	8
2023-09-08T18:00	14630	138	-63.3	-80.4	310	8
2023-09-08T18:00	14652	138	-63.2	-80.5	308	8
2023-09-08T18:00	14674	137	-63.3	-80.9	305	8
2023-09-08T18:00	14695	137	-63.3	-81.1	304	9
2023-09-08T18:00	14719	136	-63.3	-81.2	302	9
2023-09-08T18:00	14741	136	-63.3	-81.2	301	9
2023-09-08T18:00	14763	135	-63.4	-81.2	299	9
2023-09-08T18:00	14784	135	-63.5	-81.2	299	10
2023-09-08T18:00	14804	134	-63.7	-81.2	299	10
2023-09-08T18:00	14824	134	-63.8	-81.1	300	10
2023-09-08T18:00	14849	133	-64.0	-81.1	302	11
2023-09-08T18:00	14871	133	-63.9	-81.0	304	11
2023-09-08T18:00	14892	133	-63.9	-80.9	307	12
2023-09-08T18:00	14914	132	-63.9	-81.0	309	13
2023-09-08T18:00	14934	132	-63.7	-81.0	313	13
2023-09-08T18:00	14957	131	-63.7	-81.1	316	14
2023-09-08T18:00	14979	131	-63.6	-81.3	320	14
2023-09-08T18:00	15001	130	-63.4	-81.2	324	14
2023-09-08T18:00	15023	130	-63.2	-81.2	329	14
2023-09-08T18:00	15049	129	-63.0	-81.2	334	13
2023-09-08T18:00	15076	129	-62.9	-81.2	339	13
2023-09-08T18:00	15103	128	-62.8	-81.2	343	12
2023-09-08T18:00	15130	128	-62.6	-81.1	346	11
2023-09-08T18:00	15148	127	-62.6	-81.1	348	11
2023-09-08T18:00	15172	127	-62.6	-81.1	349	10
2023-09-08T18:00	15195	126	-62.8	-81.2	350	10
2023-09-08T18:00	15217	126	-62.9	-81.3	352	9
2023-09-08T18:00	15239	125	-63.1	-81.5	355	9
2023-09-08T18:00	15260	125	-63.1	-81.5	359	8
2023-09-08T18:00	15279	124	-63.2	-81.6	3	8
2023-09-08T18:00	15304	124	-63.0	-81.6	6	7
2023-09-08T18:00	15323	124	-62.8	-81.6	8	7
2023-09-08T18:00	15347	123	-62.8	-81.7	9	6
2023-09-08T18:00	15366	123	-62.8	-81.9	10	6
2023-09-08T18:00	15388	122	-62.7	-82.1	10	6
2023-09-08T18:00	15410	122	-62.5	-82.1	10	5
2023-09-08T18:00	15431	121	-62.3	-82.1	9	5
2023-09-08T18:00	15452	121	-62.2	-82.3	8	4
2023-09-08T18:00	15472	121	-62.1	-82.3	6	4
2023-09-08T18:00	15495	120	-62.1	-82.3	3	4
2023-09-08T18:00	15517	120	-62.2	-82.4	358	3
2023-09-08T18:00	15538	119	-62.4	-82.6	352	3
2023-09-08T18:00	15561	119	-62.5	-82.6	345	3
2023-09-08T18:00	15581	118	-62.7	-82.7	339	3
2023-09-08T18:00	15603	118	-62.8	-82.8	334	3
2023-09-08T18:00	15624	118	-63.0	-82.8	330	3
2023-09-08T18:00	15645	117	-63.1	-82.9	327	3
2023-09-08T18:00	15667	117	-63.3	-82.9	323	3
2023-09-08T18:00	15692	116	-63.4	-82.9	317	3
2023-09-08T18:00	15714	116	-63.6	-83.0	310	3
2023-09-08T18:00	15736	116	-63.7	-83.1	306	3
2023-09-08T18:00	15758	115	-63.8	-83.2	307	3
2023-09-08T18:00	15781	115	-63.9	-83.3	311	4
2023-09-08T18:00	15802	114	-64.0	-83.4	317	4
2023-09-08T18:00	15825	114	-63.8	-83.3	322	5
2023-09-08T18:00	15848	113	-63.7	-83.2	327	5
2023-09-08T18:00	15871	113	-63.5	-83.2	331	6
2023-09-08T18:00	15891	113	-63.4	-83.2	334	6
2023-09-08T18:00	15916	112	-63.1	-83.1	336	6
2023-09-08T18:00	15941	112	-63.0	-83.3	338	6
2023-09-08T18:00	15962	111	-62.9		340	6
2023-09-08T18:00	15982	111	-62.7	-83.5	342	6
2023-09-08T18:00	16007	111	-62.8	-83.7	344	6
2023-09-08T18:00	16027	110	-62.5	-83.6	346	7
2023-09-08T18:00	16050	110	-62.5	-83.8	349	7
2023-09-08T18:00	16074	109	-62.6	-84.0	351	7
2023-09-08T18:00	16096	109	-62.7	-84.2	353	7
2023-09-08T18:00	16121	109	-62.4	-84.0	356	7
2023-09-08T18:00	16144	108	-62.4	-84.2	358	7
2023-09-08T18:00	16168	108	-62.4	-84.3	360	7
2023-09-08T18:00	16188	107	-62.4	-84.3	1	7
2023-09-08T18:00	16213	107	-62.5	-84.6	1	7
2023-09-08T18:00	16234	107	-62.2	-84.5	359	6
2023-09-08T18:00	16258	106	-62.1	-84.4	356	6
2023-09-08T18:00	16282	106	-62.1	-84.4	351	6
2023-09-08T18:00	16304	105	-62.3	-84.8	347	6
2023-09-08T18:00	16329	105	-62.4	-84.9	345	6
2023-09-08T18:00	16352	105	-62.4	-84.9	346	6
2023-09-08T18:00	16374	104	-62.3	-84.8	349	6
2023-09-08T18:00	16396	104	-62.1	-84.8	353	6
2023-09-08T18:00	16417	103	-62.0	-84.7	356	6
2023-09-08T18:00	16439	103	-62.1	-84.8	357	6
2023-09-08T18:00	16461	103	-62.2	-84.9	358	6
2023-09-08T18:00	16484	102	-62.4	-85.1	359	7
2023-09-08T18:00	16507	102	-62.4	-85.1	0	7
2023-09-08T18:00	16530	102	-62.4	-85.1	2	7
2023-09-08T18:00	16548	101	-62.4	-85.1	5	6
2023-09-08T18:00	16573	101	-62.5	-85.1	8	6
2023-09-08T18:00	16598	100	-62.6	-85.2	10	6
2023-09-08T18:00	16619	100	-62.8	-85.4	11	6
2023-09-08T18:00	16642	100	-62.9	-85.5	10	6
2023-09-08T18:00	16666	99	-62.8	-85.4	8	5
2023-09-08T18:00	16687	99	-62.8	-85.6	4	5
2023-09-08T18:00	16707	99	-62.8	-85.6	1	5
2023-09-08T18:00	16731	98	-62.9	-85.6	359	5
2023-09-08T18:00	16750	98	-63.0	-85.9	358	5
2023-09-08T18:00	16774	98	-62.8	-86.0	359	5
2023-09-08T18:00	16792	97	-62.3	-85.8	360	5
2023-09-08T18:00	16814	97	-61.6	-85.5	1	5
2023-09-08T18:00	16838	97	-61.4	-85.5	1	5
2023-09-08T18:00	16861	96	-61.2	-85.4	1	5
2023-09-08T18:00	16879	96	-61.2	-85.4	1	5
2023-09-08T18:00	16902	96	-61.2	-85.4	1	4
2023-09-08T18:00	16923	95	-61.2	-85.4	359	4
2023-09-08T18:00	16944	95	-61.3	-85.2	356	3
2023-09-08T18:00	16967	95	-61.4	-85.3	350	3
2023-09-08T18:00	16991	94	-61.5	-85.4	342	3
2023-09-08T18:00	17011	94	-61.6	-85.5	335	3
2023-09-08T18:00	17036	94	-61.8	-85.6	329	3
2023-09-08T18:00	17059	93	-61.8	-85.6	327	3
2023-09-08T18:00	17081	93	-61.7	-85.8	327	3
2023-09-08T18:00	17104	93	-61.6	-85.7	328	3
2023-09-08T18:00	17128	92	-61.5	-85.9	331	3
2023-09-08T18:00	17148	92	-61.4	-85.8	336	3
2023-09-08T18:00	17169	92	-61.2	-85.9	343	3
2023-09-08T18:00	17191	91	-61.2	-85.9	352	3
2023-09-08T18:00	17212	91	-61.2	-85.9	2	3
2023-09-08T18:00	17232	91	-61.2	-85.9	12	2
2023-09-08T18:00	17256	90	-61.3	-86.0	21	2
2023-09-08T18:00	17280	90	-61.5	-86.1	29	2
2023-09-08T18:00	17302	90	-61.4	-86.0	34	1
2023-09-08T18:00	17324	89	-61.3	-85.7	28	1
2023-09-08T18:00	17348	89	-61.4	-85.8	337	0
2023-09-08T18:00	17371	89	-61.5	-85.9	300	1
2023-09-08T18:00	17394	88	-61.7	-85.8	299	1
2023-09-08T18:00	17417	88	-61.8	-85.9	305	2
2023-09-08T18:00	17441	88	-61.9	-85.9	312	2
2023-09-08T18:00	17463	87	-62.0	-86.0	318	3
2023-09-08T18:00	17486	87	-62.0	-86.0	323	3
2023-09-08T18:00	17504	87	-61.8	-86.1	326	4
2023-09-08T18:00	17529	86	-61.7	-86.0	330	3
2023-09-08T18:00	17554	86	-61.7	-86.3	334	3
2023-09-08T18:00	17573	86	-61.6	-86.2	340	3
2023-09-08T18:00	17596	85	-61.3	-86.2	346	3
2023-09-08T18:00	17617	85	-61.2	-86.2	353	2
2023-09-08T18:00	17641	85	-61.2	-86.2	358	2
2023-09-08T18:00	17660	85	-61.0	-86.0	1	2
2023-09-08T18:00	17685	84	-60.9	-85.9	2	2
2023-09-08T18:00	17707	84	-61.0	-86.0	2	2
2023-09-08T18:00	17727	84	-60.9	-86.2	5	2
2023-09-08T18:00	17750	83	-60.8	-86.1	10	2
2023-09-08T18:00	17773	83	-60.7	-86.3	15	2
2023-09-08T18:00	17796	83	-60.3	-86.0	17	2
2023-09-08T18:00	17820	82	-60.0	-86.1	16	2
2023-09-08T18:00	17841	82	-60.0	-86.1	12	3
2023-09-08T18:00	17864	82	-59.9	-86.0	5	3
2023-09-08T18:00	17886	82	-59.8	-85.9	358	3
2023-09-08T18:00	17909	81	-59.7	-85.9	352	3
2023-09-08T18:00	17931	81	-59.8	-85.9	347	3
2023-09-08T18:00	17955	81	-59.7	-85.9	342	3
2023-09-08T18:00	17976	80	-59.6	-85.8	338	4
2023-09-08T18:00	17998	80	-59.6	-85.8	336	4
2023-09-08T18:00	18021	80	-59.6	-85.8	335	4
2023-09-08T18:00	18047	80	-59.7	-85.9	335	4
2023-09-08T18:00	18069	79	-59.5	-85.7	336	4
2023-09-08T18:00	18095	79	-59.6	-85.8	337	4
2023-09-08T18:00	18116	79	-59.6	-85.8	337	4
2023-09-08T18:00	18141	78	-59.6	-85.8	336	4
2023-09-08T18:00	18162	78	-59.7	-85.9	335	5
2023-09-08T18:00	18189	78	-59.7	-85.9	334	5
2023-09-08T18:00	18208	77	-59.6	-86.1	333	5
2023-09-08T18:00	18234	77	-59.5	-86.0	331	5
2023-09-08T18:00	18255	77	-59.4	-86.0	328	5
2023-09-08T18:00	18278	77	-59.3	-85.9	324	5
2023-09-08T18:00	18305	76	-59.2	-86.2	319	5
2023-09-08T18:00	18327	76	-59.1		315	5
2023-09-08T18:00	18349	76	-59.0	-86.0	313	6
2023-09-08T18:00	18373	75	-58.9	-85.9	313	6
2023-09-08T18:00	18398	75	-58.8	-85.9	314	6
2023-09-08T18:00	18422	75	-58.7	-85.8	318	6
2023-09-08T18:00	18444	75	-58.7	-85.8	322	6
2023-09-08T18:00	18472	74	-58.8	-85.9	329	6
2023-09-08T18:00	18496	74	-58.9	-85.9	336	6
2023-09-08T18:00	18517	74	-58.8	-85.9	344	6
2023-09-08T18:00	18543	73	-58.8	-85.9	350	6
2023-09-08T18:00	18568	73	-58.7	-85.8	356	6
2023-09-08T18:00	18586	73	-58.7	-85.8	359	6
2023-09-08T18:00	18614	73	-58.8	-85.9	2	6
2023-09-08T18:00	18637	72	-58.8	-85.9	2	6
2023-09-08T18:00	18661	72	-58.9	-85.9	2	7
2023-09-08T18:00	18685	72	-58.9	-85.9	2	7
2023-09-08T18:00	18715	72	-58.7	-86.1	3	7
2023-09-08T18:00	18736	71	-58.5	-86.0	4	7
2023-09-08T18:00	18758	71	-58.3	-85.8	7	7
2023-09-08T18:00	18783	71	-58.2	-85.8	11	7
2023-09-08T18:00	18804	70	-58.2	-85.8	16	7
2023-09-08T18:00	18831	70	-58.3	-85.8	21	7
2023-09-08T18:00	18853	70	-58.3	-85.8	24	7
2023-09-08T18:00	18875	70	-58.3	-85.8	27	7
2023-09-08T18:00	18897	69	-58.3	-85.5	30	7
2023-09-08T18:00	18919	69	-58.4	-85.5	32	7
2023-09-08T18:00	18943	69	-58.5	-85.6	35	7
2023-09-08T18:00	18968	69	-58.4	-85.5	37	7
2023-09-08T18:00	18990	68	-58.4	-85.9	41	6
2023-09-08T18:00	19013	68	-58.4	-85.9	44	6
2023-09-08T18:00	19036	68	-58.5	-85.6	48	6
2023-09-08T18:00	19062	68	-58.7	-85.8	51	6
2023-09-08T18:00	19085	67	-58.8	-85.9	53	5
2023-09-08T18:00	19105	67	-58.9	-85.9	55	5
2023-09-08T18:00	19128	67	-58.9	-85.9	56	4
2023-09-08T18:00	19153	67	-59.0	-86.4	56	3
2023-09-08T18:00	19174	66	-58.8	-86.2	56	3
2023-09-08T18:00	19199	66	-58.6	-86.1	55	2
2023-09-08T18:00	19223	66	-58.7	-86.1	51	2
2023-09-08T18:00	19244	66	-58.8	-86.2	36	1
2023-09-08T18:00	19270	65	-58.9	-86.3	344	1
2023-09-08T18:00	19295	65	-59.0	-86.4	297	1
2023-09-08T18:00	19316	65	-59.0	-86.4	283	1
2023-09-08T18:00	19336	65	-58.7	-86.1	279	2
2023-09-08T18:00	19363	65	-58.5	-86.0	278	2
2023-09-08T18:00	19382	64	-58.3	-86.2	280	3
2023-09-08T18:00	19406	64	-58.1		285	3
2023-09-08T18:00	19428	64	-58.0	-86.0	290	4
2023-09-08T18:00	19455	64	-57.7	-85.8	295	5
2023-09-08T18:00	19476	63	-57.7	-85.8	300	5
2023-09-08T18:00	19498	63	-57.7	-85.8	306	6
2023-09-08T18:00	19523	63	-57.8	-85.9	312	6
2023-09-08T18:00	19546	63	-57.8	-85.9	318	6
2023-09-08T18:00	19569	62	-57.7	-85.8	324	6
2023-09-08T18:00	19593	62	-57.7	-85.8	331	6
2023-09-08T18:00	19615	62	-57.6	-85.7	338	6
2023-09-08T18:00	19639	62	-57.5	-85.6	344	6
2023-09-08T18:00	19663	61	-57.4	-85.6	349	6
2023-09-08T18:00	19687	61	-57.6	-85.7	352	6
2023-09-08T18:00	19711	61	-57.7	-85.8	352	6
2023-09-08T18:00	19736	61	-57.8	-85.9	350	5
2023-09-08T18:00	19759	61	-57.9	-85.5	347	5
2023-09-08T18:00	19785	60	-58.0	-85.6	342	5
2023-09-08T18:00	19810	60	-58.0	-85.6	337	5
2023-09-08T18:00	19833	60	-58.1		334	5
2023-09-08T18:00	19860	60	-57.9		333	6
2023-09-08T18:00	19881	59	-57.8	-85.9	333	6
2023-09-08T18:00	19908	59	-57.9		336	6
2023-09-08T18:00	19932	59	-57.9		340	7
2023-09-08T18:00	19951	59	-58.0	-86.0	346	7
2023-09-08T18:00	19980	58	-58.0	-86.0	353	7
2023-09-08T18:00	20006	58	-57.9		1	7
2023-09-08T18:00	20032	58	-57.8	-85.9	7	8
2023-09-08T18:00	20055	58	-57.7	-85.8	13	8
2023-09-08T18:00	20079	58	-57.7	-85.8	18	8
2023-09-08T18:00	20099	57	-57.8	-85.9	22	7
2023-09-08T18:00	20130	57	-58.0	-86.0	26	7
2023-09-08T18:00	20151	57	-58.1	-85.7	29	7
2023-09-08T18:00	20174	57	-58.2	-85.8	32	7
2023-09-08T18:00	20201	56	-58.3	-85.8	33	6
2023-09-08T18:00	20227	56	-58.3	-85.8	32	6
2023-09-08T18:00	20253	56	-58.5	-86.0	30	5
2023-09-08T18:00	20277	56	-58.6	-86.1	27	5
2023-09-08T18:00	20301	56	-58.8	-85.9	23	5
2023-09-08T18:00	20329	55	-59.0	-86.0	20	5
2023-09-08T18:00	20355	55	-59.2	-86.2	16	5
2023-09-08T18:00	20379	55	-59.3	-86.2	12	5
2023-09-08T18:00	20405	55	-59.3	-86.2	6	5
2023-09-08T18:00	20430	54	-59.3	-86.2	0	5
2023-09-08T18:00	20461	54	-59.4	-86.3	354	5
2023-09-08T18:00	20482	54	-59.5	-86.4	348	5
2023-09-08T18:00	20508	54	-59.5	-86.4	343	5
2023-09-08T18:00	20531	54	-59.7	-86.9	340	6
2023-09-08T18:00	20553	53	-59.6	-86.8	339	6
2023-09-08T18:00	20578	53	-59.3	-86.6	339	6
2023-09-08T18:00	20605	53	-59.1	-86.8	342	6
2023-09-08T18:00	20631	53	-59.1	-86.8	346	6
2023-09-08T18:00	20653	53	-58.9	-86.7	351	6
2023-09-08T18:00	20676	52	-58.5	-86.4	356	6
2023-09-08T18:00	20702	52	-58.4	-86.7	0	6
2023-09-08T18:00	20732	52	-58.2	-86.6	4	6
2023-09-08T18:00	20751	52	-58.0	-86.4	8	6
2023-09-08T18:00	20776	52	-57.9	-86.4	11	6
2023-09-08T18:00	20799	51	-57.9	-86.4	16	6
2023-09-08T18:00	20826	51	-57.8	-85.9	21	6
2023-09-08T18:00	20855	51	-57.8	-85.9	26	6
2023-09-08T18:00	20874	51	-57.9		31	6
2023-09-08T18:00	20899	51	-57.9		35	6
2023-09-08T18:00	20921	50	-57.9		38	6
2023-09-08T18:00	20950	50	-57.8	-85.9	41	6
2023-09-08T18:00	20973	50	-58.0	-86.0	43	6
2023-09-08T18:00	21001	50	-58.2	-86.2	47	6
2023-09-08T18:00	21026	50	-58.3	-85.8	50	6
2023-09-08T18:00	21050	49	-58.4	-85.9	54	5
2023-09-08T18:00	21076	49	-58.5	-86.0	58	5
2023-09-08T18:00	21100	49	-58.6	-86.1	62	5
2023-09-08T18:00	21123	49	-58.7	-86.1	65	4
2023-09-08T18:00	21148	49	-58.8	-86.2	67	4
2023-09-08T18:00	21174	48	-58.6	-86.1	68	4
2023-09-08T18:00	21200	48	-58.6	-86.5	65	3
2023-09-08T18:00	21224	48	-58.5	-86.4	59	3
2023-09-08T18:00	21245	48	-58.4	-86.3	46	2
2023-09-08T18:00	21271	48	-58.3	-86.2	29	2
2023-09-08T18:00	21294	47	-58.2	-86.2	12	2
2023-09-08T18:00	21318	47	-58.2	-86.2	359	3
2023-09-08T18:00	21343	47	-58.2	-86.2	350	3
2023-09-08T18:00	21367	47	-58.2	-86.2	342	3
2023-09-08T18:00	21393	47	-58.1		336	4
2023-09-08T18:00	21415	47	-58.2	-86.2	331	4
2023-09-08T18:00	21446	46	-58.3	-86.2	329	4
2023-09-08T18:00	21469	46	-58.4	-86.3	328	4
2023-09-08T18:00	21494	46	-58.4	-86.3	330	4
2023-09-08T18:00	21518	46	-58.4	-86.3	332	4
2023-09-08T18:00	21544	46	-58.4	-86.3	333	4
2023-09-08T18:00	21570	45	-57.8	-86.3	331	4
2023-09-08T18:00	21598	45	-57.6	-86.1	326	3
2023-09-08T18:00	21622	45	-57.5	-86.1	320	3
2023-09-08T18:00	21645	45	-57.3	-85.9	315	4
2023-09-08T18:00	21674	45	-57.3	-85.9	314	4
2023-09-08T18:00	21693	45	-57.5	-86.1	314	5
2023-09-08T18:00	21723	44	-57.6	-85.7	316	5
2023-09-08T18:00	21748	44	-57.7	-85.8	319	5
2023-09-08T18:00	21771	44	-57.9		322	6
2023-09-08T18:00	21795	44	-58.0	-86.0	325	6
2023-09-08T18:00	21826	44	-58.2	-86.2	329	6
2023-09-08T18:00	21846	43	-58.2	-86.2	332	7
2023-09-08T18:00	21873	43	-58.2	-86.2	335	7
2023-09-08T18:00	21904	43	-57.7	-85.8	339	7
2023-09-08T18:00	21926	43	-57.7	-86.2	344	7
2023-09-08T18:00	21946	43	-57.8	-86.3	350	7
2023-09-08T18:00	21975	43	-57.7	-86.2	357	7
2023-09-08T18:00	22003	42	-57.6	-86.1	4	7
2023-09-08T18:00	22024	42	-57.5	-86.1	10	7
2023-09-08T18:00	22048	42	-57.5	-86.1	14	7
2023-09-08T18:00	22075	42	-57.3	-86.4	16	7
2023-09-08T18:00	22101	42	-56.9	-86.1	15	7
2023-09-08T18:00	22122	42	-56.8	-86.0	14	7
2023-09-08T18:00	22145	41	-56.8	-86.0	14	7
2023-09-08T18:00	22169	41	-56.6	-85.8	16	8
2023-09-08T18:00	22196	41	-56.4	-85.7	19	8
2023-09-08T18:00	22224	41	-56.3	-85.6	24	8
2023-09-08T18:00	22244	41	-56.2	-85.5	30	8
2023-09-08T18:00	22271	41	-56.1	-85.5	36	8
2023-09-08T18:00	22298	41	-56.0		42	8
2023-09-08T18:00	22312	40	-55.9	-85.3	48	8
2023-09-08T18:00	22339	40	-56.0		55	8
2023-09-08T18:00	22365	40	-56.0		61	8
2023-09-08T18:00	22384	40	-55.9	-85.3	66	8
2023-09-08T18:00	22416	40	-56.0		70	8
2023-09-08T18:00	22440	40	-55.9	-85.3	73	9
2023-09-08T18:00	22461	39	-55.9	-85.3	76	9
2023-09-08T18:00	22494	39	-56.1	-85.0	77	8
2023-09-08T18:00	22517	39	-56.2	-85.1	79	8
2023-09-08T18:00	22548	39	-56.2	-85.1	80	7
2023-09-08T18:00	22571	39	-56.3	-85.1	82	7
2023-09-08T18:00	22594	39	-56.4	-85.2	85	6
2023-09-08T18:00	22620	38	-56.5	-85.3	90	5
2023-09-08T18:00	22647	38	-56.5	-85.3	98	4
2023-09-08T18:00	22677	38	-56.4	-85.2	106	4
2023-09-08T18:00	22701	38	-56.4	-85.2	114	3
2023-09-08T18:00	22727	38	-56.4	-85.2	119	3
2023-09-08T18:00	22755	38	-56.4	-85.2	123	3
2023-09-08T18:00	22778	38	-56.3	-85.1	125	2
2023-09-08T18:00	22802	37	-56.3	-85.1	126	2
2023-09-08T18:00	22830	37	-56.4	-85.2	125	1
2023-09-08T18:00	22856	37	-56.4	-85.2	118	1
2023-09-08T18:00	22887	37	-56.6	-85.4	91	1
2023-09-08T18:00	22904	37	-56.8	-85.5	45	1
2023-09-08T18:00	22935	37	-56.9	-85.6	24	1
2023-09-08T18:00	22961	36	-57.0	-85.7	17	1
2023-09-08T18:00	22985	36	-57.1	-85.7	15	2
2023-09-08T18:00	23015	36	-57.2	-85.8	15	2
2023-09-08T18:00	23038	36	-57.3	-85.9	16	3
2023-09-08T18:00	23063	36	-57.3	-85.9	18	3
2023-09-08T18:00	23095	36	-57.3	-85.9	20	4
2023-09-08T18:00	23124	36	-57.3	-85.9	21	4
2023-09-08T18:00	23138	35	-57.4	-86.0	21	4
2023-09-08T18:00	23173	35	-57.5	-86.1	19	4
2023-09-08T18:00	23193	35	-57.6	-86.1	15	4
2023-09-08T18:00	23223	35	-57.6	-86.1	10	3
2023-09-08T18:00	23251	35	-57.6	-86.1	4	3
2023-09-08T18:00	23277	35	-57.7	-86.2	357	3
2023-09-08T18:00	23304	35	-57.6	-86.1	350	3
2023-09-08T18:00	23327	34	-57.6	-85.7	344	3
2023-09-08T18:00	23356	34	-57.8	-85.9	341	3
2023-09-08T18:00	23380	34	-57.9		344	3
2023-09-08T18:00	23405	34	-57.8	-86.3	350	3
2023-09-08T18:00	23433	34	-57.6	-86.1	357	3
2023-09-08T18:00	23458	34	-57.4	-86.0	3	4
2023-09-08T18:00	23483	34	-57.2	-85.8	8	4
2023-09-08T18:00	23512	33	-57.1	-86.2	11	5
2023-09-08T18:00	23534	33	-56.9	-86.1	13	5
2023-09-08T18:00	23566	33	-56.9	-86.1	14	5
2023-09-08T18:00	23584	33	-56.8	-86.0	14	4
2023-09-08T18:00	23620	33	-56.9	-86.1	14	4
2023-09-08T18:00	23641	33	-56.8	-86.0	13	4
2023-09-08T18:00	23663	33	-56.6	-85.8	13	4
2023-09-08T18:00	23692	33	-56.5	-85.8	13	4
2023-09-08T18:00	23717	32	-56.5	-85.8	13	4
2023-09-08T18:00	23746	32	-56.3	-85.6	13	4
2023-09-08T18:00	23767	32	-56.4	-85.7	13	4
2023-09-08T18:00	23798	32	-56.5	-85.8	13	4
2023-09-08T18:00	23817	32	-56.3	-85.6	14	4
2023-09-08T18:00	23849	32	-56.2	-85.5	18	4
2023-09-08T18:00	23876	32	-56.1	-85.5	25	4
2023-09-08T18:00	23908	31	-55.9	-85.3	35	4
2023-09-08T18:00	23927	31	-55.9	-85.3	45	4
2023-09-08T18:00	23958	31	-56.0		54	4
2023-09-08T18:00	23978	31	-56.2	-85.5	61	4
2023-09-08T18:00	24007	31	-56.2	-85.5	64	4
2023-09-08T18:00	24033	31	-56.0		65	4
2023-09-08T18:00	24058	31	-55.9	-85.3	62	4
2023-09-08T18:00	24084	31	-56.0		55	4
2023-09-08T18:00	24108	30	-56.1	-85.5	47	4
2023-09-08T18:00	24138	30	-56.0		39	5
2023-09-08T18:00	24165	30	-56.0		33	5
2023-09-08T18:00	24189	30	-56.0		29	6
2023-09-08T18:00	24220	30	-56.0		28	6
2023-09-08T18:00	24250	30	-56.1	-85.5	28	6
2023-09-08T18:00	24268	30	-56.0		29	6
2023-09-08T18:00	24292	30	-55.9	-85.3	29	6
2023-09-08T18:00	24328	29	-55.9	-85.3	28	6
2023-09-08T18:00	24350	29	-55.9	-85.3	28	6
2023-09-08T18:00	24383	29	-55.9	-85.8	29	6
2023-09-08T18:00	24408	29	-55.6	-85.6	30	6
2023-09-08T18:00	24434	29	-55.5	-85.5	32	7
2023-09-08T18:00	24462	29	-55.5	-85.5	34	7
2023-09-08T18:00	24482	29	-55.6	-85.1	35	7
2023-09-08T18:00	24507	29	-55.6	-85.1	37	7
2023-09-08T18:00	24542	28	-55.7	-85.2	38	8
2023-09-08T18:00	24566	28	-55.7	-85.2	39	8
2023-09-08T18:00	24593	28	-55.7	-85.2	40	8
2023-09-08T18:00	24624	28	-55.7	-85.2	42	8
2023-09-08T18:00	24649	28	-55.7	-85.7	43	7
2023-09-08T18:00	24676	28	-55.5	-85.5	46	7
2023-09-08T18:00	24701	28	-55.2	-85.3	49	7
2023-09-08T18:00	24737	28	-55.2	-85.3	53	6
2023-09-08T18:00	24762	27	-55.2	-85.3	58	5
2023-09-08T18:00	24789	27	-55.3	-85.4	61	5
2023-09-08T18:00	24818	27	-55.5	-85.5	63	4
2023-09-08T18:00	24844	27	-55.6	-85.6	64	4
2023-09-08T18:00	24867	27	-55.5	-85.5	65	4
2023-09-08T18:00	24893	27	-55.3	-85.4	65	3
2023-09-08T18:00	24921	27	-55.2	-85.3	65	3
2023-09-08T18:00	24946	27	-55.3	-85.4	63	3
2023-09-08T18:00	24976	27	-54.8	-85.0	62	3
2023-09-08T18:00	24996	26	-54.8	-85.5	63	3
2023-09-08T18:00	25018	26	-54.8	-85.5	66	3
2023-09-08T18:00	25054	26	-54.2	-85.1	73	2
2023-09-08T18:00	25076	26	-54.4	-85.2	85	2
2023-09-08T18:00	25103	26	-54.4	-85.2	100	2
2023-09-08T18:00	25135	26	-54.4	-85.2	119	2
2023-09-08T18:00	25161	26	-54.2	-85.1	137	2
2023-09-08T18:00	25184	26	-54.3	-85.2	149	2
2023-09-08T18:00	25223	26	-54.5	-84.8	156	2
2023-09-08T18:00	25239	25	-54.6	-84.8	160	2
2023-09-08T18:00	25277	25	-54.6	-84.8	163	2
2023-09-08T18:00	25299	25	-54.6	-84.8	168	2
2023-09-08T18:00	25322	25	-54.6	-84.8	175	2
2023-09-08T18:00	25349	25	-54.5	-84.8	183	2
2023-09-08T18:00	25380	25	-54.6	-84.8	192	3
2023-09-08T18:00	25414	25	-54.6	-84.8	200	3
2023-09-08T18:00	25436	25	-54.5	-84.8	209	3
2023-09-08T18:00	25466	25	-54.4	-84.7	219	2
2023-09-08T18:00	25486	25	-54.3	-85.2	236	2
2023-09-08T18:00	25520	24	-54.2	-85.1	262	2
2023-09-08T18:00	25550	24	-54.2	-85.1	295	2
2023-09-08T18:00	25575	24	-54.1	-85.0	317	2
2023-09-08T18:00	25611	24	-54.1	-85.0	328	3
2023-09-08T18:00	25629	24	-54.2	-85.1	333	3
2023-09-08T18:00	25657	24	-54.1	-85.0	333	3
2023-09-08T18:00	25683	24	-54.0	-84.9	331	2
2023-09-08T18:00	25714	24	-53.5	-85.2	327	2
2023-09-08T18:00	25741	24	-53.1	-84.9	323	2
2023-09-08T18:00	25769	23	-52.8	-84.7	324	2
2023-09-08T18:00	25785	23	-52.6	-84.5	330	1
2023-09-08T18:00	25824	23	-52.5	-84.4	343	1
2023-09-08T18:00	25846	23	-52.4	-84.4	358	2
2023-09-08T18:00	25886	23	-52.3	-84.3	11	2
2023-09-08T18:00	25914	23	-52.3	-84.3	21	2
2023-09-08T18:00	25940	23	-52.4	-84.4	30	2
2023-09-08T18:00	25965	23	-52.6	-83.9	36	3
2023-09-08T18:00	25985	23	-52.7	-84.0	42	3
2023-09-08T18:00	26026	23	-52.8	-84.1	45	3
2023-09-08T18:00	26058	22	-52.9	-84.1	45	3
2023-09-08T18:00	26075	22	-53.1	-84.3	40	3
2023-09-08T18:00	26099	22	-53.3	-84.4	32	3
2023-09-08T18:00	26125	22	-53.2	-84.4	19	2
2023-09-08T18:00	26152	22	-53.3	-84.4	2	2
2023-09-08T18:00	26185	22	-53.5	-84.6	346	3
2023-09-08T18:00	26210	22	-53.7	-84.7	334	3
2023-09-08T18:00	26240	22	-53.8	-84.8	328	3
2023-09-08T18:00	26259	22	-53.7	-84.7	326	3
2023-09-08T18:00	26289	22	-53.7	-84.7	329	3
2023-09-08T18:00	26318	22	-53.5	-84.6	332	3
2023-09-08T18:00	26353	21	-53.4	-84.5	333	4
2023-09-08T18:00	26375	21	-53.2	-85.0	330	4
2023-09-08T18:00	26393	21	-53.2	-85.0	326	5
2023-09-08T18:00	26443	21	-53.3	-85.0	319	5
2023-09-08T18:00	26459	21	-53.4	-84.5	312	5
2023-09-08T18:00	26489	21	-53.4	-84.5	303	4
2023-09-08T18:00	26517	21	-53.4	-84.5	292	4
2023-09-08T18:00	26551	21	-53.3	-85.0	281	4
2023-09-08T18:00	26575	21	-53.1	-84.9	275	4
2023-09-08T18:00	26612	21	-53.0	-84.8	276	4
2023-09-08T18:00	26631	21	-53.0	-84.8	284	4
2023-09-08T18:00	26657	20	-52.5	-84.4	297	4
2023-09-08T18:00	26678	20	-52.5	-84.4	311	4
2023-09-08T18:00	26716	20	-52.5	-84.4	324	4
2023-09-08T18:00	26742	20	-52.5	-84.4	334	5
2023-09-08T18:00	26771	20	-52.5	-84.4	339	5
2023-09-08T18:00	26793	20	-52.5	-84.4	340	5
2023-09-08T18:00	26821	20	-52.5	-84.4	336	5
2023-09-08T18:00	26850	20	-52.2	-84.2	329	5
2023-09-08T18:00	26876	20	-51.8	-84.6	319	5
2023-09-08T18:00	26902	20	-51.6	-84.5	307	4
2023-09-08T18:00	26931	20	-51.3	-84.3	295	4
2023-09-08T18:00	26955	20	-51.1	-84.1	285	4
2023-09-08T18:00	26988	19	-50.9	-84.0	280	4
2023-09-08T18:00	27009	19	-50.6	-83.7	279	5
2023-09-08T18:00	27043	19	-50.5	-83.7	280	5
2023-09-08T18:00	27078	19	-50.3	-83.5	282	5
2023-09-08T18:00	27097	19	-50.1	-83.4	285	6
2023-09-08T18:00	27132	19	-49.8	-83.2	288	6
2023-09-08T18:00	27157	19	-49.8	-83.2	290	6
2023-09-08T18:00	27180	19	-50.0	-83.3	293	6
2023-09-08T18:00	27227	19	-50.1	-83.4	298	6
2023-09-08T18:00	27240	19	-50.0	-83.3	302	5
2023-09-08T18:00	27270	19	-50.0	-83.3	306	5
2023-09-08T18:00	27298	19	-50.1	-83.4	309	5
2023-09-08T18:00	27336	18	-50.1	-83.4	310	5
2023-09-08T18:00	27359	18	-50.1	-83.4	309	5
2023-09-08T18:00	27382	18	-49.9	-83.2	308	5
2023-09-08T18:00	27406	18	-49.6	-83.0	306	6
2023-09-08T18:00	27439	18	-49.8	-83.2	304	6
2023-09-08T18:00	27463	18	-49.5	-82.9	303	7
2023-09-08T18:00	27493	18	-49.4	-83.7	302	7
2023-09-08T18:00	27531	18	-49.6	-83.0	301	8
2023-09-08T18:00	27538	18	-49.6	-83.0	301	9
2023-09-08T18:00	27563	18	-49.0	-82.6	301	9
2023-09-08T18:00	27605	18	-49.1	-82.7	302	10
2023-09-08T18:00	27631	18	-49.3	-82.8	303	10
2023-09-08T18:00	27653	18	-49.6	-83.0	304	10
2023-09-08T18:00	27687	17	-49.7	-83.1	306	10
2023-09-08T18:00	27710	17	-49.7	-83.1	309	9
2023-09-08T18:00	27753	17	-49.7	-83.1	313	9
2023-09-08T18:00	27776	17	-49.8	-83.2	317	8
2023-09-08T18:00	27804	17	-49.8	-83.2	321	7
2023-09-08T18:00	27837	17	-49.9	-83.2	326	7
2023-09-08T18:00	27865	17	-50.0	-83.3	329	7
2023-09-08T18:00	27883	17	-50.0	-83.3	333	6
2023-09-08T18:00	27920	17	-50.1	-83.4	336	6
2023-09-08T18:00	27955	17	-50.1	-83.4	338	5
2023-09-08T18:00	27989	17	-50.1	-83.4	339	5
2023-09-08T18:00	28025	17	-50.2	-83.5	337	4
2023-09-08T18:00	28047	17	-50.2	-83.5	331	4
2023-09-08T18:00	28083	16	-50.4	-83.6	323	4
2023-09-08T18:00	28105	16	-50.3	-83.5	315	5
2023-09-08T18:00	28125	16	-49.7	-83.1	309	5
2023-09-08T18:00	28163	16	-49.7	-83.1	307	6
2023-09-08T18:00	28193	16	-49.7	-83.1	308	6
2023-09-08T18:00	28214	16	-49.7	-83.9	310	7
2023-09-08T18:00	28247	16	-49.5	-83.7	314	7
2023-09-08T18:00	28268	16	-49.4	-83.7	319	8
2023-09-08T18:00	28308	16	-49.4	-83.7	322	8
2023-09-08T18:00	28338	16	-49.0	-83.4	326	9
2023-09-08T18:00	28365	16	-48.8	-83.2	329	9
2023-09-08T18:00	28391	16	-48.8	-83.2	332	10
2023-09-08T18:00	28424	16	-48.7	-83.2	335	10
2023-09-08T18:00	28436	16	-48.6	-83.1	339	10
2023-09-08T18:00	28474	15	-48.6	-83.1	341	11
2023-09-08T18:00	28509	15	-48.4	-82.9	343	11
2023-09-08T18:00	28547	15	-48.6	-83.1	345	11
2023-09-08T18:00	28567	15	-48.6	-83.1	345	10
2023-09-08T18:00	28590	15	-48.7	-83.2	344	10
2023-09-08T18:00	28611	15	-48.8	-83.2	343	10
2023-09-08T18:00	28645	15	-48.9	-83.3	342	9
2023-09-08T18:00	28686	15	-48.9	-83.3	342	9
2023-09-08T18:00	28718	15	-48.9	-83.3	344	9
2023-09-08T18:00	28729	15	-48.7	-83.2	346	9
2023-09-08T18:00	28760	15	-48.4	-82.9	348	10
2023-09-08T18:00	28794	15	-48.4	-82.9	349	10
2023-09-08T18:00	28811	15	-48.4	-82.9	350	10
2023-09-08T18:00	28844	15	-48.5	-83.0	350	10
2023-09-08T18:00	28882	15	-48.6	-83.1	350	10
2023-09-08T18:00	28897	15	-48.6	-83.1	350	9
2023-09-08T18:00	28932	14	-48.7	-83.2	351	9
2023-09-08T18:00	28969	14	-48.7	-83.2	351	9
2023-09-08T18:00	29006	14	-48.9	-83.3	351	9
2023-09-08T18:00	29017	14	-48.8	-83.2	350	9
2023-09-08T18:00	29046	14	-48.5	-83.0	348	8
2023-09-08T18:00	29081	14	-48.6	-83.1	346	8
2023-09-08T18:00	29106	14	-48.5	-83.0	346	7
2023-09-08T18:00	29126	14	-48.4	-82.9	347	7
2023-09-08T18:00	29156	14	-48.0	-82.7	349	7
2023-09-08T18:00	29176	14	-47.7	-82.4	352	7
2023-09-08T18:00	29217	14	-47.3	-83.1	354	7
2023-09-08T18:00	29257	14	-47.3	-83.1	355	7
2023-09-08T18:00	29288	14	-47.5	-82.3	356	8
2023-09-08T18:00	29310	14	-47.5	-82.3	357	8
2023-09-08T18:00	29345	14	-47.5	-82.3	356	8
2023-09-08T18:00	29362	14	-47.5	-82.3	355	7
2023-09-08T18:00	29399	13	-47.5	-82.3	352	7
2023-09-08T18:00	29434	13	-47.6	-82.4	347	7
2023-09-08T18:00	29452	13	-47.4	-83.1	341	7
2023-09-08T18:00	29473	13	-47.1	-82.9	334	7
2023-09-08T18:00	29512	13	-47.0	-82.9	327	7
2023-09-08T18:00	29541	13	-46.9	-82.8	321	7
2023-09-08T18:00	29572	13	-46.9	-82.8	316	7
2023-09-08T18:00	29591	13	-46.6	-82.6	313	7
2023-09-08T18:00	29638	13	-46.3	-82.4	312	7
2023-09-08T18:00	29660	13	-46.1	-82.2	313	7
2023-09-08T18:00	29705	13	-45.9	-82.1	315	8
2023-09-08T18:00	29712	13	-45.7	-81.9	318	8
2023-09-08T18:00	29747	13	-45.7	-81.9	322	9
2023-09-08T18:00	29768	13	-45.7	-81.9	326	9
2023-09-08T18:00	29803	13	-45.8	-82.0	329	9
2023-09-08T18:00	29832	13	-45.6	-81.9	332	9
2023-09-08T18:00	29850	13	-45.4	-81.7	334	9
2023-09-08T18:00	29901	13	-45.5	-81.8	336	9
2023-09-08T18:00	29942	12	-45.7	-81.9	336	8
2023-09-08T18:00	29965	12	-45.8	-82.0	336	8
2023-09-08T18:00	30001	12	-45.8	-82.0	335	8
2023-09-08T18:00	30017	12	-45.7	-81.9	335	8
2023-09-08T18:00	30048	12	-45.6	-81.9	335	8
2023-09-08T18:00	30099	12	-45.4	-81.7	335	9
2023-09-08T18:00	30105	12	-45.0	-81.4	334	9
2023-09-08T18:00	30145	12	-44.6	-81.2	332	9
2023-09-08T18:00	30168	12	-44.5	-81.1	328	10
2023-09-08T18:00	30200	12	-44.4	-82.1	325	10
2023-09-08T18:00	30230	12	-43.8	-81.7	322	10
2023-09-08T18:00	30263	12	-43.7	-81.6	319	10
2023-09-08T18:00	30271	12	-43.6	-81.5	318	9
2023-09-08T18:00	30301	12	-43.5	-81.5	319	9
2023-09-08T18:00	30342	12	-43.5	-81.5	321	8
2023-09-08T18:00	30381	12	-43.7	-81.6	325	8
2023-09-08T18:00	30407	12	-43.6	-81.5	330	7
2023-09-08T18:00	30438	12	-43.5	-81.5	334	7
2023-09-08T18:00	30454	11	-43.4	-81.4	338	7
2023-09-08T18:00	30497	11	-43.3	-81.3	342	7
2023-09-08T18:00	30516	11	-43.4	-81.4	345	7
2023-09-08T18:00	30567	11	-43.6	-80.4	348	7
2023-09-08T18:00	30600	11	-43.7	-80.5	353	7
2023-09-08T18:00	30641	11	-43.6	-80.4	354	7
2023-09-08T18:00	30670	11	-43.7	-81.6	355	6
2023-09-08T18:00	30699	11	-43.6	-81.5	355	6
2023-09-08T18:00	30728	11	-43.4	-81.4	353	5
2023-09-08T18:00	30754	11	-43.3	-81.3	350	5
2023-09-08T18:00	30787	11	-42.9	-81.1	344	4
2023-09-08T18:00	30795	11	-42.6	-80.8	338	4
2023-09-08T18:00	30834	11	-42.5	-80.8	334	4
2023-09-08T18:00	30865	11	-42.6	-80.8	332	4
2023-09-08T18:00	30913	11	-42.7	-80.9	334	4
2023-09-08T18:00	30935	11	-42.5	-80.8	338	4
2023-09-08T18:00	30955	11	-42.3	-80.6	342	4
2023-09-08T18:00	30983	11	-42.4	-80.7	343	4
2023-09-08T18:00	31016	11	-42.3	-80.6	343	4
2023-09-08T18:00	31028	11	-42.2	-80.6	341	4
2023-09-08T18:00	31067	11	-42.3	-80.6	337	3
2023-09-08T18:00	31090	10	-42.4	-80.7	332	3
2023-09-08T18:00	31122	10	-42.6	-80.8	328	2
2023-09-08T18:00	31156	10	-42.8	-81.0	323	2
2023-09-08T18:00	31184	10	-43.0	-81.1	316	2
2023-09-08T18:00	31234	10	-43.0	-81.1	301	1
2023-09-08T18:00	31235	10	-43.0	-81.1	270	1
2023-09-08T18:00	31278	10	-42.9	-81.1	236	2
2023-09-08T18:00	31307	10	-42.7	-80.9	219	2
2023-09-08T18:00	31330	10	-42.4	-80.7	211	3
2023-09-08T18:00	31357	10	-42.2	-80.6	208	4
2023-09-08T18:00	31379	10	-42.2	-80.6	209	5
2023-09-08T18:00	31407	10	-42.2	-80.6	212	6
2023-09-08T18:00	31441	10	-42.0	-80.4	216	6
2023-09-08T18:00	31467	10	-41.9	-80.4	222	7
2023-09-08T18:00	31520	10	-42.0	-80.4	229	7
2023-09-08T18:00	31552	10	-42.0	-80.4	237	7
2023-09-08T18:00	31567	10	-41.9	-80.4	245	8
2023-09-08T18:00	31588	10	-41.8	-80.3	253	8
2023-09-08T18:00	31603	10	-41.7	-80.2	259	9
2023-09-08T18:00	31619	10	-41.6	-80.1	264	9
2023-09-08T18:00	31686	10	-41.6	-80.1	268	9
2023-09-08T18:00	31701	10	-41.3	-79.9	270	9
2023-09-08T18:00	31729	10	-41.2	-79.9	271	8
2023-09-08T18:00	31771	9	-41.1	-79.8	272	8
2023-09-08T18:00	31790	9	-41.0	-79.7	273	7
2023-09-08T18:00	31826	9	-40.9	-79.7	276	6
2023-09-08T18:00	31845	9	-40.9	-79.7	281	6
2023-09-08T18:00	31900	9	-40.9	-79.7	288	5
2023-09-08T18:00	31917	9	-40.7	-79.5	296	5
2023-09-08T18:00	31962	9	-40.3	-79.2	308	4
2023-09-08T18:00	31993	9	-40.2	-79.2	310	3
2023-09-08T18:00	32023	9	-40.1	-79.1	306	2
2023-09-08T18:00	32065	9	-39.6	-78.8	294	2
2023-09-08T18:00	32094	9	-39.3	-78.5	280	2
2023-09-08T18:00	32106	9	-39.1	-78.4	272	2
2023-09-08T18:00	32141	9	-38.7	-78.1	269	2
2023-09-08T18:00	32171	9	-38.9	-78.3	269	3
2023-09-08T18:00	32204	9	-39.1	-78.4	268	3
2023-09-08T18:00	32241	9	-39.3	-78.5	265	3
2023-09-08T18:00	32265	9	-39.5	-78.7	260	3
2023-09-08T18:00	32279	9	-39.8	-78.9	255	4
2023-09-08T18:00	32308	9	-40.1	-79.1	250	4
2023-09-08T18:00	32344	9	-40.3	-79.2	246	4
2023-09-08T18:00	32376	9	-40.3	-79.2	244	4
2023-09-08T18:00	32389	9	-40.3	-79.2	243	4
2023-09-08T18:00	32425	9	-40.3	-79.2	245	4
2023-09-08T18:00	32474	9	-40.3	-79.2	249	4
2023-09-08T18:00	32489	9	-40.2	-79.2	256	4
2023-09-08T18:00	32519	8	-40.3	-79.2	265	5
2023-09-08T18:00	32545	8	-40.2	-79.2	273	5
2023-09-08T18:00	32564	8	-40.1	-79.1	279	6
2023-09-08T18:00	32605	8	-40.1	-79.1	285	7
2023-09-08T18:00	32626	8	-40.2	-79.2	289	7
2023-09-08T18:00	32675	8	-39.7	-78.8	293	8
2023-09-08T18:00	32714	8	-39.6	-78.8	297	8
2023-09-08T18:00	32735	8	-39.7	-78.8	301	8
2023-09-08T18:00	32787	8	-39.8	-78.9	305	8
2023-09-08T18:00	32806	8	-40.0	-79.0	315	8
2023-09-08T18:00	32838	8	-39.9	-79.0	320	8
2023-09-08T18:00	32895	8	-39.7	-78.8	325	7
2023-09-08T18:00	32898	8	-39.6	-78.8	331	7
2023-09-08T18:00	32937	8	-39.4	-78.6	337	7
2023-09-08T18:00	32982	8	-39.5	-78.7	344	6
2023-09-08T18:00	32994	8	-39.6	-78.8	350	6
2023-09-08T18:00	33024	8	-39.7	-78.8	355	6
2023-09-08T18:00	33065	8	-39.6	-78.8	357	6
2023-09-08T18:00	33102	8	-39.5	-78.7	353	6
2023-09-08T18:00	33132	8	-39.2	-78.5	347	6
2023-09-08T18:00	33172	8	-38.9	-78.3	340	6
2023-09-08T18:00	33188	8	-38.8	-78.2	333	6
2023-09-08T18:00	33231	8	-38.7	-78.1	329	6
2023-09-08T18:00	33238	8	-38.6	-78.1	327	6
2023-09-08T18:00	33269	8	-38.4	-77.9	327	6
2023-09-08T18:00	33304	8	-38.3	-77.9	327	7
2023-09-08T18:00	33334	8	-38.3	-77.9	328	7
2023-09-08T18:00	33345	8	-38.2	-77.8	330	7
2023-09-08T18:00	33362	7	-37.9	-77.6	331	7
2023-09-08T18:00	33428	7	-37.6	-77.4	333	7
2023-09-08T18:00	33457	7	-37.5	-77.3	334	7
2023-09-08T18:00	33466	7	-37.1	-77.0	336	7
2023-09-08T18:00	33504	7	-36.9	-76.9	339	6
2023-09-08T18:00	33522	7	-36.8	-76.8	343	5
2023-09-08T18:00	33537	7	-36.7	-76.7	349	4
2023-09-08T18:00	33580	7	-36.7	-76.7	357	4
2023-09-08T18:00	33598	7	-36.6	-76.7	8	3
2023-09-08T18:00	33650	7	-36.7	-76.7	26	2
2023-09-08T18:00	33690	7	-36.7	-76.7	57	2
2023-09-08T18:00	33701	7	-36.8	-76.8	92	2
2023-09-08T18:00	33721	7	-36.9	-76.9	114	2
2023-09-08T18:00	33754	7	-36.9	-76.9	124	2
2023-09-08T18:00	33782	7	-36.8	-76.8	129	2
2023-09-08T18:00	33811	7	-36.6	-76.7	130	2
2023-09-08T18:00	33822	7	-36.1	-76.3	131	2
2023-09-08T18:00	33827	7	-35.9	-76.2	133	1
2023-09-08T18:00	33892	7	-35.6	-76.0	143	1
2023-09-08T18:00	33900	7	-35.2	-75.7	166	1
2023-09-08T18:00	33929	7	-35.1	-75.6	189	1
2023-09-08T18:00	33990	7	-35.2	-75.7	203	1
2023-09-08T18:00	34008	7	-35.3	-75.8	209	1
2023-09-08T18:00	34047	7	-35.2	-75.7	213	1
2023-09-08T18:00	34074	7	-35.2	-75.7	215	1
2023-09-08T18:00	34093	7	-35.3	-75.8	212	1
2023-09-08T18:00	34143	7	-35.4	-75.8	204	1
2023-09-08T18:00	34149	7	-35.4	-75.8	193	1
2023-09-08T18:00	34192	7	-35.5	-75.9	180	1
2023-09-08T18:00	34216	7	-35.5	-75.9	168	2
2023-09-08T18:00	34224	7	-35.6	-76.0	160	2
2023-09-08T18:00	34262	7	-35.7	-76.1	156	3
2023-09-08T18:00	34312	7	-35.7	-76.1	154	4
2023-09-08T18:00	34322	7	-35.9	-76.2	154	4
2023-09-08T18:00	34353	7	-36.0	-76.3	156	5
2023-09-08T18:00	34357	7	-36.0	-76.3	158	6
2023-09-08T18:00	34395	6	-36.1	-76.3	160	7
2023-09-08T18:00	34419	6	-36.2	-76.4	162	7
2023-09-08T18:00	34441	6	-36.4	-76.5	164	8
2023-09-08T18:00	34465	6	-36.5	-76.6	167	9
2023-09-08T18:00	34495	6	-36.7	-76.7	169	9
2023-09-08T18:00	34556	6	-36.7	-76.7	172	10
2023-09-08T18:00	34590	6	-36.7	-76.7	177	11
2023-09-08T18:00	34611	6	-36.7	-76.7	179	11
2023-09-08T18:00	34653	6	-36.8	-76.8	182	11
2023-09-08T18:00	34660	6	-36.8	-76.8	185	11
2023-09-08T18:00	34708	6	-36.8	-76.8	189	11
2023-09-09T00:00	112	1006	19.3	13.0	140	3
2023-09-09T00:00	135	1004	20.3	13.3	145	3
2023-09-09T00:00	161	1001	21.2	13.1	149	5
2023-09-09T00:00	186	998	21.8	13.3	152	7
2023-09-09T00:00	210	995	22.6	13.3	154	8
2023-09-09T00:00	235	993	23.0	13.4	155	9
2023-09-09T00:00	253	990	23.2	13.2	156	10
2023-09-09T00:00	276	988	23.4	12.7	157	11
2023-09-09T00:00	299	985	23.6	12.0	158	11
2023-09-09T00:00	325	982	23.5	11.7	159	11
2023-09-09T00:00	348	980	23.4	12.2	161	11
2023-09-09T00:00	371	977	23.1	13.2	162	11
2023-09-09T00:00	391	975	23.1	12.5	163	10
2023-09-09T00:00	413	972	23.0	12.7	164	10
2023-09-09T00:00	435	970	22.9	12.7	165	10
2023-09-09T00:00	457	967	22.7	12.6	166	10
2023-09-09T00:00	480	965	22.6	12.7	167	9
2023-09-09T00:00	500	963	22.4	12.6	169	9
2023-09-09T00:00	522	960	22.3	12.2	171	9
2023-09-09T00:00	548	957	22.1	11.9	172	8
2023-09-09T00:00	572	955	22.0	11.8	174	8
2023-09-09T00:00	598	952	21.8	11.8	175	8
2023-09-09T00:00	622	949	21.6	11.9	176	7
2023-09-09T00:00	644	947	21.4	12.0	177	7
2023-09-09T00:00	665	944	21.2	12.1	178	7
2023-09-09T00:00	687	942	21.0	12.1	179	7
2023-09-09T00:00	714	939	20.8	12.3	179	6
2023-09-09T00:00	739	937	20.5	12.6	178	6
2023-09-09T00:00	760	934	20.3	12.4	177	6
2023-09-09T00:00	788	931	20.1	12.6	177	6
2023-09-09T00:00	813	929	19.8	12.6	177	6
2023-09-09T00:00	838	926	19.6	12.6	178	6
2023-09-09T00:00	867	923	19.3	12.4	178	6
2023-09-09T00:00	888	920	19.1	12.4	178	6
2023-09-09T00:00	912	918	18.9	12.2	178	6
2023-09-09T00:00	936	915	18.7	11.9	176	6
2023-09-09T00:00	958	913	18.5	11.8	174	5
2023-09-09T00:00	984	910	18.4	11.4	171	5
2023-09-09T00:00	1006	908	18.2	10.9	167	4
2023-09-09T00:00	1025	906	18.0	10.9	161	4
2023-09-09T00:00	1045	904	17.9	10.6	154	4
2023-09-09T00:00	1064	902	17.8	9.8	148	3
2023-09-09T00:00	1082	900	17.7	9.5	144	3
2023-09-09T00:00	1102	898	17.5	9.3	143	4
2023-09-09T00:00	1122	895	17.3	9.1	145	4
2023-09-09T00:00	1146	893	17.2	8.9	149	4
2023-09-09T00:00	1166	891	17.0	8.6	153	4
2023-09-09T00:00	1189	889	16.8	8.7	155	4
2023-09-09T00:00	1214	886	17.1	5.7	154	3
2023-09-09T00:00	1238	883	18.0	-0.8	152	3
2023-09-09T00:00	1265	881	18.5	-4.7	153	3
2023-09-09T00:00	1289	878	18.6	-6.1	156	3
2023-09-09T00:00	1308	876	18.7	-8.1	161	3
2023-09-09T00:00	1327	874	18.7	-9.4	163	3
2023-09-09T00:00	1349	872	18.7	-9.3	161	4
2023-09-09T00:00	1371	870	18.8	-12.2	155	4
2023-09-09T00:00	1396	867	18.9	-13.5	148	4
2023-09-09T00:00	1418	865	18.9	-13.2	141	4
2023-09-09T00:00	1440	863	18.8	-12.6	134	4
2023-09-09T00:00	1461	861	18.7	-12.5	127	4
2023-09-09T00:00	1479	859	18.7	-13.0	120	4
2023-09-09T00:00	1508	856	18.6	-12.8	116	4
2023-09-09T00:00	1532	854	18.5	-12.9	118	4
2023-09-09T00:00	1553	852	18.4	-13.2	122	4
2023-09-09T00:00	1581	849	18.3	-13.4	128	4
2023-09-09T00:00	1602	847	18.3	-13.9	133	4
2023-09-09T00:00	1625	844	18.2	-14.0	133	4
2023-09-09T00:00	1653	842	18.1	-14.8	127	3
2023-09-09T00:00	1676	839	18.0	-14.9	113	3
2023-09-09T00:00	1697	837	17.9	-15.2	98	3
2023-09-09T00:00	1722	835	17.8	-16.3	89	4
2023-09-09T00:00	1744	833	17.9	-17.8	86	4
2023-09-09T00:00	1767	831	18.0	-17.6	86	4
2023-09-09T00:00	1787	828	18.0	-17.6	88	4
2023-09-09T00:00	1814	826	17.8	-17.7	90	4
2023-09-09T00:00	1836	824	17.7	-17.6	90	4
2023-09-09T00:00	1860	821	17.5	-17.7	88	4
2023-09-09T00:00	1894	818	17.4	-18.1	86	4
2023-09-09T00:00	1930	815	17.2	-18.3	84	4
2023-09-09T00:00	1965	812	17.1	-20.0	83	4
2023-09-09T00:00	1994	809	17.2	-22.3	82	4
2023-09-09T00:00	2016	807	17.2	-21.9	82	4
2023-09-09T00:00	2037	805	17.1	-20.8	81	4
2023-09-09T00:00	2062	802	17.1	-20.8	81	4
2023-09-09T00:00	2086	800	17.0	-20.9	80	4
2023-09-09T00:00	2114	797	16.9	-22.3	80	4
2023-09-09T00:00	2135	795	16.8	-23.1	80	5
2023-09-09T00:00	2160	793	16.6	-23.5	79	5
2023-09-09T00:00	2186	791	16.5	-23.5	78	5
2023-09-09T00:00	2208	788	16.4	-23.3	74	5
2023-09-09T00:00	2239	786	16.4	-23.6	71	5
2023-09-09T00:00	2267	783	16.3	-24.8	67	5
2023-09-09T00:00	2294	781	16.2	-24.3	66	5
2023-09-09T00:00	2315	779	16.1	-23.8	67	4
2023-09-09T00:00	2340	776	16.1	-23.8	71	3
2023-09-09T00:00	2367	774	16.0	-24.4	78	3
2023-09-09T00:00	2390	772	15.9	-25.9	85	3
2023-09-09T00:00	2410	770	15.9	-25.3	91	3
2023-09-09T00:00	2433	768	15.9	-25.0	98	3
2023-09-09T00:00	2458	766	15.8	-24.8	106	3
2023-09-09T00:00	2483	763	15.7	-23.1	114	3
2023-09-09T00:00	2504	761	15.5	-22.5	117	3
2023-09-09T00:00	2527	759	15.4	-22.8	116	3
2023-09-09T00:00	2550	757	15.2	-22.9	112	4
2023-09-09T00:00	2580	755	15.1	-23.2	107	3
2023-09-09T00:00	2605	753	15.0	-23.1	101	3
2023-09-09T00:00	2623	751	14.9	-23.4	96	3
2023-09-09T00:00	2647	749	14.7	-23.5	95	3
2023-09-09T00:00	2667	747	14.6	-23.5	96	3
2023-09-09T00:00	2692	745	14.5	-22.7	99	3
2023-09-09T00:00	2717	742	14.3	-23.1	100	4
2023-09-09T00:00	2744	740	14.1	-23.0	101	5
2023-09-09T00:00	2764	738	14.0	-22.9	101	5
2023-09-09T00:00	2783	737	13.9	-22.9	101	5
2023-09-09T00:00	2804	735	13.8	-22.2	102	4
2023-09-09T00:00	2827	733	13.6	-22.1	104	4
2023-09-09T00:00	2857	730	13.4	-22.1	105	3
2023-09-09T00:00	2886	728	13.2	-22.2	103	3
2023-09-09T00:00	2913	725	13.0	-22.9	99	3
2023-09-09T00:00	2932	724	12.9	-19.2	96	3
2023-09-09T00:00	2956	722	12.8	-19.4	95	3
2023-09-09T00:00	2978	720	12.7	-22.9	98	3
2023-09-09T00:00	3003	718	12.5	-22.9	106	3
2023-09-09T00:00	3031	715	12.4		114	3
2023-09-09T00:00	3050	713	12.2	-14.2	120	3
2023-09-09T00:00	3076	711	12.1	-14.6	121	3
2023-09-09T00:00	3107	709	12.0	-15.8	120	4
2023-09-09T00:00	3130	707	11.9	-15.4	116	4
2023-09-09T00:00	3154	705	11.7	-15.2	111	4
2023-09-09T00:00	3176	703	11.5	-12.5	105	4
2023-09-09T00:00	3200	701	11.2	-10.1	96	4
2023-09-09T00:00	3220	699	11.1	-10.1	88	4
2023-09-09T00:00	3250	697	10.9	-11.5	83	4
2023-09-09T00:00	3272	695	10.7	-10.9	82	3
2023-09-09T00:00	3295	693	10.5	-11.1	85	3
2023-09-09T00:00	3313	691	10.3	-11.6	91	3
2023-09-09T00:00	3337	689	10.1	-11.8	96	4
2023-09-09T00:00	3369	687	9.8	-11.9	98	4
2023-09-09T00:00	3389	685	9.6	-12.1	99	4
2023-09-09T00:00	3416	683	9.4	-12.3	98	5
2023-09-09T00:00	3442	681	9.2	-12.0	97	5
2023-09-09T00:00	3465	679	8.9	-12.0	95	4
2023-09-09T00:00	3484	677	8.8	-11.7	93	4
2023-09-09T00:00	3510	675	8.5	-11.7	89	3
2023-09-09T00:00	3533	673	8.3	-11.7	83	3
2023-09-09T00:00	3567	670	8.0	-11.8	76	3
2023-09-09T00:00	3605	667	7.8	-11.4	70	3
2023-09-09T00:00	3641	664	7.4	-11.5	64	3
2023-09-09T00:00	3681	661	7.1	-11.5	61	3
2023-09-09T00:00	3716	659	6.7	-11.7	60	4
2023-09-09T00:00	3741	656	6.5	-11.6	60	4
2023-09-09T00:00	3767	654	6.3	-12.2	63	4
2023-09-09T00:00	3786	653	6.1	-12.2	66	4
2023-09-09T00:00	3809	651	5.9	-12.3	68	3
2023-09-09T00:00	3833	649	5.7	-12.6	68	4
2023-09-09T00:00	3863	647	5.5	-12.2	68	4
2023-09-09T00:00	3884	645	5.3	-12.1	67	4
2023-09-09T00:00	3901	644	5.1	-12.1	68	4
2023-09-09T00:00	3928	642	4.9	-12.1	68	4
2023-09-09T00:00	3960	639	4.6	-12.3	68	4
2023-09-09T00:00	3993	637	4.3	-12.3	68	4
2023-09-09T00:00	4017	634	4.1	-12.5	69	4
2023-09-09T00:00	4049	632	3.8	-12.8	69	4
2023-09-09T00:00	4064	631	3.7	-12.8	68	4
2023-09-09T00:00	4084	629	3.5	-12.9	63	3
2023-09-09T00:00	4110	627	3.3	-12.6	55	3
2023-09-09T00:00	4136	625	3.1	-13.0	45	3
2023-09-09T00:00	4167	623	2.9	-13.3	38	3
2023-09-09T00:00	4186	622	2.7	-13.6	39	4
2023-09-09T00:00	4208	620	2.6	-13.8	45	4
2023-09-09T00:00	4236	618	2.4	-14.2	51	5
2023-09-09T00:00	4258	616	2.2	-14.4	56	5
2023-09-09T00:00	4280	614	2.0	-14.5	58	5
2023-09-09T00:00	4307	612	1.8	-14.7	58	5
2023-09-09T00:00	4332	610	1.6	-14.8	56	5
2023-09-09T00:00	4362	608	1.3	-14.9	53	5
2023-09-09T00:00	4393	606	1.0	-15.1	51	4
2023-09-09T00:00	4411	604	0.9	-15.2	51	4
2023-09-09T00:00	4433	603	0.7	-15.4	54	4
2023-09-09T00:00	4453	601	0.5	-15.5	57	4
2023-09-09T00:00	4474	600	0.3	-16.0	58	4
2023-09-09T00:00	4498	598	0.2	-16.7	57	4
2023-09-09T00:00	4529	596	0.1	-18.6	54	4
2023-09-09T00:00	4558	594	0.0	-18.7	49	3
2023-09-09T00:00	4582	592	-0.2	-18.6	43	3
2023-09-09T00:00	4603	590	-0.4	-18.1	41	3
2023-09-09T00:00	4630	588	-0.6	-17.9	43	3
2023-09-09T00:00	4646	587	-0.7	-17.9	49	3
2023-09-09T00:00	4665	586	-0.9	-17.8	56	4
2023-09-09T00:00	4687	584	-1.1	-17.8	63	4
2023-09-09T00:00	4719	582	-1.4	-18.0	69	4
2023-09-09T00:00	4740	580	-1.5	-18.4	74	4
2023-09-09T00:00	4763	578	-1.7	-20.1	77	4
2023-09-09T00:00	4790	576	-1.8	-21.0	79	4
2023-09-09T00:00	4818	575	-2.0	-20.2	81	4
2023-09-09T00:00	4840	573	-2.1	-22.2	82	5
2023-09-09T00:00	4866	571	-2.3	-20.6	82	5
2023-09-09T00:00	4894	569	-2.6	-19.6	81	5
2023-09-09T00:00	4918	567	-2.8	-20.1	80	6
2023-09-09T00:00	4944	565	-3.0	-20.3	79	6
2023-09-09T00:00	4976	563	-3.3	-20.3	77	6
2023-09-09T00:00	4997	562	-3.4	-20.2	77	6
2023-09-09T00:00	5021	560	-3.6	-20.1	77	5
2023-09-09T00:00	5041	558	-3.8	-20.0	77	5
2023-09-09T00:00	5062	557	-4.0	-20.0	76	5
2023-09-09T00:00	5089	555	-4.2	-19.7	73	4
2023-09-09T00:00	5113	553	-4.4	-19.9	66	4
2023-09-09T00:00	5146	551	-4.8	-19.5	58	4
2023-09-09T00:00	5173	549	-5.0	-19.7	52	4
2023-09-09T00:00	5194	548	-5.2	-19.8	47	4
2023-09-09T00:00	5213	546	-5.3	-19.8	43	4
2023-09-09T00:00	5232	545	-5.5	-20.2	40	3
2023-09-09T00:00	5249	544	-5.6	-20.3	36	3
2023-09-09T00:00	5269	542	-5.6	-21.8	31	3
2023-09-09T00:00	5295	541	-5.7	-24.0	26	4
2023-09-09T00:00	5330	538	-5.6	-30.6	24	4
2023-09-09T00:00	5360	536	-5.6	-29.8	24	4
2023-09-09T00:00	5383	535	-5.8	-28.6	27	3
2023-09-09T00:00	5411	533	-6.0	-27.5	33	3
2023-09-09T00:00	5433	531	-6.1	-27.2	38	3
2023-09-09T00:00	5459	530	-6.3	-27.1	39	2
2023-09-09T00:00	5476	528	-6.4	-27.1	32	2
2023-09-09T00:00	5498	527	-6.5	-27.0	14	2
2023-09-09T00:00	5527	525	-6.6	-27.4	351	2
2023-09-09T00:00	5561	523	-6.9	-27.4	333	2
2023-09-09T00:00	5584	521	-7.0	-27.0	323	2
2023-09-09T00:00	5606	519	-7.2	-27.2	319	3
2023-09-09T00:00	5640	517	-7.4	-27.5	318	3
2023-09-09T00:00	5675	515	-7.6	-27.8	319	3
2023-09-09T00:00	5696	513	-7.7	-27.7	319	2
2023-09-09T00:00	5727	512	-7.8	-28.8	319	2
2023-09-09T00:00	5754	510	-8.0	-28.7	319	2
2023-09-09T00:00	5782	508	-8.1	-29.5	319	1
2023-09-09T00:00	5811	506	-8.1	-30.0	318	1
2023-09-09T00:00	5842	504	-8.3	-29.3	314	2
2023-09-09T00:00	5861	503	-8.5	-29.4	308	2
2023-09-09T00:00	5889	501	-8.7	-28.5	301	2
2023-09-09T00:00	5920	499	-8.9	-28.2	294	2
2023-09-09T00:00	5942	497	-9.1	-28.4	286	1
2023-09-09T00:00	5974	495	-9.3	-28.7	273	0
2023-09-09T00:00	6007	494	-9.6	-29.0	165	0
2023-09-09T00:00	6023	492	-9.7	-29.2	134	0
2023-09-09T00:00	6042	491	-9.9	-29.2	144	1
2023-09-09T00:00	6061	490	-10.0	-29.1	169	1
2023-09-09T00:00	6080	489	-10.2	-29.4	209	0
2023-09-09T00:00	6105	487	-10.4	-29.4	271	1
2023-09-09T00:00	6137	485	-10.6	-30.0	302	1
2023-09-09T00:00	6171	483	-10.8	-31.3	312	2
2023-09-09T00:00	6200	481	-10.9	-34.1	315	3
2023-09-09T00:00	6236	479	-11.0	-34.4	313	3
2023-09-09T00:00	6253	478	-11.1	-34.3	308	3
2023-09-09T00:00	6274	476	-11.3	-33.8	298	3
2023-09-09T00:00	6301	475	-11.4	-33.4	282	3
2023-09-09T00:00	6334	473	-11.7	-33.3	264	2
2023-09-09T00:00	6362	471	-11.9	-33.2	249	2
2023-09-09T00:00	6395	469	-12.1	-33.3	240	2
2023-09-09T00:00	6432	467	-12.5	-33.3	237	2
2023-09-09T00:00	6470	465	-12.8	-33.2	238	2
2023-09-09T00:00	6498	463	-13.0	-33.2	241	2
2023-09-09T00:00	6516	462	-13.2	-33.1	244	3
2023-09-09T00:00	6536	460	-13.4	-33.1	248	2
2023-09-09T00:00	6562	459	-13.6	-33.2	255	2
2023-09-09T00:00	6598	457	-13.9	-33.4	266	1
2023-09-09T00:00	6625	455	-14.1	-33.8	292	1
2023-09-09T00:00	6656	453	-14.4	-34.5	343	1
2023-09-09T00:00	6697	451	-14.7	-35.5	5	1
2023-09-09T00:00	6722	449	-14.9	-36.1	1	1
2023-09-09T00:00	6740	448	-15.0	-36.8	348	1
2023-09-09T00:00	6762	447	-15.1	-37.4	333	2
2023-09-09T00:00	6783	446	-15.2	-37.7	324	2
2023-09-09T00:00	6804	444	-15.4	-37.7	321	2
2023-09-09T00:00	6825	443	-15.6	-37.9	321	2
2023-09-09T00:00	6846	442	-15.8	-38.0	322	3
2023-09-09T00:00	6868	441	-16.0	-38.0	322	3
2023-09-09T00:00	6888	440	-16.2	-37.9	320	3
2023-09-09T00:00	6910	438	-16.4	-37.5	317	3
2023-09-09T00:00	6945	436	-16.7	-37.2	315	3
2023-09-09T00:00	6973	435	-16.9	-37.9	314	4
2023-09-09T00:00	6997	433	-17.0	-38.4	315	4
2023-09-09T00:00	7026	432	-17.2	-38.8	316	5
2023-09-09T00:00	7051	430	-17.4	-38.9	318	6
2023-09-09T00:00	7081	428	-17.6	-38.6	318	6
2023-09-09T00:00	7113	427	-17.9	-38.4	319	6
2023-09-09T00:00	7137	425	-18.0	-39.7	319	7
2023-09-09T00:00	7162	424	-18.1	-39.7	319	6
2023-09-09T00:00	7187	422	-18.2	-38.7	320	6
2023-09-09T00:00	7217	421	-18.5	-38.1	321	6
2023-09-09T00:00	7251	419	-18.8	-37.6	322	7
2023-09-09T00:00	7280	417	-19.1	-37.2	323	7
2023-09-09T00:00	7308	416	-19.3	-37.1	322	7
2023-09-09T00:00	7334	414	-19.6	-36.8	321	7
2023-09-09T00:00	7361	413	-19.8	-37.0	320	7
2023-09-09T00:00	7393	411	-19.9	-37.6	320	8
2023-09-09T00:00	7423	409	-20.1	-37.8	320	8
2023-09-09T00:00	7458	407	-20.4	-37.9	321	8
2023-09-09T00:00	7488	406	-20.6	-38.7	321	8
2023-09-09T00:00	7522	404	-20.8	-38.7	320	7
2023-09-09T00:00	7553	402	-21.0	-38.9	318	7
2023-09-09T00:00	7571	401	-21.1	-39.1	317	7
2023-09-09T00:00	7591	400	-21.2	-39.4	315	7
2023-09-09T00:00	7608	399	-21.4	-39.5	315	7
2023-09-09T00:00	7629	398	-21.5	-39.7	315	7
2023-09-09T00:00	7650	397	-21.7	-40.0	314	7
2023-09-09T00:00	7670	396	-21.8	-40.1	313	7
2023-09-09T00:00	7690	395	-22.0	-40.3	310	7
2023-09-09T00:00	7712	393	-22.1	-41.0	307	7
2023-09-09T00:00	7741	392	-22.3	-41.3	306	8
2023-09-09T00:00	7774	390	-22.5	-41.5	307	8
2023-09-09T00:00	7803	389	-22.7	-41.9	311	8
2023-09-09T00:00	7831	387	-22.9	-42.7	317	8
2023-09-09T00:00	7859	386	-23.1	-43.2	325	8
2023-09-09T00:00	7890	384	-23.2	-43.6	330	8
2023-09-09T00:00	7918	383	-23.5	-43.6	333	7
2023-09-09T00:00	7937	382	-23.7	-43.7	333	7
2023-09-09T00:00	7956	381	-23.9	-43.6	330	7
2023-09-09T00:00	7977	380	-24.0		327	7
2023-09-09T00:00	7997	378	-24.2	-44.5	324	7
2023-09-09T00:00	8022	377	-24.3	-44.4	321	7
2023-09-09T00:00	8050	376	-24.4	-45.0	318	8
2023-09-09T00:00	8073	374	-24.6	-45.8	315	8
2023-09-09T00:00	8104	373	-24.8	-46.4	312	9
2023-09-09T00:00	8127	372	-24.9	-46.5	310	10
2023-09-09T00:00	8154	370	-24.9	-46.0	308	10
2023-09-09T00:00	8185	369	-25.1	-45.7	307	11
2023-09-09T00:00	8223	367	-25.4	-44.5	306	11
2023-09-09T00:00	8251	365	-25.6	-43.2	306	11
2023-09-09T00:00	8280	364	-25.9	-42.7	305	11
2023-09-09T00:00	8312	362	-26.2	-42.6	305	12
2023-09-09T00:00	8342	361	-26.5	-43.0	305	12
2023-09-09T00:00	8374	359	-26.7	-44.1	305	11
2023-09-09T00:00	8404	358	-27.0	-46.3	305	11
2023-09-09T00:00	8436	356	-27.1	-47.5	305	11
2023-09-09T00:00	8467	355	-27.3	-47.3	306	11
2023-09-09T00:00	8500	353	-27.6	-47.4	307	10
2023-09-09T00:00	8532	351	-27.9	-47.3	308	10
2023-09-09T00:00	8570	350	-28.2	-47.3	308	9
2023-09-09T00:00	8600	348	-28.5	-47.3	307	9
2023-09-09T00:00	8636	346	-28.8	-47.4	308	9
2023-09-09T00:00	8665	345	-29.0	-47.6	309	9
2023-09-09T00:00	8694	344	-29.3	-47.7	311	9
2023-09-09T00:00	8723	342	-29.6	-48.9	314	9
2023-09-09T00:00	8747	341	-29.7	-49.3	316	9
2023-09-09T00:00	8775	340	-30.0	-48.4	317	9
2023-09-09T00:00	8803	338	-30.2	-47.0	316	9
2023-09-09T00:00	8832	337	-30.5	-46.3	314	9
2023-09-09T00:00	8861	336	-30.7	-46.3	313	9
2023-09-09T00:00	8893	334	-31.0	-46.6	311	9
2023-09-09T00:00	8923	333	-31.2	-45.8	311	9
2023-09-09T00:00	8952	331	-31.4	-44.0	312	10
2023-09-09T00:00	8983	330	-31.7	-43.8	312	10
2023-09-09T00:00	9008	329	-31.9	-43.8	313	10
2023-09-09T00:00	9033	328	-32.2	-43.9	313	10
2023-09-09T00:00	9055	327	-32.4	-44.0	313	10
2023-09-09T00:00	9077	326	-32.6	-44.9	314	10
2023-09-09T00:00	9102	324	-32.7	-45.6	315	10
2023-09-09T00:00	9126	323	-32.9	-46.1	315	10
2023-09-09T00:00	9152	322	-33.1	-46.7	316	10
2023-09-09T00:00	9176	321	-33.3	-47.1	316	9
2023-09-09T00:00	9198	320	-33.4	-49.5	317	9
2023-09-09T00:00	9219	319	-33.4	-50.4	317	9
2023-09-09T00:00	9241	318	-33.6		318	9
2023-09-09T00:00	9265	317	-33.8	-50.4	319	9
2023-09-09T00:00	9285	316	-33.9	-50.0	320	9
2023-09-09T00:00	9307	315	-34.1	-49.4	320	9
2023-09-09T00:00	9328	314	-34.3		321	10
2023-09-09T00:00	9351	313	-34.5	-49.5	321	10
2023-09-09T00:00	9377	312	-34.7	-49.3	321	10
2023-09-09T00:00	9404	311	-35.0	-49.3	321	11
2023-09-09T00:00	9435	309	-35.2	-49.3	321	11
2023-09-09T00:00	9466	308	-35.5	-49.4	322	11
2023-09-09T00:00	9492	307	-35.8	-49.4	322	11
2023-09-09T00:00	9517	306	-36.0	-49.2	322	11
2023-09-09T00:00	9544	305	-36.3	-49.2	323	11
2023-09-09T00:00	9570	303	-36.5	-49.2	325	11
2023-09-09T00:00	9591	302	-36.7	-49.3	326	10
2023-09-09T00:00	9613	302	-36.9	-49.3	326	10
2023-09-09T00:00	9634	301	-37.1	-49.4	326	10
2023-09-09T00:00	9657	300	-37.2	-49.4	326	10
2023-09-09T00:00	9682	299	-37.4	-49.5	325	10
2023-09-09T00:00	9704	298	-37.6	-49.6	323	9
2023-09-09T00:00	9726	297	-37.8	-49.8	320	9
2023-09-09T00:00	9747	296	-38.0	-49.8	318	9
2023-09-09T00:00	9770	295	-38.2	-50.0	317	10
2023-09-09T00:00	9795	294	-38.4	-50.2	316	10
2023-09-09T00:00	9817	293	-38.5	-50.5	316	10
2023-09-09T00:00	9841	292	-38.7	-50.8	317	10
2023-09-09T00:00	9862	291	-38.9	-50.9	318	11
2023-09-09T00:00	9885	290	-39.1	-51.2	318	11
2023-09-09T00:00	9907	289	-39.2	-51.7	318	11
2023-09-09T00:00	9928	288	-39.3	-51.9	318	11
2023-09-09T00:00	9947	287	-39.5	-52.0	318	11
2023-09-09T00:00	9966	286	-39.6	-52.3	319	11
2023-09-09T00:00	9987	286	-39.7	-52.4	320	11
2023-09-09T00:00	10008	285	-39.8	-52.7	321	11
2023-09-09T00:00	10027	284	-39.9	-52.7	322	11
2023-09-09T00:00	10048	283	-40.1	-52.8	323	11
2023-09-09T00:00	10068	282	-40.2	-52.6	324	11
2023-09-09T00:00	10087	281	-40.4	-52.7	324	11
2023-09-09T00:00	10107	281	-40.6	-52.7	325	11
2023-09-09T00:00	10128	280	-40.7	-52.6	325	11
2023-09-09T00:00	10145	279	-40.9	-52.7	325	11
2023-09-09T00:00	10168	278	-41.1	-52.7	325	11
2023-09-09T00:00	10187	277	-41.2	-52.8	325	11
2023-09-09T00:00	10208	276	-41.4	-53.0	325	11
2023-09-09T00:00	10227	276	-41.5	-53.2	326	11
2023-09-09T00:00	10248	275	-41.6	-53.4	326	11
2023-09-09T00:00	10265	274	-41.7	-53.7	327	11
2023-09-09T00:00	10286	273	-41.9	-53.8	327	11
2023-09-09T00:00	10307	272	-42.0	-53.9	327	11
2023-09-09T00:00	10326	272	-42.2	-54.1	328	11
2023-09-09T00:00	10348	271	-42.3	-54.1	328	11
2023-09-09T00:00	10367	270	-42.5	-53.9	328	11
2023-09-09T00:00	10386	269	-42.7	-53.7	329	11
2023-09-09T00:00	10407	268	-42.9	-53.6	329	11
2023-09-09T00:00	10429	268	-43.1	-53.3	330	11
2023-09-09T00:00	10447	267	-43.3	-53.0	330	10
2023-09-09T00:00	10466	266	-43.4	-52.6	330	10
2023-09-09T00:00	10487	265	-43.6	-52.6	330	10
2023-09-09T00:00	10506	264	-43.8	-52.7	330	10
2023-09-09T00:00	10528	264	-44.0	-52.9	330	11
2023-09-09T00:00	10549	263	-44.1	-53.0	330	11
2023-09-09T00:00	10565	262	-44.3	-53.1	330	10
2023-09-09T00:00	10585	261	-44.5	-53.2	330	10
2023-09-09T00:00	10606	261	-44.6	-53.1	331	10
2023-09-09T00:00	10624	260	-44.8	-53.3	331	10
2023-09-09T00:00	10643	259	-45.0	-53.3	331	10
2023-09-09T00:00	10663	258	-45.2	-53.4	331	10
2023-09-09T00:00	10682	258	-45.4	-53.4	332	10
2023-09-09T00:00	10701	257	-45.6	-53.4	333	10
2023-09-09T00:00	10721	256	-45.7	-53.4	334	10
2023-09-09T00:00	10740	255	-45.9	-53.6	335	10
2023-09-09T00:00	10757	255	-46.0	-54.1	337	10
2023-09-09T00:00	10777	254	-46.1	-54.7	338	10
2023-09-09T00:00	10798	253	-46.3	-55.0	339	10
2023-09-09T00:00	10819	252	-46.4	-55.5	341	10
2023-09-09T00:00	10839	252	-46.5	-56.1	341	9
2023-09-09T00:00	10860	251	-46.6	-56.5	341	9
2023-09-09T00:00	10881	250	-46.7	-57.3	340	9
2023-09-09T00:00	10901	249	-46.6	-57.7	340	9
2023-09-09T00:00	10920	249	-46.7	-57.7	339	9
2023-09-09T00:00	10940	248	-46.8	-57.7	339	9
2023-09-09T00:00	10960	247	-47.0	-57.8	339	9
2023-09-09T00:00	10980	246	-47.1	-57.8	340	9
2023-09-09T00:00	11000	246	-47.3	-57.9	341	9
2023-09-09T00:00	11021	245	-47.4	-58.1	342	9
2023-09-09T00:00	11042	244	-47.5	-58.4	343	9
2023-09-09T00:00	11061	243	-47.6	-58.7	343	10
2023-09-09T00:00	11082	243	-47.7	-58.8	343	10
2023-09-09T00:00	11103	242	-47.8	-58.7	342	10
2023-09-09T00:00	11123	241	-48.0	-58.7	342	10
2023-09-09T00:00	11144	240	-48.1	-58.7	342	10
2023-09-09T00:00	11162	240	-48.3	-58.6	342	10
2023-09-09T00:00	11184	239	-48.5	-58.5	343	10
2023-09-09T00:00	11204	238	-48.7	-58.5	343	10
2023-09-09T00:00	11225	237	-48.9	-58.7	344	10
2023-09-09T00:00	11243	237	-49.0	-58.8	344	10
2023-09-09T00:00	11263	236	-49.2	-58.9	344	10
2023-09-09T00:00	11283	235	-49.3	-59.0	344	10
2023-09-09T00:00	11303	235	-49.5	-59.0	344	10
2023-09-09T00:00	11322	234	-49.7	-59.1	344	10
2023-09-09T00:00	11342	233	-49.9	-59.3	343	10
2023-09-09T00:00	11363	232	-50.1	-59.5	343	10
2023-09-09T00:00	11381	232	-50.2	-59.9	343	10
2023-09-09T00:00	11403	231	-50.3	-60.2	344	10
2023-09-09T00:00	11423	230	-50.5	-60.3	344	10
2023-09-09T00:00	11444	230	-50.7	-59.9	345	10
2023-09-09T00:00	11460	229	-50.8	-59.3	345	10
2023-09-09T00:00	11482	228	-51.0	-59.1	345	10
2023-09-09T00:00	11503	227	-51.1	-59.1	345	10
2023-09-09T00:00	11523	227	-51.3	-59.4	344	9
2023-09-09T00:00	11543	226	-51.4	-60.0	343	9
2023-09-09T00:00	11564	225	-51.5	-60.5	342	9
2023-09-09T00:00	11584	225	-51.6	-60.8	340	9
2023-09-09T00:00	11603	224	-51.7	-60.9	338	9
2023-09-09T00:00	11622	223	-51.9	-61.0	336	9
2023-09-09T00:00	11641	223	-52.0	-61.1	335	9
2023-09-09T00:00	11661	222	-52.0	-61.1	333	9
2023-09-09T00:00	11683	221	-52.2	-61.3	332	9
2023-09-09T00:00	11702	221	-52.3	-61.3	331	9
2023-09-09T00:00	11722	220	-52.5	-61.4	330	9
2023-09-09T00:00	11742	219	-52.7	-61.5	329	10
2023-09-09T00:00	11762	219	-52.8	-61.5	329	10
2023-09-09T00:00	11781	218	-53.0	-61.4	329	10
2023-09-09T00:00	11801	217	-53.1	-61.3	329	10
2023-09-09T00:00	11820	217	-53.3	-61.3	329	10
2023-09-09T00:00	11838	216	-53.5	-61.3	328	10
2023-09-09T00:00	11859	215	-53.7	-61.4	327	10
2023-09-09T00:00	11881	215	-53.8	-61.5	326	10
2023-09-09T00:00	11901	214	-53.9	-61.8	325	10
2023-09-09T00:00	11922	213	-54.1	-62.1	325	10
2023-09-09T00:00	11941	213	-54.2	-62.3	325	11
2023-09-09T00:00	11959	212	-54.3	-62.4	325	11
2023-09-09T00:00	11977	211	-54.5	-62.5	325	11
2023-09-09T00:00	11998	211	-54.7	-62.5	326	11
2023-09-09T00:00	12018	210	-54.8	-62.5	326	11
2023-09-09T00:00	12038	209	-55.0	-62.7	326	11
2023-09-09T00:00	12059	209	-55.1	-62.9	326	11
2023-09-09T00:00	12080	208	-55.3	-63.1	326	11
2023-09-09T00:00	12101	207	-55.5	-63.2	325	11
2023-09-09T00:00	12119	207	-55.6	-63.3	325	11
2023-09-09T00:00	12141	206	-55.8	-63.5	324	11
2023-09-09T00:00	12162	205	-55.9	-63.6	324	11
2023-09-09T00:00	12182	205	-56.1	-63.8	324	11
2023-09-09T00:00	12202	204	-56.2	-63.8	324	12
2023-09-09T00:00	12221	203	-56.4	-63.9	323	12
2023-09-09T00:00	12243	203	-56.5	-64.0	323	12
2023-09-09T00:00	12262	202	-56.6	-64.1	323	12
2023-09-09T00:00	12281	201	-56.7	-64.1	323	12
2023-09-09T00:00	12302	201	-56.9	-64.1	323	12
2023-09-09T00:00	12322	200	-57.1	-64.2	323	12
2023-09-09T00:00	12345	200	-57.2	-64.1	322	12
2023-09-09T00:00	12362	199	-57.4	-64.1	322	12
2023-09-09T00:00	12382	198	-57.6	-64.1	322	13
2023-09-09T00:00	12401	198	-57.7	-64.2	322	13
2023-09-09T00:00	12422	197	-57.9	-64.4	322	13
2023-09-09T00:00	12443	196	-58.0	-64.6	322	13
2023-09-09T00:00	12462	196	-58.2	-64.9	322	13
2023-09-09T00:00	12483	195	-58.3	-65.1	322	13
2023-09-09T00:00	12504	195	-58.4	-65.2	323	14
2023-09-09T00:00	12526	194	-58.6	-65.4	323	14
2023-09-09T00:00	12548	193	-58.7	-65.5	324	14
2023-09-09T00:00	12567	193	-58.8	-65.7	324	14
2023-09-09T00:00	12587	192	-59.0	-65.9	324	14
2023-09-09T00:00	12609	191	-59.1	-66.0	323	13
2023-09-09T00:00	12628	191	-59.1	-66.0	322	13
2023-09-09T00:00	12647	190	-59.3	-66.2	321	13
2023-09-09T00:00	12669	189	-59.4	-66.1	320	13
2023-09-09T00:00	12689	189	-59.6	-66.1	319	13
2023-09-09T00:00	12709	188	-59.8	-66.0	318	13
2023-09-09T00:00	12732	188	-60.0	-65.9	317	13
2023-09-09T00:00	12753	187	-60.2	-65.9	316	13
2023-09-09T00:00	12772	186	-60.3	-65.9	315	13
2023-09-09T00:00	12794	186	-60.4	-65.9	315	13
2023-09-09T00:00	12815	185	-60.5	-65.8	314	13
2023-09-09T00:00	12837	184	-60.5	-65.6	314	13
2023-09-09T00:00	12858	184	-60.6	-65.4	314	13
2023-09-09T00:00	12876	183	-60.7	-65.3	315	14
2023-09-09T00:00	12896	183	-60.8	-65.4	316	14
2023-09-09T00:00	12919	182	-60.9	-65.7	317	14
2023-09-09T00:00	12938	181	-61.0	-66.0	319	14
2023-09-09T00:00	12959	181	-61.2		320	14
2023-09-09T00:00	12979	180	-61.3	-66.5	321	14
2023-09-09T00:00	13000	180	-61.5	-66.9	322	14
2023-09-09T00:00	13021	179	-61.7	-67.3	322	13
2023-09-09T00:00	13041	178	-61.8	-67.6	321	13
2023-09-09T00:00	13062	178	-61.7	-67.7	320	13
2023-09-09T00:00	13083	177	-61.8	-67.8	320	13
2023-09-09T00:00	13105	177	-61.9	-67.8	320	13
2023-09-09T00:00	13125	176	-62.0	-67.9	320	13
2023-09-09T00:00	13144	176	-62.1	-68.0	320	12
2023-09-09T00:00	13164	175	-62.2	-68.1	321	12
2023-09-09T00:00	13186	174	-62.2	-68.1	321	12
2023-09-09T00:00	13206	174	-62.3	-68.3	320	12
2023-09-09T00:00	13228	173	-62.4	-68.5	320	12
2023-09-09T00:00	13249	173	-62.5	-68.8	319	12
2023-09-09T00:00	13269	172	-62.5	-69.0	318	13
2023-09-09T00:00	13289	171	-62.6	-69.2	317	13
2023-09-09T00:00	13311	171	-62.8	-69.4	316	13
2023-09-09T00:00	13329	170	-62.9		316	13
2023-09-09T00:00	13349	170	-63.0	-69.5	315	13
2023-09-09T00:00	13370	169	-62.9	-69.2	315	12
2023-09-09T00:00	13391	169	-63.0	-69.1	315	12
2023-09-09T00:00	13410	168	-62.9		316	13
2023-09-09T00:00	13431	168	-63.1	-68.4	316	13
2023-09-09T00:00	13449	167	-63.2	-68.3	317	13
2023-09-09T00:00	13471	166	-63.4	-68.3	317	13
2023-09-09T00:00	13490	166	-63.5	-68.3	317	13
2023-09-09T00:00	13510	165	-63.7	-68.5	317	14
2023-09-09T00:00	13531	165	-63.9	-68.8	317	14
2023-09-09T00:00	13552	164	-64.0	-69.2	317	14
2023-09-09T00:00	13574	164	-64.1	-69.9	317	14
2023-09-09T00:00	13594	163	-64.0	-70.6	316	14
2023-09-09T00:00	13614	163	-63.6	-71.2	316	14
2023-09-09T00:00	13633	162	-63.5	-72.0	315	15
2023-09-09T00:00	13651	162	-63.3	-72.4	314	14
2023-09-09T00:00	13673	161	-63.2	-72.8	313	14
2023-09-09T00:00	13694	161	-63.0	-72.9	312	14
2023-09-09T00:00	13713	160	-62.9	-73.2	312	13
2023-09-09T00:00	13734	159	-62.7	-73.4	312	13
2023-09-09T00:00	13753	159	-62.6	-73.6	312	12
2023-09-09T00:00	13771	158	-62.6	-73.9	312	12
2023-09-09T00:00	13792	158	-62.6	-74.1	313	12
2023-09-09T00:00	13810	158	-62.7	-74.5	313	11
2023-09-09T00:00	13828	157	-62.7	-74.7	313	11
2023-09-09T00:00	13848	157	-62.6	-75.0	312	11
2023-09-09T00:00	13867	156	-62.3	-75.2	312	11
2023-09-09T00:00	13890	156	-61.9	-75.5	312	11
2023-09-09T00:00	13911	155	-61.8	-76.0	312	11
2023-09-09T00:00	13929	154	-61.5	-76.4	313	11
2023-09-09T00:00	13951	154	-61.5	-77.0	313	12
2023-09-09T00:00	13969	153	-61.2	-77.3	314	12
2023-09-09T00:00	13990	153	-61.2	-77.7	313	12
2023-09-09T00:00	14009	153	-61.2	-78.0	312	12
2023-09-09T00:00	14030	152	-61.1	-78.1	310	13
2023-09-09T00:00	14050	152	-61.1	-78.5	307	13
2023-09-09T00:00	14071	151	-60.8	-78.7	304	13
2023-09-09T00:00	14093	150	-60.7	-79.0	302	14
2023-09-09T00:00	14114	150	-60.8	-79.3	300	14
2023-09-09T00:00	14138	149	-60.9	-79.6	298	14
2023-09-09T00:00	14159	149	-61.0	-79.8	296	15
2023-09-09T00:00	14177	148	-61.0	-79.8	296	15
2023-09-09T00:00	14197	148	-61.1	-79.8	295	16
2023-09-09T00:00	14219	147	-61.1	-79.8	296	16
2023-09-09T00:00	14239	147	-61.3	-79.9	296	16
2023-09-09T00:00	14260	146	-61.5	-79.9	297	16
2023-09-09T00:00	14282	146	-61.6	-79.9	298	16
2023-09-09T00:00	14302	146	-61.6	-79.8	299	17
2023-09-09T00:00	14321	145	-61.7	-79.9	301	17
2023-09-09T00:00	14342	145	-61.9	-80.0	302	17
2023-09-09T00:00	14364	144	-62.0	-80.1	304	17
2023-09-09T00:00	14384	144	-62.1		306	17
2023-09-09T00:00	14407	143	-62.2	-80.1	307	16
2023-09-09T00:00	14426	143	-62.3	-80.2	309	16
2023-09-09T00:00	14448	142	-62.4	-80.3	311	16
2023-09-09T00:00	14468	142	-62.4	-80.3	312	16
2023-09-09T00:00	14490	141	-62.6	-80.5	314	15
2023-09-09T00:00	14513	141	-62.6	-80.5	316	15
2023-09-09T00:00	14533	140	-62.7	-80.6	318	14
2023-09-09T00:00	14554	140	-62.9	-80.7	321	14
2023-09-09T00:00	14577	139	-63.0	-80.7	323	14
2023-09-09T00:00	14598	139	-63.1	-80.8	325	13
2023-09-09T00:00	14618	138	-63.2	-80.9	326	13
2023-09-09T00:00	14640	138	-63.2	-80.9	327	13
2023-09-09T00:00	14659	137	-63.3	-81.0	327	12
2023-09-09T00:00	14683	137	-63.4	-81.1	326	12
2023-09-09T00:00	14706	136	-63.6	-81.3	324	11
2023-09-09T00:00	14727	136	-63.6	-81.3	322	11
2023-09-09T00:00	14749	135	-63.6	-81.3	320	11
2023-09-09T00:00	14771	135	-63.6	-81.3	319	12
2023-09-09T00:00	14793	134	-63.6	-81.4	318	12
2023-09-09T00:00	14812	134	-63.5	-81.4	318	13
2023-09-09T00:00	14831	133	-63.4	-81.5	320	13
2023-09-09T00:00	14855	133	-63.4	-81.7	323	13
2023-09-09T00:00	14878	132	-63.3	-81.8	326	13
2023-09-09T00:00	14901	132	-62.8	-81.6	330	13
2023-09-09T00:00	14922	132	-62.6	-81.7	334	12
2023-09-09T00:00	14944	131	-62.5	-81.8	337	12
2023-09-09T00:00	14965	131	-62.6	-81.9	339	12
2023-09-09T00:00	14987	130	-62.7	-82.0	341	11
2023-09-09T00:00	15009	130	-62.8	-82.0	343	11
2023-09-09T00:00	15036	129	-62.9	-82.0	346	11
2023-09-09T00:00	15060	129	-63.1	-82.1	348	10
2023-09-09T00:00	15085	128	-63.3	-82.0	351	10
2023-09-09T00:00	15105	128	-63.4	-82.0	353	9
2023-09-09T00:00	15128	127	-63.5	-81.9	354	8
2023-09-09T00:00	15148	127	-63.6	-81.8	354	8
2023-09-09T00:00	15168	126	-63.6	-81.7	352	7
2023-09-09T00:00	15190	126	-63.7	-81.6	349	7
2023-09-09T00:00	15210	126	-63.8	-81.6	345	6
2023-09-09T00:00	15232	125	-63.9	-81.6	340	6
2023-09-09T00:00	15256	125	-63.9	-81.5	333	5
2023-09-09T00:00	15277	124	-64.0	-81.6	326	5
2023-09-09T00:00	15298	124	-64.0	-81.5	318	5
2023-09-09T00:00	15321	123	-64.0	-81.6	312	5
2023-09-09T00:00	15343	123	-64.1	-81.7	307	6
2023-09-09T00:00	15363	122	-64.2	-81.9	304	6
2023-09-09T00:00	15384	122	-64.0	-81.9	302	6
2023-09-09T00:00	15406	122	-63.9	-82.1	302	6
2023-09-09T00:00	15427	121	-63.7	-82.3	302	7
2023-09-09T00:00	15448	121	-63.4	-82.2	302	7
2023-09-09T00:00	15472	120	-63.4	-82.4	303	7
2023-09-09T00:00	15491	120	-63.3	-82.5	305	7
2023-09-09T00:00	15514	119	-63.5	-82.6	307	7
2023-09-09T00:00	15533	119	-63.6	-82.8	309	7
2023-09-09T00:00	15554	119	-63.5	-82.7	310	7
2023-09-09T00:00	15573	118	-63.4	-82.8	311	7
2023-09-09T00:00	15596	118	-63.2	-82.7	312	7
2023-09-09T00:00	15616	117	-63.2	-83.0	312	7
2023-09-09T00:00	15636	117	-62.9	-82.8	313	8
2023-09-09T00:00	15658	117	-62.7	-82.8	315	7
2023-09-09T00:00	15679	116	-62.8	-83.0	318	7
2023-09-09T00:00	15700	116	-62.7	-82.9	322	7
2023-09-09T00:00	15723	115	-62.6	-83.0	325	7
2023-09-09T00:00	15743	115	-62.6	-83.0	327	7
2023-09-09T00:00	15762	115	-62.4	-82.8	329	7
2023-09-09T00:00	15783	114	-62.3	-82.9	329	8
2023-09-09T00:00	15803	114	-62.4	-83.0	329	8
2023-09-09T00:00	15823	114	-62.3	-83.0	329	8
2023-09-09T00:00	15845	113	-62.2		330	8
2023-09-09T00:00	15866	113	-61.9	-83.0	330	8
2023-09-09T00:00	15888	112	-61.7		331	8
2023-09-09T00:00	15909	112	-61.8	-83.0	331	8
2023-09-09T00:00	15930	112	-62.0	-83.2	332	8
2023-09-09T00:00	15951	111	-62.0	-83.2	333	7
2023-09-09T00:00	15970	111	-62.1	-83.4	335	7
2023-09-09T00:00	15993	111	-62.1	-83.6	337	7
2023-09-09T00:00	16011	110	-61.9	-83.8	339	7
2023-09-09T00:00	16036	110	-61.5	-83.8	340	6
2023-09-09T00:00	16056	109	-61.4	-83.9	339	6
2023-09-09T00:00	16078	109	-61.3	-84.0	338	5
2023-09-09T00:00	16099	109	-61.4	-84.1	336	5
2023-09-09T00:00	16120	108	-61.5	-84.1	334	5
2023-09-09T00:00	16140	108	-61.7	-84.3	334	5
2023-09-09T00:00	16161	108	-61.8	-84.4	333	5
2023-09-09T00:00	16182	107	-61.7	-84.5	333	5
2023-09-09T00:00	16205	107	-61.7	-84.5	332	5
2023-09-09T00:00	16226	106	-61.7	-84.5	330	6
2023-09-09T00:00	16248	106	-61.8	-84.6	329	6
2023-09-09T00:00	16270	106	-61.8	-84.8	329	6
2023-09-09T00:00	16290	105	-62.0	-84.9	329	6
2023-09-09T00:00	16315	105	-62.0	-84.9	331	7
2023-09-09T00:00	16338	105	-62.0	-84.9	333	6
2023-09-09T00:00	16356	104	-62.1	-85.2	335	6
2023-09-09T00:00	16381	104	-62.0	-85.3	337	6
2023-09-09T00:00	16404	103	-61.7	-85.1	339	5
2023-09-09T00:00	16423	103	-61.5	-85.2	341	5
2023-09-09T00:00	16446	103	-61.3	-85.2	342	4
2023-09-09T00:00	16466	102	-61.3	-85.2	342	4
2023-09-09T00:00	16488	102	-61.4	-85.3	340	3
2023-09-09T00:00	16511	102	-61.4	-85.3	336	3
2023-09-09T00:00	16530	101	-61.4	-85.3	332	3
2023-09-09T00:00	16555	101	-61.3	-85.5	328	4
2023-09-09T00:00	16579	101	-61.2	-85.4	325	4
2023-09-09T00:00	16599	100	-61.2	-85.4	323	5
2023-09-09T00:00	16619	100	-61.4	-85.5	322	5
2023-09-09T00:00	16643	100	-61.6	-85.7	322	6
2023-09-09T00:00	16666	99	-61.8	-85.6	323	6
2023-09-09T00:00	16685	99	-61.9	-85.7	324	7
2023-09-09T00:00	16707	98	-62.0	-85.8	325	7
2023-09-09T00:00	16728	98	-62.0	-85.8	327	7
2023-09-09T00:00	16751	98	-62.1	-85.9	328	7
2023-09-09T00:00	16773	97	-62.1	-85.9	329	7
2023-09-09T00:00	16794	97	-62.0	-85.8	332	7
2023-09-09T00:00	16814	97	-62.0	-86.0	335	6
2023-09-09T00:00	16836	96	-61.8	-85.9	340	6
2023-09-09T00:00	16858	96	-61.5	-85.6	345	6
2023-09-09T00:00	16878	96	-61.5	-85.9	349	5
2023-09-09T00:00	16899	96	-61.4	-85.8	351	5
2023-09-09T00:00	16921	95	-61.3	-85.7	351	4
2023-09-09T00:00	16940	95	-61.2	-85.9	346	3
2023-09-09T00:00	16961	95	-61.2	-85.9	337	3
2023-09-09T00:00	16984	94	-61.2	-85.9	325	2
2023-09-09T00:00	17003	94	-61.2	-85.9	317	3
2023-09-09T00:00	17026	94	-61.3	-85.7	315	3
2023-09-09T00:00	17047	93	-61.4	-86.0	318	3
2023-09-09T00:00	17067	93	-61.4	-86.0	321	4
2023-09-09T00:00	17088	93	-61.3	-86.0	323	5
2023-09-09T00:00	17112	92	-61.4	-86.0	325	5
2023-09-09T00:00	17134	92	-61.5	-86.1	326	5
2023-09-09T00:00	17154	92	-61.6	-86.5	327	5
2023-09-09T00:00	17179	91	-61.2	-86.2	328	5
2023-09-09T00:00	17201	91	-60.9	-86.2	327	5
2023-09-09T00:00	17223	91	-60.6	-86.3	325	5
2023-09-09T00:00	17245	90	-60.6	-86.3	322	5
2023-09-09T00:00	17267	90	-60.6	-86.3	320	5
2023-09-09T00:00	17288	90	-60.5	-86.5	321	6
2023-09-09T00:00	17312	89	-60.3	-86.3	324	6
2023-09-09T00:00	17335	89	-60.2	-86.3	328	7
2023-09-09T00:00	17353	89	-60.2	-86.3	332	8
2023-09-09T00:00	17378	88	-60.1	-86.5	337	8
2023-09-09T00:00	17397	88	-59.9	-86.3	341	8
2023-09-09T00:00	17423	88	-59.4	-86.0	346	8
2023-09-09T00:00	17446	87	-59.3	-86.2	350	7
2023-09-09T00:00	17468	87	-59.1		354	7
2023-09-09T00:00	17492	87	-59.1		356	7
2023-09-09T00:00	17512	87	-59.2	-86.2	356	7
2023-09-09T00:00	17535	86	-59.2	-86.2	354	6
2023-09-09T00:00	17560	86	-59.3	-86.2	352	6
2023-09-09T00:00	17581	86	-59.4	-86.3	351	6
2023-09-09T00:00	17604	85	-59.3	-86.2	350	6
2023-09-09T00:00	17630	85	-59.3	-86.2	351	6
2023-09-09T00:00	17651	85	-59.4	-86.3	353	6
2023-09-09T00:00	17674	84	-59.3	-86.2	355	6
2023-09-09T00:00	17695	84	-59.3	-86.2	358	7
2023-09-09T00:00	17715	84	-59.4	-86.3	359	7
2023-09-09T00:00	17739	83	-59.5	-86.4	0	8
2023-09-09T00:00	17765	83	-59.4	-86.3	1	8
2023-09-09T00:00	17784	83	-59.3	-86.2	2	8
2023-09-09T00:00	17810	83	-59.3	-86.2	3	8
2023-09-09T00:00	17830	82	-59.3	-86.2	4	9
2023-09-09T00:00	17853	82	-59.2	-86.2	5	8
2023-09-09T00:00	17875	82	-59.4	-86.3	5	8
2023-09-09T00:00	17895	81	-59.5	-86.4	7	8
2023-09-09T00:00	17921	81	-59.5	-86.4	8	8
2023-09-09T00:00	17945	81	-59.6	-86.5	9	8
2023-09-09T00:00	17966	80	-59.7	-86.5	11	7
2023-09-09T00:00	17990	80	-59.8	-86.6	12	7
2023-09-09T00:00	18012	80	-59.9	-86.7	12	7
2023-09-09T00:00	18035	80	-60.0	-86.8	13	7
2023-09-09T00:00	18057	79	-59.9	-86.7	14	8
2023-09-09T00:00	18081	79	-59.8	-86.6	15	8
2023-09-09T00:00	18102	79	-59.8	-86.6	17	8
2023-09-09T00:00	18125	78	-59.8	-86.6	19	8
2023-09-09T00:00	18148	78	-59.9	-86.7	23	8
2023-09-09T00:00	18169	78	-59.9	-86.7	27	8
2023-09-09T00:00	18192	78	-59.9	-86.7	32	8
2023-09-09T00:00	18213	77	-59.9	-86.7	36	8
2023-09-09T00:00	18236	77	-59.8	-86.6	39	8
2023-09-09T00:00	18255	77	-59.9	-86.7	42	8
2023-09-09T00:00	18278	77	-60.0	-86.8	44	8
2023-09-09T00:00	18299	76	-60.1	-86.8	45	7
2023-09-09T00:00	18324	76	-60.2	-86.9	45	7
2023-09-09T00:00	18346	76	-60.2	-86.9	43	6
2023-09-09T00:00	18368	75	-60.1	-86.8	39	6
2023-09-09T00:00	18396	75	-59.9	-86.7	34	6
2023-09-09T00:00	18413	75	-59.9	-86.7	30	6
2023-09-09T00:00	18435	75	-60.0	-86.8	29	6
2023-09-09T00:00	18458	74	-59.9	-87.1	30	6
2023-09-09T00:00	18482	74	-59.9	-87.1	33	6
2023-09-09T00:00	18503	74	-59.8	-87.0	37	6
2023-09-09T00:00	18521	74	-59.6	-86.8	40	5
2023-09-09T00:00	18547	73	-59.7	-86.9	44	5
2023-09-09T00:00	18568	73	-59.7	-86.9	47	5
2023-09-09T00:00	18590	73	-59.7	-86.9	50	5
2023-09-09T00:00	18616	73	-59.7	-86.9	53	5
2023-09-09T00:00	18635	72	-59.6	-86.8	55	5
2023-09-09T00:00	18659	72	-59.6	-86.8	55	5
2023-09-09T00:00	18683	72	-59.7	-86.9	55	5
2023-09-09T00:00	18702	72	-59.7	-86.9	53	5
2023-09-09T00:00	18728	71	-59.7	-86.9	50	5
2023-09-09T00:00	18747	71	-59.7	-86.9	47	5
2023-09-09T00:00	18773	71	-59.9	-87.1	45	4
2023-09-09T00:00	18796	70	-59.9	-87.1	44	4
2023-09-09T00:00	18818	70	-60.0	-87.1	45	4
2023-09-09T00:00	18841	70	-60.0	-87.1	48	3
2023-09-09T00:00	18865	70	-59.9	-87.1	53	3
2023-09-09T00:00	18890	69	-60.0	-87.1	58	2
2023-09-09T00:00	18914	69	-60.1	-87.2	64	2
2023-09-09T00:00	18935	69	-60.2	-86.9	67	1
2023-09-09T00:00	18955	69	-60.3	-87.0	65	1
2023-09-09T00:00	18977	68	-60.2	-86.9	44	1
2023-09-09T00:00	19002	68	-60.1	-86.8	346	1
2023-09-09T00:00	19023	68	-60.2	-87.3	315	1
2023-09-09T00:00	19043	68	-60.2	-87.3	305	2
2023-09-09T00:00	19068	67	-60.1	-87.2	302	2
2023-09-09T00:00	19091	67	-59.9	-87.1	302	3
2023-09-09T00:00	19113	67	-59.8	-87.4	305	3
2023-09-09T00:00	19138	67	-59.7	-87.3	310	3
2023-09-09T00:00	19158	66	-59.5	-87.1	318	3
2023-09-09T00:00	19185	66	-59.6	-87.2	327	3
2023-09-09T00:00	19205	66	-59.5	-87.1	335	4
2023-09-09T00:00	19227	66	-59.3	-87.0	342	4
2023-09-09T00:00	19249	66	-59.2	-86.9	347	5
2023-09-09T00:00	19271	65	-59.2	-86.9	350	5
2023-09-09T00:00	19296	65	-59.2	-86.9	351	6
2023-09-09T00:00	19319	65	-59.1	-86.8	353	7
2023-09-09T00:00	19342	65	-59.1	-86.8	354	8
2023-09-09T00:00	19365	64	-59.2	-86.9	356	8
2023-09-09T00:00	19389	64	-59.3	-87.0	358	9
2023-09-09T00:00	19411	64	-59.2	-86.9	1	9
2023-09-09T00:00	19437	64	-59.3	-87.0	4	9
2023-09-09T00:00	19457	63	-59.0	-86.8	9	9
2023-09-09T00:00	19481	63	-59.1	-86.8	13	9
2023-09-09T00:00	19509	63	-59.1	-87.3	18	9
2023-09-09T00:00	19532	63	-59.1	-87.3	22	9
2023-09-09T00:00	19552	62	-58.9	-87.1	25	9
2023-09-09T00:00	19576	62	-58.8	-87.0	27	8
2023-09-09T00:00	19595	62	-59.0	-87.2	28	8
2023-09-09T00:00	19621	62	-58.9	-86.7	29	7
2023-09-09T00:00	19648	62	-58.9	-86.7	29	6
2023-09-09T00:00	19670	61	-58.9	-86.7	28	5
2023-09-09T00:00	19696	61	-58.9	-86.7	26	5
2023-09-09T00:00	19720	61	-58.9	-86.7	25	4
2023-09-09T00:00	19741	61	-58.8	-86.6	24	4
2023-09-09T00:00	19768	60	-58.8	-87.0	25	3
2023-09-09T00:00	19790	60	-58.9	-87.1	31	3
2023-09-09T00:00	19814	60	-59.0	-87.2	39	3
2023-09-09T00:00	19839	60	-58.7	-87.0	47	3
2023-09-09T00:00	19862	59	-58.6	-86.9	52	4
2023-09-09T00:00	19882	59	-58.7	-87.0	56	4
2023-09-09T00:00	19911	59	-58.8	-86.6	59	4
2023-09-09T00:00	19938	59	-58.8	-86.6	60	4
2023-09-09T00:00	19961	59	-58.9	-86.7	60	4
2023-09-09T00:00	19984	58	-58.9	-86.7	60	4
2023-09-09T00:00	20007	58	-58.9	-86.7	59	4
2023-09-09T00:00	20030	58	-58.8	-86.6	56	3
2023-09-09T00:00	20055	58	-58.8	-87.0	52	3
2023-09-09T00:00	20078	57	-58.7	-87.0	45	2
2023-09-09T00:00	20098	57	-58.7	-87.0	34	2
2023-09-09T00:00	20124	57	-58.6	-86.9	21	2
2023-09-09T00:00	20147	57	-58.3	-86.7	12	2
2023-09-09T00:00	20170	57	-58.2	-87.0	11	2
2023-09-09T00:00	20198	56	-58.2	-87.0	18	2
2023-09-09T00:00	20220	56	-58.2	-87.0	29	3
2023-09-09T00:00	20244	56	-57.9	-86.8	39	3
2023-09-09T00:00	20265	56	-57.6	-86.6	47	4
2023-09-09T00:00	20290	56	-57.5	-87.0	53	5
2023-09-09T00:00	20313	55	-57.4	-86.9	58	5
2023-09-09T00:00	20337	55	-57.1	-86.7	61	6
2023-09-09T00:00	20360	55	-57.2	-86.8	64	6
2023-09-09T00:00	20388	55	-57.2	-86.8	66	6
2023-09-09T00:00	20411	54	-57.3	-86.4	68	6
2023-09-09T00:00	20432	54	-57.3	-86.4	70	6
2023-09-09T00:00	20456	54	-57.1	-86.2	72	7
2023-09-09T00:00	20477	54	-57.1	-86.2	74	6
2023-09-09T00:00	20503	54	-57.0	-86.1	76	6
2023-09-09T00:00	20524	54	-57.0	-86.1	78	6
2023-09-09T00:00	20549	53	-57.0	-86.1	82	5
2023-09-09T00:00	20573	53	-57.1	-86.2	87	4
2023-09-09T00:00	20596	53	-57.0	-86.1	95	4
2023-09-09T00:00	20620	53	-57.0	-86.1	103	3
2023-09-09T00:00	20644	53	-56.9	-86.1	111	3
2023-09-09T00:00	20668	52	-56.9	-86.1	120	3
2023-09-09T00:00	20691	52	-57.1	-86.2	129	3
2023-09-09T00:00	20714	52	-57.2	-86.3	140	2
2023-09-09T00:00	20736	52	-57.3	-86.4	154	2
2023-09-09T00:00	20755	52	-57.5	-86.1	171	2
2023-09-09T00:00	20783	51	-57.6	-86.1	190	2
2023-09-09T00:00	20807	51	-57.6	-86.1	213	2
2023-09-09T00:00	20828	51	-57.6	-86.1	239	2
2023-09-09T00:00	20855	51	-57.7	-86.7	263	2
2023-09-09T00:00	20877	51	-57.7	-86.7	280	3
2023-09-09T00:00	20902	50	-57.5	-86.5	292	3
2023-09-09T00:00	20928	50	-57.4	-86.4	300	4
2023-09-09T00:00	20954	50	-57.2	-86.3	307	4
2023-09-09T00:00	20976	50	-57.2	-86.8	312	5
2023-09-09T00:00	21000	50	-57.1	-86.7	317	5
2023-09-09T00:00	21023	49	-56.9	-86.6	320	5
2023-09-09T00:00	21051	49	-56.9	-86.6	323	5
2023-09-09T00:00	21074	49	-56.7	-86.4	325	5
2023-09-09T00:00	21101	49	-56.7	-86.4	328	5
2023-09-09T00:00	21122	49	-56.5	-86.3	332	5
2023-09-09T00:00	21150	48	-56.6	-86.3	337	5
2023-09-09T00:00	21176	48	-56.8	-86.5	343	5
2023-09-09T00:00	21201	48	-56.9	-86.6	349	5
2023-09-09T00:00	21227	48	-56.9	-86.6	355	5
2023-09-09T00:00	21250	48	-56.8	-86.5	360	5
2023-09-09T00:00	21280	48	-56.7	-86.4	3	5
2023-09-09T00:00	21303	47	-56.6	-86.3	5	6
2023-09-09T00:00	21328	47	-56.7	-86.4	8	6
2023-09-09T00:00	21355	47	-56.9	-86.6	10	7
2023-09-09T00:00	21373	47	-57.0	-86.1	13	7
2023-09-09T00:00	21399	47	-57.1	-86.2	15	7
2023-09-09T00:00	21424	46	-57.1	-86.2	17	8
2023-09-09T00:00	21452	46	-57.1	-86.2	18	8
2023-09-09T00:00	21477	46	-57.1	-86.2	20	8
2023-09-09T00:00	21500	46	-57.3	-86.4	21	8
2023-09-09T00:00	21524	46	-57.4	-86.4	22	8
2023-09-09T00:00	21552	46	-57.4	-86.4	23	8
2023-09-09T00:00	21575	45	-57.5	-86.5	25	8
2023-09-09T00:00	21599	45	-57.5	-86.5	26	7
2023-09-09T00:00	21622	45	-57.5	-86.5	27	7
2023-09-09T00:00	21648	45	-57.4	-86.4	28	7
2023-09-09T00:00	21673	45	-57.4	-86.4	30	7
2023-09-09T00:00	21694	44	-57.4	-86.4	31	7
2023-09-09T00:00	21720	44	-57.4	-86.4	32	6
2023-09-09T00:00	21746	44	-57.3	-86.4	33	6
2023-09-09T00:00	21768	44	-57.4	-86.4	33	6
2023-09-09T00:00	21794	44	-57.5	-86.5	32	5
2023-09-09T00:00	21822	44	-57.6	-86.6	31	5
2023-09-09T00:00	21838	43	-57.5	-86.5	30	5
2023-09-09T00:00	21864	43	-57.4	-86.9	30	5
2023-09-09T00:00	21891	43	-57.2	-86.8	30	6
2023-09-09T00:00	21910	43	-57.4	-86.9	32	6
2023-09-09T00:00	21932	43	-57.3	-86.9	35	6
2023-09-09T00:00	21961	43	-57.3	-86.9	39	6
2023-09-09T00:00	21983	42	-57.2	-86.8	44	6
2023-09-09T00:00	22012	42	-57.2	-86.3	49	6
2023-09-09T00:00	22031	42	-57.3	-86.4	53	6
2023-09-09T00:00	22053	42	-57.4	-86.4	56	6
2023-09-09T00:00	22074	42	-57.5	-86.5	60	6
2023-09-09T00:00	22099	42	-57.5	-86.5	64	6
2023-09-09T00:00	22123	42	-57.6	-86.6	68	6
2023-09-09T00:00	22149	41	-57.6	-86.6	72	6
2023-09-09T00:00	22177	41	-57.7	-86.7	76	6
2023-09-09T00:00	22200	41	-57.8	-86.7	78	6
2023-09-09T00:00	22220	41	-57.7	-86.7	78	5
2023-09-09T00:00	22247	41	-57.7	-86.7	78	5
2023-09-09T00:00	22271	41	-57.5	-87.0	76	4
2023-09-09T00:00	22294	40	-57.5	-87.0	75	3
2023-09-09T00:00	22317	40	-57.4	-86.4	76	2
2023-09-09T00:00	22347	40	-57.6	-86.6	79	2
2023-09-09T00:00	22371	40	-57.7	-86.7	88	1
2023-09-09T00:00	22397	40	-57.7	-86.7	106	1
2023-09-09T00:00	22421	40	-57.8	-86.7	148	0
2023-09-09T00:00	22451	39	-57.9	-86.8	220	1
2023-09-09T00:00	22472	39	-58.0	-86.9	250	1
2023-09-09T00:00	22498	39	-58.0	-86.9	263	1
2023-09-09T00:00	22524	39	-58.0	-86.9	270	2
2023-09-09T00:00	22549	39	-58.1	-87.0	276	3
2023-09-09T00:00	22576	39	-58.2	-87.0	282	3
2023-09-09T00:00	22603	39	-58.4	-87.2	287	4
2023-09-09T00:00	22623	38	-58.3	-87.1	293	4
2023-09-09T00:00	22652	38	-58.3	-87.1	299	5
2023-09-09T00:00	22680	38	-58.1	-87.0	304	5
2023-09-09T00:00	22702	38	-58.1	-87.0	309	6
2023-09-09T00:00	22728	38	-58.0	-86.9	316	6
2023-09-09T00:00	22755	38	-58.0	-86.9	323	6
2023-09-09T00:00	22781	37	-58.0	-86.9	330	6
2023-09-09T00:00	22807	37	-58.0	-86.9	337	6
2023-09-09T00:00	22833	37	-58.0	-86.9	343	6
2023-09-09T00:00	22857	37	-57.9	-86.8	348	6
2023-09-09T00:00	22883	37	-57.9	-86.8	352	7
2023-09-09T00:00	22908	37	-57.9	-86.8	356	7
2023-09-09T00:00	22934	37	-57.9	-86.8	359	7
2023-09-09T00:00	22958	36	-57.7	-87.2	3	6
2023-09-09T00:00	22988	36	-57.6	-87.1	6	6
2023-09-09T00:00	23016	36	-57.6	-87.1	9	6
2023-09-09T00:00	23041	36	-57.6	-87.1	13	5
2023-09-09T00:00	23063	36	-57.6	-87.1	17	5
2023-09-09T00:00	23087	36	-57.7	-86.7	21	5
2023-09-09T00:00	23121	36	-57.7	-86.7	25	5
2023-09-09T00:00	23143	35	-57.8	-86.7	28	5
2023-09-09T00:00	23169	35	-57.8	-86.7	30	5
2023-09-09T00:00	23195	35	-58.0	-86.9	31	5
2023-09-09T00:00	23222	35	-57.9	-86.8	32	5
2023-09-09T00:00	23241	35	-58.0	-86.9	34	5
2023-09-09T00:00	23272	35	-58.2	-87.0	36	5
2023-09-09T00:00	23297	35	-58.2	-87.0	38	6
2023-09-09T00:00	23319	34	-58.1	-87.0	39	6
2023-09-09T00:00	23345	34	-58.0	-86.9	38	6
2023-09-09T00:00	23367	34	-58.0	-87.4	38	7
2023-09-09T00:00	23393	34	-58.1	-87.4	39	6
2023-09-09T00:00	23417	34	-57.9	-87.3	41	6
2023-09-09T00:00	23443	34	-57.6	-87.1	45	6
2023-09-09T00:00	23467	34	-57.5	-87.0	50	6
2023-09-09T00:00	23493	33	-57.4	-86.9	55	5
2023-09-09T00:00	23517	33	-57.3	-86.9	59	5
2023-09-09T00:00	23544	33	-57.1	-87.2	60	5
2023-09-09T00:00	23567	33	-57.0	-87.2	58	5
2023-09-09T00:00	23593	33	-56.9	-87.1	54	5
2023-09-09T00:00	23615	33	-56.9	-86.6	51	5
2023-09-09T00:00	23640	33	-56.9	-86.6	50	5
2023-09-09T00:00	23664	33	-57.0	-86.6	52	5
2023-09-09T00:00	23697	32	-57.0	-86.6	56	5
2023-09-09T00:00	23722	32	-56.9	-86.6	62	5
2023-09-09T00:00	23750	32	-56.8	-86.5	68	5
2023-09-09T00:00	23777	32	-56.9	-86.6	74	5
2023-09-09T00:00	23798	32	-57.0	-86.6	78	5
2023-09-09T00:00	23821	32	-57.0	-86.6	81	5
2023-09-09T00:00	23849	32	-57.1	-86.7	82	5
2023-09-09T00:00	23869	32	-57.0	-86.6	81	5
2023-09-09T00:00	23898	31	-57.0	-86.6	79	4
2023-09-09T00:00	23926	31	-56.9	-86.6	75	4
2023-09-09T00:00	23953	31	-57.1	-86.7	68	4
2023-09-09T00:00	23981	31	-57.0	-86.6	56	3
2023-09-09T00:00	24004	31	-56.9	-86.6	42	3
2023-09-09T00:00	24030	31	-56.8	-86.5	28	3
2023-09-09T00:00	24056	31	-56.8	-86.5	18	4
2023-09-09T00:00	24083	30	-57.0	-86.6	11	4
2023-09-09T00:00	24109	30	-57.1	-86.7	6	4
2023-09-09T00:00	24143	30	-57.1	-86.7	3	4
2023-09-09T00:00	24169	30	-57.2	-86.8	4	4
2023-09-09T00:00	24192	30	-57.1	-86.7	7	5
2023-09-09T00:00	24208	30	-57.1	-86.7	13	5
2023-09-09T00:00	24238	30	-57.1	-86.7	21	5
2023-09-09T00:00	24268	30	-57.1	-86.7	30	5
2023-09-09T00:00	24296	29	-57.1	-86.7	39	5
2023-09-09T00:00	24326	29	-57.3	-86.9	46	5
2023-09-09T00:00	24348	29	-57.4	-86.9	52	5
2023-09-09T00:00	24375	29	-57.6	-87.1	55	5
2023-09-09T00:00	24397	29	-57.7	-87.2	56	5
2023-09-09T00:00	24427	29	-57.5	-87.0	53	4
2023-09-09T00:00	24455	29	-57.2	-86.8	49	4
2023-09-09T00:00	24481	29	-57.1	-87.2	43	4
2023-09-09T00:00	24500	29	-57.1	-87.2	40	4
2023-09-09T00:00	24536	28	-56.7	-86.9	41	3
2023-09-09T00:00	24557	28	-56.4	-87.3	46	3
2023-09-09T00:00	24579	28	-55.9	-86.9	53	3
2023-09-09T00:00	24611	28	-55.7	-86.8	61	3
2023-09-09T00:00	24641	28	-55.5	-86.7	69	4
2023-09-09T00:00	24667	28	-55.2	-86.4	73	3
2023-09-09T00:00	24688	28	-54.7	-86.1	74	3
2023-09-09T00:00	24722	28	-54.5	-85.9	72	3
2023-09-09T00:00	24744	27	-54.6	-86.0	67	3
2023-09-09T00:00	24764	27	-54.7	-86.1	62	3
2023-09-09T00:00	24800	27	-54.6	-86.0	57	2
2023-09-09T00:00	24821	27	-54.6	-86.0	54	2
2023-09-09T00:00	24850	27	-54.6	-86.0	56	2
2023-09-09T00:00	24876	27	-54.7	-86.1	61	2
2023-09-09T00:00	24897	27	-54.8	-86.1	68	2
2023-09-09T00:00	24919	27	-54.7	-85.5	75	2
2023-09-09T00:00	24955	27	-54.8	-85.5	79	2
2023-09-09T00:00	24980	26	-54.9	-85.6	82	2
2023-09-09T00:00	25007	26	-55.0	-85.7	82	2
2023-09-09T00:00	25033	26	-55.1	-85.8	79	2
2023-09-09T00:00	25059	26	-55.1	-85.8	71	2
2023-09-09T00:00	25088	26	-54.9	-85.6	55	1
2023-09-09T00:00	25112	26	-54.9	-86.2	34	1
2023-09-09T00:00	25131	26	-54.8	-86.1	18	2
2023-09-09T00:00	25163	26	-54.7	-86.1	11	2
2023-09-09T00:00	25191	26	-54.5	-85.9	9	3
2023-09-09T00:00	25215	26	-54.6	-86.0	9	4
2023-09-09T00:00	25236	25	-54.6	-86.0	12	4
2023-09-09T00:00	25269	25	-54.5	-85.9	14	5
2023-09-09T00:00	25295	25	-54.3	-85.8	17	6
2023-09-09T00:00	25314	25	-54.4	-85.8	19	7
2023-09-09T00:00	25350	25	-54.4	-85.8	21	7
2023-09-09T00:00	25372	25	-54.3	-85.8	23	8
2023-09-09T00:00	25394	25	-54.2	-85.7	25	8
2023-09-09T00:00	25424	25	-54.0	-85.5	27	8
2023-09-09T00:00	25452	25	-54.0	-85.5	30	8
2023-09-09T00:00	25481	24	-53.7	-86.0	34	8
2023-09-09T00:00	25508	24	-53.7	-86.0	38	7
2023-09-09T00:00	25535	24	-53.6		42	7
2023-09-09T00:00	25553	24	-53.6		46	7
2023-09-09T00:00	25588	24	-53.6		51	6
2023-09-09T00:00	25614	24	-53.5	-85.9	55	6
2023-09-09T00:00	25642	24	-53.3	-85.7	60	6
2023-09-09T00:00	25669	24	-53.2	-85.6	65	6
2023-09-09T00:00	25695	24	-53.1	-85.6	72	6
2023-09-09T00:00	25724	24	-53.1	-85.6	79	5
2023-09-09T00:00	25753	23	-53.0	-85.5	86	5
2023-09-09T00:00	25770	23	-53.0	-84.8	93	5
2023-09-09T00:00	25800	23	-53.2	-85.0	99	4
2023-09-09T00:00	25833	23	-53.3	-85.0	103	4
2023-09-09T00:00	25856	23	-53.5	-85.2	104	3
2023-09-09T00:00	25887	23	-53.6	-85.3	99	3
2023-09-09T00:00	25914	23	-53.6	-85.3	84	2
2023-09-09T00:00	25940	23	-53.4	-85.1	55	2
2023-09-09T00:00	25972	23	-53.3	-85.0	29	2
2023-09-09T00:00	25996	23	-53.2	-85.6	17	2
2023-09-09T00:00	26027	23	-53.1	-85.6	13	3
2023-09-09T00:00	26051	22	-53.0	-85.5	14	3
2023-09-09T00:00	26079	22	-53.0	-85.5	16	4
2023-09-09T00:00	26103	22	-52.1	-85.6	19	4
2023-09-09T00:00	26132	22	-51.8	-85.4	23	5
2023-09-09T00:00	26149	22	-51.7	-85.3	26	5
2023-09-09T00:00	26179	22	-51.5	-85.2	29	4
2023-09-09T00:00	26208	22	-51.3	-85.0	32	4
2023-09-09T00:00	26242	22	-51.3	-85.0	35	4
2023-09-09T00:00	26260	22	-51.3	-85.0	38	5
2023-09-09T00:00	26291	22	-51.2	-85.0	41	5
2023-09-09T00:00	26311	22	-51.2	-85.0	43	6
2023-09-09T00:00	26345	21	-51.2	-84.2	46	6
2023-09-09T00:00	26378	21	-51.2	-84.2	47	7
2023-09-09T00:00	26399	21	-51.4	-84.3	48	7
2023-09-09T00:00	26423	21	-51.5	-84.4	49	7
2023-09-09T00:00	26449	21	-51.6	-84.5	50	7
2023-09-09T00:00	26483	21	-51.5	-84.4	53	7
2023-09-09T00:00	26510	21	-51.5	-84.4	57	6
2023-09-09T00:00	26527	21	-51.4	-84.3	61	6
2023-09-09T00:00	26550	21	-51.4	-84.3	66	5
2023-09-09T00:00	26581	21	-51.4	-84.3	71	5
2023-09-09T00:00	26613	21	-51.3	-84.3	77	4
2023-09-09T00:00	26635	20	-51.3	-84.3	83	4
2023-09-09T00:00	26655	20	-51.3	-85.0	88	4
2023-09-09T00:00	26691	20	-51.3	-84.3	93	3
2023-09-09T00:00	26714	20	-51.3	-84.3	95	3
2023-09-09T00:00	26738	20	-51.2	-84.2	95	3
2023-09-09T00:00	26771	20	-51.2	-84.2	95	3
2023-09-09T00:00	26797	20	-51.2	-85.0	95	3
2023-09-09T00:00	26828	20	-51.1	-84.9	94	3
2023-09-09T00:00	26851	20	-51.1	-84.9	93	2
2023-09-09T00:00	26877	20	-51.2	-84.2	91	2
2023-09-09T00:00	26914	20	-51.2	-84.2	87	2
2023-09-09T00:00	26930	20	-51.3	-84.3	79	2
2023-09-09T00:00	26959	19	-51.3	-84.3	67	2
2023-09-09T00:00	26985	19	-51.4	-84.3	50	2
2023-09-09T00:00	27022	19	-51.4	-84.3	36	2
2023-09-09T00:00	27046	19	-51.4	-84.3	27	3
2023-09-09T00:00	27068	19	-51.3	-85.0	21	3
2023-09-09T00:00	27097	19	-51.1	-84.9	18	3
2023-09-09T00:00	27129	19	-51.0	-84.8	16	3
2023-09-09T00:00	27160	19	-50.8	-84.7	13	3
2023-09-09T00:00	27184	19	-50.9	-84.7	9	3
2023-09-09T00:00	27210	19	-51.0	-84.8	3	2
2023-09-09T00:00	27237	19	-51.1	-84.9	354	2
2023-09-09T00:00	27265	19	-51.1	-84.9	338	2
2023-09-09T00:00	27287	19	-50.9	-84.7	316	1
2023-09-09T00:00	27307	18	-50.7	-84.6	290	2
2023-09-09T00:00	27346	18	-50.7	-84.6	271	2
2023-09-09T00:00	27376	18	-50.6	-84.5	261	2
2023-09-09T00:00	27406	18	-50.7	-84.6	256	3
2023-09-09T00:00	27423	18	-50.8	-84.7	255	3
2023-09-09T00:00	27455	18	-51.0	-84.0	257	3
2023-09-09T00:00	27485	18	-51.0	-84.0	261	2
2023-09-09T00:00	27513	18	-51.2	-84.2	268	2
2023-09-09T00:00	27541	18	-51.2	-84.2	281	1
2023-09-09T00:00	27575	18	-51.2	-84.2	308	1
2023-09-09T00:00	27602	18	-51.2	-84.2	356	1
2023-09-09T00:00	27632	18	-51.2	-84.2	24	1
2023-09-09T00:00	27655	18	-51.2	-85.0	34	1
2023-09-09T00:00	27677	17	-51.0	-84.8	37	1
2023-09-09T00:00	27704	17	-50.9	-84.7	36	1
2023-09-09T00:00	27731	17	-50.6	-84.5	26	1
2023-09-09T00:00	27759	17	-50.5	-84.5	317	0
2023-09-09T00:00	27789	17	-50.5	-84.5	258	1
2023-09-09T00:00	27817	17	-50.4	-84.4	249	2
2023-09-09T00:00	27843	17	-50.0	-84.1	246	3
2023-09-09T00:00	27870	17	-49.9	-84.0	246	4
2023-09-09T00:00	27900	17	-49.9	-84.0	246	5
2023-09-09T00:00	27928	17	-50.0	-84.1	246	6
2023-09-09T00:00	27954	17	-50.1	-84.2	247	6
2023-09-09T00:00	27990	17	-50.1	-84.2	248	7
2023-09-09T00:00	28016	17	-50.0	-84.1	248	6
2023-09-09T00:00	28037	17	-49.8	-84.0	249	6
2023-09-09T00:00	28063	16	-49.2	-84.4	250	5
2023-09-09T00:00	28099	16	-49.1	-84.3	252	4
2023-09-09T00:00	28122	16	-49.1	-84.3	256	4
2023-09-09T00:00	28159	16	-49.1	-84.3	262	3
2023-09-09T00:00	28179	16	-49.2	-84.4	268	3
2023-09-09T00:00	28209	16	-49.3	-84.5	274	2
2023-09-09T00:00	28242	16	-49.0	-84.3	278	2
2023-09-09T00:00	28262	16	-48.6		279	2
2023-09-09T00:00	28301	16	-48.7	-84.1	275	1
2023-09-09T00:00	28321	16	-48.8	-84.1	267	1
2023-09-09T00:00	28340	16	-48.9	-83.3	252	1
2023-09-09T00:00	28371	16	-49.1	-83.4	229	1
2023-09-09T00:00	28397	16	-49.3	-83.6	211	1
2023-09-09T00:00	28427	16	-49.4	-83.7	204	2
2023-09-09T00:00	28462	15	-49.5	-83.7	204	2
2023-09-09T00:00	28480	15	-49.5	-83.7	209	3
2023-09-09T00:00	28515	15	-49.4	-83.7	216	4
2023-09-09T00:00	28535	15	-49.0	-84.3	224	4
2023-09-09T00:00	28570	15	-48.9	-84.2	232	5
2023-09-09T00:00	28598	15	-49.1	-84.3	238	6
2023-09-09T00:00	28618	15	-49.3	-84.5	242	6
2023-09-09T00:00	28649	15	-49.2	-84.4	246	7
2023-09-09T00:00	28683	15	-49.0	-84.3	248	7
2023-09-09T00:00	28708	15	-49.0	-84.3	250	7
2023-09-09T00:00	28742	15	-48.7	-84.1	251	6
2023-09-09T00:00	28767	15	-48.5	-83.9	251	6
2023-09-09T00:00	28795	15	-48.3	-83.8	251	7
2023-09-09T00:00	28821	15	-48.3	-83.8	252	7
2023-09-09T00:00	28844	15	-48.0	-83.6	253	7
2023-09-09T00:00	28869	15	-47.7	-83.4	256	7
2023-09-09T00:00	28911	14	-47.5	-83.2	258	7
2023-09-09T00:00	28937	14	-47.4	-83.1	261	7
2023-09-09T00:00	28963	14	-47.3	-83.1	264	8
2023-09-09T00:00	28979	14	-47.0	-82.9	267	8
2023-09-09T00:00	29025	14	-47.1	-82.9	269	8
2023-09-09T00:00	29045	14	-47.1	-82.9	270	8
2023-09-09T00:00	29082	14	-47.0	-82.9	270	8
2023-09-09T00:00	29101	14	-46.9	-82.8	271	8
2023-09-09T00:00	29139	14	-47.0	-82.9	270	8
2023-09-09T00:00	29158	14	-47.0	-82.9	270	7
2023-09-09T00:00	29183	14	-47.1	-82.9	269	7
2023-09-09T00:00	29225	14	-47.2	-83.0	268	7
2023-09-09T00:00	29247	14	-47.3	-83.1	268	7
2023-09-09T00:00	29277	14	-47.2	-83.0	268	7
2023-09-09T00:00	29303	14	-47.2	-83.0	268	8
2023-09-09T00:00	29336	14	-46.9	-82.8	269	8
2023-09-09T00:00	29368	14	-46.8	-82.7	270	8
2023-09-09T00:00	29383	13	-46.7	-83.7	272	8
2023-09-09T00:00	29415	13	-46.5	-83.6	274	8
2023-09-09T00:00	29447	13	-46.4	-83.5	276	8
2023-09-09T00:00	29468	13	-46.6	-83.6	279	7
2023-09-09T00:00	29515	13	-46.5	-83.6	282	7
2023-09-09T00:00	29538	13	-46.4	-83.5	286	7
2023-09-09T00:00	29556	13	-46.3	-83.4	290	6
2023-09-09T00:00	29610	13	-46.3	-83.4	294	6
2023-09-09T00:00	29628	13	-46.3	-83.4	298	6
2023-09-09T00:00	29640	13	-46.4	-83.5	301	6
2023-09-09T00:00	29678	13	-46.5	-83.6	302	6
2023-09-09T00:00	29714	13	-46.3	-83.4	300	6
2023-09-09T00:00	29730	13	-46.1	-83.3	295	6
2023-09-09T00:00	29753	13	-46.0	-83.2	289	6
2023-09-09T00:00	29798	13	-45.7	-83.0	281	7
2023-09-09T00:00	29823	13	-45.5	-82.9	274	7
2023-09-09T00:00	29851	13	-45.5	-82.9	268	7
2023-09-09T00:00	29868	13	-45.5	-82.9	263	8
2023-09-09T00:00	29890	12	-45.7	-83.0	259	8
2023-09-09T00:00	29926	12	-45.8	-83.1	255	9
2023-09-09T00:00	29958	12	-45.6	-82.9	253	9
2023-09-09T00:00	29978	12	-45.5	-82.9	252	8
2023-09-09T00:00	30006	12	-45.4	-82.8	252	8
2023-09-09T00:00	30046	12	-45.6	-82.9	253	7
2023-09-09T00:00	30058	12	-45.7	-83.0	256	7
2023-09-09T00:00	30090	12	-45.8	-83.1	258	7
2023-09-09T00:00	30126	12	-45.7	-83.0	259	7
2023-09-09T00:00	30147	12	-45.5	-82.9	259	7
2023-09-09T00:00	30186	12	-45.5	-82.9	256	7
2023-09-09T00:00	30199	12	-45.5	-82.9	253	8
2023-09-09T00:00	30228	12	-45.4	-82.8	250	8
2023-09-09T00:00	30260	12	-45.5	-82.9	248	9
2023-09-09T00:00	30288	12	-45.6	-82.9	247	9
2023-09-09T00:00	30326	12	-45.8	-83.1	248	9
2023-09-09T00:00	30347	12	-46.0	-83.2	249	9
2023-09-09T00:00	30381	12	-46.0	-83.2	252	9
2023-09-09T00:00	30394	12	-45.8	-83.1	255	9
2023-09-09T00:00	30418	12	-45.8	-83.1	259	9
2023-09-09T00:00	30453	11	-45.8	-83.1	264	9
2023-09-09T00:00	30490	11	-45.9	-83.2	268	10
2023-09-09T00:00	30515	11	-46.0	-83.2	272	10
2023-09-09T00:00	30541	11	-46.1	-83.3	275	10
2023-09-09T00:00	30569	11	-46.1	-83.3	276	10
2023-09-09T00:00	30590	11	-46.0	-83.2	276	10
2023-09-09T00:00	30630	11	-46.1	-83.3	275	10
2023-09-09T00:00	30657	11	-46.1	-83.3	275	9
2023-09-09T00:00	30675	11	-46.1	-83.3	274	9
2023-09-09T00:00	30714	11	-46.2	-83.4	273	9
2023-09-09T00:00	30737	11	-46.2	-83.4	273	9
2023-09-09T00:00	30750	11	-46.3	-83.4	272	8
2023-09-09T00:00	30783	11	-46.5	-83.6	272	8
2023-09-09T00:00	30815	11	-46.7	-83.7	271	8
2023-09-09T00:00	30851	11	-46.6	-82.6	270	8
2023-09-09T00:00	30864	11	-46.7	-82.6	268	7
2023-09-09T00:00	30896	11	-46.8	-83.8	265	7
2023-09-09T00:00	30917	11	-46.8	-83.8	263	7
2023-09-09T00:00	30937	11	-46.8	-83.8	262	6
2023-09-09T00:00	30973	11	-46.5	-83.6	263	6
2023-09-09T00:00	30984	11	-46.5	-83.6	265	6
2023-09-09T00:00	31012	11	-46.4	-83.5	267	6
2023-09-09T00:00	31047	11	-46.2	-83.4	270	6
2023-09-09T00:00	31092	10	-46.0	-83.2	272	6
2023-09-09T00:00	31103	10	-46.1	-83.3	274	6
2023-09-09T00:00	31123	10	-46.1	-83.3	277	7
2023-09-09T00:00	31152	10	-46.2	-83.4	280	7
2023-09-09T00:00	31187	10	-46.3	-83.4	284	8
2023-09-09T00:00	31207	10	-46.0	-83.2	286	8
2023-09-09T00:00	31240	10	-46.0	-83.2	288	9
2023-09-09T00:00	31277	10	-46.1	-83.3	288	9
2023-09-09T00:00	31290	10	-46.0	-83.2	287	9
2023-09-09T00:00	31312	10	-45.7	-83.0	286	8
2023-09-09T00:00	31354	10	-45.8	-83.1	284	8
2023-09-09T00:00	31378	10	-45.9	-83.2	281	8
2023-09-09T00:00	31421	10	-46.0	-83.2	280	8
2023-09-09T00:00	31430	10	-46.1	-83.3	279	8
2023-09-09T00:00	31469	10	-46.0	-83.2	280	8
2023-09-09T00:00	31495	10	-46.0	-83.2	282	9
2023-09-09T00:00	31506	10	-46.0	-83.2	284	10
2023-09-09T00:00	31551	10	-45.8	-83.1	287	10
2023-09-09T00:00	31598	10	-45.5	-82.9	292	11
2023-09-09T00:00	31624	10	-45.0	-82.5	295	12
2023-09-09T00:00	31638	10	-44.6	-82.2	299	12
2023-09-09T00:00	31684	10	-44.6	-82.2	302	12
2023-09-09T00:00	31713	10	-44.6	-82.2	305	12
2023-09-09T00:00	31742	9	-44.1	-81.9	309	12
2023-09-09T00:00	31766	9	-43.7	-81.6	312	11
2023-09-09T00:00	31797	9	-43.7	-81.6	315	10
2023-09-09T00:00	31826	9	-43.5	-81.5	318	10
2023-09-09T00:00	31846	9	-43.0	-81.1	321	9
2023-09-09T00:00	31878	9	-42.8	-81.0	324	8
2023-09-09T00:00	31900	9	-43.0	-81.1	326	8
2023-09-09T00:00	31940	9	-43.1	-81.2	327	7
2023-09-09T00:00	31954	9	-43.2	-81.3	326	6
2023-09-09T00:00	31992	9	-43.3	-81.3	325	5
2023-09-09T00:00	32014	9	-43.3	-81.3	320	4
2023-09-09T00:00	32059	9	-43.1	-81.2	312	4
2023-09-09T00:00	32080	9	-42.9	-81.1	303	3
2023-09-09T00:00	32093	9	-42.9	-81.1	294	3
2023-09-09T00:00	32121	9	-42.7	-80.9	289	4
2023-09-09T00:00	32167	9	-42.4	-80.7	285	4
2023-09-09T00:00	32187	9	-42.4	-80.7	281	4
2023-09-09T00:00	32194	9	-42.2	-80.6	278	5
2023-09-09T00:00	32241	9	-42.3	-80.6	275	6
2023-09-09T00:00	32268	9	-42.4	-80.7	274	6
2023-09-09T00:00	32290	9	-42.3	-80.6	274	7
2023-09-09T00:00	32321	9	-42.4	-80.7	275	7
2023-09-09T00:00	32343	9	-42.3	-80.6	278	8
2023-09-09T00:00	32360	9	-42.3	-80.6	280	8
2023-09-09T00:00	32387	9	-42.3	-80.6	281	9
2023-09-09T00:00	32403	9	-42.3	-80.6	282	10
2023-09-09T00:00	32453	9	-42.4	-80.7	282	10
2023-09-09T00:00	32477	8	-42.5	-80.8	283	10
2023-09-09T00:00	32501	8	-42.4	-80.7	283	11
2023-09-09T00:00	32506	8	-42.2	-80.6	284	11
2023-09-09T00:00	32572	8	-41.9	-80.4	284	11
2023-09-09T00:00	32577	8	-41.8	-80.3	284	10
2023-09-09T00:00	32606	8	-41.8	-80.3	281	10
2023-09-09T00:00	32621	8	-41.9	-80.4	278	10
2023-09-09T00:00	32651	8	-41.7	-80.2	274	10
2023-09-09T00:00	32672	8	-41.6	-80.1	269	9
2023-09-09T00:00	32699	8	-41.8	-80.3	266	9
2023-09-09T00:00	32722	8	-41.9	-80.4	262	9
2023-09-09T00:00	32741	8	-41.9	-80.4	259	9
2023-09-09T00:00	32768	8	-41.8	-80.3	257	8
2023-09-09T00:00	32807	8	-41.5	-80.1	254	8
2023-09-09T00:00	32833	8	-41.5	-80.1	252	7
2023-09-09T00:00	32860	8	-41.5	-80.1	251	7
2023-09-09T00:00	32897	8	-41.2	-79.9	250	7
2023-09-09T00:00	32933	8	-40.7	-79.5	248	7
2023-09-09T00:00	32936	8	-40.4	-79.3	245	7
2023-09-09T00:00	32965	8	-39.8	-78.9	240	7
2023-09-09T00:00	32980	8	-39.6	-78.8	235	8
2023-09-09T00:00	32983	8	-39.6	-78.8	231	9
2023-09-09T00:00	33017	8	-39.6	-78.8	228	10
2023-09-09T00:00	33082	8	-39.7	-78.8	225	11
2023-09-09T00:00	33083	8	-39.7	-78.8	223	12
2023-09-09T00:00	33123	8	-39.7	-78.8	221	13
2023-09-09T00:00	33181	8	-39.3	-78.5	221	13
2023-09-09T00:00	33199	8	-39.3	-78.5	222	13
2023-09-09T00:00	33218	8	-39.2	-78.5	224	13
2023-09-09T00:00	33277	8	-38.8	-78.2	229	12
2023-09-09T00:00	33297	8	-38.7	-78.1	232	12
2023-09-09T00:00	33330	8	-38.6	-78.1	235	12
2023-09-09T00:00	33352	7	-38.6	-78.1	239	12
2023-09-09T00:00	33361	7	-38.6	-78.1	242	12
2023-09-09T00:00	33400	7	-38.7	-78.1	246	12
2023-09-09T00:00	33417	7	-38.7	-78.1	251	11
2023-09-09T00:00	33462	7	-38.7	-78.1	255	11
2023-09-09T00:00	33471	7	-38.7	-78.1	260	11
2023-09-09T00:00	33504	7	-38.6	-78.1	263	11
2023-09-09T00:00	33527	7	-38.5	-78.0	266	11
2023-09-09T00:00	33560	7	-38.6	-78.1	269	11
2023-09-09T00:00	33594	7	-38.5	-78.0	271	10
2023-09-09T00:00	33604	7	-38.6	-78.1	272	10
2023-09-09T00:00	33641	7	-38.7	-78.1	274	10
2023-09-09T00:00	33648	7	-38.9	-78.3	275	9
2023-09-09T00:00	33695	7	-39.0	-78.3	275	9
2023-09-09T00:00	33706	7	-38.8	-78.2	275	9
2023-09-09T00:00	33736	7	-38.7	-78.1	274	9
2023-09-09T00:00	33785	7	-38.7	-78.1	274	9
2023-09-09T00:00	33788	7	-38.8	-78.2	273	10
2023-09-09T00:00	33842	7	-39.0	-78.3	273	10
2023-09-09T06:00	112	1006	16.9	13.0	120	3
2023-09-09T06:00	136	1003	18.3	12.9	149	3
2023-09-09T06:00	156	1001	18.8	12.5	156	5
2023-09-09T06:00	182	998	20.8	11.6	163	6
2023-09-09T06:00	199	996	21.0	11.4	168	6
2023-09-09T06:00	221	993	21.8	11.1	173	6
2023-09-09T06:00	245	991	22.2	11.1	175	5
2023-09-09T06:00	269	988	22.1	10.9	176	5
2023-09-09T06:00	292	985	22.2	10.6	175	4
2023-09-09T06:00	310	983	22.3	10.6	173	4
2023-09-09T06:00	327	981	22.3	10.4	172	4
2023-09-09T06:00	346	979	22.6	9.9	171	4
2023-09-09T06:00	369	976	22.9	9.5	171	4
2023-09-09T06:00	392	974	23.0	9.0	172	4
2023-09-09T06:00	412	972	23.3	9.1	174	5
2023-09-09T06:00	434	969	23.1	9.2	175	5
2023-09-09T06:00	454	967	23.0	9.3	175	5
2023-09-09T06:00	479	964	22.8	9.3	173	5
2023-09-09T06:00	504	961	22.5	9.4	171	5
2023-09-09T06:00	530	959	22.3	9.3	168	5
2023-09-09T06:00	551	956	22.1	9.4	166	5
2023-09-09T06:00	577	953	21.8	9.3	164	5
2023-09-09T06:00	602	951	21.6	9.3	163	5
2023-09-09T06:00	627	948	21.4	9.4	163	5
2023-09-09T06:00	654	945	21.1	9.2	163	5
2023-09-09T06:00	678	942	20.9	9.2	163	5
2023-09-09T06:00	705	939	20.6	9.3	163	5
2023-09-09T06:00	737	936	20.3	9.1	163	5
2023-09-09T06:00	762	933	20.1	9.1	163	5
2023-09-09T06:00	786	931	19.8	9.2	164	6
2023-09-09T06:00	816	927	19.6	9.1	164	6
2023-09-09T06:00	844	925	19.3	8.9	165	6
2023-09-09T06:00	866	922	19.1	9.1	165	6
2023-09-09T06:00	898	919	18.7	8.9	163	6
2023-09-09T06:00	923	916	18.5	8.9	160	6
2023-09-09T06:00	947	913	18.3	8.9	156	6
2023-09-09T06:00	971	911	18.1	8.9	152	6
2023-09-09T06:00	994	908	17.8	8.8	151	6
2023-09-09T06:00	1025	905	17.5	8.7	153	6
2023-09-09T06:00	1048	903	17.3	8.7	156	6
2023-09-09T06:00	1073	900	17.0	8.6	161	5
2023-09-09T06:00	1104	897	16.8	8.6	165	5
2023-09-09T06:00	1135	894	16.5	8.6	168	5
2023-09-09T06:00	1163	891	16.2	8.5	169	5
2023-09-09T06:00	1184	888	16.0	8.5	169	6
2023-09-09T06:00	1212	885	15.7	8.3	168	6
2023-09-09T06:00	1236	883	15.5	8.4	168	6
2023-09-09T06:00	1262	880	15.2	8.3	168	6
2023-09-09T06:00	1292	877	14.9	8.0	169	6
2023-09-09T06:00	1316	875	15.8	0.8	170	6
2023-09-09T06:00	1338	872	16.2	-2.5	169	6
2023-09-09T06:00	1363	870	16.4	-4.2	166	5
2023-09-09T06:00	1391	867	16.4	-4.9	162	5
2023-09-09T06:00	1411	865	16.5	-5.1	158	5
2023-09-09T06:00	1435	862	16.5	-6.0	156	5
2023-09-09T06:00	1459	860	16.6	-8.3	158	5
2023-09-09T06:00	1479	858	16.7	-9.5	161	5
2023-09-09T06:00	1503	856	16.9	-11.1	163	5
2023-09-09T06:00	1530	853	17.3	-15.8	164	5
2023-09-09T06:00	1550	851	17.6	-16.1	164	6
2023-09-09T06:00	1580	848	17.6	-16.0	164	6
2023-09-09T06:00	1599	846	17.5	-15.9	164	6
2023-09-09T06:00	1625	844	17.5	-16.3	166	6
2023-09-09T06:00	1645	841	17.5	-16.8	167	6
2023-09-09T06:00	1667	839	17.5	-17.7	169	6
2023-09-09T06:00	1699	836	17.3	-17.4	172	6
2023-09-09T06:00	1727	833	17.2	-17.5	174	6
2023-09-09T06:00	1756	831	17.1	-17.2	175	5
2023-09-09T06:00	1777	828	17.0	-17.4	175	5
2023-09-09T06:00	1797	826	17.0	-18.6	172	5
2023-09-09T06:00	1820	824	17.0	-19.1	169	5
2023-09-09T06:00	1840	822	16.9	-19.4	165	5
2023-09-09T06:00	1866	820	16.8	-19.6	162	5
2023-09-09T06:00	1888	818	16.7	-19.7	161	5
2023-09-09T06:00	1910	815	16.7	-20.5	162	4
2023-09-09T06:00	1941	813	16.5	-20.0	164	4
2023-09-09T06:00	1966	810	16.5	-21.0	167	4
2023-09-09T06:00	1993	808	16.4	-21.9	169	4
2023-09-09T06:00	2014	806	16.7	-22.9	168	4
2023-09-09T06:00	2040	803	16.6	-22.7	167	4
2023-09-09T06:00	2061	801	16.5	-22.5	164	4
2023-09-09T06:00	2087	799	16.4	-22.8	162	3
2023-09-09T06:00	2109	797	16.3	-23.9	163	3
2023-09-09T06:00	2133	795	16.3	-24.5	167	3
2023-09-09T06:00	2151	792	16.3	-25.0	171	4
2023-09-09T06:00	2182	790	16.2	-24.0	176	4
2023-09-09T06:00	2202	788	16.2	-24.5	179	5
2023-09-09T06:00	2222	786	16.1	-25.2	182	5
2023-09-09T06:00	2245	784	16.1	-25.5	183	5
2023-09-09T06:00	2263	782	16.0	-25.5	182	4
2023-09-09T06:00	2287	780	15.9	-25.3	175	3
2023-09-09T06:00	2311	778	15.8	-25.7	159	3
2023-09-09T06:00	2331	776	15.7	-26.3	137	2
2023-09-09T06:00	2354	774	15.7	-27.0	120	2
2023-09-09T06:00	2377	772	15.6	-27.4	110	2
2023-09-09T06:00	2399	770	15.6	-28.5	106	2
2023-09-09T06:00	2425	768	15.6	-28.9	105	2
2023-09-09T06:00	2448	765	15.5	-26.8	106	2
2023-09-09T06:00	2478	763	15.2	-24.9	107	2
2023-09-09T06:00	2502	761	15.1	-24.2	107	3
2023-09-09T06:00	2524	758	14.9	-22.7	107	3
2023-09-09T06:00	2549	756	14.8	-23.4	108	4
2023-09-09T06:00	2572	754	14.7	-23.5	112	4
2023-09-09T06:00	2600	752	14.6	-23.8	118	4
2023-09-09T06:00	2625	750	14.5	-23.2	125	4
2023-09-09T06:00	2644	748	14.3	-22.7	131	4
2023-09-09T06:00	2668	746	14.2	-22.7	135	5
2023-09-09T06:00	2694	744	14.0	-22.6	136	4
2023-09-09T06:00	2715	741	14.0	-22.6	134	4
2023-09-09T06:00	2744	739	13.8	-23.4	129	4
2023-09-09T06:00	2770	737	13.7	-23.3	122	4
2023-09-09T06:00	2791	735	13.5	-23.4	114	4
2023-09-09T06:00	2818	733	13.4	-23.7	108	4
2023-09-09T06:00	2838	731	13.2	-23.6	105	4
2023-09-09T06:00	2860	729	13.0	-23.7	105	4
2023-09-09T06:00	2886	727	12.9	-23.4	106	5
2023-09-09T06:00	2912	724	12.8	-23.6	109	5
2023-09-09T06:00	2933	723	12.6	-24.0	113	5
2023-09-09T06:00	2957	720	12.4	-23.9	120	4
2023-09-09T06:00	2986	718	12.1	-24.7	128	4
2023-09-09T06:00	3009	716	12.0	-26.7	136	4
2023-09-09T06:00	3028	714	12.0	-26.5	141	3
2023-09-09T06:00	3051	712	11.9	-27.6	139	3
2023-09-09T06:00	3078	710	11.8	-30.2	131	3
2023-09-09T06:00	3097	708	11.8	-31.7	121	3
2023-09-09T06:00	3122	706	11.7	-31.0	116	4
2023-09-09T06:00	3149	704	11.5	-19.9	115	4
2023-09-09T06:00	3173	702	11.3	-17.5	119	4
2023-09-09T06:00	3197	700	11.0	-16.2	125	4
2023-09-09T06:00	3220	698	10.8	-16.3	131	4
2023-09-09T06:00	3242	696	10.7	-18.3	136	4
2023-09-09T06:00	3263	694	10.5	-18.6	138	4
2023-09-09T06:00	3292	692	10.2	-17.7	137	4
2023-09-09T06:00	3316	690	10.0	-17.7	135	4
2023-09-09T06:00	3347	688	9.8	-17.2	132	4
2023-09-09T06:00	3374	685	9.5	-17.4	128	3
2023-09-09T06:00	3401	683	9.3	-16.8	124	3
2023-09-09T06:00	3428	681	9.0	-17.1	124	3
2023-09-09T06:00	3458	679	8.7	-17.0	126	3
2023-09-09T06:00	3479	677	8.6	-16.9	130	3
2023-09-09T06:00	3500	675	8.3	-17.1	133	3
2023-09-09T06:00	3527	673	8.1	-17.9	135	3
2023-09-09T06:00	3556	670	7.8	-17.9	136	3
2023-09-09T06:00	3582	668	7.6	-18.5	136	3
2023-09-09T06:00	3611	666	7.4	-17.7	138	4
2023-09-09T06:00	3640	664	7.1	-17.3	139	4
2023-09-09T06:00	3666	661	6.8	-17.2	142	4
2023-09-09T06:00	3689	659	6.6	-17.5	144	3
2023-09-09T06:00	3723	657	6.3	-17.8	147	3
2023-09-09T06:00	3747	655	6.2	-18.2	150	3
2023-09-09T06:00	3767	653	6.0	-18.2	154	3
2023-09-09T06:00	3794	651	5.7	-18.2	157	3
2023-09-09T06:00	3819	649	5.6	-20.9	158	3
2023-09-09T06:00	3840	647	5.4	-16.1	158	3
2023-09-09T06:00	3864	646	5.1	-15.0	158	3
2023-09-09T06:00	3884	644	4.9	-15.1	157	3
2023-09-09T06:00	3903	642	4.7	-15.0	156	3
2023-09-09T06:00	3929	640	4.5	-15.4	155	3
2023-09-09T06:00	3958	638	4.3	-16.1	155	3
2023-09-09T06:00	3985	636	4.0	-16.7	157	3
2023-09-09T06:00	4005	634	3.9	-16.6	160	3
2023-09-09T06:00	4033	632	3.6	-16.6	161	3
2023-09-09T06:00	4057	630	3.3	-16.7	159	4
2023-09-09T06:00	4076	629	3.2	-16.7	157	4
2023-09-09T06:00	4101	627	2.9	-16.7	155	4
2023-09-09T06:00	4124	625	2.7	-16.7	154	4
2023-09-09T06:00	4155	623	2.4	-16.7	154	4
2023-09-09T06:00	4179	621	2.2	-16.7	155	4
2023-09-09T06:00	4202	619	1.9	-16.8	155	4
2023-09-09T06:00	4231	617	1.7	-16.9	155	4
2023-09-09T06:00	4258	615	1.4	-17.3	150	3
2023-09-09T06:00	4277	613	1.3	-17.3	142	3
2023-09-09T06:00	4298	612	1.2	-17.4	131	3
2023-09-09T06:00	4327	610	1.1	-18.6	122	3
2023-09-09T06:00	4352	608	1.2	-19.3	117	4
2023-09-09T06:00	4369	606	1.1	-18.5	116	4
2023-09-09T06:00	4390	605	0.9	-18.0	116	4
2023-09-09T06:00	4416	603	0.7	-18.1	116	4
2023-09-09T06:00	4440	601	0.4	-18.1	115	3
2023-09-09T06:00	4473	599	0.1	-17.6	112	3
2023-09-09T06:00	4506	596	-0.2	-17.7	108	3
2023-09-09T06:00	4525	595	-0.4	-17.4	104	3
2023-09-09T06:00	4546	593	-0.6	-17.3	101	3
2023-09-09T06:00	4568	592	-0.8	-17.3	99	3
2023-09-09T06:00	4596	590	-0.9	-17.5	96	2
2023-09-09T06:00	4615	588	-1.1	-17.4	93	2
2023-09-09T06:00	4632	587	-1.2	-17.4	90	3
2023-09-09T06:00	4659	585	-1.3	-18.6	87	3
2023-09-09T06:00	4686	583	-1.5	-19.8	84	3
2023-09-09T06:00	4718	581	-1.7	-19.0	83	3
2023-09-09T06:00	4746	579	-1.9	-19.0	83	4
2023-09-09T06:00	4767	577	-2.0	-19.8	84	4
2023-09-09T06:00	4791	575	-2.2	-20.6	86	4
2023-09-09T06:00	4821	573	-2.4	-20.7	88	4
2023-09-09T06:00	4852	571	-2.7	-20.5	89	4
2023-09-09T06:00	4870	570	-2.9	-20.4	90	4
2023-09-09T06:00	4891	568	-3.1	-20.2	91	4
2023-09-09T06:00	4917	566	-3.3	-20.1	93	4
2023-09-09T06:00	4947	564	-3.6	-19.9	96	4
2023-09-09T06:00	4976	562	-3.8	-20.0	100	4
2023-09-09T06:00	4999	560	-4.0	-20.3	103	4
2023-09-09T06:00	5019	559	-4.1	-20.3	105	4
2023-09-09T06:00	5037	558	-4.3	-20.2	108	3
2023-09-09T06:00	5060	556	-4.2	-22.9	111	3
2023-09-09T06:00	5080	555	-4.1	-26.7	115	3
2023-09-09T06:00	5105	553	-4.1	-26.9	117	3
2023-09-09T06:00	5137	551	-4.3	-26.2	116	3
2023-09-09T06:00	5159	549	-4.4	-25.5	113	3
2023-09-09T06:00	5186	547	-4.7	-25.2	108	4
2023-09-09T06:00	5206	546	-4.8	-24.9	103	4
2023-09-09T06:00	5230	544	-5.0	-24.8	100	4
2023-09-09T06:00	5256	542	-5.3	-24.3	99	4
2023-09-09T06:00	5284	541	-5.5		101	4
2023-09-09T06:00	5302	539	-5.6	-24.3	105	4
2023-09-09T06:00	5323	538	-5.8	-24.3	112	3
2023-09-09T06:00	5343	536	-5.9	-24.4	121	3
2023-09-09T06:00	5372	534	-6.2	-24.9	128	2
2023-09-09T06:00	5399	532	-6.3	-25.1	132	2
2023-09-09T06:00	5429	531	-6.6	-25.4	126	2
2023-09-09T06:00	5450	529	-6.7	-25.8	112	2
2023-09-09T06:00	5468	528	-6.8	-25.8	97	2
2023-09-09T06:00	5489	526	-7.0	-24.9	85	2
2023-09-09T06:00	5509	525	-7.1	-25.4	76	2
2023-09-09T06:00	5537	523	-7.2	-26.6	68	2
2023-09-09T06:00	5559	522	-7.3	-27.4	58	2
2023-09-09T06:00	5587	520	-7.5	-27.4	46	2
2023-09-09T06:00	5620	518	-7.7	-28.3	32	2
2023-09-09T06:00	5644	516	-7.8	-28.9	21	2
2023-09-09T06:00	5677	514	-8.0	-28.1	16	3
2023-09-09T06:00	5699	512	-8.2	-27.6	14	3
2023-09-09T06:00	5717	511	-8.2	-29.0	13	3
2023-09-09T06:00	5742	509	-8.4	-29.5	12	3
2023-09-09T06:00	5776	507	-8.6	-28.6	11	3
2023-09-09T06:00	5811	505	-8.9	-27.4	9	3
2023-09-09T06:00	5833	504	-9.1	-27.6	6	3
2023-09-09T06:00	5856	502	-9.3	-27.9	4	3
2023-09-09T06:00	5878	501	-9.4	-27.9	2	2
2023-09-09T06:00	5900	499	-9.6	-28.0	3	2
2023-09-09T06:00	5927	498	-9.8	-28.3	6	2
2023-09-09T06:00	5955	496	-10.0	-29.1	12	2
2023-09-09T06:00	5988	494	-10.2	-31.9	14	2
2023-09-09T06:00	6012	492	-10.3	-32.0	12	2
2023-09-09T06:00	6032	491	-10.5	-31.9	9	2
2023-09-09T06:00	6056	489	-10.7	-31.8	6	3
2023-09-09T06:00	6082	488	-10.8	-31.8	4	3
2023-09-09T06:00	6116	486	-11.0	-33.7	3	3
2023-09-09T06:00	6143	484	-11.1	-34.2	360	3
2023-09-09T06:00	6166	482	-11.2	-35.8	354	4
2023-09-09T06:00	6188	481	-11.4	-35.7	345	4
2023-09-09T06:00	6212	479	-11.6	-36.0	334	4
2023-09-09T06:00	6239	478	-11.7	-36.2	325	4
2023-09-09T06:00	6265	476	-12.0	-36.3	317	4
2023-09-09T06:00	6302	474	-12.2	-36.3	312	4
2023-09-09T06:00	6320	473	-12.3	-36.2	309	4
2023-09-09T06:00	6339	472	-12.4	-36.2	307	4
2023-09-09T06:00	6360	470	-12.5	-36.2	305	4
2023-09-09T06:00	6380	469	-12.7	-36.2	303	4
2023-09-09T06:00	6405	467	-12.8	-36.0	301	4
2023-09-09T06:00	6432	466	-13.0	-35.4	299	4
2023-09-09T06:00	6458	464	-13.2	-34.9	297	3
2023-09-09T06:00	6486	463	-13.5	-34.5	296	3
2023-09-09T06:00	6513	461	-13.7	-34.4	295	3
2023-09-09T06:00	6545	459	-14.0	-34.4	294	3
2023-09-09T06:00	6576	457	-14.3	-34.3	290	3
2023-09-09T06:00	6603	455	-14.6	-34.2	286	3
2023-09-09T06:00	6633	454	-14.8	-33.7	283	3
2023-09-09T06:00	6661	452	-15.1	-33.0	283	3
2023-09-09T06:00	6688	450	-15.3	-32.9	286	3
2023-09-09T06:00	6715	449	-15.5	-33.1	290	4
2023-09-09T06:00	6744	447	-15.7	-33.6	295	4
2023-09-09T06:00	6774	445	-15.9	-34.2	298	4
2023-09-09T06:00	6805	443	-16.2	-34.8	299	4
2023-09-09T06:00	6840	441	-16.4	-35.2	300	4
2023-09-09T06:00	6867	440	-16.6	-35.5	300	3
2023-09-09T06:00	6900	438	-16.9	-35.7	299	3
2023-09-09T06:00	6923	436	-17.1	-35.7	298	3
2023-09-09T06:00	6951	435	-17.3	-35.8	295	3
2023-09-09T06:00	6983	433	-17.6	-36.0	290	3
2023-09-09T06:00	7016	431	-17.8	-36.4	286	3
2023-09-09T06:00	7045	429	-18.0	-36.8	284	3
2023-09-09T06:00	7073	428	-18.2	-36.7	284	3
2023-09-09T06:00	7098	426	-18.5	-36.9	285	3
2023-09-09T06:00	7125	425	-18.7	-37.1	288	3
2023-09-09T06:00	7150	423	-18.9	-37.2	290	3
2023-09-09T06:00	7180	422	-19.0	-37.5	290	3
2023-09-09T06:00	7208	420	-19.3	-37.8	288	3
2023-09-09T06:00	7237	418	-19.3	-38.7	287	4
2023-09-09T06:00	7269	417	-19.5	-39.0	286	4
2023-09-09T06:00	7299	415	-19.7	-39.6	288	4
2023-09-09T06:00	7329	413	-19.8	-40.4	291	5
2023-09-09T06:00	7355	412	-20.0	-40.7	296	5
2023-09-09T06:00	7386	410	-20.1	-42.0	300	5
2023-09-09T06:00	7412	409	-20.3	-42.2	302	5
2023-09-09T06:00	7435	408	-20.5	-42.2	302	5
2023-09-09T06:00	7457	406	-20.6	-42.2	301	6
2023-09-09T06:00	7486	405	-20.9	-42.5	300	6
2023-09-09T06:00	7514	403	-20.9	-43.0	300	7
2023-09-09T06:00	7545	401	-21.1	-42.9	302	7
2023-09-09T06:00	7571	400	-21.2	-43.1	303	7
2023-09-09T06:00	7597	399	-21.4	-43.3	306	7
2023-09-09T06:00	7626	397	-21.6	-43.5	309	6
2023-09-09T06:00	7655	396	-21.8	-43.9	312	6
2023-09-09T06:00	7684	394	-21.9	-44.1	313	5
2023-09-09T06:00	7712	392	-22.1	-44.1	313	5
2023-09-09T06:00	7740	391	-22.3	-43.8	311	4
2023-09-09T06:00	7769	389	-22.6	-43.6	308	4
2023-09-09T06:00	7795	388	-22.8	-43.4	307	4
2023-09-09T06:00	7820	387	-23.1		307	5
2023-09-09T06:00	7844	385	-23.3	-42.6	309	5
2023-09-09T06:00	7871	384	-23.5	-40.3	310	5
2023-09-09T06:00	7900	382	-23.8	-39.3	310	5
2023-09-09T06:00	7933	381	-24.0	-39.3	309	6
2023-09-09T06:00	7958	379	-24.2	-39.3	309	6
2023-09-09T06:00	7983	378	-24.4	-39.3	308	6
2023-09-09T06:00	8008	377	-24.6	-39.3	309	6
2023-09-09T06:00	8036	375	-24.9	-40.0	310	7
2023-09-09T06:00	8063	374	-25.0	-42.4	312	7
2023-09-09T06:00	8090	373	-25.0	-45.8	314	7
2023-09-09T06:00	8110	372	-25.0	-46.2	316	7
2023-09-09T06:00	8136	370	-25.1	-47.2	317	7
2023-09-09T06:00	8159	369	-25.1	-47.6	318	7
2023-09-09T06:00	8181	368	-25.3	-47.3	319	7
2023-09-09T06:00	8211	367	-25.5	-46.3	320	7
2023-09-09T06:00	8240	365	-25.8	-46.8	321	7
2023-09-09T06:00	8266	364	-26.0	-46.9	322	7
2023-09-09T06:00	8290	363	-26.2	-46.6	323	7
2023-09-09T06:00	8315	361	-26.4	-46.6	323	7
2023-09-09T06:00	8342	360	-26.6	-46.5	322	7
2023-09-09T06:00	8370	359	-26.9	-46.5	321	7
2023-09-09T06:00	8396	357	-27.1	-46.1	321	7
2023-09-09T06:00	8418	356	-27.2	-46.1	320	7
2023-09-09T06:00	8446	355	-27.5	-46.5	320	7
2023-09-09T06:00	8473	353	-27.7	-47.2	320	7
2023-09-09T06:00	8501	352	-27.8	-48.0	320	7
2023-09-09T06:00	8529	351	-28.0	-47.9	321	7
2023-09-09T06:00	8560	349	-28.3	-47.9	323	7
2023-09-09T06:00	8588	348	-28.5	-48.0	324	8
2023-09-09T06:00	8616	346	-28.7	-47.6	325	8
2023-09-09T06:00	8644	345	-28.9	-47.5	325	8
2023-09-09T06:00	8677	344	-29.2	-47.5	325	8
2023-09-09T06:00	8698	343	-29.4	-47.7	325	9
2023-09-09T06:00	8718	342	-29.6	-47.6	325	9
2023-09-09T06:00	8739	341	-29.8	-47.7	325	9
2023-09-09T06:00	8758	340	-30.0	-47.7	325	9
2023-09-09T06:00	8780	339	-30.1	-47.6	324	10
2023-09-09T06:00	8805	337	-30.3	-47.3	323	9
2023-09-09T06:00	8833	336	-30.5	-47.4	322	9
2023-09-09T06:00	8860	335	-30.7	-47.6	321	10
2023-09-09T06:00	8883	334	-30.9	-47.7	321	10
2023-09-09T06:00	8914	332	-31.2	-47.7	321	10
2023-09-09T06:00	8944	331	-31.4	-47.8	321	10
2023-09-09T06:00	8970	330	-31.7	-48.0	323	10
2023-09-09T06:00	8999	328	-31.8	-48.2	325	10
2023-09-09T06:00	9024	327	-32.0	-48.8	328	10
2023-09-09T06:00	9053	326	-32.2	-49.6	331	10
2023-09-09T06:00	9079	325	-32.4	-50.0	333	9
2023-09-09T06:00	9104	324	-32.6	-50.2	333	9
2023-09-09T06:00	9130	322	-32.8	-50.2	333	9
2023-09-09T06:00	9158	321	-33.0	-49.8	332	9
2023-09-09T06:00	9188	320	-33.3	-49.3	332	9
2023-09-09T06:00	9209	319	-33.4	-48.9	332	9
2023-09-09T06:00	9230	318	-33.6	-48.5	333	9
2023-09-09T06:00	9251	317	-33.8	-48.0	333	9
2023-09-09T06:00	9271	316	-33.9	-48.0	334	9
2023-09-09T06:00	9290	315	-34.1	-48.3	334	8
2023-09-09T06:00	9311	314	-34.3	-48.4	333	8
2023-09-09T06:00	9334	313	-34.4	-48.8	333	8
2023-09-09T06:00	9353	312	-34.5	-49.2	333	8
2023-09-09T06:00	9375	311	-34.7	-49.6	333	8
2023-09-09T06:00	9404	310	-34.9	-49.7	334	7
2023-09-09T06:00	9426	309	-35.0	-49.9	334	7
2023-09-09T06:00	9448	308	-35.2	-50.2	335	7
2023-09-09T06:00	9470	307	-35.3	-51.0	335	7
2023-09-09T06:00	9492	306	-35.5	-51.3	335	7
2023-09-09T06:00	9512	305	-35.6	-51.2	334	6
2023-09-09T06:00	9533	304	-35.8	-50.9	333	6
2023-09-09T06:00	9552	303	-35.9	-50.8	332	6
2023-09-09T06:00	9573	302	-36.1	-50.9	331	6
2023-09-09T06:00	9594	302	-36.2	-50.9	330	7
2023-09-09T06:00	9612	301	-36.4	-51.0	330	7
2023-09-09T06:00	9634	300	-36.6	-50.8	330	7
2023-09-09T06:00	9655	299	-36.7	-50.5	330	7
2023-09-09T06:00	9676	298	-36.8	-50.6	330	7
2023-09-09T06:00	9696	297	-37.0	-50.5	331	8
2023-09-09T06:00	9718	296	-37.1	-51.2	332	8
2023-09-09T06:00	9740	295	-37.3	-51.1	333	8
2023-09-09T06:00	9763	294	-37.5	-50.9	334	8
2023-09-09T06:00	9785	293	-37.7	-50.8	335	8
2023-09-09T06:00	9809	292	-37.9	-51.0	336	8
2023-09-09T06:00	9829	291	-38.1	-51.4	337	8
2023-09-09T06:00	9850	291	-38.2	-51.3	337	8
2023-09-09T06:00	9869	290	-38.4	-51.2	337	8
2023-09-09T06:00	9889	289	-38.6	-50.9	337	8
2023-09-09T06:00	9909	288	-38.8	-50.8	337	8
2023-09-09T06:00	9929	287	-39.0	-50.9	336	8
2023-09-09T06:00	9946	287	-39.1	-51.0	336	8
2023-09-09T06:00	9967	286	-39.2	-51.4	335	8
2023-09-09T06:00	9985	285	-39.4	-51.6	334	8
2023-09-09T06:00	10007	284	-39.6	-51.6	333	8
2023-09-09T06:00	10027	283	-39.8	-51.8	333	8
2023-09-09T06:00	10047	282	-39.9	-51.7	333	8
2023-09-09T06:00	10068	282	-40.1	-52.3	333	8
2023-09-09T06:00	10087	281	-40.2	-52.9	333	8
2023-09-09T06:00	10109	280	-40.3	-53.4	334	9
2023-09-09T06:00	10128	279	-40.4	-53.4	334	9
2023-09-09T06:00	10148	278	-40.5	-53.2	334	9
2023-09-09T06:00	10166	277	-40.7	-53.2	334	9
2023-09-09T06:00	10188	277	-40.8	-53.2	334	9
2023-09-09T06:00	10206	276	-41.0	-53.4	335	10
2023-09-09T06:00	10228	275	-41.2	-53.0	335	10
2023-09-09T06:00	10248	274	-41.4	-52.1	335	10
2023-09-09T06:00	10269	273	-41.5	-51.7	335	10
2023-09-09T06:00	10290	272	-41.8	-51.6	335	10
2023-09-09T06:00	10311	272	-41.9	-51.4	335	10
2023-09-09T06:00	10332	271	-42.1	-51.7	334	10
2023-09-09T06:00	10352	270	-42.3	-52.4	333	10
2023-09-09T06:00	10374	269	-42.5	-52.4	332	10
2023-09-09T06:00	10393	268	-42.7	-52.2	332	10
2023-09-09T06:00	10414	267	-42.8	-52.2	332	10
2023-09-09T06:00	10436	267	-43.1	-51.7	332	10
2023-09-09T06:00	10458	266	-43.3	-50.9	332	10
2023-09-09T06:00	10478	265	-43.4	-50.4	331	10
2023-09-09T06:00	10499	264	-43.6	-50.5	331	10
2023-09-09T06:00	10518	263	-43.8	-50.7	330	10
2023-09-09T06:00	10540	263	-44.0	-50.8	329	10
2023-09-09T06:00	10561	262	-44.1	-50.6	328	10
2023-09-09T06:00	10580	261	-44.3	-50.4	328	10
2023-09-09T06:00	10601	260	-44.4	-50.0	328	11
2023-09-09T06:00	10622	259	-44.6	-49.8	328	11
2023-09-09T06:00	10643	258	-44.8	-49.9	329	11
2023-09-09T06:00	10665	258	-45.0	-50.4	329	11
2023-09-09T06:00	10685	257	-45.2	-50.8	329	11
2023-09-09T06:00	10707	256	-45.3	-50.8	329	11
2023-09-09T06:00	10726	255	-45.5	-50.9	329	11
2023-09-09T06:00	10749	255	-45.7	-51.0	328	11
2023-09-09T06:00	10768	254	-45.9	-51.3	328	11
2023-09-09T06:00	10787	253	-46.0	-51.8	328	11
2023-09-09T06:00	10808	252	-46.2	-51.9	328	11
2023-09-09T06:00	10830	251	-46.4	-51.8	328	11
2023-09-09T06:00	10852	251	-46.6	-51.8	328	11
2023-09-09T06:00	10872	250	-46.7	-52.0	328	11
2023-09-09T06:00	10892	249	-46.9	-52.3	328	11
2023-09-09T06:00	10912	248	-47.1	-52.8	327	11
2023-09-09T06:00	10933	248	-47.3	-53.0	327	12
2023-09-09T06:00	10953	247	-47.4	-53.1	327	12
2023-09-09T06:00	10974	246	-47.6	-53.3	328	12
2023-09-09T06:00	10994	245	-47.6	-53.6	328	12
2023-09-09T06:00	11013	244	-47.8	-53.9	329	12
2023-09-09T06:00	11034	244	-48.0	-54.4	330	13
2023-09-09T06:00	11053	243	-48.1	-54.9	331	12
2023-09-09T06:00	11075	242	-48.3	-54.9	332	12
2023-09-09T06:00	11096	241	-48.5	-55.2	332	12
2023-09-09T06:00	11116	241	-48.6	-55.8	332	12
2023-09-09T06:00	11138	240	-48.8	-56.4	332	11
2023-09-09T06:00	11158	239	-49.0	-56.8	332	11
2023-09-09T06:00	11180	238	-49.1	-57.0	333	11
2023-09-09T06:00	11200	238	-49.3	-57.2	333	11
2023-09-09T06:00	11219	237	-49.5	-57.2	334	11
2023-09-09T06:00	11240	236	-49.7	-57.2	334	10
2023-09-09T06:00	11260	235	-49.9	-57.4	335	10
2023-09-09T06:00	11281	235	-50.1	-58.1	336	10
2023-09-09T06:00	11304	234	-50.1	-59.1	338	10
2023-09-09T06:00	11326	233	-50.2	-59.6	339	10
2023-09-09T06:00	11346	232	-50.2	-59.5	340	10
2023-09-09T06:00	11368	232	-50.4	-59.6	341	10
2023-09-09T06:00	11389	231	-50.6	-59.7	342	10
2023-09-09T06:00	11412	230	-50.8	-59.7	343	10
2023-09-09T06:00	11432	229	-51.0	-59.7	344	10
2023-09-09T06:00	11455	229	-51.2	-59.7	345	10
2023-09-09T06:00	11475	228	-51.4	-59.8	346	10
2023-09-09T06:00	11493	227	-51.6	-60.0	346	10
2023-09-09T06:00	11512	227	-51.7	-59.8	347	10
2023-09-09T06:00	11533	226	-51.8	-59.3	346	10
2023-09-09T06:00	11553	225	-51.9	-59.0	345	11
2023-09-09T06:00	11572	224	-52.2	-59.3	344	11
2023-09-09T06:00	11592	224	-52.3	-59.7	343	11
2023-09-09T06:00	11612	223	-52.5	-60.3	342	11
2023-09-09T06:00	11635	222	-52.7	-61.1	341	11
2023-09-09T06:00	11655	222	-52.8	-61.3	340	11
2023-09-09T06:00	11675	221	-53.0	-61.2	340	11
2023-09-09T06:00	11696	220	-53.2	-61.1	339	11
2023-09-09T06:00	11713	220	-53.4	-61.0	339	11
2023-09-09T06:00	11733	219	-53.5	-60.9	339	11
2023-09-09T06:00	11753	218	-53.7	-61.0	339	11
2023-09-09T06:00	11775	218	-53.9	-61.1	340	11
2023-09-09T06:00	11793	217	-54.1	-61.2	340	12
2023-09-09T06:00	11815	216	-54.3	-61.2	340	12
2023-09-09T06:00	11834	215	-54.4	-61.2	340	12
2023-09-09T06:00	11855	215	-54.6	-61.3	340	13
2023-09-09T06:00	11878	214	-54.8	-61.2	340	13
2023-09-09T06:00	11900	213	-54.9	-60.8	341	13
2023-09-09T06:00	11923	213	-55.1	-60.4	342	14
2023-09-09T06:00	11944	212	-55.2	-60.2	342	14
2023-09-09T06:00	11970	211	-55.4	-60.2	343	14
2023-09-09T06:00	11990	210	-55.5	-60.1	344	14
2023-09-09T06:00	12011	210	-55.7	-60.2	345	14
2023-09-09T06:00	12033	209	-55.9	-60.4	346	14
2023-09-09T06:00	12054	208	-56.1	-60.6	346	15
2023-09-09T06:00	12079	207	-56.3	-60.8	348	15
2023-09-09T06:00	12106	207	-56.5	-60.9	349	16
2023-09-09T06:00	12128	206	-56.7	-61.0	350	16
2023-09-09T06:00	12154	205	-57.0	-61.1	352	16
2023-09-09T06:00	12176	204	-57.1	-61.1	353	17
2023-09-09T06:00	12200	204	-57.3	-61.2	354	17
2023-09-09T06:00	12220	203	-57.5	-61.2	354	17
2023-09-09T06:00	12241	202	-57.6	-61.2	354	17
2023-09-09T06:00	12261	202	-57.8	-61.3	354	17
2023-09-09T06:00	12283	201	-58.0	-61.5	354	17
2023-09-09T06:00	12303	200	-58.1	-61.6	353	17
2023-09-09T06:00	12324	199	-58.3	-61.8	352	17
2023-09-09T06:00	12345	199	-58.5	-62.1	351	17
2023-09-09T06:00	12365	198	-58.6	-62.2	350	17
2023-09-09T06:00	12386	198	-58.7	-62.5	349	17
2023-09-09T06:00	12406	197	-58.7	-62.8	348	17
2023-09-09T06:00	12425	196	-58.9	-63.5	347	17
2023-09-09T06:00	12447	196	-59.0	-63.8	347	17
2023-09-09T06:00	12471	195	-59.2	-64.0	346	17
2023-09-09T06:00	12492	194	-59.4	-64.1	346	17
2023-09-09T06:00	12512	194	-59.5	-64.0	346	17
2023-09-09T06:00	12533	193	-59.7	-63.9	347	17
2023-09-09T06:00	12555	192	-59.8	-63.7	347	17
2023-09-09T06:00	12577	192	-60.0	-63.6	348	17
2023-09-09T06:00	12598	191	-60.1	-63.4	349	17
2023-09-09T06:00	12618	190	-60.3	-63.3	349	17
2023-09-09T06:00	12641	190	-60.4	-63.3	349	17
2023-09-09T06:00	12662	189	-60.5	-63.4	349	17
2023-09-09T06:00	12685	188	-60.7	-63.9	349	17
2023-09-09T06:00	12706	188	-60.8	-64.5	349	18
2023-09-09T06:00	12728	187	-60.9	-65.1	348	18
2023-09-09T06:00	12751	186	-61.0	-65.6	348	18
2023-09-09T06:00	12776	186	-61.2	-65.9	347	17
2023-09-09T06:00	12798	185	-61.3	-66.0	347	17
2023-09-09T06:00	12820	184	-61.4	-66.3	346	17
2023-09-09T06:00	12840	184	-61.4	-66.6	345	17
2023-09-09T06:00	12863	183	-61.5	-67.2	344	17
2023-09-09T06:00	12887	182	-61.6	-67.8	343	17
2023-09-09T06:00	12908	182	-61.6	-68.1	342	17
2023-09-09T06:00	12928	181	-61.6	-68.4	342	17
2023-09-09T06:00	12949	180	-61.7	-68.5	342	17
2023-09-09T06:00	12967	180	-61.7	-68.6	342	17
2023-09-09T06:00	12990	179	-61.8	-68.7	342	17
2023-09-09T06:00	13009	179	-61.9	-68.7	343	17
2023-09-09T06:00	13031	178	-62.1	-68.9	344	16
2023-09-09T06:00	13051	178	-62.2	-69.1	344	16
2023-09-09T06:00	13073	177	-62.2	-69.3	343	15
2023-09-09T06:00	13094	176	-62.1	-69.3	343	15
2023-09-09T06:00	13113	176	-62.2	-69.4	342	14
2023-09-09T06:00	13133	175	-62.3	-69.4	341	14
2023-09-09T06:00	13153	175	-62.3	-69.2	340	13
2023-09-09T06:00	13173	174	-62.5	-69.2	340	13
2023-09-09T06:00	13192	173	-62.4	-68.9	338	13
2023-09-09T06:00	13213	173	-62.4	-68.9	337	13
2023-09-09T06:00	13233	172	-62.6	-69.3	335	13
2023-09-09T06:00	13252	172	-62.5	-69.4	333	13
2023-09-09T06:00	13273	171	-62.6	-69.9	332	13
2023-09-09T06:00	13294	171	-62.5	-70.3	331	13
2023-09-09T06:00	13315	170	-62.5	-70.7	330	13
2023-09-09T06:00	13337	170	-62.7	-71.2	329	13
2023-09-09T06:00	13356	169	-62.7	-71.4	329	13
2023-09-09T06:00	13377	168	-62.9	-71.7	329	13
2023-09-09T06:00	13398	168	-63.1	-72.0	330	14
2023-09-09T06:00	13420	167	-63.2	-72.1	331	14
2023-09-09T06:00	13439	167	-63.3	-72.3	333	14
2023-09-09T06:00	13459	166	-63.4	-72.4	335	14
2023-09-09T06:00	13482	166	-63.4	-72.5	337	14
2023-09-09T06:00	13500	165	-63.5	-72.7	338	14
2023-09-09T06:00	13520	165	-63.5	-72.9	339	13
2023-09-09T06:00	13542	164	-63.6	-73.2	339	13
2023-09-09T06:00	13562	163	-63.7	-73.5	338	13
2023-09-09T06:00	13581	163	-63.7	-73.7	336	13
2023-09-09T06:00	13600	162	-63.7	-73.8	335	13
2023-09-09T06:00	13622	162	-63.7	-73.8	334	13
2023-09-09T06:00	13643	161	-63.9	-74.1	334	13
2023-09-09T06:00	13663	161	-63.8	-74.0	334	13
2023-09-09T06:00	13685	160	-63.8	-74.1	333	14
2023-09-09T06:00	13708	160	-63.9		333	14
2023-09-09T06:00	13727	159	-64.0	-74.8	333	14
2023-09-09T06:00	13750	158	-64.0	-75.2	333	14
2023-09-09T06:00	13770	158	-63.8	-75.4	332	14
2023-09-09T06:00	13793	157	-63.7	-75.8	332	14
2023-09-09T06:00	13812	157	-63.6		331	14
2023-09-09T06:00	13835	156	-63.5	-75.7	331	15
2023-09-09T06:00	13856	156	-63.5	-75.5	331	15
2023-09-09T06:00	13876	155	-63.4	-75.2	331	15
2023-09-09T06:00	13898	155	-63.5	-75.0	331	16
2023-09-09T06:00	13918	154	-63.6	-74.9	331	16
2023-09-09T06:00	13939	154	-63.5	-75.0	331	16
2023-09-09T06:00	13958	153	-63.1	-75.1	331	15
2023-09-09T06:00	13981	153	-63.0	-75.7	332	15
2023-09-09T06:00	14002	152	-62.8	-76.4	333	14
2023-09-09T06:00	14023	152	-62.7	-77.0	333	13
2023-09-09T06:00	14043	151	-62.7	-77.4	334	13
2023-09-09T06:00	14065	151	-62.7	-77.6	334	12
2023-09-09T06:00	14087	150	-62.7	-77.6	334	12
2023-09-09T06:00	14107	149	-62.5	-77.3	333	12
2023-09-09T06:00	14127	149	-62.6	-77.1	333	12
2023-09-09T06:00	14148	149	-62.7		333	12
2023-09-09T06:00	14169	148	-62.8	-76.8	333	12
2023-09-09T06:00	14191	147	-63.0	-77.0	333	12
2023-09-09T06:00	14212	147	-63.1	-77.3	333	12
2023-09-09T06:00	14231	147	-63.1	-77.5	332	12
2023-09-09T06:00	14252	146	-63.1	-77.9	332	12
2023-09-09T06:00	14271	146	-63.0	-78.2	333	12
2023-09-09T06:00	14292	145	-63.1	-78.9	334	12
2023-09-09T06:00	14315	145	-63.0	-79.5	335	12
2023-09-09T06:00	14334	144	-62.9	-80.1	338	12
2023-09-09T06:00	14354	144	-62.8	-80.7	340	12
2023-09-09T06:00	14377	143	-62.5	-80.9	344	12
2023-09-09T06:00	14398	143	-62.2	-80.8	346	12
2023-09-09T06:00	14416	142	-62.2	-80.7	349	11
2023-09-09T06:00	14438	142	-62.3	-80.8	350	11
2023-09-09T06:00	14460	141	-62.3	-80.8	351	11
2023-09-09T06:00	14482	141	-62.2	-80.8	352	11
2023-09-09T06:00	14503	140	-62.1	-80.8	352	10
2023-09-09T06:00	14524	140	-62.0	-80.9	352	10
2023-09-09T06:00	14545	139	-62.1	-81.0	352	10
2023-09-09T06:00	14569	139	-62.2	-81.1	351	11
2023-09-09T06:00	14587	138	-62.4	-81.3	350	11
2023-09-09T06:00	14611	138	-62.4	-81.3	349	11
2023-09-09T06:00	14630	137	-62.4	-81.3	349	11
2023-09-09T06:00	14652	137	-62.4	-81.3	349	10
2023-09-09T06:00	14670	136	-62.5	-81.5	350	10
2023-09-09T06:00	14693	136	-62.6	-81.4	351	10
2023-09-09T06:00	14715	135	-62.7	-81.5	352	9
2023-09-09T06:00	14738	135	-62.7	-81.5	353	8
2023-09-09T06:00	14758	135	-62.8	-81.6	355	8
2023-09-09T06:00	14779	134	-62.9		356	7
2023-09-09T06:00	14802	134	-62.9		357	6
2023-09-09T06:00	14821	133	-62.9	-81.8	358	6
2023-09-09T06:00	14843	133	-62.9	-81.8	356	5
2023-09-09T06:00	14866	132	-62.9	-81.9	353	5
2023-09-09T06:00	14888	132	-62.9	-81.9	348	5
2023-09-09T06:00	14908	131	-62.9	-81.9	341	5
2023-09-09T06:00	14929	131	-63.0	-82.0	333	5
2023-09-09T06:00	14953	130	-62.9	-82.0	325	5
2023-09-09T06:00	14973	130	-62.9	-82.0	317	5
2023-09-09T06:00	14996	129	-62.9	-82.0	310	5
2023-09-09T06:00	15019	129	-63.0	-82.1	304	6
2023-09-09T06:00	15039	129	-63.2	-82.3	301	6
2023-09-09T06:00	15061	128	-63.3	-82.3	300	7
2023-09-09T06:00	15084	128	-63.3	-82.2	300	7
2023-09-09T06:00	15102	127	-63.2	-82.2	302	8
2023-09-09T06:00	15124	127	-63.1	-82.2	304	9
2023-09-09T06:00	15147	126	-63.0	-82.2	307	9
2023-09-09T06:00	15170	126	-62.8	-82.2	310	10
2023-09-09T06:00	15194	125	-62.5	-82.0	313	10
2023-09-09T06:00	15211	125	-62.1	-81.9	316	11
2023-09-09T06:00	15233	125	-62.2	-82.1	320	11
2023-09-09T06:00	15255	124	-62.2	-82.1	324	11
2023-09-09T06:00	15275	124	-62.2	-82.3	327	11
2023-09-09T06:00	15299	123	-62.3	-82.3	331	11
2023-09-09T06:00	15320	123	-62.3	-82.3	334	11
2023-09-09T06:00	15341	122	-62.3	-82.3	337	11
2023-09-09T06:00	15367	122	-62.3	-82.3	340	11
2023-09-09T06:00	15387	121	-62.4	-82.4	342	11
2023-09-09T06:00	15410	121	-62.5	-82.4	345	10
2023-09-09T06:00	15435	121	-62.7	-82.4	347	10
2023-09-09T06:00	15452	120	-62.9	-82.6	350	10
2023-09-09T06:00	15478	120	-63.0	-82.7	353	10
2023-09-09T06:00	15503	119	-63.0	-82.8	355	9
2023-09-09T06:00	15524	119	-62.8	-82.8	357	9
2023-09-09T06:00	15550	118	-62.8	-82.9	357	8
2023-09-09T06:00	15573	118	-62.8	-83.0	355	8
2023-09-09T06:00	15591	117	-62.8	-83.1	352	7
2023-09-09T06:00	15616	117	-62.6	-83.3	349	7
2023-09-09T06:00	15637	117	-62.5	-83.3	345	7
2023-09-09T06:00	15660	116	-62.6	-83.5	342	7
2023-09-09T06:00	15685	116	-62.7	-83.6	340	7
2023-09-09T06:00	15704	115	-62.6	-83.7	339	7
2023-09-09T06:00	15727	115	-62.5	-83.6	338	7
2023-09-09T06:00	15748	115	-62.2	-83.5	339	6
2023-09-09T06:00	15770	114	-62.2	-83.5	339	6
2023-09-09T06:00	15789	114	-62.3	-83.6	338	6
2023-09-09T06:00	15807	113	-62.4	-83.7	336	5
2023-09-09T06:00	15830	113	-62.5	-83.8	333	5
2023-09-09T06:00	15851	113	-62.4	-83.7	329	5
2023-09-09T06:00	15870	112	-62.2	-83.5	327	5
2023-09-09T06:00	15893	112	-62.2	-83.7	325	5
2023-09-09T06:00	15914	112	-62.2	-83.7	325	5
2023-09-09T06:00	15934	111	-62.2	-83.8	325	5
2023-09-09T06:00	15955	111	-62.0	-83.8	327	6
2023-09-09T06:00	15976	110	-61.7	-83.9	330	6
2023-09-09T06:00	15996	110	-61.5	-84.0	335	6
2023-09-09T06:00	16018	110	-61.4	-84.1	341	6
2023-09-09T06:00	16041	109	-61.4	-84.3	346	6
2023-09-09T06:00	16063	109	-61.2	-84.3	350	6
2023-09-09T06:00	16081	109	-61.2	-84.5	351	6
2023-09-09T06:00	16104	108	-61.2	-84.7	350	7
2023-09-09T06:00	16124	108	-61.1	-84.6	348	7
2023-09-09T06:00	16148	107	-61.2	-84.7	345	7
2023-09-09T06:00	16169	107	-61.3	-84.8	343	8
2023-09-09T06:00	16192	107	-61.5	-84.9	343	8
2023-09-09T06:00	16213	106	-61.5	-84.9	343	8
2023-09-09T06:00	16235	106	-61.5	-85.2	344	8
2023-09-09T06:00	16255	106	-61.5	-85.2	346	8
2023-09-09T06:00	16277	105	-61.4	-85.3	347	8
2023-09-09T06:00	16299	105	-61.1	-85.1	349	8
2023-09-09T06:00	16323	104	-61.2	-85.4	351	7
2023-09-09T06:00	16345	104	-61.2	-85.4	352	7
2023-09-09T06:00	16367	104	-61.4	-85.5	352	7
2023-09-09T06:00	16391	103	-61.5	-85.6	351	7
2023-09-09T06:00	16414	103	-61.6	-85.7	349	7
2023-09-09T06:00	16434	103	-61.6	-85.7	348	7
2023-09-09T06:00	16457	102	-61.6	-85.7	346	7
2023-09-09T06:00	16476	102	-61.6	-85.7	346	7
2023-09-09T06:00	16501	101	-61.4	-85.5	348	7
2023-09-09T06:00	16524	101	-61.4	-85.5	350	7
2023-09-09T06:00	16545	101	-61.6	-85.7	353	7
2023-09-09T06:00	16566	100	-61.7	-85.8	356	6
2023-09-09T06:00	16592	100	-61.8	-85.9	359	6
2023-09-09T06:00	16613	100	-61.9	-85.9	1	6
2023-09-09T06:00	16634	99	-61.8	-85.9	2	6
2023-09-09T06:00	16655	99	-61.8	-85.9	3	6
2023-09-09T06:00	16675	99	-61.9	-85.7	3	5
2023-09-09T06:00	16699	98	-61.9	-85.7	4	6
2023-09-09T06:00	16721	98	-62.1	-85.9	4	6
2023-09-09T06:00	16742	98	-62.1	-85.9	4	6
2023-09-09T06:00	16767	97	-62.2	-85.9	5	6
2023-09-09T06:00	16786	97	-62.1	-86.1	6	6
2023-09-09T06:00	16812	96	-61.9	-85.9	7	6
2023-09-09T06:00	16832	96	-61.7	-85.8	9	6
2023-09-09T06:00	16852	96	-61.7	-86.0	8	5
2023-09-09T06:00	16879	95	-61.9	-86.2	5	4
2023-09-09T06:00	16902	95	-62.0	-86.3	357	4
2023-09-09T06:00	16923	95	-61.9	-86.2	345	4
2023-09-09T06:00	16946	94	-61.9	-86.4	333	4
2023-09-09T06:00	16969	94	-61.8	-86.4	324	4
2023-09-09T06:00	16995	94	-61.6	-86.2	320	5
2023-09-09T06:00	17017	93	-61.6	-86.2	318	5
2023-09-09T06:00	17041	93	-61.7	-86.0	318	6
2023-09-09T06:00	17066	93	-61.8	-86.1	319	6
2023-09-09T06:00	17087	92	-62.0	-86.3	323	7
2023-09-09T06:00	17112	92	-62.1	-86.3	328	7
2023-09-09T06:00	17132	92	-62.3	-86.5	333	7
2023-09-09T06:00	17156	91	-62.3	-86.5	340	7
2023-09-09T06:00	17181	91	-62.3	-86.7	348	7
2023-09-09T06:00	17204	91	-62.2	-86.7	355	7
2023-09-09T06:00	17225	90	-61.9	-86.7	1	7
2023-09-09T06:00	17248	90	-61.8	-86.6	5	7
2023-09-09T06:00	17267	90	-61.8	-86.6	9	6
2023-09-09T06:00	17290	89	-61.8	-86.6	11	6
2023-09-09T06:00	17313	89	-61.7	-86.8	13	6
2023-09-09T06:00	17335	89	-61.7	-86.8	14	5
2023-09-09T06:00	17361	88	-61.7	-86.8	12	4
2023-09-09T06:00	17381	88	-61.8	-86.9	9	4
2023-09-09T06:00	17404	88	-61.9	-87.0	5	3
2023-09-09T06:00	17425	87	-61.7	-87.1	3	3
2023-09-09T06:00	17446	87	-61.6	-87.0	4	3
2023-09-09T06:00	17472	87	-61.5	-87.3	7	3
2023-09-09T06:00	17490	86	-61.2	-87.0	10	3
2023-09-09T06:00	17513	86	-60.9	-87.1	12	3
2023-09-09T06:00	17535	86	-60.8	-87.0	11	2
2023-09-09T06:00	17561	86	-60.6	-86.9	8	2
2023-09-09T06:00	17579	85	-60.6	-86.9	7	2
2023-09-09T06:00	17602	85	-60.5	-87.2	13	1
2023-09-09T06:00	17623	85	-60.5	-87.2	29	1
2023-09-09T06:00	17643	84	-60.4	-87.1	47	1
2023-09-09T06:00	17667	84	-60.3	-87.0	60	1
2023-09-09T06:00	17691	84	-60.4	-86.7	70	2
2023-09-09T06:00	17710	83	-60.5	-86.8	79	2
2023-09-09T06:00	17732	83	-60.5	-86.8	89	2
2023-09-09T06:00	17755	83	-60.7	-87.0	102	1
2023-09-09T06:00	17781	83	-60.8	-87.0	126	1
2023-09-09T06:00	17802	82	-60.6	-86.9	188	1
2023-09-09T06:00	17823	82	-60.6	-86.9	242	1
2023-09-09T06:00	17849	82	-60.5	-87.2	260	2
2023-09-09T06:00	17870	81	-60.5	-87.2	267	2
2023-09-09T06:00	17893	81	-60.3	-87.0	271	2
2023-09-09T06:00	17915	81	-60.3	-87.0	272	3
2023-09-09T06:00	17941	80	-60.4	-87.1	274	3
2023-09-09T06:00	17964	80	-60.3	-87.0	277	3
2023-09-09T06:00	17987	80	-60.4	-87.1	281	3
2023-09-09T06:00	18011	80	-60.5	-87.5	286	3
2023-09-09T06:00	18032	79	-60.4	-87.4	290	3
2023-09-09T06:00	18057	79	-60.1	-87.2	292	3
2023-09-09T06:00	18078	79	-59.8	-87.4	292	3
2023-09-09T06:00	18103	78	-59.6	-87.2	290	3
2023-09-09T06:00	18124	78	-59.4	-87.1	289	3
2023-09-09T06:00	18145	78	-59.2	-87.3	290	4
2023-09-09T06:00	18170	78	-59.1	-87.3	293	4
2023-09-09T06:00	18195	77	-59.1	-87.3	298	4
2023-09-09T06:00	18218	77	-59.0	-87.2	305	4
2023-09-09T06:00	18241	77	-59.0	-86.8	312	4
2023-09-09T06:00	18267	76	-59.1	-86.8	318	4
2023-09-09T06:00	18289	76	-59.1	-86.8	323	4
2023-09-09T06:00	18314	76	-59.1	-87.3	325	4
2023-09-09T06:00	18336	75	-59.0	-87.2	328	4
2023-09-09T06:00	18362	75	-58.7	-87.0	330	4
2023-09-09T06:00	18385	75	-58.7	-87.0	334	4
2023-09-09T06:00	18407	75	-58.6	-86.9	336	4
2023-09-09T06:00	18431	74	-58.4	-86.7	338	5
2023-09-09T06:00	18453	74	-58.3	-86.7	339	5
2023-09-09T06:00	18480	74	-58.3	-86.7	340	5
2023-09-09T06:00	18507	74	-58.5	-86.8	340	5
2023-09-09T06:00	18530	73	-58.5	-86.8	339	6
2023-09-09T06:00	18552	73	-58.7	-87.0	339	6
2023-09-09T06:00	18569	73	-58.8	-87.0	338	6
2023-09-09T06:00	18600	72	-58.8	-86.6	337	5
2023-09-09T06:00	18622	72	-58.9	-86.7	339	5
2023-09-09T06:00	18647	72	-59.0	-87.2	341	5
2023-09-09T06:00	18667	72	-58.9	-87.1	344	5
2023-09-09T06:00	18691	71	-58.8	-87.0	347	6
2023-09-09T06:00	18714	71	-58.7	-87.0	348	6
2023-09-09T06:00	18739	71	-58.7	-87.0	349	6
2023-09-09T06:00	18762	71	-58.6	-86.9	350	7
2023-09-09T06:00	18783	70	-58.6	-86.9	351	7
2023-09-09T06:00	18809	70	-58.5	-86.8	353	7
2023-09-09T06:00	18829	70	-58.5	-86.8	356	7
2023-09-09T06:00	18849	70	-58.5	-86.8	0	8
2023-09-09T06:00	18876	69	-58.6	-86.9	5	8
2023-09-09T06:00	18899	69	-58.6	-86.9	11	8
2023-09-09T06:00	18924	69	-58.6	-86.9	17	8
2023-09-09T06:00	18945	69	-58.5	-86.8	23	8
2023-09-09T06:00	18968	68	-58.5	-86.8	28	8
2023-09-09T06:00	18992	68	-58.7	-87.0	31	8
2023-09-09T06:00	19017	68	-58.8	-87.0	34	8
2023-09-09T06:00	19038	68	-58.7	-87.0	36	8
2023-09-09T06:00	19063	67	-58.7	-87.0	38	8
2023-09-09T06:00	19083	67	-58.7	-87.0	40	8
2023-09-09T06:00	19107	67	-58.6	-86.9	43	8
2023-09-09T06:00	19128	67	-58.6	-86.9	46	8
2023-09-09T06:00	19153	66	-58.7	-87.0	49	7
2023-09-09T06:00	19180	66	-58.8	-87.0	52	7
2023-09-09T06:00	19201	66	-59.0	-87.2	55	6
2023-09-09T06:00	19226	66	-59.1	-86.8	60	6
2023-09-09T06:00	19248	65	-59.2	-86.9	65	5
2023-09-09T06:00	19270	65	-59.3	-87.0	71	5
2023-09-09T06:00	19292	65	-59.3	-87.0	76	5
2023-09-09T06:00	19315	65	-59.3	-87.0	81	5
2023-09-09T06:00	19340	64	-59.4	-87.1	85	5
2023-09-09T06:00	19361	64	-59.6	-87.2	89	5
2023-09-09T06:00	19386	64	-59.5	-87.1	94	4
2023-09-09T06:00	19412	64	-59.5	-87.6	98	4
2023-09-09T06:00	19435	63	-59.4	-87.5	100	4
2023-09-09T06:00	19458	63	-59.3	-87.4	99	3
2023-09-09T06:00	19482	63	-59.1	-87.3	94	3
2023-09-09T06:00	19507	63	-58.8	-87.0	86	3
2023-09-09T06:00	19528	62	-58.9	-87.1	76	3
2023-09-09T06:00	19556	62	-59.0	-87.2	65	3
2023-09-09T06:00	19572	62	-58.9	-87.1	54	3
2023-09-09T06:00	19601	62	-58.9	-87.1	43	3
2023-09-09T06:00	19627	61	-59.0	-87.2	35	3
2023-09-09T06:00	19649	61	-59.0	-87.2	30	3
2023-09-09T06:00	19673	61	-59.0	-87.2	29	3
2023-09-09T06:00	19698	61	-59.1	-87.3	30	3
2023-09-09T06:00	19720	61	-59.2	-86.9	30	4
2023-09-09T06:00	19745	60	-59.2	-86.9	30	4
2023-09-09T06:00	19768	60	-59.4	-87.1	29	4
2023-09-09T06:00	19792	60	-59.5	-87.1	29	4
2023-09-09T06:00	19819	60	-59.6	-87.2	28	4
2023-09-09T06:00	19845	59	-59.5	-87.1	28	4
2023-09-09T06:00	19869	59	-59.6	-87.2	25	4
2023-09-09T06:00	19894	59	-59.6	-87.2	21	4
2023-09-09T06:00	19914	59	-59.5	-87.1	17	4
2023-09-09T06:00	19936	58	-59.5	-87.1	12	4
2023-09-09T06:00	19962	58	-59.5	-87.1	9	4
2023-09-09T06:00	19985	58	-59.6	-87.6	7	4
2023-09-09T06:00	20009	58	-59.5	-87.6	8	4
2023-09-09T06:00	20036	58	-59.4	-87.5	10	4
2023-09-09T06:00	20059	57	-59.3	-87.4	13	4
2023-09-09T06:00	20084	57	-59.3	-87.4	16	4
2023-09-09T06:00	20109	57	-59.3	-87.4	18	4
2023-09-09T06:00	20132	57	-59.3	-87.4	20	4
2023-09-09T06:00	20156	56	-59.3	-87.4	20	4
2023-09-09T06:00	20177	56	-59.4	-87.5	21	4
2023-09-09T06:00	20204	56	-59.5	-87.6	22	4
2023-09-09T06:00	20230	56	-59.4	-87.5	23	4
2023-09-09T06:00	20250	56	-58.9	-87.1	25	4
2023-09-09T06:00	20272	55	-58.8	-87.0	27	4
2023-09-09T06:00	20293	55	-58.9	-87.1	30	3
2023-09-09T06:00	20319	55	-59.1	-87.3	32	3
2023-09-09T06:00	20342	55	-59.2	-87.3	34	2
2023-09-09T06:00	20371	55	-59.4	-87.5	36	2
2023-09-09T06:00	20392	54	-59.4	-87.5	38	2
2023-09-09T06:00	20419	54	-59.5	-87.6	47	1
2023-09-09T06:00	20437	54	-59.5	-87.6	71	1
2023-09-09T06:00	20461	54	-59.5	-87.6	106	1
2023-09-09T06:00	20485	54	-59.4	-87.5	127	1
2023-09-09T06:00	20516	53	-59.5	-87.6	139	1
2023-09-09T06:00	20541	53	-59.6	-87.6	146	1
2023-09-09T06:00	20565	53	-59.8	-87.8	152	1
2023-09-09T06:00	20589	53	-59.7	-87.7	159	1
2023-09-09T06:00	20618	52	-59.7	-87.7	175	0
2023-09-09T06:00	20640	52	-59.7	-87.7	302	0
2023-09-09T06:00	20664	52	-59.5	-87.6	330	1
2023-09-09T06:00	20690	52	-59.1	-87.7	339	2
2023-09-09T06:00	20715	52	-59.1	-87.7	344	2
2023-09-09T06:00	20740	51	-59.2	-87.8	348	3
2023-09-09T06:00	20767	51	-59.2	-87.8	352	4
2023-09-09T06:00	20793	51	-59.1	-87.7	355	5
2023-09-09T06:00	20816	51	-59.0	-87.6	358	5
2023-09-09T06:00	20847	51	-59.0	-87.2	2	6
2023-09-09T06:00	20871	50	-59.1	-87.3	7	6
2023-09-09T06:00	20897	50	-59.2	-87.3	12	7
2023-09-09T06:00	20919	50	-59.1	-87.7	17	8
2023-09-09T06:00	20946	50	-59.1	-87.7	21	8
2023-09-09T06:00	20973	50	-59.0	-87.6	25	9
2023-09-09T06:00	20998	49	-58.8	-87.5	29	9
2023-09-09T06:00	21021	49	-58.6	-87.3	33	9
2023-09-09T06:00	21047	49	-58.5	-87.3	37	10
2023-09-09T06:00	21069	49	-58.6	-87.3	40	9
2023-09-09T06:00	21096	49	-58.8	-87.5	44	9
2023-09-09T06:00	21124	48	-58.8	-87.5	48	9
2023-09-09T06:00	21147	48	-58.9	-87.6	51	9
2023-09-09T06:00	21170	48	-58.8	-87.5	55	9
2023-09-09T06:00	21200	48	-58.8	-87.5	59	9
2023-09-09T06:00	21222	48	-58.8	-87.5	62	8
2023-09-09T06:00	21243	47	-58.8	-87.5	66	8
2023-09-09T06:00	21270	47	-58.8	-87.0	68	7
2023-09-09T06:00	21302	47	-58.9	-87.1	70	7
2023-09-09T06:00	21324	47	-59.0	-87.2	72	7
2023-09-09T06:00	21353	47	-59.2	-87.3	72	6
2023-09-09T06:00	21376	47	-59.5	-87.6	72	6
2023-09-09T06:00	21406	46	-59.7	-87.7	71	5
2023-09-09T06:00	21427	46	-59.8	-87.8	69	5
2023-09-09T06:00	21449	46	-60.1	-88.0	66	4
2023-09-09T06:00	21475	46	-60.1	-88.0	61	4
2023-09-09T06:00	21492	46	-59.6	-88.1	55	4
2023-09-09T06:00	21519	45	-59.2	-87.8	49	5
2023-09-09T06:00	21543	45	-59.3	-88.3	43	5
2023-09-09T06:00	21568	45	-58.9	-88.0	38	5
2023-09-09T06:00	21597	45	-58.4	-87.7	35	5
2023-09-09T06:00	21620	45	-58.2	-87.5	34	6
2023-09-09T06:00	21648	45	-58.1	-88.0	34	5
2023-09-09T06:00	21668	44	-58.0	-87.9	35	5
2023-09-09T06:00	21693	44	-57.8	-87.8	38	5
2023-09-09T06:00	21717	44	-57.8	-87.2	41	4
2023-09-09T06:00	21744	44	-57.9	-87.3	42	4
2023-09-09T06:00	21768	44	-57.8	-87.2	41	3
2023-09-09T06:00	21793	44	-57.8	-87.2	37	3
2023-09-09T06:00	21818	43	-57.7	-87.2	29	3
2023-09-09T06:00	21837	43	-57.4	-86.9	18	3
2023-09-09T06:00	21864	43	-57.4	-86.9	8	3
2023-09-09T06:00	21884	43	-57.4	-87.5	359	3
2023-09-09T06:00	21911	43	-57.4	-86.9	352	4
2023-09-09T06:00	21936	43	-57.3	-86.9	347	4
2023-09-09T06:00	21959	42	-57.3	-86.9	345	4
2023-09-09T06:00	21988	42	-57.3	-86.9	345	5
2023-09-09T06:00	22012	42	-57.3	-86.9	345	5
2023-09-09T06:00	22033	42	-57.3	-86.9	347	5
2023-09-09T06:00	22056	42	-57.2	-86.8	350	5
2023-09-09T06:00	22082	42	-57.2	-86.8	353	5
2023-09-09T06:00	22108	41	-57.2	-86.8	356	6
2023-09-09T06:00	22133	41	-57.2	-87.3	360	6
2023-09-09T06:00	22160	41	-57.1	-87.2	4	6
2023-09-09T06:00	22184	41	-57.0	-87.2	9	6
2023-09-09T06:00	22214	41	-57.1	-86.7	14	7
2023-09-09T06:00	22234	41	-57.1	-86.7	20	7
2023-09-09T06:00	22263	40	-57.2	-86.8	25	7
2023-09-09T06:00	22289	40	-57.3	-86.9	30	7
2023-09-09T06:00	22311	40	-57.4	-86.9	34	6
2023-09-09T06:00	22336	40	-57.4	-86.9	36	6
2023-09-09T06:00	22361	40	-57.6	-87.1	36	6
2023-09-09T06:00	22388	40	-57.6	-87.1	35	6
2023-09-09T06:00	22415	39	-57.6	-87.1	32	6
2023-09-09T06:00	22440	39	-57.6	-87.1	30	6
2023-09-09T06:00	22467	39	-57.5	-87.0	29	7
2023-09-09T06:00	22496	39	-57.5	-87.0	29	7
2023-09-09T06:00	22518	39	-57.6	-87.1	31	7
2023-09-09T06:00	22548	39	-57.7	-87.2	35	8
2023-09-09T06:00	22573	38	-57.7	-87.2	40	8
2023-09-09T06:00	22597	38	-57.4	-87.5	44	8
2023-09-09T06:00	22631	38	-57.3	-87.4	49	8
2023-09-09T06:00	22650	38	-57.3	-86.9	53	8
2023-09-09T06:00	22682	38	-57.4	-86.9	58	8
2023-09-09T06:00	22709	38	-57.5	-87.0	63	8
2023-09-09T06:00	22734	38	-57.4	-87.5	67	7
2023-09-09T06:00	22761	37	-57.3	-87.4	71	7
2023-09-09T06:00	22786	37	-57.0	-87.2	73	7
2023-09-09T06:00	22811	37	-56.7	-86.9	75	7
2023-09-09T06:00	22841	37	-56.6	-86.9	76	7
2023-09-09T06:00	22863	37	-56.6	-86.9	77	7
2023-09-09T06:00	22893	37	-56.6	-86.9	78	6
2023-09-09T06:00	22920	36	-56.7	-86.9	79	6
2023-09-09T06:00	22942	36	-56.7	-86.9	80	5
2023-09-09T06:00	22964	36	-56.7	-86.9	81	4
2023-09-09T06:00	22994	36	-56.6	-86.9	83	4
2023-09-09T06:00	23014	36	-56.5	-86.8	86	3
2023-09-09T06:00	23050	36	-56.5	-86.8	88	3
2023-09-09T06:00	23065	36	-56.6	-86.9	90	3
2023-09-09T06:00	23092	35	-56.6	-86.9	91	3
2023-09-09T06:00	23122	35	-56.6	-86.9	90	3
2023-09-09T06:00	23147	35	-56.6	-86.9	90	3
2023-09-09T06:00	23172	35	-56.4		90	3
2023-09-09T06:00	23194	35	-56.0	-87.0	91	3
2023-09-09T06:00	23225	35	-55.8	-86.9	93	3
2023-09-09T06:00	23245	35	-55.7	-86.8	96	3
2023-09-09T06:00	23274	34	-55.8	-86.3	98	2
2023-09-09T06:00	23296	34	-55.9	-86.3	96	2
2023-09-09T06:00	23324	34	-56.1	-86.5	92	2
2023-09-09T06:00	23355	34	-56.2	-86.6	86	2
2023-09-09T06:00	23379	34	-56.4		83	2
2023-09-09T06:00	23403	34	-56.6	-86.9	84	2
2023-09-09T06:00	23434	34	-56.6	-86.9	87	3
2023-09-09T06:00	23454	33	-56.5	-86.8	90	3
2023-09-09T06:00	23488	33	-56.5	-86.8	92	3
2023-09-09T06:00	23508	33	-56.4		92	4
2023-09-09T06:00	23539	33	-56.5	-86.8	91	4
2023-09-09T06:00	23564	33	-56.6	-86.9	87	4
2023-09-09T06:00	23593	33	-56.8	-87.0	82	4
2023-09-09T06:00	23622	33	-56.9	-87.1	77	3
2023-09-09T06:00	23641	32	-56.8	-87.0	71	3
2023-09-09T06:00	23669	32	-56.7	-86.9	64	2
2023-09-09T06:00	23698	32	-56.8	-87.0	53	2
2023-09-09T06:00	23724	32	-56.9	-87.1	38	2
2023-09-09T06:00	23750	32	-57.1	-87.2	22	1
2023-09-09T06:00	23779	32	-57.2	-87.3	17	2
2023-09-09T06:00	23801	32	-57.1	-87.2	21	2
2023-09-09T06:00	23831	32	-57.1	-87.2	30	2
2023-09-09T06:00	23854	31	-57.0	-87.2	39	2
2023-09-09T06:00	23882	31	-56.8	-87.0	47	3
2023-09-09T06:00	23914	31	-56.8	-87.0	52	3
2023-09-09T06:00	23937	31	-56.8	-87.0	56	4
2023-09-09T06:00	23961	31	-56.9	-87.1	60	4
2023-09-09T06:00	23993	31	-57.0	-87.2	63	4
2023-09-09T06:00	24020	31	-56.9	-87.1	66	4
2023-09-09T06:00	24045	31	-56.9	-87.1	69	4
2023-09-09T06:00	24069	30	-56.8	-87.0	69	3
2023-09-09T06:00	24103	30	-56.8	-87.0	65	3
2023-09-09T06:00	24129	30	-56.7	-86.9	55	2
2023-09-09T06:00	24151	30	-56.7	-86.9	42	2
2023-09-09T06:00	24175	30	-56.7	-86.9	34	2
2023-09-09T06:00	24200	30	-56.6	-86.9	34	3
2023-09-09T06:00	24235	30	-56.6	-86.9	38	3
2023-09-09T06:00	24259	29	-56.4		44	3
2023-09-09T06:00	24286	29	-56.3	-86.6	50	4
2023-09-09T06:00	24308	29	-56.4		53	3
2023-09-09T06:00	24341	29	-56.6	-86.9	51	3
2023-09-09T06:00	24365	29	-56.6	-86.9	46	3
2023-09-09T06:00	24390	29	-56.5	-86.8	38	3
2023-09-09T06:00	24415	29	-56.4		32	4
2023-09-09T06:00	24439	29	-56.4		28	4
2023-09-09T06:00	24468	29	-56.3	-86.6	26	4
2023-09-09T06:00	24493	28	-56.3	-87.2	25	4
2023-09-09T06:00	24515	28	-56.2	-87.2	24	3
2023-09-09T06:00	24535	28	-56.1	-87.1	22	3
2023-09-09T06:00	24573	28	-56.0	-87.0	20	3
2023-09-09T06:00	24595	28	-56.0	-87.0	16	3
2023-09-09T06:00	24625	28	-56.0	-87.0	14	3
2023-09-09T06:00	24648	28	-56.0	-86.4	12	3
2023-09-09T06:00	24677	28	-56.0	-86.4	11	3
2023-09-09T06:00	24695	28	-56.0	-86.4	11	3
2023-09-09T06:00	24724	27	-56.0	-87.0	12	3
2023-09-09T06:00	24750	27	-55.9	-86.9	14	3
2023-09-09T06:00	24780	27	-55.9	-86.9	16	4
2023-09-09T06:00	24806	27	-55.6	-86.7	17	4
2023-09-09T06:00	24826	27	-55.3	-87.2	19	5
2023-09-09T06:00	24849	27	-55.1	-87.0	21	5
2023-09-09T06:00	24882	27	-54.8	-86.8	22	5
2023-09-09T06:00	24907	27	-54.2	-86.4	24	6
2023-09-09T06:00	24932	27	-54.0	-86.2	26	6
2023-09-09T06:00	24961	26	-54.0	-86.2	28	7
2023-09-09T06:00	24986	26	-54.0	-86.2	32	7
2023-09-09T06:00	25013	26	-54.0	-86.2	36	7
2023-09-09T06:00	25038	26	-54.1	-85.6	41	6
2023-09-09T06:00	25066	26	-54.3	-85.8	47	6
2023-09-09T06:00	25085	26	-54.5	-85.9	55	5
2023-09-09T06:00	25117	26	-54.4	-85.8	63	5
2023-09-09T06:00	25143	26	-54.3	-85.8	73	4
2023-09-09T06:00	25168	26	-54.4	-85.8	83	4
2023-09-09T06:00	25189	25	-54.2	-86.4	95	4
2023-09-09T06:00	25227	25	-54.0	-86.2	110	4
2023-09-09T06:00	25248	25	-53.9	-86.2	126	3
2023-09-09T06:00	25283	25	-53.9	-86.2	143	4
2023-09-09T06:00	25303	25	-53.9	-86.2	157	4
2023-09-09T06:00	25332	25	-53.9	-86.2	168	4
2023-09-09T06:00	25355	25	-54.0	-85.5	176	5
2023-09-09T06:00	25385	25	-54.1	-85.6	184	5
2023-09-09T06:00	25410	25	-54.2	-85.7	191	5
2023-09-09T06:00	25442	25	-54.4	-85.8	197	5
2023-09-09T06:00	25472	24	-54.5	-85.9	203	5
2023-09-09T06:00	25505	24	-54.4	-85.8	210	4
2023-09-09T06:00	25528	24	-54.2	-85.7	216	4
2023-09-09T06:00	25558	24	-54.2	-85.7	223	4
2023-09-09T06:00	25589	24	-54.2	-85.7	229	4
2023-09-09T06:00	25606	24	-54.3	-85.8	234	4
2023-09-09T06:00	25644	24	-54.3	-85.8	239	5
2023-09-09T06:00	25672	24	-54.4	-85.8	245	4
2023-09-09T06:00	25697	24	-54.4	-85.8	254	4
2023-09-09T06:00	25728	23	-54.3	-85.8	266	4
2023-09-09T06:00	25755	23	-54.3	-86.4	279	4
2023-09-09T06:00	25787	23	-54.3	-86.4	291	4
2023-09-09T06:00	25813	23	-54.3	-86.4	300	4
2023-09-09T06:00	25837	23	-54.1	-86.3	308	4
2023-09-09T06:00	25861	23	-54.0	-86.2	315	4
2023-09-09T06:00	25890	23	-54.0	-86.2	324	4
2023-09-09T06:00	25922	23	-54.1	-86.3	335	4
2023-09-09T06:00	25946	23	-54.3	-85.8	348	3
2023-09-09T06:00	25967	23	-54.4	-85.8	1	4
2023-09-09T06:00	25999	22	-54.6	-86.0	12	4
2023-09-09T06:00	26031	22	-54.7	-86.1	21	4
2023-09-09T06:00	26057	22	-54.8	-86.1	28	4
2023-09-09T06:00	26078	22	-54.8	-86.1	35	4
2023-09-09T06:00	26102	22	-54.9	-86.2	42	4
2023-09-09T06:00	26139	22	-54.8	-86.1	50	5
2023-09-09T06:00	26164	22	-54.8	-86.1	58	5
2023-09-09T06:00	26192	22	-54.8	-86.1	66	5
2023-09-09T06:00	26214	22	-54.8	-86.1	73	4
2023-09-09T06:00	26251	22	-54.8	-86.1	80	4
2023-09-09T06:00	26279	22	-54.8	-86.1	87	4
2023-09-09T06:00	26299	21	-54.7	-86.1	96	3
2023-09-09T06:00	26333	21	-54.6	-86.0	106	2
2023-09-09T06:00	26357	21	-54.6	-86.0	120	1
2023-09-09T06:00	26383	21	-54.6	-86.0	146	1
2023-09-09T06:00	26408	21	-54.7	-86.1	208	0
2023-09-09T06:00	26437	21	-54.9	-86.2	249	1
2023-09-09T06:00	26466	21	-55.0	-86.3	260	1
2023-09-09T06:00	26494	21	-54.9	-86.2	263	1
2023-09-09T06:00	26524	21	-54.7	-86.7	266	1
2023-09-09T06:00	26544	21	-54.4	-86.5	271	2
2023-09-09T06:00	26577	21	-54.1	-86.3	282	2
2023-09-09T06:00	26607	20	-53.9	-86.2	299	2
2023-09-09T06:00	26635	20	-53.8	-86.1	318	2
2023-09-09T06:00	26660	20	-53.8	-86.1	334	3
2023-09-09T06:00	26692	20	-53.7	-86.0	345	4
2023-09-09T06:00	26722	20	-53.5	-85.9	353	4
2023-09-09T06:00	26753	20	-53.4	-85.8	359	4
2023-09-09T06:00	26776	20	-53.2	-86.4	4	4
2023-09-09T06:00	26798	20	-53.1	-86.3	10	4
2023-09-09T06:00	26834	20	-53.1	-86.3	17	4
2023-09-09T06:00	26856	20	-53.0	-86.3	25	3
2023-09-09T06:00	26892	20	-52.9	-86.2	33	3
2023-09-09T06:00	26913	19	-52.7	-86.0	41	3
2023-09-09T06:00	26952	19	-52.6		49	2
2023-09-09T06:00	26966	19	-52.6		59	2
2023-09-09T06:00	27002	19	-52.5	-85.9	75	1
2023-09-09T06:00	27023	19	-52.3	-85.8	102	1
2023-09-09T06:00	27055	19	-52.2	-85.7	139	1
2023-09-09T06:00	27080	19	-52.2	-85.7	167	1
2023-09-09T06:00	27112	19	-52.2	-85.7	186	1
2023-09-09T06:00	27155	19	-52.2	-85.7	212	1
2023-09-09T06:00	27179	19	-51.9	-85.5	269	1
2023-09-09T06:00	27196	19	-51.6	-85.2	311	1
2023-09-09T06:00	27224	19	-51.5	-85.2	321	2
2023-09-09T06:00	27243	19	-51.4	-86.0	320	2
2023-09-09T06:00	27283	18	-51.2	-85.8	311	2
2023-09-09T06:00	27298	18	-50.8	-85.6	299	2
2023-09-09T06:00	27338	18	-50.4	-85.3	288	2
2023-09-09T06:00	27365	18	-50.1	-85.1	279	3
2023-09-09T06:00	27385	18	-50.1	-85.1	274	3
2023-09-09T06:00	27405	18	-50.0	-85.0	269	3
2023-09-09T06:00	27437	18	-49.9	-84.9	264	4
2023-09-09T06:00	27471	18	-49.8	-84.8	260	4
2023-09-09T06:00	27500	18	-49.8	-84.8	259	4
2023-09-09T06:00	27527	18	-49.8	-84.8	261	5
2023-09-09T06:00	27553	18	-49.8	-84.8	267	4
2023-09-09T06:00	27583	18	-49.7	-84.8	278	4
2023-09-09T06:00	27613	18	-49.6	-84.7	293	4
2023-09-09T06:00	27636	17	-49.5	-84.6	310	4
2023-09-09T06:00	27658	17	-49.5	-84.6	324	4
2023-09-09T06:00	27690	17	-49.6	-84.7	333	5
2023-09-09T06:00	27724	17	-49.6	-84.7	338	4
2023-09-09T06:00	27749	17	-49.4	-84.6	341	4
2023-09-09T06:00	27771	17	-49.1	-84.3	342	3
2023-09-09T06:00	27799	17	-48.9	-84.2	341	3
2023-09-09T06:00	27838	17	-48.8	-84.1	340	2
2023-09-09T06:00	27855	17	-48.8	-84.1	336	2
2023-09-09T06:00	27887	17	-48.9	-84.2	327	1
2023-09-09T06:00	27919	17	-49.0	-84.3	311	1
2023-09-09T06:00	27943	17	-49.1	-84.3	294	2
2023-09-09T06:00	27975	17	-49.2	-84.4	280	2
2023-09-09T06:00	27999	17	-49.3	-84.5	270	3
2023-09-09T06:00	28025	16	-49.5	-84.6	264	3
2023-09-09T06:00	28059	16	-49.5	-84.6	261	4
2023-09-09T06:00	28092	16	-49.6	-84.7	261	5
2023-09-09T06:00	28108	16	-49.5	-84.6	263	5
2023-09-09T06:00	28140	16	-49.5	-84.6	268	6
2023-09-09T06:00	28181	16	-49.5	-84.6	272	7
2023-09-09T06:00	28202	16	-49.4	-84.6	276	8
2023-09-09T06:00	28226	16	-49.2	-84.4	280	8
2023-09-09T06:00	28261	16	-49.1	-84.3	284	9
2023-09-09T06:00	28284	16	-49.1	-84.3	288	10
2023-09-09T06:00	28302	16	-49.2	-84.4	292	10
2023-09-09T06:00	28355	16	-49.3	-84.5	297	10
2023-09-09T06:00	28370	16	-49.3	-84.5	302	10
2023-09-09T06:00	28387	16	-49.2	-84.4	306	10
2023-09-09T06:00	28425	15	-49.0	-84.3	310	10
2023-09-09T06:00	28456	15	-49.0	-84.3	312	9
2023-09-09T06:00	28489	15	-49.1	-84.3	315	9
2023-09-09T06:00	28503	15	-49.2	-84.4	316	9
2023-09-09T06:00	28529	15	-49.2	-84.4	318	9
2023-09-09T06:00	28578	15	-49.2	-84.4	319	9
2023-09-09T06:00	28621	15	-49.3	-84.5	321	9
2023-09-09T06:00	28626	15	-49.3	-84.5	323	9
2023-09-09T06:00	28663	15	-49.4	-84.6	325	9
2023-09-09T06:00	28693	15	-49.6	-84.7	327	9
2023-09-09T06:00	28712	15	-49.7	-84.8	329	9
2023-09-09T06:00	28736	15	-49.6	-84.7	330	9
2023-09-09T06:00	28764	15	-49.4	-84.6	332	9
2023-09-09T06:00	28802	15	-49.2	-84.4	332	9
2023-09-09T06:00	28838	15	-48.9	-84.2	333	8
2023-09-09T06:00	28865	14	-48.7	-84.1	334	7
2023-09-09T06:00	28891	14	-48.6		334	7
2023-09-09T06:00	28940	14	-48.4	-84.9	334	6
2023-09-09T06:00	28945	14	-48.3	-84.8	334	6
2023-09-09T06:00	28976	14	-48.1	-84.7	332	6
2023-09-09T06:00	29018	14	-47.9	-84.6	331	6
2023-09-09T06:00	29040	14	-47.7	-84.4	330	6
2023-09-09T06:00	29068	14	-47.5	-84.3	331	6
2023-09-09T06:00	29106	14	-47.2	-84.1	333	6
2023-09-09T06:00	29139	14	-47.0	-83.9	338	6
2023-09-09T06:00	29151	14	-47.0	-83.9	345	6
2023-09-09T06:00	29187	14	-47.0	-83.9	352	5
2023-09-09T06:00	29209	14	-47.0	-83.9	0	5
2023-09-09T06:00	29248	14	-47.1	-84.0	8	5
2023-09-09T06:00	29272	14	-47.0	-83.9	15	4
2023-09-09T06:00	29306	14	-46.9	-83.9	21	3
2023-09-09T06:00	29329	13	-46.5	-83.6	24	2
2023-09-09T06:00	29375	13	-46.3	-83.4	22	2
2023-09-09T06:00	29389	13	-46.3	-83.4	358	1
2023-09-09T06:00	29410	13	-46.4	-83.5	299	1
2023-09-09T06:00	29459	13	-46.2	-83.4	285	2
2023-09-09T06:00	29483	13	-45.8	-83.1	285	3
2023-09-09T06:00	29501	13	-45.5	-82.9	289	4
2023-09-09T06:00	29542	13	-45.2	-82.7	293	5
2023-09-09T06:00	29569	13	-45.0	-82.5	295	5
2023-09-09T06:00	29588	13	-45.0	-82.5	298	6
2023-09-09T06:00	29629	13	-45.0	-82.5	301	7
2023-09-09T06:00	29638	13	-44.9	-82.5	305	7
2023-09-09T06:00	29687	13	-44.9	-82.5	309	8
2023-09-09T06:00	29700	13	-44.9	-82.5	315	8
2023-09-09T06:00	29736	13	-45.0	-82.5	320	8
2023-09-09T06:00	29768	13	-45.0	-82.5	325	8
2023-09-09T06:00	29795	13	-44.9	-82.5	329	8
2023-09-09T06:00	29812	13	-44.9	-82.5	333	8
2023-09-09T06:00	29871	12	-45.1	-82.6	337	8
2023-09-09T06:00	29876	12	-45.3	-82.7	341	8
2023-09-09T06:00	29906	12	-45.5	-82.9	345	8
2023-09-09T06:00	29944	12	-45.6	-82.9	349	8
2023-09-09T06:00	29972	12	-45.6	-82.9	353	8
2023-09-09T06:00	29991	12	-45.7	-83.0	355	8
2023-09-09T06:00	30010	12	-45.8	-83.1	356	8
2023-09-09T06:00	30051	12	-45.8	-83.1	354	7
2023-09-09T06:00	30093	12	-45.5	-82.9	351	6
2023-09-09T06:00	30107	12	-45.2	-82.7	345	5
2023-09-09T06:00	30154	12	-45.1	-82.6	336	4
2023-09-09T06:00	30158	12	-45.2	-82.7	323	4
2023-09-09T06:00	30201	12	-45.2	-82.7	309	3
2023-09-09T06:00	30224	12	-45.3	-82.7	298	3
2023-09-09T06:00	30252	12	-45.3	-82.7	290	3
2023-09-09T06:00	30275	12	-45.2	-82.7	285	3
2023-09-09T06:00	30302	12	-45.1	-82.6	281	3
2023-09-09T06:00	30342	12	-45.0	-82.5	277	4
2023-09-09T06:00	30359	12	-44.8	-82.4	271	4
2023-09-09T06:00	30400	12	-44.7	-82.3	265	5
2023-09-09T06:00	30432	11	-44.5	-82.2	259	6
2023-09-09T06:00	30457	11	-44.4	-82.1	253	6
2023-09-09T06:00	30478	11	-44.3	-82.0	248	7
2023-09-09T06:00	30502	11	-44.3	-82.0	245	7
2023-09-09T06:00	30533	11	-44.2	-82.0	243	8
2023-09-09T06:00	30573	11	-44.0	-81.8	243	8
2023-09-09T06:00	30612	11	-43.9	-81.8	245	7
2023-09-09T06:00	30617	11	-43.8	-81.7	249	7
2023-09-09T06:00	30645	11	-43.9	-81.8	255	6
2023-09-09T06:00	30673	11	-44.0	-81.8	262	6
2023-09-09T06:00	30713	11	-44.2	-82.0	269	6
2023-09-09T06:00	30734	11	-44.3	-82.0	273	5
2023-09-09T06:00	30777	11	-44.4	-82.1	275	5
2023-09-09T06:00	30800	11	-44.4	-82.1	275	5
2023-09-09T06:00	30814	11	-44.4	-82.1	274	5
2023-09-09T06:00	30852	11	-44.3	-82.0	275	5
2023-09-09T06:00	30895	11	-44.3	-82.0	278	5
2023-09-09T06:00	30953	11	-44.3	-82.0	291	4
2023-09-09T06:00	30978	11	-44.4	-82.1	300	4
2023-09-09T06:00	31011	11	-44.5	-82.2	310	4
2023-09-09T06:00	31022	10	-44.5	-82.2	322	4
2023-09-09T06:00	31070	10	-44.3	-82.0	335	4
2023-09-09T06:00	31074	10	-44.1	-81.9	348	4
2023-09-09T06:00	31122	10	-43.9	-81.8	359	4
2023-09-09T06:00	31143	10	-43.7	-81.6	9	4
2023-09-09T06:00	31189	10	-43.5	-81.5	18	4
2023-09-09T06:00	31210	10	-43.2	-81.3	27	4
2023-09-09T06:00	31240	10	-42.8	-81.0	37	4
2023-09-09T06:00	31266	10	-42.5	-80.8	47	3
2023-09-09T06:00	31311	10	-42.2	-80.6	58	3
2023-09-09T06:00	31330	10	-41.9	-80.4	72	3
2023-09-09T06:00	31353	10	-41.7	-80.2	92	2
2023-09-09T06:00	31388	10	-41.6	-80.1	116	2
2023-09-09T06:00	31423	10	-41.7	-80.2	138	2
2023-09-09T06:00	31440	10	-41.8	-80.3	153	2
2023-09-09T06:00	31474	10	-42.0	-80.4	164	3
2023-09-09T06:00	31516	10	-42.2	-80.6	172	3
2023-09-09T06:00	31560	10	-42.5	-80.8	178	4
2023-09-09T06:00	31589	10	-43.0	-81.1	187	5
2023-09-09T06:00	31626	10	-43.2	-81.3	191	5
2023-09-09T06:00	31647	10	-43.4	-81.4	195	6
2023-09-09T06:00	31693	10	-43.6	-81.5	200	6
2023-09-09T06:00	31709	9	-43.7	-81.6	205	6
2023-09-09T06:00	31748	9	-43.7	-81.6	211	7
2023-09-09T06:00	31761	9	-43.7	-81.6	216	7
2023-09-09T06:00	31799	9	-43.7	-81.6	222	7
2023-09-09T06:00	31838	9	-43.7	-81.6	227	8
2023-09-09T06:00	31859	9	-43.7	-81.6	231	9
2023-09-09T06:00	31893	9	-43.7	-81.6	236	9
2023-09-09T06:00	31913	9	-43.6	-81.5	239	10
2023-09-09T06:00	31937	9	-43.3	-81.3	243	10
2023-09-09T06:00	31965	9	-43.1	-81.2	245	9
2023-09-09T06:00	32010	9	-43.0	-81.1	247	8
2023-09-09T06:00	32029	9	-42.9	-81.1	248	7
2023-09-09T06:00	32037	9	-42.8	-81.0	250	6
2023-09-09T06:00	32101	9	-42.8	-81.0	254	5
2023-09-09T06:00	32122	9	-42.8	-81.0	261	4
2023-09-09T06:00	32159	9	-42.7	-80.9	272	4
2023-09-09T06:00	32224	9	-42.6	-80.8	296	4
2023-09-09T06:00	32238	9	-42.6	-80.8	303	4
2023-09-09T06:00	32253	9	-42.7	-80.9	309	3
2023-09-09T06:00	32296	9	-42.7	-80.9	314	3
2023-09-09T06:00	32327	9	-42.6	-80.8	321	2
2023-09-09T06:00	32364	9	-42.5	-80.8	334	2
2023-09-09T06:00	32372	9	-42.5	-80.8	354	1
2023-09-09T06:00	32407	9	-42.7	-80.9	9	1
2023-09-09T06:00	32421	9	-42.7	-80.9	9	1
2023-09-09T06:00	32455	8	-42.4	-80.7	351	1
2023-09-09T06:00	32490	8	-42.2	-80.6	327	2
2023-09-09T06:00	32526	8	-42.1	-80.5	311	2
2023-09-09T06:00	32554	8	-41.9	-80.4	301	3
2023-09-09T06:00	32584	8	-41.8	-80.3	295	4
2023-09-09T06:00	32611	8	-41.8	-80.3	290	5
2023-09-09T06:00	32642	8	-41.7	-80.2	286	5
2023-09-09T06:00	32667	8	-41.7	-80.2	282	4
2023-09-09T06:00	32709	8	-41.7	-80.2	279	4
2023-09-09T06:00	32771	8	-41.6	-80.1	276	4
2023-09-09T06:00	32772	8	-41.6	-80.1	273	3
2023-09-09T06:00	32777	8	-41.7	-80.2	273	3
2023-09-09T06:00	32821	8	-41.7	-80.2	275	3
2023-09-09T06:00	32829	8	-41.6	-80.1	279	4
2023-09-09T06:00	32866	8	-41.6	-80.1	283	4
2023-09-09T06:00	32898	8	-41.7	-80.2	286	5
2023-09-09T06:00	32907	8	-41.8	-80.3	289	5
2023-09-09T06:00	32960	8	-41.9	-80.4	291	6
2023-09-09T06:00	32973	8	-42.0	-80.4	293	6
2023-09-09T06:00	33014	8	-42.2	-80.6	295	6
2023-09-09T06:00	33037	8	-42.5	-80.8	295	6
2023-09-09T06:00	33063	8	-42.6	-80.8	296	6
2023-09-09T06:00	33101	8	-42.5	-80.8	295	6
2023-09-09T06:00	33137	8	-42.5	-80.8	295	7
2023-09-09T06:00	33188	8	-42.4	-80.7	295	7
2023-09-09T06:00	33203	8	-42.3	-80.6	296	7
2023-09-09T06:00	33214	8	-42.4	-80.7	298	7
2023-09-09T06:00	33253	8	-42.5	-80.8	300	7
2023-09-09T06:00	33264	8	-42.5	-80.8	303	7
2023-09-09T06:00	33323	7	-42.5	-80.8	306	6
2023-09-09T06:00	33342	7	-42.7	-80.9	310	5
2023-09-09T06:00	33383	7	-42.8	-81.0	314	5
2023-09-09T06:00	33443	7	-42.8	-81.0	325	3
2023-09-09T06:00	33489	7	-42.8	-81.0	334	3
2023-09-09T06:00	33497	7	-42.9	-81.1	346	2
2023-09-09T06:00	33518	7	-42.9	-81.1	357	2
2023-09-09T06:00	33529	7	-42.9	-81.1	5	2
2023-09-09T06:00	33590	7	-42.8	-81.0	8	2
2023-09-09T06:00	33608	7	-42.7	-80.9	5	2
2023-09-09T06:00	33625	7	-42.5	-80.8	1	2
2023-09-09T06:00	33685	7	-42.3	-80.6	355	2
2023-09-09T06:00	33706	7	-42.1	-80.5	350	2
2023-09-09T06:00	33738	7	-42.0	-80.4	341	1
2023-09-09T06:00	33800	7	-41.8	-80.3	309	2
2023-09-09T06:00	33809	7	-41.6	-80.1	294	2
2023-09-09T06:00	33835	7	-41.4	-80.0	282	2
2023-09-09T06:00	33880	7	-41.1	-79.8	274	2
2023-09-09T06:00	33932	7	-40.8	-79.6	266	2
2023-09-09T06:00	33941	7	-40.1	-79.1	253	2
2023-09-09T06:00	33982	7	-39.4	-78.6	250	3
2023-09-09T06:00	34017	7	-38.8	-78.2	250	3
2023-09-09T06:00	34028	7	-38.5	-78.0	251	4
2023-09-09T06:00	34094	7	-38.4	-77.9	253	4
2023-09-09T06:00	34122	7	-38.2	-77.8	255	4
2023-09-09T06:00	34124	7	-37.8	-77.5	260	4
2023-09-09T06:00	34137	7	-37.4	-77.2	266	4
2023-09-09T06:00	34167	7	-37.1	-77.0	272	4
2023-09-09T06:00	34222	7	-36.9	-76.9	277	5
2023-09-09T06:00	34238	7	-36.8	-76.8	279	5
2023-09-09T06:00	34273	7	-36.7	-76.7	278	5
2023-09-09T06:00	34294	6	-36.5	-76.6	273	4
2023-09-09T06:00	34316	6	-36.4	-76.5	265	4
2023-09-09T06:00	34362	6	-36.1	-76.3	253	3
2023-09-09T06:00	34394	6	-35.8	-76.1	242	2
2023-09-09T06:00	34406	6	-35.6	-76.0	241	1
2023-09-09T12:00	-999					
2023-09-09T12:00	132	1004	26.5	12.7	153	3
2023-09-09T12:00	164	1000	25.8	12.1	151	4
2023-09-09T12:00	193	997	25.1	11.5	149	6
2023-09-09T12:00	212	995	24.9	11.3	147	7
2023-09-09T12:00	238	992	24.6	11.3	145	8
2023-09-09T12:00	263	989	24.3	11.2	143	8
2023-09-09T12:00	283	987	24.1	11.1	141	8
2023-09-09T12:00	302	984	23.9	11.3	140	9
2023-09-09T12:00	329	981	23.7	11.4	140	9
2023-09-09T12:00	352	979	23.5	11.5	141	9
2023-09-09T12:00	378	976	23.2	11.5	143	8
2023-09-09T12:00	403	973	23.0	11.5	145	8
2023-09-09T12:00	427	970	22.7	11.4	148	8
2023-09-09T12:00	454	968	22.5	11.4	150	8
2023-09-09T12:00	478	965	22.2	11.4	152	7
2023-09-09T12:00	506	962	21.9	11.1	154	7
2023-09-09T12:00	535	959	21.6	11.2	156	7
2023-09-09T12:00	561	955	21.4	11.2	157	7
2023-09-09T12:00	594	952	21.1	11.2	158	7
2023-09-09T12:00	622	949	20.9	11.1	159	7
2023-09-09T12:00	651	946	20.6	11.1	159	7
2023-09-09T12:00	684	942	20.2	11.1	158	7
2023-09-09T12:00	724	938	19.9	11.0	158	7
2023-09-09T12:00	757	934	19.5	10.9	158	7
2023-09-09T12:00	794	930	19.2	10.9	157	7
2023-09-09T12:00	828	927	18.9	10.8	157	7
2023-09-09T12:00	855	924	18.6	10.8	158	7
2023-09-09T12:00	880	921	18.4	10.8	158	7
2023-09-09T12:00	911	918	18.1	10.7	159	7
2023-09-09T12:00	937	915	17.9	10.0	160	7
2023-09-09T12:00	966	912	17.8	9.1	161	7
2023-09-09T12:00	994	909	17.6	9.5	164	8
2023-09-09T12:00	1024	906	17.1	10.1	167	8
2023-09-09T12:00	1053	903	17.1	8.1	170	8
2023-09-09T12:00	1082	900	17.1		173	8
2023-09-09T12:00	1105	897	16.9	7.3	176	8
2023-09-09T12:00	1129	894	16.9	5.7	177	7
2023-09-09T12:00	1159	891	17.0	3.5	178	7
2023-09-09T12:00	1186	888	17.2	1.0	180	6
2023-09-09T12:00	1215	886	17.8	-5.9	182	6
2023-09-09T12:00	1241	883	17.8	-7.0	183	6
2023-09-09T12:00	1266	880	17.7	-8.4	183	6
2023-09-09T12:00	1298	877	17.7	-11.0	183	6
2023-09-09T12:00	1326	874	18.0	-15.4	184	6
2023-09-09T12:00	1350	871	18.8	-15.5	186	6
2023-09-09T12:00	1377	869	19.0	-15.2	190	5
2023-09-09T12:00	1409	866	18.8	-14.7	195	5
2023-09-09T12:00	1437	863	19.1	-13.7	202	5
2023-09-09T12:00	1462	860	19.0	-14.1	208	5
2023-09-09T12:00	1482	858	18.8	-15.0	213	5
2023-09-09T12:00	1503	856	18.8	-15.2	217	5
2023-09-09T12:00	1521	854	18.6	-14.6	221	5
2023-09-09T12:00	1553	851	18.4	-14.2	224	4
2023-09-09T12:00	1583	848	18.4	-15.7	226	4
2023-09-09T12:00	1604	846	18.3	-16.1	225	4
2023-09-09T12:00	1630	844	18.1	-17.0	222	4
2023-09-09T12:00	1657	841	18.1	-18.2	217	4
2023-09-09T12:00	1686	838	17.8	-18.2	212	4
2023-09-09T12:00	1708	836	17.7	-18.3	208	4
2023-09-09T12:00	1731	834	17.6	-18.9	205	4
2023-09-09T12:00	1758	831	17.5	-19.0	204	4
2023-09-09T12:00	1785	828	17.4	-18.9	205	4
2023-09-09T12:00	1814	825	17.2	-18.8	206	4
2023-09-09T12:00	1843	823	17.0	-18.9	206	4
2023-09-09T12:00	1864	821	16.9	-19.2	205	5
2023-09-09T12:00	1892	818	16.9	-19.6	203	5
2023-09-09T12:00	1921	815	16.8	-19.8	201	5
2023-09-09T12:00	1942	813	16.8	-20.0	200	5
2023-09-09T12:00	1968	811	16.9	-21.2	198	5
2023-09-09T12:00	1995	808	17.1	-23.4	196	4
2023-09-09T12:00	2024	805	17.1	-23.4	194	4
2023-09-09T12:00	2054	803	16.9	-24.1	192	4
2023-09-09T12:00	2080	800	16.9	-23.0	191	4
2023-09-09T12:00	2104	798	16.7	-22.4	191	4
2023-09-09T12:00	2133	795	16.4	-22.1	190	4
2023-09-09T12:00	2159	793	16.2	-21.0	189	4
2023-09-09T12:00	2184	790	16.0	-20.5	188	4
2023-09-09T12:00	2206	788	15.9	-20.8	189	4
2023-09-09T12:00	2227	786	15.9	-21.2	192	4
2023-09-09T12:00	2254	784	15.7	-21.5	197	4
2023-09-09T12:00	2284	781	15.5	-22.5	203	4
2023-09-09T12:00	2313	778	15.4	-23.3	208	4
2023-09-09T12:00	2337	776	15.3	-23.6	210	4
2023-09-09T12:00	2366	773	15.1	-23.7	210	4
2023-09-09T12:00	2402	770	14.9	-24.1	209	4
2023-09-09T12:00	2429	768	14.8	-23.9	208	4
2023-09-09T12:00	2457	765	14.6	-21.5	207	4
2023-09-09T12:00	2480	763	14.5	-22.7	204	4
2023-09-09T12:00	2501	761	14.4	-23.9	200	4
2023-09-09T12:00	2520	759	14.4	-26.3	197	4
2023-09-09T12:00	2544	757	14.3	-26.9	194	4
2023-09-09T12:00	2567	755	14.3	-25.2	193	3
2023-09-09T12:00	2594	753	14.2	-23.8	195	3
2023-09-09T12:00	2618	751	14.1	-24.6	199	2
2023-09-09T12:00	2640	749	14.1	-23.9	203	2
2023-09-09T12:00	2655	747	14.1	-25.3	200	2
2023-09-09T12:00	2682	745	14.0	-26.0	190	2
2023-09-09T12:00	2708	743	13.8	-22.4	181	3
2023-09-09T12:00	2732	741	13.6	-21.9	177	4
2023-09-09T12:00	2751	739	13.5	-21.8	174	5
2023-09-09T12:00	2772	737	13.3	-21.8	173	5
2023-09-09T12:00	2796	735	13.1	-21.5	171	5
2023-09-09T12:00	2816	733	13.0	-21.3	168	6
2023-09-09T12:00	2838	731	12.8	-21.2	164	5
2023-09-09T12:00	2862	729	12.6	-21.2	160	5
2023-09-09T12:00	2884	727	12.6	-21.2	156	5
2023-09-09T12:00	2903	726	12.6	-26.3	153	5
2023-09-09T12:00	2925	724	12.7	-30.3	151	4
2023-09-09T12:00	2953	721	12.6	-31.2	149	3
2023-09-09T12:00	2973	719	12.5	-31.3	148	3
2023-09-09T12:00	2996	717	12.4	-31.3	148	3
2023-09-09T12:00	3028	715	12.2	-31.4	148	3
2023-09-09T12:00	3048	713	12.1	-30.3	148	4
2023-09-09T12:00	3075	711	11.9	-30.1	150	4
2023-09-09T12:00	3098	709	11.7	-27.7	153	4
2023-09-09T12:00	3125	707	11.5	-24.7	159	3
2023-09-09T12:00	3143	705	11.4	-22.4	168	3
2023-09-09T12:00	3173	703	11.1	-18.8	178	3
2023-09-09T12:00	3194	701	10.8	-18.1	186	3
2023-09-09T12:00	3216	699	10.7	-17.9	190	3
2023-09-09T12:00	3244	697	10.4	-18.1	189	3
2023-09-09T12:00	3271	694	10.2	-17.3	188	3
2023-09-09T12:00	3299	692	9.9	-17.9	186	3
2023-09-09T12:00	3331	689	9.6	-17.5	186	4
2023-09-09T12:00	3350	688	9.4	-17.0	187	4
2023-09-09T12:00	3372	686	9.2	-17.5	187	4
2023-09-09T12:00	3399	684	9.1	-18.7	185	4
2023-09-09T12:00	3424	681	9.0	-18.7	181	4
2023-09-09T12:00	3452	679	8.8	-18.7	177	5
2023-09-09T12:00	3470	678	8.6	-18.8	174	5
2023-09-09T12:00	3497	676	8.5	-19.1	173	5
2023-09-09T12:00	3521	674	8.3	-19.4	173	5
2023-09-09T12:00	3546	672	8.1	-19.1	177	5
2023-09-09T12:00	3568	670	7.9	-18.2	182	5
2023-09-09T12:00	3596	668	7.6	-17.3	187	5
2023-09-09T12:00	3616	666	7.5	-16.9	190	5
2023-09-09T12:00	3643	664	7.2	-16.3	191	6
2023-09-09T12:00	3672	661	6.9	-16.3	191	6
2023-09-09T12:00	3695	659	6.7	-16.0	190	7
2023-09-09T12:00	3721	658	6.4	-15.4	189	7
2023-09-09T12:00	3744	656	6.2	-16.3	189	6
2023-09-09T12:00	3774	653	5.9	-15.8	190	6
2023-09-09T12:00	3800	651	5.6	-15.2	192	5
2023-09-09T12:00	3821	649	5.4	-15.1	195	5
2023-09-09T12:00	3844	648	5.2	-15.1	196	5
2023-09-09T12:00	3870	646	5.0	-15.0	195	5
2023-09-09T12:00	3898	643	4.7	-15.3	191	5
2023-09-09T12:00	3921	641	4.4	-15.3	187	5
2023-09-09T12:00	3948	639	4.2	-15.2	181	4
2023-09-09T12:00	3972	638	4.0	-15.1	176	4
2023-09-09T12:00	3992	636	3.8	-15.2	175	4
2023-09-09T12:00	4017	634	3.5	-15.3	177	4
2023-09-09T12:00	4045	632	3.2	-15.4	182	4
2023-09-09T12:00	4069	630	3.0	-15.5	188	4
2023-09-09T12:00	4090	628	2.8	-15.6	192	5
2023-09-09T12:00	4111	626	2.6	-16.1	194	5
2023-09-09T12:00	4143	624	2.3	-18.0	194	5
2023-09-09T12:00	4165	622	2.1	-18.9	192	4
2023-09-09T12:00	4188	621	2.0	-19.6	186	4
2023-09-09T12:00	4209	619	1.7	-19.5	176	4
2023-09-09T12:00	4236	617	1.5	-19.5	163	4
2023-09-09T12:00	4259	615	1.3	-19.0	154	4
2023-09-09T12:00	4274	614	1.1	-19.1	150	4
2023-09-09T12:00	4302	612	0.9	-19.0	151	4
2023-09-09T12:00	4326	610	0.6	-18.9	157	4
2023-09-09T12:00	4346	608	0.5	-18.8	165	4
2023-09-09T12:00	4375	606	0.2	-18.5	173	4
2023-09-09T12:00	4400	605	0.0	-18.2	180	4
2023-09-09T12:00	4425	603	-0.3	-17.9	183	4
2023-09-09T12:00	4453	601	-0.6	-17.3	180	3
2023-09-09T12:00	4473	599	-0.8		173	4
2023-09-09T12:00	4506	597	-1.0	-17.6	167	4
2023-09-09T12:00	4528	595	-1.3	-17.6	165	4
2023-09-09T12:00	4553	593	-1.5	-17.6	167	4
2023-09-09T12:00	4574	591	-1.7	-17.7	171	4
2023-09-09T12:00	4596	590	-1.9	-17.6	175	4
2023-09-09T12:00	4622	588	-2.1	-17.6	176	4
2023-09-09T12:00	4644	586	-2.3	-17.9	174	4
2023-09-09T12:00	4669	584	-2.4	-18.2	172	4
2023-09-09T12:00	4702	582	-2.6	-19.9	169	4
2023-09-09T12:00	4728	580	-2.7	-21.3	168	5
2023-09-09T12:00	4759	578	-2.6	-24.9	167	5
2023-09-09T12:00	4785	576	-2.7	-26.5	167	5
2023-09-09T12:00	4809	574	-2.5	-30.1	166	5
2023-09-09T12:00	4834	573	-2.6	-29.0	166	5
2023-09-09T12:00	4853	571	-2.7	-28.2	165	5
2023-09-09T12:00	4878	569	-2.8	-27.6	164	4
2023-09-09T12:00	4909	567	-2.9	-22.9	162	4
2023-09-09T12:00	4930	565	-3.1	-21.9	160	3
2023-09-09T12:00	4954	564	-3.3	-22.3	159	3
2023-09-09T12:00	4984	562	-3.5	-22.4	160	3
2023-09-09T12:00	5006	560	-3.7	-22.9	162	3
2023-09-09T12:00	5031	558	-3.9	-23.2	165	3
2023-09-09T12:00	5056	557	-4.1	-23.3	169	3
2023-09-09T12:00	5078	555	-4.3	-22.8	173	2
2023-09-09T12:00	5100	553	-4.5	-22.7	177	2
2023-09-09T12:00	5124	552	-4.7	-22.7	185	1
2023-09-09T12:00	5146	550	-4.9	-22.8	210	1
2023-09-09T12:00	5173	548	-5.1	-23.5	264	1
2023-09-09T12:00	5205	546	-5.1	-27.3	277	1
2023-09-09T12:00	5222	545	-5.2	-27.9	266	1
2023-09-09T12:00	5247	543	-5.2	-28.0	250	2
2023-09-09T12:00	5273	541	-5.4	-28.1	236	2
2023-09-09T12:00	5298	540	-5.6	-28.1	230	3
2023-09-09T12:00	5320	538	-5.7	-28.0	229	3
2023-09-09T12:00	5347	536	-5.9	-27.9	233	3
2023-09-09T12:00	5377	534	-6.1	-27.7	237	4
2023-09-09T12:00	5408	532	-6.3	-27.4	240	4
2023-09-09T12:00	5432	530	-6.5	-26.7	240	4
2023-09-09T12:00	5458	529	-6.6	-26.3	238	4
2023-09-09T12:00	5481	527	-6.7	-27.4	234	4
2023-09-09T12:00	5498	526	-6.8	-28.1	227	4
2023-09-09T12:00	5525	524	-6.9	-26.8	219	4
2023-09-09T12:00	5550	523	-7.1	-27.5	212	4
2023-09-09T12:00	5576	521	-7.3	-26.9	207	5
2023-09-09T12:00	5606	519	-7.3	-28.9	205	5
2023-09-09T12:00	5628	517	-7.5	-29.3	203	5
2023-09-09T12:00	5661	515	-7.6	-29.7	203	4
2023-09-09T12:00	5692	513	-7.8	-29.1	202	4
2023-09-09T12:00	5713	512	-7.9	-28.4	202	4
2023-09-09T12:00	5731	510	-8.1	-28.1	202	3
2023-09-09T12:00	5761	509	-8.3	-28.2	204	3
2023-09-09T12:00	5785	507	-8.5	-28.6	207	3
2023-09-09T12:00	5803	506	-8.7	-29.0	213	2
2023-09-09T12:00	5826	504	-8.7	-31.9	219	2
2023-09-09T12:00	5861	502	-8.8		226	2
2023-09-09T12:00	5885	501	-8.9	-32.6	233	1
2023-09-09T12:00	5905	499	-9.0	-33.9	240	1
2023-09-09T12:00	5925	498	-9.1	-34.7	245	1
2023-09-09T12:00	5943	497	-9.2	-35.0	248	1
2023-09-09T12:00	5965	495	-9.4	-35.2	249	1
2023-09-09T12:00	5994	493	-9.6	-35.3	249	1
2023-09-09T12:00	6024	492	-9.8	-35.2	253	1
2023-09-09T12:00	6043	490	-10.0	-35.2	272	0
2023-09-09T12:00	6070	489	-10.2	-35.0	291	1
2023-09-09T12:00	6091	487	-10.4	-34.5	298	1
2023-09-09T12:00	6119	486	-10.6	-34.1	303	2
2023-09-09T12:00	6142	484	-10.8	-33.6	307	2
2023-09-09T12:00	6173	482	-11.1	-33.6	309	3
2023-09-09T12:00	6197	481	-11.3	-33.4	307	3
2023-09-09T12:00	6218	479	-11.5	-32.9	302	4
2023-09-09T12:00	6243	478	-11.7	-32.2	294	4
2023-09-09T12:00	6272	476	-12.0	-31.5	285	4
2023-09-09T12:00	6300	474	-12.1	-31.2	280	4
2023-09-09T12:00	6321	473	-12.3	-31.5	279	4
2023-09-09T12:00	6345	471	-12.5	-31.8	283	4
2023-09-09T12:00	6382	469	-12.8	-31.8	290	4
2023-09-09T12:00	6404	468	-13.0	-31.5	297	4
2023-09-09T12:00	6428	466	-13.2	-31.1	301	4
2023-09-09T12:00	6457	465	-13.4	-32.2	302	4
2023-09-09T12:00	6493	462	-13.8	-33.0	302	4
2023-09-09T12:00	6522	461	-14.0	-33.2	297	3
2023-09-09T12:00	6540	459	-14.2	-33.6	288	2
2023-09-09T12:00	6572	458	-14.5	-33.8	275	2
2023-09-09T12:00	6602	456	-14.7	-34.4	268	2
2023-09-09T12:00	6632	454	-15.0	-36.2	270	2
2023-09-09T12:00	6651	453	-15.1	-37.1	282	2
2023-09-09T12:00	6674	451	-15.3	-37.1	295	3
2023-09-09T12:00	6704	450	-15.5	-37.3	306	3
2023-09-09T12:00	6737	448	-15.7	-38.3	311	3
2023-09-09T12:00	6762	446	-15.8	-39.2	312	4
2023-09-09T12:00	6786	445	-15.9	-39.3	309	4
2023-09-09T12:00	6811	443	-16.0	-39.1	304	4
2023-09-09T12:00	6839	442	-16.3	-39.1	300	3
2023-09-09T12:00	6871	440	-16.5	-40.1	297	3
2023-09-09T12:00	6902	438	-16.6	-40.7	299	3
2023-09-09T12:00	6927	436	-16.7	-40.7	304	4
2023-09-09T12:00	6956	435	-16.8	-40.5	311	4
2023-09-09T12:00	6980	433	-17.0	-40.6	315	5
2023-09-09T12:00	7007	432	-17.2	-40.6	318	5
2023-09-09T12:00	7036	430	-17.4	-40.9	319	5
2023-09-09T12:00	7068	428	-17.7	-41.2	318	5
2023-09-09T12:00	7096	427	-17.8	-41.5	317	5
2023-09-09T12:00	7121	425	-17.9	-41.8	317	5
2023-09-09T12:00	7156	423	-18.0	-41.8	316	5
2023-09-09T12:00	7176	422	-18.2	-41.7	314	5
2023-09-09T12:00	7197	421	-18.3	-41.5	312	5
2023-09-09T12:00	7218	420	-18.5	-41.5	309	5
2023-09-09T12:00	7244	418	-18.7	-41.8	307	5
2023-09-09T12:00	7277	417	-18.9	-42.1	306	5
2023-09-09T12:00	7307	415	-19.2	-42.4	304	5
2023-09-09T12:00	7325	414	-19.3	-42.2	302	5
2023-09-09T12:00	7351	412	-19.6	-40.8	299	5
2023-09-09T12:00	7383	411	-19.9	-41.0	296	5
2023-09-09T12:00	7404	409	-20.0	-40.8	297	4
2023-09-09T12:00	7430	408	-20.2	-41.2	300	4
2023-09-09T12:00	7448	407	-20.4	-40.0	306	4
2023-09-09T12:00	7477	405	-20.6	-40.1	312	4
2023-09-09T12:00	7506	404	-20.8	-40.0	315	5
2023-09-09T12:00	7540	402	-21.2	-38.5	313	5
2023-09-09T12:00	7574	400	-21.4	-38.5	310	6
2023-09-09T12:00	7600	399	-21.7	-39.1	306	6
2023-09-09T12:00	7629	397	-22.0	-38.3	303	6
2023-09-09T12:00	7658	396	-22.2	-37.7	301	6
2023-09-09T12:00	7688	394	-22.5	-37.7	301	6
2023-09-09T12:00	7714	393	-22.8	-37.8	301	6
2023-09-09T12:00	7741	391	-23.1	-37.5	303	6
2023-09-09T12:00	7773	389	-23.3	-38.0	305	6
2023-09-09T12:00	7803	388	-23.5	-39.3	308	5
2023-09-09T12:00	7832	386	-23.5	-42.0	310	5
2023-09-09T12:00	7856	385	-23.5	-43.6	311	5
2023-09-09T12:00	7882	384	-23.6	-44.6	310	6
2023-09-09T12:00	7909	382	-23.6	-46.8	307	6
2023-09-09T12:00	7936	381	-23.8	-46.6	304	6
2023-09-09T12:00	7970	379	-24.0	-46.6	301	5
2023-09-09T12:00	7995	378	-24.2	-46.8	300	5
2023-09-09T12:00	8021	376	-24.4	-46.6	301	4
2023-09-09T12:00	8055	375	-24.6	-46.1	304	4
2023-09-09T12:00	8085	373	-24.8	-46.2	309	4
2023-09-09T12:00	8115	372	-25.1	-46.5	313	4
2023-09-09T12:00	8142	370	-25.2	-47.1	316	5
2023-09-09T12:00	8168	369	-25.4	-46.8	318	5
2023-09-09T12:00	8194	368	-25.6	-46.4	320	5
2023-09-09T12:00	8226	366	-25.9	-46.1	322	5
2023-09-09T12:00	8264	364	-26.2	-45.6	324	5
2023-09-09T12:00	8285	363	-26.4	-45.5	326	5
2023-09-09T12:00	8307	362	-26.5	-45.7	326	5
2023-09-09T12:00	8328	361	-26.6	-46.3	325	5
2023-09-09T12:00	8349	360	-26.7	-47.2	324	5
2023-09-09T12:00	8375	358	-26.7	-47.2	322	5
2023-09-09T12:00	8405	357	-26.9	-47.4	321	5
2023-09-09T12:00	8440	355	-27.2	-47.4	320	5
2023-09-09T12:00	8471	354	-27.5	-47.4	322	5
2023-09-09T12:00	8510	352	-27.8	-47.6	324	5
2023-09-09T12:00	8543	350	-28.0	-46.6	327	5
2023-09-09T12:00	8566	349	-28.2	-45.2	329	5
2023-09-09T12:00	8588	348	-28.3	-45.3	331	5
2023-09-09T12:00	8617	347	-28.6	-44.8	332	5
2023-09-09T12:00	8649	345	-28.9	-44.0	332	5
2023-09-09T12:00	8687	343	-29.1	-45.5	332	4
2023-09-09T12:00	8720	342	-29.2	-47.5	330	4
2023-09-09T12:00	8740	341	-29.4	-47.8	326	4
2023-09-09T12:00	8760	340	-29.5	-47.7	320	4
2023-09-09T12:00	8789	338	-29.7	-47.8	316	5
2023-09-09T12:00	8822	337	-30.0	-48.3	314	5
2023-09-09T12:00	8850	336	-30.2	-48.1	314	5
2023-09-09T12:00	8879	334	-30.4	-48.0	315	5
2023-09-09T12:00	8907	333	-30.6	-47.7	315	5
2023-09-09T12:00	8927	332	-30.8	-47.3	314	5
2023-09-09T12:00	8951	331	-31.1	-47.1	311	5
2023-09-09T12:00	8976	330	-31.3	-46.7	308	5
2023-09-09T12:00	9008	328	-31.5	-46.7	308	5
2023-09-09T12:00	9035	327	-31.8	-46.8	309	6
2023-09-09T12:00	9074	325	-32.1	-47.1	313	6
2023-09-09T12:00	9102	324	-32.3	-46.8	316	7
2023-09-09T12:00	9133	322	-32.6	-46.4	319	7
2023-09-09T12:00	9166	321	-32.9	-46.0	321	7
2023-09-09T12:00	9196	319	-33.1	-45.8	321	7
2023-09-09T12:00	9229	318	-33.4	-45.8	321	7
2023-09-09T12:00	9259	317	-33.6	-46.1	320	7
2023-09-09T12:00	9289	315	-33.9	-46.6	320	7
2023-09-09T12:00	9318	314	-34.1	-46.8	320	7
2023-09-09T12:00	9347	313	-34.3	-46.8	322	8
2023-09-09T12:00	9380	311	-34.6	-46.4	323	8
2023-09-09T12:00	9411	310	-34.9	-46.6	324	8
2023-09-09T12:00	9438	309	-35.1	-46.7	324	8
2023-09-09T12:00	9472	307	-35.3	-47.9	322	8
2023-09-09T12:00	9498	306	-35.5	-48.0	319	8
2023-09-09T12:00	9526	305	-35.7	-48.1	316	8
2023-09-09T12:00	9552	304	-35.9	-48.3	315	8
2023-09-09T12:00	9580	302	-36.1	-48.9	316	8
2023-09-09T12:00	9612	301	-36.3	-49.8	318	8
2023-09-09T12:00	9642	300	-36.5	-50.6	321	8
2023-09-09T12:00	9673	298	-36.6	-50.6	324	7
2023-09-09T12:00	9700	297	-36.8	-50.0	325	7
2023-09-09T12:00	9720	296	-37.0	-49.6	325	7
2023-09-09T12:00	9745	295	-37.3	-49.0	325	7
2023-09-09T12:00	9778	294	-37.6	-49.6	325	7
2023-09-09T12:00	9811	292	-37.8	-48.0	325	7
2023-09-09T12:00	9844	291	-38.1	-48.3	325	8
2023-09-09T12:00	9874	290	-38.3	-49.6	326	8
2023-09-09T12:00	9904	289	-38.6	-49.9	328	8
2023-09-09T12:00	9935	287	-38.9		330	8
2023-09-09T12:00	9966	286	-39.2	-49.0	332	8
2023-09-09T12:00	9999	285	-39.5	-48.6	334	8
2023-09-09T12:00	10031	283	-39.8	-49.1	336	8
2023-09-09T12:00	10064	282	-40.1	-50.2	337	8
2023-09-09T12:00	10089	281	-40.3	-50.0	337	9
2023-09-09T12:00	10120	280	-40.6	-49.4	337	9
2023-09-09T12:00	10150	278	-40.9	-49.4	337	9
2023-09-09T12:00	10178	277	-41.1	-49.1	336	9
2023-09-09T12:00	10204	276	-41.4	-48.3	335	10
2023-09-09T12:00	10229	275	-41.5	-47.8	334	10
2023-09-09T12:00	10259	274	-41.8	-48.4	333	10
2023-09-09T12:00	10287	273	-42.0	-48.9	331	10
2023-09-09T12:00	10317	272	-42.2	-49.1	330	10
2023-09-09T12:00	10337	271	-42.4	-48.8	328	11
2023-09-09T12:00	10363	270	-42.6	-48.8	327	11
2023-09-09T12:00	10390	269	-42.9	-48.6	327	11
2023-09-09T12:00	10414	268	-43.1	-48.4	327	11
2023-09-09T12:00	10440	267	-43.3	-48.9	327	11
2023-09-09T12:00	10474	265	-43.6	-49.3	327	10
2023-09-09T12:00	10515	264	-44.0	-49.7	327	10
2023-09-09T12:00	10546	262	-44.2	-50.1	326	10
2023-09-09T12:00	10575	261	-44.5	-50.5	326	10
2023-09-09T12:00	10602	260	-44.7	-50.7	325	10
2023-09-09T12:00	10631	259	-44.9	-50.6	326	11
2023-09-09T12:00	10663	258	-45.1	-50.4	326	11
2023-09-09T12:00	10692	257	-45.3	-50.6	327	11
2023-09-09T12:00	10728	255	-45.4	-51.0	327	10
2023-09-09T12:00	10757	254	-45.6	-51.6	327	10
2023-09-09T12:00	10794	253	-45.8	-52.2	325	10
2023-09-09T12:00	10828	252	-46.1	-53.2	323	10
2023-09-09T12:00	10857	251	-46.3	-54.4	321	9
2023-09-09T12:00	10885	249	-46.5	-55.6	318	9
2023-09-09T12:00	10918	248	-46.8	-56.2	317	9
2023-09-09T12:00	10946	247	-47.0	-56.4	316	9
2023-09-09T12:00	10981	246	-47.2	-56.3	316	9
2023-09-09T12:00	11009	245	-47.4	-56.0	316	9
2023-09-09T12:00	11036	244	-47.6	-55.8	316	9
2023-09-09T12:00	11064	243	-47.7	-56.1	316	9
2023-09-09T12:00	11087	242	-47.9	-56.6	315	9
2023-09-09T12:00	11116	241	-48.1	-56.6	315	10
2023-09-09T12:00	11145	240	-48.3	-56.5	314	10
2023-09-09T12:00	11179	239	-48.5	-56.7	314	10
2023-09-09T12:00	11209	238	-48.8	-57.1	314	10
2023-09-09T12:00	11233	237	-49.0	-57.2	315	10
2023-09-09T12:00	11266	236	-49.3	-57.1	317	10
2023-09-09T12:00	11292	235	-49.5	-57.4	320	10
2023-09-09T12:00	11321	233	-49.7	-57.7	322	10
2023-09-09T12:00	11354	232	-49.9	-57.6	325	11
2023-09-09T12:00	11379	231	-50.2	-57.5	327	11
2023-09-09T12:00	11411	230	-50.4	-56.6	330	11
2023-09-09T12:00	11442	229	-50.6	-55.9	332	11
2023-09-09T12:00	11471	228	-50.9	-55.7	333	11
2023-09-09T12:00	11504	227	-51.1	-55.5	334	11
2023-09-09T12:00	11528	226	-51.2	-55.5	334	11
2023-09-09T12:00	11557	225	-51.4	-55.9	334	11
2023-09-09T12:00	11589	224	-51.7	-56.3	334	11
2023-09-09T12:00	11614	223	-51.8	-56.3	335	11
2023-09-09T12:00	11638	222	-52.0	-56.3	336	11
2023-09-09T12:00	11666	221	-52.2	-56.3	337	11
2023-09-09T12:00	11693	220	-52.4	-56.4	337	11
2023-09-09T12:00	11720	220	-52.7	-56.7	338	11
2023-09-09T12:00	11747	219	-52.9	-57.1	339	11
2023-09-09T12:00	11776	218	-53.1	-57.4	339	11
2023-09-09T12:00	11808	217	-53.4	-57.7	339	11
2023-09-09T12:00	11843	216	-53.7	-58.1	339	11
2023-09-09T12:00	11869	215	-53.9	-58.4	339	10
2023-09-09T12:00	11900	214	-54.2	-58.8	338	10
2023-09-09T12:00	11935	212	-54.4	-59.2	338	10
2023-09-09T12:00	11966	211	-54.7	-59.6	337	10
2023-09-09T12:00	11992	210	-54.9	-59.7	337	10
2023-09-09T12:00	12016	210	-55.1	-59.9	337	10
2023-09-09T12:00	12039	209	-55.3	-60.1	337	11
2023-09-09T12:00	12063	208	-55.5	-60.3	337	11
2023-09-09T12:00	12088	207	-55.8	-60.6	337	11
2023-09-09T12:00	12117	206	-56.0	-60.7	338	11
2023-09-09T12:00	12144	206	-56.2	-60.9	338	11
2023-09-09T12:00	12176	205	-56.5	-61.2	339	11
2023-09-09T12:00	12206	204	-56.8	-61.3	340	11
2023-09-09T12:00	12240	203	-57.1	-61.4	342	11
2023-09-09T12:00	12265	202	-57.3	-61.5	343	11
2023-09-09T12:00	12296	201	-57.6	-61.7	344	12
2023-09-09T12:00	12326	200	-57.8	-61.8	345	12
2023-09-09T12:00	12360	199	-58.0	-62.0	345	12
2023-09-09T12:00	12387	198	-58.2	-62.1	345	12
2023-09-09T12:00	12414	197	-58.4	-62.3	344	12
2023-09-09T12:00	12442	196	-58.5	-62.3	344	12
2023-09-09T12:00	12467	195	-58.6	-62.4	344	12
2023-09-09T12:00	12492	195	-58.7	-62.6	344	12
2023-09-09T12:00	12516	194	-58.9	-62.8	344	12
2023-09-09T12:00	12540	193	-59.1	-63.2	343	12
2023-09-09T12:00	12562	192	-59.2	-63.5	343	12
2023-09-09T12:00	12582	192	-59.4	-63.9	342	12
2023-09-09T12:00	12607	191	-59.5	-64.2	342	12
2023-09-09T12:00	12628	190	-59.6	-64.5	342	12
2023-09-09T12:00	12651	190	-59.8	-64.8	342	12
2023-09-09T12:00	12675	189	-59.9	-64.9	341	13
2023-09-09T12:00	12698	188	-60.0	-65.0	340	13
2023-09-09T12:00	12721	187	-60.2	-65.0	339	13
2023-09-09T12:00	12745	187	-60.4	-65.1	338	13
2023-09-09T12:00	12772	186	-60.6	-65.3	338	13
2023-09-09T12:00	12793	185	-60.8	-65.4	338	13
2023-09-09T12:00	12822	184	-61.1	-65.5	340	13
2023-09-09T12:00	12850	184	-61.3	-65.6	341	13
2023-09-09T12:00	12879	183	-61.5	-65.7	342	13
2023-09-09T12:00	12904	182	-61.7	-66.0	343	13
2023-09-09T12:00	12934	181	-61.9	-66.2	345	14
2023-09-09T12:00	12964	180	-62.0	-66.4	345	14
2023-09-09T12:00	12993	179	-61.9	-66.5	346	14
2023-09-09T12:00	13022	179	-62.0	-66.7	346	14
2023-09-09T12:00	13056	178	-62.2	-67.2	346	14
2023-09-09T12:00	13089	177	-62.4	-67.5	345	14
2023-09-09T12:00	13118	176	-62.6	-67.8	345	14
2023-09-09T12:00	13142	175	-62.8	-68.1	344	14
2023-09-09T12:00	13171	174	-63.0	-68.3	343	14
2023-09-09T12:00	13197	174	-63.2	-68.5	342	14
2023-09-09T12:00	13226	173	-63.5	-68.8	342	14
2023-09-09T12:00	13251	172	-63.6	-68.9	341	14
2023-09-09T12:00	13276	171	-63.6	-69.0	341	14
2023-09-09T12:00	13302	171	-63.7	-69.2	341	14
2023-09-09T12:00	13325	170	-63.7	-69.4	342	14
2023-09-09T12:00	13344	169	-63.7	-69.5	343	14
2023-09-09T12:00	13369	169	-63.8	-69.6	345	14
2023-09-09T12:00	13391	168	-63.8	-69.8	347	13
2023-09-09T12:00	13413	168	-63.8	-69.9	349	13
2023-09-09T12:00	13438	167	-63.9	-70.0	350	12
2023-09-09T12:00	13466	166	-64.1	-70.2	350	12
2023-09-09T12:00	13498	165	-64.1	-70.2	349	11
2023-09-09T12:00	13523	165	-64.0	-70.1	348	11
2023-09-09T12:00	13547	164	-64.1	-70.2	346	11
2023-09-09T12:00	13568	163	-64.1	-70.2	344	11
2023-09-09T12:00	13591	163	-64.3	-70.6	342	11
2023-09-09T12:00	13614	162	-64.4	-70.9	340	11
2023-09-09T12:00	13637	162	-64.3	-71.1	337	11
2023-09-09T12:00	13659	161	-64.4	-71.5	336	11
2023-09-09T12:00	13682	160	-64.5	-71.9	334	12
2023-09-09T12:00	13702	160	-64.7	-72.4	334	12
2023-09-09T12:00	13723	159	-64.7	-72.7	335	12
2023-09-09T12:00	13749	159	-64.7	-73.0	336	12
2023-09-09T12:00	13775	158	-64.7	-73.3	339	12
2023-09-09T12:00	13803	157	-64.7	-73.8	342	12
2023-09-09T12:00	13824	157	-64.5	-74.0	346	12
2023-09-09T12:00	13846	156	-64.3	-74.4	349	11
2023-09-09T12:00	13872	155	-64.1	-74.8	351	11
2023-09-09T12:00	13897	155	-63.8	-75.0	351	11
2023-09-09T12:00	13922	154	-63.8	-75.4	351	11
2023-09-09T12:00	13943	154	-63.9	-75.9	350	11
2023-09-09T12:00	13966	153	-63.8	-76.2	349	11
2023-09-09T12:00	13987	153	-63.8	-76.6	347	11
2023-09-09T12:00	14012	152	-63.7	-76.9	346	11
2023-09-09T12:00	14034	151	-63.7	-77.2	346	11
2023-09-09T12:00	14056	151	-63.7	-77.5	345	11
2023-09-09T12:00	14079	150	-63.6	-77.5	345	10
2023-09-09T12:00	14103	150	-63.7	-77.7	345	10
2023-09-09T12:00	14127	149	-63.7	-77.8	345	10
2023-09-09T12:00	14151	149	-63.7	-78.0	344	10
2023-09-09T12:00	14175	148	-63.6	-78.1	343	10
2023-09-09T12:00	14197	147	-63.4	-78.2	342	10
2023-09-09T12:00	14220	147	-63.4	-78.5	340	10
2023-09-09T12:00	14244	146	-63.4	-78.9	339	10
2023-09-09T12:00	14267	146	-63.2	-79.0	338	10
2023-09-09T12:00	14290	145	-63.0	-79.3	338	11
2023-09-09T12:00	14312	145	-62.8	-79.4	338	11
2023-09-09T12:00	14335	144	-62.5	-79.5	339	11
2023-09-09T12:00	14355	144	-62.5	-79.6	339	11
2023-09-09T12:00	14377	143	-62.5	-79.9	341	11
2023-09-09T12:00	14400	143	-62.6	-80.0	342	10
2023-09-09T12:00	14423	142	-62.6	-80.2	343	10
2023-09-09T12:00	14443	142	-62.4	-80.1	343	10
2023-09-09T12:00	14466	141	-62.3	-80.2	344	9
2023-09-09T12:00	14487	141	-62.3	-80.3	343	9
2023-09-09T12:00	14509	140	-62.4	-80.4	342	9
2023-09-09T12:00	14531	140	-62.5	-80.5	341	8
2023-09-09T12:00	14554	139	-62.5	-80.6	339	8
2023-09-09T12:00	14578	139	-62.6	-80.7	336	7
2023-09-09T12:00	14601	138	-62.6	-80.7	332	6
2023-09-09T12:00	14625	138	-62.5	-80.8	326	6
2023-09-09T12:00	14648	137	-62.5	-80.8	320	6
2023-09-09T12:00	14669	137	-62.4	-80.7	316	6
2023-09-09T12:00	14696	136	-62.4	-80.7	313	7
2023-09-09T12:00	14720	135	-62.5	-80.7	312	7
2023-09-09T12:00	14742	135	-62.5	-80.8	311	8
2023-09-09T12:00	14766	134	-62.3	-80.8	311	9
2023-09-09T12:00	14789	134	-62.2	-81.0	311	9
2023-09-09T12:00	14809	134	-62.2	-81.2	312	10
2023-09-09T12:00	14833	133	-62.2	-81.3	313	10
2023-09-09T12:00	14855	133	-62.1	-81.5	314	10
2023-09-09T12:00	14876	132	-62.3	-81.6	316	10
2023-09-09T12:00	14899	132	-62.3	-81.7	318	10
2023-09-09T12:00	14923	131	-62.2	-81.5	319	10
2023-09-09T12:00	14945	131	-62.2	-81.5	320	10
2023-09-09T12:00	14966	130	-62.3	-81.6	320	9
2023-09-09T12:00	14988	130	-62.3	-81.6	320	9
2023-09-09T12:00	15010	129	-62.3	-81.6	320	9
2023-09-09T12:00	15031	129	-62.3	-81.6	320	8
2023-09-09T12:00	15055	128	-62.4	-81.7	322	8
2023-09-09T12:00	15078	128	-62.5	-81.8	325	8
2023-09-09T12:00	15101	127	-62.4	-81.7	328	8
2023-09-09T12:00	15120	127	-62.4	-81.8	330	8
2023-09-09T12:00	15143	126	-62.5	-81.9	333	8
2023-09-09T12:00	15167	126	-62.5	-81.9	334	8
2023-09-09T12:00	15188	126	-62.5	-81.9	335	8
2023-09-09T12:00	15213	125	-62.6	-81.9	336	8
2023-09-09T12:00	15233	125	-62.7	-82.0	337	8
2023-09-09T12:00	15255	124	-62.7	-82.0	338	8
2023-09-09T12:00	15275	124	-62.7	-82.0	339	8
2023-09-09T12:00	15298	123	-62.9	-82.1	339	8
2023-09-09T12:00	15322	123	-62.9	-82.1	338	8
2023-09-09T12:00	15344	122	-63.0	-82.2	337	8
2023-09-09T12:00	15368	122	-63.0	-82.2	336	8
2023-09-09T12:00	15390	122	-63.0	-82.2	336	7
2023-09-09T12:00	15413	121	-63.0	-82.3	336	7
2023-09-09T12:00	15437	121	-63.2	-82.5	336	7
2023-09-09T12:00	15462	120	-63.1	-82.5	336	7
2023-09-09T12:00	15483	120	-62.9	-82.5	335	6
2023-09-09T12:00	15507	119	-62.9	-82.5	333	5
2023-09-09T12:00	15529	119	-62.9	-82.6	331	5
2023-09-09T12:00	15551	118	-63.1	-82.8	327	4
2023-09-09T12:00	15575	118	-63.1	-82.8	323	4
2023-09-09T12:00	15596	118	-63.2	-82.8	319	4
2023-09-09T12:00	15619	117	-63.2	-83.0	315	4
2023-09-09T12:00	15643	117	-63.1	-82.9	313	5
2023-09-09T12:00	15666	116	-63.2	-83.1	313	5
2023-09-09T12:00	15690	116	-63.2	-83.1	313	6
2023-09-09T12:00	15712	115	-63.2	-83.1	315	6
2023-09-09T12:00	15736	115	-63.2	-83.1	317	7
2023-09-09T12:00	15755	115	-63.2	-83.2	319	7
2023-09-09T12:00	15781	114	-63.4	-83.4	322	7
2023-09-09T12:00	15803	114	-63.5	-83.5	325	8
2023-09-09T12:00	15828	113	-63.3	-83.3	328	8
2023-09-09T12:00	15849	113	-63.3	-83.4	331	7
2023-09-09T12:00	15873	112	-63.5	-83.6	334	7
2023-09-09T12:00	15896	112	-63.5	-83.7	336	7
2023-09-09T12:00	15920	112	-63.4	-83.8	337	6
2023-09-09T12:00	15942	111	-63.4	-83.9	338	6
2023-09-09T12:00	15962	111	-63.3	-84.0	340	5
2023-09-09T12:00	15986	110	-63.2	-84.0	344	5
2023-09-09T12:00	16012	110	-63.1	-84.2	350	5
2023-09-09T12:00	16032	109	-62.9	-84.2	356	5
2023-09-09T12:00	16057	109	-62.8	-84.3	1	4
2023-09-09T12:00	16080	109	-62.7	-84.4	4	4
2023-09-09T12:00	16104	108	-62.6	-84.5	4	3
2023-09-09T12:00	16124	108	-62.6	-84.5	360	3
2023-09-09T12:00	16150	107	-62.7	-84.6	349	2
2023-09-09T12:00	16174	107	-62.8	-84.6	333	2
2023-09-09T12:00	16197	107	-62.9	-84.6	316	2
2023-09-09T12:00	16217	106	-62.9	-84.6	306	3
2023-09-09T12:00	16242	106	-62.9	-84.6	302	3
2023-09-09T12:00	16262	105	-62.9	-84.7	302	4
2023-09-09T12:00	16285	105	-62.9	-84.9	304	4
2023-09-09T12:00	16308	105	-62.8	-85.0	306	4
2023-09-09T12:00	16329	104	-62.7	-85.1	307	4
2023-09-09T12:00	16352	104	-62.6	-85.2	308	4
2023-09-09T12:00	16375	104	-62.5	-85.1	308	4
2023-09-09T12:00	16396	103	-62.4	-85.2	308	3
2023-09-09T12:00	16422	103	-62.2	-85.3	309	3
2023-09-09T12:00	16442	102	-62.1	-85.2	312	3
2023-09-09T12:00	16468	102	-61.9	-85.3	317	3
2023-09-09T12:00	16491	102	-61.8	-85.2	323	3
2023-09-09T12:00	16514	101	-61.9	-85.3	327	3
2023-09-09T12:00	16537	101	-62.0	-85.3	329	3
2023-09-09T12:00	16559	100	-61.9	-85.5	329	2
2023-09-09T12:00	16584	100	-61.9	-85.5	328	2
2023-09-09T12:00	16605	100	-61.8	-85.4	329	2
2023-09-09T12:00	16629	99	-61.9	-85.5	333	2
2023-09-09T12:00	16653	99	-61.9	-85.5	339	2
2023-09-09T12:00	16675	99	-61.9	-85.5	345	2
2023-09-09T12:00	16698	98	-61.8	-85.4	346	2
2023-09-09T12:00	16721	98	-61.9	-85.5	342	3
2023-09-09T12:00	16744	98	-62.0	-85.8	335	3
2023-09-09T12:00	16770	97	-61.7	-85.8	327	3
2023-09-09T12:00	16792	97	-61.6	-85.7	321	4
2023-09-09T12:00	16815	96	-61.5	-85.9	320	4
2023-09-09T12:00	16839	96	-61.4	-85.8	322	4
2023-09-09T12:00	16861	96	-61.4	-85.8	328	4
2023-09-09T12:00	16887	95	-61.2	-85.9	336	4
2023-09-09T12:00	16911	95	-61.1	-85.8	344	5
2023-09-09T12:00	16933	95	-61.1	-85.8	353	5
2023-09-09T12:00	16958	94	-61.1	-85.8	0	5
2023-09-09T12:00	16980	94	-61.0	-85.7	6	5
2023-09-09T12:00	17004	94	-61.0	-85.7	11	5
2023-09-09T12:00	17030	93	-61.0	-85.7	15	5
2023-09-09T12:00	17054	93	-61.1	-85.8	18	4
2023-09-09T12:00	17076	92	-61.3	-86.0	20	4
2023-09-09T12:00	17100	92	-61.4	-86.0	22	4
2023-09-09T12:00	17126	92	-61.3	-86.2	23	3
2023-09-09T12:00	17148	91	-61.2	-86.2	22	3
2023-09-09T12:00	17172	91	-61.0	-86.0	19	2
2023-09-09T12:00	17196	91	-60.9	-86.2	15	2
2023-09-09T12:00	17221	90	-60.9	-86.2	11	2
2023-09-09T12:00	17242	90	-60.9	-86.5	9	1
2023-09-09T12:00	17263	90	-60.9	-86.5	12	1
2023-09-09T12:00	17286	89	-60.7	-86.3	21	1
2023-09-09T12:00	17309	89	-60.6	-86.3	34	1
2023-09-09T12:00	17336	89	-60.7	-86.3	45	0
2023-09-09T12:00	17357	88	-60.8	-86.4	40	0
2023-09-09T12:00	17383	88	-60.9	-86.5	14	0
2023-09-09T12:00	17406	88	-61.0	-86.6	357	1
2023-09-09T12:00	17429	87	-60.9	-86.5	356	1
2023-09-09T12:00	17453	87	-60.8		3	1
2023-09-09T12:00	17479	87	-60.7	-86.6	13	1
2023-09-09T12:00	17499	86	-60.7	-86.6	21	1
2023-09-09T12:00	17523	86	-60.6	-86.6	24	1
2023-09-09T12:00	17547	86	-60.5	-86.5	21	2
2023-09-09T12:00	17572	85	-60.6	-86.6	13	2
2023-09-09T12:00	17595	85	-60.7	-86.6	5	2
2023-09-09T12:00	17618	85	-60.8		356	3
2023-09-09T12:00	17641	84	-60.7	-86.6	348	3
2023-09-09T12:00	17665	84	-60.7	-86.6	340	3
2023-09-09T12:00	17687	84	-60.7	-86.6	331	4
2023-09-09T12:00	17710	83	-60.9	-86.8	324	4
2023-09-09T12:00	17734	83	-61.0	-86.9	319	4
2023-09-09T12:00	17756	83	-61.1	-87.0	318	5
2023-09-09T12:00	17782	83	-60.9	-86.8	319	5
2023-09-09T12:00	17803	82	-60.7	-87.0	322	5
2023-09-09T12:00	17829	82	-60.6	-87.2	324	6
2023-09-09T12:00	17853	82	-60.5	-87.2	327	6
2023-09-09T12:00	17878	81	-60.1	-87.2	330	6
2023-09-09T12:00	17901	81	-59.8	-87.0	332	6
2023-09-09T12:00	17926	81	-59.5	-86.8	334	7
2023-09-09T12:00	17946	80	-59.4	-86.7	337	7
2023-09-09T12:00	17971	80	-59.5	-86.8	340	7
2023-09-09T12:00	17996	80	-59.5	-86.8	343	7
2023-09-09T12:00	18019	79	-59.4	-86.7	346	7
2023-09-09T12:00	18042	79	-59.4	-86.7	349	7
2023-09-09T12:00	18068	79	-59.4	-86.7	353	7
2023-09-09T12:00	18091	79	-59.4	-86.7	356	7
2023-09-09T12:00	18114	78	-59.2	-86.5	359	7
2023-09-09T12:00	18140	78	-59.1	-86.8	2	6
2023-09-09T12:00	18164	78	-59.0	-86.4	4	6
2023-09-09T12:00	18186	77	-59.1	-86.5	7	5
2023-09-09T12:00	18211	77	-59.1	-86.5	11	5
2023-09-09T12:00	18235	77	-59.1	-86.5	14	5
2023-09-09T12:00	18261	76	-59.2	-86.5	17	5
2023-09-09T12:00	18284	76	-59.3	-86.6	18	4
2023-09-09T12:00	18307	76	-59.4	-86.7	18	4
2023-09-09T12:00	18333	76	-59.4	-86.7	15	3
2023-09-09T12:00	18359	75	-59.5	-86.8	10	3
2023-09-09T12:00	18383	75	-59.5	-86.8	4	3
2023-09-09T12:00	18405	75	-59.5	-86.8	360	2
2023-09-09T12:00	18433	74	-59.5	-86.8	359	3
2023-09-09T12:00	18454	74	-59.4	-87.1	1	3
2023-09-09T12:00	18477	74	-59.3	-87.0	2	3
2023-09-09T12:00	18502	74	-59.3	-87.0	0	3
2023-09-09T12:00	18528	73	-59.3	-87.0	357	3
2023-09-09T12:00	18550	73	-59.3	-87.0	351	3
2023-09-09T12:00	18574	73	-59.2	-86.9	345	3
2023-09-09T12:00	18601	72	-59.2	-86.9	343	3
2023-09-09T12:00	18625	72	-59.4	-87.1	345	3
2023-09-09T12:00	18648	72	-59.5	-87.1	353	3
2023-09-09T12:00	18673	72	-59.5	-87.1	3	3
2023-09-09T12:00	18697	71	-59.4	-87.1	13	4
2023-09-09T12:00	18726	71	-59.3	-87.0	23	4
2023-09-09T12:00	18746	71	-59.3	-87.0	32	4
2023-09-09T12:00	18770	70	-59.3	-87.0	39	5
2023-09-09T12:00	18798	70	-59.3	-87.0	46	5
2023-09-09T12:00	18819	70	-59.4	-87.1	53	5
2023-09-09T12:00	18844	70	-59.6	-86.8	59	5
2023-09-09T12:00	18864	69	-59.7	-86.9	64	5
2023-09-09T12:00	18896	69	-59.9	-87.1	67	4
2023-09-09T12:00	18913	69	-60.0	-87.1	69	4
2023-09-09T12:00	18939	69	-60.0	-87.1	69	4
2023-09-09T12:00	18963	68	-60.0	-87.1	67	3
2023-09-09T12:00	18986	68	-60.1	-87.2	66	2
2023-09-09T12:00	19010	68	-60.2	-87.3	69	2
2023-09-09T12:00	19036	68	-60.2	-87.3	89	1
2023-09-09T12:00	19054	67	-60.1	-87.2	135	1
2023-09-09T12:00	19080	67	-60.0	-87.5	166	1
2023-09-09T12:00	19103	67	-59.9	-87.4	179	2
2023-09-09T12:00	19126	67	-59.8	-87.4	188	2
2023-09-09T12:00	19151	66	-59.7	-87.3	201	2
2023-09-09T12:00	19178	66	-59.7	-87.7	217	2
2023-09-09T12:00	19197	66	-59.6	-87.6	236	2
2023-09-09T12:00	19227	66	-59.3	-87.4	251	2
2023-09-09T12:00	19252	65	-59.2	-87.3	264	3
2023-09-09T12:00	19273	65	-59.3	-87.4	274	3
2023-09-09T12:00	19295	65	-59.2	-87.3	283	3
2023-09-09T12:00	19322	65	-59.2	-87.3	292	3
2023-09-09T12:00	19347	64	-59.2	-86.9	301	4
2023-09-09T12:00	19372	64	-59.2	-86.9	308	4
2023-09-09T12:00	19397	64	-59.3	-87.0	313	4
2023-09-09T12:00	19424	64	-59.4	-87.5	317	4
2023-09-09T12:00	19448	63	-59.3	-87.4	319	4
2023-09-09T12:00	19475	63	-59.3	-87.4	321	4
2023-09-09T12:00	19494	63	-59.2	-87.3	323	3
2023-09-09T12:00	19520	63	-59.1	-87.3	329	3
2023-09-09T12:00	19545	62	-58.9	-87.1	342	2
2023-09-09T12:00	19573	62	-58.8	-87.0	2	2
2023-09-09T12:00	19596	62	-58.8	-87.0	21	2
2023-09-09T12:00	19618	62	-58.7	-87.0	32	2
2023-09-09T12:00	19646	61	-58.5	-86.8	34	2
2023-09-09T12:00	19671	61	-58.5	-86.8	31	2
2023-09-09T12:00	19699	61	-58.4	-87.2	24	2
2023-09-09T12:00	19723	61	-58.3	-87.1	17	2
2023-09-09T12:00	19748	60	-58.3	-87.1	13	2
2023-09-09T12:00	19775	60	-58.3	-87.1	13	2
2023-09-09T12:00	19799	60	-58.3	-87.1	17	2
2023-09-09T12:00	19823	60	-58.2	-87.0	25	2
2023-09-09T12:00	19847	59	-58.0	-86.9	33	2
2023-09-09T12:00	19876	59	-58.0	-86.9	40	2
2023-09-09T12:00	19900	59	-57.9	-86.8	43	3
2023-09-09T12:00	19927	59	-57.9	-86.8	45	3
2023-09-09T12:00	19952	58	-57.9	-86.8	46	3
2023-09-09T12:00	19979	58	-58.0	-86.4	46	3
2023-09-09T12:00	20001	58	-58.2	-86.6	47	4
2023-09-09T12:00	20031	58	-58.3	-86.7	48	4
2023-09-09T12:00	20050	57	-58.4	-86.7	48	4
2023-09-09T12:00	20073	57	-58.4	-86.7	47	4
2023-09-09T12:00	20106	57	-58.4	-86.7	44	4
2023-09-09T12:00	20127	57	-58.3	-87.1	40	4
2023-09-09T12:00	20155	57	-58.0	-86.9	33	5
2023-09-09T12:00	20184	56	-57.8	-86.7	27	5
2023-09-09T12:00	20207	56	-57.7	-86.7	21	5
2023-09-09T12:00	20228	56	-57.7	-87.2	18	6
2023-09-09T12:00	20252	56	-57.6	-87.1	16	6
2023-09-09T12:00	20281	55	-57.2	-86.8	17	6
2023-09-09T12:00	20304	55	-56.9	-86.6	18	7
2023-09-09T12:00	20331	55	-56.9	-86.6	20	7
2023-09-09T12:00	20354	55	-56.9	-86.6	23	8
2023-09-09T12:00	20381	55	-56.8	-86.5	25	8
2023-09-09T12:00	20409	54	-56.7	-86.4	28	9
2023-09-09T12:00	20432	54	-56.5	-86.3	31	9
2023-09-09T12:00	20453	54	-56.4	-86.2	33	9
2023-09-09T12:00	20486	54	-56.4	-86.2	36	9
2023-09-09T12:00	20507	53	-56.5	-86.3	40	9
2023-09-09T12:00	20530	53	-56.6	-86.3	43	9
2023-09-09T12:00	20558	53	-56.7	-86.4	47	9
2023-09-09T12:00	20582	53	-56.7	-86.4	52	8
2023-09-09T12:00	20606	53	-56.7	-86.4	56	8
2023-09-09T12:00	20630	52	-56.7	-86.4	59	8
2023-09-09T12:00	20656	52	-56.8	-86.0	62	8
2023-09-09T12:00	20683	52	-56.9	-86.1	64	8
2023-09-09T12:00	20706	52	-57.1	-86.2	68	8
2023-09-09T12:00	20733	52	-57.3	-86.4	72	7
2023-09-09T12:00	20759	51	-57.5	-86.5	78	7
2023-09-09T12:00	20788	51	-57.6	-86.6	85	7
2023-09-09T12:00	20812	51	-57.7	-86.7	94	6
2023-09-09T12:00	20839	51	-57.8	-86.7	103	6
2023-09-09T12:00	20867	51	-57.8	-86.7	112	5
2023-09-09T12:00	20888	50	-57.5	-87.0	119	5
2023-09-09T12:00	20915	50	-57.3	-86.9	126	4
2023-09-09T12:00	20942	50	-57.1	-86.7	134	4
2023-09-09T12:00	20971	50	-57.0	-86.6	142	3
2023-09-09T12:00	20995	50	-57.0	-86.6	152	2
2023-09-09T12:00	21016	49	-57.1	-86.7	161	1
2023-09-09T12:00	21042	49	-57.2	-86.8	170	0
2023-09-09T12:00	21073	49	-57.2	-86.8	354	1
2023-09-09T12:00	21098	49	-57.2	-86.8	358	2
2023-09-09T12:00	21124	49	-57.2	-86.8	1	2
2023-09-09T12:00	21145	48	-57.1	-86.7	4	3
2023-09-09T12:00	21174	48	-57.0	-86.6	7	4
2023-09-09T12:00	21201	48	-57.0	-86.6	11	4
2023-09-09T12:00	21223	48	-57.0	-86.6	18	4
2023-09-09T12:00	21248	48	-57.0	-86.6	27	4
2023-09-09T12:00	21270	47	-57.0	-86.6	36	4
2023-09-09T12:00	21302	47	-57.0	-86.6	46	4
2023-09-09T12:00	21326	47	-56.9	-86.6	56	4
2023-09-09T12:00	21350	47	-56.9	-86.6	66	4
2023-09-09T12:00	21378	47	-57.1	-86.7	76	4
2023-09-09T12:00	21405	46	-57.2	-86.8	84	3
2023-09-09T12:00	21429	46	-57.4	-86.4	93	3
2023-09-09T12:00	21455	46	-57.5	-86.5	104	2
2023-09-09T12:00	21481	46	-57.6	-86.6	118	2
2023-09-09T12:00	21505	46	-57.8	-86.7	138	1
2023-09-09T12:00	21533	45	-57.9	-86.8	160	1
2023-09-09T12:00	21560	45	-58.1	-87.0	182	1
2023-09-09T12:00	21589	45	-58.1	-87.0	224	0
2023-09-09T12:00	21614	45	-58.1	-87.0	318	0
2023-09-09T12:00	21640	45	-58.0	-86.9	336	1
2023-09-09T12:00	21663	45	-57.8	-86.7	338	1
2023-09-09T12:00	21692	44	-57.7	-86.7	337	1
2023-09-09T12:00	21716	44	-57.6	-86.6	334	2
2023-09-09T12:00	21744	44	-57.7	-86.7	333	2
2023-09-09T12:00	21768	44	-57.9	-86.8	335	2
2023-09-09T12:00	21793	44	-58.0	-86.9	340	2
2023-09-09T12:00	21823	43	-58.1	-87.0	346	2
2023-09-09T12:00	21852	43	-58.3	-87.1	351	2
2023-09-09T12:00	21877	43	-58.4	-87.2	357	2
2023-09-09T12:00	21903	43	-58.3	-87.1	5	2
2023-09-09T12:00	21930	43	-58.3	-87.1	16	1
2023-09-09T12:00	21957	43	-58.4	-86.7	31	1
2023-09-09T12:00	21984	42	-58.7	-87.0	44	1
2023-09-09T12:00	22009	42	-58.9	-87.1	47	1
2023-09-09T12:00	22039	42	-59.0	-87.2	41	1
2023-09-09T12:00	22061	42	-59.0	-87.2	33	1
2023-09-09T12:00	22090	42	-59.0	-87.2	26	1
2023-09-09T12:00	22116	41	-59.0	-87.6	22	0
2023-09-09T12:00	22143	41	-59.0	-87.6	194	0
2023-09-09T12:00	22171	41	-59.0	-87.6	199	0
2023-09-09T12:00	22198	41	-58.7	-87.4	200	1
2023-09-09T12:00	22221	41	-58.5	-87.3	200	1
2023-09-09T12:00	22249	41	-58.6	-87.3	202	1
2023-09-09T12:00	22283	40	-58.6	-87.3	205	2
2023-09-09T12:00	22306	40	-58.5	-87.3	210	2
2023-09-09T12:00	22335	40	-58.4	-87.2	217	2
2023-09-09T12:00	22357	40	-58.4	-87.2	225	2
2023-09-09T12:00	22389	40	-58.4	-87.2	234	2
2023-09-09T12:00	22411	40	-58.3	-87.1	246	2
2023-09-09T12:00	22444	39	-58.2	-87.0	263	1
2023-09-09T12:00	22467	39	-58.2	-87.5	290	1
2023-09-09T12:00	22493	39	-58.2	-87.5	330	1
2023-09-09T12:00	22520	39	-57.9	-87.3	5	1
2023-09-09T12:00	22546	39	-57.8	-87.2	27	1
2023-09-09T12:00	22575	39	-57.8	-87.2	44	1
2023-09-09T12:00	22600	38	-57.7	-87.2	61	1
2023-09-09T12:00	22629	38	-57.6	-87.1	76	1
2023-09-09T12:00	22653	38	-57.4	-86.9	89	1
2023-09-09T12:00	22680	38	-57.4	-86.9	102	1
2023-09-09T12:00	22700	38	-57.4	-86.9	119	1
2023-09-09T12:00	22735	38	-57.4	-86.9	144	1
2023-09-09T12:00	22761	37	-57.4	-86.9	173	1
2023-09-09T12:00	22783	37	-57.5	-87.0	195	2
2023-09-09T12:00	22810	37	-57.4	-86.9	210	2
2023-09-09T12:00	22837	37	-57.4	-86.9	223	2
2023-09-09T12:00	22857	37	-57.4	-86.9	237	2
2023-09-09T12:00	22883	37	-57.3	-86.9	254	2
2023-09-09T12:00	22911	37	-57.3	-86.9	272	2
2023-09-09T12:00	22935	36	-57.2	-86.8	289	2
2023-09-09T12:00	22960	36	-57.3	-86.9	305	2
2023-09-09T12:00	22986	36	-57.5	-87.0	322	2
2023-09-09T12:00	23013	36	-57.5	-87.0	340	3
2023-09-09T12:00	23039	36	-57.5	-87.0	354	3
2023-09-09T12:00	23067	36	-57.5	-87.0	4	3
2023-09-09T12:00	23093	36	-57.5	-87.0	10	4
2023-09-09T12:00	23123	35	-57.6	-87.1	14	4
2023-09-09T12:00	23141	35	-57.6	-87.1	16	5
2023-09-09T12:00	23169	35	-57.8	-87.2	18	5
2023-09-09T12:00	23197	35	-57.9	-87.3	19	5
2023-09-09T12:00	23223	35	-57.8	-87.2	21	5
2023-09-09T12:00	23250	35	-57.8	-87.2	23	5
2023-09-09T12:00	23278	34	-57.9	-87.3	26	5
2023-09-09T12:00	23304	34	-57.9	-87.3	29	4
2023-09-09T12:00	23329	34	-57.8	-87.2	32	4
2023-09-09T12:00	23354	34	-57.6	-87.1	34	4
2023-09-09T12:00	23379	34	-57.5	-87.0	34	4
2023-09-09T12:00	23406	34	-57.5	-87.0	33	4
2023-09-09T12:00	23433	34	-57.5	-87.0	32	4
2023-09-09T12:00	23456	34	-57.6	-87.1	31	4
2023-09-09T12:00	23482	33	-57.7	-87.2	30	4
2023-09-09T12:00	23514	33	-57.7	-87.2	29	4
2023-09-09T12:00	23543	33	-57.5	-87.0	27	4
2023-09-09T12:00	23562	33	-57.3	-86.9	23	3
2023-09-09T12:00	23588	33	-57.2	-87.3	19	3
2023-09-09T12:00	23614	33	-57.3	-87.4	16	3
2023-09-09T12:00	23642	33	-57.3	-87.4	16	3
2023-09-09T12:00	23664	32	-57.2	-87.3	19	3
2023-09-09T12:00	23694	32	-57.1	-87.2	22	4
2023-09-09T12:00	23723	32	-57.1	-87.2	26	4
2023-09-09T12:00	23749	32	-57.1	-87.2	28	5
2023-09-09T12:00	23770	32	-56.9	-87.1	29	5
2023-09-09T12:00	23800	32	-56.7	-86.9	29	5
2023-09-09T12:00	23829	32	-56.7	-86.9	29	5
2023-09-09T12:00	23854	31	-56.6	-86.9	28	5
2023-09-09T12:00	23883	31	-56.5	-86.8	27	4
2023-09-09T12:00	23911	31	-56.4		23	3
2023-09-09T12:00	23936	31	-56.4		15	2
2023-09-09T12:00	23965	31	-56.3	-86.6	359	1
2023-09-09T12:00	23982	31	-56.3	-86.6	329	1
2023-09-09T12:00	24016	31	-56.4		300	1
2023-09-09T12:00	24039	31	-56.6	-86.9	289	1
2023-09-09T12:00	24069	30	-56.8	-87.0	298	1
2023-09-09T12:00	24094	30	-56.8	-87.0	329	1
2023-09-09T12:00	24121	30	-56.8	-87.0	0	1
2023-09-09T12:00	24149	30	-56.9	-87.1	13	1
2023-09-09T12:00	24176	30	-57.0	-87.2	16	2
2023-09-09T12:00	24197	30	-57.1	-87.2	13	2
2023-09-09T12:00	24232	30	-57.0	-87.2	6	2
2023-09-09T12:00	24259	30	-56.8	-87.0	355	2
2023-09-09T12:00	24287	29	-56.8	-87.0	345	2
2023-09-09T12:00	24313	29	-56.9	-87.1	341	2
2023-09-09T12:00	24343	29	-57.0	-87.2	345	2
2023-09-09T12:00	24371	29	-57.0	-87.2	356	2
2023-09-09T12:00	24393	29	-56.9	-87.1	11	3
2023-09-09T12:00	24430	29	-56.8	-87.0	26	3
2023-09-09T12:00	24456	29	-56.9	-87.1	41	3
2023-09-09T12:00	24484	29	-56.9	-87.1	54	4
2023-09-09T12:00	24502	28	-56.7	-86.9	64	4
2023-09-09T12:00	24534	28	-56.7	-86.9	74	4
2023-09-09T12:00	24560	28	-56.8	-87.0	82	5
2023-09-09T12:00	24587	28	-56.9	-87.1	90	5
2023-09-09T12:00	24617	28	-57.0	-87.2	96	5
2023-09-09T12:00	24642	28	-57.1	-87.2	101	6
2023-09-09T12:00	24672	28	-57.0	-87.2	103	6
2023-09-09T12:00	24698	28	-56.9	-87.1	104	6
2023-09-09T12:00	24728	27	-56.9	-87.1	102	6
2023-09-09T12:00	24750	27	-56.8	-87.0	100	5
2023-09-09T12:00	24780	27	-56.8	-87.0	96	5
2023-09-09T12:00	24818	27	-56.8	-87.0	91	4
2023-09-09T12:00	24838	27	-56.9	-87.7	89	4
2023-09-09T12:00	24863	27	-56.7	-87.5	89	4
2023-09-09T12:00	24900	27	-56.6	-87.5	92	4
2023-09-09T12:00	24925	27	-56.4	-87.3	97	4
2023-09-09T12:00	24954	26	-56.3	-87.2	105	5
2023-09-09T12:00	24983	26	-56.2	-87.2	113	5
2023-09-09T12:00	25007	26	-56.0	-87.0	120	5
2023-09-09T12:00	25037	26	-55.5	-87.3	127	4
2023-09-09T12:00	25062	26	-54.9	-86.9	133	4
2023-09-09T12:00	25093	26	-54.7	-86.7	139	3
2023-09-09T12:00	25121	26	-54.8	-86.8	146	3
2023-09-09T12:00	25154	26	-54.9	-86.9	150	2
2023-09-09T12:00	25175	26	-54.9	-86.9	150	2
2023-09-09T12:00	25198	25	-54.7	-86.7	135	1
2023-09-09T12:00	25232	25	-54.5	-86.6	82	1
2023-09-09T12:00	25263	25	-54.3	-86.4	39	1
2023-09-09T12:00	25289	25	-54.1	-86.3	23	2
2023-09-09T12:00	25323	25	-54.0	-86.2	17	3
2023-09-09T12:00	25348	25	-54.0	-86.2	14	4
2023-09-09T12:00	25371	25	-54.1	-86.3	14	5
2023-09-09T12:00	25412	25	-54.3	-86.4	17	5
2023-09-09T12:00	25435	25	-54.3	-86.4	22	5
2023-09-09T12:00	25477	24	-54.1	-86.3	30	5
2023-09-09T12:00	25502	24	-53.8	-86.1	40	4
2023-09-09T12:00	25530	24	-53.8	-86.1	49	4
2023-09-09T12:00	25553	24	-53.7	-86.0	54	4
2023-09-09T12:00	25591	24	-53.6		58	5
2023-09-09T12:00	25609	24	-53.5	-85.9	61	5
2023-09-09T12:00	25647	24	-53.5	-85.9	66	5
2023-09-09T12:00	25674	24	-53.5	-85.9	74	4
2023-09-09T12:00	25701	24	-53.4	-85.8	87	4
2023-09-09T12:00	25730	23	-53.3	-85.7	105	3
2023-09-09T12:00	25765	23	-53.2	-85.6	126	3
2023-09-09T12:00	25795	23	-53.3	-85.7	147	4
2023-09-09T12:00	25820	23	-53.3	-85.7	165	4
2023-09-09T12:00	25850	23	-53.2	-85.6	180	4
2023-09-09T12:00	25883	23	-53.0	-86.3	194	5
2023-09-09T12:00	25908	23	-52.8	-86.1	205	5
2023-09-09T12:00	25940	23	-52.6		214	5
2023-09-09T12:00	25964	23	-52.6		222	5
2023-09-09T12:00	25989	23	-52.4	-85.8	229	4
2023-09-09T12:00	26029	22	-51.9	-85.5	237	3
2023-09-09T12:00	26058	22	-51.6	-85.2	248	2
2023-09-09T12:00	26078	22	-51.6	-85.2	271	1
2023-09-09T12:00	26105	22	-51.6	-85.2	317	1
2023-09-09T12:00	26134	22	-51.7	-85.3	349	2
2023-09-09T12:00	26153	22	-51.7	-85.3	1	2
2023-09-09T12:00	26192	22	-51.4	-85.1	6	3
2023-09-09T12:00	26219	22	-51.1	-84.9	10	3
2023-09-09T12:00	26245	22	-51.1	-84.9	15	3
2023-09-09T12:00	26271	22	-51.1	-84.9	21	3
2023-09-09T12:00	26301	21	-51.1	-84.9	29	3
2023-09-09T12:00	26342	21	-51.2	-85.0	37	4
2023-09-09T12:00	26356	21	-51.3	-85.0	44	4
2023-09-09T12:00	26392	21	-51.5	-84.4	50	3
2023-09-09T12:00	26419	21	-51.6	-84.5	58	3
2023-09-09T12:00	26450	21	-51.6	-85.2	68	2
2023-09-09T12:00	26471	21	-51.5	-85.2	84	2
2023-09-09T12:00	26504	21	-51.5	-85.2	112	1
2023-09-09T12:00	26539	21	-51.5	-85.2	161	1
2023-09-09T12:00	26563	21	-51.4	-85.1	202	2
2023-09-09T12:00	26596	21	-51.4	-85.1	222	2
2023-09-09T12:00	26626	20	-51.2	-85.0	232	3
2023-09-09T12:00	26646	20	-51.0	-84.8	238	4
2023-09-09T12:00	26686	20	-50.9	-84.7	242	4
2023-09-09T12:00	26711	20	-50.9	-84.7	246	5
2023-09-09T12:00	26734	20	-50.9	-84.7	249	4
2023-09-09T12:00	26760	20	-51.0	-84.8	253	4
2023-09-09T12:00	26800	20	-51.1	-84.9	257	4
2023-09-09T12:00	26827	20	-51.0	-84.8	262	4
2023-09-09T12:00	26855	20	-51.0	-84.8	267	4
2023-09-09T12:00	26883	20	-51.0	-84.8	273	5
2023-09-09T12:00	26911	20	-51.1	-84.9	280	5
2023-09-09T12:00	26943	19	-51.2	-85.0	285	6
2023-09-09T12:00	26966	19	-51.2	-85.0	291	6
2023-09-09T12:00	27005	19	-51.1	-84.9	296	6
2023-09-09T12:00	27031	19	-51.2	-85.0	302	6
2023-09-09T12:00	27063	19	-51.1	-84.9	308	5
2023-09-09T12:00	27091	19	-50.8	-84.7	317	5
2023-09-09T12:00	27120	19	-50.6	-84.5	328	4
2023-09-09T12:00	27152	19	-50.6	-84.5	339	4
2023-09-09T12:00	27171	19	-50.7	-84.6	348	4
2023-09-09T12:00	27215	19	-50.7	-84.6	353	4
2023-09-09T12:00	27229	19	-50.7	-84.6	357	4
2023-09-09T12:00	27266	19	-50.7	-84.6	0	4
2023-09-09T12:00	27296	18	-50.8	-84.7	5	4
2023-09-09T12:00	27334	18	-51.0	-84.8	12	3
2023-09-09T12:00	27362	18	-51.1	-84.9	22	3
2023-09-09T12:00	27394	18	-51.3	-84.3	32	3
2023-09-09T12:00	27425	18	-51.5	-84.4	39	3
2023-09-09T12:00	27445	18	-51.7	-84.5	43	3
2023-09-09T12:00	27476	18	-51.8	-84.6	42	3
2023-09-09T12:00	27515	18	-51.9	-84.7	37	2
2023-09-09T12:00	27544	18	-52.0	-84.8	29	2
2023-09-09T12:00	27570	18	-52.0	-85.5	19	2
2023-09-09T12:00	27591	18	-52.0	-85.5	13	2
2023-09-09T12:00	27629	18	-52.1	-84.8	12	2
2023-09-09T12:00	27653	17	-52.1	-84.8	14	3
2023-09-09T12:00	27685	17	-52.1	-84.8	18	3
2023-09-09T12:00	27708	17	-52.2	-84.9	23	3
2023-09-09T12:00	27741	17	-52.2	-85.7	27	3
2023-09-09T12:00	27771	17	-52.2	-85.7	32	3
2023-09-09T12:00	27810	17	-52.1	-84.8	37	2
2023-09-09T12:00	27830	17	-52.2	-84.9	46	2
2023-09-09T12:00	27869	17	-52.3	-85.0	65	1
2023-09-09T12:00	27894	17	-52.3	-85.8	104	1
2023-09-09T12:00	27926	17	-52.3	-85.8	144	1
2023-09-09T12:00	27943	17	-52.2	-85.7	172	1
2023-09-09T12:00	27985	17	-52.0	-85.5	198	1
2023-09-09T12:00	28023	16	-51.7	-85.3	228	1
2023-09-09T12:00	28043	16	-51.3	-85.9	259	1
2023-09-09T12:00	28073	16	-51.1	-85.8	287	2
2023-09-09T12:00	28106	16	-50.8	-85.6	310	2
2023-09-09T12:00	28133	16	-50.6	-85.4	328	3
2023-09-09T12:00	28174	16	-50.4	-85.3	343	3
2023-09-09T12:00	28189	16	-50.3	-85.2	355	3
2023-09-09T12:00	28233	16	-50.2	-85.1	7	3
2023-09-09T12:00	28247	16	-50.0	-85.0	20	3
2023-09-09T12:00	28286	16	-49.8	-84.8	34	3
2023-09-09T12:00	28310	16	-49.6	-84.7	53	3
2023-09-09T12:00	28352	16	-49.3	-85.5	79	3
2023-09-09T12:00	28384	16	-49.0	-85.3	110	3
2023-09-09T12:00	28404	16	-48.8	-85.2	132	3
2023-09-09T12:00	28425	15	-48.5	-85.0	145	4
2023-09-09T12:00	28471	15	-48.5	-85.0	150	5
2023-09-09T12:00	28503	15	-48.4	-84.9	151	5
2023-09-09T12:00	28528	15	-48.3	-84.8	149	4
2023-09-09T12:00	28551	15	-48.2	-84.8	145	4
2023-09-09T12:00	28582	15	-48.2	-83.7	138	3
2023-09-09T12:00	28618	15	-48.2	-83.7	131	3
2023-09-09T12:00	28630	15	-48.3	-83.8	128	3
2023-09-09T12:00	28664	15	-48.2	-83.7	130	3
2023-09-09T12:00	28695	15	-48.1	-84.7	138	3
2023-09-09T12:00	28731	15	-47.8	-84.5	147	3
2023-09-09T12:00	28749	15	-47.7	-84.4	156	4
2023-09-09T12:00	28791	15	-47.7	-84.4	163	4
2023-09-09T12:00	28809	15	-47.7	-84.4	169	5
2023-09-09T12:00	28837	15	-47.6	-84.3	174	5
2023-09-09T12:00	28876	14	-47.6	-84.3	177	5
2023-09-09T12:00	28899	14	-47.7	-84.4	181	5
2023-09-09T12:00	28933	14	-47.7	-83.4	185	5
2023-09-09T12:00	28955	14	-47.6	-83.3	190	5
2023-09-09T12:00	28982	14	-47.6	-83.3	196	5
2023-09-09T12:00	29023	14	-47.5	-84.3	202	6
2023-09-09T12:00	29042	14	-47.3	-84.1	207	6
2023-09-09T12:00	29068	14	-47.2	-84.1	210	6
2023-09-09T12:00	29096	14	-47.0	-83.9	213	7
2023-09-09T12:00	29138	14	-46.7	-83.7	216	7
2023-09-09T12:00	29156	14	-46.5	-83.6	219	8
2023-09-09T12:00	29203	14	-46.5	-83.6	224	8
2023-09-09T12:00	29215	14	-46.4	-83.5	229	7
2023-09-09T12:00	29258	14	-46.5	-83.6	234	8
2023-09-09T12:00	29289	14	-46.6	-83.6	239	8
2023-09-09T12:00	29310	14	-46.7	-83.7	244	8
2023-09-09T12:00	29328	14	-46.6	-83.6	248	8
2023-09-09T12:00	29363	13	-46.2	-83.4	252	8
2023-09-09T12:00	29400	13	-45.8	-83.1	256	8
2023-09-09T12:00	29442	13	-45.6	-82.9	261	8
2023-09-09T12:00	29466	13	-45.6	-82.9	266	8
2023-09-09T12:00	29495	13	-45.6	-82.9	270	7
2023-09-09T12:00	29535	13	-45.6	-82.9	273	7
2023-09-09T12:00	29558	13	-45.6	-82.9	274	6
2023-09-09T12:00	29589	13	-45.6	-82.9	272	6
2023-09-09T12:00	29620	13	-45.6	-82.9	269	5
2023-09-09T12:00	29650	13	-45.6	-82.9	265	5
2023-09-09T12:00	29665	13	-45.6	-82.9	260	4
2023-09-09T12:00	29714	13	-45.7	-83.0	254	3
2023-09-09T12:00	29752	13	-45.8	-83.1	246	3
2023-09-09T12:00	29782	13	-45.9	-83.2	236	3
2023-09-09T12:00	29805	13	-46.0	-83.2	227	3
2023-09-09T12:00	29859	13	-46.0	-83.2	224	4
2023-09-09T12:00	29865	12	-45.9	-83.2	224	5
2023-09-09T12:00	29915	12	-45.8	-83.1	225	6
2023-09-09T12:00	29946	12	-45.8	-83.1	227	8
2023-09-09T12:00	29969	12	-45.9	-83.2	229	9
2023-09-09T12:00	30004	12	-45.8	-83.1	231	10
2023-09-09T12:00	30028	12	-45.6	-82.9	233	11
2023-09-09T12:00	30051	12	-45.4	-82.8	236	11
2023-09-09T12:00	30098	12	-45.2	-82.7	239	11
2023-09-09T12:00	30139	12	-44.9	-82.5	242	11
2023-09-09T12:00	30150	12	-44.4	-82.1	246	10
2023-09-09T12:00	30183	12	-44.1	-81.9	250	10
2023-09-09T12:00	30206	12	-44.0	-81.8	255	10
2023-09-09T12:00	30232	12	-44.0	-81.8	260	10
2023-09-09T12:00	30265	12	-44.0	-81.8	264	9
2023-09-09T12:00	30293	12	-44.0	-81.8	268	9
2023-09-09T12:00	30330	12	-43.9	-81.8	271	9
2023-09-09T12:00	30352	12	-44.0	-81.8	273	9
2023-09-09T12:00	30389	12	-44.1	-81.9	273	9
2023-09-09T12:00	30428	11	-44.3	-82.0	274	9
2023-09-09T12:00	30449	11	-44.5	-82.2	274	9
2023-09-09T12:00	30489	11	-44.6	-82.2	275	9
2023-09-09T12:00	30505	11	-44.8	-82.4	275	9
2023-09-09T12:00	30522	11	-44.9	-82.5	275	9
2023-09-09T12:00	30562	11	-45.0	-82.5	276	9
2023-09-09T12:00	30593	11	-45.1	-82.6	275	9
2023-09-09T12:00	30626	11	-45.1	-82.6	274	9
2023-09-09T12:00	30646	11	-45.1	-82.6	272	8
2023-09-09T12:00	30691	11	-45.1	-82.6	269	8
2023-09-09T12:00	30699	11	-45.0	-82.5	265	8
2023-09-09T12:00	30733	11	-44.8	-82.4	261	8
2023-09-09T12:00	30771	11	-44.6	-82.2	258	9
2023-09-09T12:00	30779	11	-44.4	-82.1	256	9
2023-09-09T12:00	30842	11	-44.1	-81.9	253	9
2023-09-09T12:00	30851	11	-43.9	-81.8	250	9
2023-09-09T12:00	30882	11	-43.9	-81.8	246	9
2023-09-09T12:00	30916	11	-43.9	-81.8	241	9
2023-09-09T12:00	30938	11	-44.0	-81.8	236	9
2023-09-09T12:00	30960	11	-44.1	-81.9	231	9
2023-09-09T12:00	30995	11	-44.1	-81.9	228	9
2023-09-09T12:00	31038	10	-44.2	-82.0	226	10
2023-09-09T12:00	31061	10	-44.2	-82.0	224	11
2023-09-09T12:00	31089	10	-44.1	-81.9	223	12
2023-09-09T12:00	31114	10	-44.0	-81.8	222	12
2023-09-09T12:00	31146	10	-43.9	-81.8	220	13
2023-09-09T12:00	31163	10	-43.9	-81.8	218	13
2023-09-09T12:00	31200	10	-43.9	-81.8	217	13
2023-09-09T12:00	31228	10	-43.8	-81.7	217	13
2023-09-09T12:00	31267	10	-43.8	-81.7	218	13
2023-09-09T12:00	31280	10	-43.8	-81.7	220	13
2023-09-09T12:00	31321	10	-43.8	-81.7	223	12
2023-09-09T12:00	31342	10	-43.9	-81.8	227	12
2023-09-09T12:00	31374	10	-44.1	-81.9	232	11
2023-09-09T12:00	31407	10	-44.2	-82.0	237	11
2023-09-09T12:00	31438	10	-44.0	-81.8	241	11
2023-09-09T12:00	31456	10	-43.8	-81.7	244	12
2023-09-09T12:00	31489	10	-43.6	-81.5	247	12
2023-09-09T12:00	31515	10	-43.5	-81.5	250	12
2023-09-09T12:00	31549	10	-43.5	-81.5	252	12
2023-09-09T12:00	31573	10	-43.5	-81.5	254	12
2023-09-09T12:00	31618	10	-43.5	-81.5	256	12
2023-09-09T12:00	31653	10	-43.4	-81.4	259	12
2023-09-09T12:00	31679	10	-43.1	-81.2	263	11
2023-09-09T12:00	31702	9	-42.9	-81.1	267	11
2023-09-09T12:00	31723	9	-42.8	-81.0	273	10
2023-09-09T12:00	31764	9	-42.8	-81.0	279	10
2023-09-09T12:00	31807	9	-42.8	-81.0	284	10
2023-09-09T12:00	31808	9	-42.8	-81.0	288	10
2023-09-09T12:00	31856	9	-42.7	-80.9	291	10
2023-09-09T12:00	31885	9	-42.4	-80.7	291	10
2023-09-09T12:00	31930	9	-42.2	-80.6	288	10
2023-09-09T12:00	31937	9	-41.9	-80.4	283	10
2023-09-09T12:00	31968	9	-41.6	-80.1	276	9
2023-09-09T12:00	31999	9	-41.5	-80.1	269	9
2023-09-09T12:00	32042	9	-41.6	-80.1	262	10
2023-09-09T12:00	32059	9	-41.7	-80.2	257	10
2023-09-09T12:00	32097	9	-41.8	-80.3	252	10
2023-09-09T12:00	32112	9	-41.9	-80.4	248	10
2023-09-09T12:00	32146	9	-42.0	-80.4	245	11
2023-09-09T12:00	32179	9	-41.9	-80.4	243	11
2023-09-09T12:00	32201	9	-41.7	-80.2	241	12
2023-09-09T12:00	32248	9	-41.4	-80.0	238	12
2023-09-09T12:00	32255	9	-41.2	-79.9	236	13
2023-09-09T12:00	32285	9	-41.2	-79.9	235	13
2023-09-09T12:00	32323	9	-41.0	-79.7	235	14
2023-09-09T12:00	32360	9	-40.8	-79.6	236	14
2023-09-09T12:00	32382	9	-40.6	-79.5	239	14
2023-09-09T12:00	32398	9	-40.3	-79.2	243	13
2023-09-09T12:00	32432	9	-40.1	-79.1	248	13
2023-09-09T12:00	32446	9	-40.0	-79.0	252	12
2023-09-09T12:00	32463	8	-39.7	-78.8	254	12
2023-09-09T12:00	32504	8	-39.6	-78.8	255	12
2023-09-09T12:00	32527	8	-39.4	-78.6	255	11
2023-09-09T12:00	32573	8	-39.2	-78.5	254	11
2023-09-09T12:00	32592	8	-39.0	-78.3	255	10
2023-09-09T12:00	32624	8	-38.8	-78.2	256	10
2023-09-09T12:00	32650	8	-38.5	-78.0	259	10
2023-09-09T12:00	32688	8	-38.4	-77.9	263	9
2023-09-09T12:00	32725	8	-38.5	-78.0	267	8
2023-09-09T12:00	32741	8	-38.7	-78.1	271	8
2023-09-09T12:00	32761	8	-38.9	-78.3	276	7
2023-09-09T12:00	32816	8	-39.0	-78.3	280	6
2023-09-09T12:00	32827	8	-39.1	-78.4	283	5
2023-09-09T12:00	32862	8	-39.2	-78.5	284	5
2023-09-09T12:00	32893	8	-39.1	-78.4	280	5
2023-09-09T12:00	32937	8	-38.9	-78.3	274	5
2023-09-09T12:00	32960	8	-38.8	-78.2	266	5
2023-09-09T12:00	32999	8	-38.7	-78.1	260	6
2023-09-09T12:00	33010	8	-38.6	-78.1	255	7
2023-09-09T12:00	33064	8	-38.6	-78.1	251	8
2023-09-09T12:00	33100	8	-38.6	-78.1	247	9
2023-09-09T12:00	33102	8	-38.7	-78.1	244	10
2023-09-09T12:00	33130	8	-38.8	-78.2	241	11
2023-09-09T12:00	33155	8	-39.0	-78.3	238	12
2023-09-09T12:00	33196	8	-39.2	-78.5	235	13
2023-09-09T12:00	33226	8	-39.3	-78.5	234	14
2023-09-09T12:00	33231	8	-39.2	-78.5	234	15
2023-09-09T12:00	33296	8	-39.1	-78.4	235	16
2023-09-09T12:00	33325	8	-39.1	-78.4	237	16
2023-09-09T12:00	33359	7	-39.1	-78.4	240	17
2023-09-09T12:00	33386	7	-39.0	-78.3	243	17
2023-09-09T12:00	33420	7	-38.8	-78.2	246	18
2023-09-09T12:00	33454	7	-38.5	-78.0	248	18
2023-09-09T12:00	33469	7	-38.2	-77.8	250	17
2023-09-09T12:00	33489	7	-37.9	-77.6	251	17
2023-09-09T12:00	33532	7	-37.8	-77.5	253	16
2023-09-09T12:00	33573	7	-37.8	-77.5	255	16
2023-09-09T12:00	33604	7	-37.9	-77.6	258	15
2023-09-09T12:00	33644	7	-38.0	-77.6	261	15
2023-09-09T12:00	33664	7	-38.1	-77.7	264	15
2023-09-09T12:00	33668	7	-38.1	-77.7	266	15
2023-09-09T12:00	33714	7	-37.9	-77.6	267	15
2023-09-09T12:00	33759	7	-37.7	-77.4	268	14
2023-09-09T12:00	33795	7	-37.5	-77.3	269	14
2023-09-09T12:00	33801	7	-37.5	-77.3	270	14
2023-09-09T12:00	33823	7	-37.5	-77.3	270	14
2023-09-09T12:00	33850	7	-37.6	-77.4	271	13
2023-09-09T12:00	33887	7	-37.6	-77.4	272	13
2023-09-09T12:00	33909	7	-37.6	-77.4	273	13
2023-09-09T12:00	33925	7	-37.6	-77.4	274	12
2023-09-09T12:00	33994	7	-37.6	-77.4	276	12
2023-09-09T12:00	34021	7	-37.3	-77.2	278	11
2023-09-09T12:00	34055	7	-37.3	-77.2	279	11
2023-09-09T12:00	34079	7	-37.3	-77.2	279	10
2023-09-09T12:00	34104	7	-37.3	-77.2	279	10
2023-09-09T18:00	116	1004	27.0	11.8	131	1
2023-09-09T18:00	142	1001	27.5	11.0	141	2
2023-09-09T18:00	170	998	27.8	10.3	142	3
2023-09-09T18:00	194	995	27.7	10.1	145	4
2023-09-09T18:00	220	992	27.5	10.0	148	5
2023-09-09T18:00	242	990	27.2	10.0	151	5
2023-09-09T18:00	269	987	27.0	9.9	154	5
2023-09-09T18:00	293	984	26.8	9.8	156	5
2023-09-09T18:00	317	982	26.6	9.8	157	5
2023-09-09T18:00	341	979	26.4	9.7	157	5
2023-09-09T18:00	367	976	26.1	9.5	158	4
2023-09-09T18:00	390	973	25.9	9.4	159	4
2023-09-09T18:00	417	970	25.7	9.4	162	4
2023-09-09T18:00	445	967	25.5	9.2	164	4
2023-09-09T18:00	471	964	25.2	9.1	166	5
2023-09-09T18:00	496	962	25.0	9.1	166	5
2023-09-09T18:00	519	959	24.7	9.1	164	5
2023-09-09T18:00	544	957	24.5	9.1	162	5
2023-09-09T18:00	565	954	24.3	9.0	160	5
2023-09-09T18:00	589	951	24.0	8.9	159	5
2023-09-09T18:00	617	949	23.8	8.8	158	5
2023-09-09T18:00	638	946	23.6	8.9	159	5
2023-09-09T18:00	663	944	23.3	8.7	160	5
2023-09-09T18:00	682	941	23.2	8.8	162	5
2023-09-09T18:00	704	939	22.9	8.7	164	5
2023-09-09T18:00	728	936	22.7	8.7	166	5
2023-09-09T18:00	755	934	22.4	8.6	169	5
2023-09-09T18:00	779	931	22.2	8.7	171	4
2023-09-09T18:00	810	928	21.9	8.7	173	4
2023-09-09T18:00	837	925	21.6	8.7	174	4
2023-09-09T18:00	865	922	21.4	8.9	175	4
2023-09-09T18:00	890	919	21.1	8.7	177	5
2023-09-09T18:00	915	916	20.9	8.7	178	5
2023-09-09T18:00	947	913	20.6	8.6	180	5
2023-09-09T18:00	977	910	20.3	8.6	182	5
2023-09-09T18:00	1008	907	20.0	8.6	184	5
2023-09-09T18:00	1038	904	19.7	8.4	186	4
2023-09-09T18:00	1065	901	19.4	8.5	188	4
2023-09-09T18:00	1087	898	19.2	8.4	191	4
2023-09-09T18:00	1111	896	19.0	8.5	195	4
2023-09-09T18:00	1132	894	18.8	8.4	197	4
2023-09-09T18:00	1153	891	18.5	8.3	196	4
2023-09-09T18:00	1175	889	18.3	8.3	195	4
2023-09-09T18:00	1204	886	18.1	8.3	192	4
2023-09-09T18:00	1233	883	17.8	7.2	188	4
2023-09-09T18:00	1256	881	18.8	-2.4	184	4
2023-09-09T18:00	1278	878	19.0	-4.7	180	3
2023-09-09T18:00	1303	876	19.0	-6.3	175	3
2023-09-09T18:00	1333	873	19.3	-10.1	173	2
2023-09-09T18:00	1356	871	19.3	-11.6	179	2
2023-09-09T18:00	1380	868	19.1	-12.5	193	2
2023-09-09T18:00	1408	865	19.0	-13.5	210	3
2023-09-09T18:00	1433	863	18.8	-13.8	223	3
2023-09-09T18:00	1460	860	18.6	-13.8	232	4
2023-09-09T18:00	1481	858	18.7	-14.3	237	4
2023-09-09T18:00	1510	855	18.7	-14.5	239	4
2023-09-09T18:00	1532	853	18.6	-14.5	237	3
2023-09-09T18:00	1554	851	18.4	-14.6	233	3
2023-09-09T18:00	1575	848	18.3	-14.5	227	3
2023-09-09T18:00	1608	845	18.1	-14.7	224	3
2023-09-09T18:00	1633	843	17.9	-14.6	222	4
2023-09-09T18:00	1660	840	17.7	-14.4	221	4
2023-09-09T18:00	1686	838	17.5	-14.4	220	4
2023-09-09T18:00	1711	835	17.2	-14.5	219	4
2023-09-09T18:00	1736	833	17.0	-14.7	220	5
2023-09-09T18:00	1760	830	16.8	-14.7	224	5
2023-09-09T18:00	1786	828	16.7	-14.8	229	5
2023-09-09T18:00	1807	826	16.6	-15.1	236	5
2023-09-09T18:00	1827	824	16.6	-15.7	242	5
2023-09-09T18:00	1848	822	16.6	-16.7	247	5
2023-09-09T18:00	1873	819	16.7	-17.8	250	5
2023-09-09T18:00	1898	817	16.6	-18.2	251	5
2023-09-09T18:00	1920	815	16.6	-19.2	248	5
2023-09-09T18:00	1943	813	16.6	-19.8	243	4
2023-09-09T18:00	1970	810	16.5	-20.0	236	4
2023-09-09T18:00	1994	808	16.4	-20.3	228	4
2023-09-09T18:00	2020	805	16.4	-20.3	222	4
2023-09-09T18:00	2040	803	16.4	-20.5	217	4
2023-09-09T18:00	2060	801	16.4	-20.3	212	4
2023-09-09T18:00	2088	799	16.5	-18.6	209	5
2023-09-09T18:00	2111	797	16.5		208	6
2023-09-09T18:00	2133	794	16.5	-17.8	210	6
2023-09-09T18:00	2159	792	16.3	-17.9	214	7
2023-09-09T18:00	2191	789	16.2	-17.5	220	7
2023-09-09T18:00	2219	787	16.4	-18.6	226	7
2023-09-09T18:00	2247	784	16.5	-19.5	230	8
2023-09-09T18:00	2267	782	16.4	-20.1	231	8
2023-09-09T18:00	2292	780	16.3	-19.2	230	8
2023-09-09T18:00	2307	778	16.2	-19.5	230	8
2023-09-09T18:00	2335	776	16.1	-19.4	230	7
2023-09-09T18:00	2359	774	16.0	-20.1	233	6
2023-09-09T18:00	2389	771	15.8	-21.1	238	6
2023-09-09T18:00	2420	768	15.7	-20.7	242	5
2023-09-09T18:00	2445	766	15.7	-20.0	244	5
2023-09-09T18:00	2473	763	15.5	-19.3	243	5
2023-09-09T18:00	2501	761	15.3	-18.6	241	5
2023-09-09T18:00	2530	758	15.0	-19.3	240	5
2023-09-09T18:00	2556	756	14.9	-20.0	242	5
2023-09-09T18:00	2581	754	14.7	-19.6	248	4
2023-09-09T18:00	2606	751	14.4	-19.2	257	4
2023-09-09T18:00	2633	749	14.2	-19.3	268	4
2023-09-09T18:00	2657	747	14.1	-18.2	275	4
2023-09-09T18:00	2680	745	13.9	-18.5	276	4
2023-09-09T18:00	2709	742	13.7	-18.1	272	4
2023-09-09T18:00	2732	740	13.5	-19.2	266	5
2023-09-09T18:00	2754	738	13.3	-16.5	259	5
2023-09-09T18:00	2778	736	13.1	-15.9	255	5
2023-09-09T18:00	2805	734	12.8	-16.8	253	5
2023-09-09T18:00	2833	731	12.6	-17.0	254	5
2023-09-09T18:00	2865	729	12.5	-20.5	255	6
2023-09-09T18:00	2897	726	12.3	-20.2	256	6
2023-09-09T18:00	2928	723	12.2	-21.3	256	6
2023-09-09T18:00	2953	721	12.0	-21.3	253	6
2023-09-09T18:00	2978	719	11.8	-21.3	250	6
2023-09-09T18:00	3010	716	11.6	-21.4	246	6
2023-09-09T18:00	3036	714	11.3	-21.6	243	6
2023-09-09T18:00	3063	712	11.1	-21.4	243	6
2023-09-09T18:00	3085	710	10.9	-21.3	245	6
2023-09-09T18:00	3111	707	10.7	-21.4	250	6
2023-09-09T18:00	3137	705	10.5	-21.7	254	7
2023-09-09T18:00	3165	703	10.3	-22.1	257	7
2023-09-09T18:00	3186	701	10.2	-21.8	258	7
2023-09-09T18:00	3213	699	10.0	-19.9	260	7
2023-09-09T18:00	3241	696	9.7	-18.8	260	7
2023-09-09T18:00	3272	694	9.4	-16.2	261	7
2023-09-09T18:00	3296	692	9.2	-19.6	260	7
2023-09-09T18:00	3318	690	9.1	-21.8	259	6
2023-09-09T18:00	3343	688	8.9	-22.2	257	6
2023-09-09T18:00	3362	686	8.8	-22.0	255	6
2023-09-09T18:00	3388	684	8.6	-22.6	256	5
2023-09-09T18:00	3413	682	8.4	-22.9	259	6
2023-09-09T18:00	3435	680	8.2	-21.2	261	6
2023-09-09T18:00	3458	678	8.1	-19.7	261	6
2023-09-09T18:00	3486	676	7.8	-18.2	259	6
2023-09-09T18:00	3513	674	7.6	-18.0	254	6
2023-09-09T18:00	3539	672	7.4	-19.4	247	6
2023-09-09T18:00	3567	670	7.2	-21.5	241	5
2023-09-09T18:00	3586	668	7.1	-21.9	235	5
2023-09-09T18:00	3610	666	6.9	-21.5	230	4
2023-09-09T18:00	3634	664	6.7	-21.6	228	4
2023-09-09T18:00	3655	662	6.5	-22.5	230	4
2023-09-09T18:00	3676	660	6.3	-22.4	233	5
2023-09-09T18:00	3704	658	6.1	-22.2	237	5
2023-09-09T18:00	3722	657	5.9	-22.9	240	5
2023-09-09T18:00	3749	655	5.7	-23.8	243	5
2023-09-09T18:00	3777	652	5.5	-26.2	245	5
2023-09-09T18:00	3804	650	5.3	-26.4	246	4
2023-09-09T18:00	3831	648	5.3	-31.4	245	3
2023-09-09T18:00	3861	646	5.1	-32.6	243	2
2023-09-09T18:00	3882	644	5.0	-33.2	240	2
2023-09-09T18:00	3906	642	5.0	-30.1	239	1
2023-09-09T18:00	3936	640	4.8	-28.4	242	1
2023-09-09T18:00	3955	638	4.6	-27.7	248	1
2023-09-09T18:00	3986	636	4.3	-26.6	252	1
2023-09-09T18:00	4017	634	4.0		253	1
2023-09-09T18:00	4043	631	3.7	-26.4	250	1
2023-09-09T18:00	4070	629	3.5	-25.3	242	1
2023-09-09T18:00	4097	627	3.3	-25.2	232	1
2023-09-09T18:00	4128	625	3.0	-24.3	224	1
2023-09-09T18:00	4157	623	2.7	-23.9	218	2
2023-09-09T18:00	4185	621	2.4	-23.8	214	2
2023-09-09T18:00	4213	618	2.2	-23.7	213	2
2023-09-09T18:00	4235	617	1.9	-23.6	215	2
2023-09-09T18:00	4255	615	1.7	-23.3	219	3
2023-09-09T18:00	4281	613	1.5	-23.0	224	3
2023-09-09T18:00	4308	611	1.3	-23.4	230	3
2023-09-09T18:00	4335	609	1.0	-24.3	235	3
2023-09-09T18:00	4362	607	0.8	-24.2	237	3
2023-09-09T18:00	4387	605	0.6	-24.6	236	3
2023-09-09T18:00	4408	604	0.4	-25.0	233	3
2023-09-09T18:00	4429	602	0.2	-25.4	229	2
2023-09-09T18:00	4454	600	0.0	-24.6	227	2
2023-09-09T18:00	4484	598	-0.2	-24.8	226	2
2023-09-09T18:00	4507	596	-0.5	-23.7	227	2
2023-09-09T18:00	4535	594	-0.7	-22.7	227	2
2023-09-09T18:00	4559	592	-1.0	-22.4	226	2
2023-09-09T18:00	4584	590	-1.1	-24.6	225	2
2023-09-09T18:00	4608	589	-1.3	-23.9	226	2
2023-09-09T18:00	4633	587	-1.6	-23.9	227	2
2023-09-09T18:00	4663	585	-1.8	-23.6	227	2
2023-09-09T18:00	4693	582	-2.0	-22.9	228	3
2023-09-09T18:00	4722	580	-2.2	-22.1	228	4
2023-09-09T18:00	4753	578	-2.3	-22.2	229	4
2023-09-09T18:00	4781	576	-2.6	-22.7	230	5
2023-09-09T18:00	4800	574	-2.6	-24.0	232	4
2023-09-09T18:00	4826	573	-2.6	-25.6	233	4
2023-09-09T18:00	4852	571	-2.7	-26.8	233	3
2023-09-09T18:00	4880	569	-2.8	-27.9	231	2
2023-09-09T18:00	4902	567	-2.9	-27.4	223	2
2023-09-09T18:00	4928	565	-3.1	-24.9	214	2
2023-09-09T18:00	4953	564	-3.3	-24.2	208	2
2023-09-09T18:00	4979	562	-3.5	-24.2	207	2
2023-09-09T18:00	5008	560	-3.6	-24.2	213	2
2023-09-09T18:00	5031	558	-3.6	-26.2	227	2
2023-09-09T18:00	5054	556	-3.5		246	2
2023-09-09T18:00	5081	555	-3.7	-28.6	260	2
2023-09-09T18:00	5100	553	-3.8	-28.4	265	2
2023-09-09T18:00	5126	551	-4.0	-28.4	262	2
2023-09-09T18:00	5158	549	-4.3	-28.5	258	3
2023-09-09T18:00	5185	547	-4.4	-28.7	258	3
2023-09-09T18:00	5210	546	-4.5	-29.1	262	3
2023-09-09T18:00	5233	544	-4.6	-29.6	269	3
2023-09-09T18:00	5254	542	-4.7	-30.1	277	3
2023-09-09T18:00	5276	541	-4.9	-30.6	285	3
2023-09-09T18:00	5306	539	-4.9	-30.5	292	3
2023-09-09T18:00	5332	537	-5.1	-30.1	297	3
2023-09-09T18:00	5359	535	-5.4	-30.0	298	4
2023-09-09T18:00	5386	533	-5.6	-29.9	298	5
2023-09-09T18:00	5408	532	-5.8	-29.3	296	5
2023-09-09T18:00	5433	530	-5.9	-28.9	295	6
2023-09-09T18:00	5460	528	-6.1	-28.5	293	6
2023-09-09T18:00	5487	527	-6.3	-28.2	290	6
2023-09-09T18:00	5513	525	-6.5	-28.3	288	7
2023-09-09T18:00	5541	523	-6.6	-28.3	285	7
2023-09-09T18:00	5568	521	-6.6	-30.7	283	7
2023-09-09T18:00	5595	519	-6.7	-30.8	281	7
2023-09-09T18:00	5617	518	-6.8	-30.5	280	7
2023-09-09T18:00	5639	516	-6.9		279	7
2023-09-09T18:00	5665	515	-7.1	-30.6	279	7
2023-09-09T18:00	5692	513	-7.2	-30.9	279	6
2023-09-09T18:00	5721	511	-7.4	-32.1	279	6
2023-09-09T18:00	5751	509	-7.6	-32.8	280	6
2023-09-09T18:00	5776	507	-7.7	-33.5	282	6
2023-09-09T18:00	5810	505	-7.9	-33.4	285	7
2023-09-09T18:00	5837	503	-8.2	-32.7	287	7
2023-09-09T18:00	5867	502	-8.4	-32.1	289	7
2023-09-09T18:00	5893	500	-8.6	-32.3	290	7
2023-09-09T18:00	5914	498	-8.7	-32.0	291	7
2023-09-09T18:00	5937	497	-8.9	-30.4	293	7
2023-09-09T18:00	5970	495	-9.2	-30.0	296	6
2023-09-09T18:00	6004	493	-9.5	-30.3	299	6
2023-09-09T18:00	6033	491	-9.7	-30.6	302	6
2023-09-09T18:00	6057	489	-9.8	-31.3	303	6
2023-09-09T18:00	6081	488	-10.0	-31.1	302	6
2023-09-09T18:00	6104	486	-10.2	-32.0	301	7
2023-09-09T18:00	6131	485	-10.4	-32.8	299	7
2023-09-09T18:00	6160	483	-10.6	-32.6	299	7
2023-09-09T18:00	6182	481	-10.8	-33.0	299	7
2023-09-09T18:00	6206	480	-11.0	-33.0	299	7
2023-09-09T18:00	6235	478	-11.2	-34.0	299	7
2023-09-09T18:00	6260	476	-11.3	-35.0	299	7
2023-09-09T18:00	6292	475	-11.5	-34.8	299	7
2023-09-09T18:00	6325	473	-11.8	-33.8	299	7
2023-09-09T18:00	6351	471	-12.0	-34.1	299	7
2023-09-09T18:00	6374	469	-12.2	-34.1	299	7
2023-09-09T18:00	6402	468	-12.5	-34.1	299	7
2023-09-09T18:00	6434	466	-12.8	-34.3	299	7
2023-09-09T18:00	6468	464	-13.1	-33.7	298	7
2023-09-09T18:00	6492	462	-13.3	-33.4	296	7
2023-09-09T18:00	6521	461	-13.6	-34.0	294	7
2023-09-09T18:00	6539	459	-13.8	-34.1	292	7
2023-09-09T18:00	6561	458	-14.0	-34.6	292	7
2023-09-09T18:00	6585	457	-14.2	-34.8	292	7
2023-09-09T18:00	6613	455	-14.4	-33.9	292	7
2023-09-09T18:00	6637	454	-14.6	-33.2	292	7
2023-09-09T18:00	6660	452	-14.8	-33.2	291	7
2023-09-09T18:00	6689	450	-15.1	-33.2	290	7
2023-09-09T18:00	6720	449	-15.3	-33.1	290	7
2023-09-09T18:00	6746	447	-15.5	-33.3	291	7
2023-09-09T18:00	6769	446	-15.7	-33.6	293	7
2023-09-09T18:00	6794	444	-15.9	-34.2	296	7
2023-09-09T18:00	6824	443	-16.2	-34.0	299	7
2023-09-09T18:00	6853	441	-16.4	-34.1	301	7
2023-09-09T18:00	6882	439	-16.5	-34.7	303	7
2023-09-09T18:00	6915	437	-16.7	-35.2	304	6
2023-09-09T18:00	6938	436	-16.8	-36.3	305	6
2023-09-09T18:00	6961	435	-16.8	-37.8	306	6
2023-09-09T18:00	6981	433	-16.9	-39.1	305	6
2023-09-09T18:00	7008	432	-17.0	-40.3	304	6
2023-09-09T18:00	7045	430	-17.1	-40.9	300	6
2023-09-09T18:00	7080	428	-17.3	-41.5	296	6
2023-09-09T18:00	7103	426	-17.4	-41.9	293	6
2023-09-09T18:00	7127	425	-17.5	-42.0	292	6
2023-09-09T18:00	7157	423	-17.8	-41.7	294	6
2023-09-09T18:00	7184	422	-17.9	-40.6	297	6
2023-09-09T18:00	7220	420	-18.1	-40.0	302	6
2023-09-09T18:00	7248	418	-18.3	-40.4	305	6
2023-09-09T18:00	7272	417	-18.4	-40.0	308	7
2023-09-09T18:00	7295	415	-18.6	-39.9	311	7
2023-09-09T18:00	7327	414	-18.8	-40.2	314	7
2023-09-09T18:00	7352	412	-19.1	-39.2	318	7
2023-09-09T18:00	7385	411	-19.3	-39.0	321	7
2023-09-09T18:00	7408	409	-19.5	-39.5	323	7
2023-09-09T18:00	7434	408	-19.6	-39.3	324	7
2023-09-09T18:00	7464	406	-19.9	-39.1	323	7
2023-09-09T18:00	7496	404	-20.2	-38.9	323	7
2023-09-09T18:00	7524	403	-20.4	-38.9	323	8
2023-09-09T18:00	7554	401	-20.6	-39.2	324	9
2023-09-09T18:00	7591	399	-20.8	-40.8	325	9
2023-09-09T18:00	7616	398	-20.8	-43.7	325	10
2023-09-09T18:00	7642	397	-21.0	-44.5	325	10
2023-09-09T18:00	7666	395	-21.1	-44.1	324	10
2023-09-09T18:00	7686	394	-21.3	-44.3	323	10
2023-09-09T18:00	7707	393	-21.5	-44.7	321	9
2023-09-09T18:00	7731	392	-21.6	-44.8	319	9
2023-09-09T18:00	7756	390	-21.7	-46.6	317	9
2023-09-09T18:00	7782	389	-21.9	-46.8	316	9
2023-09-09T18:00	7812	387	-22.1	-47.8	316	9
2023-09-09T18:00	7846	386	-22.2	-48.5	318	9
2023-09-09T18:00	7879	384	-22.4	-48.6	319	9
2023-09-09T18:00	7901	383	-22.6	-49.2	319	9
2023-09-09T18:00	7926	382	-22.7	-48.9	319	9
2023-09-09T18:00	7946	380	-22.9	-48.6	318	9
2023-09-09T18:00	7974	379	-23.2	-48.4	316	9
2023-09-09T18:00	8005	377	-23.4	-48.9	314	10
2023-09-09T18:00	8041	376	-23.7	-49.0	312	10
2023-09-09T18:00	8069	374	-23.9	-48.6	310	10
2023-09-09T18:00	8088	373	-24.1	-49.6	309	10
2023-09-09T18:00	8110	372	-24.2	-48.8	308	10
2023-09-09T18:00	8129	371	-24.3	-49.6	309	10
2023-09-09T18:00	8154	370	-24.5	-48.5	310	10
2023-09-09T18:00	8183	368	-24.7	-47.0	312	10
2023-09-09T18:00	8220	366	-25.1	-46.8	314	10
2023-09-09T18:00	8250	365	-25.3	-47.4	315	10
2023-09-09T18:00	8271	364	-25.5	-47.5	316	10
2023-09-09T18:00	8296	363	-25.7	-47.9	315	10
2023-09-09T18:00	8328	361	-26.0	-49.0	315	10
2023-09-09T18:00	8351	360	-26.2	-49.8	315	10
2023-09-09T18:00	8374	359	-26.4	-50.3	316	10
2023-09-09T18:00	8399	357	-26.6	-50.0	317	10
2023-09-09T18:00	8426	356	-26.8	-49.4	319	10
2023-09-09T18:00	8457	355	-27.0	-49.4	320	10
2023-09-09T18:00	8482	353	-27.3	-49.1	321	10
2023-09-09T18:00	8511	352	-27.5	-49.1	321	10
2023-09-09T18:00	8545	350	-27.8	-49.3	320	10
2023-09-09T18:00	8572	349	-28.1	-50.9	318	10
2023-09-09T18:00	8596	348	-28.2	-51.2	317	10
2023-09-09T18:00	8619	347	-28.4	-51.2	315	10
2023-09-09T18:00	8648	345	-28.5	-49.5	314	10
2023-09-09T18:00	8675	344	-28.8	-48.7	313	10
2023-09-09T18:00	8705	343	-29.0	-49.3	312	11
2023-09-09T18:00	8730	341	-29.2	-49.0	311	11
2023-09-09T18:00	8761	340	-29.5	-47.3	311	11
2023-09-09T18:00	8795	338	-29.8	-47.2	312	11
2023-09-09T18:00	8831	337	-30.1	-45.4	312	10
2023-09-09T18:00	8854	335	-30.3	-45.4	314	10
2023-09-09T18:00	8877	334	-30.5	-45.7	315	10
2023-09-09T18:00	8902	333	-30.7	-46.5	315	9
2023-09-09T18:00	8932	332	-30.9	-46.8	315	9
2023-09-09T18:00	8954	331	-31.1	-47.1	316	9
2023-09-09T18:00	8979	330	-31.4	-47.3	317	9
2023-09-09T18:00	9006	328	-31.6	-47.6	319	9
2023-09-09T18:00	9035	327	-31.8	-47.9	321	9
2023-09-09T18:00	9063	326	-32.0	-48.5	323	9
2023-09-09T18:00	9087	325	-32.2	-49.3	324	9
2023-09-09T18:00	9110	324	-32.3	-50.4	326	9
2023-09-09T18:00	9132	323	-32.5	-49.8	326	9
2023-09-09T18:00	9156	322	-32.7	-48.7	326	9
2023-09-09T18:00	9178	321	-32.8	-47.3	325	9
2023-09-09T18:00	9197	320	-33.0	-47.0	323	9
2023-09-09T18:00	9220	319	-33.2	-47.3	321	9
2023-09-09T18:00	9242	318	-33.3	-49.4	318	9
2023-09-09T18:00	9264	316	-33.5	-52.3	316	9
2023-09-09T18:00	9291	315	-33.6	-52.8	314	9
2023-09-09T18:00	9322	314	-33.9	-51.7	313	9
2023-09-09T18:00	9356	312	-34.2	-50.1	312	9
2023-09-09T18:00	9386	311	-34.5	-50.4	312	8
2023-09-09T18:00	9410	310	-34.7	-50.7	313	8
2023-09-09T18:00	9444	309	-35.0	-50.7	313	8
2023-09-09T18:00	9469	307	-35.2	-50.7	313	9
2023-09-09T18:00	9497	306	-35.5	-50.8	312	9
2023-09-09T18:00	9526	305	-35.7	-50.9	311	9
2023-09-09T18:00	9555	304	-36.0	-50.9	311	9
2023-09-09T18:00	9580	303	-36.2	-50.8	310	10
2023-09-09T18:00	9604	301	-36.4	-50.6	311	10
2023-09-09T18:00	9628	300	-36.6	-50.6	311	10
2023-09-09T18:00	9651	299	-36.8	-51.2	313	10
2023-09-09T18:00	9672	299	-36.9	-52.0	314	11
2023-09-09T18:00	9693	298	-37.0	-51.8	315	11
2023-09-09T18:00	9716	297	-37.2	-51.7	316	11
2023-09-09T18:00	9742	296	-37.4	-52.4	317	11
2023-09-09T18:00	9769	294	-37.6	-52.7	318	10
2023-09-09T18:00	9798	293	-37.8	-52.9	320	10
2023-09-09T18:00	9830	292	-38.1	-53.1	322	10
2023-09-09T18:00	9865	290	-38.4	-53.3	323	10
2023-09-09T18:00	9887	289	-38.6	-53.1	324	10
2023-09-09T18:00	9909	288	-38.8	-52.8	325	10
2023-09-09T18:00	9930	288	-38.9	-52.6	324	10
2023-09-09T18:00	9952	287	-39.0	-52.6	322	10
2023-09-09T18:00	9975	286	-39.2	-52.9	320	10
2023-09-09T18:00	9995	285	-39.4	-53.1	318	9
2023-09-09T18:00	10019	284	-39.6	-53.2	317	9
2023-09-09T18:00	10039	283	-39.7	-53.2	316	9
2023-09-09T18:00	10060	282	-39.9	-53.5	317	9
2023-09-09T18:00	10084	281	-40.0	-53.9	317	9
2023-09-09T18:00	10105	280	-40.1	-54.3	318	9
2023-09-09T18:00	10127	279	-40.3	-54.0	320	9
2023-09-09T18:00	10150	278	-40.4	-53.6	322	9
2023-09-09T18:00	10176	277	-40.6	-53.9	323	9
2023-09-09T18:00	10204	276	-40.8	-53.8	325	9
2023-09-09T18:00	10233	275	-41.0	-53.8	325	9
2023-09-09T18:00	10263	274	-41.2	-53.5	325	9
2023-09-09T18:00	10292	273	-41.4	-54.0	325	9
2023-09-09T18:00	10320	272	-41.7	-54.0	324	9
2023-09-09T18:00	10350	270	-41.9	-54.3	324	9
2023-09-09T18:00	10383	269	-42.2	-54.6	324	9
2023-09-09T18:00	10409	268	-42.5	-54.4	324	9
2023-09-09T18:00	10435	267	-42.7	-54.3	325	9
2023-09-09T18:00	10462	266	-42.9	-54.6	326	9
2023-09-09T18:00	10487	265	-43.1	-54.6	326	9
2023-09-09T18:00	10516	264	-43.4	-54.7	326	10
2023-09-09T18:00	10539	263	-43.6	-54.6	326	10
2023-09-09T18:00	10567	262	-43.8	-54.5	326	10
2023-09-09T18:00	10595	261	-44.1	-53.8	326	10
2023-09-09T18:00	10624	260	-44.3	-52.3	326	10
2023-09-09T18:00	10650	259	-44.6	-51.3	327	10
2023-09-09T18:00	10678	257	-44.8	-50.7	327	10
2023-09-09T18:00	10704	256	-45.0	-51.0	328	10
2023-09-09T18:00	10732	255	-45.2	-51.4	329	10
2023-09-09T18:00	10756	255	-45.4	-51.7	329	11
2023-09-09T18:00	10782	254	-45.6	-51.7	329	11
2023-09-09T18:00	10808	253	-45.8	-51.7	329	11
2023-09-09T18:00	10835	252	-46.0	-52.0	328	11
2023-09-09T18:00	10861	251	-46.2	-52.3	328	11
2023-09-09T18:00	10891	249	-46.4	-52.3	327	11
2023-09-09T18:00	10916	248	-46.6	-52.2	327	11
2023-09-09T18:00	10947	247	-46.8	-52.2	328	11
2023-09-09T18:00	10976	246	-46.9	-52.2	328	11
2023-09-09T18:00	11003	245	-47.2	-52.9	328	11
2023-09-09T18:00	11027	244	-47.3	-53.3	328	11
2023-09-09T18:00	11053	243	-47.6	-53.5	328	11
2023-09-09T18:00	11075	243	-47.8	-53.8	327	11
2023-09-09T18:00	11099	242	-48.0	-54.3	326	11
2023-09-09T18:00	11123	241	-48.1	-55.6	325	11
2023-09-09T18:00	11144	240	-48.2	-57.3	325	11
2023-09-09T18:00	11166	239	-48.3	-57.4	325	11
2023-09-09T18:00	11186	238	-48.5	-56.8	325	11
2023-09-09T18:00	11209	238	-48.6	-56.3	324	11
2023-09-09T18:00	11231	237	-48.8	-55.9	324	10
2023-09-09T18:00	11252	236	-49.0	-55.4	324	10
2023-09-09T18:00	11274	235	-49.2	-54.8	324	10
2023-09-09T18:00	11296	235	-49.4	-54.5	324	10
2023-09-09T18:00	11316	234	-49.6	-54.5	324	10
2023-09-09T18:00	11339	233	-49.8	-54.6	324	10
2023-09-09T18:00	11361	232	-50.0	-54.7	325	10
2023-09-09T18:00	11380	232	-50.2	-54.6	326	10
2023-09-09T18:00	11402	231	-50.3	-54.5	326	10
2023-09-09T18:00	11424	230	-50.5	-54.8	327	10
2023-09-09T18:00	11445	229	-50.6	-55.3	327	10
2023-09-09T18:00	11466	229	-50.7	-55.7	327	10
2023-09-09T18:00	11488	228	-50.8	-56.0	327	10
2023-09-09T18:00	11511	227	-51.0	-56.2	326	10
2023-09-09T18:00	11532	226	-51.1	-56.2	325	10
2023-09-09T18:00	11554	225	-51.3	-56.5	324	10
2023-09-09T18:00	11573	225	-51.4	-56.7	323	10
2023-09-09T18:00	11595	224	-51.5	-56.6	322	10
2023-09-09T18:00	11616	223	-51.7	-56.6	320	10
2023-09-09T18:00	11638	223	-51.9	-56.8	319	11
2023-09-09T18:00	11658	222	-52.0	-57.1	318	11
2023-09-09T18:00	11682	221	-52.1	-57.3	318	11
2023-09-09T18:00	11702	220	-52.3	-57.5	317	11
2023-09-09T18:00	11724	220	-52.5	-57.8	317	11
2023-09-09T18:00	11746	219	-52.6	-58.1	317	11
2023-09-09T18:00	11768	218	-52.7	-58.4	317	11
2023-09-09T18:00	11790	217	-52.8	-58.5	317	11
2023-09-09T18:00	11808	217	-53.0	-58.6	317	11
2023-09-09T18:00	11831	216	-53.2	-58.7	318	11
2023-09-09T18:00	11853	215	-53.3	-58.7	319	11
2023-09-09T18:00	11874	215	-53.5	-58.9	320	11
2023-09-09T18:00	11897	214	-53.6	-59.2	320	11
2023-09-09T18:00	11917	213	-53.7	-59.5	320	11
2023-09-09T18:00	11939	212	-53.8	-59.8	320	12
2023-09-09T18:00	11959	212	-53.9	-59.9	320	12
2023-09-09T18:00	11982	211	-54.1	-60.0	320	12
2023-09-09T18:00	12002	210	-54.2	-60.1	321	12
2023-09-09T18:00	12023	210	-54.4	-60.4	322	12
2023-09-09T18:00	12048	209	-54.5	-60.5	323	12
2023-09-09T18:00	12068	208	-54.7	-60.6	324	12
2023-09-09T18:00	12089	208	-54.8	-60.4	324	12
2023-09-09T18:00	12111	207	-55.0	-60.4	324	12
2023-09-09T18:00	12131	206	-55.2	-60.5	323	12
2023-09-09T18:00	12153	205	-55.4	-60.8	322	11
2023-09-09T18:00	12175	205	-55.5	-61.1	321	11
2023-09-09T18:00	12197	204	-55.7	-61.6	320	11
2023-09-09T18:00	12219	203	-55.8	-61.9	319	11
2023-09-09T18:00	12240	203	-56.0	-62.1	318	11
2023-09-09T18:00	12261	202	-56.1	-62.1	318	12
2023-09-09T18:00	12282	201	-56.3	-62.2	317	12
2023-09-09T18:00	12304	201	-56.3	-62.2	318	12
2023-09-09T18:00	12325	200	-56.5	-62.5	318	12
2023-09-09T18:00	12345	199	-56.6	-62.6	319	12
2023-09-09T18:00	12370	199	-56.8	-62.7	320	12
2023-09-09T18:00	12392	198	-56.9	-62.7	321	12
2023-09-09T18:00	12412	197	-57.1	-62.8	322	12
2023-09-09T18:00	12433	197	-57.3	-62.8	322	12
2023-09-09T18:00	12454	196	-57.5	-62.8	323	11
2023-09-09T18:00	12478	195	-57.7	-62.9	324	11
2023-09-09T18:00	12500	195	-57.9	-62.9	325	11
2023-09-09T18:00	12519	194	-58.1	-63.1	326	10
2023-09-09T18:00	12540	193	-58.2	-63.1	327	10
2023-09-09T18:00	12561	193	-58.3	-63.2	328	10
2023-09-09T18:00	12580	192	-58.5	-63.3	329	10
2023-09-09T18:00	12603	191	-58.6	-63.4	330	10
2023-09-09T18:00	12623	191	-58.8	-63.5	330	10
2023-09-09T18:00	12646	190	-58.9	-63.5	330	9
2023-09-09T18:00	12669	189	-59.0	-63.6	330	9
2023-09-09T18:00	12690	189	-59.2	-63.7	330	9
2023-09-09T18:00	12712	188	-59.4	-63.9	331	9
2023-09-09T18:00	12734	187	-59.6	-64.0	332	9
2023-09-09T18:00	12755	187	-59.8	-64.1	333	9
2023-09-09T18:00	12777	186	-60.0	-64.2	333	9
2023-09-09T18:00	12798	185	-60.1	-64.3	332	9
2023-09-09T18:00	12820	185	-60.3	-64.6	331	9
2023-09-09T18:00	12843	184	-60.4	-64.8	330	9
2023-09-09T18:00	12865	183	-60.6	-65.1	330	9
2023-09-09T18:00	12888	183	-60.8	-65.3	330	10
2023-09-09T18:00	12912	182	-61.0	-65.5	330	10
2023-09-09T18:00	12935	181	-61.2	-65.7	330	10
2023-09-09T18:00	12956	181	-61.3	-65.8	331	9
2023-09-09T18:00	12977	180	-61.4	-65.9	331	9
2023-09-09T18:00	13000	180	-61.6	-66.2	332	9
2023-09-09T18:00	13023	179	-61.7	-66.3	333	9
2023-09-09T18:00	13043	178	-61.9	-66.5	335	9
2023-09-09T18:00	13068	178	-62.1	-66.6	336	9
2023-09-09T18:00	13091	177	-62.3	-66.7	337	9
2023-09-09T18:00	13111	176	-62.4	-66.7	338	8
2023-09-09T18:00	13134	176	-62.5	-66.6	339	8
2023-09-09T18:00	13154	175	-62.7	-66.6	341	8
2023-09-09T18:00	13176	174	-62.9	-66.6	343	7
2023-09-09T18:00	13198	174	-63.1	-66.7	346	7
2023-09-09T18:00	13221	173	-63.3	-66.7	349	7
2023-09-09T18:00	13243	173	-63.4	-66.6	351	7
2023-09-09T18:00	13266	172	-63.5	-66.6	352	7
2023-09-09T18:00	13289	171	-63.7	-66.7	353	7
2023-09-09T18:00	13309	171	-63.9	-66.9	354	7
2023-09-09T18:00	13332	170	-64.0	-67.1	355	7
2023-09-09T18:00	13354	170	-64.1	-67.4	355	7
2023-09-09T18:00	13376	169	-64.3	-67.9	356	7
2023-09-09T18:00	13398	168	-64.4	-68.4	355	7
2023-09-09T18:00	13419	168	-64.5	-68.8	354	7
2023-09-09T18:00	13441	167	-64.6	-69.2	353	7
2023-09-09T18:00	13464	166	-64.7	-69.4	351	8
2023-09-09T18:00	13488	166	-64.8	-69.5	350	8
2023-09-09T18:00	13509	165	-64.9	-69.5	349	8
2023-09-09T18:00	13531	165	-65.1	-69.7	348	8
2023-09-09T18:00	13552	164	-65.2	-69.9	347	8
2023-09-09T18:00	13576	163	-65.3	-70.1	346	9
2023-09-09T18:00	13597	163	-65.4	-70.3	346	9
2023-09-09T18:00	13620	162	-65.5	-70.5	346	9
2023-09-09T18:00	13643	162	-65.5	-70.6	346	9
2023-09-09T18:00	13664	161	-65.6	-70.8	346	9
2023-09-09T18:00	13687	161	-65.6	-70.9	345	9
2023-09-09T18:00	13707	160	-65.7	-71.0	344	8
2023-09-09T18:00	13731	159	-65.8	-71.2	343	8
2023-09-09T18:00	13756	159	-65.7	-71.3	341	8
2023-09-09T18:00	13777	158	-65.6	-71.4	338	7
2023-09-09T18:00	13800	158	-65.6		337	8
2023-09-09T18:00	13821	157	-65.6	-71.9	336	8
2023-09-09T18:00	13844	156	-65.8	-72.3	336	8
2023-09-09T18:00	13868	156	-65.8	-72.5	337	9
2023-09-09T18:00	13891	155	-66.0	-72.9	337	9
2023-09-09T18:00	13912	155	-65.8	-73.0	338	9
2023-09-09T18:00	13933	154	-65.8	-73.2	338	9
2023-09-09T18:00	13956	154	-65.8	-73.6	337	9
2023-09-09T18:00	13975	153	-65.7	-73.9	336	9
2023-09-09T18:00	13997	153	-65.5	-74.1	336	9
2023-09-09T18:00	14019	152	-65.2	-74.3	335	9
2023-09-09T18:00	14042	151	-65.2	-74.7	334	9
2023-09-09T18:00	14065	151	-65.1	-75.1	333	9
2023-09-09T18:00	14087	150	-64.9	-75.4	331	8
2023-09-09T18:00	14106	150	-64.7	-75.7	329	8
2023-09-09T18:00	14131	149	-64.7	-76.0	326	8
2023-09-09T18:00	14153	149	-64.8	-76.3	324	8
2023-09-09T18:00	14177	148	-65.0	-76.7	323	8
2023-09-09T18:00	14197	148	-65.1	-77.0	322	8
2023-09-09T18:00	14222	147	-65.2	-77.4	321	8
2023-09-09T18:00	14240	147	-64.8	-77.5	320	8
2023-09-09T18:00	14263	146	-64.6	-77.8	319	8
2023-09-09T18:00	14283	145	-64.6	-78.1	317	9
2023-09-09T18:00	14307	145	-64.7	-78.4	317	9
2023-09-09T18:00	14328	144	-64.5	-78.4	318	9
2023-09-09T18:00	14349	144	-64.3	-78.6	319	9
2023-09-09T18:00	14370	143	-64.0	-78.6	320	10
2023-09-09T18:00	14394	143	-64.0	-78.9	321	10
2023-09-09T18:00	14415	142	-63.9	-79.1	321	9
2023-09-09T18:00	14437	142	-63.9	-79.3	322	9
2023-09-09T18:00	14460	141	-63.8	-79.4	323	9
2023-09-09T18:00	14483	141	-63.7	-79.6	323	9
2023-09-09T18:00	14505	140	-63.6	-79.9	324	8
2023-09-09T18:00	14528	140	-63.4	-80.0	323	8
2023-09-09T18:00	14552	139	-63.1	-80.1	322	9
2023-09-09T18:00	14575	139	-62.9	-80.4	320	9
2023-09-09T18:00	14597	138	-62.9	-80.5	317	9
2023-09-09T18:00	14621	138	-62.8	-80.5	314	9
2023-09-09T18:00	14648	137	-62.9	-80.6	311	10
2023-09-09T18:00	14673	137	-63.1	-80.6	309	10
2023-09-09T18:00	14696	136	-63.2	-80.6	309	10
2023-09-09T18:00	14718	136	-63.3	-80.5	310	11
2023-09-09T18:00	14740	135	-63.3	-80.5	311	11
2023-09-09T18:00	14763	135	-63.3	-80.5	314	11
2023-09-09T18:00	14786	134	-63.4	-80.5	317	11
2023-09-09T18:00	14808	134	-63.4	-80.7	321	11
2023-09-09T18:00	14828	133	-63.4	-80.9	324	11
2023-09-09T18:00	14856	133	-63.4	-81.0	328	11
2023-09-09T18:00	14876	132	-63.6	-81.3	332	11
2023-09-09T18:00	14902	132	-63.6	-81.3	335	10
2023-09-09T18:00	14924	131	-63.4	-81.1	337	10
2023-09-09T18:00	14945	131	-63.4	-81.1	339	9
2023-09-09T18:00	14971	130	-63.3	-81.1	340	8
2023-09-09T18:00	14995	130	-63.3	-81.0	339	8
2023-09-09T18:00	15020	129	-63.4	-81.0	339	7
2023-09-09T18:00	15041	129	-63.6	-81.3	337	7
2023-09-09T18:00	15065	128	-63.6	-81.3	336	7
2023-09-09T18:00	15087	128	-63.6	-81.3	335	7
2023-09-09T18:00	15111	127	-63.7	-81.4	333	7
2023-09-09T18:00	15134	127	-63.8	-81.3	330	7
2023-09-09T18:00	15155	126	-63.9	-81.3	328	7
2023-09-09T18:00	15180	126	-64.0	-81.3	326	7
2023-09-09T18:00	15202	125	-64.0	-81.3	326	7
2023-09-09T18:00	15224	125	-64.1	-81.5	328	7
2023-09-09T18:00	15247	124	-64.0	-81.5	331	7
2023-09-09T18:00	15268	124	-63.9	-81.5	333	7
2023-09-09T18:00	15290	123	-63.8	-81.5	334	7
2023-09-09T18:00	15313	123	-63.9	-81.6	334	7
2023-09-09T18:00	15335	123	-63.8	-81.7	332	7
2023-09-09T18:00	15358	122	-63.7	-81.8	330	7
2023-09-09T18:00	15381	122	-63.4	-81.7	328	7
2023-09-09T18:00	15403	121	-63.4	-81.9	325	6
2023-09-09T18:00	15424	121	-63.3	-82.1	323	6
2023-09-09T18:00	15447	120	-63.0	-82.0	320	6
2023-09-09T18:00	15469	120	-62.9	-82.1	317	7
2023-09-09T18:00	15492	119	-62.8	-82.3	315	7
2023-09-09T18:00	15515	119	-62.7	-82.3	314	7
2023-09-09T18:00	15539	119	-62.7	-82.5	314	7
2023-09-09T18:00	15561	118	-62.5	-82.5	316	8
2023-09-09T18:00	15581	118	-62.5	-82.6	319	8
2023-09-09T18:00	15604	117	-62.5	-82.6	323	8
2023-09-09T18:00	15628	117	-62.5	-82.8	326	8
2023-09-09T18:00	15652	116	-62.5	-82.8	329	8
2023-09-09T18:00	15674	116	-62.4	-82.8	332	7
2023-09-09T18:00	15696	116	-62.4	-83.0	334	7
2023-09-09T18:00	15718	115	-62.3	-83.0	335	6
2023-09-09T18:00	15739	115	-62.2		335	6
2023-09-09T18:00	15762	114	-62.1	-83.1	333	5
2023-09-09T18:00	15784	114	-62.1	-83.1	331	5
2023-09-09T18:00	15807	114	-62.2	-83.4	329	5
2023-09-09T18:00	15829	113	-62.1	-83.6	328	5
2023-09-09T18:00	15852	113	-62.0	-83.7	326	5
2023-09-09T18:00	15875	112	-62.0	-83.8	325	5
2023-09-09T18:00	15897	112	-62.0	-84.0	322	5
2023-09-09T18:00	15921	111	-61.8	-84.0	320	5
2023-09-09T18:00	15944	111	-61.6	-84.0	318	4
2023-09-09T18:00	15965	111	-61.5	-84.1	317	4
2023-09-09T18:00	15989	110	-61.5	-84.1	318	4
2023-09-09T18:00	16013	110	-61.5	-84.1	320	4
2023-09-09T18:00	16037	109	-61.5	-84.3	322	4
2023-09-09T18:00	16059	109	-61.6	-84.4	323	4
2023-09-09T18:00	16082	109	-61.5	-84.3	324	5
2023-09-09T18:00	16102	108	-61.4	-84.5	326	5
2023-09-09T18:00	16126	108	-61.5	-84.5	329	5
2023-09-09T18:00	16152	107	-61.4	-84.7	332	5
2023-09-09T18:00	16175	107	-61.2	-84.5	337	5
2023-09-09T18:00	16199	107	-61.2	-84.7	341	5
2023-09-09T18:00	16223	106	-61.2	-84.7	344	5
2023-09-09T18:00	16246	106	-61.3	-84.8	347	5
2023-09-09T18:00	16270	105	-61.4	-84.9	349	5
2023-09-09T18:00	16294	105	-61.4	-85.1	351	5
2023-09-09T18:00	16318	105	-61.3	-85.0	352	5
2023-09-09T18:00	16343	104	-61.2	-84.9	352	4
2023-09-09T18:00	16365	104	-61.2	-84.9	351	4
2023-09-09T18:00	16390	103	-61.3	-85.0	349	4
2023-09-09T18:00	16412	103	-61.4	-85.1	346	4
2023-09-09T18:00	16438	103	-61.5	-85.2	342	4
2023-09-09T18:00	16462	102	-61.6	-85.2	338	3
2023-09-09T18:00	16485	102	-61.8	-85.4	334	3
2023-09-09T18:00	16509	101	-61.9	-85.3	330	3
2023-09-09T18:00	16531	101	-61.9	-85.3	327	4
2023-09-09T18:00	16556	101	-62.0	-85.3	324	4
2023-09-09T18:00	16580	100	-62.1	-85.4	320	4
2023-09-09T18:00	16602	100	-62.2	-85.5	317	4
2023-09-09T18:00	16627	99	-62.2	-85.5	314	5
2023-09-09T18:00	16649	99	-62.4	-85.7	311	5
2023-09-09T18:00	16673	99	-62.4	-85.7	309	5
2023-09-09T18:00	16697	98	-62.5	-85.7	307	5
2023-09-09T18:00	16720	98	-62.3	-85.8	305	6
2023-09-09T18:00	16743	98	-62.3	-85.8	305	6
2023-09-09T18:00	16767	97	-62.2	-85.7	305	6
2023-09-09T18:00	16790	97	-62.3	-86.0	307	6
2023-09-09T18:00	16814	97	-62.3	-86.0	309	6
2023-09-09T18:00	16838	96	-62.1	-85.9	313	6
2023-09-09T18:00	16860	96	-62.2	-85.9	317	6
2023-09-09T18:00	16882	95	-62.4	-86.1	320	6
2023-09-09T18:00	16906	95	-62.4	-86.1	323	6
2023-09-09T18:00	16928	95	-62.4	-86.1	325	6
2023-09-09T18:00	16952	94	-62.3	-86.0	325	6
2023-09-09T18:00	16974	94	-62.2	-86.2	323	6
2023-09-09T18:00	16999	94	-62.2	-86.2	318	6
2023-09-09T18:00	17022	93	-61.8	-86.1	313	6
2023-09-09T18:00	17045	93	-61.9	-86.2	307	7
2023-09-09T18:00	17067	93	-61.9	-86.2	304	7
2023-09-09T18:00	17089	92	-62.0	-86.3	303	8
2023-09-09T18:00	17114	92	-61.9	-86.4	304	8
2023-09-09T18:00	17139	92	-61.9	-86.4	307	8
2023-09-09T18:00	17159	91	-61.4	-86.3	311	9
2023-09-09T18:00	17183	91	-61.3	-86.2	316	9
2023-09-09T18:00	17206	91	-61.2	-86.4	321	10
2023-09-09T18:00	17233	90	-61.2	-86.4	325	10
2023-09-09T18:00	17253	90	-61.0	-86.3	328	10
2023-09-09T18:00	17274	90	-60.8	-86.4	332	10
2023-09-09T18:00	17301	89	-60.8	-86.4	335	9
2023-09-09T18:00	17323	89	-60.7	-86.3	338	9
2023-09-09T18:00	17348	89	-60.5	-86.5	343	9
2023-09-09T18:00	17375	88	-60.4		348	9
2023-09-09T18:00	17395	88	-60.0	-86.4	353	9
2023-09-09T18:00	17423	87	-59.8	-86.3	359	9
2023-09-09T18:00	17447	87	-59.9	-86.3	5	9
2023-09-09T18:00	17472	87	-60.1	-86.5	10	9
2023-09-09T18:00	17493	86	-60.1	-86.5	15	8
2023-09-09T18:00	17515	86	-60.2	-86.6	19	8
2023-09-09T18:00	17541	86	-59.9	-86.3	22	8
2023-09-09T18:00	17565	85	-59.8	-86.6	24	7
2023-09-09T18:00	17591	85	-59.9	-86.7	24	6
2023-09-09T18:00	17619	85	-60.0	-86.4	22	6
2023-09-09T18:00	17641	84	-60.2	-86.6	18	6
2023-09-09T18:00	17663	84	-60.3	-86.7	14	5
2023-09-09T18:00	17692	84	-60.4	-86.7	12	6
2023-09-09T18:00	17714	83	-60.3	-86.7	12	6
2023-09-09T18:00	17738	83	-60.1	-86.8	14	6
2023-09-09T18:00	17761	83	-60.0	-86.8	18	7
2023-09-09T18:00	17786	83	-60.1	-86.8	24	7
2023-09-09T18:00	17810	82	-60.0	-86.8	31	7
2023-09-09T18:00	17832	82	-59.8	-87.0	38	7
2023-09-09T18:00	17859	82	-59.7	-86.9	46	7
2023-09-09T18:00	17885	81	-59.7	-86.9	52	7
2023-09-09T18:00	17911	81	-59.6	-86.8	57	7
2023-09-09T18:00	17931	81	-59.7	-86.9	60	7
2023-09-09T18:00	17957	80	-59.8	-86.6	62	6
2023-09-09T18:00	17979	80	-60.0	-86.8	64	6
2023-09-09T18:00	18006	80	-60.2	-86.9	67	6
2023-09-09T18:00	18030	79	-60.4	-86.7	69	6
2023-09-09T18:00	18052	79	-60.5	-87.2	72	5
2023-09-09T18:00	18078	79	-60.6	-87.2	73	5
2023-09-09T18:00	18102	78	-60.6	-87.2	72	4
2023-09-09T18:00	18128	78	-60.6	-87.2	69	4
2023-09-09T18:00	18151	78	-60.7	-87.3	65	4
2023-09-09T18:00	18177	78	-60.6	-87.2	61	4
2023-09-09T18:00	18201	77	-60.6	-87.2	58	3
2023-09-09T18:00	18225	77	-60.5	-87.2	56	3
2023-09-09T18:00	18250	77	-60.5	-87.2	57	3
2023-09-09T18:00	18275	76	-60.3	-87.0	58	3
2023-09-09T18:00	18297	76	-60.2	-87.3	59	2
2023-09-09T18:00	18323	76	-60.1	-87.2	58	2
2023-09-09T18:00	18349	75	-60.3	-87.4	51	1
2023-09-09T18:00	18373	75	-60.4	-87.4	31	1
2023-09-09T18:00	18400	75	-60.6	-87.6	12	1
2023-09-09T18:00	18426	74	-60.6	-87.6	4	1
2023-09-09T18:00	18447	74	-60.2	-87.3	3	2
2023-09-09T18:00	18472	74	-60.0	-87.5	4	2
2023-09-09T18:00	18501	74	-59.9	-87.4	2	1
2023-09-09T18:00	18525	73	-59.8	-87.4	356	1
2023-09-09T18:00	18550	73	-59.7	-87.3	349	1
2023-09-09T18:00	18573	73	-59.8	-87.4	346	1
2023-09-09T18:00	18597	72	-59.6	-87.2	345	2
2023-09-09T18:00	18622	72	-59.3	-87.0	345	2
2023-09-09T18:00	18648	72	-59.2	-87.3	341	2
2023-09-09T18:00	18675	72	-59.0	-87.2	331	1
2023-09-09T18:00	18699	71	-58.9	-87.1	313	1
2023-09-09T18:00	18723	71	-58.7	-87.0	299	1
2023-09-09T18:00	18747	71	-58.7	-87.0	296	2
2023-09-09T18:00	18775	70	-58.8	-87.0	306	2
2023-09-09T18:00	18796	70	-58.8	-87.0	322	2
2023-09-09T18:00	18828	70	-58.7	-87.0	337	3
2023-09-09T18:00	18852	70	-58.6	-86.9	347	4
2023-09-09T18:00	18882	69	-58.6	-86.9	352	4
2023-09-09T18:00	18902	69	-58.7	-87.4	355	5
2023-09-09T18:00	18928	69	-58.5	-87.3	355	5
2023-09-09T18:00	18956	68	-58.4	-87.2	354	6
2023-09-09T18:00	18982	68	-58.4	-87.2	352	6
2023-09-09T18:00	19004	68	-58.3	-87.1	350	6
2023-09-09T18:00	19030	68	-58.1	-87.0	350	6
2023-09-09T18:00	19056	67	-58.3	-87.1	351	6
2023-09-09T18:00	19081	67	-58.4	-86.7	355	6
2023-09-09T18:00	19106	67	-58.5	-86.8	359	6
2023-09-09T18:00	19131	67	-58.6	-86.9	5	6
2023-09-09T18:00	19157	66	-58.7	-87.0	10	6
2023-09-09T18:00	19185	66	-58.8	-87.0	15	6
2023-09-09T18:00	19208	66	-59.0	-86.8	20	6
2023-09-09T18:00	19235	65	-59.1	-86.8	26	6
2023-09-09T18:00	19261	65	-59.2	-86.9	32	6
2023-09-09T18:00	19284	65	-59.4	-87.1	37	6
2023-09-09T18:00	19316	65	-59.5	-87.1	40	6
2023-09-09T18:00	19337	64	-59.4	-87.1	42	6
2023-09-09T18:00	19367	64	-59.4	-87.1	42	6
2023-09-09T18:00	19390	64	-59.5	-87.6	42	5
2023-09-09T18:00	19415	64	-59.4	-87.5	42	5
2023-09-09T18:00	19439	63	-59.5	-87.6	43	5
2023-09-09T18:00	19467	63	-59.4	-87.5	44	4
2023-09-09T18:00	19493	63	-59.5	-87.6	46	4
2023-09-09T18:00	19520	63	-59.5	-87.1	47	4
2023-09-09T18:00	19547	62	-59.5	-87.6	45	4
2023-09-09T18:00	19573	62	-59.5	-87.6	42	3
2023-09-09T18:00	19598	62	-59.5	-87.6	37	3
2023-09-09T18:00	19625	62	-59.5	-87.6	31	3
2023-09-09T18:00	19649	61	-59.4	-87.5	25	3
2023-09-09T18:00	19676	61	-59.3	-87.4	20	2
2023-09-09T18:00	19702	61	-59.2	-87.3	16	2
2023-09-09T18:00	19728	61	-59.0	-87.2	13	2
2023-09-09T18:00	19753	60	-58.8	-87.5	12	2
2023-09-09T18:00	19780	60	-58.8	-87.5	13	2
2023-09-09T18:00	19805	60	-58.7	-87.0	15	2
2023-09-09T18:00	19827	60	-58.8	-87.0	21	2
2023-09-09T18:00	19852	59	-58.8	-87.0	30	2
2023-09-09T18:00	19879	59	-58.8	-87.0	40	3
2023-09-09T18:00	19903	59	-58.8	-87.0	49	3
2023-09-09T18:00	19930	59	-58.7	-87.0	54	3
2023-09-09T18:00	19957	58	-58.7	-87.0	55	3
2023-09-09T18:00	19982	58	-58.8	-87.0	51	2
2023-09-09T18:00	20003	58	-58.7	-87.0	43	2
2023-09-09T18:00	20032	58	-58.8	-87.0	33	2
2023-09-09T18:00	20055	57	-58.7	-87.4	25	1
2023-09-09T18:00	20083	57	-58.6	-87.3	27	1
2023-09-09T18:00	20104	57	-58.5	-87.3	47	1
2023-09-09T18:00	20130	57	-58.1	-87.0	82	1
2023-09-09T18:00	20158	57	-58.1	-87.0	99	1
2023-09-09T18:00	20182	56	-57.9	-86.8	103	2
2023-09-09T18:00	20208	56	-58.0	-86.9	104	2
2023-09-09T18:00	20232	56	-57.9	-86.8	105	3
2023-09-09T18:00	20263	56	-58.0	-86.9	109	3
2023-09-09T18:00	20287	55	-58.0	-86.9	113	4
2023-09-09T18:00	20314	55	-58.2	-87.0	119	4
2023-09-09T18:00	20338	55	-58.4	-86.7	123	5
2023-09-09T18:00	20364	55	-58.6	-86.9	128	5
2023-09-09T18:00	20385	54	-58.8	-87.0	132	5
2023-09-09T18:00	20411	54	-58.8	-87.0	138	5
2023-09-09T18:00	20440	54	-59.0	-87.2	144	5
2023-09-09T18:00	20464	54	-59.1	-87.3	152	5
2023-09-09T18:00	20488	54	-59.2	-87.3	158	5
2023-09-09T18:00	20513	53	-59.1	-87.3	164	5
2023-09-09T18:00	20537	53	-59.1	-87.3	168	5
2023-09-09T18:00	20566	53	-59.0	-87.2	172	4
2023-09-09T18:00	20592	53	-59.0	-87.2	175	4
2023-09-09T18:00	20618	53	-59.1	-87.3	179	3
2023-09-09T18:00	20643	52	-59.0	-87.2	185	3
2023-09-09T18:00	20666	52	-59.2	-87.8	196	2
2023-09-09T18:00	20694	52	-59.0	-87.6	214	2
2023-09-09T18:00	20721	52	-58.7	-87.4	236	2
2023-09-09T18:00	20748	51	-58.1	-87.4	252	3
2023-09-09T18:00	20775	51	-57.9	-87.3	262	3
2023-09-09T18:00	20799	51	-57.8	-87.2	268	4
2023-09-09T18:00	20828	51	-57.9	-87.3	273	5
2023-09-09T18:00	20854	51	-57.9	-87.3	278	5
2023-09-09T18:00	20885	50	-58.0	-86.9	283	6
2023-09-09T18:00	20914	50	-58.2	-87.0	287	7
2023-09-09T18:00	20934	50	-58.4	-87.2	292	7
2023-09-09T18:00	20960	50	-58.6	-87.3	298	8
2023-09-09T18:00	20989	50	-58.6	-87.3	304	8
2023-09-09T18:00	21013	49	-58.5	-87.3	312	8
2023-09-09T18:00	21037	49	-58.4	-87.2	319	8
2023-09-09T18:00	21063	49	-58.3	-87.1	328	7
2023-09-09T18:00	21094	49	-58.3	-87.1	335	7
2023-09-09T18:00	21119	49	-58.3	-87.1	342	7
2023-09-09T18:00	21144	48	-58.2	-87.5	349	7
2023-09-09T18:00	21174	48	-58.1	-87.0	357	7
2023-09-09T18:00	21197	48	-58.3	-87.1	4	7
2023-09-09T18:00	21227	48	-58.3	-87.1	11	7
2023-09-09T18:00	21249	48	-58.3	-87.1	18	7
2023-09-09T18:00	21275	47	-58.2	-87.0	22	7
2023-09-09T18:00	21300	47	-58.1	-87.0	25	7
2023-09-09T18:00	21322	47	-58.1	-87.0	27	7
2023-09-09T18:00	21350	47	-58.2	-87.0	28	7
2023-09-09T18:00	21376	47	-58.3	-87.1	28	6
2023-09-09T18:00	21411	46	-58.5	-87.3	27	6
2023-09-09T18:00	21433	46	-58.6	-87.3	26	6
2023-09-09T18:00	21460	46	-58.8	-87.5	25	6
2023-09-09T18:00	21482	46	-58.7	-87.4	23	6
2023-09-09T18:00	21512	46	-58.6	-87.3	23	5
2023-09-09T18:00	21534	45	-58.6	-87.3	22	5
2023-09-09T18:00	21556	45	-58.6	-87.3	23	5
2023-09-09T18:00	21590	45	-58.3	-87.6	25	5
2023-09-09T18:00	21613	45	-58.5	-87.7	28	4
2023-09-09T18:00	21642	45	-58.5	-87.7	34	4
2023-09-09T18:00	21666	44	-58.4	-87.7	39	4
2023-09-09T18:00	21696	44	-58.1	-87.4	45	4
2023-09-09T18:00	21721	44	-58.0	-87.4	48	4
2023-09-09T18:00	21745	44	-58.0	-87.4	49	4
2023-09-09T18:00	21772	44	-57.8	-87.8	46	4
2023-09-09T18:00	21799	44	-57.5	-87.5	42	4
2023-09-09T18:00	21825	43	-57.4	-87.5	38	5
2023-09-09T18:00	21849	43	-57.3	-87.4	35	5
2023-09-09T18:00	21875	43	-57.1	-87.2	32	6
2023-09-09T18:00	21901	43	-57.0	-87.2	31	6
2023-09-09T18:00	21925	43	-56.9	-87.1	30	6
2023-09-09T18:00	21951	42	-56.6	-87.5	28	5
2023-09-09T18:00	21981	42	-56.4	-87.3	26	5
2023-09-09T18:00	22005	42	-56.0	-87.0	23	5
2023-09-09T18:00	22032	42	-55.9	-86.9	21	5
2023-09-09T18:00	22058	42	-55.7	-86.8	20	5
2023-09-09T18:00	22082	42	-55.7	-86.8	21	4
2023-09-09T18:00	22111	41	-55.6	-86.7	23	4
2023-09-09T18:00	22131	41	-55.6	-86.7	28	4
2023-09-09T18:00	22162	41	-55.7	-86.8	35	4
2023-09-09T18:00	22189	41	-55.7	-86.2	42	4
2023-09-09T18:00	22209	41	-55.6	-86.1	49	5
2023-09-09T18:00	22243	41	-55.6	-86.1	54	5
2023-09-09T18:00	22265	40	-55.8	-86.3	56	5
2023-09-09T18:00	22296	40	-55.9	-86.3	56	5
2023-09-09T18:00	22315	40	-56.0	-86.4	55	5
2023-09-09T18:00	22344	40	-56.0	-86.4	52	5
2023-09-09T18:00	22364	40	-55.9	-86.3	48	5
2023-09-09T18:00	22390	40	-55.9	-86.3	43	4
2023-09-09T18:00	22421	39	-56.0	-86.4	36	4
2023-09-09T18:00	22449	39	-56.1	-86.5	28	4
2023-09-09T18:00	22470	39	-56.1	-86.5	20	4
2023-09-09T18:00	22498	39	-56.2	-86.6	14	4
2023-09-09T18:00	22530	39	-56.4		9	4
2023-09-09T18:00	22554	39	-56.5	-86.8	5	5
2023-09-09T18:00	22580	39	-56.5	-86.8	4	5
2023-09-09T18:00	22607	38	-56.2	-86.6	3	5
2023-09-09T18:00	22636	38	-56.2	-86.6	3	5
2023-09-09T18:00	22660	38	-56.2	-86.6	4	5
2023-09-09T18:00	22687	38	-56.3	-86.6	5	5
2023-09-09T18:00	22711	38	-56.3	-86.6	6	5
2023-09-09T18:00	22740	38	-56.5	-86.8	7	5
2023-09-09T18:00	22771	37	-56.5	-86.8	9	5
2023-09-09T18:00	22795	37	-56.7	-86.4	12	5
2023-09-09T18:00	22821	37	-56.7	-86.4	14	6
2023-09-09T18:00	22847	37	-56.6	-86.9	17	6
2023-09-09T18:00	22878	37	-56.7	-86.9	20	6
2023-09-09T18:00	22899	37	-56.8	-87.0	22	5
2023-09-09T18:00	22932	36	-56.7	-86.9	23	5
2023-09-09T18:00	22960	36	-56.6	-86.9	24	4
2023-09-09T18:00	22986	36	-56.5	-86.8	25	4
2023-09-09T18:00	23017	36	-56.4		27	3
2023-09-09T18:00	23038	36	-56.4		30	2
2023-09-09T18:00	23067	36	-56.3	-86.6	35	2
2023-09-09T18:00	23094	36	-56.1	-87.1	39	2
2023-09-09T18:00	23120	35	-56.0	-87.0	44	2
2023-09-09T18:00	23145	35	-55.9	-86.9	49	2
2023-09-09T18:00	23177	35	-55.7	-86.8	54	3
2023-09-09T18:00	23198	35	-55.6	-86.7	58	3
2023-09-09T18:00	23226	35	-55.3	-86.5	61	4
2023-09-09T18:00	23257	35	-55.5	-86.7	64	4
2023-09-09T18:00	23283	34	-55.5	-86.7	66	4
2023-09-09T18:00	23310	34	-55.2	-86.4	68	5
2023-09-09T18:00	23343	34	-55.1	-86.4	69	5
2023-09-09T18:00	23361	34	-55.2	-86.4	70	5
2023-09-09T18:00	23389	34	-55.3	-86.5	70	5
2023-09-09T18:00	23413	34	-55.5	-86.1	69	5
2023-09-09T18:00	23443	34	-55.6	-86.1	69	6
2023-09-09T18:00	23467	33	-55.7	-86.2	69	6
2023-09-09T18:00	23493	33	-55.8	-86.3	69	6
2023-09-09T18:00	23514	33	-55.8	-86.3	71	6
2023-09-09T18:00	23541	33	-55.6	-86.1	72	6
2023-09-09T18:00	23569	33	-55.5	-86.1	73	5
2023-09-09T18:00	23595	33	-55.5	-86.1	76	5
2023-09-09T18:00	23624	33	-55.7	-86.2	80	4
2023-09-09T18:00	23650	33	-55.9	-86.3	87	4
2023-09-09T18:00	23679	32	-56.1	-86.5	96	3
2023-09-09T18:00	23703	32	-56.2	-86.6	106	3
2023-09-09T18:00	23736	32	-56.1	-86.5	114	3
2023-09-09T18:00	23760	32	-56.1	-86.5	120	3
2023-09-09T18:00	23794	32	-56.0	-86.4	123	4
2023-09-09T18:00	23815	32	-55.9	-86.9	123	4
2023-09-09T18:00	23840	32	-55.7	-86.8	123	3
2023-09-09T18:00	23867	31	-55.5	-86.7	121	3
2023-09-09T18:00	23899	31	-55.5	-86.7	118	3
2023-09-09T18:00	23931	31	-55.3	-86.5	114	3
2023-09-09T18:00	23951	31	-55.5	-86.7	108	3
2023-09-09T18:00	23980	31	-55.7	-86.2	100	3
2023-09-09T18:00	24008	31	-55.9	-86.3	93	3
2023-09-09T18:00	24031	31	-56.0	-86.4	88	3
2023-09-09T18:00	24068	30	-56.0	-86.4	86	3
2023-09-09T18:00	24091	30	-56.0	-86.4	87	3
2023-09-09T18:00	24125	30	-56.1	-86.5	90	3
2023-09-09T18:00	24157	30	-56.2	-86.6	96	3
2023-09-09T18:00	24178	30	-56.1	-86.5	104	3
2023-09-09T18:00	24212	30	-56.0	-86.4	113	3
2023-09-09T18:00	24235	30	-56.1	-86.5	124	2
2023-09-09T18:00	24270	30	-56.0	-86.4	137	2
2023-09-09T18:00	24292	29	-56.0	-86.4	153	2
2023-09-09T18:00	24322	29	-55.9	-86.3	171	2
2023-09-09T18:00	24362	29	-55.8	-86.9	189	2
2023-09-09T18:00	24386	29	-55.6	-86.7	203	3
2023-09-09T18:00	24410	29	-55.7	-86.8	213	3
2023-09-09T18:00	24440	29	-55.8	-86.9	219	3
2023-09-09T18:00	24466	29	-55.9	-86.3	223	3
2023-09-09T18:00	24499	28	-55.9	-86.3	225	3
2023-09-09T18:00	24520	28	-55.7	-86.2	226	3
2023-09-09T18:00	24551	28	-55.7	-86.2	227	2
2023-09-09T18:00	24583	28	-55.8	-86.9	228	2
2023-09-09T18:00	24613	28	-56.0	-87.0	230	1
2023-09-09T18:00	24638	28	-55.7	-86.8	232	1
2023-09-09T18:00	24677	28	-55.4	-86.6	230	0
2023-09-09T18:00	24695	28	-55.4	-86.6	120	0
2023-09-09T18:00	24726	27	-55.3	-86.5	120	0
2023-09-09T18:00	24748	27	-55.2	-86.4	156	0
2023-09-09T18:00	24782	27	-55.1	-86.4	214	0
2023-09-09T18:00	24808	27	-55.1	-86.4	254	0
2023-09-09T18:00	24833	27	-55.2	-86.4	270	1
2023-09-09T18:00	24867	27	-55.2	-86.4	276	1
2023-09-09T18:00	24895	27	-55.3	-86.5	278	1
2023-09-09T18:00	24923	27	-55.2	-86.4	280	2
2023-09-09T18:00	24961	27	-55.1	-86.4	286	2
2023-09-09T18:00	24989	26	-55.1	-86.4	299	2
2023-09-09T18:00	25008	26	-55.1	-86.4	317	2
2023-09-09T18:00	25038	26	-55.2	-86.4	336	2
2023-09-09T18:00	25065	26	-55.2	-86.4	351	2
2023-09-09T18:00	25098	26	-55.1	-86.4	3	3
2023-09-09T18:00	25127	26	-55.2	-86.4	14	3
2023-09-09T18:00	25153	26	-55.1	-86.4	25	3
2023-09-09T18:00	25180	26	-55.0	-86.3	34	4
2023-09-09T18:00	25208	25	-55.0	-86.3	40	4
2023-09-09T18:00	25237	25	-54.8	-86.1	45	5
2023-09-09T18:00	25262	25	-54.9	-86.2	49	5
2023-09-09T18:00	25290	25	-54.8	-86.1	53	5
2023-09-09T18:00	25323	25	-54.8	-86.1	58	5
2023-09-09T18:00	25349	25	-54.7	-86.1	66	4
2023-09-09T18:00	25379	25	-54.5	-85.9	75	4
2023-09-09T18:00	25404	25	-54.5	-85.9	85	4
2023-09-09T18:00	25435	25	-54.5	-85.9	93	4
2023-09-09T18:00	25454	25	-54.5	-85.9	99	4
2023-09-09T18:00	25481	24	-54.5	-86.6	104	4
2023-09-09T18:00	25511	24	-54.4	-86.5	108	3
2023-09-09T18:00	25543	24	-54.1	-86.3	115	2
2023-09-09T18:00	25572	24	-53.8	-86.1	129	2
2023-09-09T18:00	25600	24	-53.7	-86.0	148	1
2023-09-09T18:00	25629	24	-53.6		163	1
2023-09-09T18:00	25652	24	-53.3	-85.7	164	1
2023-09-09T18:00	25681	24	-53.2	-85.6	157	1
2023-09-09T18:00	25717	24	-53.2	-85.6	145	1
2023-09-09T18:00	25741	23	-53.2	-85.6	123	1
2023-09-09T18:00	25761	23	-53.1	-85.6	54	1
2023-09-09T18:00	25797	23	-53.2	-85.6	4	1
2023-09-09T18:00	25829	23	-53.4	-85.8	350	2
2023-09-09T18:00	25857	23	-53.5	-85.2	345	3
2023-09-09T18:00	25884	23	-53.6	-85.3	342	4
2023-09-09T18:00	25910	23	-53.7	-85.3	342	4
2023-09-09T18:00	25942	23	-53.8	-85.4	343	5
2023-09-09T18:00	25970	23	-53.9	-85.5	346	5
2023-09-09T18:00	26005	23	-53.9	-86.2	351	6
2023-09-09T18:00	26038	22	-53.7	-86.0	358	6
2023-09-09T18:00	26062	22	-53.1	-85.6	5	6
2023-09-09T18:00	26093	22	-53.0	-85.5	13	6
2023-09-09T18:00	26116	22	-52.7	-85.3	22	6
2023-09-09T18:00	26151	22	-52.7	-85.3	30	5
2023-09-09T18:00	26175	22	-52.7	-85.3	40	5
2023-09-09T18:00	26205	22	-52.8	-85.3	51	4
2023-09-09T18:00	26234	22	-52.9	-85.4	64	4
2023-09-09T18:00	26267	22	-52.9	-85.4	76	4
2023-09-09T18:00	26294	22	-53.1	-85.6	88	4
2023-09-09T18:00	26319	21	-53.2	-85.6	100	4
2023-09-09T18:00	26353	21	-53.3	-85.7	110	4
2023-09-09T18:00	26376	21	-53.2	-85.6	120	3
2023-09-09T18:00	26410	21	-53.2	-85.6	130	3
2023-09-09T18:00	26434	21	-53.1	-85.6	140	2
2023-09-09T18:00	26457	21	-53.1	-85.6	154	1
2023-09-09T18:00	26484	21	-52.9	-85.4	191	1
2023-09-09T18:00	26519	21	-52.8	-86.1	281	1
2023-09-09T18:00	26544	21	-52.5	-85.9	307	1
2023-09-09T18:00	26581	21	-52.2	-85.7	316	2
2023-09-09T18:00	26600	21	-52.1	-85.6	322	2
2023-09-09T18:00	26632	20	-51.9	-85.5	328	3
2023-09-09T18:00	26665	20	-51.6	-85.2	335	3
2023-09-09T18:00	26696	20	-51.5	-85.2	342	3
2023-09-09T18:00	26720	20	-51.6	-85.2	351	3
2023-09-09T18:00	26745	20	-51.6	-85.2	0	3
2023-09-09T18:00	26778	20	-51.6	-85.2	9	3
2023-09-09T18:00	26814	20	-51.6	-85.2	16	3
2023-09-09T18:00	26837	20	-51.6	-85.2	24	3
2023-09-09T18:00	26863	20	-51.8	-85.4	34	2
2023-09-09T18:00	26891	20	-51.7	-85.3	48	2
2023-09-09T18:00	26915	20	-51.5	-85.2	65	2
2023-09-09T18:00	26940	19	-51.1	-84.9	83	2
2023-09-09T18:00	26976	19	-51.0	-84.8	101	2
2023-09-09T18:00	27015	19	-51.2	-85.0	120	2
2023-09-09T18:00	27037	19	-51.0	-84.8	142	3
2023-09-09T18:00	27077	19	-50.6	-84.5	163	3
2023-09-09T18:00	27097	19	-50.5	-84.5	180	4
2023-09-09T18:00	27133	19	-50.5	-84.5	195	4
2023-09-09T18:00	27161	19	-50.5	-84.5	207	5
2023-09-09T18:00	27180	19	-50.4	-84.4	218	5
2023-09-09T18:00	27219	19	-50.2	-84.2	228	5
2023-09-09T18:00	27257	19	-50.0	-84.1	235	5
2023-09-09T18:00	27277	19	-50.0	-85.0	240	6
2023-09-09T18:00	27300	18	-49.9	-84.9	243	6
2023-09-09T18:00	27337	18	-49.7	-84.8	244	6
2023-09-09T18:00	27370	18	-49.6	-84.7	244	6
2023-09-09T18:00	27396	18	-49.5	-84.6	245	6
2023-09-09T18:00	27430	18	-49.4	-84.6	246	6
2023-09-09T18:00	27462	18	-49.4	-83.7	247	6
2023-09-09T18:00	27494	18	-49.5	-83.7	249	6
2023-09-09T18:00	27518	18	-49.7	-83.9	251	6
2023-09-09T18:00	27554	18	-49.7	-83.9	254	6
2023-09-09T18:00	27585	18	-49.7	-83.9	257	6
2023-09-09T18:00	27613	18	-49.5	-83.7	261	6
2023-09-09T18:00	27650	18	-49.5	-83.7	266	6
2023-09-09T18:00	27678	17	-49.4	-83.7	272	6
2023-09-09T18:00	27706	17	-49.5	-83.7	278	6
2023-09-09T18:00	27741	17	-49.6	-83.8	284	6
2023-09-09T18:00	27768	17	-49.8	-84.0	291	7
2023-09-09T18:00	27805	17	-49.8	-84.0	298	7
2023-09-09T18:00	27828	17	-49.6	-83.8	305	7
2023-09-09T18:00	27866	17	-49.5	-83.7	311	7
2023-09-09T18:00	27899	17	-49.5	-83.7	315	7
2023-09-09T18:00	27919	17	-49.5	-83.7	318	7
2023-09-09T18:00	27952	17	-49.4	-84.6	319	7
2023-09-09T18:00	27984	17	-49.2	-84.4	318	7
2023-09-09T18:00	28013	17	-49.1	-84.3	315	6
2023-09-09T18:00	28049	16	-49.1	-84.3	311	6
2023-09-09T18:00	28080	16	-49.1	-84.3	306	5
2023-09-09T18:00	28105	16	-49.0	-84.3	300	5
2023-09-09T18:00	28143	16	-49.1	-83.4	294	5
2023-09-09T18:00	28173	16	-49.2	-83.5	287	6
2023-09-09T18:00	28201	16	-49.2	-83.5	281	6
2023-09-09T18:00	28243	16	-49.3	-83.6	276	6
2023-09-09T18:00	28255	16	-49.4	-83.7	271	7
2023-09-09T18:00	28295	16	-49.5	-83.7	268	7
2023-09-09T18:00	28316	16	-49.6	-83.8	265	8
2023-09-09T18:00	28360	16	-49.7	-83.9	264	8
2023-09-09T18:00	28379	16	-49.8	-84.0	264	8
2023-09-09T18:00	28403	16	-49.8	-84.0	266	9
2023-09-09T18:00	28437	16	-49.5	-83.7	269	9
2023-09-09T18:00	28465	15	-49.3	-84.5	272	10
2023-09-09T18:00	28505	15	-49.2	-84.4	277	11
2023-09-09T18:00	28537	15	-49.2	-84.4	281	11
2023-09-09T18:00	28556	15	-49.1	-84.3	285	12
2023-09-09T18:00	28588	15	-49.1	-84.3	289	12
2023-09-09T18:00	28616	15	-49.0	-84.3	292	12
2023-09-09T18:00	28663	15	-48.9	-84.2	295	12
2023-09-09T18:00	28686	15	-48.5	-83.9	296	12
2023-09-09T18:00	28718	15	-48.2	-83.7	298	12
2023-09-09T18:00	28758	15	-47.9	-83.5	298	12
2023-09-09T18:00	28781	15	-47.9	-83.5	298	12
2023-09-09T18:00	28811	15	-47.6	-83.3	297	11
2023-09-09T18:00	28840	15	-47.8	-83.4	296	11
2023-09-09T18:00	28870	15	-48.0	-83.6	295	10
2023-09-09T18:00	28905	14	-47.9	-83.5	295	10
2023-09-09T18:00	28933	14	-47.9	-83.5	296	9
2023-09-09T18:00	28957	14	-47.9	-83.5	297	9
2023-09-09T18:00	28992	14	-47.9	-83.5	298	9
2023-09-09T18:00	29027	14	-47.9	-83.5	297	9
2023-09-09T18:00	29058	14	-47.8	-83.4	297	9
2023-09-09T18:00	29079	14	-47.7	-83.4	298	8
2023-09-09T18:00	29114	14	-47.8	-83.4	301	8
2023-09-09T18:00	29147	14	-47.9	-83.5	304	8
2023-09-09T18:00	29183	14	-47.9	-83.5	309	8
2023-09-09T18:00	29199	14	-47.5	-83.2	312	8
2023-09-09T18:00	29244	14	-47.4	-84.2	315	9
2023-09-09T18:00	29259	14	-47.1	-84.0	317	9
2023-09-09T18:00	29299	14	-46.7	-83.7	318	8
2023-09-09T18:00	29322	14	-46.3	-83.4	319	8
2023-09-09T18:00	29357	13	-46.1	-83.3	321	7
2023-09-09T18:00	29380	13	-46.2	-83.4	324	6
2023-09-09T18:00	29427	13	-46.4	-83.5	328	6
2023-09-09T18:00	29455	13	-46.4	-83.5	332	5
2023-09-09T18:00	29479	13	-46.3	-83.4	336	4
2023-09-09T18:00	29504	13	-46.2	-83.4	339	4
2023-09-09T18:00	29543	13	-46.2	-83.4	340	4
2023-09-09T18:00	29565	13	-46.1	-83.3	339	4
2023-09-09T18:00	29589	13	-46.0	-83.2	336	3
2023-09-09T18:00	29630	13	-46.1	-83.3	331	3
2023-09-09T18:00	29659	13	-46.1	-83.3	324	3
2023-09-09T18:00	29693	13	-46.1	-83.3	317	3
2023-09-09T18:00	29733	13	-46.1	-83.3	313	4
2023-09-09T18:00	29749	13	-46.0	-83.2	310	4
2023-09-09T18:00	29785	13	-45.9	-83.2	309	5
2023-09-09T18:00	29812	13	-45.3	-82.7	309	6
2023-09-09T18:00	29824	13	-45.2	-82.7	309	7
2023-09-09T18:00	29868	12	-45.2	-82.7	309	7
2023-09-09T18:00	29915	12	-45.2	-82.7	310	8
2023-09-09T18:00	29926	12	-44.9	-82.5	313	9
2023-09-09T18:00	29967	12	-44.4	-82.1	315	9
2023-09-09T18:00	29994	12	-44.4	-82.1	319	10
2023-09-09T18:00	30031	12	-44.4	-82.1	322	10
2023-09-09T18:00	30060	12	-44.0	-81.8	325	10
2023-09-09T18:00	30092	12	-44.1	-81.9	327	10
2023-09-09T18:00	30110	12	-44.1	-81.9	328	9
2023-09-09T18:00	30149	12	-44.1	-81.9	328	8
2023-09-09T18:00	30190	12	-44.3	-82.0	326	8
2023-09-09T18:00	30211	12	-44.3	-82.0	323	7
2023-09-09T18:00	30255	12	-44.4	-82.1	320	7
2023-09-09T18:00	30262	12	-44.6	-82.2	315	6
2023-09-09T18:00	30331	12	-44.7	-82.3	311	6
2023-09-09T18:00	30347	12	-44.9	-82.5	306	6
2023-09-09T18:00	30368	12	-45.0	-82.5	302	6
2023-09-09T18:00	30403	12	-44.9	-82.5	297	6
2023-09-09T18:00	30423	11	-44.6	-82.2	292	6
2023-09-09T18:00	30478	11	-44.5	-82.2	286	6
2023-09-09T18:00	30484	11	-44.6	-82.2	281	6
2023-09-09T18:00	30521	11	-44.8	-82.4	277	6
2023-09-09T18:00	30548	11	-44.9	-82.5	275	7
2023-09-09T18:00	30579	11	-44.8	-82.4	275	7
2023-09-09T18:00	30630	11	-44.5	-82.2	277	7
2023-09-09T18:00	30643	11	-43.6	-81.5	280	7
2023-09-09T18:00	30679	11	-43.2	-81.3	282	7
2023-09-09T18:00	30713	11	-43.1	-81.2	283	7
2023-09-09T18:00	30734	11	-43.1	-81.2	283	7
2023-09-09T18:00	30761	11	-43.0	-81.1	284	7
2023-09-09T18:00	30796	11	-42.7	-80.9	285	7
2023-09-09T18:00	30831	11	-42.4	-80.7	287	8
2023-09-09T18:00	30858	11	-42.2	-80.6	287	8
2023-09-09T18:00	30892	11	-42.2	-80.6	287	9
2023-09-09T18:00	30912	11	-42.2	-80.6	286	9
2023-09-09T18:00	30941	11	-42.3	-80.6	285	10
2023-09-09T18:00	30973	11	-42.5	-80.8	286	11
2023-09-09T18:00	31017	11	-42.6	-80.8	287	11
2023-09-09T18:00	31033	11	-42.7	-80.9	288	12
2023-09-09T18:00	31077	10	-42.6	-80.8	288	13
2023-09-09T18:00	31090	10	-42.5	-80.8	288	13
2023-09-09T18:00	31136	10	-42.6	-80.8	288	13
2023-09-09T18:00	31162	10	-42.5	-80.8	287	13
2023-09-09T18:00	31193	10	-42.5	-80.8	286	12
2023-09-09T18:00	31217	10	-42.1	-80.5	285	12
2023-09-09T18:00	31242	10	-42.0	-80.4	285	11
2023-09-09T18:00	31281	10	-42.1	-80.5	285	11
2023-09-09T18:00	31301	10	-42.3	-80.6	285	10
2023-09-09T18:00	31340	10	-42.4	-80.7	286	9
2023-09-09T18:00	31367	10	-42.5	-80.8	287	9
2023-09-09T18:00	31392	10	-42.7	-80.9	288	8
2023-09-09T18:00	31431	10	-42.9	-81.1	290	8
2023-09-09T18:00	31447	10	-43.1	-81.2	291	7
2023-09-09T18:00	31483	10	-43.4	-81.4	292	7
2023-09-09T18:00	31520	10	-43.6	-81.5	293	7
2023-09-09T18:00	31556	10	-43.7	-81.6	293	6
2023-09-09T18:00	31576	10	-43.3	-81.3	294	6
2023-09-09T18:00	31604	10	-43.1	-81.2	295	6
2023-09-09T18:00	31643	10	-43.3	-81.3	296	6
2023-09-09T18:00	31680	10	-43.2	-81.3	297	6
2023-09-09T18:00	31700	10	-43.0	-81.1	297	5
2023-09-09T18:00	31729	9	-42.7	-80.9	296	4
2023-09-09T18:00	31764	9	-42.1	-80.5	294	3
2023-09-09T18:00	31803	9	-41.9	-80.4	289	3
2023-09-09T18:00	31846	9	-41.8	-80.3	281	2
2023-09-09T18:00	31852	9	-41.7	-80.2	273	2
2023-09-09T18:00	31889	9	-41.6	-80.1	267	3
2023-09-09T18:00	31903	9	-41.5	-80.1	264	3
2023-09-09T18:00	31970	9	-41.4	-80.0	262	4
2023-09-09T18:00	31984	9	-41.4	-80.0	263	5
2023-09-09T18:00	32015	9	-41.5	-80.1	266	5
2023-09-09T18:00	32035	9	-41.7	-80.2	270	6
2023-09-09T18:00	32074	9	-41.8	-80.3	275	7
2023-09-09T18:00	32092	9	-41.8	-80.3	280	8
2023-09-09T18:00	32140	9	-41.4	-80.0	286	9
2023-09-09T18:00	32176	9	-41.0	-79.7	291	10
2023-09-09T18:00	32195	9	-40.7	-79.5	296	11
2023-09-09T18:00	32232	9	-40.6	-79.5	301	11
2023-09-09T18:00	32257	9	-40.4	-79.3	304	11
2023-09-09T18:00	32284	9	-40.3	-79.2	308	11
2023-09-09T18:00	32314	9	-40.3	-79.2	311	11
2023-09-09T18:00	32333	9	-40.4	-79.3	314	11
2023-09-09T18:00	32381	9	-40.4	-79.3	316	10
2023-09-09T18:00	32401	9	-40.5	-79.4	319	10
2023-09-09T18:00	32439	9	-40.6	-79.5	321	9
2023-09-09T18:00	32459	9	-40.7	-79.5	323	9
2023-09-09T18:00	32510	8	-40.7	-79.5	325	8
2023-09-09T18:00	32545	8	-40.9	-79.7	326	7
2023-09-09T18:00	32578	8	-41.0	-79.7	325	6
2023-09-09T18:00	32616	8	-41.0	-79.7	320	5
2023-09-09T18:00	32648	8	-40.8	-79.6	316	5
2023-09-09T18:00	32684	8	-40.9	-79.7	312	5
2023-09-09T18:00	32703	8	-41.0	-79.7	310	5
2023-09-09T18:00	32759	8	-41.1	-79.8	308	4
2023-09-09T18:00	32765	8	-41.2	-79.9	307	4
2023-09-09T18:00	32823	8	-41.4	-80.0	307	4
2023-09-09T18:00	32837	8	-41.3	-79.9	306	4
2023-09-09T18:00	32882	8	-41.2	-79.9	303	3
2023-09-09T18:00	32900	8	-41.3	-79.9	298	3
2023-09-09T18:00	32927	8	-41.1	-79.8	290	3
2023-09-09T18:00	32976	8	-41.0	-79.7	276	3
2023-09-09T18:00	32997	8	-40.9	-79.7	257	3
2023-09-09T18:00	33022	8	-41.0	-79.7	238	3
2023-09-09T18:00	33052	8	-41.1	-79.8	226	4
2023-09-09T18:00	33072	8	-41.1	-79.8	220	5
2023-09-09T18:00	33108	8	-40.9	-79.7	219	5
2023-09-09T18:00	33154	8	-40.6	-79.5	222	6
2023-09-09T18:00	33170	8	-40.5	-79.4	227	6
2023-09-09T18:00	33185	8	-40.1	-79.1	235	6
2023-09-09T18:00	33226	8	-39.6	-78.8	245	6
2023-09-09T18:00	33249	8	-39.6	-78.8	255	6
2023-09-09T18:00	33288	8	-39.8	-78.9	265	6
2023-09-09T18:00	33326	8	-39.9	-79.0	275	6
2023-09-09T18:00	33359	7	-40.0	-79.0	284	6
2023-09-09T18:00	33367	7	-40.1	-79.1	292	7
2023-09-09T18:00	33394	7	-40.1	-79.1	301	7
2023-09-09T18:00	33462	7	-40.2	-79.2	308	7
2023-09-09T18:00	33476	7	-40.2	-79.2	315	7
2023-09-09T18:00	33494	7	-39.9	-79.0	319	7
2023-09-09T18:00	33525	7	-39.6	-78.8	321	6
2023-09-09T18:00	33588	7	-39.5	-78.7	322	6
2023-09-09T18:00	33626	7	-39.0	-78.3	327	5
2023-09-09T18:00	33654	7	-38.6	-78.1	331	4
2023-09-09T18:00	33700	7	-38.3	-77.9	336	4
2023-09-09T18:00	33720	7	-38.4	-77.9	339	4
2023-09-09T18:00	33746	7	-38.4	-77.9	341	3
2023-09-09T18:00	33784	7	-38.2	-77.8	340	3
2023-09-09T18:00	33807	7	-37.8	-77.5	337	3
2023-09-09T18:00	33838	7	-37.7	-77.4	333	2
2023-09-09T18:00	33865	7	-37.8	-77.5	330	2
2023-09-09T18:00	33891	7	-38.0	-77.6	326	1
2023-09-09T18:00	33912	7	-38.0	-77.6	312	1
2023-09-09T18:00	33945	7	-37.7	-77.4	202	0
2023-09-09T18:00	33984	7	-37.6	-77.4	184	1
2023-09-09T18:00	34005	7	-37.5	-77.3	185	2
2023-09-09T18:00	34034	7	-37.6	-77.4	188	2
2023-09-09T18:00	34070	7	-37.7	-77.4	192	3
2023-09-09T18:00	34121	7	-37.8	-77.5	194	3
2023-09-09T18:00	34145	7	-37.5	-77.3	200	3
2023-09-09T18:00	34198	7	-37.1	-77.0	205	3
2023-09-09T18:00	34230	7	-36.8	-76.8	213	3
2023-09-09T18:00	34242	7	-36.8	-76.8	225	3
2023-09-09T18:00	34271	7	-36.9	-76.9	236	3
2023-09-09T18:00	34326	7	-36.9	-76.9	245	3
2023-09-09T18:00	34339	6	-36.6	-76.7	252	4
2023-09-09T18:00	34375	6	-36.4	-76.5	258	5
2023-09-09T18:00	34438	6	-36.1	-76.3	268	5
2023-09-09T18:00	34467	6	-36.0	-76.3	273	6
2023-09-09T18:00	34487	6	-35.8	-76.1	277	6
2023-09-09T18:00	34518	6	-35.7	-76.1	281	6
2023-09-09T18:00	34545	6	-35.7	-76.1	284	6
2023-09-09T18:00	34587	6	-35.7	-76.1	286	6
2023-09-10T00:00	119	1004	21.3	13.1	164	2
2023-09-10T00:00	145	1001	23.3	12.3	170	3
2023-09-10T00:00	168	998	25.0	11.1	176	4
2023-09-10T00:00	189	996	25.6	11.2	184	4
2023-09-10T00:00	211	993	25.6	11.4	191	5
2023-09-10T00:00	232	991	25.8	11.2	196	5
2023-09-10T00:00	259	988	25.9	10.7	199	6
2023-09-10T00:00	289	985	25.8	10.9	200	6
2023-09-10T00:00	310	982	25.6	10.8	200	6
2023-09-10T00:00	327	980	25.4	11.1	200	6
2023-09-10T00:00	351	978	25.2	11.3	202	6
2023-09-10T00:00	374	975	25.0	11.2	203	5
2023-09-10T00:00	401	972	24.7	11.2	206	5
2023-09-10T00:00	421	970	24.5	11.2	208	5
2023-09-10T00:00	446	967	24.3	11.2	210	6
2023-09-10T00:00	468	965	24.1	11.3	213	6
2023-09-10T00:00	490	962	23.9	11.2	215	6
2023-09-10T00:00	516	960	23.7	11.2	218	6
2023-09-10T00:00	536	957	23.5	11.2	219	6
2023-09-10T00:00	564	954	23.3	10.9	219	6
2023-09-10T00:00	586	952	23.1	10.8	217	5
2023-09-10T00:00	608	949	22.9	10.8	214	5
2023-09-10T00:00	635	946	22.7	10.7	210	5
2023-09-10T00:00	661	944	22.5	10.5	206	5
2023-09-10T00:00	680	941	22.3	10.5	204	5
2023-09-10T00:00	704	939	22.1	10.2	203	5
2023-09-10T00:00	725	936	21.9	10.2	203	5
2023-09-10T00:00	748	934	21.7	10.0	203	5
2023-09-10T00:00	772	932	21.5	9.9	202	5
2023-09-10T00:00	792	929	21.3	9.7	201	5
2023-09-10T00:00	817	927	21.1	9.1	199	5
2023-09-10T00:00	841	924	21.0	8.8	197	5
2023-09-10T00:00	863	922	20.9	7.8	196	4
2023-09-10T00:00	892	919	20.6	7.4	196	4
2023-09-10T00:00	911	917	20.5	7.5	196	4
2023-09-10T00:00	937	914	20.2	7.4	195	4
2023-09-10T00:00	965	911	20.0	7.1	194	4
2023-09-10T00:00	988	909	19.7	7.0	191	4
2023-09-10T00:00	1015	906	19.5	7.1	190	4
2023-09-10T00:00	1041	903	19.2	6.9	190	4
2023-09-10T00:00	1063	901	19.0	6.9	191	4
2023-09-10T00:00	1087	898	18.8	6.9	191	4
2023-09-10T00:00	1110	896	18.5	6.8	189	3
2023-09-10T00:00	1143	892	18.2	6.6	186	3
2023-09-10T00:00	1169	890	18.0	6.6	182	3
2023-09-10T00:00	1197	887	17.8	6.2	177	3
2023-09-10T00:00	1226	884	17.6	5.8	171	2
2023-09-10T00:00	1253	881	17.6	4.7	166	2
2023-09-10T00:00	1279	878	17.5	4.8	162	2
2023-09-10T00:00	1307	875	17.3	3.8	162	2
2023-09-10T00:00	1339	872	17.1	3.7	166	2
2023-09-10T00:00	1367	869	16.8	3.1	171	3
2023-09-10T00:00	1394	866	16.7	3.1	176	3
2023-09-10T00:00	1425	863	16.7	2.0	180	4
2023-09-10T00:00	1450	861	16.7	0.1	181	5
2023-09-10T00:00	1480	858	16.8	-2.4	181	5
2023-09-10T00:00	1508	855	17.5	-11.0	181	5
2023-09-10T00:00	1535	852	18.2	-14.6	181	4
2023-09-10T00:00	1563	850	18.3	-15.4	183	4
2023-09-10T00:00	1587	847	18.3	-15.8	186	4
2023-09-10T00:00	1611	845	18.2	-15.4	189	4
2023-09-10T00:00	1631	843	18.2	-16.0	192	5
2023-09-10T00:00	1659	840	18.6	-17.7	195	5
2023-09-10T00:00	1684	837	18.7	-18.7	198	6
2023-09-10T00:00	1705	835	18.7	-19.1	202	6
2023-09-10T00:00	1731	833	18.5	-19.1	207	5
2023-09-10T00:00	1758	830	18.4	-19.1	214	5
2023-09-10T00:00	1778	828	18.3	-19.0	222	5
2023-09-10T00:00	1801	826	18.2	-19.3	229	4
2023-09-10T00:00	1825	824	18.2	-18.5	233	5
2023-09-10T00:00	1858	821	17.8	-17.5	233	5
2023-09-10T00:00	1879	819	17.7	-15.4	231	5
2023-09-10T00:00	1902	816	17.6	-15.4	228	6
2023-09-10T00:00	1921	815	17.5	-15.8	226	6
2023-09-10T00:00	1941	813	17.5	-15.9	223	5
2023-09-10T00:00	1966	810	17.4	-16.0	220	5
2023-09-10T00:00	1989	808	17.4	-16.3	216	4
2023-09-10T00:00	2017	805	17.1	-16.3	214	4
2023-09-10T00:00	2040	803	17.0	-16.4	214	4
2023-09-10T00:00	2068	801	16.8	-16.4	219	4
2023-09-10T00:00	2096	798	16.7	-16.5	224	5
2023-09-10T00:00	2116	796	16.5	-16.9	228	5
2023-09-10T00:00	2138	794	16.5	-17.2	230	6
2023-09-10T00:00	2158	792	16.5	-18.1	231	6
2023-09-10T00:00	2187	790	16.4	-19.7	229	5
2023-09-10T00:00	2215	787	16.3		227	5
2023-09-10T00:00	2241	784	16.3	-20.3	224	6
2023-09-10T00:00	2269	782	16.1	-20.1	222	6
2023-09-10T00:00	2297	779	16.0		220	6
2023-09-10T00:00	2319	777	15.9	-17.1	219	6
2023-09-10T00:00	2342	775	15.8	-18.7	219	6
2023-09-10T00:00	2365	773	15.7	-18.2	220	6
2023-09-10T00:00	2390	771	15.5	-18.5	223	6
2023-09-10T00:00	2407	769	15.4	-18.5	226	6
2023-09-10T00:00	2435	767	15.2	-19.0	230	6
2023-09-10T00:00	2462	764	15.1	-19.4	232	6
2023-09-10T00:00	2490	762	14.9	-18.6	233	6
2023-09-10T00:00	2516	759	14.7	-18.7	231	6
2023-09-10T00:00	2538	757	14.6	-18.8	228	6
2023-09-10T00:00	2561	755	14.4	-18.7	223	6
2023-09-10T00:00	2581	753	14.2	-18.7	221	6
2023-09-10T00:00	2606	751	14.1	-18.8	220	6
2023-09-10T00:00	2632	749	13.9	-18.8	223	5
2023-09-10T00:00	2652	747	13.7	-18.8	227	5
2023-09-10T00:00	2671	745	13.6	-18.6	230	5
2023-09-10T00:00	2692	744	13.4	-18.4	231	5
2023-09-10T00:00	2719	741	13.2	-18.6	229	5
2023-09-10T00:00	2742	739	13.0	-18.7	225	5
2023-09-10T00:00	2765	737	12.8	-18.8	220	5
2023-09-10T00:00	2787	735	12.6	-18.9	217	5
2023-09-10T00:00	2807	733	12.5	-18.7	214	5
2023-09-10T00:00	2829	731	12.3	-19.1	212	5
2023-09-10T00:00	2855	729	12.1	-19.3	213	5
2023-09-10T00:00	2880	727	11.9	-19.6	215	6
2023-09-10T00:00	2903	725	11.8	-19.5	217	6
2023-09-10T00:00	2927	723	11.7	-19.5	219	6
2023-09-10T00:00	2955	721	11.5	-19.2	219	6
2023-09-10T00:00	2979	718	11.3	-19.4	219	5
2023-09-10T00:00	3010	716	11.1	-20.0	217	5
2023-09-10T00:00	3029	714	11.0	-18.8	214	5
2023-09-10T00:00	3054	712	10.8	-19.2	212	5
2023-09-10T00:00	3082	710	10.5	-19.4	210	5
2023-09-10T00:00	3106	708	10.4	-20.0	210	5
2023-09-10T00:00	3132	705	10.2	-20.4	211	5
2023-09-10T00:00	3155	703	10.1	-20.5	213	5
2023-09-10T00:00	3187	701	9.9	-21.0	217	5
2023-09-10T00:00	3212	699	9.7	-21.3	219	5
2023-09-10T00:00	3234	697	9.5	-21.3	220	5
2023-09-10T00:00	3258	695	9.3	-21.3	218	5
2023-09-10T00:00	3281	693	9.1	-21.7	215	5
2023-09-10T00:00	3302	691	9.0	-20.5	212	5
2023-09-10T00:00	3324	689	8.9	-18.9	212	5
2023-09-10T00:00	3344	687	8.8	-19.6	215	5
2023-09-10T00:00	3373	685	8.5	-19.4	220	5
2023-09-10T00:00	3395	683	8.3	-19.5	225	5
2023-09-10T00:00	3417	682	8.2	-18.2	228	5
2023-09-10T00:00	3438	680	7.9	-16.6	229	5
2023-09-10T00:00	3470	677	7.6	-16.8	227	4
2023-09-10T00:00	3493	675	7.4	-16.1	224	4
2023-09-10T00:00	3518	673	7.1	-15.8	222	4
2023-09-10T00:00	3542	671	6.9	-15.2	222	4
2023-09-10T00:00	3565	669	6.7	-14.7	224	4
2023-09-10T00:00	3593	667	6.4	-14.8	228	5
2023-09-10T00:00	3621	665	6.3	-15.4	231	5
2023-09-10T00:00	3639	663	6.1	-15.5	233	5
2023-09-10T00:00	3671	661	5.8	-16.5	234	4
2023-09-10T00:00	3703	658	5.5	-17.0	234	4
2023-09-10T00:00	3731	656	5.3	-17.6	233	3
2023-09-10T00:00	3753	654	5.1	-18.5	230	2
2023-09-10T00:00	3779	652	4.9	-19.2	223	2
2023-09-10T00:00	3814	649	4.6	-19.2	213	2
2023-09-10T00:00	3839	647	4.4	-19.7	205	3
2023-09-10T00:00	3863	645	4.1	-19.3	202	3
2023-09-10T00:00	3882	644	4.0	-19.1	202	4
2023-09-10T00:00	3910	642	3.7	-19.1	205	4
2023-09-10T00:00	3930	640	3.5	-19.5	209	5
2023-09-10T00:00	3954	638	3.3	-19.6	214	5
2023-09-10T00:00	3984	636	3.0	-20.1	218	5
2023-09-10T00:00	4007	634	2.8	-20.2	219	5
2023-09-10T00:00	4027	632	2.6	-20.4	217	5
2023-09-10T00:00	4049	631	2.5	-20.8	213	5
2023-09-10T00:00	4069	629	2.3	-20.7	208	5
2023-09-10T00:00	4098	627	2.0	-20.8	205	6
2023-09-10T00:00	4120	625	1.8	-20.7	204	6
2023-09-10T00:00	4147	623	1.6	-20.7	206	6
2023-09-10T00:00	4171	621	1.4	-20.7	209	6
2023-09-10T00:00	4189	620	1.2	-20.6	213	5
2023-09-10T00:00	4211	618	1.2	-20.9	218	5
2023-09-10T00:00	4234	616	1.1	-20.8	224	4
2023-09-10T00:00	4259	614	0.9	-20.9	231	4
2023-09-10T00:00	4288	612	0.7	-20.9	236	4
2023-09-10T00:00	4323	610	0.5	-20.6	237	4
2023-09-10T00:00	4347	608	0.3	-20.2	235	5
2023-09-10T00:00	4367	606	0.2	-19.2	232	5
2023-09-10T00:00	4393	604	0.0	-19.3	230	5
2023-09-10T00:00	4419	602	-0.2	-19.3	230	5
2023-09-10T00:00	4445	600	-0.4	-19.2	230	5
2023-09-10T00:00	4465	599	-0.6	-19.1	231	5
2023-09-10T00:00	4489	597	-0.9	-19.1	232	5
2023-09-10T00:00	4514	595	-1.1	-19.1	234	5
2023-09-10T00:00	4535	594	-1.3	-19.1	237	5
2023-09-10T00:00	4561	592	-1.5	-19.0	243	5
2023-09-10T00:00	4587	590	-1.7	-19.0	249	5
2023-09-10T00:00	4605	588	-1.9	-19.5	253	5
2023-09-10T00:00	4632	587	-2.1	-19.6	256	5
2023-09-10T00:00	4656	585	-2.3	-19.6	256	5
2023-09-10T00:00	4677	583	-2.5	-20.2	256	5
2023-09-10T00:00	4699	581	-2.6	-20.3	257	5
2023-09-10T00:00	4732	579	-2.9	-20.1	258	5
2023-09-10T00:00	4761	577	-3.1	-20.6	259	5
2023-09-10T00:00	4785	575	-3.4	-20.9	261	4
2023-09-10T00:00	4802	574	-3.5	-21.9	263	4
2023-09-10T00:00	4819	573	-3.6	-21.6	264	4
2023-09-10T00:00	4841	571	-3.8	-21.1	263	3
2023-09-10T00:00	4862	570	-4.0	-21.9	260	3
2023-09-10T00:00	4891	568	-3.9	-25.5	253	3
2023-09-10T00:00	4921	565	-3.8	-28.5	242	3
2023-09-10T00:00	4946	564	-3.6	-30.6	232	3
2023-09-10T00:00	4965	562	-3.4	-30.2	226	3
2023-09-10T00:00	4992	560	-3.5	-26.9	221	3
2023-09-10T00:00	5012	559	-3.6	-25.3	217	3
2023-09-10T00:00	5035	557	-3.7	-25.4	211	3
2023-09-10T00:00	5061	555	-3.9	-26.0	205	3
2023-09-10T00:00	5093	553	-4.0	-26.8	200	3
2023-09-10T00:00	5116	552	-4.1	-28.6	196	3
2023-09-10T00:00	5139	550	-4.3	-28.5	195	3
2023-09-10T00:00	5166	548	-4.5	-27.8	196	2
2023-09-10T00:00	5193	546	-4.6	-26.9	197	1
2023-09-10T00:00	5223	544	-4.8	-27.3	193	1
2023-09-10T00:00	5244	543	-4.9	-27.9	183	1
2023-09-10T00:00	5269	541	-5.0	-28.1	173	1
2023-09-10T00:00	5294	539	-5.1	-28.2	168	2
2023-09-10T00:00	5323	537	-5.3	-28.1	167	2
2023-09-10T00:00	5349	535	-5.5	-28.0	173	2
2023-09-10T00:00	5375	534	-5.7	-27.7	188	2
2023-09-10T00:00	5410	531	-6.0	-29.2	212	2
2023-09-10T00:00	5438	529	-6.1	-33.5	233	2
2023-09-10T00:00	5456	528	-6.2	-34.7	244	3
2023-09-10T00:00	5477	527	-6.2	-34.5	250	4
2023-09-10T00:00	5498	525	-6.3	-31.4	251	4
2023-09-10T00:00	5522	524	-6.4	-30.1	250	4
2023-09-10T00:00	5552	522	-6.6	-29.3	247	4
2023-09-10T00:00	5581	520	-6.8	-30.1	246	4
2023-09-10T00:00	5605	518	-6.9	-32.4	246	4
2023-09-10T00:00	5622	517	-7.0	-31.4	248	4
2023-09-10T00:00	5638	516	-7.1	-31.6	250	4
2023-09-10T00:00	5658	515	-7.2	-32.1	252	4
2023-09-10T00:00	5687	513	-7.4	-32.6	251	4
2023-09-10T00:00	5717	511	-7.6	-33.0	250	3
2023-09-10T00:00	5736	510	-7.7	-35.3	250	3
2023-09-10T00:00	5755	508	-7.9	-35.7	254	3
2023-09-10T00:00	5781	507	-8.0	-35.0	259	4
2023-09-10T00:00	5814	505	-8.1	-35.4	265	4
2023-09-10T00:00	5839	503	-8.3	-35.0	268	4
2023-09-10T00:00	5864	501	-8.5	-35.7	269	4
2023-09-10T00:00	5891	499	-8.8	-35.7	270	4
2023-09-10T00:00	5919	498	-9.0	-34.5	273	4
2023-09-10T00:00	5948	496	-9.2	-35.4	278	4
2023-09-10T00:00	5977	494	-9.4	-36.7	285	4
2023-09-10T00:00	6008	492	-9.6	-35.3	290	4
2023-09-10T00:00	6028	491	-9.7	-35.5	292	5
2023-09-10T00:00	6054	489	-9.8	-36.1	292	5
2023-09-10T00:00	6084	487	-10.0	-34.9	289	5
2023-09-10T00:00	6108	486	-10.3	-33.2	285	6
2023-09-10T00:00	6138	484	-10.5	-31.7	281	6
2023-09-10T00:00	6166	482	-10.8	-31.4	277	6
2023-09-10T00:00	6195	480	-11.0	-32.6	273	6
2023-09-10T00:00	6222	478	-11.2	-33.7	270	6
2023-09-10T00:00	6257	476	-11.4	-33.9	269	6
2023-09-10T00:00	6288	475	-11.6	-35.2	269	6
2023-09-10T00:00	6304	473	-11.7	-35.2	270	6
2023-09-10T00:00	6323	472	-11.9	-35.2	272	6
2023-09-10T00:00	6342	471	-12.0	-35.5	273	6
2023-09-10T00:00	6362	470	-12.1	-37.5	274	6
2023-09-10T00:00	6380	469	-12.2	-38.8	274	6
2023-09-10T00:00	6401	467	-12.3	-38.4	273	6
2023-09-10T00:00	6419	466	-12.5	-38.2	273	6
2023-09-10T00:00	6437	465	-12.6	-38.2	274	5
2023-09-10T00:00	6455	464	-12.8	-38.3	275	5
2023-09-10T00:00	6476	463	-12.9	-38.5	278	5
2023-09-10T00:00	6496	462	-13.0	-38.7	280	5
2023-09-10T00:00	6512	461	-13.1	-38.3	281	5
2023-09-10T00:00	6532	459	-13.2	-37.1	280	5
2023-09-10T00:00	6551	458	-13.3	-35.2	279	5
2023-09-10T00:00	6569	457	-13.4	-33.9	278	5
2023-09-10T00:00	6587	456	-13.6	-32.9	277	5
2023-09-10T00:00	6607	455	-13.8	-33.1	278	6
2023-09-10T00:00	6626	454	-14.0	-33.6	280	6
2023-09-10T00:00	6645	453	-14.1	-34.6	284	6
2023-09-10T00:00	6670	451	-14.3	-35.3	289	6
2023-09-10T00:00	6701	449	-14.6	-35.2	294	6
2023-09-10T00:00	6733	447	-14.8	-35.4	297	6
2023-09-10T00:00	6759	446	-15.1	-35.4	299	6
2023-09-10T00:00	6787	444	-15.3	-35.8	300	7
2023-09-10T00:00	6818	442	-15.5	-36.4	300	6
2023-09-10T00:00	6848	441	-15.6	-38.0	300	6
2023-09-10T00:00	6863	440	-15.7	-36.9	299	6
2023-09-10T00:00	6886	438	-15.9	-34.9	298	5
2023-09-10T00:00	6915	437	-16.1	-37.0	296	5
2023-09-10T00:00	6946	435	-16.4	-37.0	294	4
2023-09-10T00:00	6979	433	-16.7	-37.5	293	4
2023-09-10T00:00	6997	432	-16.8	-37.5	293	4
2023-09-10T00:00	7016	431	-17.0	-36.5	294	4
2023-09-10T00:00	7035	430	-17.1	-36.5	295	5
2023-09-10T00:00	7053	429	-17.3	-36.8	295	5
2023-09-10T00:00	7073	428	-17.4	-36.8	295	5
2023-09-10T00:00	7090	427	-17.5	-37.2	295	6
2023-09-10T00:00	7108	426	-17.5	-38.3	295	6
2023-09-10T00:00	7126	425	-17.5	-39.3	294	6
2023-09-10T00:00	7144	424	-17.4	-41.2	294	6
2023-09-10T00:00	7164	423	-17.5	-38.1	294	5
2023-09-10T00:00	7183	421	-17.7	-37.9	294	5
2023-09-10T00:00	7201	420	-17.8	-38.0	296	5
2023-09-10T00:00	7220	419	-18.0	-38.3	299	5
2023-09-10T00:00	7238	418	-18.2	-38.7	302	4
2023-09-10T00:00	7256	417	-18.3	-39.0	305	4
2023-09-10T00:00	7275	416	-18.4	-39.5	307	5
2023-09-10T00:00	7293	415	-18.6	-40.1	308	5
2023-09-10T00:00	7310	414	-18.6	-39.7	311	5
2023-09-10T00:00	7329	413	-18.7	-39.8	313	5
2023-09-10T00:00	7348	412	-18.9	-40.1	316	5
2023-09-10T00:00	7364	411	-19.0	-40.5	319	5
2023-09-10T00:00	7385	410	-19.1	-39.9	321	5
2023-09-10T00:00	7404	409	-19.3	-39.7	322	5
2023-09-10T00:00	7420	408	-19.4	-39.3	322	5
2023-09-10T00:00	7440	407	-19.6	-39.3	321	5
2023-09-10T00:00	7459	406	-19.8	-39.3	320	5
2023-09-10T00:00	7478	405	-19.9	-40.5	319	5
2023-09-10T00:00	7497	404	-20.0	-40.6	318	5
2023-09-10T00:00	7516	403	-20.1	-40.3	318	5
2023-09-10T00:00	7539	402	-20.3	-40.5	318	5
2023-09-10T00:00	7563	401	-20.5	-41.1	317	5
2023-09-10T00:00	7586	399	-20.6	-40.5	314	5
2023-09-10T00:00	7608	398	-20.8	-41.5	311	6
2023-09-10T00:00	7633	397	-21.0	-41.8	308	6
2023-09-10T00:00	7660	395	-21.3	-42.3	304	6
2023-09-10T00:00	7694	393	-21.5	-42.0	302	6
2023-09-10T00:00	7727	392	-21.8	-40.9	300	6
2023-09-10T00:00	7754	390	-21.9	-41.6	301	6
2023-09-10T00:00	7783	389	-22.1	-42.0	302	6
2023-09-10T00:00	7813	387	-22.2	-42.6	306	6
2023-09-10T00:00	7844	385	-22.4	-42.9	309	6
2023-09-10T00:00	7877	384	-22.6	-43.0	311	6
2023-09-10T00:00	7908	382	-22.8	-42.9	312	7
2023-09-10T00:00	7936	381	-23.1	-42.9	311	7
2023-09-10T00:00	7967	379	-23.2		309	8
2023-09-10T00:00	8000	377	-23.5	-43.3	306	8
2023-09-10T00:00	8030	376	-23.7	-43.4	304	8
2023-09-10T00:00	8058	374	-23.9	-43.3	303	8
2023-09-10T00:00	8087	373	-24.1	-43.4	303	8
2023-09-10T00:00	8116	371	-24.4	-43.6	304	8
2023-09-10T00:00	8145	370	-24.6	-43.9	307	8
2023-09-10T00:00	8175	368	-24.8	-43.7	309	8
2023-09-10T00:00	8202	367	-25.0	-43.7	310	8
2023-09-10T00:00	8227	366	-25.3	-44.0	310	9
2023-09-10T00:00	8256	364	-25.5	-44.3	309	9
2023-09-10T00:00	8285	363	-25.7	-44.5	307	9
2023-09-10T00:00	8312	361	-25.9	-44.6	306	9
2023-09-10T00:00	8345	360	-26.1	-44.4	304	9
2023-09-10T00:00	8373	359	-26.4	-44.4	303	9
2023-09-10T00:00	8397	357	-26.6	-44.3	302	9
2023-09-10T00:00	8422	356	-26.8	-44.2	302	9
2023-09-10T00:00	8452	355	-27.0	-44.3	304	9
2023-09-10T00:00	8481	353	-27.3	-44.5	305	9
2023-09-10T00:00	8511	352	-27.6	-44.6	307	9
2023-09-10T00:00	8539	350	-27.9	-44.6	309	9
2023-09-10T00:00	8569	349	-28.2	-44.9	309	9
2023-09-10T00:00	8599	347	-28.4	-44.8	308	9
2023-09-10T00:00	8629	346	-28.7	-45.1	306	9
2023-09-10T00:00	8655	345	-28.9	-45.1	304	8
2023-09-10T00:00	8678	344	-29.1	-45.2	303	8
2023-09-10T00:00	8703	342	-29.2	-45.4	301	8
2023-09-10T00:00	8730	341	-29.4	-45.8	301	9
2023-09-10T00:00	8762	340	-29.6	-46.1	300	9
2023-09-10T00:00	8791	338	-29.8	-46.3	301	9
2023-09-10T00:00	8818	337	-30.1	-46.5	302	9
2023-09-10T00:00	8844	336	-30.3	-46.5	304	9
2023-09-10T00:00	8871	334	-30.6	-46.7	306	9
2023-09-10T00:00	8897	333	-30.8	-47.0	307	9
2023-09-10T00:00	8924	332	-31.0	-47.3	308	10
2023-09-10T00:00	8954	330	-31.1	-47.7	308	10
2023-09-10T00:00	8984	329	-31.3	-47.9	308	10
2023-09-10T00:00	9011	328	-31.6	-48.1	308	10
2023-09-10T00:00	9040	327	-31.8	-47.0	308	10
2023-09-10T00:00	9067	325	-32.0	-46.3	309	10
2023-09-10T00:00	9093	324	-32.2	-46.5	311	10
2023-09-10T00:00	9120	323	-32.5	-46.7	313	10
2023-09-10T00:00	9149	321	-32.8	-46.9	315	10
2023-09-10T00:00	9177	320	-33.0	-47.2	316	11
2023-09-10T00:00	9204	319	-33.3	-47.3	315	11
2023-09-10T00:00	9231	318	-33.5	-47.4	313	12
2023-09-10T00:00	9260	316	-33.8	-47.4	310	12
2023-09-10T00:00	9289	315	-34.0	-47.4	309	12
2023-09-10T00:00	9319	314	-34.3	-46.9	307	12
2023-09-10T00:00	9345	313	-34.5	-46.9	307	12
2023-09-10T00:00	9372	311	-34.7	-47.7	307	12
2023-09-10T00:00	9396	310	-34.9	-48.8	306	11
2023-09-10T00:00	9418	309	-35.1	-48.4	306	11
2023-09-10T00:00	9442	308	-35.2	-48.3	306	11
2023-09-10T00:00	9463	307	-35.4	-47.9	305	11
2023-09-10T00:00	9489	306	-35.6	-48.0	306	11
2023-09-10T00:00	9514	305	-35.8	-49.3	306	11
2023-09-10T00:00	9538	304	-36.0	-48.4	307	11
2023-09-10T00:00	9562	303	-36.3	-48.2	307	11
2023-09-10T00:00	9583	302	-36.4	-48.5	307	10
2023-09-10T00:00	9602	301	-36.6	-48.5	307	10
2023-09-10T00:00	9620	300	-36.8	-48.5	307	10
2023-09-10T00:00	9641	300	-36.9	-48.8	307	10
2023-09-10T00:00	9659	299	-36.9	-49.6	308	10
2023-09-10T00:00	9679	298	-37.0	-50.1	309	10
2023-09-10T00:00	9697	297	-37.1	-50.1	309	10
2023-09-10T00:00	9715	296	-37.3	-50.3	309	10
2023-09-10T00:00	9734	296	-37.4	-50.4	308	10
2023-09-10T00:00	9754	295	-37.6	-50.4	307	10
2023-09-10T00:00	9775	294	-37.7	-50.4	306	10
2023-09-10T00:00	9794	293	-37.9	-50.5	306	10
2023-09-10T00:00	9813	292	-38.0	-50.7	306	10
2023-09-10T00:00	9830	291	-38.2	-50.8	307	10
2023-09-10T00:00	9850	291	-38.4	-50.9	307	10
2023-09-10T00:00	9871	290	-38.5	-51.1	307	10
2023-09-10T00:00	9892	289	-38.7	-51.2	308	10
2023-09-10T00:00	9911	288	-38.9	-51.2	309	10
2023-09-10T00:00	9931	287	-39.0	-51.7	310	10
2023-09-10T00:00	9951	286	-39.1	-52.8	311	10
2023-09-10T00:00	9970	286	-39.2	-52.4	312	10
2023-09-10T00:00	9989	285	-39.4	-52.2	313	10
2023-09-10T00:00	10010	284	-39.5	-52.2	314	10
2023-09-10T00:00	10030	283	-39.5	-52.8	314	10
2023-09-10T00:00	10050	282	-39.6	-53.0	315	10
2023-09-10T00:00	10071	281	-39.8	-53.1	316	10
2023-09-10T00:00	10090	281	-39.9	-53.0	317	10
2023-09-10T00:00	10108	280	-40.1	-53.1	317	10
2023-09-10T00:00	10128	279	-40.3	-53.3	317	10
2023-09-10T00:00	10148	278	-40.4	-53.5	317	11
2023-09-10T00:00	10167	278	-40.5	-53.7	317	11
2023-09-10T00:00	10187	277	-40.7	-53.7	317	10
2023-09-10T00:00	10206	276	-40.8	-53.7	317	10
2023-09-10T00:00	10227	275	-41.0	-53.9	317	10
2023-09-10T00:00	10245	274	-41.2	-54.0	317	10
2023-09-10T00:00	10264	274	-41.3	-54.0	317	10
2023-09-10T00:00	10282	273	-41.5	-54.2	318	11
2023-09-10T00:00	10302	272	-41.7	-54.4	318	11
2023-09-10T00:00	10320	271	-41.8	-54.6	317	11
2023-09-10T00:00	10339	271	-42.0	-54.8	317	11
2023-09-10T00:00	10358	270	-42.1	-55.0	317	11
2023-09-10T00:00	10379	269	-42.3	-55.2	317	11
2023-09-10T00:00	10399	268	-42.4	-55.4	317	11
2023-09-10T00:00	10418	267	-42.6	-55.5	318	12
2023-09-10T00:00	10438	267	-42.7	-55.5	318	12
2023-09-10T00:00	10456	266	-42.9	-55.5	318	12
2023-09-10T00:00	10474	265	-43.1	-55.5	318	12
2023-09-10T00:00	10493	264	-43.2	-55.5	317	12
2023-09-10T00:00	10514	264	-43.4	-55.5	316	12
2023-09-10T00:00	10534	263	-43.6	-55.5	315	12
2023-09-10T00:00	10553	262	-43.8	-55.2	314	12
2023-09-10T00:00	10572	261	-44.0	-54.8	312	12
2023-09-10T00:00	10592	261	-44.1	-54.6	311	12
2023-09-10T00:00	10609	260	-44.3	-54.7	311	12
2023-09-10T00:00	10629	259	-44.4	-54.7	310	12
2023-09-10T00:00	10647	258	-44.6	-54.8	310	12
2023-09-10T00:00	10667	258	-44.8	-54.9	309	12
2023-09-10T00:00	10686	257	-44.9	-54.9	309	12
2023-09-10T00:00	10703	256	-45.1	-55.0	308	12
2023-09-10T00:00	10725	255	-45.3	-55.4	307	12
2023-09-10T00:00	10745	255	-45.4	-55.5	307	12
2023-09-10T00:00	10764	254	-45.6	-55.2	306	12
2023-09-10T00:00	10782	253	-45.7	-54.9	306	12
2023-09-10T00:00	10802	253	-45.9		305	12
2023-09-10T00:00	10821	252	-46.1	-55.2	305	12
2023-09-10T00:00	10840	251	-46.3	-55.3	305	12
2023-09-10T00:00	10858	250	-46.4	-55.3	305	12
2023-09-10T00:00	10877	250	-46.6	-55.3	305	12
2023-09-10T00:00	10896	249	-46.7	-55.2	306	12
2023-09-10T00:00	10915	248	-46.9	-55.1	308	12
2023-09-10T00:00	10937	247	-47.1	-55.4	309	12
2023-09-10T00:00	10956	247	-47.1	-55.7	310	12
2023-09-10T00:00	10976	246	-47.3	-56.0	311	12
2023-09-10T00:00	10994	245	-47.4	-56.4	311	12
2023-09-10T00:00	11014	245	-47.4	-56.8	310	12
2023-09-10T00:00	11034	244	-47.5	-57.0	310	11
2023-09-10T00:00	11054	243	-47.6	-57.2	310	11
2023-09-10T00:00	11075	242	-47.7	-57.5	310	11
2023-09-10T00:00	11096	242	-47.8	-57.7	310	11
2023-09-10T00:00	11112	241	-48.0	-57.8	309	11
2023-09-10T00:00	11135	240	-48.2	-57.8	308	11
2023-09-10T00:00	11155	239	-48.3	-57.8	308	11
2023-09-10T00:00	11173	239	-48.5	-57.9	308	11
2023-09-10T00:00	11197	238	-48.7	-58.1	308	11
2023-09-10T00:00	11217	237	-48.8	-58.2	309	11
2023-09-10T00:00	11236	236	-48.9	-58.3	310	11
2023-09-10T00:00	11258	236	-49.1	-58.3	310	11
2023-09-10T00:00	11277	235	-49.3	-58.3	310	11
2023-09-10T00:00	11297	234	-49.5	-58.4	310	11
2023-09-10T00:00	11316	234	-49.6	-58.4	310	11
2023-09-10T00:00	11336	233	-49.8	-58.5	311	11
2023-09-10T00:00	11358	232	-50.0	-58.5	311	11
2023-09-10T00:00	11379	231	-50.1	-58.5	311	11
2023-09-10T00:00	11404	230	-50.3	-58.3	311	11
2023-09-10T00:00	11433	230	-50.5	-58.3	310	11
2023-09-10T00:00	11458	229	-50.8	-58.5	310	10
2023-09-10T00:00	11480	228	-50.9	-58.4	310	10
2023-09-10T00:00	11503	227	-51.1	-57.9	311	10
2023-09-10T00:00	11524	226	-51.3	-57.5	312	10
2023-09-10T00:00	11543	226	-51.5	-57.3	313	10
2023-09-10T00:00	11564	225	-51.6	-57.5	313	10
2023-09-10T00:00	11583	224	-51.7	-58.0	313	10
2023-09-10T00:00	11605	224	-51.9	-58.3	312	10
2023-09-10T00:00	11624	223	-52.1	-58.2	311	10
2023-09-10T00:00	11641	222	-52.2	-58.0	311	10
2023-09-10T00:00	11658	222	-52.4	-58.1	310	10
2023-09-10T00:00	11680	221	-52.6	-58.3	310	10
2023-09-10T00:00	11699	220	-52.7	-58.6	309	10
2023-09-10T00:00	11717	220	-52.9	-59.1	308	9
2023-09-10T00:00	11736	219	-53.0	-59.2	308	9
2023-09-10T00:00	11754	218	-53.2	-59.2	307	9
2023-09-10T00:00	11775	218	-53.4	-59.0	307	9
2023-09-10T00:00	11794	217	-53.5	-58.8	307	9
2023-09-10T00:00	11817	216	-53.7	-58.8	308	9
2023-09-10T00:00	11836	216	-53.8	-58.9	309	9
2023-09-10T00:00	11854	215	-53.9	-59.2	310	9
2023-09-10T00:00	11873	214	-54.1	-59.6	310	9
2023-09-10T00:00	11894	214	-54.2	-59.8	310	9
2023-09-10T00:00	11914	213	-54.4	-60.1	309	9
2023-09-10T00:00	11934	212	-54.5	-60.2	309	9
2023-09-10T00:00	11955	212	-54.7	-60.3	309	10
2023-09-10T00:00	11976	211	-54.8	-60.4	308	10
2023-09-10T00:00	11997	210	-54.9	-60.4	308	10
2023-09-10T00:00	12019	210	-55.1	-60.4	309	10
2023-09-10T00:00	12041	209	-55.3	-60.5	309	10
2023-09-10T00:00	12060	208	-55.5	-60.7	309	10
2023-09-10T00:00	12080	208	-55.6	-61.1	310	10
2023-09-10T00:00	12100	207	-55.7	-61.5	310	10
2023-09-10T00:00	12118	206	-55.8	-62.0	311	10
2023-09-10T00:00	12139	206	-55.9	-62.0	311	10
2023-09-10T00:00	12160	205	-56.0	-61.8	310	10
2023-09-10T00:00	12179	204	-56.2	-61.7	310	10
2023-09-10T00:00	12198	204	-56.3	-61.6	309	10
2023-09-10T00:00	12219	203	-56.5	-61.7	309	10
2023-09-10T00:00	12238	202	-56.7	-61.9	310	10
2023-09-10T00:00	12259	202	-56.8	-62.2	310	10
2023-09-10T00:00	12278	201	-57.0	-62.6	311	10
2023-09-10T00:00	12298	201	-57.1	-62.6	312	10
2023-09-10T00:00	12319	200	-57.3	-62.6	312	10
2023-09-10T00:00	12341	199	-57.5	-62.5	312	10
2023-09-10T00:00	12362	199	-57.7	-62.5	312	10
2023-09-10T00:00	12384	198	-57.9	-62.7	311	11
2023-09-10T00:00	12402	197	-58.0	-63.1	311	11
2023-09-10T00:00	12425	197	-58.1	-63.6	311	11
2023-09-10T00:00	12444	196	-58.1	-64.0	311	12
2023-09-10T00:00	12463	195	-58.2	-64.2	311	12
2023-09-10T00:00	12484	195	-58.3	-64.3	312	12
2023-09-10T00:00	12504	194	-58.4	-64.4	312	12
2023-09-10T00:00	12523	193	-58.5	-64.5	313	11
2023-09-10T00:00	12543	193	-58.6	-64.4	314	11
2023-09-10T00:00	12561	192	-58.7	-64.3	314	11
2023-09-10T00:00	12583	192	-58.9	-64.3	314	11
2023-09-10T00:00	12603	191	-59.0	-64.4	314	11
2023-09-10T00:00	12623	190	-59.2	-64.5	314	11
2023-09-10T00:00	12641	190	-59.3	-64.4	314	11
2023-09-10T00:00	12665	189	-59.4	-64.4	314	10
2023-09-10T00:00	12685	189	-59.6	-64.5	314	10
2023-09-10T00:00	12705	188	-59.7	-64.7	314	10
2023-09-10T00:00	12728	187	-59.9	-65.1	313	10
2023-09-10T00:00	12748	187	-60.0	-65.5	311	11
2023-09-10T00:00	12766	186	-60.1	-66.0	310	11
2023-09-10T00:00	12789	185	-60.3	-66.7	308	11
2023-09-10T00:00	12808	185	-60.4	-67.2	307	11
2023-09-10T00:00	12832	184	-60.5	-67.6	305	11
2023-09-10T00:00	12849	184	-60.7	-67.6	304	11
2023-09-10T00:00	12870	183	-60.8	-67.3	303	11
2023-09-10T00:00	12889	182	-60.9	-67.0	303	11
2023-09-10T00:00	12909	182	-61.0	-66.7	302	11
2023-09-10T00:00	12928	181	-61.1	-66.6	302	11
2023-09-10T00:00	12950	181	-61.3	-66.7	302	11
2023-09-10T00:00	12971	180	-61.4	-66.6	302	11
2023-09-10T00:00	12990	180	-61.6	-66.6	302	11
2023-09-10T00:00	13013	179	-61.7	-66.4	302	11
2023-09-10T00:00	13033	178	-61.9	-66.4	302	11
2023-09-10T00:00	13051	178	-62.1	-66.5	302	11
2023-09-10T00:00	13071	177	-62.2	-66.5	302	12
2023-09-10T00:00	13090	177	-62.3	-66.5	302	12
2023-09-10T00:00	13110	176	-62.3	-66.6	303	12
2023-09-10T00:00	13131	176	-62.5	-66.9	303	12
2023-09-10T00:00	13151	175	-62.6	-67.0	304	12
2023-09-10T00:00	13170	174	-62.7	-67.1	305	12
2023-09-10T00:00	13191	174	-62.8	-67.2	306	12
2023-09-10T00:00	13211	173	-63.0	-67.3	306	12
2023-09-10T00:00	13235	173	-63.1	-67.4	307	12
2023-09-10T00:00	13254	172	-63.2	-67.4	307	13
2023-09-10T00:00	13271	172	-63.4	-67.5	307	13
2023-09-10T00:00	13294	171	-63.4	-67.6	307	13
2023-09-10T00:00	13313	170	-63.5	-67.7	306	13
2023-09-10T00:00	13336	170	-63.6	-67.9	306	13
2023-09-10T00:00	13358	169	-63.8	-68.2	307	13
2023-09-10T00:00	13377	169	-63.9	-68.4	307	13
2023-09-10T00:00	13399	168	-63.9	-68.5	307	13
2023-09-10T00:00	13418	167	-64.0		308	13
2023-09-10T00:00	13440	167	-64.1	-69.0	309	13
2023-09-10T00:00	13461	166	-64.0	-69.2	309	13
2023-09-10T00:00	13481	166	-64.0	-69.5	310	13
2023-09-10T00:00	13503	165	-64.1	-70.1	310	12
2023-09-10T00:00	13524	165	-63.9	-70.5	309	12
2023-09-10T00:00	13546	164	-64.0	-71.3	309	11
2023-09-10T00:00	13566	163	-63.9	-71.6	308	11
2023-09-10T00:00	13590	163	-64.0	-71.8	308	10
2023-09-10T00:00	13612	162	-64.2	-71.9	308	10
2023-09-10T00:00	13632	162	-64.4	-71.8	308	9
2023-09-10T00:00	13654	161	-64.6	-71.7	309	9
2023-09-10T00:00	13676	161	-64.7	-71.6	310	9
2023-09-10T00:00	13698	160	-64.7	-71.5	310	8
2023-09-10T00:00	13720	159	-64.8	-71.6	309	8
2023-09-10T00:00	13742	159	-64.7	-71.7	308	8
2023-09-10T00:00	13765	158	-64.8	-72.1	307	8
2023-09-10T00:00	13785	158	-64.8	-72.4	305	9
2023-09-10T00:00	13804	157	-64.8	-72.9	304	9
2023-09-10T00:00	13825	157	-64.7	-73.3	304	9
2023-09-10T00:00	13843	156	-64.6	-73.7	304	9
2023-09-10T00:00	13864	156	-64.6	-74.0	304	9
2023-09-10T00:00	13885	155	-64.6	-74.2	305	9
2023-09-10T00:00	13906	155	-64.8	-74.4	305	9
2023-09-10T00:00	13927	154	-64.9	-74.5	306	9
2023-09-10T00:00	13948	154	-65.0	-74.6	306	9
2023-09-10T00:00	13969	153	-65.1	-74.6	307	9
2023-09-10T00:00	13990	153	-65.1	-74.6	308	9
2023-09-10T00:00	14012	152	-65.2	-74.8	309	9
2023-09-10T00:00	14032	151	-65.3	-74.9	311	9
2023-09-10T00:00	14052	151	-65.4	-75.0	313	9
2023-09-10T00:00	14071	150	-65.4	-75.1	314	9
2023-09-10T00:00	14095	150	-65.5	-75.3	315	9
2023-09-10T00:00	14114	149	-65.5	-75.4	316	9
2023-09-10T00:00	14136	149	-65.6	-75.7	318	9
2023-09-10T00:00	14155	148	-65.7	-76.0	319	9
2023-09-10T00:00	14175	148	-65.8	-76.4	320	9
2023-09-10T00:00	14197	147	-65.4	-76.4	321	10
2023-09-10T00:00	14220	147	-65.3	-76.8	322	10
2023-09-10T00:00	14240	146	-65.2	-77.1	322	10
2023-09-10T00:00	14262	146	-65.2	-77.5	324	10
2023-09-10T00:00	14279	145	-65.3	-77.9	325	10
2023-09-10T00:00	14300	145	-65.2	-78.2	327	9
2023-09-10T00:00	14322	144	-65.0	-78.3	330	9
2023-09-10T00:00	14341	144	-65.0	-78.6	332	9
2023-09-10T00:00	14365	143	-65.0	-78.9	334	8
2023-09-10T00:00	14385	143	-64.8	-78.9	335	8
2023-09-10T00:00	14405	142	-64.6	-79.0	333	8
2023-09-10T00:00	14423	142	-64.5	-79.2	330	8
2023-09-10T00:00	14443	142	-64.4	-79.5	326	8
2023-09-10T00:00	14463	141	-64.5	-79.9	321	8
2023-09-10T00:00	14481	141	-64.1	-79.8	317	8
2023-09-10T00:00	14502	140	-64.0	-79.9	313	8
2023-09-10T00:00	14525	140	-64.0	-80.1	311	8
2023-09-10T00:00	14545	139	-63.9	-80.3	310	8
2023-09-10T00:00	14565	139	-63.8	-80.4	311	8
2023-09-10T00:00	14584	138	-63.6	-80.5	314	8
2023-09-10T00:00	14605	138	-63.5	-80.5	318	8
2023-09-10T00:00	14624	137	-63.6	-80.5	324	8
2023-09-10T00:00	14645	137	-63.6	-80.5	330	7
2023-09-10T00:00	14668	136	-63.6	-80.3	336	7
2023-09-10T00:00	14688	136	-63.4	-80.1	341	7
2023-09-10T00:00	14706	136	-63.1	-80.0	346	6
2023-09-10T00:00	14729	135	-63.0	-80.0	349	6
2023-09-10T00:00	14748	135	-63.0		350	5
2023-09-10T00:00	14768	134	-63.1	-80.2	351	5
2023-09-10T00:00	14787	134	-63.2	-80.4	350	5
2023-09-10T00:00	14810	133	-63.3	-80.5	349	4
2023-09-10T00:00	14829	133	-63.4	-80.5	348	4
2023-09-10T00:00	14851	132	-63.4	-80.5	348	3
2023-09-10T00:00	14871	132	-63.3	-80.5	349	3
2023-09-10T00:00	14891	132	-63.2	-80.5	349	3
2023-09-10T00:00	14912	131	-63.1	-80.6	348	4
2023-09-10T00:00	14933	131	-63.0	-80.8	345	4
2023-09-10T00:00	14955	130	-62.9	-81.0	341	4
2023-09-10T00:00	14977	130	-62.8	-81.1	336	4
2023-09-10T00:00	15000	129	-62.9	-81.4	330	4
2023-09-10T00:00	15018	129	-62.7	-81.3	326	5
2023-09-10T00:00	15040	128	-62.8	-81.4	323	5
2023-09-10T00:00	15060	128	-62.8	-81.5	321	6
2023-09-10T00:00	15081	128	-62.9		322	6
2023-09-10T00:00	15102	127	-63.0	-81.8	324	7
2023-09-10T00:00	15123	127	-63.0	-81.9	326	7
2023-09-10T00:00	15143	126	-62.9	-82.0	329	7
2023-09-10T00:00	15163	126	-62.6	-81.9	330	6
2023-09-10T00:00	15186	125	-62.5	-81.9	331	6
2023-09-10T00:00	15207	125	-62.4	-81.9	329	5
2023-09-10T00:00	15229	125	-62.3	-81.9	326	5
2023-09-10T00:00	15249	124	-62.2	-81.8	322	5
2023-09-10T00:00	15268	124	-62.1	-81.6	318	4
2023-09-10T00:00	15288	123	-62.2	-81.7	315	4
2023-09-10T00:00	15309	123	-62.3	-81.6	312	4
2023-09-10T00:00	15328	123	-62.5	-81.7	308	5
2023-09-10T00:00	15351	122	-62.6	-81.8	304	5
2023-09-10T00:00	15372	122	-62.7	-81.7	302	5
2023-09-10T00:00	15396	121	-62.9	-81.9	300	6
2023-09-10T00:00	15415	121	-62.9	-81.9	300	6
2023-09-10T00:00	15437	120	-62.9	-82.0	301	7
2023-09-10T00:00	15458	120	-62.8	-82.2	303	7
2023-09-10T00:00	15476	120	-62.7	-82.3	305	8
2023-09-10T00:00	15499	119	-62.3	-82.1	307	8
2023-09-10T00:00	15519	119	-62.1	-82.2	309	8
2023-09-10T00:00	15540	118	-62.2	-82.4	313	8
2023-09-10T00:00	15561	118	-62.3	-82.6	316	7
2023-09-10T00:00	15579	118	-62.2	-82.7	320	7
2023-09-10T00:00	15599	117	-62.3	-82.7	322	7
2023-09-10T00:00	15622	117	-62.3	-82.9	322	6
2023-09-10T00:00	15642	117	-62.3	-82.9	321	6
2023-09-10T00:00	15664	116	-62.1	-82.8	318	6
2023-09-10T00:00	15684	116	-61.7	-82.7	313	6
2023-09-10T00:00	15707	115	-61.8	-82.7	309	6
2023-09-10T00:00	15729	115	-61.8	-82.9	306	6
2023-09-10T00:00	15749	115	-61.9	-83.0	304	6
2023-09-10T00:00	15770	114	-61.9	-83.0	305	5
2023-09-10T00:00	15790	114	-61.9	-83.0	306	6
2023-09-10T00:00	15810	113	-61.8	-83.0	309	6
2023-09-10T00:00	15832	113	-61.5	-82.8	312	6
2023-09-10T00:00	15852	113	-61.7	-83.1	314	6
2023-09-10T00:00	15872	112	-61.9	-83.1	317	6
2023-09-10T00:00	15893	112	-62.1	-83.3	318	6
2023-09-10T00:00	15916	111	-62.2	-83.2	320	7
2023-09-10T00:00	15936	111	-62.4	-83.2	322	7
2023-09-10T00:00	15958	111	-62.6	-83.3	324	7
2023-09-10T00:00	15980	110	-62.7	-83.2	326	8
2023-09-10T00:00	16001	110	-62.9		327	8
2023-09-10T00:00	16020	110	-63.1	-83.4	329	8
2023-09-10T00:00	16042	109	-63.3	-83.6	331	7
2023-09-10T00:00	16067	109	-63.2	-83.5	333	7
2023-09-10T00:00	16087	108	-63.2	-83.5	335	6
2023-09-10T00:00	16110	108	-63.3	-83.6	337	6
2023-09-10T00:00	16130	108	-63.4	-83.6	337	5
2023-09-10T00:00	16153	107	-63.5	-83.7	337	5
2023-09-10T00:00	16175	107	-63.7	-83.9	336	5
2023-09-10T00:00	16198	107	-63.9	-84.0	334	5
2023-09-10T00:00	16219	106	-64.0	-84.1	331	5
2023-09-10T00:00	16237	106	-64.1	-84.3	328	5
2023-09-10T00:00	16258	105	-63.6		325	5
2023-09-10T00:00	16279	105	-63.6	-84.4	324	5
2023-09-10T00:00	16299	105	-63.5	-84.6	324	5
2023-09-10T00:00	16319	104	-63.5	-84.7	325	5
2023-09-10T00:00	16340	104	-63.5	-84.9	327	5
2023-09-10T00:00	16362	104	-63.3	-84.9	330	4
2023-09-10T00:00	16383	103	-63.2	-84.8	332	4
2023-09-10T00:00	16403	103	-63.1	-84.9	335	4
2023-09-10T00:00	16425	103	-63.1	-84.9	337	4
2023-09-10T00:00	16446	102	-62.9	-84.9	338	4
2023-09-10T00:00	16468	102	-62.9	-84.9	337	4
2023-09-10T00:00	16490	102	-63.0	-85.0	334	4
2023-09-10T00:00	16510	101	-63.2	-85.1	329	4
2023-09-10T00:00	16532	101	-63.3	-85.1	324	4
2023-09-10T00:00	16551	101	-63.3	-85.1	321	4
2023-09-10T00:00	16574	100	-63.4	-85.1	318	4
2023-09-10T00:00	16596	100	-63.3	-85.2	318	4
2023-09-10T00:00	16620	99	-63.2	-85.1	319	4
2023-09-10T00:00	16643	99	-63.1	-85.2	321	4
2023-09-10T00:00	16663	99	-62.9	-85.3	325	4
2023-09-10T00:00	16686	98	-62.8	-85.2	330	4
2023-09-10T00:00	16707	98	-62.7	-85.1	335	4
2023-09-10T00:00	16726	98	-62.8	-85.4	340	4
2023-09-10T00:00	16748	97	-62.7	-85.3	343	4
2023-09-10T00:00	16770	97	-62.6	-85.2	345	4
2023-09-10T00:00	16792	97	-62.6	-85.4	345	3
2023-09-10T00:00	16813	96	-62.5	-85.5	344	3
2023-09-10T00:00	16836	96	-62.1	-85.2	345	3
2023-09-10T00:00	16856	96	-61.9	-85.3	348	3
2023-09-10T00:00	16880	95	-61.8	-85.2	356	2
2023-09-10T00:00	16899	95	-61.9	-85.3	7	2
2023-09-10T00:00	16922	95	-62.0	-85.3	18	2
2023-09-10T00:00	16943	94	-62.1	-85.6	23	2
2023-09-10T00:00	16964	94	-61.8	-85.4	22	2
2023-09-10T00:00	16985	94	-61.6	-85.2	18	2
2023-09-10T00:00	17006	93	-61.3	-85.2	12	2
2023-09-10T00:00	17028	93	-61.5	-85.2	5	3
2023-09-10T00:00	17052	93	-61.6	-85.2	359	3
2023-09-10T00:00	17074	92	-61.9	-85.5	353	3
2023-09-10T00:00	17095	92	-62.1	-85.4	350	4
2023-09-10T00:00	17117	92	-62.2	-85.5	349	4
2023-09-10T00:00	17139	91	-62.3	-85.6	351	4
2023-09-10T00:00	17158	91	-62.4	-85.7	356	4
2023-09-10T00:00	17177	91	-62.3	-85.8	3	4
2023-09-10T00:00	17200	91	-61.9	-85.5	12	4
2023-09-10T00:00	17219	90	-61.8	-85.4	20	4
2023-09-10T00:00	17241	90	-61.9	-85.7	29	4
2023-09-10T00:00	17265	90	-62.1	-85.6	37	3
2023-09-10T00:00	17285	89	-62.3	-85.8	45	3
2023-09-10T00:00	17306	89	-62.3	-85.8	54	2
2023-09-10T00:00	17328	89	-62.5	-86.0	65	2
2023-09-10T00:00	17351	88	-62.6	-86.0	81	1
2023-09-10T00:00	17373	88	-62.6	-86.0	112	1
2023-09-10T00:00	17396	88	-62.7	-86.3	167	0
2023-09-10T00:00	17417	87	-62.4	-86.1	204	0
2023-09-10T00:00	17437	87	-62.1	-86.1	225	0
2023-09-10T00:00	17462	87	-62.1	-86.3	342	0
2023-09-10T00:00	17483	86	-62.0	-86.3	49	0
2023-09-10T00:00	17503	86	-61.9	-86.2	62	0
2023-09-10T00:00	17525	86	-62.0	-86.5	78	0
2023-09-10T00:00	17547	86	-61.9	-86.4	187	0
2023-09-10T00:00	17568	85	-61.7	-86.3	240	1
2023-09-10T00:00	17591	85	-61.6	-86.5	251	1
2023-09-10T00:00	17614	85	-61.6	-86.5	259	2
2023-09-10T00:00	17635	84	-61.5	-86.4	265	2
2023-09-10T00:00	17659	84	-61.2	-86.4	271	3
2023-09-10T00:00	17681	84	-61.0	-86.3	276	3
2023-09-10T00:00	17702	83	-60.9	-86.2	280	3
2023-09-10T00:00	17724	83	-60.9	-86.2	282	3
2023-09-10T00:00	17745	83	-61.0	-86.3	284	3
2023-09-10T00:00	17766	83	-61.0	-86.3	285	3
2023-09-10T00:00	17788	82	-61.0	-86.3	288	3
2023-09-10T00:00	17811	82	-60.8	-86.1	291	3
2023-09-10T00:00	17828	82	-60.8	-86.1	292	3
2023-09-10T00:00	17853	81	-60.8	-86.4	291	3
2023-09-10T00:00	17874	81	-60.8	-86.4	289	4
2023-09-10T00:00	17897	81	-60.7	-86.3	286	4
2023-09-10T00:00	17921	81	-60.6	-86.3	286	5
2023-09-10T00:00	17944	80	-60.7	-86.3	287	5
2023-09-10T00:00	17964	80	-60.8	-86.4	290	5
2023-09-10T00:00	17989	80	-60.5	-86.2	295	6
2023-09-10T00:00	18010	79	-60.3	-86.3	299	6
2023-09-10T00:00	18035	79	-60.1	-86.2	304	6
2023-09-10T00:00	18055	79	-60.2	-86.3	309	6
2023-09-10T00:00	18081	79	-59.9	-86.3	314	6
2023-09-10T00:00	18103	78	-59.7	-86.2	319	6
2023-09-10T00:00	18121	78	-59.3	-86.2	323	6
2023-09-10T00:00	18145	78	-59.2	-86.2	328	6
2023-09-10T00:00	18166	77	-59.1		334	6
2023-09-10T00:00	18192	77	-58.8	-85.9	340	6
2023-09-10T00:00	18211	77	-58.8	-85.9	346	6
2023-09-10T00:00	18235	77	-58.7	-85.8	353	6
2023-09-10T00:00	18256	76	-58.9	-85.9	358	6
2023-09-10T00:00	18277	76	-59.0	-86.0	2	6
2023-09-10T00:00	18300	76	-59.0	-86.0	5	6
2023-09-10T00:00	18324	76	-58.9	-85.9	6	6
2023-09-10T00:00	18347	75	-58.7	-85.8	6	6
2023-09-10T00:00	18368	75	-58.9	-85.9	5	6
2023-09-10T00:00	18391	75	-59.0	-86.0	4	5
2023-09-10T00:00	18413	74	-59.2	-85.8	4	5
2023-09-10T00:00	18435	74	-59.3	-85.9	6	5
2023-09-10T00:00	18457	74	-59.3	-85.9	9	5
2023-09-10T00:00	18479	74	-59.1	-85.7	13	5
2023-09-10T00:00	18500	73	-59.2	-86.2	15	5
2023-09-10T00:00	18526	73	-59.3	-86.2	17	5
2023-09-10T00:00	18544	73	-59.2	-86.2	18	5
2023-09-10T00:00	18569	73	-59.1		18	5
2023-09-10T00:00	18590	72	-59.0	-86.0	17	4
2023-09-10T00:00	18616	72	-58.9	-85.9	16	4
2023-09-10T00:00	18637	72	-58.8	-85.9	15	4
2023-09-10T00:00	18656	72	-58.9	-85.9	14	4
2023-09-10T00:00	18682	71	-58.9	-85.9	15	4
2023-09-10T00:00	18705	71	-58.8	-86.2	16	4
2023-09-10T00:00	18725	71	-58.6	-86.1	19	4
2023-09-10T00:00	18751	71	-58.4	-85.9	23	4
2023-09-10T00:00	18772	70	-58.3	-85.8	28	4
2023-09-10T00:00	18797	70	-58.2	-85.8	34	4
2023-09-10T00:00	18817	70	-58.3	-85.8	39	3
2023-09-10T00:00	18839	70	-58.2	-85.8	44	3
2023-09-10T00:00	18861	69	-58.2	-85.8	49	2
2023-09-10T00:00	18883	69	-58.3	-85.8	55	2
2023-09-10T00:00	18909	69	-58.4	-85.9	65	1
2023-09-10T00:00	18930	69	-58.4	-85.9	93	1
2023-09-10T00:00	18953	68	-58.3	-85.8	168	0
2023-09-10T00:00	18975	68	-58.5	-86.0	203	1
2023-09-10T00:00	19001	68	-58.6	-86.1	218	1
2023-09-10T00:00	19023	68	-58.7	-86.1	236	1
2023-09-10T00:00	19044	67	-58.7	-86.1	277	1
2023-09-10T00:00	19068	67	-58.3	-85.8	321	1
2023-09-10T00:00	19092	67	-58.2	-85.8	333	1
2023-09-10T00:00	19116	67	-58.1		328	1
2023-09-10T00:00	19136	66	-58.1		311	1
2023-09-10T00:00	19160	66	-58.2	-86.2	292	2
2023-09-10T00:00	19181	66	-58.0	-86.0	278	2
2023-09-10T00:00	19202	66	-58.0	-86.0	271	3
2023-09-10T00:00	19225	65	-57.8	-85.9	268	3
2023-09-10T00:00	19251	65	-57.9		268	4
2023-09-10T00:00	19270	65	-57.9		271	4
2023-09-10T00:00	19293	65	-57.8	-85.9	274	4
2023-09-10T00:00	19317	64	-57.8	-85.5	279	3
2023-09-10T00:00	19340	64	-57.9	-85.5	286	3
2023-09-10T00:00	19363	64	-57.9	-85.5	292	3
2023-09-10T00:00	19388	64	-57.8	-85.5	297	3
2023-09-10T00:00	19411	64	-58.0	-85.6	300	4
2023-09-10T00:00	19435	63	-58.1	-85.7	302	4
2023-09-10T00:00	19456	63	-58.2	-85.8	305	4
2023-09-10T00:00	19481	63	-58.2	-85.8	309	4
2023-09-10T00:00	19500	63	-58.1	-85.7	316	3
2023-09-10T00:00	19525	62	-58.1	-85.7	324	3
2023-09-10T00:00	19548	62	-58.2	-85.8	331	3
2023-09-10T00:00	19572	62	-58.1	-85.7	337	3
2023-09-10T00:00	19591	62	-58.1		339	3
2023-09-10T00:00	19618	61	-58.0	-86.0	338	3
2023-09-10T00:00	19642	61	-57.8	-85.9	333	3
2023-09-10T00:00	19665	61	-57.3	-85.5	325	3
2023-09-10T00:00	19687	61	-57.5	-85.6	318	3
2023-09-10T00:00	19712	61	-57.5	-85.6	312	3
2023-09-10T00:00	19732	60	-57.5	-85.6	309	3
2023-09-10T00:00	19759	60	-57.4	-85.6	311	3
2023-09-10T00:00	19782	60	-57.3	-85.5	317	3
2023-09-10T00:00	19806	60	-57.0	-85.2	327	3
2023-09-10T00:00	19827	59	-56.9	-85.2	339	3
2023-09-10T00:00	19851	59	-56.9	-85.2	350	3
2023-09-10T00:00	19873	59	-57.1	-85.3	359	3
2023-09-10T00:00	19899	59	-57.2	-85.4	6	3
2023-09-10T00:00	19922	59	-57.3	-85.5	13	3
2023-09-10T00:00	19948	58	-57.4	-85.2	21	3
2023-09-10T00:00	19975	58	-57.5	-85.2	28	3
2023-09-10T00:00	19996	58	-57.6	-85.3	32	3
2023-09-10T00:00	20020	58	-57.7	-85.4	32	3
2023-09-10T00:00	20043	57	-57.8	-85.5	26	2
2023-09-10T00:00	20067	57	-57.7	-85.4	15	2
2023-09-10T00:00	20091	57	-57.7	-85.8	1	2
2023-09-10T00:00	20118	57	-57.6	-85.7	346	2
2023-09-10T00:00	20142	57	-57.6	-85.7	334	3
2023-09-10T00:00	20168	56	-57.5	-85.6	325	3
2023-09-10T00:00	20190	56	-57.4	-85.6	320	4
2023-09-10T00:00	20211	56	-57.2	-85.4	319	4
2023-09-10T00:00	20236	56	-57.2	-85.4	320	5
2023-09-10T00:00	20260	56	-57.2	-85.4	324	5
2023-09-10T00:00	20281	55	-57.4	-85.6	329	5
2023-09-10T00:00	20310	55	-57.4	-85.6	335	6
2023-09-10T00:00	20333	55	-57.3	-85.5	341	6
2023-09-10T00:00	20358	55	-57.2	-85.8	346	6
2023-09-10T00:00	20384	54	-57.1	-85.7	351	6
2023-09-10T00:00	20405	54	-56.8	-85.5	355	6
2023-09-10T00:00	20429	54	-56.4	-85.2	358	7
2023-09-10T00:00	20453	54	-56.4	-85.2	0	7
2023-09-10T00:00	20475	54	-56.6	-85.4	1	7
2023-09-10T00:00	20504	53	-56.7	-85.4	3	7
2023-09-10T00:00	20526	53	-56.7	-85.4	5	7
2023-09-10T00:00	20548	53	-56.7	-85.4	8	7
2023-09-10T00:00	20570	53	-56.7	-85.4	12	7
2023-09-10T00:00	20595	53	-56.6	-85.4	16	7
2023-09-10T00:00	20620	52	-56.6	-85.4	20	7
2023-09-10T00:00	20641	52	-56.7	-85.4	23	6
2023-09-10T00:00	20668	52	-56.8	-85.5	27	6
2023-09-10T00:00	20691	52	-56.8	-85.5	29	5
2023-09-10T00:00	20714	52	-57.0	-85.2	32	5
2023-09-10T00:00	20735	52	-57.1	-85.3	37	5
2023-09-10T00:00	20761	51	-57.3	-85.5	42	5
2023-09-10T00:00	20790	51	-57.3	-85.5	47	5
2023-09-10T00:00	20812	51	-57.4	-85.6	52	6
2023-09-10T00:00	20831	51	-57.5	-85.6	56	6
2023-09-10T00:00	20855	51	-57.6	-85.3	59	6
2023-09-10T00:00	20879	50	-57.7	-85.4	62	6
2023-09-10T00:00	20903	50	-57.8	-85.5	65	6
2023-09-10T00:00	20929	50	-58.0	-85.6	69	6
2023-09-10T00:00	20954	50	-58.1	-85.7	75	5
2023-09-10T00:00	20979	50	-58.3	-86.2	84	5
2023-09-10T00:00	21002	49	-58.2	-86.2	94	4
2023-09-10T00:00	21024	49	-57.9		107	3
2023-09-10T00:00	21052	49	-57.5	-85.6	120	3
2023-09-10T00:00	21079	49	-57.4	-86.0	133	3
2023-09-10T00:00	21101	49	-57.4	-86.0	144	3
2023-09-10T00:00	21122	48	-57.5	-86.1	149	3
2023-09-10T00:00	21149	48	-57.3	-85.9	150	3
2023-09-10T00:00	21173	48	-57.1	-85.7	148	3
2023-09-10T00:00	21201	48	-57.1	-85.7	145	3
2023-09-10T00:00	21224	48	-57.1	-85.7	143	3
2023-09-10T00:00	21247	48	-56.9	-85.6	142	4
2023-09-10T00:00	21268	47	-56.9	-85.6	141	4
2023-09-10T00:00	21293	47	-56.8	-85.5	140	4
2023-09-10T00:00	21319	47	-56.7	-85.4	139	4
2023-09-10T00:00	21349	47	-56.5	-85.3	137	3
2023-09-10T00:00	21370	47	-56.6	-85.4	137	3
2023-09-10T00:00	21399	46	-56.5	-85.3	138	3
2023-09-10T00:00	21420	46	-56.4	-85.2	142	2
2023-09-10T00:00	21445	46	-56.5	-85.3	150	2
2023-09-10T00:00	21470	46	-56.6	-85.4	163	2
2023-09-10T00:00	21494	46	-56.7	-85.4	179	1
2023-09-10T00:00	21516	46	-56.7	-85.4	196	1
2023-09-10T00:00	21540	45	-56.7	-85.4	209	1
2023-09-10T00:00	21562	45	-56.7	-85.4	217	1
2023-09-10T00:00	21584	45	-56.8	-85.5	224	1
2023-09-10T00:00	21615	45	-56.9	-85.6	231	1
2023-09-10T00:00	21634	45	-56.9	-85.6	239	1
2023-09-10T00:00	21661	45	-56.8	-85.5	251	1
2023-09-10T00:00	21683	44	-56.7	-85.4	265	0
2023-09-10T00:00	21708	44	-56.6	-85.4	281	0
2023-09-10T00:00	21731	44	-56.7	-85.4	85	0
2023-09-10T00:00	21758	44	-56.8	-85.5	104	1
2023-09-10T00:00	21782	44	-57.0	-85.7	108	1
2023-09-10T00:00	21803	44	-57.1	-85.7	111	2
2023-09-10T00:00	21826	43	-57.2	-85.8	114	2
2023-09-10T00:00	21858	43	-57.1	-85.7	116	3
2023-09-10T00:00	21878	43	-57.1	-85.7	119	3
2023-09-10T00:00	21903	43	-57.0	-85.7	122	3
2023-09-10T00:00	21926	43	-57.1	-85.3	124	3
2023-09-10T00:00	21948	43	-57.2	-85.4	126	3
2023-09-10T00:00	21974	42	-57.3	-85.5	127	4
2023-09-10T00:00	22001	42	-57.4	-85.6	130	4
2023-09-10T00:00	22021	42	-57.6	-85.7	133	4
2023-09-10T00:00	22048	42	-57.8	-85.9	138	3
2023-09-10T00:00	22076	42	-57.9		144	3
2023-09-10T00:00	22099	42	-58.0	-85.6	151	3
2023-09-10T00:00	22126	41	-58.2	-85.8	158	3
2023-09-10T00:00	22153	41	-58.4	-85.9	163	3
2023-09-10T00:00	22176	41	-58.5	-86.0	165	2
2023-09-10T00:00	22199	41	-58.6	-86.1	164	2
2023-09-10T00:00	22228	41	-58.7	-86.1	160	2
2023-09-10T00:00	22251	41	-58.8	-86.2	154	2
2023-09-10T00:00	22279	40	-58.8	-86.2	148	2
2023-09-10T00:00	22305	40	-58.8	-86.2	143	2
2023-09-10T00:00	22331	40	-58.9	-86.3	140	2
2023-09-10T00:00	22358	40	-58.9	-86.3	140	2
2023-09-10T00:00	22384	40	-59.0	-86.4	142	2
2023-09-10T00:00	22408	40	-59.1	-86.5	147	2
2023-09-10T00:00	22434	39	-59.1	-86.5	154	1
2023-09-10T00:00	22453	39	-59.0	-86.4	162	1
2023-09-10T00:00	22481	39	-59.0	-86.4	174	1
2023-09-10T00:00	22508	39	-58.9	-86.3	205	0
2023-09-10T00:00	22532	39	-58.9	-86.3	322	0
2023-09-10T00:00	22557	39	-59.0	-86.4	349	1
2023-09-10T00:00	22586	38	-59.1	-86.5	3	1
2023-09-10T00:00	22610	38	-59.0	-86.8	16	1
2023-09-10T00:00	22633	38	-58.6	-86.5	29	1
2023-09-10T00:00	22661	38	-58.5	-86.4	42	1
2023-09-10T00:00	22682	38	-58.6	-86.5	55	1
2023-09-10T00:00	22711	38	-58.7	-86.5	68	1
2023-09-10T00:00	22737	38	-58.7	-86.5	80	2
2023-09-10T00:00	22758	37	-58.8	-86.6	89	2
2023-09-10T00:00	22785	37	-58.9	-86.7	95	2
2023-09-10T00:00	22810	37	-58.7	-86.5	98	2
2023-09-10T00:00	22839	37	-58.8	-86.6	98	3
2023-09-10T00:00	22862	37	-58.9	-86.7	93	3
2023-09-10T00:00	22889	37	-58.7	-86.5	86	3
2023-09-10T00:00	22907	37	-58.3	-86.7	78	3
2023-09-10T00:00	22930	36	-57.7	-86.2	73	4
2023-09-10T00:00	22958	36	-57.6	-86.1	71	5
2023-09-10T00:00	22982	36	-57.5	-86.1	71	5
2023-09-10T00:00	23009	36	-57.5	-86.1	71	5
2023-09-10T00:00	23036	36	-57.3	-85.9	71	5
2023-09-10T00:00	23056	36	-57.2	-85.8	71	5
2023-09-10T00:00	23080	36	-57.2	-85.8	70	5
2023-09-10T00:00	23104	35	-57.4	-86.0	69	5
2023-09-10T00:00	23126	35	-57.4	-86.0	69	5
2023-09-10T00:00	23156	35	-57.4	-86.0	69	4
2023-09-10T00:00	23181	35	-57.5	-85.6	71	4
2023-09-10T00:00	23203	35	-57.7	-85.8	75	4
2023-09-10T00:00	23228	35	-57.6	-85.7	79	4
2023-09-10T00:00	23253	35	-57.7	-85.8	84	4
2023-09-10T00:00	23273	34	-57.9		89	4
2023-09-10T00:00	23302	34	-57.9		94	4
2023-09-10T00:00	23325	34	-57.8	-86.3	101	3
2023-09-10T00:00	23351	34	-57.7	-86.2	108	3
2023-09-10T00:00	23372	34	-57.6	-86.1	116	3
2023-09-10T00:00	23394	34	-57.7	-86.2	124	3
2023-09-10T00:00	23424	34	-57.9		133	3
2023-09-10T00:00	23448	34	-58.0	-86.0	141	3
2023-09-10T00:00	23469	33	-57.9		148	3
2023-09-10T00:00	23494	33	-58.0	-86.0	155	3
2023-09-10T00:00	23516	33	-58.0	-86.4	160	3
2023-09-10T00:00	23542	33	-57.8	-86.3	166	3
2023-09-10T00:00	23566	33	-57.6	-86.1	174	3
2023-09-10T00:00	23593	33	-57.6	-86.1	184	3
2023-09-10T00:00	23608	33	-57.7	-86.2	196	2
2023-09-10T00:00	23635	33	-57.7	-86.2	209	2
2023-09-10T00:00	23663	32	-57.6	-86.1	224	2
2023-09-10T00:00	23689	32	-57.6	-86.1	244	2
2023-09-10T00:00	23708	32	-57.6	-86.1	269	2
2023-09-10T00:00	23735	32	-57.5	-86.1	292	2
2023-09-10T00:00	23760	32	-57.5	-86.1	307	3
2023-09-10T00:00	23791	32	-57.5	-86.1	317	4
2023-09-10T00:00	23815	32	-57.3	-85.9	322	4
2023-09-10T00:00	23837	32	-57.3	-85.9	325	5
2023-09-10T00:00	23868	31	-57.3	-86.4	328	5
2023-09-10T00:00	23892	31	-57.1	-86.2	329	6
2023-09-10T00:00	23919	31	-57.2	-86.3	331	6
2023-09-10T00:00	23944	31	-57.1	-86.2	333	5
2023-09-10T00:00	23968	31	-56.9	-86.1	334	5
2023-09-10T00:00	23998	31	-56.6	-85.8	335	5
2023-09-10T00:00	24019	31	-56.5	-85.8	334	5
2023-09-10T00:00	24048	31	-56.3	-85.6	331	4
2023-09-10T00:00	24070	30	-56.2	-85.5	325	4
2023-09-10T00:00	24098	30	-56.2	-85.5	319	4
2023-09-10T00:00	24118	30	-56.1	-85.5	315	4
2023-09-10T00:00	24150	30	-56.2	-85.5	315	4
2023-09-10T00:00	24177	30	-56.3	-85.6	319	4
2023-09-10T00:00	24198	30	-56.4	-85.7	326	4
2023-09-10T00:00	24226	30	-56.4	-85.7	335	5
2023-09-10T00:00	24251	30	-56.6	-85.8	342	5
2023-09-10T00:00	24276	29	-56.4	-85.7	348	5
2023-09-10T00:00	24304	29	-56.4	-85.7	352	6
2023-09-10T00:00	24326	29	-56.4	-85.7	355	6
2023-09-10T00:00	24357	29	-56.5	-85.8	358	6
2023-09-10T00:00	24378	29	-56.5	-85.8	2	6
2023-09-10T00:00	24405	29	-56.5	-85.8	8	6
2023-09-10T00:00	24440	29	-56.2	-85.5	15	5
2023-09-10T00:00	24458	29	-56.3	-85.6	23	5
2023-09-10T00:00	24489	28	-56.2	-85.5	30	5
2023-09-10T00:00	24510	28	-56.2	-85.5	36	5
2023-09-10T00:00	24540	28	-56.2	-85.5	39	5
2023-09-10T00:00	24562	28	-56.2	-85.5	41	4
2023-09-10T00:00	24586	28	-56.1	-85.5	41	4
2023-09-10T00:00	24615	28	-56.0		41	4
2023-09-10T00:00	24644	28	-56.0		41	3
2023-09-10T00:00	24672	28	-56.2	-85.5	39	3
2023-09-10T00:00	24696	28	-56.3	-85.6	36	2
2023-09-10T00:00	24715	27	-56.2	-85.5	29	2
2023-09-10T00:00	24745	27	-56.2	-85.5	17	2
2023-09-10T00:00	24767	27	-56.2	-85.5	3	2
2023-09-10T00:00	24789	27	-56.1	-85.5	353	2
2023-09-10T00:00	24819	27	-56.0		350	2
2023-09-10T00:00	24838	27	-55.8	-85.2	353	2
2023-09-10T00:00	24867	27	-55.8	-85.2	360	2
2023-09-10T00:00	24892	27	-55.9	-85.3	11	2
2023-09-10T00:00	24922	27	-55.8	-85.2	24	2
2023-09-10T00:00	24944	26	-55.8	-85.2	38	2
2023-09-10T00:00	24970	26	-55.7	-85.2	48	2
2023-09-10T00:00	25000	26	-55.9	-85.3	53	2
2023-09-10T00:00	25023	26	-56.0		56	3
2023-09-10T00:00	25051	26	-55.8	-85.7	59	3
2023-09-10T00:00	25072	26	-55.8	-85.7	62	3
2023-09-10T00:00	25100	26	-55.6	-85.6	68	2
2023-09-10T00:00	25127	26	-55.1	-85.2	77	2
2023-09-10T00:00	25144	26	-54.9	-85.1	92	1
2023-09-10T00:00	25174	26	-54.9	-85.1	114	1
2023-09-10T00:00	25208	25	-55.0	-85.1	137	1
2023-09-10T00:00	25232	25	-54.9	-85.1	154	1
2023-09-10T00:00	25255	25	-54.9	-85.1	164	1
2023-09-10T00:00	25280	25	-54.4	-84.7	171	0
2023-09-10T00:00	25312	25	-54.3	-84.6	233	0
2023-09-10T00:00	25341	25	-54.4	-84.7	329	1
2023-09-10T00:00	25364	25	-54.5	-84.8	333	1
2023-09-10T00:00	25386	25	-54.5	-84.8	334	2
2023-09-10T00:00	25420	25	-54.5	-84.8	337	2
2023-09-10T00:00	25444	25	-54.5	-84.8	342	3
2023-09-10T00:00	25467	24	-54.5	-84.8	350	3
2023-09-10T00:00	25491	24	-54.3	-85.2	359	4
2023-09-10T00:00	25524	24	-53.9	-84.9	9	4
2023-09-10T00:00	25550	24	-53.9	-84.9	19	4
2023-09-10T00:00	25575	24	-53.9	-84.9	27	4
2023-09-10T00:00	25601	24	-54.0	-84.4	34	4
2023-09-10T00:00	25637	24	-54.2	-84.5	39	5
2023-09-10T00:00	25652	24	-54.3	-84.6	42	5
2023-09-10T00:00	25680	24	-54.3	-84.6	45	5
2023-09-10T00:00	25706	24	-54.3	-84.6	47	5
2023-09-10T00:00	25734	23	-54.2	-84.5	49	5
2023-09-10T00:00	25765	23	-54.2	-84.5	53	4
2023-09-10T00:00	25792	23	-54.2	-84.5	57	4
2023-09-10T00:00	25818	23	-54.2	-84.5	61	4
2023-09-10T00:00	25835	23	-54.1	-84.5	66	4
2023-09-10T00:00	25868	23	-54.1	-84.5	72	4
2023-09-10T00:00	25894	23	-54.0	-84.4	78	5
2023-09-10T00:00	25917	23	-54.0	-84.9	85	5
2023-09-10T00:00	25937	23	-54.0	-84.9	94	5
2023-09-10T00:00	25967	23	-53.9	-84.9	102	5
2023-09-10T00:00	25991	22	-53.8	-84.8	111	5
2023-09-10T00:00	26015	22	-53.7	-84.7	119	5
2023-09-10T00:00	26048	22	-53.7	-84.7	126	6
2023-09-10T00:00	26062	22	-53.8	-84.8	134	6
2023-09-10T00:00	26100	22	-53.7	-84.7	141	6
2023-09-10T00:00	26126	22	-53.6	-84.6	149	6
2023-09-10T00:00	26144	22	-53.5	-84.6	158	5
2023-09-10T00:00	26170	22	-53.4	-84.5	166	5
2023-09-10T00:00	26206	22	-53.4	-84.5	176	4
2023-09-10T00:00	26233	22	-53.3	-84.4	189	4
2023-09-10T00:00	26251	22	-53.2	-84.4	205	3
2023-09-10T00:00	26277	22	-53.2	-84.4	226	3
2023-09-10T00:00	26304	21	-53.3	-84.4	246	3
2023-09-10T00:00	26336	21	-53.4	-84.5	260	4
2023-09-10T00:00	26356	21	-53.5	-84.6	268	5
2023-09-10T00:00	26374	21	-53.4	-84.5	271	5
2023-09-10T00:00	26408	21	-52.8	-84.1	271	5
2023-09-10T00:00	26435	21	-52.5	-83.8	271	5
2023-09-10T00:00	26461	21	-52.4	-83.8	270	5
2023-09-10T00:00	26482	21	-52.3	-83.7	271	5
2023-09-10T00:00	26512	21	-52.4	-83.8	272	5
2023-09-10T00:00	26541	21	-52.5	-83.8	275	5
2023-09-10T00:00	26569	21	-52.6	-83.9	276	4
2023-09-10T00:00	26588	21	-52.7	-84.0	275	4
2023-09-10T00:00	26614	20	-52.6	-83.9	273	4
2023-09-10T00:00	26643	20	-52.6	-83.9	270	4
2023-09-10T00:00	26669	20	-52.6	-83.9	267	4
2023-09-10T00:00	26698	20	-52.6	-83.9	267	4
2023-09-10T00:00	26728	20	-52.7	-84.0	269	4
2023-09-10T00:00	26751	20	-52.7	-84.0	274	4
2023-09-10T00:00	26783	20	-52.6	-83.9	279	5
2023-09-10T00:00	26808	20	-52.4	-83.8	284	5
2023-09-10T00:00	26837	20	-52.3	-83.7	289	6
2023-09-10T00:00	26872	20	-52.3	-83.7	294	6
2023-09-10T00:00	26895	20	-52.4	-83.8	299	7
2023-09-10T00:00	26917	19	-52.3	-83.7	303	7
2023-09-10T00:00	26939	19	-52.3	-84.3	306	8
2023-09-10T00:00	26977	19	-52.2	-84.2	308	8
2023-09-10T00:00	26997	19	-52.0	-84.1	309	8
2023-09-10T00:00	27025	19	-52.1	-84.2	310	7
2023-09-10T00:00	27054	19	-51.9	-84.0	310	7
2023-09-10T00:00	27074	19	-51.8	-83.9	312	7
2023-09-10T00:00	27103	19	-51.6	-83.8	317	7
2023-09-10T00:00	27137	19	-51.4	-83.6	324	6
2023-09-10T00:00	27158	19	-51.2	-83.5	332	7
2023-09-10T00:00	27196	19	-51.1	-83.4	341	7
2023-09-10T00:00	27222	19	-51.2	-83.5	349	7
2023-09-10T00:00	27250	19	-51.2	-83.5	357	8
2023-09-10T00:00	27289	18	-51.2	-83.5	3	8
2023-09-10T00:00	27306	18	-51.2	-83.5	9	8
2023-09-10T00:00	27337	18	-51.2	-83.5	14	8
2023-09-10T00:00	27355	18	-51.1	-83.4	18	7
2023-09-10T00:00	27395	18	-50.8	-83.2	22	7
2023-09-10T00:00	27429	18	-50.6	-83.1	25	6
2023-09-10T00:00	27440	18	-50.6	-83.1	27	6
2023-09-10T00:00	27478	18	-50.4	-83.6	27	6
2023-09-10T00:00	27503	18	-50.2	-83.5	26	5
2023-09-10T00:00	27523	18	-50.0	-83.3	25	5
2023-09-10T00:00	27557	18	-50.0	-83.3	24	5
2023-09-10T00:00	27585	18	-50.0	-83.3	24	4
2023-09-10T00:00	27611	18	-49.9	-82.5	26	4
2023-09-10T00:00	27645	17	-49.9	-82.5	29	3
2023-09-10T00:00	27672	17	-50.0	-82.6	33	2
2023-09-10T00:00	27698	17	-49.9	-82.5	39	1
2023-09-10T00:00	27732	17	-49.8	-82.5	59	1
2023-09-10T00:00	27751	17	-49.8	-82.5	190	1
2023-09-10T00:00	27780	17	-49.9	-82.5	207	2
2023-09-10T00:00	27813	17	-50.0	-82.6	212	2
2023-09-10T00:00	27837	17	-50.0	-83.3	216	3
2023-09-10T00:00	27865	17	-49.8	-83.2	221	4
2023-09-10T00:00	27884	17	-49.6	-83.0	227	4
2023-09-10T00:00	27921	17	-49.4	-82.9	235	4
2023-09-10T00:00	27929	17	-49.3	-82.8	245	5
2023-09-10T00:00	27975	17	-49.1	-82.7	256	5
2023-09-10T00:00	27999	17	-49.1	-82.7	268	5
2023-09-10T00:00	28016	16	-48.8	-82.4	280	5
2023-09-10T00:00	28046	16	-48.7	-82.4	290	6
2023-09-10T00:00	28078	16	-48.6	-82.3	298	6
2023-09-10T00:00	28111	16	-48.6	-82.3	304	6
2023-09-10T00:00	28132	16	-48.4	-82.2	309	7
2023-09-10T00:00	28168	16	-48.3	-82.1	313	6
2023-09-10T00:00	28184	16	-48.0	-81.9	317	6
2023-09-10T00:00	28205	16	-48.0	-81.9	321	6
2023-09-10T00:00	28242	16	-48.0	-81.9	326	5
2023-09-10T00:00	28272	16	-48.1	-81.9	333	5
2023-09-10T00:00	28296	16	-48.1	-81.9	342	4
2023-09-10T00:00	28323	16	-48.1	-81.9	354	3
2023-09-10T00:00	28343	16	-48.1	-81.9	10	3
2023-09-10T00:00	28380	16	-48.1	-81.9	25	3
2023-09-10T00:00	28408	16	-48.0	-81.9	36	3
2023-09-10T00:00	28443	15	-47.9	-81.8	41	3
2023-09-10T00:00	28457	15	-47.9	-81.8	41	3
2023-09-10T00:00	28480	15	-47.9	-81.8	36	3
2023-09-10T00:00	28522	15	-47.8	-81.7	29	3
2023-09-10T00:00	28546	15	-47.6	-81.6	23	3
2023-09-10T00:00	28573	15	-47.6	-81.6	18	3
2023-09-10T00:00	28596	15	-47.8	-81.7	14	3
2023-09-10T00:00	28626	15	-47.9	-81.8	10	3
2023-09-10T00:00	28646	15	-48.0	-81.9	8	2
2023-09-10T00:00	28682	15	-47.9	-81.8	8	2
2023-09-10T00:00	28702	15	-47.8	-81.7	11	2
2023-09-10T00:00	28732	15	-47.7	-81.6	18	2
2023-09-10T00:00	28753	15	-47.7	-82.4	30	1
2023-09-10T00:00	28790	15	-47.3	-82.2	45	1
2023-09-10T00:00	28815	15	-47.3	-82.2	69	1
2023-09-10T00:00	28843	15	-47.4	-82.2	101	1
2023-09-10T00:00	28867	14	-47.5	-82.3	134	1
2023-09-10T00:00	28896	14	-47.7	-81.6	158	1
2023-09-10T00:00	28915	14	-47.7	-81.6	173	1
2023-09-10T00:00	28962	14	-47.5	-81.5	184	1
2023-09-10T00:00	28982	14	-47.4	-82.2	191	2
2023-09-10T00:00	29008	14	-47.5	-82.3	196	2
2023-09-10T00:00	29041	14	-47.4	-82.2	199	2
2023-09-10T00:00	29061	14	-47.4	-82.2	196	1
2023-09-10T00:00	29102	14	-47.0	-81.9	187	1
2023-09-10T00:00	29116	14	-46.9	-81.9	176	2
2023-09-10T00:00	29142	14	-46.9	-81.9	169	2
2023-09-10T00:00	29175	14	-46.8	-81.8	168	2
2023-09-10T00:00	29198	14	-46.6	-81.7	170	2
2023-09-10T00:00	29229	14	-46.5	-81.6	176	3
2023-09-10T00:00	29266	14	-46.4	-81.5	187	3
2023-09-10T00:00	29290	14	-46.4	-81.5	199	3
2023-09-10T00:00	29317	14	-46.5	-81.6	212	4
2023-09-10T00:00	29330	13	-46.4	-81.5	222	4
2023-09-10T00:00	29374	13	-46.4	-81.5	230	5
2023-09-10T00:00	29397	13	-46.3	-81.4	235	6
2023-09-10T00:00	29423	13	-46.2	-81.4	238	7
2023-09-10T00:00	29450	13	-46.4	-81.5	240	8
2023-09-10T00:00	29482	13	-46.3	-81.4	241	9
2023-09-10T00:00	29510	13	-46.1	-81.3	242	10
2023-09-10T00:00	29532	13	-45.9	-81.2	243	11
2023-09-10T00:00	29556	13	-45.6	-80.9	244	11
2023-09-10T00:00	29582	13	-45.5	-80.9	245	12
2023-09-10T00:00	29625	13	-45.6	-80.9	247	12
2023-09-10T00:00	29637	13	-45.8	-81.1	250	12
2023-09-10T00:00	29670	13	-45.8	-81.1	254	12
2023-09-10T00:00	29696	13	-45.7	-81.0	258	11
2023-09-10T00:00	29714	13	-45.7	-81.0	262	11
2023-09-10T00:00	29728	13	-45.6	-80.9	265	11
2023-09-10T00:00	29768	13	-45.6	-80.9	267	10
2023-09-10T00:00	29801	13	-45.6	-80.9	269	10
2023-09-10T00:00	29831	13	-45.7	-81.0	272	10
2023-09-10T00:00	29852	12	-45.9	-81.2	274	9
2023-09-10T00:00	29875	12	-46.0	-81.2	277	9
2023-09-10T00:00	29897	12	-46.1	-81.3	279	9
2023-09-10T00:00	29930	12	-46.2	-81.4	280	8
2023-09-10T00:00	29966	12	-46.3	-81.4	280	8
2023-09-10T00:00	29994	12	-46.4	-81.5	278	7
2023-09-10T00:00	30012	12	-46.4	-81.5	275	7
2023-09-10T00:00	30055	12	-46.5	-81.6	271	6
2023-09-10T00:00	30073	12	-46.6	-81.7	266	6
2023-09-10T00:00	30082	12	-46.6	-81.7	259	5
2023-09-10T00:00	30135	12	-46.3	-81.4	251	5
2023-09-10T00:00	30157	12	-46.2	-81.4	241	5
2023-09-10T00:00	30187	12	-46.1	-81.3	231	5
2023-09-10T00:00	30214	12	-46.2	-81.4	222	5
2023-09-10T00:00	30229	12	-46.3	-81.4	216	6
2023-09-10T00:00	30258	12	-46.3	-81.4	211	6
2023-09-10T00:00	30280	12	-46.3	-81.4	210	7
2023-09-10T00:00	30315	12	-46.2	-81.4	211	7
2023-09-10T00:00	30338	12	-46.2	-81.4	214	7
2023-09-10T00:00	30364	12	-46.1	-81.3	220	7
2023-09-10T00:00	30391	12	-46.1	-81.3	226	8
2023-09-10T00:00	30421	11	-46.2	-81.4	233	8
2023-09-10T00:00	30446	11	-46.3	-81.4	238	8
2023-09-10T00:00	30469	11	-46.3	-81.4	242	8
2023-09-10T00:00	30494	11	-46.2	-81.4	246	7
2023-09-10T00:00	30532	11	-46.0	-81.2	248	7
2023-09-10T00:00	30550	11	-45.9	-82.1	249	7
2023-09-10T00:00	30584	11	-45.7	-81.9	250	7
2023-09-10T00:00	30603	11	-45.4	-81.7	251	7
2023-09-10T00:00	30638	11	-45.2	-81.6	252	7
2023-09-10T00:00	30670	11	-45.0	-81.4	253	7
2023-09-10T00:00	30697	11	-44.8	-81.3	252	7
2023-09-10T00:00	30707	11	-44.6	-81.2	250	7
2023-09-10T00:00	30733	11	-44.3	-80.9	246	7
2023-09-10T00:00	30772	11	-44.2	-80.9	242	6
2023-09-10T00:00	30799	11	-44.1	-80.8	239	6
2023-09-10T00:00	30812	11	-43.8	-80.6	238	7
2023-09-10T00:00	30857	11	-43.3	-81.3	239	6
2023-09-10T00:00	30880	11	-43.2	-81.3	240	6
2023-09-10T00:00	30894	11	-43.3	-80.2	240	6
2023-09-10T00:00	30942	11	-43.3	-80.2	239	5
2023-09-10T00:00	30958	11	-43.3	-80.2	237	5
2023-09-10T00:00	30978	11	-43.4	-80.3	235	5
2023-09-10T00:00	31014	10	-43.4	-80.3	233	5
2023-09-10T00:00	31037	10	-43.5	-80.4	231	4
2023-09-10T00:00	31065	10	-43.6	-80.4	229	4
2023-09-10T00:00	31103	10	-43.6	-80.4	225	4
2023-09-10T00:00	31119	10	-43.6	-80.4	222	4
2023-09-10T00:00	31166	10	-43.7	-80.5	218	4
2023-09-10T00:00	31207	10	-43.7	-80.5	216	4
2023-09-10T00:00	31225	10	-43.5	-80.4	219	4
2023-09-10T00:00	31258	10	-43.3	-81.3	224	5
2023-09-10T00:00	31285	10	-43.0	-81.1	229	5
2023-09-10T00:00	31303	10	-42.7	-80.9	233	6
2023-09-10T00:00	31335	10	-42.7	-80.9	237	7
2023-09-10T00:00	31350	10	-42.9	-81.1	240	7
2023-09-10T00:00	31390	10	-43.0	-81.1	242	8
2023-09-10T00:00	31418	10	-42.9	-80.0	243	8
2023-09-10T00:00	31441	10	-43.0	-80.0	244	8
2023-09-10T00:00	31475	10	-43.1	-80.1	243	8
2023-09-10T00:00	31500	10	-43.1	-80.1	242	8
2023-09-10T00:00	31521	10	-43.1	-80.1	241	8
2023-09-10T00:00	31546	10	-43.1	-80.1	239	9
2023-09-10T00:00	31574	10	-43.1	-80.1	237	9
2023-09-10T00:00	31604	10	-43.0	-80.0	236	10
2023-09-10T00:00	31642	10	-43.0	-80.0	234	10
2023-09-10T00:00	31667	10	-43.1	-80.1	233	11
2023-09-10T00:00	31682	10	-43.1	-80.1	233	12
2023-09-10T00:00	31708	9	-43.1	-81.2	234	12
2023-09-10T00:00	31754	9	-43.2	-81.3	237	13
2023-09-10T00:00	31778	9	-43.1	-81.2	240	13
2023-09-10T00:00	31794	9	-43.0	-81.1	243	13
2023-09-10T00:00	31817	9	-42.8	-81.0	247	13
2023-09-10T00:00	31836	9	-42.7	-80.9	250	14
2023-09-10T00:00	31877	9	-42.8	-81.0	252	14
2023-09-10T00:00	31893	9	-42.8	-81.0	254	14
2023-09-10T00:00	31925	9	-42.9	-81.1	256	14
2023-09-10T00:00	31952	9	-42.9	-81.1	257	14
2023-09-10T00:00	31968	9	-42.9	-81.1	258	14
2023-09-10T00:00	32002	9	-42.9	-80.0	259	14
2023-09-10T00:00	32026	9	-43.0	-80.0	259	13
2023-09-10T00:00	32045	9	-43.1	-80.1	261	12
2023-09-10T00:00	32090	9	-43.3	-80.2	262	12
2023-09-10T00:00	32093	9	-43.4	-80.3	263	11
2023-09-10T00:00	32111	9	-43.5	-80.4	263	11
2023-09-10T00:00	32161	9	-43.5	-80.4	263	10
2023-09-10T00:00	32220	9	-43.7	-80.5	262	9
2023-09-10T00:00	32247	9	-43.9	-80.7	259	9
2023-09-10T00:00	32275	9	-44.0	-80.7	257	8
2023-09-10T00:00	32296	9	-43.8	-80.6	255	8
2023-09-10T00:00	32323	9	-43.7	-80.5	253	8
2023-09-10T00:00	32352	9	-43.8	-80.6	250	8
2023-09-10T00:00	32360	9	-44.0	-80.7	248	7
2023-09-10T00:00	32404	9	-44.2	-80.9	246	7
2023-09-10T00:00	32430	9	-44.4	-81.0	243	7
2023-09-10T00:00	32470	8	-44.5	-81.1	240	7
2023-09-10T00:00	32503	8	-44.7	-81.2	236	7
2023-09-10T00:00	32510	8	-44.8	-81.3	233	7
2023-09-10T00:00	32540	8	-44.8	-81.3	231	7
2023-09-10T00:00	32573	8	-44.6	-81.2	229	8
2023-09-10T00:00	32590	8	-44.4	-81.0	228	8
2023-09-10T00:00	32601	8	-44.3	-80.9	227	9
2023-09-10T00:00	32646	8	-44.0	-81.8	225	10
2023-09-10T00:00	32671	8	-43.7	-81.6	224	10
2023-09-10T00:00	32694	8	-43.6	-81.5	224	10
2023-09-10T00:00	32724	8	-43.5	-81.5	225	11
2023-09-10T00:00	32755	8	-43.5	-81.5	227	10
2023-09-10T00:00	32772	8	-43.4	-81.4	231	10
2023-09-10T00:00	32779	8	-43.2	-81.3	235	10
2023-09-10T00:00	32823	8	-43.1	-81.2	240	11
2023-09-10T00:00	32838	8	-42.8	-81.0	244	11
2023-09-10T00:00	32861	8	-42.2	-80.6	248	12
2023-09-10T00:00	32876	8	-41.9	-80.4	251	12
2023-09-10T00:00	32907	8	-41.9	-80.4	254	13
2023-09-10T00:00	32949	8	-41.8	-80.3	257	13
2023-09-10T00:00	33001	8	-41.4	-80.0	261	13
2023-09-10T00:00	33031	8	-40.4	-79.3	267	14
2023-09-10T00:00	33047	8	-40.0	-79.0	270	14
2023-09-10T00:00	33073	8	-39.8	-78.9	271	13
2023-09-10T00:00	33090	8	-39.3	-78.5	272	13
2023-09-10T00:00	33123	8	-39.1	-78.4	271	12
2023-09-10T00:00	33155	8	-38.8	-78.2	269	11
2023-09-10T00:00	33173	8	-38.7	-78.1	266	10
2023-09-10T00:00	33186	8	-38.6	-78.1	261	9
2023-09-10T00:00	33210	8	-38.5	-78.0	255	8
2023-09-10T00:00	33247	8	-38.4	-77.9	250	8
2023-09-10T00:00	33265	8	-38.5	-78.0	247	8
2023-09-10T00:00	33294	7	-38.5	-78.0	248	8
2023-09-10T00:00	33314	7	-38.5	-78.0	250	8
2023-09-10T00:00	33352	7	-38.1	-77.7	254	8
2023-09-10T00:00	33368	7	-38.0	-77.6	258	8
2023-09-10T00:00	33398	7	-38.0	-77.6	261	8
2023-09-10T00:00	33421	7	-38.1	-77.7	263	9
2023-09-10T00:00	33453	7	-38.1	-77.7	264	9
2023-09-10T00:00	33467	7	-38.0	-77.6	265	10
2023-09-10T06:00	-999					
2023-09-10T06:00	132	1002	17.5	13.3	249	1
2023-09-10T06:00	155	999	19.1	12.1	264	1
2023-09-10T06:00	181	996	20.8	11.8	287	1
2023-09-10T06:00	210	993	22.3	11.4	298	2
2023-09-10T06:00	236	990	23.1	11.3	302	2
2023-09-10T06:00	260	987	23.3	11.0	304	2
2023-09-10T06:00	288	984	23.2	11.2	307	2
2023-09-10T06:00	315	981	23.4	11.0	315	1
2023-09-10T06:00	339	978	23.3	11.4	329	1
2023-09-10T06:00	364	975	23.4	10.8	343	1
2023-09-10T06:00	390	973	23.4	10.5	349	1
2023-09-10T06:00	415	970	23.6	10.0	347	1
2023-09-10T06:00	445	967	23.7	9.5	335	1
2023-09-10T06:00	471	964	23.5	9.5	314	1
2023-09-10T06:00	498	961	23.3	9.1	291	1
2023-09-10T06:00	523	958	23.2	8.9	272	1
2023-09-10T06:00	550	955	23.1	8.5	260	1
2023-09-10T06:00	573	952	22.9	8.3	251	1
2023-09-10T06:00	601	949	22.7	8.3	246	1
2023-09-10T06:00	628	946	22.4	8.4	243	2
2023-09-10T06:00	654	943	22.2	8.7	242	2
2023-09-10T06:00	681	941	22.0	8.6	242	2
2023-09-10T06:00	708	938	21.8	8.4	242	2
2023-09-10T06:00	733	935	21.5	8.4	242	2
2023-09-10T06:00	762	932	21.3	8.5	243	2
2023-09-10T06:00	788	929	21.0	8.5	244	2
2023-09-10T06:00	814	926	20.7	8.6	245	2
2023-09-10T06:00	842	923	20.5	8.8	246	3
2023-09-10T06:00	870	920	20.2	8.7	247	3
2023-09-10T06:00	897	917	20.0	8.6	248	3
2023-09-10T06:00	926	914	19.7	8.6	249	3
2023-09-10T06:00	955	911	19.4	8.6	249	3
2023-09-10T06:00	983	908	19.2	8.5	250	3
2023-09-10T06:00	1012	905	19.0	8.4	251	3
2023-09-10T06:00	1040	902	18.7	8.3	253	3
2023-09-10T06:00	1070	899	18.4	8.2	255	3
2023-09-10T06:00	1099	896	18.2	8.1	257	3
2023-09-10T06:00	1127	893	17.9	7.8	260	3
2023-09-10T06:00	1158	890	17.7	7.8	262	3
2023-09-10T06:00	1184	887	17.4	7.5	263	3
2023-09-10T06:00	1214	884	17.2	7.4	262	3
2023-09-10T06:00	1242	881	16.9	6.6	261	3
2023-09-10T06:00	1271	878	16.7	6.3	259	3
2023-09-10T06:00	1298	875	16.5	6.0	258	3
2023-09-10T06:00	1328	872	16.2	6.0	258	3
2023-09-10T06:00	1359	869	15.9	5.9	259	3
2023-09-10T06:00	1388	866	15.6	5.8	262	3
2023-09-10T06:00	1418	863	15.4	5.0	263	3
2023-09-10T06:00	1447	860	15.4	3.0	263	3
2023-09-10T06:00	1477	857	15.4		261	3
2023-09-10T06:00	1508	854	15.2	1.5	258	3
2023-09-10T06:00	1537	851	14.9	0.5	256	3
2023-09-10T06:00	1565	848	15.5	-4.2	252	4
2023-09-10T06:00	1594	845	15.4	-2.7	248	4
2023-09-10T06:00	1626	842	15.5	-4.4	242	4
2023-09-10T06:00	1655	839	15.7	-6.9	234	4
2023-09-10T06:00	1687	836	15.8	-10.1	227	4
2023-09-10T06:00	1718	833	15.7	-9.9	223	5
2023-09-10T06:00	1747	830	15.6	-9.4	222	5
2023-09-10T06:00	1779	827	15.5	-9.1	223	6
2023-09-10T06:00	1807	824	15.9	-11.3	224	6
2023-09-10T06:00	1837	822	16.2	-12.8	226	6
2023-09-10T06:00	1865	819	16.3	-14.7	226	6
2023-09-10T06:00	1896	816	16.5	-17.0	227	6
2023-09-10T06:00	1923	813	16.6	-20.3	227	6
2023-09-10T06:00	1952	810	16.7	-19.7	228	5
2023-09-10T06:00	1982	808	16.7	-16.6	229	5
2023-09-10T06:00	2010	805	16.6	-16.7	230	5
2023-09-10T06:00	2039	802	16.6	-17.4	230	4
2023-09-10T06:00	2068	799	16.5	-17.5	230	4
2023-09-10T06:00	2095	797	16.4	-17.7	227	4
2023-09-10T06:00	2123	794	16.3	-17.6	223	4
2023-09-10T06:00	2151	792	16.3	-18.2	218	4
2023-09-10T06:00	2180	789	16.2	-18.1	214	4
2023-09-10T06:00	2210	786	16.0	-18.0	210	4
2023-09-10T06:00	2236	784	15.9	-17.9	207	4
2023-09-10T06:00	2267	781	15.7	-18.0	205	5
2023-09-10T06:00	2296	778	15.5	-18.1	203	5
2023-09-10T06:00	2325	776	15.4	-18.4	202	5
2023-09-10T06:00	2355	773	15.1	-18.3	200	5
2023-09-10T06:00	2386	770	14.9	-18.1	199	5
2023-09-10T06:00	2414	767	14.6	-18.3	198	5
2023-09-10T06:00	2444	765	14.4	-18.4	198	5
2023-09-10T06:00	2474	762	14.2	-18.7	197	5
2023-09-10T06:00	2503	759	13.9	-18.8	197	5
2023-09-10T06:00	2532	757	13.7	-18.9	197	5
2023-09-10T06:00	2561	754	13.5	-19.4	198	5
2023-09-10T06:00	2590	752	13.3	-19.6	200	5
2023-09-10T06:00	2619	749	13.0	-20.0	203	5
2023-09-10T06:00	2648	746	12.8	-20.0	207	5
2023-09-10T06:00	2678	744	12.6	-20.1	210	5
2023-09-10T06:00	2707	741	12.4	-20.3	214	5
2023-09-10T06:00	2734	739	12.3	-19.9	216	5
2023-09-10T06:00	2763	736	12.1	-20.3	217	5
2023-09-10T06:00	2793	734	12.0	-20.4	216	5
2023-09-10T06:00	2820	731	11.9	-19.7	215	5
2023-09-10T06:00	2850	729	11.7	-20.2	213	5
2023-09-10T06:00	2878	726	11.5	-20.3	212	5
2023-09-10T06:00	2907	724	11.3	-20.6	210	5
2023-09-10T06:00	2936	721	11.3	-21.6	209	6
2023-09-10T06:00	2968	718	11.3	-24.0	208	6
2023-09-10T06:00	2998	716	11.1	-23.4	207	6
2023-09-10T06:00	3028	713	11.0	-23.0	206	7
2023-09-10T06:00	3058	711	10.7	-15.3	205	7
2023-09-10T06:00	3089	708	10.4	-13.3	205	7
2023-09-10T06:00	3118	705	10.1	-13.2	204	7
2023-09-10T06:00	3148	703	9.8	-13.3	204	7
2023-09-10T06:00	3178	700	9.5	-13.8	204	7
2023-09-10T06:00	3207	698	9.3	-14.1	204	6
2023-09-10T06:00	3236	695	9.0	-13.7	204	6
2023-09-10T06:00	3268	693	8.7	-13.7	205	6
2023-09-10T06:00	3296	690	8.4	-13.8	205	6
2023-09-10T06:00	3327	688	8.1	-14.1	206	6
2023-09-10T06:00	3357	685	7.9	-14.9	208	6
2023-09-10T06:00	3386	683	7.6	-15.4	209	5
2023-09-10T06:00	3417	680	7.4	-15.5	211	5
2023-09-10T06:00	3446	678	7.1	-15.3	212	5
2023-09-10T06:00	3478	675	6.8	-15.3	214	5
2023-09-10T06:00	3507	673	6.5	-16.2	216	5
2023-09-10T06:00	3538	670	6.3	-17.4	217	5
2023-09-10T06:00	3567	668	6.0	-17.2	218	5
2023-09-10T06:00	3598	665	5.8	-16.6	217	5
2023-09-10T06:00	3628	663	5.5	-15.3	215	5
2023-09-10T06:00	3661	660	5.2	-15.1	213	5
2023-09-10T06:00	3689	658	4.9	-15.1	210	5
2023-09-10T06:00	3718	656	4.8	-15.7	208	5
2023-09-10T06:00	3750	653	4.6	-15.8	206	5
2023-09-10T06:00	3777	651	4.4	-16.3	205	5
2023-09-10T06:00	3807	649	4.2	-16.6	205	5
2023-09-10T06:00	3839	646	3.9	-16.6	206	5
2023-09-10T06:00	3870	644	3.6	-17.2	207	5
2023-09-10T06:00	3899	641	3.4	-16.9	210	5
2023-09-10T06:00	3924	639	3.2	-17.3	214	5
2023-09-10T06:00	3953	637	3.0	-17.3	218	5
2023-09-10T06:00	3977	635	2.7	-17.4	221	5
2023-09-10T06:00	4009	633	2.5	-17.8	224	5
2023-09-10T06:00	4037	630	2.3	-19.8	227	5
2023-09-10T06:00	4066	628	2.1	-19.0	230	5
2023-09-10T06:00	4097	626	1.9	-20.0	233	5
2023-09-10T06:00	4129	623	1.7	-20.2	237	5
2023-09-10T06:00	4155	621	1.4	-20.6	239	5
2023-09-10T06:00	4182	619	1.2	-22.1	240	5
2023-09-10T06:00	4212	617	0.9	-22.5	240	5
2023-09-10T06:00	4241	615	0.7	-23.1	237	4
2023-09-10T06:00	4269	612	0.4	-22.6	233	4
2023-09-10T06:00	4298	610	0.2	-21.7	231	4
2023-09-10T06:00	4327	608	0.1	-25.0	229	4
2023-09-10T06:00	4359	606	0.0	-22.1	229	4
2023-09-10T06:00	4388	603	-0.1	-19.6	231	4
2023-09-10T06:00	4418	601	-0.2	-20.7	232	4
2023-09-10T06:00	4448	599	-0.4	-20.5	233	4
2023-09-10T06:00	4478	597	-0.7	-20.6	234	4
2023-09-10T06:00	4508	595	-0.9	-20.8	233	3
2023-09-10T06:00	4532	593	-1.1	-20.5	232	3
2023-09-10T06:00	4556	591	-1.4	-20.5	231	4
2023-09-10T06:00	4584	589	-1.6	-19.9	231	4
2023-09-10T06:00	4614	587	-1.9	-19.8	232	4
2023-09-10T06:00	4640	585	-2.2	-19.6	234	4
2023-09-10T06:00	4672	582	-2.5	-19.8	236	5
2023-09-10T06:00	4702	580	-2.7	-19.9	237	4
2023-09-10T06:00	4731	578	-2.9	-20.0	237	4
2023-09-10T06:00	4762	576	-3.2	-20.0	236	4
2023-09-10T06:00	4788	574	-3.5	-20.2	234	4
2023-09-10T06:00	4813	572	-3.7	-20.1	233	4
2023-09-10T06:00	4843	570	-4.0	-20.3	234	3
2023-09-10T06:00	4869	568	-4.2	-20.6	238	3
2023-09-10T06:00	4896	566	-4.3	-21.0	243	3
2023-09-10T06:00	4920	564	-4.4	-21.3	248	3
2023-09-10T06:00	4947	562	-4.5	-22.2	250	3
2023-09-10T06:00	4975	560	-4.6	-22.2	249	3
2023-09-10T06:00	5007	558	-4.9	-22.2	244	3
2023-09-10T06:00	5038	556	-5.1	-22.1	239	3
2023-09-10T06:00	5068	554	-5.3	-22.3	235	3
2023-09-10T06:00	5093	552	-5.4	-23.1	231	3
2023-09-10T06:00	5115	550	-5.5	-24.5	230	3
2023-09-10T06:00	5145	548	-5.3	-26.9	229	4
2023-09-10T06:00	5173	547	-5.2	-29.7	231	4
2023-09-10T06:00	5199	545	-5.2	-31.5	234	4
2023-09-10T06:00	5223	543	-5.2	-33.3	237	4
2023-09-10T06:00	5253	541	-5.3	-33.8	241	4
2023-09-10T06:00	5279	539	-5.4	-32.9	243	4
2023-09-10T06:00	5306	537	-5.6	-32.1	245	4
2023-09-10T06:00	5335	535	-5.8	-31.2	245	4
2023-09-10T06:00	5365	533	-6.0	-31.3	246	4
2023-09-10T06:00	5394	531	-6.1	-31.7	248	4
2023-09-10T06:00	5424	529	-6.4	-31.5	249	4
2023-09-10T06:00	5452	527	-6.6	-31.4	250	4
2023-09-10T06:00	5470	526	-6.7	-31.1	250	4
2023-09-10T06:00	5493	525	-6.9	-31.1	248	5
2023-09-10T06:00	5518	523	-7.0	-31.2	247	5
2023-09-10T06:00	5542	521	-7.1	-31.2	247	6
2023-09-10T06:00	5568	520	-7.3	-31.5	248	6
2023-09-10T06:00	5593	518	-7.5	-32.2	251	6
2023-09-10T06:00	5616	516	-7.6	-32.9	253	6
2023-09-10T06:00	5644	514	-7.8	-34.6	257	6
2023-09-10T06:00	5671	513	-8.0	-35.0	260	6
2023-09-10T06:00	5701	511	-8.2	-36.5	263	6
2023-09-10T06:00	5730	509	-8.2	-38.1	266	6
2023-09-10T06:00	5758	507	-8.2	-37.3	269	6
2023-09-10T06:00	5783	505	-8.4	-37.3	270	6
2023-09-10T06:00	5811	504	-8.5	-37.7	271	6
2023-09-10T06:00	5833	502	-8.6	-38.3	271	6
2023-09-10T06:00	5856	501	-8.7	-38.5	272	6
2023-09-10T06:00	5883	499	-8.9	-38.3	272	5
2023-09-10T06:00	5912	497	-9.0	-38.3	273	5
2023-09-10T06:00	5934	496	-9.1	-38.2	275	5
2023-09-10T06:00	5958	494	-9.2	-38.8	277	5
2023-09-10T06:00	5988	492	-9.4	-39.3	280	5
2023-09-10T06:00	6016	490	-9.6	-39.4	285	5
2023-09-10T06:00	6040	489	-9.7	-39.3	289	6
2023-09-10T06:00	6063	487	-9.9	-39.5	292	6
2023-09-10T06:00	6091	486	-9.8	-39.6	294	7
2023-09-10T06:00	6115	484	-10.0	-39.7	294	7
2023-09-10T06:00	6137	483	-10.3	-39.8	294	7
2023-09-10T06:00	6168	481	-10.5	-39.6	294	7
2023-09-10T06:00	6198	479	-10.7	-39.4	294	7
2023-09-10T06:00	6223	477	-10.9	-39.6	295	7
2023-09-10T06:00	6247	476	-11.2	-39.8	296	7
2023-09-10T06:00	6270	474	-11.4	-39.8	296	7
2023-09-10T06:00	6297	473	-11.6	-39.4	296	7
2023-09-10T06:00	6319	471	-11.7	-39.1	296	7
2023-09-10T06:00	6345	470	-11.8	-37.4	294	7
2023-09-10T06:00	6373	468	-12.0	-36.2	293	6
2023-09-10T06:00	6405	466	-12.2	-36.1	292	6
2023-09-10T06:00	6429	465	-12.3	-36.0	290	6
2023-09-10T06:00	6455	463	-12.5	-35.5	289	6
2023-09-10T06:00	6485	461	-12.8	-35.0	288	6
2023-09-10T06:00	6516	459	-13.1	-34.6	287	7
2023-09-10T06:00	6545	458	-13.3	-34.6	286	8
2023-09-10T06:00	6569	456	-13.5	-34.5	286	8
2023-09-10T06:00	6603	454	-13.8	-34.7	285	9
2023-09-10T06:00	6632	452	-14.0	-35.0	286	9
2023-09-10T06:00	6665	451	-14.3	-35.2	286	9
2023-09-10T06:00	6690	449	-14.6	-35.5	288	8
2023-09-10T06:00	6725	447	-14.8	-36.1	290	8
2023-09-10T06:00	6757	445	-15.0	-36.3	293	8
2023-09-10T06:00	6787	443	-15.3	-36.8	295	8
2023-09-10T06:00	6820	442	-15.5	-37.9	295	8
2023-09-10T06:00	6844	440	-15.6	-37.8	294	8
2023-09-10T06:00	6870	438	-15.9	-37.1	293	8
2023-09-10T06:00	6901	437	-16.1	-36.4	292	8
2023-09-10T06:00	6931	435	-16.3	-36.5	291	8
2023-09-10T06:00	6958	433	-16.5	-36.0	290	8
2023-09-10T06:00	6985	432	-16.8	-36.3	290	8
2023-09-10T06:00	7018	430	-17.0	-36.5	291	8
2023-09-10T06:00	7047	428	-17.2	-36.6	292	8
2023-09-10T06:00	7071	427	-17.4	-36.7	294	8
2023-09-10T06:00	7099	425	-17.6	-36.6	295	8
2023-09-10T06:00	7121	424	-17.8	-36.8	296	8
2023-09-10T06:00	7151	422	-18.1	-36.9	296	8
2023-09-10T06:00	7177	421	-18.3	-37.1	296	8
2023-09-10T06:00	7203	419	-18.6	-37.3	295	8
2023-09-10T06:00	7229	418	-18.8	-37.5	296	8
2023-09-10T06:00	7253	417	-19.0	-38.2	297	9
2023-09-10T06:00	7284	415	-19.3	-38.9	298	9
2023-09-10T06:00	7315	413	-19.5	-38.5	298	9
2023-09-10T06:00	7339	412	-19.7	-37.7	298	9
2023-09-10T06:00	7368	410	-20.0	-37.3	297	9
2023-09-10T06:00	7396	409	-20.3	-37.1	296	9
2023-09-10T06:00	7429	407	-20.5	-37.5	294	9
2023-09-10T06:00	7458	405	-20.7	-37.8	293	8
2023-09-10T06:00	7486	404	-20.9	-38.8	292	8
2023-09-10T06:00	7510	402	-21.0	-40.1	292	8
2023-09-10T06:00	7540	401	-21.3	-40.2	292	8
2023-09-10T06:00	7562	399	-21.4	-40.9	292	8
2023-09-10T06:00	7589	398	-21.5	-41.2	291	8
2023-09-10T06:00	7613	397	-21.6	-42.4	289	8
2023-09-10T06:00	7641	395	-21.7	-41.9	288	9
2023-09-10T06:00	7665	394	-21.8	-42.1	287	9
2023-09-10T06:00	7694	392	-22.0	-42.4	286	9
2023-09-10T06:00	7724	391	-22.2	-42.6	286	9
2023-09-10T06:00	7753	389	-22.4		286	9
2023-09-10T06:00	7782	388	-22.6	-42.6	286	9
2023-09-10T06:00	7808	386	-22.8	-42.5	287	9
2023-09-10T06:00	7835	385	-23.0	-42.4	288	9
2023-09-10T06:00	7860	384	-23.2	-42.5	289	9
2023-09-10T06:00	7885	382	-23.3	-42.6	290	9
2023-09-10T06:00	7909	381	-23.6	-42.8	290	9
2023-09-10T06:00	7939	380	-23.8	-43.1	290	9
2023-09-10T06:00	7965	378	-23.9	-43.5	289	9
2023-09-10T06:00	7989	377	-24.0	-43.6	289	9
2023-09-10T06:00	8018	375	-24.3	-43.6	288	9
2023-09-10T06:00	8050	374	-24.6	-43.7	288	9
2023-09-10T06:00	8078	372	-24.8	-43.6	289	9
2023-09-10T06:00	8101	371	-25.1	-43.8	290	9
2023-09-10T06:00	8129	370	-25.3	-43.6	291	9
2023-09-10T06:00	8155	368	-25.6	-43.5	292	9
2023-09-10T06:00	8181	367	-25.7	-43.4	292	9
2023-09-10T06:00	8212	366	-25.8	-44.0	293	9
2023-09-10T06:00	8240	364	-26.0	-44.3	293	9
2023-09-10T06:00	8268	363	-26.2	-44.6	294	8
2023-09-10T06:00	8296	361	-26.5	-44.8	294	9
2023-09-10T06:00	8325	360	-26.7	-44.9	296	9
2023-09-10T06:00	8349	359	-26.9	-45.2	297	9
2023-09-10T06:00	8376	357	-27.2	-45.4	299	10
2023-09-10T06:00	8410	356	-27.5	-45.4	300	10
2023-09-10T06:00	8432	355	-27.7	-45.5	301	11
2023-09-10T06:00	8458	353	-27.9	-45.5	300	11
2023-09-10T06:00	8487	352	-28.1	-45.4	299	11
2023-09-10T06:00	8509	351	-28.3	-45.6	297	11
2023-09-10T06:00	8538	349	-28.5	-46.4	296	11
2023-09-10T06:00	8570	348	-28.7	-46.8	295	11
2023-09-10T06:00	8592	347	-28.8	-46.7	294	11
2023-09-10T06:00	8615	345	-29.0	-46.3	293	10
2023-09-10T06:00	8646	344	-29.3	-46.0	293	10
2023-09-10T06:00	8672	343	-29.5	-46.0	293	10
2023-09-10T06:00	8704	341	-29.8	-45.9	292	11
2023-09-10T06:00	8733	340	-30.0	-46.2	290	11
2023-09-10T06:00	8763	339	-30.2	-45.6	289	11
2023-09-10T06:00	8792	337	-30.4	-45.5	287	11
2023-09-10T06:00	8818	336	-30.6	-45.9	286	11
2023-09-10T06:00	8841	335	-30.8	-46.4	285	11
2023-09-10T06:00	8866	334	-30.9	-46.4	283	11
2023-09-10T06:00	8891	332	-31.1	-46.7	282	12
2023-09-10T06:00	8919	331	-31.2	-47.6	281	12
2023-09-10T06:00	8944	330	-31.3	-47.7	280	12
2023-09-10T06:00	8972	329	-31.5	-47.9	280	12
2023-09-10T06:00	9005	327	-31.7	-48.1	279	12
2023-09-10T06:00	9036	326	-32.0	-48.8	279	12
2023-09-10T06:00	9061	325	-32.1	-49.6	279	12
2023-09-10T06:00	9084	324	-32.1	-50.2	278	12
2023-09-10T06:00	9108	322	-32.3	-49.5	279	12
2023-09-10T06:00	9132	321	-32.5	-49.5	279	12
2023-09-10T06:00	9157	320	-32.8	-49.3	280	12
2023-09-10T06:00	9182	319	-33.0	-48.9	281	12
2023-09-10T06:00	9209	318	-33.2	-49.2	282	12
2023-09-10T06:00	9237	316	-33.5	-49.3	283	12
2023-09-10T06:00	9277	315	-33.8	-49.5	284	12
2023-09-10T06:00	9303	314	-34.0	-49.5	285	13
2023-09-10T06:00	9325	313	-34.3	-49.5	285	13
2023-09-10T06:00	9353	311	-34.5	-49.4	285	12
2023-09-10T06:00	9383	310	-34.8	-49.4	285	12
2023-09-10T06:00	9409	309	-35.1	-49.6	284	12
2023-09-10T06:00	9436	308	-35.3	-49.6	284	12
2023-09-10T06:00	9460	307	-35.6	-49.7	284	12
2023-09-10T06:00	9485	306	-35.7	-49.9	284	13
2023-09-10T06:00	9509	304	-35.9	-49.9	284	13
2023-09-10T06:00	9535	303	-36.1	-50.0	284	13
2023-09-10T06:00	9561	302	-36.3	-50.1	284	13
2023-09-10T06:00	9593	301	-36.6	-50.4	284	13
2023-09-10T06:00	9621	300	-36.8	-50.5	283	13
2023-09-10T06:00	9652	298	-37.1	-50.8	282	13
2023-09-10T06:00	9680	297	-37.3	-50.8	282	13
2023-09-10T06:00	9704	296	-37.6	-50.9	281	13
2023-09-10T06:00	9732	295	-37.8	-50.8	281	14
2023-09-10T06:00	9756	294	-38.1	-50.8	281	14
2023-09-10T06:00	9783	293	-38.3	-50.9	281	14
2023-09-10T06:00	9810	292	-38.5	-51.0	282	14
2023-09-10T06:00	9838	290	-38.8	-51.2	282	14
2023-09-10T06:00	9863	289	-39.0	-51.5	282	15
2023-09-10T06:00	9887	288	-39.2	-51.7	283	15
2023-09-10T06:00	9910	287	-39.4	-52.1	283	15
2023-09-10T06:00	9933	286	-39.5	-52.3	283	15
2023-09-10T06:00	9956	285	-39.7	-52.4	283	15
2023-09-10T06:00	9979	284	-39.9	-52.8	283	15
2023-09-10T06:00	10003	283	-40.0	-53.1	283	15
2023-09-10T06:00	10028	282	-40.2	-53.2	283	15
2023-09-10T06:00	10053	281	-40.4	-53.4	283	15
2023-09-10T06:00	10082	280	-40.7	-53.5	284	15
2023-09-10T06:00	10109	279	-40.9	-53.7	284	15
2023-09-10T06:00	10131	278	-41.1	-53.9	284	16
2023-09-10T06:00	10159	277	-41.4	-53.5	285	16
2023-09-10T06:00	10184	276	-41.6	-53.1	285	16
2023-09-10T06:00	10205	275	-41.8	-52.8	285	16
2023-09-10T06:00	10234	274	-42.0	-52.2	286	16
2023-09-10T06:00	10260	273	-42.3	-52.0	286	16
2023-09-10T06:00	10288	272	-42.5	-51.9	286	16
2023-09-10T06:00	10310	271	-42.7	-51.9	286	16
2023-09-10T06:00	10335	270	-42.9	-52.0	287	16
2023-09-10T06:00	10357	269	-43.1	-52.2	286	17
2023-09-10T06:00	10381	268	-43.3	-52.1	286	17
2023-09-10T06:00	10406	267	-43.5	-52.1	286	16
2023-09-10T06:00	10428	266	-43.7	-52.4	286	16
2023-09-10T06:00	10453	265	-43.9	-52.7	286	16
2023-09-10T06:00	10475	264	-44.1	-52.6	286	16
2023-09-10T06:00	10500	263	-44.3	-52.4	286	16
2023-09-10T06:00	10524	262	-44.6	-52.4	286	16
2023-09-10T06:00	10547	261	-44.8	-52.4	285	16
2023-09-10T06:00	10571	261	-44.9	-52.5	285	16
2023-09-10T06:00	10592	260	-45.1	-52.7	284	16
2023-09-10T06:00	10616	259	-45.4	-52.9	284	16
2023-09-10T06:00	10645	258	-45.6	-53.0	283	16
2023-09-10T06:00	10670	257	-45.8	-53.1	283	16
2023-09-10T06:00	10690	256	-46.1	-53.3	282	16
2023-09-10T06:00	10712	255	-46.3	-53.3	282	16
2023-09-10T06:00	10737	254	-46.5	-53.5	282	16
2023-09-10T06:00	10761	253	-46.7	-53.6	282	16
2023-09-10T06:00	10784	252	-46.8	-53.7	282	16
2023-09-10T06:00	10806	251	-47.0	-53.8	283	16
2023-09-10T06:00	10829	251	-47.2	-53.9	284	16
2023-09-10T06:00	10852	250	-47.4	-54.2	284	16
2023-09-10T06:00	10880	249	-47.5	-54.2	283	17
2023-09-10T06:00	10907	248	-47.7	-53.9	283	17
2023-09-10T06:00	10934	247	-48.0	-53.8	283	17
2023-09-10T06:00	10959	246	-48.2	-53.9	282	16
2023-09-10T06:00	10985	245	-48.5	-54.1	282	16
2023-09-10T06:00	11008	244	-48.7	-54.5	282	16
2023-09-10T06:00	11035	243	-48.8	-55.2	282	16
2023-09-10T06:00	11059	242	-48.9	-55.9	282	15
2023-09-10T06:00	11081	241	-48.9	-56.2	282	15
2023-09-10T06:00	11107	240	-49.1	-56.4	282	15
2023-09-10T06:00	11131	239	-49.3	-56.3	282	15
2023-09-10T06:00	11153	239	-49.5	-56.4	282	15
2023-09-10T06:00	11176	238	-49.7	-56.6	282	15
2023-09-10T06:00	11200	237	-49.9	-56.8	282	15
2023-09-10T06:00	11225	236	-50.0	-56.9	281	15
2023-09-10T06:00	11254	235	-50.1	-56.8	280	14
2023-09-10T06:00	11282	234	-50.3	-56.7	279	14
2023-09-10T06:00	11310	233	-50.5	-57.0	279	13
2023-09-10T06:00	11339	232	-50.6	-57.5	278	13
2023-09-10T06:00	11365	231	-50.7	-58.1	278	13
2023-09-10T06:00	11394	230	-50.8	-58.6	278	13
2023-09-10T06:00	11420	229	-51.0	-58.8	278	13
2023-09-10T06:00	11445	228	-51.2	-58.7	279	13
2023-09-10T06:00	11468	227	-51.4	-58.6	279	13
2023-09-10T06:00	11491	227	-51.6	-58.4	279	13
2023-09-10T06:00	11514	226	-51.8	-58.3	280	13
2023-09-10T06:00	11537	225	-51.9	-58.4	279	14
2023-09-10T06:00	11558	224	-52.1	-58.8	279	14
2023-09-10T06:00	11581	223	-52.3	-59.2	279	14
2023-09-10T06:00	11603	223	-52.5	-59.6	279	14
2023-09-10T06:00	11625	222	-52.5	-59.8	279	14
2023-09-10T06:00	11648	221	-52.8	-59.8	279	14
2023-09-10T06:00	11673	220	-53.0	-59.6	279	14
2023-09-10T06:00	11697	219	-53.1	-59.5	279	14
2023-09-10T06:00	11719	219	-53.3	-59.6	279	14
2023-09-10T06:00	11741	218	-53.5	-59.7	278	14
2023-09-10T06:00	11763	217	-53.6	-59.7	278	13
2023-09-10T06:00	11788	216	-53.8	-59.8	278	13
2023-09-10T06:00	11812	216	-53.9	-59.8	279	13
2023-09-10T06:00	11840	215	-54.2	-59.9	280	13
2023-09-10T06:00	11866	214	-54.4	-60.0	280	13
2023-09-10T06:00	11890	213	-54.6	-60.1	281	13
2023-09-10T06:00	11914	212	-54.8	-60.2	281	13
2023-09-10T06:00	11935	211	-54.9	-60.4	282	13
2023-09-10T06:00	11957	211	-55.1	-60.9	282	13
2023-09-10T06:00	11979	210	-55.1	-61.3	282	13
2023-09-10T06:00	12003	209	-55.3	-61.8	283	13
2023-09-10T06:00	12031	208	-55.4	-62.0	284	13
2023-09-10T06:00	12062	207	-55.6	-62.3	284	13
2023-09-10T06:00	12089	206	-55.7	-62.4	284	13
2023-09-10T06:00	12116	206	-55.9	-62.4	284	13
2023-09-10T06:00	12146	205	-56.1	-62.2	283	13
2023-09-10T06:00	12176	204	-56.3	-62.0	282	13
2023-09-10T06:00	12202	203	-56.5	-61.9	282	13
2023-09-10T06:00	12233	202	-56.8	-61.9	282	13
2023-09-10T06:00	12259	201	-57.0	-61.9	282	13
2023-09-10T06:00	12286	200	-57.2	-62.1	282	13
2023-09-10T06:00	12316	199	-57.4	-62.5	283	13
2023-09-10T06:00	12344	198	-57.7	-63.2	283	13
2023-09-10T06:00	12367	198	-57.8	-63.2	284	13
2023-09-10T06:00	12390	197	-57.9	-62.8	284	13
2023-09-10T06:00	12417	196	-58.0	-62.5	285	13
2023-09-10T06:00	12439	195	-58.1	-62.5	285	13
2023-09-10T06:00	12460	195	-58.2	-62.8	285	13
2023-09-10T06:00	12482	194	-58.3	-63.3	286	13
2023-09-10T06:00	12503	193	-58.4	-63.9	286	13
2023-09-10T06:00	12524	193	-58.5	-64.8	287	13
2023-09-10T06:00	12546	192	-58.6	-65.7	288	13
2023-09-10T06:00	12569	191	-58.7	-66.4	289	12
2023-09-10T06:00	12591	191	-58.8	-66.9	290	12
2023-09-10T06:00	12613	190	-58.9	-67.2	291	12
2023-09-10T06:00	12634	189	-59.1	-67.4	292	12
2023-09-10T06:00	12657	189	-59.2		292	12
2023-09-10T06:00	12679	188	-59.3	-67.0	292	12
2023-09-10T06:00	12698	187	-59.5	-67.0	293	12
2023-09-10T06:00	12724	187	-59.7	-67.0	293	12
2023-09-10T06:00	12749	186	-59.9	-67.0	293	13
2023-09-10T06:00	12776	185	-60.1	-66.9	293	13
2023-09-10T06:00	12801	184	-60.4	-66.7	293	13
2023-09-10T06:00	12826	184	-60.6	-66.3	292	13
2023-09-10T06:00	12849	183	-60.7	-65.9	292	13
2023-09-10T06:00	12873	182	-60.8	-65.7	292	13
2023-09-10T06:00	12896	182	-60.9	-65.8	293	12
2023-09-10T06:00	12918	181	-61.0	-65.9	294	12
2023-09-10T06:00	12938	180	-61.1	-66.1	295	12
2023-09-10T06:00	12963	180	-61.2	-66.3	296	12
2023-09-10T06:00	12982	179	-61.2	-66.3	297	12
2023-09-10T06:00	13005	178	-61.4	-66.4	298	12
2023-09-10T06:00	13027	178	-61.6	-66.5	297	11
2023-09-10T06:00	13049	177	-61.7	-66.6	297	11
2023-09-10T06:00	13072	176	-61.9	-66.9	295	11
2023-09-10T06:00	13094	176	-62.0	-67.1	293	10
2023-09-10T06:00	13117	175	-62.0	-67.2	291	10
2023-09-10T06:00	13138	175	-62.1	-67.4	288	10
2023-09-10T06:00	13161	174	-62.3	-67.6	286	10
2023-09-10T06:00	13184	173	-62.4	-67.6	284	10
2023-09-10T06:00	13204	173	-62.6	-67.6	282	10
2023-09-10T06:00	13225	172	-62.8	-67.6	282	10
2023-09-10T06:00	13247	172	-63.0	-67.6	281	10
2023-09-10T06:00	13270	171	-63.2	-67.6	281	11
2023-09-10T06:00	13293	170	-63.4	-67.6	282	11
2023-09-10T06:00	13315	170	-63.6	-67.6	284	11
2023-09-10T06:00	13338	169	-63.8	-67.7	285	12
2023-09-10T06:00	13361	168	-63.9	-67.7	287	12
2023-09-10T06:00	13383	168	-64.1	-67.9	290	13
2023-09-10T06:00	13404	167	-64.2	-68.2	292	13
2023-09-10T06:00	13426	167	-64.2	-68.4	294	13
2023-09-10T06:00	13447	166	-64.3	-68.8	297	14
2023-09-10T06:00	13470	165	-64.3	-68.9	299	14
2023-09-10T06:00	13494	165	-64.4	-69.1	302	14
2023-09-10T06:00	13516	164	-64.3	-69.2	304	14
2023-09-10T06:00	13538	164	-64.4	-69.4	307	14
2023-09-10T06:00	13561	163	-64.5	-69.6	309	14
2023-09-10T06:00	13586	162	-64.5	-69.7	311	13
2023-09-10T06:00	13611	162	-64.6	-69.8	313	12
2023-09-10T06:00	13633	161	-64.7	-70.0	314	12
2023-09-10T06:00	13659	160	-64.6	-70.1	313	11
2023-09-10T06:00	13682	160	-64.8	-70.5	312	10
2023-09-10T06:00	13704	159	-64.9	-71.0	309	9
2023-09-10T06:00	13727	159	-64.9	-71.3	306	9
2023-09-10T06:00	13752	158	-64.8	-71.7	301	8
2023-09-10T06:00	13776	157	-64.9	-72.2	296	8
2023-09-10T06:00	13804	157	-65.1	-72.8	291	8
2023-09-10T06:00	13832	156	-65.2	-73.4	287	8
2023-09-10T06:00	13859	155	-65.3	-73.9	284	8
2023-09-10T06:00	13891	154	-65.0	-74.2	283	9
2023-09-10T06:00	13919	154	-64.8	-74.6	283	9
2023-09-10T06:00	13948	153	-64.6	-75.0	285	9
2023-09-10T06:00	13974	152	-64.5	-75.2	286	9
2023-09-10T06:00	13997	152	-64.6	-75.5	288	9
2023-09-10T06:00	14018	151	-64.6	-75.7	289	9
2023-09-10T06:00	14038	151	-64.5	-75.9	290	9
2023-09-10T06:00	14061	150	-64.5	-76.1	290	9
2023-09-10T06:00	14085	150	-64.4	-76.4	290	9
2023-09-10T06:00	14105	149	-64.3	-76.6	290	9
2023-09-10T06:00	14127	148	-64.4	-77.1	288	8
2023-09-10T06:00	14151	148	-64.1	-77.1	286	8
2023-09-10T06:00	14172	147	-64.1	-77.5	284	8
2023-09-10T06:00	14195	147	-64.0	-77.6	282	9
2023-09-10T06:00	14219	146	-64.2	-77.9	281	9
2023-09-10T06:00	14239	146	-64.3	-78.2	280	8
2023-09-10T06:00	14262	145	-64.2	-78.3	281	8
2023-09-10T06:00	14285	145	-64.2	-78.6	283	8
2023-09-10T06:00	14309	144	-63.9	-78.8	286	8
2023-09-10T06:00	14330	144	-63.5	-78.8	289	8
2023-09-10T06:00	14353	143	-63.5	-79.2	293	8
2023-09-10T06:00	14373	143	-63.4	-79.3	297	8
2023-09-10T06:00	14397	142	-63.4	-79.5	300	8
2023-09-10T06:00	14421	142	-63.5	-79.6	302	8
2023-09-10T06:00	14442	141	-63.6	-79.8	303	8
2023-09-10T06:00	14466	141	-63.8	-80.0	304	8
2023-09-10T06:00	14488	140	-63.9	-80.2	305	8
2023-09-10T06:00	14510	139	-63.7	-80.2	305	7
2023-09-10T06:00	14534	139	-63.7	-80.4	307	7
2023-09-10T06:00	14557	138	-63.7	-80.6	308	6
2023-09-10T06:00	14579	138	-63.5	-80.6	309	6
2023-09-10T06:00	14601	137	-63.4	-80.8	310	6
2023-09-10T06:00	14625	137	-63.4	-80.9	308	6
2023-09-10T06:00	14649	136	-63.4	-81.0	305	6
2023-09-10T06:00	14671	136	-63.4	-80.9	300	5
2023-09-10T06:00	14694	135	-63.5	-80.8	294	5
2023-09-10T06:00	14716	135	-63.7	-80.9	287	5
2023-09-10T06:00	14737	134	-63.8	-81.0	281	5
2023-09-10T06:00	14764	134	-63.7	-81.1	276	6
2023-09-10T06:00	14787	133	-63.2	-81.0	273	6
2023-09-10T06:00	14809	133	-63.1	-81.3	272	7
2023-09-10T06:00	14829	132	-62.9	-81.4	273	7
2023-09-10T06:00	14853	132	-63.0	-81.6	274	7
2023-09-10T06:00	14874	131	-63.1	-81.8	276	7
2023-09-10T06:00	14897	131	-63.0	-81.8	279	7
2023-09-10T06:00	14922	131	-63.0	-81.8	281	7
2023-09-10T06:00	14941	130	-63.1	-82.0	284	6
2023-09-10T06:00	14965	130	-63.1	-82.0	287	6
2023-09-10T06:00	14988	129	-63.1	-82.1	289	6
2023-09-10T06:00	15014	129	-63.1	-82.2	290	5
2023-09-10T06:00	15036	128	-63.2	-82.3	290	5
2023-09-10T06:00	15058	128	-63.2	-82.4	288	5
2023-09-10T06:00	15081	127	-63.1	-82.4	285	6
2023-09-10T06:00	15103	127	-63.0	-82.3	283	6
2023-09-10T06:00	15125	126	-63.1	-82.5	282	7
2023-09-10T06:00	15145	126	-63.3	-82.7	282	7
2023-09-10T06:00	15167	125	-63.2	-82.6	282	7
2023-09-10T06:00	15191	125	-63.2	-82.7	283	7
2023-09-10T06:00	15212	124	-63.2	-82.7	283	7
2023-09-10T06:00	15233	124	-63.0	-82.6	283	7
2023-09-10T06:00	15258	124	-63.0	-82.7	282	6
2023-09-10T06:00	15279	123	-63.1	-82.8	280	6
2023-09-10T06:00	15303	123	-63.2	-82.8	277	5
2023-09-10T06:00	15323	122	-63.3	-82.9	274	5
2023-09-10T06:00	15345	122	-63.4	-82.9	270	5
2023-09-10T06:00	15369	121	-63.2	-82.7	266	5
2023-09-10T06:00	15389	121	-63.3	-82.7	264	5
2023-09-10T06:00	15411	120	-63.4	-82.8	264	5
2023-09-10T06:00	15437	120	-63.4	-82.7	266	5
2023-09-10T06:00	15457	120	-63.5	-82.7	270	6
2023-09-10T06:00	15479	119	-63.7	-82.8	275	6
2023-09-10T06:00	15500	119	-63.9	-83.0	280	6
2023-09-10T06:00	15522	118	-64.0	-83.0	286	6
2023-09-10T06:00	15544	118	-64.1	-83.1	291	6
2023-09-10T06:00	15568	117	-64.1	-83.1	296	5
2023-09-10T06:00	15590	117	-64.1	-83.2	299	5
2023-09-10T06:00	15609	117	-63.9	-83.2	299	5
2023-09-10T06:00	15630	116	-63.7	-83.1	296	4
2023-09-10T06:00	15652	116	-63.5	-83.1	291	4
2023-09-10T06:00	15673	115	-63.4	-83.1	286	4
2023-09-10T06:00	15694	115	-63.5	-83.2	281	4
2023-09-10T06:00	15719	115	-63.6	-83.4	279	4
2023-09-10T06:00	15744	114	-63.6	-83.5	281	4
2023-09-10T06:00	15766	114	-63.2	-83.3	285	4
2023-09-10T06:00	15786	113	-63.0	-83.3	293	3
2023-09-10T06:00	15810	113	-62.9		303	3
2023-09-10T06:00	15833	113	-62.9	-83.5	314	3
2023-09-10T06:00	15853	112	-62.9	-83.6	323	2
2023-09-10T06:00	15875	112	-62.7	-83.6	325	2
2023-09-10T06:00	15897	111	-62.2	-83.4	315	1
2023-09-10T06:00	15919	111	-62.2	-83.5	292	1
2023-09-10T06:00	15941	111	-62.3	-83.6	268	1
2023-09-10T06:00	15964	110	-62.5	-83.8	256	2
2023-09-10T06:00	15987	110	-62.5	-83.8	253	2
2023-09-10T06:00	16007	109	-62.5	-83.8	256	3
2023-09-10T06:00	16034	109	-62.6	-84.0	263	3
2023-09-10T06:00	16058	108	-62.5	-84.1	271	4
2023-09-10T06:00	16079	108	-62.3	-84.1	279	5
2023-09-10T06:00	16102	108	-62.2	-84.2	286	6
2023-09-10T06:00	16124	107	-62.1	-84.3	292	6
2023-09-10T06:00	16145	107	-62.0	-84.2	296	7
2023-09-10T06:00	16171	107	-61.8	-84.2	299	7
2023-09-10T06:00	16192	106	-61.9	-84.3	300	7
2023-09-10T06:00	16214	106	-61.8	-84.4	302	7
2023-09-10T06:00	16240	105	-61.7	-84.5	302	7
2023-09-10T06:00	16263	105	-61.7	-84.5	302	6
2023-09-10T06:00	16286	105	-61.7	-84.7	301	6
2023-09-10T06:00	16308	104	-61.6	-84.6	300	6
2023-09-10T06:00	16331	104	-61.6	-84.8	299	6
2023-09-10T06:00	16354	103	-61.5	-84.7	299	6
2023-09-10T06:00	16379	103	-61.6	-85.0	300	5
2023-09-10T06:00	16401	103	-61.6	-85.2	302	5
2023-09-10T06:00	16424	102	-61.3	-85.2	304	5
2023-09-10T06:00	16447	102	-60.9	-85.2	305	5
2023-09-10T06:00	16469	101	-60.8	-85.3	306	5
2023-09-10T06:00	16496	101	-60.5	-85.1	305	5
2023-09-10T06:00	16515	101	-60.5	-85.3	303	5
2023-09-10T06:00	16541	100	-60.5	-85.3	300	5
2023-09-10T06:00	16564	100	-60.5	-85.3	295	5
2023-09-10T06:00	16588	100	-60.6	-85.2	290	5
2023-09-10T06:00	16611	99	-60.8	-85.3	286	4
2023-09-10T06:00	16635	99	-60.9	-85.4	283	4
2023-09-10T06:00	16660	98	-61.0	-85.5	281	4
2023-09-10T06:00	16684	98	-61.2	-85.4	281	5
2023-09-10T06:00	16707	98	-61.3	-85.5	281	5
2023-09-10T06:00	16733	97	-61.4	-85.5	282	5
2023-09-10T06:00	16757	97	-61.6	-85.7	282	5
2023-09-10T06:00	16780	97	-61.8	-85.9	283	5
2023-09-10T06:00	16802	96	-61.7	-85.8	283	5
2023-09-10T06:00	16828	96	-61.8	-85.9	282	5
2023-09-10T06:00	16850	95	-61.8	-85.9	281	5
2023-09-10T06:00	16874	95	-61.9	-85.9	281	5
2023-09-10T06:00	16894	95	-61.7	-85.8	281	5
2023-09-10T06:00	16919	94	-61.7	-85.8	282	5
2023-09-10T06:00	16943	94	-61.7	-86.0	285	4
2023-09-10T06:00	16963	94	-61.8	-86.1	289	4
2023-09-10T06:00	16988	93	-61.8	-86.1	294	3
2023-09-10T06:00	17010	93	-61.8	-86.1	299	3
2023-09-10T06:00	17031	93	-61.8	-86.1	301	3
2023-09-10T06:00	17055	92	-61.7	-86.3	298	3
2023-09-10T06:00	17080	92	-61.7	-86.3	291	3
2023-09-10T06:00	17105	92	-61.5	-86.4	284	4
2023-09-10T06:00	17130	91	-61.3	-86.2	280	5
2023-09-10T06:00	17150	91	-61.2	-86.2	279	5
2023-09-10T06:00	17175	91	-61.2	-86.4	280	6
2023-09-10T06:00	17198	90	-61.3	-86.5	283	6
2023-09-10T06:00	17223	90	-61.1	-86.4	287	6
2023-09-10T06:00	17246	90	-60.9	-86.5	290	7
2023-09-10T06:00	17268	89	-60.8	-86.4	294	7
2023-09-10T06:00	17292	89	-60.8	-86.4	296	7
2023-09-10T06:00	17313	89	-60.8	-86.4	297	7
2023-09-10T06:00	17342	88	-60.7	-86.3	299	7
2023-09-10T06:00	17363	88	-60.7	-86.3	300	7
2023-09-10T06:00	17388	88	-60.8	-86.4	302	7
2023-09-10T06:00	17412	87	-61.0	-86.6	305	7
2023-09-10T06:00	17436	87	-61.0	-86.6	308	7
2023-09-10T06:00	17461	87	-60.9	-86.5	311	6
2023-09-10T06:00	17481	86	-60.9	-86.5	314	6
2023-09-10T06:00	17504	86	-61.0	-86.6	317	6
2023-09-10T06:00	17528	86	-61.1	-86.6	319	6
2023-09-10T06:00	17553	85	-61.2	-86.7	322	6
2023-09-10T06:00	17575	85	-61.3	-86.8	325	6
2023-09-10T06:00	17599	85	-61.4	-86.6	328	6
2023-09-10T06:00	17624	84	-61.6	-86.7	334	6
2023-09-10T06:00	17648	84	-61.8	-87.2	340	6
2023-09-10T06:00	17670	84	-61.6	-87.0	349	6
2023-09-10T06:00	17696	83	-61.5	-87.0	357	6
2023-09-10T06:00	17720	83	-61.6	-87.3	3	6
2023-09-10T06:00	17744	83	-61.2	-87.0	7	5
2023-09-10T06:00	17768	82	-61.1	-87.0	8	5
2023-09-10T06:00	17793	82	-61.0	-87.2	6	5
2023-09-10T06:00	17814	82	-61.0	-87.2	0	4
2023-09-10T06:00	17840	81	-61.1	-87.3	352	4
2023-09-10T06:00	17863	81	-61.1	-87.3	345	4
2023-09-10T06:00	17887	81	-61.0	-87.2	341	4
2023-09-10T06:00	17910	80	-60.9	-87.5	343	4
2023-09-10T06:00	17932	80	-60.6	-87.2	348	4
2023-09-10T06:00	17959	80	-60.4	-87.1	357	4
2023-09-10T06:00	17981	80	-60.3	-87.4	8	4
2023-09-10T06:00	18006	79	-60.1	-87.2	17	4
2023-09-10T06:00	18030	79	-59.9	-87.1	24	4
2023-09-10T06:00	18056	79	-59.9	-87.1	28	4
2023-09-10T06:00	18079	78	-60.1	-87.2	30	4
2023-09-10T06:00	18100	78	-60.0	-86.8	31	4
2023-09-10T06:00	18124	78	-60.0	-86.8	32	4
2023-09-10T06:00	18150	77	-60.2	-86.9	34	4
2023-09-10T06:00	18173	77	-60.3	-87.0	37	4
2023-09-10T06:00	18197	77	-60.3	-87.0	43	4
2023-09-10T06:00	18219	77	-60.4	-87.1	52	4
2023-09-10T06:00	18241	76	-60.4	-87.1	62	3
2023-09-10T06:00	18269	76	-60.3	-87.0	74	3
2023-09-10T06:00	18292	76	-60.3	-87.0	85	4
2023-09-10T06:00	18313	75	-60.4	-87.1	94	4
2023-09-10T06:00	18336	75	-60.5	-87.2	102	4
2023-09-10T06:00	18361	75	-60.7	-87.0	111	3
2023-09-10T06:00	18385	75	-60.9	-87.1	120	3
2023-09-10T06:00	18408	74	-61.1	-87.3	132	3
2023-09-10T06:00	18434	74	-61.2	-87.3	145	2
2023-09-10T06:00	18456	74	-61.3	-87.4	159	2
2023-09-10T06:00	18479	73	-61.2	-87.7	174	1
2023-09-10T06:00	18501	73	-60.9	-87.5	189	1
2023-09-10T06:00	18524	73	-60.7	-87.3	205	1
2023-09-10T06:00	18550	73	-60.7	-87.3	221	1
2023-09-10T06:00	18576	72	-60.6	-87.6	234	1
2023-09-10T06:00	18599	72	-60.5	-87.5	244	1
2023-09-10T06:00	18622	72	-60.5	-87.5	250	2
2023-09-10T06:00	18648	71	-60.3	-87.4	254	2
2023-09-10T06:00	18667	71	-60.3	-87.4	255	2
2023-09-10T06:00	18695	71	-60.3	-87.4	253	1
2023-09-10T06:00	18719	71	-60.2	-87.3	243	1
2023-09-10T06:00	18742	70	-60.1	-87.2	189	0
2023-09-10T06:00	18768	70	-60.1	-87.6	130	0
2023-09-10T06:00	18795	70	-60.0	-87.5	119	0
2023-09-10T06:00	18815	70	-60.0	-87.5	255	0
2023-09-10T06:00	18840	69	-59.9	-87.4	288	1
2023-09-10T06:00	18864	69	-59.7	-87.3	291	1
2023-09-10T06:00	18888	69	-59.7	-87.3	295	2
2023-09-10T06:00	18908	69	-59.7	-87.3	300	3
2023-09-10T06:00	18934	68	-59.7	-87.3	307	3
2023-09-10T06:00	18956	68	-59.7	-87.3	314	3
2023-09-10T06:00	18983	68	-59.7	-87.3	320	4
2023-09-10T06:00	19006	67	-59.8	-87.4	326	4
2023-09-10T06:00	19030	67	-59.8	-87.4	330	5
2023-09-10T06:00	19053	67	-59.6	-87.2	332	5
2023-09-10T06:00	19079	67	-59.4	-87.5	335	6
2023-09-10T06:00	19101	66	-59.3	-87.4	337	6
2023-09-10T06:00	19130	66	-59.2	-87.3	340	6
2023-09-10T06:00	19151	66	-59.3	-87.4	344	7
2023-09-10T06:00	19175	66	-59.4	-87.5	348	7
2023-09-10T06:00	19199	65	-59.2	-87.3	353	7
2023-09-10T06:00	19226	65	-59.2	-87.3	358	7
2023-09-10T06:00	19250	65	-58.9	-87.1	3	6
2023-09-10T06:00	19277	65	-58.9	-87.1	8	6
2023-09-10T06:00	19300	64	-59.0	-87.2	13	6
2023-09-10T06:00	19326	64	-59.0	-87.2	18	6
2023-09-10T06:00	19349	64	-59.0	-87.2	23	6
2023-09-10T06:00	19376	64	-59.1	-87.3	28	6
2023-09-10T06:00	19399	63	-59.2	-87.3	34	6
2023-09-10T06:00	19423	63	-59.3	-87.4	40	5
2023-09-10T06:00	19448	63	-59.3	-87.4	47	5
2023-09-10T06:00	19469	63	-59.3	-87.4	54	5
2023-09-10T06:00	19493	62	-59.3	-87.4	58	5
2023-09-10T06:00	19517	62	-59.4	-87.5	61	5
2023-09-10T06:00	19542	62	-59.3	-87.4	63	4
2023-09-10T06:00	19566	62	-59.2	-87.3	63	4
2023-09-10T06:00	19592	61	-59.1	-87.3	64	4
2023-09-10T06:00	19615	61	-59.2	-87.3	65	3
2023-09-10T06:00	19638	61	-59.2	-87.3	65	3
2023-09-10T06:00	19664	61	-59.3	-87.4	64	3
2023-09-10T06:00	19686	61	-59.4	-87.1	62	3
2023-09-10T06:00	19711	60	-59.3	-87.0	57	3
2023-09-10T06:00	19734	60	-59.3	-87.0	52	3
2023-09-10T06:00	19753	60	-59.4	-87.1	46	2
2023-09-10T06:00	19781	60	-59.5	-87.1	40	2
2023-09-10T06:00	19802	59	-59.6	-87.2	31	2
2023-09-10T06:00	19828	59	-59.7	-87.3	17	2
2023-09-10T06:00	19854	59	-59.9	-87.4	0	2
2023-09-10T06:00	19873	59	-59.9	-87.4	348	2
2023-09-10T06:00	19897	59	-60.0	-87.5	343	2
2023-09-10T06:00	19919	58	-59.9	-87.4	343	3
2023-09-10T06:00	19945	58	-59.7	-87.7	343	3
2023-09-10T06:00	19969	58	-59.4	-87.5	343	3
2023-09-10T06:00	19994	58	-59.4	-87.5	342	3
2023-09-10T06:00	20017	57	-59.0	-87.6	338	3
2023-09-10T06:00	20045	57	-58.8	-87.5	334	3
2023-09-10T06:00	20064	57	-58.8	-87.5	331	2
2023-09-10T06:00	20090	57	-58.8	-87.5	330	2
2023-09-10T06:00	20116	57	-58.7	-87.4	332	2
2023-09-10T06:00	20141	56	-58.5	-87.3	338	2
2023-09-10T06:00	20167	56	-58.5	-87.3	348	2
2023-09-10T06:00	20190	56	-58.4	-87.2	359	2
2023-09-10T06:00	20212	56	-58.3	-87.1	8	2
2023-09-10T06:00	20237	55	-58.1	-87.0	15	2
2023-09-10T06:00	20260	55	-58.2	-87.0	20	3
2023-09-10T06:00	20288	55	-58.4	-86.7	27	3
2023-09-10T06:00	20311	55	-58.6	-86.9	35	3
2023-09-10T06:00	20337	55	-58.8	-87.0	46	3
2023-09-10T06:00	20359	54	-58.9	-87.1	58	3
2023-09-10T06:00	20387	54	-59.0	-87.2	68	4
2023-09-10T06:00	20413	54	-59.0	-87.2	76	4
2023-09-10T06:00	20433	54	-59.1	-86.8	82	5
2023-09-10T06:00	20460	54	-59.1	-86.8	87	5
2023-09-10T06:00	20485	53	-59.2	-86.9	93	5
2023-09-10T06:00	20512	53	-59.2	-87.3	99	5
2023-09-10T06:00	20539	53	-59.2	-87.3	105	5
2023-09-10T06:00	20564	53	-59.4	-87.5	112	4
2023-09-10T06:00	20592	52	-59.5	-87.1	118	4
2023-09-10T06:00	20617	52	-59.5	-87.1	127	3
2023-09-10T06:00	20642	52	-59.5	-87.1	140	2
2023-09-10T06:00	20669	52	-59.4	-87.1	161	2
2023-09-10T06:00	20697	52	-59.5	-87.1	194	1
2023-09-10T06:00	20724	51	-59.7	-87.7	231	1
2023-09-10T06:00	20748	51	-59.8	-87.8	257	1
2023-09-10T06:00	20771	51	-59.7	-88.2	272	2
2023-09-10T06:00	20796	51	-59.1	-87.7	278	2
2023-09-10T06:00	20822	51	-58.4	-87.7	280	2
2023-09-10T06:00	20847	50	-58.1	-87.4	278	3
2023-09-10T06:00	20876	50	-58.1	-87.4	276	3
2023-09-10T06:00	20898	50	-58.0	-87.4	276	3
2023-09-10T06:00	20922	50	-58.1	-87.4	279	3
2023-09-10T06:00	20949	50	-58.0	-87.4	284	4
2023-09-10T06:00	20978	49	-57.9	-86.8	291	4
2023-09-10T06:00	20997	49	-57.8	-86.7	300	4
2023-09-10T06:00	21030	49	-57.9	-86.8	310	4
2023-09-10T06:00	21051	49	-58.0	-86.9	319	5
2023-09-10T06:00	21077	49	-58.1	-87.0	326	6
2023-09-10T06:00	21101	48	-58.1	-87.0	333	6
2023-09-10T06:00	21129	48	-58.1	-87.0	338	7
2023-09-10T06:00	21156	48	-58.0	-86.9	343	7
2023-09-10T06:00	21177	48	-57.9	-87.3	347	8
2023-09-10T06:00	21199	48	-57.8	-87.2	350	8
2023-09-10T06:00	21223	47	-57.7	-87.2	352	7
2023-09-10T06:00	21248	47	-57.7	-86.7	353	7
2023-09-10T06:00	21273	47	-57.9	-86.8	354	7
2023-09-10T06:00	21299	47	-58.0	-86.9	353	6
2023-09-10T06:00	21332	47	-58.2	-87.0	353	6
2023-09-10T06:00	21355	46	-58.4	-87.2	352	6
2023-09-10T06:00	21377	46	-58.5	-87.3	353	6
2023-09-10T06:00	21402	46	-58.4	-87.2	354	6
2023-09-10T06:00	21430	46	-58.4	-87.2	356	6
2023-09-10T06:00	21460	46	-58.4	-87.2	359	5
2023-09-10T06:00	21485	45	-58.3	-87.1	4	5
2023-09-10T06:00	21509	45	-58.2	-87.0	10	5
2023-09-10T06:00	21535	45	-58.2	-87.0	16	5
2023-09-10T06:00	21551	45	-58.2	-87.0	22	5
2023-09-10T06:00	21581	45	-58.2	-87.0	27	6
2023-09-10T06:00	21608	45	-58.3	-87.1	31	6
2023-09-10T06:00	21633	44	-58.5	-87.3	35	6
2023-09-10T06:00	21660	44	-58.4	-87.2	38	6
2023-09-10T06:00	21683	44	-58.4	-87.2	40	6
2023-09-10T06:00	21712	44	-58.6	-87.3	42	5
2023-09-10T06:00	21735	44	-58.7	-87.4	42	5
2023-09-10T06:00	21762	44	-58.7	-87.4	42	4
2023-09-10T06:00	21787	43	-58.7	-87.4	40	4
2023-09-10T06:00	21815	43	-58.7	-87.4	38	3
2023-09-10T06:00	21843	43	-58.6	-87.8	35	3
2023-09-10T06:00	21864	43	-58.2	-87.5	31	3
2023-09-10T06:00	21891	43	-58.0	-87.4	26	3
2023-09-10T06:00	21917	42	-58.0	-87.4	23	3
2023-09-10T06:00	21945	42	-58.0	-87.4	23	3
2023-09-10T06:00	21973	42	-57.9	-87.3	27	3
2023-09-10T06:00	21996	42	-57.8	-87.2	32	3
2023-09-10T06:00	22024	42	-57.6	-87.1	36	3
2023-09-10T06:00	22049	42	-57.4	-86.9	38	4
2023-09-10T06:00	22073	41	-57.3	-87.4	37	4
2023-09-10T06:00	22097	41	-57.2	-87.3	35	4
2023-09-10T06:00	22122	41	-57.1	-87.2	33	4
2023-09-10T06:00	22154	41	-57.0	-87.2	31	4
2023-09-10T06:00	22178	41	-57.0	-86.6	30	5
2023-09-10T06:00	22203	41	-57.0	-86.6	30	5
2023-09-10T06:00	22227	40	-57.1	-86.7	31	5
2023-09-10T06:00	22255	40	-57.2	-86.8	33	6
2023-09-10T06:00	22278	40	-57.2	-86.8	35	6
2023-09-10T06:00	22304	40	-57.0	-86.6	38	6
2023-09-10T06:00	22327	40	-57.1	-86.7	40	5
2023-09-10T06:00	22354	40	-57.1	-86.7	42	5
2023-09-10T06:00	22381	39	-57.1	-86.7	42	5
2023-09-10T06:00	22403	39	-57.1	-86.7	39	4
2023-09-10T06:00	22432	39	-57.0	-86.6	34	4
2023-09-10T06:00	22455	39	-56.9	-87.1	24	4
2023-09-10T06:00	22479	39	-56.7	-86.9	13	4
2023-09-10T06:00	22505	39	-56.6	-86.9	2	4
2023-09-10T06:00	22533	39	-56.5	-86.8	355	4
2023-09-10T06:00	22558	38	-56.5	-86.8	351	5
2023-09-10T06:00	22585	38	-56.4		350	5
2023-09-10T06:00	22612	38	-56.2	-86.6	351	4
2023-09-10T06:00	22633	38	-56.1	-86.5	354	4
2023-09-10T06:00	22659	38	-56.2	-86.6	0	3
2023-09-10T06:00	22688	38	-56.2	-86.6	10	3
2023-09-10T06:00	22714	37	-56.1	-86.5	24	3
2023-09-10T06:00	22739	37	-56.1	-86.5	40	2
2023-09-10T06:00	22769	37	-56.1	-86.5	54	3
2023-09-10T06:00	22795	37	-56.1	-86.5	65	3
2023-09-10T06:00	22823	37	-56.2	-86.6	72	3
2023-09-10T06:00	22846	37	-56.2	-86.6	76	3
2023-09-10T06:00	22871	37	-56.3	-86.6	78	3
2023-09-10T06:00	22896	36	-56.3	-86.6	77	3
2023-09-10T06:00	22923	36	-56.3	-86.6	73	2
2023-09-10T06:00	22953	36	-56.4		65	2
2023-09-10T06:00	22981	36	-56.5	-86.8	54	2
2023-09-10T06:00	23007	36	-56.5	-86.8	45	2
2023-09-10T06:00	23030	36	-56.6	-86.9	39	3
2023-09-10T06:00	23062	35	-56.5	-86.8	34	3
2023-09-10T06:00	23087	35	-56.4		31	4
2023-09-10T06:00	23113	35	-56.5	-86.8	28	4
2023-09-10T06:00	23136	35	-56.6	-86.9	25	5
2023-09-10T06:00	23160	35	-56.7	-86.4	22	6
2023-09-10T06:00	23194	35	-56.7	-86.4	20	6
2023-09-10T06:00	23215	35	-56.8	-86.5	19	7
2023-09-10T06:00	23244	34	-56.7	-86.9	19	7
2023-09-10T06:00	23268	34	-56.6	-86.9	21	8
2023-09-10T06:00	23301	34	-56.6	-86.9	24	8
2023-09-10T06:00	23320	34	-56.6	-86.9	28	9
2023-09-10T06:00	23351	34	-56.4		32	9
2023-09-10T06:00	23377	34	-56.2	-86.6	36	9
2023-09-10T06:00	23405	34	-56.1	-86.5	40	10
2023-09-10T06:00	23429	33	-55.8	-86.9	45	10
2023-09-10T06:00	23451	33	-55.7	-86.8	49	10
2023-09-10T06:00	23479	33	-55.8	-86.9	53	9
2023-09-10T06:00	23512	33	-55.9	-86.3	57	9
2023-09-10T06:00	23529	33	-56.0	-86.4	61	9
2023-09-10T06:00	23558	33	-56.1	-86.5	65	9
2023-09-10T06:00	23589	33	-56.1	-86.5	68	9
2023-09-10T06:00	23619	32	-56.0	-86.4	72	9
2023-09-10T06:00	23644	32	-56.1	-86.5	75	9
2023-09-10T06:00	23666	32	-56.1	-86.5	78	9
2023-09-10T06:00	23693	32	-55.9	-86.3	81	9
2023-09-10T06:00	23717	32	-55.7	-86.2	82	9
2023-09-10T06:00	23755	32	-55.6	-86.7	84	9
2023-09-10T06:00	23782	32	-55.6	-86.7	85	8
2023-09-10T06:00	23806	32	-55.6	-86.7	86	8
2023-09-10T06:00	23838	31	-55.5	-86.7	88	7
2023-09-10T06:00	23859	31	-55.3	-86.5	91	7
2023-09-10T06:00	23889	31	-55.3	-86.5	96	6
2023-09-10T06:00	23914	31	-55.2	-86.4	102	6
2023-09-10T06:00	23939	31	-55.1	-86.4	110	5
2023-09-10T06:00	23974	31	-55.1	-86.4	116	5
2023-09-10T06:00	23997	31	-55.1	-86.4	122	5
2023-09-10T06:00	24026	30	-55.0	-86.3	127	5
2023-09-10T06:00	24043	30	-55.0	-86.3	132	5
2023-09-10T06:00	24080	30	-54.9	-86.2	137	5
2023-09-10T06:00	24101	30	-55.0	-86.3	142	5
2023-09-10T06:00	24133	30	-55.0	-86.3	148	5
2023-09-10T06:00	24153	30	-55.2	-86.4	154	5
2023-09-10T06:00	24194	30	-55.3	-86.5	160	5
2023-09-10T06:00	24218	30	-55.3	-86.5	168	4
2023-09-10T06:00	24245	29	-55.3	-86.5	177	4
2023-09-10T06:00	24270	29	-55.2	-86.4	185	4
2023-09-10T06:00	24292	29	-55.0	-86.3	190	4
2023-09-10T06:00	24329	29	-54.9	-86.2	194	4
2023-09-10T06:00	24355	29	-54.9	-86.2	197	4
2023-09-10T06:00	24378	29	-55.0	-86.3	200	3
2023-09-10T06:00	24404	29	-55.1	-86.4	207	2
2023-09-10T06:00	24437	29	-55.0	-86.3	228	1
2023-09-10T06:00	24453	28	-54.8	-86.1	283	1
2023-09-10T06:00	24485	28	-54.7	-86.1	320	1
2023-09-10T06:00	24517	28	-54.6	-86.0	333	2
2023-09-10T06:00	24547	28	-54.6	-86.0	339	2
2023-09-10T06:00	24569	28	-54.5	-85.9	342	2
2023-09-10T06:00	24594	28	-54.3	-85.8	341	2
2023-09-10T06:00	24618	28	-54.2	-86.4	335	1
2023-09-10T06:00	24648	28	-54.1	-86.3	325	1
2023-09-10T06:00	24680	28	-54.0	-86.2	314	2
2023-09-10T06:00	24701	27	-54.0	-86.2	304	2
2023-09-10T06:00	24736	27	-54.0	-86.2	295	2
2023-09-10T06:00	24762	27	-54.0	-86.2	286	3
2023-09-10T06:00	24793	27	-53.8	-85.4	276	3
2023-09-10T06:00	24818	27	-53.8	-85.4	267	3
2023-09-10T06:00	24851	27	-53.9	-85.5	261	3
2023-09-10T06:00	24867	27	-54.0	-85.5	259	3
2023-09-10T06:00	24906	27	-54.2	-85.7	261	3
2023-09-10T06:00	24930	26	-54.3	-85.8	266	3
2023-09-10T06:00	24953	26	-54.1	-85.6	272	3
2023-09-10T06:00	24984	26	-53.9	-85.5	279	4
2023-09-10T06:00	25013	26	-53.8	-86.1	283	4
2023-09-10T06:00	25039	26	-53.8	-86.1	286	4
2023-09-10T06:00	25065	26	-53.8	-85.4	288	5
2023-09-10T06:00	25092	26	-53.8	-85.4	290	5
2023-09-10T06:00	25129	26	-53.9	-85.5	292	5
2023-09-10T06:00	25150	26	-54.1	-85.6	296	4
2023-09-10T06:00	25174	25	-54.2	-85.7	301	3
2023-09-10T06:00	25204	25	-54.3	-85.8	310	3
2023-09-10T06:00	25237	25	-54.4	-85.8	326	2
2023-09-10T06:00	25272	25	-54.5	-85.9	351	2
2023-09-10T06:00	25283	25	-54.5	-85.9	18	2
2023-09-10T06:00	25320	25	-54.5	-85.9	34	2
2023-09-10T06:00	25353	25	-54.6	-86.0	43	2
2023-09-10T06:00	25374	25	-54.6	-86.0	47	2
2023-09-10T06:00	25402	25	-54.6	-86.0	49	2
2023-09-10T06:00	25432	24	-54.6	-86.0	50	2
2023-09-10T06:00	25462	24	-54.6	-86.0	49	2
2023-09-10T06:00	25489	24	-54.7	-86.1	45	1
2023-09-10T06:00	25518	24	-54.8	-86.1	27	1
2023-09-10T06:00	25540	24	-54.6	-86.0	308	0
2023-09-10T06:00	25572	24	-54.3	-85.8	274	1
2023-09-10T06:00	25603	24	-54.2	-85.7	270	1
2023-09-10T06:00	25637	24	-54.3	-85.8	274	2
2023-09-10T06:00	25657	24	-54.3	-85.8	282	2
2023-09-10T06:00	25693	23	-54.3	-85.8	294	1
2023-09-10T06:00	25719	23	-54.3	-85.8	309	1
2023-09-10T06:00	25748	23	-54.4	-85.8	325	1
2023-09-10T06:00	25776	23	-54.4	-85.8	337	1
2023-09-10T06:00	25800	23	-54.5	-85.9	343	1
2023-09-10T06:00	25839	23	-54.5	-85.9	343	1
2023-09-10T06:00	25866	23	-54.5	-85.9	340	2
2023-09-10T06:00	25893	23	-54.5	-85.9	336	2
2023-09-10T06:00	25926	23	-54.6	-86.0	334	2
2023-09-10T06:00	25952	23	-54.8	-85.5	331	3
2023-09-10T06:00	25978	22	-55.1	-85.8	327	3
2023-09-10T06:00	26000	22	-55.2	-85.8	323	3
2023-09-10T06:00	26032	22	-55.3	-85.9	320	4
2023-09-10T06:00	26067	22	-55.4	-86.0	318	4
2023-09-10T06:00	26096	22	-55.5	-86.1	317	5
2023-09-10T06:00	26120	22	-55.7	-86.8	319	5
2023-09-10T06:00	26150	22	-55.6	-86.7	322	5
2023-09-10T06:00	26174	22	-55.3	-86.5	328	5
2023-09-10T06:00	26204	22	-55.0	-86.3	335	5
2023-09-10T06:00	26237	22	-54.7	-86.7	344	5
2023-09-10T06:00	26256	21	-54.6	-86.7	355	5
2023-09-10T06:00	26289	21	-54.6	-86.7	8	5
2023-09-10T06:00	26325	21	-54.5	-86.6	20	5
2023-09-10T06:00	26349	21	-54.5	-86.6	32	5
2023-09-10T06:00	26379	21	-54.5	-86.6	44	5
2023-09-10T06:00	26415	21	-54.5	-86.6	55	5
2023-09-10T06:00	26436	21	-54.5	-85.9	66	5
2023-09-10T06:00	26469	21	-54.4	-86.5	76	5
2023-09-10T06:00	26497	21	-54.3	-86.4	85	5
2023-09-10T06:00	26519	21	-54.3	-86.4	94	5
2023-09-10T06:00	26551	21	-54.3	-86.4	100	5
2023-09-10T06:00	26579	20	-54.2	-86.4	105	5
2023-09-10T06:00	26601	20	-54.0	-86.2	106	5
2023-09-10T06:00	26643	20	-54.0	-86.2	105	4
2023-09-10T06:00	26664	20	-53.9	-86.2	99	4
2023-09-10T06:00	26694	20	-53.9	-86.2	90	3
2023-09-10T06:00	26723	20	-54.0	-86.2	78	3
2023-09-10T06:00	26754	20	-54.0	-86.2	63	3
2023-09-10T06:00	26784	20	-54.0	-86.2	49	3
2023-09-10T06:00	26817	20	-53.8	-86.1	39	3
2023-09-10T06:00	26838	20	-53.5	-85.9	35	3
2023-09-10T06:00	26871	20	-53.3	-85.7	37	3
2023-09-10T06:00	26907	19	-53.2	-86.4	44	3
2023-09-10T06:00	26926	19	-52.9	-86.2	59	2
2023-09-10T06:00	26963	19	-52.5	-85.9	79	2
2023-09-10T06:00	26986	19	-52.2	-85.7	99	3
2023-09-10T06:00	27012	19	-52.1	-85.6	116	3
2023-09-10T06:00	27038	19	-52.0	-85.5	130	4
2023-09-10T06:00	27070	19	-52.0	-85.5	142	4
2023-09-10T06:00	27100	19	-51.9	-85.5	153	5
2023-09-10T06:00	27125	19	-51.8	-85.4	162	6
2023-09-10T06:00	27161	19	-51.6	-85.2	169	6
2023-09-10T06:00	27207	19	-51.5	-85.2	177	7
2023-09-10T06:00	27218	19	-51.4	-85.1	184	7
2023-09-10T06:00	27253	18	-51.4	-85.1	191	7
2023-09-10T06:00	27280	18	-51.5	-85.2	198	7
2023-09-10T06:00	27310	18	-51.4	-85.1	205	7
2023-09-10T06:00	27338	18	-51.3	-85.0	211	7
2023-09-10T06:00	27360	18	-51.2	-85.0	216	6
2023-09-10T06:00	27402	18	-51.1	-84.9	221	6
2023-09-10T06:00	27432	18	-50.9	-84.7	225	6
2023-09-10T06:00	27467	18	-50.7	-84.6	227	6
2023-09-10T06:00	27503	18	-50.5	-84.5	229	5
2023-09-10T06:00	27527	18	-50.4	-84.4	230	5
2023-09-10T06:00	27562	18	-50.4	-84.4	231	5
2023-09-10T06:00	27587	18	-50.4	-84.4	233	5
2023-09-10T06:00	27623	17	-50.3	-84.3	235	5
2023-09-10T06:00	27644	17	-50.3	-84.3	239	5
2023-09-10T06:00	27669	17	-50.2	-84.2	242	5
2023-09-10T06:00	27701	17	-50.2	-84.2	247	5
2023-09-10T06:00	27732	17	-50.2	-84.2	253	5
2023-09-10T06:00	27757	17	-50.1	-84.2	259	5
2023-09-10T06:00	27794	17	-50.1	-84.2	266	5
2023-09-10T06:00	27828	17	-50.2	-84.2	274	5
2023-09-10T06:00	27849	17	-50.2	-84.2	282	5
2023-09-10T06:00	27873	17	-50.3	-84.3	290	5
2023-09-10T06:00	27905	17	-50.3	-84.3	296	6
2023-09-10T06:00	27935	17	-50.3	-84.3	302	6
2023-09-10T06:00	27973	17	-50.2	-84.2	306	6
2023-09-10T06:00	28002	16	-50.1	-84.2	310	5
2023-09-10T06:00	28030	16	-50.1	-84.2	312	5
2023-09-10T06:00	28062	16	-50.2	-84.2	312	4
2023-09-10T06:00	28089	16	-50.2	-84.2	309	3
2023-09-10T06:00	28116	16	-50.2	-84.2	302	3
2023-09-10T06:00	28139	16	-50.3	-84.3	291	2
2023-09-10T06:00	28170	16	-50.2	-84.2	280	2
2023-09-10T06:00	28205	16	-50.2	-84.2	270	2
2023-09-10T06:00	28233	16	-50.2	-84.2	262	2
2023-09-10T06:00	28261	16	-50.2	-84.2	255	2
2023-09-10T06:00	28290	16	-50.2	-84.2	249	3
2023-09-10T06:00	28309	16	-50.2	-84.2	246	3
2023-09-10T06:00	28338	16	-50.2	-84.2	244	3
2023-09-10T06:00	28369	16	-50.1	-84.2	245	4
2023-09-10T06:00	28402	15	-50.1	-84.2	247	5
2023-09-10T06:00	28430	15	-50.1	-84.2	249	5
2023-09-10T06:00	28465	15	-50.2	-84.2	250	6
2023-09-10T06:00	28494	15	-50.0	-85.0	250	6
2023-09-10T06:00	28523	15	-49.8	-84.8	249	7
2023-09-10T06:00	28548	15	-49.5	-84.6	247	7
2023-09-10T06:00	28576	15	-49.5	-84.6	245	8
2023-09-10T06:00	28605	15	-49.4	-84.6	244	8
2023-09-10T06:00	28645	15	-49.3	-84.5	245	8
2023-09-10T06:00	28681	15	-49.1	-84.3	248	8
2023-09-10T06:00	28688	15	-48.9	-84.2	253	8
2023-09-10T06:00	28723	15	-48.9	-84.2	258	8
2023-09-10T06:00	28749	15	-49.0	-84.3	262	8
2023-09-10T06:00	28782	15	-49.0	-84.3	265	8
2023-09-10T06:00	28812	15	-48.9	-84.2	267	9
2023-09-10T06:00	28837	14	-48.6		267	9
2023-09-10T06:00	28871	14	-48.4	-83.8	267	9
2023-09-10T06:00	28903	14	-48.5	-83.9	267	9
2023-09-10T06:00	28917	14	-48.5	-83.9	267	9
2023-09-10T06:00	28946	14	-48.5	-83.9	267	9
2023-09-10T06:00	28988	14	-48.4	-83.8	268	9
2023-09-10T06:00	29010	14	-48.4	-83.8	269	9
2023-09-10T06:00	29049	14	-48.4	-83.8	270	9
2023-09-10T06:00	29070	14	-48.4	-83.8	271	9
2023-09-10T06:00	29100	14	-48.5	-83.9	271	9
2023-09-10T06:00	29125	14	-48.5	-83.9	272	9
2023-09-10T06:00	29159	14	-48.4	-83.8	274	10
2023-09-10T06:00	29194	14	-48.1	-83.6	277	10
2023-09-10T06:00	29223	14	-47.6	-84.3	281	10
2023-09-10T06:00	29244	14	-47.2	-84.1	286	10
2023-09-10T06:00	29263	14	-47.0	-83.9	292	10
2023-09-10T06:00	29312	13	-47.0	-83.9	298	10
2023-09-10T06:00	29326	13	-47.1	-84.0	304	10
2023-09-10T06:00	29362	13	-47.2	-83.0	310	10
2023-09-10T06:00	29407	13	-47.2	-83.0	315	10
2023-09-10T06:00	29413	13	-47.1	-82.9	319	10
2023-09-10T06:00	29448	13	-47.3	-83.1	323	10
2023-09-10T06:00	29481	13	-47.5	-83.2	327	9
2023-09-10T06:00	29493	13	-47.7	-83.4	330	9
2023-09-10T06:00	29545	13	-47.8	-83.4	333	8
2023-09-10T06:00	29574	13	-47.8	-83.4	336	7
2023-09-10T06:00	29609	13	-47.8	-83.4	339	7
2023-09-10T06:00	29625	13	-47.7	-83.4	342	6
2023-09-10T06:00	29675	13	-47.7	-83.4	347	6
2023-09-10T06:00	29694	13	-47.7	-83.4	352	5
2023-09-10T06:00	29731	13	-47.8	-83.4	356	4
2023-09-10T06:00	29772	13	-47.8	-83.4	357	3
2023-09-10T06:00	29777	13	-47.6	-83.3	349	2
2023-09-10T06:00	29818	12	-47.4	-84.2	321	2
2023-09-10T06:00	29860	12	-47.1	-84.0	285	2
2023-09-10T06:00	29874	12	-46.7	-83.7	268	3
2023-09-10T06:00	29922	12	-46.6	-83.6	263	4
2023-09-10T06:00	29942	12	-46.7	-83.7	262	5
2023-09-10T06:00	29967	12	-46.7	-83.7	262	5
2023-09-10T06:00	29993	12	-46.6	-83.6	262	6
2023-09-10T06:00	30034	12	-46.4	-83.5	262	7
2023-09-10T06:00	30077	12	-46.3	-83.4	261	8
2023-09-10T06:00	30091	12	-46.3	-83.4	260	8
2023-09-10T06:00	30126	12	-46.3	-83.4	260	9
2023-09-10T06:00	30158	12	-46.3	-83.4	261	9
2023-09-10T06:00	30187	12	-46.0	-83.2	262	10
2023-09-10T06:00	30222	12	-45.7	-83.0	264	10
2023-09-10T06:00	30261	12	-45.6	-82.9	266	10
2023-09-10T06:00	30281	12	-45.5	-82.9	268	10
2023-09-10T06:00	30297	12	-45.6	-82.9	271	10
2023-09-10T06:00	30341	12	-45.7	-83.0	274	10
2023-09-10T06:00	30365	11	-45.8	-83.1	277	10
2023-09-10T06:00	30401	11	-45.9	-83.2	279	10
2023-09-10T06:00	30439	11	-45.9	-83.2	281	10
2023-09-10T06:00	30454	11	-45.9	-83.2	282	9
2023-09-10T06:00	30495	11	-46.0	-83.2	283	9
2023-09-10T06:00	30520	11	-46.1	-83.3	283	9
2023-09-10T06:00	30541	11	-46.1	-83.3	283	9
2023-09-10T06:00	30588	11	-46.2	-83.4	284	8
2023-09-10T06:00	30597	11	-46.2	-83.4	286	8
2023-09-10T06:00	30634	11	-46.2	-83.4	289	9
2023-09-10T06:00	30677	11	-46.3	-83.4	291	9
2023-09-10T06:00	30687	11	-46.4	-83.5	293	9
2023-09-10T06:00	30721	11	-46.5	-83.6	293	9
2023-09-10T06:00	30743	11	-46.5	-83.6	292	9
2023-09-10T06:00	30769	11	-46.3	-83.4	290	8
2023-09-10T06:00	30840	11	-46.2	-83.4	288	8
2023-09-10T06:00	30871	11	-46.2	-83.4	285	8
2023-09-10T06:00	30895	11	-46.3	-83.4	285	8
2023-09-10T06:00	30935	11	-46.3	-83.4	286	8
2023-09-10T06:00	30962	11	-46.3	-83.4	287	8
2023-09-10T06:00	30993	10	-46.1	-83.3	287	8
2023-09-10T06:00	31013	10	-45.7	-83.0	287	8
2023-09-10T06:00	31058	10	-45.3	-82.7	287	8
2023-09-10T06:00	31072	10	-45.0	-82.5	286	8
2023-09-10T06:00	31103	10	-44.9	-82.5	286	8
2023-09-10T06:00	31138	10	-44.7	-82.3	286	8
2023-09-10T06:00	31182	10	-44.5	-82.2	287	9
2023-09-10T06:00	31185	10	-44.4	-82.1	287	10
2023-09-10T06:00	31236	10	-44.3	-82.0	288	10
2023-09-10T06:00	31258	10	-44.0	-81.8	289	11
2023-09-10T06:00	31269	10	-43.7	-81.6	290	11
2023-09-10T06:00	31314	10	-43.6	-81.5	291	11
2023-09-10T06:00	31338	10	-43.5	-81.5	291	12
2023-09-10T06:00	31376	10	-43.3	-81.3	292	11
2023-09-10T06:00	31405	10	-43.2	-81.3	292	11
2023-09-10T06:00	31456	10	-43.2	-81.3	293	11
2023-09-10T06:00	31468	10	-43.3	-81.3	294	10
2023-09-10T06:00	31520	10	-43.4	-81.4	296	10
2023-09-10T06:00	31539	10	-43.5	-81.5	298	9
2023-09-10T06:00	31563	10	-43.4	-81.4	301	9
2023-09-10T06:00	31602	10	-43.3	-81.3	302	8
2023-09-10T06:00	31612	10	-43.2	-81.3	303	7
2023-09-10T06:00	31658	9	-43.1	-81.2	303	6
2023-09-10T06:00	31697	9	-43.0	-81.1	302	6
2023-09-10T06:00	31706	9	-42.9	-81.1	302	5
2023-09-10T06:00	31740	9	-42.8	-81.0	302	5
2023-09-10T06:00	31784	9	-42.6	-80.8	302	5
2023-09-10T06:00	31826	9	-42.4	-80.7	302	5
2023-09-10T06:00	31847	9	-42.1	-80.5	302	5
2023-09-10T06:00	31870	9	-42.0	-80.4	301	5
2023-09-10T06:00	31905	9	-42.0	-80.4	298	5
2023-09-10T06:00	31952	9	-41.8	-80.3	295	6
2023-09-10T06:00	31987	9	-41.6	-80.1	291	6
2023-09-10T06:00	32005	9	-41.5	-80.1	288	7
2023-09-10T06:00	32031	9	-41.4	-80.0	284	7
2023-09-10T06:00	32086	9	-41.3	-79.9	281	8
2023-09-10T06:00	32117	9	-41.0	-79.7	278	8
2023-09-10T06:00	32123	9	-40.6	-79.5	275	8
2023-09-10T06:00	32160	9	-40.3	-79.2	272	8
2023-09-10T06:00	32191	9	-40.0	-79.0	270	8
2023-09-10T06:00	32246	9	-39.9	-79.0	269	7
2023-09-10T06:00	32273	9	-39.8	-78.9	268	7
2023-09-10T06:00	32309	9	-39.9	-79.0	268	7
2023-09-10T06:00	32314	9	-40.1	-79.1	268	7
2023-09-10T06:00	32340	9	-40.4	-79.3	266	7
2023-09-10T06:00	32365	9	-40.7	-79.5	265	6
2023-09-10T06:00	32399	8	-40.8	-79.6	263	6
2023-09-10T06:00	32457	8	-41.0	-79.7	264	6
2023-09-10T06:00	32496	8	-41.1	-79.8	266	5
2023-09-10T06:00	32550	8	-41.2	-79.9	278	4
2023-09-10T06:00	32577	8	-41.3	-79.9	286	4
2023-09-10T06:00	32598	8	-41.5	-80.1	295	3
2023-09-10T06:00	32629	8	-41.5	-80.1	305	3
2023-09-10T06:00	32642	8	-41.6	-80.1	316	3
2023-09-10T06:00	32681	8	-41.6	-80.1	327	3
2023-09-10T06:00	32716	8	-41.6	-80.1	337	3
2023-09-10T06:00	32747	8	-41.6	-80.1	344	3
2023-09-10T06:00	32769	8	-41.5	-80.1	348	3
2023-09-10T06:00	32784	8	-41.5	-80.1	349	3
2023-09-10T06:00	32807	8	-41.5	-80.1	351	4
2023-09-10T06:00	32853	8	-41.6	-80.1	352	4
2023-09-10T06:00	32884	8	-41.6	-80.1	354	4
2023-09-10T06:00	32890	8	-41.6	-80.1	356	4
2023-09-10T06:00	32911	8	-41.3	-79.9	359	4
2023-09-10T06:00	32977	8	-41.1	-79.8	0	4
2023-09-10T06:00	32986	8	-41.1	-79.8	0	3
2023-09-10T06:00	33008	8	-40.9	-79.7	359	3
2023-09-10T06:00	33036	8	-40.7	-79.5	354	3
2023-09-10T06:00	33069	8	-40.5	-79.4	345	2
2023-09-10T06:00	33091	8	-40.5	-79.4	326	2
2023-09-10T06:00	33114	8	-40.4	-79.3	290	2
2023-09-10T06:00	33160	8	-40.2	-79.2	258	2
2023-09-10T06:00	33176	8	-40.1	-79.1	243	3
2023-09-10T06:00	33231	8	-39.9	-79.0	236	4
2023-09-10T06:00	33249	8	-39.7	-78.8	232	5
2023-09-10T06:00	33273	7	-39.6	-78.8	229	6
2023-09-10T06:00	33338	7	-39.5	-78.7	227	6
2023-09-10T06:00	33344	7	-39.5	-78.7	226	6
2023-09-10T06:00	33367	7	-39.5	-78.7	225	6
2023-09-10T06:00	33410	7	-39.5	-78.7	224	6
2023-09-10T12:00	112	1005	27.8	13.4	230	2
2023-09-10T12:00	136	1002	26.6	13.0	235	1
2023-09-10T12:00	164	999	26.6	12.6	243	1
2023-09-10T12:00	181	997	26.2	11.9	254	1
2023-09-10T12:00	204	994	26.0	12.1	264	1
2023-09-10T12:00	230	991	25.7	12.1	274	1
2023-09-10T12:00	248	989	25.4	11.9	281	1
2023-09-10T12:00	264	987	25.3	11.9	284	1
2023-09-10T12:00	284	985	25.1	12.0	286	1
2023-09-10T12:00	301	983	25.0	11.8	285	1
2023-09-10T12:00	325	981	24.7	11.6	285	2
2023-09-10T12:00	346	978	24.6	11.5	282	2
2023-09-10T12:00	371	976	24.3	11.7	277	2
2023-09-10T12:00	391	973	24.1	11.3	268	2
2023-09-10T12:00	415	971	23.9	10.9	253	1
2023-09-10T12:00	436	968	23.7	11.0	234	1
2023-09-10T12:00	458	966	23.5	11.2	217	1
2023-09-10T12:00	479	963	23.3	11.1	210	1
2023-09-10T12:00	500	961	23.1	11.1	215	1
2023-09-10T12:00	523	959	22.9	11.1	233	1
2023-09-10T12:00	541	956	22.7	10.8	253	1
2023-09-10T12:00	565	954	22.5	11.0	268	2
2023-09-10T12:00	592	951	22.2	10.9	276	2
2023-09-10T12:00	607	949	22.1	10.5	278	2
2023-09-10T12:00	625	947	21.9	10.3	276	2
2023-09-10T12:00	645	945	21.8	10.4	270	2
2023-09-10T12:00	667	943	21.6	10.3	263	2
2023-09-10T12:00	688	940	21.3	10.7	259	2
2023-09-10T12:00	715	938	21.1	10.0	258	2
2023-09-10T12:00	738	935	20.9	10.7	258	2
2023-09-10T12:00	769	932	20.6	10.4	257	2
2023-09-10T12:00	797	929	20.5	9.9	253	2
2023-09-10T12:00	817	926	20.3	9.8	248	2
2023-09-10T12:00	842	924	20.1	9.5	244	2
2023-09-10T12:00	865	921	19.9	9.4	242	2
2023-09-10T12:00	888	919	19.7	9.8	242	3
2023-09-10T12:00	912	916	19.4	9.5	243	3
2023-09-10T12:00	935	914	19.2	10.0	245	3
2023-09-10T12:00	956	912	19.0	9.9	247	4
2023-09-10T12:00	983	909	18.8	9.8	248	4
2023-09-10T12:00	1013	906	18.6	9.4	248	4
2023-09-10T12:00	1038	903	18.5	8.8	247	5
2023-09-10T12:00	1064	900	18.2	8.5	246	5
2023-09-10T12:00	1088	898	18.0	8.5	246	6
2023-09-10T12:00	1105	896	17.8	8.4	247	6
2023-09-10T12:00	1125	894	17.7	8.4	251	6
2023-09-10T12:00	1147	892	17.5	8.4	255	5
2023-09-10T12:00	1169	889	17.3	8.6	260	5
2023-09-10T12:00	1198	887	17.0	8.4	262	4
2023-09-10T12:00	1219	884	16.9	8.3	260	4
2023-09-10T12:00	1243	882	16.7	7.8	255	5
2023-09-10T12:00	1269	879	16.5	7.8	250	5
2023-09-10T12:00	1301	876	16.2	7.5	246	6
2023-09-10T12:00	1323	873	16.0	7.6	243	6
2023-09-10T12:00	1349	871	15.7	7.3	242	7
2023-09-10T12:00	1378	868	15.6	6.8	242	8
2023-09-10T12:00	1405	865	15.4	7.2	241	8
2023-09-10T12:00	1430	863	15.2	7.4	241	9
2023-09-10T12:00	1453	860	14.9	7.8	240	9
2023-09-10T12:00	1486	857	14.7	7.9	238	10
2023-09-10T12:00	1510	855	14.4	7.8	237	9
2023-09-10T12:00	1527	852	14.3	8.0	236	9
2023-09-10T12:00	1557	850	14.0	7.8	236	8
2023-09-10T12:00	1587	847	14.3	2.8	238	7
2023-09-10T12:00	1613	844	15.3	-3.6	242	6
2023-09-10T12:00	1640	841	14.9	-2.9	248	5
2023-09-10T12:00	1667	839	15.0	-4.6	256	4
2023-09-10T12:00	1692	836	14.9	-6.1	262	4
2023-09-10T12:00	1713	834	14.9	-7.3	265	3
2023-09-10T12:00	1737	832	14.8	-8.2	265	3
2023-09-10T12:00	1758	830	15.0	-11.7	264	3
2023-09-10T12:00	1779	828	14.9	-12.1	264	2
2023-09-10T12:00	1796	826	15.4	-16.7	267	2
2023-09-10T12:00	1829	823	15.5	-17.0	276	2
2023-09-10T12:00	1857	820	15.6	-18.1	285	2
2023-09-10T12:00	1884	817	15.8	-19.4	293	2
2023-09-10T12:00	1909	815	15.9	-20.0	298	2
2023-09-10T12:00	1939	812	15.9	-21.6	301	2
2023-09-10T12:00	1958	810	15.7	-21.7	303	2
2023-09-10T12:00	1982	808	15.5	-22.1	302	1
2023-09-10T12:00	2003	806	15.5	-22.7	301	1
2023-09-10T12:00	2021	804	15.5	-23.0	301	1
2023-09-10T12:00	2048	802	15.5	-22.7	302	1
2023-09-10T12:00	2069	800	15.4	-22.8	301	1
2023-09-10T12:00	2090	798	15.4	-23.0	295	2
2023-09-10T12:00	2107	796	15.4	-22.6	284	2
2023-09-10T12:00	2136	793	15.3	-22.9	270	2
2023-09-10T12:00	2160	791	15.2	-22.3	257	2
2023-09-10T12:00	2181	789	15.2	-22.1	245	3
2023-09-10T12:00	2203	787	15.2	-21.6	234	3
2023-09-10T12:00	2226	785	15.0	-21.6	223	3
2023-09-10T12:00	2248	783	14.9	-21.6	214	3
2023-09-10T12:00	2264	781	14.9	-21.6	208	3
2023-09-10T12:00	2284	779	14.8	-21.3	206	3
2023-09-10T12:00	2316	777	14.6	-20.9	209	2
2023-09-10T12:00	2333	775	14.6	-21.3	213	2
2023-09-10T12:00	2349	773	14.5	-21.5	216	2
2023-09-10T12:00	2374	771	14.3	-21.7	215	2
2023-09-10T12:00	2403	769	14.2	-22.1	211	2
2023-09-10T12:00	2420	767	14.0	-20.9	210	2
2023-09-10T12:00	2444	765	13.9	-21.0	211	3
2023-09-10T12:00	2471	762	13.7	-21.1	215	3
2023-09-10T12:00	2496	760	13.5	-19.7	222	3
2023-09-10T12:00	2523	758	13.3	-16.2	228	4
2023-09-10T12:00	2548	756	13.2	-18.7	234	4
2023-09-10T12:00	2569	754	13.1	-17.7	238	4
2023-09-10T12:00	2590	752	12.9	-17.6	241	4
2023-09-10T12:00	2615	750	12.8	-18.1	243	4
2023-09-10T12:00	2635	748	12.6	-17.8	245	4
2023-09-10T12:00	2661	745	12.4	-18.2	247	4
2023-09-10T12:00	2689	743	12.4	-20.3	246	3
2023-09-10T12:00	2708	741	12.3	-19.7	242	3
2023-09-10T12:00	2727	739	12.1	-18.3	236	3
2023-09-10T12:00	2756	737	11.9	-19.2	229	4
2023-09-10T12:00	2788	734	11.7	-20.0	222	4
2023-09-10T12:00	2817	732	11.6	-20.4	215	4
2023-09-10T12:00	2840	730	11.5	-20.6	212	3
2023-09-10T12:00	2863	728	11.3	-20.4	211	3
2023-09-10T12:00	2887	725	11.2	-20.9	214	3
2023-09-10T12:00	2917	723	11.0	-21.4	219	3
2023-09-10T12:00	2944	721	10.9	-21.4	224	3
2023-09-10T12:00	2970	718	10.7	-21.6	227	3
2023-09-10T12:00	2994	716	10.6	-21.3	229	3
2023-09-10T12:00	3019	714	10.4	-21.2	232	3
2023-09-10T12:00	3053	711	10.1	-21.1	237	3
2023-09-10T12:00	3076	709	10.0	-21.2	245	3
2023-09-10T12:00	3098	707	9.9	-23.0	252	3
2023-09-10T12:00	3115	706	9.8	-26.3	254	3
2023-09-10T12:00	3134	704	9.7	-25.7	252	3
2023-09-10T12:00	3157	702	9.6	-24.1	247	3
2023-09-10T12:00	3183	700	9.3	-22.7	240	3
2023-09-10T12:00	3208	698	9.1	-23.8	233	2
2023-09-10T12:00	3229	696	8.9	-22.1	226	2
2023-09-10T12:00	3251	694	8.7	-21.2	221	2
2023-09-10T12:00	3275	692	8.5	-21.7	217	2
2023-09-10T12:00	3305	690	8.3	-22.5	216	2
2023-09-10T12:00	3329	688	8.1	-22.9	214	2
2023-09-10T12:00	3353	686	8.0	-23.9	210	2
2023-09-10T12:00	3371	684	7.8	-24.8	204	2
2023-09-10T12:00	3398	682	7.6	-24.5	197	2
2023-09-10T12:00	3426	680	7.4	-24.6	193	3
2023-09-10T12:00	3442	678	7.3	-24.8	194	3
2023-09-10T12:00	3462	677	7.2	-26.4	199	3
2023-09-10T12:00	3482	675	7.2	-25.2	206	3
2023-09-10T12:00	3513	673	6.9	-17.8	211	3
2023-09-10T12:00	3537	671	6.7	-18.9	212	3
2023-09-10T12:00	3568	668	6.6	-26.7	211	3
2023-09-10T12:00	3595	666	6.4	-26.4	207	3
2023-09-10T12:00	3619	664	6.3	-23.6	201	2
2023-09-10T12:00	3646	662	6.0	-21.6	195	2
2023-09-10T12:00	3667	660	5.8	-18.2	196	1
2023-09-10T12:00	3684	659	5.6	-16.9	218	1
2023-09-10T12:00	3705	657	5.4	-16.3	252	1
2023-09-10T12:00	3734	655	5.2	-15.9	268	2
2023-09-10T12:00	3750	653	5.0	-15.8	274	2
2023-09-10T12:00	3776	651	4.7	-16.1	275	3
2023-09-10T12:00	3806	649	4.6	-16.8	273	3
2023-09-10T12:00	3829	647	4.4	-16.8	266	3
2023-09-10T12:00	3858	645	4.1	-16.6	255	3
2023-09-10T12:00	3882	643	3.9	-16.7	245	3
2023-09-10T12:00	3903	641	3.7	-16.7	240	3
2023-09-10T12:00	3927	639	3.5	-16.7	242	3
2023-09-10T12:00	3945	638	3.3	-16.9	246	3
2023-09-10T12:00	3968	636	3.1	-17.2	250	2
2023-09-10T12:00	3990	634	2.9	-17.4	249	2
2023-09-10T12:00	4014	632	2.7	-17.9	241	2
2023-09-10T12:00	4038	631	2.5	-18.0	231	2
2023-09-10T12:00	4061	629	2.3	-17.4	228	2
2023-09-10T12:00	4082	627	2.1	-17.2	229	2
2023-09-10T12:00	4107	625	1.8	-17.6	234	2
2023-09-10T12:00	4134	623	1.6	-17.8	240	2
2023-09-10T12:00	4161	621	1.5	-19.1	248	2
2023-09-10T12:00	4188	619	1.4	-20.1	258	2
2023-09-10T12:00	4214	617	1.2	-20.2	268	3
2023-09-10T12:00	4252	614	1.1	-20.9	277	3
2023-09-10T12:00	4270	613	0.9	-21.1	282	4
2023-09-10T12:00	4287	611	0.8	-21.4	285	4
2023-09-10T12:00	4303	610	0.6	-21.6	287	5
2023-09-10T12:00	4322	609	0.5	-21.7	289	5
2023-09-10T12:00	4339	607	0.4	-21.7	290	5
2023-09-10T12:00	4357	606	0.2	-22.1	291	4
2023-09-10T12:00	4377	604	0.1	-22.6	292	4
2023-09-10T12:00	4404	603	-0.1	-24.1	293	3
2023-09-10T12:00	4431	600	-0.3	-24.2	292	3
2023-09-10T12:00	4456	599	-0.6	-23.6	289	3
2023-09-10T12:00	4473	597	-0.7	-24.3	287	3
2023-09-10T12:00	4489	596	-0.8	-23.9	287	3
2023-09-10T12:00	4506	595	-1.0	-23.0	289	4
2023-09-10T12:00	4525	593	-1.1	-23.6	293	4
2023-09-10T12:00	4547	592	-1.3	-22.8	295	5
2023-09-10T12:00	4571	590	-1.5	-22.9	297	5
2023-09-10T12:00	4600	588	-1.7	-23.1	297	6
2023-09-10T12:00	4635	586	-1.9	-23.1	296	6
2023-09-10T12:00	4654	584	-2.0	-24.0	295	6
2023-09-10T12:00	4674	582	-2.0	-23.9	295	6
2023-09-10T12:00	4694	581	-2.1	-24.4	297	5
2023-09-10T12:00	4715	580	-2.1	-25.4	299	5
2023-09-10T12:00	4735	578	-2.1	-26.7	302	5
2023-09-10T12:00	4759	576	-2.1	-27.6	305	5
2023-09-10T12:00	4783	574	-2.2	-27.9	309	5
2023-09-10T12:00	4811	572	-2.3	-27.7	311	6
2023-09-10T12:00	4843	570	-2.4	-29.1	312	6
2023-09-10T12:00	4870	568	-2.4	-30.6	312	7
2023-09-10T12:00	4887	567	-2.5	-31.3	311	7
2023-09-10T12:00	4909	565	-2.6	-31.9	310	7
2023-09-10T12:00	4926	564	-2.8	-32.3	310	7
2023-09-10T12:00	4946	563	-2.9	-32.5	310	7
2023-09-10T12:00	4966	561	-2.9	-33.6	311	6
2023-09-10T12:00	4983	560	-3.0	-33.9	310	6
2023-09-10T12:00	5011	558	-3.1	-34.5	309	5
2023-09-10T12:00	5040	556	-3.2	-34.8	307	5
2023-09-10T12:00	5062	555	-3.3	-34.8	305	6
2023-09-10T12:00	5080	553	-3.4	-34.9	304	6
2023-09-10T12:00	5107	551	-3.6	-35.1	303	6
2023-09-10T12:00	5134	549	-3.8	-34.7	303	6
2023-09-10T12:00	5167	547	-4.1	-34.7	303	6
2023-09-10T12:00	5193	545	-4.3	-34.7	303	6
2023-09-10T12:00	5211	544	-4.4	-34.8	305	6
2023-09-10T12:00	5230	543	-4.6	-35.0	307	6
2023-09-10T12:00	5248	542	-4.7	-35.0	310	6
2023-09-10T12:00	5270	540	-4.9	-35.0	313	6
2023-09-10T12:00	5297	538	-5.1	-33.5	314	6
2023-09-10T12:00	5325	536	-5.3	-29.6	314	6
2023-09-10T12:00	5351	535	-5.5	-29.1	312	6
2023-09-10T12:00	5371	533	-5.7	-29.5	311	7
2023-09-10T12:00	5394	532	-5.9	-29.5	310	7
2023-09-10T12:00	5423	530	-6.2	-27.6	311	7
2023-09-10T12:00	5448	528	-6.1	-27.8	313	7
2023-09-10T12:00	5467	527	-6.2	-27.7	316	7
2023-09-10T12:00	5500	524	-6.4	-27.2	318	7
2023-09-10T12:00	5533	522	-6.7	-26.6	319	7
2023-09-10T12:00	5554	521	-6.8	-26.6	318	7
2023-09-10T12:00	5569	520	-7.0	-27.0	316	8
2023-09-10T12:00	5590	518	-7.1	-27.6	313	8
2023-09-10T12:00	5616	517	-7.3	-28.4	309	8
2023-09-10T12:00	5642	515	-7.5	-28.9	304	8
2023-09-10T12:00	5676	513	-7.7	-29.2	301	9
2023-09-10T12:00	5704	511	-7.9	-29.4	298	9
2023-09-10T12:00	5734	509	-8.1	-30.1	295	9
2023-09-10T12:00	5758	507	-8.3	-31.7	294	9
2023-09-10T12:00	5784	506	-8.4		292	8
2023-09-10T12:00	5811	504	-8.4	-35.7	292	8
2023-09-10T12:00	5836	502	-8.5	-34.7	292	8
2023-09-10T12:00	5864	500	-8.7	-31.6	292	8
2023-09-10T12:00	5893	499	-8.9	-33.5	293	8
2023-09-10T12:00	5923	497	-9.2	-32.5	292	8
2023-09-10T12:00	5953	495	-9.4	-32.8	291	8
2023-09-10T12:00	5984	493	-9.7	-34.5	289	7
2023-09-10T12:00	6007	491	-9.9	-34.5	288	7
2023-09-10T12:00	6027	490	-10.1	-33.9	287	7
2023-09-10T12:00	6045	489	-10.3	-32.5	288	6
2023-09-10T12:00	6065	488	-10.4	-32.2	290	6
2023-09-10T12:00	6084	486	-10.6	-32.4	292	6
2023-09-10T12:00	6101	485	-10.8	-32.4	294	6
2023-09-10T12:00	6121	484	-10.9	-32.5	294	6
2023-09-10T12:00	6139	483	-11.1	-32.7	295	6
2023-09-10T12:00	6157	482	-11.3	-32.7	295	6
2023-09-10T12:00	6178	480	-11.4	-31.8	294	6
2023-09-10T12:00	6209	479	-11.7	-31.2	293	6
2023-09-10T12:00	6248	476	-12.0	-31.3	291	6
2023-09-10T12:00	6270	475	-12.2	-31.6	289	5
2023-09-10T12:00	6290	473	-12.4	-31.3	288	5
2023-09-10T12:00	6321	472	-12.7	-31.4	288	5
2023-09-10T12:00	6350	470	-13.0	-31.9	287	5
2023-09-10T12:00	6375	468	-13.2	-32.5	286	5
2023-09-10T12:00	6403	467	-13.5	-33.1	283	5
2023-09-10T12:00	6420	465	-13.6	-33.0	279	5
2023-09-10T12:00	6440	464	-13.8	-32.1	275	5
2023-09-10T12:00	6459	463	-14.0	-31.8	273	5
2023-09-10T12:00	6478	462	-14.1	-31.7	272	5
2023-09-10T12:00	6496	461	-14.1	-32.3	272	5
2023-09-10T12:00	6514	460	-14.2	-32.5	274	5
2023-09-10T12:00	6534	459	-14.3	-32.6	275	5
2023-09-10T12:00	6553	457	-14.4	-32.5	275	5
2023-09-10T12:00	6581	456	-14.6	-32.9	274	6
2023-09-10T12:00	6611	454	-14.7	-34.2	271	6
2023-09-10T12:00	6637	452	-14.9	-34.5	269	6
2023-09-10T12:00	6669	451	-15.0	-34.9	269	6
2023-09-10T12:00	6696	449	-15.1	-35.3	271	6
2023-09-10T12:00	6724	447	-15.3	-35.3	277	6
2023-09-10T12:00	6752	446	-15.4	-36.1	283	7
2023-09-10T12:00	6779	444	-15.5	-37.5	287	7
2023-09-10T12:00	6811	442	-15.8	-37.2	288	8
2023-09-10T12:00	6832	441	-16.0	-37.0	286	9
2023-09-10T12:00	6862	439	-16.3	-36.8	282	9
2023-09-10T12:00	6889	438	-16.5	-37.0	276	9
2023-09-10T12:00	6913	436	-16.7	-37.1	270	9
2023-09-10T12:00	6945	434	-17.0	-36.8	266	9
2023-09-10T12:00	6976	433	-17.2	-35.6	264	9
2023-09-10T12:00	7004	431	-17.4	-36.3	264	8
2023-09-10T12:00	7033	429	-17.7	-36.5	267	8
2023-09-10T12:00	7068	427	-18.0	-36.1	271	8
2023-09-10T12:00	7098	425	-18.3	-36.3	274	8
2023-09-10T12:00	7128	424	-18.5	-36.5	276	8
2023-09-10T12:00	7157	422	-18.8		276	8
2023-09-10T12:00	7185	421	-19.0	-36.7	276	8
2023-09-10T12:00	7211	419	-19.2	-36.9	275	8
2023-09-10T12:00	7246	417	-19.5	-36.8	275	8
2023-09-10T12:00	7272	416	-19.7	-36.7	274	8
2023-09-10T12:00	7301	414	-20.0	-37.9	272	8
2023-09-10T12:00	7337	412	-20.3	-38.5	270	8
2023-09-10T12:00	7369	410	-20.4	-40.2	268	9
2023-09-10T12:00	7391	409	-20.6	-39.6	268	9
2023-09-10T12:00	7415	408	-20.7	-38.1	270	10
2023-09-10T12:00	7442	406	-20.9	-38.3	272	11
2023-09-10T12:00	7473	405	-21.0	-39.3	274	11
2023-09-10T12:00	7502	403	-21.2	-40.2	273	12
2023-09-10T12:00	7530	401	-21.4	-42.9	272	12
2023-09-10T12:00	7557	400	-21.5	-42.9	270	12
2023-09-10T12:00	7588	398	-21.7	-43.2	269	11
2023-09-10T12:00	7614	397	-21.8	-44.3	270	11
2023-09-10T12:00	7641	395	-21.9	-44.8	273	12
2023-09-10T12:00	7671	394	-22.1	-44.8	275	12
2023-09-10T12:00	7699	392	-22.3	-44.6	278	12
2023-09-10T12:00	7731	391	-22.6	-44.6	280	11
2023-09-10T12:00	7764	389	-22.9	-44.6	282	11
2023-09-10T12:00	7796	387	-23.1	-45.9	285	11
2023-09-10T12:00	7831	385	-23.3	-46.9	287	11
2023-09-10T12:00	7862	384	-23.6	-46.9	290	11
2023-09-10T12:00	7890	382	-23.8	-46.9	292	11
2023-09-10T12:00	7921	381	-24.1	-46.9	292	12
2023-09-10T12:00	7951	379	-24.4	-47.0	293	12
2023-09-10T12:00	7978	378	-24.6	-47.2	293	13
2023-09-10T12:00	8010	376	-24.9	-48.1	293	13
2023-09-10T12:00	8038	374	-25.1	-48.3	293	13
2023-09-10T12:00	8067	373	-25.3	-48.3	293	13
2023-09-10T12:00	8099	371	-25.6	-48.5	293	12
2023-09-10T12:00	8129	370	-25.8	-48.7	292	12
2023-09-10T12:00	8154	368	-26.0	-48.7	291	11
2023-09-10T12:00	8182	367	-26.3	-48.8	289	10
2023-09-10T12:00	8211	366	-26.5	-48.7	287	10
2023-09-10T12:00	8242	364	-26.7	-48.3	285	10
2023-09-10T12:00	8269	363	-27.0	-48.2	283	10
2023-09-10T12:00	8297	361	-27.2	-48.1	283	10
2023-09-10T12:00	8329	360	-27.5	-48.1	283	11
2023-09-10T12:00	8356	358	-27.7	-49.0	284	11
2023-09-10T12:00	8386	357	-27.9	-48.4	285	12
2023-09-10T12:00	8418	355	-28.2	-48.2	286	12
2023-09-10T12:00	8452	354	-28.5	-48.4	288	12
2023-09-10T12:00	8481	352	-28.8	-48.7	290	12
2023-09-10T12:00	8510	351	-29.0	-48.8	292	12
2023-09-10T12:00	8541	349	-29.3	-49.0	293	12
2023-09-10T12:00	8574	348	-29.6	-48.7	294	12
2023-09-10T12:00	8602	346	-29.9	-48.7	293	12
2023-09-10T12:00	8638	344	-30.2	-47.7	291	12
2023-09-10T12:00	8670	343	-30.5	-47.7	289	12
2023-09-10T12:00	8690	342	-30.7	-47.1	287	12
2023-09-10T12:00	8708	341	-30.9	-46.6	286	12
2023-09-10T12:00	8727	340	-31.0	-46.5	285	12
2023-09-10T12:00	8746	339	-31.2	-46.6	284	12
2023-09-10T12:00	8765	338	-31.3	-46.7	283	12
2023-09-10T12:00	8790	337	-31.5	-46.6	282	11
2023-09-10T12:00	8815	336	-31.7	-46.7	280	11
2023-09-10T12:00	8844	335	-31.9	-47.0	279	11
2023-09-10T12:00	8870	333	-32.1	-48.1	278	11
2023-09-10T12:00	8902	332	-32.3	-48.4	278	11
2023-09-10T12:00	8930	331	-32.4	-48.6	278	11
2023-09-10T12:00	8962	329	-32.7	-49.0	278	11
2023-09-10T12:00	8986	328	-32.8	-49.2	278	11
2023-09-10T12:00	9013	327	-33.0	-49.4	278	11
2023-09-10T12:00	9042	325	-33.2	-49.3	278	12
2023-09-10T12:00	9071	324	-33.4	-49.3	277	12
2023-09-10T12:00	9104	323	-33.6	-48.5	278	12
2023-09-10T12:00	9131	321	-33.8	-48.0	278	12
2023-09-10T12:00	9158	320	-33.9	-48.8	279	12
2023-09-10T12:00	9184	319	-34.1	-51.2	279	12
2023-09-10T12:00	9212	318	-34.3	-51.6	279	12
2023-09-10T12:00	9240	316	-34.5	-52.2	279	11
2023-09-10T12:00	9276	315	-34.8	-52.4	279	11
2023-09-10T12:00	9307	313	-35.1	-52.5	279	11
2023-09-10T12:00	9335	312	-35.3	-52.8	278	11
2023-09-10T12:00	9363	311	-35.5	-53.1	278	11
2023-09-10T12:00	9389	310	-35.8	-52.9	278	11
2023-09-10T12:00	9415	308	-36.0	-52.8	278	11
2023-09-10T12:00	9439	307	-36.2	-51.6	278	12
2023-09-10T12:00	9465	306	-36.5	-51.0	278	12
2023-09-10T12:00	9496	305	-36.8	-51.1	278	12
2023-09-10T12:00	9523	304	-37.0	-52.7	279	12
2023-09-10T12:00	9548	303	-37.2	-53.3	279	12
2023-09-10T12:00	9573	302	-37.4	-52.8	279	12
2023-09-10T12:00	9599	300	-37.7	-53.0	279	11
2023-09-10T12:00	9627	299	-37.9	-53.2	279	11
2023-09-10T12:00	9658	298	-38.2	-53.2	278	12
2023-09-10T12:00	9689	296	-38.5	-53.2	277	12
2023-09-10T12:00	9716	295	-38.6	-53.5	277	12
2023-09-10T12:00	9747	294	-38.9	-52.0	277	12
2023-09-10T12:00	9775	293	-39.1	-51.4	277	12
2023-09-10T12:00	9808	291	-39.4	-51.3	277	12
2023-09-10T12:00	9837	290	-39.5	-51.7	277	12
2023-09-10T12:00	9864	289	-39.7	-52.3	276	12
2023-09-10T12:00	9894	288	-39.9	-52.5	275	13
2023-09-10T12:00	9922	287	-40.1	-52.5	274	13
2023-09-10T12:00	9949	285	-40.3	-52.5	272	14
2023-09-10T12:00	9974	284	-40.5	-52.3	271	14
2023-09-10T12:00	9996	283	-40.6	-52.0	270	14
2023-09-10T12:00	10018	283	-40.8	-52.0	270	15
2023-09-10T12:00	10040	282	-41.0	-52.1	271	15
2023-09-10T12:00	10063	281	-41.3	-52.3	272	15
2023-09-10T12:00	10092	280	-41.5	-52.3	273	15
2023-09-10T12:00	10119	278	-41.7	-52.5	275	15
2023-09-10T12:00	10144	277	-41.9	-52.8	277	15
2023-09-10T12:00	10167	276	-42.1		278	15
2023-09-10T12:00	10192	275	-42.3	-52.8	279	15
2023-09-10T12:00	10220	274	-42.6	-52.9	279	15
2023-09-10T12:00	10249	273	-42.8	-52.9	278	15
2023-09-10T12:00	10280	272	-43.1	-52.9	278	15
2023-09-10T12:00	10304	271	-43.3	-53.0	277	15
2023-09-10T12:00	10327	270	-43.5	-53.2	277	15
2023-09-10T12:00	10348	269	-43.7	-53.5	277	15
2023-09-10T12:00	10369	268	-43.8	-53.5	278	15
2023-09-10T12:00	10389	267	-44.0	-53.6	279	15
2023-09-10T12:00	10408	267	-44.1	-53.8	279	15
2023-09-10T12:00	10426	266	-44.3	-53.9	280	15
2023-09-10T12:00	10447	265	-44.4	-53.9	280	15
2023-09-10T12:00	10467	264	-44.6	-54.0	281	15
2023-09-10T12:00	10485	264	-44.8	-54.2	281	16
2023-09-10T12:00	10506	263	-44.9	-54.3	282	16
2023-09-10T12:00	10525	262	-45.1	-54.3	283	16
2023-09-10T12:00	10544	261	-45.3	-54.4	284	16
2023-09-10T12:00	10565	261	-45.4	-54.4	285	17
2023-09-10T12:00	10582	260	-45.6	-54.5	285	17
2023-09-10T12:00	10602	259	-45.7	-54.5	286	17
2023-09-10T12:00	10622	258	-45.9	-54.6	286	17
2023-09-10T12:00	10640	258	-46.0	-54.6	286	17
2023-09-10T12:00	10660	257	-46.2	-54.8	286	17
2023-09-10T12:00	10678	256	-46.3	-54.9	286	17
2023-09-10T12:00	10700	255	-46.4	-55.1	286	17
2023-09-10T12:00	10719	255	-46.6	-55.4	285	17
2023-09-10T12:00	10738	254	-46.7	-55.5	285	17
2023-09-10T12:00	10759	253	-46.9	-55.6	285	17
2023-09-10T12:00	10778	252	-47.0	-55.4	285	17
2023-09-10T12:00	10799	251	-47.2	-55.5	284	17
2023-09-10T12:00	10818	251	-47.3	-55.6	283	17
2023-09-10T12:00	10838	250	-47.4	-55.9	282	17
2023-09-10T12:00	10859	249	-47.6	-56.3	282	17
2023-09-10T12:00	10879	248	-47.7	-56.6	281	17
2023-09-10T12:00	10900	248	-47.9	-57.1	281	17
2023-09-10T12:00	10918	247	-48.1	-57.7	281	17
2023-09-10T12:00	10938	246	-48.3	-57.8	281	17
2023-09-10T12:00	10957	245	-48.4	-57.8	282	17
2023-09-10T12:00	10977	245	-48.5	-57.7	282	17
2023-09-10T12:00	10996	244	-48.7	-57.6	282	17
2023-09-10T12:00	11018	243	-48.9	-57.6	282	17
2023-09-10T12:00	11040	242	-49.0	-57.7	282	17
2023-09-10T12:00	11059	242	-49.1	-57.7	282	17
2023-09-10T12:00	11079	241	-49.3	-57.8	282	17
2023-09-10T12:00	11099	240	-49.4	-57.7	282	17
2023-09-10T12:00	11118	240	-49.6	-57.7	282	17
2023-09-10T12:00	11139	239	-49.8	-58.0	282	17
2023-09-10T12:00	11160	238	-49.8	-58.3	281	17
2023-09-10T12:00	11180	237	-50.0	-58.6	281	17
2023-09-10T12:00	11199	237	-50.2	-58.7	280	17
2023-09-10T12:00	11221	236	-50.3	-58.8	280	17
2023-09-10T12:00	11240	235	-50.4	-58.9	280	17
2023-09-10T12:00	11263	234	-50.5	-59.1	280	17
2023-09-10T12:00	11281	234	-50.7	-59.2	281	17
2023-09-10T12:00	11302	233	-50.9	-59.4	282	18
2023-09-10T12:00	11321	232	-51.0	-59.4	282	18
2023-09-10T12:00	11342	231	-51.2	-59.5	282	18
2023-09-10T12:00	11361	231	-51.4	-59.6	282	18
2023-09-10T12:00	11383	230	-51.5	-59.7	282	18
2023-09-10T12:00	11402	229	-51.6	-60.0	281	17
2023-09-10T12:00	11424	229	-51.6	-60.2	281	17
2023-09-10T12:00	11444	228	-51.7	-60.3	280	17
2023-09-10T12:00	11463	227	-51.9		280	17
2023-09-10T12:00	11482	227	-52.0	-60.4	279	17
2023-09-10T12:00	11503	226	-52.2	-60.5	278	18
2023-09-10T12:00	11523	225	-52.3	-60.4	277	18
2023-09-10T12:00	11545	224	-52.5	-60.4	277	18
2023-09-10T12:00	11565	224	-52.7	-60.5	277	18
2023-09-10T12:00	11583	223	-52.8	-60.4	277	18
2023-09-10T12:00	11604	222	-53.0	-60.5	278	18
2023-09-10T12:00	11622	222	-53.1	-60.5	278	18
2023-09-10T12:00	11642	221	-53.3	-60.7	278	18
2023-09-10T12:00	11662	220	-53.5	-60.9	277	18
2023-09-10T12:00	11683	220	-53.6	-60.9	276	18
2023-09-10T12:00	11703	219	-53.8		275	17
2023-09-10T12:00	11724	218	-53.9	-61.1	274	17
2023-09-10T12:00	11743	218	-54.0	-61.1	273	17
2023-09-10T12:00	11762	217	-54.2	-61.3	272	17
2023-09-10T12:00	11784	216	-54.3	-61.5	271	17
2023-09-10T12:00	11806	215	-54.5	-61.8	271	17
2023-09-10T12:00	11824	215	-54.7	-62.1	272	17
2023-09-10T12:00	11845	214	-54.8	-62.5	272	17
2023-09-10T12:00	11863	213	-54.9	-63.2	274	17
2023-09-10T12:00	11886	213	-54.8	-63.6	275	18
2023-09-10T12:00	11906	212	-54.9	-64.0	275	18
2023-09-10T12:00	11924	211	-54.8	-64.2	276	18
2023-09-10T12:00	11947	211	-55.0	-64.4	276	18
2023-09-10T12:00	11968	210	-55.1	-64.4	276	19
2023-09-10T12:00	11988	209	-55.2	-64.5	276	19
2023-09-10T12:00	12010	209	-55.5	-64.7	276	19
2023-09-10T12:00	12027	208	-55.6	-64.6	276	19
2023-09-10T12:00	12048	207	-55.8	-64.7	277	19
2023-09-10T12:00	12067	207	-55.9	-64.8	277	18
2023-09-10T12:00	12086	206	-56.1	-65.0	277	18
2023-09-10T12:00	12107	206	-56.2	-65.1	277	18
2023-09-10T12:00	12125	205	-56.3	-65.1	277	18
2023-09-10T12:00	12145	204	-56.4	-64.9	277	18
2023-09-10T12:00	12165	204	-56.5	-64.7	276	19
2023-09-10T12:00	12186	203	-56.6	-64.8	276	19
2023-09-10T12:00	12206	202	-56.6	-65.2	276	20
2023-09-10T12:00	12226	202	-56.7	-65.9	276	20
2023-09-10T12:00	12244	201	-56.7	-66.0	276	20
2023-09-10T12:00	12266	200	-56.7	-65.2	276	20
2023-09-10T12:00	12283	200	-56.8	-64.3	275	20
2023-09-10T12:00	12305	199	-56.8	-63.5	275	20
2023-09-10T12:00	12326	199	-57.0	-63.4	275	20
2023-09-10T12:00	12346	198	-57.1	-63.4	275	20
2023-09-10T12:00	12366	197	-57.3	-63.7	275	20
2023-09-10T12:00	12387	197	-57.4	-63.8	275	20
2023-09-10T12:00	12405	196	-57.6	-63.6	276	20
2023-09-10T12:00	12423	195	-57.7	-63.2	276	20
2023-09-10T12:00	12444	195	-57.8	-63.1	277	20
2023-09-10T12:00	12463	194	-57.9	-63.3	277	20
2023-09-10T12:00	12483	194	-58.1	-63.6	277	20
2023-09-10T12:00	12504	193	-58.2	-63.7	277	20
2023-09-10T12:00	12523	192	-58.4	-63.9	277	20
2023-09-10T12:00	12544	192	-58.5	-63.9	277	20
2023-09-10T12:00	12565	191	-58.7	-64.2	277	20
2023-09-10T12:00	12586	190	-58.7	-64.3	276	20
2023-09-10T12:00	12607	190	-58.8	-64.5	276	20
2023-09-10T12:00	12629	189	-58.9	-64.6	275	20
2023-09-10T12:00	12648	189	-59.0	-64.7	275	20
2023-09-10T12:00	12666	188	-59.2	-64.7	274	20
2023-09-10T12:00	12688	187	-59.4	-64.8	274	20
2023-09-10T12:00	12708	187	-59.6	-64.8	274	20
2023-09-10T12:00	12730	186	-59.7	-64.8	273	20
2023-09-10T12:00	12749	186	-59.9	-64.9	273	20
2023-09-10T12:00	12769	185	-60.0		272	20
2023-09-10T12:00	12790	184	-60.2	-65.2	272	20
2023-09-10T12:00	12811	184	-60.4	-65.3	271	20
2023-09-10T12:00	12831	183	-60.5	-65.3	270	20
2023-09-10T12:00	12852	183	-60.6	-65.4	270	20
2023-09-10T12:00	12873	182	-60.7	-65.5	270	20
2023-09-10T12:00	12891	181	-60.9	-65.7	270	20
2023-09-10T12:00	12912	181	-61.0	-65.8	270	20
2023-09-10T12:00	12933	180	-61.3	-66.0	270	20
2023-09-10T12:00	12955	180	-61.4	-66.0	270	20
2023-09-10T12:00	12974	179	-61.5	-66.1	270	20
2023-09-10T12:00	12995	178	-61.7	-66.2	270	20
2023-09-10T12:00	13017	178	-61.9	-66.5	270	19
2023-09-10T12:00	13037	177	-61.9	-66.7	270	19
2023-09-10T12:00	13059	177	-61.9	-67.1	271	19
2023-09-10T12:00	13079	176	-61.8	-67.6	271	19
2023-09-10T12:00	13100	175	-61.8	-68.3	271	19
2023-09-10T12:00	13121	175	-61.8	-68.7	272	20
2023-09-10T12:00	13140	174	-62.0	-68.8	272	20
2023-09-10T12:00	13162	174	-62.1	-68.7	272	20
2023-09-10T12:00	13183	173	-62.2	-68.5	272	20
2023-09-10T12:00	13205	172	-62.4	-68.4	273	20
2023-09-10T12:00	13222	172	-62.6	-68.3	274	20
2023-09-10T12:00	13245	171	-62.8	-68.3	274	20
2023-09-10T12:00	13266	171	-63.0	-68.5	275	20
2023-09-10T12:00	13286	170	-63.0	-68.5	276	20
2023-09-10T12:00	13305	170	-63.1	-68.6	276	20
2023-09-10T12:00	13323	169	-63.3	-68.9	277	20
2023-09-10T12:00	13346	169	-63.6	-69.3	279	20
2023-09-10T12:00	13365	168	-63.7	-69.4	280	20
2023-09-10T12:00	13384	167	-63.7	-69.5	281	20
2023-09-10T12:00	13406	167	-63.8	-69.6	283	20
2023-09-10T12:00	13425	166	-63.8	-69.6	284	19
2023-09-10T12:00	13447	166	-63.9	-69.6	285	18
2023-09-10T12:00	13469	165	-64.0	-69.6	286	18
2023-09-10T12:00	13489	165	-64.1	-69.6	286	17
2023-09-10T12:00	13510	164	-64.2	-69.6	286	17
2023-09-10T12:00	13530	164	-64.3	-69.7	285	16
2023-09-10T12:00	13549	163	-64.3	-69.7	285	16
2023-09-10T12:00	13569	163	-64.4	-69.9	284	16
2023-09-10T12:00	13591	162	-64.4	-70.0	283	15
2023-09-10T12:00	13610	161	-64.5	-70.4	281	15
2023-09-10T12:00	13632	161	-64.6	-70.8	280	14
2023-09-10T12:00	13650	160	-64.6	-71.1	278	14
2023-09-10T12:00	13669	160	-64.6	-71.5	276	13
2023-09-10T12:00	13692	159	-64.6	-71.9	273	13
2023-09-10T12:00	13709	159	-64.6	-72.4	271	13
2023-09-10T12:00	13733	158	-64.5	-72.7	269	13
2023-09-10T12:00	13753	158	-64.3	-73.0	267	13
2023-09-10T12:00	13775	157	-64.1	-73.3	266	13
2023-09-10T12:00	13795	157	-64.2	-73.7	265	13
2023-09-10T12:00	13817	156	-64.3	-74.0	265	13
2023-09-10T12:00	13835	156	-64.4	-74.2	265	14
2023-09-10T12:00	13858	155	-64.5	-74.4	266	14
2023-09-10T12:00	13876	155	-64.3	-74.5	267	14
2023-09-10T12:00	13898	154	-64.1	-74.5	268	14
2023-09-10T12:00	13920	153	-64.0	-74.7	270	14
2023-09-10T12:00	13940	153	-64.1	-75.0	271	13
2023-09-10T12:00	13961	152	-64.1	-75.4	272	13
2023-09-10T12:00	13981	152	-63.9	-75.5	273	13
2023-09-10T12:00	14001	151	-63.8	-75.8	274	14
2023-09-10T12:00	14021	151	-63.8	-76.1	275	14
2023-09-10T12:00	14042	150	-63.6	-76.2	276	14
2023-09-10T12:00	14063	150	-63.5	-76.5	277	14
2023-09-10T12:00	14082	149	-63.4	-76.8	278	14
2023-09-10T12:00	14103	149	-63.4	-77.3	280	14
2023-09-10T12:00	14124	148	-63.2	-77.5	282	13
2023-09-10T12:00	14146	148	-63.1	-77.8	285	13
2023-09-10T12:00	14169	147	-62.7	-77.8	287	12
2023-09-10T12:00	14191	147	-62.4	-77.9	290	12
2023-09-10T12:00	14211	146	-62.3	-78.2	294	12
2023-09-10T12:00	14232	146	-62.1	-78.4	296	11
2023-09-10T12:00	14252	145	-61.9	-78.6	298	11
2023-09-10T12:00	14273	145	-61.8	-78.9	299	12
2023-09-10T12:00	14294	144	-61.9	-79.2	299	12
2023-09-10T12:00	14317	144	-61.8	-79.3	298	12
2023-09-10T12:00	14340	143	-61.9	-79.5	298	12
2023-09-10T12:00	14361	143	-62.1	-79.7	297	12
2023-09-10T12:00	14383	142	-62.3	-79.8	297	12
2023-09-10T12:00	14404	142	-62.5	-79.9	297	12
2023-09-10T12:00	14424	141	-62.6	-79.9	298	12
2023-09-10T12:00	14446	141	-62.7	-79.9	299	11
2023-09-10T12:00	14466	140	-62.8	-79.9	300	11
2023-09-10T12:00	14487	140	-62.9	-80.0	302	10
2023-09-10T12:00	14508	139	-63.0	-80.1	303	10
2023-09-10T12:00	14528	139	-63.0	-80.1	303	10
2023-09-10T12:00	14550	139	-63.1	-80.2	303	10
2023-09-10T12:00	14571	138	-63.1	-80.0	303	10
2023-09-10T12:00	14591	138	-63.3	-80.0	302	10
2023-09-10T12:00	14611	137	-63.4	-79.8	301	10
2023-09-10T12:00	14633	137	-63.6	-79.8	300	10
2023-09-10T12:00	14657	136	-63.9	-79.9	299	11
2023-09-10T12:00	14676	136	-64.0	-80.0	298	11
2023-09-10T12:00	14697	135	-64.2	-80.2	297	11
2023-09-10T12:00	14721	135	-64.3	-80.4	296	11
2023-09-10T12:00	14741	134	-64.2	-80.5	296	11
2023-09-10T12:00	14762	134	-64.3	-80.8	296	11
2023-09-10T12:00	14785	133	-64.4	-81.0	297	10
2023-09-10T12:00	14808	133	-64.3	-81.1	299	10
2023-09-10T12:00	14828	132	-64.4	-81.3	301	9
2023-09-10T12:00	14848	132	-64.5	-81.5	302	9
2023-09-10T12:00	14868	131	-64.6	-81.6	304	8
2023-09-10T12:00	14892	131	-64.4	-81.5	305	8
2023-09-10T12:00	14908	131	-64.3	-81.4	307	7
2023-09-10T12:00	14929	130	-64.2	-81.3	309	7
2023-09-10T12:00	14950	130	-64.3	-81.4	312	7
2023-09-10T12:00	14973	129	-64.4	-81.4	315	7
2023-09-10T12:00	14994	129	-64.5	-81.5	317	7
2023-09-10T12:00	15016	128	-64.6	-81.6	318	6
2023-09-10T12:00	15037	128	-64.7	-81.9	317	6
2023-09-10T12:00	15055	128	-64.7	-82.1	314	6
2023-09-10T12:00	15079	127	-64.7	-82.3	310	5
2023-09-10T12:00	15099	127	-64.6	-82.6	304	5
2023-09-10T12:00	15118	126	-64.1	-82.6	300	6
2023-09-10T12:00	15139	126	-63.9	-82.7	296	6
2023-09-10T12:00	15161	125	-64.0	-83.0	293	6
2023-09-10T12:00	15180	125	-64.1	-83.2	291	6
2023-09-10T12:00	15202	124	-64.0	-83.1	289	6
2023-09-10T12:00	15225	124	-64.1	-83.2	288	6
2023-09-10T12:00	15245	124	-64.3	-83.3	289	6
2023-09-10T12:00	15267	123	-64.3	-83.3	290	6
2023-09-10T12:00	15286	123	-64.4	-83.3	293	6
2023-09-10T12:00	15309	122	-64.3	-83.2	297	5
2023-09-10T12:00	15332	122	-64.3	-83.2	300	4
2023-09-10T12:00	15353	121	-64.4	-83.3	301	4
2023-09-10T12:00	15372	121	-64.3	-83.2	298	3
2023-09-10T12:00	15393	121	-64.3	-83.2	291	3
2023-09-10T12:00	15414	120	-64.1	-83.0	280	3
2023-09-10T12:00	15437	120	-64.1	-83.0	270	3
2023-09-10T12:00	15460	119	-64.0	-83.0	262	4
2023-09-10T12:00	15479	119	-64.0	-83.1	257	4
2023-09-10T12:00	15501	119	-63.7	-83.0	254	4
2023-09-10T12:00	15523	118	-63.6	-83.0	252	5
2023-09-10T12:00	15547	118	-63.4	-83.0	250	5
2023-09-10T12:00	15565	117	-63.2	-83.0	250	5
2023-09-10T12:00	15588	117	-63.1	-83.0	250	5
2023-09-10T12:00	15608	117	-63.0	-82.9	252	5
2023-09-10T12:00	15631	116	-62.9	-83.0	254	5
2023-09-10T12:00	15651	116	-62.7	-82.9	256	5
2023-09-10T12:00	15672	115	-62.5	-82.8	259	5
2023-09-10T12:00	15696	115	-62.3	-82.7	261	5
2023-09-10T12:00	15718	114	-62.4	-82.8	263	5
2023-09-10T12:00	15740	114	-62.3	-82.9	263	5
2023-09-10T12:00	15762	114	-62.3	-82.9	262	5
2023-09-10T12:00	15785	113	-62.1	-82.7	260	5
2023-09-10T12:00	15805	113	-61.9	-82.7	256	4
2023-09-10T12:00	15826	112	-62.0	-82.8	252	4
2023-09-10T12:00	15848	112	-62.1	-82.7	249	4
2023-09-10T12:00	15870	112	-62.2	-82.8	247	4
2023-09-10T12:00	15891	111	-62.4	-82.8	247	4
2023-09-10T12:00	15912	111	-62.6	-83.0	249	5
2023-09-10T12:00	15934	111	-62.6	-82.8	254	5
2023-09-10T12:00	15954	110	-62.7	-82.9	259	5
2023-09-10T12:00	15977	110	-62.7	-83.1	265	6
2023-09-10T12:00	15997	109	-62.7	-83.2	270	6
2023-09-10T12:00	16020	109	-62.6	-83.5	275	7
2023-09-10T12:00	16041	109	-62.2	-83.5	279	7
2023-09-10T12:00	16065	108	-61.6	-83.7	283	8
2023-09-10T12:00	16083	108	-61.0	-83.6	286	8
2023-09-10T12:00	16108	107	-60.7	-83.9	289	8
2023-09-10T12:00	16129	107	-60.5	-83.9	290	8
2023-09-10T12:00	16152	107	-60.4	-84.1	292	8
2023-09-10T12:00	16175	106	-60.5	-84.2	293	7
2023-09-10T12:00	16196	106	-60.6	-84.0	294	7
2023-09-10T12:00	16215	106	-60.7	-84.1	295	7
2023-09-10T12:00	16237	105	-60.8	-84.2	296	6
2023-09-10T12:00	16260	105	-61.0	-84.3	297	6
2023-09-10T12:00	16281	105	-61.2	-84.5	298	5
2023-09-10T12:00	16303	104	-61.2	-84.5	301	5
2023-09-10T12:00	16327	104	-61.1	-84.4	305	5
2023-09-10T12:00	16349	103	-61.1	-84.4	309	5
2023-09-10T12:00	16371	103	-61.3	-84.6	314	5
2023-09-10T12:00	16394	103	-61.4	-84.7	318	5
2023-09-10T12:00	16414	102	-61.4	-84.7	322	5
2023-09-10T12:00	16438	102	-61.6	-84.8	324	5
2023-09-10T12:00	16461	102	-61.5	-84.7	326	4
2023-09-10T12:00	16489	101	-61.5	-84.7	325	4
2023-09-10T12:00	16511	101	-61.7	-84.9	322	3
2023-09-10T12:00	16532	100	-61.8	-85.0	314	2
2023-09-10T12:00	16553	100	-61.8	-85.0	301	2
2023-09-10T12:00	16575	100	-61.9	-85.1	283	2
2023-09-10T12:00	16597	99	-62.0	-85.1	268	2
2023-09-10T12:00	16622	99	-62.0	-85.1	262	2
2023-09-10T12:00	16643	99	-61.7	-85.1	263	3
2023-09-10T12:00	16668	98	-61.8	-85.2	266	4
2023-09-10T12:00	16691	98	-61.8	-85.4	270	5
2023-09-10T12:00	16713	97	-61.6	-85.2	274	6
2023-09-10T12:00	16735	97	-61.6	-85.2	277	6
2023-09-10T12:00	16757	97	-61.7	-85.3	280	7
2023-09-10T12:00	16779	96	-61.8	-85.4	283	7
2023-09-10T12:00	16802	96	-61.7	-85.5	287	7
2023-09-10T12:00	16826	96	-61.5	-85.4	291	7
2023-09-10T12:00	16849	95	-61.2	-85.4	295	7
2023-09-10T12:00	16870	95	-61.1	-85.3	298	7
2023-09-10T12:00	16895	95	-61.0	-85.2	299	7
2023-09-10T12:00	16919	94	-61.0	-85.5	299	7
2023-09-10T12:00	16940	94	-61.0	-85.2	298	6
2023-09-10T12:00	16962	94	-61.1	-85.3	296	6
2023-09-10T12:00	16982	93	-61.1	-85.3	294	6
2023-09-10T12:00	17007	93	-61.2	-85.2	292	6
2023-09-10T12:00	17027	93	-61.4	-85.3	290	6
2023-09-10T12:00	17049	92	-61.6	-85.5	289	6
2023-09-10T12:00	17073	92	-61.7	-85.5	290	6
2023-09-10T12:00	17091	92	-61.9	-85.7	293	6
2023-09-10T12:00	17115	91	-61.8	-85.6	297	6
2023-09-10T12:00	17141	91	-61.7	-85.8	303	6
2023-09-10T12:00	17163	91	-61.6	-85.7	310	6
2023-09-10T12:00	17185	90	-61.5	-85.9	316	6
2023-09-10T12:00	17212	90	-61.4	-85.8	320	6
2023-09-10T12:00	17232	90	-61.2	-85.9	323	6
2023-09-10T12:00	17259	89	-61.0	-85.7	325	5
2023-09-10T12:00	17277	89	-60.9	-85.9	325	5
2023-09-10T12:00	17301	89	-60.9	-85.9	325	4
2023-09-10T12:00	17323	88	-60.8	-86.1	326	3
2023-09-10T12:00	17348	88	-60.8	-86.1	328	3
2023-09-10T12:00	17374	88	-60.7	-86.0	331	3
2023-09-10T12:00	17393	87	-60.6	-86.0	333	3
2023-09-10T12:00	17416	87	-60.4	-85.8	332	3
2023-09-10T12:00	17439	87	-60.3	-85.7	328	3
2023-09-10T12:00	17460	86	-60.3	-85.7	323	2
2023-09-10T12:00	17483	86	-60.4	-85.8	317	2
2023-09-10T12:00	17505	86	-60.4	-85.8	309	2
2023-09-10T12:00	17529	85	-60.5	-85.9	297	1
2023-09-10T12:00	17553	85	-60.5	-85.9	276	1
2023-09-10T12:00	17573	85	-60.6	-86.0	245	1
2023-09-10T12:00	17597	85	-60.6	-86.0	225	1
2023-09-10T12:00	17620	84	-60.7	-86.0	216	2
2023-09-10T12:00	17643	84	-60.7	-86.0	215	2
2023-09-10T12:00	17666	84	-60.8	-86.1	219	2
2023-09-10T12:00	17687	83	-60.9	-86.2	226	2
2023-09-10T12:00	17713	83	-60.8	-86.1	235	3
2023-09-10T12:00	17734	83	-60.6	-86.3	244	3
2023-09-10T12:00	17757	82	-60.6	-86.3	250	3
2023-09-10T12:00	17779	82	-60.7	-86.3	254	3
2023-09-10T12:00	17801	82	-60.8	-86.1	258	4
2023-09-10T12:00	17820	82	-60.9	-86.2	263	3
2023-09-10T12:00	17846	81	-61.0	-86.3	270	3
2023-09-10T12:00	17866	81	-61.0	-86.3	281	3
2023-09-10T12:00	17889	81	-60.8	-86.1	294	3
2023-09-10T12:00	17911	80	-60.9	-86.2	306	3
2023-09-10T12:00	17931	80	-61.0	-86.3	316	3
2023-09-10T12:00	17956	80	-61.1	-86.4	322	3
2023-09-10T12:00	17980	80	-61.2	-86.4	325	3
2023-09-10T12:00	18002	79	-61.3	-86.5	324	2
2023-09-10T12:00	18029	79	-61.1	-86.6	319	2
2023-09-10T12:00	18047	79	-61.1	-86.6	310	2
2023-09-10T12:00	18071	78	-61.0	-86.6	302	2
2023-09-10T12:00	18095	78	-61.0	-86.6	298	2
2023-09-10T12:00	18116	78	-61.0	-86.6	295	2
2023-09-10T12:00	18142	77	-60.8		293	2
2023-09-10T12:00	18164	77	-60.6	-86.6	291	2
2023-09-10T12:00	18188	77	-60.4		290	3
2023-09-10T12:00	18207	77	-60.3	-86.7	291	3
2023-09-10T12:00	18233	76	-60.1	-86.5	294	4
2023-09-10T12:00	18255	76	-60.0	-86.4	300	4
2023-09-10T12:00	18280	76	-59.9	-86.3	305	4
2023-09-10T12:00	18301	75	-59.8	-86.6	311	4
2023-09-10T12:00	18325	75	-59.6	-86.5	316	4
2023-09-10T12:00	18346	75	-59.3	-86.2	319	4
2023-09-10T12:00	18370	75	-59.1		321	4
2023-09-10T12:00	18396	74	-59.0	-86.0	324	3
2023-09-10T12:00	18421	74	-59.0	-86.0	328	3
2023-09-10T12:00	18442	74	-58.9	-85.9	335	3
2023-09-10T12:00	18465	74	-58.9	-85.9	342	3
2023-09-10T12:00	18492	73	-58.9	-85.9	348	2
2023-09-10T12:00	18513	73	-59.0	-86.0	350	2
2023-09-10T12:00	18537	73	-58.9	-85.9	346	2
2023-09-10T12:00	18557	72	-58.9	-85.9	336	2
2023-09-10T12:00	18581	72	-58.8	-85.9	317	2
2023-09-10T12:00	18608	72	-58.8	-85.9	296	2
2023-09-10T12:00	18632	72	-58.9	-85.9	280	2
2023-09-10T12:00	18658	71	-58.8	-85.9	271	2
2023-09-10T12:00	18681	71	-58.8	-85.9	268	2
2023-09-10T12:00	18701	71	-58.9	-85.9	267	2
2023-09-10T12:00	18727	71	-58.9	-85.9	271	1
2023-09-10T12:00	18748	70	-58.9	-85.9	279	1
2023-09-10T12:00	18774	70	-59.0	-86.0	319	0
2023-09-10T12:00	18793	70	-58.9	-85.9	63	0
2023-09-10T12:00	18819	70	-58.8	-85.9	72	1
2023-09-10T12:00	18840	69	-58.8	-85.9	71	1
2023-09-10T12:00	18867	69	-58.8	-85.9	66	1
2023-09-10T12:00	18888	69	-58.9	-85.9	63	2
2023-09-10T12:00	18913	69	-59.1		60	2
2023-09-10T12:00	18934	68	-59.1		60	2
2023-09-10T12:00	18959	68	-59.2	-86.2	64	2
2023-09-10T12:00	18982	68	-59.3	-85.9	70	2
2023-09-10T12:00	19003	68	-59.5	-86.0	79	2
2023-09-10T12:00	19028	67	-59.6	-86.1	91	2
2023-09-10T12:00	19051	67	-59.7	-86.2	104	2
2023-09-10T12:00	19072	67	-59.8	-86.3	118	1
2023-09-10T12:00	19097	66	-59.6	-86.5	138	1
2023-09-10T12:00	19125	66	-59.5	-86.4	171	1
2023-09-10T12:00	19142	66	-59.5	-86.4	214	1
2023-09-10T12:00	19165	66	-59.6	-86.5	243	1
2023-09-10T12:00	19190	66	-59.6	-86.5	256	1
2023-09-10T12:00	19212	65	-59.4	-86.3	260	1
2023-09-10T12:00	19237	65	-59.3	-86.2	259	1
2023-09-10T12:00	19258	65	-59.3	-86.2	254	1
2023-09-10T12:00	19285	65	-59.3	-86.2	251	1
2023-09-10T12:00	19307	64	-59.2	-86.2	251	2
2023-09-10T12:00	19330	64	-59.1	-86.5	255	2
2023-09-10T12:00	19352	64	-59.0	-86.4	260	2
2023-09-10T12:00	19379	64	-58.9	-86.3	264	3
2023-09-10T12:00	19403	63	-58.9	-86.3	268	3
2023-09-10T12:00	19426	63	-58.9	-86.3	272	4
2023-09-10T12:00	19448	63	-59.0	-86.4	275	4
2023-09-10T12:00	19473	63	-59.0	-86.4	278	4
2023-09-10T12:00	19497	62	-58.9	-86.3	282	4
2023-09-10T12:00	19519	62	-58.6	-86.1	287	4
2023-09-10T12:00	19546	62	-58.4	-86.3	296	3
2023-09-10T12:00	19570	62	-58.2	-86.2	313	2
2023-09-10T12:00	19594	61	-58.0	-86.0	338	2
2023-09-10T12:00	19618	61	-57.9		0	2
2023-09-10T12:00	19640	61	-58.0	-86.0	12	2
2023-09-10T12:00	19664	61	-57.9		16	3
2023-09-10T12:00	19691	61	-57.8	-85.9	19	3
2023-09-10T12:00	19712	60	-57.8	-85.9	23	2
2023-09-10T12:00	19737	60	-57.8	-85.9	30	2
2023-09-10T12:00	19759	60	-57.6	-85.7	41	2
2023-09-10T12:00	19785	60	-57.7	-85.8	60	2
2023-09-10T12:00	19808	59	-57.9	-85.5	87	2
2023-09-10T12:00	19830	59	-58.0	-85.6	116	2
2023-09-10T12:00	19856	59	-58.1	-85.7	139	2
2023-09-10T12:00	19880	59	-58.0	-85.6	155	2
2023-09-10T12:00	19901	59	-58.0	-85.6	165	3
2023-09-10T12:00	19922	58	-58.1	-85.7	173	3
2023-09-10T12:00	19952	58	-58.2	-85.8	179	3
2023-09-10T12:00	19971	58	-58.3	-85.8	185	3
2023-09-10T12:00	19997	58	-58.3	-85.8	192	2
2023-09-10T12:00	20021	57	-58.3	-85.8	200	2
2023-09-10T12:00	20045	57	-58.3	-85.8	214	1
2023-09-10T12:00	20069	57	-58.4	-85.9	244	1
2023-09-10T12:00	20092	57	-58.6	-85.7	307	1
2023-09-10T12:00	20115	57	-58.7	-85.8	341	1
2023-09-10T12:00	20140	56	-58.7	-85.8	353	1
2023-09-10T12:00	20160	56	-58.7	-85.8	356	1
2023-09-10T12:00	20185	56	-58.8	-86.2	355	1
2023-09-10T12:00	20210	56	-58.8	-86.2	345	1
2023-09-10T12:00	20231	56	-58.5	-86.0	307	1
2023-09-10T12:00	20256	55	-58.3	-85.8	260	1
2023-09-10T12:00	20279	55	-58.2	-85.8	250	1
2023-09-10T12:00	20303	55	-58.3	-85.8	252	2
2023-09-10T12:00	20323	55	-58.5	-86.0	258	3
2023-09-10T12:00	20353	54	-58.6	-86.1	265	3
2023-09-10T12:00	20374	54	-58.5	-86.0	272	4
2023-09-10T12:00	20394	54	-58.4	-85.9	279	4
2023-09-10T12:00	20423	54	-58.5	-86.0	286	4
2023-09-10T12:00	20444	54	-58.6	-86.1	295	4
2023-09-10T12:00	20466	53	-58.7	-86.1	303	5
2023-09-10T12:00	20491	53	-58.7	-86.1	311	5
2023-09-10T12:00	20514	53	-58.6	-86.1	318	5
2023-09-10T12:00	20538	53	-58.6	-86.1	324	5
2023-09-10T12:00	20562	53	-58.7	-86.1	329	6
2023-09-10T12:00	20585	52	-58.8	-86.2	335	6
2023-09-10T12:00	20610	52	-58.7	-86.1	340	6
2023-09-10T12:00	20628	52	-58.6	-86.1	347	6
2023-09-10T12:00	20656	52	-58.4	-86.3	353	6
2023-09-10T12:00	20681	52	-58.2	-86.2	360	6
2023-09-10T12:00	20703	52	-58.0	-86.0	7	6
2023-09-10T12:00	20725	51	-57.9		15	6
2023-09-10T12:00	20755	51	-57.8	-85.9	22	6
2023-09-10T12:00	20775	51	-57.7	-85.8	28	6
2023-09-10T12:00	20801	51	-57.7	-85.8	33	6
2023-09-10T12:00	20823	51	-57.8	-85.9	36	5
2023-09-10T12:00	20850	50	-57.9		37	5
2023-09-10T12:00	20870	50	-58.0	-86.0	38	5
2023-09-10T12:00	20897	50	-58.0	-86.0	39	4
2023-09-10T12:00	20920	50	-57.9		41	4
2023-09-10T12:00	20947	50	-57.9	-85.5	47	4
2023-09-10T12:00	20970	49	-57.9	-85.5	54	4
2023-09-10T12:00	20999	49	-58.0	-85.6	64	4
2023-09-10T12:00	21024	49	-58.0	-85.6	73	4
2023-09-10T12:00	21050	49	-58.1	-85.7	81	4
2023-09-10T12:00	21073	49	-58.2	-86.2	88	4
2023-09-10T12:00	21101	48	-58.2	-86.2	93	4
2023-09-10T12:00	21127	48	-58.2	-86.2	96	4
2023-09-10T12:00	21147	48	-58.0	-86.0	98	4
2023-09-10T12:00	21173	48	-57.9		99	3
2023-09-10T12:00	21203	48	-57.9		96	3
2023-09-10T12:00	21225	47	-57.8	-85.9	92	3
2023-09-10T12:00	21248	47	-57.6	-86.1	88	3
2023-09-10T12:00	21270	47	-57.4	-86.0	86	3
2023-09-10T12:00	21300	47	-57.2	-85.8	89	2
2023-09-10T12:00	21324	47	-57.2	-85.8	96	2
2023-09-10T12:00	21350	46	-57.2	-85.8	104	2
2023-09-10T12:00	21372	46	-57.2	-85.8	111	2
2023-09-10T12:00	21398	46	-57.1	-85.7	111	2
2023-09-10T12:00	21422	46	-56.9	-85.6	103	2
2023-09-10T12:00	21451	46	-56.7	-85.4	84	1
2023-09-10T12:00	21474	46	-56.6	-85.8	63	2
2023-09-10T12:00	21499	45	-56.6	-85.8	52	2
2023-09-10T12:00	21519	45	-56.4	-85.7	51	2
2023-09-10T12:00	21550	45	-56.2	-85.5	54	3
2023-09-10T12:00	21577	45	-56.3	-85.6	60	3
2023-09-10T12:00	21600	45	-56.3	-85.1	66	3
2023-09-10T12:00	21628	44	-56.1	-85.0	71	4
2023-09-10T12:00	21653	44	-56.3	-85.1	76	4
2023-09-10T12:00	21679	44	-56.5	-85.3	81	3
2023-09-10T12:00	21704	44	-56.6	-85.4	84	3
2023-09-10T12:00	21729	44	-56.7	-85.4	85	3
2023-09-10T12:00	21758	44	-56.7	-85.4	80	2
2023-09-10T12:00	21777	43	-56.8	-85.5	70	2
2023-09-10T12:00	21810	43	-56.9	-85.2	57	2
2023-09-10T12:00	21832	43	-57.0	-85.2	45	2
2023-09-10T12:00	21861	43	-57.1	-85.3	37	2
2023-09-10T12:00	21888	43	-57.1	-85.3	33	2
2023-09-10T12:00	21910	43	-57.2	-85.4	33	2
2023-09-10T12:00	21937	42	-57.4	-85.6	35	2
2023-09-10T12:00	21960	42	-57.4	-85.6	40	2
2023-09-10T12:00	21986	42	-57.4	-85.6	46	2
2023-09-10T12:00	22011	42	-57.4	-85.6	52	2
2023-09-10T12:00	22034	42	-57.3	-85.5	60	2
2023-09-10T12:00	22062	42	-57.3	-85.5	68	2
2023-09-10T12:00	22090	41	-57.4	-85.6	75	2
2023-09-10T12:00	22110	41	-57.4	-85.6	81	2
2023-09-10T12:00	22136	41	-57.5	-85.6	84	2
2023-09-10T12:00	22164	41	-57.6	-85.7	86	2
2023-09-10T12:00	22190	41	-57.8	-85.9	88	3
2023-09-10T12:00	22213	41	-57.9		91	3
2023-09-10T12:00	22241	40	-58.0	-86.0	94	3
2023-09-10T12:00	22263	40	-58.0	-85.6	97	4
2023-09-10T12:00	22294	40	-58.1	-85.7	102	4
2023-09-10T12:00	22313	40	-58.3	-85.8	108	4
2023-09-10T12:00	22338	40	-58.4	-85.9	114	4
2023-09-10T12:00	22367	40	-58.4	-85.9	121	4
2023-09-10T12:00	22392	39	-58.4	-85.9	127	3
2023-09-10T12:00	22419	39	-58.5	-86.0	132	3
2023-09-10T12:00	22440	39	-58.5	-86.0	135	3
2023-09-10T12:00	22465	39	-58.6	-86.1	138	3
2023-09-10T12:00	22490	39	-58.7	-86.1	141	3
2023-09-10T12:00	22516	39	-58.9	-86.3	145	4
2023-09-10T12:00	22538	39	-58.9	-86.3	149	4
2023-09-10T12:00	22566	38	-58.9	-86.3	155	4
2023-09-10T12:00	22594	38	-58.9	-86.3	161	4
2023-09-10T12:00	22619	38	-59.2	-86.5	167	4
2023-09-10T12:00	22641	38	-59.3	-86.6	172	3
2023-09-10T12:00	22671	38	-59.4	-86.7	175	3
2023-09-10T12:00	22694	38	-59.4	-86.3	174	3
2023-09-10T12:00	22715	37	-59.4	-86.3	168	2
2023-09-10T12:00	22743	37	-59.4	-86.3	158	2
2023-09-10T12:00	22770	37	-59.5	-86.4	145	2
2023-09-10T12:00	22799	37	-59.6	-86.5	134	2
2023-09-10T12:00	22821	37	-59.8	-86.6	127	2
2023-09-10T12:00	22848	37	-59.9	-86.7	124	2
2023-09-10T12:00	22874	37	-59.9	-87.1	121	2
2023-09-10T12:00	22899	36	-59.7	-86.9	118	2
2023-09-10T12:00	22932	36	-59.5	-86.8	111	2
2023-09-10T12:00	22950	36	-59.4	-86.7	95	1
2023-09-10T12:00	22980	36	-59.2	-86.9	59	1
2023-09-10T12:00	23002	36	-59.2	-86.9	26	1
2023-09-10T12:00	23036	36	-59.2	-86.9	16	2
2023-09-10T12:00	23058	35	-59.0	-86.8	18	2
2023-09-10T12:00	23077	35	-58.8	-86.6	26	2
2023-09-10T12:00	23106	35	-58.5	-86.4	35	3
2023-09-10T12:00	23125	35	-58.3	-86.7	45	3
2023-09-10T12:00	23155	35	-58.3	-86.7	54	3
2023-09-10T12:00	23182	35	-58.2	-86.6	63	3
2023-09-10T12:00	23208	35	-58.1	-86.5	73	3
2023-09-10T12:00	23225	35	-57.9	-86.4	83	4
2023-09-10T12:00	23259	34	-57.6	-86.6	92	4
2023-09-10T12:00	23282	34	-57.1	-86.2	100	4
2023-09-10T12:00	23310	34	-57.0	-86.1	108	5
2023-09-10T12:00	23331	34	-57.1	-86.2	116	5
2023-09-10T12:00	23361	34	-56.8	-86.0	124	5
2023-09-10T12:00	23388	34	-56.4	-85.7	133	5
2023-09-10T12:00	23414	34	-56.3	-85.6	142	4
2023-09-10T12:00	23439	33	-56.1	-85.5	152	4
2023-09-10T12:00	23460	33	-56.0		162	4
2023-09-10T12:00	23489	33	-55.8	-85.2	174	4
2023-09-10T12:00	23515	33	-55.7	-85.2	186	4
2023-09-10T12:00	23536	33	-55.8	-85.2	198	4
2023-09-10T12:00	23561	33	-55.9	-85.3	208	4
2023-09-10T12:00	23591	33	-56.0		216	4
2023-09-10T12:00	23615	32	-56.0		221	4
2023-09-10T12:00	23642	32	-56.1	-85.5	225	4
2023-09-10T12:00	23661	32	-56.1	-85.5	226	4
2023-09-10T12:00	23686	32	-56.0		226	4
2023-09-10T12:00	23707	32	-56.0		224	5
2023-09-10T12:00	23739	32	-55.9	-85.3	222	5
2023-09-10T12:00	23759	32	-55.9	-85.3	219	5
2023-09-10T12:00	23788	32	-56.1	-85.0	216	6
2023-09-10T12:00	23813	31	-56.3	-85.1	214	6
2023-09-10T12:00	23842	31	-56.5	-85.3	213	6
2023-09-10T12:00	23857	31	-56.7	-85.4	214	6
2023-09-10T12:00	23889	31	-56.8	-85.5	216	6
2023-09-10T12:00	23910	31	-56.8	-85.5	219	5
2023-09-10T12:00	23941	31	-56.8	-85.5	224	5
2023-09-10T12:00	23961	31	-56.8	-85.5	229	4
2023-09-10T12:00	23993	31	-56.8	-85.5	238	3
2023-09-10T12:00	24020	30	-56.8	-85.5	253	2
2023-09-10T12:00	24048	30	-56.9	-85.6	285	1
2023-09-10T12:00	24072	30	-56.9	-86.1	330	2
2023-09-10T12:00	24100	30	-56.6	-85.8	355	2
2023-09-10T12:00	24130	30	-56.2	-86.0	7	3
2023-09-10T12:00	24154	30	-55.9	-85.8	15	3
2023-09-10T12:00	24175	30	-55.6	-85.6	22	3
2023-09-10T12:00	24213	30	-55.3	-85.4	30	3
2023-09-10T12:00	24229	29	-55.1	-85.2	37	4
2023-09-10T12:00	24265	29	-55.1	-85.2	45	4
2023-09-10T12:00	24287	29	-55.0	-85.1	51	4
2023-09-10T12:00	24312	29	-55.0	-85.1	59	4
2023-09-10T12:00	24347	29	-55.0	-85.1	68	3
2023-09-10T12:00	24373	29	-55.0	-85.1	80	3
2023-09-10T12:00	24398	29	-54.9	-85.1	96	2
2023-09-10T12:00	24422	29	-54.8	-85.0	111	2
2023-09-10T12:00	24450	28	-54.8	-85.0	122	2
2023-09-10T12:00	24488	28	-54.7	-84.9	127	2
2023-09-10T12:00	24507	28	-54.6	-84.8	128	2
2023-09-10T12:00	24533	28	-54.5	-84.8	128	2
2023-09-10T12:00	24561	28	-54.6	-84.8	125	2
2023-09-10T12:00	24591	28	-54.6	-84.8	123	2
2023-09-10T12:00	24615	28	-54.6	-84.8	121	2
2023-09-10T12:00	24645	28	-54.6	-84.8	122	2
2023-09-10T12:00	24668	28	-54.5	-84.8	127	2
2023-09-10T12:00	24698	27	-54.5	-84.8	133	2
2023-09-10T12:00	24721	27	-54.4	-84.7	140	2
2023-09-10T12:00	24751	27	-54.3	-84.6	144	2
2023-09-10T12:00	24772	27	-54.1	-84.5	144	1
2023-09-10T12:00	24801	27	-54.0	-84.4	135	1
2023-09-10T12:00	24827	27	-53.9	-84.3	122	1
2023-09-10T12:00	24848	27	-54.1	-84.5	118	1
2023-09-10T12:00	24879	27	-54.1	-84.5	123	2
2023-09-10T12:00	24906	27	-54.1	-84.5	133	2
2023-09-10T12:00	24934	26	-54.1	-84.5	142	2
2023-09-10T12:00	24955	26	-53.9	-84.9	149	3
2023-09-10T12:00	24984	26	-53.7	-84.7	155	4
2023-09-10T12:00	25012	26	-53.5	-84.6	159	4
2023-09-10T12:00	25032	26	-53.2	-84.4	162	4
2023-09-10T12:00	25062	26	-52.9	-84.7	165	4
2023-09-10T12:00	25086	26	-52.5	-84.4	166	4
2023-09-10T12:00	25103	26	-52.2	-84.2	167	4
2023-09-10T12:00	25137	26	-52.0	-84.1	166	3
2023-09-10T12:00	25165	25	-52.0	-84.1	162	3
2023-09-10T12:00	25189	25	-52.0	-84.1	150	2
2023-09-10T12:00	25214	25	-52.0	-83.5	123	2
2023-09-10T12:00	25241	25	-52.0	-83.5	86	2
2023-09-10T12:00	25272	25	-52.0	-83.5	62	2
2023-09-10T12:00	25287	25	-52.0	-83.5	50	2
2023-09-10T12:00	25313	25	-52.1	-83.5	44	2
2023-09-10T12:00	25344	25	-52.1	-83.5	40	2
2023-09-10T12:00	25367	25	-52.2	-83.6	40	2
2023-09-10T12:00	25392	25	-52.3	-83.7	45	1
2023-09-10T12:00	25430	24	-52.3	-83.7	97	0
2023-09-10T12:00	25451	24	-52.3	-83.7	182	1
2023-09-10T12:00	25476	24	-52.3	-83.7	193	2
2023-09-10T12:00	25499	24	-52.3	-83.7	196	3
2023-09-10T12:00	25532	24	-52.2	-83.6	198	3
2023-09-10T12:00	25558	24	-52.1	-83.5	198	3
2023-09-10T12:00	25577	24	-52.1	-83.5	197	3
2023-09-10T12:00	25612	24	-52.0	-83.5	195	3
2023-09-10T12:00	25643	24	-52.0	-83.5	190	2
2023-09-10T12:00	25665	24	-52.1	-83.5	184	2
2023-09-10T12:00	25695	23	-52.3	-83.7	176	2
2023-09-10T12:00	25726	23	-52.4	-83.8	165	2
2023-09-10T12:00	25752	23	-52.5	-83.8	151	2
2023-09-10T12:00	25776	23	-52.6	-83.9	138	2
2023-09-10T12:00	25797	23	-52.8	-83.5	129	2
2023-09-10T12:00	25831	23	-52.9	-83.6	127	2
2023-09-10T12:00	25860	23	-52.9	-84.1	133	3
2023-09-10T12:00	25897	23	-52.9	-84.1	146	3
2023-09-10T12:00	25923	23	-52.8	-84.1	162	3
2023-09-10T12:00	25942	23	-52.6	-83.9	176	4
2023-09-10T12:00	25977	22	-52.3	-83.7	187	4
2023-09-10T12:00	26002	22	-52.3	-83.7	195	5
2023-09-10T12:00	26035	22	-52.3	-83.7	202	5
2023-09-10T12:00	26064	22	-52.3	-83.7	209	6
2023-09-10T12:00	26091	22	-52.3	-83.7	215	6
2023-09-10T12:00	26108	22	-52.4	-83.8	221	7
2023-09-10T12:00	26148	22	-52.5	-83.8	227	7
2023-09-10T12:00	26168	22	-52.6	-83.9	232	8
2023-09-10T12:00	26196	22	-52.7	-84.0	237	8
2023-09-10T12:00	26222	22	-52.8	-84.1	241	9
2023-09-10T12:00	26257	22	-52.8	-84.1	246	9
2023-09-10T12:00	26274	21	-52.4	-84.4	249	9
2023-09-10T12:00	26298	21	-51.8	-83.9	253	9
2023-09-10T12:00	26331	21	-51.5	-83.7	256	9
2023-09-10T12:00	26357	21	-51.2	-83.5	260	9
2023-09-10T12:00	26380	21	-51.0	-83.3	263	9
2023-09-10T12:00	26419	21	-50.9	-83.3	267	8
2023-09-10T12:00	26451	21	-50.9	-83.3	270	8
2023-09-10T12:00	26469	21	-51.0	-83.3	273	8
2023-09-10T12:00	26493	21	-50.9	-83.3	275	8
2023-09-10T12:00	26523	21	-50.9	-83.3	275	7
2023-09-10T12:00	26557	21	-50.9	-83.3	274	7
2023-09-10T12:00	26581	20	-51.0	-83.3	273	7
2023-09-10T12:00	26606	20	-51.2	-82.9	272	7
2023-09-10T12:00	26638	20	-51.3	-82.9	273	7
2023-09-10T12:00	26667	20	-51.3	-82.9	275	7
2023-09-10T12:00	26703	20	-51.5	-83.1	278	7
2023-09-10T12:00	26725	20	-51.7	-83.2	281	8
2023-09-10T12:00	26751	20	-51.8	-83.3	284	8
2023-09-10T12:00	26778	20	-51.8	-83.3	286	8
2023-09-10T12:00	26815	20	-51.9	-83.4	288	8
2023-09-10T12:00	26833	20	-52.0	-83.5	290	8
2023-09-10T12:00	26866	20	-51.9	-83.4	292	8
2023-09-10T12:00	26886	20	-51.8	-83.3	293	8
2023-09-10T12:00	26920	19	-51.9	-83.4	295	8
2023-09-10T12:00	26942	19	-51.9	-83.4	296	8
2023-09-10T12:00	26980	19	-51.9	-84.0	299	8
2023-09-10T12:00	27001	19	-51.9	-84.0	301	8
2023-09-10T12:00	27024	19	-51.8	-83.9	303	8
2023-09-10T12:00	27058	19	-51.7	-83.9	304	8
2023-09-10T12:00	27084	19	-51.5	-83.7	305	9
2023-09-10T12:00	27114	19	-51.2	-83.5	307	9
2023-09-10T12:00	27138	19	-51.0	-83.3	308	9
2023-09-10T12:00	27164	19	-50.8	-83.2	310	10
2023-09-10T12:00	27190	19	-50.8	-83.2	313	10
2023-09-10T12:00	27226	19	-50.9	-83.3	315	10
2023-09-10T12:00	27250	18	-51.0	-83.3	317	10
2023-09-10T12:00	27274	18	-51.1	-83.4	320	10
2023-09-10T12:00	27306	18	-51.1	-83.4	322	10
2023-09-10T12:00	27338	18	-51.2	-83.5	325	9
2023-09-10T12:00	27363	18	-51.3	-83.6	328	8
2023-09-10T12:00	27393	18	-51.2	-82.9	332	7
2023-09-10T12:00	27421	18	-51.4	-83.0	335	7
2023-09-10T12:00	27439	18	-51.6	-83.2	335	6
2023-09-10T12:00	27481	18	-51.7	-83.2	334	6
2023-09-10T12:00	27493	18	-51.8	-83.3	330	5
2023-09-10T12:00	27524	18	-51.9	-83.4	326	5
2023-09-10T12:00	27557	18	-51.9	-83.4	322	5
2023-09-10T12:00	27584	18	-51.7	-83.9	320	5
2023-09-10T12:00	27607	18	-51.6	-83.8	321	5
2023-09-10T12:00	27626	17	-51.6	-83.8	325	5
2023-09-10T12:00	27659	17	-51.6	-83.8	331	5
2023-09-10T12:00	27684	17	-51.5	-83.7	339	4
2023-09-10T12:00	27707	17	-51.3	-83.6	348	4
2023-09-10T12:00	27734	17	-51.1	-83.4	359	3
2023-09-10T12:00	27761	17	-51.1	-83.4	11	2
2023-09-10T12:00	27796	17	-51.1	-83.4	24	2
2023-09-10T12:00	27823	17	-51.1	-83.4	45	1
2023-09-10T12:00	27846	17	-50.9	-83.3	91	1
2023-09-10T12:00	27870	17	-50.8	-83.2	154	1
2023-09-10T12:00	27886	17	-50.8	-83.2	187	1
2023-09-10T12:00	27926	17	-50.8	-83.2	207	2
2023-09-10T12:00	27948	17	-50.7	-83.8	222	3
2023-09-10T12:00	27978	17	-50.4	-83.6	232	4
2023-09-10T12:00	28001	16	-50.1	-83.4	239	5
2023-09-10T12:00	28026	16	-50.0	-83.3	244	6
2023-09-10T12:00	28056	16	-49.8	-83.2	247	7
2023-09-10T12:00	28087	16	-49.5	-82.9	249	7
2023-09-10T12:00	28109	16	-49.2	-82.7	251	7
2023-09-10T12:00	28135	16	-49.0	-82.6	253	8
2023-09-10T12:00	28164	16	-49.0	-82.6	255	8
2023-09-10T12:00	28188	16	-49.1	-82.7	255	8
2023-09-10T12:00	28225	16	-49.3	-82.8	256	8
2023-09-10T12:00	28259	16	-49.3	-82.8	257	8
2023-09-10T12:00	28272	16	-49.2	-82.7	258	8
2023-09-10T12:00	28312	16	-49.0	-82.6	260	8
2023-09-10T12:00	28327	16	-48.9	-82.5	262	8
2023-09-10T12:00	28371	16	-48.8	-82.4	264	8
2023-09-10T12:00	28398	16	-48.6	-82.3	267	9
2023-09-10T12:00	28436	15	-48.8	-82.4	271	10
2023-09-10T12:00	28476	15	-49.0	-82.6	272	10
2023-09-10T12:00	28492	15	-49.2	-82.7	273	10
2023-09-10T12:00	28538	15	-49.2	-82.7	274	9
2023-09-10T12:00	28557	15	-49.0	-82.6	274	9
2023-09-10T12:00	28578	15	-48.8	-82.4	273	8
2023-09-10T12:00	28620	15	-48.8	-82.4	272	8
2023-09-10T12:00	28631	15	-48.8	-82.4	272	8
2023-09-10T12:00	28663	15	-48.8	-82.4	273	8
2023-09-10T12:00	28701	15	-48.8	-82.4	274	8
2023-09-10T12:00	28715	15	-48.8	-82.4	275	7
2023-09-10T12:00	28744	15	-48.6	-82.3	274	7
2023-09-10T12:00	28776	15	-48.5	-82.2	273	7
2023-09-10T12:00	28796	15	-48.3	-82.9	270	6
2023-09-10T12:00	28818	15	-48.2	-82.8	267	6
2023-09-10T12:00	28849	14	-48.0	-82.7	265	6
2023-09-10T12:00	28869	14	-47.7	-82.4	264	6
2023-09-10T12:00	28909	14	-47.4	-82.2	265	6
2023-09-10T12:00	28919	14	-47.1	-82.0	266	6
2023-09-10T12:00	28963	14	-47.1	-82.0	267	6
2023-09-10T12:00	28986	14	-47.1	-82.0	269	7
2023-09-10T12:00	28997	14	-47.1	-82.0	270	7
2023-09-10T12:00	29037	14	-47.0	-81.9	270	7
2023-09-10T12:00	29070	14	-46.9	-81.9	270	7
2023-09-10T12:00	29091	14	-46.7	-81.7	268	7
2023-09-10T12:00	29123	14	-46.6	-81.7	264	8
2023-09-10T12:00	29148	14	-46.5	-81.6	260	8
2023-09-10T12:00	29179	14	-46.5	-81.6	255	8
2023-09-10T12:00	29212	14	-46.5	-81.6	249	9
2023-09-10T12:00	29229	14	-46.4	-81.5	243	9
2023-09-10T12:00	29250	14	-46.4	-81.5	237	10
2023-09-10T12:00	29283	14	-46.5	-81.6	233	10
2023-09-10T12:00	29322	14	-46.4	-81.5	231	11
2023-09-10T12:00	29339	13	-46.1	-81.3	231	12
2023-09-10T12:00	29367	13	-45.7	-81.9	232	12
2023-09-10T12:00	29399	13	-45.4	-81.7	236	12
2023-09-10T12:00	29429	13	-45.1	-81.5	240	12
2023-09-10T12:00	29461	13	-45.0	-81.4	245	12
2023-09-10T12:00	29474	13	-45.0	-81.4	250	12
2023-09-10T12:00	29530	13	-45.0	-81.4	255	11
2023-09-10T12:00	29536	13	-44.9	-81.4	260	11
2023-09-10T12:00	29583	13	-44.8	-81.3	265	11
2023-09-10T12:00	29589	13	-44.7	-81.2	270	10
2023-09-10T12:00	29617	13	-44.6	-81.2	275	10
2023-09-10T12:00	29657	13	-44.6	-81.2	280	9
2023-09-10T12:00	29690	13	-44.6	-81.2	284	9
2023-09-10T12:00	29713	13	-44.7	-81.2	288	8
2023-09-10T12:00	29741	13	-44.8	-81.3	292	8
2023-09-10T12:00	29758	13	-45.0	-80.5	296	8
2023-09-10T12:00	29811	13	-45.2	-80.7	301	7
2023-09-10T12:00	29830	12	-45.3	-80.7	306	7
2023-09-10T12:00	29848	12	-45.6	-80.9	312	7
2023-09-10T12:00	29893	12	-45.8	-81.1	318	8
2023-09-10T12:00	29912	12	-46.0	-81.2	323	8
2023-09-10T12:00	29931	12	-46.1	-81.3	328	8
2023-09-10T12:00	29971	12	-46.2	-81.4	331	8
2023-09-10T12:00	29991	12	-46.1	-81.3	334	8
2023-09-10T12:00	30023	12	-45.9	-81.2	337	7
2023-09-10T12:00	30054	12	-45.6	-81.9	339	6
2023-09-10T12:00	30058	12	-45.4	-81.7	340	5
2023-09-10T12:00	30096	12	-45.3	-81.6	339	4
2023-09-10T12:00	30114	12	-45.1	-81.5	337	4
2023-09-10T12:00	30159	12	-44.9	-81.4	332	3
2023-09-10T12:00	30173	12	-44.7	-81.2	323	3
2023-09-10T12:00	30197	12	-44.6	-81.2	311	3
2023-09-10T12:00	30210	12	-44.5	-81.1	295	3
2023-09-10T12:00	30245	12	-44.5	-81.1	278	3
2023-09-10T12:00	30280	12	-44.6	-81.2	264	3
2023-09-10T12:00	30321	12	-44.6	-81.2	255	3
2023-09-10T12:00	30341	12	-44.5	-81.1	250	4
2023-09-10T12:00	30362	12	-44.4	-81.0	249	4
2023-09-10T12:00	30399	12	-44.1	-80.8	250	4
2023-09-10T12:00	30420	11	-43.9	-80.7	252	5
2023-09-10T12:00	30442	11	-43.8	-80.6	254	5
2023-09-10T12:00	30464	11	-43.7	-80.5	257	6
2023-09-10T12:00	30494	11	-43.6	-80.4	259	7
2023-09-10T12:00	30516	11	-43.5	-80.4	261	7
2023-09-10T12:00	30544	11	-43.3	-81.3	263	8
2023-09-10T12:00	30565	11	-43.2	-81.3	264	8
2023-09-10T12:00	30597	11	-43.2	-81.3	266	8
2023-09-10T12:00	30625	11	-43.1	-81.2	267	8
2023-09-10T12:00	30662	11	-43.0	-81.1	267	8
2023-09-10T12:00	30677	11	-43.0	-81.1	268	9
2023-09-10T12:00	30713	11	-43.1	-81.2	268	9
2023-09-10T12:00	30757	11	-42.9	-81.1	267	9
2023-09-10T12:00	30784	11	-42.8	-81.0	266	9
2023-09-10T12:00	30806	11	-42.8	-81.0	264	9
2023-09-10T12:00	30827	11	-42.8	-81.0	262	8
2023-09-10T12:00	30883	11	-42.8	-81.0	260	8
2023-09-10T12:00	30909	11	-43.0	-80.0	258	7
2023-09-10T12:00	30946	11	-43.1	-80.1	257	6
2023-09-10T12:00	30977	11	-43.2	-80.2	256	6
2023-09-10T12:00	31001	11	-43.3	-80.2	255	6
2023-09-10T12:00	31038	10	-43.4	-80.3	253	5
2023-09-10T12:00	31073	10	-43.6	-80.4	252	5
2023-09-10T12:00	31096	10	-43.7	-80.5	252	6
2023-09-10T12:00	31121	10	-43.7	-80.5	253	6
2023-09-10T12:00	31153	10	-43.7	-80.5	254	7
2023-09-10T12:00	31173	10	-43.9	-80.7	255	7
2023-09-10T12:00	31202	10	-44.1	-80.8	256	7
2023-09-10T12:00	31233	10	-44.3	-80.9	256	7
2023-09-10T12:00	31254	10	-44.4	-81.0	255	7
2023-09-10T12:00	31291	10	-44.4	-81.0	251	6
2023-09-10T12:00	31313	10	-44.3	-80.9	246	6
2023-09-10T12:00	31344	10	-44.2	-80.9	240	6
2023-09-10T12:00	31357	10	-44.2	-80.9	234	7
2023-09-10T12:00	31386	10	-44.2	-80.9	230	8
2023-09-10T12:00	31415	10	-44.1	-80.8	227	8
2023-09-10T12:00	31465	10	-43.9	-81.8	226	9
2023-09-10T12:00	31482	10	-43.7	-81.6	226	10
2023-09-10T12:00	31514	10	-43.5	-81.5	227	10
2023-09-10T12:00	31525	10	-43.0	-81.1	229	11
2023-09-10T12:00	31561	10	-42.6	-80.8	231	12
2023-09-10T12:00	31594	10	-42.4	-80.7	233	12
2023-09-10T12:00	31606	10	-42.3	-80.6	235	13
2023-09-10T12:00	31635	10	-42.4	-80.7	236	14
2023-09-10T12:00	31663	10	-42.4	-80.7	237	14
2023-09-10T12:00	31679	9	-42.5	-80.8	238	15
2023-09-10T12:00	31720	9	-42.7	-80.9	239	15
2023-09-10T12:00	31747	9	-42.8	-81.0	241	15
2023-09-10T12:00	31755	9	-42.8	-81.0	243	15
2023-09-10T12:00	31802	9	-42.8	-81.0	246	15
2023-09-10T12:00	31836	9	-42.8	-81.0	249	14
2023-09-10T12:00	31870	9	-42.7	-80.9	252	14
2023-09-10T12:00	31876	9	-42.6	-80.8	255	13
2023-09-10T12:00	31897	9	-42.5	-80.8	258	13
2023-09-10T12:00	31930	9	-42.4	-80.7	261	13
2023-09-10T12:00	31969	9	-42.4	-80.7	263	12
2023-09-10T12:00	31976	9	-42.4	-80.7	265	12
2023-09-10T12:00	32004	9	-42.4	-80.7	266	13
2023-09-10T12:00	32029	9	-42.4	-80.7	268	13
2023-09-10T12:00	32058	9	-42.5	-80.8	269	12
2023-09-10T12:00	32088	9	-42.5	-80.8	270	12
2023-09-10T12:00	32105	9	-42.5	-80.8	272	12
2023-09-10T12:00	32130	9	-42.4	-80.7	274	12
2023-09-10T12:00	32161	9	-42.4	-80.7	275	12
2023-09-10T12:00	32190	9	-42.5	-80.8	276	12
2023-09-10T12:00	32228	9	-42.5	-80.8	277	12
2023-09-10T12:00	32253	9	-42.5	-80.8	278	11
2023-09-10T12:00	32273	9	-42.5	-80.8	278	11
2023-09-10T12:00	32287	9	-42.5	-80.8	278	11
2023-09-10T12:00	32330	9	-42.6	-80.8	277	10
2023-09-10T12:00	32355	9	-42.6	-80.8	275	10
2023-09-10T12:00	32365	9	-42.6	-80.8	273	10
2023-09-10T18:00	112	1004	26.7	11.6	350	1
2023-09-10T18:00	140	1000	27.9	10.3	319	2
2023-09-10T18:00	162	998	28.2	9.6	322	2
2023-09-10T18:00	189	995	28.0	9.4	325	2
2023-09-10T18:00	220	992	27.8	9.3	329	2
2023-09-10T18:00	241	989	27.6	9.3	332	2
2023-09-10T18:00	265	986	27.3	9.4	336	2
2023-09-10T18:00	289	984	27.1	9.5	340	2
2023-09-10T18:00	316	981	26.9	9.3	344	2
2023-09-10T18:00	346	977	26.6	9.4	349	2
2023-09-10T18:00	374	974	26.3	9.2	353	2
2023-09-10T18:00	401	971	26.0	9.2	355	2
2023-09-10T18:00	427	968	25.8	9.1	357	2
2023-09-10T18:00	452	966	25.5	9.1	358	2
2023-09-10T18:00	477	963	25.3	9.2	359	2
2023-09-10T18:00	498	960	25.1	9.2	0	2
2023-09-10T18:00	520	958	24.9	9.2	0	1
2023-09-10T18:00	544	956	24.6	9.1	359	1
2023-09-10T18:00	567	953	24.4	9.2	355	1
2023-09-10T18:00	590	950	24.2	9.2	350	1
2023-09-10T18:00	614	948	23.9	9.0	345	1
2023-09-10T18:00	636	945	23.7	8.9	342	1
2023-09-10T18:00	665	942	23.5	9.0	344	1
2023-09-10T18:00	690	940	23.2	9.0	348	1
2023-09-10T18:00	717	937	23.0	9.2	356	1
2023-09-10T18:00	739	934	22.7	9.0	2	1
2023-09-10T18:00	762	932	22.5	8.9	4	1
2023-09-10T18:00	789	929	22.3	8.9	2	1
2023-09-10T18:00	813	926	22.0	8.9	357	1
2023-09-10T18:00	842	923	21.7	8.8	351	1
2023-09-10T18:00	866	921	21.5		347	1
2023-09-10T18:00	891	918	21.2	8.8	345	1
2023-09-10T18:00	920	915	21.0	8.9	343	1
2023-09-10T18:00	945	913	20.7	8.7	337	1
2023-09-10T18:00	970	910	20.5	8.7	328	1
2023-09-10T18:00	999	907	20.2	8.6	316	1
2023-09-10T18:00	1025	904	20.0	8.9	305	1
2023-09-10T18:00	1050	901	19.7	8.7	297	1
2023-09-10T18:00	1079	898	19.5	8.8	291	1
2023-09-10T18:00	1105	896	19.2	8.8	288	1
2023-09-10T18:00	1134	893	18.9	8.8	287	1
2023-09-10T18:00	1162	890	18.6	8.7	289	1
2023-09-10T18:00	1189	887	18.4	8.6	292	1
2023-09-10T18:00	1215	884	18.1	8.5	294	1
2023-09-10T18:00	1241	882	17.9	8.5	292	1
2023-09-10T18:00	1265	879	17.6	8.4	285	1
2023-09-10T18:00	1294	876	17.4	8.4	275	1
2023-09-10T18:00	1321	873	17.1	8.4	266	1
2023-09-10T18:00	1352	870	16.8	8.4	260	2
2023-09-10T18:00	1378	868	16.6	8.3	255	2
2023-09-10T18:00	1402	865	16.3	8.2	253	2
2023-09-10T18:00	1428	862	16.1	8.3	251	3
2023-09-10T18:00	1454	860	15.9	8.3	248	3
2023-09-10T18:00	1481	857	15.6	8.2	245	3
2023-09-10T18:00	1511	854	15.3	8.1	240	2
2023-09-10T18:00	1539	851	15.1	8.1	234	2
2023-09-10T18:00	1567	848	14.8	8.0	227	2
2023-09-10T18:00	1597	846	14.5	7.9	221	2
2023-09-10T18:00	1626	843	14.3	8.1	216	2
2023-09-10T18:00	1652	840	14.0	8.2	211	2
2023-09-10T18:00	1679	837	13.7	8.0	205	2
2023-09-10T18:00	1709	834	13.5	7.9	201	2
2023-09-10T18:00	1736	832	13.3	7.4	199	2
2023-09-10T18:00	1765	829	13.1	6.8	202	1
2023-09-10T18:00	1792	826	12.9	6.1	213	1
2023-09-10T18:00	1820	823	12.7	5.8	233	1
2023-09-10T18:00	1849	821	12.6	4.9	265	1
2023-09-10T18:00	1877	818	12.8	1.8	300	1
2023-09-10T18:00	1905	815	13.3	-5.8	329	1
2023-09-10T18:00	1937	812	14.2	-14.7	345	1
2023-09-10T18:00	1964	809	14.5	-19.1	352	2
2023-09-10T18:00	1993	807	14.6	-19.9	352	2
2023-09-10T18:00	2021	804	14.7	-20.1	346	2
2023-09-10T18:00	2055	801	14.6	-20.9	339	2
2023-09-10T18:00	2080	798	14.6	-19.9	334	2
2023-09-10T18:00	2109	796	14.5	-20.4	330	3
2023-09-10T18:00	2135	793	14.3	-21.1	326	3
2023-09-10T18:00	2166	790	14.2	-22.7	323	3
2023-09-10T18:00	2196	788	14.0	-22.4	319	3
2023-09-10T18:00	2224	785	13.9	-21.7	316	3
2023-09-10T18:00	2251	782	13.8	-22.8	315	3
2023-09-10T18:00	2280	780	13.6	-22.3	316	3
2023-09-10T18:00	2308	777	13.4	-21.5	318	3
2023-09-10T18:00	2336	774	13.5	-23.6	320	3
2023-09-10T18:00	2367	772	13.6	-23.8	323	3
2023-09-10T18:00	2393	769	13.6	-24.7	325	3
2023-09-10T18:00	2421	767	13.4	-25.8	325	3
2023-09-10T18:00	2450	764	13.2	-25.9	325	3
2023-09-10T18:00	2481	761	12.9	-25.9	324	3
2023-09-10T18:00	2509	759	12.7	-25.3	323	3
2023-09-10T18:00	2541	756	12.7	-24.8	322	3
2023-09-10T18:00	2571	753	12.5	-25.6	320	3
2023-09-10T18:00	2604	750	12.5	-26.9	318	3
2023-09-10T18:00	2627	748	12.3		315	3
2023-09-10T18:00	2657	745	12.1	-25.9	312	3
2023-09-10T18:00	2685	743	12.3	-24.2	309	4
2023-09-10T18:00	2712	740	12.2	-23.4	307	4
2023-09-10T18:00	2741	738	11.9	-22.9	306	4
2023-09-10T18:00	2769	735	11.8	-22.8	306	4
2023-09-10T18:00	2798	733	11.7	-23.2	306	4
2023-09-10T18:00	2825	730	11.5	-23.3	306	4
2023-09-10T18:00	2854	728	11.4	-23.4	306	4
2023-09-10T18:00	2882	725	11.2	-23.0	306	4
2023-09-10T18:00	2910	723	11.0	-22.3	305	4
2023-09-10T18:00	2938	721	10.8	-22.1	304	4
2023-09-10T18:00	2966	718	10.7	-22.5	302	4
2023-09-10T18:00	2996	716	10.5	-23.3	300	4
2023-09-10T18:00	3023	713	10.3	-23.4	297	5
2023-09-10T18:00	3050	711	10.1	-23.4	295	5
2023-09-10T18:00	3079	709	10.1	-24.3	292	5
2023-09-10T18:00	3107	706	9.9	-24.2	288	5
2023-09-10T18:00	3136	704	9.7	-23.3	285	5
2023-09-10T18:00	3164	701	9.4	-19.2	283	5
2023-09-10T18:00	3194	699	9.2	-16.6	280	5
2023-09-10T18:00	3220	696	8.9	-14.7	279	5
2023-09-10T18:00	3251	694	8.7	-14.5	278	5
2023-09-10T18:00	3280	692	8.4	-14.6	277	5
2023-09-10T18:00	3311	689	8.2	-14.7	276	5
2023-09-10T18:00	3340	686	7.9	-14.9	276	5
2023-09-10T18:00	3371	684	7.6	-15.2	274	6
2023-09-10T18:00	3400	681	7.4	-15.9	273	6
2023-09-10T18:00	3431	679	7.1	-16.5	273	6
2023-09-10T18:00	3458	677	6.9	-17.2	274	6
2023-09-10T18:00	3490	674	6.6	-16.7	275	5
2023-09-10T18:00	3517	672	6.3	-16.6	277	5
2023-09-10T18:00	3548	669	6.1	-17.0	278	5
2023-09-10T18:00	3575	667	5.9	-17.5	278	5
2023-09-10T18:00	3602	665	5.7	-18.8	277	5
2023-09-10T18:00	3632	662	5.7	-25.5	275	5
2023-09-10T18:00	3660	660	5.6	-22.9	273	5
2023-09-10T18:00	3687	658	5.4	-18.0	272	5
2023-09-10T18:00	3715	656	5.2	-18.2	271	5
2023-09-10T18:00	3745	653	4.9	-17.7	271	5
2023-09-10T18:00	3774	651	4.6	-17.8	271	5
2023-09-10T18:00	3800	649	4.4	-18.3	271	5
2023-09-10T18:00	3831	646	4.2	-19.9	271	5
2023-09-10T18:00	3861	644	4.0	-20.5	271	5
2023-09-10T18:00	3891	642	3.8	-19.3	272	5
2023-09-10T18:00	3922	639	3.7	-21.2	273	5
2023-09-10T18:00	3951	637	3.5	-22.5	275	5
2023-09-10T18:00	3981	635	3.2	-23.0	277	5
2023-09-10T18:00	4013	632	2.9	-22.7	279	5
2023-09-10T18:00	4042	630	2.7	-22.1	281	5
2023-09-10T18:00	4072	628	2.4	-20.5	282	6
2023-09-10T18:00	4102	625	2.1	-19.7	282	6
2023-09-10T18:00	4131	623	1.8	-19.1	280	6
2023-09-10T18:00	4162	621	1.6	-19.2	278	7
2023-09-10T18:00	4192	618	1.8	-19.6	276	7
2023-09-10T18:00	4220	616	1.8	-18.7	275	7
2023-09-10T18:00	4251	614	1.5	-18.6	275	7
2023-09-10T18:00	4283	611	1.2	-18.6	275	8
2023-09-10T18:00	4313	609	0.9	-18.5	274	8
2023-09-10T18:00	4342	607	0.6	-18.5	274	8
2023-09-10T18:00	4373	604	0.3	-18.4	272	7
2023-09-10T18:00	4404	602	0.2	-20.3	270	7
2023-09-10T18:00	4434	600	0.0	-21.6	268	7
2023-09-10T18:00	4465	598	-0.3	-22.4	265	7
2023-09-10T18:00	4497	595	-0.5	-23.6	264	7
2023-09-10T18:00	4530	593	-0.6	-22.9	263	7
2023-09-10T18:00	4557	591	-0.8	-23.6	263	7
2023-09-10T18:00	4589	588	-1.0	-22.6	263	7
2023-09-10T18:00	4618	586	-1.2	-22.8	265	7
2023-09-10T18:00	4647	584	-1.3	-23.3	266	7
2023-09-10T18:00	4676	582	-1.5	-24.8	268	7
2023-09-10T18:00	4707	580	-1.7	-25.7	270	7
2023-09-10T18:00	4737	578	-1.8	-27.9	271	8
2023-09-10T18:00	4766	575	-1.9	-28.1	271	8
2023-09-10T18:00	4795	573	-2.0	-27.7	271	8
2023-09-10T18:00	4827	571	-2.2	-23.8	270	8
2023-09-10T18:00	4857	569	-2.4	-22.0	270	8
2023-09-10T18:00	4886	567	-2.7	-21.9	271	7
2023-09-10T18:00	4916	565	-2.9	-22.3	272	7
2023-09-10T18:00	4946	562	-3.0	-23.1	275	6
2023-09-10T18:00	4978	560	-3.2	-23.5	278	6
2023-09-10T18:00	5006	558	-3.3	-24.8	282	5
2023-09-10T18:00	5037	556	-3.4	-26.5	285	5
2023-09-10T18:00	5068	554	-3.3	-34.5	287	5
2023-09-10T18:00	5097	552	-3.6	-29.1	288	5
2023-09-10T18:00	5125	550	-3.8	-29.1	289	5
2023-09-10T18:00	5154	548	-4.0	-29.3	290	5
2023-09-10T18:00	5182	546	-4.2	-29.4	291	5
2023-09-10T18:00	5213	544	-4.4	-29.4	291	5
2023-09-10T18:00	5242	542	-4.7	-33.8	292	5
2023-09-10T18:00	5272	540	-4.9	-34.1	293	5
2023-09-10T18:00	5301	538	-5.1	-35.7	294	5
2023-09-10T18:00	5333	536	-5.4	-36.3	296	5
2023-09-10T18:00	5363	534	-5.5	-37.5	299	5
2023-09-10T18:00	5392	531	-5.6	-33.8	302	6
2023-09-10T18:00	5422	529	-5.8	-31.9	305	6
2023-09-10T18:00	5450	527	-6.0	-33.4	306	6
2023-09-10T18:00	5483	525	-6.3	-33.3	306	6
2023-09-10T18:00	5510	524	-6.5	-29.6	305	6
2023-09-10T18:00	5538	522	-6.7		305	6
2023-09-10T18:00	5569	520	-6.9	-29.8	305	6
2023-09-10T18:00	5598	518	-7.2	-30.1	305	7
2023-09-10T18:00	5628	516	-7.5	-30.1	305	7
2023-09-10T18:00	5658	514	-7.8	-27.8	305	7
2023-09-10T18:00	5685	512	-7.9	-28.4	306	7
2023-09-10T18:00	5718	510	-8.2	-28.6	307	7
2023-09-10T18:00	5750	508	-8.4	-29.0	307	7
2023-09-10T18:00	5779	506	-8.7	-29.1	308	8
2023-09-10T18:00	5812	504	-8.9	-29.4	309	8
2023-09-10T18:00	5840	502	-9.2	-30.8	308	8
2023-09-10T18:00	5869	500	-9.4	-32.1	307	8
2023-09-10T18:00	5898	498	-9.6	-34.8	306	8
2023-09-10T18:00	5928	496	-9.7	-39.1	304	8
2023-09-10T18:00	5953	494	-9.8	-40.7	303	7
2023-09-10T18:00	5982	493	-10.0	-41.9	303	7
2023-09-10T18:00	6013	491	-10.2	-42.5	303	7
2023-09-10T18:00	6041	489	-10.4	-42.8	304	6
2023-09-10T18:00	6071	487	-10.6	-43.5	306	6
2023-09-10T18:00	6101	485	-10.8	-43.6	307	7
2023-09-10T18:00	6123	484	-10.9	-43.7	308	7
2023-09-10T18:00	6148	482	-11.1	-44.6	308	7
2023-09-10T18:00	6177	480	-11.3	-43.8	307	7
2023-09-10T18:00	6206	478	-11.5	-42.6	307	7
2023-09-10T18:00	6234	477	-11.8	-41.9	306	7
2023-09-10T18:00	6260	475	-12.0	-41.3	307	7
2023-09-10T18:00	6291	473	-12.2	-39.3	308	7
2023-09-10T18:00	6322	471	-12.5	-38.4	310	8
2023-09-10T18:00	6348	470	-12.7	-37.2	311	8
2023-09-10T18:00	6375	468	-13.0	-34.0	310	8
2023-09-10T18:00	6404	466	-13.2	-32.4	309	8
2023-09-10T18:00	6428	465	-13.5	-31.9	307	8
2023-09-10T18:00	6456	463	-13.7	-28.3	306	9
2023-09-10T18:00	6492	461	-14.0	-26.1	305	9
2023-09-10T18:00	6520	459	-14.2	-27.2	304	9
2023-09-10T18:00	6544	458	-14.4	-27.0	304	8
2023-09-10T18:00	6567	456	-14.6	-26.7	304	8
2023-09-10T18:00	6598	454	-14.9	-26.5	302	8
2023-09-10T18:00	6632	453	-15.1	-27.0	300	8
2023-09-10T18:00	6660	451	-15.4	-26.8	298	8
2023-09-10T18:00	6688	449	-15.7	-25.1	297	8
2023-09-10T18:00	6719	447	-15.9	-25.7	296	8
2023-09-10T18:00	6750	445	-16.1	-29.8	296	8
2023-09-10T18:00	6783	444	-16.4		296	8
2023-09-10T18:00	6807	442	-16.6	-28.5	295	8
2023-09-10T18:00	6841	440	-16.9	-27.8	293	7
2023-09-10T18:00	6866	439	-17.1	-27.7	292	7
2023-09-10T18:00	6888	437	-17.4	-27.2	290	7
2023-09-10T18:00	6913	436	-17.6	-27.2	288	7
2023-09-10T18:00	6937	434	-17.9	-26.9	288	7
2023-09-10T18:00	6964	433	-18.1	-26.8	289	8
2023-09-10T18:00	6989	431	-18.4	-26.6	291	8
2023-09-10T18:00	7022	430	-18.6	-26.6	295	9
2023-09-10T18:00	7051	428	-18.8	-28.7	298	9
2023-09-10T18:00	7083	426	-18.6	-34.0	300	9
2023-09-10T18:00	7113	424	-18.8	-35.4	301	9
2023-09-10T18:00	7139	423	-18.9	-38.6	301	9
2023-09-10T18:00	7168	421	-19.0	-40.3	299	9
2023-09-10T18:00	7198	419	-19.2	-41.8	298	10
2023-09-10T18:00	7230	418	-19.5	-42.2	298	10
2023-09-10T18:00	7259	416	-19.7	-42.2	298	10
2023-09-10T18:00	7281	415	-19.9		299	10
2023-09-10T18:00	7302	414	-20.0	-42.2	300	10
2023-09-10T18:00	7326	412	-20.1	-42.5	301	10
2023-09-10T18:00	7353	411	-20.3	-41.6	300	10
2023-09-10T18:00	7379	409	-20.5	-41.2	299	10
2023-09-10T18:00	7405	408	-20.7	-39.8	296	10
2023-09-10T18:00	7435	406	-20.9	-39.4	294	9
2023-09-10T18:00	7463	405	-21.1	-39.1	293	10
2023-09-10T18:00	7483	404	-21.3	-39.2	292	10
2023-09-10T18:00	7505	402	-21.5	-39.2	292	10
2023-09-10T18:00	7537	401	-21.7	-39.5	291	10
2023-09-10T18:00	7565	399	-21.9	-39.7	292	11
2023-09-10T18:00	7599	397	-22.2	-40.0	292	11
2023-09-10T18:00	7627	396	-22.4	-40.1	293	11
2023-09-10T18:00	7663	394	-22.7	-40.5	295	10
2023-09-10T18:00	7685	393	-22.8	-41.0	298	10
2023-09-10T18:00	7709	391	-23.0	-41.7	300	10
2023-09-10T18:00	7745	390	-23.0	-43.2	303	10
2023-09-10T18:00	7770	388	-23.1	-44.1	304	10
2023-09-10T18:00	7793	387	-23.2	-44.1	304	10
2023-09-10T18:00	7826	385	-23.5	-44.1	304	10
2023-09-10T18:00	7857	384	-23.8	-44.1	304	10
2023-09-10T18:00	7879	382	-24.0	-44.2	304	10
2023-09-10T18:00	7900	381	-24.2	-44.0	305	10
2023-09-10T18:00	7928	380	-24.4	-44.1	306	10
2023-09-10T18:00	7956	378	-24.6	-44.6	305	10
2023-09-10T18:00	7978	377	-24.8	-44.3	303	10
2023-09-10T18:00	8005	376	-25.0	-44.1	300	10
2023-09-10T18:00	8035	374	-25.1	-46.6	296	10
2023-09-10T18:00	8064	373	-25.3	-44.8	293	10
2023-09-10T18:00	8092	371	-25.5	-46.0	291	10
2023-09-10T18:00	8120	370	-25.7	-47.2	291	10
2023-09-10T18:00	8151	368	-25.9	-46.1	291	10
2023-09-10T18:00	8171	367	-26.1	-45.8	292	10
2023-09-10T18:00	8196	366	-26.3	-46.2	292	10
2023-09-10T18:00	8221	365	-26.5	-46.1	293	10
2023-09-10T18:00	8245	364	-26.7	-46.3	294	10
2023-09-10T18:00	8268	362	-26.9	-46.5	295	10
2023-09-10T18:00	8292	361	-27.1	-46.8	297	10
2023-09-10T18:00	8312	360	-27.3	-46.9	299	9
2023-09-10T18:00	8334	359	-27.4	-46.8	300	9
2023-09-10T18:00	8356	358	-27.6	-46.4	300	9
2023-09-10T18:00	8383	357	-27.9	-46.2	300	9
2023-09-10T18:00	8413	355	-28.2	-46.7	300	9
2023-09-10T18:00	8446	354	-28.4	-46.8	299	9
2023-09-10T18:00	8469	353	-28.6	-46.7	298	9
2023-09-10T18:00	8490	351	-28.9	-47.0	297	9
2023-09-10T18:00	8517	350	-29.1	-46.9	296	10
2023-09-10T18:00	8541	349	-29.3	-46.9	296	10
2023-09-10T18:00	8570	348	-29.5	-47.1	295	10
2023-09-10T18:00	8597	346	-29.8	-47.5	295	10
2023-09-10T18:00	8627	345	-30.0	-48.0	294	10
2023-09-10T18:00	8663	343	-30.3	-48.0	294	9
2023-09-10T18:00	8691	342	-30.6	-48.2	293	9
2023-09-10T18:00	8723	340	-30.9	-48.3	292	9
2023-09-10T18:00	8753	339	-31.1	-48.3	291	9
2023-09-10T18:00	8775	338	-31.3	-48.7	289	9
2023-09-10T18:00	8795	337	-31.4	-48.9	288	9
2023-09-10T18:00	8819	336	-31.6	-48.6	287	9
2023-09-10T18:00	8840	335	-31.7	-48.5	287	9
2023-09-10T18:00	8863	333	-32.0	-48.6	287	10
2023-09-10T18:00	8888	332	-32.2	-49.1	288	10
2023-09-10T18:00	8920	331	-32.4	-49.2	288	11
2023-09-10T18:00	8950	329	-32.6	-49.8	289	11
2023-09-10T18:00	8986	328	-32.9	-49.8	288	11
2023-09-10T18:00	9011	327	-33.1	-49.9	288	12
2023-09-10T18:00	9033	325	-33.3	-50.0	288	12
2023-09-10T18:00	9056	324	-33.5	-49.8	288	12
2023-09-10T18:00	9080	323	-33.7	-49.9	289	12
2023-09-10T18:00	9102	322	-33.8	-49.7	290	12
2023-09-10T18:00	9124	321	-34.0	-49.5	291	12
2023-09-10T18:00	9150	320	-34.2	-50.0	291	13
2023-09-10T18:00	9182	319	-34.5	-50.0	291	13
2023-09-10T18:00	9206	318	-34.7	-49.9	291	13
2023-09-10T18:00	9232	316	-34.9	-50.6	291	13
2023-09-10T18:00	9253	315	-35.1	-50.6	290	13
2023-09-10T18:00	9274	314	-35.3	-49.7	290	13
2023-09-10T18:00	9297	313	-35.5	-49.1	290	14
2023-09-10T18:00	9323	312	-35.7	-49.7	290	14
2023-09-10T18:00	9355	311	-36.0	-51.1	290	14
2023-09-10T18:00	9386	309	-36.3	-50.9	291	14
2023-09-10T18:00	9417	308	-36.6	-50.7	291	14
2023-09-10T18:00	9448	307	-36.9	-50.4	292	14
2023-09-10T18:00	9472	306	-37.1	-50.0	293	14
2023-09-10T18:00	9504	304	-37.4	-49.6	294	14
2023-09-10T18:00	9531	303	-37.6	-49.7	295	14
2023-09-10T18:00	9565	302	-37.9	-49.8	297	14
2023-09-10T18:00	9592	300	-38.1	-50.2	298	14
2023-09-10T18:00	9623	299	-38.1	-52.3	298	14
2023-09-10T18:00	9653	298	-38.2	-52.6	299	14
2023-09-10T18:00	9681	296	-38.3	-52.5	299	14
2023-09-10T18:00	9714	295	-38.4	-52.3	300	14
2023-09-10T18:00	9739	294	-38.6	-52.2	300	14
2023-09-10T18:00	9761	293	-38.8	-51.7	300	14
2023-09-10T18:00	9782	292	-39.0	-50.6	300	14
2023-09-10T18:00	9803	291	-39.2	-49.6	300	14
2023-09-10T18:00	9827	290	-39.4	-49.8	301	15
2023-09-10T18:00	9847	289	-39.6	-49.8	301	15
2023-09-10T18:00	9871	288	-39.8	-49.2	301	15
2023-09-10T18:00	9893	287	-40.0	-49.0	302	15
2023-09-10T18:00	9918	286	-40.2	-49.2	302	16
2023-09-10T18:00	9943	285	-40.4	-49.4	302	16
2023-09-10T18:00	9973	284	-40.6	-49.6	302	16
2023-09-10T18:00	10003	283	-40.9	-49.9	301	16
2023-09-10T18:00	10036	281	-41.2	-50.2	301	15
2023-09-10T18:00	10068	280	-41.5	-50.9	300	15
2023-09-10T18:00	10099	279	-41.6	-51.6	299	15
2023-09-10T18:00	10128	278	-41.9	-51.7	298	15
2023-09-10T18:00	10155	277	-42.0	-51.4	297	14
2023-09-10T18:00	10176	276	-42.2	-51.2	297	14
2023-09-10T18:00	10197	275	-42.4	-51.6	296	14
2023-09-10T18:00	10220	274	-42.5	-52.2	296	14
2023-09-10T18:00	10246	273	-42.7	-52.4	296	14
2023-09-10T18:00	10272	272	-43.0	-52.5	296	14
2023-09-10T18:00	10297	271	-43.2	-52.6	296	14
2023-09-10T18:00	10324	270	-43.4	-52.9	295	14
2023-09-10T18:00	10346	269	-43.6	-53.1	295	14
2023-09-10T18:00	10369	268	-43.8	-53.1	295	14
2023-09-10T18:00	10395	267	-44.0	-53.2	294	13
2023-09-10T18:00	10419	266	-44.3	-53.4	294	13
2023-09-10T18:00	10443	265	-44.4	-53.7	294	13
2023-09-10T18:00	10467	264	-44.6	-54.8	293	13
2023-09-10T18:00	10488	263	-44.8		293	13
2023-09-10T18:00	10516	262	-45.0	-54.6	292	13
2023-09-10T18:00	10536	261	-45.2	-54.2	291	13
2023-09-10T18:00	10563	260	-45.4	-54.6	291	13
2023-09-10T18:00	10588	259	-45.6	-55.5	290	13
2023-09-10T18:00	10612	258	-45.7	-55.9	290	13
2023-09-10T18:00	10645	257	-45.9	-56.0	290	13
2023-09-10T18:00	10675	256	-46.1	-56.0	290	14
2023-09-10T18:00	10702	255	-46.3	-56.0	291	14
2023-09-10T18:00	10730	254	-46.6	-56.1	291	14
2023-09-10T18:00	10755	253	-46.8	-55.5	291	14
2023-09-10T18:00	10781	252	-47.0	-55.0	292	14
2023-09-10T18:00	10806	251	-47.2	-55.2	293	14
2023-09-10T18:00	10829	250	-47.4	-55.8	294	14
2023-09-10T18:00	10855	249	-47.6	-56.5	294	14
2023-09-10T18:00	10880	248	-47.8	-57.3	295	14
2023-09-10T18:00	10903	247	-47.9	-57.4	295	14
2023-09-10T18:00	10926	246	-48.1	-57.1	295	14
2023-09-10T18:00	10946	246	-48.3	-56.6	296	14
2023-09-10T18:00	10966	245	-48.5	-56.1	296	15
2023-09-10T18:00	10990	244	-48.7	-55.6	297	15
2023-09-10T18:00	11011	243	-48.8	-55.5	297	15
2023-09-10T18:00	11034	242	-48.9	-55.9	296	15
2023-09-10T18:00	11055	242	-49.0	-57.2	295	16
2023-09-10T18:00	11075	241	-49.1	-59.5	294	16
2023-09-10T18:00	11100	240	-49.3	-60.7	292	16
2023-09-10T18:00	11121	239	-49.5	-60.4	291	16
2023-09-10T18:00	11142	238	-49.5	-59.9	290	16
2023-09-10T18:00	11165	238	-49.7	-59.7	290	15
2023-09-10T18:00	11188	237	-49.9	-59.4	290	15
2023-09-10T18:00	11209	236	-50.1	-59.3	291	15
2023-09-10T18:00	11232	235	-50.3	-59.3	291	15
2023-09-10T18:00	11252	234	-50.4	-58.9	292	15
2023-09-10T18:00	11276	234	-50.6	-58.5	293	16
2023-09-10T18:00	11305	233	-50.9	-58.5	293	16
2023-09-10T18:00	11336	232	-51.2	-58.6	293	16
2023-09-10T18:00	11363	231	-51.3	-58.3	292	16
2023-09-10T18:00	11392	230	-51.6	-58.3	292	16
2023-09-10T18:00	11419	229	-51.9	-58.4	293	16
2023-09-10T18:00	11446	228	-52.1	-58.4	293	16
2023-09-10T18:00	11476	227	-52.4	-58.5	293	16
2023-09-10T18:00	11505	226	-52.5	-58.7	293	16
2023-09-10T18:00	11528	225	-52.7	-58.9	292	16
2023-09-10T18:00	11549	224	-52.9	-59.0	291	16
2023-09-10T18:00	11575	223	-53.0	-58.8	291	16
2023-09-10T18:00	11601	222	-53.2	-59.0	291	16
2023-09-10T18:00	11630	221	-53.3	-59.4	291	16
2023-09-10T18:00	11656	220	-53.5	-60.0	291	16
2023-09-10T18:00	11676	220	-53.7	-60.4	291	16
2023-09-10T18:00	11699	219	-53.9	-60.5	291	16
2023-09-10T18:00	11720	218	-54.0	-60.3	291	16
2023-09-10T18:00	11742	217	-54.1	-60.4	291	16
2023-09-10T18:00	11764	217	-54.2	-61.0	291	16
2023-09-10T18:00	11783	216	-54.2	-61.5	291	16
2023-09-10T18:00	11803	215	-54.4	-61.8	291	16
2023-09-10T18:00	11826	215	-54.6	-61.6	291	16
2023-09-10T18:00	11846	214	-54.7	-61.3	291	17
2023-09-10T18:00	11867	213	-54.9	-61.4	291	17
2023-09-10T18:00	11886	212	-55.0	-61.4	291	17
2023-09-10T18:00	11909	212	-55.2	-61.6	290	17
2023-09-10T18:00	11928	211	-55.3	-61.7	290	18
2023-09-10T18:00	11948	210	-55.5	-62.0	290	18
2023-09-10T18:00	11970	210	-55.6	-62.3	290	18
2023-09-10T18:00	11990	209	-55.8	-62.6	290	18
2023-09-10T18:00	12011	208	-55.9	-62.7	290	19
2023-09-10T18:00	12031	208	-56.1	-62.7	290	19
2023-09-10T18:00	12052	207	-56.3	-62.7	290	19
2023-09-10T18:00	12073	206	-56.4	-62.4	289	19
2023-09-10T18:00	12093	206	-56.5	-62.2	289	19
2023-09-10T18:00	12113	205	-56.5	-62.2	289	20
2023-09-10T18:00	12134	204	-56.6	-62.4	289	20
2023-09-10T18:00	12155	204	-56.7	-62.7	289	20
2023-09-10T18:00	12174	203	-56.9	-63.1	289	20
2023-09-10T18:00	12194	202	-57.0	-63.3	289	20
2023-09-10T18:00	12216	202	-57.2	-63.5	289	20
2023-09-10T18:00	12235	201	-57.3	-63.6	289	20
2023-09-10T18:00	12258	200	-57.5	-63.7	289	20
2023-09-10T18:00	12278	200	-57.6	-63.7	289	20
2023-09-10T18:00	12300	199	-57.8	-63.7	289	20
2023-09-10T18:00	12319	199	-58.0	-63.7	288	20
2023-09-10T18:00	12340	198	-58.2	-63.6	287	20
2023-09-10T18:00	12363	197	-58.3	-63.6	287	20
2023-09-10T18:00	12384	196	-58.5	-63.7	286	20
2023-09-10T18:00	12404	196	-58.7	-63.9	286	20
2023-09-10T18:00	12426	195	-58.8	-64.0	286	20
2023-09-10T18:00	12450	194	-59.0	-64.1	286	20
2023-09-10T18:00	12470	194	-59.2	-64.2	286	20
2023-09-10T18:00	12492	193	-59.4	-64.3	286	20
2023-09-10T18:00	12514	192	-59.6	-64.4	286	20
2023-09-10T18:00	12535	192	-59.7	-64.5	286	21
2023-09-10T18:00	12555	191	-59.8	-64.7	286	21
2023-09-10T18:00	12577	190	-59.9	-64.9	287	21
2023-09-10T18:00	12601	190	-60.0	-65.1	287	21
2023-09-10T18:00	12620	189	-60.2	-65.4	288	21
2023-09-10T18:00	12641	189	-60.3	-65.5	288	21
2023-09-10T18:00	12664	188	-60.5	-65.8	288	21
2023-09-10T18:00	12686	187	-60.6	-65.9	288	21
2023-09-10T18:00	12708	187	-60.7	-66.0	287	21
2023-09-10T18:00	12728	186	-60.7	-66.2	287	21
2023-09-10T18:00	12750	185	-60.8	-66.6	286	21
2023-09-10T18:00	12772	185	-60.9	-67.2	285	21
2023-09-10T18:00	12793	184	-60.9	-67.7	285	21
2023-09-10T18:00	12814	183	-61.0	-68.1	284	21
2023-09-10T18:00	12838	183	-61.1	-68.3	284	21
2023-09-10T18:00	12859	182	-61.1	-68.2	284	21
2023-09-10T18:00	12880	181	-61.1	-68.1	283	21
2023-09-10T18:00	12903	181	-61.3	-68.3	283	21
2023-09-10T18:00	12925	180	-61.5	-68.4	283	21
2023-09-10T18:00	12946	180	-61.6	-68.3	282	21
2023-09-10T18:00	12968	179	-61.7	-68.3	282	21
2023-09-10T18:00	12991	178	-61.7	-68.2	281	21
2023-09-10T18:00	13013	178	-61.9	-68.2	281	21
2023-09-10T18:00	13036	177	-62.1	-68.2	280	21
2023-09-10T18:00	13057	176	-62.2	-68.2	280	21
2023-09-10T18:00	13079	176	-62.4	-68.4	280	20
2023-09-10T18:00	13101	175	-62.5	-68.6	279	20
2023-09-10T18:00	13121	174	-62.6	-68.8	279	20
2023-09-10T18:00	13143	174	-62.7	-69.0	278	20
2023-09-10T18:00	13164	173	-62.8	-69.1	278	20
2023-09-10T18:00	13186	173	-62.9	-69.1	277	20
2023-09-10T18:00	13208	172	-62.9	-69.2	275	19
2023-09-10T18:00	13230	171	-62.9	-69.4	274	19
2023-09-10T18:00	13253	171	-62.9	-69.8	274	19
2023-09-10T18:00	13275	170	-63.0	-70.3	273	19
2023-09-10T18:00	13296	170	-63.0	-70.7	273	19
2023-09-10T18:00	13317	169	-63.0	-71.0	272	19
2023-09-10T18:00	13339	168	-63.0	-71.1	272	20
2023-09-10T18:00	13358	168	-63.0	-71.1	271	20
2023-09-10T18:00	13381	167	-63.0	-70.9	271	20
2023-09-10T18:00	13402	167	-63.0	-70.6	271	20
2023-09-10T18:00	13425	166	-63.0	-70.2	272	21
2023-09-10T18:00	13447	166	-63.0	-70.0	272	21
2023-09-10T18:00	13465	165	-63.0	-70.1	273	21
2023-09-10T18:00	13488	164	-62.7	-70.2	274	21
2023-09-10T18:00	13510	164	-62.5	-70.6	275	21
2023-09-10T18:00	13531	163	-62.5	-71.2	276	21
2023-09-10T18:00	13551	163	-62.4	-71.8	278	21
2023-09-10T18:00	13571	162	-62.3	-72.4	281	20
2023-09-10T18:00	13597	162	-62.3	-72.9	283	20
2023-09-10T18:00	13619	161	-62.2	-73.4	286	20
2023-09-10T18:00	13640	160	-62.2	-73.9	288	20
2023-09-10T18:00	13662	160	-61.9	-74.2	289	20
2023-09-10T18:00	13682	159	-62.0	-74.7	290	20
2023-09-10T18:00	13700	159	-62.1	-75.0	291	20
2023-09-10T18:00	13724	158	-62.2	-75.2	292	20
2023-09-10T18:00	13745	158	-62.4	-75.5	292	20
2023-09-10T18:00	13765	157	-62.5	-75.7	293	20
2023-09-10T18:00	13787	157	-62.6	-75.9	293	19
2023-09-10T18:00	13807	156	-62.5	-75.9	294	19
2023-09-10T18:00	13828	156	-62.5	-75.9	294	18
2023-09-10T18:00	13848	155	-62.5	-75.9	293	18
2023-09-10T18:00	13871	155	-62.5	-75.9	293	17
2023-09-10T18:00	13893	154	-62.6	-76.0	291	16
2023-09-10T18:00	13914	153	-62.6	-76.1	290	16
2023-09-10T18:00	13935	153	-62.5		288	15
2023-09-10T18:00	13954	152	-62.6	-76.4	287	15
2023-09-10T18:00	13978	152	-62.6	-76.6	286	15
2023-09-10T18:00	13996	151	-62.6	-76.8	286	15
2023-09-10T18:00	14015	151	-62.6	-77.0	287	15
2023-09-10T18:00	14039	150	-62.6	-77.4	288	15
2023-09-10T18:00	14061	150	-62.2	-77.4	290	15
2023-09-10T18:00	14082	149	-61.9	-77.7	292	15
2023-09-10T18:00	14102	149	-61.8	-78.1	294	15
2023-09-10T18:00	14123	148	-61.7	-78.3	295	14
2023-09-10T18:00	14144	148	-61.5	-78.3	296	14
2023-09-10T18:00	14166	147	-61.5	-78.4	296	13
2023-09-10T18:00	14186	147	-61.6	-78.5	296	12
2023-09-10T18:00	14209	146	-61.5	-78.2	294	11
2023-09-10T18:00	14232	146	-61.6	-78.2	293	11
2023-09-10T18:00	14254	145	-61.7	-78.3	290	10
2023-09-10T18:00	14276	145	-61.8	-78.6	287	10
2023-09-10T18:00	14305	144	-61.9	-79.0	284	9
2023-09-10T18:00	14324	144	-62.1	-79.5	281	9
2023-09-10T18:00	14345	143	-62.1	-79.9	279	9
2023-09-10T18:00	14370	143	-61.9	-80.2	278	9
2023-09-10T18:00	14393	142	-61.7	-80.5	278	10
2023-09-10T18:00	14415	142	-61.4	-80.4	278	10
2023-09-10T18:00	14436	141	-61.3	-80.4	279	10
2023-09-10T18:00	14458	141	-61.5	-80.3	282	10
2023-09-10T18:00	14480	140	-61.6	-80.2	285	9
2023-09-10T18:00	14500	140	-61.5	-80.0	289	9
2023-09-10T18:00	14523	139	-61.5	-79.9	293	9
2023-09-10T18:00	14544	139	-61.4	-79.9	296	9
2023-09-10T18:00	14564	138	-61.2	-80.0	298	9
2023-09-10T18:00	14588	138	-61.2	-80.2	299	9
2023-09-10T18:00	14607	137	-61.2	-80.5	299	9
2023-09-10T18:00	14626	137	-61.1	-80.6	299	9
2023-09-10T18:00	14649	136	-61.3	-80.9	298	9
2023-09-10T18:00	14671	136	-61.5	-81.1	296	9
2023-09-10T18:00	14691	135	-61.7	-81.1	293	9
2023-09-10T18:00	14713	135	-61.9	-81.1	290	9
2023-09-10T18:00	14732	134	-62.0	-81.0	288	9
2023-09-10T18:00	14755	134	-62.2	-81.1	285	9
2023-09-10T18:00	14776	134	-62.3	-81.1	284	9
2023-09-10T18:00	14796	133	-62.4	-81.3	283	9
2023-09-10T18:00	14819	133	-62.6	-81.5	283	8
2023-09-10T18:00	14841	132	-62.7	-81.7	282	8
2023-09-10T18:00	14860	132	-62.6	-81.8	282	8
2023-09-10T18:00	14883	131	-62.7	-82.1	282	8
2023-09-10T18:00	14904	131	-62.5	-82.0	284	8
2023-09-10T18:00	14930	130	-62.6	-82.3	286	8
2023-09-10T18:00	14955	130	-62.7	-82.5	290	9
2023-09-10T18:00	14982	129	-62.8	-82.8	294	9
2023-09-10T18:00	15003	129	-62.8	-82.8	297	10
2023-09-10T18:00	15025	128	-63.0	-82.9	299	10
2023-09-10T18:00	15046	128	-63.2	-83.1	301	10
2023-09-10T18:00	15067	127	-63.2	-83.1	302	10
2023-09-10T18:00	15091	127	-63.2	-83.2	304	10
2023-09-10T18:00	15110	126	-63.1	-83.3	306	9
2023-09-10T18:00	15131	126	-62.8	-83.1	308	9
2023-09-10T18:00	15155	126	-62.7	-83.2	310	8
2023-09-10T18:00	15175	125	-62.7	-83.2	312	8
2023-09-10T18:00	15195	125	-62.8	-83.3	313	7
2023-09-10T18:00	15216	124	-63.0	-83.4	315	7
2023-09-10T18:00	15238	124	-63.1	-83.4	315	7
2023-09-10T18:00	15261	123	-63.1	-83.4	315	6
2023-09-10T18:00	15282	123	-63.2	-83.5	313	6
2023-09-10T18:00	15304	123	-63.2	-83.5	310	6
2023-09-10T18:00	15323	122	-63.2	-83.5	306	5
2023-09-10T18:00	15346	122	-63.2	-83.5	302	5
2023-09-10T18:00	15368	121	-63.1	-83.5	299	5
2023-09-10T18:00	15389	121	-63.2	-83.6	297	5
2023-09-10T18:00	15412	120	-63.2	-83.6	296	5
2023-09-10T18:00	15433	120	-63.1	-83.5	294	4
2023-09-10T18:00	15453	120	-63.2	-83.5	292	4
2023-09-10T18:00	15475	119	-63.2	-83.3	289	4
2023-09-10T18:00	15495	119	-63.4	-83.4	285	5
2023-09-10T18:00	15520	118	-63.4	-83.2	283	5
2023-09-10T18:00	15541	118	-63.5	-83.2	281	6
2023-09-10T18:00	15564	117	-63.6	-83.2	281	6
2023-09-10T18:00	15582	117	-63.7	-83.1	281	7
2023-09-10T18:00	15606	117	-63.8	-83.1	282	8
2023-09-10T18:00	15628	116	-64.0	-83.1	283	8
2023-09-10T18:00	15648	116	-64.2	-83.3	284	9
2023-09-10T18:00	15671	115	-64.4	-83.5	286	9
2023-09-10T18:00	15694	115	-64.3	-83.4	287	9
2023-09-10T18:00	15713	115	-64.2	-83.5	288	10
2023-09-10T18:00	15738	114	-64.0	-83.5	289	10
2023-09-10T18:00	15756	114	-63.7	-83.5	290	10
2023-09-10T18:00	15779	113	-63.5	-83.5	290	10
2023-09-10T18:00	15800	113	-63.2	-83.3	290	10
2023-09-10T18:00	15822	113	-63.1	-83.5	290	9
2023-09-10T18:00	15845	112	-62.8	-83.4	290	8
2023-09-10T18:00	15869	112	-62.7	-83.5	290	7
2023-09-10T18:00	15890	111	-62.8	-83.7	290	7
2023-09-10T18:00	15914	111	-62.9	-83.8	290	6
2023-09-10T18:00	15935	111	-62.7	-83.8	290	5
2023-09-10T18:00	15956	110	-62.6	-83.8	289	4
2023-09-10T18:00	15976	110	-62.4	-83.7	288	4
2023-09-10T18:00	16001	109	-62.1	-83.6	288	3
2023-09-10T18:00	16021	109	-62.1	-83.6	288	3
2023-09-10T18:00	16047	109	-62.1	-83.8	290	4
2023-09-10T18:00	16068	108	-62.1	-83.8	292	4
2023-09-10T18:00	16090	108	-61.8	-83.7	292	4
2023-09-10T18:00	16113	107	-61.9	-83.8	293	5
2023-09-10T18:00	16140	107	-62.0	-83.8	293	5
2023-09-10T18:00	16163	107	-62.2	-84.0	293	5
2023-09-10T18:00	16185	106	-62.4	-84.2	292	6
2023-09-10T18:00	16211	106	-62.5	-84.2	292	6
2023-09-10T18:00	16234	105	-62.5	-84.2	292	6
2023-09-10T18:00	16257	105	-62.5	-84.2	291	6
2023-09-10T18:00	16280	105	-62.6	-84.5	291	5
2023-09-10T18:00	16306	104	-62.5	-84.6	289	4
2023-09-10T18:00	16331	104	-62.5	-84.8	285	3
2023-09-10T18:00	16354	103	-62.2	-84.5	276	3
2023-09-10T18:00	16378	103	-62.1	-84.6	261	2
2023-09-10T18:00	16401	103	-62.0	-84.5	244	2
2023-09-10T18:00	16424	102	-62.0	-84.5	232	2
2023-09-10T18:00	16446	102	-62.1	-84.6	227	2
2023-09-10T18:00	16468	101	-62.3	-84.8	226	3
2023-09-10T18:00	16491	101	-62.4	-85.1	228	3
2023-09-10T18:00	16516	101	-62.6	-85.2	232	4
2023-09-10T18:00	16538	100	-62.5	-85.3	236	4
2023-09-10T18:00	16558	100	-62.3	-85.2	241	5
2023-09-10T18:00	16580	100	-62.1	-85.2	246	5
2023-09-10T18:00	16602	99	-62.0	-85.3	252	5
2023-09-10T18:00	16626	99	-61.9	-85.3	257	5
2023-09-10T18:00	16649	98	-62.0	-85.3	263	6
2023-09-10T18:00	16675	98	-61.9	-85.3	269	6
2023-09-10T18:00	16695	98	-61.9	-85.3	274	7
2023-09-10T18:00	16718	97	-61.9	-85.5	278	7
2023-09-10T18:00	16737	97	-61.9	-85.5	283	7
2023-09-10T18:00	16759	97	-61.9	-85.5	288	7
2023-09-10T18:00	16782	96	-62.1	-85.6	293	7
2023-09-10T18:00	16805	96	-62.0	-85.6	299	7
2023-09-10T18:00	16826	96	-61.9	-85.7	305	6
2023-09-10T18:00	16847	95	-61.8	-85.6	311	6
2023-09-10T18:00	16870	95	-61.4	-85.3	317	6
2023-09-10T18:00	16891	95	-61.2	-85.4	323	6
2023-09-10T18:00	16914	94	-61.3	-85.5	328	5
2023-09-10T18:00	16939	94	-61.4	-85.5	334	4
2023-09-10T18:00	16963	94	-61.3	-85.5	342	4
2023-09-10T18:00	16984	93	-61.3	-85.5	349	3
2023-09-10T18:00	17008	93	-61.3	-85.5	358	2
2023-09-10T18:00	17034	93	-61.4	-85.8	9	2
2023-09-10T18:00	17052	92	-61.1	-85.6	28	1
2023-09-10T18:00	17075	92	-61.1	-85.6	75	1
2023-09-10T18:00	17097	92	-61.1	-85.6	135	1
2023-09-10T18:00	17120	91	-61.0	-85.5	162	1
2023-09-10T18:00	17141	91	-61.1	-85.6	179	1
2023-09-10T18:00	17163	91	-61.1	-85.6	192	1
2023-09-10T18:00	17185	90	-61.2	-85.6	202	1
2023-09-10T18:00	17209	90	-61.2	-85.9	209	1
2023-09-10T18:00	17230	90	-61.2	-85.9	209	1
2023-09-10T18:00	17252	89	-61.2	-85.9	204	1
2023-09-10T18:00	17274	89	-61.0	-86.0	197	1
2023-09-10T18:00	17297	89	-60.9	-85.9	192	1
2023-09-10T18:00	17317	88	-60.8	-85.8	194	1
2023-09-10T18:00	17340	88	-60.8	-85.8	204	1
2023-09-10T18:00	17361	88	-60.8	-85.8	222	1
2023-09-10T18:00	17386	87	-61.0	-86.0	240	1
2023-09-10T18:00	17405	87	-61.0	-86.0	244	1
2023-09-10T18:00	17429	87	-61.0	-86.0	237	1
2023-09-10T18:00	17451	87	-60.9	-85.9	227	2
2023-09-10T18:00	17474	86	-60.9	-85.9	220	2
2023-09-10T18:00	17493	86	-61.0	-86.0	219	2
2023-09-10T18:00	17519	86	-60.9	-86.2	222	3
2023-09-10T18:00	17538	85	-61.0	-86.3	229	3
2023-09-10T18:00	17556	85	-61.0	-86.3	238	3
2023-09-10T18:00	17582	85	-61.0	-86.3	250	3
2023-09-10T18:00	17604	84	-60.8	-86.4	262	3
2023-09-10T18:00	17626	84	-60.5	-86.2	272	3
2023-09-10T18:00	17648	84	-60.6	-86.3	280	3
2023-09-10T18:00	17669	84	-60.5	-86.5	284	2
2023-09-10T18:00	17694	83	-60.4		285	2
2023-09-10T18:00	17712	83	-60.2	-86.3	282	2
2023-09-10T18:00	17738	83	-60.2	-86.3	274	2
2023-09-10T18:00	17762	82	-60.4		263	2
2023-09-10T18:00	17779	82	-60.4		254	3
2023-09-10T18:00	17805	82	-60.3	-86.3	246	3
2023-09-10T18:00	17824	82	-60.2	-86.3	242	3
2023-09-10T18:00	17847	81	-60.0	-86.4	242	4
2023-09-10T18:00	17871	81	-59.8	-86.3	244	4
2023-09-10T18:00	17893	81	-59.7	-86.2	249	4
2023-09-10T18:00	17920	80	-59.6	-86.1	255	5
2023-09-10T18:00	17942	80	-59.5	-86.0	261	5
2023-09-10T18:00	17964	80	-59.6	-86.1	269	6
2023-09-10T18:00	17984	79	-59.7	-86.2	276	6
2023-09-10T18:00	18008	79	-59.8	-86.3	283	6
2023-09-10T18:00	18032	79	-59.7	-86.5	290	7
2023-09-10T18:00	18053	79	-59.3	-86.2	296	7
2023-09-10T18:00	18075	78	-59.0	-86.0	303	7
2023-09-10T18:00	18099	78	-58.9	-85.9	309	7
2023-09-10T18:00	18123	78	-58.9	-85.9	315	6
2023-09-10T18:00	18147	77	-59.0	-86.0	322	6
2023-09-10T18:00	18172	77	-58.9	-85.9	329	6
2023-09-10T18:00	18191	77	-58.9	-85.9	337	5
2023-09-10T18:00	18213	77	-58.9	-85.9	345	5
2023-09-10T18:00	18239	76	-59.0	-86.0	352	5
2023-09-10T18:00	18260	76	-59.1		0	4
2023-09-10T18:00	18284	76	-59.1		8	4
2023-09-10T18:00	18305	75	-59.1		15	4
2023-09-10T18:00	18329	75	-59.2	-86.2	22	4
2023-09-10T18:00	18351	75	-59.1		27	4
2023-09-10T18:00	18373	75	-59.2	-86.2	31	4
2023-09-10T18:00	18397	74	-59.2	-86.2	34	3
2023-09-10T18:00	18422	74	-59.2	-86.2	38	3
2023-09-10T18:00	18448	74	-59.3	-85.9	40	3
2023-09-10T18:00	18470	74	-59.4	-86.0	42	2
2023-09-10T18:00	18495	73	-59.4	-86.0	43	2
2023-09-10T18:00	18514	73	-59.5	-86.0	44	1
2023-09-10T18:00	18538	73	-59.6	-86.1	45	1
2023-09-10T18:00	18564	72	-59.6	-86.1	44	1
2023-09-10T18:00	18587	72	-59.7	-86.2	41	1
2023-09-10T18:00	18609	72	-59.8	-86.3	34	1
2023-09-10T18:00	18635	72	-59.9	-86.3	25	1
2023-09-10T18:00	18659	71	-60.0	-86.4	17	2
2023-09-10T18:00	18683	71	-59.9	-86.3	10	2
2023-09-10T18:00	18704	71	-59.9	-86.3	4	2
2023-09-10T18:00	18725	71	-59.9	-86.7	358	2
2023-09-10T18:00	18749	70	-59.8	-86.6	350	3
2023-09-10T18:00	18775	70	-59.6	-86.5	340	3
2023-09-10T18:00	18796	70	-59.2	-86.5	331	3
2023-09-10T18:00	18816	70	-59.2	-86.5	322	3
2023-09-10T18:00	18839	69	-59.1	-86.5	315	3
2023-09-10T18:00	18864	69	-58.9	-86.3	309	3
2023-09-10T18:00	18887	69	-58.8	-86.2	304	3
2023-09-10T18:00	18906	69	-58.8	-86.2	298	3
2023-09-10T18:00	18931	68	-58.9	-86.3	293	4
2023-09-10T18:00	18955	68	-59.0	-86.4	289	4
2023-09-10T18:00	18976	68	-59.1	-86.5	286	4
2023-09-10T18:00	18998	68	-59.0	-86.4	286	5
2023-09-10T18:00	19020	67	-59.0	-86.4	288	5
2023-09-10T18:00	19046	67	-58.9	-86.7	290	5
2023-09-10T18:00	19063	67	-58.4	-86.3	293	5
2023-09-10T18:00	19090	67	-58.2	-86.2	296	5
2023-09-10T18:00	19109	66	-58.1		299	5
2023-09-10T18:00	19135	66	-58.1		302	5
2023-09-10T18:00	19158	66	-58.1		305	5
2023-09-10T18:00	19181	66	-58.0	-86.0	309	5
2023-09-10T18:00	19204	65	-58.0	-86.0	313	5
2023-09-10T18:00	19227	65	-57.9		317	5
2023-09-10T18:00	19250	65	-58.0	-86.0	320	5
2023-09-10T18:00	19271	65	-58.1		322	5
2023-09-10T18:00	19300	64	-58.2	-86.2	324	5
2023-09-10T18:00	19322	64	-58.2	-85.8	325	5
2023-09-10T18:00	19346	64	-58.4	-85.9	327	4
2023-09-10T18:00	19368	64	-58.6	-86.1	330	4
2023-09-10T18:00	19390	64	-58.7	-86.1	335	4
2023-09-10T18:00	19411	63	-58.7	-86.1	342	4
2023-09-10T18:00	19438	63	-58.5	-86.4	349	3
2023-09-10T18:00	19464	63	-58.4	-86.3	354	3
2023-09-10T18:00	19487	63	-58.4	-86.3	358	3
2023-09-10T18:00	19511	62	-58.4	-86.3	0	3
2023-09-10T18:00	19534	62	-58.3	-86.2	1	3
2023-09-10T18:00	19561	62	-58.1		359	3
2023-09-10T18:00	19583	62	-58.2	-86.2	355	2
2023-09-10T18:00	19604	61	-58.1		347	2
2023-09-10T18:00	19629	61	-58.1		337	2
2023-09-10T18:00	19655	61	-57.9		323	2
2023-09-10T18:00	19674	61	-57.8	-85.9	307	1
2023-09-10T18:00	19699	60	-57.8	-85.9	289	1
2023-09-10T18:00	19727	60	-58.0	-86.0	271	1
2023-09-10T18:00	19751	60	-58.1		257	1
2023-09-10T18:00	19774	60	-58.1		251	1
2023-09-10T18:00	19797	60	-58.1		253	2
2023-09-10T18:00	19820	59	-58.2	-86.2	261	2
2023-09-10T18:00	19847	59	-58.2	-86.2	272	2
2023-09-10T18:00	19872	59	-58.3	-86.2	283	2
2023-09-10T18:00	19898	59	-58.3	-86.2	293	3
2023-09-10T18:00	19918	58	-58.3	-86.2	300	3
2023-09-10T18:00	19944	58	-58.1		306	3
2023-09-10T18:00	19968	58	-58.1		311	3
2023-09-10T18:00	19991	58	-58.1		315	3
2023-09-10T18:00	20019	57	-58.0	-86.0	319	3
2023-09-10T18:00	20039	57	-57.7	-86.2	320	3
2023-09-10T18:00	20062	57	-57.6	-86.1	319	3
2023-09-10T18:00	20089	57	-57.6	-86.1	315	3
2023-09-10T18:00	20115	57	-57.5	-86.1	312	3
2023-09-10T18:00	20135	56	-57.4	-86.0	311	3
2023-09-10T18:00	20161	56	-57.5	-86.1	313	4
2023-09-10T18:00	20183	56	-57.6	-85.7	317	4
2023-09-10T18:00	20210	56	-57.6	-85.7	322	4
2023-09-10T18:00	20235	56	-57.7	-85.8	327	5
2023-09-10T18:00	20257	55	-57.6	-85.7	332	5
2023-09-10T18:00	20281	55	-57.7	-85.8	338	5
2023-09-10T18:00	20306	55	-57.7	-85.8	343	5
2023-09-10T18:00	20326	55	-57.8	-85.9	348	5
2023-09-10T18:00	20352	54	-57.9		353	5
2023-09-10T18:00	20378	54	-57.7	-85.8	358	5
2023-09-10T18:00	20401	54	-57.7	-85.8	4	4
2023-09-10T18:00	20427	54	-57.6	-85.7	10	4
2023-09-10T18:00	20452	54	-57.7	-85.8	17	3
2023-09-10T18:00	20475	53	-57.7	-85.8	26	3
2023-09-10T18:00	20502	53	-57.6	-85.7	37	2
2023-09-10T18:00	20523	53	-57.8	-85.9	51	2
2023-09-10T18:00	20549	53	-57.9		68	2
2023-09-10T18:00	20571	53	-58.1		83	2
2023-09-10T18:00	20599	52	-58.2	-86.2	95	2
2023-09-10T18:00	20618	52	-58.3	-86.2	107	2
2023-09-10T18:00	20648	52	-58.5	-86.4	119	2
2023-09-10T18:00	20669	52	-58.5	-86.4	139	1
2023-09-10T18:00	20693	52	-58.4	-86.3	174	1
2023-09-10T18:00	20721	51	-58.4	-86.3	216	1
2023-09-10T18:00	20747	51	-58.4	-86.3	243	1
2023-09-10T18:00	20769	51	-58.5	-86.4	258	2
2023-09-10T18:00	20799	51	-58.5	-86.4	268	2
2023-09-10T18:00	20821	51	-58.2	-86.2	274	2
2023-09-10T18:00	20848	50	-58.2	-86.2	278	2
2023-09-10T18:00	20873	50	-58.2	-86.6	282	2
2023-09-10T18:00	20898	50	-57.9	-86.4	286	2
2023-09-10T18:00	20924	50	-57.9	-86.4	292	2
2023-09-10T18:00	20948	50	-58.0	-86.4	297	2
2023-09-10T18:00	20970	49	-58.0	-86.4	299	2
2023-09-10T18:00	20993	49	-58.0	-86.4	298	2
2023-09-10T18:00	21022	49	-58.0	-86.4	293	2
2023-09-10T18:00	21043	49	-57.9	-86.4	286	2
2023-09-10T18:00	21070	49	-57.8	-86.3	280	2
2023-09-10T18:00	21095	48	-57.9	-86.4	276	3
2023-09-10T18:00	21120	48	-57.8	-86.3	275	3
2023-09-10T18:00	21145	48	-57.9	-86.4	276	3
2023-09-10T18:00	21168	48	-57.7	-86.2	277	3
2023-09-10T18:00	21193	48	-57.6	-86.1	278	3
2023-09-10T18:00	21223	48	-57.6	-86.1	280	3
2023-09-10T18:00	21246	47	-57.6	-86.1	281	3
2023-09-10T18:00	21268	47	-57.5	-86.1	284	2
2023-09-10T18:00	21296	47	-57.4	-86.0	287	2
2023-09-10T18:00	21317	47	-57.3	-85.9	290	2
2023-09-10T18:00	21342	47	-57.4	-86.0	292	2
2023-09-10T18:00	21367	46	-57.4	-86.0	293	2
2023-09-10T18:00	21391	46	-57.4	-86.0	295	3
2023-09-10T18:00	21418	46	-57.6	-86.1	298	3
2023-09-10T18:00	21443	46	-57.8	-86.3	303	3
2023-09-10T18:00	21469	46	-57.9	-86.4	309	4
2023-09-10T18:00	21496	45	-57.8	-86.3	315	4
2023-09-10T18:00	21522	45	-57.7	-86.2	321	4
2023-09-10T18:00	21541	45	-57.7	-86.2	327	4
2023-09-10T18:00	21566	45	-57.8	-86.3	334	4
2023-09-10T18:00	21587	45	-57.8	-86.3	339	4
2023-09-10T18:00	21612	45	-57.8	-86.3	344	4
2023-09-10T18:00	21638	44	-57.8	-86.3	348	4
2023-09-10T18:00	21665	44	-57.8	-86.3	351	3
2023-09-10T18:00	21685	44	-58.0	-86.4	351	3
2023-09-10T18:00	21713	44	-58.0	-86.4	348	3
2023-09-10T18:00	21736	44	-58.1		343	2
2023-09-10T18:00	21761	44	-58.1		336	2
2023-09-10T18:00	21790	43	-58.3	-86.2	327	2
2023-09-10T18:00	21812	43	-58.4	-86.3	321	2
2023-09-10T18:00	21838	43	-58.4	-86.3	319	2
2023-09-10T18:00	21859	43	-58.3	-86.7	322	2
2023-09-10T18:00	21882	43	-58.3	-86.7	328	2
2023-09-10T18:00	21905	43	-58.3	-86.7	336	2
2023-09-10T18:00	21931	42	-58.2	-86.6	345	2
2023-09-10T18:00	21959	42	-57.9	-86.4	354	2
2023-09-10T18:00	21983	42	-57.8	-86.7	1	2
2023-09-10T18:00	22006	42	-57.7	-86.7	6	2
2023-09-10T18:00	22030	42	-57.3	-86.4	8	2
2023-09-10T18:00	22054	42	-57.2	-86.3	7	2
2023-09-10T18:00	22084	41	-57.2	-86.3	3	2
2023-09-10T18:00	22100	41	-57.2	-86.3	354	2
2023-09-10T18:00	22131	41	-57.1	-86.2	341	2
2023-09-10T18:00	22157	41	-56.8	-86.0	325	1
2023-09-10T18:00	22178	41	-56.6	-85.8	315	2
2023-09-10T18:00	22204	41	-56.6	-85.8	314	2
2023-09-10T18:00	22229	40	-56.4	-85.7	320	2
2023-09-10T18:00	22252	40	-56.3	-85.6	330	2
2023-09-10T18:00	22280	40	-56.4	-85.7	339	3
2023-09-10T18:00	22305	40	-56.5	-85.8	345	3
2023-09-10T18:00	22327	40	-56.4	-85.7	349	4
2023-09-10T18:00	22355	40	-56.4	-85.7	350	4
2023-09-10T18:00	22376	40	-56.4	-85.7	349	4
2023-09-10T18:00	22403	39	-56.5	-85.8	346	4
2023-09-10T18:00	22431	39	-56.6	-85.8	343	5
2023-09-10T18:00	22457	39	-56.5	-85.8	339	5
2023-09-10T18:00	22481	39	-56.5	-85.8	335	5
2023-09-10T18:00	22502	39	-56.5	-85.8	331	4
2023-09-10T18:00	22529	39	-56.6	-85.8	327	4
2023-09-10T18:00	22554	38	-56.7	-85.9	322	4
2023-09-10T18:00	22585	38	-56.7	-85.9	316	4
2023-09-10T18:00	22606	38	-56.8	-86.0	310	4
2023-09-10T18:00	22636	38	-56.8	-86.0	307	5
2023-09-10T18:00	22657	38	-56.8	-86.0	306	5
2023-09-10T18:00	22679	38	-56.9	-86.1	307	5
2023-09-10T18:00	22707	38	-56.9	-86.1	312	4
2023-09-10T18:00	22736	37	-57.0	-86.1	319	4
2023-09-10T18:00	22761	37	-56.8	-86.0	329	4
2023-09-10T18:00	22783	37	-56.8	-86.0	342	3
2023-09-10T18:00	22809	37	-56.8	-86.0	357	3
2023-09-10T18:00	22838	37	-56.9	-86.1	14	3
2023-09-10T18:00	22857	37	-56.9	-86.1	30	4
2023-09-10T18:00	22884	37	-56.9	-86.1	44	4
2023-09-10T18:00	22909	36	-57.0	-86.1	54	4
2023-09-10T18:00	22937	36	-56.8	-86.0	63	4
2023-09-10T18:00	22963	36	-56.6	-85.8	69	4
2023-09-10T18:00	22982	36	-56.6	-85.8	74	4
2023-09-10T18:00	23008	36	-56.5	-85.8	78	3
2023-09-10T18:00	23034	36	-56.6	-85.8	80	3
2023-09-10T18:00	23062	36	-56.6	-85.8	81	3
2023-09-10T18:00	23090	35	-56.7	-85.9	79	2
2023-09-10T18:00	23113	35	-56.8	-86.0	73	2
2023-09-10T18:00	23139	35	-56.5	-85.8	60	2
2023-09-10T18:00	23159	35	-56.5	-85.8	42	1
2023-09-10T18:00	23189	35	-56.5	-85.8	23	2
2023-09-10T18:00	23217	35	-56.5	-85.8	6	2
2023-09-10T18:00	23242	35	-56.6	-85.8	352	2
2023-09-10T18:00	23268	34	-56.7	-85.9	343	3
2023-09-10T18:00	23293	34	-56.7	-85.9	338	3
2023-09-10T18:00	23321	34	-56.6	-85.8	336	4
2023-09-10T18:00	23343	34	-56.7	-85.9	336	5
2023-09-10T18:00	23368	34	-56.7	-85.9	337	5
2023-09-10T18:00	23397	34	-56.7	-85.9	339	6
2023-09-10T18:00	23422	34	-56.8	-86.0	341	6
2023-09-10T18:00	23448	33	-56.8	-86.0	344	6
2023-09-10T18:00	23473	33	-56.8	-86.0	346	7
2023-09-10T18:00	23501	33	-56.6	-85.8	349	7
2023-09-10T18:00	23529	33	-56.5	-85.8	352	7
2023-09-10T18:00	23550	33	-56.5	-85.8	356	7
2023-09-10T18:00	23584	33	-56.6	-85.8	0	6
2023-09-10T18:00	23607	33	-56.7	-85.9	5	6
2023-09-10T18:00	23633	32	-56.7	-85.9	10	6
2023-09-10T18:00	23661	32	-56.5	-86.3	15	6
2023-09-10T18:00	23689	32	-56.5	-86.3	18	6
2023-09-10T18:00	23719	32	-55.9	-85.8	20	6
2023-09-10T18:00	23744	32	-56.0	-85.9	20	6
2023-09-10T18:00	23766	32	-55.9	-85.8	18	5
2023-09-10T18:00	23798	32	-55.6	-86.1	16	5
2023-09-10T18:00	23824	31	-55.3	-85.9	13	5
2023-09-10T18:00	23845	31	-55.2	-85.8	12	4
2023-09-10T18:00	23874	31	-55.2	-85.8	13	4
2023-09-10T18:00	23905	31	-55.2	-85.8	17	4
2023-09-10T18:00	23925	31	-55.1	-85.2	23	3
2023-09-10T18:00	23950	31	-55.1	-85.2	32	3
2023-09-10T18:00	23982	31	-55.2	-85.3	45	2
2023-09-10T18:00	24012	31	-55.2	-85.3	60	2
2023-09-10T18:00	24034	30	-55.2	-85.3	76	2
2023-09-10T18:00	24055	30	-55.3	-85.4	92	2
2023-09-10T18:00	24091	30	-55.5	-85.5	105	2
2023-09-10T18:00	24115	30	-55.3	-85.4	113	2
2023-09-10T18:00	24139	30	-55.3	-85.4	117	2
2023-09-10T18:00	24171	30	-55.3	-85.4	118	3
2023-09-10T18:00	24198	30	-55.5	-85.5	118	3
2023-09-10T18:00	24226	30	-55.7	-85.7	120	3
2023-09-10T18:00	24251	29	-55.8	-85.7	125	3
2023-09-10T18:00	24280	29	-55.6	-85.6	131	3
2023-09-10T18:00	24299	29	-55.6	-85.6	139	2
2023-09-10T18:00	24328	29	-55.6	-85.6	147	2
2023-09-10T18:00	24350	29	-55.6	-85.6	158	1
2023-09-10T18:00	24377	29	-55.7	-85.7	182	1
2023-09-10T18:00	24402	29	-55.9	-85.8	270	1
2023-09-10T18:00	24439	29	-55.9	-85.8	302	1
2023-09-10T18:00	24455	29	-55.9	-85.8	312	2
2023-09-10T18:00	24481	28	-55.8	-85.7	318	3
2023-09-10T18:00	24508	28	-55.9	-85.8	323	4
2023-09-10T18:00	24533	28	-56.0	-85.9	327	5
2023-09-10T18:00	24556	28	-55.6	-85.6	330	5
2023-09-10T18:00	24587	28	-55.5	-85.5	333	6
2023-09-10T18:00	24609	28	-55.5	-85.5	336	7
2023-09-10T18:00	24638	28	-55.5	-85.5	338	7
2023-09-10T18:00	24668	28	-55.6	-85.6	341	7
2023-09-10T18:00	24688	27	-55.6	-85.6	344	7
2023-09-10T18:00	24716	27	-55.4	-85.4	348	7
2023-09-10T18:00	24746	27	-55.2	-85.3	353	6
2023-09-10T18:00	24774	27	-55.2	-85.3	357	6
2023-09-10T18:00	24796	27	-55.3	-85.4	1	5
2023-09-10T18:00	24829	27	-55.2	-85.3	4	5
2023-09-10T18:00	24855	27	-55.1	-85.2	7	5
2023-09-10T18:00	24878	27	-55.1	-85.2	10	5
2023-09-10T18:00	24908	27	-55.3	-85.4	14	5
2023-09-10T18:00	24933	26	-55.2	-85.8	16	5
2023-09-10T18:00	24956	26	-54.9	-85.6	17	5
2023-09-10T18:00	24986	26	-54.8	-85.5	17	5
2023-09-10T18:00	25012	26	-54.8	-85.5	13	4
2023-09-10T18:00	25044	26	-54.5	-85.3	6	4
2023-09-10T18:00	25066	26	-54.5	-85.3	354	3
2023-09-10T18:00	25094	26	-54.6	-85.4	339	3
2023-09-10T18:00	25123	26	-54.9	-85.1	324	3
2023-09-10T18:00	25152	26	-55.1	-85.2	313	4
2023-09-10T18:00	25175	25	-55.2	-85.3	306	4
2023-09-10T18:00	25203	25	-55.2	-85.3	302	5
2023-09-10T18:00	25231	25	-55.2	-85.3	302	5
2023-09-10T18:00	25258	25	-55.1	-85.2	305	5
2023-09-10T18:00	25280	25	-54.9	-85.1	311	5
2023-09-10T18:00	25306	25	-54.8	-85.5	319	5
2023-09-10T18:00	25339	25	-54.8	-85.5	327	5
2023-09-10T18:00	25368	25	-54.9	-85.6	335	5
2023-09-10T18:00	25397	25	-54.9	-85.6	341	6
2023-09-10T18:00	25421	25	-54.9	-85.6	346	6
2023-09-10T18:00	25446	24	-54.9	-85.6	351	7
2023-09-10T18:00	25480	24	-54.8	-85.5	355	7
2023-09-10T18:00	25502	24	-54.7	-85.5	358	7
2023-09-10T18:00	25525	24	-54.8	-85.5	1	6
2023-09-10T18:00	25564	24	-54.7	-85.5	3	6
2023-09-10T18:00	25583	24	-54.7	-85.5	4	5
2023-09-10T18:00	25612	24	-54.7	-84.9	5	4
2023-09-10T18:00	25638	24	-54.8	-85.0	6	4
2023-09-10T18:00	25673	24	-54.9	-85.1	6	3
2023-09-10T18:00	25704	23	-54.9	-85.1	6	3
2023-09-10T18:00	25717	23	-55.0	-85.1	6	3
2023-09-10T18:00	25749	23	-55.0	-85.1	5	3
2023-09-10T18:00	25767	23	-54.8	-85.5	4	4
2023-09-10T18:00	25801	23	-54.8	-85.5	4	5
2023-09-10T18:00	25822	23	-54.9	-85.6	3	5
2023-09-10T18:00	25855	23	-54.9	-85.6	3	5
2023-09-10T18:00	25883	23	-54.8	-85.5	2	5
2023-09-10T18:00	25910	23	-54.5	-85.3	0	5
2023-09-10T18:00	25931	23	-54.2	-85.1	356	4
2023-09-10T18:00	25965	23	-54.2	-85.1	349	3
2023-09-10T18:00	25995	22	-54.3	-85.8	341	3
2023-09-10T18:00	26015	22	-54.2	-85.7	334	3
2023-09-10T18:00	26043	22	-53.9	-85.5	332	4
2023-09-10T18:00	26068	22	-53.3	-85.0	333	4
2023-09-10T18:00	26105	22	-53.1	-84.9	336	4
2023-09-10T18:00	26130	22	-53.1	-84.9	340	5
2023-09-10T18:00	26155	22	-53.1	-84.9	344	5
2023-09-10T18:00	26174	22	-53.1	-84.9	347	6
2023-09-10T18:00	26198	22	-53.2	-85.0	350	6
2023-09-10T18:00	26235	22	-53.2	-85.0	352	7
2023-09-10T18:00	26264	22	-53.2	-85.0	354	7
2023-09-10T18:00	26295	21	-53.3	-84.4	356	8
2023-09-10T18:00	26301	21	-53.3	-84.4	357	8
2023-09-10T18:00	26343	21	-53.1	-84.3	359	8
2023-09-10T18:00	26363	21	-53.2	-85.0	1	9
2023-09-10T18:00	26388	21	-53.2	-85.0	4	9
2023-09-10T18:00	26418	21	-53.1	-84.9	6	9
2023-09-10T18:00	26440	21	-52.8	-84.7	9	9
2023-09-10T18:00	26466	21	-52.8	-84.7	12	8
2023-09-10T18:00	26511	21	-52.8	-84.7	15	8
2023-09-10T18:00	26534	21	-53.0	-84.8	19	7
2023-09-10T18:00	26562	21	-53.1	-84.9	23	6
2023-09-10T18:00	26589	20	-53.2	-85.0	28	5
2023-09-10T18:00	26614	20	-53.3	-85.0	34	4
2023-09-10T18:00	26639	20	-52.9	-84.7	40	3
2023-09-10T18:00	26670	20	-52.4	-85.1	45	2
2023-09-10T18:00	26702	20	-51.9	-84.7	49	1
2023-09-10T18:00	26729	20	-51.6	-84.5	51	1
2023-09-10T18:00	26752	20	-51.3	-84.3	55	1
2023-09-10T18:00	26784	20	-50.9	-84.7	64	1
2023-09-10T18:00	26805	20	-50.5	-84.5	77	1
2023-09-10T18:00	26845	20	-50.4	-84.4	89	2
2023-09-10T18:00	26864	20	-50.2	-84.2	99	2
2023-09-10T18:00	26891	20	-50.0	-84.1	107	2
2023-09-10T18:00	26926	19	-49.7	-83.9	113	3
2023-09-10T18:00	26940	19	-49.6	-83.0	119	3
2023-09-10T18:00	26977	19	-49.7	-83.1	124	3
2023-09-10T18:00	27008	19	-49.8	-83.2	130	3
2023-09-10T18:00	27036	19	-49.9	-83.2	138	3
2023-09-10T18:00	27057	19	-49.7	-83.1	146	3
2023-09-10T18:00	27085	19	-49.8	-83.2	156	3
2023-09-10T18:00	27119	19	-50.0	-83.3	165	3
2023-09-10T18:00	27147	19	-49.9	-83.2	174	3
2023-09-10T18:00	27163	19	-50.1	-83.4	181	3
2023-09-10T18:00	27195	19	-50.3	-83.5	188	3
2023-09-10T18:00	27231	19	-50.5	-83.7	196	4
2023-09-10T18:00	27259	18	-50.5	-83.7	203	4
2023-09-10T18:00	27275	18	-50.5	-83.7	210	4
2023-09-10T18:00	27312	18	-50.4	-83.6	218	5
2023-09-10T18:00	27342	18	-49.8	-83.2	224	5
2023-09-10T18:00	27375	18	-49.7	-83.1	229	5
2023-09-10T18:00	27395	18	-49.5	-83.7	232	6
2023-09-10T18:00	27433	18	-49.3	-83.6	232	6
2023-09-10T18:00	27460	18	-49.3	-83.6	232	6
2023-09-10T18:00	27491	18	-48.9	-83.3	232	7
2023-09-10T18:00	27521	18	-48.6	-83.1	233	7
2023-09-10T18:00	27554	18	-48.5	-83.0	236	8
2023-09-10T18:00	27573	18	-48.4	-82.9	240	8
2023-09-10T18:00	27607	18	-48.5	-83.0	244	8
2023-09-10T18:00	27626	17	-48.4	-82.9	250	8
2023-09-10T18:00	27651	17	-48.4	-82.9	255	8
2023-09-10T18:00	27683	17	-48.3	-82.9	260	8
2023-09-10T18:00	27704	17	-48.3	-82.9	266	8
2023-09-10T18:00	27738	17	-48.3	-82.9	271	9
2023-09-10T18:00	27768	17	-48.2	-82.8	276	8
2023-09-10T18:00	27787	17	-48.0	-82.7	282	8
2023-09-10T18:00	27823	17	-48.0	-82.7	289	8
2023-09-10T18:00	27856	17	-48.1	-82.7	295	8
2023-09-10T18:00	27874	17	-48.1	-82.7	302	9
2023-09-10T18:00	27903	17	-47.9	-82.6	308	9
2023-09-10T18:00	27926	17	-47.9	-82.6	314	9
2023-09-10T18:00	27967	17	-48.1	-82.7	319	10
2023-09-10T18:00	27997	17	-48.1	-82.7	325	10
2023-09-10T18:00	28036	16	-48.0	-82.7	330	10
2023-09-10T18:00	28050	16	-48.1	-82.7	335	10
2023-09-10T18:00	28082	16	-47.9	-82.6	341	10
2023-09-10T18:00	28116	16	-47.9	-82.6	346	10
2023-09-10T18:00	28153	16	-47.7	-82.4	351	10
2023-09-10T18:00	28164	16	-47.4	-82.2	356	10
2023-09-10T18:00	28195	16	-47.4	-82.2	359	10
2023-09-10T18:00	28231	16	-47.4	-82.2	1	9
2023-09-10T18:00	28271	16	-47.5	-82.3	2	9
2023-09-10T18:00	28302	16	-47.4	-82.2	2	9
2023-09-10T18:00	28327	16	-47.4	-82.2	2	8
2023-09-10T18:00	28351	16	-47.3	-82.2	2	8
2023-09-10T18:00	28378	16	-47.2	-82.1	4	7
2023-09-10T18:00	28420	15	-47.3	-82.2	6	7
2023-09-10T18:00	28442	15	-47.1	-82.0	7	7
2023-09-10T18:00	28476	15	-47.2	-82.1	7	7
2023-09-10T18:00	28512	15	-47.3	-82.2	5	6
2023-09-10T18:00	28530	15	-47.4	-82.2	1	6
2023-09-10T18:00	28560	15	-47.2	-82.1	355	5
2023-09-10T18:00	28613	15	-47.2	-82.1	346	4
2023-09-10T18:00	28634	15	-47.3	-82.2	330	3
2023-09-10T18:00	28663	15	-47.4	-82.2	306	2
2023-09-10T18:00	28693	15	-47.5	-82.3	277	2
2023-09-10T18:00	28719	15	-47.4	-82.2	257	3
2023-09-10T18:00	28744	15	-46.9	-81.9	247	3
2023-09-10T18:00	28783	15	-46.7	-81.7	244	4
2023-09-10T18:00	28815	15	-46.6	-82.6	245	4
2023-09-10T18:00	28854	15	-46.6	-82.6	247	4
2023-09-10T18:00	28873	14	-46.7	-82.6	249	5
2023-09-10T18:00	28905	14	-46.8	-82.7	251	5
2023-09-10T18:00	28930	14	-46.7	-81.7	252	5
2023-09-10T18:00	28962	14	-46.7	-81.7	253	6
2023-09-10T18:00	28990	14	-46.8	-81.8	253	6
2023-09-10T18:00	29027	14	-46.7	-81.7	253	6
2023-09-10T18:00	29047	14	-46.7	-81.7	253	6
2023-09-10T18:00	29070	14	-46.7	-81.7	252	6
2023-09-10T18:00	29095	14	-46.7	-81.7	251	6
2023-09-10T18:00	29130	14	-46.8	-82.7	248	6
2023-09-10T18:00	29159	14	-46.8	-82.7	245	6
2023-09-10T18:00	29197	14	-46.7	-82.6	242	6
2023-09-10T18:00	29212	14	-46.8	-82.7	240	6
2023-09-10T18:00	29244	14	-46.7	-82.6	240	7
2023-09-10T18:00	29258	14	-46.5	-82.5	241	7
2023-09-10T18:00	29303	14	-46.5	-82.5	243	7
2023-09-10T18:00	29322	14	-46.4	-82.4	246	8
2023-09-10T18:00	29351	13	-46.3	-82.4	249	8
2023-09-10T18:00	29377	13	-46.5	-82.5	252	8
2023-09-10T18:00	29396	13	-46.7	-82.6	255	9
2023-09-10T18:00	29430	13	-46.8	-82.7	258	9
2023-09-10T18:00	29469	13	-46.9	-81.9	261	9
2023-09-10T18:00	29495	13	-46.9	-81.9	265	8
2023-09-10T18:00	29515	13	-46.9	-81.9	268	8
2023-09-10T18:00	29544	13	-47.1	-82.0	271	8
2023-09-10T18:00	29582	13	-47.3	-82.2	274	8
2023-09-10T18:00	29605	13	-47.4	-82.2	276	7
2023-09-10T18:00	29644	13	-47.6	-82.4	280	7
2023-09-10T18:00	29660	13	-47.7	-82.4	283	6
2023-09-10T18:00	29682	13	-47.7	-82.4	285	5
2023-09-10T18:00	29711	13	-47.5	-82.3	286	4
2023-09-10T18:00	29740	13	-47.4	-83.1	282	3
2023-09-10T18:00	29766	13	-47.1	-82.9	270	2
2023-09-10T18:00	29814	13	-46.9	-82.8	250	2
2023-09-10T18:00	29829	13	-46.5	-82.5	233	3
2023-09-10T18:00	29864	12	-45.8	-82.0	225	3
2023-09-10T18:00	29896	12	-45.2	-82.7	222	4
2023-09-10T18:00	29933	12	-45.1	-82.6	221	5
2023-09-10T18:00	29952	12	-45.3	-81.6	221	6
2023-09-10T18:00	29976	12	-45.4	-81.7	221	7
2023-09-10T18:00	30004	12	-45.5	-81.8	222	7
2023-09-10T18:00	30036	12	-45.5	-81.8	222	8
2023-09-10T18:00	30085	12	-45.3	-81.6	224	9
2023-09-10T18:00	30100	12	-45.4	-81.7	225	10
2023-09-10T18:00	30127	12	-45.4	-81.7	227	10
2023-09-10T18:00	30147	12	-45.3	-81.6	229	11
2023-09-10T18:00	30192	12	-45.2	-81.6	232	11
2023-09-10T18:00	30230	12	-44.9	-81.4	235	12
2023-09-10T18:00	30247	12	-44.6	-82.2	239	12
2023-09-10T18:00	30280	12	-44.4	-82.1	242	12
2023-09-10T18:00	30308	12	-44.4	-82.1	246	12
2023-09-10T18:00	30336	12	-44.3	-82.0	250	12
2023-09-10T18:00	30372	12	-44.2	-82.0	253	13
2023-09-10T18:00	30399	12	-44.1	-81.9	257	13
2023-09-10T18:00	30423	11	-44.0	-81.8	260	13
2023-09-10T18:00	30464	11	-43.9	-81.8	263	14
2023-09-10T18:00	30481	11	-43.9	-81.8	266	14
2023-09-10T18:00	30528	11	-44.0	-81.8	268	15
2023-09-10T18:00	30544	11	-44.1	-81.9	270	15
2023-09-10T18:00	30559	11	-44.3	-82.0	271	15
2023-09-10T18:00	30611	11	-44.3	-82.0	273	15
2023-09-10T18:00	30642	11	-44.3	-80.9	274	15
2023-09-10T18:00	30658	11	-44.3	-80.9	276	15
2023-09-10T18:00	30696	11	-44.3	-80.9	277	15
2023-09-10T18:00	30716	11	-44.3	-80.9	279	15
2023-09-10T18:00	30755	11	-44.4	-82.1	281	15
2023-09-10T18:00	30774	11	-44.4	-82.1	282	14
2023-09-10T18:00	30814	11	-44.3	-82.0	284	14
2023-09-10T18:00	30823	11	-44.2	-82.0	285	13
2023-09-10T18:00	30880	11	-44.1	-81.9	286	12
2023-09-10T18:00	30891	11	-44.2	-82.0	287	12
2023-09-10T18:00	30920	11	-44.1	-81.9	288	11
2023-09-10T18:00	30939	11	-44.1	-81.9	289	11
2023-09-10T18:00	30974	11	-44.1	-81.9	291	10
2023-09-10T18:00	31001	11	-44.1	-81.9	291	10
2023-09-10T18:00	31039	10	-44.1	-81.9	291	11
2023-09-10T18:00	31058	10	-43.9	-81.8	290	11
2023-09-10T18:00	31086	10	-43.8	-81.7	289	11
2023-09-10T18:00	31107	10	-43.7	-81.6	288	11
2023-09-10T18:00	31144	10	-43.5	-81.5	288	10
2023-09-10T18:00	31189	10	-43.3	-81.3	289	10
2023-09-10T18:00	31205	10	-43.2	-81.3	290	10
2023-09-10T18:00	31237	10	-43.2	-81.3	290	10
2023-09-10T18:00	31244	10	-43.3	-81.3	291	10
2023-09-10T18:00	31290	10	-43.3	-81.3	290	10
2023-09-10T18:00	31326	10	-43.2	-81.3	289	10
2023-09-10T18:00	31363	10	-43.0	-81.1	287	10
2023-09-10T18:00	31373	10	-43.0	-81.1	285	10
2023-09-10T18:00	31412	10	-43.1	-81.2	283	11
2023-09-10T18:00	31436	10	-43.3	-81.3	282	11
2023-09-10T18:00	31440	10	-43.4	-81.4	282	11
2023-09-10T18:00	31491	10	-42.9	-81.1	285	11
2023-09-10T18:00	31523	10	-42.2	-80.6	289	11
2023-09-10T18:00	31533	10	-41.9	-80.4	294	11
2023-09-10T18:00	31587	10	-41.9	-80.4	298	11
2023-09-10T18:00	31606	10	-41.9	-80.4	302	11
2023-09-10T18:00	31640	10	-41.8	-80.3	305	11
2023-09-10T18:00	31673	10	-41.4	-80.0	307	11
2023-09-10T18:00	31693	9	-41.0	-79.7	309	11
2023-09-10T18:00	31725	9	-40.7	-79.5	309	10
2023-09-10T18:00	31753	9	-40.6	-79.5	309	10
2023-09-10T18:00	31775	9	-40.3	-79.2	307	9
2023-09-10T18:00	31810	9	-40.1	-79.1	305	8
2023-09-10T18:00	31846	9	-39.9	-79.0	302	8
2023-09-10T18:00	31864	9	-39.7	-78.8	301	7
2023-09-10T18:00	31913	9	-39.7	-78.8	301	6
2023-09-10T18:00	31924	9	-39.8	-78.9	302	6
2023-09-10T18:00	31964	9	-39.9	-79.0	304	5
2023-09-10T18:00	31982	9	-40.1	-79.1	304	5
2023-09-10T18:00	32027	9	-40.1	-79.1	301	5
2023-09-10T18:00	32058	9	-40.0	-79.0	295	4
2023-09-10T18:00	32085	9	-39.9	-79.0	286	4
2023-09-10T18:00	32115	9	-39.9	-79.0	276	4
2023-09-10T18:00	32130	9	-39.9	-79.0	269	4
2023-09-10T18:00	32176	9	-39.9	-79.0	265	5
2023-09-10T18:00	32200	9	-40.0	-79.0	266	5
2023-09-10T18:00	32244	9	-39.9	-79.0	270	5
2023-09-10T18:00	32260	9	-39.6	-78.8	274	6
2023-09-10T18:00	32291	9	-39.5	-78.7	277	6
2023-09-10T18:00	32316	9	-39.5	-78.7	279	7
2023-09-10T18:00	32360	9	-39.3	-78.5	280	8
2023-09-10T18:00	32385	9	-39.2	-78.5	280	8
2023-09-10T18:00	32400	9	-39.1	-78.4	282	9
2023-09-10T18:00	32446	9	-38.9	-78.3	283	10
2023-09-10T18:00	32464	8	-38.9	-78.3	285	11
2023-09-10T18:00	32499	8	-38.9	-78.3	286	11
2023-09-10T18:00	32521	8	-38.8	-78.2	286	12
2023-09-10T18:00	32561	8	-38.5	-78.0	284	12
2023-09-10T18:00	32612	8	-38.3	-77.9	279	12
2023-09-10T18:00	32635	8	-38.4	-77.9	277	12
2023-09-10T18:00	32682	8	-38.3	-77.9	277	12
2023-09-10T18:00	32697	8	-38.1	-77.7	278	12
2023-09-10T18:00	32758	8	-38.0	-77.6	278	13
2023-09-10T18:00	32773	8	-38.2	-77.8	278	13
2023-09-10T18:00	32805	8	-38.3	-77.9	277	13
2023-09-10T18:00	32833	8	-38.4	-77.9	277	13
2023-09-10T18:00	32876	8	-38.3	-77.9	277	13
2023-09-10T18:00	32918	8	-38.4	-77.9	278	12
2023-09-10T18:00	32920	8	-38.5	-78.0	280	12
2023-09-10T18:00	32952	8	-38.7	-78.1	283	12
2023-09-10T18:00	32974	8	-38.8	-78.2	285	12
2023-09-10T18:00	33009	8	-38.9	-78.3	287	12
2023-09-10T18:00	33038	8	-39.1	-78.4	289	11
2023-09-10T18:00	33067	8	-39.2	-78.5	289	11
2023-09-10T18:00	33105	8	-39.0	-78.3	289	11
2023-09-10T18:00	33140	8	-39.2	-78.5	289	11
2023-09-10T18:00	33160	8	-39.2	-78.5	288	10
2023-09-10T18:00	33235	8	-39.1	-78.4	287	10
2023-09-10T18:00	33236	8	-38.9	-78.3	285	10
2023-09-10T18:00	33263	8	-38.4	-77.9	283	10
2023-09-11T00:00	112	1003	23.0	9.4	140	1
2023-09-11T00:00	136	1001	25.7	9.3	256	0
2023-09-11T00:00	161	998	25.8	9.3	258	0
2023-09-11T00:00	185	995	25.7	9.7	344	0
2023-09-11T00:00	216	992	25.6	10.0	353	1
2023-09-11T00:00	240	989	25.6	9.8	357	1
2023-09-11T00:00	266	986	25.6	9.9	359	1
2023-09-11T00:00	294	983	25.5	10.4	1	1
2023-09-11T00:00	322	980	25.3	10.3	359	1
2023-09-11T00:00	344	977	25.2	10.3	356	1
2023-09-11T00:00	365	975	25.0	10.1	352	1
2023-09-11T00:00	398	971	24.8	9.5	354	1
2023-09-11T00:00	421	969	24.6	9.2	11	0
2023-09-11T00:00	444	966	24.4	9.1	37	1
2023-09-11T00:00	471	963	24.2	9.5	51	1
2023-09-11T00:00	500	960	24.0	9.0	55	1
2023-09-11T00:00	523	957	23.8	8.6	59	1
2023-09-11T00:00	547	955	23.6	8.6	65	0
2023-09-11T00:00	572	952	23.4	8.6	92	0
2023-09-11T00:00	599	949	23.2	8.7	155	0
2023-09-11T00:00	623	946	23.0	8.8	170	0
2023-09-11T00:00	646	944	22.8	8.8	169	1
2023-09-11T00:00	670	942	22.6	8.8	164	1
2023-09-11T00:00	691	939	22.4	8.8	160	2
2023-09-11T00:00	720	936	22.1	8.7	158	2
2023-09-11T00:00	746	933	21.9	8.8	156	2
2023-09-11T00:00	772	930	21.6	8.7	156	2
2023-09-11T00:00	796	928	21.4	8.7	158	2
2023-09-11T00:00	818	925	21.1	8.7	164	1
2023-09-11T00:00	847	923	20.9	8.6	179	1
2023-09-11T00:00	869	920	20.7	8.7	197	1
2023-09-11T00:00	891	918	20.4	8.6	207	2
2023-09-11T00:00	914	915	20.2	8.6	212	2
2023-09-11T00:00	941	912	19.9	8.6	215	3
2023-09-11T00:00	967	909	19.7	8.7	218	3
2023-09-11T00:00	993	907	19.5	8.7	220	3
2023-09-11T00:00	1015	904	19.2	8.6	224	3
2023-09-11T00:00	1038	902	19.0	8.6	230	3
2023-09-11T00:00	1064	900	18.8	8.6	235	2
2023-09-11T00:00	1086	897	18.6	8.6	240	2
2023-09-11T00:00	1115	894	18.3	8.5	244	2
2023-09-11T00:00	1135	892	18.1	8.5	245	2
2023-09-11T00:00	1157	890	17.9	8.5	245	2
2023-09-11T00:00	1186	887	17.6	8.4	246	2
2023-09-11T00:00	1217	884	17.4	7.7	248	2
2023-09-11T00:00	1242	881	17.2	7.8	250	2
2023-09-11T00:00	1268	878	16.9	7.8	253	3
2023-09-11T00:00	1299	875	16.6	7.4	255	3
2023-09-11T00:00	1325	872	16.4	7.5	258	3
2023-09-11T00:00	1348	870	16.1	7.4	263	3
2023-09-11T00:00	1371	868	15.9	7.4	269	3
2023-09-11T00:00	1396	865	15.7	7.3	274	3
2023-09-11T00:00	1419	863	15.4	7.1	277	3
2023-09-11T00:00	1446	860	15.2	7.0	278	3
2023-09-11T00:00	1469	857	15.0	7.1	277	3
2023-09-11T00:00	1499	855	14.7	6.9	276	3
2023-09-11T00:00	1521	852	14.5	6.5	277	3
2023-09-11T00:00	1544	850	14.3	6.3	282	3
2023-09-11T00:00	1582	847	14.0	5.9	289	3
2023-09-11T00:00	1608	844	13.7	6.2	294	3
2023-09-11T00:00	1639	841	13.4	5.5	294	3
2023-09-11T00:00	1664	838	13.2	5.3	291	3
2023-09-11T00:00	1682	836	13.1	5.0	286	3
2023-09-11T00:00	1705	834	13.0	4.2	282	3
2023-09-11T00:00	1728	832	13.0	2.8	280	3
2023-09-11T00:00	1752	829	12.9	2.3	281	2
2023-09-11T00:00	1773	827	13.2	-1.0	281	2
2023-09-11T00:00	1792	825	13.7	-6.0	279	2
2023-09-11T00:00	1818	823	14.1	-10.5	273	2
2023-09-11T00:00	1843	821	14.4	-14.9	268	2
2023-09-11T00:00	1865	818	14.8	-16.7	266	3
2023-09-11T00:00	1887	816	15.1	-17.4	269	3
2023-09-11T00:00	1913	814	15.0	-17.8	274	3
2023-09-11T00:00	1945	811	15.0	-18.2	281	3
2023-09-11T00:00	1967	808	15.2	-19.6	288	3
2023-09-11T00:00	1989	806	15.1		294	3
2023-09-11T00:00	2012	804	15.1	-20.2	298	3
2023-09-11T00:00	2038	802	15.0	-19.4	299	3
2023-09-11T00:00	2066	799	14.8	-19.7	299	3
2023-09-11T00:00	2092	797	14.7	-20.3	301	4
2023-09-11T00:00	2119	794	14.6	-18.6	304	4
2023-09-11T00:00	2141	792	14.5	-18.4	309	4
2023-09-11T00:00	2161	790	14.4	-18.6	315	4
2023-09-11T00:00	2183	788	14.3	-19.0	320	4
2023-09-11T00:00	2208	786	14.2	-20.0	324	4
2023-09-11T00:00	2239	783	14.2	-20.1	326	4
2023-09-11T00:00	2265	780	14.0	-20.1	327	3
2023-09-11T00:00	2290	778	13.8	-20.1	326	3
2023-09-11T00:00	2313	776	13.6	-20.2	321	2
2023-09-11T00:00	2347	773	13.5	-20.4	312	2
2023-09-11T00:00	2376	770	13.3	-19.6	300	2
2023-09-11T00:00	2399	768	13.2	-19.6	292	2
2023-09-11T00:00	2416	766	13.1	-19.5	291	2
2023-09-11T00:00	2445	764	12.9	-19.9	298	2
2023-09-11T00:00	2485	760	12.7	-20.8	314	2
2023-09-11T00:00	2517	757	12.6	-21.4	332	2
2023-09-11T00:00	2545	755	12.5	-21.3	347	3
2023-09-11T00:00	2567	753	12.5	-21.3	354	3
2023-09-11T00:00	2587	751	12.3	-22.1	356	3
2023-09-11T00:00	2609	749	12.2	-22.3	351	3
2023-09-11T00:00	2631	747	12.1	-23.7	342	2
2023-09-11T00:00	2661	744	12.0	-21.9	330	3
2023-09-11T00:00	2687	742	11.8	-21.3	321	3
2023-09-11T00:00	2717	739	11.6	-21.7	315	3
2023-09-11T00:00	2742	737	11.5	-20.6	314	3
2023-09-11T00:00	2765	735	11.3	-21.5	314	3
2023-09-11T00:00	2787	733	11.2	-19.8	315	3
2023-09-11T00:00	2810	731	11.0	-19.3	317	3
2023-09-11T00:00	2828	730	10.9	-20.2	320	3
2023-09-11T00:00	2847	728	10.8	-20.1	323	3
2023-09-11T00:00	2865	726	10.7	-20.2	325	4
2023-09-11T00:00	2890	724	10.5	-19.7	325	4
2023-09-11T00:00	2914	722	10.3	-19.9	324	4
2023-09-11T00:00	2942	720	10.1	-21.3	320	4
2023-09-11T00:00	2969	717	10.0	-19.2	316	4
2023-09-11T00:00	2989	716	9.8	-16.9	311	5
2023-09-11T00:00	3013	714	9.5	-15.2	307	5
2023-09-11T00:00	3037	712	9.3	-14.3	307	4
2023-09-11T00:00	3058	710	9.1	-14.2	310	4
2023-09-11T00:00	3086	707	8.8	-14.2	315	5
2023-09-11T00:00	3107	705	8.7	-13.9	319	5
2023-09-11T00:00	3140	703	8.4	-13.8	321	5
2023-09-11T00:00	3166	700	8.1	-13.8	319	6
2023-09-11T00:00	3188	699	7.9	-13.8	316	6
2023-09-11T00:00	3205	697	7.8	-13.7	312	5
2023-09-11T00:00	3226	695	7.7	-13.9	308	5
2023-09-11T00:00	3248	693	7.4	-13.9	303	5
2023-09-11T00:00	3279	691	7.2	-13.9	298	4
2023-09-11T00:00	3295	689	7.0	-13.9	295	4
2023-09-11T00:00	3321	687	6.8	-13.8	297	4
2023-09-11T00:00	3348	685	6.5	-13.8	305	4
2023-09-11T00:00	3370	683	6.4	-13.3	315	5
2023-09-11T00:00	3400	681	6.1	-13.3	322	5
2023-09-11T00:00	3419	679	6.0	-13.2	325	6
2023-09-11T00:00	3444	677	6.1	-15.4	327	7
2023-09-11T00:00	3469	675	6.1	-16.3	326	7
2023-09-11T00:00	3491	673	6.1	-15.3	324	6
2023-09-11T00:00	3519	671	6.0	-15.2	321	6
2023-09-11T00:00	3544	669	5.9	-16.8	318	5
2023-09-11T00:00	3562	668	5.8	-16.2	316	5
2023-09-11T00:00	3578	666	5.7	-15.2	316	5
2023-09-11T00:00	3598	664	5.6	-15.1	315	6
2023-09-11T00:00	3620	663	5.6	-16.0	314	6
2023-09-11T00:00	3636	661	5.5	-16.5	311	7
2023-09-11T00:00	3666	659	5.4	-17.2	307	7
2023-09-11T00:00	3690	657	5.3	-17.1	303	7
2023-09-11T00:00	3712	655	5.1	-17.2	301	8
2023-09-11T00:00	3732	654	4.9	-17.2	301	8
2023-09-11T00:00	3756	652	4.9	-17.2	303	8
2023-09-11T00:00	3784	650	4.7	-17.0	305	8
2023-09-11T00:00	3806	648	4.6	-16.9	309	7
2023-09-11T00:00	3837	645	4.5	-16.1	311	7
2023-09-11T00:00	3870	643	4.3	-16.3	312	7
2023-09-11T00:00	3886	641	4.1	-16.1	310	6
2023-09-11T00:00	3909	639	3.9	-16.6	308	6
2023-09-11T00:00	3938	637	3.7	-16.9	306	6
2023-09-11T00:00	3959	636	3.5	-17.1	306	5
2023-09-11T00:00	3978	634	3.4	-16.9	310	5
2023-09-11T00:00	4003	632	3.1	-17.0	316	5
2023-09-11T00:00	4025	630	3.0	-16.8	325	6
2023-09-11T00:00	4056	628	2.7	-16.7	334	6
2023-09-11T00:00	4081	626	2.5	-16.8	342	6
2023-09-11T00:00	4107	624	2.3	-16.4	349	6
2023-09-11T00:00	4132	622	2.1	-16.2	353	6
2023-09-11T00:00	4155	620	2.0	-16.2	353	6
2023-09-11T00:00	4176	619	1.8	-16.2	352	6
2023-09-11T00:00	4202	617	1.6	-16.0	351	6
2023-09-11T00:00	4225	615	1.4	-16.3	352	6
2023-09-11T00:00	4251	613	1.2	-16.5	354	6
2023-09-11T00:00	4274	611	1.0	-16.8	356	6
2023-09-11T00:00	4297	609	0.9	-16.2	357	6
2023-09-11T00:00	4330	607	0.6	-16.3	356	6
2023-09-11T00:00	4370	604	0.3		354	6
2023-09-11T00:00	4389	603	0.1	-16.5	353	6
2023-09-11T00:00	4407	601	-0.1	-16.5	353	5
2023-09-11T00:00	4432	599	-0.3	-16.7	355	5
2023-09-11T00:00	4457	598	-0.5	-17.1	354	5
2023-09-11T00:00	4475	596	-0.6	-17.2	351	5
2023-09-11T00:00	4497	594	-0.8	-18.0	344	5
2023-09-11T00:00	4530	592	-1.0	-18.0	335	5
2023-09-11T00:00	4553	590	-1.2	-18.0	327	5
2023-09-11T00:00	4580	588	-1.4	-18.1	322	5
2023-09-11T00:00	4603	587	-1.6	-18.3	321	5
2023-09-11T00:00	4621	585	-1.7	-18.2	320	5
2023-09-11T00:00	4640	584	-1.9	-18.2	319	4
2023-09-11T00:00	4661	582	-2.1	-18.6	317	4
2023-09-11T00:00	4692	580	-2.3	-19.6	312	4
2023-09-11T00:00	4722	578	-2.4	-22.4	305	4
2023-09-11T00:00	4749	576	-2.4	-25.0	299	5
2023-09-11T00:00	4773	574	-2.5	-26.2	295	6
2023-09-11T00:00	4800	572	-2.8	-26.6	294	6
2023-09-11T00:00	4816	571	-2.9	-26.7	296	7
2023-09-11T00:00	4843	569	-3.1	-28.7	300	7
2023-09-11T00:00	4873	567	-2.9	-30.5	306	6
2023-09-11T00:00	4908	565	-2.9	-32.5	313	6
2023-09-11T00:00	4940	562	-3.1	-32.5	318	5
2023-09-11T00:00	4959	561	-3.1	-32.2	321	5
2023-09-11T00:00	4979	560	-3.2	-21.8	319	4
2023-09-11T00:00	4998	558	-3.3	-19.0	313	4
2023-09-11T00:00	5016	557	-3.5	-19.5	307	4
2023-09-11T00:00	5030	556	-3.6	-18.4	301	4
2023-09-11T00:00	5050	555	-3.8	-15.6	297	4
2023-09-11T00:00	5068	553	-4.0	-15.6	295	4
2023-09-11T00:00	5086	552	-4.1	-15.9	294	4
2023-09-11T00:00	5101	551	-4.2	-16.1	294	4
2023-09-11T00:00	5120	550	-4.3	-15.7	293	5
2023-09-11T00:00	5139	548	-4.4	-15.8	292	5
2023-09-11T00:00	5157	547	-4.6	-16.0	290	4
2023-09-11T00:00	5179	546	-4.7	-16.3	286	4
2023-09-11T00:00	5199	544	-4.9	-16.5	282	4
2023-09-11T00:00	5222	542	-5.0	-16.7	278	4
2023-09-11T00:00	5254	540	-5.0	-22.5	276	5
2023-09-11T00:00	5282	538	-5.2	-19.8	275	5
2023-09-11T00:00	5314	536	-5.5	-19.6	276	5
2023-09-11T00:00	5335	535	-5.7	-19.7	276	6
2023-09-11T00:00	5352	534	-5.8	-19.6	276	6
2023-09-11T00:00	5370	532	-6.0	-19.6	275	6
2023-09-11T00:00	5387	531	-6.1	-19.6	274	6
2023-09-11T00:00	5410	530	-6.2	-19.1	273	7
2023-09-11T00:00	5431	528	-6.4	-19.1	273	6
2023-09-11T00:00	5449	527	-6.5	-19.0	274	6
2023-09-11T00:00	5471	525	-6.7	-18.9	277	6
2023-09-11T00:00	5502	524	-6.9	-18.6	282	6
2023-09-11T00:00	5527	522	-7.1	-19.3	288	6
2023-09-11T00:00	5564	520	-7.4	-22.0	293	5
2023-09-11T00:00	5587	518	-7.5	-24.3	297	5
2023-09-11T00:00	5604	517	-7.4	-27.9	299	5
2023-09-11T00:00	5619	516	-7.2	-33.6	298	5
2023-09-11T00:00	5637	514	-7.2	-34.5	296	5
2023-09-11T00:00	5656	513	-7.2	-30.7	291	5
2023-09-11T00:00	5672	512	-7.3	-30.2	285	5
2023-09-11T00:00	5694	511	-7.5	-29.6	279	5
2023-09-11T00:00	5720	509	-7.7	-28.5	273	5
2023-09-11T00:00	5747	507	-7.9	-27.7	268	5
2023-09-11T00:00	5774	505	-8.2	-28.0	267	5
2023-09-11T00:00	5804	504	-8.4	-28.5	268	4
2023-09-11T00:00	5834	502	-8.7	-28.8	273	4
2023-09-11T00:00	5863	500	-9.0	-28.7	279	3
2023-09-11T00:00	5885	498	-9.2	-28.4	284	4
2023-09-11T00:00	5913	496	-9.5	-27.6	286	4
2023-09-11T00:00	5940	495	-9.7	-27.8	287	4
2023-09-11T00:00	5960	493	-9.8	-27.8	286	5
2023-09-11T00:00	5987	492	-10.1	-27.8	286	5
2023-09-11T00:00	6010	490	-10.3	-27.9	287	5
2023-09-11T00:00	6039	488	-10.6	-27.9	288	4
2023-09-11T00:00	6066	487	-10.8	-28.3	289	4
2023-09-11T00:00	6093	485	-10.9	-28.1	290	4
2023-09-11T00:00	6124	483	-11.1	-28.1	289	4
2023-09-11T00:00	6146	482	-11.3	-28.4	288	4
2023-09-11T00:00	6176	480	-11.5	-28.3	288	5
2023-09-11T00:00	6200	478	-11.8	-27.7	288	6
2023-09-11T00:00	6229	476	-12.0	-28.4	289	6
2023-09-11T00:00	6257	475	-12.2	-27.8	292	7
2023-09-11T00:00	6284	473	-12.4	-27.8	294	7
2023-09-11T00:00	6310	472	-12.6	-28.0	295	7
2023-09-11T00:00	6334	470	-12.8	-28.4	296	6
2023-09-11T00:00	6369	468	-13.0	-28.3	296	6
2023-09-11T00:00	6406	466	-13.3	-28.7	296	6
2023-09-11T00:00	6424	464	-13.4	-28.7	297	6
2023-09-11T00:00	6442	463	-13.6	-28.8	299	6
2023-09-11T00:00	6462	462	-13.7	-28.9	301	5
2023-09-11T00:00	6481	461	-13.9	-29.0	304	5
2023-09-11T00:00	6504	460	-14.1	-29.1	305	5
2023-09-11T00:00	6532	458	-14.2	-28.8	305	4
2023-09-11T00:00	6562	456	-14.4	-28.7	304	4
2023-09-11T00:00	6592	454	-14.6	-29.0	301	3
2023-09-11T00:00	6618	453	-14.9	-29.2	298	3
2023-09-11T00:00	6647	451	-15.1	-28.2	298	3
2023-09-11T00:00	6674	449	-15.3	-28.2	301	4
2023-09-11T00:00	6705	448	-15.5	-28.4	306	4
2023-09-11T00:00	6730	446	-15.8	-28.5	310	4
2023-09-11T00:00	6759	444	-16.0	-28.6	312	4
2023-09-11T00:00	6792	443	-16.3	-28.7	313	4
2023-09-11T00:00	6814	441	-16.5	-29.2	314	4
2023-09-11T00:00	6837	440	-16.7	-29.7	315	4
2023-09-11T00:00	6864	438	-16.9	-29.6	317	5
2023-09-11T00:00	6896	436	-17.1	-30.9	320	5
2023-09-11T00:00	6922	435	-17.3	-31.2	321	4
2023-09-11T00:00	6952	433	-17.5	-31.6	321	4
2023-09-11T00:00	6983	431	-17.7	-31.7	319	4
2023-09-11T00:00	7010	430	-17.9	-32.1	315	4
2023-09-11T00:00	7042	428	-18.0	-32.8	312	4
2023-09-11T00:00	7071	426	-18.2	-32.6	309	5
2023-09-11T00:00	7098	425	-18.5	-32.9	308	5
2023-09-11T00:00	7127	423	-18.7		309	5
2023-09-11T00:00	7157	421	-19.0	-32.8	312	6
2023-09-11T00:00	7186	420	-19.2	-32.8	317	6
2023-09-11T00:00	7218	418	-19.5	-33.7	322	6
2023-09-11T00:00	7244	416	-19.7	-33.9	327	6
2023-09-11T00:00	7275	415	-19.9	-34.8	330	6
2023-09-11T00:00	7307	413	-20.2	-35.1	332	6
2023-09-11T00:00	7331	412	-20.4	-35.2	332	6
2023-09-11T00:00	7360	410	-20.6	-35.1	330	6
2023-09-11T00:00	7388	408	-20.8	-35.2	328	6
2023-09-11T00:00	7411	407	-21.1	-35.5	327	6
2023-09-11T00:00	7443	405	-21.3	-35.6	325	7
2023-09-11T00:00	7477	404	-21.6	-35.8	324	7
2023-09-11T00:00	7503	402	-21.7	-36.4	324	6
2023-09-11T00:00	7532	400	-21.9	-36.5	325	6
2023-09-11T00:00	7566	399	-22.2	-37.1	324	5
2023-09-11T00:00	7596	397	-22.4	-37.1	321	4
2023-09-11T00:00	7624	396	-22.6	-37.5	314	4
2023-09-11T00:00	7655	394	-22.9	-37.5	307	4
2023-09-11T00:00	7680	393	-23.1	-37.3	302	5
2023-09-11T00:00	7708	391	-23.3	-37.5	300	5
2023-09-11T00:00	7739	389	-23.5	-37.9	299	6
2023-09-11T00:00	7764	388	-23.7	-38.8	300	6
2023-09-11T00:00	7791	387	-23.8	-38.1	300	6
2023-09-11T00:00	7819	385	-24.1	-37.4	299	6
2023-09-11T00:00	7854	383	-24.4	-37.0	299	6
2023-09-11T00:00	7880	382	-24.6	-37.1	299	6
2023-09-11T00:00	7901	381	-24.8	-36.9	299	6
2023-09-11T00:00	7927	379	-25.0	-36.9	298	6
2023-09-11T00:00	7953	378	-25.3	-37.6	296	6
2023-09-11T00:00	7986	376	-25.5	-38.0	294	6
2023-09-11T00:00	8018	375	-25.8	-38.2	293	6
2023-09-11T00:00	8046	373	-26.1	-38.1	293	6
2023-09-11T00:00	8072	372	-26.3	-38.3	295	6
2023-09-11T00:00	8102	370	-26.6	-37.8	299	7
2023-09-11T00:00	8132	369	-26.8	-37.3	301	7
2023-09-11T00:00	8157	368	-27.0	-37.5	303	7
2023-09-11T00:00	8181	366	-27.2	-37.8	304	7
2023-09-11T00:00	8208	365	-27.4	-38.4	305	7
2023-09-11T00:00	8236	364	-27.6	-38.1	304	7
2023-09-11T00:00	8264	362	-27.8	-38.3	303	7
2023-09-11T00:00	8292	361	-28.1	-38.9	301	8
2023-09-11T00:00	8323	359	-28.3	-39.8	299	8
2023-09-11T00:00	8355	358	-28.5	-40.5	297	8
2023-09-11T00:00	8382	356	-28.7	-41.0	295	9
2023-09-11T00:00	8413	355	-28.9	-41.2	295	9
2023-09-11T00:00	8438	353	-29.0	-42.1	295	9
2023-09-11T00:00	8466	352	-29.2	-42.4	296	9
2023-09-11T00:00	8494	351	-29.4	-42.0	298	9
2023-09-11T00:00	8525	349	-29.7	-41.5	299	9
2023-09-11T00:00	8550	348	-29.9	-41.2	300	9
2023-09-11T00:00	8578	347	-30.2	-41.6	300	9
2023-09-11T00:00	8604	345	-30.4	-41.7	300	9
2023-09-11T00:00	8629	344	-30.6	-42.5	300	10
2023-09-11T00:00	8657	343	-30.8	-42.6	299	10
2023-09-11T00:00	8683	341	-31.0	-42.2	299	10
2023-09-11T00:00	8713	340	-31.1	-43.3	299	10
2023-09-11T00:00	8741	339	-31.3	-43.2	297	10
2023-09-11T00:00	8766	338	-31.5	-43.7	296	10
2023-09-11T00:00	8795	336	-31.6	-43.2	294	10
2023-09-11T00:00	8821	335	-31.8	-42.5	292	10
2023-09-11T00:00	8848	334	-32.0	-43.0	292	9
2023-09-11T00:00	8881	332	-32.3	-43.2	292	9
2023-09-11T00:00	8914	331	-32.7	-43.5	294	9
2023-09-11T00:00	8933	330	-32.8	-43.7	297	9
2023-09-11T00:00	8952	329	-32.9	-43.6	300	9
2023-09-11T00:00	8969	328	-33.1	-43.8	303	9
2023-09-11T00:00	8988	327	-33.2	-43.8	304	9
2023-09-11T00:00	9008	326	-33.4	-44.3	305	9
2023-09-11T00:00	9027	325	-33.5	-44.9	306	9
2023-09-11T00:00	9047	324	-33.7	-45.4	306	9
2023-09-11T00:00	9067	323	-33.7	-45.8	306	9
2023-09-11T00:00	9084	323	-33.9	-45.9	306	9
2023-09-11T00:00	9103	322	-34.0	-45.9	305	9
2023-09-11T00:00	9123	321	-34.2	-46.0	305	9
2023-09-11T00:00	9143	320	-34.3	-45.7	304	9
2023-09-11T00:00	9161	319	-34.4	-45.6	304	9
2023-09-11T00:00	9180	318	-34.6	-45.9	305	10
2023-09-11T00:00	9197	317	-34.7	-45.8	305	10
2023-09-11T00:00	9213	317	-34.8	-45.9	305	10
2023-09-11T00:00	9232	316	-35.0	-46.0	305	10
2023-09-11T00:00	9253	315	-35.2	-46.0	304	10
2023-09-11T00:00	9272	314	-35.3	-45.9	304	10
2023-09-11T00:00	9291	313	-35.5	-46.1	304	10
2023-09-11T00:00	9310	312	-35.7	-46.2	304	10
2023-09-11T00:00	9330	311	-35.9	-46.2	305	10
2023-09-11T00:00	9350	311	-36.0	-46.3	306	10
2023-09-11T00:00	9369	310	-36.2	-46.4	307	10
2023-09-11T00:00	9387	309	-36.4	-46.5	307	10
2023-09-11T00:00	9408	308	-36.6	-46.5	307	10
2023-09-11T00:00	9428	307	-36.8	-46.7	306	10
2023-09-11T00:00	9446	306	-36.9	-46.7	306	10
2023-09-11T00:00	9466	305	-37.1	-46.7	306	10
2023-09-11T00:00	9485	305	-37.3	-46.8	306	10
2023-09-11T00:00	9506	304	-37.5	-47.3	306	10
2023-09-11T00:00	9525	303	-37.6	-48.1	306	10
2023-09-11T00:00	9543	302	-37.7	-47.8	306	10
2023-09-11T00:00	9563	301	-37.9	-47.8	306	10
2023-09-11T00:00	9583	300	-38.0	-47.8	306	10
2023-09-11T00:00	9602	299	-38.2	-47.9	306	10
2023-09-11T00:00	9621	299	-38.3	-48.0	306	10
2023-09-11T00:00	9640	298	-38.5	-47.6	306	10
2023-09-11T00:00	9660	297	-38.6	-47.4	306	10
2023-09-11T00:00	9679	296	-38.8	-47.5	305	10
2023-09-11T00:00	9699	295	-39.0	-47.6	304	10
2023-09-11T00:00	9719	294	-39.1	-47.6	302	10
2023-09-11T00:00	9737	294	-39.2	-47.7	301	11
2023-09-11T00:00	9755	293	-39.4	-48.0	299	11
2023-09-11T00:00	9773	292	-39.5	-47.9	297	11
2023-09-11T00:00	9793	291	-39.7	-47.8	296	11
2023-09-11T00:00	9813	290	-39.9	-47.8	294	11
2023-09-11T00:00	9831	290	-40.1	-47.3	293	11
2023-09-11T00:00	9850	289	-40.2	-46.1	292	11
2023-09-11T00:00	9870	288	-40.3	-45.0	292	11
2023-09-11T00:00	9888	287	-40.4	-45.0	291	11
2023-09-11T00:00	9909	286	-40.6	-45.2	291	11
2023-09-11T00:00	9929	285	-40.8	-46.3	291	11
2023-09-11T00:00	9947	285	-40.9	-46.0	291	11
2023-09-11T00:00	9967	284	-41.1	-45.8	291	11
2023-09-11T00:00	9989	283	-41.3	-46.1	290	11
2023-09-11T00:00	10008	282	-41.5	-46.3	290	11
2023-09-11T00:00	10025	281	-41.6	-46.3	290	11
2023-09-11T00:00	10044	281	-41.8	-46.4	290	11
2023-09-11T00:00	10063	280	-41.9	-47.3	289	11
2023-09-11T00:00	10083	279	-42.1	-47.5	289	11
2023-09-11T00:00	10102	278	-42.2	-47.4	289	11
2023-09-11T00:00	10121	277	-42.3	-47.3	289	11
2023-09-11T00:00	10141	277	-42.5	-47.2	289	11
2023-09-11T00:00	10161	276	-42.6	-47.0	289	11
2023-09-11T00:00	10181	275	-42.8	-46.9	289	11
2023-09-11T00:00	10201	274	-43.0	-46.9	289	11
2023-09-11T00:00	10221	273	-43.2	-47.0	289	11
2023-09-11T00:00	10241	273	-43.4	-47.1	290	11
2023-09-11T00:00	10261	272	-43.6	-47.3	290	11
2023-09-11T00:00	10277	271	-43.8	-47.4	291	11
2023-09-11T00:00	10297	270	-43.9	-47.5	291	11
2023-09-11T00:00	10317	270	-44.1	-47.6	291	11
2023-09-11T00:00	10334	269	-44.3	-47.8	291	11
2023-09-11T00:00	10354	268	-44.5	-47.9	291	11
2023-09-11T00:00	10374	267	-44.6		291	11
2023-09-11T00:00	10393	266	-44.8	-48.2	291	11
2023-09-11T00:00	10413	266	-44.9	-48.3	291	11
2023-09-11T00:00	10430	265	-45.1	-48.4	291	11
2023-09-11T00:00	10450	264	-45.2	-48.7	291	11
2023-09-11T00:00	10470	263	-45.4	-49.2	291	11
2023-09-11T00:00	10489	263	-45.5	-49.3	291	11
2023-09-11T00:00	10508	262	-45.7	-49.4	292	11
2023-09-11T00:00	10529	261	-45.9	-49.6	293	11
2023-09-11T00:00	10549	260	-46.1	-49.7	293	11
2023-09-11T00:00	10569	260	-46.2	-49.8	293	11
2023-09-11T00:00	10587	259	-46.4	-49.9	293	11
2023-09-11T00:00	10608	258	-46.6	-49.9	293	11
2023-09-11T00:00	10627	257	-46.8	-50.0	293	11
2023-09-11T00:00	10646	257	-46.9	-50.0	293	11
2023-09-11T00:00	10667	256	-47.1	-50.2	293	11
2023-09-11T00:00	10686	255	-47.3	-50.4	293	10
2023-09-11T00:00	10706	254	-47.4	-50.5	292	11
2023-09-11T00:00	10727	253	-47.6	-50.9	292	11
2023-09-11T00:00	10747	253	-47.8	-51.5	292	11
2023-09-11T00:00	10767	252	-47.9	-51.7	291	11
2023-09-11T00:00	10787	251	-48.1	-51.8	291	11
2023-09-11T00:00	10805	250	-48.2	-51.8	291	11
2023-09-11T00:00	10824	250	-48.4	-52.1	290	11
2023-09-11T00:00	10844	249	-48.5	-52.6	290	11
2023-09-11T00:00	10862	248	-48.6	-53.2	289	11
2023-09-11T00:00	10882	248	-48.7	-53.7	288	11
2023-09-11T00:00	10901	247	-48.8	-54.0	287	11
2023-09-11T00:00	10923	246	-48.9	-54.1	287	11
2023-09-11T00:00	10943	245	-48.9	-53.8	286	12
2023-09-11T00:00	10963	244	-49.1	-53.9	285	12
2023-09-11T00:00	10983	244	-49.3	-54.2	285	12
2023-09-11T00:00	11001	243	-49.4	-54.4	284	12
2023-09-11T00:00	11021	242	-49.6	-54.6	284	12
2023-09-11T00:00	11041	242	-49.7	-54.5	283	13
2023-09-11T00:00	11061	241	-49.9	-54.4	283	13
2023-09-11T00:00	11082	240	-50.1	-54.6	283	13
2023-09-11T00:00	11099	239	-50.3	-55.1	283	13
2023-09-11T00:00	11118	239	-50.4	-55.7	283	13
2023-09-11T00:00	11140	238	-50.6	-56.0	283	13
2023-09-11T00:00	11158	237	-50.8	-56.2	283	13
2023-09-11T00:00	11178	237	-51.0	-56.4	283	13
2023-09-11T00:00	11198	236	-51.1	-56.6	284	13
2023-09-11T00:00	11217	235	-51.3	-56.7	284	13
2023-09-11T00:00	11237	234	-51.5	-56.8	284	13
2023-09-11T00:00	11257	234	-51.6	-56.7	284	13
2023-09-11T00:00	11276	233	-51.7	-56.5	284	13
2023-09-11T00:00	11294	232	-51.9	-56.5	284	14
2023-09-11T00:00	11315	232	-52.0	-56.7	284	14
2023-09-11T00:00	11335	231	-52.1	-57.3	284	13
2023-09-11T00:00	11353	230	-52.2	-58.4	284	13
2023-09-11T00:00	11373	230	-52.3	-59.7	285	13
2023-09-11T00:00	11392	229	-52.4	-60.3	286	13
2023-09-11T00:00	11412	228	-52.5	-59.9	286	13
2023-09-11T00:00	11433	227	-52.5	-59.3	286	13
2023-09-11T00:00	11451	227	-52.7	-59.3	286	13
2023-09-11T00:00	11471	226	-52.8	-59.6	286	13
2023-09-11T00:00	11490	225	-52.9	-60.0	285	12
2023-09-11T00:00	11510	225	-53.0	-60.4	284	12
2023-09-11T00:00	11529	224	-53.1	-60.6	282	12
2023-09-11T00:00	11549	223	-53.2	-60.6	281	12
2023-09-11T00:00	11570	223	-53.3	-60.6	278	13
2023-09-11T00:00	11588	222	-53.4	-60.7	276	13
2023-09-11T00:00	11607	221	-53.4	-60.9	275	13
2023-09-11T00:00	11626	221	-53.5	-61.2	274	13
2023-09-11T00:00	11645	220	-53.6	-61.5	274	13
2023-09-11T00:00	11665	219	-53.7	-61.6	275	13
2023-09-11T00:00	11685	219	-53.9	-61.5	276	14
2023-09-11T00:00	11705	218	-54.1	-61.3	277	14
2023-09-11T00:00	11725	217	-54.2	-61.3	279	14
2023-09-11T00:00	11745	217	-54.2	-61.3	281	14
2023-09-11T00:00	11765	216	-54.3	-61.6	283	14
2023-09-11T00:00	11783	215	-54.4	-61.6	285	14
2023-09-11T00:00	11805	215	-54.5	-61.4	287	15
2023-09-11T00:00	11837	214	-54.7	-61.3	289	15
2023-09-11T00:00	11872	213	-55.0	-61.3	291	15
2023-09-11T00:00	11891	212	-55.2	-61.4	292	15
2023-09-11T00:00	11910	211	-55.4	-61.5	293	15
2023-09-11T00:00	11929	211	-55.5	-61.4	292	15
2023-09-11T00:00	11947	210	-55.7	-61.3	292	15
2023-09-11T00:00	11967	209	-55.9	-61.3	291	14
2023-09-11T00:00	11989	209	-56.1		291	14
2023-09-11T00:00	12011	208	-56.3	-61.4	292	14
2023-09-11T00:00	12029	207	-56.5	-61.3	292	14
2023-09-11T00:00	12049	207	-56.6	-61.3	293	15
2023-09-11T00:00	12069	206	-56.8	-61.4	294	15
2023-09-11T00:00	12086	205	-56.9	-61.4	294	15
2023-09-11T00:00	12106	205	-57.1	-61.6	295	15
2023-09-11T00:00	12128	204	-57.2	-61.6	295	15
2023-09-11T00:00	12148	203	-57.4	-61.8	296	14
2023-09-11T00:00	12165	203	-57.6	-61.9	296	14
2023-09-11T00:00	12184	202	-57.7	-61.9	296	14
2023-09-11T00:00	12203	202	-57.9	-62.1	296	14
2023-09-11T00:00	12224	201	-58.1	-62.3	295	14
2023-09-11T00:00	12241	200	-58.2	-62.4	295	14
2023-09-11T00:00	12260	200	-58.4	-62.5	294	13
2023-09-11T00:00	12280	199	-58.5	-62.5	293	13
2023-09-11T00:00	12301	199	-58.6	-62.5	292	13
2023-09-11T00:00	12320	198	-58.7	-62.6	291	13
2023-09-11T00:00	12340	197	-58.8	-62.9	290	13
2023-09-11T00:00	12359	197	-58.9	-63.4	290	13
2023-09-11T00:00	12379	196	-59.1	-64.0	289	13
2023-09-11T00:00	12399	195	-59.2	-64.2	289	13
2023-09-11T00:00	12418	195	-59.3		290	13
2023-09-11T00:00	12436	194	-59.4	-64.3	290	14
2023-09-11T00:00	12457	194	-59.6	-64.4	290	14
2023-09-11T00:00	12477	193	-59.7	-64.5	290	14
2023-09-11T00:00	12493	192	-59.8	-64.6	289	14
2023-09-11T00:00	12512	192	-59.9	-64.7	289	14
2023-09-11T00:00	12532	191	-59.9	-64.7	288	14
2023-09-11T00:00	12553	191	-60.0	-64.8	288	14
2023-09-11T00:00	12574	190	-60.2	-64.8	287	13
2023-09-11T00:00	12595	189	-60.4	-64.9	287	13
2023-09-11T00:00	12616	189	-60.6	-65.1	286	13
2023-09-11T00:00	12635	188	-60.7	-65.2	285	13
2023-09-11T00:00	12656	188	-60.7	-65.2	284	13
2023-09-11T00:00	12676	187	-60.8	-65.2	284	14
2023-09-11T00:00	12695	186	-60.9	-65.2	283	14
2023-09-11T00:00	12714	186	-60.9	-65.2	283	14
2023-09-11T00:00	12733	185	-61.0	-65.5	283	15
2023-09-11T00:00	12754	185	-61.0	-65.9	282	15
2023-09-11T00:00	12775	184	-60.9	-66.3	282	16
2023-09-11T00:00	12795	183	-60.8	-66.7	281	16
2023-09-11T00:00	12817	183	-60.9	-67.2	281	17
2023-09-11T00:00	12837	182	-61.0	-67.7	281	17
2023-09-11T00:00	12858	182	-60.9	-67.9	281	18
2023-09-11T00:00	12879	181	-60.9	-68.2	281	18
2023-09-11T00:00	12901	180	-61.0	-68.5	281	18
2023-09-11T00:00	12923	180	-61.1	-68.6	281	19
2023-09-11T00:00	12942	179	-61.2	-68.7	281	19
2023-09-11T00:00	12963	179	-61.4	-68.7	281	19
2023-09-11T00:00	12983	178	-61.4	-68.7	281	19
2023-09-11T00:00	13005	177	-61.6	-68.9	281	19
2023-09-11T00:00	13026	177	-61.7	-69.1	280	19
2023-09-11T00:00	13045	176	-61.7	-69.2	280	19
2023-09-11T00:00	13064	176	-61.8	-69.2	280	19
2023-09-11T00:00	13084	175	-61.9	-69.2	281	20
2023-09-11T00:00	13106	174	-61.9	-69.0	282	20
2023-09-11T00:00	13126	174	-62.1	-69.0	283	20
2023-09-11T00:00	13147	173	-62.1	-68.9	284	21
2023-09-11T00:00	13169	173	-62.2	-68.9	285	21
2023-09-11T00:00	13189	172	-62.3	-68.9	286	21
2023-09-11T00:00	13209	172	-62.3	-68.9	286	21
2023-09-11T00:00	13227	171	-62.4	-69.1	286	21
2023-09-11T00:00	13249	170	-62.5	-69.2	286	21
2023-09-11T00:00	13270	170	-62.7	-69.3	286	21
2023-09-11T00:00	13291	169	-62.9	-69.3	286	21
2023-09-11T00:00	13309	169	-63.0	-69.3	286	21
2023-09-11T00:00	13331	168	-63.2	-69.4	286	21
2023-09-11T00:00	13349	168	-63.3	-69.4	286	21
2023-09-11T00:00	13369	167	-63.5	-69.5	286	21
2023-09-11T00:00	13390	167	-63.6	-69.5	285	21
2023-09-11T00:00	13409	166	-63.8	-69.6	283	21
2023-09-11T00:00	13429	166	-63.9	-69.7	282	21
2023-09-11T00:00	13450	165	-63.9	-69.7	281	21
2023-09-11T00:00	13469	164	-64.0	-69.9	281	21
2023-09-11T00:00	13491	164	-64.1	-70.0	281	22
2023-09-11T00:00	13510	163	-64.1	-70.1	282	22
2023-09-11T00:00	13530	163	-64.2	-70.2	283	22
2023-09-11T00:00	13551	162	-64.3	-70.4	284	21
2023-09-11T00:00	13573	162	-64.2	-70.5	284	21
2023-09-11T00:00	13589	161	-64.1	-70.5	285	20
2023-09-11T00:00	13610	161	-64.2	-70.7	284	20
2023-09-11T00:00	13629	160	-64.2	-71.0	282	19
2023-09-11T00:00	13648	160	-64.3	-71.5	281	19
2023-09-11T00:00	13669	159	-64.3	-72.0	280	18
2023-09-11T00:00	13689	159	-63.8	-72.3	279	18
2023-09-11T00:00	13707	158	-63.3	-72.7	278	18
2023-09-11T00:00	13730	158	-63.1	-73.4	279	18
2023-09-11T00:00	13746	157	-62.9	-73.9	279	18
2023-09-11T00:00	13765	157	-62.6	-74.1	280	18
2023-09-11T00:00	13786	156	-62.5	-74.4	281	18
2023-09-11T00:00	13805	156	-62.4	-74.6	282	18
2023-09-11T00:00	13826	155	-62.3	-74.9	283	18
2023-09-11T00:00	13847	155	-62.2	-75.3	284	18
2023-09-11T00:00	13864	154	-61.9	-75.7	286	18
2023-09-11T00:00	13885	154	-61.7	-76.1	288	17
2023-09-11T00:00	13905	153	-61.4	-76.4	289	17
2023-09-11T00:00	13926	153	-61.3	-76.8	291	16
2023-09-11T00:00	13946	152	-61.3	-77.0	291	16
2023-09-11T00:00	13967	152	-61.3	-77.3	292	15
2023-09-11T00:00	13988	151	-61.3	-77.5	291	14
2023-09-11T00:00	14007	151	-61.3	-77.8	290	14
2023-09-11T00:00	14028	150	-61.3	-78.1	290	13
2023-09-11T00:00	14049	150	-61.3	-78.5	290	12
2023-09-11T00:00	14071	149	-61.2	-78.9	291	11
2023-09-11T00:00	14100	148	-60.3	-78.6	292	10
2023-09-11T00:00	14120	148	-60.1	-78.9	292	10
2023-09-11T00:00	14142	147	-60.2	-79.2	293	9
2023-09-11T00:00	14162	147	-60.3	-79.4	294	9
2023-09-11T00:00	14181	147	-60.4		294	9
2023-09-11T00:00	14199	146	-60.5	-79.5	295	9
2023-09-11T00:00	14221	146	-60.6	-79.4	295	9
2023-09-11T00:00	14240	145	-60.7	-79.2	295	10
2023-09-11T00:00	14262	145	-60.8	-79.0	294	10
2023-09-11T00:00	14282	144	-61.0	-78.9	292	10
2023-09-11T00:00	14303	144	-61.1	-78.8	291	10
2023-09-11T00:00	14321	143	-61.1	-78.5	289	10
2023-09-11T00:00	14341	143	-61.2	-78.4	288	10
2023-09-11T00:00	14361	142	-61.4	-78.2	286	10
2023-09-11T00:00	14381	142	-61.5	-78.0	284	10
2023-09-11T00:00	14403	141	-61.6	-77.8	282	10
2023-09-11T00:00	14423	141	-61.8	-77.8	281	10
2023-09-11T00:00	14444	140	-61.9	-78.0	280	10
2023-09-11T00:00	14467	140	-62.0	-78.2	280	11
2023-09-11T00:00	14488	139	-62.1	-78.5	280	11
2023-09-11T00:00	14511	139	-62.3	-78.9	280	11
2023-09-11T00:00	14533	138	-62.5	-79.2	280	11
2023-09-11T00:00	14553	138	-62.6	-79.3	280	11
2023-09-11T00:00	14573	138	-62.7	-79.5	280	11
2023-09-11T00:00	14594	137	-62.8	-79.6	280	11
2023-09-11T00:00	14617	137	-62.9	-79.6	280	10
2023-09-11T00:00	14637	136	-63.1	-79.7	280	10
2023-09-11T00:00	14658	136	-63.3	-79.7	280	10
2023-09-11T00:00	14681	135	-63.4	-79.7	281	10
2023-09-11T00:00	14701	135	-63.6	-79.8	282	10
2023-09-11T00:00	14723	134	-63.7	-79.7	283	10
2023-09-11T00:00	14742	134	-63.9	-79.8	285	9
2023-09-11T00:00	14763	133	-64.0	-79.9	287	9
2023-09-11T00:00	14784	133	-64.2	-80.0	288	9
2023-09-11T00:00	14805	132	-64.2	-80.0	289	8
2023-09-11T00:00	14827	132	-64.3	-80.0	288	8
2023-09-11T00:00	14846	132	-64.4	-80.1	286	7
2023-09-11T00:00	14866	131	-64.5	-80.2	282	7
2023-09-11T00:00	14891	131	-64.6	-80.2	277	7
2023-09-11T00:00	14912	130	-64.8	-80.4	272	7
2023-09-11T00:00	14935	130	-64.6	-80.2	267	7
2023-09-11T00:00	14955	129	-64.7	-80.3	263	7
2023-09-11T00:00	14977	129	-64.9	-80.4	261	7
2023-09-11T00:00	14997	128	-65.1	-80.5	261	7
2023-09-11T00:00	15019	128	-65.2	-80.6	261	7
2023-09-11T00:00	15039	127	-65.4	-80.8	262	7
2023-09-11T00:00	15061	127	-65.5	-80.9	263	8
2023-09-11T00:00	15080	127	-65.6	-81.3	264	8
2023-09-11T00:00	15099	126	-65.5	-81.5	265	9
2023-09-11T00:00	15121	126	-65.6	-81.9	267	9
2023-09-11T00:00	15142	125	-65.5	-82.2	268	9
2023-09-11T00:00	15163	125	-65.2	-82.4	270	10
2023-09-11T00:00	15182	124	-65.1	-82.7	271	10
2023-09-11T00:00	15202	124	-65.0	-82.8	271	9
2023-09-11T00:00	15225	124	-64.9	-82.9	271	9
2023-09-11T00:00	15244	123	-64.6	-82.7	270	9
2023-09-11T00:00	15264	123	-64.4	-82.5	269	9
2023-09-11T00:00	15287	122	-64.2	-82.5	268	9
2023-09-11T00:00	15307	122	-63.8	-82.2	267	10
2023-09-11T00:00	15329	122	-63.5	-82.2	266	10
2023-09-11T00:00	15348	121	-63.5	-82.3	266	11
2023-09-11T00:00	15366	121	-63.4	-82.3	266	11
2023-09-11T00:00	15389	120	-63.5	-82.6	267	11
2023-09-11T00:00	15406	120	-63.6	-82.9	268	12
2023-09-11T00:00	15427	120	-63.5	-83.1	269	12
2023-09-11T00:00	15447	119	-63.1	-83.1	271	12
2023-09-11T00:00	15467	119	-62.9	-83.1	273	12
2023-09-11T00:00	15489	118	-62.8	-83.1	275	12
2023-09-11T00:00	15512	118	-62.8	-83.3	277	12
2023-09-11T00:00	15534	118	-62.7	-83.2	279	11
2023-09-11T00:00	15555	117	-62.6	-83.1	281	11
2023-09-11T00:00	15575	117	-62.6	-83.1	283	11
2023-09-11T00:00	15598	116	-62.5	-83.0	284	11
2023-09-11T00:00	15620	116	-62.5	-83.0	286	10
2023-09-11T00:00	15640	116	-62.5	-83.0	289	10
2023-09-11T00:00	15662	115	-62.5	-83.0	291	10
2023-09-11T00:00	15682	115	-62.3	-82.9	293	10
2023-09-11T00:00	15708	114	-62.4	-83.0	295	10
2023-09-11T00:00	15727	114	-62.5	-83.0	297	9
2023-09-11T00:00	15748	114	-62.6	-83.0	299	9
2023-09-11T00:00	15767	113	-62.6	-83.0	300	8
2023-09-11T00:00	15790	113	-62.6	-83.1	302	7
2023-09-11T00:00	15813	112	-62.4	-83.0	304	6
2023-09-11T00:00	15836	112	-62.4	-83.1	306	6
2023-09-11T00:00	15856	112	-62.3	-83.2	308	5
2023-09-11T00:00	15881	111	-62.2		309	4
2023-09-11T00:00	15903	111	-62.2		309	3
2023-09-11T00:00	15923	110	-62.3	-83.0	308	3
2023-09-11T00:00	15946	110	-62.4	-83.1	303	2
2023-09-11T00:00	15966	110	-62.6	-83.1	295	2
2023-09-11T00:00	15987	109	-62.8	-83.3	287	2
2023-09-11T00:00	16009	109	-62.9	-83.2	279	2
2023-09-11T00:00	16029	108	-62.9	-83.2	274	3
2023-09-11T00:00	16049	108	-63.0	-83.3	272	3
2023-09-11T00:00	16070	108	-62.9		269	4
2023-09-11T00:00	16091	107	-62.9		267	4
2023-09-11T00:00	16111	107	-63.0	-83.4	265	4
2023-09-11T00:00	16130	107	-62.9	-83.5	263	5
2023-09-11T00:00	16150	106	-62.8	-83.4	262	6
2023-09-11T00:00	16171	106	-62.9	-83.6	262	6
2023-09-11T00:00	16192	106	-62.9	-83.8	263	7
2023-09-11T00:00	16214	105	-63.0	-84.0	264	7
2023-09-11T00:00	16233	105	-62.8	-84.0	265	8
2023-09-11T00:00	16252	105	-62.6	-84.0	267	8
2023-09-11T00:00	16273	104	-62.2	-84.0	269	9
2023-09-11T00:00	16294	104	-62.1	-84.1	271	9
2023-09-11T00:00	16312	104	-62.2	-84.3	274	9
2023-09-11T00:00	16333	103	-62.1	-84.3	276	9
2023-09-11T00:00	16352	103	-62.1	-84.4	279	9
2023-09-11T00:00	16370	103	-62.0	-84.4	280	9
2023-09-11T00:00	16393	102	-61.9	-84.5	281	9
2023-09-11T00:00	16416	102	-61.8	-84.6	281	10
2023-09-11T00:00	16436	102	-61.7	-84.5	281	10
2023-09-11T00:00	16457	101	-61.6	-84.4	281	10
2023-09-11T00:00	16477	101	-61.5	-84.5	281	11
2023-09-11T00:00	16500	101	-61.4	-84.5	282	11
2023-09-11T00:00	16521	100	-61.5	-84.7	283	11
2023-09-11T00:00	16543	100	-61.4	-84.9	285	11
2023-09-11T00:00	16565	99	-61.1	-84.8	287	10
2023-09-11T00:00	16586	99	-60.7	-84.5	289	10
2023-09-11T00:00	16610	99	-60.7	-84.8	292	9
2023-09-11T00:00	16627	98	-60.7	-84.8	295	9
2023-09-11T00:00	16651	98	-60.6	-84.7	298	8
2023-09-11T00:00	16675	98	-60.7	-84.8	301	7
2023-09-11T00:00	16694	97	-60.8	-84.8	303	7
2023-09-11T00:00	16716	97	-60.8	-84.8	303	6
2023-09-11T00:00	16736	97	-60.7	-84.8	301	6
2023-09-11T00:00	16762	96	-60.8	-84.8	295	5
2023-09-11T00:00	16782	96	-60.7	-84.8	286	5
2023-09-11T00:00	16802	96	-60.7	-84.8	276	5
2023-09-11T00:00	16825	95	-60.6	-84.7	268	5
2023-09-11T00:00	16848	95	-60.6	-84.9	263	6
2023-09-11T00:00	16868	95	-60.6	-84.9	261	6
2023-09-11T00:00	16887	94	-60.6	-84.9	261	6
2023-09-11T00:00	16909	94	-60.6	-84.9	263	7
2023-09-11T00:00	16929	94	-60.7	-85.0	266	7
2023-09-11T00:00	16952	93	-60.7	-85.0	270	7
2023-09-11T00:00	16972	93	-60.7	-85.0	274	7
2023-09-11T00:00	16993	93	-60.5	-84.8	279	8
2023-09-11T00:00	17012	93	-60.6	-85.2	284	8
2023-09-11T00:00	17037	92	-60.7	-85.2	288	8
2023-09-11T00:00	17055	92	-60.8	-85.3	292	8
2023-09-11T00:00	17077	92	-60.8	-85.3	295	8
2023-09-11T00:00	17100	91	-60.8	-85.3	298	8
2023-09-11T00:00	17121	91	-60.7	-85.5	299	8
2023-09-11T00:00	17144	91	-60.6	-85.4	299	8
2023-09-11T00:00	17164	90	-60.4	-85.3	298	7
2023-09-11T00:00	17189	90	-60.3	-85.5	296	7
2023-09-11T00:00	17209	90	-60.2	-85.4	295	7
2023-09-11T00:00	17227	89	-60.2	-85.4	294	7
2023-09-11T00:00	17249	89	-60.3	-85.5	294	7
2023-09-11T00:00	17270	89	-60.4	-85.3	294	6
2023-09-11T00:00	17291	89	-60.6	-85.4	294	6
2023-09-11T00:00	17311	88	-60.7	-85.5	295	6
2023-09-11T00:00	17333	88	-60.8	-85.6	295	6
2023-09-11T00:00	17354	88	-60.8	-85.6	296	6
2023-09-11T00:00	17374	87	-60.7	-85.5	296	7
2023-09-11T00:00	17395	87	-60.6	-85.7	295	7
2023-09-11T00:00	17415	87	-60.6	-85.7	294	7
2023-09-11T00:00	17436	86	-60.7	-85.5	293	7
2023-09-11T00:00	17459	86	-60.8	-85.6	292	7
2023-09-11T00:00	17481	86	-60.9	-85.7	293	7
2023-09-11T00:00	17502	86	-60.8	-85.8	295	8
2023-09-11T00:00	17524	85	-60.8	-85.8	298	8
2023-09-11T00:00	17544	85	-60.7	-85.8	302	8
2023-09-11T00:00	17565	85	-60.7	-85.8	305	8
2023-09-11T00:00	17584	84	-60.5	-85.6	308	8
2023-09-11T00:00	17605	84	-60.5	-85.9	310	8
2023-09-11T00:00	17624	84	-60.5	-85.9	311	8
2023-09-11T00:00	17647	84	-60.4	-85.8	310	8
2023-09-11T00:00	17670	83	-60.3	-85.7	310	7
2023-09-11T00:00	17691	83	-60.2	-85.9	310	7
2023-09-11T00:00	17712	83	-59.7	-85.6	310	7
2023-09-11T00:00	17736	82	-59.7	-85.6	312	7
2023-09-11T00:00	17755	82	-59.5	-85.4	315	7
2023-09-11T00:00	17779	82	-59.7	-85.6	319	7
2023-09-11T00:00	17803	82	-59.9	-85.7	324	8
2023-09-11T00:00	17823	81	-59.8	-85.6	329	8
2023-09-11T00:00	17845	81	-59.9	-85.7	335	8
2023-09-11T00:00	17868	81	-59.9	-85.7	341	8
2023-09-11T00:00	17887	80	-59.9	-85.7	347	8
2023-09-11T00:00	17909	80	-59.8	-85.6	353	8
2023-09-11T00:00	17935	80	-59.8	-85.9	358	7
2023-09-11T00:00	17959	80	-59.8	-85.9	4	7
2023-09-11T00:00	17979	79	-59.6	-85.8	9	7
2023-09-11T00:00	18001	79	-59.6	-85.8	14	7
2023-09-11T00:00	18023	79	-59.6	-85.5	19	6
2023-09-11T00:00	18045	78	-59.6	-85.5	23	6
2023-09-11T00:00	18066	78	-59.6	-85.5	27	6
2023-09-11T00:00	18088	78	-59.7	-85.6	30	5
2023-09-11T00:00	18104	78	-59.7	-85.9	33	4
2023-09-11T00:00	18132	77	-59.6	-85.8	37	4
2023-09-11T00:00	18154	77	-59.5	-85.7	41	3
2023-09-11T00:00	18175	77	-59.3	-85.6	45	2
2023-09-11T00:00	18198	77	-59.4	-85.6	52	1
2023-09-11T00:00	18218	76	-59.3	-85.6	67	1
2023-09-11T00:00	18243	76	-59.4	-85.6	203	0
2023-09-11T00:00	18264	76	-59.6	-85.8	231	1
2023-09-11T00:00	18287	75	-59.7	-85.9	239	2
2023-09-11T00:00	18309	75	-59.7	-85.9	246	3
2023-09-11T00:00	18327	75	-59.5	-85.7	252	3
2023-09-11T00:00	18349	75	-59.4	-85.6	259	3
2023-09-11T00:00	18371	74	-59.2	-85.8	267	3
2023-09-11T00:00	18393	74	-59.1	-85.7	276	3
2023-09-11T00:00	18413	74	-58.9	-85.6	285	4
2023-09-11T00:00	18436	74	-58.7	-85.4	294	4
2023-09-11T00:00	18458	73	-58.6	-85.7	301	4
2023-09-11T00:00	18480	73	-58.6	-85.7	305	4
2023-09-11T00:00	18504	73	-58.6	-85.7	307	4
2023-09-11T00:00	18523	73	-58.5	-85.6	309	4
2023-09-11T00:00	18542	72	-58.5	-85.6	310	4
2023-09-11T00:00	18564	72	-58.3	-85.5	314	3
2023-09-11T00:00	18586	72	-58.2	-85.4	320	3
2023-09-11T00:00	18608	72	-58.0	-85.2	329	3
2023-09-11T00:00	18629	71	-58.0	-85.2	338	3
2023-09-11T00:00	18646	71	-57.9	-85.2	345	3
2023-09-11T00:00	18665	71	-58.0	-85.2	350	3
2023-09-11T00:00	18688	71	-58.1	-85.3	354	3
2023-09-11T00:00	18713	71	-58.2	-85.4	355	4
2023-09-11T00:00	18732	70	-58.3	-85.5	355	4
2023-09-11T00:00	18754	70	-58.4	-85.2	354	4
2023-09-11T00:00	18776	70	-58.3	-85.1	353	4
2023-09-11T00:00	18798	70	-58.4	-85.5	352	5
2023-09-11T00:00	18824	69	-58.4	-85.5	353	5
2023-09-11T00:00	18845	69	-58.4	-85.5	356	5
2023-09-11T00:00	18871	69	-58.4	-85.5	2	5
2023-09-11T00:00	18893	69	-58.3	-85.5	10	4
2023-09-11T00:00	18917	68	-58.4	-85.5	19	5
2023-09-11T00:00	18942	68	-58.5	-85.3	27	5
2023-09-11T00:00	18965	68	-58.6	-85.4	34	5
2023-09-11T00:00	18985	68	-58.5	-85.6	38	5
2023-09-11T00:00	19009	67	-58.6	-85.7	40	6
2023-09-11T00:00	19030	67	-58.5	-85.6	41	6
2023-09-11T00:00	19056	67	-58.4	-85.5	41	6
2023-09-11T00:00	19078	67	-58.4	-85.5	41	5
2023-09-11T00:00	19104	66	-58.2	-85.4	40	5
2023-09-11T00:00	19127	66	-58.2	-85.4	40	5
2023-09-11T00:00	19149	66	-58.2	-85.4	39	4
2023-09-11T00:00	19175	66	-58.2	-85.4	38	4
2023-09-11T00:00	19197	65	-58.0	-85.6	37	4
2023-09-11T00:00	19223	65	-58.0	-85.6	34	3
2023-09-11T00:00	19246	65	-57.9	-85.5	28	3
2023-09-11T00:00	19273	65	-58.0	-85.6	21	2
2023-09-11T00:00	19294	64	-58.0	-85.6	9	2
2023-09-11T00:00	19318	64	-57.9	-85.5	354	1
2023-09-11T00:00	19344	64	-57.9	-85.5	336	1
2023-09-11T00:00	19365	64	-57.7	-85.4	320	1
2023-09-11T00:00	19390	63	-57.7	-85.4	309	1
2023-09-11T00:00	19412	63	-57.7	-85.4	305	1
2023-09-11T00:00	19434	63	-57.8	-85.5	305	1
2023-09-11T00:00	19460	63	-57.8	-85.5	309	2
2023-09-11T00:00	19481	62	-57.8	-85.5	312	2
2023-09-11T00:00	19503	62	-57.8	-85.5	317	2
2023-09-11T00:00	19528	62	-57.6	-85.3	322	2
2023-09-11T00:00	19553	62	-57.6	-85.3	328	3
2023-09-11T00:00	19577	61	-57.5	-85.2	335	3
2023-09-11T00:00	19599	61	-57.4	-85.2	343	3
2023-09-11T00:00	19621	61	-57.4	-85.2	349	3
2023-09-11T00:00	19643	61	-57.1	-84.9	355	4
2023-09-11T00:00	19667	61	-57.1	-84.9	359	4
2023-09-11T00:00	19691	60	-57.1	-84.9	2	4
2023-09-11T00:00	19713	60	-57.1	-84.9	5	4
2023-09-11T00:00	19737	60	-57.1	-84.9	7	4
2023-09-11T00:00	19758	60	-57.0	-84.8	9	4
2023-09-11T00:00	19781	60	-57.0	-84.8	10	3
2023-09-11T00:00	19804	59	-56.8	-84.7	9	3
2023-09-11T00:00	19826	59	-56.9	-84.8	9	3
2023-09-11T00:00	19845	59	-56.9	-84.8	8	2
2023-09-11T00:00	19872	59	-56.9	-84.8	9	2
2023-09-11T00:00	19891	58	-57.0	-84.8	10	1
2023-09-11T00:00	19918	58	-57.0	-84.8	11	1
2023-09-11T00:00	19939	58	-57.0	-84.8	8	1
2023-09-11T00:00	19963	58	-57.1	-84.9	1	1
2023-09-11T00:00	19986	58	-57.1	-84.9	355	1
2023-09-11T00:00	20011	57	-57.2	-85.0	352	2
2023-09-11T00:00	20032	57	-57.4	-85.2	354	2
2023-09-11T00:00	20053	57	-57.5	-85.2	0	2
2023-09-11T00:00	20074	57	-57.4	-85.2	11	2
2023-09-11T00:00	20098	57	-57.2	-85.0	24	2
2023-09-11T00:00	20120	56	-57.2	-85.0	36	2
2023-09-11T00:00	20146	56	-57.2	-85.0	45	2
2023-09-11T00:00	20167	56	-57.1	-84.9	56	2
2023-09-11T00:00	20191	56	-57.2	-85.0	70	1
2023-09-11T00:00	20218	56	-57.2	-85.0	88	2
2023-09-11T00:00	20240	55	-57.3	-85.1	106	2
2023-09-11T00:00	20264	55	-57.3	-85.1	121	2
2023-09-11T00:00	20291	55	-57.3	-85.1	132	2
2023-09-11T00:00	20315	55	-57.1	-84.9	144	2
2023-09-11T00:00	20339	55	-57.1	-84.9	161	2
2023-09-11T00:00	20363	54	-57.3	-85.1	192	1
2023-09-11T00:00	20388	54	-57.4	-85.2	232	2
2023-09-11T00:00	20421	54	-57.5	-85.2	255	2
2023-09-11T00:00	20442	54	-57.6	-85.3	266	3
2023-09-11T00:00	20465	53	-57.6	-85.3	271	4
2023-09-11T00:00	20491	53	-57.6	-85.3	274	4
2023-09-11T00:00	20513	53	-57.8	-85.5	277	5
2023-09-11T00:00	20539	53	-57.8	-85.5	280	5
2023-09-11T00:00	20564	53	-57.7	-85.4	283	5
2023-09-11T00:00	20587	52	-57.7	-85.4	286	5
2023-09-11T00:00	20615	52	-57.8	-85.5	290	5
2023-09-11T00:00	20636	52	-57.9	-85.5	293	5
2023-09-11T00:00	20660	52	-57.9	-85.5	297	5
2023-09-11T00:00	20684	52	-57.8	-85.5	301	5
2023-09-11T00:00	20712	51	-57.5	-85.2	304	5
2023-09-11T00:00	20735	51	-57.5	-85.2	306	5
2023-09-11T00:00	20757	51	-57.6	-85.3	308	5
2023-09-11T00:00	20784	51	-57.7	-85.4	310	5
2023-09-11T00:00	20808	51	-57.7	-85.4	313	5
2023-09-11T00:00	20832	50	-57.6	-85.3	317	4
2023-09-11T00:00	20855	50	-57.6	-85.7	322	4
2023-09-11T00:00	20881	50	-57.6	-85.7	327	3
2023-09-11T00:00	20904	50	-57.3	-85.5	333	3
2023-09-11T00:00	20926	50	-56.9	-85.2	338	3
2023-09-11T00:00	20951	49	-57.0	-85.2	342	4
2023-09-11T00:00	20972	49	-57.0	-85.2	346	4
2023-09-11T00:00	20996	49	-57.1	-85.3	349	4
2023-09-11T00:00	21021	49	-57.1	-85.3	352	4
2023-09-11T00:00	21045	49	-57.3	-85.1	355	5
2023-09-11T00:00	21068	49	-57.5	-85.2	358	5
2023-09-11T00:00	21093	48	-57.7	-85.4	3	5
2023-09-11T00:00	21115	48	-57.7	-85.4	8	5
2023-09-11T00:00	21139	48	-57.7	-85.4	14	6
2023-09-11T00:00	21161	48	-57.6	-85.3	20	6
2023-09-11T00:00	21188	48	-57.5	-85.2	25	6
2023-09-11T00:00	21212	47	-57.6	-85.3	29	5
2023-09-11T00:00	21232	47	-57.6	-85.3	33	5
2023-09-11T00:00	21256	47	-57.5	-85.2	35	5
2023-09-11T00:00	21279	47	-57.5	-85.2	36	4
2023-09-11T00:00	21305	47	-57.6	-85.3	36	3
2023-09-11T00:00	21329	47	-57.7	-85.4	33	3
2023-09-11T00:00	21350	46	-57.7	-85.4	28	2
2023-09-11T00:00	21378	46	-57.9	-85.5	21	2
2023-09-11T00:00	21402	46	-58.0	-85.6	15	2
2023-09-11T00:00	21423	46	-58.2	-85.8	14	2
2023-09-11T00:00	21453	46	-58.1		18	2
2023-09-11T00:00	21471	46	-57.7	-85.8	25	1
2023-09-11T00:00	21498	45	-57.5	-85.6	33	1
2023-09-11T00:00	21524	45	-57.2	-85.8	36	1
2023-09-11T00:00	21546	45	-57.0	-85.7	31	1
2023-09-11T00:00	21571	45	-57.0	-85.7	21	1
2023-09-11T00:00	21597	45	-57.0	-85.7	14	2
2023-09-11T00:00	21617	45	-56.9	-85.6	11	2
2023-09-11T00:00	21646	44	-56.7	-85.4	11	3
2023-09-11T00:00	21669	44	-56.2	-85.1	11	3
2023-09-11T00:00	21691	44	-56.2	-85.1	11	4
2023-09-11T00:00	21713	44	-56.1	-85.0	11	4
2023-09-11T00:00	21741	44	-56.2	-85.1	11	4
2023-09-11T00:00	21760	44	-56.3	-85.1	11	4
2023-09-11T00:00	21789	43	-56.3	-85.1	12	4
2023-09-11T00:00	21812	43	-56.3	-84.7	14	4
2023-09-11T00:00	21833	43	-56.3	-84.7	16	3
2023-09-11T00:00	21862	43	-56.4	-84.8	19	3
2023-09-11T00:00	21885	43	-56.5	-84.9	23	3
2023-09-11T00:00	21916	42	-56.6	-84.9	25	3
2023-09-11T00:00	21940	42	-56.7	-85.0	28	4
2023-09-11T00:00	21964	42	-56.7	-85.0	30	4
2023-09-11T00:00	21989	42	-56.8	-85.1	32	4
2023-09-11T00:00	22010	42	-57.0	-85.2	34	4
2023-09-11T00:00	22037	42	-57.1	-84.9	36	4
2023-09-11T00:00	22059	42	-57.2	-85.0	39	4
2023-09-11T00:00	22088	41	-57.4	-85.2	43	3
2023-09-11T00:00	22108	41	-57.5	-85.2	46	3
2023-09-11T00:00	22134	41	-57.6	-85.3	49	4
2023-09-11T00:00	22156	41	-57.6	-85.7	52	4
2023-09-11T00:00	22180	41	-57.5	-85.6	55	4
2023-09-11T00:00	22203	41	-57.4	-85.6	59	4
2023-09-11T00:00	22227	40	-57.4	-85.6	62	5
2023-09-11T00:00	22251	40	-57.4	-85.6	66	5
2023-09-11T00:00	22272	40	-57.4	-85.6	71	5
2023-09-11T00:00	22298	40	-57.3	-85.5	75	5
2023-09-11T00:00	22322	40	-57.4	-85.6	79	5
2023-09-11T00:00	22346	40	-57.5	-85.6	82	5
2023-09-11T00:00	22376	40	-57.6	-85.7	84	5
2023-09-11T00:00	22394	39	-57.5	-85.6	87	5
2023-09-11T00:00	22420	39	-57.5	-85.6	90	4
2023-09-11T00:00	22442	39	-57.5	-85.6	94	4
2023-09-11T00:00	22465	39	-57.6	-85.7	98	4
2023-09-11T00:00	22494	39	-57.7	-85.8	101	5
2023-09-11T00:00	22513	39	-57.8	-85.9	104	5
2023-09-11T00:00	22538	38	-57.7	-85.8	106	5
2023-09-11T00:00	22563	38	-57.7	-85.8	108	5
2023-09-11T00:00	22582	38	-57.8	-85.9	110	5
2023-09-11T00:00	22612	38	-57.7	-85.8	112	5
2023-09-11T00:00	22638	38	-57.6	-85.7	114	4
2023-09-11T00:00	22660	38	-57.7	-85.8	116	4
2023-09-11T00:00	22683	38	-57.7	-85.8	115	3
2023-09-11T00:00	22711	37	-57.8	-85.9	113	3
2023-09-11T00:00	22732	37	-57.9		110	3
2023-09-11T00:00	22760	37	-57.8	-85.9	108	3
2023-09-11T00:00	22781	37	-57.7	-85.8	107	3
2023-09-11T00:00	22802	37	-57.4	-85.6	108	3
2023-09-11T00:00	22830	37	-57.3	-85.5	110	3
2023-09-11T00:00	22849	37	-57.3	-85.5	113	3
2023-09-11T00:00	22867	37	-57.5	-85.6	117	3
2023-09-11T00:00	22900	36	-57.6	-85.7	122	2
2023-09-11T00:00	22921	36	-57.6	-85.7	131	2
2023-09-11T00:00	22947	36	-57.6	-85.7	157	1
2023-09-11T00:00	22978	36	-57.8	-85.5	215	1
2023-09-11T00:00	22996	36	-58.0	-85.6	248	1
2023-09-11T00:00	23025	36	-58.1	-85.7	262	2
2023-09-11T00:00	23053	35	-58.2	-85.8	272	2
2023-09-11T00:00	23075	35	-58.3	-85.8	282	2
2023-09-11T00:00	23102	35	-58.0	-86.0	293	3
2023-09-11T00:00	23126	35	-57.8	-85.9	303	3
2023-09-11T00:00	23148	35	-57.6	-86.1	310	3
2023-09-11T00:00	23174	35	-57.4	-86.0	314	3
2023-09-11T00:00	23201	35	-57.3	-85.9	316	3
2023-09-11T00:00	23227	35	-56.7	-85.4	318	3
2023-09-11T00:00	23250	34	-56.7	-85.4	322	2
2023-09-11T00:00	23274	34	-56.9	-85.6	333	2
2023-09-11T00:00	23296	34	-57.1	-85.7	5	1
2023-09-11T00:00	23323	34	-57.3	-85.9	60	1
2023-09-11T00:00	23351	34	-57.2	-85.4	86	2
2023-09-11T00:00	23380	34	-57.0	-85.2	96	3
2023-09-11T00:00	23401	34	-57.0	-85.7	102	4
2023-09-11T00:00	23426	33	-57.0	-85.7	106	4
2023-09-11T00:00	23449	33	-56.9	-85.6	109	5
2023-09-11T00:00	23474	33	-56.6	-85.4	113	5
2023-09-11T00:00	23499	33	-56.3	-85.1	117	5
2023-09-11T00:00	23524	33	-56.4	-85.2	124	4
2023-09-11T00:00	23544	33	-56.4	-85.2	131	4
2023-09-11T00:00	23578	33	-56.4	-85.2	140	4
2023-09-11T00:00	23600	33	-56.5	-85.3	148	4
2023-09-11T00:00	23626	32	-56.4	-85.2	156	4
2023-09-11T00:00	23652	32	-56.2	-85.1	162	5
2023-09-11T00:00	23672	32	-56.2	-85.1	168	5
2023-09-11T00:00	23701	32	-56.3	-85.1	173	5
2023-09-11T00:00	23730	32	-56.3	-85.1	177	5
2023-09-11T00:00	23748	32	-56.4	-85.2	181	5
2023-09-11T00:00	23769	32	-56.5	-85.3	185	5
2023-09-11T00:00	23797	32	-56.5	-85.3	188	5
2023-09-11T00:00	23821	31	-56.5	-85.3	191	5
2023-09-11T00:00	23847	31	-56.5	-85.3	194	4
2023-09-11T00:00	23866	31	-56.6	-85.4	198	4
2023-09-11T00:00	23898	31	-56.6	-85.4	203	4
2023-09-11T00:00	23916	31	-56.6	-85.4	208	4
2023-09-11T00:00	23944	31	-56.7	-85.4	215	3
2023-09-11T00:00	23970	31	-56.7	-85.4	221	3
2023-09-11T00:00	23989	31	-56.8	-85.5	228	3
2023-09-11T00:00	24014	30	-56.8	-85.1	236	3
2023-09-11T00:00	24040	30	-56.9	-85.2	244	3
2023-09-11T00:00	24062	30	-57.0	-85.2	254	3
2023-09-11T00:00	24093	30	-57.1	-85.3	263	3
2023-09-11T00:00	24115	30	-57.2	-85.4	271	3
2023-09-11T00:00	24138	30	-57.2	-85.8	278	3
2023-09-11T00:00	24161	30	-57.3	-85.9	283	3
2023-09-11T00:00	24186	30	-57.2	-85.8	287	3
2023-09-11T00:00	24210	30	-56.6	-85.4	289	3
2023-09-11T00:00	24238	29	-56.5	-85.8	293	3
2023-09-11T00:00	24262	29	-56.5	-85.8	298	2
2023-09-11T00:00	24284	29	-56.5	-85.8	309	2
2023-09-11T00:00	24311	29	-56.2	-85.5	331	1
2023-09-11T00:00	24335	29	-55.8	-85.7	9	1
2023-09-11T00:00	24359	29	-55.5	-85.5	45	2
2023-09-11T00:00	24384	29	-55.3	-85.4	64	2
2023-09-11T00:00	24411	29	-55.2	-84.8	76	3
2023-09-11T00:00	24439	29	-55.3	-84.9	86	3
2023-09-11T00:00	24460	28	-55.4	-84.9	96	3
2023-09-11T00:00	24492	28	-55.6	-85.1	106	3
2023-09-11T00:00	24511	28	-55.5	-85.0	118	3
2023-09-11T00:00	24541	28	-55.4	-84.9	129	4
2023-09-11T00:00	24567	28	-55.5	-85.0	139	4
2023-09-11T00:00	24594	28	-55.4	-84.9	147	3
2023-09-11T00:00	24617	28	-55.3	-84.9	156	3
2023-09-11T00:00	24643	28	-55.1	-84.7	165	3
2023-09-11T00:00	24669	28	-55.1	-85.2	177	3
2023-09-11T00:00	24695	27	-55.0	-85.1	191	3
2023-09-11T00:00	24719	27	-54.9	-85.1	204	3
2023-09-11T00:00	24748	27	-54.8	-85.0	213	3
2023-09-11T00:00	24771	27	-54.8	-85.0	217	3
2023-09-11T00:00	24806	27	-54.7	-84.4	214	3
2023-09-11T00:00	24827	27	-54.8	-84.5	207	3
2023-09-11T00:00	24849	27	-55.0	-84.6	197	3
2023-09-11T00:00	24876	27	-55.1	-84.7	188	3
2023-09-11T00:00	24903	27	-55.1	-84.7	185	3
2023-09-11T00:00	24933	26	-55.4	-84.5	186	3
2023-09-11T00:00	24958	26	-55.5	-84.5	194	3
2023-09-11T00:00	24980	26	-55.5	-84.5	207	2
2023-09-11T00:00	25012	26	-55.7	-84.7	230	2
2023-09-11T00:00	25039	26	-55.9	-84.8	259	2
2023-09-11T00:00	25062	26	-56.0	-84.9	288	2
2023-09-11T00:00	25093	26	-55.7	-84.7	310	2
2023-09-11T00:00	25118	26	-55.7	-85.2	327	2
2023-09-11T00:00	25137	26	-55.8	-85.2	341	2
2023-09-11T00:00	25160	25	-55.8	-85.2	354	3
2023-09-11T00:00	25192	25	-55.8	-85.2	6	2
2023-09-11T00:00	25212	25	-55.8	-85.2	19	2
2023-09-11T00:00	25246	25	-55.9	-85.3	36	2
2023-09-11T00:00	25275	25	-55.9	-85.3	57	2
2023-09-11T00:00	25295	25	-55.6	-85.6	79	2
2023-09-11T00:00	25321	25	-54.7	-84.9	97	2
2023-09-11T00:00	25346	25	-54.4	-85.2	113	1
2023-09-11T00:00	25367	25	-54.3	-85.2	135	1
2023-09-11T00:00	25394	25	-54.1	-85.0	167	1
2023-09-11T00:00	25428	24	-53.9	-84.9	192	1
2023-09-11T00:00	25444	24	-53.8	-84.8	200	1
2023-09-11T00:00	25473	24	-53.5	-84.6	194	1
2023-09-11T00:00	25500	24	-53.1	-84.3	177	2
2023-09-11T00:00	25521	24	-52.8	-84.1	157	2
2023-09-11T00:00	25546	24	-52.9	-84.1	144	2
2023-09-11T00:00	25572	24	-52.8	-84.1	139	3
2023-09-11T00:00	25598	24	-52.9	-84.1	137	3
2023-09-11T00:00	25623	24	-52.9	-84.1	139	3
2023-09-11T00:00	25656	24	-52.6	-83.9	141	3
2023-09-11T00:00	25679	24	-52.4	-83.8	144	3
2023-09-11T00:00	25697	23	-52.4	-83.8	148	2
2023-09-11T00:00	25727	23	-52.6	-83.9	150	2
2023-09-11T00:00	25754	23	-52.8	-84.1	146	1
2023-09-11T00:00	25787	23	-52.9	-84.1	129	1
2023-09-11T00:00	25804	23	-52.7	-84.0	109	1
2023-09-11T00:00	25832	23	-52.5	-83.8	98	1
2023-09-11T00:00	25858	23	-52.5	-83.8	96	2
2023-09-11T00:00	25884	23	-52.6	-83.9	101	2
2023-09-11T00:00	25913	23	-52.5	-83.8	111	2
2023-09-11T00:00	25939	23	-52.3	-83.7	124	2
2023-09-11T00:00	25964	22	-52.3	-83.7	136	2
2023-09-11T00:00	25989	22	-52.2	-83.6	146	2
2023-09-11T00:00	26018	22	-52.0	-83.5	154	3
2023-09-11T00:00	26044	22	-52.0	-83.5	161	4
2023-09-11T00:00	26066	22	-51.9	-83.4	167	5
2023-09-11T00:00	26099	22	-51.6	-83.2	172	5
2023-09-11T00:00	26132	22	-51.7	-83.2	175	6
2023-09-11T00:00	26160	22	-51.8	-83.3	178	6
2023-09-11T00:00	26188	22	-51.5	-83.1	180	7
2023-09-11T00:00	26210	22	-51.5	-83.1	183	7
2023-09-11T00:00	26238	22	-51.4	-83.0	186	6
2023-09-11T00:00	26272	21	-51.4	-83.0	191	6
2023-09-11T00:00	26297	21	-51.3	-82.9	197	6
2023-09-11T00:00	26321	21	-51.2	-82.9	205	6
2023-09-11T00:00	26344	21	-51.3	-82.9	212	6
2023-09-11T00:00	26377	21	-51.2	-82.9	219	7
2023-09-11T00:00	26398	21	-51.1	-82.8	225	7
2023-09-11T00:00	26437	21	-51.1	-82.8	231	7
2023-09-11T00:00	26454	21	-51.2	-82.9	236	7
2023-09-11T00:00	26486	21	-51.3	-82.9	241	7
2023-09-11T00:00	26514	21	-51.3	-82.9	245	7
2023-09-11T00:00	26541	21	-51.1	-83.4	249	6
2023-09-11T00:00	26567	20	-50.9	-83.3	252	6
2023-09-11T00:00	26596	20	-50.8	-83.2	254	6
2023-09-11T00:00	26626	20	-50.7	-83.1	255	6
2023-09-11T00:00	26650	20	-50.7	-83.1	256	6
2023-09-11T00:00	26682	20	-50.9	-82.7	256	6
2023-09-11T00:00	26699	20	-51.0	-82.7	256	6
2023-09-11T00:00	26734	20	-51.1	-82.8	256	6
2023-09-11T00:00	26764	20	-51.1	-82.8	256	5
2023-09-11T00:00	26785	20	-51.0	-82.7	255	5
2023-09-11T00:00	26808	20	-50.9	-83.3	254	5
2023-09-11T00:00	26834	20	-51.0	-83.3	253	4
2023-09-11T00:00	26864	20	-50.9	-83.3	251	4
2023-09-11T00:00	26886	20	-50.7	-83.1	251	4
2023-09-11T00:00	26906	19	-50.8	-83.2	253	4
2023-09-11T00:00	26937	19	-50.9	-83.3	257	4
2023-09-11T00:00	26962	19	-50.7	-83.1	263	5
2023-09-11T00:00	26983	19	-50.5	-83.0	269	5
2023-09-11T00:00	27017	19	-50.5	-83.0	274	6
2023-09-11T00:00	27034	19	-50.4	-82.9	279	6
2023-09-11T00:00	27068	19	-50.5	-83.0	283	6
2023-09-11T00:00	27090	19	-50.6	-83.1	285	6
2023-09-11T00:00	27122	19	-50.5	-83.0	286	6
2023-09-11T00:00	27145	19	-50.6	-83.1	288	6
2023-09-11T00:00	27179	19	-50.5	-83.0	289	6
2023-09-11T00:00	27209	19	-50.5	-83.0	291	6
2023-09-11T00:00	27224	19	-50.2	-82.8	293	6
2023-09-11T00:00	27257	18	-49.7	-82.4	295	6
2023-09-11T00:00	27291	18	-49.5	-82.9	296	6
2023-09-11T00:00	27312	18	-49.5	-82.9	297	6
2023-09-11T00:00	27347	18	-49.2	-82.7	297	7
2023-09-11T00:00	27364	18	-49.2	-82.7	297	7
2023-09-11T00:00	27397	18	-49.1	-82.7	297	7
2023-09-11T00:00	27420	18	-49.0	-81.9	298	8
2023-09-11T00:00	27454	18	-49.2	-82.0	300	8
2023-09-11T00:00	27485	18	-49.5	-82.3	302	8
2023-09-11T00:00	27503	18	-49.7	-82.4	305	8
2023-09-11T00:00	27527	18	-49.8	-82.5	308	8
2023-09-11T00:00	27554	18	-49.8	-82.5	311	7
2023-09-11T00:00	27580	18	-49.9	-82.5	314	7
2023-09-11T00:00	27603	17	-49.8	-82.5	315	6
2023-09-11T00:00	27642	17	-49.5	-82.3	314	5
2023-09-11T00:00	27670	17	-49.3	-82.8	309	4
2023-09-11T00:00	27692	17	-48.8	-82.4	298	4
2023-09-11T00:00	27728	17	-48.6	-82.3	284	3
2023-09-11T00:00	27749	17	-48.4	-82.2	271	3
2023-09-11T00:00	27778	17	-48.5	-82.2	260	3
2023-09-11T00:00	27803	17	-48.6	-82.3	251	3
2023-09-11T00:00	27836	17	-48.7	-82.4	243	3
2023-09-11T00:00	27854	17	-48.7	-82.4	237	4
2023-09-11T00:00	27879	17	-48.8	-82.4	233	4
2023-09-11T00:00	27912	17	-48.5	-82.2	230	5
2023-09-11T00:00	27935	17	-48.4	-82.2	230	6
2023-09-11T00:00	27965	17	-48.6	-82.3	230	7
2023-09-11T00:00	27989	16	-48.7	-82.4	232	8
2023-09-11T00:00	28018	16	-48.8	-82.4	234	9
2023-09-11T00:00	28049	16	-48.8	-82.4	235	9
2023-09-11T00:00	28083	16	-48.5	-82.2	237	10
2023-09-11T00:00	28097	16	-48.4	-82.2	238	10
2023-09-11T00:00	28128	16	-48.4	-82.2	238	11
2023-09-11T00:00	28153	16	-48.6	-82.3	239	11
2023-09-11T00:00	28186	16	-48.7	-82.4	239	11
2023-09-11T00:00	28221	16	-48.7	-82.4	241	12
2023-09-11T00:00	28241	16	-48.8	-82.4	243	12
2023-09-11T00:00	28266	16	-48.7	-82.4	246	12
2023-09-11T00:00	28307	16	-48.3	-82.1	249	13
2023-09-11T00:00	28330	16	-48.4	-82.2	252	13
2023-09-11T00:00	28359	16	-48.6	-82.3	255	13
2023-09-11T00:00	28384	16	-48.8	-81.7	258	13
2023-09-11T00:00	28414	15	-49.0	-81.9	260	14
2023-09-11T00:00	28436	15	-49.1	-82.0	262	14
2023-09-11T00:00	28461	15	-49.1	-82.0	264	14
2023-09-11T00:00	28497	15	-49.0	-81.9	265	14
2023-09-11T00:00	28530	15	-49.2	-82.0	266	14
2023-09-11T00:00	28545	15	-49.2	-82.0	266	14
2023-09-11T00:00	28577	15	-49.1	-82.0	267	14
2023-09-11T00:00	28610	15	-49.1	-82.7	269	14
2023-09-11T00:00	28628	15	-49.1	-82.7	270	14
2023-09-11T00:00	28663	15	-49.3	-82.8	273	14
2023-09-11T00:00	28690	15	-49.3	-82.8	276	13
2023-09-11T00:00	28712	15	-49.4	-82.9	280	13
2023-09-11T00:00	28743	15	-49.4	-82.9	284	13
2023-09-11T00:00	28774	15	-49.4	-82.9	287	13
2023-09-11T00:00	28810	15	-49.3	-82.8	290	13
2023-09-11T00:00	28821	15	-49.2	-82.7	293	12
2023-09-11T00:00	28859	14	-49.1	-82.7	296	12
2023-09-11T00:00	28877	14	-48.7	-82.4	299	11
2023-09-11T00:00	28908	14	-48.4	-82.2	301	11
2023-09-11T00:00	28939	14	-48.2	-82.8	303	10
2023-09-11T00:00	28953	14	-47.9	-82.6	303	10
2023-09-11T00:00	28994	14	-47.5	-82.3	302	10
2023-09-11T00:00	29015	14	-47.5	-82.3	300	10
2023-09-11T00:00	29047	14	-47.4	-82.2	298	10
2023-09-11T00:00	29066	14	-47.5	-82.3	296	10
2023-09-11T00:00	29089	14	-47.2	-82.1	295	11
2023-09-11T00:00	29116	14	-47.1	-82.0	294	11
2023-09-11T00:00	29144	14	-47.1	-82.0	294	11
2023-09-11T00:00	29171	14	-47.2	-82.1	295	11
2023-09-11T00:00	29194	14	-47.2	-81.3	296	11
2023-09-11T00:00	29230	14	-47.2	-81.3	297	11
2023-09-11T00:00	29249	14	-47.1	-82.0	299	11
2023-09-11T00:00	29283	14	-47.1	-82.0	299	10
2023-09-11T00:00	29307	14	-46.9	-81.9	299	10
2023-09-11T00:00	29329	13	-46.8	-81.8	298	9
2023-09-11T00:00	29363	13	-46.8	-81.8	296	9
2023-09-11T00:00	29390	13	-46.4	-81.5	292	9
2023-09-11T00:00	29422	13	-46.1	-81.3	288	9
2023-09-11T00:00	29445	13	-45.9	-81.2	285	9
2023-09-11T00:00	29474	13	-45.7	-81.0	283	9
2023-09-11T00:00	29498	13	-45.4	-80.8	281	9
2023-09-11T00:00	29523	13	-45.3	-81.6	281	9
2023-09-11T00:00	29561	13	-45.0	-81.4	281	9
2023-09-11T00:00	29581	13	-44.8	-81.3	280	9
2023-09-11T00:00	29603	13	-44.7	-81.2	279	10
2023-09-11T00:00	29621	13	-44.6	-81.2	279	10
2023-09-11T00:00	29660	13	-44.6	-80.2	280	10
2023-09-11T00:00	29686	13	-44.7	-80.3	283	10
2023-09-11T00:00	29715	13	-44.7	-80.3	286	10
2023-09-11T00:00	29744	13	-44.6	-80.2	289	11
2023-09-11T00:00	29763	13	-44.6	-80.2	291	11
2023-09-11T00:00	29786	13	-44.5	-80.1	292	12
2023-09-11T00:00	29829	13	-44.7	-80.3	293	12
2023-09-11T00:00	29849	12	-44.7	-80.3	293	13
2023-09-11T00:00	29886	12	-44.7	-80.3	292	13
2023-09-11T00:00	29902	12	-44.7	-80.3	291	13
2023-09-11T00:00	29936	12	-44.9	-80.4	290	13
2023-09-11T00:00	29953	12	-44.9	-80.4	290	13
2023-09-11T00:00	29987	12	-45.0	-80.5	290	13
2023-09-11T00:00	30019	12	-45.0	-80.5	291	13
2023-09-11T00:00	30033	12	-44.9	-80.4	293	13
2023-09-11T00:00	30049	12	-45.0	-80.5	295	13
2023-09-11T00:00	30089	12	-45.1	-80.6	297	13
2023-09-11T00:00	30114	12	-45.3	-80.7	300	13
2023-09-11T00:00	30151	12	-45.5	-80.9	302	12
2023-09-11T00:00	30183	12	-45.6	-80.9	303	11
2023-09-11T00:00	30212	12	-45.5	-80.9	302	11
2023-09-11T00:00	30219	12	-45.4	-80.8	300	10
2023-09-11T00:00	30261	12	-45.2	-80.7	299	9
2023-09-11T00:00	30279	12	-45.2	-80.7	298	9
2023-09-11T00:00	30298	12	-45.3	-80.7	298	8
2023-09-11T00:00	30341	12	-45.1	-80.6	300	8
2023-09-11T00:00	30365	12	-45.0	-80.5	304	8
2023-09-11T00:00	30390	11	-45.1	-80.6	307	7
2023-09-11T00:00	30413	11	-45.1	-80.6	311	7
2023-09-11T00:00	30439	11	-45.1	-80.6	315	7
2023-09-11T00:00	30460	11	-45.3	-80.7	320	7
2023-09-11T00:00	30491	11	-45.5	-80.9	324	7
2023-09-11T00:00	30524	11	-45.7	-81.0	328	7
2023-09-11T00:00	30561	11	-45.7	-81.0	333	7
2023-09-11T00:00	30575	11	-45.4	-80.8	337	7
2023-09-11T00:00	30594	11	-45.3	-80.7	340	7
2023-09-11T00:00	30630	11	-45.5	-80.9	343	7
2023-09-11T00:00	30648	11	-45.5	-80.9	346	7
2023-09-11T00:00	30686	11	-45.5	-80.9	348	8
2023-09-11T00:00	30712	11	-45.0	-81.4	348	8
2023-09-11T00:00	30735	11	-45.0	-81.4	348	8
2023-09-11T00:00	30774	11	-45.2	-80.7	347	8
2023-09-11T00:00	30814	11	-45.2	-80.7	342	6
2023-09-11T00:00	30836	11	-45.3	-80.7	338	6
2023-09-11T00:00	30871	11	-45.2	-80.7	333	5
2023-09-11T00:00	30891	11	-45.3	-80.7	325	4
2023-09-11T00:00	30925	11	-45.3	-80.7	316	4
2023-09-11T00:00	30954	11	-45.3	-80.7	305	4
2023-09-11T00:00	30972	11	-45.4	-80.8	293	4
2023-09-11T00:00	31012	10	-45.4	-80.8	283	4
2023-09-11T00:00	31044	10	-45.2	-80.7	268	5
2023-09-11T00:00	31083	10	-45.1	-81.5	262	6
2023-09-11T00:00	31100	10	-45.2	-81.6	258	6
2023-09-11T00:00	31120	10	-45.2	-81.6	255	6
2023-09-11T00:00	31164	10	-45.0	-81.4	252	6
2023-09-11T00:00	31187	10	-45.0	-81.4	249	6
2023-09-11T00:00	31221	10	-44.8	-81.3	245	6
2023-09-11T00:00	31246	10	-44.8	-81.3	242	6
2023-09-11T00:00	31277	10	-45.0	-81.4	240	7
2023-09-11T00:00	31304	10	-44.8	-81.3	240	7
2023-09-11T00:00	31307	10	-44.6	-81.2	241	6
2023-09-11T00:00	31351	10	-44.6	-81.2	244	6
2023-09-11T00:00	31379	10	-44.5	-81.1	249	6
2023-09-11T00:00	31397	10	-44.6	-81.2	257	5
2023-09-11T00:00	31431	10	-44.4	-81.0	267	5
2023-09-11T00:00	31454	10	-44.3	-80.9	280	4
2023-09-11T00:00	31478	10	-44.4	-81.0	294	4
2023-09-11T00:00	31523	10	-44.6	-81.2	307	4
2023-09-11T00:00	31534	10	-44.6	-81.2	319	5
2023-09-11T00:00	31576	10	-44.6	-81.2	330	5
2023-09-11T00:00	31610	10	-44.5	-81.1	339	5
2023-09-11T00:00	31628	10	-44.4	-81.0	346	5
2023-09-11T00:00	31650	10	-44.5	-81.1	351	5
2023-09-11T00:00	31673	9	-44.6	-81.2	352	5
2023-09-11T00:00	31696	9	-44.7	-81.2	349	5
2023-09-11T00:00	31737	9	-44.7	-81.2	342	4
2023-09-11T00:00	31752	9	-44.6	-81.2	332	4
2023-09-11T00:00	31785	9	-44.4	-81.0	322	4
2023-09-11T00:00	31814	9	-44.1	-80.8	312	4
2023-09-11T00:00	31833	9	-43.8	-80.6	304	4
2023-09-11T00:00	31864	9	-43.7	-80.5	296	3
2023-09-11T00:00	31892	9	-43.6	-80.4	289	3
2023-09-11T00:00	31900	9	-43.7	-80.5	280	3
2023-09-11T00:00	31923	9	-43.9	-80.7	271	3
2023-09-11T00:00	31954	9	-44.0	-80.7	261	3
2023-09-11T00:00	31988	9	-43.9	-80.7	252	4
2023-09-11T00:00	32007	9	-43.9	-80.7	246	4
2023-09-11T00:00	32059	9	-43.9	-80.7	243	5
2023-09-11T00:00	32074	9	-44.0	-80.7	240	5
2023-09-11T00:00	32093	9	-44.0	-80.7	239	6
2023-09-11T00:00	32115	9	-43.9	-80.7	238	6
2023-09-11T00:00	32146	9	-43.7	-80.5	238	7
2023-09-11T00:00	32175	9	-43.7	-80.5	238	7
2023-09-11T00:00	32193	9	-43.8	-80.6	239	8
2023-09-11T00:00	32216	9	-43.7	-80.5	240	8
2023-09-11T00:00	32240	9	-43.6	-80.4	241	9
2023-09-11T00:00	32249	9	-43.4	-80.3	243	10
2023-09-11T00:00	32286	9	-43.3	-80.2	245	11
2023-09-11T00:00	32291	9	-43.3	-81.3	247	11
2023-09-11T00:00	32335	9	-43.1	-81.2	249	12
2023-09-11T00:00	32364	9	-42.8	-81.0	252	12
2023-09-11T00:00	32382	9	-42.8	-81.0	255	12
2023-09-11T00:00	32402	9	-42.7	-80.9	257	12
2023-09-11T00:00	32425	8	-42.6	-80.8	258	11
2023-09-11T00:00	32445	8	-42.3	-80.6	259	11
2023-09-11T00:00	32478	8	-42.4	-80.7	259	10
2023-09-11T00:00	32490	8	-42.5	-80.8	259	10
2023-09-11T00:00	32529	8	-42.4	-80.7	261	10
2023-09-11T00:00	32540	8	-42.3	-80.6	264	10
2023-09-11T00:00	32581	8	-42.3	-80.6	268	10
2023-09-11T00:00	32582	8	-41.9	-80.4	272	10
2023-09-11T00:00	32631	8	-41.8	-80.3	275	11
2023-09-11T00:00	32642	8	-41.8	-80.3	277	11
2023-09-11T00:00	32683	8	-41.9	-80.4	277	12
2023-09-11T00:00	32692	8	-42.0	-80.4	276	11
2023-09-11T00:00	32714	8	-42.1	-80.5	275	11
2023-09-11T00:00	32750	8	-42.0	-80.4	274	11
2023-09-11T00:00	32770	8	-41.9	-80.4	273	10
2023-09-11T00:00	32792	8	-41.9	-80.4	272	10
2023-09-11T00:00	32834	8	-41.7	-80.2	272	10
2023-09-11T00:00	32853	8	-41.9	-80.4	271	10
2023-09-11T00:00	32862	8	-42.1	-80.5	271	10
2023-09-11T00:00	32905	8	-42.2	-80.6	270	10
2023-09-11T00:00	32922	8	-41.9	-80.4	268	11
2023-09-11T00:00	32949	8	-41.7	-80.2	266	11
2023-09-11T00:00	32989	8	-41.7	-80.2	264	11
2023-09-11T00:00	33006	8	-41.7	-80.2	262	11
2023-09-11T00:00	33036	8	-41.8	-80.3	259	11
2023-09-11T00:00	33065	8	-41.8	-80.3	256	11
2023-09-11T00:00	33070	8	-41.5	-80.1	254	11
2023-09-11T00:00	33105	8	-41.0	-79.7	253	11
2023-09-11T00:00	33114	8	-40.6	-79.5	254	11
2023-09-11T00:00	33138	8	-40.4	-79.3	257	11
2023-09-11T00:00	33179	8	-40.0	-79.0	261	11
2023-09-11T00:00	33194	8	-40.0	-79.0	264	12
2023-09-11T00:00	33213	8	-39.6	-78.8	268	12
2023-09-11T00:00	33250	8	-39.4	-78.6	271	13
2023-09-11T00:00	33263	8	-39.4	-78.6	275	13
2023-09-11T00:00	33292	7	-39.4	-78.6	279	13
2023-09-11T00:00	33322	7	-39.5	-78.7	282	14
2023-09-11T06:00	112	1002	15.8	12.7	150	2
2023-09-11T06:00	131	1000	17.6	11.2	203	1
2023-09-11T06:00	157	997	23.3	10.0	189	1
2023-09-11T06:00	178	994	23.7	11.4	186	1
2023-09-11T06:00	195	992	24.0	11.2	182	1
2023-09-11T06:00	212	991	24.1	11.4	175	1
2023-09-11T06:00	233	988	24.3	11.5	163	1
2023-09-11T06:00	256	986	24.3	11.3	151	1
2023-09-11T06:00	279	983	24.2	10.7	143	1
2023-09-11T06:00	303	980	24.2	10.0	141	1
2023-09-11T06:00	327	978	24.0	9.7	142	1
2023-09-11T06:00	351	975	23.9		146	1
2023-09-11T06:00	373	973	23.8	9.6	154	1
2023-09-11T06:00	395	970	23.7	9.4	172	1
2023-09-11T06:00	415	968	23.5	9.4	200	1
2023-09-11T06:00	438	965	23.4	9.7	225	1
2023-09-11T06:00	458	963	23.2	9.6	240	1
2023-09-11T06:00	482	961	23.0	10.1	250	1
2023-09-11T06:00	504	958	22.8	10.2	254	1
2023-09-11T06:00	526	955	22.6	10.2	256	1
2023-09-11T06:00	552	953	22.4	9.9	255	1
2023-09-11T06:00	577	950	22.2	9.4	253	1
2023-09-11T06:00	603	947	22.0	9.0	251	2
2023-09-11T06:00	627	945	21.9	8.9	251	2
2023-09-11T06:00	649	942	21.7	9.0	251	2
2023-09-11T06:00	673	940	21.5		253	2
2023-09-11T06:00	694	937	21.3	9.1	254	2
2023-09-11T06:00	719	935	21.0	9.4	255	2
2023-09-11T06:00	743	932	20.8	9.5	255	3
2023-09-11T06:00	770	929	20.6	9.5	255	3
2023-09-11T06:00	795	926	20.3	9.4	254	3
2023-09-11T06:00	818	924	20.1	9.4	253	3
2023-09-11T06:00	845	921	19.8	9.4	253	3
2023-09-11T06:00	869	918	19.6	9.3	252	3
2023-09-11T06:00	891	916	19.4	9.2	250	2
2023-09-11T06:00	912	914	19.2	9.2	246	2
2023-09-11T06:00	936	911	18.9	9.2	242	2
2023-09-11T06:00	960	909	18.7	9.1	240	2
2023-09-11T06:00	982	906	18.5	9.2	240	2
2023-09-11T06:00	1006	904	18.2	8.9	243	2
2023-09-11T06:00	1031	901	18.0	9.0	246	2
2023-09-11T06:00	1056	899	17.8	8.9	249	2
2023-09-11T06:00	1080	896	17.5	8.9	250	2
2023-09-11T06:00	1105	894	17.3	8.8	248	2
2023-09-11T06:00	1127	891	17.1	8.8	244	2
2023-09-11T06:00	1149	889	16.9	8.8	240	2
2023-09-11T06:00	1172	887	16.7	8.8	239	2
2023-09-11T06:00	1196	884	16.4	8.7	241	2
2023-09-11T06:00	1220	882	16.2	8.7	246	2
2023-09-11T06:00	1245	879	15.9	8.7	252	2
2023-09-11T06:00	1272	876	15.7	8.6	255	2
2023-09-11T06:00	1297	874	15.4	8.5	255	2
2023-09-11T06:00	1325	871	15.2	8.5	254	2
2023-09-11T06:00	1351	868	14.9	8.5	252	2
2023-09-11T06:00	1378	865	14.6	8.3	251	2
2023-09-11T06:00	1404	863	14.4	8.4	252	1
2023-09-11T06:00	1430	860	14.1	8.3	251	1
2023-09-11T06:00	1457	857	13.9	8.3	251	1
2023-09-11T06:00	1483	855	13.6	8.1	251	1
2023-09-11T06:00	1509	852	13.4	8.2	255	1
2023-09-11T06:00	1540	849	13.1	8.0	263	1
2023-09-11T06:00	1565	846	12.8	7.9	275	1
2023-09-11T06:00	1589	844	12.6	7.8	285	1
2023-09-11T06:00	1613	841	12.4	7.7	286	1
2023-09-11T06:00	1641	839	12.2	7.4	279	1
2023-09-11T06:00	1663	837	12.1	6.2	268	1
2023-09-11T06:00	1685	834	12.3	5.0	260	2
2023-09-11T06:00	1709	832	12.4	2.9	257	1
2023-09-11T06:00	1733	830	12.5	0.6	260	1
2023-09-11T06:00	1759	827	12.5	0.1	272	1
2023-09-11T06:00	1787	824	13.2	-6.2	328	0
2023-09-11T06:00	1807	822	13.8	-11.4	24	1
2023-09-11T06:00	1831	820	14.2	-12.9	37	1
2023-09-11T06:00	1855	818	14.5	-13.6	37	1
2023-09-11T06:00	1882	815	14.6	-13.4	29	1
2023-09-11T06:00	1913	812	14.7	-13.6	17	1
2023-09-11T06:00	1936	810	14.7	-13.1	8	1
2023-09-11T06:00	1963	807	14.5	-13.0	2	2
2023-09-11T06:00	1986	805	14.5	-13.0	359	2
2023-09-11T06:00	2010	803	14.4	-13.1	356	2
2023-09-11T06:00	2035	800	14.3	-14.4	354	2
2023-09-11T06:00	2064	798	14.3	-15.9	350	1
2023-09-11T06:00	2092	795	14.2	-16.0	334	1
2023-09-11T06:00	2120	792	14.2	-16.5	216	0
2023-09-11T06:00	2142	790	14.2	-16.5	197	1
2023-09-11T06:00	2171	788	14.2	-17.0	197	1
2023-09-11T06:00	2199	785	14.0	-16.7	202	1
2023-09-11T06:00	2226	782	13.8	-16.8	215	1
2023-09-11T06:00	2251	780	13.7	-16.9	248	0
2023-09-11T06:00	2277	778	13.5	-17.0	297	1
2023-09-11T06:00	2302	775	13.5	-17.2	319	1
2023-09-11T06:00	2330	773	13.4	-18.4	323	1
2023-09-11T06:00	2353	771	13.3	-19.3	318	1
2023-09-11T06:00	2377	768	13.2	-19.3	307	1
2023-09-11T06:00	2405	766	13.0	-18.4	291	1
2023-09-11T06:00	2429	764	12.8	-17.9	279	2
2023-09-11T06:00	2452	762	12.7	-18.1	273	2
2023-09-11T06:00	2476	760	12.6	-16.6	272	2
2023-09-11T06:00	2502	757	12.4	-16.6	274	2
2023-09-11T06:00	2529	755	12.2	-16.8	277	2
2023-09-11T06:00	2553	752	12.2	-17.6	278	2
2023-09-11T06:00	2577	750	12.2	-17.9	278	2
2023-09-11T06:00	2599	748	12.0	-18.3	277	2
2023-09-11T06:00	2622	746	12.0	-18.5	275	2
2023-09-11T06:00	2648	744	11.8	-19.5	273	2
2023-09-11T06:00	2674	742	11.7	-20.0	273	2
2023-09-11T06:00	2703	739	11.6	-19.9	276	2
2023-09-11T06:00	2730	737	11.4	-20.1	281	1
2023-09-11T06:00	2752	735	11.3	-20.6	287	1
2023-09-11T06:00	2778	732	11.1	-20.6	293	2
2023-09-11T06:00	2805	730	10.9	-21.1	299	2
2023-09-11T06:00	2830	728	10.8	-19.7	303	2
2023-09-11T06:00	2859	725	10.5	-18.8	307	2
2023-09-11T06:00	2884	723	10.3	-18.0	309	2
2023-09-11T06:00	2908	721	10.1	-17.9	307	2
2023-09-11T06:00	2936	719	9.8	-17.8	301	2
2023-09-11T06:00	2964	716	9.6	-18.2	289	2
2023-09-11T06:00	2990	714	9.6	-18.9	277	2
2023-09-11T06:00	3013	712	9.4	-18.6	268	2
2023-09-11T06:00	3041	710	9.2	-17.0	263	3
2023-09-11T06:00	3064	708	9.0	-16.6	260	3
2023-09-11T06:00	3088	706	8.7	-15.9	258	3
2023-09-11T06:00	3112	704	8.5	-14.8	257	3
2023-09-11T06:00	3135	702	8.3	-16.1	254	2
2023-09-11T06:00	3159	700	8.2	-17.1	252	2
2023-09-11T06:00	3182	698	8.0	-17.3	250	2
2023-09-11T06:00	3209	695	7.8	-16.7	253	2
2023-09-11T06:00	3239	693	7.6	-15.5	258	2
2023-09-11T06:00	3269	690	7.3	-16.3	266	2
2023-09-11T06:00	3293	688	7.2	-17.3	272	2
2023-09-11T06:00	3321	686	7.0	-19.3	275	3
2023-09-11T06:00	3349	684	6.9	-20.5	273	3
2023-09-11T06:00	3373	682	6.7	-18.9	270	3
2023-09-11T06:00	3398	679	6.5	-18.7	269	4
2023-09-11T06:00	3427	677	6.3	-18.0	269	4
2023-09-11T06:00	3454	675	6.0	-15.7	271	4
2023-09-11T06:00	3487	672	5.7	-14.7	273	4
2023-09-11T06:00	3515	670	5.4	-14.2	275	4
2023-09-11T06:00	3539	668	5.3	-14.2	274	3
2023-09-11T06:00	3565	666	5.1	-14.3	270	3
2023-09-11T06:00	3592	663	4.8	-14.2	264	3
2023-09-11T06:00	3621	661	4.8	-15.4	259	3
2023-09-11T06:00	3644	659	4.7	-15.2	257	3
2023-09-11T06:00	3672	657	4.5	-15.0	258	4
2023-09-11T06:00	3699	655	4.2	-15.1	261	4
2023-09-11T06:00	3726	653	4.0	-15.1	263	4
2023-09-11T06:00	3752	651	3.8	-15.2	263	4
2023-09-11T06:00	3777	649	3.8	-18.6	262	4
2023-09-11T06:00	3804	646	3.7	-16.2	261	4
2023-09-11T06:00	3834	644	3.5	-16.8	260	4
2023-09-11T06:00	3862	642	3.3	-18.0	261	4
2023-09-11T06:00	3886	640	3.1	-16.2	263	3
2023-09-11T06:00	3913	638	2.9	-16.0	266	3
2023-09-11T06:00	3939	636	2.6	-15.9	266	3
2023-09-11T06:00	3961	634	2.5	-16.2	261	2
2023-09-11T06:00	3990	632	2.3	-16.5	252	2
2023-09-11T06:00	4017	630	2.1	-16.6	247	2
2023-09-11T06:00	4041	628	1.9	-17.0	248	3
2023-09-11T06:00	4067	626	1.7	-17.4	254	3
2023-09-11T06:00	4089	624	1.5	-17.6	262	3
2023-09-11T06:00	4120	622	1.3	-17.7	269	3
2023-09-11T06:00	4144	620	1.1	-16.9	272	3
2023-09-11T06:00	4168	618	0.9	-16.9	271	3
2023-09-11T06:00	4195	616	0.7	-16.7	266	3
2023-09-11T06:00	4227	614	0.4	-17.0	260	3
2023-09-11T06:00	4247	612	0.5	-19.9	256	2
2023-09-11T06:00	4274	610	0.3	-20.0	259	2
2023-09-11T06:00	4300	608	0.1	-19.3	265	2
2023-09-11T06:00	4327	606	-0.1	-19.6	270	3
2023-09-11T06:00	4349	604	-0.3		272	4
2023-09-11T06:00	4375	602	-0.5	-19.9	273	4
2023-09-11T06:00	4408	600	-0.8	-21.1	273	5
2023-09-11T06:00	4429	598	-0.9	-20.8	274	5
2023-09-11T06:00	4451	596	-1.1	-19.1	274	4
2023-09-11T06:00	4484	594	-1.4	-19.3	273	4
2023-09-11T06:00	4511	592	-1.3	-23.5	270	3
2023-09-11T06:00	4530	591	-1.4	-23.6	265	3
2023-09-11T06:00	4552	589	-1.6	-24.8	260	3
2023-09-11T06:00	4585	587	-1.8	-26.2	259	3
2023-09-11T06:00	4615	584	-2.0	-27.0	260	4
2023-09-11T06:00	4641	582	-2.1	-28.2	263	4
2023-09-11T06:00	4669	580	-2.2	-29.5	267	5
2023-09-11T06:00	4694	579	-2.3	-30.4	273	4
2023-09-11T06:00	4719	577	-2.2	-32.1	280	4
2023-09-11T06:00	4748	575	-2.3	-32.3	289	4
2023-09-11T06:00	4769	573	-2.4	-32.7	297	3
2023-09-11T06:00	4784	572	-2.5	-32.8	301	3
2023-09-11T06:00	4802	571	-2.6	-32.9	300	3
2023-09-11T06:00	4823	569	-2.7	-33.0	294	3
2023-09-11T06:00	4841	568	-2.7	-30.5	287	3
2023-09-11T06:00	4864	566	-2.8	-20.7	282	3
2023-09-11T06:00	4889	564	-3.0	-18.5	279	3
2023-09-11T06:00	4912	563	-3.2	-17.0	280	4
2023-09-11T06:00	4934	561	-3.4	-17.4	282	4
2023-09-11T06:00	4960	559	-3.7	-17.6	284	5
2023-09-11T06:00	4986	558	-3.9	-17.6	286	5
2023-09-11T06:00	5007	556	-4.0	-18.6	288	5
2023-09-11T06:00	5034	554	-4.1	-19.2	290	6
2023-09-11T06:00	5063	552	-4.4	-18.6	291	6
2023-09-11T06:00	5086	551	-4.6	-18.7	291	6
2023-09-11T06:00	5111	549	-4.8	-18.7	292	7
2023-09-11T06:00	5137	547	-5.0	-18.3	292	7
2023-09-11T06:00	5161	545	-5.2	-17.9	292	7
2023-09-11T06:00	5178	544	-5.4	-17.9	292	7
2023-09-11T06:00	5196	543	-5.5	-17.7	291	7
2023-09-11T06:00	5215	542	-5.7	-17.7	290	7
2023-09-11T06:00	5233	540	-5.9	-17.8	290	7
2023-09-11T06:00	5252	539	-6.0	-17.9	290	7
2023-09-11T06:00	5273	538	-6.2	-17.9	291	7
2023-09-11T06:00	5296	536	-6.3	-18.1	293	7
2023-09-11T06:00	5329	534	-6.6	-18.7	295	7
2023-09-11T06:00	5351	532	-6.7	-19.3	296	7
2023-09-11T06:00	5371	531	-6.8	-20.3	295	6
2023-09-11T06:00	5401	529	-7.0	-21.6	289	5
2023-09-11T06:00	5425	527	-7.0	-24.0	279	5
2023-09-11T06:00	5451	526	-7.0	-26.8	268	4
2023-09-11T06:00	5476	524	-7.0	-29.0	261	5
2023-09-11T06:00	5509	522	-7.2	-29.6	258	5
2023-09-11T06:00	5527	520	-7.4	-29.2	260	5
2023-09-11T06:00	5546	519	-7.5	-28.6	264	5
2023-09-11T06:00	5569	518	-7.6	-27.8	269	5
2023-09-11T06:00	5591	516	-7.7		276	4
2023-09-11T06:00	5613	515	-8.0	-27.7	281	4
2023-09-11T06:00	5640	513	-8.2	-26.8	283	4
2023-09-11T06:00	5666	511	-8.5	-26.4	283	4
2023-09-11T06:00	5690	509	-8.7	-25.1	282	5
2023-09-11T06:00	5716	508	-8.9	-25.1	281	5
2023-09-11T06:00	5742	506	-9.1	-25.6	280	5
2023-09-11T06:00	5763	505	-9.2	-26.0	280	5
2023-09-11T06:00	5788	503	-9.4	-27.4	280	5
2023-09-11T06:00	5818	501	-9.6	-27.1	280	5
2023-09-11T06:00	5838	500	-9.8	-26.8	279	5
2023-09-11T06:00	5865	498	-10.0	-26.9	279	5
2023-09-11T06:00	5895	496	-10.2	-27.4	280	5
2023-09-11T06:00	5922	495	-10.4	-27.4	282	5
2023-09-11T06:00	5945	493	-10.6	-27.6	284	5
2023-09-11T06:00	5967	491	-10.8	-27.7	285	5
2023-09-11T06:00	5997	490	-11.0	-27.9	285	5
2023-09-11T06:00	6029	488	-11.2	-28.3	284	5
2023-09-11T06:00	6057	486	-11.4	-28.8	282	5
2023-09-11T06:00	6078	485	-11.5	-29.0	281	5
2023-09-11T06:00	6100	483	-11.7	-28.9	280	4
2023-09-11T06:00	6129	481	-12.0	-28.9	280	4
2023-09-11T06:00	6169	479	-12.3	-29.0	282	4
2023-09-11T06:00	6196	477	-12.5	-29.0	284	3
2023-09-11T06:00	6219	476	-12.7	-28.9	286	3
2023-09-11T06:00	6237	474	-12.9	-28.8	287	3
2023-09-11T06:00	6261	473	-13.1	-28.0	286	3
2023-09-11T06:00	6284	472	-13.3	-27.8	285	3
2023-09-11T06:00	6318	470	-13.6	-27.6	284	3
2023-09-11T06:00	6345	468	-13.8	-28.3	284	3
2023-09-11T06:00	6364	467	-14.0	-28.4	285	3
2023-09-11T06:00	6390	465	-14.2	-28.2	287	2
2023-09-11T06:00	6419	463	-14.5	-28.7	286	2
2023-09-11T06:00	6447	462	-14.7	-29.0	283	2
2023-09-11T06:00	6470	460	-14.9	-28.7	279	2
2023-09-11T06:00	6491	459	-15.0	-28.3	274	2
2023-09-11T06:00	6518	457	-15.3	-28.6	270	2
2023-09-11T06:00	6540	456	-15.4	-29.9	268	3
2023-09-11T06:00	6561	455	-15.5	-30.5	265	3
2023-09-11T06:00	6584	453	-15.6	-30.8	263	3
2023-09-11T06:00	6608	452	-15.7	-31.1	262	3
2023-09-11T06:00	6637	450	-15.9	-31.3	262	4
2023-09-11T06:00	6666	448	-16.1	-31.3	261	4
2023-09-11T06:00	6689	447	-16.3	-31.5	259	4
2023-09-11T06:00	6708	446	-16.4	-31.5	257	4
2023-09-11T06:00	6728	445	-16.5	-31.8	255	5
2023-09-11T06:00	6750	443	-16.7	-32.1	254	5
2023-09-11T06:00	6770	442	-16.9	-32.4	254	6
2023-09-11T06:00	6791	441	-17.1	-32.6	255	6
2023-09-11T06:00	6816	440	-17.3		257	6
2023-09-11T06:00	6840	438	-17.4	-33.4	259	6
2023-09-11T06:00	6871	436	-17.7	-34.4	261	6
2023-09-11T06:00	6897	435	-17.9	-34.7	262	6
2023-09-11T06:00	6920	433	-18.1	-35.3	262	6
2023-09-11T06:00	6940	432	-18.3	-35.1	260	6
2023-09-11T06:00	6965	431	-18.5	-35.2	258	6
2023-09-11T06:00	6996	429	-18.7	-35.3	254	6
2023-09-11T06:00	7026	427	-18.8	-35.9	251	6
2023-09-11T06:00	7052	426	-18.9	-35.8	248	6
2023-09-11T06:00	7072	425	-19.1	-34.8	246	6
2023-09-11T06:00	7095	423	-19.2	-35.1	245	6
2023-09-11T06:00	7117	422	-19.4	-34.0	246	6
2023-09-11T06:00	7149	420	-19.7	-33.9	247	5
2023-09-11T06:00	7177	419	-19.9	-33.2	248	5
2023-09-11T06:00	7200	417	-20.1	-33.6	249	5
2023-09-11T06:00	7219	416	-20.2	-33.7	250	5
2023-09-11T06:00	7240	415	-20.4	-34.0	250	5
2023-09-11T06:00	7266	414	-20.6	-34.4	250	6
2023-09-11T06:00	7295	412	-20.8	-35.0	249	6
2023-09-11T06:00	7317	411	-21.0	-35.9	249	6
2023-09-11T06:00	7340	410	-21.2	-37.0	249	6
2023-09-11T06:00	7367	408	-21.4	-38.3	249	6
2023-09-11T06:00	7392	407	-21.7	-39.0	249	7
2023-09-11T06:00	7411	406	-21.8	-40.0	250	7
2023-09-11T06:00	7431	405	-22.0	-40.2	251	7
2023-09-11T06:00	7452	403	-22.2	-39.9	252	7
2023-09-11T06:00	7475	402	-22.3	-39.9	252	7
2023-09-11T06:00	7503	401	-22.6	-40.3	254	7
2023-09-11T06:00	7527	399	-22.8	-40.5	257	7
2023-09-11T06:00	7555	398	-23.0	-40.5	261	7
2023-09-11T06:00	7589	396	-23.3	-40.7	267	7
2023-09-11T06:00	7626	394	-23.5	-41.0	272	8
2023-09-11T06:00	7648	393	-23.7	-41.2	276	8
2023-09-11T06:00	7666	392	-23.8	-41.6	278	8
2023-09-11T06:00	7685	391	-23.9	-41.8	280	8
2023-09-11T06:00	7704	390	-24.0	-41.8	281	8
2023-09-11T06:00	7723	389	-24.2	-42.0	282	8
2023-09-11T06:00	7744	388	-24.3	-42.0	282	8
2023-09-11T06:00	7763	387	-24.5	-41.9	283	8
2023-09-11T06:00	7786	385	-24.7	-41.9	283	8
2023-09-11T06:00	7808	384	-24.8	-41.9	283	8
2023-09-11T06:00	7832	383	-25.1	-41.9	283	8
2023-09-11T06:00	7858	382	-25.3	-41.9	283	9
2023-09-11T06:00	7892	380	-25.6	-41.7	283	9
2023-09-11T06:00	7933	378	-26.0	-41.9	283	8
2023-09-11T06:00	7957	376	-26.2	-42.1	282	8
2023-09-11T06:00	7976	375	-26.4	-41.9	283	8
2023-09-11T06:00	7995	374	-26.5	-41.9	283	8
2023-09-11T06:00	8013	374	-26.6	-42.2	284	7
2023-09-11T06:00	8032	373	-26.8	-42.2	283	7
2023-09-11T06:00	8054	371	-27.0	-42.2	283	7
2023-09-11T06:00	8071	370	-27.2	-42.3	282	7
2023-09-11T06:00	8092	369	-27.3	-42.2	280	7
2023-09-11T06:00	8112	368	-27.4	-42.7	279	7
2023-09-11T06:00	8129	368	-27.4	-43.6	278	7
2023-09-11T06:00	8149	367	-27.5	-44.7	278	6
2023-09-11T06:00	8170	366	-27.6	-46.3	277	6
2023-09-11T06:00	8191	364	-27.7	-47.0	275	6
2023-09-11T06:00	8214	363	-27.9	-47.5	272	6
2023-09-11T06:00	8235	362	-28.1	-47.3	269	6
2023-09-11T06:00	8260	361	-28.2	-47.0	267	6
2023-09-11T06:00	8287	360	-28.4	-47.3	266	6
2023-09-11T06:00	8310	358	-28.5	-47.3	266	6
2023-09-11T06:00	8332	357	-28.7	-47.8	267	6
2023-09-11T06:00	8357	356	-28.8	-48.1	268	6
2023-09-11T06:00	8386	355	-28.9	-48.2	268	6
2023-09-11T06:00	8406	354	-29.1	-48.3	268	6
2023-09-11T06:00	8426	353	-29.3	-47.9	267	6
2023-09-11T06:00	8445	352	-29.4	-47.4	266	6
2023-09-11T06:00	8465	351	-29.6	-47.9	265	6
2023-09-11T06:00	8485	350	-29.8	-47.9	264	6
2023-09-11T06:00	8504	349	-30.0	-48.1	264	6
2023-09-11T06:00	8525	348	-30.1	-48.1	264	6
2023-09-11T06:00	8544	347	-30.3	-47.8	265	6
2023-09-11T06:00	8565	346	-30.5	-47.7	265	6
2023-09-11T06:00	8585	345	-30.7	-48.0	266	6
2023-09-11T06:00	8603	344	-30.9	-48.1	266	6
2023-09-11T06:00	8625	343	-31.0	-48.2	267	6
2023-09-11T06:00	8644	342	-31.2	-48.2	267	6
2023-09-11T06:00	8662	341	-31.4	-48.3	268	6
2023-09-11T06:00	8685	340	-31.6	-48.2	269	6
2023-09-11T06:00	8704	339	-31.8	-48.2	269	6
2023-09-11T06:00	8724	338	-31.9	-48.1	270	6
2023-09-11T06:00	8745	337	-32.1	-48.1	271	6
2023-09-11T06:00	8764	336	-32.3	-48.1	271	6
2023-09-11T06:00	8783	335	-32.4	-47.9	271	6
2023-09-11T06:00	8803	334	-32.6	-48.0	271	6
2023-09-11T06:00	8820	334	-32.7		270	6
2023-09-11T06:00	8839	333	-32.9	-48.2	270	6
2023-09-11T06:00	8859	332	-33.1	-48.2	271	6
2023-09-11T06:00	8879	331	-33.2	-48.1	270	6
2023-09-11T06:00	8898	330	-33.3	-48.0	270	6
2023-09-11T06:00	8921	329	-33.5	-48.1	269	6
2023-09-11T06:00	8943	328	-33.7	-48.1	268	6
2023-09-11T06:00	8964	327	-33.8	-48.2	267	6
2023-09-11T06:00	8987	326	-34.1	-48.1	266	6
2023-09-11T06:00	9012	325	-34.3	-48.2	266	7
2023-09-11T06:00	9035	323	-34.5	-48.2	266	7
2023-09-11T06:00	9063	322	-34.8	-48.3	266	8
2023-09-11T06:00	9081	321	-35.0	-48.4	266	8
2023-09-11T06:00	9102	320	-35.1	-48.0	267	8
2023-09-11T06:00	9124	319	-35.3	-48.2	267	8
2023-09-11T06:00	9144	319	-35.4	-48.6	267	8
2023-09-11T06:00	9164	318	-35.6	-49.0	267	8
2023-09-11T06:00	9183	317	-35.7	-49.0	267	8
2023-09-11T06:00	9202	316	-35.9	-48.9	268	9
2023-09-11T06:00	9224	315	-36.1	-48.7	268	9
2023-09-11T06:00	9245	314	-36.3	-47.7	269	9
2023-09-11T06:00	9266	313	-36.4	-46.0	270	9
2023-09-11T06:00	9287	312	-36.6	-45.3	271	10
2023-09-11T06:00	9309	311	-36.8	-45.6	271	10
2023-09-11T06:00	9329	310	-37.0	-45.9	272	10
2023-09-11T06:00	9349	309	-37.1	-46.2	272	10
2023-09-11T06:00	9368	308	-37.3	-47.1	273	10
2023-09-11T06:00	9387	308	-37.4	-47.9	274	10
2023-09-11T06:00	9408	307	-37.6	-48.3	275	10
2023-09-11T06:00	9427	306	-37.8	-48.5	276	10
2023-09-11T06:00	9446	305	-38.0	-49.2	277	10
2023-09-11T06:00	9468	304	-38.1	-49.4	278	10
2023-09-11T06:00	9487	303	-38.3	-49.8	279	10
2023-09-11T06:00	9505	302	-38.6	-50.6	279	10
2023-09-11T06:00	9525	301	-38.7	-51.3	279	10
2023-09-11T06:00	9546	301	-38.9	-51.5	279	10
2023-09-11T06:00	9561	300	-39.0	-51.6	279	10
2023-09-11T06:00	9581	299	-39.1	-51.7	279	10
2023-09-11T06:00	9602	298	-39.3	-52.1	280	10
2023-09-11T06:00	9621	297	-39.4	-52.0	280	10
2023-09-11T06:00	9639	296	-39.6	-52.1	281	10
2023-09-11T06:00	9660	296	-39.7	-52.4	281	10
2023-09-11T06:00	9678	295	-39.8	-52.5	282	10
2023-09-11T06:00	9697	294	-39.9	-53.4	283	10
2023-09-11T06:00	9717	293	-40.0	-54.0	283	10
2023-09-11T06:00	9736	292	-40.1	-52.9	283	11
2023-09-11T06:00	9754	291	-40.2	-52.3	283	11
2023-09-11T06:00	9774	291	-40.3	-51.8	283	11
2023-09-11T06:00	9793	290	-40.4	-52.0	282	10
2023-09-11T06:00	9812	289	-40.6	-52.3	281	10
2023-09-11T06:00	9828	288	-40.7	-52.0	279	10
2023-09-11T06:00	9848	287	-40.8	-51.8	278	10
2023-09-11T06:00	9868	287	-41.0	-51.7	276	10
2023-09-11T06:00	9888	286	-41.1	-50.7	275	10
2023-09-11T06:00	9908	285	-41.3	-52.1	275	10
2023-09-11T06:00	9925	284	-41.4	-53.5	275	10
2023-09-11T06:00	9947	283	-41.5	-52.9	275	11
2023-09-11T06:00	9965	283	-41.7	-52.9	275	11
2023-09-11T06:00	9985	282	-41.8	-53.1	276	11
2023-09-11T06:00	10005	281	-42.0	-53.5	277	11
2023-09-11T06:00	10024	280	-42.1	-53.9	277	11
2023-09-11T06:00	10045	279	-42.3	-54.2	277	12
2023-09-11T06:00	10063	278	-42.5	-54.5	277	12
2023-09-11T06:00	10085	278	-42.6	-54.6	277	12
2023-09-11T06:00	10104	277	-42.7	-56.0	277	12
2023-09-11T06:00	10124	276	-42.9	-58.1	277	12
2023-09-11T06:00	10141	275	-43.0	-58.6	278	13
2023-09-11T06:00	10161	275	-43.1	-58.6	278	13
2023-09-11T06:00	10180	274	-43.3	-58.7	279	13
2023-09-11T06:00	10199	273	-43.4	-58.9	279	13
2023-09-11T06:00	10218	272	-43.6	-59.0	280	13
2023-09-11T06:00	10236	271	-43.7	-59.3	280	13
2023-09-11T06:00	10255	271	-43.9	-59.2	280	13
2023-09-11T06:00	10277	270	-44.1	-58.9	280	13
2023-09-11T06:00	10297	269	-44.2	-59.0	280	13
2023-09-11T06:00	10315	268	-44.4	-59.3	280	13
2023-09-11T06:00	10336	267	-44.5	-59.5	279	13
2023-09-11T06:00	10353	267	-44.6		278	13
2023-09-11T06:00	10372	266	-44.8	-59.5	278	13
2023-09-11T06:00	10392	265	-45.0	-59.5	278	13
2023-09-11T06:00	10413	264	-45.1	-59.3	277	13
2023-09-11T06:00	10432	264	-45.3	-59.2	277	13
2023-09-11T06:00	10453	263	-45.5	-59.3	277	12
2023-09-11T06:00	10471	262	-45.6	-59.1	276	12
2023-09-11T06:00	10491	261	-45.8	-59.0	276	12
2023-09-11T06:00	10511	261	-45.9	-59.1	276	12
2023-09-11T06:00	10530	260	-46.1	-59.0	276	12
2023-09-11T06:00	10549	259	-46.3	-58.8	276	12
2023-09-11T06:00	10570	258	-46.5	-58.9	276	12
2023-09-11T06:00	10590	257	-46.6	-58.5	277	12
2023-09-11T06:00	10608	257	-46.8	-58.3	276	13
2023-09-11T06:00	10627	256	-46.9	-58.1	276	13
2023-09-11T06:00	10647	255	-47.1	-57.4	276	13
2023-09-11T06:00	10668	254	-47.3	-56.1	275	13
2023-09-11T06:00	10686	254	-47.4	-55.6	275	13
2023-09-11T06:00	10705	253	-47.6	-56.3	275	12
2023-09-11T06:00	10727	252	-47.8	-56.7	275	12
2023-09-11T06:00	10746	251	-47.9	-56.3	276	12
2023-09-11T06:00	10765	251	-48.0	-56.0	277	12
2023-09-11T06:00	10786	250	-48.3	-56.0	278	12
2023-09-11T06:00	10807	249	-48.4	-55.9	279	12
2023-09-11T06:00	10826	248	-48.6	-56.2	279	12
2023-09-11T06:00	10848	248	-48.7	-56.1	279	12
2023-09-11T06:00	10870	247	-49.0	-56.1	279	12
2023-09-11T06:00	10889	246	-49.1	-56.1	279	12
2023-09-11T06:00	10910	245	-49.3	-56.3	280	12
2023-09-11T06:00	10931	244	-49.5	-56.4	280	12
2023-09-11T06:00	10949	244	-49.7	-56.6	281	12
2023-09-11T06:00	10972	243	-49.8	-56.7	282	12
2023-09-11T06:00	10992	242	-50.0	-56.7	282	12
2023-09-11T06:00	11012	241	-50.2	-56.7	282	12
2023-09-11T06:00	11032	241	-50.4	-56.8	282	12
2023-09-11T06:00	11052	240	-50.6	-56.9	282	12
2023-09-11T06:00	11072	239	-50.8	-56.9	281	12
2023-09-11T06:00	11091	239	-50.9	-56.8	281	12
2023-09-11T06:00	11110	238	-51.0	-56.8	280	11
2023-09-11T06:00	11130	237	-51.2	-56.9	279	11
2023-09-11T06:00	11149	236	-51.3	-57.0	278	11
2023-09-11T06:00	11170	236	-51.5	-57.0	278	11
2023-09-11T06:00	11190	235	-51.6	-56.9	278	11
2023-09-11T06:00	11211	234	-51.8	-57.1	278	11
2023-09-11T06:00	11232	233	-51.9	-57.4	278	11
2023-09-11T06:00	11252	233	-52.1	-57.6	278	11
2023-09-11T06:00	11269	232	-52.2	-57.5	278	10
2023-09-11T06:00	11292	231	-52.4	-57.7	277	10
2023-09-11T06:00	11310	231	-52.4	-57.9	276	10
2023-09-11T06:00	11328	230	-52.5	-58.0	276	11
2023-09-11T06:00	11350	229	-52.7	-58.1	276	11
2023-09-11T06:00	11369	229	-52.9	-58.1	277	11
2023-09-11T06:00	11388	228	-53.0	-58.0	277	11
2023-09-11T06:00	11408	227	-53.1	-57.9	278	11
2023-09-11T06:00	11427	226	-53.3	-58.0	278	11
2023-09-11T06:00	11450	226	-53.5	-58.0	278	11
2023-09-11T06:00	11468	225	-53.6	-57.9	277	11
2023-09-11T06:00	11489	224	-53.8	-58.1	277	11
2023-09-11T06:00	11511	224	-53.9	-58.3	276	11
2023-09-11T06:00	11531	223	-54.1	-58.7	275	11
2023-09-11T06:00	11550	222	-54.2	-58.8	274	11
2023-09-11T06:00	11571	221	-54.3	-58.9	273	11
2023-09-11T06:00	11590	221	-54.5	-59.0	273	11
2023-09-11T06:00	11608	220	-54.6	-59.0	273	11
2023-09-11T06:00	11631	219	-54.8	-59.4	273	11
2023-09-11T06:00	11650	219	-55.0	-59.8	273	11
2023-09-11T06:00	11669	218	-55.1	-60.0	274	12
2023-09-11T06:00	11692	217	-55.3	-60.2	274	12
2023-09-11T06:00	11711	217	-55.4	-60.3	274	12
2023-09-11T06:00	11731	216	-55.5	-60.6	274	12
2023-09-11T06:00	11753	215	-55.6	-60.8	274	12
2023-09-11T06:00	11774	215	-55.7	-60.9	273	12
2023-09-11T06:00	11796	214	-55.9	-61.1	272	12
2023-09-11T06:00	11815	213	-56.0	-61.2	272	13
2023-09-11T06:00	11834	213	-56.2	-61.4	271	13
2023-09-11T06:00	11852	212	-56.3	-61.7	271	13
2023-09-11T06:00	11874	211	-56.5	-62.1	271	13
2023-09-11T06:00	11895	211	-56.5	-62.3	271	13
2023-09-11T06:00	11913	210	-56.7	-62.5	272	13
2023-09-11T06:00	11933	209	-56.8	-62.4	273	13
2023-09-11T06:00	11953	209	-57.0	-62.3	273	13
2023-09-11T06:00	11971	208	-57.1	-62.1	274	14
2023-09-11T06:00	11990	207	-57.3	-62.1	274	14
2023-09-11T06:00	12012	207	-57.3	-61.9	274	14
2023-09-11T06:00	12029	206	-57.4	-62.1	274	14
2023-09-11T06:00	12050	205	-57.6	-62.4	274	14
2023-09-11T06:00	12068	205	-57.7	-62.6	274	14
2023-09-11T06:00	12088	204	-57.8	-63.0	273	14
2023-09-11T06:00	12107	204	-57.8	-63.2	272	14
2023-09-11T06:00	12125	203	-57.9	-63.4	272	14
2023-09-11T06:00	12145	202	-58.0	-63.6	271	14
2023-09-11T06:00	12165	202	-58.1	-63.6	271	14
2023-09-11T06:00	12186	201	-58.3	-63.8	271	15
2023-09-11T06:00	12206	200	-58.4	-63.8	272	15
2023-09-11T06:00	12226	200	-58.6	-64.0	273	15
2023-09-11T06:00	12245	199	-58.7	-63.9	274	15
2023-09-11T06:00	12264	198	-58.8	-63.8	275	15
2023-09-11T06:00	12284	198	-58.9	-63.7	276	15
2023-09-11T06:00	12303	197	-59.1	-63.7	277	15
2023-09-11T06:00	12324	197	-59.2	-63.6	277	15
2023-09-11T06:00	12344	196	-59.4	-63.7	278	15
2023-09-11T06:00	12365	195	-59.6	-63.7	279	14
2023-09-11T06:00	12384	195	-59.8	-63.7	279	14
2023-09-11T06:00	12404	194	-60.0	-63.8	279	14
2023-09-11T06:00	12426	193	-60.1	-63.9	279	14
2023-09-11T06:00	12445	193	-60.1	-64.0	279	14
2023-09-11T06:00	12464	192	-60.2	-64.2	278	14
2023-09-11T06:00	12486	192	-60.3	-64.3	277	13
2023-09-11T06:00	12505	191	-60.5	-64.6	276	13
2023-09-11T06:00	12524	190	-60.6	-64.7	275	13
2023-09-11T06:00	12547	190	-60.7	-64.8	275	13
2023-09-11T06:00	12568	189	-60.7	-64.9	274	13
2023-09-11T06:00	12589	188	-60.9	-65.1	274	13
2023-09-11T06:00	12607	188	-61.0	-65.2	274	13
2023-09-11T06:00	12629	187	-61.1	-65.2	274	13
2023-09-11T06:00	12650	187	-61.2	-65.3	274	14
2023-09-11T06:00	12669	186	-61.1	-65.3	275	14
2023-09-11T06:00	12693	185	-61.1	-65.3	276	14
2023-09-11T06:00	12713	185	-61.2	-65.5	277	14
2023-09-11T06:00	12734	184	-61.2	-65.6	279	15
2023-09-11T06:00	12753	184	-61.3	-65.8	280	15
2023-09-11T06:00	12773	183	-61.4	-66.0	281	15
2023-09-11T06:00	12796	182	-61.4	-66.0	282	15
2023-09-11T06:00	12817	182	-61.5	-66.1	282	15
2023-09-11T06:00	12836	181	-61.7	-66.2	282	15
2023-09-11T06:00	12856	180	-61.9		281	14
2023-09-11T06:00	12877	180	-62.0	-66.3	281	14
2023-09-11T06:00	12899	179	-62.1	-66.3	280	14
2023-09-11T06:00	12920	179	-62.2	-66.3	279	14
2023-09-11T06:00	12942	178	-62.4	-66.5	278	14
2023-09-11T06:00	12961	177	-62.5	-66.6	276	14
2023-09-11T06:00	12984	177	-62.5	-66.6	275	14
2023-09-11T06:00	13006	176	-62.6	-66.9	274	15
2023-09-11T06:00	13026	176	-62.6	-67.2	274	15
2023-09-11T06:00	13047	175	-62.6	-67.5	273	15
2023-09-11T06:00	13066	174	-62.6	-67.8	273	15
2023-09-11T06:00	13087	174	-62.6	-68.0	273	15
2023-09-11T06:00	13107	173	-62.7	-68.3	272	15
2023-09-11T06:00	13129	173	-62.8		271	16
2023-09-11T06:00	13149	172	-62.8	-68.7	270	16
2023-09-11T06:00	13169	172	-62.8	-68.9	269	16
2023-09-11T06:00	13189	171	-62.8	-69.2	269	16
2023-09-11T06:00	13210	170	-62.7	-69.4	269	16
2023-09-11T06:00	13229	170	-62.6	-69.6	270	16
2023-09-11T06:00	13250	169	-62.6	-69.7	270	16
2023-09-11T06:00	13269	169	-62.8	-69.9	271	15
2023-09-11T06:00	13292	168	-62.9	-69.9	271	15
2023-09-11T06:00	13313	168	-62.9	-69.7	272	14
2023-09-11T06:00	13334	167	-62.8	-69.5	272	14
2023-09-11T06:00	13356	166	-62.8	-69.6	272	13
2023-09-11T06:00	13373	166	-63.0	-69.8	272	14
2023-09-11T06:00	13394	165	-63.0	-70.0	272	14
2023-09-11T06:00	13414	165	-63.0	-70.3	272	15
2023-09-11T06:00	13436	164	-63.0	-70.8	272	15
2023-09-11T06:00	13455	164	-62.8	-71.2	272	16
2023-09-11T06:00	13477	163	-62.5	-71.6	273	16
2023-09-11T06:00	13496	163	-62.2		274	16
2023-09-11T06:00	13519	162	-62.2	-72.6	275	16
2023-09-11T06:00	13539	162	-62.2	-73.2	275	16
2023-09-11T06:00	13557	161	-62.1	-73.6	275	16
2023-09-11T06:00	13580	161	-61.9	-74.1	274	16
2023-09-11T06:00	13596	160	-61.7	-74.5	273	16
2023-09-11T06:00	13617	160	-61.6	-74.9	273	16
2023-09-11T06:00	13638	159	-61.6	-75.2	272	16
2023-09-11T06:00	13657	159	-61.7	-75.4	272	16
2023-09-11T06:00	13676	158	-61.8	-75.6	272	16
2023-09-11T06:00	13698	157	-61.8	-75.7	272	16
2023-09-11T06:00	13719	157	-61.9	-75.8	272	15
2023-09-11T06:00	13738	156	-62.1	-75.9	272	15
2023-09-11T06:00	13758	156	-62.3	-76.0	271	15
2023-09-11T06:00	13778	155	-62.3	-75.9	271	14
2023-09-11T06:00	13798	155	-62.5	-76.2	270	14
2023-09-11T06:00	13819	154	-62.4	-76.3	270	14
2023-09-11T06:00	13837	154	-62.3	-76.6	270	14
2023-09-11T06:00	13858	153	-62.1	-76.8	270	14
2023-09-11T06:00	13879	153	-62.0	-77.0	270	14
2023-09-11T06:00	13900	152	-62.0	-77.3	269	15
2023-09-11T06:00	13920	152	-62.0	-77.3	268	15
2023-09-11T06:00	13941	151	-62.3	-77.5	267	15
2023-09-11T06:00	13961	151	-62.4	-77.5	266	15
2023-09-11T06:00	13982	150	-62.5	-77.6	265	15
2023-09-11T06:00	14002	150	-62.6	-77.7	265	15
2023-09-11T06:00	14021	149	-62.6	-77.7	265	15
2023-09-11T06:00	14044	149	-62.4	-77.7	265	16
2023-09-11T06:00	14062	148	-62.4	-77.8	265	16
2023-09-11T06:00	14084	148	-62.5	-78.1	266	16
2023-09-11T06:00	14104	147	-62.3	-78.0	266	16
2023-09-11T06:00	14125	147	-62.2	-78.0	266	16
2023-09-11T06:00	14145	146	-62.1	-78.0	267	16
2023-09-11T06:00	14168	146	-62.2	-78.3	268	16
2023-09-11T06:00	14189	145	-62.2	-78.3	269	15
2023-09-11T06:00	14209	145	-62.1	-78.3	270	15
2023-09-11T06:00	14228	145	-62.1	-78.4	271	15
2023-09-11T06:00	14251	144	-62.1	-78.6	272	15
2023-09-11T06:00	14271	144	-62.2	-78.8	274	15
2023-09-11T06:00	14291	143	-62.2	-79.0	275	15
2023-09-11T06:00	14314	143	-62.2	-79.2	277	15
2023-09-11T06:00	14333	142	-62.3	-79.5	278	14
2023-09-11T06:00	14354	142	-62.3	-79.7	280	14
2023-09-11T06:00	14375	141	-62.2	-79.8	281	14
2023-09-11T06:00	14396	141	-62.1	-79.9	282	14
2023-09-11T06:00	14418	140	-62.2	-80.0	283	13
2023-09-11T06:00	14441	140	-62.1	-80.0	284	13
2023-09-11T06:00	14460	139	-62.0	-80.1	284	13
2023-09-11T06:00	14481	139	-62.0	-80.2	284	13
2023-09-11T06:00	14503	138	-62.0	-80.4	284	13
2023-09-11T06:00	14523	138	-61.9	-80.5	284	13
2023-09-11T06:00	14544	137	-61.9	-80.6	283	12
2023-09-11T06:00	14565	137	-62.0	-80.5	281	12
2023-09-11T06:00	14585	136	-62.1	-80.5	279	12
2023-09-11T06:00	14605	136	-62.1	-80.3	276	11
2023-09-11T06:00	14626	135	-62.1	-80.2	273	11
2023-09-11T06:00	14648	135	-62.0	-80.1	270	11
2023-09-11T06:00	14669	135	-62.0	-80.2	267	10
2023-09-11T06:00	14689	134	-62.1	-80.3	264	10
2023-09-11T06:00	14711	134	-62.3	-80.5	262	10
2023-09-11T06:00	14732	133	-62.4	-80.5	261	10
2023-09-11T06:00	14752	133	-62.6	-80.7	260	10
2023-09-11T06:00	14772	132	-62.6	-80.7	261	10
2023-09-11T06:00	14795	132	-62.7	-80.9	263	10
2023-09-11T06:00	14814	131	-62.6	-80.9	265	10
2023-09-11T06:00	14835	131	-62.4	-81.0	267	10
2023-09-11T06:00	14857	131	-62.5	-81.2	268	10
2023-09-11T06:00	14880	130	-62.3	-81.2	268	10
2023-09-11T06:00	14897	130	-62.3	-81.4	268	10
2023-09-11T06:00	14920	129	-62.2	-81.5	269	11
2023-09-11T06:00	14940	129	-62.2	-81.9	270	11
2023-09-11T06:00	14959	128	-62.2	-82.1	272	12
2023-09-11T06:00	14981	128	-61.9	-82.3	274	12
2023-09-11T06:00	15000	128	-61.0	-82.0	277	12
2023-09-11T06:00	15022	127	-60.7	-82.0	279	12
2023-09-11T06:00	15041	127	-60.9	-82.3	281	12
2023-09-11T06:00	15064	126	-61.0	-82.2	284	12
2023-09-11T06:00	15084	126	-61.1	-82.3	286	11
2023-09-11T06:00	15104	125	-61.2	-82.3	289	11
2023-09-11T06:00	15132	125	-61.3	-82.5	293	10
2023-09-11T06:00	15158	124	-61.4	-82.6	297	10
2023-09-11T06:00	15179	124	-61.4	-82.7	303	10
2023-09-11T06:00	15202	123	-61.3	-82.8	308	9
2023-09-11T06:00	15226	123	-61.2	-82.9	313	9
2023-09-11T06:00	15249	123	-61.5	-83.1	317	9
2023-09-11T06:00	15268	122	-61.6	-83.2	320	9
2023-09-11T06:00	15290	122	-61.4	-83.0	322	9
2023-09-11T06:00	15313	121	-61.4	-83.0	323	9
2023-09-11T06:00	15340	121	-61.5	-83.1	324	8
2023-09-11T06:00	15360	120	-61.6	-83.2	325	8
2023-09-11T06:00	15382	120	-61.7	-83.1	326	8
2023-09-11T06:00	15406	120	-61.9	-83.1	328	7
2023-09-11T06:00	15425	119	-62.1	-83.1	331	7
2023-09-11T06:00	15447	119	-62.3	-83.2	334	6
2023-09-11T06:00	15469	118	-62.5	-83.3	338	5
2023-09-11T06:00	15490	118	-62.7	-83.5	341	5
2023-09-11T06:00	15514	117	-62.5	-83.5	344	4
2023-09-11T06:00	15535	117	-62.3	-83.4	346	3
2023-09-11T06:00	15559	117	-62.1	-83.4	345	2
2023-09-11T06:00	15580	116	-62.1	-83.6	338	2
2023-09-11T06:00	15600	116	-62.1	-83.8	321	1
2023-09-11T06:00	15622	115	-62.1	-83.8	302	1
2023-09-11T06:00	15644	115	-62.1	-83.8	290	2
2023-09-11T06:00	15669	115	-62.2	-83.7	284	3
2023-09-11T06:00	15690	114	-62.4	-83.8	281	3
2023-09-11T06:00	15710	114	-62.3	-83.6	278	4
2023-09-11T06:00	15734	113	-62.2	-83.5	277	5
2023-09-11T06:00	15756	113	-62.1	-83.3	276	5
2023-09-11T06:00	15777	112	-62.2	-83.4	275	5
2023-09-11T06:00	15800	112	-62.3	-83.3	275	6
2023-09-11T06:00	15821	112	-62.3	-83.3	277	7
2023-09-11T06:00	15843	111	-62.3	-83.3	278	7
2023-09-11T06:00	15865	111	-62.3	-83.3	279	8
2023-09-11T06:00	15889	110	-62.2	-83.4	279	8
2023-09-11T06:00	15911	110	-62.2	-83.5	279	8
2023-09-11T06:00	15932	110	-62.0	-83.5	278	9
2023-09-11T06:00	15951	109	-61.8	-83.4	278	9
2023-09-11T06:00	15977	109	-61.8	-83.5	279	9
2023-09-11T06:00	15998	109	-61.9	-83.6	281	9
2023-09-11T06:00	16020	108	-62.1	-83.8	284	9
2023-09-11T06:00	16042	108	-62.1	-83.8	288	9
2023-09-11T06:00	16064	107	-62.1	-83.8	293	9
2023-09-11T06:00	16084	107	-62.0	-83.7	298	9
2023-09-11T06:00	16107	107	-61.9	-83.8	302	8
2023-09-11T06:00	16128	106	-61.7	-83.8	307	8
2023-09-11T06:00	16150	106	-61.6	-83.7	312	8
2023-09-11T06:00	16170	106	-61.5	-83.8	316	8
2023-09-11T06:00	16192	105	-61.4	-83.9	319	8
2023-09-11T06:00	16213	105	-61.4	-83.9	322	8
2023-09-11T06:00	16235	104	-61.3	-84.0	325	8
2023-09-11T06:00	16255	104	-61.4	-84.1	329	9
2023-09-11T06:00	16277	104	-61.4	-84.1	332	9
2023-09-11T06:00	16298	103	-61.5	-84.1	335	9
2023-09-11T06:00	16322	103	-61.7	-84.1	338	9
2023-09-11T06:00	16340	103	-61.7	-84.1	340	8
2023-09-11T06:00	16361	102	-61.7	-84.1	342	8
2023-09-11T06:00	16382	102	-61.8	-84.2	344	8
2023-09-11T06:00	16403	102	-61.8	-84.2	345	7
2023-09-11T06:00	16425	101	-61.9	-84.3	347	7
2023-09-11T06:00	16448	101	-61.9	-84.5	349	6
2023-09-11T06:00	16471	101	-62.0	-84.5	352	6
2023-09-11T06:00	16492	100	-62.1	-84.6	357	6
2023-09-11T06:00	16515	100	-62.1	-84.8	3	5
2023-09-11T06:00	16539	99	-62.1	-85.0	10	5
2023-09-11T06:00	16560	99	-61.7	-84.9	17	5
2023-09-11T06:00	16583	99	-61.5	-84.7	25	5
2023-09-11T06:00	16604	98	-61.4	-84.9	33	5
2023-09-11T06:00	16627	98	-61.4	-84.9	42	5
2023-09-11T06:00	16650	98	-61.3	-84.8	51	4
2023-09-11T06:00	16672	97	-61.3	-84.8	60	4
2023-09-11T06:00	16696	97	-61.4	-84.9	68	4
2023-09-11T06:00	16719	97	-61.5	-84.9	77	4
2023-09-11T06:00	16742	96	-61.5	-84.9	87	4
2023-09-11T06:00	16766	96	-61.6	-85.0	97	4
2023-09-11T06:00	16791	96	-61.7	-85.1	107	4
2023-09-11T06:00	16813	95	-61.9	-85.3	118	4
2023-09-11T06:00	16834	95	-62.1	-85.4	128	3
2023-09-11T06:00	16857	94	-62.2	-85.5	137	3
2023-09-11T06:00	16878	94	-62.0	-85.3	146	2
2023-09-11T06:00	16898	94	-61.9	-85.5	152	2
2023-09-11T06:00	16919	94	-61.8	-85.6	157	2
2023-09-11T06:00	16942	93	-61.9	-85.7	161	1
2023-09-11T06:00	16966	93	-61.9	-85.7	170	1
2023-09-11T06:00	16987	93	-61.7	-85.8	202	0
2023-09-11T06:00	17011	92	-61.6	-85.9	225	0
2023-09-11T06:00	17031	92	-61.4	-85.8	217	1
2023-09-11T06:00	17053	92	-60.9	-85.7	206	1
2023-09-11T06:00	17076	91	-60.4	-85.5	200	2
2023-09-11T06:00	17096	91	-60.2	-85.4	198	2
2023-09-11T06:00	17118	91	-60.3	-85.7	199	3
2023-09-11T06:00	17139	90	-60.3	-85.7	203	3
2023-09-11T06:00	17162	90	-60.1	-85.6	209	3
2023-09-11T06:00	17184	90	-59.7	-85.3	218	3
2023-09-11T06:00	17207	89	-59.6	-85.5	227	3
2023-09-11T06:00	17230	89	-59.5	-85.4	235	3
2023-09-11T06:00	17251	89	-59.6	-85.5	240	4
2023-09-11T06:00	17273	88	-59.6	-85.5	243	4
2023-09-11T06:00	17296	88	-59.5	-85.4	244	4
2023-09-11T06:00	17320	88	-59.5	-85.4	245	4
2023-09-11T06:00	17339	87	-59.4	-85.3	245	4
2023-09-11T06:00	17360	87	-59.4	-85.3	243	3
2023-09-11T06:00	17385	87	-59.3	-85.2	239	3
2023-09-11T06:00	17408	87	-59.3	-85.2	232	2
2023-09-11T06:00	17430	86	-59.3	-85.2	220	2
2023-09-11T06:00	17454	86	-59.2	-85.2	207	2
2023-09-11T06:00	17475	86	-59.2	-85.5	197	2
2023-09-11T06:00	17497	85	-59.2	-85.5	192	2
2023-09-11T06:00	17523	85	-59.2	-85.5	192	2
2023-09-11T06:00	17544	85	-59.3	-85.6	193	2
2023-09-11T06:00	17567	84	-59.1	-85.4	196	2
2023-09-11T06:00	17588	84	-59.2	-85.5	197	2
2023-09-11T06:00	17612	84	-59.3	-85.6	197	2
2023-09-11T06:00	17633	83	-59.1	-85.4	195	2
2023-09-11T06:00	17657	83	-59.1	-85.4	193	3
2023-09-11T06:00	17681	83	-59.1	-85.4	193	3
2023-09-11T06:00	17702	83	-59.3	-85.6	196	3
2023-09-11T06:00	17725	82	-59.4	-85.6	201	4
2023-09-11T06:00	17746	82	-59.5	-85.7	208	4
2023-09-11T06:00	17771	82	-59.5	-85.7	214	5
2023-09-11T06:00	17794	81	-59.5	-85.7	220	6
2023-09-11T06:00	17818	81	-59.4	-86.0	224	6
2023-09-11T06:00	17840	81	-59.2	-85.8	227	7
2023-09-11T06:00	17865	80	-58.8	-85.9	230	8
2023-09-11T06:00	17886	80	-58.6	-85.7	233	8
2023-09-11T06:00	17907	80	-58.6	-85.7	238	8
2023-09-11T06:00	17937	80	-58.6	-85.4	243	8
2023-09-11T06:00	17956	79	-58.6	-85.4	248	8
2023-09-11T06:00	17980	79	-58.8	-85.5	253	9
2023-09-11T06:00	18002	79	-58.8	-85.5	258	9
2023-09-11T06:00	18027	78	-58.8	-85.5	262	9
2023-09-11T06:00	18046	78	-58.8	-85.9	265	9
2023-09-11T06:00	18069	78	-58.8	-85.9	269	9
2023-09-11T06:00	18093	78	-58.7	-85.8	272	9
2023-09-11T06:00	18116	77	-58.7	-85.8	275	9
2023-09-11T06:00	18138	77	-58.7	-85.8	279	9
2023-09-11T06:00	18163	77	-58.7	-85.8	283	9
2023-09-11T06:00	18185	76	-58.8	-85.9	288	10
2023-09-11T06:00	18207	76	-58.8	-85.9	294	10
2023-09-11T06:00	18230	76	-58.9	-85.9	299	9
2023-09-11T06:00	18252	76	-58.8	-85.9	305	9
2023-09-11T06:00	18276	75	-58.7	-85.8	310	9
2023-09-11T06:00	18297	75	-58.6	-85.7	314	9
2023-09-11T06:00	18320	75	-58.6	-85.7	319	8
2023-09-11T06:00	18344	75	-58.6	-85.7	323	8
2023-09-11T06:00	18367	74	-58.7	-85.8	328	8
2023-09-11T06:00	18390	74	-58.7	-85.8	333	7
2023-09-11T06:00	18411	74	-58.8	-85.5	337	7
2023-09-11T06:00	18436	73	-58.7	-85.4	342	6
2023-09-11T06:00	18463	73	-58.7	-85.4	346	6
2023-09-11T06:00	18484	73	-58.8	-85.9	350	6
2023-09-11T06:00	18510	73	-58.8	-85.9	353	5
2023-09-11T06:00	18535	72	-58.7	-85.8	357	4
2023-09-11T06:00	18558	72	-58.8	-85.9	1	4
2023-09-11T06:00	18584	72	-58.9	-85.9	4	3
2023-09-11T06:00	18608	71	-59.0	-86.0	7	3
2023-09-11T06:00	18634	71	-59.1		9	2
2023-09-11T06:00	18654	71	-59.1		9	2
2023-09-11T06:00	18681	71	-59.0	-86.0	8	1
2023-09-11T06:00	18703	70	-59.0	-86.0	6	1
2023-09-11T06:00	18724	70	-59.0	-86.0	6	1
2023-09-11T06:00	18750	70	-59.0	-86.0	11	1
2023-09-11T06:00	18771	70	-59.0	-86.0	19	0
2023-09-11T06:00	18795	69	-59.0	-86.0	25	0
2023-09-11T06:00	18818	69	-59.1		18	0
2023-09-11T06:00	18842	69	-59.0	-86.0	295	0
2023-09-11T06:00	18863	69	-59.0	-86.0	254	1
2023-09-11T06:00	18891	68	-59.0	-86.0	251	1
2023-09-11T06:00	18913	68	-59.0	-86.0	253	1
2023-09-11T06:00	18936	68	-59.1		257	2
2023-09-11T06:00	18961	68	-59.2	-86.2	259	3
2023-09-11T06:00	18984	67	-59.3	-86.2	260	3
2023-09-11T06:00	19005	67	-59.3	-86.2	260	3
2023-09-11T06:00	19030	67	-59.3	-86.2	258	4
2023-09-11T06:00	19056	67	-59.2	-86.2	256	4
2023-09-11T06:00	19079	66	-59.2	-86.2	254	4
2023-09-11T06:00	19097	66	-59.3	-85.9	252	4
2023-09-11T06:00	19123	66	-59.4	-86.0	252	4
2023-09-11T06:00	19147	66	-59.4	-86.0	252	3
2023-09-11T06:00	19171	65	-59.3	-86.2	255	3
2023-09-11T06:00	19193	65	-59.3	-86.2	260	3
2023-09-11T06:00	19213	65	-59.2	-86.2	265	3
2023-09-11T06:00	19239	65	-59.1		270	3
2023-09-11T06:00	19263	64	-59.1	-86.5	275	3
2023-09-11T06:00	19287	64	-59.1	-86.5	282	3
2023-09-11T06:00	19310	64	-59.1	-86.5	289	3
2023-09-11T06:00	19333	64	-59.1	-86.5	298	4
2023-09-11T06:00	19356	63	-59.2	-86.5	306	4
2023-09-11T06:00	19380	63	-59.2	-86.5	312	5
2023-09-11T06:00	19403	63	-59.1	-86.5	317	5
2023-09-11T06:00	19426	63	-58.9	-86.3	321	6
2023-09-11T06:00	19454	62	-58.8	-86.2	325	6
2023-09-11T06:00	19476	62	-58.7	-86.1	329	6
2023-09-11T06:00	19502	62	-58.7	-86.1	332	6
2023-09-11T06:00	19523	62	-58.7	-86.1	336	6
2023-09-11T06:00	19548	61	-58.7	-86.1	339	5
2023-09-11T06:00	19573	61	-58.6	-86.1	342	5
2023-09-11T06:00	19595	61	-58.6	-86.5	344	4
2023-09-11T06:00	19619	61	-58.6	-86.5	345	4
2023-09-11T06:00	19644	61	-58.7	-86.5	343	3
2023-09-11T06:00	19667	60	-58.7	-86.5	337	3
2023-09-11T06:00	19693	60	-58.6	-86.5	329	3
2023-09-11T06:00	19719	60	-58.7	-86.5	320	3
2023-09-11T06:00	19741	60	-58.5	-86.4	314	3
2023-09-11T06:00	19765	59	-58.5	-86.4	311	3
2023-09-11T06:00	19790	59	-58.4	-86.3	310	4
2023-09-11T06:00	19809	59	-58.3	-86.2	312	4
2023-09-11T06:00	19839	59	-58.0	-86.0	317	4
2023-09-11T06:00	19861	58	-57.9		322	4
2023-09-11T06:00	19885	58	-57.9		327	4
2023-09-11T06:00	19912	58	-58.0	-86.0	332	5
2023-09-11T06:00	19933	58	-58.3	-86.2	337	5
2023-09-11T06:00	19960	58	-58.3	-86.2	341	5
2023-09-11T06:00	19982	57	-58.2	-86.2	344	4
2023-09-11T06:00	20008	57	-58.2	-86.2	347	4
2023-09-11T06:00	20031	57	-58.3	-85.8	349	5
2023-09-11T06:00	20057	57	-58.4	-85.9	350	5
2023-09-11T06:00	20079	57	-58.5	-86.0	350	5
2023-09-11T06:00	20105	56	-58.6	-86.1	350	5
2023-09-11T06:00	20129	56	-58.6	-86.1	350	5
2023-09-11T06:00	20152	56	-58.6	-86.1	350	5
2023-09-11T06:00	20173	56	-58.6	-86.1	350	5
2023-09-11T06:00	20200	55	-58.4	-85.9	351	5
2023-09-11T06:00	20224	55	-58.4	-86.3	351	5
2023-09-11T06:00	20245	55	-58.5	-86.0	351	5
2023-09-11T06:00	20273	55	-58.5	-86.0	349	4
2023-09-11T06:00	20297	55	-58.5	-86.0	346	4
2023-09-11T06:00	20319	54	-58.6	-86.1	343	4
2023-09-11T06:00	20346	54	-58.8	-86.2	340	4
2023-09-11T06:00	20373	54	-58.9	-86.3	339	4
2023-09-11T06:00	20394	54	-58.9	-86.3	342	4
2023-09-11T06:00	20420	54	-58.7	-86.5	348	4
2023-09-11T06:00	20440	53	-58.5	-86.4	359	4
2023-09-11T06:00	20462	53	-58.4	-86.3	12	4
2023-09-11T06:00	20492	53	-58.3	-86.7	22	5
2023-09-11T06:00	20518	53	-58.1	-86.5	29	5
2023-09-11T06:00	20542	53	-57.7	-86.2	33	6
2023-09-11T06:00	20565	52	-57.3	-86.4	35	6
2023-09-11T06:00	20585	52	-57.0	-86.1	37	6
2023-09-11T06:00	20607	52	-57.0	-86.1	40	6
2023-09-11T06:00	20634	52	-57.0	-85.7	44	6
2023-09-11T06:00	20657	52	-57.1	-85.7	50	5
2023-09-11T06:00	20683	51	-57.2	-85.8	56	5
2023-09-11T06:00	20704	51	-57.3	-85.9	62	5
2023-09-11T06:00	20728	51	-57.3	-85.5	68	5
2023-09-11T06:00	20753	51	-57.6	-85.7	73	4
2023-09-11T06:00	20777	51	-57.5	-85.6	79	4
2023-09-11T06:00	20797	50	-57.5	-85.6	86	4
2023-09-11T06:00	20823	50	-57.6	-85.7	94	4
2023-09-11T06:00	20852	50	-57.7	-85.8	101	4
2023-09-11T06:00	20876	50	-57.6	-85.7	109	4
2023-09-11T06:00	20892	50	-57.6	-85.7	116	4
2023-09-11T06:00	20921	49	-57.6	-85.7	122	4
2023-09-11T06:00	20946	49	-57.6	-85.7	128	4
2023-09-11T06:00	20972	49	-57.7	-85.8	135	3
2023-09-11T06:00	20995	49	-57.7	-85.8	143	3
2023-09-11T06:00	21024	49	-57.6	-86.1	152	3
2023-09-11T06:00	21046	48	-57.6	-86.1	162	2
2023-09-11T06:00	21073	48	-57.4	-86.0	172	2
2023-09-11T06:00	21098	48	-57.4	-86.0	182	2
2023-09-11T06:00	21124	48	-57.2	-86.3	194	2
2023-09-11T06:00	21148	48	-56.8	-86.0	210	2
2023-09-11T06:00	21174	48	-56.5	-85.8	228	2
2023-09-11T06:00	21198	47	-56.4	-85.7	245	1
2023-09-11T06:00	21221	47	-56.5	-85.8	256	1
2023-09-11T06:00	21245	47	-56.6	-85.8	257	1
2023-09-11T06:00	21270	47	-56.5	-85.8	246	1
2023-09-11T06:00	21294	47	-56.4	-85.7	228	1
2023-09-11T06:00	21322	46	-56.3	-85.6	221	1
2023-09-11T06:00	21345	46	-56.3	-85.6	224	1
2023-09-11T06:00	21371	46	-56.4	-85.2	230	2
2023-09-11T06:00	21395	46	-56.5	-85.3	236	2
2023-09-11T06:00	21423	46	-56.6	-85.4	241	2
2023-09-11T06:00	21448	45	-56.7	-85.4	245	2
2023-09-11T06:00	21478	45	-56.8	-85.5	246	2
2023-09-11T06:00	21500	45	-56.8	-85.5	242	1
2023-09-11T06:00	21527	45	-56.9	-85.6	231	1
2023-09-11T06:00	21555	45	-57.0	-85.7	214	1
2023-09-11T06:00	21576	45	-57.0	-85.7	200	1
2023-09-11T06:00	21599	44	-57.1	-85.7	194	1
2023-09-11T06:00	21623	44	-57.0	-85.7	193	1
2023-09-11T06:00	21650	44	-57.1	-85.7	194	2
2023-09-11T06:00	21675	44	-57.2	-85.8	195	2
2023-09-11T06:00	21704	44	-57.3	-85.5	195	2
2023-09-11T06:00	21729	44	-57.5	-85.6	197	3
2023-09-11T06:00	21754	43	-57.7	-85.8	200	3
2023-09-11T06:00	21781	43	-57.8	-85.9	205	3
2023-09-11T06:00	21806	43	-57.8	-85.9	213	3
2023-09-11T06:00	21831	43	-57.9		222	3
2023-09-11T06:00	21857	43	-57.8	-86.3	231	3
2023-09-11T06:00	21883	42	-57.7	-86.2	239	3
2023-09-11T06:00	21906	42	-57.6	-86.1	243	3
2023-09-11T06:00	21934	42	-57.2	-86.3	244	3
2023-09-11T06:00	21961	42	-56.9	-86.1	241	3
2023-09-11T06:00	21986	42	-56.6	-85.8	236	3
2023-09-11T06:00	22011	42	-56.4	-85.7	231	3
2023-09-11T06:00	22035	41	-56.4	-85.7	230	3
2023-09-11T06:00	22064	41	-56.4	-85.7	234	3
2023-09-11T06:00	22090	41	-56.5	-85.8	243	3
2023-09-11T06:00	22115	41	-56.6	-85.4	254	3
2023-09-11T06:00	22140	41	-56.8	-85.5	264	3
2023-09-11T06:00	22169	41	-56.7	-85.4	272	3
2023-09-11T06:00	22195	40	-56.6	-85.4	278	4
2023-09-11T06:00	22222	40	-56.6	-85.4	283	4
2023-09-11T06:00	22249	40	-56.5	-85.3	286	4
2023-09-11T06:00	22273	40	-56.5	-85.3	288	4
2023-09-11T06:00	22299	40	-56.6	-85.4	288	5
2023-09-11T06:00	22324	40	-56.7	-85.4	287	5
2023-09-11T06:00	22352	39	-56.7	-85.4	285	5
2023-09-11T06:00	22373	39	-56.7	-85.4	284	5
2023-09-11T06:00	22404	39	-56.7	-85.4	285	5
2023-09-11T06:00	22429	39	-57.0	-85.7	287	5
2023-09-11T06:00	22456	39	-57.0	-85.7	292	5
2023-09-11T06:00	22484	39	-57.1	-85.7	299	5
2023-09-11T06:00	22505	38	-57.2	-85.8	307	5
2023-09-11T06:00	22533	38	-57.3	-85.9	314	5
2023-09-11T06:00	22558	38	-57.4	-85.6	321	5
2023-09-11T06:00	22584	38	-57.5	-85.6	326	4
2023-09-11T06:00	22609	38	-57.6	-86.1	328	4
2023-09-11T06:00	22630	38	-57.5	-86.1	328	4
2023-09-11T06:00	22660	38	-57.3	-85.9	325	4
2023-09-11T06:00	22685	37	-57.2	-85.8	321	4
2023-09-11T06:00	22713	37	-57.2	-85.8	318	4
2023-09-11T06:00	22733	37	-57.2	-85.8	317	4
2023-09-11T06:00	22760	37	-57.3	-85.9	319	4
2023-09-11T06:00	22783	37	-57.2	-85.8	323	4
2023-09-11T06:00	22818	37	-57.1	-85.7	330	5
2023-09-11T06:00	22843	37	-57.1	-85.7	339	5
2023-09-11T06:00	22871	36	-57.2	-85.8	347	5
2023-09-11T06:00	22893	36	-57.3	-85.9	356	6
2023-09-11T06:00	22920	36	-57.3	-85.9	5	6
2023-09-11T06:00	22945	36	-57.3	-85.9	13	6
2023-09-11T06:00	22969	36	-57.0	-85.7	22	7
2023-09-11T06:00	23000	36	-56.9	-86.1	30	7
2023-09-11T06:00	23023	35	-56.9	-86.1	37	7
2023-09-11T06:00	23052	35	-56.7	-85.9	42	7
2023-09-11T06:00	23081	35	-56.5	-85.8	47	7
2023-09-11T06:00	23107	35	-56.6	-85.8	51	7
2023-09-11T06:00	23133	35	-56.5	-85.8	53	6
2023-09-11T06:00	23165	35	-56.3	-85.6	54	6
2023-09-11T06:00	23191	35	-56.1	-85.5	52	5
2023-09-11T06:00	23215	34	-56.1	-85.5	47	4
2023-09-11T06:00	23241	34	-56.2	-85.5	38	3
2023-09-11T06:00	23269	34	-56.3	-85.6	24	3
2023-09-11T06:00	23294	34	-56.3	-85.6	5	2
2023-09-11T06:00	23323	34	-56.4	-85.2	346	3
2023-09-11T06:00	23351	34	-56.5	-85.3	332	3
2023-09-11T06:00	23374	34	-56.7	-85.4	323	4
2023-09-11T06:00	23401	33	-56.8	-85.5	320	4
2023-09-11T06:00	23428	33	-56.8	-85.5	319	5
2023-09-11T06:00	23458	33	-56.7	-85.9	320	5
2023-09-11T06:00	23482	33	-56.6	-85.8	323	5
2023-09-11T06:00	23511	33	-56.5	-85.8	328	5
2023-09-11T06:00	23539	33	-56.3	-85.6	334	5
2023-09-11T06:00	23564	33	-56.3	-85.6	337	5
2023-09-11T06:00	23590	32	-56.2	-85.5	338	5
2023-09-11T06:00	23613	32	-56.1	-85.5	336	5
2023-09-11T06:00	23644	32	-56.0		333	5
2023-09-11T06:00	23672	32	-55.9	-85.3	331	5
2023-09-11T06:00	23700	32	-56.0		332	5
2023-09-11T06:00	23724	32	-56.2	-85.5	336	5
2023-09-11T06:00	23751	32	-56.2	-85.5	342	5
2023-09-11T06:00	23779	32	-56.2	-85.5	349	5
2023-09-11T06:00	23807	31	-56.2	-85.5	356	5
2023-09-11T06:00	23839	31	-56.2	-85.5	3	5
2023-09-11T06:00	23863	31	-56.1	-85.5	10	5
2023-09-11T06:00	23891	31	-56.0		16	5
2023-09-11T06:00	23916	31	-56.1	-85.5	22	5
2023-09-11T06:00	23942	31	-56.1	-85.5	28	5
2023-09-11T06:00	23965	31	-56.1	-85.5	34	5
2023-09-11T06:00	23997	30	-56.0		39	5
2023-09-11T06:00	24020	30	-55.8	-85.2	42	5
2023-09-11T06:00	24050	30	-55.8	-85.2	44	5
2023-09-11T06:00	24074	30	-55.7	-85.2	45	5
2023-09-11T06:00	24103	30	-55.8	-85.2	44	5
2023-09-11T06:00	24128	30	-55.9	-85.3	43	5
2023-09-11T06:00	24162	30	-55.9	-85.3	42	5
2023-09-11T06:00	24184	30	-55.8	-85.2	41	4
2023-09-11T06:00	24211	29	-55.9	-85.3	40	4
2023-09-11T06:00	24236	29	-55.9	-85.3	38	3
2023-09-11T06:00	24267	29	-55.9	-85.3	36	3
2023-09-11T06:00	24292	29	-55.9	-85.3	32	3
2023-09-11T06:00	24320	29	-56.0		26	2
2023-09-11T06:00	24341	29	-56.1	-85.5	17	2
2023-09-11T06:00	24376	29	-56.1	-85.5	1	1
2023-09-11T06:00	24401	29	-56.3	-85.6	334	1
2023-09-11T06:00	24427	28	-56.4	-85.2	308	1
2023-09-11T06:00	24456	28	-56.6	-85.4	298	2
2023-09-11T06:00	24483	28	-56.7	-85.4	298	2
2023-09-11T06:00	24505	28	-56.7	-85.9	303	3
2023-09-11T06:00	24538	28	-56.5	-85.8	308	3
2023-09-11T06:00	24558	28	-56.3	-85.6	311	4
2023-09-11T06:00	24592	28	-56.4	-85.7	312	5
2023-09-11T06:00	24615	28	-56.4	-85.7	313	5
2023-09-11T06:00	24645	27	-56.3	-85.6	314	5
2023-09-11T06:00	24676	27	-56.2	-85.5	316	5
2023-09-11T06:00	24702	27	-56.3	-85.6	320	5
2023-09-11T06:00	24731	27	-56.2	-85.5	326	4
2023-09-11T06:00	24759	27	-56.1	-85.5	332	4
2023-09-11T06:00	24781	27	-56.1	-85.5	337	3
2023-09-11T06:00	24809	27	-56.1	-85.5	340	3
2023-09-11T06:00	24835	27	-56.0		340	3
2023-09-11T06:00	24860	27	-55.9	-85.8	337	2
2023-09-11T06:00	24896	26	-55.9	-85.8	335	2
2023-09-11T06:00	24915	26	-55.8	-85.7	339	2
2023-09-11T06:00	24941	26	-55.6	-85.6	351	2
2023-09-11T06:00	24964	26	-55.6	-85.6	9	2
2023-09-11T06:00	24995	26	-55.7	-85.7	25	2
2023-09-11T06:00	25023	26	-55.7	-85.7	38	3
2023-09-11T06:00	25045	26	-55.6	-85.6	47	3
2023-09-11T06:00	25082	26	-55.4	-85.4	55	3
2023-09-11T06:00	25100	26	-55.1	-85.2	60	2
2023-09-11T06:00	25129	25	-55.1	-85.2	63	2
2023-09-11T06:00	25158	25	-55.1	-85.2	63	1
2023-09-11T06:00	25184	25	-55.1	-85.2	61	1
2023-09-11T06:00	25209	25	-55.2	-85.3	37	0
2023-09-11T06:00	25238	25	-55.3	-84.9	250	1
2023-09-11T06:00	25266	25	-55.5	-85.0	250	1
2023-09-11T06:00	25289	25	-55.7	-85.2	254	2
2023-09-11T06:00	25322	25	-55.5	-85.0	262	2
2023-09-11T06:00	25351	25	-55.2	-85.3	272	3
2023-09-11T06:00	25379	25	-55.3	-85.4	284	3
2023-09-11T06:00	25406	24	-55.4	-85.4	296	3
2023-09-11T06:00	25431	24	-55.3	-85.4	307	3
2023-09-11T06:00	25459	24	-55.4	-84.9	317	3
2023-09-11T06:00	25485	24	-55.5	-85.0	329	2
2023-09-11T06:00	25514	24	-55.6	-85.1	342	2
2023-09-11T06:00	25540	24	-55.7	-85.2	356	2
2023-09-11T06:00	25576	24	-55.8	-85.2	7	2
2023-09-11T06:00	25597	24	-55.9	-85.3	15	2
2023-09-11T06:00	25631	24	-55.9	-85.3	19	2
2023-09-11T06:00	25655	23	-56.0		18	2
2023-09-11T06:00	25675	23	-55.9	-85.3	11	2
2023-09-11T06:00	25706	23	-55.7	-85.7	356	2
2023-09-11T06:00	25737	23	-55.5	-85.5	341	1
2023-09-11T06:00	25764	23	-55.4	-85.4	334	1
2023-09-11T06:00	25793	23	-55.4	-85.4	338	1
2023-09-11T06:00	25819	23	-55.2	-85.3	356	1
2023-09-11T06:00	25847	23	-54.9	-85.6	45	1
2023-09-11T06:00	25871	23	-54.6	-85.4	90	1
2023-09-11T06:00	25903	23	-54.3	-85.2	106	2
2023-09-11T06:00	25927	22	-54.1	-85.0	112	2
2023-09-11T06:00	25961	22	-53.8	-85.4	113	2
2023-09-11T06:00	25986	22	-53.6	-84.6	111	2
2023-09-11T06:00	26019	22	-53.5	-84.6	108	1
2023-09-11T06:00	26038	22	-53.5	-84.6	99	0
2023-09-11T06:00	26070	22	-53.5	-84.6	286	1
2023-09-11T06:00	26093	22	-53.6	-84.6	283	2
2023-09-11T06:00	26124	22	-53.7	-84.7	282	3
2023-09-11T06:00	26155	22	-53.7	-84.2	283	4
2023-09-11T06:00	26184	22	-53.9	-84.3	285	4
2023-09-11T06:00	26212	22	-54.2	-84.5	288	5
2023-09-11T06:00	26236	21	-54.3	-84.6	292	6
2023-09-11T06:00	26268	21	-54.5	-84.8	298	6
2023-09-11T06:00	26295	21	-54.5	-84.8	304	6
2023-09-11T06:00	26326	21	-54.5	-84.8	312	7
2023-09-11T06:00	26350	21	-54.5	-84.8	319	7
2023-09-11T06:00	26376	21	-54.6	-84.8	327	8
2023-09-11T06:00	26408	21	-54.7	-84.9	334	8
2023-09-11T06:00	26436	21	-54.5	-84.8	340	8
2023-09-11T06:00	26462	21	-54.4	-84.7	347	8
2023-09-11T06:00	26488	21	-54.4	-84.7	354	8
2023-09-11T06:00	26520	21	-54.3	-84.6	360	7
2023-09-11T06:00	26553	20	-54.3	-84.6	6	7
2023-09-11T06:00	26577	20	-54.4	-84.7	12	7
2023-09-11T06:00	26606	20	-54.4	-84.7	18	6
2023-09-11T06:00	26632	20	-54.3	-84.6	25	6
2023-09-11T06:00	26657	20	-54.4	-85.2	31	5
2023-09-11T06:00	26691	20	-54.3	-85.2	35	5
2023-09-11T06:00	26715	20	-53.9	-84.9	37	4
2023-09-11T06:00	26758	20	-53.6	-84.6	37	4
2023-09-11T06:00	26776	20	-53.4	-85.1	34	4
2023-09-11T06:00	26813	20	-53.1	-84.9	31	4
2023-09-11T06:00	26833	20	-52.9	-84.7	27	4
2023-09-11T06:00	26861	19	-52.5	-84.4	24	5
2023-09-11T06:00	26892	19	-52.2	-84.2	23	5
2023-09-11T06:00	26913	19	-51.8	-84.6	23	5
2023-09-11T06:00	26950	19	-51.5	-84.4	24	6
2023-09-11T06:00	26977	19	-51.2	-84.2	27	6
2023-09-11T06:00	27000	19	-51.1	-84.1	30	7
2023-09-11T06:00	27037	19	-51.0	-83.3	33	7
2023-09-11T06:00	27051	19	-51.1	-83.4	36	7
2023-09-11T06:00	27090	19	-51.3	-83.6	39	7
2023-09-11T06:00	27115	19	-51.4	-83.6	41	7
2023-09-11T06:00	27147	19	-51.5	-83.7	44	7
2023-09-11T06:00	27174	19	-51.5	-83.7	47	6
2023-09-11T06:00	27201	18	-51.5	-83.7	52	5
2023-09-11T06:00	27238	18	-51.5	-83.7	57	5
2023-09-11T06:00	27255	18	-51.4	-83.6	64	4
2023-09-11T06:00	27282	18	-51.2	-83.5	69	4
2023-09-11T06:00	27304	18	-51.0	-83.3	70	3
2023-09-11T06:00	27346	18	-50.9	-83.3	66	3
2023-09-11T06:00	27370	18	-50.8	-83.2	58	3
2023-09-11T06:00	27402	18	-50.6	-83.1	50	3
2023-09-11T06:00	27427	18	-50.5	-83.0	45	2
2023-09-11T06:00	27456	18	-50.4	-82.9	48	2
2023-09-11T06:00	27491	18	-50.4	-82.9	64	1
2023-09-11T06:00	27517	18	-50.4	-82.9	103	1
2023-09-11T06:00	27546	18	-50.3	-82.8	136	2
2023-09-11T06:00	27568	17	-50.2	-82.8	151	2
2023-09-11T06:00	27602	17	-50.2	-83.5	160	2
2023-09-11T06:00	27621	17	-50.1	-83.4	168	2
2023-09-11T06:00	27654	17	-49.9	-83.2	182	2
2023-09-11T06:00	27691	17	-49.6	-83.0	210	1
2023-09-11T06:00	27713	17	-49.4	-82.9	255	1
2023-09-11T06:00	27738	17	-49.2	-82.7	286	2
2023-09-11T06:00	27767	17	-49.0	-82.6	301	2
2023-09-11T06:00	27796	17	-49.0	-82.6	311	3
2023-09-11T06:00	27829	17	-49.0	-82.6	318	4
2023-09-11T06:00	27848	17	-49.2	-82.7	324	4
2023-09-11T06:00	27880	17	-49.3	-82.8	328	5
2023-09-11T06:00	27915	17	-49.2	-82.7	330	5
2023-09-11T06:00	27933	16	-49.1	-82.7	333	5
2023-09-11T06:00	27972	16	-49.1	-82.7	335	5
2023-09-11T06:00	27998	16	-49.1	-82.7	337	4
2023-09-11T06:00	28038	16	-49.2	-82.7	340	4
2023-09-11T06:00	28063	16	-49.3	-82.8	343	4
2023-09-11T06:00	28086	16	-49.1	-82.7	345	4
2023-09-11T06:00	28109	16	-49.0	-82.6	348	3
2023-09-11T06:00	28136	16	-48.9	-82.5	350	3
2023-09-11T06:00	28164	16	-48.8	-82.4	353	3
2023-09-11T06:00	28193	16	-48.8	-82.4	356	3
2023-09-11T06:00	28229	16	-48.8	-82.4	0	2
2023-09-11T06:00	28256	16	-48.8	-82.4	3	2
2023-09-11T06:00	28286	16	-49.0	-82.6	4	2
2023-09-11T06:00	28325	16	-49.0	-82.6	1	2
2023-09-11T06:00	28357	15	-48.8	-82.4	359	2
2023-09-11T06:00	28374	15	-48.6	-82.3	357	3
2023-09-11T06:00	28404	15	-48.4	-82.2	356	3
2023-09-11T06:00	28430	15	-48.3	-82.1	357	3
2023-09-11T06:00	28460	15	-48.3	-82.1	359	2
2023-09-11T06:00	28489	15	-48.4	-82.2	1	2
2023-09-11T06:00	28527	15	-48.3	-82.1	2	2
2023-09-11T06:00	28555	15	-48.3	-82.1	4	2
2023-09-11T06:00	28575	15	-48.2	-82.0	4	1
2023-09-11T06:00	28605	15	-48.2	-82.0	358	1
2023-09-11T06:00	28637	15	-48.0	-81.9	316	0
2023-09-11T06:00	28670	15	-47.8	-82.5	273	1
2023-09-11T06:00	28692	15	-47.7	-82.4	269	1
2023-09-11T06:00	28724	15	-47.7	-82.4	272	2
2023-09-11T06:00	28747	15	-47.6	-82.4	274	3
2023-09-11T06:00	28774	15	-47.6	-82.4	276	3
2023-09-11T06:00	28801	14	-47.7	-82.4	276	4
2023-09-11T06:00	28834	14	-47.7	-82.4	276	4
2023-09-11T06:00	28861	14	-47.6	-82.4	274	4
2023-09-11T06:00	28896	14	-47.5	-82.3	273	4
2023-09-11T06:00	28912	14	-47.5	-82.3	269	4
2023-09-11T06:00	28950	14	-47.4	-82.2	265	3
2023-09-11T06:00	28966	14	-47.4	-82.2	259	3
2023-09-11T06:00	29003	14	-47.3	-82.2	254	3
2023-09-11T06:00	29032	14	-47.2	-82.1	251	3
2023-09-11T06:00	29064	14	-47.3	-82.2	252	3
2023-09-11T06:00	29095	14	-47.3	-82.2	254	3
2023-09-11T06:00	29119	14	-47.3	-82.2	256	4
2023-09-11T06:00	29150	14	-47.2	-82.1	256	4
2023-09-11T06:00	29165	14	-47.1	-82.0	255	4
2023-09-11T06:00	29200	14	-47.0	-81.9	253	4
2023-09-11T06:00	29233	14	-47.0	-81.9	249	4
2023-09-11T06:00	29258	14	-47.0	-81.9	245	4
2023-09-11T06:00	29293	13	-47.0	-81.9	239	4
2023-09-11T06:00	29316	13	-47.0	-81.9	234	4
2023-09-11T06:00	29341	13	-47.1	-82.0	229	3
2023-09-11T06:00	29374	13	-47.1	-82.0	225	3
2023-09-11T06:00	29410	13	-47.2	-82.1	225	3
2023-09-11T06:00	29425	13	-47.2	-82.1	228	3
2023-09-11T06:00	29457	13	-47.2	-82.1	235	2
2023-09-11T06:00	29497	13	-47.2	-82.1	247	2
2023-09-11T06:00	29523	13	-47.3	-82.2	264	2
2023-09-11T06:00	29547	13	-47.3	-82.2	276	2
2023-09-11T06:00	29574	13	-47.3	-82.2	277	2
2023-09-11T06:00	29610	13	-47.3	-82.2	268	2
2023-09-11T06:00	29628	13	-47.2	-82.1	252	2
2023-09-11T06:00	29661	13	-47.2	-82.1	234	2
2023-09-11T06:00	29704	13	-47.1	-82.0	220	3
2023-09-11T06:00	29736	13	-46.9	-81.9	213	3
2023-09-11T06:00	29750	13	-46.8	-81.8	209	4
2023-09-11T06:00	29790	12	-46.8	-81.8	208	5
2023-09-11T06:00	29806	12	-46.7	-81.7	208	5
2023-09-11T06:00	29837	12	-46.6	-81.7	207	6
2023-09-11T06:00	29873	12	-46.5	-81.6	206	6
2023-09-11T06:00	29902	12	-46.4	-81.5	204	6
2023-09-11T06:00	29939	12	-46.3	-81.4	202	7
2023-09-11T06:00	29960	12	-46.3	-81.4	201	7
2023-09-11T06:00	29995	12	-46.3	-81.4	202	7
2023-09-11T06:00	30012	12	-46.3	-81.4	204	7
2023-09-11T06:00	30062	12	-46.1	-81.3	207	7
2023-09-11T06:00	30085	12	-45.9	-81.2	212	6
2023-09-11T06:00	30118	12	-45.9	-81.2	216	6
2023-09-11T06:00	30139	12	-46.0	-81.2	219	5
2023-09-11T06:00	30173	12	-45.9	-81.2	220	5
2023-09-11T06:00	30203	12	-45.9	-82.1	220	6
2023-09-11T06:00	30226	12	-45.7	-81.9	219	6
2023-09-11T06:00	30243	12	-45.3	-81.6	220	7
2023-09-11T06:00	30305	12	-44.9	-81.4	222	7
2023-09-11T06:00	30321	12	-44.6	-81.2	225	8
2023-09-11T06:00	30350	11	-44.5	-81.1	229	8
2023-09-11T06:00	30375	11	-44.5	-81.1	232	9
2023-09-11T06:00	30414	11	-44.6	-81.2	234	9
2023-09-11T06:00	30430	11	-44.5	-81.1	234	9
2023-09-11T06:00	30453	11	-44.4	-81.0	233	10
2023-09-11T06:00	30489	11	-44.6	-81.2	232	10
2023-09-11T06:00	30521	11	-44.7	-81.2	231	10
2023-09-11T06:00	30548	11	-44.9	-81.4	231	10
2023-09-11T06:00	30572	11	-44.9	-81.4	233	10
2023-09-11T06:00	30600	11	-44.8	-81.3	234	10
2023-09-11T06:00	30629	11	-44.8	-81.3	236	9
2023-09-11T06:00	30663	11	-44.7	-81.2	238	9
2023-09-11T06:00	30692	11	-44.7	-81.2	239	9
2023-09-11T06:00	30721	11	-44.9	-81.4	240	8
2023-09-11T06:00	30750	11	-45.1	-81.5	243	8
2023-09-11T06:00	30781	11	-45.2	-81.6	247	8
2023-09-11T06:00	30788	11	-45.2	-81.6	254	8
2023-09-11T06:00	30831	11	-44.9	-81.4	263	8
2023-09-11T06:00	30864	11	-44.5	-81.1	271	8
2023-09-11T06:00	30889	11	-43.9	-80.7	278	8
2023-09-11T06:00	30919	11	-43.5	-81.5	281	9
2023-09-11T06:00	30948	10	-43.1	-81.2	282	9
2023-09-11T06:00	30969	10	-42.6	-80.8	280	9
2023-09-11T06:00	31010	10	-42.5	-80.8	278	9
2023-09-11T06:00	31041	10	-42.6	-80.8	276	9
2023-09-11T06:00	31067	10	-42.8	-81.0	275	9
2023-09-11T06:00	31110	10	-42.9	-80.0	275	9
2023-09-11T06:00	31126	10	-42.9	-80.0	276	9
2023-09-11T06:00	31161	10	-43.0	-80.0	278	9
2023-09-11T06:00	31192	10	-42.9	-80.0	278	8
2023-09-11T06:00	31208	10	-42.7	-79.8	276	8
2023-09-11T06:00	31254	10	-42.6	-79.7	273	8
2023-09-11T06:00	31274	10	-42.6	-79.7	269	8
2023-09-11T06:00	31307	10	-42.7	-79.8	265	8
2023-09-11T06:00	31325	10	-42.8	-79.9	261	9
2023-09-11T06:00	31371	10	-42.9	-80.0	258	9
2023-09-11T06:00	31390	10	-43.0	-80.0	257	9
2023-09-11T06:00	31424	10	-43.1	-80.1	258	9
2023-09-11T06:00	31444	10	-43.1	-80.1	260	9
2023-09-11T06:00	31482	10	-42.9	-80.0	263	8
2023-09-11T06:00	31501	10	-42.9	-80.0	268	8
2023-09-11T06:00	31546	10	-42.8	-81.0	274	8
2023-09-11T06:00	31568	10	-42.8	-81.0	280	8
2023-09-11T06:00	31575	10	-42.7	-80.9	285	9
2023-09-11T06:00	31609	10	-42.7	-80.9	288	9
2023-09-11T06:00	31647	9	-42.5	-80.8	289	9
2023-09-11T06:00	31679	9	-42.4	-80.7	290	10
2023-09-11T06:00	31712	9	-42.2	-80.6	289	10
2023-09-11T06:00	31741	9	-42.2	-80.6	289	10
2023-09-11T06:00	31771	9	-42.3	-80.6	288	11
2023-09-11T06:00	31803	9	-42.4	-80.7	287	11
2023-09-11T06:00	31811	9	-42.5	-80.8	287	11
2023-09-11T06:00	31838	9	-42.6	-80.8	288	12
2023-09-11T06:00	31883	9	-42.5	-80.8	290	13
2023-09-11T06:00	31904	9	-42.3	-80.6	292	13
2023-09-11T06:00	31938	9	-41.9	-80.4	295	14
2023-09-11T06:00	31965	9	-41.5	-80.1	298	14
2023-09-11T06:00	31993	9	-41.1	-79.8	301	14
2023-09-11T06:00	32019	9	-40.9	-79.7	303	13
2023-09-11T06:00	32050	9	-40.9	-79.7	306	13
2023-09-11T06:00	32069	9	-40.9	-79.7	308	12
2023-09-11T06:00	32098	9	-40.9	-79.7	310	11
2023-09-11T06:00	32136	9	-40.8	-79.6	311	10
2023-09-11T06:00	32174	9	-40.7	-79.5	311	10
2023-09-11T06:00	32196	9	-40.7	-79.5	311	9
2023-09-11T06:00	32219	9	-40.8	-79.6	310	8
2023-09-11T06:00	32238	9	-41.0	-79.7	308	7
2023-09-11T06:00	32274	9	-41.1	-79.8	305	7
2023-09-11T06:00	32289	9	-41.1	-79.8	302	7
2023-09-11T06:00	32325	9	-40.9	-79.7	299	7
2023-09-11T06:00	32380	9	-40.6	-79.5	295	7
2023-09-11T06:00	32400	8	-40.3	-79.2	291	7
2023-09-11T06:00	32421	8	-40.0	-79.0	287	6
2023-09-11T06:00	32458	8	-39.9	-79.0	281	6
2023-09-11T06:00	32498	8	-39.9	-79.0	274	6
2023-09-11T06:00	32509	8	-40.0	-79.0	268	6
2023-09-11T06:00	32543	8	-40.0	-79.0	263	6
2023-09-11T06:00	32571	8	-39.9	-79.0	262	6
2023-09-11T06:00	32608	8	-39.8	-78.9	263	6
2023-09-11T06:00	32634	8	-39.7	-78.8	267	7
2023-09-11T06:00	32660	8	-39.8	-78.9	271	7
2023-09-11T06:00	32680	8	-39.9	-79.0	277	7
2023-09-11T06:00	32728	8	-40.0	-79.0	281	8
2023-09-11T06:00	32754	8	-40.0	-79.0	285	8
2023-09-11T06:00	32787	8	-40.1	-79.1	287	8
2023-09-11T06:00	32805	8	-40.1	-79.1	288	8
2023-09-11T06:00	32861	8	-40.0	-79.0	287	8
2023-09-11T06:00	32898	8	-39.4	-78.6	282	8
2023-09-11T06:00	32958	8	-39.2	-78.5	279	9
2023-09-11T06:00	33006	8	-39.3	-78.5	275	9
2023-09-11T06:00	33036	8	-39.3	-78.5	273	10
2023-09-11T06:00	33051	8	-39.4	-78.6	272	10
2023-09-11T06:00	33089	8	-39.5	-78.7	272	10
2023-09-11T06:00	33104	8	-39.6	-78.8	271	9
2023-09-11T06:00	33153	8	-39.6	-78.8	271	8
2023-09-11T06:00	33166	8	-39.5	-78.7	272	7
2023-09-11T06:00	33210	8	-39.3	-78.5	273	7
2023-09-11T06:00	33253	8	-39.2	-78.5	275	6
2023-09-11T06:00	33282	7	-39.1	-78.4	279	5
2023-09-11T06:00	33309	7	-39.0	-78.3	286	4
2023-09-11T06:00	33342	7	-38.8	-78.2	293	3
2023-09-11T06:00	33372	7	-38.6	-78.1	303	3
2023-09-11T06:00	33395	7	-38.5	-78.0	301	3
2023-09-11T06:00	33436	7	-38.4	-77.9	295	3
2023-09-11T06:00	33474	7	-38.6	-78.1	287	3
2023-09-11T06:00	33490	7	-38.8	-78.2	279	3
2023-09-11T06:00	33522	7	-38.9	-78.3	274	3
2023-09-11T06:00	33538	7	-39.0	-78.3	270	3
2023-09-11T06:00	33563	7	-38.9	-78.3	266	2
2023-09-11T06:00	33604	7	-39.0	-78.3	262	2
2023-09-11T06:00	33647	7	-39.2	-78.5	256	2
2023-09-11T06:00	33653	7	-39.5	-78.7	248	2
2023-09-11T06:00	33707	7	-39.6	-78.8	242	3
2023-09-11T06:00	33732	7	-39.6	-78.8	237	4
2023-09-11T06:00	33763	7	-39.6	-78.8	237	5
2023-09-11T06:00	33816	7	-39.6	-78.8	237	6
2023-09-11T06:00	33837	7	-39.6	-78.8	238	6
2023-09-11T06:00	33879	7	-39.7	-78.8	241	6
2023-09-11T06:00	33894	7	-39.6	-78.8	244	6
2023-09-11T06:00	33929	7	-39.4	-78.6	248	6
2023-09-11T06:00	33962	7	-39.3	-78.5	254	7
2023-09-11T06:00	33983	7	-39.2	-78.5	259	7
2023-09-11T06:00	34014	7	-39.1	-78.4	265	7
2023-09-11T06:00	34040	7	-39.2	-78.5	271	7
2023-09-11T06:00	34067	7	-39.3	-78.5	276	8
2023-09-11T06:00	34101	7	-39.4	-78.6	280	8
2023-09-11T06:00	34127	7	-39.5	-78.7	282	9
2023-09-11T06:00	34142	7	-39.5	-78.7	284	10
2023-09-11T06:00	34180	7	-39.4	-78.6	284	10
2023-09-11T06:00	34232	7	-39.4	-78.6	284	11
2023-09-11T06:00	34252	6	-39.3	-78.5	286	11
2023-09-11T06:00	34282	6	-39.3	-78.5	287	12
2023-09-11T06:00	34300	6	-39.4	-78.6	290	12
2023-09-11T06:00	34369	6	-39.5	-78.7	292	13
2023-09-11T06:00	34378	6	-39.5	-78.7	293	13
2023-09-11T06:00	34399	6	-39.5	-78.7	294	13
2023-09-11T06:00	34429	6	-39.3	-78.5	294	13
2023-09-11T06:00	34460	6	-39.1	-78.4	293	13
2023-09-11T06:00	34507	6	-38.8	-78.2	291	12
2023-09-11T06:00	34546	6	-38.5	-78.0	288	11
2023-09-11T06:00	34570	6	-38.5	-78.0	286	11
2023-09-11T06:00	34591	6	-38.5	-78.0	284	11
2023-09-11T06:00	34592	6	-38.5	-78.0	282	11
2023-09-11T06:00	34649	6	-38.3	-77.9	281	11
2023-09-11T06:00	34669	6	-38.2	-77.8	282	12
2023-09-11T12:00	114	1001	28.3	12.0	254	1
2023-09-11T12:00	146	997	27.6	11.0	253	2
2023-09-11T12:00	182	994	26.5	10.9	255	3
2023-09-11T12:00	205	991	25.9	10.8	259	3
2023-09-11T12:00	230	988	25.7	10.9	262	3
2023-09-11T12:00	255	985	25.5	10.6	264	3
2023-09-11T12:00	273	983	25.4	10.6	263	2
2023-09-11T12:00	296	981	25.1	10.6	258	2
2023-09-11T12:00	320	978	24.9	10.8	256	2
2023-09-11T12:00	348	975	24.6	10.8	260	2
2023-09-11T12:00	376	972	24.2	10.6	270	2
2023-09-11T12:00	401	969	24.1	10.5	277	2
2023-09-11T12:00	425	966	23.8	10.3	278	3
2023-09-11T12:00	452	963	23.6	10.3	273	3
2023-09-11T12:00	478	960	23.3	10.4	265	3
2023-09-11T12:00	507	957	23.0	10.3	258	3
2023-09-11T12:00	533	954	22.8	10.3	254	3
2023-09-11T12:00	560	951	22.6	9.9	253	3
2023-09-11T12:00	586	948	22.3	10.2	256	2
2023-09-11T12:00	618	945	22.0	9.9	261	2
2023-09-11T12:00	648	942	21.7	9.7	265	2
2023-09-11T12:00	672	939	21.5	9.8	263	2
2023-09-11T12:00	700	936	21.2	9.7	257	2
2023-09-11T12:00	728	933	21.0	9.7	246	2
2023-09-11T12:00	761	930	20.7	9.9	230	2
2023-09-11T12:00	789	926	20.4	9.9	209	2
2023-09-11T12:00	821	923	20.1	9.8	190	2
2023-09-11T12:00	847	920	19.9	9.6	177	2
2023-09-11T12:00	870	918	19.6	9.5	174	3
2023-09-11T12:00	896	915	19.4	9.3	175	3
2023-09-11T12:00	921	913	19.1	9.2	178	3
2023-09-11T12:00	943	910	18.9	9.2	179	3
2023-09-11T12:00	975	907	18.6	9.1	177	3
2023-09-11T12:00	1000	904	18.4	9.0	174	3
2023-09-11T12:00	1020	902	18.1	9.3	170	3
2023-09-11T12:00	1053	899	17.8	9.0	170	2
2023-09-11T12:00	1087	895	17.5	9.0	173	2
2023-09-11T12:00	1120	892	17.2	9.0	179	2
2023-09-11T12:00	1150	889	16.9		182	2
2023-09-11T12:00	1174	886	16.6	8.8	180	2
2023-09-11T12:00	1203	883	16.4	8.9	175	2
2023-09-11T12:00	1232	880	16.1	8.8	172	2
2023-09-11T12:00	1257	877	15.8	8.7	175	2
2023-09-11T12:00	1288	874	15.6	8.8	182	2
2023-09-11T12:00	1322	871	15.2	8.7	190	3
2023-09-11T12:00	1348	868	14.9	8.7	197	3
2023-09-11T12:00	1375	865	14.7	8.8	204	3
2023-09-11T12:00	1401	863	14.4	8.8	210	4
2023-09-11T12:00	1419	861	14.2	8.6	217	4
2023-09-11T12:00	1438	859	14.1	8.6	223	4
2023-09-11T12:00	1459	857	13.9	8.5	228	4
2023-09-11T12:00	1484	854	13.7	8.2	231	3
2023-09-11T12:00	1508	852	13.5	8.0	233	3
2023-09-11T12:00	1532	849	13.2	8.4	232	3
2023-09-11T12:00	1556	847	13.0	8.0	232	3
2023-09-11T12:00	1581	844	12.9	7.3	232	3
2023-09-11T12:00	1606	842	12.7	7.0	232	3
2023-09-11T12:00	1634	839	12.6	6.3	231	3
2023-09-11T12:00	1661	836	12.2	6.7	226	2
2023-09-11T12:00	1690	833	12.4	3.1	217	2
2023-09-11T12:00	1717	831	12.6	1.0	206	2
2023-09-11T12:00	1748	828	12.6	-0.4	202	2
2023-09-11T12:00	1776	825	12.8	-4.7	205	3
2023-09-11T12:00	1804	822	13.3	-6.7	212	3
2023-09-11T12:00	1836	819	14.0	-14.9	217	3
2023-09-11T12:00	1860	817	14.6	-17.7	221	4
2023-09-11T12:00	1886	814	14.6	-16.7	224	3
2023-09-11T12:00	1911	812	14.7	-17.5	228	3
2023-09-11T12:00	1937	809	14.6	-16.8	236	2
2023-09-11T12:00	1960	807	14.7	-17.4	246	2
2023-09-11T12:00	1986	805	14.8	-18.2	252	2
2023-09-11T12:00	2004	803	14.7	-17.7	246	2
2023-09-11T12:00	2026	801	14.5	-16.2	232	2
2023-09-11T12:00	2048	799	14.4	-15.8	223	2
2023-09-11T12:00	2079	796	14.2	-15.9	219	2
2023-09-11T12:00	2108	793	14.0	-15.9	222	2
2023-09-11T12:00	2126	791	13.9	-16.2	230	2
2023-09-11T12:00	2150	789	13.8	-16.3	240	2
2023-09-11T12:00	2176	787	13.6	-16.4	247	2
2023-09-11T12:00	2204	784	13.5	-16.8	249	2
2023-09-11T12:00	2222	782	13.4	-17.8	247	2
2023-09-11T12:00	2252	780	13.3	-18.4	241	2
2023-09-11T12:00	2283	777	13.2	-19.1	235	2
2023-09-11T12:00	2304	775	13.1	-19.6	228	2
2023-09-11T12:00	2330	772	13.0	-19.6	221	2
2023-09-11T12:00	2355	770	13.0	-20.5	215	2
2023-09-11T12:00	2380	768	12.9	-21.3	210	2
2023-09-11T12:00	2404	766	12.8	-22.1	208	2
2023-09-11T12:00	2426	764	12.8	-22.1	210	2
2023-09-11T12:00	2445	762	12.7	-21.6	213	3
2023-09-11T12:00	2473	759	12.5	-20.0	215	3
2023-09-11T12:00	2490	758	12.4	-20.1	213	3
2023-09-11T12:00	2516	755	12.4	-20.6	209	4
2023-09-11T12:00	2539	753	12.3	-20.5	203	4
2023-09-11T12:00	2570	751	12.2	-20.7	198	4
2023-09-11T12:00	2599	748	12.1	-18.8	196	3
2023-09-11T12:00	2628	745	12.0	-17.0	198	3
2023-09-11T12:00	2650	743	11.9	-15.9	203	3
2023-09-11T12:00	2676	741	11.7	-17.1	209	3
2023-09-11T12:00	2701	739	11.5	-18.5	215	3
2023-09-11T12:00	2731	736	11.3	-18.5	220	3
2023-09-11T12:00	2760	734	11.0	-17.9	224	3
2023-09-11T12:00	2789	731	10.8	-17.8	228	4
2023-09-11T12:00	2819	729	10.5	-18.4	232	4
2023-09-11T12:00	2843	726	10.4	-18.8	235	4
2023-09-11T12:00	2872	724	10.2	-18.6	236	4
2023-09-11T12:00	2901	721	10.0	-18.4	235	3
2023-09-11T12:00	2937	718	9.8	-19.9	232	3
2023-09-11T12:00	2966	716	9.7	-20.5	225	2
2023-09-11T12:00	2990	714	9.7	-19.3	213	2
2023-09-11T12:00	3011	712	9.5	-18.9	193	1
2023-09-11T12:00	3033	710	9.3	-18.1	171	1
2023-09-11T12:00	3053	708	9.1	-15.8	203	0
2023-09-11T12:00	3074	706	8.9	-13.9	250	1
2023-09-11T12:00	3106	704	8.6	-13.3	253	2
2023-09-11T12:00	3132	701	8.4	-13.1	251	3
2023-09-11T12:00	3163	699	8.1	-14.1	249	3
2023-09-11T12:00	3191	697	7.9	-14.3	248	4
2023-09-11T12:00	3207	695	7.7	-14.5	251	4
2023-09-11T12:00	3236	692	7.5	-14.3	256	3
2023-09-11T12:00	3271	690	7.2	-14.5	263	3
2023-09-11T12:00	3298	688	7.0	-14.3	267	3
2023-09-11T12:00	3317	686	6.8	-14.3	266	3
2023-09-11T12:00	3345	684	6.5	-13.6	262	3
2023-09-11T12:00	3373	681	6.3	-14.6	259	3
2023-09-11T12:00	3401	679	6.1	-14.9	259	3
2023-09-11T12:00	3424	677	6.0	-16.0	260	4
2023-09-11T12:00	3447	675	6.1	-17.7	260	5
2023-09-11T12:00	3469	673	6.1	-20.9	257	5
2023-09-11T12:00	3491	671	6.0	-22.2	255	6
2023-09-11T12:00	3512	670	6.0	-22.0	254	6
2023-09-11T12:00	3539	668	5.8	-20.3	258	6
2023-09-11T12:00	3564	666	5.5	-18.2	265	6
2023-09-11T12:00	3585	664	5.4	-18.2	273	5
2023-09-11T12:00	3605	662	5.2	-18.2	278	5
2023-09-11T12:00	3632	660	5.0	-18.0	276	5
2023-09-11T12:00	3654	658	4.8	-18.2	268	5
2023-09-11T12:00	3672	657	4.7	-18.5	259	5
2023-09-11T12:00	3690	655	4.5	-18.5	254	5
2023-09-11T12:00	3710	653	4.3	-18.8	253	6
2023-09-11T12:00	3735	652	4.2	-20.4	256	6
2023-09-11T12:00	3755	650	4.1	-20.2	260	6
2023-09-11T12:00	3777	648	3.9	-19.0	262	7
2023-09-11T12:00	3805	646	3.7	-19.0	263	7
2023-09-11T12:00	3831	644	3.5	-19.7	263	7
2023-09-11T12:00	3856	642	3.4	-20.2	262	7
2023-09-11T12:00	3884	640	3.1	-20.2	261	7
2023-09-11T12:00	3910	638	2.9	-20.2	260	8
2023-09-11T12:00	3941	635	2.7	-20.4	259	8
2023-09-11T12:00	3963	633	2.5	-20.6	258	8
2023-09-11T12:00	3990	631	2.3	-21.4	256	8
2023-09-11T12:00	4010	630	2.2	-21.6	254	8
2023-09-11T12:00	4031	628	2.1	-21.6	252	8
2023-09-11T12:00	4054	626	1.9	-22.0	250	8
2023-09-11T12:00	4083	624	1.8	-22.1	248	8
2023-09-11T12:00	4105	622	1.7	-22.6	246	8
2023-09-11T12:00	4130	620	1.6	-24.3	242	7
2023-09-11T12:00	4164	618	1.5	-25.4	237	7
2023-09-11T12:00	4186	616	1.3	-25.4	231	7
2023-09-11T12:00	4208	614	1.2	-24.6	227	7
2023-09-11T12:00	4235	613	1.0	-24.7	226	7
2023-09-11T12:00	4262	610	0.8	-24.5	227	7
2023-09-11T12:00	4295	608	0.5	-24.6	230	7
2023-09-11T12:00	4331	605	0.3	-24.6	234	7
2023-09-11T12:00	4349	604	0.2	-24.5	237	7
2023-09-11T12:00	4371	602	0.0	-22.9	240	8
2023-09-11T12:00	4393	601	-0.2	-22.6	243	8
2023-09-11T12:00	4420	599	-0.4	-22.9	245	8
2023-09-11T12:00	4446	596	-0.6	-23.0	246	8
2023-09-11T12:00	4480	594	-0.8	-22.9	246	8
2023-09-11T12:00	4510	592	-1.1	-22.1	246	7
2023-09-11T12:00	4531	590	-1.2	-21.7	246	7
2023-09-11T12:00	4556	588	-1.5	-21.2	247	6
2023-09-11T12:00	4579	587	-1.7	-22.0	247	6
2023-09-11T12:00	4611	584	-2.0	-23.4	246	6
2023-09-11T12:00	4630	583	-2.1	-24.2	246	6
2023-09-11T12:00	4650	581	-2.2	-24.3	247	6
2023-09-11T12:00	4670	580	-2.4	-25.9	248	6
2023-09-11T12:00	4693	578	-2.5	-25.2	250	6
2023-09-11T12:00	4722	576	-2.7	-26.6	252	6
2023-09-11T12:00	4752	574	-3.0	-27.2	254	6
2023-09-11T12:00	4781	572	-3.2	-27.7	255	7
2023-09-11T12:00	4809	570	-3.5	-23.8	256	7
2023-09-11T12:00	4833	568	-3.7	-22.8	256	7
2023-09-11T12:00	4861	566	-3.9	-22.2	254	6
2023-09-11T12:00	4888	564	-3.8	-31.1	250	6
2023-09-11T12:00	4915	562	-3.8	-36.9	244	5
2023-09-11T12:00	4939	561	-3.7	-35.3	237	5
2023-09-11T12:00	4965	559	-3.9	-33.3	229	5
2023-09-11T12:00	4988	557	-4.1	-32.8	223	4
2023-09-11T12:00	5013	555	-4.3	-32.6	218	4
2023-09-11T12:00	5047	553	-4.6	-32.3	215	3
2023-09-11T12:00	5070	551	-4.7	-26.6	214	3
2023-09-11T12:00	5099	549	-5.0	-19.5	217	3
2023-09-11T12:00	5127	547	-5.2	-18.2	221	4
2023-09-11T12:00	5149	546	-5.4	-18.4	225	5
2023-09-11T12:00	5170	544	-5.6	-20.7	229	5
2023-09-11T12:00	5197	542	-5.8	-18.5	234	6
2023-09-11T12:00	5227	540	-6.0	-20.2	238	6
2023-09-11T12:00	5258	538	-6.2	-18.0	244	6
2023-09-11T12:00	5289	536	-6.5	-18.1	250	5
2023-09-11T12:00	5318	534	-6.7	-18.2	256	5
2023-09-11T12:00	5337	533	-6.9	-18.2	259	5
2023-09-11T12:00	5366	531	-7.1	-17.9	260	5
2023-09-11T12:00	5389	529	-7.3	-17.8	258	5
2023-09-11T12:00	5418	527	-7.6	-18.0	256	5
2023-09-11T12:00	5442	526	-7.8	-18.0	255	5
2023-09-11T12:00	5469	524	-8.0	-18.1	256	5
2023-09-11T12:00	5491	522	-8.1	-20.3	259	5
2023-09-11T12:00	5519	521	-8.3	-20.4	263	5
2023-09-11T12:00	5542	519	-8.4	-20.5	266	5
2023-09-11T12:00	5569	517	-8.7	-20.8	269	5
2023-09-11T12:00	5593	515	-8.9	-21.1	269	5
2023-09-11T12:00	5622	514	-9.1	-21.0	269	5
2023-09-11T12:00	5656	512	-9.4	-20.7	269	5
2023-09-11T12:00	5679	510	-9.6	-21.2	270	6
2023-09-11T12:00	5707	508	-9.8	-20.7	272	6
2023-09-11T12:00	5726	507	-10.0	-20.0	275	6
2023-09-11T12:00	5758	505	-10.3	-20.5	278	5
2023-09-11T12:00	5791	503	-10.4	-20.9	280	5
2023-09-11T12:00	5821	501	-10.6	-21.0	280	5
2023-09-11T12:00	5844	499	-10.8	-21.2	278	5
2023-09-11T12:00	5864	498	-11.0	-21.3	274	5
2023-09-11T12:00	5883	497	-11.2	-21.3	270	5
2023-09-11T12:00	5905	495	-11.3	-22.1	265	5
2023-09-11T12:00	5935	493	-11.3	-27.0	261	5
2023-09-11T12:00	5963	491	-11.4	-32.9	257	5
2023-09-11T12:00	5988	490	-11.4	-35.2	254	5
2023-09-11T12:00	6018	488	-11.6	-35.2	250	5
2023-09-11T12:00	6046	486	-11.7	-34.3	247	5
2023-09-11T12:00	6077	484	-11.9	-34.2	245	5
2023-09-11T12:00	6106	482	-12.1	-34.5	244	5
2023-09-11T12:00	6140	480	-12.3	-34.3	244	5
2023-09-11T12:00	6158	479	-12.5	-33.6	245	6
2023-09-11T12:00	6179	478	-12.6	-33.3	246	6
2023-09-11T12:00	6200	476	-12.8	-33.4	247	6
2023-09-11T12:00	6222	475	-12.9	-32.3	248	6
2023-09-11T12:00	6244	474	-13.2	-30.0	250	6
2023-09-11T12:00	6271	472	-13.4	-29.5	252	6
2023-09-11T12:00	6305	470	-13.7	-29.6	253	6
2023-09-11T12:00	6330	468	-13.8	-31.3	254	6
2023-09-11T12:00	6360	467	-14.0	-31.7	254	6
2023-09-11T12:00	6391	465	-14.3	-32.3	252	6
2023-09-11T12:00	6420	463	-14.6	-31.7	250	6
2023-09-11T12:00	6449	461	-14.8	-30.0	249	6
2023-09-11T12:00	6478	459	-14.9	-32.8	249	6
2023-09-11T12:00	6511	457	-15.1	-34.4	249	6
2023-09-11T12:00	6541	455	-15.3	-34.8	250	7
2023-09-11T12:00	6571	454	-15.5	-35.1	250	7
2023-09-11T12:00	6594	452	-15.7	-35.5	249	7
2023-09-11T12:00	6627	450	-15.9	-35.9	249	7
2023-09-11T12:00	6652	449	-16.1	-36.5	250	7
2023-09-11T12:00	6679	447	-16.3	-36.0	251	7
2023-09-11T12:00	6721	445	-16.7	-34.5	253	7
2023-09-11T12:00	6750	443	-16.9	-35.2	255	6
2023-09-11T12:00	6772	442	-17.1	-34.8	258	6
2023-09-11T12:00	6793	440	-17.3	-34.5	262	6
2023-09-11T12:00	6813	439	-17.5	-34.5	264	6
2023-09-11T12:00	6839	438	-17.7	-35.3	266	6
2023-09-11T12:00	6869	436	-17.8	-38.7	267	6
2023-09-11T12:00	6895	434	-18.0	-39.2	269	6
2023-09-11T12:00	6924	433	-18.2	-38.1	271	6
2023-09-11T12:00	6957	431	-18.5	-37.3	272	6
2023-09-11T12:00	6990	429	-18.8	-37.7	273	6
2023-09-11T12:00	7020	427	-19.0	-38.0	271	6
2023-09-11T12:00	7050	425	-19.3	-38.2	267	5
2023-09-11T12:00	7083	424	-19.5	-38.5	261	5
2023-09-11T12:00	7110	422	-19.6	-39.3	254	5
2023-09-11T12:00	7139	420	-19.9	-39.8	249	5
2023-09-11T12:00	7173	419	-20.1	-40.4	245	5
2023-09-11T12:00	7206	417	-20.3	-41.3	243	6
2023-09-11T12:00	7237	415	-20.5	-41.6	242	6
2023-09-11T12:00	7277	413	-20.8	-41.4	242	6
2023-09-11T12:00	7300	411	-21.0	-41.6	244	6
2023-09-11T12:00	7321	410	-21.2	-41.6	248	6
2023-09-11T12:00	7341	409	-21.4	-41.6	251	6
2023-09-11T12:00	7363	408	-21.6	-41.7	254	6
2023-09-11T12:00	7386	407	-21.8	-41.9	254	6
2023-09-11T12:00	7409	405	-22.0	-42.1	254	7
2023-09-11T12:00	7440	404	-22.2	-42.2	252	7
2023-09-11T12:00	7471	402	-22.4	-42.3	251	7
2023-09-11T12:00	7500	400	-22.6	-42.4	251	8
2023-09-11T12:00	7530	399	-22.9	-42.6	253	8
2023-09-11T12:00	7564	397	-23.2	-42.8	256	8
2023-09-11T12:00	7595	395	-23.4	-43.0	258	7
2023-09-11T12:00	7630	393	-23.6	-43.3	260	8
2023-09-11T12:00	7655	392	-23.8	-43.5	260	8
2023-09-11T12:00	7686	390	-24.1	-43.1	258	8
2023-09-11T12:00	7716	389	-24.4	-43.1	257	8
2023-09-11T12:00	7751	387	-24.7	-43.1	257	9
2023-09-11T12:00	7786	385	-24.9	-43.2	257	9
2023-09-11T12:00	7811	384	-25.1	-43.2	257	10
2023-09-11T12:00	7839	382	-25.3	-43.7	258	10
2023-09-11T12:00	7864	381	-25.5	-43.7	257	10
2023-09-11T12:00	7892	379	-25.8	-44.0	257	10
2023-09-11T12:00	7922	378	-26.0	-43.9	257	10
2023-09-11T12:00	7951	376	-26.2	-42.9	257	10
2023-09-11T12:00	7978	375	-26.4	-44.8	258	10
2023-09-11T12:00	8009	373	-26.6	-44.3	258	9
2023-09-11T12:00	8041	372	-26.9	-43.4	259	9
2023-09-11T12:00	8076	370	-27.1	-44.1	258	9
2023-09-11T12:00	8110	368	-27.4	-45.2	257	9
2023-09-11T12:00	8145	366	-27.6	-45.8	257	9
2023-09-11T12:00	8176	365	-27.8	-46.3	257	8
2023-09-11T12:00	8208	363	-28.1	-46.6	257	8
2023-09-11T12:00	8241	361	-28.3	-46.9	258	8
2023-09-11T12:00	8275	360	-28.6	-47.2	259	8
2023-09-11T12:00	8306	358	-28.9	-47.3	260	9
2023-09-11T12:00	8340	357	-29.2	-47.5	261	9
2023-09-11T12:00	8378	355	-29.5	-47.6	262	9
2023-09-11T12:00	8404	353	-29.7	-47.7	263	9
2023-09-11T12:00	8437	352	-29.9	-48.5	263	8
2023-09-11T12:00	8465	350	-30.1	-48.4	263	8
2023-09-11T12:00	8494	349	-30.4	-47.8	263	7
2023-09-11T12:00	8525	347	-30.7	-47.9	262	7
2023-09-11T12:00	8559	346	-30.9	-48.9	261	6
2023-09-11T12:00	8592	344	-31.1	-45.0	259	6
2023-09-11T12:00	8620	343	-31.3	-43.4	258	6
2023-09-11T12:00	8650	341	-31.6	-44.0	258	7
2023-09-11T12:00	8680	340	-31.8	-47.4	259	7
2023-09-11T12:00	8711	338	-32.0	-46.8	261	7
2023-09-11T12:00	8742	337	-32.3	-44.5	262	8
2023-09-11T12:00	8776	335	-32.6	-43.8	262	8
2023-09-11T12:00	8810	334	-32.9	-43.2	261	8
2023-09-11T12:00	8843	332	-33.2	-43.6	260	9
2023-09-11T12:00	8869	331	-33.4	-43.8	259	9
2023-09-11T12:00	8900	329	-33.7	-43.9	258	9
2023-09-11T12:00	8931	328	-33.9	-45.0	258	9
2023-09-11T12:00	8965	326	-34.2	-46.0	258	9
2023-09-11T12:00	8997	325	-34.4	-45.5	259	9
2023-09-11T12:00	9025	324	-34.7	-45.7	260	8
2023-09-11T12:00	9054	322	-35.0	-45.9	260	8
2023-09-11T12:00	9081	321	-35.1	-46.7	259	8
2023-09-11T12:00	9106	320	-35.4	-46.9	258	8
2023-09-11T12:00	9136	318	-35.6	-47.3	257	8
2023-09-11T12:00	9166	317	-35.8	-47.5	256	8
2023-09-11T12:00	9194	316	-36.1	-47.1	256	8
2023-09-11T12:00	9223	315	-36.3	-47.1	257	8
2023-09-11T12:00	9251	313	-36.6	-47.5	259	8
2023-09-11T12:00	9275	312	-36.7	-47.8	261	8
2023-09-11T12:00	9300	311	-36.9	-48.0	264	9
2023-09-11T12:00	9325	310	-37.1	-48.2	265	9
2023-09-11T12:00	9355	309	-37.3	-47.8	266	10
2023-09-11T12:00	9388	307	-37.6	-47.6	266	10
2023-09-11T12:00	9422	306	-37.9	-48.0	264	10
2023-09-11T12:00	9452	304	-38.1	-48.0	263	10
2023-09-11T12:00	9483	303	-38.3	-48.2	262	10
2023-09-11T12:00	9514	301	-38.6	-48.7	261	10
2023-09-11T12:00	9544	300	-38.8	-50.0	263	10
2023-09-11T12:00	9571	299	-39.0	-52.5	264	10
2023-09-11T12:00	9597	298	-39.2	-54.6	267	11
2023-09-11T12:00	9626	297	-39.4	-55.2	268	11
2023-09-11T12:00	9653	295	-39.6		269	11
2023-09-11T12:00	9679	294	-39.8	-54.6	269	11
2023-09-11T12:00	9703	293	-40.0	-53.8	268	11
2023-09-11T12:00	9729	292	-40.3	-53.3	266	11
2023-09-11T12:00	9757	291	-40.6	-52.7	265	11
2023-09-11T12:00	9785	290	-40.8	-52.1	264	11
2023-09-11T12:00	9809	289	-41.0	-52.3	264	11
2023-09-11T12:00	9831	288	-41.2	-52.1	264	11
2023-09-11T12:00	9859	287	-41.5	-51.8	264	11
2023-09-11T12:00	9883	286	-41.7	-52.0	264	11
2023-09-11T12:00	9910	284	-41.9	-53.0	264	11
2023-09-11T12:00	9939	283	-42.2	-53.8	264	11
2023-09-11T12:00	9973	282	-42.4	-54.1	264	11
2023-09-11T12:00	10008	281	-42.7	-54.0	263	11
2023-09-11T12:00	10034	279	-42.9	-53.7	263	11
2023-09-11T12:00	10059	278	-43.2	-53.3	262	11
2023-09-11T12:00	10088	277	-43.5	-53.2	261	11
2023-09-11T12:00	10116	276	-43.7	-53.4	259	11
2023-09-11T12:00	10146	275	-43.9	-53.0	258	11
2023-09-11T12:00	10176	273	-44.2	-53.0	257	11
2023-09-11T12:00	10210	272	-44.5	-53.5	257	11
2023-09-11T12:00	10235	271	-44.7	-54.5	256	11
2023-09-11T12:00	10260	270	-44.9	-55.3	256	11
2023-09-11T12:00	10287	269	-45.1	-55.3	256	11
2023-09-11T12:00	10310	268	-45.3	-55.1	256	11
2023-09-11T12:00	10337	267	-45.5	-55.1	257	11
2023-09-11T12:00	10361	266	-45.7	-55.1	257	11
2023-09-11T12:00	10386	265	-45.9	-55.0	258	12
2023-09-11T12:00	10412	264	-46.1	-54.6	258	12
2023-09-11T12:00	10436	263	-46.4	-53.9	259	12
2023-09-11T12:00	10463	262	-46.6	-53.7	259	12
2023-09-11T12:00	10488	261	-46.8	-54.0	258	12
2023-09-11T12:00	10513	260	-46.9	-54.0	258	12
2023-09-11T12:00	10532	259	-47.2	-53.9	258	12
2023-09-11T12:00	10557	258	-47.4	-53.6	258	12
2023-09-11T12:00	10587	257	-47.6	-53.7	258	12
2023-09-11T12:00	10615	256	-47.7	-54.1	259	12
2023-09-11T12:00	10640	255	-48.0	-54.5	258	12
2023-09-11T12:00	10666	254	-48.2	-54.5	258	12
2023-09-11T12:00	10692	253	-48.4	-54.6	258	12
2023-09-11T12:00	10716	252	-48.6	-54.7	258	12
2023-09-11T12:00	10738	251	-48.8	-54.8	257	12
2023-09-11T12:00	10759	250	-49.0	-54.9	257	12
2023-09-11T12:00	10780	250	-49.2	-55.0	256	12
2023-09-11T12:00	10802	249	-49.4	-55.1	255	12
2023-09-11T12:00	10821	248	-49.6	-55.2	254	12
2023-09-11T12:00	10841	247	-49.7	-55.2	253	12
2023-09-11T12:00	10864	247	-49.9	-55.2	253	12
2023-09-11T12:00	10886	246	-50.1	-55.2	253	12
2023-09-11T12:00	10912	245	-50.3	-55.3	253	12
2023-09-11T12:00	10938	244	-50.5	-55.5	253	12
2023-09-11T12:00	10962	243	-50.6	-55.7	254	12
2023-09-11T12:00	10986	242	-50.8	-56.2	254	12
2023-09-11T12:00	11013	241	-50.9	-56.9	254	13
2023-09-11T12:00	11036	240	-51.0	-57.1	254	13
2023-09-11T12:00	11060	239	-51.2	-57.1	254	13
2023-09-11T12:00	11083	238	-51.3	-57.1	254	14
2023-09-11T12:00	11107	237	-51.5	-57.2	254	14
2023-09-11T12:00	11131	237	-51.7	-57.3	254	14
2023-09-11T12:00	11160	236	-51.9	-57.5	254	13
2023-09-11T12:00	11185	235	-52.1	-57.8	254	13
2023-09-11T12:00	11211	234	-52.3	-58.0	254	13
2023-09-11T12:00	11236	233	-52.5	-58.2	254	13
2023-09-11T12:00	11259	232	-52.6	-58.4	255	14
2023-09-11T12:00	11279	231	-52.8	-58.9	255	14
2023-09-11T12:00	11300	230	-52.9	-59.2	254	14
2023-09-11T12:00	11321	230	-53.0	-59.2	254	14
2023-09-11T12:00	11343	229	-53.2	-58.8	254	14
2023-09-11T12:00	11365	228	-53.4	-58.0	254	14
2023-09-11T12:00	11388	227	-53.6	-57.4	254	14
2023-09-11T12:00	11411	227	-53.7	-57.2	254	14
2023-09-11T12:00	11436	226	-54.0	-57.6	254	14
2023-09-11T12:00	11466	225	-54.2	-57.9	255	14
2023-09-11T12:00	11490	224	-54.3	-58.3	255	14
2023-09-11T12:00	11517	223	-54.5	-58.7	255	15
2023-09-11T12:00	11541	222	-54.7	-58.9	256	15
2023-09-11T12:00	11562	221	-54.9	-59.0	256	15
2023-09-11T12:00	11586	220	-55.0	-59.2	257	14
2023-09-11T12:00	11606	220	-55.2	-59.5	257	14
2023-09-11T12:00	11629	219	-55.3	-59.6	258	14
2023-09-11T12:00	11649	218	-55.5	-59.9	258	14
2023-09-11T12:00	11671	217	-55.7	-60.1	258	14
2023-09-11T12:00	11695	217	-55.8	-60.2	259	14
2023-09-11T12:00	11716	216	-56.0	-60.3	258	14
2023-09-11T12:00	11738	215	-56.1	-60.4	258	14
2023-09-11T12:00	11759	215	-56.2	-60.5	258	14
2023-09-11T12:00	11781	214	-56.5	-60.8	257	13
2023-09-11T12:00	11801	213	-56.6	-60.6	257	13
2023-09-11T12:00	11823	212	-56.7	-60.5	256	13
2023-09-11T12:00	11845	212	-56.8	-60.5	256	13
2023-09-11T12:00	11865	211	-57.0	-60.6	256	13
2023-09-11T12:00	11888	210	-57.2	-60.7	255	13
2023-09-11T12:00	11911	209	-57.3	-61.0	254	13
2023-09-11T12:00	11931	209	-57.4	-61.2	253	13
2023-09-11T12:00	11954	208	-57.6	-61.5	252	13
2023-09-11T12:00	11977	207	-57.7	-61.5	251	13
2023-09-11T12:00	11998	207	-57.8	-61.5	249	13
2023-09-11T12:00	12022	206	-58.0	-61.8	248	13
2023-09-11T12:00	12041	205	-58.1	-61.9	248	13
2023-09-11T12:00	12061	205	-58.2	-62.1	247	13
2023-09-11T12:00	12082	204	-58.4	-62.4	246	13
2023-09-11T12:00	12106	203	-58.5	-62.7	245	13
2023-09-11T12:00	12126	202	-58.6	-62.9	244	13
2023-09-11T12:00	12147	202	-58.7	-63.1	244	13
2023-09-11T12:00	12166	201	-58.8	-63.4	245	13
2023-09-11T12:00	12188	200	-58.9	-63.8	246	14
2023-09-11T12:00	12208	200	-58.9	-64.3	247	14
2023-09-11T12:00	12231	199	-58.9	-64.7	248	14
2023-09-11T12:00	12249	198	-58.9	-64.9	249	14
2023-09-11T12:00	12274	198	-59.0	-65.2	250	14
2023-09-11T12:00	12296	197	-59.0	-65.1	250	14
2023-09-11T12:00	12318	196	-59.2	-65.1	250	14
2023-09-11T12:00	12340	196	-59.3	-65.0	250	14
2023-09-11T12:00	12361	195	-59.4	-65.0	251	14
2023-09-11T12:00	12382	194	-59.6	-65.2	251	14
2023-09-11T12:00	12404	194	-59.7	-65.2	252	14
2023-09-11T12:00	12425	193	-59.8	-65.2	254	14
2023-09-11T12:00	12445	192	-59.9	-65.1	255	15
2023-09-11T12:00	12468	192	-60.0	-65.2	256	15
2023-09-11T12:00	12488	191	-60.0	-65.4	257	15
2023-09-11T12:00	12512	190	-60.0	-65.6	258	16
2023-09-11T12:00	12530	190	-60.2	-66.0	259	16
2023-09-11T12:00	12554	189	-60.2	-66.1	259	16
2023-09-11T12:00	12572	188	-60.3	-66.3	260	16
2023-09-11T12:00	12595	188	-60.5	-66.4	261	16
2023-09-11T12:00	12617	187	-60.7	-66.6	262	16
2023-09-11T12:00	12636	187	-60.9	-67.0	263	16
2023-09-11T12:00	12659	186	-61.0	-67.5	264	16
2023-09-11T12:00	12681	185	-61.0	-68.3	265	16
2023-09-11T12:00	12703	185	-61.0	-69.3	266	16
2023-09-11T12:00	12725	184	-60.9	-70.3	266	16
2023-09-11T12:00	12746	183	-60.9	-70.9	266	16
2023-09-11T12:00	12768	183	-61.1	-71.1	266	16
2023-09-11T12:00	12789	182	-61.2	-70.9	266	16
2023-09-11T12:00	12807	181	-61.3	-70.7	266	16
2023-09-11T12:00	12830	181	-61.3	-70.6	266	16
2023-09-11T12:00	12851	180	-61.2	-70.7	267	15
2023-09-11T12:00	12871	180	-61.0	-71.1	268	15
2023-09-11T12:00	12892	179	-61.1	-71.6	268	15
2023-09-11T12:00	12911	178	-61.2	-71.9	268	15
2023-09-11T12:00	12931	178	-61.2	-71.9	267	15
2023-09-11T12:00	12953	177	-61.2	-71.9	266	15
2023-09-11T12:00	12975	177	-61.3	-72.0	265	15
2023-09-11T12:00	12996	176	-61.4	-72.0	264	15
2023-09-11T12:00	13017	175	-61.5	-72.0	264	15
2023-09-11T12:00	13038	175	-61.6	-71.9	263	14
2023-09-11T12:00	13059	174	-61.7	-71.8	263	14
2023-09-11T12:00	13079	174	-61.9	-71.7	262	14
2023-09-11T12:00	13101	173	-62.0	-71.6	261	14
2023-09-11T12:00	13123	173	-62.2	-71.8	261	14
2023-09-11T12:00	13141	172	-62.4	-72.5	260	14
2023-09-11T12:00	13162	171	-62.1	-73.0	260	14
2023-09-11T12:00	13185	171	-61.6	-73.4	260	14
2023-09-11T12:00	13206	170	-61.8	-74.5	260	14
2023-09-11T12:00	13225	170	-61.8	-75.1	260	14
2023-09-11T12:00	13249	169	-61.8	-75.7	261	14
2023-09-11T12:00	13267	168	-61.8	-76.4	261	13
2023-09-11T12:00	13289	168	-61.8	-77.1	261	13
2023-09-11T12:00	13312	167	-61.7	-77.6	260	13
2023-09-11T12:00	13332	167	-61.8	-78.0	260	13
2023-09-11T12:00	13355	166	-61.9	-78.1	260	12
2023-09-11T12:00	13378	166	-61.9	-78.1	260	12
2023-09-11T12:00	13402	165	-61.9	-78.1	262	12
2023-09-11T12:00	13420	164	-61.9	-78.0	263	11
2023-09-11T12:00	13444	164	-61.9	-77.9	266	11
2023-09-11T12:00	13464	163	-61.9	-77.7	268	11
2023-09-11T12:00	13487	163	-61.8	-77.5	270	11
2023-09-11T12:00	13509	162	-61.8	-77.4	272	11
2023-09-11T12:00	13531	161	-61.9	-77.5	274	11
2023-09-11T12:00	13551	161	-61.9	-77.6	275	10
2023-09-11T12:00	13575	160	-61.9	-77.6	276	10
2023-09-11T12:00	13598	160	-61.9	-77.7	276	10
2023-09-11T12:00	13620	159	-61.9	-77.7	276	10
2023-09-11T12:00	13642	159	-61.9	-77.8	275	10
2023-09-11T12:00	13664	158	-62.0	-78.0	274	11
2023-09-11T12:00	13688	157	-62.1	-78.2	273	11
2023-09-11T12:00	13708	157	-62.2	-78.4	271	11
2023-09-11T12:00	13728	156	-62.3	-78.6	269	11
2023-09-11T12:00	13752	156	-62.5	-79.0	269	11
2023-09-11T12:00	13775	155	-62.5	-79.2	268	12
2023-09-11T12:00	13797	155	-62.5	-79.5	268	12
2023-09-11T12:00	13819	154	-62.5	-79.8	268	12
2023-09-11T12:00	13841	154	-62.6	-80.1	268	12
2023-09-11T12:00	13863	153	-62.6	-80.2	268	11
2023-09-11T12:00	13886	152	-62.5	-80.2	267	11
2023-09-11T12:00	13907	152	-62.3	-80.0	267	11
2023-09-11T12:00	13929	151	-62.1	-80.0	266	11
2023-09-11T12:00	13950	151	-62.1	-80.0	266	11
2023-09-11T12:00	13973	150	-62.1	-80.0	266	12
2023-09-11T12:00	13993	150	-62.1	-80.0	267	12
2023-09-11T12:00	14017	149	-62.1	-79.8	267	13
2023-09-11T12:00	14038	149	-62.2	-79.9	269	13
2023-09-11T12:00	14058	148	-62.3	-80.0	270	13
2023-09-11T12:00	14082	148	-62.3	-80.1	271	13
2023-09-11T12:00	14104	147	-62.2	-80.2	272	13
2023-09-11T12:00	14127	147	-62.0	-80.2	273	13
2023-09-11T12:00	14147	146	-62.1	-80.4	274	13
2023-09-11T12:00	14171	146	-62.2	-80.6	274	13
2023-09-11T12:00	14191	145	-62.2	-80.7	275	13
2023-09-11T12:00	14211	145	-62.3	-80.8	276	13
2023-09-11T12:00	14234	144	-62.5	-80.9	277	13
2023-09-11T12:00	14257	144	-62.6	-80.9	279	13
2023-09-11T12:00	14279	143	-62.6	-81.0	280	12
2023-09-11T12:00	14302	143	-62.7	-81.2	281	12
2023-09-11T12:00	14325	142	-62.3	-81.2	282	11
2023-09-11T12:00	14347	141	-62.1	-81.2	281	10
2023-09-11T12:00	14369	141	-61.7	-81.1	279	9
2023-09-11T12:00	14394	140	-61.6	-81.4	276	9
2023-09-11T12:00	14411	140	-61.7	-81.6	271	8
2023-09-11T12:00	14437	139	-61.6	-81.6	266	8
2023-09-11T12:00	14458	139	-61.5	-81.6	261	8
2023-09-11T12:00	14483	138	-61.7	-81.7	256	8
2023-09-11T12:00	14502	138	-61.8	-81.8	254	9
2023-09-11T12:00	14524	137	-62.0	-82.0	252	9
2023-09-11T12:00	14547	137	-62.0	-82.0	252	10
2023-09-11T12:00	14569	136	-61.8	-81.9	254	10
2023-09-11T12:00	14592	136	-61.6	-81.9	256	10
2023-09-11T12:00	14611	136	-61.6	-82.0	258	10
2023-09-11T12:00	14636	135	-61.7	-82.2	260	10
2023-09-11T12:00	14659	135	-61.7	-82.2	262	10
2023-09-11T12:00	14682	134	-61.7	-82.4	263	11
2023-09-11T12:00	14700	134	-61.7	-82.5	265	11
2023-09-11T12:00	14725	133	-61.6	-82.7	266	11
2023-09-11T12:00	14744	133	-61.4	-82.7	267	11
2023-09-11T12:00	14766	132	-61.4	-83.0	268	11
2023-09-11T12:00	14787	132	-61.4	-83.2	269	11
2023-09-11T12:00	14811	131	-61.5	-83.4	271	11
2023-09-11T12:00	14834	131	-61.5	-83.4	273	11
2023-09-11T12:00	14854	130	-61.5	-83.6	274	10
2023-09-11T12:00	14880	130	-61.4	-83.5	274	10
2023-09-11T12:00	14901	129	-61.3	-83.6	274	9
2023-09-11T12:00	14925	129	-60.9	-83.5	273	9
2023-09-11T12:00	14947	128	-60.7	-83.5	272	8
2023-09-11T12:00	14970	128	-60.7	-83.5	271	8
2023-09-11T12:00	14989	128	-60.8	-83.6	269	8
2023-09-11T12:00	15010	127	-60.8	-83.6	268	8
2023-09-11T12:00	15033	127	-60.7	-83.3	266	7
2023-09-11T12:00	15057	126	-60.8	-83.4	263	7
2023-09-11T12:00	15081	126	-60.8	-83.4	260	7
2023-09-11T12:00	15102	125	-60.9	-83.3	258	6
2023-09-11T12:00	15127	125	-61.0	-83.2	255	6
2023-09-11T12:00	15151	124	-61.2	-83.4	251	5
2023-09-11T12:00	15174	124	-61.2	-83.4	248	5
2023-09-11T12:00	15195	123	-61.1	-83.1	244	5
2023-09-11T12:00	15218	123	-61.2	-83.2	241	5
2023-09-11T12:00	15239	123	-61.4	-83.4	237	5
2023-09-11T12:00	15261	122	-61.6	-83.5	235	5
2023-09-11T12:00	15284	122	-61.8	-83.7	234	6
2023-09-11T12:00	15308	121	-62.0	-83.8	234	6
2023-09-11T12:00	15328	121	-61.9	-83.8	235	6
2023-09-11T12:00	15352	120	-61.9	-83.8	237	6
2023-09-11T12:00	15373	120	-62.0	-83.8	238	7
2023-09-11T12:00	15394	119	-62.1	-83.9	239	7
2023-09-11T12:00	15420	119	-62.1	-83.9	238	7
2023-09-11T12:00	15442	119	-62.1	-84.1	237	8
2023-09-11T12:00	15466	118	-62.0	-84.0	237	8
2023-09-11T12:00	15488	118	-62.1	-84.1	237	8
2023-09-11T12:00	15510	117	-62.3	-84.2	238	9
2023-09-11T12:00	15534	117	-62.4	-84.3	240	9
2023-09-11T12:00	15560	116	-62.1	-84.3	243	9
2023-09-11T12:00	15580	116	-61.9	-84.1	246	9
2023-09-11T12:00	15602	116	-62.0	-84.4	250	9
2023-09-11T12:00	15626	115	-62.0	-84.4	254	9
2023-09-11T12:00	15645	115	-62.1	-84.4	258	9
2023-09-11T12:00	15669	114	-62.2	-84.5	262	9
2023-09-11T12:00	15692	114	-62.2	-84.5	267	9
2023-09-11T12:00	15715	113	-62.2	-84.5	272	9
2023-09-11T12:00	15740	113	-62.3	-84.6	277	9
2023-09-11T12:00	15761	113	-62.3	-84.8	281	9
2023-09-11T12:00	15782	112	-62.4	-84.9	286	9
2023-09-11T12:00	15803	112	-62.4	-84.7	291	9
2023-09-11T12:00	15829	111	-62.4	-84.7	295	9
2023-09-11T12:00	15851	111	-62.3	-84.8	300	9
2023-09-11T12:00	15874	111	-62.2	-84.7	304	8
2023-09-11T12:00	15896	110	-62.2	-84.7	308	8
2023-09-11T12:00	15921	110	-62.2	-84.7	312	7
2023-09-11T12:00	15942	109	-62.2	-84.7	316	6
2023-09-11T12:00	15964	109	-62.1	-84.6	321	6
2023-09-11T12:00	15988	109	-62.2	-84.7	326	5
2023-09-11T12:00	16010	108	-62.3	-84.8	331	4
2023-09-11T12:00	16034	108	-62.3	-84.8	336	4
2023-09-11T12:00	16058	107	-62.1	-84.6	340	3
2023-09-11T12:00	16082	107	-62.2	-84.7	340	2
2023-09-11T12:00	16103	107	-62.3	-84.8	335	2
2023-09-11T12:00	16129	106	-62.4	-84.9	320	2
2023-09-11T12:00	16153	106	-62.4	-84.9	296	1
2023-09-11T12:00	16177	105	-62.6	-84.8	276	2
2023-09-11T12:00	16197	105	-62.8	-85.0	264	2
2023-09-11T12:00	16222	105	-62.9	-84.9	259	3
2023-09-11T12:00	16244	104	-63.1	-85.2	255	3
2023-09-11T12:00	16269	104	-63.1	-85.2	252	4
2023-09-11T12:00	16287	103	-63.0	-85.3	248	4
2023-09-11T12:00	16311	103	-62.7	-85.1	243	5
2023-09-11T12:00	16330	103	-62.4	-85.1	239	5
2023-09-11T12:00	16353	102	-62.3	-85.0	235	6
2023-09-11T12:00	16376	102	-62.2	-85.1	234	6
2023-09-11T12:00	16396	102	-62.1	-85.2	234	7
2023-09-11T12:00	16421	101	-61.7	-85.1	235	7
2023-09-11T12:00	16443	101	-61.4	-85.3	237	7
2023-09-11T12:00	16466	100	-61.1	-85.3	240	8
2023-09-11T12:00	16488	100	-60.8	-85.3	242	8
2023-09-11T12:00	16509	100	-60.8	-85.3	245	8
2023-09-11T12:00	16532	99	-60.8	-85.3	248	9
2023-09-11T12:00	16551	99	-60.8	-85.3	251	9
2023-09-11T12:00	16572	99	-60.8	-85.6	255	9
2023-09-11T12:00	16598	98	-60.8	-85.6	259	10
2023-09-11T12:00	16617	98	-60.7	-85.8	263	10
2023-09-11T12:00	16642	98	-60.2	-85.7	267	11
2023-09-11T12:00	16668	97	-60.0	-85.8	270	11
2023-09-11T12:00	16685	97	-59.7	-85.6	272	12
2023-09-11T12:00	16708	97	-59.3	-85.2	275	12
2023-09-11T12:00	16734	96	-59.4	-85.3	277	12
2023-09-11T12:00	16757	96	-59.5	-85.7	279	12
2023-09-11T12:00	16779	96	-59.4	-85.6	282	12
2023-09-11T12:00	16802	95	-59.5	-85.7	285	11
2023-09-11T12:00	16825	95	-59.3	-85.6	288	11
2023-09-11T12:00	16846	95	-59.1	-85.4	290	11
2023-09-11T12:00	16870	94	-59.2	-85.5	293	10
2023-09-11T12:00	16893	94	-59.2	-85.8	295	10
2023-09-11T12:00	16914	93	-59.3	-85.9	297	10
2023-09-11T12:00	16938	93	-59.4	-86.0	299	10
2023-09-11T12:00	16960	93	-59.3	-85.9	301	9
2023-09-11T12:00	16984	92	-59.2	-85.8	303	9
2023-09-11T12:00	17007	92	-59.3	-85.9	305	9
2023-09-11T12:00	17031	92	-59.4	-86.0	308	8
2023-09-11T12:00	17052	91	-59.4	-86.0	310	8
2023-09-11T12:00	17076	91	-59.3	-85.9	312	8
2023-09-11T12:00	17103	91	-59.3	-85.9	314	8
2023-09-11T12:00	17126	90	-59.3	-85.9	314	7
2023-09-11T12:00	17153	90	-59.3	-85.9	314	7
2023-09-11T12:00	17176	90	-59.3	-85.9	313	6
2023-09-11T12:00	17197	89	-59.4	-85.6	312	6
2023-09-11T12:00	17224	89	-59.5	-85.7	311	6
2023-09-11T12:00	17245	89	-59.7	-85.9	309	6
2023-09-11T12:00	17270	88	-59.9	-86.0	308	5
2023-09-11T12:00	17297	88	-59.9	-86.0	306	5
2023-09-11T12:00	17319	88	-59.9	-86.0	304	5
2023-09-11T12:00	17344	87	-59.9	-86.3	303	5
2023-09-11T12:00	17366	87	-60.0	-86.4	302	5
2023-09-11T12:00	17388	87	-59.9	-86.3	302	5
2023-09-11T12:00	17415	86	-59.7	-86.5	302	5
2023-09-11T12:00	17440	86	-59.5	-86.4	302	5
2023-09-11T12:00	17461	86	-59.2	-86.5	301	5
2023-09-11T12:00	17487	85	-59.2	-86.5	300	6
2023-09-11T12:00	17510	85	-59.1	-86.5	300	6
2023-09-11T12:00	17531	85	-59.1	-86.5	300	6
2023-09-11T12:00	17557	84	-59.1	-86.5	300	5
2023-09-11T12:00	17580	84	-59.2	-86.5	301	5
2023-09-11T12:00	17603	84	-59.3	-86.6	301	5
2023-09-11T12:00	17627	83	-59.3	-86.6	300	5
2023-09-11T12:00	17644	83	-59.1	-86.5	298	5
2023-09-11T12:00	17673	83	-58.9	-86.3	295	5
2023-09-11T12:00	17693	83	-59.0	-86.4	295	5
2023-09-11T12:00	17718	82	-59.1	-86.5	295	5
2023-09-11T12:00	17741	82	-59.2	-86.5	297	5
2023-09-11T12:00	17765	82	-59.2	-86.5	300	5
2023-09-11T12:00	17788	81	-59.3	-86.6	304	5
2023-09-11T12:00	17810	81	-59.3	-86.6	307	6
2023-09-11T12:00	17835	81	-59.2	-86.5	310	6
2023-09-11T12:00	17857	80	-59.0	-86.4	313	6
2023-09-11T12:00	17877	80	-58.8	-86.2	316	6
2023-09-11T12:00	17897	80	-58.6	-86.5	319	6
2023-09-11T12:00	17919	80	-58.7	-86.5	320	6
2023-09-11T12:00	17944	79	-58.5	-86.4	322	6
2023-09-11T12:00	17968	79	-58.5	-86.4	322	7
2023-09-11T12:00	17991	79	-58.6	-86.5	323	7
2023-09-11T12:00	18016	78	-58.6	-86.5	325	6
2023-09-11T12:00	18039	78	-58.5	-86.4	328	6
2023-09-11T12:00	18062	78	-58.3	-86.2	331	5
2023-09-11T12:00	18085	78	-58.3	-86.2	335	5
2023-09-11T12:00	18108	77	-58.4	-86.3	341	4
2023-09-11T12:00	18130	77	-58.5	-86.4	348	3
2023-09-11T12:00	18155	77	-58.5	-86.4	357	3
2023-09-11T12:00	18176	76	-58.5	-86.4	9	2
2023-09-11T12:00	18200	76	-58.5	-86.4	23	2
2023-09-11T12:00	18225	76	-58.6	-86.5	40	2
2023-09-11T12:00	18250	76	-58.7	-86.5	60	2
2023-09-11T12:00	18276	75	-58.7	-86.5	85	2
2023-09-11T12:00	18294	75	-58.6	-86.5	109	2
2023-09-11T12:00	18317	75	-58.6	-86.5	129	2
2023-09-11T12:00	18341	74	-58.6	-86.5	142	2
2023-09-11T12:00	18365	74	-58.7	-86.5	154	3
2023-09-11T12:00	18390	74	-58.9	-86.7	167	3
2023-09-11T12:00	18413	74	-58.9	-86.7	182	3
2023-09-11T12:00	18437	73	-58.9	-86.7	199	3
2023-09-11T12:00	18461	73	-58.8	-86.6	214	4
2023-09-11T12:00	18486	73	-58.7	-86.5	226	4
2023-09-11T12:00	18508	73	-58.5	-86.4	236	5
2023-09-11T12:00	18530	72	-58.5	-86.4	244	5
2023-09-11T12:00	18556	72	-58.6	-86.5	252	5
2023-09-11T12:00	18579	72	-58.7	-86.5	260	5
2023-09-11T12:00	18602	71	-58.7	-86.5	267	5
2023-09-11T12:00	18630	71	-58.6	-86.5	275	5
2023-09-11T12:00	18654	71	-58.5	-86.8	283	5
2023-09-11T12:00	18675	71	-58.3	-86.7	290	5
2023-09-11T12:00	18700	70	-58.2	-86.6	296	4
2023-09-11T12:00	18724	70	-58.2	-86.6	301	4
2023-09-11T12:00	18748	70	-58.2	-86.6	306	4
2023-09-11T12:00	18770	70	-58.1	-86.5	311	4
2023-09-11T12:00	18794	69	-58.0	-86.4	316	4
2023-09-11T12:00	18818	69	-58.1	-86.5	321	4
2023-09-11T12:00	18844	69	-58.1	-86.5	324	5
2023-09-11T12:00	18863	69	-57.9	-86.4	326	5
2023-09-11T12:00	18888	68	-57.9	-86.4	326	5
2023-09-11T12:00	18910	68	-57.8	-86.7	325	6
2023-09-11T12:00	18933	68	-57.6	-86.6	322	6
2023-09-11T12:00	18962	67	-57.5	-86.5	319	6
2023-09-11T12:00	18983	67	-57.5	-86.5	316	5
2023-09-11T12:00	19011	67	-57.5	-86.5	312	5
2023-09-11T12:00	19035	67	-57.5	-86.1	310	5
2023-09-11T12:00	19057	66	-57.6	-86.1	308	4
2023-09-11T12:00	19083	66	-57.6	-86.1	308	4
2023-09-11T12:00	19108	66	-57.6	-86.1	311	4
2023-09-11T12:00	19131	66	-57.7	-86.2	316	4
2023-09-11T12:00	19153	65	-57.7	-86.2	322	3
2023-09-11T12:00	19179	65	-57.8	-86.3	330	3
2023-09-11T12:00	19202	65	-57.8	-86.3	339	3
2023-09-11T12:00	19227	65	-57.9	-86.4	347	3
2023-09-11T12:00	19254	64	-58.0	-86.4	355	3
2023-09-11T12:00	19281	64	-58.1	-86.5	3	3
2023-09-11T12:00	19302	64	-58.2	-86.2	10	3
2023-09-11T12:00	19328	64	-58.3	-86.2	17	3
2023-09-11T12:00	19352	63	-58.4	-86.3	25	2
2023-09-11T12:00	19379	63	-58.3	-86.7	33	2
2023-09-11T12:00	19403	63	-58.4	-86.7	40	2
2023-09-11T12:00	19426	63	-58.4	-86.7	44	1
2023-09-11T12:00	19450	62	-58.5	-86.8	43	1
2023-09-11T12:00	19478	62	-58.5	-86.8	26	0
2023-09-11T12:00	19503	62	-58.6	-86.9	248	0
2023-09-11T12:00	19531	62	-58.6	-86.9	239	1
2023-09-11T12:00	19553	61	-58.6	-86.9	238	2
2023-09-11T12:00	19583	61	-58.7	-87.0	240	2
2023-09-11T12:00	19604	61	-58.7	-87.0	243	2
2023-09-11T12:00	19630	61	-58.6	-86.9	249	2
2023-09-11T12:00	19651	60	-58.5	-86.8	258	2
2023-09-11T12:00	19676	60	-58.5	-86.8	268	2
2023-09-11T12:00	19700	60	-58.4	-86.7	278	2
2023-09-11T12:00	19723	60	-58.3	-86.7	288	2
2023-09-11T12:00	19746	60	-58.4	-86.7	298	2
2023-09-11T12:00	19771	59	-58.4	-86.7	305	2
2023-09-11T12:00	19795	59	-58.3	-86.7	309	2
2023-09-11T12:00	19820	59	-58.2	-86.6	309	1
2023-09-11T12:00	19849	59	-58.3	-86.7	299	1
2023-09-11T12:00	19873	58	-58.3	-86.7	271	1
2023-09-11T12:00	19895	58	-58.2	-87.0	239	1
2023-09-11T12:00	19922	58	-58.1	-87.0	228	1
2023-09-11T12:00	19944	58	-58.0	-86.9	231	1
2023-09-11T12:00	19972	57	-57.9	-86.8	243	1
2023-09-11T12:00	19996	57	-57.8	-86.7	253	1
2023-09-11T12:00	20022	57	-57.5	-86.5	257	1
2023-09-11T12:00	20045	57	-57.4	-86.4	254	1
2023-09-11T12:00	20071	57	-57.3	-86.4	246	1
2023-09-11T12:00	20097	56	-57.3	-86.4	238	1
2023-09-11T12:00	20121	56	-57.4	-86.4	236	1
2023-09-11T12:00	20148	56	-57.4	-86.4	243	1
2023-09-11T12:00	20172	56	-57.3	-86.4	261	1
2023-09-11T12:00	20194	55	-57.3	-86.4	282	1
2023-09-11T12:00	20218	55	-57.3	-86.4	299	1
2023-09-11T12:00	20245	55	-57.3	-86.4	310	2
2023-09-11T12:00	20266	55	-57.4	-86.4	317	2
2023-09-11T12:00	20297	55	-57.4	-86.4	321	2
2023-09-11T12:00	20320	54	-57.3	-86.4	322	3
2023-09-11T12:00	20342	54	-57.3	-86.4	323	3
2023-09-11T12:00	20369	54	-57.3	-86.4	321	3
2023-09-11T12:00	20399	54	-57.3	-86.4	317	2
2023-09-11T12:00	20422	54	-57.2	-86.3	308	2
2023-09-11T12:00	20446	53	-57.3	-86.4	290	1
2023-09-11T12:00	20467	53	-57.5	-86.5	262	1
2023-09-11T12:00	20495	53	-57.7	-86.7	234	1
2023-09-11T12:00	20521	53	-57.8	-86.3	220	2
2023-09-11T12:00	20547	52	-58.0	-86.4	216	3
2023-09-11T12:00	20575	52	-58.2	-86.6	216	3
2023-09-11T12:00	20604	52	-58.3	-86.7	219	4
2023-09-11T12:00	20628	52	-58.3	-86.7	224	4
2023-09-11T12:00	20655	52	-58.3	-86.7	229	4
2023-09-11T12:00	20681	51	-58.4	-86.7	236	4
2023-09-11T12:00	20700	51	-58.5	-86.8	243	4
2023-09-11T12:00	20725	51	-58.5	-86.8	250	4
2023-09-11T12:00	20755	51	-58.4	-86.7	255	4
2023-09-11T12:00	20781	51	-58.3	-87.1	258	5
2023-09-11T12:00	20804	50	-58.3	-87.1	260	5
2023-09-11T12:00	20832	50	-58.2	-87.0	262	5
2023-09-11T12:00	20858	50	-58.1	-87.0	266	6
2023-09-11T12:00	20885	50	-58.0	-86.9	271	6
2023-09-11T12:00	20906	50	-58.0	-86.9	278	5
2023-09-11T12:00	20936	49	-57.9	-86.8	286	5
2023-09-11T12:00	20959	49	-57.7	-87.2	294	5
2023-09-11T12:00	20982	49	-57.5	-87.0	302	6
2023-09-11T12:00	21009	49	-57.2	-86.8	308	6
2023-09-11T12:00	21031	49	-57.1	-86.7	314	6
2023-09-11T12:00	21055	48	-57.1	-86.7	319	7
2023-09-11T12:00	21082	48	-57.1	-86.7	324	7
2023-09-11T12:00	21111	48	-57.1	-86.7	329	7
2023-09-11T12:00	21136	48	-57.1	-86.7	334	7
2023-09-11T12:00	21157	48	-57.1	-86.7	339	7
2023-09-11T12:00	21190	47	-57.2	-86.3	345	7
2023-09-11T12:00	21212	47	-57.3	-86.4	350	7
2023-09-11T12:00	21237	47	-57.4	-86.4	355	7
2023-09-11T12:00	21262	47	-57.5	-86.5	359	7
2023-09-11T12:00	21298	47	-57.7	-86.7	3	7
2023-09-11T12:00	21316	46	-57.8	-86.7	6	7
2023-09-11T12:00	21343	46	-57.9	-86.8	10	6
2023-09-11T12:00	21370	46	-58.0	-86.4	13	6
2023-09-11T12:00	21394	46	-58.1	-86.5	18	5
2023-09-11T12:00	21422	46	-58.2	-86.6	24	4
2023-09-11T12:00	21448	46	-58.3	-86.7	31	3
2023-09-11T12:00	21472	45	-58.4	-86.7	39	2
2023-09-11T12:00	21494	45	-58.4	-86.7	46	2
2023-09-11T12:00	21519	45	-58.4	-87.2	49	2
2023-09-11T12:00	21548	45	-58.4	-87.2	45	1
2023-09-11T12:00	21578	45	-58.4	-87.2	36	1
2023-09-11T12:00	21598	44	-58.4	-87.2	27	1
2023-09-11T12:00	21625	44	-58.3	-87.1	22	1
2023-09-11T12:00	21650	44	-58.1	-87.4	20	1
2023-09-11T12:00	21677	44	-57.9	-87.3	19	2
2023-09-11T12:00	21699	44	-57.8	-87.2	17	2
2023-09-11T12:00	21723	44	-57.5	-87.0	16	2
2023-09-11T12:00	21753	43	-57.3	-87.4	17	2
2023-09-11T12:00	21773	43	-57.2	-87.3	20	2
2023-09-11T12:00	21805	43	-57.0	-87.2	24	3
2023-09-11T12:00	21827	43	-56.9	-87.1	30	3
2023-09-11T12:00	21851	43	-56.8	-87.0	37	3
2023-09-11T12:00	21879	42	-56.8	-86.5	47	3
2023-09-11T12:00	21903	42	-56.7	-86.4	57	4
2023-09-11T12:00	21929	42	-56.7	-86.4	67	4
2023-09-11T12:00	21947	42	-56.7	-86.4	75	5
2023-09-11T12:00	21980	42	-56.5	-86.3	79	5
2023-09-11T12:00	22005	42	-56.4	-86.2	81	5
2023-09-11T12:00	22029	41	-56.5	-86.3	81	5
2023-09-11T12:00	22056	41	-56.5	-86.3	81	4
2023-09-11T12:00	22084	41	-56.5	-86.3	79	4
2023-09-11T12:00	22104	41	-56.5	-86.3	77	4
2023-09-11T12:00	22130	41	-56.4	-86.2	75	4
2023-09-11T12:00	22161	41	-56.4	-86.2	74	4
2023-09-11T12:00	22180	40	-56.4	-86.2	74	4
2023-09-11T12:00	22215	40	-56.5	-86.3	76	4
2023-09-11T12:00	22235	40	-56.6	-86.3	80	4
2023-09-11T12:00	22259	40	-56.5	-86.3	86	5
2023-09-11T12:00	22290	40	-56.5	-86.3	94	5
2023-09-11T12:00	22315	40	-56.5	-86.3	101	5
2023-09-11T12:00	22341	40	-56.5	-86.3	107	6
2023-09-11T12:00	22370	39	-56.5	-86.3	111	6
2023-09-11T12:00	22392	39	-56.4		115	7
2023-09-11T12:00	22418	39	-56.2	-86.6	118	7
2023-09-11T12:00	22443	39	-56.2	-86.6	121	6
2023-09-11T12:00	22475	39	-56.1	-86.5	125	6
2023-09-11T12:00	22498	39	-56.2	-86.0	129	5
2023-09-11T12:00	22520	38	-56.3	-86.1	133	5
2023-09-11T12:00	22548	38	-56.3	-86.1	135	4
2023-09-11T12:00	22572	38	-56.3	-86.1	135	4
2023-09-11T12:00	22604	38	-56.3	-86.1	133	3
2023-09-11T12:00	22622	38	-56.2	-86.0	130	3
2023-09-11T12:00	22654	38	-56.2	-86.6	129	4
2023-09-11T12:00	22685	37	-56.1	-86.5	130	4
2023-09-11T12:00	22709	37	-56.1	-86.5	134	5
2023-09-11T12:00	22730	37	-56.1	-86.5	138	5
2023-09-11T12:00	22765	37	-56.0	-86.4	143	6
2023-09-11T12:00	22787	37	-56.0	-86.4	146	7
2023-09-11T12:00	22811	37	-55.9	-86.3	149	7
2023-09-11T12:00	22837	37	-55.9	-86.3	152	8
2023-09-11T12:00	22867	36	-56.0	-85.9	154	8
2023-09-11T12:00	22894	36	-56.1	-86.0	156	8
2023-09-11T12:00	22922	36	-56.3	-86.1	158	8
2023-09-11T12:00	22946	36	-56.4	-86.2	161	8
2023-09-11T12:00	22974	36	-56.5	-86.3	165	8
2023-09-11T12:00	23000	36	-56.6	-86.3	170	8
2023-09-11T12:00	23029	35	-56.7	-86.4	175	7
2023-09-11T12:00	23052	35	-56.6	-86.3	181	6
2023-09-11T12:00	23079	35	-56.6	-86.3	189	5
2023-09-11T12:00	23106	35	-56.6	-86.3	199	4
2023-09-11T12:00	23128	35	-56.6	-86.3	209	4
2023-09-11T12:00	23158	35	-56.5	-86.3	220	3
2023-09-11T12:00	23184	35	-56.6	-86.3	231	2
2023-09-11T12:00	23209	34	-56.5	-86.8	243	2
2023-09-11T12:00	23239	34	-56.2	-86.6	261	2
2023-09-11T12:00	23269	34	-56.1	-86.5	291	1
2023-09-11T12:00	23290	34	-56.1	-86.5	324	1
2023-09-11T12:00	23318	34	-56.0	-86.4	344	2
2023-09-11T12:00	23347	34	-55.8	-86.3	355	2
2023-09-11T12:00	23375	34	-55.6	-86.1	4	2
2023-09-11T12:00	23404	33	-55.3	-85.9	14	2
2023-09-11T12:00	23427	33	-55.3	-85.9	30	1
2023-09-11T12:00	23454	33	-55.5	-86.1	62	1
2023-09-11T12:00	23479	33	-55.6	-86.1	98	1
2023-09-11T12:00	23507	33	-55.6	-86.1	117	1
2023-09-11T12:00	23534	33	-55.7	-86.2	126	2
2023-09-11T12:00	23563	33	-55.8	-86.3	130	2
2023-09-11T12:00	23590	32	-55.9	-86.3	133	3
2023-09-11T12:00	23611	32	-55.8	-86.3	135	3
2023-09-11T12:00	23644	32	-55.8	-86.3	137	2
2023-09-11T12:00	23669	32	-55.8	-86.3	141	2
2023-09-11T12:00	23697	32	-55.8	-86.3	146	2
2023-09-11T12:00	23720	32	-55.9	-86.3	153	2
2023-09-11T12:00	23747	32	-56.0	-86.4	160	3
2023-09-11T12:00	23769	32	-56.0	-86.4	166	3
2023-09-11T12:00	23807	31	-56.0	-86.4	170	3
2023-09-11T12:00	23830	31	-55.9	-86.3	173	4
2023-09-11T12:00	23856	31	-55.9	-86.3	175	4
2023-09-11T12:00	23877	31	-56.0	-85.9	176	5
2023-09-11T12:00	23903	31	-56.2	-86.0	178	5
2023-09-11T12:00	23937	31	-56.3	-86.1	181	5
2023-09-11T12:00	23967	31	-56.4	-86.2	185	5
2023-09-11T12:00	23993	30	-56.4	-86.2	190	5
2023-09-11T12:00	24015	30	-56.4	-86.2	196	4
2023-09-11T12:00	24042	30	-56.5	-86.3	200	4
2023-09-11T12:00	24076	30	-56.4	-86.2	204	4
2023-09-11T12:00	24104	30	-56.4	-86.2	207	5
2023-09-11T12:00	24126	30	-56.4	-86.2	209	5
2023-09-11T12:00	24152	30	-56.4	-86.2	210	5
2023-09-11T12:00	24186	30	-56.5	-86.3	211	5
2023-09-11T12:00	24210	29	-56.6	-86.3	211	5
2023-09-11T12:00	24240	29	-56.8	-86.5	210	5
2023-09-11T12:00	24258	29	-56.7	-86.4	208	5
2023-09-11T12:00	24292	29	-56.7	-86.4	206	4
2023-09-11T12:00	24323	29	-56.6	-86.3	202	3
2023-09-11T12:00	24338	29	-56.7	-86.4	197	3
2023-09-11T12:00	24367	29	-56.7	-86.4	186	2
2023-09-11T12:00	24394	29	-56.7	-86.9	164	1
2023-09-11T12:00	24422	28	-56.6	-86.9	126	1
2023-09-11T12:00	24456	28	-56.6	-86.9	101	2
2023-09-11T12:00	24482	28	-56.5	-86.8	94	3
2023-09-11T12:00	24514	28	-56.3	-86.6	96	3
2023-09-11T12:00	24535	28	-56.0	-87.0	101	4
2023-09-11T12:00	24565	28	-55.8	-86.9	108	4
2023-09-11T12:00	24591	28	-55.4	-86.6	116	4
2023-09-11T12:00	24616	28	-55.1	-86.4	125	4
2023-09-11T12:00	24642	28	-54.8	-86.1	133	4
2023-09-11T12:00	24681	27	-54.6	-86.0	142	3
2023-09-11T12:00	24707	27	-54.6	-86.0	151	3
2023-09-11T12:00	24726	27	-54.5	-85.9	160	3
2023-09-11T12:00	24753	27	-54.4	-85.8	166	3
2023-09-11T12:00	24785	27	-54.2	-85.7	168	3
2023-09-11T12:00	24807	27	-54.1	-85.6	168	4
2023-09-11T12:00	24836	27	-54.2	-85.7	167	4
2023-09-11T12:00	24871	27	-54.4	-85.2	166	5
2023-09-11T12:00	24893	26	-54.5	-85.3	166	5
2023-09-11T12:00	24909	26	-54.6	-85.4	168	6
2023-09-11T12:00	24941	26	-54.7	-85.5	173	6
2023-09-11T12:00	24974	26	-54.8	-85.5	178	6
2023-09-11T12:00	25005	26	-54.9	-85.6	185	6
2023-09-11T12:00	25023	26	-55.0	-85.7	191	5
2023-09-11T12:00	25057	26	-55.1	-85.8	196	5
2023-09-11T12:00	25089	26	-55.2	-85.8	201	5
2023-09-11T12:00	25107	26	-55.4	-86.0	206	4
2023-09-11T12:00	25140	25	-55.5	-85.5	212	4
2023-09-11T12:00	25164	25	-55.7	-85.7	219	3
2023-09-11T12:00	25200	25	-55.9	-85.8	226	3
2023-09-11T12:00	25212	25	-56.0	-86.4	232	2
2023-09-11T12:00	25254	25	-55.7	-86.2	237	2
2023-09-11T12:00	25277	25	-55.6	-86.1	240	1
2023-09-11T12:00	25305	25	-55.4	-86.6	238	1
2023-09-11T12:00	25328	25	-55.3	-86.5	231	1
2023-09-11T12:00	25360	25	-54.9	-86.2	224	2
2023-09-11T12:00	25399	24	-54.6	-86.0	218	2
2023-09-11T12:00	25420	24	-54.3	-85.8	216	3
2023-09-11T12:00	25436	24	-54.3	-85.8	216	3
2023-09-11T12:00	25472	24	-54.3	-85.8	217	3
2023-09-11T12:00	25497	24	-54.3	-85.8	221	3
2023-09-11T12:00	25532	24	-54.5	-85.9	228	2
2023-09-11T12:00	25561	24	-54.5	-85.9	239	2
2023-09-11T12:00	25582	24	-54.4	-85.8	252	2
2023-09-11T12:00	25614	24	-54.3	-85.8	270	1
2023-09-11T12:00	25640	24	-54.2	-85.7	291	1
2023-09-11T12:00	25655	23	-54.1	-85.6	309	1
2023-09-11T12:00	25694	23	-53.8	-85.4	314	1
2023-09-11T12:00	25724	23	-53.7	-85.3	303	1
2023-09-11T12:00	25751	23	-53.7	-85.3	287	1
2023-09-11T12:00	25779	23	-53.7	-85.3	279	1
2023-09-11T12:00	25802	23	-53.8	-86.1	278	1
2023-09-11T12:00	25833	23	-53.6		283	1
2023-09-11T12:00	25854	23	-53.3	-85.7	296	1
2023-09-11T12:00	25893	23	-53.2	-85.6	316	1
2023-09-11T12:00	25930	23	-53.1	-85.6	335	2
2023-09-11T12:00	25941	22	-53.0	-85.5	350	2
2023-09-11T12:00	25968	22	-53.0	-85.5	1	2
2023-09-11T12:00	26005	22	-53.0	-85.5	13	3
2023-09-11T12:00	26036	22	-53.0	-85.5	26	3
2023-09-11T12:00	26062	22	-53.0	-85.5	42	3
2023-09-11T12:00	26099	22	-52.9	-85.4	60	3
2023-09-11T12:00	26113	22	-53.0	-85.5	77	3
2023-09-11T12:00	26146	22	-53.0	-85.5	92	3
2023-09-11T12:00	26177	22	-52.9	-85.4	107	4
2023-09-11T12:00	26201	22	-52.7	-85.3	121	4
2023-09-11T12:00	26240	21	-52.4	-85.1	135	4
2023-09-11T12:00	26254	21	-51.8	-85.4	152	4
2023-09-11T12:00	26289	21	-51.4	-85.1	169	4
2023-09-11T12:00	26318	21	-51.1	-84.9	185	5
2023-09-11T12:00	26349	21	-50.9	-84.7	197	5
2023-09-11T12:00	26377	21	-50.8	-84.7	204	6
2023-09-11T12:00	26403	21	-50.6	-84.5	207	6
2023-09-11T12:00	26436	21	-50.4	-84.4	209	6
2023-09-11T12:00	26464	21	-50.3	-84.3	209	6
2023-09-11T12:00	26490	21	-50.4	-84.4	208	6
2023-09-11T12:00	26529	21	-50.5	-84.5	206	6
2023-09-11T12:00	26555	20	-50.6	-84.5	205	5
2023-09-11T12:00	26579	20	-50.7	-84.6	205	5
2023-09-11T12:00	26595	20	-50.6	-84.5	206	5
2023-09-11T12:00	26632	20	-50.6	-84.5	210	5
2023-09-11T12:00	26652	20	-50.5	-84.5	214	5
2023-09-11T12:00	26677	20	-50.4	-84.4	219	6
2023-09-11T12:00	26715	20	-50.3	-84.3	222	6
2023-09-11T12:00	26744	20	-50.5	-84.5	223	6
2023-09-11T12:00	26765	20	-50.6	-83.7	222	6
2023-09-11T12:00	26798	20	-50.6	-83.7	219	6
2023-09-11T12:00	26830	20	-50.7	-83.8	215	5
2023-09-11T12:00	26846	20	-50.8	-83.9	211	5
2023-09-11T12:00	26883	19	-51.0	-84.0	211	5
2023-09-11T12:00	26905	19	-51.2	-84.2	213	5
2023-09-11T12:00	26930	19	-51.2	-84.2	218	6
2023-09-11T12:00	26959	19	-51.2	-84.2	223	6
2023-09-11T12:00	26996	19	-51.2	-84.2	228	6
2023-09-11T12:00	27017	19	-51.2	-84.2	231	7
2023-09-11T12:00	27047	19	-51.1	-84.1	233	7
2023-09-11T12:00	27068	19	-51.0	-84.0	234	7
2023-09-11T12:00	27100	19	-50.9	-84.7	235	7
2023-09-11T12:00	27127	19	-50.9	-84.7	237	7
2023-09-11T12:00	27156	19	-50.9	-84.7	240	7
2023-09-11T12:00	27182	19	-50.9	-84.7	243	7
2023-09-11T12:00	27213	18	-50.8	-84.7	246	7
2023-09-11T12:00	27236	18	-50.3	-84.3	248	7
2023-09-11T12:00	27271	18	-49.9	-84.0	249	7
2023-09-11T12:00	27305	18	-49.6	-83.8	250	7
2023-09-11T12:00	27339	18	-49.5	-83.7	251	6
2023-09-11T12:00	27368	18	-49.6	-83.8	252	6
2023-09-11T12:00	27394	18	-49.6	-83.8	253	6
2023-09-11T12:00	27423	18	-49.5	-83.7	255	6
2023-09-11T12:00	27448	18	-49.4	-83.7	257	7
2023-09-11T12:00	27478	18	-49.4	-83.7	260	7
2023-09-11T12:00	27504	18	-49.4	-83.7	262	7
2023-09-11T12:00	27540	18	-49.4	-83.7	265	7
2023-09-11T12:00	27563	18	-49.4	-83.7	268	6
2023-09-11T12:00	27590	17	-49.5	-83.7	272	6
2023-09-11T12:00	27617	17	-49.5	-83.7	276	6
2023-09-11T12:00	27646	17	-49.5	-83.7	279	6
2023-09-11T12:00	27681	17	-49.4	-83.7	282	6
2023-09-11T12:00	27706	17	-49.5	-83.7	284	5
2023-09-11T12:00	27735	17	-49.4	-83.7	286	5
2023-09-11T12:00	27754	17	-49.4	-83.7	286	4
2023-09-11T12:00	27795	17	-49.4	-83.7	283	3
2023-09-11T12:00	27821	17	-49.5	-83.7	274	2
2023-09-11T12:00	27844	17	-49.6	-83.8	256	2
2023-09-11T12:00	27876	17	-49.7	-83.9	237	2
2023-09-11T12:00	27912	17	-49.7	-83.9	228	3
2023-09-11T12:00	27935	17	-49.6	-83.8	227	3
2023-09-11T12:00	27960	16	-49.6	-83.8	230	4
2023-09-11T12:00	27995	16	-49.6	-83.8	234	5
2023-09-11T12:00	28031	16	-49.6	-83.8	239	5
2023-09-11T12:00	28052	16	-49.6	-83.8	244	6
2023-09-11T12:00	28087	16	-49.6	-83.8	248	6
2023-09-11T12:00	28108	16	-49.4	-83.7	250	6
2023-09-11T12:00	28138	16	-49.1	-83.4	251	6
2023-09-11T12:00	28160	16	-48.9	-83.3	251	6
2023-09-11T12:00	28203	16	-48.9	-83.3	250	7
2023-09-11T12:00	28215	16	-49.0	-83.4	248	7
2023-09-11T12:00	28247	16	-49.1	-83.4	245	8
2023-09-11T12:00	28287	16	-49.2	-83.5	243	8
2023-09-11T12:00	28311	16	-49.0	-83.4	241	8
2023-09-11T12:00	28347	16	-48.8	-84.1	239	8
2023-09-11T12:00	28369	15	-48.7	-84.1	238	7
2023-09-11T12:00	28401	15	-48.7	-84.1	237	7
2023-09-11T12:00	28429	15	-48.6		238	7
2023-09-11T12:00	28463	15	-48.4	-83.8	240	7
2023-09-11T12:00	28477	15	-48.2	-83.7	242	7
2023-09-11T12:00	28482	15	-48.1	-83.6	242	7
2023-09-11T12:00	28549	15	-48.0	-83.6	243	7
2023-09-11T12:00	28564	15	-47.8	-83.4	243	7
2023-09-11T12:00	28602	15	-47.4	-83.1	244	7
2023-09-11T12:00	28625	15	-47.1	-82.9	245	7
2023-09-11T12:00	28646	15	-46.9	-83.9	246	7
2023-09-11T12:00	28690	15	-46.8	-83.8	247	7
2023-09-11T12:00	28697	15	-46.6	-83.6	247	8
2023-09-11T12:00	28735	15	-46.1	-83.3	248	8
2023-09-11T12:00	28771	15	-45.7	-83.0	249	9
2023-09-11T12:00	28795	15	-45.6	-82.9	250	10
2023-09-11T12:00	28837	14	-45.7	-83.0	251	10
2023-09-11T12:00	28851	14	-45.6	-82.9	252	11
2023-09-11T12:00	28876	14	-45.5	-82.9	253	11
2023-09-11T12:00	28903	14	-45.4	-82.8	254	11
2023-09-11T12:00	28934	14	-45.4	-82.8	255	11
2023-09-11T12:00	28955	14	-45.5	-82.9	256	11
2023-09-11T12:00	28995	14	-45.6	-82.9	257	11
2023-09-11T12:00	29018	14	-45.6	-82.9	258	11
2023-09-11T12:00	29040	14	-45.8	-82.0	258	11
2023-09-11T12:00	29091	14	-45.9	-82.1	258	11
2023-09-11T12:00	29114	14	-45.9	-82.1	257	11
2023-09-11T12:00	29128	14	-46.0	-82.1	257	11
2023-09-11T12:00	29153	14	-46.1	-82.2	258	11
2023-09-11T12:00	29181	14	-46.2	-82.3	258	11
2023-09-11T12:00	29213	14	-46.2	-82.3	260	11
2023-09-11T12:00	29249	14	-46.3	-82.4	261	12
2023-09-11T12:00	29279	14	-46.4	-82.4	263	12
2023-09-11T12:00	29298	13	-46.5	-82.5	264	12
2023-09-11T12:00	29327	13	-46.5	-82.5	265	12
2023-09-11T12:00	29335	13	-46.6	-82.6	264	12
2023-09-11T12:00	29375	13	-46.5	-82.5	263	12
2023-09-11T12:00	29418	13	-46.5	-82.5	262	12
2023-09-11T12:00	29434	13	-46.5	-82.5	260	12
2023-09-11T12:00	29474	13	-46.5	-82.5	259	12
2023-09-11T12:00	29489	13	-46.4	-83.5	259	11
2023-09-11T12:00	29518	13	-46.2	-83.4	261	11
2023-09-11T12:00	29546	13	-46.2	-83.4	263	12
2023-09-11T12:00	29608	13	-46.3	-83.4	266	12
2023-09-11T12:00	29615	13	-46.3	-82.4	268	12
2023-09-11T12:00	29635	13	-46.3	-82.4	269	12
2023-09-11T12:00	29659	13	-46.4	-82.4	270	12
2023-09-11T12:00	29713	13	-46.4	-82.4	270	12
2023-09-11T12:00	29716	13	-46.4	-82.4	269	12
2023-09-11T12:00	29750	13	-46.3	-83.4	269	12
2023-09-11T12:00	29780	13	-46.4	-83.5	268	12
2023-09-11T12:00	29804	12	-46.3	-83.4	268	12
2023-09-11T12:00	29851	12	-46.2	-83.4	268	12
2023-09-11T12:00	29876	12	-46.1	-83.3	268	12
2023-09-11T12:00	29895	12	-46.0	-83.2	267	12
2023-09-11T12:00	29918	12	-45.9	-83.2	265	12
2023-09-11T12:00	29962	12	-45.7	-83.0	264	11
2023-09-11T12:00	29971	12	-45.3	-82.7	262	11
2023-09-11T12:00	30007	12	-45.0	-82.5	262	10
2023-09-11T12:00	30038	12	-45.0	-82.5	262	9
2023-09-11T12:00	30064	12	-45.1	-82.6	264	9
2023-09-11T12:00	30103	12	-45.1	-82.6	267	8
2023-09-11T12:00	30133	12	-45.2	-82.7	269	8
2023-09-11T12:00	30162	12	-45.3	-82.7	270	8
2023-09-11T12:00	30189	12	-45.5	-82.9	270	8
2023-09-11T12:00	30212	12	-45.6	-82.9	269	8
2023-09-11T12:00	30236	12	-45.5	-82.9	267	8
2023-09-11T12:00	30266	12	-45.3	-82.7	267	9
2023-09-11T12:00	30315	12	-45.1	-82.6	267	9
2023-09-11T12:00	30329	12	-44.9	-82.5	269	10
2023-09-11T12:00	30357	11	-44.8	-82.4	272	10
2023-09-11T12:00	30400	11	-44.8	-82.4	275	11
2023-09-11T12:00	30425	11	-44.6	-82.2	278	11
2023-09-11T12:00	30447	11	-44.4	-82.1	282	12
2023-09-11T12:00	30476	11	-44.1	-81.9	285	12
2023-09-11T12:00	30508	11	-43.9	-81.8	289	12
2023-09-11T12:00	30521	11	-43.9	-81.8	292	12
2023-09-11T12:00	30565	11	-43.9	-81.8	296	12
2023-09-11T12:00	30587	11	-44.0	-81.8	299	12
2023-09-11T12:00	30627	11	-44.0	-81.8	301	11
2023-09-11T12:00	30654	11	-44.0	-81.8	303	11
2023-09-11T12:00	30679	11	-44.1	-81.9	305	10
2023-09-11T12:00	30692	11	-44.3	-82.0	306	10
2023-09-11T12:00	30737	11	-44.5	-82.2	308	9
2023-09-11T12:00	30767	11	-44.7	-82.3	310	8
2023-09-11T12:00	30786	11	-44.8	-82.4	312	8
2023-09-11T12:00	30807	11	-44.8	-82.4	314	7
2023-09-11T12:00	30844	11	-44.8	-82.4	316	7
2023-09-11T12:00	30873	11	-44.8	-82.4	317	6
2023-09-11T12:00	30892	11	-44.8	-82.4	318	6
2023-09-11T12:00	30939	11	-44.8	-82.4	320	5
2023-09-11T12:00	30963	11	-44.9	-82.5	323	5
2023-09-11T12:00	30998	10	-45.0	-82.5	325	5
2023-09-11T12:00	31013	10	-45.0	-82.5	327	5
2023-09-11T12:00	31038	10	-45.0	-82.5	327	5
2023-09-11T12:00	31073	10	-45.1	-82.6	327	6
2023-09-11T12:00	31110	10	-45.2	-82.7	325	6
2023-09-11T12:00	31148	10	-45.4	-82.8	322	5
2023-09-11T12:00	31150	10	-45.5	-82.9	318	5
2023-09-11T12:00	31167	10	-45.6	-82.9	312	4
2023-09-11T12:00	31231	10	-45.6	-82.9	303	4
2023-09-11T12:00	31237	10	-45.6	-82.9	290	4
2023-09-11T12:00	31271	10	-45.6	-82.9	276	4
2023-09-11T12:00	31317	10	-45.5	-82.9	263	4
2023-09-11T12:00	31330	10	-45.3	-82.7	253	5
2023-09-11T12:00	31361	10	-45.2	-82.7	245	5
2023-09-11T12:00	31388	10	-45.1	-82.6	240	6
2023-09-11T12:00	31412	10	-45.0	-82.5	237	7
2023-09-11T12:00	31452	10	-45.0	-82.5	236	8
2023-09-11T12:00	31483	10	-44.8	-82.4	237	8
2023-09-11T12:00	31523	10	-43.9	-81.8	243	8
2023-09-11T12:00	31532	10	-43.8	-81.7	248	7
2023-09-11T12:00	31566	10	-43.8	-81.7	250	7
2023-09-11T12:00	31612	10	-43.8	-81.7	250	6
2023-09-11T12:00	31636	10	-43.6	-81.5	248	6
2023-09-11T12:00	31672	9	-43.4	-81.4	245	5
2023-09-11T12:00	31696	9	-43.3	-81.3	244	5
2023-09-11T12:00	31733	9	-43.0	-81.1	247	5
2023-09-11T12:00	31742	9	-43.0	-81.1	254	4
2023-09-11T12:00	31801	9	-43.0	-81.1	264	4
2023-09-11T12:00	31808	9	-43.0	-81.1	275	4
2023-09-11T12:00	31828	9	-43.2	-81.3	285	4
2023-09-11T12:00	31846	9	-43.3	-81.3	294	4
2023-09-11T12:00	31898	9	-43.5	-81.5	302	4
2023-09-11T12:00	31908	9	-43.8	-81.7	309	4
2023-09-11T12:00	31953	9	-44.1	-81.9	313	4
2023-09-11T12:00	31972	9	-44.4	-82.1	313	3
2023-09-11T12:00	31981	9	-44.5	-82.2	309	3
2023-09-11T12:00	32021	9	-44.6	-82.2	301	3
2023-09-11T12:00	32079	9	-44.6	-82.2	290	3
2023-09-11T12:00	32109	9	-44.4	-82.1	273	3
2023-09-11T12:00	32110	9	-44.1	-81.9	267	3
2023-09-11T12:00	32154	9	-43.9	-81.8	261	3
2023-09-11T12:00	32181	9	-43.8	-81.7	255	4
2023-09-11T12:00	32189	9	-43.8	-81.7	250	4
2023-09-11T12:00	32260	9	-43.8	-81.7	245	5
2023-09-11T12:00	32269	9	-43.6	-81.5	242	5
2023-09-11T12:00	32295	9	-43.5	-81.5	240	6
2023-09-11T12:00	32331	9	-43.5	-81.5	239	7
2023-09-11T12:00	32349	9	-43.4	-81.4	239	7
2023-09-11T12:00	32390	9	-43.4	-81.4	239	8
2023-09-11T12:00	32395	8	-43.4	-81.4	240	10
2023-09-11T12:00	32446	8	-43.3	-81.3	241	10
2023-09-11T12:00	32482	8	-43.1	-81.2	241	11
2023-09-11T12:00	32502	8	-42.6	-80.8	241	11
2023-09-11T12:00	32545	8	-42.2	-80.6	242	11
2023-09-11T12:00	32593	8	-41.8	-80.3	243	12
2023-09-11T12:00	32631	8	-41.6	-80.1	245	12
2023-09-11T12:00	32669	8	-41.2	-79.9	251	13
2023-09-11T12:00	32699	8	-40.5	-79.4	256	16
2023-09-11T12:00	32733	8	-40.3	-79.2	258	17
2023-09-11T18:00	-999					
2023-09-11T18:00	135	997	27.8	11.0	119	1
2023-09-11T18:00	160	994	27.9	10.8	120	2
2023-09-11T18:00	185	991	27.7	10.7	120	2
2023-09-11T18:00	208	989	27.4	10.6	121	2
2023-09-11T18:00	237	986	27.2	10.6	123	2
2023-09-11T18:00	263	983	27.0	10.6	125	2
2023-09-11T18:00	291	980	26.7	10.5	126	2
2023-09-11T18:00	314	977	26.5	10.5	126	2
2023-09-11T18:00	339	974	26.2	10.5	125	2
2023-09-11T18:00	363	971	26.0	10.5	123	2
2023-09-11T18:00	390	969	25.7	10.4	123	2
2023-09-11T18:00	412	966	25.5	10.4	124	2
2023-09-11T18:00	438	963	25.3	10.4	128	2
2023-09-11T18:00	463	961	25.1	10.3	133	2
2023-09-11T18:00	488	958	24.8	10.3	140	2
2023-09-11T18:00	512	955	24.6	10.3	144	1
2023-09-11T18:00	537	952	24.3	10.2	145	1
2023-09-11T18:00	565	950	24.1	10.2	143	1
2023-09-11T18:00	588	947	23.8	10.2	139	1
2023-09-11T18:00	617	944	23.6	10.2	137	1
2023-09-11T18:00	649	940	23.3	10.1	139	1
2023-09-11T18:00	679	937	23.0	9.9	143	1
2023-09-11T18:00	704	934	22.7	10.0	149	1
2023-09-11T18:00	730	932	22.5	10.1	155	1
2023-09-11T18:00	760	928	22.2	10.0	161	1
2023-09-11T18:00	790	925	22.0	10.0	167	1
2023-09-11T18:00	816	922	21.7	9.8	175	1
2023-09-11T18:00	845	920	21.5	9.9	190	1
2023-09-11T18:00	871	917	21.2	9.8	214	1
2023-09-11T18:00	900	914	20.9	9.8	241	1
2023-09-11T18:00	929	911	20.7	9.8	258	1
2023-09-11T18:00	954	908	20.4	9.7	263	1
2023-09-11T18:00	984	905	20.2	9.9	259	1
2023-09-11T18:00	1011	902	19.9	9.8	249	1
2023-09-11T18:00	1041	899	19.6	9.7	240	1
2023-09-11T18:00	1073	896	19.3	9.7	237	2
2023-09-11T18:00	1099	893	19.0	9.6	239	2
2023-09-11T18:00	1127	890	18.8	9.6	244	1
2023-09-11T18:00	1155	887	18.5	9.7	249	1
2023-09-11T18:00	1181	884	18.2	9.6	252	2
2023-09-11T18:00	1209	881	18.0	9.6	251	2
2023-09-11T18:00	1238	878	17.7	9.6	249	2
2023-09-11T18:00	1268	875	17.4	9.5	247	2
2023-09-11T18:00	1297	872	17.2	9.6	247	3
2023-09-11T18:00	1328	869	16.9	9.5	247	3
2023-09-11T18:00	1357	866	16.6	9.4	248	3
2023-09-11T18:00	1389	863	16.3	9.4	249	3
2023-09-11T18:00	1418	860	16.0	9.3	250	3
2023-09-11T18:00	1446	857	15.8	9.3	250	3
2023-09-11T18:00	1473	854	15.5	9.2	251	3
2023-09-11T18:00	1502	852	15.2	9.1	252	3
2023-09-11T18:00	1530	849	14.9	9.1	252	3
2023-09-11T18:00	1558	846	14.7	9.1	252	3
2023-09-11T18:00	1589	843	14.4	9.0	253	3
2023-09-11T18:00	1616	840	14.1	8.9	254	4
2023-09-11T18:00	1644	837	13.8	8.8	256	4
2023-09-11T18:00	1671	835	13.6	9.0	258	4
2023-09-11T18:00	1702	832	13.3	8.9	260	4
2023-09-11T18:00	1731	829	13.0	8.8	263	4
2023-09-11T18:00	1762	826	12.7	8.8	265	4
2023-09-11T18:00	1793	823	12.4		268	4
2023-09-11T18:00	1823	820	12.1	8.4	271	4
2023-09-11T18:00	1851	817	12.0	7.7	274	4
2023-09-11T18:00	1878	814	12.6	2.7	277	3
2023-09-11T18:00	1909	812	14.1	-7.7	280	3
2023-09-11T18:00	1936	809	14.1	-9.6	281	3
2023-09-11T18:00	1965	806	13.8		282	3
2023-09-11T18:00	1992	803	13.8	-14.1	281	4
2023-09-11T18:00	2022	801	14.1	-18.9	279	4
2023-09-11T18:00	2053	798	13.9	-18.9	277	5
2023-09-11T18:00	2081	795	13.7	-19.1	275	5
2023-09-11T18:00	2108	793	13.5	-19.4	273	6
2023-09-11T18:00	2134	790	13.5	-20.0	271	6
2023-09-11T18:00	2159	788	13.3	-20.6	269	6
2023-09-11T18:00	2185	785	13.3	-21.4	267	7
2023-09-11T18:00	2212	783	13.3	-21.8	266	7
2023-09-11T18:00	2239	780	13.2	-21.1	265	7
2023-09-11T18:00	2266	778	13.0	-22.3	265	6
2023-09-11T18:00	2294	775	13.0	-22.2	265	6
2023-09-11T18:00	2324	772	13.0	-22.2	265	6
2023-09-11T18:00	2351	770	13.0	-22.9	266	5
2023-09-11T18:00	2379	767	12.8	-23.4	266	5
2023-09-11T18:00	2406	765	12.7	-23.5	266	5
2023-09-11T18:00	2436	762	12.7	-22.7	265	5
2023-09-11T18:00	2464	759	12.5	-21.0	264	5
2023-09-11T18:00	2493	757	12.4	-19.3	262	5
2023-09-11T18:00	2521	754	12.1	-19.5	258	5
2023-09-11T18:00	2549	752	11.8	-19.7	254	4
2023-09-11T18:00	2576	749	11.6	-20.4	248	4
2023-09-11T18:00	2606	747	11.4	-20.6	242	4
2023-09-11T18:00	2634	744	11.3	-20.0	238	4
2023-09-11T18:00	2665	741	11.1	-20.4	235	4
2023-09-11T18:00	2691	739	10.9	-20.3	235	4
2023-09-11T18:00	2725	736	10.6	-20.2	236	4
2023-09-11T18:00	2753	734	10.6	-20.6	238	4
2023-09-11T18:00	2783	731	10.5	-22.2	240	4
2023-09-11T18:00	2812	728	10.2	-22.2	243	4
2023-09-11T18:00	2841	726	10.0	-22.3	246	4
2023-09-11T18:00	2869	723	9.7	-22.4	248	4
2023-09-11T18:00	2901	721	9.5	-22.5	250	4
2023-09-11T18:00	2929	718	9.2	-22.5	253	4
2023-09-11T18:00	2957	716	8.9	-22.8	255	5
2023-09-11T18:00	2987	713	8.7	-23.4	257	5
2023-09-11T18:00	3016	711	8.5	-24.5	259	5
2023-09-11T18:00	3046	708	8.3	-26.1	261	4
2023-09-11T18:00	3077	705	8.2	-28.0	263	4
2023-09-11T18:00	3107	703	8.1	-26.8	263	4
2023-09-11T18:00	3136	700	7.9	-26.5	263	4
2023-09-11T18:00	3164	698	7.7	-24.7	262	4
2023-09-11T18:00	3197	695	7.4	-24.4	259	4
2023-09-11T18:00	3229	693	7.2	-24.7	257	4
2023-09-11T18:00	3260	690	7.0	-24.7	254	4
2023-09-11T18:00	3291	687	6.8	-24.7	253	4
2023-09-11T18:00	3321	685	6.7	-24.8	252	5
2023-09-11T18:00	3354	682	6.5	-24.6	252	5
2023-09-11T18:00	3387	679	6.3	-24.9	252	5
2023-09-11T18:00	3420	677	6.1	-24.3	251	5
2023-09-11T18:00	3451	674	5.8	-23.7	250	5
2023-09-11T18:00	3484	671	5.5	-22.5	250	5
2023-09-11T18:00	3517	669	5.3	-21.5	250	5
2023-09-11T18:00	3550	666	5.0	-20.3	252	5
2023-09-11T18:00	3583	663	4.7	-20.3	254	5
2023-09-11T18:00	3615	661	4.4	-22.5	257	5
2023-09-11T18:00	3649	658	4.1	-22.1	259	5
2023-09-11T18:00	3685	655	3.8	-21.7	261	5
2023-09-11T18:00	3718	652	3.5	-19.9	262	5
2023-09-11T18:00	3751	650	3.2	-19.5	262	5
2023-09-11T18:00	3785	647	2.9	-19.4	262	5
2023-09-11T18:00	3818	644	2.6	-19.8	261	5
2023-09-11T18:00	3853	641	2.3	-18.7	260	5
2023-09-11T18:00	3886	639	2.0	-18.5	259	5
2023-09-11T18:00	3918	636	1.7	-18.8	259	5
2023-09-11T18:00	3952	634	1.4	-19.0	259	5
2023-09-11T18:00	3986	631	1.1	-19.2	260	5
2023-09-11T18:00	4020	628	0.9	-19.9	260	5
2023-09-11T18:00	4055	626	0.7	-19.3	260	6
2023-09-11T18:00	4087	623	0.5	-19.6	259	6
2023-09-11T18:00	4118	621	0.3	-22.1	259	6
2023-09-11T18:00	4153	618	0.2	-22.7	258	6
2023-09-11T18:00	4187	615	0.1	-23.3	257	6
2023-09-11T18:00	4222	613	-0.2	-23.7	256	6
2023-09-11T18:00	4255	610	-0.5	-24.0	255	5
2023-09-11T18:00	4286	608	-0.8	-25.0	254	5
2023-09-11T18:00	4319	605	-1.0	-26.6	252	5
2023-09-11T18:00	4350	603	-1.1	-27.0	250	5
2023-09-11T18:00	4381	601	-1.3	-25.8	248	5
2023-09-11T18:00	4413	598	-1.4	-25.0	247	5
2023-09-11T18:00	4446	596	-1.6	-26.0	246	5
2023-09-11T18:00	4479	593	-1.8	-26.4	247	5
2023-09-11T18:00	4510	591	-1.9	-25.1	249	5
2023-09-11T18:00	4543	589	-2.2	-25.3	252	5
2023-09-11T18:00	4572	586	-2.3	-27.4	256	5
2023-09-11T18:00	4605	584	-2.3	-29.8	260	5
2023-09-11T18:00	4635	582	-2.4	-30.2	265	5
2023-09-11T18:00	4666	579	-2.5	-30.7	269	5
2023-09-11T18:00	4697	577	-2.5	-28.9	274	6
2023-09-11T18:00	4727	575	-2.5	-25.4	277	6
2023-09-11T18:00	4759	573	-2.8	-20.8	278	6
2023-09-11T18:00	4787	571	-3.1	-20.3	278	6
2023-09-11T18:00	4816	568	-3.3	-18.8	276	6
2023-09-11T18:00	4845	566	-3.6	-19.4	274	6
2023-09-11T18:00	4876	564	-3.7	-19.5	273	7
2023-09-11T18:00	4905	562	-3.8	-22.3	272	7
2023-09-11T18:00	4936	560	-4.0	-21.4	273	7
2023-09-11T18:00	4964	558	-4.3	-18.3	274	7
2023-09-11T18:00	4994	556	-4.6	-18.9	276	7
2023-09-11T18:00	5019	554	-4.7	-20.2	277	7
2023-09-11T18:00	5041	553	-4.9	-22.5	279	7
2023-09-11T18:00	5064	551	-5.0	-22.1	279	7
2023-09-11T18:00	5087	549	-5.2	-21.8	278	8
2023-09-11T18:00	5109	548	-5.3	-21.3	277	8
2023-09-11T18:00	5132	546	-5.5	-21.5	275	8
2023-09-11T18:00	5158	544	-5.8	-21.5	274	8
2023-09-11T18:00	5190	542	-6.0	-21.2	273	8
2023-09-11T18:00	5218	540	-6.3	-21.4	272	8
2023-09-11T18:00	5244	538	-6.5	-21.6	271	8
2023-09-11T18:00	5273	536	-6.7	-21.7	271	8
2023-09-11T18:00	5299	535	-7.0	-21.6	271	8
2023-09-11T18:00	5327	533	-7.2	-21.5	270	7
2023-09-11T18:00	5354	531	-7.5	-21.4	269	7
2023-09-11T18:00	5383	529	-7.7	-20.9	267	7
2023-09-11T18:00	5413	527	-8.0	-20.4	266	7
2023-09-11T18:00	5438	525	-8.2	-20.4	264	7
2023-09-11T18:00	5465	523	-8.5		262	8
2023-09-11T18:00	5489	522	-8.7	-21.1	261	8
2023-09-11T18:00	5514	520	-8.9	-23.5	260	8
2023-09-11T18:00	5544	518	-9.1	-25.5	259	8
2023-09-11T18:00	5568	516	-9.1	-29.3	257	8
2023-09-11T18:00	5594	515	-9.2	-31.9	254	8
2023-09-11T18:00	5623	513	-9.3	-32.0	251	8
2023-09-11T18:00	5652	511	-9.4	-34.8	249	7
2023-09-11T18:00	5680	509	-9.3	-36.1	249	7
2023-09-11T18:00	5711	507	-9.4	-35.8	250	7
2023-09-11T18:00	5739	505	-9.6	-34.7	251	7
2023-09-11T18:00	5768	503	-9.8	-33.9	253	7
2023-09-11T18:00	5796	501	-10.1	-34.6	254	7
2023-09-11T18:00	5826	499	-10.3	-35.1	254	8
2023-09-11T18:00	5857	497	-10.5	-34.3	252	8
2023-09-11T18:00	5884	496	-10.8	-34.2	251	8
2023-09-11T18:00	5909	494	-11.0	-34.2	250	8
2023-09-11T18:00	5937	492	-11.3	-33.7	251	8
2023-09-11T18:00	5964	491	-11.5	-32.9	252	8
2023-09-11T18:00	5989	489	-11.7	-32.9	253	8
2023-09-11T18:00	6020	487	-12.0	-33.6	255	8
2023-09-11T18:00	6050	485	-12.2	-33.2	255	8
2023-09-11T18:00	6079	483	-12.4	-33.5	255	8
2023-09-11T18:00	6104	482	-12.6	-33.3	255	9
2023-09-11T18:00	6127	480	-12.8	-33.2	254	9
2023-09-11T18:00	6152	478	-13.0	-33.5	253	9
2023-09-11T18:00	6186	476	-13.3	-34.0	252	9
2023-09-11T18:00	6220	474	-13.5	-36.1	251	9
2023-09-11T18:00	6252	472	-13.7	-37.5	251	8
2023-09-11T18:00	6282	470	-13.9	-37.8	250	8
2023-09-11T18:00	6313	468	-14.1	-37.6	249	8
2023-09-11T18:00	6347	466	-14.2	-37.4	249	9
2023-09-11T18:00	6381	464	-14.4	-37.1	249	9
2023-09-11T18:00	6412	462	-14.6	-38.0	249	9
2023-09-11T18:00	6445	460	-14.7	-37.9	250	9
2023-09-11T18:00	6481	458	-15.0	-36.8	252	9
2023-09-11T18:00	6518	456	-15.4	-35.0	253	9
2023-09-11T18:00	6550	454	-15.7	-33.8	254	9
2023-09-11T18:00	6578	452	-15.9	-32.9	255	9
2023-09-11T18:00	6611	450	-16.2	-33.2	255	9
2023-09-11T18:00	6641	449	-16.5	-34.0	255	9
2023-09-11T18:00	6675	447	-16.8	-31.5	254	9
2023-09-11T18:00	6711	444	-17.1	-30.9	254	10
2023-09-11T18:00	6745	443	-17.3	-32.8	254	10
2023-09-11T18:00	6772	441	-17.5	-33.3	254	11
2023-09-11T18:00	6799	439	-17.8	-34.1	254	11
2023-09-11T18:00	6835	437	-18.1	-34.7	254	11
2023-09-11T18:00	6869	435	-18.3	-34.8	254	11
2023-09-11T18:00	6892	434	-18.5	-35.5	254	11
2023-09-11T18:00	6926	432	-18.8	-33.6	255	11
2023-09-11T18:00	6964	430	-19.2	-34.9	255	11
2023-09-11T18:00	6996	428	-19.4	-33.3	256	11
2023-09-11T18:00	7027	426	-19.6	-32.9	257	11
2023-09-11T18:00	7058	424	-19.9	-34.3	259	11
2023-09-11T18:00	7091	422	-20.1	-34.5	260	11
2023-09-11T18:00	7116	421	-20.3	-35.5	260	11
2023-09-11T18:00	7148	419	-20.5	-36.4	261	11
2023-09-11T18:00	7178	418	-20.7	-37.2	262	11
2023-09-11T18:00	7204	416	-20.9	-37.2	262	11
2023-09-11T18:00	7230	414	-21.2	-36.8	263	11
2023-09-11T18:00	7264	413	-21.5	-36.3	263	10
2023-09-11T18:00	7296	411	-21.6	-37.1	263	10
2023-09-11T18:00	7318	410	-21.7	-37.4	262	10
2023-09-11T18:00	7346	408	-21.9	-37.1	260	10
2023-09-11T18:00	7370	407	-22.2	-36.0	257	11
2023-09-11T18:00	7400	405	-22.4	-36.1	254	11
2023-09-11T18:00	7424	404	-22.6	-37.0	253	11
2023-09-11T18:00	7457	402	-22.9	-36.5	252	11
2023-09-11T18:00	7490	400	-23.2	-35.7	252	11
2023-09-11T18:00	7515	399	-23.5	-35.8	252	11
2023-09-11T18:00	7544	397	-23.7	-35.7	253	11
2023-09-11T18:00	7573	396	-24.0	-35.8	252	10
2023-09-11T18:00	7602	394	-24.3	-35.0	252	10
2023-09-11T18:00	7627	393	-24.5	-34.9	250	10
2023-09-11T18:00	7656	391	-24.8	-35.0	249	10
2023-09-11T18:00	7682	390	-25.0	-35.0	248	10
2023-09-11T18:00	7705	388	-25.2	-35.3	249	10
2023-09-11T18:00	7734	387	-25.5	-35.5	251	10
2023-09-11T18:00	7767	385	-25.8	-35.8	253	10
2023-09-11T18:00	7798	384	-26.1	-36.4	254	10
2023-09-11T18:00	7829	382	-26.4	-36.3	254	10
2023-09-11T18:00	7856	380	-26.6	-36.3	254	10
2023-09-11T18:00	7891	379	-27.0	-36.2	253	11
2023-09-11T18:00	7922	377	-27.3	-36.3	252	11
2023-09-11T18:00	7945	376	-27.4	-36.8	251	10
2023-09-11T18:00	7969	375	-27.7	-37.1	251	10
2023-09-11T18:00	7992	373	-27.9	-37.2	252	10
2023-09-11T18:00	8013	372	-28.1	-37.3	252	10
2023-09-11T18:00	8037	371	-28.3	-37.4	251	9
2023-09-11T18:00	8071	369	-28.5	-37.1	250	9
2023-09-11T18:00	8093	368	-28.7	-37.6	249	9
2023-09-11T18:00	8114	367	-28.8	-39.9	249	9
2023-09-11T18:00	8138	366	-28.9	-40.8	249	9
2023-09-11T18:00	8161	365	-29.0	-40.9	249	9
2023-09-11T18:00	8187	363	-29.2	-40.9	250	9
2023-09-11T18:00	8209	362	-29.3	-40.9	251	10
2023-09-11T18:00	8232	361	-29.5	-40.7	252	10
2023-09-11T18:00	8254	360	-29.6	-40.7	253	10
2023-09-11T18:00	8278	359	-29.7	-40.6	254	10
2023-09-11T18:00	8304	358	-29.9	-41.2	255	10
2023-09-11T18:00	8327	356	-30.0	-42.6	256	10
2023-09-11T18:00	8349	355	-30.2	-43.3	258	10
2023-09-11T18:00	8374	354	-30.3	-43.7	258	10
2023-09-11T18:00	8400	353	-30.4	-42.3	259	10
2023-09-11T18:00	8423	351	-30.6	-42.2	258	10
2023-09-11T18:00	8448	350	-30.8	-42.5	258	9
2023-09-11T18:00	8474	349	-31.1	-42.6	257	9
2023-09-11T18:00	8499	348	-31.2	-42.8	255	9
2023-09-11T18:00	8524	347	-31.4	-43.2	254	9
2023-09-11T18:00	8547	345	-31.6	-43.3	252	10
2023-09-11T18:00	8570	344	-31.8	-43.9	250	10
2023-09-11T18:00	8593	343	-31.9	-45.1	248	10
2023-09-11T18:00	8618	342	-32.1	-47.1	247	10
2023-09-11T18:00	8642	341	-32.3	-47.5	245	10
2023-09-11T18:00	8667	340	-32.4	-46.9	244	10
2023-09-11T18:00	8688	339	-32.5	-45.4	244	10
2023-09-11T18:00	8714	337	-32.7	-45.9	245	10
2023-09-11T18:00	8735	336	-32.9	-45.7	246	11
2023-09-11T18:00	8755	335	-33.0	-45.3	246	11
2023-09-11T18:00	8775	334	-33.2	-45.2	246	11
2023-09-11T18:00	8797	333	-33.4	-45.5	246	11
2023-09-11T18:00	8817	332	-33.6	-45.6	246	11
2023-09-11T18:00	8841	331	-33.7	-45.8	246	11
2023-09-11T18:00	8866	330	-34.0	-46.2	246	11
2023-09-11T18:00	8886	329	-34.1	-46.5	245	11
2023-09-11T18:00	8908	328	-34.3	-46.6	245	11
2023-09-11T18:00	8931	327	-34.4	-46.6	244	11
2023-09-11T18:00	8955	326	-34.6	-46.2	243	12
2023-09-11T18:00	8979	325	-34.8	-45.6	242	12
2023-09-11T18:00	9004	324	-35.0	-45.4	241	12
2023-09-11T18:00	9031	322	-35.3	-45.4	241	12
2023-09-11T18:00	9052	321	-35.5	-45.6	242	12
2023-09-11T18:00	9076	320	-35.6	-46.2	243	12
2023-09-11T18:00	9098	319	-35.7	-48.7	243	12
2023-09-11T18:00	9123	318	-35.9	-48.5	244	12
2023-09-11T18:00	9145	317	-36.1	-48.1	245	12
2023-09-11T18:00	9171	316	-36.3	-47.9	245	12
2023-09-11T18:00	9197	315	-36.5	-50.1	246	12
2023-09-11T18:00	9220	314	-36.6	-51.1	247	12
2023-09-11T18:00	9244	313	-36.8	-50.3	248	12
2023-09-11T18:00	9265	312	-37.0	-50.2	249	12
2023-09-11T18:00	9288	311	-37.2	-50.0	249	12
2023-09-11T18:00	9310	310	-37.4	-50.0	250	12
2023-09-11T18:00	9332	309	-37.7	-50.2	250	12
2023-09-11T18:00	9357	308	-37.9	-50.3	251	12
2023-09-11T18:00	9381	307	-38.1	-51.6	251	12
2023-09-11T18:00	9405	305	-38.2	-53.2	252	12
2023-09-11T18:00	9428	304	-38.4		252	12
2023-09-11T18:00	9452	303	-38.5	-53.3	251	12
2023-09-11T18:00	9474	302	-38.7	-52.7	250	12
2023-09-11T18:00	9496	301	-38.9	-53.9	249	12
2023-09-11T18:00	9518	300	-39.0	-53.6	248	12
2023-09-11T18:00	9541	299	-39.3	-52.4	248	12
2023-09-11T18:00	9564	298	-39.4	-51.6	247	12
2023-09-11T18:00	9587	297	-39.6	-51.7	246	12
2023-09-11T18:00	9610	296	-39.8	-51.7	246	12
2023-09-11T18:00	9635	295	-40.0		246	12
2023-09-11T18:00	9657	294	-40.3	-52.2	245	12
2023-09-11T18:00	9679	293	-40.4	-52.4	245	12
2023-09-11T18:00	9699	293	-40.6	-52.4	245	12
2023-09-11T18:00	9726	291	-40.9	-52.3	245	12
2023-09-11T18:00	9751	290	-41.1	-52.1	246	12
2023-09-11T18:00	9775	289	-41.3	-52.2	248	12
2023-09-11T18:00	9798	288	-41.5	-52.0	248	13
2023-09-11T18:00	9817	288	-41.6	-51.9	249	13
2023-09-11T18:00	9842	287	-41.8	-51.8	249	13
2023-09-11T18:00	9865	285	-42.0	-51.6	248	13
2023-09-11T18:00	9892	284	-42.3	-51.8	248	13
2023-09-11T18:00	9915	283	-42.5	-51.9	248	13
2023-09-11T18:00	9939	282	-42.7	-52.1	248	12
2023-09-11T18:00	9965	281	-42.9	-52.3	247	12
2023-09-11T18:00	9987	280	-43.1	-52.4	247	12
2023-09-11T18:00	10014	279	-43.3	-52.5	247	12
2023-09-11T18:00	10035	278	-43.5	-52.8	247	12
2023-09-11T18:00	10061	277	-43.7	-53.2	247	12
2023-09-11T18:00	10084	276	-43.8	-53.6	248	12
2023-09-11T18:00	10109	275	-44.0	-53.6	248	12
2023-09-11T18:00	10134	274	-44.2	-53.4	248	12
2023-09-11T18:00	10158	273	-44.4	-53.2	248	11
2023-09-11T18:00	10183	272	-44.6	-53.0	248	11
2023-09-11T18:00	10209	271	-44.8	-52.1	248	11
2023-09-11T18:00	10233	270	-45.0	-51.1	248	11
2023-09-11T18:00	10254	269	-45.2	-51.4	248	11
2023-09-11T18:00	10276	269	-45.4	-52.1	248	11
2023-09-11T18:00	10299	268	-45.5	-52.6	248	11
2023-09-11T18:00	10323	267	-45.7	-53.0	248	11
2023-09-11T18:00	10347	266	-45.9	-53.1	249	12
2023-09-11T18:00	10370	265	-46.1	-52.9	251	12
2023-09-11T18:00	10393	264	-46.3	-52.8	252	12
2023-09-11T18:00	10417	263	-46.5	-52.6	253	12
2023-09-11T18:00	10441	262	-46.7	-52.1	254	12
2023-09-11T18:00	10467	261	-46.9	-52.0	255	12
2023-09-11T18:00	10488	260	-47.0	-52.0	255	13
2023-09-11T18:00	10511	259	-47.2	-52.2	255	13
2023-09-11T18:00	10535	258	-47.4	-52.2	255	13
2023-09-11T18:00	10558	257	-47.6	-52.2	254	13
2023-09-11T18:00	10583	256	-47.8	-52.4	254	13
2023-09-11T18:00	10606	256	-47.9	-52.7	254	13
2023-09-11T18:00	10628	255	-48.1	-52.9	254	13
2023-09-11T18:00	10652	254	-48.3	-52.8	255	13
2023-09-11T18:00	10673	253	-48.5	-52.8	256	13
2023-09-11T18:00	10695	252	-48.7	-53.3	257	13
2023-09-11T18:00	10717	251	-48.9	-53.6	258	13
2023-09-11T18:00	10741	250	-49.0	-53.7	260	14
2023-09-11T18:00	10768	249	-49.2	-53.9	261	14
2023-09-11T18:00	10801	248	-49.4	-54.0	262	14
2023-09-11T18:00	10828	247	-49.6	-53.9	263	14
2023-09-11T18:00	10852	246	-49.8	-53.8	263	14
2023-09-11T18:00	10876	245	-50.0	-53.8	263	14
2023-09-11T18:00	10898	244	-50.2	-54.0	261	15
2023-09-11T18:00	10921	244	-50.4	-54.2	260	15
2023-09-11T18:00	10944	243	-50.7	-54.4	259	15
2023-09-11T18:00	10966	242	-50.8	-54.5	259	15
2023-09-11T18:00	10993	241	-51.1	-54.7	258	15
2023-09-11T18:00	11017	240	-51.3	-54.8	258	15
2023-09-11T18:00	11043	239	-51.5	-54.9	258	15
2023-09-11T18:00	11065	238	-51.7	-55.1	258	15
2023-09-11T18:00	11090	237	-51.9	-55.3	257	15
2023-09-11T18:00	11112	236	-52.2	-55.4	257	15
2023-09-11T18:00	11135	236	-52.4	-55.3	256	14
2023-09-11T18:00	11158	235	-52.6	-55.3	255	14
2023-09-11T18:00	11186	234	-52.9	-55.6	255	14
2023-09-11T18:00	11213	233	-53.1	-56.0	255	14
2023-09-11T18:00	11236	232	-53.3	-56.3	255	14
2023-09-11T18:00	11261	231	-53.5	-56.4	255	14
2023-09-11T18:00	11284	230	-53.7	-56.7	255	14
2023-09-11T18:00	11306	229	-53.8	-57.0	256	14
2023-09-11T18:00	11327	229	-54.0	-57.2	256	14
2023-09-11T18:00	11350	228	-54.3	-57.4	256	14
2023-09-11T18:00	11372	227	-54.5	-57.5	256	14
2023-09-11T18:00	11392	226	-54.6	-57.7	255	13
2023-09-11T18:00	11412	226	-54.7	-58.1	255	13
2023-09-11T18:00	11434	225	-54.9	-58.4	254	13
2023-09-11T18:00	11455	224	-55.0	-58.6	254	14
2023-09-11T18:00	11476	223	-55.2	-58.8	254	14
2023-09-11T18:00	11499	223	-55.3	-58.9	254	14
2023-09-11T18:00	11520	222	-55.5	-59.0	255	14
2023-09-11T18:00	11543	221	-55.7	-59.3	257	14
2023-09-11T18:00	11565	220	-55.9	-59.8	258	14
2023-09-11T18:00	11584	220	-55.9	-59.9	259	15
2023-09-11T18:00	11606	219	-56.0	-60.0	261	15
2023-09-11T18:00	11625	218	-56.1	-60.2	262	15
2023-09-11T18:00	11646	218	-56.2	-60.6	262	15
2023-09-11T18:00	11667	217	-56.3	-61.2	263	15
2023-09-11T18:00	11687	216	-56.3	-61.6	263	15
2023-09-11T18:00	11706	216	-56.4	-61.9	262	15
2023-09-11T18:00	11725	215	-56.3	-62.1	261	14
2023-09-11T18:00	11746	214	-56.0	-62.4	260	14
2023-09-11T18:00	11767	213	-55.8	-62.8	260	14
2023-09-11T18:00	11787	213	-55.9	-63.3	259	14
2023-09-11T18:00	11808	212	-55.9	-63.4	259	14
2023-09-11T18:00	11826	211	-55.9	-63.5	259	14
2023-09-11T18:00	11848	211	-55.8	-63.6	259	14
2023-09-11T18:00	11867	210	-55.9	-63.9	260	14
2023-09-11T18:00	11890	209	-56.1	-64.0	260	14
2023-09-11T18:00	11911	209	-56.2	-64.1	259	15
2023-09-11T18:00	11931	208	-56.4	-64.4	258	15
2023-09-11T18:00	11953	207	-56.3	-64.5	257	15
2023-09-11T18:00	11976	207	-56.4	-64.7	256	15
2023-09-11T18:00	11996	206	-56.6	-64.9	256	15
2023-09-11T18:00	12019	205	-56.8	-65.0	256	15
2023-09-11T18:00	12040	204	-56.9	-65.0	256	15
2023-09-11T18:00	12064	204	-57.0	-65.2	257	15
2023-09-11T18:00	12087	203	-57.1	-65.9	257	15
2023-09-11T18:00	12108	202	-56.9	-66.7	257	15
2023-09-11T18:00	12131	202	-56.7	-67.5	257	14
2023-09-11T18:00	12155	201	-56.7	-68.1	256	14
2023-09-11T18:00	12177	200	-56.8	-68.2	255	14
2023-09-11T18:00	12200	199	-56.9	-68.3	255	13
2023-09-11T18:00	12223	199	-57.0	-68.4	254	13
2023-09-11T18:00	12245	198	-57.1	-68.4	255	13
2023-09-11T18:00	12270	197	-57.2		256	13
2023-09-11T18:00	12292	197	-57.3	-68.3	257	13
2023-09-11T18:00	12316	196	-57.5	-68.4	257	12
2023-09-11T18:00	12340	195	-57.5	-68.4	258	12
2023-09-11T18:00	12365	194	-57.6	-68.6	258	11
2023-09-11T18:00	12390	194	-57.7	-68.9	258	11
2023-09-11T18:00	12411	193	-57.7	-69.3	257	11
2023-09-11T18:00	12434	192	-57.6	-69.7	256	11
2023-09-11T18:00	12457	191	-57.7	-70.2	256	11
2023-09-11T18:00	12479	191	-57.7		256	11
2023-09-11T18:00	12501	190	-57.8	-70.7	257	12
2023-09-11T18:00	12523	189	-58.0	-71.0	258	12
2023-09-11T18:00	12546	189	-58.0	-71.1	259	12
2023-09-11T18:00	12570	188	-58.1	-71.0	261	13
2023-09-11T18:00	12594	187	-58.2	-70.7	262	13
2023-09-11T18:00	12617	187	-58.3	-70.4	262	13
2023-09-11T18:00	12639	186	-58.4	-70.3	263	13
2023-09-11T18:00	12661	185	-58.4	-70.4	263	13
2023-09-11T18:00	12685	185	-58.5	-70.6	264	13
2023-09-11T18:00	12706	184	-58.6	-70.8	264	13
2023-09-11T18:00	12730	183	-58.6	-70.8	265	13
2023-09-11T18:00	12753	183	-58.7	-71.0	266	13
2023-09-11T18:00	12775	182	-58.9	-71.3	266	14
2023-09-11T18:00	12797	181	-59.0	-71.3	267	14
2023-09-11T18:00	12822	181	-59.1	-71.4	268	14
2023-09-11T18:00	12844	180	-59.3	-71.7	269	14
2023-09-11T18:00	12865	179	-59.3	-71.8	270	14
2023-09-11T18:00	12886	179	-59.3	-72.0	272	14
2023-09-11T18:00	12911	178	-59.3	-72.3	273	14
2023-09-11T18:00	12931	178	-59.3	-72.6	275	14
2023-09-11T18:00	12954	177	-59.5	-72.8	277	14
2023-09-11T18:00	12978	176	-59.5	-72.8	279	14
2023-09-11T18:00	12998	176	-59.6	-72.9	281	13
2023-09-11T18:00	13019	175	-59.7	-73.0	282	13
2023-09-11T18:00	13039	174	-59.8	-73.0	283	13
2023-09-11T18:00	13061	174	-59.9	-73.2	283	12
2023-09-11T18:00	13082	173	-60.0	-73.4	283	12
2023-09-11T18:00	13102	173	-60.1	-74.0	282	12
2023-09-11T18:00	13125	172	-60.2	-74.7	280	12
2023-09-11T18:00	13148	171	-60.1	-75.3	278	12
2023-09-11T18:00	13169	171	-60.0	-75.7	276	12
2023-09-11T18:00	13190	170	-60.1	-75.9	274	12
2023-09-11T18:00	13211	170	-60.3	-76.0	272	12
2023-09-11T18:00	13233	169	-60.4	-75.8	271	12
2023-09-11T18:00	13253	169	-60.6	-75.6	271	12
2023-09-11T18:00	13273	168	-60.7	-75.3	271	12
2023-09-11T18:00	13295	167	-60.9	-75.1	271	12
2023-09-11T18:00	13317	167	-60.9	-74.8	271	12
2023-09-11T18:00	13340	166	-60.9	-74.7	271	12
2023-09-11T18:00	13360	166	-61.1	-74.9	271	12
2023-09-11T18:00	13384	165	-61.3	-75.0	271	12
2023-09-11T18:00	13405	165	-61.4	-75.2	272	12
2023-09-11T18:00	13427	164	-61.5	-75.3	273	12
2023-09-11T18:00	13447	163	-61.5	-75.4	275	12
2023-09-11T18:00	13470	163	-61.6	-75.6	277	12
2023-09-11T18:00	13491	162	-61.7	-75.8	279	12
2023-09-11T18:00	13512	162	-61.6	-76.0	281	12
2023-09-11T18:00	13533	161	-61.6	-76.1	283	12
2023-09-11T18:00	13555	161	-61.5	-76.2	284	12
2023-09-11T18:00	13577	160	-61.6	-76.4	285	12
2023-09-11T18:00	13600	159	-61.6	-76.6	285	12
2023-09-11T18:00	13620	159	-61.7	-76.8	285	12
2023-09-11T18:00	13643	158	-61.7	-77.1	285	11
2023-09-11T18:00	13666	158	-61.7		283	11
2023-09-11T18:00	13688	157	-61.8	-78.0	282	11
2023-09-11T18:00	13711	157	-61.6	-78.4	281	11
2023-09-11T18:00	13733	156	-61.7	-79.1	280	11
2023-09-11T18:00	13755	155	-61.7	-79.6	279	11
2023-09-11T18:00	13778	155	-61.7	-79.8	278	11
2023-09-11T18:00	13798	154	-61.7	-79.8	278	11
2023-09-11T18:00	13821	154	-61.8	-79.8	278	11
2023-09-11T18:00	13842	153	-61.7	-79.5	278	11
2023-09-11T18:00	13866	153	-61.8	-79.6	278	11
2023-09-11T18:00	13891	152	-62.0	-79.8	278	10
2023-09-11T18:00	13912	152	-62.0	-79.8	279	10
2023-09-11T18:00	13935	151	-61.9	-79.8	281	10
2023-09-11T18:00	13957	150	-61.8	-79.7	283	9
2023-09-11T18:00	13981	150	-61.8	-79.9	285	9
2023-09-11T18:00	14004	149	-61.8	-80.1	287	8
2023-09-11T18:00	14028	149	-61.7	-80.2	289	8
2023-09-11T18:00	14051	148	-61.7	-80.4	290	8
2023-09-11T18:00	14073	148	-61.8	-80.6	289	8
2023-09-11T18:00	14098	147	-61.9	-80.9	288	8
2023-09-11T18:00	14122	147	-62.0	-81.0	287	9
2023-09-11T18:00	14146	146	-62.2	-81.3	287	9
2023-09-11T18:00	14169	145	-62.4	-81.6	287	10
2023-09-11T18:00	14194	145	-62.5	-81.8	288	10
2023-09-11T18:00	14215	144	-62.4	-81.9	291	10
2023-09-11T18:00	14241	144	-62.2	-82.0	294	10
2023-09-11T18:00	14266	143	-62.1	-82.1	297	9
2023-09-11T18:00	14289	143	-62.2	-82.1	300	9
2023-09-11T18:00	14317	142	-62.2	-82.1	301	8
2023-09-11T18:00	14340	141	-62.4	-82.3	301	8
2023-09-11T18:00	14362	141	-62.4	-82.4	298	7
2023-09-11T18:00	14387	140	-62.3	-82.5	294	7
2023-09-11T18:00	14410	140	-62.3	-82.6	288	7
2023-09-11T18:00	14434	139	-62.2	-82.7	283	6
2023-09-11T18:00	14458	139	-61.7	-82.4	277	6
2023-09-11T18:00	14482	138	-61.7	-82.5	271	6
2023-09-11T18:00	14508	138	-61.8	-82.6	266	7
2023-09-11T18:00	14533	137	-62.0	-82.6	262	7
2023-09-11T18:00	14558	137	-62.2	-82.8	258	7
2023-09-11T18:00	14581	136	-62.3	-82.7	255	8
2023-09-11T18:00	14603	136	-62.4	-82.8	254	8
2023-09-11T18:00	14625	135	-62.5	-82.9	253	9
2023-09-11T18:00	14647	135	-62.5	-82.9	253	9
2023-09-11T18:00	14668	134	-62.6	-83.0	254	10
2023-09-11T18:00	14691	134	-62.7	-83.2	255	10
2023-09-11T18:00	14712	133	-62.8	-83.4	257	10
2023-09-11T18:00	14736	133	-62.8	-83.6	259	11
2023-09-11T18:00	14758	132	-62.5	-83.5	262	11
2023-09-11T18:00	14781	132	-62.2	-83.5	265	12
2023-09-11T18:00	14799	131	-61.8	-83.5	268	12
2023-09-11T18:00	14822	131	-61.7	-83.6	270	13
2023-09-11T18:00	14844	130	-61.5	-83.6	273	13
2023-09-11T18:00	14867	130	-61.4	-83.7	275	13
2023-09-11T18:00	14888	129	-61.3	-83.8	277	13
2023-09-11T18:00	14908	129	-61.0	-83.7	279	12
2023-09-11T18:00	14928	129	-60.8	-83.8	279	11
2023-09-11T18:00	14950	128	-60.6	-83.6	279	11
2023-09-11T18:00	14973	128	-60.5	-83.7	276	10
2023-09-11T18:00	14993	127	-60.5	-83.7	274	10
2023-09-11T18:00	15016	127	-60.4	-83.7	271	9
2023-09-11T18:00	15037	126	-60.3	-83.8	270	9
2023-09-11T18:00	15058	126	-60.3	-83.8	270	10
2023-09-11T18:00	15080	126	-60.1	-83.6	272	10
2023-09-11T18:00	15101	125	-60.1	-83.6	274	10
2023-09-11T18:00	15122	125	-60.0	-83.8	275	10
2023-09-11T18:00	15144	124	-59.9	-83.7	276	10
2023-09-11T18:00	15166	124	-59.7	-83.7	277	10
2023-09-11T18:00	15186	123	-59.5	-83.6	278	9
2023-09-11T18:00	15208	123	-59.4	-83.7	278	9
2023-09-11T18:00	15228	123	-59.3	-83.7	280	8
2023-09-11T18:00	15251	122	-59.1	-83.7	282	7
2023-09-11T18:00	15272	122	-59.0	-83.7	284	7
2023-09-11T18:00	15297	121	-58.8	-83.8	287	6
2023-09-11T18:00	15317	121	-58.5	-83.5	288	5
2023-09-11T18:00	15342	120	-58.5	-83.5	288	4
2023-09-11T18:00	15365	120	-58.5	-83.5	285	4
2023-09-11T18:00	15386	120	-58.5	-83.5	279	3
2023-09-11T18:00	15409	119	-58.6	-83.6	272	3
2023-09-11T18:00	15435	119	-58.7	-83.7	264	3
2023-09-11T18:00	15456	118	-58.8	-83.5	258	4
2023-09-11T18:00	15478	118	-59.0	-83.7	253	4
2023-09-11T18:00	15502	117	-59.2	-83.6	251	5
2023-09-11T18:00	15525	117	-59.3	-83.7	250	5
2023-09-11T18:00	15549	116	-59.5	-83.8	251	6
2023-09-11T18:00	15572	116	-59.6	-83.9	252	7
2023-09-11T18:00	15595	116	-59.7	-84.0	254	7
2023-09-11T18:00	15617	115	-59.8	-84.1	256	8
2023-09-11T18:00	15640	115	-59.9	-84.1	258	8
2023-09-11T18:00	15666	114	-59.9	-84.4	260	8
2023-09-11T18:00	15691	114	-59.8	-84.3	263	8
2023-09-11T18:00	15714	113	-59.5	-84.3	266	8
2023-09-11T18:00	15737	113	-59.3	-84.4	271	7
2023-09-11T18:00	15762	113	-59.2	-84.3	276	8
2023-09-11T18:00	15785	112	-59.1	-84.2	281	8
2023-09-11T18:00	15812	112	-59.3	-84.4	286	8
2023-09-11T18:00	15832	111	-59.4	-84.5	290	8
2023-09-11T18:00	15858	111	-59.4	-84.5	293	8
2023-09-11T18:00	15882	110	-59.3	-84.4	297	8
2023-09-11T18:00	15904	110	-59.4	-84.5	299	8
2023-09-11T18:00	15928	110	-59.5	-84.6	302	8
2023-09-11T18:00	15951	109	-59.6	-84.6	304	8
2023-09-11T18:00	15975	109	-59.7	-84.5	306	8
2023-09-11T18:00	15998	108	-59.9	-84.6	308	7
2023-09-11T18:00	16021	108	-60.0	-84.7	309	7
2023-09-11T18:00	16045	108	-60.1	-84.8	309	7
2023-09-11T18:00	16067	107	-60.2	-84.8	308	7
2023-09-11T18:00	16093	107	-60.2	-84.8	306	6
2023-09-11T18:00	16115	106	-60.2	-84.6	304	6
2023-09-11T18:00	16140	106	-60.3	-84.7	302	6
2023-09-11T18:00	16162	106	-60.4	-84.8	300	5
2023-09-11T18:00	16187	105	-60.5	-84.6	297	5
2023-09-11T18:00	16212	105	-60.7	-84.5	293	4
2023-09-11T18:00	16235	104	-60.9	-84.7	288	4
2023-09-11T18:00	16259	104	-61.0	-84.5	281	4
2023-09-11T18:00	16282	104	-61.2	-84.7	276	4
2023-09-11T18:00	16304	103	-61.3	-84.8	274	4
2023-09-11T18:00	16327	103	-61.5	-84.7	275	5
2023-09-11T18:00	16350	102	-61.5	-84.7	278	5
2023-09-11T18:00	16374	102	-61.4	-84.7	281	6
2023-09-11T18:00	16398	102	-61.3	-84.8	285	6
2023-09-11T18:00	16417	101	-61.2	-84.7	287	7
2023-09-11T18:00	16442	101	-61.1	-84.8	289	7
2023-09-11T18:00	16466	101	-61.1	-84.8	291	7
2023-09-11T18:00	16490	100	-61.1	-85.1	293	7
2023-09-11T18:00	16514	100	-61.2	-85.2	295	7
2023-09-11T18:00	16535	99	-60.9	-85.2	296	7
2023-09-11T18:00	16558	99	-60.6	-85.2	296	7
2023-09-11T18:00	16581	99	-60.2	-85.1	297	7
2023-09-11T18:00	16605	98	-60.2	-85.4	299	7
2023-09-11T18:00	16628	98	-60.2	-85.7	302	7
2023-09-11T18:00	16652	98	-59.9	-85.4	305	7
2023-09-11T18:00	16676	97	-59.9	-85.4	309	7
2023-09-11T18:00	16700	97	-59.6	-85.2	313	8
2023-09-11T18:00	16723	96	-59.8	-85.3	317	7
2023-09-11T18:00	16749	96	-60.0	-85.8	321	7
2023-09-11T18:00	16770	96	-59.8	-85.6	325	7
2023-09-11T18:00	16798	95	-59.8	-85.6	329	6
2023-09-11T18:00	16821	95	-59.6	-85.5	333	6
2023-09-11T18:00	16846	95	-59.5	-85.4	336	5
2023-09-11T18:00	16868	94	-59.5	-85.4	338	4
2023-09-11T18:00	16894	94	-59.6	-85.5	339	3
2023-09-11T18:00	16917	94	-59.6	-85.5	338	2
2023-09-11T18:00	16945	93	-59.5	-85.4	330	2
2023-09-11T18:00	16970	93	-59.5	-85.7	304	1
2023-09-11T18:00	16996	92	-59.6	-85.8	262	1
2023-09-11T18:00	17019	92	-59.6	-85.8	239	1
2023-09-11T18:00	17042	92	-59.5	-85.7	231	2
2023-09-11T18:00	17065	91	-59.5	-85.4	229	2
2023-09-11T18:00	17089	91	-59.7	-85.6	228	3
2023-09-11T18:00	17115	91	-59.8	-85.6	229	3
2023-09-11T18:00	17139	90	-60.0	-85.8	230	4
2023-09-11T18:00	17164	90	-60.0	-85.8	231	4
2023-09-11T18:00	17187	90	-60.0	-85.8	232	4
2023-09-11T18:00	17214	89	-59.9	-85.7	233	4
2023-09-11T18:00	17236	89	-59.9	-85.7	235	4
2023-09-11T18:00	17263	89	-60.0	-86.1	237	4
2023-09-11T18:00	17284	88	-60.1	-86.2	240	4
2023-09-11T18:00	17308	88	-60.2	-86.3	244	4
2023-09-11T18:00	17329	88	-60.3	-86.3	248	5
2023-09-11T18:00	17356	87	-60.3	-86.3	253	5
2023-09-11T18:00	17379	87	-60.2	-86.3	257	5
2023-09-11T18:00	17400	87	-60.0	-86.4	261	5
2023-09-11T18:00	17426	86	-60.0	-86.4	264	5
2023-09-11T18:00	17448	86	-60.0	-86.4	268	5
2023-09-11T18:00	17471	86	-60.1	-86.5	273	5
2023-09-11T18:00	17494	85	-60.0	-86.8	276	5
2023-09-11T18:00	17518	85	-59.9	-86.7	278	5
2023-09-11T18:00	17542	85	-59.7	-86.5	278	4
2023-09-11T18:00	17563	84	-59.8	-86.6	277	4
2023-09-11T18:00	17585	84	-59.6	-86.5	275	4
2023-09-11T18:00	17608	84	-59.6	-86.5	273	3
2023-09-11T18:00	17632	83	-59.6	-86.5	274	3
2023-09-11T18:00	17654	83	-59.6	-86.5	277	2
2023-09-11T18:00	17679	83	-59.6	-86.8	280	2
2023-09-11T18:00	17701	82	-59.6	-86.8	284	2
2023-09-11T18:00	17725	82	-59.5	-86.8	286	2
2023-09-11T18:00	17751	82	-59.4	-86.7	288	1
2023-09-11T18:00	17775	82	-59.3	-86.6	289	1
2023-09-11T18:00	17797	81	-59.4	-86.7	291	1
2023-09-11T18:00	17820	81	-59.3	-86.6	293	2
2023-09-11T18:00	17842	81	-59.1	-86.8	296	2
2023-09-11T18:00	17868	80	-59.0	-86.8	301	2
2023-09-11T18:00	17891	80	-58.8	-86.6	307	2
2023-09-11T18:00	17916	80	-58.8	-86.6	315	1
2023-09-11T18:00	17940	79	-58.3	-86.7	326	1
2023-09-11T18:00	17963	79	-58.2	-86.6	342	1
2023-09-11T18:00	17989	79	-58.1	-86.5	24	0
2023-09-11T18:00	18012	79	-58.2	-86.6	108	0
2023-09-11T18:00	18038	78	-58.3	-86.7	137	1
2023-09-11T18:00	18064	78	-58.4	-86.3	152	1
2023-09-11T18:00	18085	78	-58.5	-86.4	163	2
2023-09-11T18:00	18110	77	-58.5	-86.4	175	2
2023-09-11T18:00	18132	77	-58.7	-86.5	188	2
2023-09-11T18:00	18155	77	-58.8	-86.6	202	3
2023-09-11T18:00	18177	76	-58.9	-86.7	215	3
2023-09-11T18:00	18201	76	-59.0	-86.8	225	3
2023-09-11T18:00	18224	76	-58.9	-86.7	233	4
2023-09-11T18:00	18248	76	-58.8	-86.6	239	4
2023-09-11T18:00	18272	75	-58.7	-86.5	245	4
2023-09-11T18:00	18294	75	-58.7	-86.5	249	5
2023-09-11T18:00	18321	75	-58.8	-86.6	253	5
2023-09-11T18:00	18346	74	-58.9	-86.7	257	5
2023-09-11T18:00	18370	74	-59.0	-86.8	260	6
2023-09-11T18:00	18393	74	-58.9	-86.7	264	6
2023-09-11T18:00	18414	74	-59.0	-86.8	268	6
2023-09-11T18:00	18443	73	-59.2	-86.9	272	6
2023-09-11T18:00	18468	73	-59.0	-86.8	277	5
2023-09-11T18:00	18492	73	-58.9	-86.7	282	5
2023-09-11T18:00	18516	72	-58.7	-87.0	286	5
2023-09-11T18:00	18538	72	-58.6	-86.9	288	5
2023-09-11T18:00	18565	72	-58.5	-86.8	289	4
2023-09-11T18:00	18588	72	-58.3	-86.7	288	3
2023-09-11T18:00	18616	71	-58.2	-87.0	284	3
2023-09-11T18:00	18638	71	-58.0	-86.9	278	2
2023-09-11T18:00	18664	71	-57.9	-86.8	271	2
2023-09-11T18:00	18687	71	-58.0	-86.9	268	2
2023-09-11T18:00	18711	70	-58.0	-86.9	268	3
2023-09-11T18:00	18736	70	-57.8	-86.7	270	3
2023-09-11T18:00	18758	70	-57.4	-86.4	271	3
2023-09-11T18:00	18783	69	-57.4	-86.4	271	4
2023-09-11T18:00	18810	69	-57.5	-86.5	268	4
2023-09-11T18:00	18832	69	-57.6	-86.6	265	4
2023-09-11T18:00	18856	69	-57.5	-86.5	262	4
2023-09-11T18:00	18880	68	-57.6	-86.6	260	4
2023-09-11T18:00	18905	68	-57.7	-86.7	259	4
2023-09-11T18:00	18932	68	-57.8	-86.7	258	3
2023-09-11T18:00	18956	68	-57.8	-86.7	257	3
2023-09-11T18:00	18979	67	-57.9	-86.8	257	3
2023-09-11T18:00	19001	67	-57.9	-86.8	258	3
2023-09-11T18:00	19025	67	-58.0	-86.9	262	3
2023-09-11T18:00	19048	67	-58.0	-86.9	267	3
2023-09-11T18:00	19076	66	-57.9	-86.8	273	3
2023-09-11T18:00	19096	66	-57.8	-86.7	276	3
2023-09-11T18:00	19119	66	-57.8	-86.7	278	3
2023-09-11T18:00	19145	66	-57.7	-86.7	278	3
2023-09-11T18:00	19169	65	-57.6	-86.6	276	3
2023-09-11T18:00	19193	65	-57.6	-86.6	273	3
2023-09-11T18:00	19219	65	-57.6	-86.6	270	4
2023-09-11T18:00	19239	65	-57.5	-86.5	268	4
2023-09-11T18:00	19265	64	-57.5	-86.5	267	4
2023-09-11T18:00	19289	64	-57.7	-86.7	267	4
2023-09-11T18:00	19315	64	-57.8	-86.7	269	5
2023-09-11T18:00	19338	64	-57.8	-86.7	273	5
2023-09-11T18:00	19361	63	-57.9	-86.8	279	5
2023-09-11T18:00	19385	63	-57.8	-86.7	286	5
2023-09-11T18:00	19412	63	-57.9	-86.8	293	5
2023-09-11T18:00	19434	63	-57.9	-86.8	300	5
2023-09-11T18:00	19458	62	-57.9	-86.8	306	6
2023-09-11T18:00	19481	62	-57.8	-86.7	311	6
2023-09-11T18:00	19504	62	-57.7	-86.7	314	6
2023-09-11T18:00	19527	62	-57.7	-86.7	317	5
2023-09-11T18:00	19553	61	-57.8	-86.7	319	5
2023-09-11T18:00	19580	61	-57.7	-86.7	319	5
2023-09-11T18:00	19603	61	-57.6	-86.6	319	5
2023-09-11T18:00	19624	61	-57.8	-86.7	318	5
2023-09-11T18:00	19645	61	-57.8	-86.7	317	5
2023-09-11T18:00	19671	60	-57.7	-86.7	315	5
2023-09-11T18:00	19697	60	-57.6	-86.6	312	4
2023-09-11T18:00	19722	60	-57.7	-86.7	309	4
2023-09-11T18:00	19744	60	-57.7	-86.7	305	4
2023-09-11T18:00	19771	59	-57.7	-86.7	303	4
2023-09-11T18:00	19793	59	-57.7	-86.7	305	4
2023-09-11T18:00	19819	59	-57.7	-86.7	309	4
2023-09-11T18:00	19840	59	-57.6	-86.6	315	4
2023-09-11T18:00	19865	58	-57.7	-86.7	321	4
2023-09-11T18:00	19893	58	-57.8	-86.7	327	4
2023-09-11T18:00	19919	58	-57.9	-86.8	332	5
2023-09-11T18:00	19941	58	-57.9	-86.8	336	5
2023-09-11T18:00	19966	58	-57.9	-86.8	340	5
2023-09-11T18:00	19990	57	-57.8	-86.7	343	5
2023-09-11T18:00	20012	57	-57.9	-86.8	345	5
2023-09-11T18:00	20038	57	-57.9	-86.8	346	5
2023-09-11T18:00	20064	57	-58.0	-86.9	346	5
2023-09-11T18:00	20088	56	-58.1	-87.0	345	5
2023-09-11T18:00	20113	56	-58.1	-87.0	345	5
2023-09-11T18:00	20139	56	-58.1	-87.0	344	5
2023-09-11T18:00	20165	56	-58.0	-86.9	343	4
2023-09-11T18:00	20192	56	-57.9	-86.8	342	4
2023-09-11T18:00	20215	55	-57.9	-86.8	341	4
2023-09-11T18:00	20238	55	-58.0	-86.9	339	4
2023-09-11T18:00	20267	55	-57.9	-86.8	338	3
2023-09-11T18:00	20292	55	-57.9	-86.8	338	3
2023-09-11T18:00	20315	54	-57.9	-86.8	338	3
2023-09-11T18:00	20344	54	-58.0	-86.9	338	3
2023-09-11T18:00	20366	54	-58.0	-86.9	335	3
2023-09-11T18:00	20392	54	-58.1	-87.0	329	2
2023-09-11T18:00	20414	54	-58.1	-87.0	320	2
2023-09-11T18:00	20439	53	-58.2	-87.0	312	2
2023-09-11T18:00	20463	53	-58.2	-87.0	308	2
2023-09-11T18:00	20491	53	-58.2	-87.0	309	3
2023-09-11T18:00	20514	53	-58.2	-87.0	312	3
2023-09-11T18:00	20539	53	-58.0	-87.4	315	4
2023-09-11T18:00	20559	52	-57.7	-87.2	317	4
2023-09-11T18:00	20584	52	-57.6	-87.1	318	5
2023-09-11T18:00	20611	52	-57.6	-87.1	319	5
2023-09-11T18:00	20636	52	-57.6	-87.1	321	6
2023-09-11T18:00	20660	52	-57.5	-87.0	324	6
2023-09-11T18:00	20685	51	-57.5	-87.0	327	6
2023-09-11T18:00	20709	51	-57.3	-86.9	332	6
2023-09-11T18:00	20735	51	-57.2	-86.8	337	6
2023-09-11T18:00	20763	51	-56.9	-87.1	341	6
2023-09-11T18:00	20784	51	-57.0	-87.2	345	6
2023-09-11T18:00	20809	50	-57.0	-86.6	350	5
2023-09-11T18:00	20838	50	-57.0	-86.6	355	5
2023-09-11T18:00	20859	50	-57.1	-86.7	3	5
2023-09-11T18:00	20882	50	-57.2	-86.8	11	5
2023-09-11T18:00	20908	50	-57.3	-86.9	21	5
2023-09-11T18:00	20932	49	-57.3	-86.9	29	4
2023-09-11T18:00	20954	49	-56.9	-86.6	36	4
2023-09-11T18:00	20982	49	-57.1	-86.7	40	4
2023-09-11T18:00	21007	49	-57.3	-86.9	42	4
2023-09-11T18:00	21030	49	-57.3	-86.9	43	4
2023-09-11T18:00	21053	48	-57.5	-87.0	45	3
2023-09-11T18:00	21081	48	-57.2	-86.8	49	3
2023-09-11T18:00	21105	48	-57.4	-86.9	57	3
2023-09-11T18:00	21129	48	-57.5	-87.0	72	2
2023-09-11T18:00	21161	48	-57.4	-86.9	95	2
2023-09-11T18:00	21183	47	-57.3	-86.9	123	2
2023-09-11T18:00	21208	47	-57.3	-86.9	151	2
2023-09-11T18:00	21234	47	-57.2	-87.3	173	2
2023-09-11T18:00	21260	47	-57.0	-87.2	191	2
2023-09-11T18:00	21285	47	-56.8	-87.0	207	2
2023-09-11T18:00	21311	47	-56.8	-87.0	220	2
2023-09-11T18:00	21335	46	-56.6	-86.9	230	2
2023-09-11T18:00	21362	46	-56.5	-86.8	238	1
2023-09-11T18:00	21388	46	-56.4		240	1
2023-09-11T18:00	21413	46	-56.4		237	1
2023-09-11T18:00	21441	46	-56.2	-86.6	230	1
2023-09-11T18:00	21466	45	-56.1	-86.5	227	1
2023-09-11T18:00	21489	45	-56.0	-86.4	231	1
2023-09-11T18:00	21516	45	-56.0	-86.4	231	1
2023-09-11T18:00	21542	45	-56.0	-86.4	217	0
2023-09-11T18:00	21570	45	-56.1	-86.5	187	1
2023-09-11T18:00	21599	44	-56.1	-86.5	168	1
2023-09-11T18:00	21624	44	-56.2	-86.6	163	1
2023-09-11T18:00	21651	44	-56.2	-86.6	164	1
2023-09-11T18:00	21680	44	-56.4	-86.2	169	2
2023-09-11T18:00	21702	44	-56.5	-86.3	177	2
2023-09-11T18:00	21728	44	-56.7	-86.4	187	2
2023-09-11T18:00	21757	43	-56.8	-86.5	196	2
2023-09-11T18:00	21780	43	-56.8	-86.5	205	3
2023-09-11T18:00	21808	43	-56.9	-86.6	212	3
2023-09-11T18:00	21836	43	-57.0	-86.6	218	3
2023-09-11T18:00	21862	43	-56.9	-86.6	224	4
2023-09-11T18:00	21887	43	-57.0	-86.6	229	4
2023-09-11T18:00	21911	42	-57.1	-86.7	235	5
2023-09-11T18:00	21934	42	-57.1	-86.7	240	5
2023-09-11T18:00	21964	42	-57.2	-86.8	246	5
2023-09-11T18:00	21990	42	-57.2	-86.8	252	5
2023-09-11T18:00	22013	42	-57.4	-86.9	258	5
2023-09-11T18:00	22043	41	-57.4	-86.9	264	5
2023-09-11T18:00	22071	41	-57.3	-86.9	270	5
2023-09-11T18:00	22095	41	-57.3	-87.4	275	4
2023-09-11T18:00	22126	41	-57.1	-87.2	280	4
2023-09-11T18:00	22149	41	-56.8	-87.0	282	4
2023-09-11T18:00	22168	41	-56.8	-87.0	282	4
2023-09-11T18:00	22194	40	-56.7	-86.9	281	4
2023-09-11T18:00	22220	40	-56.7	-86.9	280	3
2023-09-11T18:00	22243	40	-56.7	-86.9	281	3
2023-09-11T18:00	22272	40	-56.8	-87.0	282	3
2023-09-11T18:00	22297	40	-56.8	-87.0	284	3
2023-09-11T18:00	22325	40	-56.7	-86.4	285	3
2023-09-11T18:00	22346	40	-56.9	-86.6	284	4
2023-09-11T18:00	22373	39	-56.9	-86.6	283	4
2023-09-11T18:00	22398	39	-57.0	-86.6	282	4
2023-09-11T18:00	22425	39	-57.1	-86.7	281	4
2023-09-11T18:00	22448	39	-57.2	-86.8	282	5
2023-09-11T18:00	22473	39	-57.3	-86.9	284	5
2023-09-11T18:00	22500	39	-57.3	-86.9	286	6
2023-09-11T18:00	22520	38	-57.3	-86.9	289	6
2023-09-11T18:00	22553	38	-57.3	-86.9	292	7
2023-09-11T18:00	22571	38	-57.3	-86.9	295	7
2023-09-11T18:00	22596	38	-57.2	-86.8	298	7
2023-09-11T18:00	22622	38	-57.3	-86.9	299	6
2023-09-11T18:00	22646	38	-57.3	-87.4	300	6
2023-09-11T18:00	22670	38	-57.3	-87.4	299	5
2023-09-11T18:00	22693	37	-56.9	-87.1	296	4
2023-09-11T18:00	22718	37	-56.8	-87.0	294	4
2023-09-11T18:00	22739	37	-56.8	-87.0	293	4
2023-09-11T18:00	22770	37	-56.8	-87.0	293	5
2023-09-11T18:00	22791	37	-56.7	-86.9	294	5
2023-09-11T18:00	22817	37	-56.7	-86.9	296	6
2023-09-11T18:00	22844	37	-56.7	-86.9	299	6
2023-09-11T18:00	22872	36	-56.8	-87.0	301	7
2023-09-11T18:00	22895	36	-56.9	-87.1	303	7
2023-09-11T18:00	22919	36	-56.9	-87.1	305	7
2023-09-11T18:00	22942	36	-56.8	-86.5	308	7
2023-09-11T18:00	22963	36	-56.9	-86.6	312	7
2023-09-11T18:00	22997	36	-57.1	-86.7	316	7
2023-09-11T18:00	23021	36	-57.2	-86.8	322	7
2023-09-11T18:00	23047	35	-57.3	-86.9	328	6
2023-09-11T18:00	23078	35	-57.4	-86.9	336	6
2023-09-11T18:00	23099	35	-57.4	-86.9	344	6
2023-09-11T18:00	23119	35	-57.2	-86.8	352	6
2023-09-11T18:00	23151	35	-57.1	-87.2	360	6
2023-09-11T18:00	23177	35	-57.1	-87.2	6	5
2023-09-11T18:00	23204	35	-57.1	-87.2	13	5
2023-09-11T18:00	23224	34	-56.9	-87.1	20	5
2023-09-11T18:00	23258	34	-56.7	-86.9	29	4
2023-09-11T18:00	23278	34	-56.7	-86.9	39	4
2023-09-11T18:00	23309	34	-56.7	-86.9	50	4
2023-09-11T18:00	23337	34	-56.8	-87.0	62	3
2023-09-11T18:00	23366	34	-56.6	-86.9	74	3
2023-09-11T18:00	23388	34	-56.3	-86.6	88	2
2023-09-11T18:00	23418	33	-56.4		106	2
2023-09-11T18:00	23449	33	-56.4		132	1
2023-09-11T18:00	23471	33	-56.3	-86.6	171	1
2023-09-11T18:00	23502	33	-56.2	-86.6	218	1
2023-09-11T18:00	23531	33	-56.1	-86.5	250	2
2023-09-11T18:00	23558	33	-56.1	-86.5	264	2
2023-09-11T18:00	23580	33	-56.2	-86.6	271	3
2023-09-11T18:00	23608	32	-56.3	-86.6	273	3
2023-09-11T18:00	23633	32	-56.2	-86.6	271	3
2023-09-11T18:00	23666	32	-56.0	-87.0	268	3
2023-09-11T18:00	23694	32	-55.8	-86.9	265	3
2023-09-11T18:00	23725	32	-55.6	-86.7	263	3
2023-09-11T18:00	23748	32	-55.4	-86.6	263	3
2023-09-11T18:00	23773	32	-55.4	-86.6	267	3
2023-09-11T18:00	23802	31	-55.5	-86.7	274	3
2023-09-11T18:00	23833	31	-55.5	-86.7	282	3
2023-09-11T18:00	23861	31	-55.7	-86.8	291	3
2023-09-11T18:00	23888	31	-55.7	-86.8	299	4
2023-09-11T18:00	23916	31	-55.6	-86.7	307	4
2023-09-11T18:00	23945	31	-55.5	-86.7	314	4
2023-09-11T18:00	23967	31	-55.5	-86.7	322	4
2023-09-11T18:00	23998	30	-55.6	-86.7	329	4
2023-09-11T18:00	24025	30	-55.7	-86.2	338	4
2023-09-11T18:00	24050	30	-55.9	-86.3	347	4
2023-09-11T18:00	24077	30	-55.9	-86.3	355	4
2023-09-11T18:00	24108	30	-55.8	-86.3	1	4
2023-09-11T18:00	24134	30	-55.8	-86.9	7	4
2023-09-11T18:00	24156	30	-55.7	-86.8	11	4
2023-09-11T18:00	24182	30	-55.7	-86.8	16	4
2023-09-11T18:00	24210	29	-55.4	-86.6	20	4
2023-09-11T18:00	24236	29	-55.4	-86.6	25	4
2023-09-11T18:00	24263	29	-55.1	-86.4	30	4
2023-09-11T18:00	24286	29	-54.8	-86.1	34	4
2023-09-11T18:00	24312	29	-54.9	-86.2	39	3
2023-09-11T18:00	24335	29	-55.0	-86.3	47	2
2023-09-11T18:00	24366	29	-55.1	-86.4	60	2
2023-09-11T18:00	24391	29	-55.3	-86.5	81	1
2023-09-11T18:00	24413	29	-55.3	-85.9	109	1
2023-09-11T18:00	24442	28	-55.4	-86.0	134	1
2023-09-11T18:00	24468	28	-55.6	-86.1	152	1
2023-09-11T18:00	24494	28	-55.6	-86.1	166	1
2023-09-11T18:00	24520	28	-55.6	-86.1	179	1
2023-09-11T18:00	24545	28	-55.7	-86.2	191	1
2023-09-11T18:00	24571	28	-56.0	-86.4	199	1
2023-09-11T18:00	24598	28	-56.0	-86.4	205	1
2023-09-11T18:00	24628	28	-56.2	-86.6	207	1
2023-09-11T18:00	24651	28	-56.3	-86.6	83	0
2023-09-11T18:00	24679	27	-56.4		36	1
2023-09-11T18:00	24702	27	-56.1	-87.1	36	2
2023-09-11T18:00	24728	27	-56.0	-87.0	39	2
2023-09-11T18:00	24752	27	-55.9	-86.9	41	3
2023-09-11T18:00	24785	27	-55.6	-87.4	45	3
2023-09-11T18:00	24813	27	-55.2	-87.1	50	3
2023-09-11T18:00	24836	27	-54.7	-86.7	54	3
2023-09-11T18:00	24866	27	-54.4	-86.5	57	3
2023-09-11T18:00	24900	26	-54.4	-86.5	60	3
2023-09-11T18:00	24920	26	-54.4	-86.5	64	3
2023-09-11T18:00	24948	26	-54.3	-86.4	69	3
2023-09-11T18:00	24974	26	-54.3	-86.4	77	3
2023-09-11T18:00	25005	26	-54.1	-86.3	87	3
2023-09-11T18:00	25034	26	-53.8	-86.1	96	3
2023-09-11T18:00	25058	26	-53.5	-85.9	105	3
2023-09-11T18:00	25085	26	-53.4	-85.8	112	3
2023-09-11T18:00	25110	26	-53.4	-85.8	120	3
2023-09-11T18:00	25145	25	-53.2	-85.6	128	3
2023-09-11T18:00	25168	25	-53.0	-85.5	137	3
2023-09-11T18:00	25198	25	-52.8	-85.3	146	3
2023-09-11T18:00	25228	25	-52.9	-85.4	155	3
2023-09-11T18:00	25251	25	-53.0	-85.5	163	2
2023-09-11T18:00	25284	25	-53.0	-85.5	170	2
2023-09-11T18:00	25320	25	-53.1	-85.6	176	1
2023-09-11T18:00	25341	25	-53.1	-85.6	183	1
2023-09-11T18:00	25372	25	-53.3	-85.7	194	1
2023-09-11T18:00	25398	24	-53.4	-85.8	207	1
2023-09-11T18:00	25420	24	-53.3	-85.7	211	1
2023-09-11T18:00	25450	24	-53.1	-85.6	200	1
2023-09-11T18:00	25481	24	-52.9	-85.4	189	1
2023-09-11T18:00	25508	24	-53.0	-85.5	184	1
2023-09-11T18:00	25537	24	-53.1	-85.6	182	2
2023-09-11T18:00	25556	24	-53.2	-85.6	185	2
2023-09-11T18:00	25591	24	-53.3	-85.7	191	3
2023-09-11T18:00	25612	24	-53.4	-85.8	199	3
2023-09-11T18:00	25649	24	-53.4	-85.8	208	3
2023-09-11T18:00	25662	23	-53.5	-85.9	219	3
2023-09-11T18:00	25698	23	-53.3	-85.7	230	3
2023-09-11T18:00	25722	23	-53.2	-85.6	241	3
2023-09-11T18:00	25743	23	-53.2	-85.6	253	2
2023-09-11T18:00	25780	23	-53.1	-85.6	263	2
2023-09-11T18:00	25803	23	-53.3	-85.7	269	2
2023-09-11T18:00	25831	23	-53.4	-85.8	271	2
2023-09-11T18:00	25853	23	-53.5	-85.9	269	2
2023-09-11T18:00	25889	23	-53.4	-85.8	265	2
2023-09-11T18:00	25915	23	-53.3	-85.7	258	2
2023-09-11T18:00	25931	23	-53.2	-85.6	249	2
2023-09-11T18:00	25962	22	-53.1	-85.6	239	2
2023-09-11T18:00	25982	22	-53.1	-85.6	230	2
2023-09-11T18:00	26010	22	-53.0	-85.5	224	2
2023-09-11T18:00	26041	22	-53.0	-85.5	222	2
2023-09-11T18:00	26063	22	-53.1	-85.6	224	3
2023-09-11T18:00	26079	22	-52.9	-85.4	229	3
2023-09-11T18:00	26115	22	-52.7	-86.0	237	4
2023-09-11T18:00	26135	22	-52.5	-85.9	246	4
2023-09-11T18:00	26160	22	-52.4	-85.8	256	4
2023-09-11T18:00	26193	22	-52.3	-85.8	267	5
2023-09-11T18:00	26220	22	-52.1	-85.6	279	5
2023-09-11T18:00	26245	21	-51.7	-85.3	289	5
2023-09-11T18:00	26276	21	-51.7	-85.3	298	6
2023-09-11T18:00	26298	21	-51.9	-85.5	306	6
2023-09-11T18:00	26330	21	-52.0	-85.5	313	7
2023-09-11T18:00	26356	21	-52.1	-85.6	320	7
2023-09-11T18:00	26387	21	-52.1	-85.6	326	8
2023-09-11T18:00	26414	21	-51.9	-85.5	331	8
2023-09-11T18:00	26451	21	-51.8	-85.4	335	8
2023-09-11T18:00	26465	21	-51.7	-85.3	338	8
2023-09-11T18:00	26504	21	-51.7	-85.3	341	7
2023-09-11T18:00	26521	21	-51.5	-85.2	344	7
2023-09-11T18:00	26555	20	-51.5	-85.2	347	6
2023-09-11T18:00	26589	20	-51.6	-85.2	350	5
2023-09-11T18:00	26613	20	-51.7	-85.3	351	4
2023-09-11T18:00	26649	20	-51.5	-85.2	350	3
2023-09-11T18:00	26677	20	-51.5	-85.2	345	3
2023-09-11T18:00	26702	20	-51.4	-85.1	335	3
2023-09-11T18:00	26726	20	-51.3	-85.0	322	3
2023-09-11T18:00	26755	20	-51.2	-85.0	307	3
2023-09-11T18:00	26786	20	-50.9	-84.7	291	3
2023-09-11T18:00	26809	20	-50.6	-84.5	276	3
2023-09-11T18:00	26841	20	-50.5	-84.5	267	3
2023-09-11T18:00	26877	19	-50.4	-84.4	265	3
2023-09-11T18:00	26906	19	-50.4	-84.4	268	3
2023-09-11T18:00	26937	19	-50.3	-84.3	275	4
2023-09-11T18:00	26965	19	-50.4	-84.4	281	4
2023-09-11T18:00	26989	19	-50.5	-84.5	282	4
2023-09-11T18:00	27029	19	-50.6	-84.5	279	4
2023-09-11T18:00	27050	19	-50.5	-84.5	272	4
2023-09-11T18:00	27084	19	-50.5	-84.5	265	4
2023-09-11T18:00	27112	19	-50.4	-84.4	262	4
2023-09-11T18:00	27143	19	-50.1	-84.2	262	5
2023-09-11T18:00	27163	19	-50.0	-84.1	265	5
2023-09-11T18:00	27198	19	-49.9	-84.0	269	5
2023-09-11T18:00	27232	18	-49.9	-84.0	273	5
2023-09-11T18:00	27261	18	-49.9	-84.0	280	5
2023-09-11T18:00	27288	18	-49.9	-84.0	287	4
2023-09-11T18:00	27323	18	-49.9	-84.0	295	4
2023-09-11T18:00	27357	18	-49.9	-84.0	302	4
2023-09-11T18:00	27383	18	-50.0	-84.1	306	4
2023-09-11T18:00	27408	18	-50.0	-84.1	310	4
2023-09-11T18:00	27441	18	-50.0	-84.1	312	4
2023-09-11T18:00	27465	18	-50.1	-84.2	313	3
2023-09-11T18:00	27498	18	-50.1	-84.2	312	3
2023-09-11T18:00	27511	18	-50.2	-84.2	309	3
2023-09-11T18:00	27551	18	-50.2	-84.2	305	3
2023-09-11T18:00	27572	18	-49.8	-84.0	300	3
2023-09-11T18:00	27610	17	-49.6	-84.7	294	3
2023-09-11T18:00	27638	17	-49.6	-84.7	287	3
2023-09-11T18:00	27660	17	-49.6	-84.7	281	3
2023-09-11T18:00	27697	17	-49.5	-84.6	274	3
2023-09-11T18:00	27718	17	-49.4	-84.6	268	3
2023-09-11T18:00	27745	17	-49.3	-84.5	264	4
2023-09-11T18:00	27778	17	-49.3	-84.5	262	4
2023-09-11T18:00	27797	17	-49.3	-84.5	261	4
2023-09-11T18:00	27829	17	-49.1	-84.3	262	5
2023-09-11T18:00	27849	17	-49.0	-84.3	263	5
2023-09-11T18:00	27887	17	-48.8	-84.1	264	6
2023-09-11T18:00	27902	17	-48.5	-83.9	264	6
2023-09-11T18:00	27945	17	-48.2	-83.7	264	6
2023-09-11T18:00	27973	16	-48.1	-83.6	264	6
2023-09-11T18:00	27989	16	-48.1	-83.6	265	5
2023-09-11T18:00	28017	16	-47.9	-83.5	267	5
2023-09-11T18:00	28063	16	-47.8	-83.4	269	5
2023-09-11T18:00	28082	16	-47.8	-83.4	272	5
2023-09-11T18:00	28100	16	-47.8	-83.4	274	5
2023-09-11T18:00	28139	16	-47.7	-83.4	276	5
2023-09-11T18:00	28166	16	-47.6	-83.3	278	5
2023-09-11T18:00	28192	16	-47.4	-83.1	280	5
2023-09-11T18:00	28221	16	-47.4	-83.1	283	6
2023-09-11T18:00	28249	16	-47.4	-83.1	287	6
2023-09-11T18:00	28282	16	-47.4	-83.1	290	6
2023-09-11T18:00	28312	16	-47.5	-83.2	292	6
2023-09-11T18:00	28341	16	-47.6	-83.3	293	7
2023-09-11T18:00	28366	16	-47.7	-83.4	293	7
2023-09-11T18:00	28401	15	-47.7	-83.4	291	6
2023-09-11T18:00	28430	15	-47.6	-83.3	289	6
2023-09-11T18:00	28465	15	-47.7	-83.4	286	6
2023-09-11T18:00	28496	15	-47.8	-83.4	283	6
2023-09-11T18:00	28522	15	-47.8	-83.4	281	6
2023-09-11T18:00	28564	15	-47.8	-83.4	281	6
2023-09-11T18:00	28583	15	-47.8	-83.4	281	6
2023-09-11T18:00	28614	15	-47.4	-83.1	283	7
2023-09-11T18:00	28633	15	-47.3	-83.1	285	7
2023-09-11T18:00	28665	15	-47.1	-82.9	286	7
2023-09-11T18:00	28691	15	-47.2	-83.0	286	8
2023-09-11T18:00	28725	15	-47.1	-82.9	287	8
2023-09-11T18:00	28763	15	-46.9	-82.8	288	8
2023-09-11T18:00	28793	15	-47.0	-82.9	290	7
2023-09-11T18:00	28818	15	-47.2	-83.0	293	7
2023-09-11T18:00	28851	14	-47.3	-83.1	297	6
2023-09-11T18:00	28871	14	-47.4	-83.1	301	6
2023-09-11T18:00	28902	14	-47.4	-83.1	305	6
2023-09-11T18:00	28942	14	-47.4	-83.1	308	6
2023-09-11T18:00	28971	14	-47.3	-83.1	310	6
2023-09-11T18:00	28991	14	-47.4	-83.1	312	6
2023-09-11T18:00	29020	14	-47.4	-83.1	315	5
2023-09-11T18:00	29049	14	-47.3	-83.1	318	5
2023-09-11T18:00	29081	14	-47.3	-83.1	322	5
2023-09-11T18:00	29099	14	-47.5	-83.2	327	5
2023-09-11T18:00	29149	14	-47.5	-83.2	334	5
2023-09-11T18:00	29169	14	-47.2	-83.0	341	5
2023-09-11T18:00	29198	14	-47.1	-82.9	350	4
2023-09-11T18:00	29224	14	-46.9	-83.9	358	4
2023-09-11T18:00	29270	14	-46.8	-83.8	5	4
2023-09-11T18:00	29275	14	-46.7	-83.7	8	3
2023-09-11T18:00	29307	13	-46.5	-83.6	8	3
2023-09-11T18:00	29336	13	-46.5	-83.6	6	2
2023-09-11T18:00	29357	13	-46.4	-83.5	3	2
2023-09-11T18:00	29393	13	-46.2	-83.4	0	2
2023-09-11T18:00	29415	13	-46.1	-83.3	358	2
2023-09-11T18:00	29453	13	-46.2	-83.4	355	2
2023-09-11T18:00	29477	13	-46.0	-83.2	349	2
2023-09-11T18:00	29508	13	-46.0	-83.2	341	2
2023-09-11T18:00	29532	13	-45.9	-83.2	332	2
2023-09-11T18:00	29549	13	-46.0	-83.2	322	2
2023-09-11T18:00	29582	13	-45.9	-83.2	311	2
2023-09-11T18:00	29607	13	-45.9	-83.2	302	1
2023-09-11T18:00	29637	13	-45.8	-83.1	297	1
2023-09-11T18:00	29668	13	-45.6	-82.9	299	1
2023-09-11T18:00	29685	13	-45.5	-82.9	319	1
2023-09-11T18:00	29721	13	-45.5	-82.9	16	1
2023-09-11T18:00	29745	13	-45.2	-82.7	56	1
2023-09-11T18:00	29782	13	-44.9	-82.5	71	2
2023-09-11T18:00	29791	13	-45.0	-82.5	80	2
2023-09-11T18:00	29824	12	-45.2	-82.7	85	3
2023-09-11T18:00	29865	12	-45.3	-82.7	90	2
2023-09-11T18:00	29883	12	-45.5	-82.9	97	2
2023-09-11T18:00	29930	12	-45.2	-82.7	110	2
2023-09-11T18:00	29950	12	-45.2	-82.7	139	1
2023-09-11T18:00	29968	12	-45.0	-82.5	190	1
2023-09-11T18:00	30001	12	-45.1	-82.6	226	1
2023-09-11T18:00	30029	12	-45.2	-82.7	246	2
2023-09-11T18:00	30075	12	-45.2	-82.7	258	3
2023-09-11T18:00	30102	12	-45.3	-82.7	265	4
2023-09-11T18:00	30131	12	-45.1	-82.6	269	5
2023-09-11T18:00	30158	12	-44.8	-82.4	272	6
2023-09-11T18:00	30189	12	-44.7	-82.3	273	7
2023-09-11T18:00	30229	12	-44.6	-82.2	274	7
2023-09-11T18:00	30238	12	-44.3	-82.0	274	7
2023-09-11T18:00	30276	12	-43.9	-81.8	275	6
2023-09-11T18:00	30306	12	-43.9	-81.8	276	5
2023-09-11T18:00	30346	12	-44.0	-81.8	278	5
2023-09-11T18:00	30380	12	-44.0	-81.8	279	4
2023-09-11T18:00	30402	11	-44.0	-81.8	281	5
2023-09-11T18:00	30438	11	-44.0	-81.8	283	5
2023-09-11T18:00	30447	11	-43.8	-81.7	283	6
2023-09-11T18:00	30495	11	-44.0	-81.8	283	6
2023-09-11T18:00	30511	11	-44.1	-81.9	283	7
2023-09-11T18:00	30536	11	-44.2	-82.0	282	7
2023-09-11T18:00	30575	11	-44.1	-81.9	281	7
2023-09-11T18:00	30616	11	-44.1	-81.9	280	6
2023-09-11T18:00	30633	11	-44.0	-81.8	277	6
2023-09-11T18:00	30671	11	-44.1	-81.9	274	6
2023-09-11T18:00	30693	11	-44.2	-82.0	268	5
2023-09-11T18:00	30726	11	-44.1	-81.9	262	5
2023-09-11T18:00	30761	11	-44.1	-81.9	255	5
2023-09-11T18:00	30795	11	-43.9	-81.8	248	5
2023-09-11T18:00	30818	11	-43.8	-81.7	243	5
2023-09-11T18:00	30841	11	-43.8	-81.7	242	5
2023-09-11T18:00	30869	11	-43.9	-81.8	243	5
2023-09-11T18:00	30903	11	-43.8	-81.7	247	5
2023-09-11T18:00	30929	11	-43.5	-81.5	253	6
2023-09-11T18:00	30960	11	-43.5	-81.5	257	6
2023-09-11T18:00	30996	10	-43.6	-81.5	260	7
2023-09-11T18:00	31035	10	-43.6	-81.5	260	7
2023-09-11T18:00	31045	10	-43.5	-81.5	260	8
2023-09-11T18:00	31086	10	-43.6	-81.5	258	8
2023-09-11T18:00	31118	10	-43.6	-81.5	258	9
2023-09-11T18:00	31143	10	-43.7	-81.6	258	10
2023-09-11T18:00	31181	10	-43.7	-81.6	260	10
2023-09-11T18:00	31198	10	-43.3	-81.3	263	11
2023-09-11T18:00	31233	10	-43.1	-81.2	267	11
2023-09-11T18:00	31249	10	-43.0	-81.1	271	11
2023-09-11T18:00	31272	10	-42.9	-81.1	275	11
2023-09-11T18:00	31314	10	-42.9	-81.1	279	11
2023-09-11T18:00	31361	10	-43.0	-81.1	282	11
2023-09-11T18:00	31377	10	-43.0	-81.1	285	11
2023-09-11T18:00	31413	10	-43.0	-81.1	286	11
2023-09-11T18:00	31439	10	-43.0	-81.1	286	11
2023-09-11T18:00	31459	10	-42.7	-80.9	284	11
2023-09-11T18:00	31506	10	-42.7	-80.9	281	11
2023-09-11T18:00	31523	10	-42.3	-80.6	277	11
2023-09-11T18:00	31549	10	-42.2	-80.6	273	10
2023-09-11T18:00	31587	10	-42.2	-80.6	269	10
2023-09-11T18:00	31625	10	-42.1	-80.5	267	10
2023-09-11T18:00	31644	10	-41.6	-80.1	264	10
2023-09-11T18:00	31681	9	-41.4	-80.0	263	9
2023-09-11T18:00	31731	9	-41.2	-79.9	262	9
2023-09-11T18:00	31750	9	-41.1	-79.8	262	9
2023-09-11T18:00	31777	9	-40.7	-79.5	263	8
2023-09-11T18:00	31782	9	-40.7	-79.5	264	8
2023-09-11T18:00	31824	9	-40.6	-79.5	266	7
2023-09-11T18:00	31858	9	-40.5	-79.4	266	7
2023-09-11T18:00	31881	9	-40.6	-79.5	264	7
2023-09-11T18:00	31926	9	-40.4	-79.3	261	8
2023-09-11T18:00	31938	9	-40.4	-79.3	258	8
2023-09-11T18:00	31963	9	-40.6	-79.5	256	9
2023-09-11T18:00	32009	9	-40.6	-79.5	255	10
2023-09-11T18:00	32023	9	-40.8	-79.6	255	10
2023-09-11T18:00	32051	9	-40.8	-79.6	256	11
2023-09-11T18:00	32087	9	-40.6	-79.5	257	12
2023-09-11T18:00	32131	9	-40.6	-79.5	260	12
2023-09-11T18:00	32141	9	-40.5	-79.4	262	12
2023-09-11T18:00	32173	9	-40.7	-79.5	265	13
2023-09-11T18:00	32211	9	-40.7	-79.5	267	13
2023-09-11T18:00	32225	9	-40.7	-79.5	270	13
2023-09-11T18:00	32278	9	-40.6	-79.5	273	14
2023-09-11T18:00	32288	9	-40.6	-79.5	276	14
2023-09-11T18:00	32316	9	-40.5	-79.4	279	14
2023-09-11T18:00	32343	9	-40.1	-79.1	282	14
2023-09-11T18:00	32365	9	-39.8	-78.9	285	14
2023-09-11T18:00	32394	9	-39.9	-79.0	289	14
2023-09-11T18:00	32433	8	-40.1	-79.1	293	14
2023-09-11T18:00	32460	8	-40.1	-79.1	296	14
2023-09-11T18:00	32473	8	-40.0	-79.0	300	14
2023-09-11T18:00	32510	8	-40.0	-79.0	304	13
2023-09-11T18:00	32541	8	-39.8	-78.9	308	13
2023-09-11T18:00	32581	8	-39.5	-78.7	313	12
2023-09-11T18:00	32593	8	-39.2	-78.5	318	11
2023-09-11T18:00	32623	8	-39.0	-78.3	324	11
2023-09-11T18:00	32639	8	-38.8	-78.2	330	10
2023-09-11T18:00	32675	8	-38.7	-78.1	336	9
2023-09-11T18:00	32691	8	-38.5	-78.0	342	9
2023-09-11T18:00	32737	8	-38.2	-77.8	348	8
2023-09-11T18:00	32773	8	-38.2	-77.8	354	8
2023-09-11T18:00	32818	8	-37.7	-77.4	8	6
2023-09-11T18:00	32842	8	-37.5	-77.3	14	6
2023-09-11T18:00	32871	8	-37.4	-77.2	22	5
2023-09-11T18:00	32884	8	-37.5	-77.3	32	4
2023-09-11T18:00	32936	8	-37.7	-77.4	45	4
2023-09-11T18:00	32962	8	-37.9	-77.6	85	3
2023-09-11T18:00	33015	8	-37.9	-77.6	106	3
2023-09-11T18:00	33032	8	-38.0	-77.6	124	4
2023-09-11T18:00	33054	8	-37.5	-77.3	137	4
2023-09-11T18:00	33095	8	-36.8	-76.8	146	4
2023-09-11T18:00	33113	8	-36.9	-76.9	154	4
2023-09-11T18:00	33134	8	-37.1	-77.0	161	4
2023-09-11T18:00	33166	8	-37.3	-77.2	169	4
2023-09-11T18:00	33208	8	-37.5	-77.3	176	5
2023-09-11T18:00	33231	8	-37.7	-77.4	183	5
2023-09-11T18:00	33257	8	-37.9	-77.6	190	5
2023-09-11T18:00	33271	8	-38.1	-77.7	195	5
2023-09-11T18:00	33318	7	-38.2	-77.8	199	5
2023-09-11T18:00	33322	7	-38.3	-77.9	202	5
2023-09-11T18:00	33368	7	-38.3	-77.9	204	4
2023-09-11T18:00	33387	7	-38.5	-78.0	206	4
2023-09-11T18:00	33430	7	-38.5	-78.0	209	3
2023-09-11T18:00	33473	7	-38.4	-77.9	214	2
2023-09-11T18:00	33478	7	-38.4	-77.9	226	2
2023-09-11T18:00	33519	7	-38.3	-77.9	242	2
2023-09-11T18:00	33563	7	-38.3	-77.9	255	2
2023-09-11T18:00	33569	7	-38.3	-77.9	263	3
2023-09-11T18:00	33603	7	-38.2	-77.8	266	4
2023-09-11T18:00	33649	7	-37.9	-77.6	267	4
2023-09-11T18:00	33678	7	-38.0	-77.6	264	6
2023-09-11T18:00	33759	7	-38.0	-77.6	261	6
2023-09-11T18:00	33775	7	-37.8	-77.5	255	5
2023-09-11T18:00	33811	7	-37.9	-77.6	251	4
2023-09-11T18:00	33846	7	-38.1	-77.7	247	4
2023-09-11T18:00	33862	7	-38.3	-77.9	241	3
2023-09-11T18:00	33920	7	-38.5	-78.0	231	2
2023-09-11T18:00	33930	7	-38.7	-78.1	214	2
2023-09-11T18:00	33952	7	-38.9	-78.3	192	2
2023-09-11T18:00	33990	7	-38.9	-78.3	175	2
2023-09-11T18:00	34004	7	-38.8	-78.2	169	3
2023-09-11T18:00	34048	7	-38.7	-78.1	169	3
2023-09-11T18:00	34083	7	-38.6	-78.1	172	4
2023-09-11T18:00	34094	7	-38.7	-78.1	176	4
2023-09-11T18:00	34119	7	-38.8	-78.2	179	5
2023-09-11T18:00	34149	7	-38.7	-78.1	180	5
2023-09-11T18:00	34186	7	-38.7	-78.1	180	6
2023-09-11T18:00	34209	7	-38.8	-78.2	177	6
2023-09-11T18:00	34245	7	-38.8	-78.2	174	7
2023-09-11T18:00	34252	7	-38.9	-78.3	171	7
2023-09-11T18:00	34285	6	-39.0	-78.3	169	7
2023-09-11T18:00	34307	6	-39.0	-78.3	169	8
2023-09-11T18:00	34349	6	-39.0	-78.3	171	8
2023-09-11T18:00	34394	6	-38.9	-78.3	178	8
2023-09-11T18:00	34427	6	-38.8	-78.2	183	8
2023-09-11T18:00	34453	6	-38.8	-78.2	190	8
2023-09-11T18:00	34479	6	-38.9	-78.3	199	7
2023-09-11T18:00	34526	6	-39.0	-78.3	208	8
2023-09-11T18:00	34532	6	-38.7	-78.1	214	8
2023-09-11T18:00	34546	6	-38.3	-77.9	218	9
2023-09-11T18:00	34577	6	-38.2	-77.8	219	10
2023-09-11T18:00	34612	6	-38.2	-77.8	218	10
2023-09-12T00:00	112	1000	20.0	11.5	210	1
2023-09-12T00:00	137	997	22.2	11.1	191	2
2023-09-12T00:00	162	994	24.3	8.8	181	3
2023-09-12T00:00	188	991	25.0	8.8	174	3
2023-09-12T00:00	213	988	25.4	10.1	168	4
2023-09-12T00:00	239	985	25.5	9.3	163	4
2023-09-12T00:00	261	983	25.7	9.4	157	4
2023-09-12T00:00	284	980	25.7	9.2	153	4
2023-09-12T00:00	312	977	25.6	9.3	148	3
2023-09-12T00:00	337	974	25.4	9.2	144	3
2023-09-12T00:00	360	972	25.2	8.3	141	3
2023-09-12T00:00	379	970	25.1	8.3	141	3
2023-09-12T00:00	399	967	25.0	8.4	145	3
2023-09-12T00:00	423	965	24.8	8.2	152	3
2023-09-12T00:00	448	962	24.5	8.2	158	3
2023-09-12T00:00	470	959	24.4	8.6	163	3
2023-09-12T00:00	498	957	24.1	8.6	164	3
2023-09-12T00:00	521	954	23.9	8.8	165	2
2023-09-12T00:00	542	952	23.7	9.2	164	2
2023-09-12T00:00	569	949	23.5	9.2	163	2
2023-09-12T00:00	590	946	23.3	9.2	162	2
2023-09-12T00:00	615	944	23.2	9.1	162	1
2023-09-12T00:00	640	941	23.0	9.0	162	1
2023-09-12T00:00	664	939	22.8	9.4	166	1
2023-09-12T00:00	686	936	22.6	9.6	177	1
2023-09-12T00:00	713	933	22.4	9.3	195	1
2023-09-12T00:00	741	930	22.2	9.1	211	1
2023-09-12T00:00	769	927	21.9	9.0	219	1
2023-09-12T00:00	791	925	21.7	9.1	220	2
2023-09-12T00:00	813	922	21.5	9.2	220	2
2023-09-12T00:00	837	920	21.2	9.1	220	2
2023-09-12T00:00	863	917	21.0	9.3	222	2
2023-09-12T00:00	885	915	20.8	9.3	226	2
2023-09-12T00:00	905	913	20.6	9.3	231	1
2023-09-12T00:00	927	910	20.4	9.3	236	1
2023-09-12T00:00	950	908	20.2	9.3	239	1
2023-09-12T00:00	972	906	19.9	9.1	239	2
2023-09-12T00:00	996	903	19.7	9.1	240	2
2023-09-12T00:00	1019	900	19.5	9.1	242	2
2023-09-12T00:00	1054	897	19.2	9.1	245	2
2023-09-12T00:00	1077	895	18.9	8.9	249	2
2023-09-12T00:00	1103	892	18.7	8.9	253	2
2023-09-12T00:00	1134	889	18.4	8.7	256	3
2023-09-12T00:00	1162	886	18.2	8.5	258	3
2023-09-12T00:00	1181	884	18.0	8.4	259	3
2023-09-12T00:00	1212	881	17.8	8.3	259	3
2023-09-12T00:00	1237	878	17.5	8.5	259	3
2023-09-12T00:00	1261	876	17.3	8.6	260	3
2023-09-12T00:00	1289	873	17.0	8.4	260	3
2023-09-12T00:00	1316	870	16.8	8.5	260	4
2023-09-12T00:00	1338	868	16.6	8.7	258	4
2023-09-12T00:00	1373	864	16.2	8.6	257	4
2023-09-12T00:00	1397	862	16.0	9.0	255	5
2023-09-12T00:00	1422	859	15.7	9.1	254	5
2023-09-12T00:00	1444	857	15.5	9.1	252	5
2023-09-12T00:00	1473	854	15.2	8.9	248	5
2023-09-12T00:00	1495	852	15.0	8.9	242	4
2023-09-12T00:00	1522	849	14.7	9.0	235	4
2023-09-12T00:00	1540	847	14.6	9.0	230	4
2023-09-12T00:00	1561	845	14.4	8.9	229	5
2023-09-12T00:00	1580	843	14.2	8.9	231	5
2023-09-12T00:00	1605	841	14.0	8.8	236	5
2023-09-12T00:00	1627	839	13.7	8.6	242	5
2023-09-12T00:00	1648	837	13.5	8.7	247	5
2023-09-12T00:00	1672	834	13.3	8.6	252	6
2023-09-12T00:00	1694	832	13.1	8.3	257	6
2023-09-12T00:00	1715	830	13.0	7.9	261	6
2023-09-12T00:00	1738	828	12.8	7.2	265	6
2023-09-12T00:00	1761	826	12.8	5.6	268	6
2023-09-12T00:00	1782	823	12.7	4.8	270	7
2023-09-12T00:00	1804	821	12.6	4.8	273	7
2023-09-12T00:00	1831	819	12.4	4.4	275	6
2023-09-12T00:00	1855	816	12.6	1.3	279	6
2023-09-12T00:00	1885	814	12.7	-0.8	284	5
2023-09-12T00:00	1910	811	12.8	-3.5	291	4
2023-09-12T00:00	1937	808	12.7	-2.3	301	4
2023-09-12T00:00	1964	806	12.7	-2.6	312	3
2023-09-12T00:00	1995	803	13.3	-10.0	320	3
2023-09-12T00:00	2023	800	13.5	-14.8	326	4
2023-09-12T00:00	2043	798	13.6	-17.5	330	4
2023-09-12T00:00	2070	796	13.4	-17.8	332	4
2023-09-12T00:00	2092	794	13.3	-18.9	332	4
2023-09-12T00:00	2115	791	13.0	-17.0	330	3
2023-09-12T00:00	2135	789	13.0	-18.8	325	3
2023-09-12T00:00	2159	787	12.8	-18.5	318	3
2023-09-12T00:00	2177	786	12.7	-18.4	312	3
2023-09-12T00:00	2200	783	12.6	-17.8	310	3
2023-09-12T00:00	2226	781	12.5	-17.7	311	3
2023-09-12T00:00	2255	778	12.6	-16.2	313	3
2023-09-12T00:00	2270	777	12.6	-15.9	314	3
2023-09-12T00:00	2290	775	12.5	-15.1	313	2
2023-09-12T00:00	2312	773	12.4	-14.8	309	2
2023-09-12T00:00	2339	771	12.2	-15.7	301	2
2023-09-12T00:00	2356	769	12.2	-15.1	292	2
2023-09-12T00:00	2381	767	12.0	-14.5	286	3
2023-09-12T00:00	2408	764	11.9	-14.2	283	3
2023-09-12T00:00	2433	762	11.7	-13.7	283	4
2023-09-12T00:00	2455	760	11.6	-13.7	286	4
2023-09-12T00:00	2476	758	11.6	-12.5	289	5
2023-09-12T00:00	2495	756	11.5	-12.4	292	5
2023-09-12T00:00	2515	754	11.3	-12.3	294	5
2023-09-12T00:00	2542	752	11.2	-12.5	295	5
2023-09-12T00:00	2565	750	11.1	-11.2	298	5
2023-09-12T00:00	2593	747	10.8	-8.6	303	4
2023-09-12T00:00	2619	745	10.6	-8.1	310	4
2023-09-12T00:00	2641	743	10.3	-6.4	319	3
2023-09-12T00:00	2663	741	10.1	-5.8	325	3
2023-09-12T00:00	2688	739	9.9	-5.3	329	3
2023-09-12T00:00	2713	737	9.6	-5.0	330	3
2023-09-12T00:00	2732	735	9.5	-5.1	328	3
2023-09-12T00:00	2758	733	9.4	-6.4	320	2
2023-09-12T00:00	2784	730	9.1	-6.8	306	2
2023-09-12T00:00	2815	728	8.9	-8.2	292	3
2023-09-12T00:00	2842	725	8.9	-10.3	283	3
2023-09-12T00:00	2866	723	9.0	-13.3	279	4
2023-09-12T00:00	2892	721	8.9	-14.2	278	4
2023-09-12T00:00	2922	718	8.7	-15.6	277	4
2023-09-12T00:00	2941	716	8.6	-16.1	276	5
2023-09-12T00:00	2973	714	8.4	-15.2	276	4
2023-09-12T00:00	2994	712	8.4	-15.3	277	4
2023-09-12T00:00	3019	710	8.2	-14.1	279	4
2023-09-12T00:00	3042	708	8.1	-13.1	282	4
2023-09-12T00:00	3060	706	8.0	-13.7	282	3
2023-09-12T00:00	3088	704	7.9	-14.5	278	3
2023-09-12T00:00	3114	702	7.7	-14.8	269	3
2023-09-12T00:00	3146	699	7.5	-14.9	261	3
2023-09-12T00:00	3170	697	7.3	-15.0	257	4
2023-09-12T00:00	3186	696	7.2	-14.7	257	4
2023-09-12T00:00	3203	694	7.1	-14.8	260	4
2023-09-12T00:00	3224	693	7.0	-15.1	264	4
2023-09-12T00:00	3245	691	6.8	-15.2	268	4
2023-09-12T00:00	3273	688	6.6	-15.3	272	4
2023-09-12T00:00	3292	687	6.4	-16.5	274	4
2023-09-12T00:00	3313	685	6.3	-19.5	273	3
2023-09-12T00:00	3339	683	6.2	-18.4	268	3
2023-09-12T00:00	3369	681	5.9	-16.3	261	3
2023-09-12T00:00	3388	679	5.7	-15.7	257	3
2023-09-12T00:00	3406	677	5.6	-15.7	256	3
2023-09-12T00:00	3431	675	5.5	-15.8	259	3
2023-09-12T00:00	3455	673	5.3	-15.8	263	3
2023-09-12T00:00	3480	671	5.2	-15.8	264	3
2023-09-12T00:00	3508	669	5.1	-15.8	264	3
2023-09-12T00:00	3551	666	4.8	-16.1	264	4
2023-09-12T00:00	3578	663	4.6	-16.3	266	4
2023-09-12T00:00	3603	661	4.4	-16.2	271	4
2023-09-12T00:00	3624	659	4.3	-16.2	276	5
2023-09-12T00:00	3647	658	4.2	-16.3	281	5
2023-09-12T00:00	3673	656	4.0	-15.8	284	5
2023-09-12T00:00	3691	654	3.9	-15.8	286	4
2023-09-12T00:00	3705	653	3.7	-15.0	286	4
2023-09-12T00:00	3724	651	3.6	-14.4	284	4
2023-09-12T00:00	3741	650	3.4	-14.5	283	4
2023-09-12T00:00	3756	649	3.3	-14.3	284	4
2023-09-12T00:00	3776	647	3.1	-14.6	287	4
2023-09-12T00:00	3798	645	3.0	-15.1	293	4
2023-09-12T00:00	3825	643	2.8	-15.7	299	5
2023-09-12T00:00	3853	641	2.7	-16.2	305	5
2023-09-12T00:00	3881	639	2.5	-17.3	309	6
2023-09-12T00:00	3908	637	2.5	-18.6	309	6
2023-09-12T00:00	3927	635	2.5	-18.8	306	6
2023-09-12T00:00	3944	634	2.4	-18.6	300	5
2023-09-12T00:00	3963	632	2.3	-17.2	292	5
2023-09-12T00:00	3982	631	2.2	-16.3	282	4
2023-09-12T00:00	4010	629	2.0	-15.9	275	4
2023-09-12T00:00	4030	627	1.8	-15.1	273	4
2023-09-12T00:00	4055	625	1.5	-14.9	276	4
2023-09-12T00:00	4082	623	1.3	-14.0	281	4
2023-09-12T00:00	4102	622	1.1	-13.5	286	4
2023-09-12T00:00	4123	620	0.9	-12.5	288	5
2023-09-12T00:00	4153	618	0.7	-10.1	288	4
2023-09-12T00:00	4175	616	0.5	-10.3	285	4
2023-09-12T00:00	4197	614	0.3	-10.4	280	4
2023-09-12T00:00	4217	613	0.1	-10.4	273	4
2023-09-12T00:00	4234	611	0.0	-10.3	268	4
2023-09-12T00:00	4255	610	-0.2	-10.4	263	4
2023-09-12T00:00	4277	608	-0.4	-10.5	262	4
2023-09-12T00:00	4303	606	-0.7	-11.0	265	4
2023-09-12T00:00	4325	604	-0.8	-11.9	269	4
2023-09-12T00:00	4356	602	-1.0	-13.3	275	4
2023-09-12T00:00	4384	600	-1.2	-13.8	280	4
2023-09-12T00:00	4407	598	-1.4	-13.5	283	4
2023-09-12T00:00	4439	596	-1.7	-12.7	286	4
2023-09-12T00:00	4456	594	-1.9	-12.7	288	4
2023-09-12T00:00	4479	593	-2.1	-11.8	289	4
2023-09-12T00:00	4508	591	-2.4	-12.7	290	4
2023-09-12T00:00	4533	589	-2.6	-12.4	290	5
2023-09-12T00:00	4555	587	-2.8	-11.9	287	5
2023-09-12T00:00	4573	586	-3.0	-12.1	284	5
2023-09-12T00:00	4589	585	-3.1	-12.3	280	5
2023-09-12T00:00	4607	583	-3.3	-12.6	278	5
2023-09-12T00:00	4625	582	-3.4	-12.9	276	5
2023-09-12T00:00	4649	580	-3.6	-12.8	276	5
2023-09-12T00:00	4681	578	-3.9	-12.8	276	5
2023-09-12T00:00	4708	576	-4.1	-13.4	276	5
2023-09-12T00:00	4726	575	-4.2	-13.8	277	5
2023-09-12T00:00	4744	573	-4.3	-14.6	276	5
2023-09-12T00:00	4763	572	-4.5	-14.7	275	5
2023-09-12T00:00	4782	571	-4.6	-14.8	273	5
2023-09-12T00:00	4808	569	-4.8	-15.1	270	4
2023-09-12T00:00	4838	567	-5.1	-15.7	268	4
2023-09-12T00:00	4860	565	-5.3	-15.9	268	4
2023-09-12T00:00	4880	564	-5.4	-16.1	271	5
2023-09-12T00:00	4903	562	-5.6	-16.3	275	6
2023-09-12T00:00	4938	559	-5.8	-16.8	280	6
2023-09-12T00:00	4969	557	-5.9	-18.5	285	7
2023-09-12T00:00	4993	555	-6.0	-18.8	290	7
2023-09-12T00:00	5021	554	-6.1	-18.3	293	7
2023-09-12T00:00	5047	552	-6.2	-18.1	296	7
2023-09-12T00:00	5073	550	-6.4	-18.4	297	7
2023-09-12T00:00	5099	548	-6.6	-18.8	298	7
2023-09-12T00:00	5126	546	-6.8	-19.5	300	7
2023-09-12T00:00	5155	544	-6.9	-20.2	303	7
2023-09-12T00:00	5171	543	-7.0	-19.7	304	7
2023-09-12T00:00	5194	541	-7.2	-19.4	304	8
2023-09-12T00:00	5227	539	-7.5	-18.9	303	8
2023-09-12T00:00	5260	537	-7.8	-18.9	301	8
2023-09-12T00:00	5277	536	-7.9	-18.2	298	8
2023-09-12T00:00	5295	534	-8.1	-17.7	296	8
2023-09-12T00:00	5315	533	-8.2	-18.2	294	7
2023-09-12T00:00	5338	531	-8.4	-18.9	292	7
2023-09-12T00:00	5366	529	-8.6	-18.8	291	7
2023-09-12T00:00	5393	528	-8.8	-18.9	291	8
2023-09-12T00:00	5422	526	-9.1	-19.2	292	8
2023-09-12T00:00	5448	524	-9.3	-19.3	295	8
2023-09-12T00:00	5475	522	-9.4	-19.5	299	8
2023-09-12T00:00	5498	520	-9.6	-19.5	303	8
2023-09-12T00:00	5531	518	-9.8	-20.2	306	8
2023-09-12T00:00	5558	517	-9.9	-20.9	307	8
2023-09-12T00:00	5582	515	-10.0	-20.9	306	7
2023-09-12T00:00	5616	513	-10.3	-21.1	302	7
2023-09-12T00:00	5633	511	-10.4	-21.3	299	7
2023-09-12T00:00	5651	510	-10.5	-22.3	296	7
2023-09-12T00:00	5667	509	-10.6	-24.6	295	7
2023-09-12T00:00	5686	508	-10.6	-28.1	295	7
2023-09-12T00:00	5703	507	-10.7	-30.2	295	7
2023-09-12T00:00	5721	506	-10.8	-32.2	295	7
2023-09-12T00:00	5738	504	-10.9	-33.4	293	7
2023-09-12T00:00	5761	503	-11.0	-35.8	292	8
2023-09-12T00:00	5785	501	-11.0	-37.7	290	8
2023-09-12T00:00	5821	499	-11.3	-35.1	290	8
2023-09-12T00:00	5843	498	-11.4	-32.8	290	8
2023-09-12T00:00	5859	497	-11.6	-32.9	290	8
2023-09-12T00:00	5874	496	-11.6	-33.5	290	7
2023-09-12T00:00	5891	495	-11.8	-32.0	291	7
2023-09-12T00:00	5908	493	-11.9	-31.6	290	7
2023-09-12T00:00	5925	492	-12.0	-31.4	289	7
2023-09-12T00:00	5942	491	-12.1	-31.6	289	7
2023-09-12T00:00	5960	490	-12.2	-30.6	288	7
2023-09-12T00:00	5979	489	-12.3	-30.3	288	7
2023-09-12T00:00	5993	488	-12.4	-30.1	288	7
2023-09-12T00:00	6012	487	-12.4	-30.6	289	7
2023-09-12T00:00	6035	485	-12.5	-30.3	290	7
2023-09-12T00:00	6062	484	-12.7	-28.7	290	7
2023-09-12T00:00	6087	482	-13.0	-26.0	288	7
2023-09-12T00:00	6114	480	-13.2	-25.3	287	7
2023-09-12T00:00	6140	479	-13.5	-25.4	284	7
2023-09-12T00:00	6169	477	-13.8	-25.5	283	7
2023-09-12T00:00	6194	475	-14.0	-25.5	282	6
2023-09-12T00:00	6221	474	-14.3	-25.6	283	6
2023-09-12T00:00	6251	472	-14.6	-25.7	286	6
2023-09-12T00:00	6276	470	-14.8	-25.7	288	6
2023-09-12T00:00	6302	469	-15.1	-25.8	290	6
2023-09-12T00:00	6329	467	-15.3	-25.9	290	6
2023-09-12T00:00	6359	465	-15.6	-26.0	289	7
2023-09-12T00:00	6389	463	-15.9	-26.2	287	7
2023-09-12T00:00	6415	462	-16.2	-26.7	284	7
2023-09-12T00:00	6443	460	-16.4	-26.5	281	7
2023-09-12T00:00	6461	459	-16.6	-26.4	279	7
2023-09-12T00:00	6480	458	-16.8	-26.6	278	7
2023-09-12T00:00	6501	456	-17.0	-26.7	278	6
2023-09-12T00:00	6519	455	-17.2		277	6
2023-09-12T00:00	6541	454	-17.4	-27.5	275	5
2023-09-12T00:00	6567	452	-17.6	-28.1	272	5
2023-09-12T00:00	6601	450	-17.8	-29.6	268	5
2023-09-12T00:00	6636	448	-18.1	-30.4	265	5
2023-09-12T00:00	6658	447	-18.3	-30.8	264	6
2023-09-12T00:00	6675	446	-18.5	-31.3	263	6
2023-09-12T00:00	6696	445	-18.6	-31.9	263	6
2023-09-12T00:00	6721	443	-18.7	-32.3	262	6
2023-09-12T00:00	6749	442	-18.9	-32.9	261	7
2023-09-12T00:00	6765	441	-18.9	-33.6	260	7
2023-09-12T00:00	6781	439	-18.9	-34.5	260	7
2023-09-12T00:00	6803	438	-19.0	-35.1	261	7
2023-09-12T00:00	6824	437	-19.1	-35.5	262	7
2023-09-12T00:00	6843	436	-19.2	-34.5	262	7
2023-09-12T00:00	6863	435	-19.4	-33.9	261	7
2023-09-12T00:00	6884	434	-19.5	-32.8	259	7
2023-09-12T00:00	6907	432	-19.7	-31.9	257	7
2023-09-12T00:00	6935	431	-19.9	-32.3	255	8
2023-09-12T00:00	6967	429	-20.1	-33.9	252	8
2023-09-12T00:00	6999	427	-20.3	-35.8	250	8
2023-09-12T00:00	7031	425	-20.5	-36.1	248	9
2023-09-12T00:00	7058	423	-20.7	-35.4	247	9
2023-09-12T00:00	7086	422	-20.9	-35.2	247	10
2023-09-12T00:00	7116	420	-21.0	-34.6	247	10
2023-09-12T00:00	7144	419	-21.3	-34.5	247	10
2023-09-12T00:00	7171	417	-21.5	-34.3	248	10
2023-09-12T00:00	7195	416	-21.7	-34.4	248	10
2023-09-12T00:00	7223	414	-22.0	-34.5	249	10
2023-09-12T00:00	7251	413	-22.2	-34.6	249	10
2023-09-12T00:00	7276	411	-22.3	-35.0	249	9
2023-09-12T00:00	7302	410	-22.5	-35.2	250	9
2023-09-12T00:00	7329	408	-22.7	-35.4	251	9
2023-09-12T00:00	7361	406	-23.0	-35.6	252	9
2023-09-12T00:00	7390	405	-23.2	-35.8	253	9
2023-09-12T00:00	7421	403	-23.5	-36.2	252	9
2023-09-12T00:00	7447	402	-23.7	-36.4	251	9
2023-09-12T00:00	7476	400	-23.9	-36.5	248	9
2023-09-12T00:00	7499	399	-24.2	-36.8	246	9
2023-09-12T00:00	7529	397	-24.4	-37.2	245	9
2023-09-12T00:00	7553	396	-24.6	-38.5	244	9
2023-09-12T00:00	7577	394	-24.8	-39.9	245	10
2023-09-12T00:00	7605	393	-25.0	-40.6	246	10
2023-09-12T00:00	7632	392	-25.3	-40.7	248	10
2023-09-12T00:00	7661	390	-25.5	-40.8	249	10
2023-09-12T00:00	7687	389	-25.8	-41.1	250	10
2023-09-12T00:00	7714	387	-25.9	-41.0	251	10
2023-09-12T00:00	7743	386	-26.1	-40.5	252	10
2023-09-12T00:00	7769	384	-26.4	-40.4	252	10
2023-09-12T00:00	7795	383	-26.6	-40.4	253	10
2023-09-12T00:00	7823	381	-26.8	-40.4	253	10
2023-09-12T00:00	7847	380	-27.1	-40.7	253	10
2023-09-12T00:00	7870	379	-27.2	-40.9	252	10
2023-09-12T00:00	7893	378	-27.4	-40.8	252	10
2023-09-12T00:00	7912	377	-27.6	-41.1	251	10
2023-09-12T00:00	7928	376	-27.7	-41.0	251	10
2023-09-12T00:00	7950	375	-27.9	-40.7	250	10
2023-09-12T00:00	7970	374	-28.1	-40.7	250	10
2023-09-12T00:00	7992	372	-28.3	-40.9	250	10
2023-09-12T00:00	8018	371	-28.5	-41.0	249	10
2023-09-12T00:00	8052	369	-28.7	-41.5	248	10
2023-09-12T00:00	8078	368	-28.9	-41.9	248	10
2023-09-12T00:00	8103	367	-29.1	-42.3	247	9
2023-09-12T00:00	8130	365	-29.3	-42.5	247	9
2023-09-12T00:00	8154	364	-29.5	-42.6	245	9
2023-09-12T00:00	8176	363	-29.6	-43.2	244	9
2023-09-12T00:00	8198	362	-29.7	-44.0	243	10
2023-09-12T00:00	8218	361	-29.8	-44.4	242	10
2023-09-12T00:00	8235	360	-29.9	-44.9	242	10
2023-09-12T00:00	8251	359	-30.0	-45.2	242	10
2023-09-12T00:00	8268	358	-30.1	-45.6	242	10
2023-09-12T00:00	8285	358	-30.3	-45.6	242	10
2023-09-12T00:00	8304	357	-30.4	-45.5	242	10
2023-09-12T00:00	8318	356	-30.6	-45.6	242	10
2023-09-12T00:00	8336	355	-30.8	-45.6	241	10
2023-09-12T00:00	8356	354	-30.9	-45.6	241	10
2023-09-12T00:00	8373	353	-31.0	-46.0	240	10
2023-09-12T00:00	8391	352	-31.1	-46.2	239	10
2023-09-12T00:00	8408	351	-31.3	-46.1	239	10
2023-09-12T00:00	8425	351	-31.4	-46.1	239	10
2023-09-12T00:00	8443	350	-31.6	-46.2	240	10
2023-09-12T00:00	8462	349	-31.8	-46.4	240	10
2023-09-12T00:00	8478	348	-31.9	-46.3	240	10
2023-09-12T00:00	8496	347	-32.1	-45.8	239	10
2023-09-12T00:00	8515	346	-32.2	-44.6	239	10
2023-09-12T00:00	8532	345	-32.4	-44.1	238	9
2023-09-12T00:00	8550	344	-32.6	-43.9	237	9
2023-09-12T00:00	8567	344	-32.7	-44.3	236	9
2023-09-12T00:00	8582	343	-32.8	-44.6	235	9
2023-09-12T00:00	8601	342	-32.9	-44.7	235	9
2023-09-12T00:00	8617	341	-33.1	-44.8	234	9
2023-09-12T00:00	8637	340	-33.2	-44.2	234	9
2023-09-12T00:00	8654	339	-33.4	-44.4	235	9
2023-09-12T00:00	8675	338	-33.5	-43.8	237	9
2023-09-12T00:00	8694	337	-33.7	-43.5	238	10
2023-09-12T00:00	8712	337	-33.8	-43.8	240	10
2023-09-12T00:00	8727	336	-33.9	-44.5	242	10
2023-09-12T00:00	8748	335	-34.0	-45.2	243	10
2023-09-12T00:00	8767	334	-34.2	-46.2	244	10
2023-09-12T00:00	8784	333	-34.3	-46.1	245	10
2023-09-12T00:00	8803	332	-34.4	-44.9	246	10
2023-09-12T00:00	8823	331	-34.5	-45.8	247	10
2023-09-12T00:00	8840	330	-34.6	-47.4	248	10
2023-09-12T00:00	8862	329	-34.7	-49.8	248	10
2023-09-12T00:00	8877	329	-34.8	-51.0	249	11
2023-09-12T00:00	8897	328	-35.0	-51.0	249	11
2023-09-12T00:00	8914	327	-35.1	-51.4	249	11
2023-09-12T00:00	8935	326	-35.3	-51.4	250	11
2023-09-12T00:00	8952	325	-35.3	-51.5	250	11
2023-09-12T00:00	8970	324	-35.2	-51.6	250	11
2023-09-12T00:00	8990	324	-35.3	-51.2	250	11
2023-09-12T00:00	9004	323	-35.4	-50.6	250	11
2023-09-12T00:00	9023	322	-35.5	-48.9	249	12
2023-09-12T00:00	9041	321	-35.7	-48.2	249	12
2023-09-12T00:00	9059	320	-35.8	-48.2	249	11
2023-09-12T00:00	9079	319	-36.0	-48.2	249	11
2023-09-12T00:00	9096	318	-36.1	-49.3	249	11
2023-09-12T00:00	9115	318	-36.3	-49.5	249	11
2023-09-12T00:00	9136	317	-36.4	-49.6	249	11
2023-09-12T00:00	9153	316	-36.5	-49.5	250	11
2023-09-12T00:00	9172	315	-36.7	-49.7	250	11
2023-09-12T00:00	9189	314	-36.9		250	11
2023-09-12T00:00	9209	313	-37.0	-49.9	250	11
2023-09-12T00:00	9226	313	-37.2	-50.0	251	11
2023-09-12T00:00	9245	312	-37.4	-50.0	251	11
2023-09-12T00:00	9266	311	-37.6	-50.3	252	11
2023-09-12T00:00	9283	310	-37.7	-50.3	252	11
2023-09-12T00:00	9304	309	-37.9	-49.9	252	11
2023-09-12T00:00	9327	308	-38.1	-49.9	253	11
2023-09-12T00:00	9344	307	-38.3	-50.0	252	11
2023-09-12T00:00	9365	306	-38.5	-49.8	252	11
2023-09-12T00:00	9388	305	-38.7	-49.5	252	11
2023-09-12T00:00	9411	304	-38.9	-49.7	251	11
2023-09-12T00:00	9429	303	-39.1	-49.7	251	11
2023-09-12T00:00	9449	303	-39.3	-49.4	252	11
2023-09-12T00:00	9469	302	-39.5	-49.4	252	11
2023-09-12T00:00	9491	301	-39.7	-49.3	252	11
2023-09-12T00:00	9508	300	-39.9	-49.2	253	11
2023-09-12T00:00	9532	299	-40.1	-49.3	252	11
2023-09-12T00:00	9551	298	-40.2	-49.3	252	11
2023-09-12T00:00	9569	297	-40.4	-49.3	252	11
2023-09-12T00:00	9587	297	-40.6	-49.3	251	11
2023-09-12T00:00	9609	296	-40.8	-49.3	251	11
2023-09-12T00:00	9626	295	-40.9		251	11
2023-09-12T00:00	9647	294	-41.1	-49.2	251	11
2023-09-12T00:00	9665	293	-41.3	-49.2	251	11
2023-09-12T00:00	9684	292	-41.5	-49.2	251	11
2023-09-12T00:00	9703	292	-41.6	-49.0	251	11
2023-09-12T00:00	9722	291	-41.8	-48.9	251	12
2023-09-12T00:00	9743	290	-42.0	-48.9	250	12
2023-09-12T00:00	9763	289	-42.2	-49.0	250	12
2023-09-12T00:00	9785	288	-42.4	-48.9	250	12
2023-09-12T00:00	9804	287	-42.6	-48.3	250	12
2023-09-12T00:00	9824	286	-42.7	-48.0	250	13
2023-09-12T00:00	9841	286	-42.9	-48.0	250	13
2023-09-12T00:00	9861	285	-42.9	-48.9	250	13
2023-09-12T00:00	9881	284	-42.9	-50.1	250	13
2023-09-12T00:00	9901	283	-43.0	-50.4	250	13
2023-09-12T00:00	9919	282	-43.2	-51.1	251	13
2023-09-12T00:00	9938	282	-43.3	-51.4	251	13
2023-09-12T00:00	9957	281	-43.4	-51.9	252	13
2023-09-12T00:00	9977	280	-43.5	-52.1	253	13
2023-09-12T00:00	9994	279	-43.6	-52.0	253	12
2023-09-12T00:00	10013	278	-43.7	-52.5	253	12
2023-09-12T00:00	10035	278	-43.9	-52.8	253	12
2023-09-12T00:00	10053	277	-44.1	-52.9	253	12
2023-09-12T00:00	10075	276	-44.2	-52.8	253	12
2023-09-12T00:00	10096	275	-44.4	-52.8	254	12
2023-09-12T00:00	10116	274	-44.6	-52.9	254	12
2023-09-12T00:00	10137	273	-44.7	-53.0	254	12
2023-09-12T00:00	10155	273	-44.9	-53.3	255	12
2023-09-12T00:00	10173	272	-45.0	-53.1	255	12
2023-09-12T00:00	10194	271	-45.2	-53.0	255	12
2023-09-12T00:00	10213	270	-45.4	-53.2	255	12
2023-09-12T00:00	10234	269	-45.6	-53.7	255	12
2023-09-12T00:00	10255	269	-45.7	-54.1	255	12
2023-09-12T00:00	10275	268	-45.9		254	12
2023-09-12T00:00	10292	267	-46.1	-54.1	254	12
2023-09-12T00:00	10313	266	-46.2	-53.8	253	12
2023-09-12T00:00	10332	265	-46.4	-53.6	252	12
2023-09-12T00:00	10353	265	-46.6	-53.4	251	12
2023-09-12T00:00	10373	264	-46.7	-52.9	250	13
2023-09-12T00:00	10392	263	-46.9	-52.4	249	13
2023-09-12T00:00	10411	262	-46.9	-53.0	248	13
2023-09-12T00:00	10429	262	-46.9	-53.6	248	13
2023-09-12T00:00	10450	261	-47.1	-53.7	248	13
2023-09-12T00:00	10472	260	-47.3	-53.8	249	13
2023-09-12T00:00	10490	259	-47.5	-53.9	250	13
2023-09-12T00:00	10510	258	-47.6	-53.9	251	13
2023-09-12T00:00	10529	258	-47.8	-54.1	252	13
2023-09-12T00:00	10549	257	-47.9	-54.4	252	14
2023-09-12T00:00	10567	256	-47.9	-54.7	252	14
2023-09-12T00:00	10586	255	-48.0	-54.9	252	14
2023-09-12T00:00	10604	255	-48.1	-54.9	252	14
2023-09-12T00:00	10623	254	-48.3	-55.0	252	14
2023-09-12T00:00	10642	253	-48.4	-55.1	251	14
2023-09-12T00:00	10660	253	-48.5	-55.3	251	14
2023-09-12T00:00	10678	252	-48.7	-55.4	251	14
2023-09-12T00:00	10697	251	-48.8	-55.4	251	14
2023-09-12T00:00	10716	251	-49.0	-55.6	250	14
2023-09-12T00:00	10734	250	-49.1	-55.8	250	14
2023-09-12T00:00	10752	249	-49.3	-56.1	249	14
2023-09-12T00:00	10770	248	-49.4	-56.3	249	14
2023-09-12T00:00	10788	248	-49.5	-56.4	249	14
2023-09-12T00:00	10809	247	-49.7	-56.5	249	14
2023-09-12T00:00	10829	246	-49.8	-56.6	250	14
2023-09-12T00:00	10848	245	-49.9	-56.8	251	14
2023-09-12T00:00	10866	245	-50.0	-57.0	251	15
2023-09-12T00:00	10886	244	-50.2	-57.3	251	15
2023-09-12T00:00	10906	243	-50.3	-57.5	251	15
2023-09-12T00:00	10924	243	-50.5		251	15
2023-09-12T00:00	10942	242	-50.6	-57.5	251	15
2023-09-12T00:00	10962	241	-50.7	-57.5	252	15
2023-09-12T00:00	10979	241	-50.9	-57.5	252	15
2023-09-12T00:00	11000	240	-51.1	-57.5	253	15
2023-09-12T00:00	11019	239	-51.2	-57.5	254	15
2023-09-12T00:00	11040	238	-51.4	-57.6	255	15
2023-09-12T00:00	11059	238	-51.6	-57.9	256	15
2023-09-12T00:00	11080	237	-51.7	-58.4	257	15
2023-09-12T00:00	11097	236	-51.8	-58.9	257	15
2023-09-12T00:00	11118	236	-51.9	-59.0	257	16
2023-09-12T00:00	11137	235	-52.1	-59.2	258	16
2023-09-12T00:00	11156	234	-52.2	-59.3	258	16
2023-09-12T00:00	11175	233	-52.3	-59.5	258	16
2023-09-12T00:00	11196	233	-52.5	-59.7	258	16
2023-09-12T00:00	11215	232	-52.6	-60.0	258	16
2023-09-12T00:00	11235	231	-52.7	-60.1	258	16
2023-09-12T00:00	11257	231	-52.9	-60.2	258	16
2023-09-12T00:00	11276	230	-53.1	-60.3	258	16
2023-09-12T00:00	11296	229	-53.2	-60.4	259	15
2023-09-12T00:00	11317	228	-53.4	-60.6	259	15
2023-09-12T00:00	11336	228	-53.5	-60.7	260	15
2023-09-12T00:00	11358	227	-53.7	-60.7	260	15
2023-09-12T00:00	11374	226	-53.9	-60.8	261	15
2023-09-12T00:00	11394	226	-54.0	-60.9	261	15
2023-09-12T00:00	11414	225	-54.1	-60.9	260	14
2023-09-12T00:00	11433	224	-54.3	-61.2	260	14
2023-09-12T00:00	11452	224	-54.3	-61.7	259	14
2023-09-12T00:00	11471	223	-54.4	-62.3	258	14
2023-09-12T00:00	11490	222	-54.5	-62.6	258	14
2023-09-12T00:00	11511	222	-54.6	-62.6	257	15
2023-09-12T00:00	11530	221	-54.7	-62.7	257	15
2023-09-12T00:00	11548	220	-54.5	-62.7	256	15
2023-09-12T00:00	11569	220	-54.6	-63.0	256	15
2023-09-12T00:00	11586	219	-54.8	-63.2	256	16
2023-09-12T00:00	11607	218	-54.9	-63.2	256	16
2023-09-12T00:00	11626	218	-55.1	-63.5	256	16
2023-09-12T00:00	11645	217	-55.2	-64.0	258	15
2023-09-12T00:00	11664	216	-55.0	-64.1	259	15
2023-09-12T00:00	11686	216	-55.0	-64.1	261	15
2023-09-12T00:00	11704	215	-55.2	-64.1	262	14
2023-09-12T00:00	11727	214	-55.3	-64.1	263	14
2023-09-12T00:00	11747	214	-55.3	-64.1	264	14
2023-09-12T00:00	11766	213	-55.4	-64.2	264	14
2023-09-12T00:00	11787	212	-55.6	-64.4	263	13
2023-09-12T00:00	11806	212	-55.7	-64.4	263	13
2023-09-12T00:00	11826	211	-55.9	-64.5	262	13
2023-09-12T00:00	11847	210	-56.1	-64.6	261	13
2023-09-12T00:00	11867	210	-56.1	-64.5	261	13
2023-09-12T00:00	11885	209	-56.2	-64.5	261	13
2023-09-12T00:00	11904	208	-56.3	-64.6	260	12
2023-09-12T00:00	11924	208	-56.4	-64.6	259	12
2023-09-12T00:00	11943	207	-56.4	-64.7	258	12
2023-09-12T00:00	11960	206	-56.5	-64.8	258	12
2023-09-12T00:00	11979	206	-56.6	-64.9	258	12
2023-09-12T00:00	11998	205	-56.8	-65.3	258	12
2023-09-12T00:00	12015	205	-56.7	-65.6	259	12
2023-09-12T00:00	12034	204	-56.7	-66.1	260	12
2023-09-12T00:00	12052	204	-56.5	-66.3	261	12
2023-09-12T00:00	12071	203	-56.6	-66.7	260	12
2023-09-12T00:00	12091	202	-56.6	-66.8	260	12
2023-09-12T00:00	12110	202	-56.8	-67.0	259	12
2023-09-12T00:00	12129	201	-56.9	-67.2	258	12
2023-09-12T00:00	12145	201	-56.9	-67.4	257	12
2023-09-12T00:00	12166	200	-56.9	-67.8	257	12
2023-09-12T00:00	12185	199	-56.7	-68.1	257	12
2023-09-12T00:00	12205	199	-56.6	-68.4	257	12
2023-09-12T00:00	12223	198	-56.7	-68.7	257	12
2023-09-12T00:00	12244	197	-56.9	-69.1	257	12
2023-09-12T00:00	12264	197	-56.9	-69.3	257	12
2023-09-12T00:00	12282	196	-56.9	-69.4	258	12
2023-09-12T00:00	12301	196	-57.0	-69.5	258	12
2023-09-12T00:00	12322	195	-57.1	-69.6	259	12
2023-09-12T00:00	12343	194	-57.2	-69.7	259	12
2023-09-12T00:00	12362	194	-57.3	-69.8	259	12
2023-09-12T00:00	12379	193	-57.3	-69.8	259	12
2023-09-12T00:00	12402	193	-57.4	-69.9	259	11
2023-09-12T00:00	12420	192	-57.4	-70.1	258	11
2023-09-12T00:00	12439	191	-57.5	-70.4	257	11
2023-09-12T00:00	12459	191	-57.4	-70.7	256	10
2023-09-12T00:00	12478	190	-57.3	-70.9	255	10
2023-09-12T00:00	12497	190	-57.4	-71.3	255	9
2023-09-12T00:00	12519	189	-57.4	-71.6	254	9
2023-09-12T00:00	12538	188	-57.5	-72.1	254	9
2023-09-12T00:00	12559	188	-57.5	-72.5	254	9
2023-09-12T00:00	12580	187	-57.5	-73.0	254	10
2023-09-12T00:00	12597	187	-57.4	-73.4	253	10
2023-09-12T00:00	12618	186	-57.5	-73.7	253	11
2023-09-12T00:00	12640	185	-57.6	-73.8	253	11
2023-09-12T00:00	12659	185	-57.8	-73.9	253	12
2023-09-12T00:00	12678	184	-57.9	-73.8	253	12
2023-09-12T00:00	12699	184	-58.1	-74.0	254	12
2023-09-12T00:00	12719	183	-58.2	-74.0	255	13
2023-09-12T00:00	12735	183	-58.3	-74.1	256	13
2023-09-12T00:00	12755	182	-58.3	-74.2	257	13
2023-09-12T00:00	12775	182	-58.4	-74.4	258	12
2023-09-12T00:00	12796	181	-58.4	-74.5	259	12
2023-09-12T00:00	12813	180	-58.4	-74.5	259	12
2023-09-12T00:00	12832	180	-58.4	-74.7	259	11
2023-09-12T00:00	12855	179	-58.4	-74.7	259	11
2023-09-12T00:00	12872	179	-58.4	-74.7	258	11
2023-09-12T00:00	12890	178	-58.5	-74.7	258	11
2023-09-12T00:00	12909	178	-58.6	-74.4	258	11
2023-09-12T00:00	12928	177	-58.7	-74.2	259	11
2023-09-12T00:00	12948	177	-58.8	-74.1	260	11
2023-09-12T00:00	12966	176	-58.9	-74.0	261	11
2023-09-12T00:00	12983	176	-58.9	-73.9	262	11
2023-09-12T00:00	13004	175	-59.0	-73.8	261	11
2023-09-12T00:00	13023	174	-59.0	-73.6	261	11
2023-09-12T00:00	13041	174	-59.1	-73.7	259	11
2023-09-12T00:00	13063	173	-59.2	-73.8	258	11
2023-09-12T00:00	13082	173	-59.3	-74.0	256	11
2023-09-12T00:00	13103	172	-59.4	-74.1	255	11
2023-09-12T00:00	13122	172	-59.5	-74.3	254	11
2023-09-12T00:00	13142	171	-59.6	-74.5	254	11
2023-09-12T00:00	13163	171	-59.8	-74.8	255	11
2023-09-12T00:00	13183	170	-59.7	-74.8	256	11
2023-09-12T00:00	13201	170	-59.8	-74.9	257	11
2023-09-12T00:00	13223	169	-59.9	-75.0	258	12
2023-09-12T00:00	13242	168	-59.9	-75.0	258	12
2023-09-12T00:00	13263	168	-60.1	-75.1	258	12
2023-09-12T00:00	13282	167	-60.1		259	12
2023-09-12T00:00	13303	167	-60.2	-75.1	259	12
2023-09-12T00:00	13324	166	-60.4	-75.2	259	12
2023-09-12T00:00	13345	166	-60.6	-75.2	259	13
2023-09-12T00:00	13367	165	-60.8	-75.3	260	13
2023-09-12T00:00	13384	165	-61.0	-75.3	261	13
2023-09-12T00:00	13405	164	-61.2	-75.4	263	13
2023-09-12T00:00	13425	164	-61.2	-75.4	264	13
2023-09-12T00:00	13444	163	-61.3	-75.6	266	13
2023-09-12T00:00	13466	163	-61.4	-75.7	267	13
2023-09-12T00:00	13484	162	-61.3	-75.7	268	12
2023-09-12T00:00	13505	161	-61.2	-75.8	270	12
2023-09-12T00:00	13524	161	-61.3	-76.1	271	11
2023-09-12T00:00	13545	160	-61.3	-76.1	272	11
2023-09-12T00:00	13565	160	-61.4	-76.3	272	10
2023-09-12T00:00	13585	159	-61.4	-76.3	273	10
2023-09-12T00:00	13605	159	-61.5	-76.4	273	10
2023-09-12T00:00	13623	158	-61.6	-76.5	274	10
2023-09-12T00:00	13643	158	-61.7	-76.6	275	9
2023-09-12T00:00	13666	157	-61.7	-76.6	277	9
2023-09-12T00:00	13687	157	-61.7	-76.8	279	9
2023-09-12T00:00	13707	156	-61.6	-76.9	280	9
2023-09-12T00:00	13727	156	-61.6	-77.2	280	9
2023-09-12T00:00	13745	155	-61.5	-77.5	280	9
2023-09-12T00:00	13766	155	-61.4	-77.7	278	8
2023-09-12T00:00	13786	154	-61.4	-78.0	277	8
2023-09-12T00:00	13807	154	-61.5	-78.3	275	8
2023-09-12T00:00	13827	153	-61.6	-78.5	272	7
2023-09-12T00:00	13844	153	-61.5	-78.5	269	7
2023-09-12T00:00	13867	152	-61.6	-78.6	266	7
2023-09-12T00:00	13887	152	-61.7	-78.7	263	7
2023-09-12T00:00	13904	151	-61.9	-78.9	261	7
2023-09-12T00:00	13925	151	-62.0	-78.9	261	8
2023-09-12T00:00	13943	150	-62.1	-79.0	261	7
2023-09-12T00:00	13963	150	-62.3	-79.2	263	7
2023-09-12T00:00	13981	150	-62.2	-79.2	263	7
2023-09-12T00:00	14001	149	-62.3	-79.4	263	7
2023-09-12T00:00	14021	149	-62.1	-79.5	261	7
2023-09-12T00:00	14038	148	-62.0	-79.9	259	7
2023-09-12T00:00	14058	148	-61.8	-80.3	257	7
2023-09-12T00:00	14078	147	-61.8	-80.8	255	7
2023-09-12T00:00	14098	147	-61.8	-81.2	255	7
2023-09-12T00:00	14115	146	-61.8	-81.4	255	7
2023-09-12T00:00	14136	146	-61.8	-81.3	257	7
2023-09-12T00:00	14155	145	-61.9	-81.3	258	7
2023-09-12T00:00	14174	145	-61.8	-81.2	258	8
2023-09-12T00:00	14194	144	-61.8	-81.3	258	9
2023-09-12T00:00	14215	144	-61.8	-81.4	258	9
2023-09-12T00:00	14237	143	-61.5	-81.6	259	10
2023-09-12T00:00	14255	143	-61.3	-81.8	259	11
2023-09-12T00:00	14271	143	-61.4	-82.1	260	11
2023-09-12T00:00	14290	142	-61.2	-82.4	262	11
2023-09-12T00:00	14309	142	-61.0	-82.4	264	11
2023-09-12T00:00	14327	141	-60.9	-82.5	266	11
2023-09-12T00:00	14348	141	-60.8	-82.5	267	12
2023-09-12T00:00	14366	141	-60.7	-82.5	269	12
2023-09-12T00:00	14384	140	-60.7	-82.6	269	12
2023-09-12T00:00	14403	140	-60.8	-82.7	269	12
2023-09-12T00:00	14422	139	-60.6	-82.7	269	11
2023-09-12T00:00	14441	139	-60.2	-82.6	268	11
2023-09-12T00:00	14463	138	-60.1	-82.5	266	11
2023-09-12T00:00	14483	138	-60.2	-82.6	265	12
2023-09-12T00:00	14502	137	-60.2	-82.6	264	12
2023-09-12T00:00	14521	137	-60.2	-82.6	264	12
2023-09-12T00:00	14543	137	-60.2	-82.7	266	12
2023-09-12T00:00	14559	136	-60.2	-82.7	268	12
2023-09-12T00:00	14581	136	-60.2	-82.9	270	12
2023-09-12T00:00	14601	135	-60.2	-82.9	273	12
2023-09-12T00:00	14621	135	-60.0	-82.8	276	12
2023-09-12T00:00	14642	134	-60.0	-82.9	279	12
2023-09-12T00:00	14661	134	-59.9	-82.9	281	12
2023-09-12T00:00	14681	134	-60.0	-83.1	283	12
2023-09-12T00:00	14703	133	-60.0	-83.1	286	12
2023-09-12T00:00	14724	133	-59.9	-83.3	288	11
2023-09-12T00:00	14744	132	-59.7	-83.3	292	11
2023-09-12T00:00	14764	132	-59.3	-83.0	295	11
2023-09-12T00:00	14783	131	-59.2	-83.1	298	10
2023-09-12T00:00	14809	131	-59.2	-83.1	301	9
2023-09-12T00:00	14831	130	-59.0	-83.2	303	9
2023-09-12T00:00	14858	130	-59.1	-83.3	305	8
2023-09-12T00:00	14889	129	-59.2	-83.3	306	7
2023-09-12T00:00	14914	129	-59.2	-83.3	307	6
2023-09-12T00:00	14938	128	-59.3	-83.4	307	6
2023-09-12T00:00	14960	128	-59.5	-83.4	307	5
2023-09-12T00:00	14985	127	-59.7	-83.5	307	5
2023-09-12T00:00	15006	127	-59.8	-83.6	306	4
2023-09-12T00:00	15026	126	-60.0	-83.5	302	4
2023-09-12T00:00	15051	126	-60.1	-83.6	297	3
2023-09-12T00:00	15069	126	-60.2	-83.7	289	3
2023-09-12T00:00	15090	125	-60.3	-83.8	281	3
2023-09-12T00:00	15111	125	-60.4	-83.7	275	4
2023-09-12T00:00	15133	124	-60.6	-83.8	271	4
2023-09-12T00:00	15151	124	-60.7	-83.9	268	4
2023-09-12T00:00	15173	124	-60.7	-83.9	267	4
2023-09-12T00:00	15191	123	-60.7	-84.1	266	4
2023-09-12T00:00	15210	123	-60.6	-84.0	266	4
2023-09-12T00:00	15227	122	-60.3	-84.0	265	4
2023-09-12T00:00	15250	122	-60.2	-84.1	264	4
2023-09-12T00:00	15269	122	-60.0	-84.0	264	5
2023-09-12T00:00	15291	121	-59.9	-84.1	263	5
2023-09-12T00:00	15308	121	-59.8	-84.1	263	5
2023-09-12T00:00	15331	120	-59.9	-84.1	263	6
2023-09-12T00:00	15348	120	-59.9	-84.1	264	6
2023-09-12T00:00	15369	120	-60.0	-84.4	266	7
2023-09-12T00:00	15389	119	-60.0	-84.4	268	7
2023-09-12T00:00	15409	119	-60.0	-84.4	270	7
2023-09-12T00:00	15429	119	-60.1	-84.5	273	7
2023-09-12T00:00	15451	118	-60.2	-84.4	276	7
2023-09-12T00:00	15469	118	-60.3	-84.4	279	7
2023-09-12T00:00	15491	117	-60.3	-84.4	283	6
2023-09-12T00:00	15509	117	-60.4	-84.5	287	6
2023-09-12T00:00	15529	117	-60.5	-84.6	291	5
2023-09-12T00:00	15550	116	-60.5	-84.6	295	5
2023-09-12T00:00	15571	116	-60.4	-84.5	300	4
2023-09-12T00:00	15589	116	-60.4	-84.5	304	4
2023-09-12T00:00	15611	115	-60.4	-84.5	308	4
2023-09-12T00:00	15630	115	-60.4	-84.5	310	4
2023-09-12T00:00	15651	114	-60.5	-84.6	310	4
2023-09-12T00:00	15670	114	-60.6	-84.7	308	3
2023-09-12T00:00	15692	114	-60.6	-84.7	304	3
2023-09-12T00:00	15712	113	-60.7	-84.8	296	3
2023-09-12T00:00	15734	113	-60.5	-84.6	287	3
2023-09-12T00:00	15755	112	-60.6	-84.7	278	3
2023-09-12T00:00	15775	112	-60.7	-84.8	271	4
2023-09-12T00:00	15798	112	-60.8	-84.8	267	4
2023-09-12T00:00	15819	111	-60.4	-84.5	265	5
2023-09-12T00:00	15840	111	-60.4	-84.5	265	5
2023-09-12T00:00	15857	111	-60.4	-84.8	266	6
2023-09-12T00:00	15881	110	-60.4	-84.8	267	7
2023-09-12T00:00	15902	110	-60.4	-84.8	268	8
2023-09-12T00:00	15921	110	-60.4	-84.8	269	8
2023-09-12T00:00	15942	109	-60.4	-84.8	271	9
2023-09-12T00:00	15962	109	-60.3	-84.7	272	9
2023-09-12T00:00	15983	108	-60.1	-84.8	274	9
2023-09-12T00:00	16005	108	-60.0	-84.9	274	9
2023-09-12T00:00	16025	108	-60.0	-84.9	273	8
2023-09-12T00:00	16046	107	-59.7	-85.0	271	8
2023-09-12T00:00	16067	107	-59.6	-84.9	268	8
2023-09-12T00:00	16089	107	-59.5	-84.8	265	8
2023-09-12T00:00	16111	106	-59.6	-84.9	264	9
2023-09-12T00:00	16134	106	-59.8	-84.8	265	9
2023-09-12T00:00	16154	106	-59.8	-84.8	268	9
2023-09-12T00:00	16176	105	-59.6	-84.6	272	9
2023-09-12T00:00	16195	105	-59.5	-84.8	277	9
2023-09-12T00:00	16219	104	-59.4	-84.5	281	9
2023-09-12T00:00	16243	104	-59.5	-84.6	286	9
2023-09-12T00:00	16263	104	-59.5	-84.6	289	9
2023-09-12T00:00	16283	103	-59.5	-84.6	293	9
2023-09-12T00:00	16306	103	-59.6	-84.6	297	9
2023-09-12T00:00	16330	103	-59.5	-84.6	300	8
2023-09-12T00:00	16347	102	-59.4	-84.5	303	8
2023-09-12T00:00	16369	102	-59.4	-84.7	307	8
2023-09-12T00:00	16391	102	-59.4	-84.7	312	7
2023-09-12T00:00	16412	101	-59.5	-84.6	319	7
2023-09-12T00:00	16434	101	-59.6	-84.6	326	6
2023-09-12T00:00	16456	101	-59.4	-84.5	333	5
2023-09-12T00:00	16476	100	-59.4	-84.5	338	5
2023-09-12T00:00	16497	100	-59.4	-84.5	343	5
2023-09-12T00:00	16514	100	-59.5	-84.6	345	4
2023-09-12T00:00	16538	99	-59.7	-84.7	345	4
2023-09-12T00:00	16558	99	-59.8	-84.8	345	4
2023-09-12T00:00	16583	99	-60.0	-84.9	343	3
2023-09-12T00:00	16602	98	-60.1	-84.8	340	3
2023-09-12T00:00	16624	98	-60.3	-84.9	334	2
2023-09-12T00:00	16642	98	-60.5	-85.1	323	2
2023-09-12T00:00	16662	97	-60.5	-85.1	302	2
2023-09-12T00:00	16683	97	-60.7	-85.2	278	2
2023-09-12T00:00	16704	97	-60.8	-85.6	262	2
2023-09-12T00:00	16724	96	-60.9	-85.7	255	3
2023-09-12T00:00	16742	96	-60.7	-85.8	252	3
2023-09-12T00:00	16763	96	-60.2	-85.7	251	4
2023-09-12T00:00	16784	95	-60.1	-85.9	250	4
2023-09-12T00:00	16805	95	-60.1	-85.9	249	5
2023-09-12T00:00	16826	95	-60.0	-86.1	248	5
2023-09-12T00:00	16846	94	-60.1	-86.2	247	6
2023-09-12T00:00	16865	94	-60.2	-85.9	247	6
2023-09-12T00:00	16884	94	-60.2	-85.9	248	7
2023-09-12T00:00	16905	94	-60.3	-86.0	249	7
2023-09-12T00:00	16929	93	-60.2	-85.9	252	8
2023-09-12T00:00	16950	93	-60.3	-86.3	255	8
2023-09-12T00:00	16969	93	-60.2	-86.3	258	9
2023-09-12T00:00	16992	92	-60.0	-86.4	262	9
2023-09-12T00:00	17012	92	-59.7	-86.2	265	9
2023-09-12T00:00	17035	92	-59.7	-86.2	268	9
2023-09-12T00:00	17053	91	-59.3	-86.2	272	10
2023-09-12T00:00	17073	91	-59.4	-86.3	275	10
2023-09-12T00:00	17096	91	-59.4	-86.3	279	10
2023-09-12T00:00	17115	90	-59.4	-86.3	282	10
2023-09-12T00:00	17139	90	-59.4	-86.3	285	10
2023-09-12T00:00	17162	90	-59.3	-86.2	288	10
2023-09-12T00:00	17183	89	-59.2	-86.2	290	10
2023-09-12T00:00	17206	89	-59.1		292	10
2023-09-12T00:00	17227	89	-59.2	-86.2	294	10
2023-09-12T00:00	17250	89	-59.3	-86.2	295	10
2023-09-12T00:00	17272	88	-59.2	-86.2	296	10
2023-09-12T00:00	17295	88	-59.4	-86.3	297	10
2023-09-12T00:00	17317	88	-59.5	-86.4	299	9
2023-09-12T00:00	17340	87	-59.6	-86.5	301	9
2023-09-12T00:00	17363	87	-59.7	-86.5	302	8
2023-09-12T00:00	17383	87	-59.6	-86.5	304	8
2023-09-12T00:00	17409	86	-59.7	-86.9	303	8
2023-09-12T00:00	17429	86	-59.5	-86.8	302	8
2023-09-12T00:00	17451	86	-59.5	-86.8	300	7
2023-09-12T00:00	17472	85	-59.5	-86.8	300	7
2023-09-12T00:00	17491	85	-59.4	-86.7	300	7
2023-09-12T00:00	17512	85	-59.6	-86.8	303	6
2023-09-12T00:00	17533	85	-59.6	-86.8	306	6
2023-09-12T00:00	17560	84	-59.6	-86.8	308	5
2023-09-12T00:00	17578	84	-59.6	-86.8	309	4
2023-09-12T00:00	17601	84	-59.6	-86.8	308	4
2023-09-12T00:00	17621	83	-59.5	-86.8	304	3
2023-09-12T00:00	17641	83	-59.5	-86.8	298	3
2023-09-12T00:00	17662	83	-59.6	-86.8	293	3
2023-09-12T00:00	17683	83	-59.5	-87.1	289	3
2023-09-12T00:00	17704	82	-59.3	-87.0	286	4
2023-09-12T00:00	17726	82	-59.0	-86.8	282	5
2023-09-12T00:00	17746	82	-58.9	-87.1	279	5
2023-09-12T00:00	17766	82	-58.9	-87.1	278	6
2023-09-12T00:00	17786	81	-58.8	-87.0	277	7
2023-09-12T00:00	17805	81	-58.9	-87.1	277	7
2023-09-12T00:00	17824	81	-58.8	-87.0	278	7
2023-09-12T00:00	17849	81	-58.7	-87.0	280	7
2023-09-12T00:00	17863	80	-58.5	-86.8	282	7
2023-09-12T00:00	17885	80	-58.5	-86.8	283	6
2023-09-12T00:00	17904	80	-58.4	-86.7	285	6
2023-09-12T00:00	17926	79	-58.4	-87.2	288	5
2023-09-12T00:00	17949	79	-58.3	-87.1	290	4
2023-09-12T00:00	17968	79	-58.4	-87.2	292	4
2023-09-12T00:00	17989	79	-58.3	-87.1	292	4
2023-09-12T00:00	18010	78	-58.4	-87.2	291	4
2023-09-12T00:00	18030	78	-58.4	-87.2	290	4
2023-09-12T00:00	18050	78	-58.3	-87.1	288	5
2023-09-12T00:00	18070	78	-58.4	-87.2	287	5
2023-09-12T00:00	18094	77	-58.2	-87.0	287	5
2023-09-12T00:00	18114	77	-58.2	-87.0	288	5
2023-09-12T00:00	18133	77	-58.3	-87.1	291	5
2023-09-12T00:00	18160	77	-58.1	-87.0	294	5
2023-09-12T00:00	18177	76	-58.0	-86.9	299	4
2023-09-12T00:00	18198	76	-57.9	-86.8	304	4
2023-09-12T00:00	18218	76	-57.8	-86.7	308	4
2023-09-12T00:00	18242	76	-57.7	-87.2	311	5
2023-09-12T00:00	18267	75	-57.7	-87.2	313	5
2023-09-12T00:00	18283	75	-57.6	-87.1	316	5
2023-09-12T00:00	18308	75	-57.4	-86.9	319	5
2023-09-12T00:00	18331	75	-57.2	-86.8	324	5
2023-09-12T00:00	18357	74	-57.1	-86.7	329	5
2023-09-12T00:00	18379	74	-56.8	-87.0	334	4
2023-09-12T00:00	18402	74	-56.9	-86.6	338	4
2023-09-12T00:00	18423	73	-57.0	-86.6	341	4
2023-09-12T00:00	18450	73	-57.0	-86.6	344	3
2023-09-12T00:00	18473	73	-57.2	-86.8	348	3
2023-09-12T00:00	18495	73	-57.3	-86.9	353	3
2023-09-12T00:00	18517	72	-57.3	-86.9	359	2
2023-09-12T00:00	18545	72	-57.4	-86.9	4	2
2023-09-12T00:00	18568	72	-57.6	-86.6	4	2
2023-09-12T00:00	18590	72	-57.8	-86.7	357	1
2023-09-12T00:00	18615	71	-58.0	-86.9	342	1
2023-09-12T00:00	18641	71	-58.0	-86.9	325	2
2023-09-12T00:00	18662	71	-58.0	-86.9	315	2
2023-09-12T00:00	18686	70	-57.9	-87.3	310	2
2023-09-12T00:00	18710	70	-58.0	-87.4	310	3
2023-09-12T00:00	18733	70	-58.0	-87.4	311	3
2023-09-12T00:00	18757	70	-58.0	-87.4	314	3
2023-09-12T00:00	18780	69	-57.9	-87.3	318	3
2023-09-12T00:00	18802	69	-57.9	-87.3	322	4
2023-09-12T00:00	18823	69	-57.8	-87.2	326	3
2023-09-12T00:00	18846	69	-57.9	-87.3	333	3
2023-09-12T00:00	18873	68	-57.8	-87.2	342	3
2023-09-12T00:00	18889	68	-57.9	-87.3	355	2
2023-09-12T00:00	18912	68	-57.9	-87.3	10	2
2023-09-12T00:00	18934	68	-57.8	-87.2	25	2
2023-09-12T00:00	18957	67	-57.7	-87.2	35	2
2023-09-12T00:00	18981	67	-57.8	-87.2	39	1
2023-09-12T00:00	19005	67	-57.8	-87.2	37	1
2023-09-12T00:00	19024	67	-57.9	-87.3	26	1
2023-09-12T00:00	19049	67	-58.0	-87.4	333	0
2023-09-12T00:00	19072	66	-57.9	-87.3	259	0
2023-09-12T00:00	19092	66	-57.9	-87.3	243	1
2023-09-12T00:00	19111	66	-58.0	-87.4	238	1
2023-09-12T00:00	19135	66	-58.0	-87.4	239	1
2023-09-12T00:00	19157	65	-57.9	-87.3	243	1
2023-09-12T00:00	19179	65	-57.8	-87.2	251	1
2023-09-12T00:00	19201	65	-57.8	-87.2	261	2
2023-09-12T00:00	19223	65	-57.9	-87.3	268	2
2023-09-12T00:00	19242	64	-58.1	-87.4	274	2
2023-09-12T00:00	19269	64	-58.2	-87.5	278	3
2023-09-12T00:00	19290	64	-57.9	-87.3	280	3
2023-09-12T00:00	19314	64	-57.9	-87.8	279	3
2023-09-12T00:00	19332	64	-57.7	-87.7	276	3
2023-09-12T00:00	19355	63	-57.4	-87.5	271	2
2023-09-12T00:00	19377	63	-57.1	-87.2	263	2
2023-09-12T00:00	19400	63	-56.7	-86.9	257	2
2023-09-12T00:00	19423	63	-56.7	-86.9	255	2
2023-09-12T00:00	19445	62	-56.7	-86.9	258	2
2023-09-12T00:00	19469	62	-56.8	-87.0	265	2
2023-09-12T00:00	19490	62	-57.0	-87.2	274	2
2023-09-12T00:00	19515	62	-57.0	-87.2	282	2
2023-09-12T00:00	19537	62	-57.1	-87.2	288	2
2023-09-12T00:00	19561	61	-57.2	-87.3	294	3
2023-09-12T00:00	19582	61	-57.4	-87.5	298	3
2023-09-12T00:00	19603	61	-57.5	-87.0	301	3
2023-09-12T00:00	19628	61	-57.4	-86.9	303	3
2023-09-12T00:00	19648	60	-57.5	-87.0	306	2
2023-09-12T00:00	19671	60	-57.6	-87.6	309	2
2023-09-12T00:00	19694	60	-57.4	-87.5	312	3
2023-09-12T00:00	19720	60	-57.3	-87.4	314	3
2023-09-12T00:00	19741	60	-57.2	-87.3	314	3
2023-09-12T00:00	19762	59	-57.0	-87.2	311	3
2023-09-12T00:00	19786	59	-56.9	-87.1	306	3
2023-09-12T00:00	19808	59	-56.9	-87.1	297	3
2023-09-12T00:00	19833	59	-57.1	-87.2	287	3
2023-09-12T00:00	19854	59	-57.2	-87.3	278	3
2023-09-12T00:00	19879	58	-57.3	-87.4	272	3
2023-09-12T00:00	19895	58	-57.1	-87.2	269	3
2023-09-12T00:00	19919	58	-57.1	-87.2	269	3
2023-09-12T00:00	19945	58	-57.1	-87.2	272	3
2023-09-12T00:00	19966	58	-57.0	-87.2	276	2
2023-09-12T00:00	19987	57	-56.9	-87.1	282	2
2023-09-12T00:00	20010	57	-57.0	-87.2	289	2
2023-09-12T00:00	20033	57	-57.1	-87.2	295	2
2023-09-12T00:00	20054	57	-57.1	-87.2	299	2
2023-09-12T00:00	20077	57	-57.1	-87.2	300	2
2023-09-12T00:00	20104	56	-57.1	-87.2	299	2
2023-09-12T00:00	20128	56	-57.2	-87.3	297	2
2023-09-12T00:00	20145	56	-57.2	-87.3	297	2
2023-09-12T00:00	20169	56	-57.2	-87.3	297	2
2023-09-12T00:00	20191	56	-57.2	-87.3	298	2
2023-09-12T00:00	20214	55	-57.3	-87.4	299	2
2023-09-12T00:00	20234	55	-57.3	-87.4	302	3
2023-09-12T00:00	20257	55	-57.2	-87.3	307	3
2023-09-12T00:00	20279	55	-57.2	-87.3	313	3
2023-09-12T00:00	20300	55	-57.2	-87.3	320	4
2023-09-12T00:00	20326	54	-57.0	-87.8	326	4
2023-09-12T00:00	20347	54	-56.7	-87.5	332	5
2023-09-12T00:00	20366	54	-56.4	-87.3	336	5
2023-09-12T00:00	20389	54	-56.2	-87.2	338	6
2023-09-12T00:00	20409	54	-56.2	-87.2	340	6
2023-09-12T00:00	20434	53	-56.3	-87.2	341	5
2023-09-12T00:00	20453	53	-56.5	-87.4	341	5
2023-09-12T00:00	20479	53	-56.5	-87.4	343	4
2023-09-12T00:00	20500	53	-56.3	-87.2	347	3
2023-09-12T00:00	20521	53	-56.5	-87.4	352	3
2023-09-12T00:00	20543	53	-56.5	-87.4	1	2
2023-09-12T00:00	20568	52	-56.6	-87.5	10	2
2023-09-12T00:00	20589	52	-56.7	-86.9	21	1
2023-09-12T00:00	20614	52	-56.8	-87.0	36	1
2023-09-12T00:00	20639	52	-56.8	-87.0	186	0
2023-09-12T00:00	20660	52	-56.8	-87.0	210	1
2023-09-12T00:00	20682	51	-56.8	-87.0	217	2
2023-09-12T00:00	20705	51	-56.9	-87.7	221	3
2023-09-12T00:00	20726	51	-56.9	-87.7	224	3
2023-09-12T00:00	20753	51	-56.8	-87.6	225	4
2023-09-12T00:00	20772	51	-56.8	-87.0	226	4
2023-09-12T00:00	20795	50	-56.9	-87.1	228	5
2023-09-12T00:00	20826	50	-57.1	-87.2	229	5
2023-09-12T00:00	20846	50	-57.2	-87.3	232	5
2023-09-12T00:00	20868	50	-57.3	-87.4	235	6
2023-09-12T00:00	20894	50	-57.5	-87.5	239	6
2023-09-12T00:00	20918	50	-57.5	-87.5	244	6
2023-09-12T00:00	20939	49	-57.3	-87.4	248	6
2023-09-12T00:00	20966	49	-57.3	-87.4	252	6
2023-09-12T00:00	20989	49	-57.2	-87.9	256	6
2023-09-12T00:00	21011	49	-57.1	-87.8	260	6
2023-09-12T00:00	21037	49	-56.8	-87.6	263	6
2023-09-12T00:00	21057	48	-56.8	-87.6	266	6
2023-09-12T00:00	21084	48	-56.8	-87.6	270	7
2023-09-12T00:00	21112	48	-57.0	-87.8	274	7
2023-09-12T00:00	21135	48	-57.1	-87.2	278	7
2023-09-12T00:00	21157	48	-57.1	-87.2	282	7
2023-09-12T00:00	21181	47	-57.1	-87.2	286	7
2023-09-12T00:00	21208	47	-57.2	-87.3	290	7
2023-09-12T00:00	21232	47	-57.3	-87.4	294	7
2023-09-12T00:00	21252	47	-57.4	-87.5	299	7
2023-09-12T00:00	21278	47	-57.4	-87.5	303	7
2023-09-12T00:00	21302	47	-57.4	-87.5	308	7
2023-09-12T00:00	21331	46	-57.4	-87.5	313	7
2023-09-12T00:00	21351	46	-57.4	-87.5	318	6
2023-09-12T00:00	21378	46	-57.4	-87.5	324	6
2023-09-12T00:00	21397	46	-57.5	-87.5	331	5
2023-09-12T00:00	21423	46	-57.4	-87.5	338	5
2023-09-12T00:00	21445	46	-57.4	-88.1	346	4
2023-09-12T00:00	21473	45	-57.3	-88.0	356	3
2023-09-12T00:00	21492	45	-57.3	-88.0	7	2
2023-09-12T00:00	21513	45	-57.3	-88.0	16	2
2023-09-12T00:00	21539	45	-57.2	-87.9	18	2
2023-09-12T00:00	21560	45	-57.3	-88.0	10	1
2023-09-12T00:00	21586	45	-57.2	-87.9	355	1
2023-09-12T00:00	21610	44	-57.3	-88.0	341	2
2023-09-12T00:00	21634	44	-57.3	-88.0	331	2
2023-09-12T00:00	21651	44	-57.5	-88.1	324	2
2023-09-12T00:00	21678	44	-57.3	-88.0	318	2
2023-09-12T00:00	21703	44	-57.2	-87.9	312	2
2023-09-12T00:00	21727	44	-56.9	-87.7	308	3
2023-09-12T00:00	21746	43	-56.7	-87.5	305	3
2023-09-12T00:00	21771	43	-56.8	-87.6	304	3
2023-09-12T00:00	21793	43	-56.8	-87.6	306	3
2023-09-12T00:00	21815	43	-56.6	-87.5	309	4
2023-09-12T00:00	21840	43	-56.5	-87.4	314	4
2023-09-12T00:00	21865	43	-56.4	-87.3	321	3
2023-09-12T00:00	21889	42	-56.3	-87.2	329	3
2023-09-12T00:00	21909	42	-56.3	-87.2	339	3
2023-09-12T00:00	21929	42	-56.3	-87.2	349	3
2023-09-12T00:00	21955	42	-56.3	-87.2	359	3
2023-09-12T00:00	21982	42	-56.4	-87.3	7	3
2023-09-12T00:00	22005	42	-56.5	-87.4	14	3
2023-09-12T00:00	22027	42	-56.5	-87.4	20	3
2023-09-12T00:00	22051	41	-56.5	-87.4	26	3
2023-09-12T00:00	22072	41	-56.3	-87.2	31	3
2023-09-12T00:00	22097	41	-56.3	-87.2	36	3
2023-09-12T00:00	22122	41	-56.3	-87.2	40	2
2023-09-12T00:00	22142	41	-56.5	-87.4	42	2
2023-09-12T00:00	22168	41	-56.5	-87.4	44	1
2023-09-12T00:00	22192	41	-56.6	-87.5	46	1
2023-09-12T00:00	22216	40	-56.7	-87.5	47	1
2023-09-12T00:00	22235	40	-56.8	-87.6	54	0
2023-09-12T00:00	22263	40	-56.8	-87.6	75	0
2023-09-12T00:00	22286	40	-56.9	-87.7	107	0
2023-09-12T00:00	22310	40	-56.9	-87.7	118	0
2023-09-12T00:00	22340	40	-57.0	-87.8	116	1
2023-09-12T00:00	22360	39	-57.0	-87.8	110	1
2023-09-12T00:00	22389	39	-57.1	-87.8	104	1
2023-09-12T00:00	22413	39	-57.2	-87.3	100	2
2023-09-12T00:00	22432	39	-57.2	-87.9	97	2
2023-09-12T00:00	22461	39	-57.2	-87.9	96	3
2023-09-12T00:00	22485	39	-57.3	-88.0	96	3
2023-09-12T00:00	22510	39	-57.2	-87.9	98	3
2023-09-12T00:00	22536	38	-57.1	-87.8	103	3
2023-09-12T00:00	22556	38	-57.0	-87.8	110	3
2023-09-12T00:00	22580	38	-56.9	-87.7	119	3
2023-09-12T00:00	22606	38	-56.9	-87.7	130	3
2023-09-12T00:00	22638	38	-57.0	-87.8	142	3
2023-09-12T00:00	22656	38	-57.0	-87.8	153	2
2023-09-12T00:00	22676	38	-57.0	-87.8	163	2
2023-09-12T00:00	22697	37	-57.1	-87.8	173	2
2023-09-12T00:00	22725	37	-57.1	-87.8	180	2
2023-09-12T00:00	22750	37	-57.0	-87.8	179	1
2023-09-12T00:00	22774	37	-57.0	-87.8	164	1
2023-09-12T00:00	22799	37	-57.1	-87.8	142	2
2023-09-12T00:00	22824	37	-57.2	-87.9	126	2
2023-09-12T00:00	22844	37	-57.1	-87.8	118	3
2023-09-12T00:00	22872	36	-57.1	-87.8	114	4
2023-09-12T00:00	22901	36	-57.0	-87.8	114	5
2023-09-12T00:00	22925	36	-56.8	-87.6	115	6
2023-09-12T00:00	22949	36	-56.7	-87.5	117	7
2023-09-12T00:00	22975	36	-56.6	-87.5	119	7
2023-09-12T00:00	23003	36	-56.6	-87.5	121	8
2023-09-12T00:00	23025	36	-56.7	-87.5	123	8
2023-09-12T00:00	23048	35	-56.8	-87.6	127	8
2023-09-12T00:00	23070	35	-56.8	-87.6	132	7
2023-09-12T00:00	23094	35	-56.8	-87.6	137	7
2023-09-12T00:00	23127	35	-56.9	-87.7	144	7
2023-09-12T00:00	23147	35	-57.0	-87.8	151	7
2023-09-12T00:00	23172	35	-57.0	-87.8	158	6
2023-09-12T00:00	23200	35	-57.0	-87.8	166	6
2023-09-12T00:00	23228	34	-57.1	-87.8	174	6
2023-09-12T00:00	23251	34	-57.3	-88.0	184	5
2023-09-12T00:00	23275	34	-57.4	-88.1	195	5
2023-09-12T00:00	23302	34	-57.4	-88.1	206	4
2023-09-12T00:00	23330	34	-57.5	-88.1	216	4
2023-09-12T00:00	23350	34	-57.4	-88.1	227	4
2023-09-12T00:00	23370	34	-57.2	-87.9	237	4
2023-09-12T00:00	23401	33	-56.9	-87.7	249	3
2023-09-12T00:00	23427	33	-56.8	-87.6	260	3
2023-09-12T00:00	23449	33	-56.8	-87.6	271	3
2023-09-12T00:00	23474	33	-56.7	-87.5	282	2
2023-09-12T00:00	23504	33	-56.6	-87.5	292	2
2023-09-12T00:00	23523	33	-56.6	-87.5	304	2
2023-09-12T00:00	23547	33	-56.6	-87.5	319	2
2023-09-12T00:00	23580	33	-56.7	-87.5	341	1
2023-09-12T00:00	23598	32	-56.8	-87.6	6	2
2023-09-12T00:00	23623	32	-56.9	-87.7	25	2
2023-09-12T00:00	23647	32	-57.0	-87.8	36	3
2023-09-12T00:00	23674	32	-57.1	-87.8	43	3
2023-09-12T00:00	23704	32	-57.0	-87.8	48	3
2023-09-12T00:00	23718	32	-56.9	-87.7	52	3
2023-09-12T00:00	23750	32	-56.8	-87.6	56	3
2023-09-12T00:00	23779	32	-56.6	-87.5	62	3
2023-09-12T00:00	23807	31	-56.6	-87.5	69	3
2023-09-12T00:00	23826	31	-56.6	-87.5	78	3
2023-09-12T00:00	23845	31	-56.6	-87.5	86	3
2023-09-12T00:00	23871	31	-56.5	-88.1	93	4
2023-09-12T00:00	23899	31	-56.5	-88.1	99	4
2023-09-12T00:00	23925	31	-56.4	-87.3	103	4
2023-09-12T00:00	23949	31	-56.5	-87.4	108	4
2023-09-12T00:00	23977	31	-56.6	-87.5	113	4
2023-09-12T00:00	23998	30	-56.6	-87.5	120	4
2023-09-12T00:00	24021	30	-56.6	-87.5	130	4
2023-09-12T00:00	24046	30	-56.6	-87.5	141	4
2023-09-12T00:00	24079	30	-56.6	-87.5	151	5
2023-09-12T00:00	24092	30	-56.6	-87.5	159	5
2023-09-12T00:00	24116	30	-56.6	-87.5	162	5
2023-09-12T00:00	24141	30	-56.7	-88.2	163	5
2023-09-12T00:00	24167	30	-56.7	-88.2	163	6
2023-09-12T00:00	24196	30	-56.6	-88.1	162	6
2023-09-12T00:00	24216	29	-56.5	-88.1	163	5
2023-09-12T00:00	24242	29	-56.4	-88.0	165	5
2023-09-12T00:00	24273	29	-56.2	-87.8	170	5
2023-09-12T00:00	24301	29	-56.0	-87.7	176	4
2023-09-12T00:00	24315	29	-55.9	-87.6	184	4
2023-09-12T00:00	24343	29	-55.8	-87.5	192	3
2023-09-12T00:00	24368	29	-55.6	-87.4	198	3
2023-09-12T00:00	24397	29	-55.5	-87.3	202	2
2023-09-12T00:00	24418	29	-55.4	-88.0	203	2
2023-09-12T00:00	24449	28	-55.4	-88.0	202	2
2023-09-12T00:00	24481	28	-55.2	-87.8	198	1
2023-09-12T00:00	24499	28	-55.0	-87.7	191	1
2023-09-12T00:00	24526	28	-54.8	-87.6	182	2
2023-09-12T00:00	24555	28	-54.8	-87.6	173	2
2023-09-12T00:00	24580	28	-54.9	-87.6	166	2
2023-09-12T00:00	24604	28	-55.0	-87.7	162	2
2023-09-12T00:00	24629	28	-55.0	-87.7	162	3
2023-09-12T00:00	24661	27	-54.8	-87.6	166	3
2023-09-12T00:00	24688	27	-54.6	-87.4	173	2
2023-09-12T00:00	24713	27	-54.5	-87.3	187	2
2023-09-12T00:00	24740	27	-54.3	-87.2	210	2
2023-09-12T00:00	24766	27	-54.3	-87.2	236	2
2023-09-12T00:00	24794	27	-54.4	-87.3	254	2
2023-09-12T00:00	24819	27	-54.4	-87.3	263	3
2023-09-12T00:00	24840	27	-54.5	-87.3	265	3
2023-09-12T00:00	24871	27	-54.5	-87.3	264	3
2023-09-12T00:00	24891	26	-54.4	-86.5	262	3
2023-09-12T00:00	24922	26	-54.5	-86.6	258	3
2023-09-12T00:00	24950	26	-54.7	-86.7	256	3
2023-09-12T00:00	24973	26	-54.7	-86.7	254	3
2023-09-12T00:00	24998	26	-54.6	-86.7	254	3
2023-09-12T00:00	25027	26	-54.6	-86.7	256	3
2023-09-12T00:00	25054	26	-54.6	-86.7	261	3
2023-09-12T00:00	25073	26	-54.7	-86.7	267	3
2023-09-12T00:00	25108	26	-54.8	-86.8	277	3
2023-09-12T00:00	25136	25	-55.0	-87.0	290	2
2023-09-12T00:00	25160	25	-55.1	-87.0	306	2
2023-09-12T00:00	25189	25	-55.2	-87.1	324	2
2023-09-12T00:00	25218	25	-55.2	-87.1	341	2
2023-09-12T00:00	25239	25	-55.2	-87.1	355	2
2023-09-12T00:00	25267	25	-55.1	-87.0	5	3
2023-09-12T00:00	25289	25	-55.1	-87.0	13	3
2023-09-12T00:00	25321	25	-55.1	-87.0	20	3
2023-09-12T00:00	25348	25	-55.1	-87.0	25	3
2023-09-12T00:00	25372	25	-55.2	-87.1	31	3
2023-09-12T00:00	25395	24	-55.3	-87.2	37	3
2023-09-12T00:00	25420	24	-55.4	-87.2	43	2
2023-09-12T00:00	25449	24	-55.2	-87.1	50	2
2023-09-12T00:00	25468	24	-55.0	-87.7	60	1
2023-09-12T00:00	25495	24	-54.8	-87.6	81	1
2023-09-12T00:00	25518	24	-54.7	-87.5	115	1
2023-09-12T00:00	25552	24	-54.7	-87.5	140	1
2023-09-12T00:00	25579	24	-54.7	-87.5	149	0
2023-09-12T00:00	25591	24	-54.7	-87.5	149	0
2023-09-12T00:00	25627	24	-54.7	-87.5	145	0
2023-09-12T00:00	25644	24	-54.4	-87.3	140	0
2023-09-12T00:00	25669	23	-54.1	-87.1	149	0
2023-09-12T00:00	25687	23	-53.7	-87.6	171	0
2023-09-12T00:00	25717	23	-53.5	-87.5	204	1
2023-09-12T00:00	25742	23	-53.2	-87.3	238	1
2023-09-12T00:00	25767	23	-52.8	-87.0	258	2
2023-09-12T00:00	25793	23	-52.6	-86.8	271	2
2023-09-12T00:00	25816	23	-52.4	-86.7	280	3
2023-09-12T00:00	25848	23	-52.4	-86.7	288	3
2023-09-12T00:00	25871	23	-52.6	-86.8	295	4
2023-09-12T00:00	25896	23	-52.6		302	4
2023-09-12T00:00	25917	23	-52.8	-86.1	308	5
2023-09-12T00:00	25947	22	-52.7	-86.0	313	5
2023-09-12T00:00	25972	22	-52.8	-86.1	318	5
2023-09-12T00:00	26000	22	-53.0	-86.3	323	5
2023-09-12T00:00	26021	22	-53.2	-86.4	329	6
2023-09-12T00:00	26048	22	-53.2	-86.4	336	6
2023-09-12T00:00	26072	22	-53.1	-86.3	343	6
2023-09-12T00:00	26103	22	-53.2	-86.4	351	5
2023-09-12T00:00	26126	22	-53.3	-86.5	359	5
2023-09-12T00:00	26152	22	-53.2	-86.4	8	5
2023-09-12T00:00	26177	22	-53.2	-86.4	16	5
2023-09-12T00:00	26206	22	-53.2	-86.4	23	4
2023-09-12T00:00	26227	21	-53.2	-86.4	32	4
2023-09-12T00:00	26258	21	-53.2	-86.4	44	3
2023-09-12T00:00	26277	21	-53.1	-86.3	65	2
2023-09-12T00:00	26312	21	-53.1	-86.3	94	2
2023-09-12T00:00	26336	21	-53.1	-86.3	117	3
2023-09-12T00:00	26364	21	-53.1	-86.3	130	3
2023-09-12T00:00	26384	21	-53.0	-86.3	138	4
2023-09-12T00:00	26419	21	-53.0	-86.3	145	4
2023-09-12T00:00	26439	21	-53.1	-87.2	154	5
2023-09-12T00:00	26472	21	-52.9	-87.1	163	5
2023-09-12T00:00	26497	21	-52.7	-86.9	173	5
2023-09-12T00:00	26525	21	-52.4	-86.7	182	5
2023-09-12T00:00	26551	20	-52.2	-86.6	192	5
2023-09-12T00:00	26574	20	-52.0	-86.4	201	5
2023-09-12T00:00	26598	20	-52.0	-86.4	209	5
2023-09-12T00:00	26629	20	-51.8	-86.3	215	4
2023-09-12T00:00	26644	20	-51.8	-86.3	220	4
2023-09-12T00:00	26680	20	-51.7	-86.2	225	4
2023-09-12T00:00	26706	20	-51.3	-85.9	229	4
2023-09-12T00:00	26737	20	-51.2	-85.8	234	3
2023-09-12T00:00	26764	20	-51.0	-86.7	240	3
2023-09-12T00:00	26783	20	-50.8	-86.6	245	3
2023-09-12T00:00	26813	20	-50.7	-86.5	248	2
2023-09-12T00:00	26836	20	-50.4	-86.3	248	2
2023-09-12T00:00	26868	19	-50.2	-86.2	248	3
2023-09-12T00:00	26901	19	-49.9	-86.0	250	3
2023-09-12T00:00	26920	19	-49.8	-85.9	255	3
2023-09-12T00:00	26945	19	-49.8	-85.9	262	3
2023-09-12T00:00	26965	19	-49.9	-86.0	269	4
2023-09-12T00:00	26996	19	-50.0	-85.0	276	4
2023-09-12T00:00	27016	19	-50.2	-85.1	282	4
2023-09-12T00:00	27048	19	-50.1	-85.1	288	4
2023-09-12T00:00	27069	19	-50.1	-85.1	293	4
2023-09-12T00:00	27100	19	-50.1	-85.1	295	4
2023-09-12T00:00	27126	19	-50.2	-85.1	294	3
2023-09-12T00:00	27145	19	-50.2	-85.1	287	3
2023-09-12T00:00	27172	19	-50.3	-85.2	277	3
2023-09-12T00:00	27202	19	-50.3	-85.2	266	3
2023-09-12T00:00	27226	18	-50.4	-85.3	259	4
2023-09-12T00:00	27243	18	-50.1	-86.1	256	4
2023-09-12T00:00	27276	18	-49.8	-85.9	255	5
2023-09-12T00:00	27309	18	-49.5	-85.7	257	5
2023-09-12T00:00	27332	18	-49.3	-85.5	259	6
2023-09-12T00:00	27359	18	-49.3	-85.5	261	6
2023-09-12T00:00	27379	18	-49.3	-85.5	262	6
2023-09-12T00:00	27414	18	-49.4	-85.6	262	5
2023-09-12T00:00	27443	18	-49.3	-85.5	262	6
2023-09-12T00:00	27472	18	-49.3	-85.5	261	6
2023-09-12T00:00	27488	18	-49.3	-85.5	262	6
2023-09-12T00:00	27510	18	-49.3	-85.5	262	6
2023-09-12T00:00	27541	18	-49.4	-85.6	263	6
2023-09-12T00:00	27575	18	-49.4	-85.6	266	6
2023-09-12T00:00	27604	17	-49.5	-85.7	269	6
2023-09-12T00:00	27620	17	-49.4	-85.6	273	6
2023-09-12T00:00	27643	17	-49.1	-85.4	279	5
2023-09-12T00:00	27678	17	-49.0	-85.3	286	5
2023-09-12T00:00	27701	17	-49.1	-85.4	293	4
2023-09-12T00:00	27726	17	-49.0	-85.3	300	4
2023-09-12T00:00	27760	17	-49.0	-85.3	303	4
2023-09-12T00:00	27781	17	-48.9	-85.3	304	4
2023-09-12T00:00	27802	17	-48.9	-85.3	301	4
2023-09-12T00:00	27835	17	-48.7	-85.1	296	3
2023-09-12T00:00	27859	17	-48.7	-85.1	289	3
2023-09-12T00:00	27887	17	-48.6	-85.0	285	4
2023-09-12T00:00	27916	17	-48.4	-84.9	283	4
2023-09-12T00:00	27947	17	-48.4	-84.9	283	4
2023-09-12T00:00	27975	16	-48.3	-84.8	283	5
2023-09-12T00:00	28000	16	-48.3	-84.8	283	5
2023-09-12T00:00	28017	16	-48.2	-84.8	281	5
2023-09-12T00:00	28057	16	-47.9	-84.6	280	5
2023-09-12T00:00	28080	16	-47.8	-84.5	278	5
2023-09-12T00:00	28103	16	-47.7	-84.4	277	5
2023-09-12T00:00	28137	16	-47.6	-84.3	275	5
2023-09-12T00:00	28158	16	-47.5	-84.3	273	5
2023-09-12T00:00	28177	16	-47.5	-84.3	269	5
2023-09-12T00:00	28208	16	-47.5	-84.3	266	5
2023-09-12T00:00	28241	16	-47.6	-84.3	263	6
2023-09-12T00:00	28277	16	-47.7	-84.4	264	6
2023-09-12T00:00	28288	16	-47.7	-84.4	268	6
2023-09-12T00:00	28330	16	-47.7	-84.4	273	6
2023-09-12T00:00	28354	16	-47.7	-84.4	279	6
2023-09-12T00:00	28376	15	-47.7	-84.4	283	7
2023-09-12T00:00	28407	15	-47.6	-84.3	286	7
2023-09-12T00:00	28425	15	-47.4	-84.2	287	7
2023-09-12T00:00	28463	15	-47.4	-84.2	289	7
2023-09-12T00:00	28484	15	-47.5	-84.3	291	7
2023-09-12T00:00	28507	15	-47.5	-84.3	294	7
2023-09-12T00:00	28546	15	-47.4	-84.2	298	7
2023-09-12T00:00	28553	15	-47.3	-84.1	302	6
2023-09-12T00:00	28586	15	-47.4	-84.2	305	6
2023-09-12T00:00	28598	15	-47.4	-84.2	307	5
2023-09-12T00:00	28635	15	-47.5	-84.3	306	4
2023-09-12T00:00	28655	15	-47.5	-84.3	301	4
2023-09-12T00:00	28693	15	-47.4	-84.2	291	3
2023-09-12T00:00	28706	15	-47.3	-84.1	276	3
2023-09-12T00:00	28733	15	-47.0	-83.9	260	3
2023-09-12T00:00	28753	15	-46.8	-83.8	249	3
2023-09-12T00:00	28782	15	-46.8	-83.8	240	3
2023-09-12T00:00	28811	15	-46.7	-83.7	233	3
2023-09-12T00:00	28832	14	-46.6	-83.6	226	4
2023-09-12T00:00	28871	14	-46.5	-83.6	221	4
2023-09-12T00:00	28895	14	-46.4	-83.5	218	4
2023-09-12T00:00	28906	14	-46.2	-83.4	217	5
2023-09-12T00:00	28943	14	-46.2	-83.4	219	5
2023-09-12T00:00	28967	14	-46.2	-83.4	222	6
2023-09-12T00:00	28989	14	-46.1	-83.3	226	6
2023-09-12T00:00	29017	14	-46.0	-83.2	231	6
2023-09-12T00:00	29049	14	-46.0	-83.2	235	7
2023-09-12T00:00	29085	14	-46.0	-83.2	239	7
2023-09-12T00:00	29114	14	-46.0	-83.2	243	7
2023-09-12T00:00	29130	14	-46.1	-83.3	244	7
2023-09-12T00:00	29158	14	-46.0	-83.2	244	7
2023-09-12T00:00	29180	14	-45.9	-83.2	241	6
2023-09-12T00:00	29191	14	-46.0	-83.2	237	6
2023-09-12T00:00	29221	14	-45.7	-83.0	233	6
2023-09-12T00:00	29247	14	-45.5	-82.9	230	6
2023-09-12T00:00	29278	14	-45.2	-82.7	230	7
2023-09-12T00:00	29299	13	-44.8	-82.4	231	7
2023-09-12T00:00	29341	13	-44.5	-82.2	232	7
2023-09-12T00:00	29368	13	-44.4	-82.1	233	7
2023-09-12T00:00	29390	13	-44.2	-82.0	234	7
2023-09-12T00:00	29420	13	-44.3	-82.0	234	7
2023-09-12T00:00	29450	13	-44.3	-82.0	236	7
2023-09-12T00:00	29481	13	-44.4	-82.1	238	7
2023-09-12T00:00	29501	13	-44.4	-82.1	240	7
2023-09-12T00:00	29538	13	-44.4	-82.1	242	8
2023-09-12T00:00	29565	13	-44.5	-82.2	244	8
2023-09-12T00:00	29603	13	-44.6	-82.2	245	9
2023-09-12T00:00	29634	13	-44.7	-82.3	246	9
2023-09-12T00:00	29649	13	-44.8	-82.4	248	10
2023-09-12T00:00	29687	13	-44.9	-82.5	249	11
2023-09-12T00:00	29706	13	-45.0	-82.5	251	11
2023-09-12T00:00	29735	13	-44.8	-82.4	252	11
2023-09-12T00:00	29769	13	-44.4	-82.1	253	11
2023-09-12T00:00	29802	13	-44.2	-82.0	253	10
2023-09-12T00:00	29828	12	-44.1	-81.9	254	9
2023-09-12T00:00	29860	12	-44.2	-82.0	254	9
2023-09-12T00:00	29894	12	-44.3	-82.0	255	8
2023-09-12T00:00	29918	12	-44.4	-82.1	254	8
2023-09-12T00:00	29934	12	-44.6	-82.2	254	8
2023-09-12T00:00	29976	12	-44.7	-82.3	253	8
2023-09-12T00:00	30010	12	-44.9	-82.5	253	8
2023-09-12T00:00	30037	12	-44.9	-82.5	253	8
2023-09-12T00:00	30041	12	-44.9	-82.5	253	8
2023-09-12T00:00	30091	12	-45.0	-82.5	253	8
2023-09-12T00:00	30117	12	-45.2	-82.7	253	8
2023-09-12T00:00	30120	12	-45.3	-82.7	253	8
2023-09-12T00:00	30170	12	-45.4	-82.8	253	8
2023-09-12T00:00	30185	12	-45.4	-82.8	253	8
2023-09-12T00:00	30217	12	-45.5	-82.9	252	8
2023-09-12T00:00	30234	12	-45.6	-82.9	252	9
2023-09-12T00:00	30286	12	-45.6	-82.9	250	8
2023-09-12T00:00	30304	12	-45.4	-82.8	244	8
2023-09-12T00:00	30348	12	-45.4	-82.8	240	8
2023-09-12T00:00	30372	11	-45.4	-82.8	236	8
2023-09-12T00:00	30389	11	-45.3	-82.7	232	8
2023-09-12T00:00	30423	11	-45.3	-82.7	229	8
2023-09-12T00:00	30439	11	-45.3	-82.7	228	8
2023-09-12T00:00	30457	11	-45.4	-82.8	230	8
2023-09-12T00:00	30503	11	-45.3	-82.7	233	8
2023-09-12T00:00	30510	11	-45.1	-82.6	238	8
2023-09-12T00:00	30540	11	-45.0	-82.5	243	9
2023-09-12T00:00	30567	11	-44.9	-82.5	248	9
2023-09-12T00:00	30582	11	-44.7	-82.3	251	10
2023-09-12T00:00	30622	11	-44.6	-82.2	253	11
2023-09-12T00:00	30644	11	-44.5	-82.2	254	11
2023-09-12T00:00	30670	11	-44.4	-82.1	256	12
2023-09-12T00:00	30699	11	-44.1	-81.9	258	13
2023-09-12T00:00	30715	11	-43.9	-81.8	261	13
2023-09-12T00:00	30731	11	-43.7	-81.6	263	14
2023-09-12T00:00	30763	11	-43.2	-81.3	265	14
2023-09-12T00:00	30808	11	-43.1	-81.2	267	14
2023-09-12T00:00	30836	11	-43.0	-81.1	269	14
2023-09-12T00:00	30857	11	-43.2	-81.3	270	15
2023-09-12T00:00	30875	11	-43.2	-81.3	271	14
2023-09-12T00:00	30889	11	-43.1	-81.2	272	14
2023-09-12T00:00	30906	11	-43.2	-81.3	272	14
2023-09-12T00:00	30921	11	-43.3	-81.3	272	13
2023-09-12T00:00	30977	11	-43.1	-81.2	272	13
2023-09-12T00:00	30985	11	-43.1	-81.2	273	13
2023-09-12T00:00	30996	10	-43.1	-81.2	274	13
2023-09-12T00:00	31036	10	-43.0	-81.1	276	12
2023-09-12T00:00	31069	10	-42.4	-80.7	277	12
2023-09-12T00:00	31086	10	-41.8	-80.3	278	12
2023-09-12T00:00	31106	10	-41.2	-79.9	278	11
2023-09-12T00:00	31146	10	-41.0	-79.7	278	11
2023-09-12T00:00	31164	10	-41.0	-79.7	278	10
2023-09-12T00:00	31191	10	-41.0	-79.7	278	10
2023-09-12T00:00	31213	10	-41.1	-79.8	279	10
2023-09-12T00:00	31227	10	-41.1	-79.8	281	10
2023-09-12T00:00	31273	10	-41.2	-79.9	284	10
2023-09-12T00:00	31283	10	-41.3	-79.9	286	10
2023-09-12T00:00	31311	10	-41.4	-80.0	288	10
2023-09-12T00:00	31347	10	-41.6	-80.1	289	9
2023-09-12T00:00	31378	10	-41.9	-80.4	289	9
2023-09-12T00:00	31391	10	-42.1	-80.5	289	9
2023-09-12T00:00	31417	10	-42.2	-80.6	288	8
2023-09-12T00:00	31445	10	-42.2	-80.6	285	8
2023-09-12T00:00	31473	10	-42.4	-80.7	282	8
2023-09-12T00:00	31483	10	-42.4	-80.7	279	8
2023-09-12T00:00	31516	10	-42.5	-80.8	275	8
2023-09-12T00:00	31567	10	-42.5	-80.8	271	8
2023-09-12T00:00	31604	10	-42.4	-80.7	263	7
2023-09-12T00:00	31639	10	-42.3	-80.6	259	8
2023-09-12T00:00	31680	9	-41.9	-80.4	252	8
2023-09-12T00:00	31714	9	-41.8	-80.3	249	8
2023-09-12T00:00	31728	9	-41.8	-80.3	246	9
2023-09-12T00:00	31745	9	-41.8	-80.3	245	9
2023-09-12T00:00	31778	9	-41.8	-80.3	243	10
2023-09-12T00:00	31800	9	-41.8	-80.3	242	10
2023-09-12T00:00	31827	9	-41.9	-80.4	242	11
2023-09-12T00:00	31835	9	-42.0	-80.4	241	11
2023-09-12T00:00	31888	9	-42.2	-80.6	242	12
2023-09-12T00:00	31922	9	-42.2	-80.6	242	12
2023-09-12T00:00	31935	9	-42.2	-80.6	242	13
2023-09-12T00:00	31947	9	-42.1	-80.5	242	13
2023-09-12T00:00	31971	9	-42.0	-80.4	242	13
2023-09-12T00:00	32017	9	-42.1	-80.5	241	13
2023-09-12T00:00	32023	9	-42.2	-80.6	242	13
2023-09-12T00:00	32059	9	-42.2	-80.6	242	13
2023-09-12T00:00	32081	9	-42.1	-80.5	243	12
2023-09-12T00:00	32113	9	-42.0	-80.4	245	12
2023-09-12T00:00	32133	9	-42.1	-80.5	248	11
2023-09-12T00:00	32154	9	-42.1	-80.5	252	11
2023-09-12T00:00	32168	9	-42.1	-80.5	256	10
2023-09-12T00:00	32212	9	-42.1	-80.5	261	10
2023-09-12T00:00	32243	9	-41.9	-80.4	265	10
2023-09-12T00:00	32261	9	-41.9	-80.4	268	9
2023-09-12T00:00	32298	9	-42.0	-80.4	271	9
2023-09-12T00:00	32312	9	-42.0	-80.4	273	8
2023-09-12T00:00	32316	9	-42.0	-80.4	275	8
2023-09-12T00:00	32353	9	-42.0	-80.4	276	7
2023-09-12T00:00	32378	9	-42.0	-80.4	276	6
2023-09-12T00:00	32395	9	-42.0	-80.4	276	6
2023-09-12T00:00	32443	8	-42.0	-80.4	274	5
2023-09-12T00:00	32453	8	-42.1	-80.5	271	5
2023-09-12T00:00	32466	8	-42.2	-80.6	266	4
2023-09-12T00:00	32507	8	-42.1	-80.5	258	4
2023-09-12T00:00	32521	8	-41.8	-80.3	248	4
2023-09-12T00:00	32527	8	-41.8	-80.3	237	4
2023-09-12T00:00	32579	8	-41.8	-80.3	224	4
2023-09-12T00:00	32598	8	-41.8	-80.3	210	4
2023-09-12T00:00	32615	8	-41.7	-80.2	197	4
2023-09-12T00:00	32625	8	-41.5	-80.1	185	4
2023-09-12T00:00	32637	8	-41.4	-80.0	178	5
2023-09-12T00:00	32694	8	-41.3	-79.9	175	5
2023-09-12T00:00	32696	8	-41.3	-79.9	176	6
2023-09-12T00:00	32725	8	-41.2	-79.9	179	7
2023-09-12T00:00	32750	8	-41.2	-79.9	182	7
2023-09-12T00:00	32766	8	-41.2	-79.9	185	8
2023-09-12T00:00	32790	8	-41.2	-79.9	188	9
2023-09-12T00:00	32814	8	-41.2	-79.9	191	9
2023-09-12T00:00	32847	8	-41.3	-79.9	194	10
2023-09-12T00:00	32886	8	-41.4	-80.0	197	10
2023-09-12T00:00	32890	8	-41.5	-80.1	201	11
2023-09-12T00:00	32906	8	-41.7	-80.2	204	11
2023-09-12T00:00	32927	8	-41.8	-80.3	207	12
2023-09-12T00:00	32953	8	-41.9	-80.4	210	12
2023-09-12T00:00	32992	8	-42.0	-80.4	213	13
2023-09-12T00:00	33006	8	-42.0	-80.4	216	13
2023-09-12T00:00	33027	8	-42.0	-80.4	219	14
2023-09-12T00:00	33047	8	-42.0	-80.4	221	14
2023-09-12T00:00	33062	8	-42.0	-80.4	224	15
2023-09-12T00:00	33102	8	-41.9	-80.4	226	15
2023-09-12T00:00	33106	8	-41.9	-80.4	228	16
2023-09-12T00:00	33127	8	-42.0	-80.4	229	16
2023-09-12T00:00	33164	8	-41.9	-80.4	231	17
2023-09-12T00:00	33187	8	-42.0	-80.4	232	17
2023-09-12T00:00	33212	8	-42.0	-80.4	234	17
2023-09-12T00:00	33243	8	-42.0	-80.4	235	17
2023-09-12T00:00	33248	8	-42.0	-80.4	238	17
2023-09-12T00:00	33294	7	-42.0	-80.4	240	17
2023-09-12T00:00	33315	7	-41.6	-80.1	242	17
2023-09-12T00:00	33345	7	-41.3	-79.9	246	16
2023-09-12T00:00	33375	7	-41.1	-79.8	247	16
2023-09-12T00:00	33393	7	-40.8	-79.6	249	15
2023-09-12T00:00	33432	7	-40.6	-79.5	249	14
2023-09-12T00:00	33438	7	-40.3	-79.2	250	14
2023-09-12T00:00	33467	7	-40.2	-79.2	250	13
2023-09-12T00:00	33487	7	-40.0	-79.0	249	13
2023-09-12T00:00	33525	7	-39.8	-78.9	249	12
2023-09-12T00:00	33580	7	-39.4	-78.6	249	12
2023-09-12T00:00	33587	7	-39.3	-78.5	250	12
2023-09-12T00:00	33611	7	-39.0	-78.3	252	12
2023-09-12T00:00	33634	7	-38.8	-78.2	253	11
2023-09-12T00:00	33659	7	-38.7	-78.1	254	12
2023-09-12T00:00	33675	7	-38.6	-78.1	254	12
2023-09-12T00:00	33701	7	-38.6	-78.1	254	12
2023-09-12T00:00	33720	7	-38.7	-78.1	254	12
2023-09-12T00:00	33725	7	-38.4	-77.9	253	13
2023-09-12T00:00	33751	7	-38.3	-77.9	253	13
2023-09-12T00:00	33762	7	-38.3	-77.9	254	13
2023-09-12T00:00	33786	7	-38.3	-77.9	255	13
2023-09-12T00:00	33826	7	-38.3	-77.9	256	12
2023-09-12T00:00	33837	7	-38.4	-77.9	256	13
2023-09-12T00:00	33879	7	-38.3	-77.9	257	13
2023-09-12T00:00	33901	7	-38.4	-77.9	259	13
2023-09-12T00:00	33909	7	-38.4	-77.9	260	13
2023-09-12T00:00	33929	7	-38.4	-77.9	261	14
2023-09-12T00:00	33954	7	-38.3	-77.9	262	14
2023-09-12T00:00	33963	7	-38.1	-77.7	264	15
2023-09-12T00:00	33988	7	-37.9	-77.6	266	15
2023-09-12T00:00	34025	7	-37.6	-77.4	268	15
2023-09-12T00:00	34062	7	-37.4	-77.2	270	15
2023-09-12T00:00	34070	7	-37.0	-77.0	272	14
2023-09-12T00:00	34098	7	-36.7	-76.7	274	14
2023-09-12T00:00	34106	7	-36.6	-76.7	274	13
2023-09-12T00:00	34117	7	-36.6	-76.7	274	13
2023-09-12T00:00	34164	7	-36.5	-76.6	274	14
2023-09-12T00:00	34231	7	-36.0	-76.3	273	15
2023-09-12T00:00	34250	7	-36.0	-76.3	275	16
2023-09-12T00:00	34251	6	-35.9	-76.2	276	16
2023-09-12T00:00	34278	6	-35.9	-76.2	277	16
2023-09-12T00:00	34323	6	-36.0	-76.3	278	16
2023-09-12T00:00	34343	6	-36.0	-76.3	280	16
2023-09-12T00:00	34377	6	-36.3	-76.5	283	17
2023-09-12T00:00	34407	6	-36.2	-76.4	284	17
2023-09-12T00:00	34418	6	-36.0	-76.3	285	17
2023-09-12T06:00	112	999	17.0	11.9	140	2
2023-09-12T06:00	139	996	20.5	10.6	236	1
2023-09-12T06:00	165	993	23.6	10.1	224	1
2023-09-12T06:00	193	990	24.2	10.7	227	1
2023-09-12T06:00	218	987	24.6	10.9	231	1
2023-09-12T06:00	244	984	24.7	10.4	234	1
2023-09-12T06:00	270	981	24.7	10.3	238	1
2023-09-12T06:00	298	978	24.7	10.4	241	1
2023-09-12T06:00	327	975	24.6	9.9	244	2
2023-09-12T06:00	354	972	24.4	9.9	244	2
2023-09-12T06:00	385	969	24.3	9.9	243	2
2023-09-12T06:00	411	965	24.1	9.8	241	2
2023-09-12T06:00	443	962	23.9	9.6	240	2
2023-09-12T06:00	471	959	23.7	9.7	238	3
2023-09-12T06:00	499	956	23.4	9.7	237	2
2023-09-12T06:00	529	953	23.2	9.8	235	2
2023-09-12T06:00	552	950	23.0	9.6	233	2
2023-09-12T06:00	583	947	22.8	9.4	231	2
2023-09-12T06:00	608	944	22.6	9.2	229	1
2023-09-12T06:00	639	940	22.3	9.7	229	1
2023-09-12T06:00	669	937	22.1	9.8	230	1
2023-09-12T06:00	696	934	21.8	9.7	230	1
2023-09-12T06:00	724	931	21.6	9.7	225	1
2023-09-12T06:00	755	928	21.3	9.8	211	0
2023-09-12T06:00	780	925	21.1	9.8	185	0
2023-09-12T06:00	810	922	20.8	9.6	160	0
2023-09-12T06:00	837	919	20.5	9.5	152	0
2023-09-12T06:00	864	917	20.3	9.5	152	0
2023-09-12T06:00	891	914	20.0	9.4	153	1
2023-09-12T06:00	921	911	19.7	9.2	153	1
2023-09-12T06:00	948	908	19.5	9.3	155	0
2023-09-12T06:00	969	905	19.3	9.2	167	0
2023-09-12T06:00	996	902	19.0	9.2	189	0
2023-09-12T06:00	1030	899	18.7	9.1	204	0
2023-09-12T06:00	1059	896	18.4	9.0	200	0
2023-09-12T06:00	1083	893	18.2	9.0	189	1
2023-09-12T06:00	1113	890	17.9	9.0	177	1
2023-09-12T06:00	1140	887	17.6	8.9	169	1
2023-09-12T06:00	1169	884	17.3	8.8	165	1
2023-09-12T06:00	1195	882	17.1	8.8	166	1
2023-09-12T06:00	1223	879	16.8	8.9	171	1
2023-09-12T06:00	1256	876	16.5	8.7	178	1
2023-09-12T06:00	1278	873	16.3	8.7	189	1
2023-09-12T06:00	1308	870	16.0	8.8	199	1
2023-09-12T06:00	1337	867	15.8	8.6	207	2
2023-09-12T06:00	1365	864	15.5	8.5	214	2
2023-09-12T06:00	1389	862	15.3	8.3	217	2
2023-09-12T06:00	1416	859	15.0	8.2	218	2
2023-09-12T06:00	1443	856	14.8	8.0	216	2
2023-09-12T06:00	1471	854	14.6	7.9	213	2
2023-09-12T06:00	1502	851	14.4	7.6	212	2
2023-09-12T06:00	1525	848	14.2	7.2	215	2
2023-09-12T06:00	1551	846	14.0	6.8	221	2
2023-09-12T06:00	1574	843	13.9	6.5	228	2
2023-09-12T06:00	1599	841	13.8	5.8	236	1
2023-09-12T06:00	1630	838	13.7	5.1	244	1
2023-09-12T06:00	1657	835	14.0	0.8	254	1
2023-09-12T06:00	1681	832	14.0	-1.1	280	0
2023-09-12T06:00	1712	830	14.6	-9.2	345	0
2023-09-12T06:00	1739	827	14.9		10	1
2023-09-12T06:00	1762	825	14.9	-10.6	15	1
2023-09-12T06:00	1791	822	14.9	-10.3	16	1
2023-09-12T06:00	1819	819	14.7	-9.3	17	1
2023-09-12T06:00	1847	816	14.5	-8.6	19	1
2023-09-12T06:00	1877	814	14.5	-9.5	22	1
2023-09-12T06:00	1907	811	14.6	-11.3	25	1
2023-09-12T06:00	1934	808	14.5	-12.3	28	1
2023-09-12T06:00	1963	805	14.4	-13.0	28	1
2023-09-12T06:00	1989	803	14.4	-13.0	26	1
2023-09-12T06:00	2017	800	14.2	-12.6	24	2
2023-09-12T06:00	2047	797	14.0	-9.2	22	2
2023-09-12T06:00	2075	795	13.8	-4.1	18	3
2023-09-12T06:00	2104	792	13.4	-1.6	14	3
2023-09-12T06:00	2131	789	13.3	-4.3	8	3
2023-09-12T06:00	2161	787	13.3	-6.8	2	3
2023-09-12T06:00	2190	784	13.2	-6.6	356	3
2023-09-12T06:00	2219	781	12.9	-5.6	351	3
2023-09-12T06:00	2244	779	12.7	-5.6	347	3
2023-09-12T06:00	2274	776	12.4	-5.3	345	3
2023-09-12T06:00	2302	773	12.2	-3.5	345	3
2023-09-12T06:00	2329	771	11.9	-3.2	344	4
2023-09-12T06:00	2357	768	11.7	-2.8	344	4
2023-09-12T06:00	2386	766	11.4	-2.7	343	3
2023-09-12T06:00	2417	763	11.2	-2.3	342	3
2023-09-12T06:00	2447	760	11.0	-2.2	340	3
2023-09-12T06:00	2473	758	10.8	-2.4	337	3
2023-09-12T06:00	2501	755	10.6	-2.4	334	3
2023-09-12T06:00	2527	753	10.4	-2.5	332	3
2023-09-12T06:00	2555	750	10.1	-2.6	331	3
2023-09-12T06:00	2586	748	9.9	-2.7	330	4
2023-09-12T06:00	2612	745	9.7	-2.8	328	4
2023-09-12T06:00	2641	743	9.5	-2.9	327	4
2023-09-12T06:00	2669	740	9.2	-3.1	326	4
2023-09-12T06:00	2695	738	9.0	-3.6	325	4
2023-09-12T06:00	2725	735	8.8	-3.8	324	5
2023-09-12T06:00	2754	732	8.5	-4.1	324	5
2023-09-12T06:00	2786	730	8.3	-4.7	323	5
2023-09-12T06:00	2813	727	8.1	-4.8	323	6
2023-09-12T06:00	2843	725	7.9	-4.9	322	6
2023-09-12T06:00	2872	722	7.7	-6.3	322	6
2023-09-12T06:00	2902	720	7.6	-8.1	322	6
2023-09-12T06:00	2925	717	7.4	-9.5	322	6
2023-09-12T06:00	2955	715	7.2	-9.2	323	5
2023-09-12T06:00	2978	713	7.0	-10.5	323	5
2023-09-12T06:00	3008	710	6.9	-10.7	324	5
2023-09-12T06:00	3041	708	6.8	-12.2	324	5
2023-09-12T06:00	3067	705	6.7	-11.9	325	5
2023-09-12T06:00	3099	702	6.5	-10.9	327	4
2023-09-12T06:00	3126	700	6.2	-6.3	328	4
2023-09-12T06:00	3155	698	5.8	-5.2	329	4
2023-09-12T06:00	3182	695	5.7	-7.9	328	4
2023-09-12T06:00	3209	693	5.5	-6.2	324	4
2023-09-12T06:00	3234	691	5.2	-5.8	319	4
2023-09-12T06:00	3263	688	5.0	-5.3	312	4
2023-09-12T06:00	3291	686	4.7	-5.8	305	4
2023-09-12T06:00	3318	684	4.5	-4.8	298	5
2023-09-12T06:00	3347	682	4.2	-4.3	294	5
2023-09-12T06:00	3372	679	4.0	-4.2	291	5
2023-09-12T06:00	3400	677	3.8	-4.4	290	5
2023-09-12T06:00	3429	675	3.5	-4.8	289	5
2023-09-12T06:00	3461	672	3.4	-6.6	288	5
2023-09-12T06:00	3490	670	3.3	-6.4	285	5
2023-09-12T06:00	3516	667	3.0	-6.5	281	5
2023-09-12T06:00	3549	665	2.7	-6.1	276	6
2023-09-12T06:00	3577	662	2.4	-6.0	271	6
2023-09-12T06:00	3605	660	2.2	-5.1	269	6
2023-09-12T06:00	3638	658	2.1	-6.0	269	6
2023-09-12T06:00	3665	655	2.1	-9.7	270	6
2023-09-12T06:00	3696	653	2.2	-11.3	272	6
2023-09-12T06:00	3724	650	2.0	-12.1	275	6
2023-09-12T06:00	3756	648	1.9	-13.1	276	6
2023-09-12T06:00	3782	646	1.8	-13.7	276	5
2023-09-12T06:00	3815	643	1.6	-14.0	275	5
2023-09-12T06:00	3840	641	1.5	-14.5	275	5
2023-09-12T06:00	3868	639	1.3	-14.9	274	4
2023-09-12T06:00	3895	637	1.1	-15.0	275	4
2023-09-12T06:00	3924	634	0.9	-15.3	277	4
2023-09-12T06:00	3954	632	0.6	-15.5	280	4
2023-09-12T06:00	3979	630	0.4	-15.6	284	4
2023-09-12T06:00	4007	628	0.2	-15.8	287	4
2023-09-12T06:00	4036	626	0.0	-16.1	287	4
2023-09-12T06:00	4062	624	-0.1	-16.2	286	4
2023-09-12T06:00	4090	621	-0.3	-16.3	284	4
2023-09-12T06:00	4120	619	-0.5	-16.1	280	4
2023-09-12T06:00	4150	617	-0.7	-15.7	276	4
2023-09-12T06:00	4179	615	-0.7	-16.9	271	3
2023-09-12T06:00	4208	612	-0.9	-17.0	266	3
2023-09-12T06:00	4239	610	-1.2	-17.0	262	2
2023-09-12T06:00	4267	608	-1.4	-17.3	260	2
2023-09-12T06:00	4294	606	-1.5	-18.0	261	2
2023-09-12T06:00	4324	604	-1.6	-18.1	263	2
2023-09-12T06:00	4351	601	-1.8	-18.5	264	2
2023-09-12T06:00	4380	599	-2.0	-18.9	263	3
2023-09-12T06:00	4410	597	-2.1	-18.7	262	3
2023-09-12T06:00	4440	595	-2.3	-19.1	260	3
2023-09-12T06:00	4471	592	-2.4	-19.7	259	4
2023-09-12T06:00	4499	590	-2.6	-19.0	258	4
2023-09-12T06:00	4528	588	-2.8	-19.0	257	4
2023-09-12T06:00	4559	586	-3.1	-19.0	257	4
2023-09-12T06:00	4588	584	-3.3	-19.0	257	5
2023-09-12T06:00	4617	582	-3.6	-19.0	257	5
2023-09-12T06:00	4647	579	-3.9	-19.2	257	5
2023-09-12T06:00	4676	577	-4.1	-19.2	256	5
2023-09-12T06:00	4706	575	-4.4	-19.3	256	5
2023-09-12T06:00	4736	573	-4.6	-19.0	256	5
2023-09-12T06:00	4764	571	-4.9	-18.9	255	5
2023-09-12T06:00	4798	568	-5.1	-19.2	254	5
2023-09-12T06:00	4832	566	-5.3	-19.1	252	5
2023-09-12T06:00	4864	564	-5.5	-18.9	249	5
2023-09-12T06:00	4896	561	-5.8	-17.7	246	5
2023-09-12T06:00	4929	559	-6.0	-18.6	242	5
2023-09-12T06:00	4963	556	-6.2	-18.6	239	5
2023-09-12T06:00	4996	554	-6.4	-19.1	236	5
2023-09-12T06:00	5028	552	-6.6	-19.7	236	5
2023-09-12T06:00	5062	550	-6.9	-19.7	236	5
2023-09-12T06:00	5093	547	-7.1	-19.6	238	6
2023-09-12T06:00	5121	545	-7.3	-20.0	239	6
2023-09-12T06:00	5152	543	-7.6	-20.4	241	6
2023-09-12T06:00	5183	541	-7.8	-21.0	242	6
2023-09-12T06:00	5214	539	-8.0	-21.9	243	6
2023-09-12T06:00	5246	537	-8.3	-22.3	244	6
2023-09-12T06:00	5280	534	-8.5	-22.2	245	6
2023-09-12T06:00	5311	532	-8.8	-22.5	246	6
2023-09-12T06:00	5342	530	-9.1	-22.8	247	6
2023-09-12T06:00	5375	528	-9.3	-23.1	247	6
2023-09-12T06:00	5407	526	-9.6	-23.4	247	6
2023-09-12T06:00	5441	523	-9.8	-23.5	246	6
2023-09-12T06:00	5472	521	-10.0	-21.7	245	5
2023-09-12T06:00	5505	519	-10.3	-20.4	244	5
2023-09-12T06:00	5535	517	-10.6	-20.8	242	5
2023-09-12T06:00	5567	515	-10.9	-20.9	241	5
2023-09-12T06:00	5597	513	-11.2	-21.3	240	5
2023-09-12T06:00	5631	511	-11.5	-21.6	241	5
2023-09-12T06:00	5654	509	-11.6	-21.9	243	5
2023-09-12T06:00	5681	507	-11.8	-21.7	246	5
2023-09-12T06:00	5710	505	-12.0	-21.9	247	5
2023-09-12T06:00	5742	503	-12.3	-21.1	248	5
2023-09-12T06:00	5770	501	-12.5	-20.5	247	5
2023-09-12T06:00	5800	499	-12.8	-20.5	246	5
2023-09-12T06:00	5833	497	-13.0	-21.5	243	6
2023-09-12T06:00	5864	495	-13.2	-22.7	241	6
2023-09-12T06:00	5895	493	-13.4	-24.1	239	6
2023-09-12T06:00	5919	492	-13.6	-24.0	237	6
2023-09-12T06:00	5943	490	-13.7	-24.1	235	6
2023-09-12T06:00	5971	488	-13.9	-24.3	233	7
2023-09-12T06:00	6003	486	-14.1	-24.4	231	6
2023-09-12T06:00	6033	484	-14.3	-24.5	229	6
2023-09-12T06:00	6065	482	-14.5	-24.4	226	6
2023-09-12T06:00	6094	480	-14.7	-23.4	225	5
2023-09-12T06:00	6131	478	-14.9	-23.3	224	5
2023-09-12T06:00	6163	476	-15.2	-24.0	223	5
2023-09-12T06:00	6189	474	-15.3	-24.2	222	5
2023-09-12T06:00	6214	473	-15.5	-25.1	223	5
2023-09-12T06:00	6239	471	-15.7	-25.6	223	5
2023-09-12T06:00	6268	469	-15.9	-26.3	225	6
2023-09-12T06:00	6299	467	-16.1	-27.0	228	6
2023-09-12T06:00	6334	465	-16.3	-27.3	231	6
2023-09-12T06:00	6361	464	-16.5	-27.5	234	7
2023-09-12T06:00	6390	462	-16.7	-26.9	236	7
2023-09-12T06:00	6420	460	-16.9	-26.9	238	8
2023-09-12T06:00	6454	458	-17.1	-26.7	239	8
2023-09-12T06:00	6483	456	-17.3	-27.7	240	8
2023-09-12T06:00	6508	455	-17.4	-28.3	241	8
2023-09-12T06:00	6537	453	-17.6	-28.3	241	8
2023-09-12T06:00	6562	451	-17.8	-28.4	241	8
2023-09-12T06:00	6594	450	-18.1	-28.9	242	8
2023-09-12T06:00	6630	447	-18.4	-29.6	244	8
2023-09-12T06:00	6661	445	-18.6	-30.6	246	8
2023-09-12T06:00	6698	443	-18.6	-34.8	249	8
2023-09-12T06:00	6732	441	-18.8	-34.4	251	8
2023-09-12T06:00	6765	439	-19.1	-34.6	252	8
2023-09-12T06:00	6791	438	-19.3	-35.7	252	8
2023-09-12T06:00	6820	436	-19.4	-35.4	252	8
2023-09-12T06:00	6854	434	-19.6	-35.0	252	8
2023-09-12T06:00	6883	432	-19.8	-34.4	252	8
2023-09-12T06:00	6910	431	-20.1	-33.8	254	9
2023-09-12T06:00	6937	429	-20.4	-33.3	256	9
2023-09-12T06:00	6962	428	-20.6	-33.0	258	8
2023-09-12T06:00	6992	426	-20.9	-32.7	261	8
2023-09-12T06:00	7025	424	-21.2	-33.0	263	8
2023-09-12T06:00	7050	423	-21.3	-33.5	265	8
2023-09-12T06:00	7080	421	-21.4	-35.7	266	7
2023-09-12T06:00	7116	419	-21.2	-35.2	266	7
2023-09-12T06:00	7143	417	-21.4	-35.4	265	6
2023-09-12T06:00	7173	416	-21.7	-34.3	264	6
2023-09-12T06:00	7198	414	-21.9	-33.7	263	6
2023-09-12T06:00	7224	413	-22.2	-33.0	263	6
2023-09-12T06:00	7257	411	-22.5	-32.8	264	6
2023-09-12T06:00	7282	410	-22.7	-32.9	265	6
2023-09-12T06:00	7315	408	-23.0	-32.4	267	6
2023-09-12T06:00	7338	406	-23.2	-32.1	267	6
2023-09-12T06:00	7364	405	-23.5	-32.3	268	6
2023-09-12T06:00	7397	403	-23.8	-32.1	267	6
2023-09-12T06:00	7426	402	-24.1	-32.1	266	6
2023-09-12T06:00	7458	400	-24.4	-32.1	266	6
2023-09-12T06:00	7482	399	-24.6	-32.3	266	7
2023-09-12T06:00	7507	397	-24.8	-32.6	266	7
2023-09-12T06:00	7533	396	-24.9	-31.8	265	7
2023-09-12T06:00	7564	394	-25.1	-33.1	264	8
2023-09-12T06:00	7596	392	-25.4	-32.8	263	8
2023-09-12T06:00	7621	391	-25.6	-32.2	262	8
2023-09-12T06:00	7645	390	-25.8	-32.4	260	8
2023-09-12T06:00	7672	388	-26.0	-33.8	260	8
2023-09-12T06:00	7706	386	-26.3	-33.4	259	8
2023-09-12T06:00	7744	385	-26.6	-33.0	259	9
2023-09-12T06:00	7770	383	-26.9	-33.0	259	9
2023-09-12T06:00	7797	382	-27.2	-32.5	258	9
2023-09-12T06:00	7823	380	-27.4	-32.6	257	9
2023-09-12T06:00	7845	379	-27.6	-32.9	257	8
2023-09-12T06:00	7872	378	-27.8	-33.4	257	8
2023-09-12T06:00	7895	376	-28.0	-33.9	258	8
2023-09-12T06:00	7921	375	-28.3	-34.0	259	8
2023-09-12T06:00	7953	373	-28.6	-34.4	259	8
2023-09-12T06:00	7988	372	-28.8	-35.0	260	8
2023-09-12T06:00	8018	370	-29.1	-33.8	259	8
2023-09-12T06:00	8042	369	-29.3	-33.3	258	8
2023-09-12T06:00	8067	368	-29.5	-32.8	256	7
2023-09-12T06:00	8096	366	-29.8	-32.9	255	7
2023-09-12T06:00	8129	364	-30.1	-33.3	254	7
2023-09-12T06:00	8153	363	-30.3	-33.1	254	8
2023-09-12T06:00	8174	362	-30.5	-33.2	254	8
2023-09-12T06:00	8197	361	-30.6	-33.3	254	8
2023-09-12T06:00	8227	359	-30.9	-33.5	253	8
2023-09-12T06:00	8251	358	-31.0	-34.1	253	8
2023-09-12T06:00	8276	357	-31.2	-34.3	252	8
2023-09-12T06:00	8298	356	-31.4	-34.3	252	9
2023-09-12T06:00	8322	355	-31.5	-34.4	253	9
2023-09-12T06:00	8348	353	-31.7	-34.3	253	9
2023-09-12T06:00	8380	352	-31.9	-34.7	252	9
2023-09-12T06:00	8407	350	-32.2	-35.3	250	9
2023-09-12T06:00	8438	349	-32.4	-35.3	248	9
2023-09-12T06:00	8471	347	-32.7	-35.7	246	9
2023-09-12T06:00	8501	346	-33.0	-36.0	244	9
2023-09-12T06:00	8533	344	-33.2	-36.7	245	10
2023-09-12T06:00	8565	342	-33.5	-36.8	247	10
2023-09-12T06:00	8602	341	-33.8	-36.9	250	11
2023-09-12T06:00	8625	340	-34.0	-37.7	252	11
2023-09-12T06:00	8654	338	-34.1	-40.5	254	12
2023-09-12T06:00	8681	337	-34.1	-42.7	255	12
2023-09-12T06:00	8704	336	-34.3	-42.7	256	12
2023-09-12T06:00	8730	335	-34.5	-42.4	255	12
2023-09-12T06:00	8754	333	-34.7	-42.5	254	13
2023-09-12T06:00	8780	332	-34.8	-43.1	253	13
2023-09-12T06:00	8806	331	-35.0	-43.2	251	13
2023-09-12T06:00	8836	330	-35.2	-42.7	250	14
2023-09-12T06:00	8862	328	-35.3	-41.7	250	14
2023-09-12T06:00	8887	327	-35.5	-40.9	250	14
2023-09-12T06:00	8912	326	-35.6	-40.9	251	15
2023-09-12T06:00	8937	325	-35.8	-42.1	252	15
2023-09-12T06:00	8962	324	-36.0	-41.9	252	15
2023-09-12T06:00	8984	323	-36.2	-41.6	252	15
2023-09-12T06:00	9006	322	-36.4	-41.4	252	15
2023-09-12T06:00	9028	321	-36.6	-41.6	252	15
2023-09-12T06:00	9051	319	-36.8	-41.6	252	15
2023-09-12T06:00	9079	318	-37.1	-41.4	251	14
2023-09-12T06:00	9108	317	-37.3	-41.3	251	14
2023-09-12T06:00	9138	315	-37.6	-41.3	251	14
2023-09-12T06:00	9171	314	-37.9	-41.6	251	15
2023-09-12T06:00	9206	312	-38.2	-42.1	252	15
2023-09-12T06:00	9232	311	-38.4	-42.9	252	15
2023-09-12T06:00	9257	310	-38.6	-43.4	253	15
2023-09-12T06:00	9287	309	-38.9	-43.9	254	15
2023-09-12T06:00	9317	307	-39.0	-44.6	254	15
2023-09-12T06:00	9340	306	-39.2	-44.4	254	15
2023-09-12T06:00	9362	305	-39.4	-44.3	253	14
2023-09-12T06:00	9387	304	-39.6	-44.2	253	13
2023-09-12T06:00	9414	303	-39.9	-44.4	252	13
2023-09-12T06:00	9440	302	-40.1	-44.7	251	12
2023-09-12T06:00	9460	301	-40.3	-44.9	251	12
2023-09-12T06:00	9485	300	-40.5	-44.8	250	12
2023-09-12T06:00	9506	299	-40.6	-44.4	250	12
2023-09-12T06:00	9531	298	-40.7	-44.4	250	11
2023-09-12T06:00	9557	297	-40.9	-44.6	250	11
2023-09-12T06:00	9588	295	-41.2	-44.9	250	11
2023-09-12T06:00	9616	294	-41.4	-45.0	250	11
2023-09-12T06:00	9639	293	-41.6	-45.0	250	11
2023-09-12T06:00	9665	292	-41.8	-46.0	250	11
2023-09-12T06:00	9689	291	-42.0	-46.4	250	11
2023-09-12T06:00	9713	290	-42.3	-46.6	251	11
2023-09-12T06:00	9737	289	-42.5	-46.5	250	11
2023-09-12T06:00	9765	288	-42.8	-46.3	250	11
2023-09-12T06:00	9798	286	-43.0	-46.1	249	11
2023-09-12T06:00	9827	285	-43.3	-46.5	248	11
2023-09-12T06:00	9854	284	-43.5	-46.4	247	12
2023-09-12T06:00	9877	283	-43.7	-46.3	246	12
2023-09-12T06:00	9904	282	-43.9	-46.8	246	12
2023-09-12T06:00	9929	281	-44.0	-47.1	246	12
2023-09-12T06:00	9955	280	-44.2	-47.5	247	12
2023-09-12T06:00	9984	279	-44.4	-48.2	247	13
2023-09-12T06:00	10010	277	-44.6	-48.4	248	13
2023-09-12T06:00	10036	276	-44.7	-48.4	248	13
2023-09-12T06:00	10062	275	-44.9	-48.6	248	13
2023-09-12T06:00	10089	274	-45.2	-48.8	247	13
2023-09-12T06:00	10116	273	-45.5	-48.9	247	13
2023-09-12T06:00	10140	272	-45.7	-48.9	246	13
2023-09-12T06:00	10164	271	-45.9	-48.9	246	13
2023-09-12T06:00	10187	270	-46.1	-49.0	245	13
2023-09-12T06:00	10210	269	-46.4	-49.2	245	13
2023-09-12T06:00	10231	268	-46.5	-49.4	244	13
2023-09-12T06:00	10254	268	-46.8	-49.7	244	13
2023-09-12T06:00	10276	267	-47.0	-49.9	243	13
2023-09-12T06:00	10299	266	-47.2	-49.9	243	13
2023-09-12T06:00	10323	265	-47.4	-50.1	243	13
2023-09-12T06:00	10349	264	-47.6	-50.6	243	13
2023-09-12T06:00	10376	263	-47.7	-51.2	243	13
2023-09-12T06:00	10402	262	-47.9	-52.1	244	13
2023-09-12T06:00	10428	261	-48.1	-52.8	244	13
2023-09-12T06:00	10451	260	-48.3	-53.4	245	14
2023-09-12T06:00	10476	259	-48.4	-53.7	246	14
2023-09-12T06:00	10499	258	-48.6	-53.7	246	14
2023-09-12T06:00	10525	257	-48.8	-53.8	246	14
2023-09-12T06:00	10547	256	-49.0	-54.0	245	15
2023-09-12T06:00	10572	255	-49.1	-54.0	245	15
2023-09-12T06:00	10600	254	-49.4	-54.1	244	15
2023-09-12T06:00	10630	253	-49.6	-54.2	243	15
2023-09-12T06:00	10655	252	-49.7	-54.3	242	15
2023-09-12T06:00	10680	251	-49.9	-54.2	241	16
2023-09-12T06:00	10707	250	-50.1	-54.2	240	16
2023-09-12T06:00	10727	249	-50.2	-54.4	239	15
2023-09-12T06:00	10748	248	-50.4	-54.9	239	15
2023-09-12T06:00	10772	247	-50.5	-55.1	239	16
2023-09-12T06:00	10793	246	-50.7	-55.2	239	16
2023-09-12T06:00	10815	246	-50.9	-55.2	238	16
2023-09-12T06:00	10836	245	-51.0	-55.1	238	16
2023-09-12T06:00	10857	244	-51.2	-55.2	237	16
2023-09-12T06:00	10878	243	-51.4	-55.4	237	16
2023-09-12T06:00	10899	242	-51.6	-55.5	237	16
2023-09-12T06:00	10922	242	-51.7	-55.6	237	16
2023-09-12T06:00	10942	241	-51.9	-55.9	237	16
2023-09-12T06:00	10964	240	-52.1	-56.1	237	16
2023-09-12T06:00	10991	239	-52.3	-56.3	238	16
2023-09-12T06:00	11013	238	-52.5	-56.5	239	17
2023-09-12T06:00	11035	237	-52.7	-56.6	239	17
2023-09-12T06:00	11058	237	-52.8	-56.7	240	17
2023-09-12T06:00	11081	236	-53.0	-56.8	241	17
2023-09-12T06:00	11104	235	-53.2	-57.1	241	17
2023-09-12T06:00	11128	234	-53.3	-57.5	241	17
2023-09-12T06:00	11154	233	-53.5	-58.0	242	17
2023-09-12T06:00	11178	232	-53.5	-58.2	242	17
2023-09-12T06:00	11207	231	-53.7	-58.2	242	17
2023-09-12T06:00	11239	230	-53.9	-58.1	242	17
2023-09-12T06:00	11271	229	-54.2	-58.3	242	17
2023-09-12T06:00	11297	228	-54.4	-58.5	242	17
2023-09-12T06:00	11324	227	-54.7	-58.7	242	17
2023-09-12T06:00	11351	226	-54.9	-58.8	241	17
2023-09-12T06:00	11374	225	-55.1	-58.8	241	17
2023-09-12T06:00	11396	224	-55.1	-58.7	240	17
2023-09-12T06:00	11418	224	-55.3	-58.8	240	17
2023-09-12T06:00	11439	223	-55.4	-58.9	239	17
2023-09-12T06:00	11462	222	-55.6	-59.2	239	17
2023-09-12T06:00	11484	221	-55.7	-59.3	239	17
2023-09-12T06:00	11504	221	-55.8	-59.4	239	18
2023-09-12T06:00	11525	220	-56.0	-59.5	239	18
2023-09-12T06:00	11546	219	-56.2	-59.6	240	18
2023-09-12T06:00	11566	218	-56.4	-59.8	240	18
2023-09-12T06:00	11589	218	-56.5	-59.8	241	18
2023-09-12T06:00	11608	217	-56.6	-60.0	242	18
2023-09-12T06:00	11630	216	-56.7	-60.3	244	17
2023-09-12T06:00	11651	216	-56.8	-60.9	246	17
2023-09-12T06:00	11673	215	-56.8	-61.5	247	17
2023-09-12T06:00	11696	214	-56.9	-62.0	248	17
2023-09-12T06:00	11719	213	-57.1	-62.4	249	16
2023-09-12T06:00	11742	213	-57.2	-62.6	249	16
2023-09-12T06:00	11763	212	-57.3	-62.9	249	16
2023-09-12T06:00	11788	211	-57.2	-63.1	249	16
2023-09-12T06:00	11812	210	-57.1	-63.5	248	16
2023-09-12T06:00	11835	209	-57.1	-63.8	248	15
2023-09-12T06:00	11860	209	-57.1	-64.0	247	15
2023-09-12T06:00	11886	208	-57.1	-64.1	246	15
2023-09-12T06:00	11913	207	-57.2	-64.2	246	15
2023-09-12T06:00	11940	206	-57.4	-64.4	247	15
2023-09-12T06:00	11966	205	-57.4	-64.5	248	15
2023-09-12T06:00	11994	204	-57.6	-65.0	250	15
2023-09-12T06:00	12019	203	-57.4	-65.2	252	14
2023-09-12T06:00	12042	203	-57.3	-65.6	253	14
2023-09-12T06:00	12063	202	-57.2	-66.0	253	14
2023-09-12T06:00	12084	201	-57.1	-66.6	252	14
2023-09-12T06:00	12105	201	-57.0	-67.4	252	13
2023-09-12T06:00	12127	200	-56.6	-68.0	251	13
2023-09-12T06:00	12152	199	-56.5	-68.6	251	13
2023-09-12T06:00	12172	199	-56.5	-68.8	251	12
2023-09-12T06:00	12193	198	-56.7	-68.9	251	12
2023-09-12T06:00	12217	197	-56.9	-68.8	251	12
2023-09-12T06:00	12240	196	-57.0	-68.7	251	11
2023-09-12T06:00	12262	196	-57.1	-68.8	251	11
2023-09-12T06:00	12285	195	-57.1	-69.0	250	10
2023-09-12T06:00	12306	194	-57.1	-69.2	249	9
2023-09-12T06:00	12327	194	-57.2	-69.4	248	9
2023-09-12T06:00	12350	193	-57.4	-69.6	246	9
2023-09-12T06:00	12373	192	-57.4	-69.5	245	8
2023-09-12T06:00	12392	192	-57.3	-69.3	244	8
2023-09-12T06:00	12414	191	-57.4	-69.4	242	8
2023-09-12T06:00	12435	190	-57.5	-69.5	241	8
2023-09-12T06:00	12455	190	-57.7	-69.8	240	8
2023-09-12T06:00	12477	189	-57.9	-70.0	239	9
2023-09-12T06:00	12498	189	-58.0	-70.2	238	9
2023-09-12T06:00	12520	188	-58.2	-70.3	237	9
2023-09-12T06:00	12542	187	-58.3	-70.3	236	9
2023-09-12T06:00	12563	187	-58.4	-70.3	235	9
2023-09-12T06:00	12582	186	-58.5	-70.4	235	10
2023-09-12T06:00	12604	185	-58.7	-70.7	236	10
2023-09-12T06:00	12624	185	-58.8	-70.8	238	10
2023-09-12T06:00	12646	184	-59.0	-70.9	239	10
2023-09-12T06:00	12665	184	-59.0	-70.9	241	11
2023-09-12T06:00	12691	183	-59.1	-70.9	243	11
2023-09-12T06:00	12713	182	-59.1	-70.9	244	11
2023-09-12T06:00	12735	182	-59.1	-71.0	245	11
2023-09-12T06:00	12757	181	-59.0	-71.1	246	11
2023-09-12T06:00	12777	180	-59.1	-71.4	246	11
2023-09-12T06:00	12800	180	-59.1	-71.8	246	11
2023-09-12T06:00	12823	179	-59.0	-72.2	246	11
2023-09-12T06:00	12845	178	-59.0	-72.7	245	12
2023-09-12T06:00	12870	178	-59.0	-73.3	244	12
2023-09-12T06:00	12891	177	-58.9	-73.7	243	12
2023-09-12T06:00	12915	176	-58.7	-73.8	242	13
2023-09-12T06:00	12934	176	-58.8	-74.0	241	13
2023-09-12T06:00	12958	175	-58.7	-74.0	240	13
2023-09-12T06:00	12979	175	-58.6	-74.3	239	14
2023-09-12T06:00	13002	174	-58.6	-74.7	239	14
2023-09-12T06:00	13021	173	-58.6	-74.9	240	14
2023-09-12T06:00	13043	173	-58.7	-75.1	241	14
2023-09-12T06:00	13064	172	-58.6	-75.2	243	14
2023-09-12T06:00	13085	172	-58.6	-75.3	245	14
2023-09-12T06:00	13106	171	-58.7	-75.4	246	14
2023-09-12T06:00	13126	171	-58.8	-75.6	246	14
2023-09-12T06:00	13147	170	-58.7	-75.5	247	13
2023-09-12T06:00	13170	169	-58.7	-75.6	247	13
2023-09-12T06:00	13191	169	-58.7	-75.6	247	12
2023-09-12T06:00	13211	168	-58.3	-75.5	247	12
2023-09-12T06:00	13234	168	-58.3	-75.7	246	12
2023-09-12T06:00	13255	167	-58.2	-75.8	245	11
2023-09-12T06:00	13275	167	-58.1	-75.9	243	11
2023-09-12T06:00	13295	166	-58.1	-76.0	242	11
2023-09-12T06:00	13318	166	-58.3	-76.2	242	11
2023-09-12T06:00	13340	165	-58.4	-76.3	244	12
2023-09-12T06:00	13361	164	-58.6	-76.6	247	12
2023-09-12T06:00	13385	164	-58.7	-76.7	250	13
2023-09-12T06:00	13411	163	-58.7	-76.9	253	13
2023-09-12T06:00	13432	162	-58.5	-77.0	256	13
2023-09-12T06:00	13454	162	-58.2	-77.0	259	13
2023-09-12T06:00	13476	161	-58.1	-77.1	262	14
2023-09-12T06:00	13497	161	-58.2	-77.3	265	13
2023-09-12T06:00	13516	160	-58.3	-77.4	269	13
2023-09-12T06:00	13544	160	-58.3	-77.5	272	14
2023-09-12T06:00	13569	159	-58.4	-77.7	275	14
2023-09-12T06:00	13594	158	-58.2	-77.7	277	14
2023-09-12T06:00	13617	158	-58.4	-78.0	278	14
2023-09-12T06:00	13643	157	-58.5	-78.0	280	14
2023-09-12T06:00	13669	157	-58.8	-78.2	282	14
2023-09-12T06:00	13694	156	-59.0	-78.2	283	13
2023-09-12T06:00	13720	155	-59.1	-78.3	285	13
2023-09-12T06:00	13744	155	-59.3	-78.4	286	13
2023-09-12T06:00	13767	154	-59.5	-78.6	286	12
2023-09-12T06:00	13790	153	-59.6	-78.6	285	11
2023-09-12T06:00	13824	153	-59.7	-78.9	283	10
2023-09-12T06:00	13852	152	-59.3	-78.7	281	10
2023-09-12T06:00	13881	151	-59.3	-78.8	278	9
2023-09-12T06:00	13910	151	-59.5		275	9
2023-09-12T06:00	13942	150	-59.6	-79.1	272	8
2023-09-12T06:00	13968	149	-59.9	-79.2	269	8
2023-09-12T06:00	13997	148	-60.2	-79.3	266	9
2023-09-12T06:00	14021	148	-60.4	-79.3	263	9
2023-09-12T06:00	14049	147	-60.6	-79.4	261	9
2023-09-12T06:00	14071	147	-60.8	-79.5	259	9
2023-09-12T06:00	14096	146	-60.9	-79.7	259	10
2023-09-12T06:00	14116	146	-60.9	-80.1	259	10
2023-09-12T06:00	14136	145	-60.7	-80.5	261	10
2023-09-12T06:00	14160	145	-60.4	-80.8	262	10
2023-09-12T06:00	14181	144	-60.3	-81.1	264	11
2023-09-12T06:00	14203	144	-60.1	-81.1	266	11
2023-09-12T06:00	14224	143	-60.0	-81.1	268	10
2023-09-12T06:00	14247	143	-60.0	-81.1	271	10
2023-09-12T06:00	14269	142	-59.9	-81.2	273	10
2023-09-12T06:00	14291	142	-59.7	-81.2	276	9
2023-09-12T06:00	14311	141	-59.8	-81.4	278	9
2023-09-12T06:00	14334	141	-59.8	-81.4	280	8
2023-09-12T06:00	14354	140	-59.8	-81.6	282	7
2023-09-12T06:00	14378	140	-59.7	-81.8	284	6
2023-09-12T06:00	14401	139	-59.6	-81.9	285	6
2023-09-12T06:00	14423	139	-59.5	-82.0	284	5
2023-09-12T06:00	14444	138	-59.6	-82.1	282	5
2023-09-12T06:00	14469	138	-59.7	-82.3	278	5
2023-09-12T06:00	14491	137	-59.6	-82.3	273	5
2023-09-12T06:00	14514	137	-59.7	-82.3	269	5
2023-09-12T06:00	14535	136	-59.7	-82.3	266	6
2023-09-12T06:00	14558	136	-59.7	-82.3	264	6
2023-09-12T06:00	14581	135	-59.8	-82.6	264	7
2023-09-12T06:00	14604	135	-59.8	-82.6	264	7
2023-09-12T06:00	14626	134	-59.9	-82.7	266	7
2023-09-12T06:00	14649	134	-60.0	-82.8	267	8
2023-09-12T06:00	14671	133	-60.0	-82.8	269	8
2023-09-12T06:00	14693	133	-59.7	-82.7	271	7
2023-09-12T06:00	14717	132	-59.6	-82.8	273	7
2023-09-12T06:00	14740	132	-59.6	-82.8	275	7
2023-09-12T06:00	14763	131	-59.6	-83.0	276	7
2023-09-12T06:00	14787	131	-59.6	-83.0	277	7
2023-09-12T06:00	14810	130	-59.6	-83.2	277	6
2023-09-12T06:00	14831	130	-59.4		276	6
2023-09-12T06:00	14857	129	-59.4		274	5
2023-09-12T06:00	14878	129	-59.5	-83.1	273	5
2023-09-12T06:00	14902	128	-59.6	-83.2	271	5
2023-09-12T06:00	14925	128	-59.6	-83.2	269	5
2023-09-12T06:00	14950	128	-59.7	-83.5	267	5
2023-09-12T06:00	14972	127	-59.8	-83.6	262	4
2023-09-12T06:00	14996	127	-59.6	-83.4	257	4
2023-09-12T06:00	15020	126	-59.5	-83.4	252	4
2023-09-12T06:00	15043	126	-59.6	-83.4	247	4
2023-09-12T06:00	15064	125	-59.8	-83.4	244	4
2023-09-12T06:00	15088	125	-60.0	-83.5	241	5
2023-09-12T06:00	15111	124	-60.2	-83.5	240	5
2023-09-12T06:00	15134	124	-60.4	-83.7	239	6
2023-09-12T06:00	15157	123	-60.5	-83.5	239	6
2023-09-12T06:00	15181	123	-60.7	-83.7	241	7
2023-09-12T06:00	15202	122	-60.8	-83.8	243	7
2023-09-12T06:00	15224	122	-60.9	-83.9	246	8
2023-09-12T06:00	15249	122	-60.9	-83.9	249	8
2023-09-12T06:00	15269	121	-60.7	-83.9	253	9
2023-09-12T06:00	15293	121	-60.5	-83.7	257	9
2023-09-12T06:00	15317	120	-60.4	-83.9	260	9
2023-09-12T06:00	15337	120	-60.5	-83.9	264	9
2023-09-12T06:00	15358	119	-60.4	-84.1	268	9
2023-09-12T06:00	15382	119	-60.3	-84.0	272	9
2023-09-12T06:00	15405	119	-60.3	-84.0	276	9
2023-09-12T06:00	15427	118	-60.2	-84.1	280	8
2023-09-12T06:00	15449	118	-59.8	-83.8	283	8
2023-09-12T06:00	15472	117	-59.6	-83.9	285	8
2023-09-12T06:00	15493	117	-59.6	-83.9	286	8
2023-09-12T06:00	15515	116	-59.5	-83.8	287	8
2023-09-12T06:00	15536	116	-59.5	-84.1	288	7
2023-09-12T06:00	15555	116	-59.4	-84.0	288	7
2023-09-12T06:00	15579	115	-59.3	-83.9	290	7
2023-09-12T06:00	15602	115	-59.1	-83.7	291	7
2023-09-12T06:00	15624	114	-59.1	-83.7	292	7
2023-09-12T06:00	15644	114	-59.1	-83.7	294	7
2023-09-12T06:00	15667	114	-59.2	-83.8	296	7
2023-09-12T06:00	15687	113	-59.2	-83.8	298	6
2023-09-12T06:00	15708	113	-59.1	-83.7	300	6
2023-09-12T06:00	15728	113	-59.2	-83.8	301	6
2023-09-12T06:00	15752	112	-59.3	-83.9	301	5
2023-09-12T06:00	15773	112	-59.4	-84.0	299	5
2023-09-12T06:00	15795	111	-59.5	-84.1	295	5
2023-09-12T06:00	15818	111	-59.7	-84.2	290	5
2023-09-12T06:00	15839	111	-59.8	-84.1	286	5
2023-09-12T06:00	15861	110	-59.9	-84.1	282	5
2023-09-12T06:00	15882	110	-60.0	-84.2	279	5
2023-09-12T06:00	15906	109	-60.0	-84.2	277	5
2023-09-12T06:00	15929	109	-60.1	-84.3	276	5
2023-09-12T06:00	15950	109	-60.2	-84.4	274	6
2023-09-12T06:00	15972	108	-60.2	-84.1	273	6
2023-09-12T06:00	15995	108	-60.3	-84.2	272	7
2023-09-12T06:00	16017	107	-60.3	-84.4	272	7
2023-09-12T06:00	16041	107	-60.3	-84.4	271	7
2023-09-12T06:00	16067	107	-60.4	-84.5	272	7
2023-09-12T06:00	16087	106	-60.5	-84.6	273	7
2023-09-12T06:00	16113	106	-60.4	-84.8	274	7
2023-09-12T06:00	16137	105	-60.2	-84.6	275	6
2023-09-12T06:00	16160	105	-60.1	-84.5	277	6
2023-09-12T06:00	16186	105	-60.0	-84.7	278	6
2023-09-12T06:00	16208	104	-60.0	-84.7	280	6
2023-09-12T06:00	16232	104	-59.7	-84.7	281	6
2023-09-12T06:00	16258	103	-59.6	-84.6	281	6
2023-09-12T06:00	16283	103	-59.6	-84.6	279	6
2023-09-12T06:00	16304	103	-59.7	-84.7	278	6
2023-09-12T06:00	16331	102	-59.7	-84.5	276	6
2023-09-12T06:00	16354	102	-59.8	-84.5	276	6
2023-09-12T06:00	16381	101	-60.0	-84.7	278	6
2023-09-12T06:00	16404	101	-60.2	-84.8	282	6
2023-09-12T06:00	16429	101	-59.8	-84.5	286	6
2023-09-12T06:00	16452	100	-59.5	-84.6	289	6
2023-09-12T06:00	16474	100	-59.4	-84.5	288	6
2023-09-12T06:00	16503	99	-59.2	-84.3	284	6
2023-09-12T06:00	16526	99	-59.3	-84.4	278	6
2023-09-12T06:00	16551	99	-59.5	-84.6	272	7
2023-09-12T06:00	16572	98	-59.7	-84.5	267	7
2023-09-12T06:00	16597	98	-59.7	-84.5	265	7
2023-09-12T06:00	16622	98	-59.7	-84.5	266	7
2023-09-12T06:00	16643	97	-59.7	-84.5	269	8
2023-09-12T06:00	16667	97	-59.8	-84.5	272	8
2023-09-12T06:00	16690	96	-59.7	-84.7	276	8
2023-09-12T06:00	16714	96	-59.6	-84.6	279	8
2023-09-12T06:00	16737	96	-59.5	-84.6	282	8
2023-09-12T06:00	16759	95	-59.6	-84.6	286	8
2023-09-12T06:00	16786	95	-59.7	-84.7	289	8
2023-09-12T06:00	16808	95	-59.6	-84.9	293	8
2023-09-12T06:00	16833	94	-59.6	-84.9	298	7
2023-09-12T06:00	16853	94	-59.4	-85.0	303	7
2023-09-12T06:00	16876	94	-59.3	-85.0	309	7
2023-09-12T06:00	16902	93	-59.1	-85.1	313	6
2023-09-12T06:00	16925	93	-58.9	-85.3	318	5
2023-09-12T06:00	16945	93	-58.7	-85.4	321	5
2023-09-12T06:00	16969	92	-58.3	-85.1	324	4
2023-09-12T06:00	16993	92	-57.9	-85.2	326	3
2023-09-12T06:00	17018	92	-57.7	-85.0	328	2
2023-09-12T06:00	17040	91	-57.9	-85.5	328	2
2023-09-12T06:00	17066	91	-58.1	-85.3	325	1
2023-09-12T06:00	17089	91	-58.1	-85.3	313	1
2023-09-12T06:00	17112	90	-58.2	-85.4	289	1
2023-09-12T06:00	17140	90	-58.3	-85.5	266	1
2023-09-12T06:00	17159	90	-58.2	-85.8	252	2
2023-09-12T06:00	17185	89	-58.0	-85.6	246	2
2023-09-12T06:00	17207	89	-58.0	-85.6	244	2
2023-09-12T06:00	17230	89	-58.2	-85.4	246	3
2023-09-12T06:00	17253	88	-58.3	-85.5	249	3
2023-09-12T06:00	17276	88	-58.5	-85.6	253	3
2023-09-12T06:00	17298	88	-58.6	-85.7	258	3
2023-09-12T06:00	17320	87	-58.4	-85.9	263	3
2023-09-12T06:00	17347	87	-58.2	-85.8	267	3
2023-09-12T06:00	17371	87	-58.3	-85.8	269	3
2023-09-12T06:00	17392	86	-58.4	-85.9	270	4
2023-09-12T06:00	17414	86	-58.4	-85.9	271	4
2023-09-12T06:00	17441	86	-58.3	-85.8	271	4
2023-09-12T06:00	17465	85	-58.1	-85.7	272	4
2023-09-12T06:00	17488	85	-58.1		274	5
2023-09-12T06:00	17513	85	-58.1		275	5
2023-09-12T06:00	17536	84	-58.2	-86.2	275	6
2023-09-12T06:00	17560	84	-58.2	-86.2	276	7
2023-09-12T06:00	17588	84	-58.1	-85.7	277	7
2023-09-12T06:00	17610	83	-58.2	-85.8	278	7
2023-09-12T06:00	17635	83	-58.3	-85.8	281	8
2023-09-12T06:00	17657	83	-58.3	-85.8	284	8
2023-09-12T06:00	17684	82	-58.3	-85.8	288	8
2023-09-12T06:00	17707	82	-58.2	-86.2	292	8
2023-09-12T06:00	17733	82	-58.2	-86.2	296	8
2023-09-12T06:00	17757	81	-58.2	-86.2	300	8
2023-09-12T06:00	17781	81	-58.2	-86.2	302	8
2023-09-12T06:00	17805	81	-58.3	-86.2	305	8
2023-09-12T06:00	17827	81	-58.2	-86.2	307	8
2023-09-12T06:00	17853	80	-58.3	-86.2	309	8
2023-09-12T06:00	17876	80	-58.4	-86.3	311	8
2023-09-12T06:00	17901	80	-58.1		314	7
2023-09-12T06:00	17928	79	-58.2	-86.2	317	7
2023-09-12T06:00	17952	79	-58.4	-86.3	320	6
2023-09-12T06:00	17977	79	-58.5	-86.0	324	6
2023-09-12T06:00	18002	78	-58.6	-86.1	329	6
2023-09-12T06:00	18025	78	-58.7	-86.1	334	5
2023-09-12T06:00	18051	78	-58.8	-86.2	340	5
2023-09-12T06:00	18072	77	-58.8	-86.2	345	5
2023-09-12T06:00	18096	77	-58.8	-86.2	350	5
2023-09-12T06:00	18121	77	-59.0	-86.4	354	4
2023-09-12T06:00	18145	77	-59.0	-86.4	359	4
2023-09-12T06:00	18171	76	-59.0	-86.4	3	4
2023-09-12T06:00	18194	76	-59.0	-86.4	6	4
2023-09-12T06:00	18221	76	-59.1	-86.5	5	3
2023-09-12T06:00	18245	75	-59.2	-86.5	2	3
2023-09-12T06:00	18271	75	-59.3	-86.6	358	2
2023-09-12T06:00	18291	75	-59.4	-86.7	354	2
2023-09-12T06:00	18318	74	-59.3	-86.6	354	2
2023-09-12T06:00	18339	74	-59.2	-86.9	357	1
2023-09-12T06:00	18364	74	-59.0	-86.8	359	1
2023-09-12T06:00	18387	74	-59.1	-86.8	333	0
2023-09-12T06:00	18411	73	-59.2	-86.9	253	1
2023-09-12T06:00	18434	73	-59.2	-86.5	240	1
2023-09-12T06:00	18456	73	-59.3	-86.6	237	2
2023-09-12T06:00	18481	73	-59.4	-86.7	235	2
2023-09-12T06:00	18505	72	-59.5	-86.8	234	3
2023-09-12T06:00	18529	72	-59.5	-87.1	232	3
2023-09-12T06:00	18552	72	-59.2	-86.9	232	3
2023-09-12T06:00	18576	71	-58.9	-86.7	232	3
2023-09-12T06:00	18596	71	-58.8	-86.6	232	3
2023-09-12T06:00	18621	71	-58.8	-86.6	232	3
2023-09-12T06:00	18645	71	-58.8	-86.6	232	4
2023-09-12T06:00	18667	70	-58.9	-86.7	231	4
2023-09-12T06:00	18691	70	-59.0	-86.8	230	4
2023-09-12T06:00	18714	70	-59.1	-86.8	231	4
2023-09-12T06:00	18735	70	-59.1	-86.8	234	4
2023-09-12T06:00	18756	69	-58.9	-86.7	239	4
2023-09-12T06:00	18781	69	-58.9	-86.7	245	4
2023-09-12T06:00	18800	69	-59.0	-86.8	252	4
2023-09-12T06:00	18823	69	-58.8	-86.6	256	4
2023-09-12T06:00	18846	68	-58.7	-87.0	259	4
2023-09-12T06:00	18868	68	-58.6	-86.9	260	4
2023-09-12T06:00	18891	68	-58.5	-86.8	260	5
2023-09-12T06:00	18915	68	-58.4	-86.7	261	5
2023-09-12T06:00	18939	67	-58.5	-86.8	262	6
2023-09-12T06:00	18958	67	-58.5	-86.8	265	6
2023-09-12T06:00	18985	67	-58.5	-86.8	269	6
2023-09-12T06:00	19009	67	-58.5	-86.8	273	6
2023-09-12T06:00	19035	66	-58.5	-86.8	279	6
2023-09-12T06:00	19056	66	-58.3	-86.7	285	5
2023-09-12T06:00	19081	66	-58.2	-86.6	290	5
2023-09-12T06:00	19101	66	-58.1	-86.5	296	5
2023-09-12T06:00	19124	65	-58.0	-86.4	300	6
2023-09-12T06:00	19152	65	-58.1	-86.5	305	6
2023-09-12T06:00	19173	65	-58.1	-86.5	309	6
2023-09-12T06:00	19200	65	-58.1	-86.5	312	6
2023-09-12T06:00	19221	64	-58.1	-86.5	313	6
2023-09-12T06:00	19246	64	-58.0	-86.4	314	6
2023-09-12T06:00	19270	64	-58.1	-86.5	314	6
2023-09-12T06:00	19295	64	-58.3	-86.7	315	6
2023-09-12T06:00	19320	63	-58.4	-86.7	318	6
2023-09-12T06:00	19346	63	-58.3	-86.7	323	6
2023-09-12T06:00	19377	63	-58.2	-86.6	330	5
2023-09-12T06:00	19403	63	-58.0	-86.4	337	5
2023-09-12T06:00	19422	62	-57.9	-86.8	344	6
2023-09-12T06:00	19445	62	-57.9	-86.8	349	6
2023-09-12T06:00	19469	62	-58.0	-86.9	354	6
2023-09-12T06:00	19491	62	-57.9	-86.8	359	5
2023-09-12T06:00	19516	62	-57.8	-86.7	3	5
2023-09-12T06:00	19540	61	-57.8	-86.3	7	5
2023-09-12T06:00	19564	61	-57.8	-86.3	12	4
2023-09-12T06:00	19590	61	-57.8	-86.3	17	4
2023-09-12T06:00	19615	61	-57.9	-86.4	23	3
2023-09-12T06:00	19642	60	-58.1	-86.5	28	3
2023-09-12T06:00	19660	60	-58.2	-86.6	34	2
2023-09-12T06:00	19683	60	-58.3	-86.7	37	2
2023-09-12T06:00	19705	60	-58.4	-86.7	36	2
2023-09-12T06:00	19731	59	-58.6	-86.9	27	1
2023-09-12T06:00	19755	59	-58.6	-86.9	6	1
2023-09-12T06:00	19781	59	-58.6	-86.9	342	1
2023-09-12T06:00	19805	59	-58.5	-86.8	325	2
2023-09-12T06:00	19827	59	-58.5	-86.8	314	2
2023-09-12T06:00	19853	58	-58.5	-86.8	307	2
2023-09-12T06:00	19875	58	-58.4	-86.7	300	2
2023-09-12T06:00	19902	58	-58.4	-86.7	295	2
2023-09-12T06:00	19924	58	-58.4	-86.7	292	2
2023-09-12T06:00	19948	57	-58.4	-86.7	291	2
2023-09-12T06:00	19975	57	-58.5	-86.8	293	2
2023-09-12T06:00	19995	57	-58.5	-87.3	295	2
2023-09-12T06:00	20019	57	-58.4	-87.2	296	2
2023-09-12T06:00	20042	57	-58.3	-87.1	295	2
2023-09-12T06:00	20066	56	-58.2	-87.0	290	2
2023-09-12T06:00	20094	56	-58.0	-86.9	282	2
2023-09-12T06:00	20114	56	-57.9	-86.8	273	2
2023-09-12T06:00	20138	56	-57.9	-86.8	268	2
2023-09-12T06:00	20162	56	-58.1	-87.0	267	2
2023-09-12T06:00	20189	55	-58.2	-87.0	270	2
2023-09-12T06:00	20214	55	-58.0	-86.9	277	2
2023-09-12T06:00	20237	55	-57.9	-86.8	292	1
2023-09-12T06:00	20262	55	-57.9	-86.8	320	1
2023-09-12T06:00	20286	54	-57.7	-86.7	356	1
2023-09-12T06:00	20307	54	-57.5	-86.5	23	1
2023-09-12T06:00	20335	54	-57.5	-86.5	41	1
2023-09-12T06:00	20361	54	-57.6	-86.6	57	1
2023-09-12T06:00	20390	54	-57.8	-86.7	70	1
2023-09-12T06:00	20413	53	-57.8	-86.7	80	2
2023-09-12T06:00	20437	53	-57.7	-86.7	88	2
2023-09-12T06:00	20464	53	-57.7	-86.7	95	2
2023-09-12T06:00	20488	53	-57.8	-86.7	104	1
2023-09-12T06:00	20515	53	-57.8	-86.7	120	1
2023-09-12T06:00	20536	52	-57.8	-86.7	155	1
2023-09-12T06:00	20562	52	-57.8	-86.7	203	1
2023-09-12T06:00	20590	52	-57.7	-86.7	231	2
2023-09-12T06:00	20615	52	-57.6	-86.6	246	2
2023-09-12T06:00	20644	51	-57.7	-86.7	256	3
2023-09-12T06:00	20668	51	-57.7	-86.7	264	4
2023-09-12T06:00	20694	51	-57.6	-87.1	271	4
2023-09-12T06:00	20718	51	-57.5	-87.0	280	5
2023-09-12T06:00	20745	51	-57.3	-86.9	289	5
2023-09-12T06:00	20768	50	-57.1	-86.7	298	5
2023-09-12T06:00	20799	50	-57.0	-86.6	306	6
2023-09-12T06:00	20820	50	-56.8	-87.0	313	6
2023-09-12T06:00	20847	50	-56.6	-86.9	320	6
2023-09-12T06:00	20872	50	-56.5	-86.8	326	6
2023-09-12T06:00	20900	49	-56.5	-86.8	331	6
2023-09-12T06:00	20924	49	-56.4		337	6
2023-09-12T06:00	20953	49	-56.4		341	6
2023-09-12T06:00	20974	49	-56.3	-86.1	346	6
2023-09-12T06:00	20996	49	-56.3	-86.1	350	6
2023-09-12T06:00	21022	48	-56.4	-86.2	355	5
2023-09-12T06:00	21051	48	-56.5	-86.3	3	5
2023-09-12T06:00	21079	48	-56.7	-86.4	12	4
2023-09-12T06:00	21102	48	-56.8	-86.5	23	4
2023-09-12T06:00	21129	48	-56.9	-86.6	35	4
2023-09-12T06:00	21155	47	-56.9	-86.6	46	4
2023-09-12T06:00	21178	47	-56.8	-86.5	56	3
2023-09-12T06:00	21205	47	-56.6	-86.3	64	3
2023-09-12T06:00	21226	47	-56.6	-86.3	71	3
2023-09-12T06:00	21255	47	-56.5	-86.3	76	3
2023-09-12T06:00	21276	47	-56.5	-86.3	80	3
2023-09-12T06:00	21304	46	-56.5	-86.3	81	2
2023-09-12T06:00	21329	46	-56.4		80	1
2023-09-12T06:00	21354	46	-56.3	-86.6	75	1
2023-09-12T06:00	21379	46	-56.2	-86.6	60	0
2023-09-12T06:00	21403	46	-56.1	-86.0	317	0
2023-09-12T06:00	21429	45	-56.3	-86.1	287	1
2023-09-12T06:00	21456	45	-56.5	-86.3	288	1
2023-09-12T06:00	21479	45	-56.8	-86.5	298	1
2023-09-12T06:00	21507	45	-56.9	-86.6	309	1
2023-09-12T06:00	21532	45	-56.8	-86.5	320	1
2023-09-12T06:00	21559	45	-56.6	-86.3	330	1
2023-09-12T06:00	21577	44	-56.4	-86.2	342	1
2023-09-12T06:00	21607	44	-56.3	-86.6	357	1
2023-09-12T06:00	21632	44	-56.3	-86.6	23	1
2023-09-12T06:00	21657	44	-56.4	-86.2	56	1
2023-09-12T06:00	21689	44	-56.7	-86.4	88	1
2023-09-12T06:00	21711	43	-56.7	-86.4	111	1
2023-09-12T06:00	21738	43	-56.8	-86.5	129	2
2023-09-12T06:00	21763	43	-57.0	-86.6	144	2
2023-09-12T06:00	21786	43	-57.0	-86.6	156	2
2023-09-12T06:00	21818	43	-57.0	-86.6	168	2
2023-09-12T06:00	21840	43	-56.8	-86.5	178	2
2023-09-12T06:00	21864	42	-56.6	-86.3	185	2
2023-09-12T06:00	21890	42	-56.5	-86.8	190	3
2023-09-12T06:00	21913	42	-56.4		192	3
2023-09-12T06:00	21942	42	-56.5	-86.8	194	4
2023-09-12T06:00	21966	42	-56.5	-86.8	196	4
2023-09-12T06:00	21992	42	-56.7	-86.4	199	4
2023-09-12T06:00	22019	41	-56.7	-86.4	202	5
2023-09-12T06:00	22044	41	-56.9	-86.6	205	5
2023-09-12T06:00	22073	41	-56.9	-86.6	208	5
2023-09-12T06:00	22102	41	-56.9	-86.6	210	5
2023-09-12T06:00	22128	41	-57.0	-86.6	213	4
2023-09-12T06:00	22156	41	-57.0	-86.6	215	4
2023-09-12T06:00	22179	40	-57.0	-86.6	220	4
2023-09-12T06:00	22204	40	-56.8	-86.5	225	4
2023-09-12T06:00	22233	40	-56.7	-86.9	229	4
2023-09-12T06:00	22255	40	-56.5	-86.8	231	4
2023-09-12T06:00	22282	40	-56.3	-86.6	232	4
2023-09-12T06:00	22310	40	-56.1	-86.5	232	5
2023-09-12T06:00	22340	39	-56.2	-86.6	233	5
2023-09-12T06:00	22362	39	-56.3	-86.6	236	5
2023-09-12T06:00	22387	39	-56.3	-86.6	240	5
2023-09-12T06:00	22418	39	-56.1	-86.5	246	5
2023-09-12T06:00	22443	39	-56.1	-86.5	250	5
2023-09-12T06:00	22474	39	-56.2	-86.6	254	5
2023-09-12T06:00	22496	38	-56.3	-86.6	256	5
2023-09-12T06:00	22525	38	-56.3	-86.1	257	5
2023-09-12T06:00	22547	38	-56.3	-86.1	258	4
2023-09-12T06:00	22575	38	-56.3	-86.1	259	4
2023-09-12T06:00	22597	38	-56.3	-86.1	262	3
2023-09-12T06:00	22624	38	-56.4	-86.2	264	3
2023-09-12T06:00	22646	38	-56.5	-86.3	266	3
2023-09-12T06:00	22675	37	-56.5	-86.3	265	3
2023-09-12T06:00	22704	37	-56.4	-86.2	262	3
2023-09-12T06:00	22731	37	-56.4	-86.2	258	3
2023-09-12T06:00	22755	37	-56.5	-86.3	256	4
2023-09-12T06:00	22784	37	-56.6	-86.3	256	4
2023-09-12T06:00	22810	37	-56.7	-86.4	257	4
2023-09-12T06:00	22837	36	-56.8	-86.5	259	4
2023-09-12T06:00	22864	36	-56.9	-86.6	263	4
2023-09-12T06:00	22889	36	-56.8	-86.5	267	4
2023-09-12T06:00	22913	36	-56.8	-86.5	274	4
2023-09-12T06:00	22943	36	-56.7	-86.4	282	4
2023-09-12T06:00	22973	36	-56.7	-86.4	291	3
2023-09-12T06:00	22996	36	-56.8	-86.5	302	4
2023-09-12T06:00	23023	35	-56.9	-86.6	313	4
2023-09-12T06:00	23049	35	-56.9	-87.1	323	4
2023-09-12T06:00	23078	35	-56.9	-87.1	332	4
2023-09-12T06:00	23106	35	-56.7	-86.9	341	4
2023-09-12T06:00	23131	35	-56.3	-86.6	350	4
2023-09-12T06:00	23157	35	-56.1	-86.5	358	4
2023-09-12T06:00	23189	34	-56.1	-87.1	7	4
2023-09-12T06:00	23205	34	-56.0	-87.0	16	4
2023-09-12T06:00	23234	34	-55.8	-86.9	25	4
2023-09-12T06:00	23255	34	-55.6	-86.7	35	4
2023-09-12T06:00	23288	34	-55.6	-86.1	47	4
2023-09-12T06:00	23322	34	-55.7	-86.2	59	4
2023-09-12T06:00	23343	34	-55.7	-86.2	70	4
2023-09-12T06:00	23375	33	-55.8	-86.3	80	4
2023-09-12T06:00	23398	33	-55.8	-86.3	89	4
2023-09-12T06:00	23426	33	-55.7	-86.2	97	3
2023-09-12T06:00	23454	33	-55.6	-86.1	106	3
2023-09-12T06:00	23483	33	-55.8	-86.3	118	3
2023-09-12T06:00	23516	33	-55.9	-86.3	131	3
2023-09-12T06:00	23544	33	-56.0	-86.4	145	3
2023-09-12T06:00	23570	32	-56.1	-86.5	158	3
2023-09-12T06:00	23602	32	-56.1	-86.5	167	3
2023-09-12T06:00	23626	32	-56.2	-86.0	173	3
2023-09-12T06:00	23648	32	-56.3	-86.1	176	4
2023-09-12T06:00	23686	32	-56.4	-86.2	178	4
2023-09-12T06:00	23711	32	-56.6	-86.3	180	4
2023-09-12T06:00	23739	32	-56.4	-86.2	182	3
2023-09-12T06:00	23772	31	-56.6	-86.3	186	3
2023-09-12T06:00	23799	31	-56.7	-86.9	193	3
2023-09-12T06:00	23825	31	-56.5	-86.8	203	3
2023-09-12T06:00	23853	31	-56.4		215	2
2023-09-12T06:00	23880	31	-56.5	-86.8	228	2
2023-09-12T06:00	23912	31	-56.7	-86.9	240	3
2023-09-12T06:00	23940	31	-56.8	-86.5	251	3
2023-09-12T06:00	23964	30	-56.8	-86.5	260	3
2023-09-12T06:00	23994	30	-56.9	-86.6	267	4
2023-09-12T06:00	24028	30	-56.9	-86.6	274	4
2023-09-12T06:00	24051	30	-57.1	-86.7	280	4
2023-09-12T06:00	24080	30	-57.0	-86.6	287	5
2023-09-12T06:00	24112	30	-57.0	-87.2	294	5
2023-09-12T06:00	24136	30	-57.0	-87.2	301	4
2023-09-12T06:00	24165	30	-56.7	-86.9	308	4
2023-09-12T06:00	24191	29	-56.5	-86.8	315	4
2023-09-12T06:00	24225	29	-56.3	-86.6	321	4
2023-09-12T06:00	24249	29	-56.3	-86.6	326	4
2023-09-12T06:00	24274	29	-56.2	-86.6	330	3
2023-09-12T06:00	24308	29	-56.3	-86.6	332	3
2023-09-12T06:00	24338	29	-56.1	-86.5	334	3
2023-09-12T06:00	24364	29	-56.1	-86.5	338	3
2023-09-12T06:00	24391	29	-56.1	-86.5	345	3
2023-09-12T06:00	24418	28	-56.0	-86.4	355	3
2023-09-12T06:00	24442	28	-56.0	-86.4	7	3
2023-09-12T06:00	24469	28	-56.1	-86.5	22	2
2023-09-12T06:00	24499	28	-56.3	-86.6	39	2
2023-09-12T06:00	24533	28	-56.5	-86.8	56	2
2023-09-12T06:00	24556	28	-56.5	-86.8	71	2
2023-09-12T06:00	24581	28	-56.4		83	2
2023-09-12T06:00	24608	28	-56.3	-86.6	92	2
2023-09-12T06:00	24628	27	-56.4		99	1
2023-09-12T06:00	24657	27	-56.5	-86.8	102	1
2023-09-12T06:00	24681	27	-56.5	-86.8	100	1
2023-09-12T06:00	24716	27	-56.5	-86.8	90	1
2023-09-12T06:00	24735	27	-56.5	-86.8	72	1
2023-09-12T06:00	24770	27	-56.6	-86.9	55	1
2023-09-12T06:00	24795	27	-56.6	-86.9	44	1
2023-09-12T06:00	24820	27	-56.4		43	1
2023-09-12T06:00	24847	27	-56.2	-86.6	52	1
2023-09-12T06:00	24874	26	-56.3	-86.6	68	1
2023-09-12T06:00	24901	26	-56.3	-87.2	84	2
2023-09-12T06:00	24925	26	-56.1	-87.1	95	2
2023-09-12T06:00	24949	26	-56.0	-87.0	102	2
2023-09-12T06:00	24975	26	-55.8	-86.9	107	3
2023-09-12T06:00	25005	26	-55.6	-86.7	111	3
2023-09-12T06:00	25037	26	-55.4	-86.6	117	3
2023-09-12T06:00	25058	26	-55.4	-86.6	124	3
2023-09-12T06:00	25084	26	-55.2	-87.1	132	3
2023-09-12T06:00	25117	25	-54.9	-86.9	140	3
2023-09-12T06:00	25145	25	-54.7	-86.7	146	4
2023-09-12T06:00	25169	25	-54.3	-86.4	150	4
2023-09-12T06:00	25200	25	-53.6	-86.7	154	4
2023-09-12T06:00	25230	25	-53.2	-86.4	158	3
2023-09-12T06:00	25254	25	-53.1	-86.3	164	3
2023-09-12T06:00	25274	25	-53.1	-85.6	173	2
2023-09-12T06:00	25304	25	-53.2	-85.6	191	1
2023-09-12T06:00	25329	25	-53.3	-85.7	219	1
2023-09-12T06:00	25359	24	-53.4	-85.8	250	1
2023-09-12T06:00	25384	24	-53.3	-85.7	272	1
2023-09-12T06:00	25412	24	-53.3	-85.7	292	1
2023-09-12T06:00	25444	24	-53.2	-85.6	320	1
2023-09-12T06:00	25475	24	-53.1	-85.6	353	1
2023-09-12T06:00	25501	24	-52.9	-85.4	20	2
2023-09-12T06:00	25536	24	-52.7	-85.3	38	2
2023-09-12T06:00	25565	24	-52.6	-85.2	50	3
2023-09-12T06:00	25587	24	-52.6	-85.2	59	3
2023-09-12T06:00	25614	24	-52.4	-85.1	67	4
2023-09-12T06:00	25645	23	-52.1	-85.6	74	4
2023-09-12T06:00	25670	23	-51.9	-85.5	79	4
2023-09-12T06:00	25700	23	-51.8	-85.4	84	5
2023-09-12T06:00	25727	23	-51.7	-85.3	89	5
2023-09-12T06:00	25754	23	-51.6	-85.2	94	5
2023-09-12T06:00	25782	23	-51.7	-85.3	99	6
2023-09-12T06:00	25819	23	-51.7	-85.3	104	6
2023-09-12T06:00	25849	23	-51.6	-85.2	109	6
2023-09-12T06:00	25865	23	-51.4	-85.1	115	6
2023-09-12T06:00	25897	23	-51.3	-85.0	123	6
2023-09-12T06:00	25926	22	-51.2	-85.0	133	5
2023-09-12T06:00	25963	22	-51.1	-84.9	147	5
2023-09-12T06:00	25985	22	-51.1	-84.9	163	4
2023-09-12T06:00	26020	22	-51.0	-84.8	179	4
2023-09-12T06:00	26043	22	-50.9	-84.7	194	4
2023-09-12T06:00	26076	22	-50.9	-84.7	206	4
2023-09-12T06:00	26102	22	-51.0	-84.8	217	4
2023-09-12T06:00	26122	22	-51.2	-84.2	228	4
2023-09-12T06:00	26156	22	-51.4	-84.3	240	4
2023-09-12T06:00	26191	22	-51.6	-84.5	254	3
2023-09-12T06:00	26218	21	-51.6	-84.5	268	3
2023-09-12T06:00	26246	21	-51.5	-84.4	280	4
2023-09-12T06:00	26275	21	-51.4	-85.1	288	4
2023-09-12T06:00	26303	21	-51.2	-85.0	294	3
2023-09-12T06:00	26334	21	-50.8	-84.7	298	3
2023-09-12T06:00	26358	21	-50.5	-84.5	303	3
2023-09-12T06:00	26386	21	-50.5	-84.5	308	2
2023-09-12T06:00	26422	21	-50.4	-84.4	315	2
2023-09-12T06:00	26446	21	-50.2	-84.2	321	1
2023-09-12T06:00	26469	21	-50.2	-84.2	325	1
2023-09-12T06:00	26504	21	-50.3	-84.3	327	1
2023-09-12T06:00	26530	20	-50.4	-84.4	326	1
2023-09-12T06:00	26562	20	-50.5	-84.5	322	1
2023-09-12T06:00	26585	20	-50.5	-84.5	316	1
2023-09-12T06:00	26618	20	-50.6	-84.5	309	1
2023-09-12T06:00	26644	20	-50.7	-84.6	299	1
2023-09-12T06:00	26676	20	-50.8	-83.9	285	1
2023-09-12T06:00	26693	20	-50.9	-84.0	267	1
2023-09-12T06:00	26728	20	-51.1	-84.1	251	1
2023-09-12T06:00	26752	20	-51.3	-84.3	241	2
2023-09-12T06:00	26784	20	-51.4	-84.3	239	2
2023-09-12T06:00	26819	20	-51.4	-84.3	240	2
2023-09-12T06:00	26846	20	-51.4	-84.3	241	3
2023-09-12T06:00	26875	19	-51.3	-85.0	240	3
2023-09-12T06:00	26891	19	-51.3	-85.0	237	3
2023-09-12T06:00	26931	19	-51.1	-84.9	232	4
2023-09-12T06:00	26955	19	-50.9	-84.7	227	4
2023-09-12T06:00	26982	19	-50.8	-84.7	222	5
2023-09-12T06:00	27020	19	-50.8	-84.7	218	5
2023-09-12T06:00	27054	19	-50.8	-84.7	215	6
2023-09-12T06:00	27061	19	-50.9	-84.7	214	6
2023-09-12T06:00	27110	19	-50.9	-84.7	214	6
2023-09-12T06:00	27134	19	-50.8	-84.7	216	7
2023-09-12T06:00	27164	19	-50.7	-84.6	218	7
2023-09-12T06:00	27187	19	-50.8	-84.7	221	7
2023-09-12T06:00	27216	18	-50.7	-84.6	223	8
2023-09-12T06:00	27238	18	-50.7	-84.6	224	8
2023-09-12T06:00	27282	18	-50.8	-84.7	225	8
2023-09-12T06:00	27302	18	-50.8	-84.7	226	7
2023-09-12T06:00	27332	18	-50.7	-84.6	227	7
2023-09-12T06:00	27364	18	-50.7	-84.6	227	7
2023-09-12T06:00	27402	18	-50.6	-84.5	229	7
2023-09-12T06:00	27422	18	-50.3	-84.3	232	7
2023-09-12T06:00	27448	18	-50.0	-85.0	236	7
2023-09-12T06:00	27489	18	-49.7	-84.8	242	7
2023-09-12T06:00	27516	18	-49.6	-84.7	248	7
2023-09-12T06:00	27546	18	-49.5	-84.6	254	8
2023-09-12T06:00	27579	17	-49.6	-83.8	259	8
2023-09-12T06:00	27612	17	-49.7	-83.9	263	8
2023-09-12T06:00	27642	17	-49.7	-83.9	265	8
2023-09-12T06:00	27668	17	-49.8	-84.0	265	7
2023-09-12T06:00	27702	17	-49.9	-84.0	264	7
2023-09-12T06:00	27729	17	-50.1	-84.2	261	7
2023-09-12T06:00	27753	17	-50.2	-84.2	258	7
2023-09-12T06:00	27790	17	-50.3	-84.3	253	6
2023-09-12T06:00	27822	17	-50.4	-84.4	248	6
2023-09-12T06:00	27854	17	-50.5	-84.5	244	6
2023-09-12T06:00	27871	17	-50.5	-84.5	242	6
2023-09-12T06:00	27903	17	-50.5	-84.5	241	6
2023-09-12T06:00	27933	17	-50.6	-84.5	243	6
2023-09-12T06:00	27966	16	-50.5	-84.5	246	6
2023-09-12T06:00	28007	16	-50.4	-84.4	250	5
2023-09-12T06:00	28030	16	-50.2	-84.2	254	5
2023-09-12T06:00	28056	16	-50.0	-84.1	257	5
2023-09-12T06:00	28078	16	-49.9	-84.9	258	5
2023-09-12T06:00	28105	16	-49.8	-84.8	257	5
2023-09-12T06:00	28148	16	-49.8	-84.8	254	4
2023-09-12T06:00	28182	16	-49.7	-84.8	250	4
2023-09-12T06:00	28203	16	-49.6	-84.7	248	4
2023-09-12T06:00	28229	16	-49.5	-84.6	247	4
2023-09-12T06:00	28264	16	-49.3	-84.5	248	5
2023-09-12T06:00	28295	16	-49.2	-84.4	251	4
2023-09-12T06:00	28318	16	-49.1	-84.3	253	4
2023-09-12T06:00	28356	15	-49.1	-84.3	253	4
2023-09-12T06:00	28373	15	-49.2	-84.4	250	4
2023-09-12T06:00	28411	15	-49.1	-84.3	242	4
2023-09-12T06:00	28437	15	-49.1	-84.3	232	4
2023-09-12T06:00	28473	15	-49.1	-84.3	223	4
2023-09-12T06:00	28495	15	-49.1	-84.3	217	5
2023-09-12T06:00	28532	15	-49.1	-84.3	213	6
2023-09-12T06:00	28541	15	-49.0	-84.3	213	6
2023-09-12T06:00	28575	15	-48.8	-84.1	214	7
2023-09-12T06:00	28601	15	-48.6		218	8
2023-09-12T06:00	28643	15	-48.5	-83.9	221	8
2023-09-12T06:00	28666	15	-48.4	-83.8	226	9
2023-09-12T06:00	28688	15	-48.2	-83.7	230	9
2023-09-12T06:00	28710	15	-47.9	-83.5	235	9
2023-09-12T06:00	28751	15	-47.6	-83.3	241	9
2023-09-12T06:00	28774	15	-47.7	-83.4	247	9
2023-09-12T06:00	28796	14	-47.6	-83.3	253	8
2023-09-12T06:00	28832	14	-47.3	-83.1	259	7
2023-09-12T06:00	28857	14	-47.1	-82.9	263	7
2023-09-12T06:00	28891	14	-47.2	-83.0	264	7
2023-09-12T06:00	28923	14	-47.3	-83.1	264	7
2023-09-12T06:00	28936	14	-47.3	-83.1	262	8
2023-09-12T06:00	28971	14	-47.2	-83.0	261	8
2023-09-12T06:00	29007	14	-47.0	-83.9	260	9
2023-09-12T06:00	29021	14	-46.9	-83.9	261	10
2023-09-12T06:00	29046	14	-46.5	-83.6	263	11
2023-09-12T06:00	29093	14	-46.2	-83.4	264	12
2023-09-12T06:00	29111	14	-46.0	-83.2	266	12
2023-09-12T06:00	29140	14	-46.0	-83.2	268	11
2023-09-12T06:00	29188	14	-46.1	-83.3	270	11
2023-09-12T06:00	29221	14	-46.2	-83.4	273	10
2023-09-12T06:00	29241	14	-46.2	-83.4	276	10
2023-09-12T06:00	29276	13	-46.3	-82.4	280	10
2023-09-12T06:00	29286	13	-46.4	-82.4	284	10
2023-09-12T06:00	29334	13	-46.5	-82.5	288	10
2023-09-12T06:00	29359	13	-46.6	-82.6	290	11
2023-09-12T06:00	29385	13	-46.5	-82.5	292	11
2023-09-12T06:00	29411	13	-46.4	-82.4	293	11
2023-09-12T06:00	29444	13	-46.4	-83.5	294	11
2023-09-12T06:00	29476	13	-46.4	-83.5	295	11
2023-09-12T06:00	29498	13	-46.4	-83.5	295	11
2023-09-12T06:00	29531	13	-46.4	-83.5	295	10
2023-09-12T06:00	29572	13	-46.5	-82.5	296	10
2023-09-12T06:00	29601	13	-46.6	-82.6	297	9
2023-09-12T06:00	29624	13	-46.6	-82.6	298	8
2023-09-12T06:00	29657	13	-46.6	-82.6	299	8
2023-09-12T06:00	29679	13	-46.6	-82.6	298	7
2023-09-12T06:00	29706	13	-46.7	-82.6	296	7
2023-09-12T06:00	29748	13	-46.7	-82.6	291	7
2023-09-12T06:00	29782	12	-46.7	-82.6	285	6
2023-09-12T06:00	29821	12	-46.6	-82.6	279	6
2023-09-12T06:00	29852	12	-46.6	-83.6	273	6
2023-09-12T06:00	29867	12	-46.6	-83.6	269	6
2023-09-12T06:00	29905	12	-46.4	-83.5	266	6
2023-09-12T06:00	29944	12	-46.2	-83.4	266	6
2023-09-12T06:00	29945	12	-46.0	-83.2	270	6
2023-09-12T06:00	30001	12	-45.8	-83.1	277	6
2023-09-12T06:00	30037	12	-45.6	-82.9	285	6
2023-09-12T06:00	30066	12	-45.4	-82.8	292	6
2023-09-12T06:00	30087	12	-45.3	-82.7	296	6
2023-09-12T06:00	30119	12	-45.3	-82.7	298	7
2023-09-12T06:00	30129	12	-45.3	-82.7	298	7
2023-09-12T06:00	30174	12	-45.5	-82.9	297	7
2023-09-12T06:00	30200	12	-45.6	-82.9	296	7
2023-09-12T06:00	30229	12	-45.7	-83.0	295	7
2023-09-12T06:00	30267	12	-45.8	-83.1	294	7
2023-09-12T06:00	30288	12	-45.8	-83.1	292	7
2023-09-12T06:00	30300	12	-45.7	-83.0	291	6
2023-09-12T06:00	30340	11	-45.6	-82.9	289	5
2023-09-12T06:00	30366	11	-45.4	-82.8	287	4
2023-09-12T06:00	30396	11	-45.3	-82.7	285	4
2023-09-12T06:00	30446	11	-45.5	-82.9	282	3
2023-09-12T06:00	30467	11	-45.6	-82.9	279	2
2023-09-12T06:00	30490	11	-45.6	-82.9	277	2
2023-09-12T06:00	30515	11	-45.4	-82.8	278	2
2023-09-12T06:00	30546	11	-45.3	-82.7	282	2
2023-09-12T06:00	30577	11	-45.2	-82.7	285	2
2023-09-12T06:00	30597	11	-45.3	-82.7	284	2
2023-09-12T06:00	30637	11	-45.3	-82.7	280	2
2023-09-12T06:00	30660	11	-45.2	-82.7	272	2
2023-09-12T06:00	30690	11	-45.1	-82.6	263	2
2023-09-12T06:00	30715	11	-45.1	-82.6	255	2
2023-09-12T06:00	30750	11	-45.1	-82.6	250	2
2023-09-12T06:00	30780	11	-45.0	-82.5	250	3
2023-09-12T06:00	30789	11	-45.0	-82.5	252	3
2023-09-12T06:00	30827	11	-45.1	-82.6	256	3
2023-09-12T06:00	30870	11	-45.2	-82.7	262	3
2023-09-12T06:00	30872	11	-45.3	-82.7	269	3
2023-09-12T06:00	30923	11	-45.3	-82.7	276	4
2023-09-12T06:00	30945	10	-45.3	-82.7	282	4
2023-09-12T06:00	30971	10	-45.3	-82.7	285	5
2023-09-12T06:00	31022	10	-45.2	-82.7	286	5
2023-09-12T06:00	31041	10	-44.9	-82.5	285	5
2023-09-12T06:00	31070	10	-44.7	-82.3	281	5
2023-09-12T06:00	31102	10	-44.6	-82.2	274	4
2023-09-12T06:00	31117	10	-44.6	-82.2	263	4
2023-09-12T06:00	31164	10	-44.6	-82.2	249	4
2023-09-12T06:00	31181	10	-44.4	-82.1	235	4
2023-09-12T06:00	31209	10	-44.4	-82.1	225	4
2023-09-12T06:00	31238	10	-44.5	-82.2	220	4
2023-09-12T06:00	31269	10	-44.4	-82.1	218	5
2023-09-12T06:00	31283	10	-44.2	-82.0	219	5
2023-09-12T06:00	31329	10	-44.0	-81.8	220	6
2023-09-12T06:00	31371	10	-44.0	-81.8	220	6
2023-09-12T06:00	31385	10	-44.1	-81.9	221	7
2023-09-12T06:00	31405	10	-44.2	-82.0	222	7
2023-09-12T06:00	31456	10	-44.2	-82.0	224	8
2023-09-12T06:00	31474	10	-44.0	-81.8	227	9
2023-09-12T06:00	31514	10	-43.9	-81.8	229	9
2023-09-12T06:00	31524	10	-44.0	-81.8	231	10
2023-09-12T06:00	31581	10	-44.1	-81.9	233	11
2023-09-12T06:00	31603	10	-44.1	-81.9	234	11
2023-09-12T06:00	31626	9	-44.1	-81.9	235	11
2023-09-12T06:00	31666	9	-44.0	-81.8	238	11
2023-09-12T06:00	31698	9	-43.7	-81.6	241	11
2023-09-12T06:00	31726	9	-43.6	-81.5	245	11
2023-09-12T06:00	31749	9	-43.5	-81.5	249	11
2023-09-12T06:00	31767	9	-43.4	-81.4	253	11
2023-09-12T06:00	31805	9	-43.3	-81.3	258	11
2023-09-12T06:00	31840	9	-43.2	-81.3	261	11
2023-09-12T06:00	31852	9	-43.1	-81.2	264	11
2023-09-12T06:00	31897	9	-43.0	-81.1	266	11
2023-09-12T06:00	31948	9	-43.0	-81.1	268	10
2023-09-12T06:00	31990	9	-42.6	-80.8	269	8
2023-09-12T06:00	32012	9	-42.5	-80.8	269	8
2023-09-12T06:00	32041	9	-42.6	-80.8	268	7
2023-09-12T06:00	32073	9	-42.5	-80.8	267	6
2023-09-12T06:00	32094	9	-42.1	-80.5	265	6
2023-09-12T06:00	32131	9	-41.9	-80.4	262	6
2023-09-12T06:00	32159	9	-41.7	-80.2	260	6
2023-09-12T06:00	32166	9	-41.6	-80.1	259	6
2023-09-12T06:00	32225	9	-41.5	-80.1	260	7
2023-09-12T06:00	32230	9	-41.3	-79.9	261	7
2023-09-12T06:00	32253	9	-41.1	-79.8	262	7
2023-09-12T06:00	32289	9	-41.1	-79.8	262	7
2023-09-12T06:00	32320	9	-41.1	-79.8	261	7
2023-09-12T06:00	32329	9	-41.1	-79.8	259	7
2023-09-12T06:00	32374	9	-41.1	-79.8	255	7
2023-09-12T06:00	32390	8	-41.1	-79.8	252	8
2023-09-12T06:00	32435	8	-41.1	-79.8	246	10
2023-09-12T06:00	32460	8	-40.9	-79.7	246	10
2023-09-12T06:00	32502	8	-40.8	-79.6	246	11
2023-09-12T06:00	32522	8	-40.7	-79.5	247	12
2023-09-12T06:00	32539	8	-40.7	-79.5	248	12
2023-09-12T06:00	32559	8	-40.7	-79.5	250	13
2023-09-12T06:00	32595	8	-40.6	-79.5	253	13
2023-09-12T06:00	32632	8	-40.5	-79.4	256	13
2023-09-12T06:00	32674	8	-40.1	-79.1	265	12
2023-09-12T06:00	32713	8	-39.7	-78.8	270	12
2023-09-12T06:00	32733	8	-39.5	-78.7	276	11
2023-09-12T06:00	32769	8	-39.3	-78.5	282	11
2023-09-12T06:00	32788	8	-39.2	-78.5	288	11
2023-09-12T06:00	32818	8	-39.1	-78.4	293	12
2023-09-12T06:00	32845	8	-38.9	-78.3	296	12
2023-09-12T06:00	32885	8	-38.8	-78.2	300	11
2023-09-12T06:00	32902	8	-38.8	-78.2	303	11
2023-09-12T06:00	32945	8	-38.9	-78.3	306	11
2023-09-12T06:00	32971	8	-39.0	-78.3	310	10
2023-09-12T06:00	33023	8	-39.0	-78.3	317	9
2023-09-12T06:00	33043	8	-39.1	-78.4	321	9
2023-09-12T06:00	33087	8	-38.9	-78.3	324	8
2023-09-12T06:00	33108	8	-38.8	-78.2	324	7
2023-09-12T06:00	33164	8	-38.6	-78.1	316	6
2023-09-12T06:00	33198	8	-38.5	-78.0	308	6
2023-09-12T06:00	33256	7	-38.4	-77.9	299	5
2023-09-12T06:00	33311	7	-38.5	-78.0	283	5
2023-09-12T06:00	33314	7	-38.5	-78.0	276	5
2023-09-12T06:00	33380	7	-38.5	-78.0	268	4
2023-09-12T06:00	33401	7	-38.6	-78.1	260	4
2023-09-12T06:00	33434	7	-38.6	-78.1	251	4
2023-09-12T06:00	33469	7	-38.5	-78.0	241	3
2023-09-12T06:00	33489	7	-38.7	-78.1	232	3
2023-09-12T06:00	33547	7	-38.9	-78.3	223	3
2023-09-12T06:00	33580	7	-39.1	-78.4	216	4
2023-09-12T06:00	33597	7	-39.3	-78.5	212	4
2023-09-12T06:00	33629	7	-39.5	-78.7	210	5
2023-09-12T06:00	33656	7	-39.6	-78.8	209	5
2023-09-12T06:00	33697	7	-39.6	-78.8	208	6
2023-09-12T06:00	33742	7	-39.7	-78.8	208	6
2023-09-12T06:00	33761	7	-39.6	-78.8	207	7
2023-09-12T06:00	33784	7	-39.5	-78.7	207	7
2023-09-12T06:00	33840	7	-39.5	-78.7	208	6
2023-09-12T06:00	33842	7	-39.5	-78.7	210	6
2023-09-12T06:00	33868	7	-39.5	-78.7	214	6
2023-09-12T06:00	33909	7	-39.5	-78.7	217	6
2023-09-12T06:00	33920	7	-39.4	-78.6	222	5
2023-09-12T06:00	33975	7	-39.4	-78.6	226	5
2023-09-12T06:00	33998	7	-39.4	-78.6	231	4
2023-09-12T06:00	34014	7	-39.4	-78.6	235	4
2023-09-12T06:00	34055	7	-39.4	-78.6	238	4
2023-09-12T06:00	34065	7	-39.4	-78.6	238	4
2023-09-12T06:00	34117	7	-39.2	-78.5	235	4
2023-09-12T06:00	34129	7	-39.0	-78.3	231	4
2023-09-12T06:00	34165	7	-38.6	-78.1	227	5
2023-09-12T12:00	-999					
2023-09-12T12:00	136	997	27.6	13.4	313	1
2023-09-12T12:00	162	994	26.9	12.4	300	1
2023-09-12T12:00	187	991	26.8	12.6	289	1
2023-09-12T12:00	223	987	26.4	12.5	278	1
2023-09-12T12:00	260	983	26.0	12.5	273	1
2023-09-12T12:00	298	979	25.5	12.3	279	1
2023-09-12T12:00	335	975	25.0	12.2	291	1
2023-09-12T12:00	372	971	24.8	12.2	301	2
2023-09-12T12:00	401	968	24.4	12.2	304	2
2023-09-12T12:00	433	964	24.0	12.0	302	2
2023-09-12T12:00	466	960	23.8	12.1	294	2
2023-09-12T12:00	497	957	23.5	12.1	279	2
2023-09-12T12:00	529	954	23.2	11.6	249	1
2023-09-12T12:00	548	951	22.9	10.8	212	1
2023-09-12T12:00	566	949	22.7	11.1	196	2
2023-09-12T12:00	585	947	22.6	10.8	198	2
2023-09-12T12:00	602	945	22.5	10.5	215	2
2023-09-12T12:00	623	943	22.3	10.5	241	2
2023-09-12T12:00	641	941	22.1	10.3	269	2
2023-09-12T12:00	661	939	21.9	10.4	289	3
2023-09-12T12:00	681	937	21.7	10.2	301	4
2023-09-12T12:00	699	935	21.5	11.0	309	4
2023-09-12T12:00	717	933	21.4	10.0	313	4
2023-09-12T12:00	736	931	21.2	10.0	316	3
2023-09-12T12:00	758	928	21.0	10.8	319	3
2023-09-12T12:00	789	925	20.7	10.0	324	2
2023-09-12T12:00	816	922	20.5	10.0	334	2
2023-09-12T12:00	837	920	20.4	10.1	344	2
2023-09-12T12:00	871	917	20.0	10.1	349	2
2023-09-12T12:00	894	914	19.8	9.9	351	2
2023-09-12T12:00	919	911	19.6	10.0	352	2
2023-09-12T12:00	945	909	19.4	9.9	351	2
2023-09-12T12:00	968	906	19.1	9.9	345	1
2023-09-12T12:00	994	903	18.9	9.8	329	1
2023-09-12T12:00	1018	901	18.7	9.7	309	1
2023-09-12T12:00	1038	899	18.5	9.7	298	1
2023-09-12T12:00	1062	896	18.3	9.6	294	2
2023-09-12T12:00	1086	894	18.1	9.3	295	2
2023-09-12T12:00	1113	891	17.9	8.9	298	2
2023-09-12T12:00	1140	888	17.6	8.7	303	3
2023-09-12T12:00	1170	885	17.4	8.6	308	3
2023-09-12T12:00	1192	883	17.2	8.4	312	3
2023-09-12T12:00	1212	881	17.0	8.3	313	3
2023-09-12T12:00	1231	879	16.8	8.1	310	3
2023-09-12T12:00	1253	877	16.6	8.0	301	2
2023-09-12T12:00	1276	874	16.5	7.8	289	2
2023-09-12T12:00	1297	872	16.3	7.8	279	2
2023-09-12T12:00	1319	870	16.1	8.2	273	3
2023-09-12T12:00	1350	867	15.7	8.4	270	3
2023-09-12T12:00	1376	864	15.5	8.4	269	3
2023-09-12T12:00	1402	861	15.2	8.4	270	3
2023-09-12T12:00	1433	858	14.9	8.2	271	3
2023-09-12T12:00	1458	856	14.7	8.1	272	4
2023-09-12T12:00	1484	853	14.5	8.2	272	4
2023-09-12T12:00	1504	851	14.3	8.3	272	4
2023-09-12T12:00	1524	849	14.1	8.3	273	4
2023-09-12T12:00	1548	847	13.9	8.0	276	4
2023-09-12T12:00	1574	844	13.7	7.8	284	3
2023-09-12T12:00	1606	841	13.5	6.9	302	2
2023-09-12T12:00	1643	837	13.3	5.6	328	2
2023-09-12T12:00	1666	835	13.2	5.3	342	2
2023-09-12T12:00	1691	832	13.4	2.3	341	2
2023-09-12T12:00	1713	830	13.4	1.9	333	3
2023-09-12T12:00	1733	828	13.3	1.1	326	3
2023-09-12T12:00	1758	826	13.3	0.0	324	3
2023-09-12T12:00	1782	823	13.4	-3.6	328	3
2023-09-12T12:00	1804	821	13.4	-4.1	334	4
2023-09-12T12:00	1822	819	13.4	-4.9	339	4
2023-09-12T12:00	1841	818	13.4	-6.0	340	4
2023-09-12T12:00	1863	816	13.3	-6.6	337	4
2023-09-12T12:00	1886	813	13.2	-6.6	328	4
2023-09-12T12:00	1910	811	13.1	-6.2	316	4
2023-09-12T12:00	1930	809	12.9	-6.3	304	4
2023-09-12T12:00	1951	807	12.8	-6.7	296	4
2023-09-12T12:00	1971	805	12.7	-6.6	292	5
2023-09-12T12:00	1994	803	12.6	-6.3	294	5
2023-09-12T12:00	2011	801	12.5	-5.6	298	6
2023-09-12T12:00	2038	799	12.5	-4.6	303	6
2023-09-12T12:00	2062	796	12.5	-5.2	307	7
2023-09-12T12:00	2082	794	12.5	-2.3	309	6
2023-09-12T12:00	2100	793	12.4	-1.6	309	6
2023-09-12T12:00	2126	790	12.3	-1.7	305	5
2023-09-12T12:00	2151	788	12.2	-2.9	299	4
2023-09-12T12:00	2169	786	12.1	-3.2	290	3
2023-09-12T12:00	2198	784	11.9	-4.0	279	2
2023-09-12T12:00	2221	781	11.7	-4.0	267	2
2023-09-12T12:00	2251	779	11.6	-4.4	255	1
2023-09-12T12:00	2276	776	11.5	-3.2	245	1
2023-09-12T12:00	2308	773	11.3	-1.8	236	1
2023-09-12T12:00	2334	771	11.1	-1.5	226	1
2023-09-12T12:00	2362	768	10.8	-1.6	213	1
2023-09-12T12:00	2398	765	10.5	-1.2	204	1
2023-09-12T12:00	2420	763	10.2	-1.2	202	1
2023-09-12T12:00	2445	761	10.0	-1.1	205	2
2023-09-12T12:00	2468	759	9.8	-1.1	212	2
2023-09-12T12:00	2491	757	9.6	-1.3	221	2
2023-09-12T12:00	2513	754	9.4	-1.9	229	2
2023-09-12T12:00	2540	752	9.2	-2.2	232	2
2023-09-12T12:00	2558	750	9.1	-3.6	223	1
2023-09-12T12:00	2586	748	9.0	-3.5	197	1
2023-09-12T12:00	2614	745	9.0	-5.9	165	2
2023-09-12T12:00	2638	743	8.9	-6.1	147	2
2023-09-12T12:00	2665	741	8.7	-6.6	139	3
2023-09-12T12:00	2689	739	8.5	-5.4	135	3
2023-09-12T12:00	2713	737	8.4	-6.2	133	3
2023-09-12T12:00	2732	735	8.3	-5.8	132	3
2023-09-12T12:00	2757	733	7.9	-1.2	131	3
2023-09-12T12:00	2788	730	7.7	-2.9	131	2
2023-09-12T12:00	2811	728	7.5		133	1
2023-09-12T12:00	2831	726	7.4	-4.2	147	1
2023-09-12T12:00	2850	724	7.3	-1.5	181	1
2023-09-12T12:00	2875	722	7.1	-1.4	192	1
2023-09-12T12:00	2894	720	6.9	-1.3	189	2
2023-09-12T12:00	2917	718	6.7	-1.1	186	2
2023-09-12T12:00	2941	716	6.5	-1.2	185	3
2023-09-12T12:00	2961	715	6.3	-1.0	186	3
2023-09-12T12:00	2984	713	6.2	-1.0	188	3
2023-09-12T12:00	3009	711	6.0	-1.2	189	3
2023-09-12T12:00	3031	708	5.8	-1.3	190	3
2023-09-12T12:00	3060	706	5.5	-1.4	192	3
2023-09-12T12:00	3087	704	5.3	-1.9	196	3
2023-09-12T12:00	3107	702	5.2	-2.1	202	3
2023-09-12T12:00	3132	700	5.0	-2.4	207	4
2023-09-12T12:00	3161	697	4.8	-2.5	211	4
2023-09-12T12:00	3187	695	4.6	-2.8	212	4
2023-09-12T12:00	3214	693	4.4	-3.4	212	5
2023-09-12T12:00	3241	691	4.2	-3.6	212	4
2023-09-12T12:00	3268	688	3.9	-4.0	212	4
2023-09-12T12:00	3290	686	3.8	-4.6	213	3
2023-09-12T12:00	3314	684	3.7	-5.5	215	3
2023-09-12T12:00	3332	683	3.6	-5.7	219	3
2023-09-12T12:00	3359	681	3.5	-8.4	223	3
2023-09-12T12:00	3383	678	3.4	-9.2	226	3
2023-09-12T12:00	3417	676	3.2	-10.0	228	3
2023-09-12T12:00	3448	673	3.0	-9.5	230	3
2023-09-12T12:00	3481	671	2.8	-9.2	230	2
2023-09-12T12:00	3503	669	2.6	-9.0	230	2
2023-09-12T12:00	3532	666	2.4	-8.9	230	2
2023-09-12T12:00	3551	665	2.2	-8.9	234	2
2023-09-12T12:00	3569	663	2.1	-8.9	243	2
2023-09-12T12:00	3587	662	1.9	-9.0	256	2
2023-09-12T12:00	3605	660	1.8	-9.0	266	3
2023-09-12T12:00	3628	658	1.6	-9.7	271	3
2023-09-12T12:00	3653	656	1.5	-11.4	272	3
2023-09-12T12:00	3673	655	1.5	-11.0	267	4
2023-09-12T12:00	3699	652	1.6	-12.9	259	4
2023-09-12T12:00	3730	650	1.5	-13.2	249	4
2023-09-12T12:00	3754	648	1.4	-13.5	239	5
2023-09-12T12:00	3779	646	1.3	-14.0	231	6
2023-09-12T12:00	3803	644	1.2	-14.6	224	6
2023-09-12T12:00	3837	642	1.1	-14.8	220	7
2023-09-12T12:00	3861	639	0.9	-14.9	217	7
2023-09-12T12:00	3888	637	0.7	-15.1	216	8
2023-09-12T12:00	3916	635	0.6	-15.6	216	8
2023-09-12T12:00	3938	633	0.5	-15.9	217	8
2023-09-12T12:00	3970	631	0.3	-16.0	218	8
2023-09-12T12:00	3997	629	0.2	-15.9	219	8
2023-09-12T12:00	4020	627	0.1	-16.1	221	9
2023-09-12T12:00	4051	625	-0.1	-15.9	222	9
2023-09-12T12:00	4090	622	-0.3	-15.8	225	9
2023-09-12T12:00	4113	620	-0.5	-15.9	227	10
2023-09-12T12:00	4145	617	-0.7	-15.8	228	10
2023-09-12T12:00	4171	615	-0.9	-14.0	229	10
2023-09-12T12:00	4206	613	-1.2	-12.9	228	10
2023-09-12T12:00	4226	611	-1.4	-12.5	226	10
2023-09-12T12:00	4262	608	-1.7	-12.0	223	11
2023-09-12T12:00	4285	606	-1.9	-12.1	222	11
2023-09-12T12:00	4311	605	-2.0	-12.4	221	10
2023-09-12T12:00	4334	603	-2.2	-12.9	222	10
2023-09-12T12:00	4356	601	-2.4	-13.4	222	10
2023-09-12T12:00	4387	599	-2.6	-14.2	222	9
2023-09-12T12:00	4418	596	-2.8	-14.8	222	9
2023-09-12T12:00	4450	594	-3.0	-15.2	222	9
2023-09-12T12:00	4482	592	-3.2	-15.8	220	9
2023-09-12T12:00	4506	590	-3.4	-16.0	218	9
2023-09-12T12:00	4525	588	-3.6	-16.5	216	10
2023-09-12T12:00	4546	587	-3.7	-17.1	213	10
2023-09-12T12:00	4566	585	-3.7	-19.8	210	10
2023-09-12T12:00	4592	583	-3.8	-22.1	208	11
2023-09-12T12:00	4623	581	-4.0	-22.2	206	11
2023-09-12T12:00	4655	579	-4.3	-22.2	206	11
2023-09-12T12:00	4679	577	-4.5	-22.2	207	11
2023-09-12T12:00	4700	576	-4.6	-21.9	209	11
2023-09-12T12:00	4720	574	-4.8	-21.7	212	11
2023-09-12T12:00	4741	572	-4.9	-21.9	216	11
2023-09-12T12:00	4766	571	-5.1	-22.2	219	11
2023-09-12T12:00	4795	569	-5.2	-23.2	220	11
2023-09-12T12:00	4828	566	-5.4	-23.6	221	11
2023-09-12T12:00	4854	564	-5.6	-24.0	222	12
2023-09-12T12:00	4875	563	-5.7	-24.2	223	12
2023-09-12T12:00	4903	561	-6.0	-24.1	224	12
2023-09-12T12:00	4937	558	-6.3	-24.1	225	11
2023-09-12T12:00	4961	557	-6.4	-23.9	226	11
2023-09-12T12:00	4981	555	-6.6	-23.5	225	10
2023-09-12T12:00	5004	554	-6.8	-23.4	224	10
2023-09-12T12:00	5030	552	-7.1	-23.4	222	9
2023-09-12T12:00	5055	550	-7.3	-23.6	220	9
2023-09-12T12:00	5082	548	-7.6	-23.6	220	9
2023-09-12T12:00	5114	546	-7.9	-23.1	222	9
2023-09-12T12:00	5131	544	-8.1	-22.9	223	10
2023-09-12T12:00	5162	543	-8.3	-22.3	224	11
2023-09-12T12:00	5181	541	-8.5	-21.7	224	11
2023-09-12T12:00	5200	540	-8.5	-20.8	225	12
2023-09-12T12:00	5218	539	-8.7	-20.8	225	12
2023-09-12T12:00	5235	537	-8.8	-18.2	225	12
2023-09-12T12:00	5257	536	-9.0	-17.8	225	12
2023-09-12T12:00	5288	534	-9.3	-18.5	225	12
2023-09-12T12:00	5310	532	-9.5	-18.8	224	12
2023-09-12T12:00	5337	530	-9.7	-19.2	223	12
2023-09-12T12:00	5366	528	-10.0	-19.1	222	11
2023-09-12T12:00	5398	526	-10.3	-19.0	222	11
2023-09-12T12:00	5429	524	-10.4	-20.5	224	11
2023-09-12T12:00	5453	522	-10.7	-21.0	227	11
2023-09-12T12:00	5475	521	-10.9	-21.5	230	11
2023-09-12T12:00	5491	520	-11.0	-21.6	231	11
2023-09-12T12:00	5510	519	-11.2	-22.1	231	11
2023-09-12T12:00	5529	517	-11.3	-22.4	230	11
2023-09-12T12:00	5548	516	-11.5	-22.7	229	11
2023-09-12T12:00	5569	514	-11.7	-22.8	228	10
2023-09-12T12:00	5600	513	-12.0	-23.1	226	10
2023-09-12T12:00	5631	510	-12.3	-23.5	224	9
2023-09-12T12:00	5654	509	-12.3	-26.3	221	9
2023-09-12T12:00	5684	507	-12.4	-26.6	218	9
2023-09-12T12:00	5714	505	-12.6	-26.7	217	10
2023-09-12T12:00	5734	503	-12.7	-27.3	218	10
2023-09-12T12:00	5768	501	-12.8	-28.2	220	10
2023-09-12T12:00	5798	499	-12.8	-28.4	223	10
2023-09-12T12:00	5826	498	-13.0	-27.6	227	10
2023-09-12T12:00	5856	496	-13.2	-26.8	230	10
2023-09-12T12:00	5879	494	-13.4	-26.2	232	10
2023-09-12T12:00	5901	493	-13.6	-24.1	232	10
2023-09-12T12:00	5922	491	-13.8	-24.1	232	9
2023-09-12T12:00	5954	489	-14.1	-24.2	230	9
2023-09-12T12:00	5990	487	-14.3	-24.3	228	9
2023-09-12T12:00	6028	485	-14.6	-24.7	226	8
2023-09-12T12:00	6052	483	-14.7	-24.1	224	8
2023-09-12T12:00	6074	482	-14.9	-24.3	223	9
2023-09-12T12:00	6096	480	-15.0		221	9
2023-09-12T12:00	6123	478	-15.2	-25.2	220	8
2023-09-12T12:00	6153	477	-15.4	-25.3	220	8
2023-09-12T12:00	6183	475	-15.7	-25.6	220	7
2023-09-12T12:00	6217	473	-15.9	-25.8	220	7
2023-09-12T12:00	6244	471	-16.1	-26.0	221	7
2023-09-12T12:00	6267	469	-16.2	-26.2	223	7
2023-09-12T12:00	6294	468	-16.5	-26.5	225	7
2023-09-12T12:00	6327	466	-16.7	-26.8	227	8
2023-09-12T12:00	6360	464	-16.9	-27.1	228	8
2023-09-12T12:00	6385	462	-17.1	-27.2	227	9
2023-09-12T12:00	6417	460	-17.4	-27.5	225	9
2023-09-12T12:00	6453	458	-17.6	-27.4	222	9
2023-09-12T12:00	6481	456	-17.8	-27.5	220	9
2023-09-12T12:00	6502	455	-18.0	-27.5	220	9
2023-09-12T12:00	6526	453	-18.2	-27.4	221	9
2023-09-12T12:00	6551	452	-18.4	-28.2	222	9
2023-09-12T12:00	6580	450	-18.5	-28.9	222	9
2023-09-12T12:00	6612	448	-18.6	-29.0	221	10
2023-09-12T12:00	6648	446	-18.9	-29.5	219	10
2023-09-12T12:00	6675	444	-19.0	-29.9	218	10
2023-09-12T12:00	6711	443	-19.1	-30.4	217	10
2023-09-12T12:00	6733	441	-19.2	-30.4	217	10
2023-09-12T12:00	6755	440	-19.4		219	10
2023-09-12T12:00	6779	438	-19.5	-31.1	222	10
2023-09-12T12:00	6803	437	-19.7	-31.7	225	11
2023-09-12T12:00	6833	435	-20.0	-32.0	228	11
2023-09-12T12:00	6862	433	-20.2	-32.3	230	11
2023-09-12T12:00	6888	432	-20.4	-32.6	229	11
2023-09-12T12:00	6908	431	-20.6	-33.3	227	12
2023-09-12T12:00	6933	429	-20.7	-33.3	224	11
2023-09-12T12:00	6961	428	-21.0	-33.6	221	11
2023-09-12T12:00	6999	426	-21.3	-34.2	218	11
2023-09-12T12:00	7029	424	-21.5	-34.4	217	11
2023-09-12T12:00	7054	422	-21.6	-35.8	216	11
2023-09-12T12:00	7090	420	-21.6	-35.6	216	11
2023-09-12T12:00	7122	419	-21.8	-35.2	217	11
2023-09-12T12:00	7152	417	-22.0	-34.2	219	11
2023-09-12T12:00	7181	415	-22.3	-35.4	221	12
2023-09-12T12:00	7210	413	-22.6	-35.3	224	12
2023-09-12T12:00	7236	412	-22.8	-35.5	226	12
2023-09-12T12:00	7256	411	-23.0	-36.4	227	12
2023-09-12T12:00	7278	410	-23.1	-36.7	229	11
2023-09-12T12:00	7303	408	-23.2	-36.7	230	10
2023-09-12T12:00	7333	407	-23.5		231	10
2023-09-12T12:00	7365	405	-23.7	-37.2	231	10
2023-09-12T12:00	7401	403	-23.7	-38.6	232	10
2023-09-12T12:00	7424	401	-23.9	-38.2	232	10
2023-09-12T12:00	7459	400	-24.2	-37.8	232	11
2023-09-12T12:00	7488	398	-24.4	-37.6	232	11
2023-09-12T12:00	7511	397	-24.6	-38.0	232	12
2023-09-12T12:00	7539	395	-24.9	-38.4	231	12
2023-09-12T12:00	7573	393	-25.2	-38.0	230	12
2023-09-12T12:00	7603	392	-25.5	-37.8	228	12
2023-09-12T12:00	7636	390	-25.7	-37.8	227	12
2023-09-12T12:00	7667	388	-26.0	-37.7	226	11
2023-09-12T12:00	7709	386	-26.4	-37.6	226	11
2023-09-12T12:00	7738	385	-26.7	-37.6	227	11
2023-09-12T12:00	7755	384	-26.8	-37.8	228	11
2023-09-12T12:00	7772	383	-27.0	-37.5	229	11
2023-09-12T12:00	7792	382	-27.2	-37.4	229	11
2023-09-12T12:00	7811	381	-27.4	-37.8	229	11
2023-09-12T12:00	7832	380	-27.6	-37.9	228	11
2023-09-12T12:00	7854	378	-27.8	-38.1	228	10
2023-09-12T12:00	7885	377	-28.1	-37.7	227	10
2023-09-12T12:00	7920	375	-28.4	-37.5	228	10
2023-09-12T12:00	7952	373	-28.6		228	9
2023-09-12T12:00	7989	371	-28.9	-39.0	228	9
2023-09-12T12:00	8024	370	-29.1	-39.3	229	10
2023-09-12T12:00	8056	368	-29.3	-40.3	230	10
2023-09-12T12:00	8086	366	-29.4	-40.8	232	10
2023-09-12T12:00	8112	365	-29.6	-40.7	234	10
2023-09-12T12:00	8146	363	-30.0	-40.7	238	10
2023-09-12T12:00	8180	362	-30.2	-40.7	241	10
2023-09-12T12:00	8212	360	-30.5	-40.8	244	10
2023-09-12T12:00	8242	358	-30.8	-41.0	245	10
2023-09-12T12:00	8281	357	-31.1	-41.1	246	10
2023-09-12T12:00	8299	355	-31.3	-41.5	247	11
2023-09-12T12:00	8319	354	-31.4	-41.7	248	11
2023-09-12T12:00	8343	353	-31.6	-41.4	248	10
2023-09-12T12:00	8378	352	-31.9	-41.6	248	10
2023-09-12T12:00	8412	350	-32.1	-42.2	247	9
2023-09-12T12:00	8441	348	-32.3	-42.0	246	9
2023-09-12T12:00	8474	347	-32.7	-41.4	243	9
2023-09-12T12:00	8504	345	-33.0	-41.2	241	9
2023-09-12T12:00	8540	344	-33.3	-40.0	239	9
2023-09-12T12:00	8563	342	-33.5	-38.9	236	9
2023-09-12T12:00	8586	341	-33.7	-39.0	233	10
2023-09-12T12:00	8622	340	-34.0	-39.6	231	10
2023-09-12T12:00	8660	338	-34.3	-40.1	229	10
2023-09-12T12:00	8682	337	-34.4	-40.2	228	10
2023-09-12T12:00	8713	335	-34.7		228	10
2023-09-12T12:00	8750	334	-35.0		229	10
2023-09-12T12:00	8776	332	-35.2	-40.2	229	10
2023-09-12T12:00	8805	331	-35.5	-40.5	229	11
2023-09-12T12:00	8841	329	-35.6	-40.0	229	11
2023-09-12T12:00	8863	328	-35.7	-40.0	230	11
2023-09-12T12:00	8893	327	-35.9	-39.8	230	11
2023-09-12T12:00	8925	325	-36.2	-39.9	231	11
2023-09-12T12:00	8960	324	-36.4	-40.1	233	11
2023-09-12T12:00	8991	322	-36.7	-40.1	234	11
2023-09-12T12:00	9027	320	-37.0	-40.3	236	11
2023-09-12T12:00	9053	319	-37.2	-40.6	237	11
2023-09-12T12:00	9083	318	-37.5	-40.7	237	11
2023-09-12T12:00	9115	316	-37.7	-41.1	236	11
2023-09-12T12:00	9143	315	-37.9	-41.2	235	11
2023-09-12T12:00	9168	314	-38.1	-41.2	234	12
2023-09-12T12:00	9200	312	-38.3	-41.1	233	12
2023-09-12T12:00	9232	311	-38.6	-41.3	233	12
2023-09-12T12:00	9268	309	-38.9	-41.5	234	12
2023-09-12T12:00	9306	308	-39.2	-41.8	234	12
2023-09-12T12:00	9329	307	-39.4	-41.7	234	12
2023-09-12T12:00	9355	305	-39.7	-42.1	234	12
2023-09-12T12:00	9387	304	-40.0	-42.2	234	13
2023-09-12T12:00	9424	302	-40.3	-42.3	234	13
2023-09-12T12:00	9457	301	-40.5	-42.9	235	12
2023-09-12T12:00	9485	300	-40.8	-43.3	236	12
2023-09-12T12:00	9510	299	-41.0	-43.4	238	12
2023-09-12T12:00	9535	297	-41.2	-43.5	238	12
2023-09-12T12:00	9562	296	-41.5	-43.5	239	11
2023-09-12T12:00	9587	295	-41.7	-43.5	238	11
2023-09-12T12:00	9613	294	-42.0	-43.7	238	11
2023-09-12T12:00	9635	293	-42.1	-44.0	238	11
2023-09-12T12:00	9657	292	-42.3	-44.4	239	11
2023-09-12T12:00	9678	291	-42.5	-44.6	239	11
2023-09-12T12:00	9700	290	-42.7	-44.8	239	11
2023-09-12T12:00	9720	289	-42.9	-45.2	239	11
2023-09-12T12:00	9747	288	-43.1	-45.4	239	11
2023-09-12T12:00	9777	287	-43.3	-45.8	239	11
2023-09-12T12:00	9801	286	-43.6	-46.3	239	11
2023-09-12T12:00	9825	285	-43.7	-46.3	239	11
2023-09-12T12:00	9848	284	-44.0	-46.7	239	11
2023-09-12T12:00	9870	283	-44.1	-47.5	239	11
2023-09-12T12:00	9894	282	-44.1	-48.7	239	11
2023-09-12T12:00	9918	281	-44.3	-48.8	239	11
2023-09-12T12:00	9942	280	-44.5	-49.1	238	11
2023-09-12T12:00	9967	279	-44.7	-49.2	237	11
2023-09-12T12:00	9995	278	-44.8	-49.0	236	11
2023-09-12T12:00	10022	277	-44.9	-49.2	234	11
2023-09-12T12:00	10053	275	-45.1	-49.7	232	11
2023-09-12T12:00	10079	274	-45.4	-49.9	231	11
2023-09-12T12:00	10101	273	-45.5	-50.0	230	11
2023-09-12T12:00	10126	272	-45.7	-50.1	230	11
2023-09-12T12:00	10148	271	-45.9	-50.1	230	11
2023-09-12T12:00	10177	270	-46.2	-50.2	230	11
2023-09-12T12:00	10208	269	-46.5	-50.3	230	11
2023-09-12T12:00	10243	268	-46.8	-50.7	230	11
2023-09-12T12:00	10266	267	-47.0	-51.2	231	11
2023-09-12T12:00	10293	266	-47.1	-51.4	231	11
2023-09-12T12:00	10327	264	-47.6	-51.5	232	11
2023-09-12T12:00	10370	263	-47.9	-51.6	233	11
2023-09-12T12:00	10390	262	-48.1	-51.9	233	11
2023-09-12T12:00	10410	261	-48.2	-52.0	232	11
2023-09-12T12:00	10430	260	-48.4	-52.0	232	11
2023-09-12T12:00	10449	259	-48.6	-52.2	232	11
2023-09-12T12:00	10472	259	-48.7	-53.0	232	11
2023-09-12T12:00	10492	258	-48.8	-53.7	232	11
2023-09-12T12:00	10510	257	-48.8	-54.0	232	12
2023-09-12T12:00	10533	256	-48.9	-54.0	232	12
2023-09-12T12:00	10551	255	-49.1	-54.0	232	12
2023-09-12T12:00	10573	255	-49.3	-53.8	232	12
2023-09-12T12:00	10594	254	-49.5	-53.9	232	12
2023-09-12T12:00	10615	253	-49.7	-54.1	232	12
2023-09-12T12:00	10635	252	-49.8	-54.3	232	12
2023-09-12T12:00	10656	251	-50.0	-54.4	232	12
2023-09-12T12:00	10677	251	-50.2	-54.5	232	12
2023-09-12T12:00	10698	250	-50.4	-54.6	232	12
2023-09-12T12:00	10721	249	-50.6	-54.7	232	12
2023-09-12T12:00	10743	248	-50.8	-54.9	232	12
2023-09-12T12:00	10762	247	-51.0	-55.0	233	12
2023-09-12T12:00	10785	246	-51.2	-55.1	232	12
2023-09-12T12:00	10807	246	-51.4	-55.3	232	12
2023-09-12T12:00	10828	245	-51.6	-55.5	232	13
2023-09-12T12:00	10852	244	-51.8	-55.8	231	13
2023-09-12T12:00	10871	243	-51.9	-55.8	231	13
2023-09-12T12:00	10894	242	-52.2	-56.0	231	13
2023-09-12T12:00	10923	241	-52.4	-56.3	231	13
2023-09-12T12:00	10956	240	-52.6	-56.5	231	13
2023-09-12T12:00	10983	239	-52.9	-56.9	232	13
2023-09-12T12:00	11011	238	-53.1	-57.0	233	13
2023-09-12T12:00	11034	237	-53.2	-57.2	233	13
2023-09-12T12:00	11058	236	-53.4	-57.5	233	13
2023-09-12T12:00	11080	235	-53.5	-57.6	233	13
2023-09-12T12:00	11100	235	-53.7	-57.7	232	14
2023-09-12T12:00	11122	234	-53.8	-58.0	232	14
2023-09-12T12:00	11142	233	-53.9	-58.3	231	14
2023-09-12T12:00	11163	232	-54.0	-58.6	231	14
2023-09-12T12:00	11182	232	-54.1	-58.6	231	14
2023-09-12T12:00	11203	231	-54.2	-58.5	230	14
2023-09-12T12:00	11222	230	-54.4	-58.7	230	15
2023-09-12T12:00	11250	229	-54.5	-58.8	229	15
2023-09-12T12:00	11275	228	-54.7	-59.1	229	15
2023-09-12T12:00	11298	228	-54.9	-59.4	229	15
2023-09-12T12:00	11324	227	-55.0	-59.4	229	15
2023-09-12T12:00	11352	226	-55.2	-59.6	230	15
2023-09-12T12:00	11376	225	-55.3	-59.8	232	15
2023-09-12T12:00	11398	224	-55.5	-60.1	232	15
2023-09-12T12:00	11417	223	-55.5	-60.0	233	15
2023-09-12T12:00	11438	223	-55.7	-60.0	232	15
2023-09-12T12:00	11460	222	-55.8	-60.1	232	15
2023-09-12T12:00	11485	221	-56.0	-60.6	231	15
2023-09-12T12:00	11509	220	-56.0	-61.1	231	14
2023-09-12T12:00	11528	220	-56.0	-61.5	231	14
2023-09-12T12:00	11549	219	-56.1	-61.9	232	14
2023-09-12T12:00	11573	218	-56.1	-62.3	232	13
2023-09-12T12:00	11594	217	-56.1	-62.6	232	13
2023-09-12T12:00	11617	217	-56.1	-62.8	232	13
2023-09-12T12:00	11639	216	-56.0	-62.9	232	13
2023-09-12T12:00	11658	215	-56.1	-63.1	232	14
2023-09-12T12:00	11679	214	-56.2	-63.3	232	14
2023-09-12T12:00	11701	214	-56.3	-63.6	233	14
2023-09-12T12:00	11722	213	-56.3	-63.8	232	13
2023-09-12T12:00	11743	212	-56.1	-64.1	231	13
2023-09-12T12:00	11766	211	-56.1	-64.3	229	13
2023-09-12T12:00	11787	211	-56.2	-64.6	228	12
2023-09-12T12:00	11807	210	-56.2	-64.7	227	12
2023-09-12T12:00	11828	209	-56.2	-65.4	227	12
2023-09-12T12:00	11849	209	-56.0	-66.7	228	12
2023-09-12T12:00	11870	208	-55.5	-68.0	229	12
2023-09-12T12:00	11892	207	-55.4	-69.0	230	12
2023-09-12T12:00	11911	207	-55.5	-69.1	230	12
2023-09-12T12:00	11932	206	-55.6	-68.9	231	12
2023-09-12T12:00	11956	205	-55.6	-68.8	231	12
2023-09-12T12:00	11989	204	-55.4	-68.4	230	12
2023-09-12T12:00	12010	203	-55.6	-68.3	230	12
2023-09-12T12:00	12032	203	-55.7	-68.1	229	11
2023-09-12T12:00	12057	202	-55.9	-68.4	229	11
2023-09-12T12:00	12078	201	-55.9	-68.8	231	11
2023-09-12T12:00	12104	201	-55.3	-68.9	234	11
2023-09-12T12:00	12128	200	-55.3	-69.4	238	12
2023-09-12T12:00	12153	199	-55.4	-69.6	241	12
2023-09-12T12:00	12174	198	-55.5	-69.8	244	13
2023-09-12T12:00	12195	198	-55.4	-70.0	246	13
2023-09-12T12:00	12217	197	-55.1	-70.0	247	14
2023-09-12T12:00	12239	196	-55.2	-70.1	247	14
2023-09-12T12:00	12261	196	-55.4	-70.1	246	14
2023-09-12T12:00	12284	195	-55.6	-70.1	246	14
2023-09-12T12:00	12305	194	-55.8	-70.0	245	14
2023-09-12T12:00	12328	194	-56.0	-70.0	245	14
2023-09-12T12:00	12348	193	-56.1	-69.8	246	14
2023-09-12T12:00	12371	192	-56.2	-69.7	247	14
2023-09-12T12:00	12396	192	-56.4	-69.8	247	14
2023-09-12T12:00	12417	191	-56.5	-69.9	247	13
2023-09-12T12:00	12436	190	-56.5	-69.8	247	13
2023-09-12T12:00	12457	190	-56.6	-69.8	246	13
2023-09-12T12:00	12478	189	-56.7	-69.8	244	13
2023-09-12T12:00	12499	188	-56.8	-69.8	242	13
2023-09-12T12:00	12521	188	-57.0	-69.8	240	13
2023-09-12T12:00	12543	187	-57.1	-69.9	238	13
2023-09-12T12:00	12563	187	-57.2	-70.2	236	13
2023-09-12T12:00	12585	186	-57.2	-70.8	234	13
2023-09-12T12:00	12608	185	-57.1	-71.4	233	13
2023-09-12T12:00	12629	185	-56.9	-72.1	233	13
2023-09-12T12:00	12648	184	-56.8	-72.7	233	14
2023-09-12T12:00	12669	183	-56.7	-73.1	234	14
2023-09-12T12:00	12690	183	-56.8	-73.6	236	14
2023-09-12T12:00	12710	182	-56.8	-74.1	238	15
2023-09-12T12:00	12731	182	-56.7	-74.6	240	15
2023-09-12T12:00	12753	181	-56.6	-75.1	242	15
2023-09-12T12:00	12773	180	-56.7	-75.6	244	15
2023-09-12T12:00	12795	180	-56.7	-76.0	246	15
2023-09-12T12:00	12817	179	-56.6	-76.3	248	15
2023-09-12T12:00	12840	179	-56.8	-76.5	249	15
2023-09-12T12:00	12863	178	-57.0	-76.4	251	15
2023-09-12T12:00	12885	177	-57.1	-76.1	252	15
2023-09-12T12:00	12905	177	-57.1	-75.7	253	15
2023-09-12T12:00	12927	176	-56.9	-75.3	254	15
2023-09-12T12:00	12947	176	-56.7	-75.2	254	14
2023-09-12T12:00	12969	175	-56.8	-75.5	254	14
2023-09-12T12:00	12989	174	-56.6	-75.7	254	14
2023-09-12T12:00	13013	174	-56.5	-76.1	255	14
2023-09-12T12:00	13033	173	-56.4	-76.3	255	14
2023-09-12T12:00	13054	173	-56.5	-76.6	256	14
2023-09-12T12:00	13075	172	-56.5	-76.7	256	14
2023-09-12T12:00	13097	171	-56.6	-76.9	255	14
2023-09-12T12:00	13119	171	-56.6	-77.0	254	14
2023-09-12T12:00	13143	170	-56.7	-77.3	253	13
2023-09-12T12:00	13165	170	-57.0	-77.5	252	13
2023-09-12T12:00	13185	169	-57.1	-77.5	250	12
2023-09-12T12:00	13205	169	-57.3	-77.6	249	12
2023-09-12T12:00	13226	168	-57.3	-77.7	249	12
2023-09-12T12:00	13248	167	-57.3	-77.9	249	12
2023-09-12T12:00	13269	167	-57.3	-77.9	249	12
2023-09-12T12:00	13290	166	-57.3	-77.6	250	12
2023-09-12T12:00	13312	166	-57.4	-77.5	250	12
2023-09-12T12:00	13335	165	-57.5	-77.4	250	13
2023-09-12T12:00	13357	165	-57.7	-77.4	250	13
2023-09-12T12:00	13377	164	-57.9	-77.4	249	13
2023-09-12T12:00	13399	163	-58.0	-77.3	249	13
2023-09-12T12:00	13421	163	-58.1	-77.3	249	13
2023-09-12T12:00	13443	162	-58.2	-77.2	250	13
2023-09-12T12:00	13463	162	-58.4	-77.2	251	13
2023-09-12T12:00	13485	161	-58.6	-77.3	252	13
2023-09-12T12:00	13505	161	-58.7	-77.4	253	13
2023-09-12T12:00	13526	160	-58.8	-77.5	254	13
2023-09-12T12:00	13549	160	-58.9	-77.5	254	12
2023-09-12T12:00	13568	159	-59.1	-77.6	254	12
2023-09-12T12:00	13589	159	-59.3	-77.7	254	12
2023-09-12T12:00	13610	158	-59.5	-77.8	253	12
2023-09-12T12:00	13630	158	-59.6	-77.8	252	12
2023-09-12T12:00	13651	157	-59.8	-77.8	251	11
2023-09-12T12:00	13671	157	-59.9	-77.8	250	11
2023-09-12T12:00	13692	156	-60.1	-77.9	249	11
2023-09-12T12:00	13711	156	-60.2	-77.9	249	11
2023-09-12T12:00	13732	155	-60.2	-78.0	250	12
2023-09-12T12:00	13752	155	-59.9	-77.9	251	12
2023-09-12T12:00	13772	154	-59.9	-78.0	252	12
2023-09-12T12:00	13793	154	-60.1	-78.4	252	12
2023-09-12T12:00	13815	153	-60.2	-78.6	252	12
2023-09-12T12:00	13835	152	-60.1	-78.8	252	13
2023-09-12T12:00	13857	152	-60.0	-78.9	251	13
2023-09-12T12:00	13875	151	-60.0	-79.1	250	13
2023-09-12T12:00	13895	151	-59.9	-79.1	249	12
2023-09-12T12:00	13917	150	-59.9	-79.2	248	12
2023-09-12T12:00	13937	150	-60.0	-79.3	247	12
2023-09-12T12:00	13959	150	-60.1	-79.4	245	12
2023-09-12T12:00	13979	149	-60.1	-79.5	243	12
2023-09-12T12:00	13998	149	-59.9	-79.4	241	12
2023-09-12T12:00	14020	148	-59.9	-79.6	240	12
2023-09-12T12:00	14037	148	-59.9	-79.8	239	12
2023-09-12T12:00	14058	147	-59.8	-79.7	240	12
2023-09-12T12:00	14079	147	-59.9	-79.8	241	12
2023-09-12T12:00	14096	146	-60.0	-80.0	242	12
2023-09-12T12:00	14116	146	-60.0	-80.0	243	12
2023-09-12T12:00	14135	145	-60.0	-80.1	244	12
2023-09-12T12:00	14156	145	-60.0	-80.1	245	12
2023-09-12T12:00	14175	144	-60.0	-80.2	246	12
2023-09-12T12:00	14197	144	-59.8	-80.2	247	12
2023-09-12T12:00	14216	143	-59.7	-80.2	249	12
2023-09-12T12:00	14237	143	-59.8	-80.4	251	12
2023-09-12T12:00	14260	142	-59.7	-80.5	252	11
2023-09-12T12:00	14280	142	-59.5	-80.4	253	11
2023-09-12T12:00	14301	141	-59.3	-80.4	254	11
2023-09-12T12:00	14326	141	-59.4	-80.5	255	10
2023-09-12T12:00	14346	140	-59.5	-80.7	255	10
2023-09-12T12:00	14367	140	-59.6	-80.8	255	10
2023-09-12T12:00	14388	140	-59.6	-80.8	256	9
2023-09-12T12:00	14409	139	-59.6	-80.8	256	9
2023-09-12T12:00	14431	139	-59.8	-81.0	255	9
2023-09-12T12:00	14454	138	-59.9	-81.1	254	9
2023-09-12T12:00	14475	138	-60.0	-81.0	253	10
2023-09-12T12:00	14497	137	-60.1	-81.1	252	10
2023-09-12T12:00	14518	137	-60.3	-81.1	251	10
2023-09-12T12:00	14541	136	-60.4	-81.0	250	11
2023-09-12T12:00	14562	136	-60.5	-81.0	249	11
2023-09-12T12:00	14584	135	-60.3	-80.8	249	11
2023-09-12T12:00	14606	135	-60.1	-80.9	249	10
2023-09-12T12:00	14628	134	-59.9	-81.2	249	10
2023-09-12T12:00	14648	134	-59.6	-81.4	250	10
2023-09-12T12:00	14671	133	-59.6	-81.9	252	9
2023-09-12T12:00	14695	133	-59.5	-82.2	253	9
2023-09-12T12:00	14715	132	-59.4	-82.5	254	8
2023-09-12T12:00	14738	132	-59.2	-82.5	254	8
2023-09-12T12:00	14763	131	-59.2	-82.5	252	8
2023-09-12T12:00	14785	131	-59.3	-82.8	250	8
2023-09-12T12:00	14807	131	-59.4	-82.9	248	8
2023-09-12T12:00	14828	130	-59.4	-82.7	246	8
2023-09-12T12:00	14853	130	-59.5	-82.7	245	9
2023-09-12T12:00	14871	129	-59.6	-82.8	245	9
2023-09-12T12:00	14895	129	-59.7	-82.9	245	9
2023-09-12T12:00	14917	128	-59.7	-82.9	246	10
2023-09-12T12:00	14942	128	-59.7	-83.1	248	10
2023-09-12T12:00	14963	127	-59.7	-83.1	250	10
2023-09-12T12:00	14985	127	-59.6	-83.2	253	10
2023-09-12T12:00	15008	126	-59.5	-83.1	256	10
2023-09-12T12:00	15031	126	-59.3	-83.2	259	10
2023-09-12T12:00	15053	125	-59.2	-83.3	261	10
2023-09-12T12:00	15075	125	-59.2	-83.3	261	10
2023-09-12T12:00	15094	125	-59.1	-83.3	260	10
2023-09-12T12:00	15118	124	-59.0	-83.4	257	10
2023-09-12T12:00	15140	124	-58.9	-83.3	254	10
2023-09-12T12:00	15162	123	-58.9	-83.3	252	11
2023-09-12T12:00	15183	123	-59.1	-83.5	251	11
2023-09-12T12:00	15202	123	-59.2	-83.6	253	11
2023-09-12T12:00	15225	122	-59.1	-83.5	256	12
2023-09-12T12:00	15250	122	-58.9	-83.3	260	12
2023-09-12T12:00	15277	121	-58.9	-83.3	264	12
2023-09-12T12:00	15301	121	-58.9	-83.1	268	12
2023-09-12T12:00	15325	120	-58.9	-83.1	271	12
2023-09-12T12:00	15346	120	-59.0	-83.2	273	11
2023-09-12T12:00	15371	119	-59.0	-83.2	275	11
2023-09-12T12:00	15392	119	-59.1	-83.3	276	10
2023-09-12T12:00	15416	118	-59.2	-83.1	277	10
2023-09-12T12:00	15436	118	-59.4	-83.3	278	9
2023-09-12T12:00	15462	118	-59.6	-83.2	279	8
2023-09-12T12:00	15483	117	-59.7	-83.3	279	8
2023-09-12T12:00	15507	117	-59.8	-83.4	278	7
2023-09-12T12:00	15528	116	-59.9	-83.5	276	7
2023-09-12T12:00	15551	116	-60.0	-83.5	274	6
2023-09-12T12:00	15570	116	-60.0	-83.8	272	7
2023-09-12T12:00	15595	115	-59.7	-83.5	271	7
2023-09-12T12:00	15615	115	-59.6	-83.4	270	7
2023-09-12T12:00	15637	114	-59.7	-83.7	270	8
2023-09-12T12:00	15660	114	-59.7	-83.7	271	8
2023-09-12T12:00	15681	113	-59.6	-83.7	271	8
2023-09-12T12:00	15703	113	-59.7	-83.7	273	8
2023-09-12T12:00	15726	113	-59.6	-83.7	274	8
2023-09-12T12:00	15747	112	-59.6	-83.7	275	7
2023-09-12T12:00	15767	112	-59.5	-83.8	276	7
2023-09-12T12:00	15792	112	-59.4	-83.7	275	7
2023-09-12T12:00	15815	111	-59.4	-83.7	272	6
2023-09-12T12:00	15840	111	-59.5	-83.6	267	6
2023-09-12T12:00	15864	110	-59.7	-83.7	262	6
2023-09-12T12:00	15887	110	-59.9	-83.7	256	6
2023-09-12T12:00	15911	109	-60.1	-83.8	252	6
2023-09-12T12:00	15934	109	-60.2	-83.9	250	7
2023-09-12T12:00	15957	109	-60.2	-83.7	249	7
2023-09-12T12:00	15980	108	-60.3	-83.8	250	7
2023-09-12T12:00	16003	108	-60.4	-83.9	252	7
2023-09-12T12:00	16028	107	-60.5	-83.9	254	7
2023-09-12T12:00	16048	107	-60.6	-84.0	258	7
2023-09-12T12:00	16069	107	-60.6	-84.0	263	7
2023-09-12T12:00	16093	106	-60.6	-84.0	268	7
2023-09-12T12:00	16115	106	-60.6	-84.2	273	7
2023-09-12T12:00	16140	105	-60.4	-84.3	278	6
2023-09-12T12:00	16161	105	-60.1	-84.3	283	6
2023-09-12T12:00	16183	105	-59.5	-84.1	288	5
2023-09-12T12:00	16205	104	-59.3	-83.9	292	5
2023-09-12T12:00	16231	104	-59.1	-84.0	294	4
2023-09-12T12:00	16253	104	-59.1	-84.0	294	4
2023-09-12T12:00	16275	103	-59.0	-83.9	293	3
2023-09-12T12:00	16296	103	-59.2	-84.1	292	3
2023-09-12T12:00	16318	102	-59.3	-84.1	291	3
2023-09-12T12:00	16339	102	-59.4	-84.2	288	2
2023-09-12T12:00	16363	102	-59.5	-84.1	283	2
2023-09-12T12:00	16387	101	-59.6	-84.1	271	2
2023-09-12T12:00	16413	101	-59.6	-84.1	252	2
2023-09-12T12:00	16435	101	-59.7	-84.2	234	2
2023-09-12T12:00	16459	100	-59.8	-84.3	225	2
2023-09-12T12:00	16483	100	-59.9	-84.4	222	3
2023-09-12T12:00	16505	99	-60.1	-84.5	223	4
2023-09-12T12:00	16528	99	-60.2	-84.6	226	4
2023-09-12T12:00	16549	99	-60.3	-84.7	231	4
2023-09-12T12:00	16571	98	-60.3	-84.4	235	5
2023-09-12T12:00	16592	98	-60.1	-84.3	240	5
2023-09-12T12:00	16613	98	-60.2	-84.4	245	5
2023-09-12T12:00	16636	97	-60.3	-84.4	250	5
2023-09-12T12:00	16658	97	-60.3	-84.4	255	4
2023-09-12T12:00	16680	97	-60.2	-84.4	262	4
2023-09-12T12:00	16700	96	-60.1	-84.5	270	3
2023-09-12T12:00	16722	96	-60.0	-84.4	282	3
2023-09-12T12:00	16744	96	-59.8	-84.5	297	2
2023-09-12T12:00	16765	95	-59.6	-84.6	315	2
2023-09-12T12:00	16788	95	-59.4	-84.5	337	1
2023-09-12T12:00	16808	95	-59.4	-84.5	4	1
2023-09-12T12:00	16832	94	-59.2	-84.6	37	1
2023-09-12T12:00	16853	94	-59.0	-84.4	72	1
2023-09-12T12:00	16873	94	-59.1	-84.5	102	1
2023-09-12T12:00	16895	93	-59.2	-84.3	125	1
2023-09-12T12:00	16918	93	-59.2	-84.3	147	1
2023-09-12T12:00	16940	93	-59.3	-84.4	168	1
2023-09-12T12:00	16963	92	-59.4	-84.5	188	2
2023-09-12T12:00	16984	92	-59.3	-84.7	204	2
2023-09-12T12:00	17009	92	-59.1	-84.5	216	3
2023-09-12T12:00	17031	91	-59.2	-84.6	225	3
2023-09-12T12:00	17054	91	-59.3	-84.7	230	3
2023-09-12T12:00	17078	91	-59.3	-84.7	233	4
2023-09-12T12:00	17100	90	-59.2	-84.9	235	4
2023-09-12T12:00	17122	90	-59.1	-84.8	236	4
2023-09-12T12:00	17145	90	-59.1	-84.8	237	4
2023-09-12T12:00	17167	89	-59.0	-84.7	239	4
2023-09-12T12:00	17187	89	-59.0	-85.0	242	4
2023-09-12T12:00	17210	89	-59.0	-85.0	245	4
2023-09-12T12:00	17233	89	-59.1	-85.1	249	4
2023-09-12T12:00	17254	88	-59.1	-85.4	251	4
2023-09-12T12:00	17278	88	-59.0	-85.3	253	4
2023-09-12T12:00	17300	88	-58.8	-85.2	254	4
2023-09-12T12:00	17324	87	-58.5	-85.3	253	5
2023-09-12T12:00	17347	87	-58.3	-85.1	254	5
2023-09-12T12:00	17369	87	-58.3	-85.1	255	6
2023-09-12T12:00	17394	86	-58.3	-85.1	258	7
2023-09-12T12:00	17414	86	-58.3	-85.1	261	8
2023-09-12T12:00	17437	86	-58.1	-85.0	264	8
2023-09-12T12:00	17457	85	-58.0	-85.2	267	9
2023-09-12T12:00	17481	85	-57.9	-85.2	270	9
2023-09-12T12:00	17507	85	-57.9	-85.2	272	9
2023-09-12T12:00	17527	85	-57.9	-85.2	275	9
2023-09-12T12:00	17553	84	-57.8	-85.1	277	8
2023-09-12T12:00	17574	84	-57.7	-85.0	278	8
2023-09-12T12:00	17597	84	-57.8	-85.1	280	7
2023-09-12T12:00	17623	83	-58.0	-85.2	281	7
2023-09-12T12:00	17643	83	-57.9	-85.2	282	6
2023-09-12T12:00	17669	83	-57.8	-85.1	284	6
2023-09-12T12:00	17692	82	-57.7	-85.0	286	5
2023-09-12T12:00	17715	82	-57.8	-85.1	289	5
2023-09-12T12:00	17738	82	-57.8	-85.1	293	4
2023-09-12T12:00	17766	81	-58.0	-85.2	295	3
2023-09-12T12:00	17784	81	-58.1	-85.3	293	3
2023-09-12T12:00	17813	81	-58.0	-85.2	285	2
2023-09-12T12:00	17836	80	-57.8	-85.1	269	2
2023-09-12T12:00	17862	80	-57.6	-85.3	254	3
2023-09-12T12:00	17885	80	-57.6	-85.3	246	3
2023-09-12T12:00	17909	80	-57.6	-84.9	244	4
2023-09-12T12:00	17935	79	-57.6	-84.9	244	5
2023-09-12T12:00	17957	79	-57.7	-85.0	244	6
2023-09-12T12:00	17981	79	-57.8	-85.1	245	6
2023-09-12T12:00	18004	78	-57.8	-85.1	246	7
2023-09-12T12:00	18030	78	-57.9	-85.2	247	8
2023-09-12T12:00	18055	78	-57.8	-85.1	248	8
2023-09-12T12:00	18079	77	-57.6	-85.3	249	9
2023-09-12T12:00	18101	77	-57.6	-85.3	251	9
2023-09-12T12:00	18127	77	-57.7	-85.4	253	9
2023-09-12T12:00	18152	77	-57.6	-85.3	255	9
2023-09-12T12:00	18175	76	-57.5	-85.2	258	9
2023-09-12T12:00	18202	76	-57.6	-85.3	260	9
2023-09-12T12:00	18224	76	-57.7	-85.4	263	9
2023-09-12T12:00	18250	75	-57.7	-85.4	265	9
2023-09-12T12:00	18274	75	-57.7	-85.4	267	9
2023-09-12T12:00	18299	75	-57.7	-85.4	269	9
2023-09-12T12:00	18322	75	-57.8	-85.5	271	9
2023-09-12T12:00	18343	74	-57.9	-85.5	273	9
2023-09-12T12:00	18369	74	-58.0	-85.2	274	8
2023-09-12T12:00	18394	74	-58.0	-85.2	275	8
2023-09-12T12:00	18417	73	-57.9	-85.2	276	8
2023-09-12T12:00	18443	73	-57.9	-85.2	276	7
2023-09-12T12:00	18465	73	-58.0	-85.2	277	7
2023-09-12T12:00	18489	73	-58.1	-85.3	278	7
2023-09-12T12:00	18513	72	-58.1	-85.7	280	7
2023-09-12T12:00	18540	72	-58.1	-85.7	282	7
2023-09-12T12:00	18559	72	-58.1	-85.7	285	6
2023-09-12T12:00	18583	71	-58.1	-85.7	288	6
2023-09-12T12:00	18606	71	-57.9	-85.5	290	5
2023-09-12T12:00	18630	71	-57.9	-85.5	292	5
2023-09-12T12:00	18652	71	-57.9	-85.5	294	5
2023-09-12T12:00	18674	70	-58.0	-85.6	295	4
2023-09-12T12:00	18699	70	-58.0	-85.6	295	5
2023-09-12T12:00	18722	70	-57.8	-85.5	295	5
2023-09-12T12:00	18745	70	-58.0	-85.6	294	5
2023-09-12T12:00	18769	69	-58.0	-85.6	293	5
2023-09-12T12:00	18792	69	-58.0	-85.2	293	5
2023-09-12T12:00	18817	69	-58.0	-85.2	294	5
2023-09-12T12:00	18837	69	-58.1	-85.3	295	5
2023-09-12T12:00	18861	68	-58.2	-85.4	297	4
2023-09-12T12:00	18886	68	-58.3	-85.5	297	3
2023-09-12T12:00	18908	68	-58.3	-85.8	297	3
2023-09-12T12:00	18932	68	-58.0	-85.6	294	2
2023-09-12T12:00	18953	67	-57.7	-85.4	290	2
2023-09-12T12:00	18974	67	-57.3	-85.5	284	2
2023-09-12T12:00	18999	67	-57.3	-85.5	275	2
2023-09-12T12:00	19017	67	-57.4	-85.6	265	2
2023-09-12T12:00	19039	66	-57.3	-85.1	254	2
2023-09-12T12:00	19067	66	-57.5	-85.2	245	2
2023-09-12T12:00	19090	66	-57.6	-85.3	238	2
2023-09-12T12:00	19111	66	-57.6	-85.3	233	2
2023-09-12T12:00	19136	65	-57.7	-85.4	230	2
2023-09-12T12:00	19159	65	-57.6	-85.3	228	2
2023-09-12T12:00	19181	65	-57.6	-85.3	226	2
2023-09-12T12:00	19204	65	-57.8	-85.5	224	2
2023-09-12T12:00	19228	65	-57.6	-85.3	220	2
2023-09-12T12:00	19249	64	-57.5	-85.2	213	2
2023-09-12T12:00	19273	64	-57.4	-85.6	204	2
2023-09-12T12:00	19295	64	-57.4	-85.6	195	2
2023-09-12T12:00	19316	64	-57.3	-85.5	191	2
2023-09-12T12:00	19345	63	-57.2	-85.4	191	3
2023-09-12T12:00	19368	63	-57.2	-85.4	193	3
2023-09-12T12:00	19392	63	-57.3	-85.1	197	4
2023-09-12T12:00	19415	63	-57.5	-85.2	201	4
2023-09-12T12:00	19441	62	-57.6	-85.3	206	5
2023-09-12T12:00	19463	62	-57.8	-85.5	211	5
2023-09-12T12:00	19489	62	-57.7	-85.4	218	5
2023-09-12T12:00	19514	62	-57.7	-85.4	225	5
2023-09-12T12:00	19538	61	-57.7	-85.4	232	5
2023-09-12T12:00	19558	61	-57.6	-85.7	240	5
2023-09-12T12:00	19585	61	-57.4	-85.6	247	5
2023-09-12T12:00	19606	61	-57.2	-85.4	255	5
2023-09-12T12:00	19634	61	-57.2	-85.4	262	5
2023-09-12T12:00	19654	60	-57.2	-85.4	269	5
2023-09-12T12:00	19680	60	-57.1	-85.3	275	5
2023-09-12T12:00	19703	60	-57.0	-85.7	282	4
2023-09-12T12:00	19725	60	-56.9	-85.6	288	4
2023-09-12T12:00	19749	59	-56.5	-85.3	293	4
2023-09-12T12:00	19777	59	-56.2	-85.1	297	3
2023-09-12T12:00	19796	59	-56.1	-85.0	300	3
2023-09-12T12:00	19822	59	-56.0	-84.9	301	3
2023-09-12T12:00	19845	59	-56.0	-84.9	300	3
2023-09-12T12:00	19872	58	-56.0	-84.9	300	2
2023-09-12T12:00	19896	58	-56.0	-84.9	301	3
2023-09-12T12:00	19922	58	-56.1	-85.0	304	3
2023-09-12T12:00	19945	58	-56.2	-85.1	305	3
2023-09-12T12:00	19975	57	-56.2	-85.1	306	3
2023-09-12T12:00	19996	57	-56.2	-84.6	306	3
2023-09-12T12:00	20018	57	-56.4	-84.8	306	4
2023-09-12T12:00	20043	57	-56.5	-84.9	307	4
2023-09-12T12:00	20069	57	-56.6	-84.9	309	3
2023-09-12T12:00	20093	56	-56.6	-84.9	313	3
2023-09-12T12:00	20116	56	-56.7	-85.0	319	3
2023-09-12T12:00	20136	56	-56.7	-85.0	326	3
2023-09-12T12:00	20162	56	-56.7	-85.0	333	2
2023-09-12T12:00	20187	55	-56.6	-84.9	339	2
2023-09-12T12:00	20216	55	-56.6	-84.9	343	2
2023-09-12T12:00	20238	55	-56.6	-84.9	343	2
2023-09-12T12:00	20265	55	-56.8	-85.1	341	2
2023-09-12T12:00	20291	55	-57.0	-85.2	334	2
2023-09-12T12:00	20316	54	-57.0	-85.2	325	2
2023-09-12T12:00	20339	54	-57.0	-85.2	312	2
2023-09-12T12:00	20366	54	-57.2	-85.4	300	2
2023-09-12T12:00	20391	54	-57.3	-85.5	290	2
2023-09-12T12:00	20412	54	-57.4	-85.6	284	2
2023-09-12T12:00	20438	53	-57.4	-85.6	281	3
2023-09-12T12:00	20466	53	-57.5	-85.6	280	4
2023-09-12T12:00	20488	53	-57.2	-85.4	280	4
2023-09-12T12:00	20510	53	-57.1	-85.3	281	4
2023-09-12T12:00	20541	52	-57.3	-85.5	283	5
2023-09-12T12:00	20559	52	-57.4	-85.6	287	5
2023-09-12T12:00	20583	52	-57.4	-85.6	293	5
2023-09-12T12:00	20610	52	-57.2	-85.8	300	4
2023-09-12T12:00	20631	52	-57.0	-85.7	308	4
2023-09-12T12:00	20654	52	-57.1	-85.7	318	3
2023-09-12T12:00	20684	51	-57.2	-85.8	332	3
2023-09-12T12:00	20707	51	-57.3	-85.9	350	2
2023-09-12T12:00	20733	51	-57.1	-85.7	11	2
2023-09-12T12:00	20760	51	-57.0	-85.7	28	2
2023-09-12T12:00	20781	50	-57.1	-85.7	43	3
2023-09-12T12:00	20803	50	-56.9	-85.6	56	3
2023-09-12T12:00	20829	50	-57.0	-85.7	68	3
2023-09-12T12:00	20854	50	-57.1	-85.7	82	3
2023-09-12T12:00	20875	50	-57.2	-85.4	96	3
2023-09-12T12:00	20900	50	-57.3	-85.5	111	3
2023-09-12T12:00	20923	49	-57.4	-85.6	123	3
2023-09-12T12:00	20946	49	-57.5	-85.6	134	4
2023-09-12T12:00	20969	49	-57.4	-85.6	142	4
2023-09-12T12:00	20997	49	-57.5	-85.6	149	4
2023-09-12T12:00	21016	49	-57.6	-85.7	157	4
2023-09-12T12:00	21040	48	-57.5	-85.6	164	4
2023-09-12T12:00	21064	48	-57.5	-85.6	171	4
2023-09-12T12:00	21086	48	-57.5	-85.6	179	5
2023-09-12T12:00	21110	48	-57.5	-85.6	186	5
2023-09-12T12:00	21133	48	-57.4	-85.6	193	5
2023-09-12T12:00	21157	48	-57.4	-85.6	199	6
2023-09-12T12:00	21181	47	-57.5	-85.6	205	6
2023-09-12T12:00	21206	47	-57.5	-85.6	211	7
2023-09-12T12:00	21232	47	-57.5	-85.6	216	7
2023-09-12T12:00	21252	47	-57.5	-86.1	221	7
2023-09-12T12:00	21280	47	-57.4	-86.0	226	7
2023-09-12T12:00	21297	47	-57.2	-85.8	231	7
2023-09-12T12:00	21323	46	-57.1	-85.7	236	7
2023-09-12T12:00	21348	46	-57.1	-85.7	243	7
2023-09-12T12:00	21375	46	-56.8	-86.0	250	6
2023-09-12T12:00	21397	46	-56.5	-85.8	257	5
2023-09-12T12:00	21424	46	-56.4	-85.7	264	5
2023-09-12T12:00	21442	45	-56.4	-85.7	270	4
2023-09-12T12:00	21471	45	-56.2	-85.5	274	4
2023-09-12T12:00	21494	45	-56.0		275	4
2023-09-12T12:00	21517	45	-55.8	-85.2	274	3
2023-09-12T12:00	21545	45	-55.8	-85.2	271	3
2023-09-12T12:00	21566	45	-55.9	-85.3	268	3
2023-09-12T12:00	21597	44	-56.0		265	3
2023-09-12T12:00	21625	44	-56.1	-85.5	263	4
2023-09-12T12:00	21644	44	-56.0		261	4
2023-09-12T12:00	21673	44	-56.0		258	4
2023-09-12T12:00	21703	44	-56.0		256	4
2023-09-12T12:00	21726	43	-55.9	-85.3	254	4
2023-09-12T12:00	21754	43	-55.7	-85.2	253	5
2023-09-12T12:00	21782	43	-55.7	-85.2	254	5
2023-09-12T12:00	21803	43	-55.8	-85.2	255	5
2023-09-12T12:00	21836	43	-55.9	-84.8	258	5
2023-09-12T12:00	21860	43	-56.1	-85.0	261	5
2023-09-12T12:00	21890	42	-56.2	-85.1	265	6
2023-09-12T12:00	21915	42	-56.3	-85.1	269	6
2023-09-12T12:00	21943	42	-56.5	-85.3	273	6
2023-09-12T12:00	21967	42	-56.7	-85.4	278	6
2023-09-12T12:00	21998	42	-56.8	-85.1	282	6
2023-09-12T12:00	22030	41	-56.9	-85.2	288	6
2023-09-12T12:00	22053	41	-57.0	-85.2	294	6
2023-09-12T12:00	22075	41	-57.0	-85.2	301	5
2023-09-12T12:00	22108	41	-57.1	-85.3	306	5
2023-09-12T12:00	22129	41	-57.3	-85.9	311	5
2023-09-12T12:00	22157	41	-57.2	-85.8	314	4
2023-09-12T12:00	22185	40	-57.0	-85.7	317	4
2023-09-12T12:00	22207	40	-57.0	-85.7	320	3
2023-09-12T12:00	22236	40	-56.9	-85.6	326	3
2023-09-12T12:00	22260	40	-56.8	-85.5	334	3
2023-09-12T12:00	22287	40	-56.8	-85.5	345	3
2023-09-12T12:00	22314	40	-56.8	-85.5	356	3
2023-09-12T12:00	22338	39	-57.0	-85.7	4	3
2023-09-12T12:00	22365	39	-57.0	-85.7	11	3
2023-09-12T12:00	22394	39	-57.0	-85.7	16	3
2023-09-12T12:00	22419	39	-57.0	-85.7	20	3
2023-09-12T12:00	22439	39	-57.1	-85.7	24	2
2023-09-12T12:00	22467	39	-57.3	-85.9	27	2
2023-09-12T12:00	22490	39	-57.4	-86.0	31	2
2023-09-12T12:00	22520	38	-57.3	-85.9	34	1
2023-09-12T12:00	22547	38	-57.3	-85.9	39	1
2023-09-12T12:00	22568	38	-57.3	-85.9	47	1
2023-09-12T12:00	22593	38	-57.2	-85.8	56	1
2023-09-12T12:00	22617	38	-57.3	-85.9	77	1
2023-09-12T12:00	22642	38	-57.3	-85.9	161	0
2023-09-12T12:00	22668	37	-57.3	-85.9	202	1
2023-09-12T12:00	22692	37	-57.2	-85.8	211	1
2023-09-12T12:00	22715	37	-57.1	-85.7	214	2
2023-09-12T12:00	22735	37	-57.1	-85.7	215	2
2023-09-12T12:00	22764	37	-57.0	-85.7	214	2
2023-09-12T12:00	22789	37	-57.0	-85.7	210	2
2023-09-12T12:00	22812	37	-56.8	-86.0	203	2
2023-09-12T12:00	22838	37	-56.8	-86.0	189	1
2023-09-12T12:00	22861	36	-56.8	-86.0	169	1
2023-09-12T12:00	22889	36	-56.7	-85.9	151	1
2023-09-12T12:00	22912	36	-56.6	-85.8	137	1
2023-09-12T12:00	22935	36	-56.5	-85.8	128	2
2023-09-12T12:00	22962	36	-56.6	-85.8	123	2
2023-09-12T12:00	22985	36	-56.6	-85.8	121	2
2023-09-12T12:00	23010	36	-56.6	-85.8	123	3
2023-09-12T12:00	23036	35	-56.5	-85.8	126	4
2023-09-12T12:00	23064	35	-56.4	-85.7	129	5
2023-09-12T12:00	23083	35	-56.2	-85.5	132	5
2023-09-12T12:00	23118	35	-56.2	-85.5	135	6
2023-09-12T12:00	23137	35	-56.4	-85.7	138	6
2023-09-12T12:00	23165	35	-56.5	-85.3	142	6
2023-09-12T12:00	23199	35	-56.6	-85.4	148	6
2023-09-12T12:00	23219	34	-56.7	-85.4	154	6
2023-09-12T12:00	23246	34	-56.8	-85.5	160	6
2023-09-12T12:00	23275	34	-56.9	-85.6	166	6
2023-09-12T12:00	23300	34	-57.0	-85.7	172	6
2023-09-12T12:00	23329	34	-57.2	-85.8	178	6
2023-09-12T12:00	23353	34	-57.2	-85.8	184	6
2023-09-12T12:00	23382	34	-57.3	-85.9	190	6
2023-09-12T12:00	23411	33	-57.2	-85.8	197	5
2023-09-12T12:00	23440	33	-57.1	-85.7	202	5
2023-09-12T12:00	23463	33	-57.0	-85.7	207	5
2023-09-12T12:00	23492	33	-57.1	-85.7	211	4
2023-09-12T12:00	23518	33	-57.0	-86.1	217	4
2023-09-12T12:00	23543	33	-56.9	-86.1	225	3
2023-09-12T12:00	23573	33	-56.9	-86.1	235	3
2023-09-12T12:00	23602	32	-56.9	-86.1	248	3
2023-09-12T12:00	23626	32	-56.9	-86.1	262	2
2023-09-12T12:00	23653	32	-56.7	-85.9	273	2
2023-09-12T12:00	23677	32	-56.5	-85.8	282	2
2023-09-12T12:00	23706	32	-56.1	-86.0	290	2
2023-09-12T12:00	23738	32	-55.9	-85.8	299	1
2023-09-12T12:00	23763	32	-55.9	-85.8	316	1
2023-09-12T12:00	23790	31	-55.9	-85.8	7	0
2023-09-12T12:00	23808	31	-55.9	-85.8	67	1
2023-09-12T12:00	23836	31	-55.9	-85.3	86	1
2023-09-12T12:00	23860	31	-55.8	-85.2	94	2
2023-09-12T12:00	23887	31	-55.8	-85.2	99	2
2023-09-12T12:00	23907	31	-55.9	-85.3	102	3
2023-09-12T12:00	23936	31	-55.8	-85.2	106	3
2023-09-12T12:00	23962	31	-55.6	-85.1	110	4
2023-09-12T12:00	23987	30	-55.7	-85.2	115	4
2023-09-12T12:00	24017	30	-55.7	-85.2	120	5
2023-09-12T12:00	24042	30	-55.7	-85.2	124	5
2023-09-12T12:00	24066	30	-55.8	-85.2	127	6
2023-09-12T12:00	24093	30	-55.8	-85.2	130	6
2023-09-12T12:00	24121	30	-55.7	-85.7	134	6
2023-09-12T12:00	24143	30	-55.5	-85.5	138	6
2023-09-12T12:00	24177	30	-55.2	-85.3	145	6
2023-09-12T12:00	24196	29	-54.8	-85.0	152	6
2023-09-12T12:00	24220	29	-54.5	-85.3	160	6
2023-09-12T12:00	24246	29	-54.4	-85.2	167	6
2023-09-12T12:00	24266	29	-54.3	-85.2	174	6
2023-09-12T12:00	24291	29	-54.2	-85.1	180	7
2023-09-12T12:00	24314	29	-54.0	-84.9	185	7
2023-09-12T12:00	24351	29	-54.0	-84.4	190	7
2023-09-12T12:00	24376	29	-54.2	-84.5	194	7
2023-09-12T12:00	24397	29	-54.3	-84.6	198	7
2023-09-12T12:00	24425	28	-54.2	-84.5	200	6
2023-09-12T12:00	24449	28	-54.1	-84.5	203	6
2023-09-12T12:00	24479	28	-54.1	-84.5	205	5
2023-09-12T12:00	24507	28	-54.1	-84.5	207	5
2023-09-12T12:00	24535	28	-54.1	-84.5	208	5
2023-09-12T12:00	24563	28	-54.2	-84.5	206	5
2023-09-12T12:00	24584	28	-54.3	-84.6	202	4
2023-09-12T12:00	24615	28	-54.3	-84.6	195	4
2023-09-12T12:00	24641	28	-54.3	-84.6	186	4
2023-09-12T12:00	24669	27	-54.1	-84.5	177	4
2023-09-12T12:00	24692	27	-54.2	-84.5	171	4
2023-09-12T12:00	24721	27	-54.2	-84.5	169	4
2023-09-12T12:00	24746	27	-54.2	-84.5	171	4
2023-09-12T12:00	24780	27	-54.2	-84.5	177	4
2023-09-12T12:00	24803	27	-54.3	-84.6	185	4
2023-09-12T12:00	24825	27	-54.4	-84.7	192	5
2023-09-12T12:00	24858	27	-54.4	-84.7	198	5
2023-09-12T12:00	24886	26	-54.5	-84.8	201	5
2023-09-12T12:00	24910	26	-54.7	-84.9	203	5
2023-09-12T12:00	24941	26	-54.8	-85.0	203	5
2023-09-12T12:00	24960	26	-54.7	-84.9	202	5
2023-09-12T12:00	24985	26	-54.8	-85.0	201	5
2023-09-12T12:00	25023	26	-54.7	-84.9	199	5
2023-09-12T12:00	25038	26	-54.6	-84.8	199	5
2023-09-12T12:00	25071	26	-54.6	-84.8	199	5
2023-09-12T12:00	25095	26	-54.5	-84.8	199	5
2023-09-12T12:00	25126	26	-54.5	-84.8	200	5
2023-09-12T12:00	25153	25	-54.4	-85.2	200	5
2023-09-12T12:00	25173	25	-54.2	-85.1	201	5
2023-09-12T12:00	25207	25	-54.0	-84.9	202	5
2023-09-12T12:00	25230	25	-53.8	-84.8	204	5
2023-09-12T12:00	25252	25	-53.6	-84.6	206	5
2023-09-12T12:00	25275	25	-53.4	-84.5	206	5
2023-09-12T12:00	25306	25	-53.3	-84.4	205	5
2023-09-12T12:00	25335	25	-53.4	-84.5	202	5
2023-09-12T12:00	25351	25	-53.5	-84.6	198	5
2023-09-12T12:00	25386	24	-53.5	-84.6	194	5
2023-09-12T12:00	25413	24	-53.6	-84.6	190	5
2023-09-12T12:00	25441	24	-53.8	-84.2	187	5
2023-09-12T12:00	25462	24	-53.9	-84.3	186	5
2023-09-12T12:00	25487	24	-53.9	-84.3	186	5
2023-09-12T12:00	25512	24	-53.8	-84.8	188	5
2023-09-12T12:00	25540	24	-53.6	-84.6	190	5
2023-09-12T12:00	25572	24	-53.6	-84.6	192	5
2023-09-12T12:00	25594	24	-53.7	-84.7	195	5
2023-09-12T12:00	25622	24	-53.8	-84.8	199	5
2023-09-12T12:00	25655	24	-53.7	-84.7	204	6
2023-09-12T12:00	25680	23	-53.7	-84.7	208	6
2023-09-12T12:00	25699	23	-53.6	-84.6	213	7
2023-09-12T12:00	25732	23	-53.5	-84.6	217	7
2023-09-12T12:00	25756	23	-53.5	-84.6	222	7
2023-09-12T12:00	25792	23	-53.5	-84.6	226	7
2023-09-12T12:00	25812	23	-53.4	-84.5	231	8
2023-09-12T12:00	25849	23	-53.3	-84.4	235	8
2023-09-12T12:00	25878	23	-53.0	-84.2	239	8
2023-09-12T12:00	25901	23	-52.8	-84.7	243	8
2023-09-12T12:00	25929	23	-52.8	-84.7	248	8
2023-09-12T12:00	25954	22	-52.7	-84.6	252	8
2023-09-12T12:00	25981	22	-52.7	-84.6	256	8
2023-09-12T12:00	26012	22	-52.5	-84.4	260	7
2023-09-12T12:00	26033	22	-52.3	-84.3	263	7
2023-09-12T12:00	26064	22	-52.1	-84.2	265	6
2023-09-12T12:00	26091	22	-52.0	-84.1	266	6
2023-09-12T12:00	26122	22	-51.7	-83.9	267	6
2023-09-12T12:00	26151	22	-51.5	-83.7	268	6
2023-09-12T12:00	26177	22	-51.4	-83.6	270	5
2023-09-12T12:00	26202	22	-51.2	-83.5	272	5
2023-09-12T12:00	26236	21	-51.1	-83.4	275	5
2023-09-12T12:00	26262	21	-51.1	-83.4	279	5
2023-09-12T12:00	26293	21	-51.0	-83.3	282	5
2023-09-12T12:00	26325	21	-51.1	-83.4	284	5
2023-09-12T12:00	26350	21	-51.2	-83.5	284	5
2023-09-12T12:00	26379	21	-51.3	-83.6	281	4
2023-09-12T12:00	26401	21	-51.4	-83.6	275	4
2023-09-12T12:00	26429	21	-51.5	-83.7	267	4
2023-09-12T12:00	26461	21	-51.4	-83.6	261	4
2023-09-12T12:00	26486	21	-51.3	-83.6	257	5
2023-09-12T12:00	26506	21	-51.1	-83.4	256	5
2023-09-12T12:00	26540	20	-51.1	-83.4	257	6
2023-09-12T12:00	26565	20	-51.0	-83.3	259	6
2023-09-12T12:00	26597	20	-51.0	-83.3	261	6
2023-09-12T12:00	26620	20	-50.9	-83.3	264	6
2023-09-12T12:00	26648	20	-50.9	-83.3	266	6
2023-09-12T12:00	26677	20	-50.9	-83.3	268	6
2023-09-12T12:00	26698	20	-51.0	-83.3	270	6
2023-09-12T12:00	26727	20	-51.0	-83.3	272	5
2023-09-12T12:00	26754	20	-50.9	-83.3	273	5
2023-09-12T12:00	26787	20	-51.0	-83.3	274	5
2023-09-12T12:00	26813	20	-50.9	-83.3	274	5
2023-09-12T12:00	26833	20	-50.8	-83.2	272	5
2023-09-12T12:00	26866	19	-50.6	-83.1	270	5
2023-09-12T12:00	26889	19	-50.5	-83.7	267	5
2023-09-12T12:00	26926	19	-50.5	-83.7	265	5
2023-09-12T12:00	26949	19	-50.6	-83.7	263	6
2023-09-12T12:00	26983	19	-50.5	-83.7	263	6
2023-09-12T12:00	27003	19	-50.4	-83.6	265	6
2023-09-12T12:00	27037	19	-50.2	-83.5	268	6
2023-09-12T12:00	27055	19	-50.0	-83.3	271	7
2023-09-12T12:00	27085	19	-49.8	-83.2	273	7
2023-09-12T12:00	27114	19	-49.7	-83.1	275	6
2023-09-12T12:00	27142	19	-49.6	-83.0	275	6
2023-09-12T12:00	27166	19	-49.4	-82.9	275	6
2023-09-12T12:00	27193	19	-49.4	-82.9	275	5
2023-09-12T12:00	27220	18	-49.3	-82.8	276	5
2023-09-12T12:00	27242	18	-49.3	-82.8	277	4
2023-09-12T12:00	27276	18	-49.3	-82.8	280	4
2023-09-12T12:00	27301	18	-49.4	-82.9	283	3
2023-09-12T12:00	27337	18	-49.5	-82.9	288	2
2023-09-12T12:00	27364	18	-49.6	-83.0	298	1
2023-09-12T12:00	27385	18	-49.6	-83.0	356	0
2023-09-12T12:00	27422	18	-49.5	-82.9	83	1
2023-09-12T12:00	27447	18	-49.5	-82.9	98	1
2023-09-12T12:00	27478	18	-49.4	-82.9	108	2
2023-09-12T12:00	27507	18	-49.2	-82.7	120	2
2023-09-12T12:00	27528	18	-49.1	-82.7	135	2
2023-09-12T12:00	27550	18	-49.1	-82.7	150	3
2023-09-12T12:00	27587	17	-49.0	-82.6	162	3
2023-09-12T12:00	27610	17	-48.9	-82.5	171	4
2023-09-12T12:00	27649	17	-48.8	-82.4	180	4
2023-09-12T12:00	27670	17	-48.8	-82.4	189	4
2023-09-12T12:00	27692	17	-48.7	-82.4	199	4
2023-09-12T12:00	27725	17	-48.6	-82.3	210	4
2023-09-12T12:00	27750	17	-48.5	-82.2	219	4
2023-09-12T12:00	27775	17	-48.5	-82.2	225	4
2023-09-12T12:00	27811	17	-48.5	-82.2	228	5
2023-09-12T12:00	27834	17	-48.6	-82.3	229	5
2023-09-12T12:00	27849	17	-48.6	-82.3	229	5
2023-09-12T12:00	27886	17	-48.8	-82.4	226	5
2023-09-12T12:00	27911	17	-48.8	-82.4	223	6
2023-09-12T12:00	27938	17	-48.7	-82.4	221	6
2023-09-12T12:00	27973	16	-48.7	-82.4	220	6
2023-09-12T12:00	28001	16	-48.5	-82.2	221	6
2023-09-12T12:00	28031	16	-48.3	-82.9	224	6
2023-09-12T12:00	28049	16	-48.2	-82.8	228	6
2023-09-12T12:00	28074	16	-48.3	-82.9	231	6
2023-09-12T12:00	28093	16	-48.4	-82.9	232	6
2023-09-12T12:00	28138	16	-48.4	-82.9	230	6
2023-09-12T12:00	28163	16	-48.3	-82.9	227	7
2023-09-12T12:00	28176	16	-48.1	-82.7	223	7
2023-09-12T12:00	28212	16	-48.1	-82.7	220	7
2023-09-12T12:00	28235	16	-48.1	-82.7	218	8
2023-09-12T12:00	28254	16	-48.1	-82.7	219	8
2023-09-12T12:00	28286	16	-48.1	-82.7	220	8
2023-09-12T12:00	28310	16	-48.0	-82.7	223	8
2023-09-12T12:00	28349	16	-47.9	-82.6	227	8
2023-09-12T12:00	28362	16	-47.9	-82.6	231	9
2023-09-12T12:00	28400	15	-47.9	-82.6	236	9
2023-09-12T12:00	28421	15	-47.9	-82.6	241	9
2023-09-12T12:00	28457	15	-48.0	-82.7	246	9
2023-09-12T12:00	28459	15	-47.9	-82.6	252	9
2023-09-12T12:00	28495	15	-47.9	-82.6	257	9
2023-09-12T12:00	28532	15	-47.8	-82.5	263	9
2023-09-12T12:00	28571	15	-47.2	-82.1	274	8
2023-09-12T12:00	28602	15	-46.8	-81.8	279	8
2023-09-12T12:00	28631	15	-46.8	-81.8	282	7
2023-09-12T12:00	28653	15	-46.8	-81.8	285	6
2023-09-12T12:00	28687	15	-46.8	-81.8	285	5
2023-09-12T12:00	28703	15	-46.6	-81.7	284	5
2023-09-12T12:00	28731	15	-46.5	-81.6	280	4
2023-09-12T12:00	28756	15	-46.6	-81.7	272	4
2023-09-12T12:00	28793	15	-46.7	-81.7	262	4
2023-09-12T12:00	28818	14	-46.7	-81.7	252	4
2023-09-12T12:00	28846	14	-46.7	-81.7	245	5
2023-09-12T12:00	28872	14	-46.7	-81.7	239	5
2023-09-12T12:00	28905	14	-46.6	-81.7	237	5
2023-09-12T12:00	28927	14	-46.6	-81.7	235	6
2023-09-12T12:00	28953	14	-46.5	-81.6	236	6
2023-09-12T12:00	28990	14	-46.5	-81.6	237	5
2023-09-12T12:00	29014	14	-46.4	-81.5	239	5
2023-09-12T12:00	29044	14	-46.4	-81.5	242	4
2023-09-12T12:00	29064	14	-46.5	-81.6	245	4
2023-09-12T12:00	29106	14	-46.6	-81.7	249	4
2023-09-12T12:00	29129	14	-46.6	-81.7	252	4
2023-09-12T12:00	29157	14	-46.6	-81.7	254	4
2023-09-12T12:00	29179	14	-46.6	-81.7	256	5
2023-09-12T12:00	29220	14	-46.6	-81.7	255	5
2023-09-12T12:00	29241	14	-46.7	-81.7	253	6
2023-09-12T12:00	29264	14	-46.7	-81.7	249	6
2023-09-12T12:00	29310	13	-46.9	-81.9	243	7
2023-09-12T12:00	29342	13	-46.9	-81.9	237	7
2023-09-12T12:00	29348	13	-46.8	-81.8	230	7
2023-09-12T12:00	29373	13	-46.7	-81.7	224	7
2023-09-12T12:00	29407	13	-46.7	-81.7	219	7
2023-09-12T12:00	29445	13	-46.6	-81.7	214	7
2023-09-12T12:00	29478	13	-46.7	-81.7	210	7
2023-09-12T12:00	29488	13	-46.8	-81.8	207	7
2023-09-12T12:00	29520	13	-46.9	-81.9	204	7
2023-09-12T12:00	29546	13	-47.0	-81.9	202	7
2023-09-12T12:00	29573	13	-47.0	-81.9	202	7
2023-09-12T12:00	29606	13	-46.8	-82.7	203	8
2023-09-12T12:00	29633	13	-46.6	-82.6	205	8
2023-09-12T12:00	29635	13	-46.3	-82.4	208	9
2023-09-12T12:00	29684	13	-46.1	-82.2	211	9
2023-09-12T12:00	29704	13	-46.1	-82.2	214	9
2023-09-12T12:00	29733	13	-46.1	-82.2	216	10
2023-09-12T12:00	29768	13	-46.1	-82.2	219	10
2023-09-12T12:00	29786	13	-46.2	-82.3	222	11
2023-09-12T12:00	29811	12	-46.3	-82.4	225	11
2023-09-12T12:00	29832	12	-46.2	-82.3	227	12
2023-09-12T12:00	29859	12	-46.1	-82.2	229	12
2023-09-12T12:00	29894	12	-45.9	-82.1	231	13
2023-09-12T12:00	29901	12	-45.6	-81.9	232	13
2023-09-12T12:00	29938	12	-45.3	-81.6	232	13
2023-09-12T12:00	29976	12	-45.0	-81.4	233	13
2023-09-12T12:00	29987	12	-44.9	-81.4	232	13
2023-09-12T12:00	30014	12	-44.9	-81.4	230	13
2023-09-12T12:00	30052	12	-44.9	-81.4	228	13
2023-09-12T12:00	30067	12	-44.9	-81.4	226	12
2023-09-12T12:00	30091	12	-44.9	-81.4	223	12
2023-09-12T12:00	30115	12	-45.0	-81.4	221	12
2023-09-12T12:00	30136	12	-45.1	-81.5	220	12
2023-09-12T12:00	30174	12	-45.1	-81.5	220	12
2023-09-12T12:00	30211	12	-45.1	-81.5	221	12
2023-09-12T12:00	30237	12	-45.0	-81.4	223	12
2023-09-12T12:00	30246	12	-45.1	-81.5	227	12
2023-09-12T12:00	30284	12	-45.1	-81.5	231	13
2023-09-12T12:00	30309	12	-45.1	-81.5	234	13
2023-09-12T12:00	30315	12	-45.1	-81.5	237	13
2023-09-12T12:00	30358	11	-45.1	-81.5	240	14
2023-09-12T12:00	30392	11	-45.2	-81.6	242	14
2023-09-12T12:00	30406	11	-45.2	-81.6	243	15
2023-09-12T12:00	30449	11	-45.3	-81.6	244	15
2023-09-12T12:00	30465	11	-45.3	-81.6	245	16
2023-09-12T12:00	30497	11	-45.0	-81.4	246	16
2023-09-12T12:00	30516	11	-44.5	-82.2	248	16
2023-09-12T12:00	30552	11	-44.2	-82.0	249	16
2023-09-12T12:00	30582	11	-44.0	-81.8	250	15
2023-09-12T12:00	30625	11	-43.8	-81.7	251	15
2023-09-12T12:00	30635	11	-43.5	-81.5	252	14
2023-09-12T12:00	30661	11	-43.2	-81.3	251	14
2023-09-12T12:00	30698	11	-43.0	-81.1	250	13
2023-09-12T12:00	30725	11	-42.9	-81.1	247	12
2023-09-12T12:00	30760	11	-42.9	-81.1	245	12
2023-09-12T12:00	30782	11	-42.9	-81.1	242	12
2023-09-12T12:00	30813	11	-42.9	-81.1	241	12
2023-09-12T12:00	30835	11	-42.8	-81.0	240	12
2023-09-12T12:00	30872	11	-42.7	-80.9	240	12
2023-09-12T12:00	30899	11	-42.8	-81.0	242	13
2023-09-12T12:00	30931	11	-42.9	-81.1	243	13
2023-09-12T12:00	30959	11	-43.1	-81.2	244	14
2023-09-12T12:00	31004	10	-43.3	-81.3	244	14
2023-09-12T12:00	31019	10	-43.4	-81.4	244	15
2023-09-12T12:00	31062	10	-43.5	-81.5	245	15
2023-09-12T12:00	31091	10	-43.6	-81.5	246	15
2023-09-12T12:00	31124	10	-43.6	-81.5	247	15
2023-09-12T12:00	31144	10	-43.7	-81.6	249	15
2023-09-12T12:00	31199	10	-43.7	-81.6	251	15
2023-09-12T12:00	31220	10	-43.7	-81.6	254	15
2023-09-12T12:00	31248	10	-43.8	-81.7	256	15
2023-09-12T12:00	31264	10	-44.0	-81.8	258	15
2023-09-12T12:00	31299	10	-44.0	-81.8	259	15
2023-09-12T12:00	31322	10	-44.0	-81.8	259	15
2023-09-12T12:00	31361	10	-44.0	-81.8	260	15
2023-09-12T12:00	31383	10	-44.0	-81.8	260	15
2023-09-12T12:00	31433	10	-44.0	-81.8	261	14
2023-09-12T12:00	31452	10	-44.0	-81.8	261	14
2023-09-12T12:00	31488	10	-44.0	-81.8	262	14
2023-09-12T12:00	31512	10	-44.0	-81.8	263	14
2023-09-12T12:00	31540	10	-44.0	-81.8	264	14
2023-09-12T12:00	31565	10	-44.1	-81.9	266	14
2023-09-12T12:00	31584	10	-44.1	-81.9	267	14
2023-09-12T12:00	31633	10	-44.1	-81.9	267	14
2023-09-12T12:00	31646	10	-44.1	-81.9	268	14
2023-09-12T12:00	31656	9	-44.0	-81.8	268	14
2023-09-12T12:00	31692	9	-44.0	-81.8	268	13
2023-09-12T12:00	31725	9	-44.2	-82.0	269	13
2023-09-12T12:00	31751	9	-44.1	-81.9	269	12
2023-09-12T12:00	31795	9	-44.1	-81.9	270	11
2023-09-12T12:00	31810	9	-44.0	-81.8	270	10
2023-09-12T12:00	31819	9	-43.9	-81.8	270	10
2023-09-12T12:00	31863	9	-43.9	-81.8	270	9
2023-09-12T12:00	31887	9	-43.9	-81.8	268	8
2023-09-12T12:00	31900	9	-43.7	-81.6	265	8
2023-09-12T12:00	31937	9	-43.6	-81.5	260	7
2023-09-12T12:00	31950	9	-43.5	-81.5	253	7
2023-09-12T12:00	31970	9	-43.5	-81.5	245	7
2023-09-12T12:00	32003	9	-43.5	-81.5	237	7
2023-09-12T12:00	32029	9	-43.2	-81.3	230	7
2023-09-12T12:00	32058	9	-42.9	-81.1	225	8
2023-09-12T12:00	32082	9	-42.7	-80.9	221	9
2023-09-12T12:00	32123	9	-42.4	-80.7	219	10
2023-09-12T12:00	32129	9	-42.3	-80.6	219	10
2023-09-12T12:00	32177	9	-42.4	-80.7	219	11
2023-09-12T12:00	32186	9	-42.4	-80.7	220	12
2023-09-12T12:00	32234	9	-42.2	-80.6	221	13
2023-09-12T12:00	32271	9	-42.1	-80.5	223	13
2023-09-12T12:00	32285	9	-41.9	-80.4	224	13
2023-09-12T12:00	32310	9	-41.7	-80.2	227	13
2023-09-12T12:00	32342	9	-41.7	-80.2	229	13
2023-09-12T12:00	32351	9	-41.6	-80.1	232	13
2023-09-12T12:00	32404	9	-41.5	-80.1	235	13
2023-09-12T12:00	32447	8	-41.4	-80.0	238	13
2023-09-12T12:00	32457	8	-41.3	-79.9	241	12
2023-09-12T12:00	32496	8	-41.1	-79.8	244	12
2023-09-12T12:00	32531	8	-41.0	-79.7	247	12
2023-09-12T12:00	32545	8	-40.9	-79.7	250	12
2023-09-12T12:00	32591	8	-40.8	-79.6	252	11
2023-09-12T12:00	32611	8	-40.6	-79.5	255	11
2023-09-12T12:00	32657	8	-40.4	-79.3	258	11
2023-09-12T12:00	32679	8	-40.2	-79.2	262	11
2023-09-12T12:00	32695	8	-40.1	-79.1	266	11
2023-09-12T12:00	32740	8	-39.9	-79.0	270	10
2023-09-12T12:00	32746	8	-39.5	-78.7	273	10
2023-09-12T12:00	32794	8	-39.2	-78.5	276	9
2023-09-12T12:00	32806	8	-39.2	-78.5	277	9
2023-09-12T12:00	32840	8	-39.1	-78.4	276	8
2023-09-12T12:00	32884	8	-39.0	-78.3	275	8
2023-09-12T12:00	32897	8	-38.8	-78.2	272	8
2023-09-12T12:00	32929	8	-38.8	-78.2	268	8
2023-09-12T12:00	32941	8	-38.9	-78.3	263	8
2023-09-12T12:00	32962	8	-39.0	-78.3	258	8
2023-09-12T12:00	33022	8	-39.1	-78.4	252	8
2023-09-12T12:00	33070	8	-39.3	-78.5	242	9
2023-09-12T12:00	33096	8	-39.3	-78.5	238	9
2023-09-12T12:00	33115	8	-39.2	-78.5	236	10
2023-09-12T12:00	33164	8	-39.3	-78.5	232	11
2023-09-12T12:00	33207	8	-39.4	-78.6	230	11
2023-09-12T12:00	33235	8	-39.5	-78.7	229	11
2023-09-12T12:00	33244	8	-39.6	-78.8	227	12
2023-09-12T12:00	33271	7	-39.6	-78.8	227	13
2023-09-12T12:00	33287	7	-39.5	-78.7	228	13
2023-09-12T12:00	33313	7	-39.4	-78.6	231	13
2023-09-12T12:00	33324	7	-39.2	-78.5	234	14
2023-09-12T12:00	33344	7	-39.1	-78.4	238	14
2023-09-12T12:00	33401	7	-38.9	-78.3	242	14
2023-09-12T12:00	33433	7	-38.7	-78.1	246	14
2023-09-12T12:00	33452	7	-38.6	-78.1	250	14
2023-09-12T12:00	33476	7	-38.2	-77.8	254	15
2023-09-12T12:00	33528	7	-37.9	-77.6	254	15
2023-09-12T12:00	33548	7	-37.5	-77.3	254	15
2023-09-12T18:00	114	998	27.1	13.1	120	2
2023-09-12T18:00	145	995	27.9	11.8	124	2
2023-09-12T18:00	171	992	27.8	11.3	125	2
2023-09-12T18:00	194	989	27.6	11.2	125	2
2023-09-12T18:00	219	987	27.4	11.2	123	2
2023-09-12T18:00	242	984	27.2	11.2	118	2
2023-09-12T18:00	264	982	27.0	11.3	111	2
2023-09-12T18:00	284	979	26.8	11.1	106	2
2023-09-12T18:00	300	977	26.7	11.3	107	2
2023-09-12T18:00	324	975	26.4	11.5	114	1
2023-09-12T18:00	348	972	26.2	11.3	127	1
2023-09-12T18:00	371	970	26.0	11.4	143	1
2023-09-12T18:00	396	967	25.7	11.5	156	1
2023-09-12T18:00	414	965	25.6	11.4	158	1
2023-09-12T18:00	433	963	25.4	11.4	148	1
2023-09-12T18:00	454	961	25.2	11.4	135	1
2023-09-12T18:00	475	958	25.0	11.4	124	1
2023-09-12T18:00	501	956	24.7	11.2	117	1
2023-09-12T18:00	523	953	24.6	11.2	115	1
2023-09-12T18:00	545	951	24.4	11.2	118	1
2023-09-12T18:00	570	948	24.1	11.2	126	1
2023-09-12T18:00	600	945	23.8	11.1	135	1
2023-09-12T18:00	629	942	23.5	11.0	140	1
2023-09-12T18:00	653	939	23.3	10.9	142	1
2023-09-12T18:00	680	936	23.1	10.9	136	1
2023-09-12T18:00	706	933	22.8	11.0	115	0
2023-09-12T18:00	735	930	22.5	10.9	29	0
2023-09-12T18:00	764	927	22.3	11.0	355	1
2023-09-12T18:00	794	924	22.0	10.9	348	1
2023-09-12T18:00	814	922	21.8	11.0	348	1
2023-09-12T18:00	838	919	21.5	11.0	350	1
2023-09-12T18:00	867	916	21.3	11.0	353	1
2023-09-12T18:00	891	914	21.0	10.9	357	1
2023-09-12T18:00	918	911	20.8	10.9	355	1
2023-09-12T18:00	940	908	20.5	10.7	346	0
2023-09-12T18:00	964	906	20.3	10.8	338	0
2023-09-12T18:00	989	903	20.1	10.8	346	0
2023-09-12T18:00	1017	900	19.8	10.7	6	0
2023-09-12T18:00	1044	898	19.5	10.6	25	0
2023-09-12T18:00	1069	895	19.3	10.6	39	1
2023-09-12T18:00	1092	893	19.1	10.6	46	1
2023-09-12T18:00	1114	890	18.9	10.8	44	1
2023-09-12T18:00	1141	888	18.6	10.9	34	1
2023-09-12T18:00	1165	885	18.4	10.9	16	1
2023-09-12T18:00	1189	883	18.2	10.8	356	1
2023-09-12T18:00	1211	880	18.0	11.0	343	1
2023-09-12T18:00	1233	878	17.7	10.7	337	2
2023-09-12T18:00	1258	876	17.5	10.7	337	2
2023-09-12T18:00	1285	873	17.3	10.7	342	2
2023-09-12T18:00	1310	870	17.0	10.6	349	2
2023-09-12T18:00	1330	868	16.9	10.6	355	2
2023-09-12T18:00	1351	866	16.7	10.4	359	3
2023-09-12T18:00	1372	864	16.5	10.4	1	3
2023-09-12T18:00	1391	862	16.4	10.1	1	2
2023-09-12T18:00	1416	860	16.3	9.7	0	2
2023-09-12T18:00	1439	857	16.1	9.1	359	2
2023-09-12T18:00	1458	855	16.0	8.7	356	2
2023-09-12T18:00	1475	853	15.9	8.2	352	1
2023-09-12T18:00	1499	851	15.7	8.2	347	1
2023-09-12T18:00	1522	849	15.5	8.1	342	1
2023-09-12T18:00	1549	846	15.2	8.8	336	1
2023-09-12T18:00	1576	844	15.0	8.6	329	1
2023-09-12T18:00	1595	841	14.8	8.1	321	1
2023-09-12T18:00	1617	839	14.9	6.9	312	1
2023-09-12T18:00	1640	837	14.7	6.8	302	1
2023-09-12T18:00	1661	835	14.5	6.6	291	1
2023-09-12T18:00	1682	833	14.3	6.7	280	1
2023-09-12T18:00	1699	831	14.1	6.5	269	1
2023-09-12T18:00	1716	829	14.0	6.7	259	1
2023-09-12T18:00	1742	827	13.8	6.7	253	1
2023-09-12T18:00	1768	825	13.6	6.2	250	1
2023-09-12T18:00	1786	823	13.4	5.8	250	1
2023-09-12T18:00	1800	821	13.3	5.9	252	1
2023-09-12T18:00	1825	819	13.1	5.8	260	1
2023-09-12T18:00	1856	816	12.9	5.3	276	1
2023-09-12T18:00	1874	814	12.9	3.5	303	1
2023-09-12T18:00	1897	812	12.8	1.5	334	0
2023-09-12T18:00	1916	810	12.7	1.4	5	0
2023-09-12T18:00	1940	808	12.4	2.4	28	0
2023-09-12T18:00	1961	806	12.3	3.1	33	0
2023-09-12T18:00	1979	804	12.2	3.4	348	0
2023-09-12T18:00	2003	802	12.0	2.9	287	1
2023-09-12T18:00	2024	800	12.3	1.9	271	1
2023-09-12T18:00	2047	798	12.4	1.9	262	2
2023-09-12T18:00	2066	796	12.4	2.1	254	3
2023-09-12T18:00	2095	793	12.2	2.0	247	3
2023-09-12T18:00	2115	791	12.1	2.0	242	4
2023-09-12T18:00	2135	789	11.9	1.8	241	4
2023-09-12T18:00	2158	787	11.9	1.3	242	5
2023-09-12T18:00	2182	785	11.8	1.1	245	6
2023-09-12T18:00	2202	783	11.7	0.7	247	6
2023-09-12T18:00	2223	781	12.1	-4.0	248	7
2023-09-12T18:00	2247	779	12.2	-5.2	249	7
2023-09-12T18:00	2274	776	12.2	-5.6	250	7
2023-09-12T18:00	2300	774	12.1	-3.8	251	7
2023-09-12T18:00	2323	772	11.8	1.1	252	7
2023-09-12T18:00	2350	769	11.6	0.8	254	7
2023-09-12T18:00	2379	767	11.4	1.1	258	7
2023-09-12T18:00	2405	764	11.2	1.1	264	7
2023-09-12T18:00	2432	762	11.0	1.2	269	7
2023-09-12T18:00	2460	759	10.8	0.9	274	7
2023-09-12T18:00	2482	757	10.7	1.0	277	7
2023-09-12T18:00	2505	755	10.5	0.7	277	7
2023-09-12T18:00	2530	753	10.4	0.2	276	7
2023-09-12T18:00	2555	751	10.1	0.2	275	7
2023-09-12T18:00	2574	749	9.9	0.0	272	8
2023-09-12T18:00	2606	746	9.7	0.1	270	8
2023-09-12T18:00	2631	744	9.4	-0.1	269	8
2023-09-12T18:00	2658	741	9.2	-0.3	269	8
2023-09-12T18:00	2681	739	8.9	-0.2	269	8
2023-09-12T18:00	2711	737	8.7	-0.4	268	8
2023-09-12T18:00	2734	735	8.4	-0.4	266	8
2023-09-12T18:00	2757	732	8.2	-0.6	263	8
2023-09-12T18:00	2784	730	8.0	-0.8	259	8
2023-09-12T18:00	2810	728	7.9	-1.1	256	9
2023-09-12T18:00	2836	726	7.8	-1.2	255	9
2023-09-12T18:00	2856	724	7.7	-1.4	255	9
2023-09-12T18:00	2876	722	7.6	-1.3	255	9
2023-09-12T18:00	2902	720	7.4	-1.3	256	9
2023-09-12T18:00	2925	718	7.1	-1.5	257	9
2023-09-12T18:00	2949	716	6.9	-1.5	258	9
2023-09-12T18:00	2966	714	6.7	-1.4	259	9
2023-09-12T18:00	2999	711	6.4	-1.5	261	9
2023-09-12T18:00	3030	709	6.1	-1.5	263	10
2023-09-12T18:00	3054	707	5.9	-1.4	264	10
2023-09-12T18:00	3074	705	5.7	-1.5	265	10
2023-09-12T18:00	3096	703	5.5	-1.7	265	10
2023-09-12T18:00	3121	701	5.3	-1.8	264	10
2023-09-12T18:00	3144	699	5.2	-2.2	262	11
2023-09-12T18:00	3168	697	5.0	-2.3	260	11
2023-09-12T18:00	3189	695	4.9	-2.3	258	11
2023-09-12T18:00	3209	693	4.7	-2.3	257	12
2023-09-12T18:00	3234	691	4.6	-2.1	257	12
2023-09-12T18:00	3259	689	4.5	-2.8	257	12
2023-09-12T18:00	3284	687	4.2	-2.3	258	12
2023-09-12T18:00	3306	685	4.0	-2.0	258	11
2023-09-12T18:00	3331	683	3.8	-1.5	257	11
2023-09-12T18:00	3353	681	3.6	-1.3	256	11
2023-09-12T18:00	3376	679	3.5	-1.5	257	11
2023-09-12T18:00	3402	677	3.3	-1.2	258	11
2023-09-12T18:00	3428	675	3.1	-1.2	260	11
2023-09-12T18:00	3454	673	2.9	-1.2	263	11
2023-09-12T18:00	3481	671	2.7	-1.4	266	11
2023-09-12T18:00	3504	669	2.5	-1.3	268	12
2023-09-12T18:00	3525	667	2.3	-1.4	268	12
2023-09-12T18:00	3551	665	2.1	-1.5	267	12
2023-09-12T18:00	3577	663	1.9	-1.6	265	12
2023-09-12T18:00	3602	661	1.7	-1.7	263	12
2023-09-12T18:00	3623	659	1.5	-1.7	262	12
2023-09-12T18:00	3647	657	1.3	-1.8	262	12
2023-09-12T18:00	3676	655	1.1	-1.8	264	12
2023-09-12T18:00	3698	652	0.9	-1.7	266	11
2023-09-12T18:00	3729	650	0.7	-1.9	268	11
2023-09-12T18:00	3752	648	0.5	-2.2	270	11
2023-09-12T18:00	3777	646	0.3	-2.4	271	12
2023-09-12T18:00	3801	644	0.1	-2.5	271	12
2023-09-12T18:00	3826	642	-0.1	-2.5	270	12
2023-09-12T18:00	3851	641	-0.4	-2.7	270	12
2023-09-12T18:00	3870	639	-0.5	-2.7	270	12
2023-09-12T18:00	3892	637	-0.7	-2.8	271	12
2023-09-12T18:00	3918	635	-0.9	-3.2	271	11
2023-09-12T18:00	3944	633	-1.1	-3.2	272	11
2023-09-12T18:00	3971	631	-1.3		271	11
2023-09-12T18:00	3995	629	-1.5	-3.5	271	11
2023-09-12T18:00	4018	627	-1.7	-3.5	270	11
2023-09-12T18:00	4043	625	-2.0	-3.7	271	11
2023-09-12T18:00	4070	623	-2.2	-3.8	271	11
2023-09-12T18:00	4097	621	-2.5	-3.9	272	11
2023-09-12T18:00	4122	619	-2.7	-3.7	272	11
2023-09-12T18:00	4149	617	-3.0	-3.8	273	11
2023-09-12T18:00	4175	615	-3.2	-3.8	272	11
2023-09-12T18:00	4196	613	-3.4	-4.0	271	10
2023-09-12T18:00	4226	611	-3.6	-4.1	269	10
2023-09-12T18:00	4254	609	-3.8	-4.2	266	10
2023-09-12T18:00	4283	607	-4.1	-4.3	263	10
2023-09-12T18:00	4311	604	-4.3	-4.5	261	10
2023-09-12T18:00	4340	602	-4.6	-4.6	258	10
2023-09-12T18:00	4367	600	-4.8	-4.8	257	9
2023-09-12T18:00	4395	598	-5.0	-5.4	257	9
2023-09-12T18:00	4428	595	-5.3	-5.3	258	9
2023-09-12T18:00	4459	593	-5.5	-5.5	259	9
2023-09-12T18:00	4494	591	-5.8	-5.8	262	9
2023-09-12T18:00	4526	588	-6.0	-6.0	264	9
2023-09-12T18:00	4556	586	-6.2	-6.2	267	9
2023-09-12T18:00	4584	584	-6.4	-6.4	269	9
2023-09-12T18:00	4609	582	-6.4	-6.4	269	9
2023-09-12T18:00	4636	580	-6.8	-6.8	266	9
2023-09-12T18:00	4666	578	-7.0	-7.0	262	9
2023-09-12T18:00	4698	575	-6.9	-6.9	256	9
2023-09-12T18:00	4725	573	-7.2	-7.2	251	9
2023-09-12T18:00	4754	571	-7.4	-7.4	247	9
2023-09-12T18:00	4781	569	-7.6	-8.2	245	10
2023-09-12T18:00	4810	567	-7.8	-8.5	244	10
2023-09-12T18:00	4838	565	-7.9	-9.3	244	10
2023-09-12T18:00	4867	563	-8.7	-11.7	244	10
2023-09-12T18:00	4897	561	-9.2	-13.5	244	10
2023-09-12T18:00	4917	559	-9.3	-12.3	242	10
2023-09-12T18:00	4944	557	-8.6	-10.5	240	10
2023-09-12T18:00	4968	556	-8.6	-10.4	240	10
2023-09-12T18:00	4989	554	-8.7	-10.8	240	10
2023-09-12T18:00	5014	552	-8.8	-10.9	241	10
2023-09-12T18:00	5040	550	-8.9	-11.4	242	10
2023-09-12T18:00	5070	548	-9.0	-11.4	243	9
2023-09-12T18:00	5100	546	-9.1	-11.2	243	9
2023-09-12T18:00	5120	545	-9.2	-11.1	242	9
2023-09-12T18:00	5139	543	-9.2	-10.7	239	9
2023-09-12T18:00	5164	542	-9.4		237	9
2023-09-12T18:00	5190	540	-9.4	-11.2	235	10
2023-09-12T18:00	5216	538	-9.6	-11.7	234	10
2023-09-12T18:00	5246	536	-9.8	-12.2	234	10
2023-09-12T18:00	5275	534	-10.0	-12.4	235	11
2023-09-12T18:00	5312	532	-10.2	-12.5	236	11
2023-09-12T18:00	5333	530	-10.4	-12.5	237	10
2023-09-12T18:00	5359	528	-10.6	-12.5	238	10
2023-09-12T18:00	5388	526	-10.8	-12.7	240	10
2023-09-12T18:00	5413	525	-11.0	-12.6	242	10
2023-09-12T18:00	5436	523	-11.2	-12.7	244	9
2023-09-12T18:00	5460	521	-11.3	-12.4	246	9
2023-09-12T18:00	5491	519	-11.6	-12.7	247	10
2023-09-12T18:00	5516	517	-11.8	-12.8	248	10
2023-09-12T18:00	5547	516	-12.0	-13.0	249	10
2023-09-12T18:00	5572	514	-12.3	-13.1	250	10
2023-09-12T18:00	5602	512	-12.5	-13.4	250	10
2023-09-12T18:00	5624	510	-12.7	-13.6	249	10
2023-09-12T18:00	5649	509	-12.9	-14.1	247	10
2023-09-12T18:00	5673	507	-13.1	-14.4	245	11
2023-09-12T18:00	5699	505	-13.3	-14.4	243	11
2023-09-12T18:00	5724	504	-13.5	-14.7	242	11
2023-09-12T18:00	5746	502	-13.6	-14.8	242	11
2023-09-12T18:00	5775	500	-13.8	-14.9	243	10
2023-09-12T18:00	5803	499	-14.0	-15.3	244	10
2023-09-12T18:00	5825	497	-14.2	-15.3	244	10
2023-09-12T18:00	5849	495	-14.4	-15.4	245	10
2023-09-12T18:00	5879	494	-14.6	-15.7	245	10
2023-09-12T18:00	5899	492	-14.7	-15.6	245	10
2023-09-12T18:00	5925	490	-14.9	-16.5	245	10
2023-09-12T18:00	5951	489	-15.1	-17.6	244	10
2023-09-12T18:00	5984	487	-15.3	-17.0	244	10
2023-09-12T18:00	6006	485	-15.4	-17.9	244	11
2023-09-12T18:00	6038	483	-15.7	-18.5	245	11
2023-09-12T18:00	6063	482	-15.9		245	11
2023-09-12T18:00	6096	480	-16.1	-18.3	246	11
2023-09-12T18:00	6127	478	-16.4	-19.2	246	11
2023-09-12T18:00	6154	476	-16.5	-21.3	246	11
2023-09-12T18:00	6190	474	-16.7	-23.5	245	11
2023-09-12T18:00	6219	472	-16.6	-28.2	242	11
2023-09-12T18:00	6251	470	-16.7	-27.9	240	11
2023-09-12T18:00	6287	468	-16.9	-26.9	238	11
2023-09-12T18:00	6311	466	-17.1	-28.0	237	11
2023-09-12T18:00	6339	464	-17.2	-29.3	236	11
2023-09-12T18:00	6366	463	-17.3	-30.3	237	11
2023-09-12T18:00	6394	461	-17.5	-30.4	238	10
2023-09-12T18:00	6427	459	-17.8	-30.8	239	10
2023-09-12T18:00	6452	457	-18.0	-30.6	239	10
2023-09-12T18:00	6481	456	-18.2	-30.1	240	10
2023-09-12T18:00	6504	454	-18.4	-29.9	239	10
2023-09-12T18:00	6528	453	-18.6	-30.1	239	10
2023-09-12T18:00	6548	451	-18.8	-30.2	239	10
2023-09-12T18:00	6574	450	-19.0	-31.2	239	10
2023-09-12T18:00	6598	448	-19.1	-31.7	239	10
2023-09-12T18:00	6622	447	-19.3	-31.3	239	9
2023-09-12T18:00	6649	445	-19.5	-31.0	239	9
2023-09-12T18:00	6674	444	-19.7	-31.0	238	9
2023-09-12T18:00	6701	442	-19.9	-30.6	238	9
2023-09-12T18:00	6728	441	-20.0	-29.9	237	9
2023-09-12T18:00	6755	439	-20.3	-30.0	237	9
2023-09-12T18:00	6783	437	-20.5	-29.0	236	10
2023-09-12T18:00	6813	436	-20.8	-28.6	236	10
2023-09-12T18:00	6843	434	-21.1	-28.0	237	10
2023-09-12T18:00	6869	432	-21.3	-27.5	238	10
2023-09-12T18:00	6900	431	-21.6	-27.4	238	10
2023-09-12T18:00	6927	429	-21.8	-29.0	238	10
2023-09-12T18:00	6953	427	-21.9	-29.3	237	10
2023-09-12T18:00	6976	426	-22.1	-28.8	236	10
2023-09-12T18:00	7001	425	-22.3	-29.7	236	9
2023-09-12T18:00	7027	423	-22.5	-29.1	236	10
2023-09-12T18:00	7058	421	-22.8	-26.2	236	10
2023-09-12T18:00	7084	420	-23.0	-27.1	236	10
2023-09-12T18:00	7108	418	-23.2	-27.2	236	11
2023-09-12T18:00	7135	417	-23.4	-26.9	237	11
2023-09-12T18:00	7165	415	-23.7	-27.2	237	11
2023-09-12T18:00	7188	414	-23.9	-27.4	237	12
2023-09-12T18:00	7218	412	-24.2	-27.4	238	12
2023-09-12T18:00	7255	410	-24.5	-27.5	239	12
2023-09-12T18:00	7277	409	-24.7	-27.5	240	12
2023-09-12T18:00	7300	408	-25.0	-27.6	241	12
2023-09-12T18:00	7324	406	-25.2	-27.5	241	12
2023-09-12T18:00	7350	405	-25.4	-27.3	241	11
2023-09-12T18:00	7378	403	-25.7	-27.1	240	12
2023-09-12T18:00	7398	402	-25.9	-27.1	239	12
2023-09-12T18:00	7422	401	-26.0	-29.1	239	12
2023-09-12T18:00	7446	400	-26.0	-34.8	239	12
2023-09-12T18:00	7466	398	-26.1	-35.1	239	13
2023-09-12T18:00	7489	397	-26.2	-34.7	239	13
2023-09-12T18:00	7513	396	-26.4	-34.7	238	13
2023-09-12T18:00	7532	395	-26.6	-34.6	237	13
2023-09-12T18:00	7555	394	-26.7	-34.4	236	13
2023-09-12T18:00	7578	392	-26.9	-34.3	235	13
2023-09-12T18:00	7600	391	-27.1	-35.2	233	13
2023-09-12T18:00	7625	390	-27.1	-35.1	232	13
2023-09-12T18:00	7646	389	-27.3	-35.0	231	13
2023-09-12T18:00	7670	387	-27.5	-35.1	230	13
2023-09-12T18:00	7695	386	-27.6	-35.0	229	13
2023-09-12T18:00	7726	384	-27.9	-35.5	228	13
2023-09-12T18:00	7744	383	-28.0	-35.5	227	13
2023-09-12T18:00	7765	382	-28.1	-36.1	226	13
2023-09-12T18:00	7785	381	-28.2	-36.4	225	12
2023-09-12T18:00	7807	380	-28.3	-36.5	225	12
2023-09-12T18:00	7826	379	-28.5	-36.7	224	12
2023-09-12T18:00	7848	378	-28.4	-37.6	223	12
2023-09-12T18:00	7865	377	-28.4	-39.1	222	11
2023-09-12T18:00	7886	376	-28.2	-40.7	221	11
2023-09-12T18:00	7906	375	-28.3	-39.2	221	11
2023-09-12T18:00	7928	374	-28.3	-38.2	222	11
2023-09-12T18:00	7951	372	-28.5	-38.7	223	12
2023-09-12T18:00	7973	371	-28.6	-37.6	225	12
2023-09-12T18:00	7995	370	-28.7	-36.4	226	12
2023-09-12T18:00	8014	369	-28.8	-35.6	226	11
2023-09-12T18:00	8034	368	-28.9	-35.3	226	11
2023-09-12T18:00	8059	367	-29.1	-34.1	226	11
2023-09-12T18:00	8092	365	-29.2	-34.8	226	10
2023-09-12T18:00	8120	364	-29.3	-35.6	226	10
2023-09-12T18:00	8145	362	-29.6	-36.1	227	10
2023-09-12T18:00	8169	361	-29.8	-36.0	228	10
2023-09-12T18:00	8194	360	-30.1	-36.1	228	10
2023-09-12T18:00	8216	359	-30.3	-36.7	228	10
2023-09-12T18:00	8237	358	-30.4	-36.6	229	10
2023-09-12T18:00	8259	357	-30.6	-36.6	230	10
2023-09-12T18:00	8285	355	-30.7	-36.4	232	10
2023-09-12T18:00	8309	354	-30.9	-36.3	234	10
2023-09-12T18:00	8335	353	-31.2	-36.5	236	11
2023-09-12T18:00	8355	352	-31.3	-36.6	237	11
2023-09-12T18:00	8378	351	-31.5	-36.8	237	10
2023-09-12T18:00	8400	350	-31.7	-36.8	237	10
2023-09-12T18:00	8420	349	-31.9	-36.8	237	10
2023-09-12T18:00	8441	348	-32.1	-36.7	237	10
2023-09-12T18:00	8465	346	-32.2	-36.5	237	10
2023-09-12T18:00	8487	345	-32.3	-37.0	237	10
2023-09-12T18:00	8513	344	-32.5	-36.6	236	10
2023-09-12T18:00	8533	343	-32.7	-36.5	236	10
2023-09-12T18:00	8559	342	-32.9	-36.9	237	10
2023-09-12T18:00	8583	341	-33.1	-37.1	237	10
2023-09-12T18:00	8611	339	-33.4	-37.2	238	10
2023-09-12T18:00	8640	338	-33.6	-37.5	240	10
2023-09-12T18:00	8665	337	-33.9	-37.6	241	11
2023-09-12T18:00	8692	335	-34.0	-37.4	242	11
2023-09-12T18:00	8714	334	-34.2	-37.5	242	11
2023-09-12T18:00	8738	333	-34.4	-37.7	242	12
2023-09-12T18:00	8763	332	-34.6	-38.0	242	12
2023-09-12T18:00	8787	331	-34.7	-38.3	243	12
2023-09-12T18:00	8815	330	-34.9	-38.9	243	12
2023-09-12T18:00	8841	328	-35.1	-39.2	243	12
2023-09-12T18:00	8866	327	-35.2	-39.2	244	13
2023-09-12T18:00	8893	326	-35.5	-39.2	244	13
2023-09-12T18:00	8920	325	-35.7	-39.4	244	13
2023-09-12T18:00	8944	324	-35.9	-39.5	243	13
2023-09-12T18:00	8971	322	-36.2	-39.6	241	13
2023-09-12T18:00	8996	321	-36.4	-39.7	240	13
2023-09-12T18:00	9023	320	-36.6	-39.8	239	13
2023-09-12T18:00	9048	319	-36.9	-39.8	238	13
2023-09-12T18:00	9074	318	-37.1	-39.6	238	13
2023-09-12T18:00	9102	316	-37.4	-39.8	238	14
2023-09-12T18:00	9127	315	-37.6	-40.1	239	14
2023-09-12T18:00	9153	314	-37.8	-40.7	239	14
2023-09-12T18:00	9177	313	-38.0	-40.6	240	14
2023-09-12T18:00	9207	312	-38.2	-40.7	240	14
2023-09-12T18:00	9231	310	-38.4	-41.5	240	14
2023-09-12T18:00	9260	309	-38.5	-41.5	240	14
2023-09-12T18:00	9287	308	-38.8	-41.4	240	14
2023-09-12T18:00	9312	307	-39.0	-41.5	240	14
2023-09-12T18:00	9338	306	-39.2	-42.0	240	14
2023-09-12T18:00	9360	305	-39.4	-42.0	240	14
2023-09-12T18:00	9386	303	-39.6	-41.9	240	14
2023-09-12T18:00	9411	302	-39.9	-42.0	240	14
2023-09-12T18:00	9437	301	-40.1	-42.1	240	14
2023-09-12T18:00	9463	300	-40.3	-42.3	241	14
2023-09-12T18:00	9492	299	-40.6	-42.6	241	15
2023-09-12T18:00	9517	298	-40.8	-43.0	241	15
2023-09-12T18:00	9542	297	-41.0	-43.2	241	15
2023-09-12T18:00	9569	295	-41.2	-43.1	240	15
2023-09-12T18:00	9601	294	-41.5	-43.4	240	15
2023-09-12T18:00	9629	293	-41.8	-43.8	240	15
2023-09-12T18:00	9654	292	-41.9	-44.1	239	15
2023-09-12T18:00	9679	291	-42.1	-44.5	239	15
2023-09-12T18:00	9701	290	-42.3	-44.9	238	15
2023-09-12T18:00	9726	289	-42.5	-45.1	237	15
2023-09-12T18:00	9747	288	-42.7	-45.3	237	15
2023-09-12T18:00	9769	287	-42.9	-45.3	237	15
2023-09-12T18:00	9790	286	-43.1	-45.5	237	15
2023-09-12T18:00	9811	285	-43.2	-45.9	237	15
2023-09-12T18:00	9835	284	-43.4	-46.7	237	14
2023-09-12T18:00	9856	283	-43.6	-46.9	237	14
2023-09-12T18:00	9874	282	-43.7	-47.0	237	14
2023-09-12T18:00	9896	281	-43.9	-46.9	237	14
2023-09-12T18:00	9917	281	-44.1	-47.2	237	14
2023-09-12T18:00	9938	280	-44.3	-47.5	237	14
2023-09-12T18:00	9957	279	-44.5	-48.0	237	14
2023-09-12T18:00	9978	278	-44.6	-48.0	237	14
2023-09-12T18:00	10001	277	-44.8	-48.0	237	14
2023-09-12T18:00	10020	276	-45.0	-48.5	237	14
2023-09-12T18:00	10041	275	-45.2	-48.6	237	14
2023-09-12T18:00	10064	274	-45.4	-48.7	237	14
2023-09-12T18:00	10085	274	-45.6	-48.9	237	14
2023-09-12T18:00	10111	273	-45.8	-49.1	237	14
2023-09-12T18:00	10132	272	-46.0	-49.8	237	14
2023-09-12T18:00	10156	271	-46.2	-50.2	238	14
2023-09-12T18:00	10179	270	-46.4	-50.3	239	14
2023-09-12T18:00	10199	269	-46.6	-50.5	239	14
2023-09-12T18:00	10219	268	-46.7	-50.6	240	14
2023-09-12T18:00	10244	267	-46.9	-50.6	241	14
2023-09-12T18:00	10262	266	-47.1	-50.6	241	14
2023-09-12T18:00	10282	266	-47.3	-50.8	241	14
2023-09-12T18:00	10303	265	-47.5	-50.9	240	14
2023-09-12T18:00	10323	264	-47.6	-51.0	240	14
2023-09-12T18:00	10347	263	-47.8	-51.2	240	14
2023-09-12T18:00	10370	262	-48.0	-51.6	240	14
2023-09-12T18:00	10400	261	-48.3	-52.0	241	14
2023-09-12T18:00	10425	260	-48.5	-52.4	241	14
2023-09-12T18:00	10446	259	-48.7	-52.4	241	14
2023-09-12T18:00	10467	258	-48.9	-52.3	241	14
2023-09-12T18:00	10487	257	-49.0	-52.5	241	14
2023-09-12T18:00	10507	257	-49.2	-52.8	241	14
2023-09-12T18:00	10527	256	-49.4	-52.9	240	14
2023-09-12T18:00	10548	255	-49.6	-53.0	240	14
2023-09-12T18:00	10569	254	-49.7	-53.1	240	14
2023-09-12T18:00	10590	253	-49.9	-53.3	240	14
2023-09-12T18:00	10609	253	-50.1	-53.3	240	14
2023-09-12T18:00	10629	252	-50.3	-53.5	240	14
2023-09-12T18:00	10649	251	-50.4	-53.8	240	14
2023-09-12T18:00	10673	250	-50.6	-54.1	240	14
2023-09-12T18:00	10692	249	-50.7	-54.3	240	14
2023-09-12T18:00	10715	249	-50.9	-54.4	240	14
2023-09-12T18:00	10734	248	-51.1	-54.6	240	14
2023-09-12T18:00	10755	247	-51.2	-54.8	240	14
2023-09-12T18:00	10776	246	-51.4	-54.9	241	14
2023-09-12T18:00	10796	246	-51.6	-54.9	241	14
2023-09-12T18:00	10816	245	-51.8	-55.2	242	14
2023-09-12T18:00	10834	244	-52.0	-55.6	242	14
2023-09-12T18:00	10856	243	-52.1	-55.9	242	14
2023-09-12T18:00	10877	243	-52.3	-56.4	242	14
2023-09-12T18:00	10897	242	-52.4	-57.1	242	14
2023-09-12T18:00	10917	241	-52.4	-57.6	241	14
2023-09-12T18:00	10938	240	-52.5	-57.8	241	14
2023-09-12T18:00	10957	240	-52.7	-57.7	241	14
2023-09-12T18:00	10978	239	-52.9	-57.7	241	14
2023-09-12T18:00	10997	238	-53.0	-57.6	241	14
2023-09-12T18:00	11018	237	-53.2	-57.5	241	14
2023-09-12T18:00	11038	237	-53.4	-57.6	241	14
2023-09-12T18:00	11058	236	-53.6	-58.0	242	14
2023-09-12T18:00	11079	235	-53.7	-58.4	242	14
2023-09-12T18:00	11099	234	-53.8	-58.7	243	14
2023-09-12T18:00	11122	233	-54.0	-58.9	244	14
2023-09-12T18:00	11140	233	-54.2	-59.0	244	14
2023-09-12T18:00	11162	232	-54.4	-59.0	245	14
2023-09-12T18:00	11183	231	-54.6	-59.1	246	14
2023-09-12T18:00	11204	230	-54.7	-59.2	246	14
2023-09-12T18:00	11226	230	-54.9	-59.2	247	14
2023-09-12T18:00	11248	229	-55.0	-58.9	248	14
2023-09-12T18:00	11269	228	-55.2	-58.8	248	14
2023-09-12T18:00	11291	227	-55.3	-59.0	248	14
2023-09-12T18:00	11315	227	-55.5	-59.3	248	14
2023-09-12T18:00	11334	226	-55.7	-59.5	248	13
2023-09-12T18:00	11355	225	-55.9	-59.6	248	13
2023-09-12T18:00	11378	224	-56.0	-59.7	247	13
2023-09-12T18:00	11400	224	-56.1	-60.0	247	12
2023-09-12T18:00	11421	223	-56.2	-60.4	246	12
2023-09-12T18:00	11444	222	-56.3	-60.7	245	11
2023-09-12T18:00	11464	221	-56.4	-60.8	242	11
2023-09-12T18:00	11484	221	-56.3	-60.6	238	11
2023-09-12T18:00	11511	220	-56.4	-60.6	235	11
2023-09-12T18:00	11535	219	-56.3	-60.6	232	11
2023-09-12T18:00	11559	218	-56.2	-60.7	230	11
2023-09-12T18:00	11584	217	-56.3	-61.2	230	12
2023-09-12T18:00	11606	216	-56.4	-61.4	229	12
2023-09-12T18:00	11628	216	-56.6	-61.4	229	13
2023-09-12T18:00	11650	215	-56.7	-61.3	229	13
2023-09-12T18:00	11671	214	-56.9	-61.3	228	13
2023-09-12T18:00	11692	213	-57.1	-61.4	228	13
2023-09-12T18:00	11713	213	-57.1	-61.7	228	14
2023-09-12T18:00	11734	212	-56.9	-62.3	229	14
2023-09-12T18:00	11754	211	-56.5	-63.0	230	14
2023-09-12T18:00	11775	211	-56.4	-63.5	231	14
2023-09-12T18:00	11795	210	-56.5	-63.6	232	14
2023-09-12T18:00	11815	209	-56.7	-63.6	232	15
2023-09-12T18:00	11835	209	-56.8	-63.5	233	15
2023-09-12T18:00	11855	208	-57.0	-63.6	234	16
2023-09-12T18:00	11876	207	-57.1	-63.7	234	16
2023-09-12T18:00	11896	207	-57.2	-64.0	235	17
2023-09-12T18:00	11916	206	-57.1	-64.4	236	17
2023-09-12T18:00	11937	205	-56.9	-64.8	237	17
2023-09-12T18:00	11959	205	-57.0	-65.1	237	18
2023-09-12T18:00	11980	204	-57.0	-65.1	238	18
2023-09-12T18:00	11999	203	-57.0	-65.2	239	18
2023-09-12T18:00	12018	203	-57.1	-65.5	239	18
2023-09-12T18:00	12036	202	-57.2	-66.1	240	18
2023-09-12T18:00	12060	201	-56.9		240	17
2023-09-12T18:00	12080	201	-56.9	-67.4	240	17
2023-09-12T18:00	12101	200	-56.9	-67.7	239	17
2023-09-12T18:00	12121	199	-57.0	-67.8	239	16
2023-09-12T18:00	12141	199	-57.1	-67.8	239	16
2023-09-12T18:00	12162	198	-57.3	-68.1	238	16
2023-09-12T18:00	12181	198	-57.3		238	16
2023-09-12T18:00	12204	197	-56.8	-69.1	237	16
2023-09-12T18:00	12224	196	-56.7	-69.9	237	16
2023-09-12T18:00	12243	196	-56.5	-70.4	237	16
2023-09-12T18:00	12263	195	-56.6	-70.8	237	16
2023-09-12T18:00	12284	194	-56.5	-71.3	237	16
2023-09-12T18:00	12301	194	-56.1	-71.6	238	17
2023-09-12T18:00	12323	193	-56.1	-72.1	239	17
2023-09-12T18:00	12343	193	-56.2	-72.2	239	17
2023-09-12T18:00	12363	192	-56.2	-72.1	241	17
2023-09-12T18:00	12383	191	-56.3	-72.1	242	17
2023-09-12T18:00	12403	191	-56.4	-72.1	243	17
2023-09-12T18:00	12425	190	-56.5	-72.1	244	17
2023-09-12T18:00	12445	190	-56.6	-72.2	245	16
2023-09-12T18:00	12465	189	-56.6	-72.4	246	16
2023-09-12T18:00	12486	188	-56.3	-72.3	246	16
2023-09-12T18:00	12506	188	-56.4	-72.7	245	15
2023-09-12T18:00	12526	187	-56.4	-72.8	244	15
2023-09-12T18:00	12547	187	-56.5	-73.0	242	14
2023-09-12T18:00	12567	186	-56.4	-73.3	241	14
2023-09-12T18:00	12587	185	-56.2	-73.7	239	14
2023-09-12T18:00	12608	185	-56.0	-74.0	238	14
2023-09-12T18:00	12629	184	-55.8	-74.2	238	14
2023-09-12T18:00	12649	184	-55.7	-74.4	239	14
2023-09-12T18:00	12669	183	-55.7	-74.4	240	14
2023-09-12T18:00	12688	182	-55.7	-74.2	241	14
2023-09-12T18:00	12709	182	-55.6	-73.8	243	14
2023-09-12T18:00	12733	181	-55.6	-73.7	245	14
2023-09-12T18:00	12751	181	-55.8	-74.2	247	14
2023-09-12T18:00	12774	180	-55.8	-75.0	248	14
2023-09-12T18:00	12795	179	-55.9	-76.0	249	14
2023-09-12T18:00	12816	179	-56.1	-77.0	250	14
2023-09-12T18:00	12836	178	-56.2	-77.6	251	14
2023-09-12T18:00	12859	178	-56.3	-77.8	252	14
2023-09-12T18:00	12879	177	-56.4	-77.8	253	14
2023-09-12T18:00	12899	176	-56.4	-77.7	253	14
2023-09-12T18:00	12922	176	-56.5	-77.6	252	14
2023-09-12T18:00	12942	175	-56.6	-77.5	251	14
2023-09-12T18:00	12965	175	-56.6	-77.5	249	14
2023-09-12T18:00	12985	174	-56.4	-77.3	246	13
2023-09-12T18:00	13005	174	-56.3	-76.9	244	13
2023-09-12T18:00	13027	173	-55.9	-76.6	242	14
2023-09-12T18:00	13049	172	-56.0	-76.8	241	14
2023-09-12T18:00	13071	172	-56.1	-77.0	239	14
2023-09-12T18:00	13090	171	-56.2	-77.2	238	14
2023-09-12T18:00	13111	171	-56.3	-77.4	238	14
2023-09-12T18:00	13133	170	-56.4	-77.5	239	14
2023-09-12T18:00	13156	169	-56.3	-77.4	241	13
2023-09-12T18:00	13178	169	-56.4	-77.4	243	13
2023-09-12T18:00	13201	168	-56.3	-77.2	245	13
2023-09-12T18:00	13224	168	-56.4	-77.1	247	13
2023-09-12T18:00	13246	167	-56.6	-77.3	248	13
2023-09-12T18:00	13267	167	-56.7	-77.3	248	13
2023-09-12T18:00	13289	166	-56.6	-77.0	247	13
2023-09-12T18:00	13310	165	-56.7	-77.1	247	13
2023-09-12T18:00	13336	165	-56.7	-77.3	247	13
2023-09-12T18:00	13358	164	-56.5	-77.5	248	13
2023-09-12T18:00	13379	164	-56.4	-77.8	249	12
2023-09-12T18:00	13398	163	-56.4	-78.1	250	12
2023-09-12T18:00	13421	163	-56.4	-78.2	250	12
2023-09-12T18:00	13443	162	-56.3	-78.4	249	12
2023-09-12T18:00	13464	161	-56.1	-78.3	247	12
2023-09-12T18:00	13486	161	-56.2	-78.4	245	12
2023-09-12T18:00	13514	160	-56.4	-78.2	244	12
2023-09-12T18:00	13534	160	-56.6	-78.1	242	12
2023-09-12T18:00	13556	159	-56.8	-78.1	240	12
2023-09-12T18:00	13579	159	-57.0	-78.0	239	12
2023-09-12T18:00	13600	158	-57.1	-78.0	237	12
2023-09-12T18:00	13622	157	-57.3	-78.0	235	13
2023-09-12T18:00	13645	157	-57.5	-78.0	233	13
2023-09-12T18:00	13666	156	-57.6	-78.0	231	13
2023-09-12T18:00	13686	156	-57.8	-78.0	230	13
2023-09-12T18:00	13708	155	-58.0	-78.2	230	14
2023-09-12T18:00	13730	155	-58.1	-78.4	230	14
2023-09-12T18:00	13751	154	-57.8	-78.4	231	14
2023-09-12T18:00	13772	154	-57.8	-78.7	233	15
2023-09-12T18:00	13791	153	-57.8	-78.8	235	15
2023-09-12T18:00	13812	153	-57.9	-78.9	237	15
2023-09-12T18:00	13832	152	-58.0	-79.0	239	15
2023-09-12T18:00	13852	152	-58.0	-79.0	241	16
2023-09-12T18:00	13872	151	-58.1	-79.0	242	16
2023-09-12T18:00	13895	151	-58.2	-79.1	244	16
2023-09-12T18:00	13917	150	-58.3	-79.1	245	16
2023-09-12T18:00	13939	150	-58.4		247	16
2023-09-12T18:00	13958	149	-58.5	-79.2	248	16
2023-09-12T18:00	13979	149	-58.7	-79.3	249	16
2023-09-12T18:00	13999	148	-58.9	-79.4	251	16
2023-09-12T18:00	14020	148	-58.8	-79.5	252	16
2023-09-12T18:00	14041	147	-58.7	-79.5	253	16
2023-09-12T18:00	14062	147	-58.4	-79.4	254	15
2023-09-12T18:00	14083	146	-58.4	-79.6	254	14
2023-09-12T18:00	14103	146	-58.5	-79.6	254	14
2023-09-12T18:00	14126	145	-58.6	-79.9	253	13
2023-09-12T18:00	14148	145	-58.6	-79.9	251	12
2023-09-12T18:00	14177	144	-58.1	-79.7	250	11
2023-09-12T18:00	14199	144	-57.9	-79.7	248	10
2023-09-12T18:00	14219	143	-57.9	-79.9	246	10
2023-09-12T18:00	14240	143	-57.9	-80.0	245	10
2023-09-12T18:00	14262	142	-57.8	-80.1	243	11
2023-09-12T18:00	14283	142	-57.8	-80.3	242	11
2023-09-12T18:00	14307	141	-57.7	-80.4	240	12
2023-09-12T18:00	14326	141	-57.7	-80.6	239	12
2023-09-12T18:00	14348	140	-57.6	-80.7	238	12
2023-09-12T18:00	14372	140	-57.7	-80.7	237	13
2023-09-12T18:00	14394	139	-57.8	-80.8	236	13
2023-09-12T18:00	14415	139	-57.8	-80.8	237	13
2023-09-12T18:00	14439	138	-57.7	-80.7	238	13
2023-09-12T18:00	14459	138	-57.9	-81.1	239	14
2023-09-12T18:00	14481	137	-58.0	-81.2	241	14
2023-09-12T18:00	14503	137	-58.1	-81.2	243	14
2023-09-12T18:00	14526	136	-58.0	-81.2	245	14
2023-09-12T18:00	14545	136	-58.0	-81.2	246	13
2023-09-12T18:00	14568	136	-58.0	-81.2	246	13
2023-09-12T18:00	14590	135	-58.0	-81.2	246	13
2023-09-12T18:00	14611	135	-57.9	-81.1	245	13
2023-09-12T18:00	14630	134	-57.9	-81.1	244	13
2023-09-12T18:00	14651	134	-58.0	-81.2	243	13
2023-09-12T18:00	14672	133	-58.1	-81.1	244	13
2023-09-12T18:00	14692	133	-58.2	-81.1	246	13
2023-09-12T18:00	14713	132	-58.2	-81.1	248	14
2023-09-12T18:00	14733	132	-58.3	-81.2	251	14
2023-09-12T18:00	14754	132	-58.5	-81.4	254	14
2023-09-12T18:00	14773	131	-58.4	-81.5	257	15
2023-09-12T18:00	14796	131	-58.3	-81.4	260	15
2023-09-12T18:00	14817	130	-58.3	-81.4	263	15
2023-09-12T18:00	14836	130	-58.0	-81.4	266	15
2023-09-12T18:00	14858	129	-58.0	-81.4	268	15
2023-09-12T18:00	14878	129	-58.0	-81.5	270	15
2023-09-12T18:00	14897	129	-58.1	-81.6	272	15
2023-09-12T18:00	14919	128	-57.9	-81.7	274	14
2023-09-12T18:00	14939	128	-57.9	-81.7	275	14
2023-09-12T18:00	14960	127	-57.9	-81.9	276	13
2023-09-12T18:00	14981	127	-57.6	-81.6	276	13
2023-09-12T18:00	15001	126	-57.4	-81.7	277	12
2023-09-12T18:00	15023	126	-57.5	-81.8	277	11
2023-09-12T18:00	15044	126	-57.4	-81.7	278	10
2023-09-12T18:00	15066	125	-57.4	-81.7	278	10
2023-09-12T18:00	15087	125	-57.4	-81.7	279	10
2023-09-12T18:00	15108	124	-57.6	-81.9	280	9
2023-09-12T18:00	15130	124	-57.7		282	9
2023-09-12T18:00	15150	124	-57.9	-82.1	285	9
2023-09-12T18:00	15173	123	-58.0	-82.2	288	8
2023-09-12T18:00	15193	123	-57.5	-82.0	290	8
2023-09-12T18:00	15214	122	-57.4	-81.9	292	8
2023-09-12T18:00	15236	122	-57.5	-82.0	292	8
2023-09-12T18:00	15256	121	-57.6	-82.1	291	8
2023-09-12T18:00	15278	121	-57.6	-82.1	288	8
2023-09-12T18:00	15299	121	-57.7	-82.2	285	8
2023-09-12T18:00	15321	120	-57.9	-82.1	281	7
2023-09-12T18:00	15341	120	-58.1	-82.3	278	7
2023-09-12T18:00	15363	119	-58.2	-82.3	275	7
2023-09-12T18:00	15384	119	-58.4	-82.5	274	7
2023-09-12T18:00	15406	119	-58.4	-82.5	274	6
2023-09-12T18:00	15430	118	-58.2	-82.3	274	6
2023-09-12T18:00	15448	118	-58.1	-82.3	273	6
2023-09-12T18:00	15470	117	-58.2	-82.3	272	6
2023-09-12T18:00	15494	117	-58.4	-82.5	269	5
2023-09-12T18:00	15516	117	-58.6	-82.4	267	6
2023-09-12T18:00	15538	116	-58.8	-82.6	266	6
2023-09-12T18:00	15562	116	-59.0	-82.8	266	6
2023-09-12T18:00	15584	115	-58.9	-82.5	268	7
2023-09-12T18:00	15606	115	-59.0	-82.5	271	7
2023-09-12T18:00	15629	114	-59.1	-82.6	273	7
2023-09-12T18:00	15652	114	-59.3	-82.8	275	8
2023-09-12T18:00	15673	114	-59.3	-82.8	277	8
2023-09-12T18:00	15698	113	-59.0	-82.8	278	8
2023-09-12T18:00	15719	113	-59.0	-82.8	279	8
2023-09-12T18:00	15742	112	-58.9	-82.9	280	7
2023-09-12T18:00	15767	112	-58.8	-82.8	280	7
2023-09-12T18:00	15793	112	-58.9	-82.9	279	6
2023-09-12T18:00	15815	111	-58.9	-82.9	277	5
2023-09-12T18:00	15838	111	-58.9	-82.9	274	5
2023-09-12T18:00	15860	110	-59.0	-83.0	269	4
2023-09-12T18:00	15880	110	-59.0	-83.0	264	4
2023-09-12T18:00	15902	110	-59.1	-83.0	258	4
2023-09-12T18:00	15927	109	-59.0	-82.8	252	4
2023-09-12T18:00	15945	109	-59.1	-82.8	248	5
2023-09-12T18:00	15968	108	-59.3	-83.0	245	5
2023-09-12T18:00	15989	108	-59.4		244	6
2023-09-12T18:00	16010	108	-59.4		245	6
2023-09-12T18:00	16031	107	-59.4		247	7
2023-09-12T18:00	16053	107	-59.5	-83.1	251	7
2023-09-12T18:00	16074	107	-59.6	-83.2	255	8
2023-09-12T18:00	16094	106	-59.5	-83.1	259	8
2023-09-12T18:00	16118	106	-59.3	-83.2	262	8
2023-09-12T18:00	16139	106	-59.0	-83.2	265	8
2023-09-12T18:00	16159	105	-58.7	-83.2	267	8
2023-09-12T18:00	16183	105	-58.4	-83.2	267	8
2023-09-12T18:00	16208	104	-57.9	-82.8	266	8
2023-09-12T18:00	16229	104	-57.9	-82.8	265	8
2023-09-12T18:00	16250	104	-58.1	-83.0	263	7
2023-09-12T18:00	16275	103	-58.4	-83.2	260	7
2023-09-12T18:00	16298	103	-58.6	-83.1	258	7
2023-09-12T18:00	16319	103	-58.7	-83.2	257	7
2023-09-12T18:00	16341	102	-58.9	-83.3	256	8
2023-09-12T18:00	16365	102	-58.9	-83.3	256	8
2023-09-12T18:00	16387	101	-58.8	-83.3	257	8
2023-09-12T18:00	16406	101	-58.8	-83.3	258	9
2023-09-12T18:00	16427	101	-58.8	-83.3	260	9
2023-09-12T18:00	16452	100	-59.0	-83.4	261	9
2023-09-12T18:00	16472	100	-59.1	-83.5	264	9
2023-09-12T18:00	16495	100	-59.2	-83.6	267	8
2023-09-12T18:00	16517	99	-58.9	-83.6	270	8
2023-09-12T18:00	16541	99	-58.7	-83.4	273	8
2023-09-12T18:00	16562	99	-58.5	-83.5	276	8
2023-09-12T18:00	16583	98	-58.4	-83.4	278	8
2023-09-12T18:00	16608	98	-58.2	-83.5	281	8
2023-09-12T18:00	16629	98	-58.3	-83.6	284	8
2023-09-12T18:00	16649	97	-58.3	-83.6	286	8
2023-09-12T18:00	16670	97	-57.9	-83.3	289	7
2023-09-12T18:00	16693	97	-57.8	-83.2	290	7
2023-09-12T18:00	16715	96	-57.9	-83.3	289	7
2023-09-12T18:00	16739	96	-58.0	-83.4	287	7
2023-09-12T18:00	16761	96	-58.0	-83.4	285	7
2023-09-12T18:00	16782	95	-58.0	-83.1	281	6
2023-09-12T18:00	16804	95	-58.0	-83.1	277	6
2023-09-12T18:00	16831	95	-58.1	-83.2	274	6
2023-09-12T18:00	16849	94	-58.3	-83.1	270	6
2023-09-12T18:00	16875	94	-58.5	-83.3	266	6
2023-09-12T18:00	16899	94	-58.6	-83.3	263	6
2023-09-12T18:00	16920	93	-58.7	-83.2	260	6
2023-09-12T18:00	16942	93	-58.9	-83.3	258	6
2023-09-12T18:00	16967	93	-59.0	-83.4	257	7
2023-09-12T18:00	16989	92	-59.2	-83.6	257	7
2023-09-12T18:00	17011	92	-59.4	-83.7	257	7
2023-09-12T18:00	17035	92	-59.5	-83.8	258	8
2023-09-12T18:00	17057	91	-59.5	-83.8	259	8
2023-09-12T18:00	17079	91	-59.5	-83.8	261	8
2023-09-12T18:00	17100	91	-59.6	-83.9	262	8
2023-09-12T18:00	17122	90	-59.4	-83.7	263	8
2023-09-12T18:00	17146	90	-59.4	-84.0	265	8
2023-09-12T18:00	17168	90	-59.4	-84.0	267	8
2023-09-12T18:00	17188	89	-59.4	-84.0	269	8
2023-09-12T18:00	17211	89	-59.4	-84.2	271	7
2023-09-12T18:00	17234	89	-59.2	-84.1	274	7
2023-09-12T18:00	17257	88	-59.0	-83.9	276	7
2023-09-12T18:00	17280	88	-59.0	-84.2	279	7
2023-09-12T18:00	17301	88	-58.8	-84.0	281	7
2023-09-12T18:00	17321	87	-58.4	-84.0	283	7
2023-09-12T18:00	17345	87	-58.5	-84.0	287	6
2023-09-12T18:00	17369	87	-58.2	-83.8	290	6
2023-09-12T18:00	17392	86	-58.3	-83.9	294	6
2023-09-12T18:00	17414	86	-58.3	-83.9	297	6
2023-09-12T18:00	17434	86	-58.3	-83.9	297	5
2023-09-12T18:00	17458	86	-58.4	-84.0	296	6
2023-09-12T18:00	17481	85	-58.3	-83.9	293	6
2023-09-12T18:00	17501	85	-58.5	-84.0	290	6
2023-09-12T18:00	17522	85	-58.6	-84.1	287	6
2023-09-12T18:00	17543	84	-58.8	-84.3	286	7
2023-09-12T18:00	17567	84	-58.8	-84.3	285	7
2023-09-12T18:00	17587	84	-58.8	-84.3	285	7
2023-09-12T18:00	17611	84	-58.8	-84.3	286	7
2023-09-12T18:00	17630	83	-58.7	-84.5	288	6
2023-09-12T18:00	17649	83	-58.7	-84.5	289	6
2023-09-12T18:00	17675	83	-58.7	-84.5	289	6
2023-09-12T18:00	17696	82	-58.4	-84.6	289	6
2023-09-12T18:00	17719	82	-58.2	-84.4	288	5
2023-09-12T18:00	17739	82	-58.3	-84.5	287	5
2023-09-12T18:00	17766	81	-58.3	-84.5	285	5
2023-09-12T18:00	17785	81	-58.1	-84.3	283	5
2023-09-12T18:00	17807	81	-58.1	-84.3	279	4
2023-09-12T18:00	17830	81	-58.1	-84.3	274	4
2023-09-12T18:00	17854	80	-58.2	-84.4	270	4
2023-09-12T18:00	17877	80	-58.3	-84.5	268	4
2023-09-12T18:00	17901	80	-58.5	-84.3	266	4
2023-09-12T18:00	17922	79	-58.6	-84.4	266	5
2023-09-12T18:00	17949	79	-58.5	-84.3	266	5
2023-09-12T18:00	17972	79	-58.4	-84.6	266	5
2023-09-12T18:00	17993	79	-58.3	-84.5	267	6
2023-09-12T18:00	18018	78	-58.3	-84.5	269	6
2023-09-12T18:00	18045	78	-58.4	-84.6	270	6
2023-09-12T18:00	18067	78	-58.4	-84.6	272	7
2023-09-12T18:00	18092	77	-58.4	-84.6	274	7
2023-09-12T18:00	18117	77	-58.5	-84.6	275	8
2023-09-12T18:00	18146	77	-58.5	-84.6	277	8
2023-09-12T18:00	18170	76	-58.5	-84.6	280	8
2023-09-12T18:00	18196	76	-58.5	-84.6	284	8
2023-09-12T18:00	18221	76	-58.4	-84.6	288	8
2023-09-12T18:00	18244	75	-58.3	-84.8	292	8
2023-09-12T18:00	18271	75	-58.1	-84.6	297	8
2023-09-12T18:00	18295	75	-58.0	-84.9	301	8
2023-09-12T18:00	18320	75	-57.8	-84.7	304	8
2023-09-12T18:00	18345	74	-57.5	-84.5	307	7
2023-09-12T18:00	18373	74	-57.3	-84.4	310	7
2023-09-12T18:00	18398	74	-57.3	-84.4	312	6
2023-09-12T18:00	18423	73	-57.2	-84.3	314	5
2023-09-12T18:00	18451	73	-57.4	-84.1	315	5
2023-09-12T18:00	18474	73	-57.6	-84.3	316	4
2023-09-12T18:00	18502	72	-57.8	-84.1	315	4
2023-09-12T18:00	18525	72	-58.1	-84.3	312	3
2023-09-12T18:00	18552	72	-58.3	-84.5	305	3
2023-09-12T18:00	18574	72	-58.4	-84.3	294	2
2023-09-12T18:00	18600	71	-58.6	-84.4	279	2
2023-09-12T18:00	18623	71	-58.7	-84.5	266	2
2023-09-12T18:00	18643	71	-58.8	-84.9	256	2
2023-09-12T18:00	18668	71	-58.6	-84.7	250	2
2023-09-12T18:00	18689	70	-58.6	-84.7	246	3
2023-09-12T18:00	18713	70	-58.5	-84.9	244	3
2023-09-12T18:00	18734	70	-58.5	-84.9	243	3
2023-09-12T18:00	18761	70	-58.2	-84.7	244	4
2023-09-12T18:00	18782	69	-58.0	-84.6	245	4
2023-09-12T18:00	18805	69	-58.0	-84.6	248	4
2023-09-12T18:00	18829	69	-58.0	-84.6	251	4
2023-09-12T18:00	18848	69	-58.1	-84.6	254	4
2023-09-12T18:00	18871	68	-58.2	-84.7	256	4
2023-09-12T18:00	18895	68	-58.4	-84.9	257	4
2023-09-12T18:00	18918	68	-58.4	-84.9	258	5
2023-09-12T18:00	18941	68	-58.2	-84.7	259	5
2023-09-12T18:00	18964	67	-58.1	-84.6	259	5
2023-09-12T18:00	18987	67	-58.1	-84.6	259	5
2023-09-12T18:00	19009	67	-58.3	-84.8	258	5
2023-09-12T18:00	19034	67	-58.4	-84.9	256	5
2023-09-12T18:00	19056	66	-58.3	-84.8	255	4
2023-09-12T18:00	19078	66	-58.2	-84.7	255	4
2023-09-12T18:00	19104	66	-58.3	-84.8	255	4
2023-09-12T18:00	19124	66	-58.4	-84.6	257	4
2023-09-12T18:00	19146	65	-58.5	-84.6	261	4
2023-09-12T18:00	19169	65	-58.5	-84.6	265	4
2023-09-12T18:00	19188	65	-58.5	-84.6	269	4
2023-09-12T18:00	19219	65	-58.5	-84.9	273	4
2023-09-12T18:00	19241	64	-58.4	-84.9	274	4
2023-09-12T18:00	19263	64	-58.5	-84.9	273	4
2023-09-12T18:00	19291	64	-58.4	-84.9	270	5
2023-09-12T18:00	19314	64	-58.5	-84.9	267	5
2023-09-12T18:00	19335	63	-58.5	-84.9	265	5
2023-09-12T18:00	19358	63	-58.4	-84.9	264	5
2023-09-12T18:00	19383	63	-58.3	-84.8	265	5
2023-09-12T18:00	19409	63	-58.0	-84.9	268	5
2023-09-12T18:00	19431	62	-57.8	-84.7	271	6
2023-09-12T18:00	19458	62	-57.8	-85.1	274	6
2023-09-12T18:00	19484	62	-57.6	-84.9	277	6
2023-09-12T18:00	19506	62	-57.0	-84.5	281	6
2023-09-12T18:00	19530	62	-56.7	-84.6	285	6
2023-09-12T18:00	19554	61	-56.6	-84.5	289	6
2023-09-12T18:00	19577	61	-56.4	-84.4	293	6
2023-09-12T18:00	19604	61	-56.4	-84.4	296	6
2023-09-12T18:00	19626	61	-56.1	-84.2	298	6
2023-09-12T18:00	19654	60	-55.9	-84.0	299	5
2023-09-12T18:00	19677	60	-55.7	-83.9	301	5
2023-09-12T18:00	19700	60	-55.7	-83.9	303	4
2023-09-12T18:00	19723	60	-55.8	-83.9	307	4
2023-09-12T18:00	19747	59	-55.9	-83.6	310	4
2023-09-12T18:00	19770	59	-56.1	-83.8	314	4
2023-09-12T18:00	19790	59	-56.3	-83.9	317	4
2023-09-12T18:00	19820	59	-56.5	-83.7	319	4
2023-09-12T18:00	19843	59	-56.6	-83.8	320	4
2023-09-12T18:00	19869	58	-56.7	-83.9	321	4
2023-09-12T18:00	19891	58	-56.9	-84.0	321	4
2023-09-12T18:00	19919	58	-57.0	-84.1	323	4
2023-09-12T18:00	19941	58	-57.1	-84.2	326	4
2023-09-12T18:00	19969	57	-57.3	-84.4	329	3
2023-09-12T18:00	19993	57	-57.2	-84.3	334	3
2023-09-12T18:00	20014	57	-57.1	-84.2	337	2
2023-09-12T18:00	20038	57	-57.2	-84.3	338	2
2023-09-12T18:00	20064	57	-57.3	-84.4	337	2
2023-09-12T18:00	20087	56	-57.5	-84.2	331	1
2023-09-12T18:00	20106	56	-57.6	-84.3	318	1
2023-09-12T18:00	20133	56	-57.8	-84.4	302	1
2023-09-12T18:00	20152	56	-57.9	-84.5	288	1
2023-09-12T18:00	20178	56	-58.1	-84.6	280	2
2023-09-12T18:00	20200	55	-58.3	-84.8	277	2
2023-09-12T18:00	20221	55	-58.3	-84.8	275	2
2023-09-12T18:00	20246	55	-58.2	-84.7	273	2
2023-09-12T18:00	20273	55	-58.1	-85.0	270	2
2023-09-12T18:00	20292	55	-57.8	-84.7	268	2
2023-09-12T18:00	20312	54	-57.5	-84.9	268	3
2023-09-12T18:00	20338	54	-57.4	-84.8	270	3
2023-09-12T18:00	20361	54	-57.3	-84.7	274	3
2023-09-12T18:00	20380	54	-57.0	-84.8	280	3
2023-09-12T18:00	20406	54	-56.9	-84.8	288	3
2023-09-12T18:00	20427	53	-56.6	-84.5	298	3
2023-09-12T18:00	20449	53	-56.6	-84.5	310	3
2023-09-12T18:00	20474	53	-56.6	-84.5	324	3
2023-09-12T18:00	20499	53	-56.5	-84.5	335	3
2023-09-12T18:00	20521	53	-56.3	-84.3	344	3
2023-09-12T18:00	20539	52	-56.2	-84.2	350	3
2023-09-12T18:00	20562	52	-56.2	-84.2	354	3
2023-09-12T18:00	20590	52	-56.0	-84.1	354	2
2023-09-12T18:00	20612	52	-56.0	-84.1	346	2
2023-09-12T18:00	20635	52	-56.0	-84.1	323	1
2023-09-12T18:00	20660	52	-56.1	-84.2	287	1
2023-09-12T18:00	20686	51	-56.1	-83.8	264	2
2023-09-12T18:00	20710	51	-56.2	-83.9	255	2
2023-09-12T18:00	20735	51	-56.4	-84.0	251	3
2023-09-12T18:00	20759	51	-56.5	-84.1	249	4
2023-09-12T18:00	20783	51	-56.7	-84.2	250	5
2023-09-12T18:00	20804	50	-56.8	-84.3	253	6
2023-09-12T18:00	20835	50	-56.7	-84.2	257	6
2023-09-12T18:00	20858	50	-56.7	-84.2	263	7
2023-09-12T18:00	20879	50	-56.7	-84.6	268	8
2023-09-12T18:00	20906	50	-56.3	-84.3	274	8
2023-09-12T18:00	20935	49	-56.2	-84.2	279	9
2023-09-12T18:00	20955	49	-56.2	-84.2	284	9
2023-09-12T18:00	20981	49	-55.9	-84.0	289	9
2023-09-12T18:00	21007	49	-55.8	-83.9	294	9
2023-09-12T18:00	21035	49	-55.8	-83.9	300	9
2023-09-12T18:00	21059	48	-55.8	-83.9	305	9
2023-09-12T18:00	21081	48	-55.8	-83.9	309	10
2023-09-12T18:00	21108	48	-55.7	-83.9	313	10
2023-09-12T18:00	21134	48	-55.7	-83.9	317	10
2023-09-12T18:00	21165	48	-55.9	-84.0	321	9
2023-09-12T18:00	21189	47	-55.9	-84.0	325	9
2023-09-12T18:00	21213	47	-56.0	-84.1	330	9
2023-09-12T18:00	21245	47	-56.1	-83.8	335	8
2023-09-12T18:00	21269	47	-56.2	-83.9	340	8
2023-09-12T18:00	21296	47	-56.4	-84.0	346	7
2023-09-12T18:00	21325	46	-56.5	-84.1	351	7
2023-09-12T18:00	21351	46	-56.5	-84.1	358	6
2023-09-12T18:00	21377	46	-56.6	-84.2	6	6
2023-09-12T18:00	21405	46	-56.8	-84.3	15	5
2023-09-12T18:00	21432	46	-56.7	-84.2	24	5
2023-09-12T18:00	21458	45	-56.8	-84.3	33	5
2023-09-12T18:00	21482	45	-56.8	-84.3	43	4
2023-09-12T18:00	21506	45	-56.9	-84.4	52	4
2023-09-12T18:00	21531	45	-56.9	-84.4	63	3
2023-09-12T18:00	21556	45	-56.9	-84.4	76	2
2023-09-12T18:00	21581	45	-56.8	-84.3	92	2
2023-09-12T18:00	21606	44	-56.8	-84.7	111	2
2023-09-12T18:00	21632	44	-56.7	-84.6	126	2
2023-09-12T18:00	21652	44	-56.5	-84.5	134	2
2023-09-12T18:00	21673	44	-56.4	-84.4	136	1
2023-09-12T18:00	21701	44	-56.4	-84.4	135	1
2023-09-12T18:00	21721	44	-56.5	-84.5	133	1
2023-09-12T18:00	21747	43	-56.5	-84.5	133	1
2023-09-12T18:00	21769	43	-56.4	-84.4	136	1
2023-09-12T18:00	21793	43	-56.2	-84.2	142	1
2023-09-12T18:00	21816	43	-56.1	-84.2	148	1
2023-09-12T18:00	21841	43	-56.2	-84.2	152	1
2023-09-12T18:00	21865	43	-56.2	-84.2	155	2
2023-09-12T18:00	21888	42	-56.2	-84.2	156	2
2023-09-12T18:00	21907	42	-56.2	-84.2	158	3
2023-09-12T18:00	21935	42	-56.3	-84.3	159	3
2023-09-12T18:00	21955	42	-56.1	-84.2	162	4
2023-09-12T18:00	21976	42	-56.0	-84.1	165	4
2023-09-12T18:00	22004	42	-55.8	-84.3	168	4
2023-09-12T18:00	22027	42	-55.6	-84.2	172	5
2023-09-12T18:00	22047	41	-55.5	-84.1	176	5
2023-09-12T18:00	22074	41	-55.7	-83.9	181	5
2023-09-12T18:00	22096	41	-55.8	-83.9	187	4
2023-09-12T18:00	22117	41	-55.7	-83.9	194	4
2023-09-12T18:00	22141	41	-55.8	-83.9	200	4
2023-09-12T18:00	22162	41	-55.9	-84.0	206	4
2023-09-12T18:00	22190	40	-56.0	-84.1	211	4
2023-09-12T18:00	22213	40	-55.9	-84.0	215	4
2023-09-12T18:00	22234	40	-55.9	-84.0	219	4
2023-09-12T18:00	22260	40	-55.9	-84.0	223	5
2023-09-12T18:00	22284	40	-55.9	-84.0	226	5
2023-09-12T18:00	22308	40	-55.8	-83.9	231	5
2023-09-12T18:00	22334	40	-55.7	-83.9	236	5
2023-09-12T18:00	22355	39	-55.7	-83.9	242	5
2023-09-12T18:00	22383	39	-55.7	-83.9	248	5
2023-09-12T18:00	22405	39	-55.6	-83.8	254	5
2023-09-12T18:00	22435	39	-55.6	-83.8	257	5
2023-09-12T18:00	22461	39	-55.6	-83.8	260	5
2023-09-12T18:00	22483	39	-55.6	-83.8	261	4
2023-09-12T18:00	22510	39	-55.7	-83.9	262	4
2023-09-12T18:00	22535	38	-55.8	-83.9	264	4
2023-09-12T18:00	22557	38	-55.8	-83.9	269	4
2023-09-12T18:00	22588	38	-55.9	-84.0	276	4
2023-09-12T18:00	22609	38	-56.0	-84.1	284	4
2023-09-12T18:00	22635	38	-56.0	-84.1	291	4
2023-09-12T18:00	22659	38	-56.0	-84.1	296	4
2023-09-12T18:00	22683	37	-55.8	-83.9	298	5
2023-09-12T18:00	22714	37	-55.8	-83.9	298	5
2023-09-12T18:00	22736	37	-55.8	-83.9	296	4
2023-09-12T18:00	22763	37	-55.7	-83.9	293	4
2023-09-12T18:00	22789	37	-55.6	-84.2	289	4
2023-09-12T18:00	22816	37	-55.6	-84.2	285	4
2023-09-12T18:00	22839	37	-55.7	-84.3	280	4
2023-09-12T18:00	22860	36	-55.6	-84.2	278	4
2023-09-12T18:00	22886	36	-55.5	-84.1	277	4
2023-09-12T18:00	22912	36	-55.5	-84.1	278	4
2023-09-12T18:00	22933	36	-55.5	-84.1	281	5
2023-09-12T18:00	22961	36	-55.5	-84.1	284	5
2023-09-12T18:00	22993	36	-55.4	-84.0	288	5
2023-09-12T18:00	23012	36	-55.4	-84.0	291	5
2023-09-12T18:00	23046	35	-55.3	-84.0	295	5
2023-09-12T18:00	23068	35	-55.0	-83.7	299	6
2023-09-12T18:00	23091	35	-54.9	-83.7	302	6
2023-09-12T18:00	23114	35	-55.0	-83.7	305	6
2023-09-12T18:00	23140	35	-55.1	-83.8	309	6
2023-09-12T18:00	23165	35	-55.1	-83.8	312	6
2023-09-12T18:00	23194	35	-55.0	-83.7	316	6
2023-09-12T18:00	23216	34	-54.9	-83.7	320	6
2023-09-12T18:00	23240	34	-54.9	-83.7	326	6
2023-09-12T18:00	23264	34	-55.0	-83.7	332	6
2023-09-12T18:00	23291	34	-55.1	-83.8	338	6
2023-09-12T18:00	23325	34	-55.2	-83.9	345	6
2023-09-12T18:00	23347	34	-55.0	-83.7	353	5
2023-09-12T18:00	23373	34	-55.0	-83.7	2	5
2023-09-12T18:00	23393	34	-55.0	-83.7	11	5
2023-09-12T18:00	23419	33	-55.0	-83.7	21	4
2023-09-12T18:00	23442	33	-55.0	-83.7	31	4
2023-09-12T18:00	23465	33	-55.0	-83.7	40	4
2023-09-12T18:00	23498	33	-55.2	-83.9	48	3
2023-09-12T18:00	23514	33	-55.2	-83.5	59	3
2023-09-12T18:00	23545	33	-55.3	-83.6	72	3
2023-09-12T18:00	23569	33	-55.4	-83.6	85	3
2023-09-12T18:00	23593	32	-55.4	-84.0	95	3
2023-09-12T18:00	23620	32	-55.4	-84.0	102	3
2023-09-12T18:00	23642	32	-55.3	-84.0	106	3
2023-09-12T18:00	23668	32	-55.2	-83.9	109	3
2023-09-12T18:00	23688	32	-55.1	-83.8	115	2
2023-09-12T18:00	23717	32	-55.3	-84.0	124	2
2023-09-12T18:00	23740	32	-55.3	-84.0	140	2
2023-09-12T18:00	23771	32	-55.3	-84.0	160	2
2023-09-12T18:00	23798	31	-55.3	-84.0	179	2
2023-09-12T18:00	23824	31	-55.3	-84.0	194	2
2023-09-12T18:00	23846	31	-55.3	-83.6	205	3
2023-09-12T18:00	23878	31	-55.5	-83.7	212	3
2023-09-12T18:00	23899	31	-55.6	-83.8	218	4
2023-09-12T18:00	23931	31	-55.7	-83.9	223	4
2023-09-12T18:00	23954	31	-55.7	-83.9	228	4
2023-09-12T18:00	23979	31	-55.8	-83.9	233	5
2023-09-12T18:00	24006	30	-56.0	-84.1	237	5
2023-09-12T18:00	24026	30	-56.1	-84.2	241	6
2023-09-12T18:00	24058	30	-56.0	-84.1	244	6
2023-09-12T18:00	24085	30	-56.0	-84.1	248	6
2023-09-12T18:00	24114	30	-56.0	-84.1	251	6
2023-09-12T18:00	24137	30	-56.0	-84.1	254	6
2023-09-12T18:00	24161	30	-56.0	-84.5	256	5
2023-09-12T18:00	24185	30	-55.7	-84.3	258	5
2023-09-12T18:00	24211	29	-55.6	-84.2	260	5
2023-09-12T18:00	24243	29	-55.5	-84.1	261	5
2023-09-12T18:00	24277	29	-55.2	-83.9	261	5
2023-09-12T18:00	24299	29	-55.0	-83.7	261	5
2023-09-12T18:00	24325	29	-55.1	-83.8	261	5
2023-09-12T18:00	24342	29	-55.1	-83.8	260	5
2023-09-12T18:00	24377	29	-55.2	-83.9	260	5
2023-09-12T18:00	24401	29	-55.3	-84.0	259	5
2023-09-12T18:00	24418	29	-55.2	-83.9	258	4
2023-09-12T18:00	24460	28	-55.1	-83.8	258	4
2023-09-12T18:00	24483	28	-55.1	-83.8	261	4
2023-09-12T18:00	24508	28	-55.1	-83.8	264	4
2023-09-12T18:00	24536	28	-55.0	-84.2	268	3
2023-09-12T18:00	24560	28	-54.7	-83.9	273	3
2023-09-12T18:00	24588	28	-54.6	-83.9	277	3
2023-09-12T18:00	24622	28	-54.5	-83.8	280	3
2023-09-12T18:00	24638	28	-54.6	-83.9	283	3
2023-09-12T18:00	24667	27	-54.7	-83.9	284	2
2023-09-12T18:00	24696	27	-54.6	-83.9	281	2
2023-09-12T18:00	24728	27	-54.4	-83.7	276	2
2023-09-12T18:00	24748	27	-54.3	-83.6	270	2
2023-09-12T18:00	24770	27	-54.3	-83.6	264	3
2023-09-12T18:00	24804	27	-54.4	-83.7	260	3
2023-09-12T18:00	24827	27	-54.4	-83.7	256	3
2023-09-12T18:00	24849	27	-54.4	-83.7	251	2
2023-09-12T18:00	24882	27	-54.3	-83.6	245	2
2023-09-12T18:00	24900	26	-54.3	-83.6	237	2
2023-09-12T18:00	24929	26	-54.1	-83.5	229	2
2023-09-12T18:00	24952	26	-53.7	-83.7	224	2
2023-09-12T18:00	24981	26	-53.5	-83.5	223	3
2023-09-12T18:00	25010	26	-53.1	-83.2	224	3
2023-09-12T18:00	25035	26	-52.8	-83.0	228	3
2023-09-12T18:00	25061	26	-52.7	-82.9	232	3
2023-09-12T18:00	25079	26	-52.6	-82.8	238	4
2023-09-12T18:00	25111	26	-52.6	-82.8	243	4
2023-09-12T18:00	25133	26	-52.7	-82.9	249	4
2023-09-12T18:00	25162	25	-52.9	-83.1	255	4
2023-09-12T18:00	25191	25	-53.0	-83.1	261	4
2023-09-12T18:00	25218	25	-52.9	-83.1	267	3
2023-09-12T18:00	25240	25	-52.8	-83.0	273	3
2023-09-12T18:00	25271	25	-52.7	-82.9	278	3
2023-09-12T18:00	25302	25	-52.6	-82.8	278	3
2023-09-12T18:00	25327	25	-52.5	-82.8	274	3
2023-09-12T18:00	25350	25	-52.4	-82.7	267	3
2023-09-12T18:00	25373	25	-52.1	-82.5	260	3
2023-09-12T18:00	25401	25	-51.9	-82.3	255	4
2023-09-12T18:00	25430	24	-51.8	-82.8	252	5
2023-09-12T18:00	25460	24	-51.7	-82.7	251	5
2023-09-12T18:00	25484	24	-51.6	-82.6	251	5
2023-09-12T18:00	25513	24	-51.5	-82.5	252	5
2023-09-12T18:00	25547	24	-51.2	-82.3	253	5
2023-09-12T18:00	25567	24	-51.2	-82.3	256	5
2023-09-12T18:00	25601	24	-51.3	-82.4	259	5
2023-09-12T18:00	25632	24	-51.3	-82.4	263	4
2023-09-12T18:00	25659	24	-51.2	-82.3	268	4
2023-09-12T18:00	25686	23	-51.1	-82.2	273	3
2023-09-12T18:00	25712	23	-51.0	-82.2	278	3
2023-09-12T18:00	25748	23	-50.8	-82.0	283	2
2023-09-12T18:00	25777	23	-50.9	-82.1	289	1
2023-09-12T18:00	25807	23	-50.7		301	0
2023-09-12T18:00	25830	23	-50.8	-82.0	97	0
2023-09-12T18:00	25856	23	-50.8	-81.5	111	1
2023-09-12T18:00	25886	23	-50.9	-81.6	118	2
2023-09-12T18:00	25915	23	-51.0	-81.6	126	2
2023-09-12T18:00	25946	23	-51.2	-81.8	135	2
2023-09-12T18:00	25981	22	-51.1	-81.7	143	3
2023-09-12T18:00	26009	22	-51.0	-81.6	149	3
2023-09-12T18:00	26037	22	-51.1	-81.7	153	3
2023-09-12T18:00	26064	22	-51.1	-81.7	155	3
2023-09-12T18:00	26095	22	-51.2	-81.8	157	4
2023-09-12T18:00	26126	22	-51.4	-81.9	159	4
2023-09-12T18:00	26155	22	-51.5	-82.0	163	4
2023-09-12T18:00	26178	22	-51.7	-82.2	167	4
2023-09-12T18:00	26219	22	-51.8	-82.2	172	4
2023-09-12T18:00	26244	22	-51.9	-82.3	177	5
2023-09-12T18:00	26267	21	-52.0	-82.4	180	5
2023-09-12T18:00	26301	21	-52.0	-82.4	183	6
2023-09-12T18:00	26329	21	-52.0	-82.4	186	6
2023-09-12T18:00	26358	21	-52.1	-82.5	189	6
2023-09-12T18:00	26379	21	-52.2	-82.5	192	6
2023-09-12T18:00	26416	21	-52.0	-82.4	197	6
2023-09-12T18:00	26431	21	-51.9	-82.3	201	6
2023-09-12T18:00	26470	21	-51.9	-82.3	204	5
2023-09-12T18:00	26490	21	-51.8	-82.2	206	5
2023-09-12T18:00	26523	21	-51.8	-82.2	207	5
2023-09-12T18:00	26548	21	-51.7	-82.2	206	5
2023-09-12T18:00	26578	20	-51.6	-82.6	205	5
2023-09-12T18:00	26597	20	-51.5	-82.5	205	6
2023-09-12T18:00	26623	20	-51.3	-82.4	204	6
2023-09-12T18:00	26650	20	-51.1	-82.2	204	7
2023-09-12T18:00	26682	20	-50.9	-82.1	205	7
2023-09-12T18:00	26707	20	-50.8	-82.0	208	7
2023-09-12T18:00	26720	20	-50.4	-81.7	213	7
2023-09-12T18:00	26748	20	-50.3	-81.6	219	7
2023-09-12T18:00	26781	20	-50.4	-81.7	226	7
2023-09-12T18:00	26810	20	-50.5	-81.8	235	7
2023-09-12T18:00	26835	20	-50.6	-81.9	244	7
2023-09-12T18:00	26865	20	-50.5	-81.8	252	7
2023-09-12T18:00	26881	20	-50.3	-81.6	260	7
2023-09-12T18:00	26919	19	-50.1	-81.5	265	7
2023-09-12T18:00	26930	19	-49.9	-81.9	268	6
2023-09-12T18:00	26960	19	-49.8	-81.8	268	6
2023-09-12T18:00	26985	19	-49.4	-81.6	265	5
2023-09-12T18:00	27014	19	-49.4	-81.6	258	4
2023-09-12T18:00	27048	19	-49.5	-81.6	248	4
2023-09-12T18:00	27059	19	-49.5	-81.1	237	4
2023-09-12T18:00	27088	19	-49.6	-81.1	226	4
2023-09-12T18:00	27113	19	-49.7	-81.2	216	4
2023-09-12T18:00	27138	19	-49.8	-81.3	209	4
2023-09-12T18:00	27177	19	-49.9	-81.3	204	4
2023-09-12T18:00	27200	19	-50.0	-81.4	203	4
2023-09-12T18:00	27225	19	-50.0	-81.4	204	4
2023-09-12T18:00	27251	18	-49.9	-81.3	208	5
2023-09-12T18:00	27288	18	-49.9	-81.3	211	5
2023-09-12T18:00	27311	18	-49.7	-81.2	213	6
2023-09-12T18:00	27335	18	-49.7	-81.2	214	6
2023-09-12T18:00	27364	18	-49.7	-81.2	216	7
2023-09-12T18:00	27404	18	-49.7	-81.2	219	7
2023-09-12T18:00	27417	18	-49.8	-81.3	223	8
2023-09-12T18:00	27463	18	-49.8	-81.3	229	8
2023-09-12T18:00	27492	18	-49.5	-81.1	236	8
2023-09-12T18:00	27522	18	-49.6	-81.1	242	8
2023-09-12T18:00	27546	18	-49.7	-81.2	248	8
2023-09-12T18:00	27580	18	-49.8	-81.3	253	8
2023-09-12T18:00	27608	17	-49.9	-81.3	257	8
2023-09-12T18:00	27634	17	-50.1	-81.5	258	8
2023-09-12T18:00	27659	17	-50.1	-81.5	259	8
2023-09-12T18:00	27700	17	-50.2		259	7
2023-09-12T18:00	27725	17	-50.2		259	7
2023-09-12T18:00	27758	17	-50.1	-81.5	259	6
2023-09-12T18:00	27790	17	-50.0	-81.4	261	6
2023-09-12T18:00	27822	17	-50.0	-81.4	263	6
2023-09-12T18:00	27844	17	-50.0	-81.4	265	5
2023-09-12T18:00	27881	17	-50.1	-82.1	267	5
2023-09-12T18:00	27919	17	-49.8	-81.8	269	5
2023-09-12T18:00	27953	17	-49.7	-81.8	270	5
2023-09-12T18:00	27968	17	-49.7	-81.8	269	5
2023-09-12T18:00	28005	16	-49.6	-81.7	268	6
2023-09-12T18:00	28040	16	-49.4	-81.6	266	6
2023-09-12T18:00	28067	16	-49.2	-81.4	263	7
2023-09-12T18:00	28085	16	-49.0	-81.3	262	7
2023-09-12T18:00	28117	16	-48.7	-81.0	261	8
2023-09-12T18:00	28144	16	-48.4	-81.4	262	8
2023-09-12T18:00	28183	16	-48.1	-81.2	264	8
2023-09-12T18:00	28206	16	-48.0	-81.2	268	8
2023-09-12T18:00	28236	16	-48.0	-81.2	272	8
2023-09-12T18:00	28262	16	-48.0	-81.2	276	8
2023-09-12T18:00	28302	16	-48.0	-80.5	280	8
2023-09-12T18:00	28322	16	-47.9	-80.4	284	8
2023-09-12T18:00	28352	16	-47.9	-80.4	286	7
2023-09-12T18:00	28389	16	-48.0	-80.5	288	7
2023-09-12T18:00	28407	15	-48.1	-80.6	288	7
2023-09-12T18:00	28433	15	-48.1	-80.6	288	7
2023-09-12T18:00	28455	15	-48.1	-80.6	288	6
2023-09-12T18:00	28480	15	-48.2	-80.7	289	6
2023-09-12T18:00	28523	15	-48.2	-80.7	289	5
2023-09-12T18:00	28531	15	-48.3	-80.7	289	5
2023-09-12T18:00	28563	15	-48.4	-80.8	288	4
2023-09-12T18:00	28596	15	-48.5	-80.9	285	3
2023-09-12T18:00	28624	15	-48.4	-80.8	278	3
2023-09-12T18:00	28647	15	-48.2	-80.7	267	3
2023-09-12T18:00	28677	15	-48.2	-80.7	252	2
2023-09-12T18:00	28705	15	-48.3	-80.7	239	3
2023-09-12T18:00	28735	15	-48.3	-80.7	234	3
2023-09-12T18:00	28762	15	-48.3	-80.7	234	4
2023-09-12T18:00	28782	15	-48.4	-80.8	238	4
2023-09-12T18:00	28812	15	-48.2	-80.7	244	5
2023-09-12T18:00	28845	14	-48.1	-80.6	249	6
2023-09-12T18:00	28860	14	-48.1	-80.6	254	6
2023-09-12T18:00	28891	14	-48.0	-81.2	258	6
2023-09-12T18:00	28923	14	-47.9	-81.1	260	6
2023-09-12T18:00	28937	14	-47.8	-81.0	261	5
2023-09-12T18:00	28978	14	-47.5	-80.8	259	5
2023-09-12T18:00	29012	14	-47.1	-80.5	255	5
2023-09-12T18:00	29044	14	-46.9	-80.4	251	6
2023-09-12T18:00	29066	14	-46.6	-80.1	247	6
2023-09-12T18:00	29096	14	-46.2	-79.8	245	6
2023-09-12T18:00	29121	14	-46.2	-80.6	244	6
2023-09-12T18:00	29150	14	-46.2	-80.6	245	7
2023-09-12T18:00	29185	14	-45.9	-80.3	248	7
2023-09-12T18:00	29200	14	-45.8	-80.3	251	7
2023-09-12T18:00	29232	14	-45.6	-80.1	254	8
2023-09-12T18:00	29257	14	-45.5	-80.1	256	8
2023-09-12T18:00	29286	14	-45.2	-79.8	257	9
2023-09-12T18:00	29301	14	-45.1	-79.8	258	9
2023-09-12T18:00	29340	13	-44.8	-79.6	259	9
2023-09-12T18:00	29375	13	-44.8	-79.6	260	9
2023-09-12T18:00	29405	13	-44.5	-79.3	261	10
2023-09-12T18:00	29431	13	-44.4	-79.3	262	10
2023-09-12T18:00	29455	13	-44.3	-79.2	263	11
2023-09-12T18:00	29487	13	-44.0	-79.0	265	11
2023-09-12T18:00	29519	13	-43.7	-78.8	266	12
2023-09-12T18:00	29539	13	-43.6	-78.7	269	12
2023-09-12T18:00	29579	13	-43.6	-78.7	271	12
2023-09-12T18:00	29618	13	-43.7	-78.8	273	12
2023-09-12T18:00	29636	13	-43.6	-78.7	275	12
2023-09-12T18:00	29671	13	-43.5	-78.6	275	13
2023-09-12T18:00	29685	13	-43.5	-78.6	274	13
2023-09-12T18:00	29729	13	-43.6	-78.7	273	13
2023-09-12T18:00	29752	13	-43.8	-78.8	272	14
2023-09-12T18:00	29788	13	-44.1	-78.3	272	14
2023-09-12T18:00	29813	13	-44.3	-78.5	272	14
2023-09-12T18:00	29849	12	-44.6	-78.7	273	14
2023-09-12T18:00	29858	12	-44.8	-78.8	275	14
2023-09-12T18:00	29911	12	-44.8	-78.8	277	14
2023-09-12T18:00	29925	12	-44.6	-78.7	279	14
2023-09-12T18:00	29963	12	-44.7	-78.8	281	14
2023-09-12T18:00	29984	12	-44.9	-78.9	283	14
2023-09-12T18:00	30010	12	-45.1	-79.0	285	14
2023-09-12T18:00	30047	12	-45.2	-79.1	286	14
2023-09-12T18:00	30078	12	-45.3	-79.2	288	14
2023-09-12T18:00	30105	12	-45.2	-79.1	289	13
2023-09-12T18:00	30138	12	-45.3	-79.2	290	13
2023-09-12T18:00	30165	12	-45.4	-79.3	291	13
2023-09-12T18:00	30194	12	-45.1	-79.0	293	12
2023-09-12T18:00	30219	12	-44.9	-78.9	295	11
2023-09-12T18:00	30252	12	-44.9	-79.6	297	11
2023-09-12T18:00	30293	12	-44.9	-79.6	299	10
2023-09-12T18:00	30307	12	-45.1	-79.8	302	9
2023-09-12T18:00	30326	12	-45.1	-79.8	305	8
2023-09-12T18:00	30359	12	-45.1	-79.8	308	7
2023-09-12T18:00	30394	11	-45.0	-79.7	312	7
2023-09-12T18:00	30425	11	-44.9	-79.6	316	6
2023-09-12T18:00	30466	11	-44.7	-79.5	319	5
2023-09-12T18:00	30494	11	-44.7	-79.5	322	5
2023-09-12T18:00	30507	11	-44.7	-79.5	324	5
2023-09-12T18:00	30529	11	-44.6	-79.4	327	4
2023-09-12T18:00	30560	11	-44.5	-79.3	331	4
2023-09-12T18:00	30573	11	-44.2	-79.1	335	4
2023-09-12T18:00	30622	11	-44.0	-79.0	336	3
2023-09-12T18:00	30638	11	-44.0	-79.0	333	3
2023-09-12T18:00	30667	11	-44.0	-79.0	321	2
2023-09-12T18:00	30687	11	-43.8	-78.8	299	2
2023-09-12T18:00	30726	11	-43.7	-78.8	272	2
2023-09-12T18:00	30759	11	-43.6	-78.7	252	3
2023-09-12T18:00	30791	11	-43.6	-78.7	240	4
2023-09-12T18:00	30815	11	-43.5	-78.6	233	5
2023-09-12T18:00	30852	11	-43.2	-78.4	229	5
2023-09-12T18:00	30868	11	-43.1	-78.3	227	5
2023-09-12T18:00	30891	11	-43.2	-78.4	227	5
2023-09-12T18:00	30923	11	-43.2	-78.4	229	5
2023-09-12T18:00	30967	11	-43.1	-78.3	232	6
2023-09-12T18:00	30997	11	-43.2	-78.4	234	6
2023-09-12T18:00	31029	10	-43.2	-78.4	237	6
2023-09-12T18:00	31048	10	-43.2	-78.4	239	7
2023-09-12T18:00	31078	10	-42.8	-78.9	241	7
2023-09-12T18:00	31131	10	-42.6	-78.8	243	8
2023-09-12T18:00	31166	10	-42.4	-78.7	244	8
2023-09-12T18:00	31191	10	-42.1	-78.4	244	8
2023-09-12T18:00	31207	10	-41.8	-78.2	244	8
2023-09-12T18:00	31243	10	-41.7	-78.2	243	8
2023-09-12T18:00	31267	10	-41.7	-78.2	242	8
2023-09-12T18:00	31324	10	-41.8	-78.2	241	8
2023-09-12T18:00	31328	10	-41.8	-78.2	241	8
2023-09-12T18:00	31383	10	-41.8	-78.2	242	8
2023-09-12T18:00	31420	10	-41.7	-78.2	242	8
2023-09-12T18:00	31438	10	-41.8	-78.2	242	9
2023-09-12T18:00	31488	10	-41.8	-78.2	241	9
2023-09-12T18:00	31518	10	-41.9	-78.3	240	9
2023-09-12T18:00	31544	10	-42.0	-78.4	239	9
2023-09-12T18:00	31594	10	-42.0	-78.4	237	9
2023-09-12T18:00	31620	10	-42.1	-78.4	235	8
2023-09-12T18:00	31642	10	-42.1	-78.4	234	8
2023-09-12T18:00	31679	10	-42.1	-78.4	234	7
2023-09-12T18:00	31702	9	-41.9	-78.3	234	7
2023-09-12T18:00	31724	9	-42.0	-78.4	235	7
2023-09-12T18:00	31748	9	-41.9	-78.3	237	7
2023-09-12T18:00	31779	9	-41.8	-78.2	238	8
2023-09-12T18:00	31813	9	-42.0	-78.4	239	8
2023-09-12T18:00	31820	9	-42.0	-78.4	241	9
2023-09-12T18:00	31894	9	-42.0	-78.4	243	10
2023-09-12T18:00	31937	9	-42.0	-78.4	249	11
2023-09-12T18:00	31968	9	-41.9	-78.3	253	12
2023-09-12T18:00	31994	9	-42.0	-78.4	257	12
2023-09-12T18:00	32022	9	-42.0	-78.4	261	13
2023-09-12T18:00	32042	9	-41.9	-78.3	266	13
2023-09-12T18:00	32059	9	-41.9	-78.3	270	14
2023-09-12T18:00	32091	9	-41.6	-78.1	273	14
2023-09-12T18:00	32126	9	-41.4	-77.9	275	14
2023-09-12T18:00	32153	9	-41.1	-77.7	277	14
2023-09-12T18:00	32190	9	-40.8	-78.5	279	14
2023-09-12T18:00	32200	9	-40.2	-78.0	280	13
2023-09-12T18:00	32236	9	-39.7	-77.7	282	13
2023-09-12T18:00	32275	9	-39.4	-77.5	283	12
2023-09-12T18:00	32297	9	-39.3	-77.4	284	12
2023-09-12T18:00	32325	9	-39.3	-77.4	283	11
2023-09-12T18:00	32356	9	-39.0	-77.2	283	10
2023-09-12T18:00	32378	9	-38.9	-77.1	283	10
2023-09-12T18:00	32418	9	-38.8	-77.1	283	9
2023-09-12T18:00	32436	9	-38.7	-77.0	284	9
2023-09-12T18:00	32473	8	-38.8	-77.1	285	9
2023-09-12T18:00	32493	8	-38.9	-77.1	285	9
2023-09-12T18:00	32515	8	-39.0	-77.2	285	9
2023-09-12T18:00	32558	8	-38.9	-77.1	285	9
2023-09-12T18:00	32578	8	-38.8	-77.1	283	8
2023-09-12T18:00	32611	8	-38.8	-77.1	279	8
2023-09-12T18:00	32635	8	-38.6	-76.9	274	7
2023-09-12T18:00	32691	8	-38.4	-76.8	266	7
2023-09-12T18:00	32713	8	-38.5	-76.9	257	7
2023-09-12T18:00	32729	8	-38.6	-76.9	247	7
2023-09-12T18:00	32770	8	-38.7	-77.0	238	7
2023-09-12T18:00	32795	8	-38.8	-77.1	230	7
2023-09-12T18:00	32819	8	-38.9	-77.1	223	7
2023-09-12T18:00	32871	8	-39.0	-76.2	218	8
2023-09-12T18:00	32901	8	-39.2	-76.4	213	8
2023-09-12T18:00	32920	8	-39.7	-76.7	211	8
2023-09-12T18:00	32968	8	-39.7	-76.7	211	9
2023-09-12T18:00	32994	8	-39.9	-76.9	212	9
2023-09-12T18:00	33028	8	-40.0	-76.9	216	9
2023-09-12T18:00	33033	8	-39.6	-76.7	222	9
2023-09-12T18:00	33072	8	-39.7	-76.7	228	9
2023-09-12T18:00	33129	8	-39.8	-76.8	234	9
2023-09-12T18:00	33144	8	-39.8	-76.8	240	9
2023-09-12T18:00	33168	8	-39.9	-76.9	244	9
2023-09-12T18:00	33216	8	-40.0	-76.9	248	9
2023-09-12T18:00	33241	8	-40.2	-77.1	252	10
2023-09-12T18:00	33290	8	-40.1	-77.0	255	10
2023-09-12T18:00	33296	8	-40.1	-77.0	258	10
2023-09-12T18:00	33338	7	-40.1	-77.0	260	10
2023-09-12T18:00	33353	7	-40.0	-76.9	263	10
2023-09-12T18:00	33409	7	-40.0	-77.9	265	10
2023-09-12T18:00	33479	7	-39.6	-77.6	266	10
2023-09-12T18:00	33488	7	-39.6	-77.6	266	9
2023-09-12T18:00	33528	7	-39.3	-77.4	265	9
2023-09-12T18:00	33555	7	-39.2	-77.3	263	8
2023-09-12T18:00	33592	7	-38.8	-77.1	261	8
2023-09-12T18:00	33611	7	-38.5	-76.9	260	8
2023-09-12T18:00	33628	7	-38.4	-76.8	260	7
2023-09-12T18:00	33672	7	-38.3	-76.7	261	7
2023-09-12T18:00	33696	7	-38.1	-76.6	263	8
2023-09-12T18:00	33711	7	-38.0	-76.5	264	8
2023-09-12T18:00	33755	7	-37.9	-76.4	265	8
2023-09-12T18:00	33782	7	-38.0	-76.5	266	9
2023-09-12T18:00	33808	7	-38.0	-76.5	267	9
2023-09-12T18:00	33870	7	-38.0	-76.5	267	9
2023-09-12T18:00	33886	7	-37.9	-76.4	267	9
2023-09-12T18:00	33901	7	-37.7	-76.3	266	10
2023-09-12T18:00	33925	7	-37.5	-76.2	265	10
2023-09-12T18:00	33963	7	-37.4	-76.1	263	10
2023-09-12T18:00	33984	7	-37.3	-76.0	260	10
2023-09-12T18:00	34054	7	-37.2	-77.1	258	10
2023-09-12T18:00	34079	7	-37.0	-77.0	255	10
2023-09-12T18:00	34109	7	-36.8	-76.8	255	10
2023-09-12T18:00	34161	7	-36.5	-76.6	254	10
2023-09-12T18:00	34208	7	-35.9	-76.2	255	10
2023-09-12T18:00	34240	7	-35.7	-76.1	256	11
2023-09-12T18:00	34258	7	-35.2	-75.7	257	11
2023-09-12T18:00	34294	7	-35.3	-75.8	259	11
2023-09-12T18:00	34330	6	-35.3	-75.8	261	10
2023-09-12T18:00	34353	6	-35.5	-75.9	263	10
2023-09-12T18:00	34396	6	-35.7	-76.1	265	10
2023-09-12T18:00	34427	6	-35.9	-76.2	269	11
2023-09-12T18:00	34472	6	-36.0	-76.3	271	11
2023-09-12T18:00	34477	6	-36.0	-76.3	273	11
2023-09-12T18:00	34510	6	-36.1	-76.3	275	11
2023-09-12T18:00	34519	6	-36.2	-76.4	278	11
2023-09-12T18:00	34577	6	-36.2	-76.4	281	11
2023-09-12T18:00	34591	6	-36.1	-76.3	283	11
2023-09-12T18:00	34648	6	-35.9	-76.2	284	11
2023-09-12T18:00	34701	6	-35.5	-75.9	279	10
2023-09-12T18:00	34731	6	-35.5	-75.9	276	10
2023-09-12T18:00	34751	6	-35.4	-75.8	273	10
2023-09-12T18:00	34796	6	-35.0	-75.6	271	10
2023-09-12T18:00	34818	6	-35.0	-75.6	268	10
2023-09-12T18:00	34865	6	-34.9	-75.5	267	10
2023-09-12T18:00	34880	6	-34.8	-75.4	267	10
2023-09-12T18:00	34906	6	-34.9	-75.5	268	10
2023-09-12T18:00	34934	6	-34.8	-75.4	270	10
2023-09-12T18:00	34973	6	-34.7	-75.4	274	10
2023-09-12T18:00	34982	6	-34.8	-75.4	278	10
2023-09-12T18:00	35021	6	-34.8	-75.4	282	10
2023-09-12T18:00	35040	6	-34.9	-75.5	288	10
2023-09-12T18:00	35090	6	-35.1	-75.6	293	10
2023-09-12T18:00	35102	6	-35.2	-75.7	297	11
2023-09-12T18:00	35130	6	-35.3	-75.8	301	11
2023-09-12T18:00	35150	6	-35.3	-75.8	304	12
2023-09-12T18:00	35193	6	-35.1	-75.6	306	12
2023-09-12T18:00	35214	6	-35.0	-75.6	308	12
2023-09-12T18:00	35256	6	-35.3	-75.8	309	12
2023-09-12T18:00	35296	6	-35.5	-75.9	310	12
2023-09-12T18:00	35339	6	-34.7	-75.4	312	10
2023-09-12T18:00	35354	6	-34.5	-75.2	311	9
2023-09-12T18:00	35395	6	-34.5	-75.2	311	9
2023-09-12T18:00	35414	6	-34.7	-75.4	311	8
2023-09-12T18:00	35452	6	-34.7	-75.4	311	7
2023-09-12T18:00	35475	5	-34.7	-75.4	311	6
2023-09-12T18:00	35497	5	-34.7	-75.4	312	5
2023-09-12T18:00	35538	5	-34.7	-75.4	312	5
2023-09-12T18:00	35563	5	-34.7	-75.4	313	4
2023-09-12T18:00	35619	5	-34.7	-75.4	311	4
2023-09-12T18:00	35621	5	-34.5	-75.2	306	4
2023-09-12T18:00	35649	5	-34.6	-75.3	300	4
2023-09-12T18:00	35692	5	-34.7	-75.4	293	4
2023-09-12T18:00	35762	5	-34.9	-75.5	284	5
2023-09-12T18:00	35782	5	-34.9	-75.5	281	6
2023-09-12T18:00	35803	5	-35.1	-75.6	275	7
2023-09-12T18:00	35854	5	-35.2	-75.7	272	7
2023-09-12T18:00	35874	5	-35.2	-75.7	268	7
2023-09-12T18:00	35908	5	-35.2	-75.7	266	8
2023-09-12T18:00	35932	5	-35.2	-75.7	263	8
2023-09-12T18:00	35996	5	-35.2	-75.7	262	9
2023-09-12T18:00	36002	5	-35.3	-75.8	262	9
2023-09-12T18:00	36033	5	-35.4	-75.8	261	10
2023-09-12T18:00	36049	5	-35.6	-76.0	261	11
2023-09-12T18:00	36102	5	-35.9	-76.2	261	11
2023-09-12T18:00	36116	5	-36.1	-76.3	261	12
2023-09-12T18:00	36170	5	-36.1	-76.3	261	12
2023-09-12T18:00	36182	5	-35.8	-76.1	260	12
2023-09-12T18:00	36213	5	-35.7	-76.1	258	11
2023-09-12T18:00	36244	5	-35.6	-76.0	255	10
2023-09-12T18:00	36307	5	-35.6	-76.0	251	10
2023-09-12T18:00	36344	5	-35.6	-76.0	243	9
2023-09-13T00:00	112	999	19.9	14.9	60	3
2023-09-13T00:00	133	997	20.4	14.9	53	4
2023-09-13T00:00	161	994	21.0	14.6	56	6
2023-09-13T00:00	179	991	21.2	14.6	58	7
2023-09-13T00:00	204	988	21.8	14.5	60	8
2023-09-13T00:00	228	985	21.9	14.5	62	8
2023-09-13T00:00	254	983	22.4	14.0	64	8
2023-09-13T00:00	281	980	22.9	13.8	66	8
2023-09-13T00:00	309	977	23.2	13.6	69	7
2023-09-13T00:00	334	974	23.5	13.4	74	6
2023-09-13T00:00	357	971	23.6	13.4	83	4
2023-09-13T00:00	384	968	23.6	13.0	98	4
2023-09-13T00:00	407	966	23.5	12.7	112	4
2023-09-13T00:00	430	963	23.4	12.6	123	4
2023-09-13T00:00	448	961	23.4	12.1	128	4
2023-09-13T00:00	474	958	23.5	11.7	131	5
2023-09-13T00:00	504	955	23.4	11.5	132	5
2023-09-13T00:00	530	952	23.3	11.3	132	5
2023-09-13T00:00	554	950	23.1	11.3	134	4
2023-09-13T00:00	582	947	22.9	11.1	138	4
2023-09-13T00:00	607	944	22.8	11.4	144	4
2023-09-13T00:00	632	941	22.5	11.5	154	3
2023-09-13T00:00	654	939	22.4	11.6	164	3
2023-09-13T00:00	675	936	22.2	11.7	172	3
2023-09-13T00:00	705	933	22.1	11.3	175	3
2023-09-13T00:00	729	931	21.9	11.4	176	4
2023-09-13T00:00	756	928	21.6	11.8	175	4
2023-09-13T00:00	787	925	21.3	12.2	175	4
2023-09-13T00:00	811	922	21.1	12.4	176	4
2023-09-13T00:00	829	920	20.9	12.5	180	4
2023-09-13T00:00	851	917	20.7	12.5	183	4
2023-09-13T00:00	884	914	20.4	12.3	185	4
2023-09-13T00:00	910	912	20.1	12.1	184	4
2023-09-13T00:00	929	909	20.0	12.1	182	5
2023-09-13T00:00	953	907	19.8	12.1	180	5
2023-09-13T00:00	980	904	19.5	11.9	178	5
2023-09-13T00:00	1005	901	19.3	11.9	179	4
2023-09-13T00:00	1032	899	19.0	11.8	183	4
2023-09-13T00:00	1054	896	18.8	11.7	189	5
2023-09-13T00:00	1076	894	18.6	11.7	195	5
2023-09-13T00:00	1097	892	18.5	11.6	200	5
2023-09-13T00:00	1112	890	18.3	10.9	203	5
2023-09-13T00:00	1136	888	18.3	10.0	205	5
2023-09-13T00:00	1153	886	18.2	10.0	208	5
2023-09-13T00:00	1181	883	18.0	10.2	210	5
2023-09-13T00:00	1203	881	17.9	10.5	212	5
2023-09-13T00:00	1229	878	17.6	10.2	214	5
2023-09-13T00:00	1257	875	17.4	10.1	217	5
2023-09-13T00:00	1285	873	17.3	9.7	220	6
2023-09-13T00:00	1307	870	17.1	9.6	224	6
2023-09-13T00:00	1333	868	16.9	9.5	227	6
2023-09-13T00:00	1355	865	16.8	9.5	229	6
2023-09-13T00:00	1380	863	16.6	9.4	231	6
2023-09-13T00:00	1411	860	16.3	9.4	233	6
2023-09-13T00:00	1439	857	16.1	9.3	235	6
2023-09-13T00:00	1467	854	15.9	9.4	238	6
2023-09-13T00:00	1487	852	15.7	9.4	241	6
2023-09-13T00:00	1508	850	15.5	9.4	245	6
2023-09-13T00:00	1535	847	15.3	9.3	250	6
2023-09-13T00:00	1560	845	15.1	9.0	254	6
2023-09-13T00:00	1582	843	15.0	9.0	257	6
2023-09-13T00:00	1605	840	14.9	8.8	259	6
2023-09-13T00:00	1626	838	14.9	7.5	259	6
2023-09-13T00:00	1649	836	15.0	4.4	260	7
2023-09-13T00:00	1668	834	15.0	3.5	260	7
2023-09-13T00:00	1689	832	14.9	5.3	260	7
2023-09-13T00:00	1710	830	14.6	6.3	262	7
2023-09-13T00:00	1731	828	14.4	6.8	264	8
2023-09-13T00:00	1756	826	14.2	7.3	267	8
2023-09-13T00:00	1780	823	14.2	4.8	269	9
2023-09-13T00:00	1802	821	14.2	3.6	269	9
2023-09-13T00:00	1830	818	14.0	3.1	268	9
2023-09-13T00:00	1854	816	13.9	2.0	266	8
2023-09-13T00:00	1876	814	13.8	1.6	262	8
2023-09-13T00:00	1894	812	13.7	1.3	258	7
2023-09-13T00:00	1912	810	13.6	0.8	255	7
2023-09-13T00:00	1941	807	13.6	1.4	254	7
2023-09-13T00:00	1971	805	13.4	2.1	253	7
2023-09-13T00:00	1990	803	13.2	2.2	252	8
2023-09-13T00:00	2016	800	13.0	1.5	251	8
2023-09-13T00:00	2043	798	12.9	0.6	249	8
2023-09-13T00:00	2059	796	12.8	0.1	246	8
2023-09-13T00:00	2085	794	12.7	-0.2	244	7
2023-09-13T00:00	2101	792	12.6	-0.2	242	7
2023-09-13T00:00	2121	790	12.5	0.5	241	6
2023-09-13T00:00	2144	788	12.3	1.4	240	6
2023-09-13T00:00	2164	786	12.1	1.3	238	5
2023-09-13T00:00	2183	785	11.9	1.3	235	5
2023-09-13T00:00	2202	783	11.7	1.3	232	6
2023-09-13T00:00	2224	781	11.5	1.3	231	6
2023-09-13T00:00	2248	779	11.3	1.2	232	6
2023-09-13T00:00	2271	776	11.1	1.3	234	6
2023-09-13T00:00	2295	774	10.8	1.2	236	6
2023-09-13T00:00	2325	771	10.5	1.2	239	6
2023-09-13T00:00	2348	769	10.3	1.2	240	6
2023-09-13T00:00	2376	767	10.0	1.2	239	6
2023-09-13T00:00	2397	765	9.8	1.3	237	6
2023-09-13T00:00	2418	763	9.6	1.3	235	6
2023-09-13T00:00	2439	761	9.4	1.4	234	6
2023-09-13T00:00	2461	759	9.2	1.6	234	6
2023-09-13T00:00	2485	757	9.0	1.7	233	6
2023-09-13T00:00	2507	755	8.8	1.7	232	6
2023-09-13T00:00	2531	753	8.6	1.5	230	6
2023-09-13T00:00	2551	751	8.5	1.6	227	6
2023-09-13T00:00	2573	748	8.4	1.5	224	6
2023-09-13T00:00	2599	746	8.2	1.4	222	6
2023-09-13T00:00	2620	744	8.0	1.4	222	6
2023-09-13T00:00	2656	741	7.7	1.2	223	7
2023-09-13T00:00	2681	739	7.5	1.1	223	7
2023-09-13T00:00	2703	737	7.3	1.1	222	7
2023-09-13T00:00	2732	734	7.1	0.8	219	7
2023-09-13T00:00	2758	732	7.0	0.8	216	7
2023-09-13T00:00	2787	730	6.8	0.2	213	7
2023-09-13T00:00	2804	728	6.7	0.0	212	7
2023-09-13T00:00	2825	726	6.6	0.0	213	7
2023-09-13T00:00	2847	724	6.4	0.1	218	6
2023-09-13T00:00	2868	722	6.3	0.7	225	7
2023-09-13T00:00	2888	721	6.1	0.8	231	7
2023-09-13T00:00	2907	719	6.0	0.7	235	7
2023-09-13T00:00	2932	717	5.8	0.6	237	7
2023-09-13T00:00	2953	715	5.7	0.5	236	8
2023-09-13T00:00	2976	713	5.5	0.3	234	8
2023-09-13T00:00	3001	710	5.4	0.4	232	8
2023-09-13T00:00	3037	708	5.1	0.3	230	9
2023-09-13T00:00	3063	705	4.9	0.1	230	9
2023-09-13T00:00	3085	703	4.9	0.3	230	10
2023-09-13T00:00	3104	702	4.7	-0.1	231	10
2023-09-13T00:00	3125	700	4.6	-0.2	233	10
2023-09-13T00:00	3158	697	4.4	-0.4	234	10
2023-09-13T00:00	3177	695	4.2	-0.6	235	9
2023-09-13T00:00	3202	693	4.0	-1.1	235	9
2023-09-13T00:00	3226	691	3.9	-1.1	236	9
2023-09-13T00:00	3244	689	3.7	-1.4	236	9
2023-09-13T00:00	3273	687	3.5	-1.5	237	9
2023-09-13T00:00	3311	684	3.1	-1.5	239	9
2023-09-13T00:00	3334	682	2.9	-1.4	239	9
2023-09-13T00:00	3359	680	2.6	-1.4	239	9
2023-09-13T00:00	3390	677	2.4	-1.3	237	9
2023-09-13T00:00	3421	675	2.1	-1.3	234	9
2023-09-13T00:00	3444	673	1.9	-1.4	232	10
2023-09-13T00:00	3463	671	1.7	-1.4	232	10
2023-09-13T00:00	3484	670	1.5	-1.5	233	10
2023-09-13T00:00	3518	667	1.3	-1.7	236	10
2023-09-13T00:00	3540	665	1.1	-1.8	237	10
2023-09-13T00:00	3557	663	0.9	-1.7	239	10
2023-09-13T00:00	3581	662	0.7	-1.4	239	10
2023-09-13T00:00	3607	659	0.5	-1.6	239	10
2023-09-13T00:00	3631	658	0.4	-2.5	239	10
2023-09-13T00:00	3660	655	0.3	-2.5	239	10
2023-09-13T00:00	3690	653	0.0	-2.0	237	10
2023-09-13T00:00	3713	651	-0.2	-1.8	235	10
2023-09-13T00:00	3733	649	-0.3	-1.3	232	9
2023-09-13T00:00	3755	647	-0.5	-1.6	229	9
2023-09-13T00:00	3779	645	-0.6	-1.7	227	9
2023-09-13T00:00	3807	643	-0.8	-1.7	227	9
2023-09-13T00:00	3838	641	-1.0	-2.0	228	10
2023-09-13T00:00	3866	639	-1.2	-2.2	229	10
2023-09-13T00:00	3886	637	-1.3	-2.3	230	10
2023-09-13T00:00	3912	635	-1.5	-2.9	231	10
2023-09-13T00:00	3935	633	-1.7	-3.1	233	10
2023-09-13T00:00	3958	631	-2.0	-3.2	234	10
2023-09-13T00:00	3979	630	-2.2	-3.0	236	10
2023-09-13T00:00	4002	628	-2.4	-3.3	239	10
2023-09-13T00:00	4030	626	-2.6	-3.4	242	10
2023-09-13T00:00	4059	623	-2.9	-3.5	245	10
2023-09-13T00:00	4076	622	-3.0	-3.7	246	10
2023-09-13T00:00	4101	620	-3.2	-3.7	246	10
2023-09-13T00:00	4133	618	-3.5	-3.8	244	10
2023-09-13T00:00	4161	615	-3.7	-4.1	242	9
2023-09-13T00:00	4187	613	-3.9	-4.4	240	9
2023-09-13T00:00	4211	612	-4.0	-4.6	238	9
2023-09-13T00:00	4231	610	-4.2	-4.7	238	9
2023-09-13T00:00	4254	608	-4.2	-5.3	237	9
2023-09-13T00:00	4283	606	-4.5	-5.6	237	9
2023-09-13T00:00	4307	604	-4.7	-5.7	236	10
2023-09-13T00:00	4336	602	-4.8	-6.2	236	10
2023-09-13T00:00	4365	600	-4.9	-6.6	237	10
2023-09-13T00:00	4386	598	-5.1	-6.6	237	11
2023-09-13T00:00	4403	597	-5.2	-6.7	237	11
2023-09-13T00:00	4421	595	-5.2	-7.1	236	11
2023-09-13T00:00	4440	594	-5.3	-7.4	235	11
2023-09-13T00:00	4461	592	-5.5	-7.7	233	11
2023-09-13T00:00	4489	590	-5.7	-7.9	232	11
2023-09-13T00:00	4518	588	-5.9	-7.9	231	11
2023-09-13T00:00	4536	587	-6.0	-7.8	231	11
2023-09-13T00:00	4557	585	-6.2	-8.0	231	11
2023-09-13T00:00	4586	583	-6.4	-8.1	230	11
2023-09-13T00:00	4619	581	-6.6	-8.8	230	11
2023-09-13T00:00	4645	579	-6.9	-8.7	230	11
2023-09-13T00:00	4660	577	-7.0	-8.7	229	11
2023-09-13T00:00	4682	576	-7.2	-8.7	229	11
2023-09-13T00:00	4701	574	-7.3	-8.8	227	10
2023-09-13T00:00	4723	573	-7.5	-9.0	225	10
2023-09-13T00:00	4745	571	-7.6	-9.3	222	10
2023-09-13T00:00	4775	569	-7.7	-10.4	219	9
2023-09-13T00:00	4794	568	-7.7	-10.4	218	9
2023-09-13T00:00	4813	566	-7.9	-10.7	218	9
2023-09-13T00:00	4834	565	-7.9	-11.0	220	9
2023-09-13T00:00	4855	563	-8.1	-11.1	223	9
2023-09-13T00:00	4881	561	-8.3	-11.4	225	9
2023-09-13T00:00	4909	559	-8.4	-12.3	226	10
2023-09-13T00:00	4924	558	-8.6	-12.4	226	10
2023-09-13T00:00	4944	557	-8.7	-12.5	225	10
2023-09-13T00:00	4961	555	-8.8	-12.5	224	11
2023-09-13T00:00	4982	554	-8.9	-11.9	223	11
2023-09-13T00:00	5013	552	-9.2	-11.8	222	11
2023-09-13T00:00	5039	550	-9.4	-12.3	221	12
2023-09-13T00:00	5055	549	-9.5	-12.2	220	12
2023-09-13T00:00	5074	547	-9.7	-12.4	218	11
2023-09-13T00:00	5094	546	-9.8	-12.8	216	11
2023-09-13T00:00	5112	545	-9.7	-14.6	213	10
2023-09-13T00:00	5141	543	-9.6	-18.0	211	10
2023-09-13T00:00	5165	541	-9.6	-18.3	209	10
2023-09-13T00:00	5187	540	-9.7	-16.9	209	10
2023-09-13T00:00	5205	538	-9.8	-16.6	210	10
2023-09-13T00:00	5226	537	-10.0	-16.3	212	10
2023-09-13T00:00	5259	535	-10.3	-15.7	214	11
2023-09-13T00:00	5282	533	-10.5	-13.7	217	11
2023-09-13T00:00	5305	531	-10.5	-14.7	219	11
2023-09-13T00:00	5324	530	-10.6	-16.0	221	12
2023-09-13T00:00	5350	528	-10.5	-19.8	224	12
2023-09-13T00:00	5382	526	-10.6	-21.1	227	12
2023-09-13T00:00	5413	524	-10.8	-21.3	230	12
2023-09-13T00:00	5430	523	-10.9	-21.2	232	13
2023-09-13T00:00	5453	521	-10.9	-21.2	233	13
2023-09-13T00:00	5481	519	-11.0	-20.0	232	13
2023-09-13T00:00	5509	517	-11.3	-19.3	231	13
2023-09-13T00:00	5534	516	-11.5	-18.8	231	13
2023-09-13T00:00	5552	515	-11.7	-18.5	230	13
2023-09-13T00:00	5568	513	-11.8	-18.0	230	13
2023-09-13T00:00	5590	512	-12.0	-18.0	230	13
2023-09-13T00:00	5613	510	-12.2	-18.1	231	13
2023-09-13T00:00	5643	508	-12.3	-19.9	232	13
2023-09-13T00:00	5670	507	-12.5	-20.5	232	13
2023-09-13T00:00	5703	505	-12.5	-22.2	232	14
2023-09-13T00:00	5726	503	-12.5	-23.0	231	14
2023-09-13T00:00	5750	501	-12.7	-23.4	230	15
2023-09-13T00:00	5776	500	-12.8	-23.5	230	15
2023-09-13T00:00	5809	498	-13.1	-22.8	229	15
2023-09-13T00:00	5826	496	-13.2	-20.9	229	15
2023-09-13T00:00	5846	495	-13.4	-19.7	230	15
2023-09-13T00:00	5862	494	-13.5	-19.1	230	14
2023-09-13T00:00	5881	493	-13.7	-20.1	230	14
2023-09-13T00:00	5908	491	-13.8	-21.5	230	14
2023-09-13T00:00	5939	489	-14.0	-22.5	229	13
2023-09-13T00:00	5962	487	-14.2	-23.1	227	13
2023-09-13T00:00	5992	486	-14.5	-23.6	225	12
2023-09-13T00:00	6024	484	-14.7	-23.9	222	11
2023-09-13T00:00	6047	482	-14.8	-23.7	220	11
2023-09-13T00:00	6072	480	-15.0	-23.9	218	10
2023-09-13T00:00	6104	479	-15.3	-24.0	218	10
2023-09-13T00:00	6123	477	-15.5	-24.0	220	11
2023-09-13T00:00	6146	476	-15.5	-23.7	222	11
2023-09-13T00:00	6170	474	-15.4	-23.2	226	11
2023-09-13T00:00	6205	472	-15.7	-23.7	229	11
2023-09-13T00:00	6237	470	-16.0	-24.3	232	11
2023-09-13T00:00	6260	469	-16.2	-24.4	233	11
2023-09-13T00:00	6285	467	-16.4	-23.9	234	11
2023-09-13T00:00	6317	465	-16.7	-23.7	234	11
2023-09-13T00:00	6342	464	-16.9	-22.9	234	11
2023-09-13T00:00	6363	462	-17.0	-26.2	234	11
2023-09-13T00:00	6382	461	-17.2	-25.7	234	11
2023-09-13T00:00	6408	460	-17.4	-23.9	234	11
2023-09-13T00:00	6438	458	-17.7	-24.2	233	10
2023-09-13T00:00	6468	456	-18.0	-24.8	232	10
2023-09-13T00:00	6487	455	-18.1	-24.7	231	10
2023-09-13T00:00	6509	453	-18.3	-25.0	230	11
2023-09-13T00:00	6531	452	-18.5	-25.0	230	11
2023-09-13T00:00	6552	451	-18.7	-25.3	230	11
2023-09-13T00:00	6582	449	-19.0	-25.0	231	11
2023-09-13T00:00	6604	448	-19.1	-24.4	233	11
2023-09-13T00:00	6633	446	-19.3	-24.7	234	11
2023-09-13T00:00	6658	444	-19.6	-24.7	235	11
2023-09-13T00:00	6685	443	-19.8	-24.5	236	11
2023-09-13T00:00	6716	441	-20.0	-24.6	236	11
2023-09-13T00:00	6739	440	-20.2	-25.2	235	11
2023-09-13T00:00	6770	438	-20.4	-26.1	234	10
2023-09-13T00:00	6800	436	-20.6	-26.3	232	10
2023-09-13T00:00	6834	434	-20.9	-26.4	230	10
2023-09-13T00:00	6858	433	-21.1	-26.3	229	10
2023-09-13T00:00	6886	431	-21.4	-26.3	228	10
2023-09-13T00:00	6916	429	-21.7	-26.5	228	10
2023-09-13T00:00	6943	428	-21.9	-26.5	228	10
2023-09-13T00:00	6971	426	-22.2	-26.6	229	11
2023-09-13T00:00	7000	424	-22.4	-26.6	230	11
2023-09-13T00:00	7030	423	-22.7	-26.6	231	11
2023-09-13T00:00	7056	421	-22.9	-26.6	232	11
2023-09-13T00:00	7086	419	-23.2	-26.9	232	11
2023-09-13T00:00	7122	417	-23.4	-27.5	231	11
2023-09-13T00:00	7154	416	-23.5	-28.6	230	11
2023-09-13T00:00	7178	414	-23.7	-29.6	229	11
2023-09-13T00:00	7204	413	-23.9	-30.2	229	11
2023-09-13T00:00	7226	412	-24.1	-30.8	230	11
2023-09-13T00:00	7246	410	-24.3	-31.8	231	11
2023-09-13T00:00	7271	409	-24.3	-31.7	233	11
2023-09-13T00:00	7303	407	-24.5	-32.1	234	11
2023-09-13T00:00	7332	405	-24.7	-31.6	235	11
2023-09-13T00:00	7361	404	-24.9	-31.9	234	11
2023-09-13T00:00	7391	402	-25.1	-33.5	234	10
2023-09-13T00:00	7417	401	-25.3	-33.9	233	10
2023-09-13T00:00	7435	400	-25.4	-34.3	234	10
2023-09-13T00:00	7461	398	-25.7	-35.5	235	10
2023-09-13T00:00	7483	397	-25.9	-35.9	237	10
2023-09-13T00:00	7511	396	-26.1	-36.7	240	11
2023-09-13T00:00	7539	394	-26.4	-35.1	241	11
2023-09-13T00:00	7568	393	-26.6	-35.2	242	11
2023-09-13T00:00	7590	391	-26.8	-35.0	243	11
2023-09-13T00:00	7611	390	-27.0	-34.9	242	11
2023-09-13T00:00	7636	389	-27.3	-34.8	242	11
2023-09-13T00:00	7664	387	-27.5	-35.0	241	11
2023-09-13T00:00	7693	386	-27.8	-35.6	240	10
2023-09-13T00:00	7718	384	-28.0	-36.5	239	10
2023-09-13T00:00	7748	383	-28.2	-36.8	239	9
2023-09-13T00:00	7778	381	-28.5	-36.4	239	9
2023-09-13T00:00	7799	380	-28.6	-36.6	240	9
2023-09-13T00:00	7822	379	-28.8	-36.7	241	9
2023-09-13T00:00	7849	378	-28.9	-37.1	243	9
2023-09-13T00:00	7873	376	-29.2	-37.6	244	9
2023-09-13T00:00	7896	375	-29.4	-37.8	246	9
2023-09-13T00:00	7921	373	-29.6	-38.3	248	9
2023-09-13T00:00	7956	372	-29.8	-39.7	249	8
2023-09-13T00:00	7977	371	-29.9	-40.5	249	8
2023-09-13T00:00	8005	369	-30.0	-42.5	249	8
2023-09-13T00:00	8033	368	-30.1	-41.3	249	7
2023-09-13T00:00	8063	366	-30.3	-40.5	248	7
2023-09-13T00:00	8092	365	-30.5	-41.2	248	7
2023-09-13T00:00	8125	363	-30.5	-45.9	249	7
2023-09-13T00:00	8155	362	-30.4	-41.7	250	7
2023-09-13T00:00	8183	360	-30.6	-39.6	250	7
2023-09-13T00:00	8208	359	-30.8	-39.3	248	7
2023-09-13T00:00	8226	358	-30.9	-38.8	246	6
2023-09-13T00:00	8251	357	-31.1	-37.5	242	6
2023-09-13T00:00	8283	355	-31.4	-38.2	238	6
2023-09-13T00:00	8313	354	-31.6	-39.2	236	6
2023-09-13T00:00	8333	353	-31.8	-39.1	235	6
2023-09-13T00:00	8357	351	-32.0	-39.5	236	6
2023-09-13T00:00	8384	350	-32.2	-41.0	236	6
2023-09-13T00:00	8409	349	-32.4	-41.1	235	6
2023-09-13T00:00	8442	347	-32.7	-41.1	234	7
2023-09-13T00:00	8467	346	-32.9	-40.7	233	7
2023-09-13T00:00	8494	345	-33.2	-40.5	233	7
2023-09-13T00:00	8524	343	-33.4	-39.9	232	7
2023-09-13T00:00	8550	342	-33.7	-40.0	230	7
2023-09-13T00:00	8572	341	-33.9	-39.6	229	7
2023-09-13T00:00	8594	340	-34.0	-39.2	227	7
2023-09-13T00:00	8614	339	-34.2	-38.8	227	7
2023-09-13T00:00	8635	338	-34.3	-38.5	226	7
2023-09-13T00:00	8657	337	-34.4	-38.8	225	7
2023-09-13T00:00	8679	336	-34.6	-39.3	223	7
2023-09-13T00:00	8699	335	-34.8	-39.3	221	7
2023-09-13T00:00	8718	334	-35.0	-39.4	220	7
2023-09-13T00:00	8741	333	-35.0	-38.6	220	7
2023-09-13T00:00	8763	332	-35.2	-38.5	222	7
2023-09-13T00:00	8786	331	-35.3	-38.5	225	7
2023-09-13T00:00	8807	330	-35.5	-38.8	229	7
2023-09-13T00:00	8831	328	-35.7	-39.4	231	7
2023-09-13T00:00	8859	327	-35.8	-39.9	233	7
2023-09-13T00:00	8884	326	-36.0	-40.1	232	7
2023-09-13T00:00	8912	325	-36.2	-39.8	232	7
2023-09-13T00:00	8934	324	-36.4	-39.9	231	7
2023-09-13T00:00	8959	322	-36.7	-40.1	232	7
2023-09-13T00:00	8986	321	-36.9	-40.1	235	8
2023-09-13T00:00	9012	320	-37.2	-40.3	237	8
2023-09-13T00:00	9041	319	-37.4	-40.4	240	8
2023-09-13T00:00	9065	317	-37.6	-40.6	241	8
2023-09-13T00:00	9098	316	-37.9	-40.8	242	8
2023-09-13T00:00	9122	315	-38.1		241	9
2023-09-13T00:00	9150	314	-38.3	-41.9	240	9
2023-09-13T00:00	9175	312	-38.5	-42.0	239	9
2023-09-13T00:00	9207	311	-38.7	-42.2	238	9
2023-09-13T00:00	9233	310	-39.0	-42.7	238	9
2023-09-13T00:00	9261	309	-39.2	-42.7	239	9
2023-09-13T00:00	9286	307	-39.4	-42.9	240	9
2023-09-13T00:00	9307	306	-39.6	-43.6	241	10
2023-09-13T00:00	9330	305	-39.7	-44.1	241	10
2023-09-13T00:00	9351	304	-39.8	-44.7	241	10
2023-09-13T00:00	9375	303	-40.0	-44.9	241	11
2023-09-13T00:00	9398	302	-40.1	-44.8	240	11
2023-09-13T00:00	9424	301	-40.3	-45.0	240	11
2023-09-13T00:00	9447	300	-40.5	-45.2	241	12
2023-09-13T00:00	9468	299	-40.7	-45.3	243	12
2023-09-13T00:00	9492	298	-40.9		245	12
2023-09-13T00:00	9515	297	-41.1	-45.5	247	12
2023-09-13T00:00	9535	296	-41.3	-45.8	249	12
2023-09-13T00:00	9558	295	-41.4		251	13
2023-09-13T00:00	9578	295	-41.5	-46.8	253	13
2023-09-13T00:00	9596	294	-41.6	-47.0	255	13
2023-09-13T00:00	9616	293	-41.8	-47.2	256	13
2023-09-13T00:00	9638	292	-41.9	-47.5	258	13
2023-09-13T00:00	9660	291	-42.0	-48.1	260	13
2023-09-13T00:00	9683	290	-42.1	-48.3	261	13
2023-09-13T00:00	9704	289	-42.3	-48.6	262	13
2023-09-13T00:00	9727	288	-42.3	-49.3	263	13
2023-09-13T00:00	9746	287	-42.3	-50.1	265	13
2023-09-13T00:00	9763	287	-42.4	-50.4	266	13
2023-09-13T00:00	9782	286	-42.6	-50.5	267	13
2023-09-13T00:00	9799	285	-42.7	-50.6	269	13
2023-09-13T00:00	9818	284	-42.9	-51.5	271	12
2023-09-13T00:00	9840	283	-43.0	-51.9	273	12
2023-09-13T00:00	9860	282	-43.0	-52.2	275	13
2023-09-13T00:00	9889	281	-43.1	-52.7	277	13
2023-09-13T00:00	9915	280	-43.2	-54.0	278	13
2023-09-13T00:00	9935	279	-43.2	-55.5	277	13
2023-09-13T00:00	9957	278	-43.3	-55.3	277	13
2023-09-13T00:00	9979	278	-43.5	-55.2	276	13
2023-09-13T00:00	10006	276	-43.7		277	13
2023-09-13T00:00	10026	276	-43.9	-55.2	277	13
2023-09-13T00:00	10049	275	-44.1	-55.2	278	13
2023-09-13T00:00	10072	274	-44.3	-55.2	279	13
2023-09-13T00:00	10090	273	-44.5	-55.2	279	13
2023-09-13T00:00	10112	272	-44.7	-55.1	279	13
2023-09-13T00:00	10140	271	-45.0	-55.3	278	13
2023-09-13T00:00	10163	270	-45.2	-55.4	278	13
2023-09-13T00:00	10186	269	-45.4	-55.4	278	14
2023-09-13T00:00	10211	268	-45.6	-55.2	278	14
2023-09-13T00:00	10233	267	-45.8	-55.1	278	14
2023-09-13T00:00	10263	266	-46.1	-55.2	278	15
2023-09-13T00:00	10285	265	-46.3	-55.2	277	15
2023-09-13T00:00	10304	264	-46.4	-55.1	276	16
2023-09-13T00:00	10324	264	-46.7	-55.2	275	16
2023-09-13T00:00	10346	263	-46.8	-55.3	274	16
2023-09-13T00:00	10371	262	-47.0	-55.3	274	16
2023-09-13T00:00	10397	261	-47.2	-55.9	274	15
2023-09-13T00:00	10419	260	-47.3	-57.3	274	15
2023-09-13T00:00	10441	259	-47.5	-57.9	274	15
2023-09-13T00:00	10464	258	-47.7	-58.1	273	15
2023-09-13T00:00	10488	257	-47.8	-58.1	272	15
2023-09-13T00:00	10509	256	-48.0	-58.0	270	15
2023-09-13T00:00	10531	255	-48.2	-57.5	269	16
2023-09-13T00:00	10550	255	-48.3	-57.0	267	16
2023-09-13T00:00	10580	254	-48.5	-57.3	266	16
2023-09-13T00:00	10598	253	-48.6	-57.7	265	16
2023-09-13T00:00	10622	252	-48.8	-57.7	264	16
2023-09-13T00:00	10649	251	-49.1	-57.7	264	16
2023-09-13T00:00	10672	250	-49.3	-57.8	264	17
2023-09-13T00:00	10693	249	-49.5	-57.9	264	17
2023-09-13T00:00	10719	248	-49.8	-57.9	263	17
2023-09-13T00:00	10741	247	-50.0	-57.7	262	17
2023-09-13T00:00	10766	246	-50.2	-57.7	261	17
2023-09-13T00:00	10789	246	-50.4	-57.8	261	17
2023-09-13T00:00	10811	245	-50.7	-57.9	261	17
2023-09-13T00:00	10835	244	-50.9	-57.9	261	17
2023-09-13T00:00	10860	243	-51.1	-57.8	262	17
2023-09-13T00:00	10886	242	-51.4	-57.8	263	17
2023-09-13T00:00	10914	241	-51.6	-57.6	263	17
2023-09-13T00:00	10940	240	-51.9	-57.7	262	17
2023-09-13T00:00	10964	239	-52.1	-57.9	262	17
2023-09-13T00:00	10985	238	-52.3	-58.1	261	17
2023-09-13T00:00	11006	238	-52.4	-58.2	261	17
2023-09-13T00:00	11030	237	-52.6	-58.2	260	17
2023-09-13T00:00	11052	236	-52.8	-58.3	260	17
2023-09-13T00:00	11080	235	-53.0	-58.3	259	16
2023-09-13T00:00	11102	234	-53.3	-58.6	259	16
2023-09-13T00:00	11122	233	-53.4	-58.6	258	16
2023-09-13T00:00	11143	233	-53.6	-58.6	257	15
2023-09-13T00:00	11164	232	-53.8	-58.6	256	15
2023-09-13T00:00	11185	231	-54.0	-58.6	256	15
2023-09-13T00:00	11211	230	-54.2	-58.8	256	14
2023-09-13T00:00	11233	229	-54.4	-59.2	257	14
2023-09-13T00:00	11256	228	-54.5	-59.4	257	14
2023-09-13T00:00	11280	228	-54.7	-59.5	257	14
2023-09-13T00:00	11303	227	-55.0	-59.6	257	14
2023-09-13T00:00	11323	226	-55.2	-59.6	257	14
2023-09-13T00:00	11346	225	-55.4	-59.7	258	14
2023-09-13T00:00	11369	224	-55.6	-59.8	260	14
2023-09-13T00:00	11390	224	-55.8	-60.1	261	14
2023-09-13T00:00	11411	223	-55.8		262	14
2023-09-13T00:00	11433	222	-55.8	-61.0	263	14
2023-09-13T00:00	11451	222	-56.0	-61.4	263	14
2023-09-13T00:00	11472	221	-56.0	-61.6	264	14
2023-09-13T00:00	11490	220	-56.2	-62.0	264	14
2023-09-13T00:00	11509	220	-56.3	-62.5	264	14
2023-09-13T00:00	11531	219	-56.3	-62.7	264	14
2023-09-13T00:00	11554	218	-56.5	-62.7	263	14
2023-09-13T00:00	11577	217	-56.7	-62.8	263	14
2023-09-13T00:00	11597	217	-56.8	-62.8	262	15
2023-09-13T00:00	11615	216	-57.0	-63.0	262	15
2023-09-13T00:00	11636	215	-57.1	-63.0	262	15
2023-09-13T00:00	11655	215	-57.3	-63.0	261	15
2023-09-13T00:00	11676	214	-57.5	-63.1	261	15
2023-09-13T00:00	11700	213	-57.7	-63.1	260	15
2023-09-13T00:00	11724	212	-57.9	-63.1	259	16
2023-09-13T00:00	11748	211	-58.1	-63.2	259	16
2023-09-13T00:00	11767	211	-58.3	-63.3	259	16
2023-09-13T00:00	11789	210	-58.5	-63.4	259	16
2023-09-13T00:00	11810	209	-58.6	-63.3	259	16
2023-09-13T00:00	11831	209	-58.8	-63.4	259	16
2023-09-13T00:00	11852	208	-59.0	-63.5	260	16
2023-09-13T00:00	11876	207	-59.2	-63.6	261	16
2023-09-13T00:00	11903	206	-59.4	-63.8	262	16
2023-09-13T00:00	11933	205	-59.6	-64.1	264	17
2023-09-13T00:00	11958	204	-59.7	-64.3	265	17
2023-09-13T00:00	11986	204	-59.7	-64.4	266	18
2023-09-13T00:00	12013	203	-59.9	-64.6	267	18
2023-09-13T00:00	12039	202	-60.0	-64.8	268	18
2023-09-13T00:00	12067	201	-60.1	-65.1	268	18
2023-09-13T00:00	12093	200	-60.0	-65.2	268	18
2023-09-13T00:00	12117	199	-60.0	-65.3	268	18
2023-09-13T00:00	12145	198	-60.1	-65.5	267	18
2023-09-13T00:00	12168	198	-60.1	-65.7	267	17
2023-09-13T00:00	12190	197	-60.1	-65.8	267	17
2023-09-13T00:00	12211	196	-60.1	-66.0	266	17
2023-09-13T00:00	12233	196	-60.2	-66.2	265	17
2023-09-13T00:00	12253	195	-60.1	-66.2	264	16
2023-09-13T00:00	12277	194	-59.7	-66.1	262	15
2023-09-13T00:00	12297	194	-59.3	-66.2	259	15
2023-09-13T00:00	12319	193	-59.2	-67.2	257	14
2023-09-13T00:00	12341	192	-58.5	-68.3	254	14
2023-09-13T00:00	12364	192	-57.8	-69.5	252	14
2023-09-13T00:00	12385	191	-57.2	-70.6	251	14
2023-09-13T00:00	12406	190	-56.6	-71.3	251	14
2023-09-13T00:00	12426	190	-55.7	-71.7	250	14
2023-09-13T00:00	12448	189	-55.5	-72.4	250	14
2023-09-13T00:00	12469	188	-55.4	-73.2	249	14
2023-09-13T00:00	12491	188	-55.4	-74.0	248	14
2023-09-13T00:00	12511	187	-55.6	-74.6	248	14
2023-09-13T00:00	12533	187	-55.6	-74.8	247	13
2023-09-13T00:00	12552	186	-55.6	-74.7	246	13
2023-09-13T00:00	12573	185	-55.4	-74.4	244	13
2023-09-13T00:00	12594	185	-55.5	-74.4	243	13
2023-09-13T00:00	12616	184	-55.6	-74.3	242	13
2023-09-13T00:00	12636	184	-55.8	-74.4	241	13
2023-09-13T00:00	12657	183	-55.9	-74.4	240	13
2023-09-13T00:00	12676	182	-56.0	-74.5	239	13
2023-09-13T00:00	12698	182	-56.2	-74.7	239	14
2023-09-13T00:00	12720	181	-56.2	-74.7	238	14
2023-09-13T00:00	12735	181	-56.3	-74.9	238	14
2023-09-13T00:00	12758	180	-56.5	-75.0	237	14
2023-09-13T00:00	12778	180	-56.5	-74.9	237	15
2023-09-13T00:00	12797	179	-56.5	-74.6	237	15
2023-09-13T00:00	12815	178	-56.5	-74.1	236	15
2023-09-13T00:00	12835	178	-56.4	-73.5	236	16
2023-09-13T00:00	12854	177	-56.2	-73.4	236	16
2023-09-13T00:00	12873	177	-56.2	-73.6	235	16
2023-09-13T00:00	12894	176	-56.3	-73.9	235	16
2023-09-13T00:00	12912	176	-56.3	-74.1	234	16
2023-09-13T00:00	12930	175	-56.3	-74.1	233	16
2023-09-13T00:00	12950	175	-56.4	-74.0	233	16
2023-09-13T00:00	12966	174	-56.4	-73.5	232	16
2023-09-13T00:00	12983	174	-56.3	-72.9	232	16
2023-09-13T00:00	13000	173	-56.3	-72.9	233	17
2023-09-13T00:00	13021	173	-56.4	-73.7	234	17
2023-09-13T00:00	13043	172	-56.4	-74.9	236	17
2023-09-13T00:00	13060	172	-56.6	-76.5	237	18
2023-09-13T00:00	13079	171	-56.6	-77.4	238	18
2023-09-13T00:00	13098	171	-56.8	-78.1	239	19
2023-09-13T00:00	13117	170	-56.7	-78.3	239	19
2023-09-13T00:00	13138	170	-56.6	-78.2	239	19
2023-09-13T00:00	13155	169	-56.6	-78.2	239	19
2023-09-13T00:00	13178	169	-56.7	-78.0	238	19
2023-09-13T00:00	13196	168	-56.9	-77.8	238	18
2023-09-13T00:00	13218	167	-57.0	-77.4	237	18
2023-09-13T00:00	13239	167	-57.0	-77.0	238	18
2023-09-13T00:00	13259	166	-57.1	-77.2	238	18
2023-09-13T00:00	13280	166	-57.1	-77.5	238	18
2023-09-13T00:00	13300	165	-57.1	-77.6	237	17
2023-09-13T00:00	13324	165	-57.2	-77.5	237	18
2023-09-13T00:00	13344	164	-57.4	-77.4	236	18
2023-09-13T00:00	13366	164	-57.5	-77.3	236	18
2023-09-13T00:00	13388	163	-57.6	-77.4	236	18
2023-09-13T00:00	13409	163	-57.5	-77.3	237	18
2023-09-13T00:00	13428	162	-57.6	-77.5	238	18
2023-09-13T00:00	13451	161	-57.6	-77.5	240	18
2023-09-13T00:00	13470	161	-57.6	-77.5	242	18
2023-09-13T00:00	13494	160	-57.6	-77.6	243	18
2023-09-13T00:00	13515	160	-57.7	-78.0	245	18
2023-09-13T00:00	13536	159	-57.5	-78.0	246	18
2023-09-13T00:00	13556	159	-57.1	-77.8	247	18
2023-09-13T00:00	13578	158	-57.0	-77.9	248	17
2023-09-13T00:00	13601	158	-57.1	-78.1	249	17
2023-09-13T00:00	13621	157	-57.2	-78.2	250	17
2023-09-13T00:00	13644	157	-57.3	-78.3	251	17
2023-09-13T00:00	13665	156	-57.4	-78.3	252	16
2023-09-13T00:00	13688	156	-57.6	-78.6	253	16
2023-09-13T00:00	13708	155	-57.7	-78.7	254	15
2023-09-13T00:00	13728	155	-57.5	-78.7	255	15
2023-09-13T00:00	13751	154	-57.5	-78.8	255	14
2023-09-13T00:00	13771	153	-57.6	-79.0	256	14
2023-09-13T00:00	13797	153	-57.7	-79.1	255	13
2023-09-13T00:00	13819	152	-57.8	-79.2	254	13
2023-09-13T00:00	13839	152	-57.7	-79.3	253	13
2023-09-13T00:00	13861	151	-57.7	-79.4	251	13
2023-09-13T00:00	13880	151	-57.8	-79.5	249	13
2023-09-13T00:00	13900	150	-57.8	-79.5	248	13
2023-09-13T00:00	13919	150	-57.9	-79.6	246	13
2023-09-13T00:00	13942	149	-58.0	-79.7	245	14
2023-09-13T00:00	13962	149	-58.2	-79.8	244	14
2023-09-13T00:00	13983	148	-58.2	-79.8	243	15
2023-09-13T00:00	14001	148	-58.2	-79.8	243	15
2023-09-13T00:00	14022	147	-58.3	-79.9	242	15
2023-09-13T00:00	14041	147	-58.4	-80.0	242	15
2023-09-13T00:00	14061	147	-58.4	-80.0	242	15
2023-09-13T00:00	14078	146	-58.4	-80.1	242	14
2023-09-13T00:00	14096	146	-58.4	-80.1	243	14
2023-09-13T00:00	14113	145	-58.4	-80.1	244	14
2023-09-13T00:00	14133	145	-58.5	-80.2	244	14
2023-09-13T00:00	14151	144	-58.6	-80.3	243	13
2023-09-13T00:00	14169	144	-58.8	-80.5	243	13
2023-09-13T00:00	14188	144	-58.8	-80.5	241	13
2023-09-13T00:00	14206	143	-58.8	-80.3	240	14
2023-09-13T00:00	14223	143	-58.8	-80.5	239	14
2023-09-13T00:00	14240	142	-58.8	-80.5	238	14
2023-09-13T00:00	14259	142	-58.7	-80.4	237	14
2023-09-13T00:00	14274	142	-58.8	-80.5	237	14
2023-09-13T00:00	14293	141	-58.7	-80.4	237	14
2023-09-13T00:00	14311	141	-58.3	-80.2	238	14
2023-09-13T00:00	14328	140	-57.7	-80.0	239	14
2023-09-13T00:00	14346	140	-57.3	-80.2	241	14
2023-09-13T00:00	14362	140	-57.3	-80.4	242	14
2023-09-13T00:00	14379	139	-57.3	-80.6	244	15
2023-09-13T00:00	14395	139	-57.4	-80.9	245	15
2023-09-13T00:00	14411	139	-57.4	-80.9	247	15
2023-09-13T00:00	14427	138	-57.5	-81.0	248	15
2023-09-13T00:00	14444	138	-57.4	-81.1	250	16
2023-09-13T00:00	14461	138	-57.3	-81.0	252	16
2023-09-13T00:00	14481	137	-57.3	-81.2	254	16
2023-09-13T00:00	14497	137	-57.2	-81.1	257	16
2023-09-13T00:00	14515	136	-57.2	-81.1	259	16
2023-09-13T00:00	14533	136	-57.1	-81.2	262	16
2023-09-13T00:00	14552	136	-57.1	-81.2	265	16
2023-09-13T00:00	14570	135	-57.0	-81.4	268	15
2023-09-13T00:00	14590	135	-56.9	-81.5	271	15
2023-09-13T00:00	14608	134	-56.3	-81.3	275	14
2023-09-13T00:00	14630	134	-56.2	-81.2	278	14
2023-09-13T00:00	14651	133	-56.0	-81.3	282	13
2023-09-13T00:00	14673	133	-56.0	-81.3	285	12
2023-09-13T00:00	14693	133	-55.7	-81.1	287	12
2023-09-13T00:00	14714	132	-55.7	-81.1	288	11
2023-09-13T00:00	14734	132	-55.7	-81.1	289	10
2023-09-13T00:00	14755	131	-55.7	-81.1	289	10
2023-09-13T00:00	14779	131	-55.8	-80.9	288	9
2023-09-13T00:00	14800	130	-55.9	-81.0	287	8
2023-09-13T00:00	14822	130	-56.0	-81.1	286	8
2023-09-13T00:00	14839	130	-56.1	-81.1	284	7
2023-09-13T00:00	14863	129	-56.2	-81.0	281	7
2023-09-13T00:00	14885	129	-56.3	-81.1	277	7
2023-09-13T00:00	14907	128	-56.5	-81.2	273	6
2023-09-13T00:00	14930	128	-56.6	-81.3	268	6
2023-09-13T00:00	14951	127	-56.8	-81.2	264	6
2023-09-13T00:00	14975	127	-56.9	-81.3	261	7
2023-09-13T00:00	14996	126	-57.1	-81.5	258	7
2023-09-13T00:00	15014	126	-57.1	-81.2	257	8
2023-09-13T00:00	15036	126	-57.3	-81.4	256	8
2023-09-13T00:00	15057	125	-57.3	-81.4	256	8
2023-09-13T00:00	15079	125	-57.5	-81.6	256	8
2023-09-13T00:00	15101	124	-57.5	-81.6	256	8
2023-09-13T00:00	15121	124	-57.6	-81.6	256	8
2023-09-13T00:00	15141	124	-57.6	-81.6	255	8
2023-09-13T00:00	15162	123	-57.6	-81.6	255	8
2023-09-13T00:00	15181	123	-57.7	-81.7	255	8
2023-09-13T00:00	15198	122	-57.8	-81.8	254	8
2023-09-13T00:00	15220	122	-57.9	-81.7	253	8
2023-09-13T00:00	15236	122	-58.0	-81.8	251	7
2023-09-13T00:00	15258	121	-58.1	-81.8	248	8
2023-09-13T00:00	15281	121	-58.2		245	8
2023-09-13T00:00	15302	120	-58.3	-82.0	241	8
2023-09-13T00:00	15323	120	-58.4	-82.3	239	9
2023-09-13T00:00	15344	120	-58.4	-82.3	237	9
2023-09-13T00:00	15361	119	-58.5	-82.4	237	10
2023-09-13T00:00	15383	119	-58.6	-82.4	237	10
2023-09-13T00:00	15404	119	-58.8	-82.4	238	10
2023-09-13T00:00	15423	118	-58.9	-82.5	239	10
2023-09-13T00:00	15445	118	-58.9	-82.5	240	10
2023-09-13T00:00	15463	117	-58.9	-82.5	241	10
2023-09-13T00:00	15485	117	-59.0	-82.5	241	10
2023-09-13T00:00	15505	117	-59.1	-82.6	242	10
2023-09-13T00:00	15526	116	-58.9	-82.7	243	11
2023-09-13T00:00	15547	116	-58.9	-82.7	245	11
2023-09-13T00:00	15567	115	-59.0	-83.0	247	11
2023-09-13T00:00	15590	115	-58.8	-82.8	250	12
2023-09-13T00:00	15609	115	-58.6	-82.9	252	12
2023-09-13T00:00	15629	114	-58.3	-82.9	254	13
2023-09-13T00:00	15650	114	-57.9	-82.8	256	13
2023-09-13T00:00	15669	114	-57.7	-82.6	258	13
2023-09-13T00:00	15692	113	-57.7	-82.9	259	13
2023-09-13T00:00	15711	113	-57.5	-82.7	261	13
2023-09-13T00:00	15733	112	-57.4	-82.7	263	13
2023-09-13T00:00	15755	112	-57.4	-82.9	265	12
2023-09-13T00:00	15775	112	-57.3	-82.8	267	12
2023-09-13T00:00	15796	111	-57.2	-82.8	268	12
2023-09-13T00:00	15820	111	-57.2	-82.8	270	11
2023-09-13T00:00	15838	111	-57.2	-82.8	271	11
2023-09-13T00:00	15859	110	-57.2	-82.8	272	10
2023-09-13T00:00	15883	110	-57.4	-82.7	272	10
2023-09-13T00:00	15905	109	-57.5	-82.7	272	9
2023-09-13T00:00	15924	109	-57.7	-82.9	270	9
2023-09-13T00:00	15948	109	-57.5	-82.7	268	9
2023-09-13T00:00	15967	108	-57.5	-82.7	264	9
2023-09-13T00:00	15989	108	-57.6	-82.8	261	9
2023-09-13T00:00	16008	108	-57.7	-82.9	257	9
2023-09-13T00:00	16029	107	-57.8	-83.0	254	9
2023-09-13T00:00	16049	107	-57.8	-83.0	250	9
2023-09-13T00:00	16068	107	-57.9	-83.0	248	9
2023-09-13T00:00	16086	106	-58.1	-83.0	246	9
2023-09-13T00:00	16108	106	-58.2	-83.0	245	9
2023-09-13T00:00	16127	106	-58.4	-83.2	245	10
2023-09-13T00:00	16148	105	-58.5	-83.3	247	10
2023-09-13T00:00	16167	105	-58.5	-83.3	249	11
2023-09-13T00:00	16186	105	-58.6	-83.3	252	11
2023-09-13T00:00	16205	104	-58.5	-83.3	255	12
2023-09-13T00:00	16224	104	-58.4	-83.4	258	12
2023-09-13T00:00	16245	104	-58.4	-83.4	260	13
2023-09-13T00:00	16264	103	-58.3		263	13
2023-09-13T00:00	16284	103	-58.3		265	13
2023-09-13T00:00	16300	103	-58.1	-83.5	268	13
2023-09-13T00:00	16320	102	-58.0	-83.4	271	13
2023-09-13T00:00	16340	102	-58.1	-83.5	273	13
2023-09-13T00:00	16358	102	-58.1	-83.5	276	13
2023-09-13T00:00	16378	102	-58.2	-83.5	278	13
2023-09-13T00:00	16398	101	-58.1	-83.5	279	13
2023-09-13T00:00	16417	101	-58.2	-83.5	281	12
2023-09-13T00:00	16435	101	-58.3	-83.6	282	12
2023-09-13T00:00	16455	100	-58.3	-83.6	282	11
2023-09-13T00:00	16478	100	-58.2	-83.5	282	10
2023-09-13T00:00	16498	100	-58.2	-83.5	282	9
2023-09-13T00:00	16521	99	-58.2	-83.8	282	8
2023-09-13T00:00	16541	99	-58.2	-83.8	282	8
2023-09-13T00:00	16560	99	-58.1	-83.7	283	7
2023-09-13T00:00	16584	98	-58.0	-83.7	284	6
2023-09-13T00:00	16602	98	-57.9	-83.9	286	6
2023-09-13T00:00	16624	98	-57.9	-83.9	287	6
2023-09-13T00:00	16641	97	-57.9	-83.9	289	6
2023-09-13T00:00	16662	97	-58.0	-83.9	291	5
2023-09-13T00:00	16684	97	-58.1	-84.0	294	5
2023-09-13T00:00	16705	96	-58.2	-84.1	298	5
2023-09-13T00:00	16726	96	-58.2	-84.1	301	5
2023-09-13T00:00	16746	96	-58.3	-83.9	303	4
2023-09-13T00:00	16765	95	-58.4	-84.0	303	4
2023-09-13T00:00	16790	95	-58.5	-84.0	300	3
2023-09-13T00:00	16810	95	-58.5	-84.0	295	3
2023-09-13T00:00	16833	94	-58.6	-84.1	288	3
2023-09-13T00:00	16853	94	-58.6	-84.1	281	3
2023-09-13T00:00	16875	94	-58.6	-84.1	275	4
2023-09-13T00:00	16898	93	-58.7	-84.5	271	4
2023-09-13T00:00	16918	93	-58.6	-84.4	267	5
2023-09-13T00:00	16942	93	-58.6	-84.1	264	5
2023-09-13T00:00	16962	93	-58.6	-84.1	261	6
2023-09-13T00:00	16983	92	-58.7	-84.2	259	6
2023-09-13T00:00	17004	92	-58.8	-84.3	258	6
2023-09-13T00:00	17024	92	-59.0	-84.4	258	7
2023-09-13T00:00	17047	91	-59.0	-84.4	259	7
2023-09-13T00:00	17069	91	-59.0	-84.4	260	7
2023-09-13T00:00	17087	91	-58.9	-84.4	261	7
2023-09-13T00:00	17110	90	-58.8	-84.3	263	7
2023-09-13T00:00	17131	90	-58.6	-84.4	264	7
2023-09-13T00:00	17152	90	-58.7	-84.5	265	7
2023-09-13T00:00	17171	89	-58.6	-84.4	266	7
2023-09-13T00:00	17193	89	-58.6	-84.4	267	7
2023-09-13T00:00	17213	89	-58.5	-84.6	268	7
2023-09-13T00:00	17236	89	-58.3	-84.5	269	7
2023-09-13T00:00	17254	88	-58.0	-84.2	269	6
2023-09-13T00:00	17275	88	-57.8	-84.4	267	6
2023-09-13T00:00	17294	88	-57.8	-84.4	265	6
2023-09-13T00:00	17316	87	-57.4	-84.1	265	6
2023-09-13T00:00	17335	87	-57.5	-84.2	265	6
2023-09-13T00:00	17356	87	-57.5	-84.2	267	6
2023-09-13T00:00	17375	87	-57.4	-84.1	269	6
2023-09-13T00:00	17394	86	-57.5	-84.5	270	6
2023-09-13T00:00	17416	86	-57.3	-84.4	271	6
2023-09-13T00:00	17435	86	-56.8	-84.0	271	6
2023-09-13T00:00	17454	86	-56.8	-84.3	272	6
2023-09-13T00:00	17472	85	-56.7	-84.2	275	5
2023-09-13T00:00	17493	85	-56.7	-84.2	279	5
2023-09-13T00:00	17511	85	-56.7	-84.2	282	5
2023-09-13T00:00	17534	85	-56.8	-84.3	284	5
2023-09-13T00:00	17553	84	-56.8	-84.3	283	5
2023-09-13T00:00	17573	84	-56.7	-84.2	281	5
2023-09-13T00:00	17592	84	-56.7	-83.9	279	5
2023-09-13T00:00	17610	83	-56.8	-84.0	277	5
2023-09-13T00:00	17632	83	-57.0	-84.1	278	5
2023-09-13T00:00	17653	83	-57.2	-84.3	280	5
2023-09-13T00:00	17674	83	-57.2	-84.3	281	5
2023-09-13T00:00	17694	82	-57.3	-84.4	281	5
2023-09-13T00:00	17716	82	-57.3	-84.4	280	5
2023-09-13T00:00	17733	82	-57.3	-84.4	278	5
2023-09-13T00:00	17756	82	-57.3	-84.4	274	4
2023-09-13T00:00	17777	81	-57.1	-84.6	269	4
2023-09-13T00:00	17799	81	-56.9	-84.4	262	4
2023-09-13T00:00	17817	81	-56.9	-84.4	255	4
2023-09-13T00:00	17839	81	-57.1	-84.6	249	4
2023-09-13T00:00	17859	80	-57.2	-84.6	244	5
2023-09-13T00:00	17880	80	-57.3	-84.7	241	5
2023-09-13T00:00	17903	80	-57.3	-84.4	239	6
2023-09-13T00:00	17922	79	-57.4	-84.4	239	6
2023-09-13T00:00	17944	79	-57.5	-84.5	241	7
2023-09-13T00:00	17966	79	-57.6	-84.6	245	7
2023-09-13T00:00	17990	79	-57.6	-84.9	250	7
2023-09-13T00:00	18008	78	-57.5	-84.9	256	8
2023-09-13T00:00	18028	78	-57.5	-84.9	262	8
2023-09-13T00:00	18050	78	-57.2	-84.6	268	8
2023-09-13T00:00	18073	78	-57.2	-84.6	273	8
2023-09-13T00:00	18093	77	-57.1	-84.6	277	8
2023-09-13T00:00	18113	77	-57.0	-84.5	281	8
2023-09-13T00:00	18136	77	-57.1	-84.9	284	8
2023-09-13T00:00	18155	77	-57.1	-84.9	287	8
2023-09-13T00:00	18178	76	-57.0	-84.5	290	8
2023-09-13T00:00	18197	76	-57.1	-84.6	291	8
2023-09-13T00:00	18215	76	-57.2	-84.6	293	8
2023-09-13T00:00	18238	76	-57.2	-84.6	294	7
2023-09-13T00:00	18261	75	-57.1	-84.6	296	7
2023-09-13T00:00	18281	75	-57.2	-84.6	297	7
2023-09-13T00:00	18302	75	-57.2	-84.6	297	6
2023-09-13T00:00	18324	75	-57.3	-84.7	298	6
2023-09-13T00:00	18345	74	-57.2	-84.6	297	5
2023-09-13T00:00	18365	74	-57.2	-84.6	295	5
2023-09-13T00:00	18386	74	-57.3	-84.7	290	4
2023-09-13T00:00	18408	74	-57.5	-84.9	284	4
2023-09-13T00:00	18428	73	-57.6	-84.9	275	3
2023-09-13T00:00	18448	73	-57.4	-84.8	267	3
2023-09-13T00:00	18469	73	-57.5	-84.9	261	3
2023-09-13T00:00	18490	73	-57.6	-84.9	256	3
2023-09-13T00:00	18512	72	-57.7	-85.0	254	4
2023-09-13T00:00	18536	72	-57.8	-85.1	253	3
2023-09-13T00:00	18556	72	-57.9	-84.8	254	3
2023-09-13T00:00	18576	72	-57.8	-84.7	255	4
2023-09-13T00:00	18596	71	-57.9	-84.8	255	4
2023-09-13T00:00	18619	71	-58.1	-85.0	256	4
2023-09-13T00:00	18638	71	-58.3	-85.1	256	4
2023-09-13T00:00	18659	71	-58.4	-85.2	256	5
2023-09-13T00:00	18680	70	-58.6	-85.4	256	5
2023-09-13T00:00	18701	70	-58.5	-85.3	256	6
2023-09-13T00:00	18720	70	-58.5	-85.3	256	6
2023-09-13T00:00	18740	70	-58.6	-85.4	258	6
2023-09-13T00:00	18761	70	-58.6	-85.4	259	7
2023-09-13T00:00	18783	69	-58.6	-85.4	260	7
2023-09-13T00:00	18802	69	-58.7	-85.4	262	7
2023-09-13T00:00	18822	69	-58.8	-85.5	263	7
2023-09-13T00:00	18844	69	-58.8	-85.5	265	7
2023-09-13T00:00	18864	68	-58.8	-85.9	266	7
2023-09-13T00:00	18888	68	-58.3	-85.8	268	6
2023-09-13T00:00	18910	68	-57.9	-85.5	270	6
2023-09-13T00:00	18928	68	-57.5	-85.6	274	6
2023-09-13T00:00	18953	68	-57.1	-85.3	278	5
2023-09-13T00:00	18976	67	-56.9	-85.2	283	5
2023-09-13T00:00	18993	67	-56.6	-84.9	289	5
2023-09-13T00:00	19012	67	-56.4	-84.8	293	5
2023-09-13T00:00	19035	67	-56.3	-84.7	297	5
2023-09-13T00:00	19056	66	-56.4	-84.8	300	5
2023-09-13T00:00	19076	66	-56.4	-84.8	303	5
2023-09-13T00:00	19100	66	-56.3	-84.7	304	5
2023-09-13T00:00	19121	66	-56.4	-84.8	305	5
2023-09-13T00:00	19143	66	-56.5	-84.5	306	4
2023-09-13T00:00	19168	65	-56.7	-84.6	305	4
2023-09-13T00:00	19189	65	-56.9	-84.8	303	3
2023-09-13T00:00	19210	65	-57.0	-84.8	299	3
2023-09-13T00:00	19231	65	-57.0	-84.8	293	3
2023-09-13T00:00	19253	64	-56.9	-84.8	286	4
2023-09-13T00:00	19274	64	-57.1	-84.9	281	4
2023-09-13T00:00	19297	64	-57.2	-85.0	277	4
2023-09-13T00:00	19319	64	-57.3	-85.1	274	5
2023-09-13T00:00	19341	63	-57.4	-85.2	273	5
2023-09-13T00:00	19363	63	-57.5	-84.9	273	5
2023-09-13T00:00	19389	63	-57.6	-84.9	273	5
2023-09-13T00:00	19411	63	-57.6	-84.9	274	5
2023-09-13T00:00	19439	63	-57.7	-85.0	275	5
2023-09-13T00:00	19461	62	-57.7	-85.0	276	6
2023-09-13T00:00	19484	62	-57.8	-85.1	278	6
2023-09-13T00:00	19508	62	-58.0	-85.6	281	6
2023-09-13T00:00	19534	62	-57.8	-85.5	284	6
2023-09-13T00:00	19559	61	-57.6	-85.3	288	6
2023-09-13T00:00	19580	61	-57.6	-85.3	292	6
2023-09-13T00:00	19603	61	-57.6	-85.3	295	5
2023-09-13T00:00	19631	61	-57.6	-85.3	298	5
2023-09-13T00:00	19654	60	-57.3	-85.1	300	4
2023-09-13T00:00	19678	60	-57.2	-85.0	301	3
2023-09-13T00:00	19706	60	-57.3	-85.1	300	3
2023-09-13T00:00	19729	60	-57.3	-85.1	295	2
2023-09-13T00:00	19748	59	-57.2	-85.0	283	2
2023-09-13T00:00	19774	59	-57.2	-85.0	267	2
2023-09-13T00:00	19802	59	-57.3	-85.1	254	3
2023-09-13T00:00	19821	59	-57.4	-85.2	246	3
2023-09-13T00:00	19847	59	-57.5	-85.2	243	4
2023-09-13T00:00	19867	58	-57.6	-85.3	243	4
2023-09-13T00:00	19893	58	-57.8	-85.1	244	5
2023-09-13T00:00	19915	58	-57.8	-85.1	246	5
2023-09-13T00:00	19935	58	-58.0	-85.2	248	5
2023-09-13T00:00	19962	58	-58.1	-85.3	251	5
2023-09-13T00:00	19983	57	-58.1	-85.3	254	6
2023-09-13T00:00	20002	57	-58.0	-85.2	257	6
2023-09-13T00:00	20028	57	-57.8	-85.5	258	7
2023-09-13T00:00	20049	57	-57.8	-85.5	259	8
2023-09-13T00:00	20071	57	-57.8	-85.5	259	9
2023-09-13T00:00	20092	56	-57.9	-85.5	260	9
2023-09-13T00:00	20113	56	-58.0	-85.6	261	10
2023-09-13T00:00	20138	56	-58.0	-85.6	263	10
2023-09-13T00:00	20159	56	-58.0	-85.6	266	11
2023-09-13T00:00	20177	56	-57.8	-85.5	268	11
2023-09-13T00:00	20201	55	-57.6	-85.3	271	11
2023-09-13T00:00	20218	55	-57.5	-85.2	274	10
2023-09-13T00:00	20244	55	-57.3	-85.5	277	10
2023-09-13T00:00	20265	55	-57.3	-85.5	281	9
2023-09-13T00:00	20287	55	-57.3	-85.5	285	9
2023-09-13T00:00	20306	54	-57.2	-85.4	290	8
2023-09-13T00:00	20328	54	-57.2	-85.4	295	7
2023-09-13T00:00	20354	54	-57.2	-85.4	302	6
2023-09-13T00:00	20381	54	-57.0	-85.2	310	5
2023-09-13T00:00	20397	54	-57.1	-85.3	319	5
2023-09-13T00:00	20415	54	-57.1	-85.3	328	4
2023-09-13T00:00	20439	53	-57.2	-85.4	338	3
2023-09-13T00:00	20461	53	-57.3	-85.5	347	3
2023-09-13T00:00	20481	53	-57.0	-85.2	355	2
2023-09-13T00:00	20504	53	-56.8	-85.1	359	2
2023-09-13T00:00	20528	53	-56.8	-85.1	353	1
2023-09-13T00:00	20547	52	-56.9	-85.2	314	1
2023-09-13T00:00	20568	52	-57.0	-85.2	259	1
2023-09-13T00:00	20589	52	-57.0	-85.2	242	2
2023-09-13T00:00	20610	52	-57.0	-85.2	237	3
2023-09-13T00:00	20632	52	-57.1	-85.3	236	3
2023-09-13T00:00	20661	52	-57.1	-85.3	237	4
2023-09-13T00:00	20675	51	-57.2	-85.4	240	5
2023-09-13T00:00	20701	51	-57.2	-85.4	243	6
2023-09-13T00:00	20722	51	-57.2	-85.4	247	6
2023-09-13T00:00	20746	51	-57.2	-85.4	251	7
2023-09-13T00:00	20774	51	-57.2	-85.4	254	7
2023-09-13T00:00	20787	50	-57.3	-85.5	257	7
2023-09-13T00:00	20815	50	-57.4	-85.6	260	7
2023-09-13T00:00	20836	50	-57.1	-85.3	264	6
2023-09-13T00:00	20858	50	-57.1	-85.3	268	6
2023-09-13T00:00	20880	50	-57.1	-85.3	273	5
2023-09-13T00:00	20902	50	-57.1	-85.3	278	5
2023-09-13T00:00	20927	49	-57.1	-85.3	282	4
2023-09-13T00:00	20950	49	-57.2	-85.4	284	4
2023-09-13T00:00	20970	49	-57.2	-85.4	282	3
2023-09-13T00:00	20996	49	-57.2	-85.4	274	2
2023-09-13T00:00	21023	49	-57.1	-85.3	250	1
2023-09-13T00:00	21045	48	-57.0	-85.2	205	1
2023-09-13T00:00	21072	48	-56.9	-85.2	177	2
2023-09-13T00:00	21094	48	-56.8	-85.1	168	3
2023-09-13T00:00	21119	48	-57.0	-85.2	165	3
2023-09-13T00:00	21146	48	-57.1	-85.3	166	4
2023-09-13T00:00	21173	48	-57.1	-85.3	168	5
2023-09-13T00:00	21189	47	-57.1	-85.3	170	5
2023-09-13T00:00	21219	47	-57.1	-85.3	173	6
2023-09-13T00:00	21242	47	-57.1	-85.3	176	6
2023-09-13T00:00	21263	47	-57.2	-85.4	179	7
2023-09-13T00:00	21294	47	-57.2	-85.4	183	7
2023-09-13T00:00	21318	46	-57.3	-85.5	187	7
2023-09-13T00:00	21339	46	-57.4	-85.6	193	7
2023-09-13T00:00	21366	46	-57.5	-85.6	198	8
2023-09-13T00:00	21391	46	-57.4	-85.6	204	8
2023-09-13T00:00	21410	46	-57.3	-85.5	209	8
2023-09-13T00:00	21432	46	-57.2	-85.4	214	9
2023-09-13T00:00	21456	45	-57.3	-85.5	219	9
2023-09-13T00:00	21479	45	-57.4	-85.6	224	9
2023-09-13T00:00	21504	45	-57.4	-85.6	229	9
2023-09-13T00:00	21526	45	-57.4	-85.6	235	9
2023-09-13T00:00	21550	45	-57.4	-85.6	241	9
2023-09-13T00:00	21578	45	-57.1	-85.3	248	9
2023-09-13T00:00	21605	44	-57.2	-85.4	254	9
2023-09-13T00:00	21623	44	-57.0	-85.2	260	9
2023-09-13T00:00	21648	44	-57.1	-85.7	266	9
2023-09-13T00:00	21671	44	-57.1	-85.7	271	8
2023-09-13T00:00	21693	44	-57.0	-85.7	276	8
2023-09-13T00:00	21710	44	-56.9	-85.2	279	8
2023-09-13T00:00	21735	43	-56.9	-85.2	280	7
2023-09-13T00:00	21756	43	-56.9	-85.2	281	7
2023-09-13T00:00	21782	43	-57.0	-85.2	282	7
2023-09-13T00:00	21800	43	-57.0	-85.2	282	7
2023-09-13T00:00	21821	43	-56.8	-85.1	283	7
2023-09-13T00:00	21840	43	-57.0	-85.2	283	7
2023-09-13T00:00	21864	43	-57.0	-85.2	283	6
2023-09-13T00:00	21886	42	-57.0	-85.2	282	6
2023-09-13T00:00	21910	42	-57.0	-85.2	281	6
2023-09-13T00:00	21929	42	-57.0	-85.2	280	6
2023-09-13T00:00	21951	42	-57.0	-85.2	280	6
2023-09-13T00:00	21972	42	-57.0	-85.2	280	7
2023-09-13T00:00	21993	42	-57.0	-85.2	280	7
2023-09-13T00:00	22018	42	-57.1	-85.3	282	7
2023-09-13T00:00	22040	41	-57.0	-85.2	284	7
2023-09-13T00:00	22058	41	-57.1	-85.3	287	7
2023-09-13T00:00	22081	41	-57.2	-85.4	292	8
2023-09-13T00:00	22104	41	-57.3	-85.5	296	8
2023-09-13T00:00	22124	41	-57.4	-85.6	300	8
2023-09-13T00:00	22148	41	-57.4	-85.6	304	8
2023-09-13T00:00	22170	41	-57.5	-85.6	306	7
2023-09-13T00:00	22192	40	-57.6	-85.3	307	7
2023-09-13T00:00	22211	40	-57.7	-85.4	307	7
2023-09-13T00:00	22236	40	-57.7	-85.4	307	6
2023-09-13T00:00	22258	40	-57.7	-85.4	306	5
2023-09-13T00:00	22279	40	-57.7	-85.4	307	5
2023-09-13T00:00	22301	40	-57.7	-85.4	307	4
2023-09-13T00:00	22324	40	-57.8	-85.9	308	4
2023-09-13T00:00	22344	39	-57.8	-85.9	310	4
2023-09-13T00:00	22368	39	-57.7	-85.8	311	4
2023-09-13T00:00	22392	39	-57.7	-85.8	312	4
2023-09-13T00:00	22413	39	-57.7	-85.8	312	4
2023-09-13T00:00	22439	39	-57.5	-85.6	313	4
2023-09-13T00:00	22457	39	-57.3	-85.5	314	4
2023-09-13T00:00	22479	39	-57.3	-85.5	317	3
2023-09-13T00:00	22505	38	-57.2	-85.4	322	3
2023-09-13T00:00	22530	38	-57.2	-85.8	329	2
2023-09-13T00:00	22556	38	-57.2	-85.8	338	2
2023-09-13T00:00	22576	38	-57.2	-85.8	347	1
2023-09-13T00:00	22603	38	-57.1	-85.7	353	1
2023-09-13T00:00	22626	38	-56.9	-85.6	347	0
2023-09-13T00:00	22652	38	-56.9	-85.6	288	0
2023-09-13T00:00	22671	37	-56.7	-85.4	242	0
2023-09-13T00:00	22699	37	-56.5	-85.3	242	1
2023-09-13T00:00	22721	37	-56.4	-85.2	254	1
2023-09-13T00:00	22744	37	-56.4	-85.2	274	1
2023-09-13T00:00	22768	37	-56.4	-85.2	292	1
2023-09-13T00:00	22793	37	-56.4	-85.2	302	1
2023-09-13T00:00	22816	37	-56.4	-85.2	307	2
2023-09-13T00:00	22838	37	-56.4	-85.2	309	2
2023-09-13T00:00	22861	36	-56.3	-85.1	311	2
2023-09-13T00:00	22889	36	-56.2	-85.1	314	2
2023-09-13T00:00	22916	36	-56.2	-85.1	319	2
2023-09-13T00:00	22940	36	-56.2	-85.1	328	2
2023-09-13T00:00	22966	36	-56.2	-85.1	337	2
2023-09-13T00:00	22993	36	-56.2	-85.1	344	2
2023-09-13T00:00	23018	35	-56.1	-85.0	347	2
2023-09-13T00:00	23046	35	-56.2	-85.1	348	3
2023-09-13T00:00	23070	35	-56.2	-85.1	350	3
2023-09-13T00:00	23094	35	-56.4	-85.2	353	3
2023-09-13T00:00	23121	35	-56.6	-85.4	359	3
2023-09-13T00:00	23148	35	-56.6	-84.9	6	3
2023-09-13T00:00	23175	35	-56.7	-85.4	16	3
2023-09-13T00:00	23201	35	-56.7	-85.4	29	2
2023-09-13T00:00	23227	34	-56.6	-85.4	44	2
2023-09-13T00:00	23244	34	-56.7	-85.4	58	2
2023-09-13T00:00	23274	34	-56.7	-85.4	73	2
2023-09-13T00:00	23299	34	-56.8	-85.5	89	2
2023-09-13T00:00	23317	34	-56.8	-85.1	106	2
2023-09-13T00:00	23349	34	-56.8	-85.1	122	2
2023-09-13T00:00	23379	34	-56.9	-85.2	134	2
2023-09-13T00:00	23397	33	-56.9	-85.2	146	2
2023-09-13T00:00	23426	33	-57.0	-85.2	158	2
2023-09-13T00:00	23450	33	-56.9	-85.2	173	2
2023-09-13T00:00	23470	33	-56.9	-85.2	189	2
2023-09-13T00:00	23494	33	-57.0	-85.2	204	2
2023-09-13T00:00	23518	33	-57.1	-85.3	218	3
2023-09-13T00:00	23544	33	-57.2	-85.4	232	3
2023-09-13T00:00	23566	33	-57.3	-85.5	246	3
2023-09-13T00:00	23589	32	-57.2	-85.8	260	4
2023-09-13T00:00	23610	32	-57.1	-85.7	271	4
2023-09-13T00:00	23637	32	-56.9	-85.6	279	5
2023-09-13T00:00	23660	32	-56.6	-85.4	285	5
2023-09-13T00:00	23682	32	-56.4	-85.7	290	5
2023-09-13T00:00	23701	32	-56.1	-85.5	294	5
2023-09-13T00:00	23725	32	-56.0		300	5
2023-09-13T00:00	23756	32	-55.9	-85.3	306	5
2023-09-13T00:00	23777	32	-55.7	-85.2	314	5
2023-09-13T00:00	23803	31	-55.6	-85.1	321	5
2023-09-13T00:00	23820	31	-55.4	-84.9	328	5
2023-09-13T00:00	23844	31	-55.3	-85.4	335	5
2023-09-13T00:00	23863	31	-55.1	-85.2	341	5
2023-09-13T00:00	23892	31	-54.9	-85.1	346	5
2023-09-13T00:00	23924	31	-54.6	-84.8	350	5
2023-09-13T00:00	23942	31	-54.6	-84.8	352	5
2023-09-13T00:00	23965	31	-54.6	-84.8	354	5
2023-09-13T00:00	23993	30	-54.6	-84.8	357	4
2023-09-13T00:00	24015	30	-54.6	-84.8	2	4
2023-09-13T00:00	24036	30	-54.3	-84.6	8	3
2023-09-13T00:00	24062	30	-54.3	-84.6	14	3
2023-09-13T00:00	24083	30	-54.2	-84.5	17	3
2023-09-13T00:00	24104	30	-54.2	-84.5	17	3
2023-09-13T00:00	24132	30	-54.1	-84.5	14	3
2023-09-13T00:00	24156	30	-54.2	-84.0	11	3
2023-09-13T00:00	24186	30	-54.3	-84.1	9	3
2023-09-13T00:00	24213	29	-54.2	-84.0	11	3
2023-09-13T00:00	24235	29	-54.2	-84.0	15	3
2023-09-13T00:00	24264	29	-54.2	-84.0	20	3
2023-09-13T00:00	24285	29	-54.0	-83.9	25	2
2023-09-13T00:00	24313	29	-54.0	-83.9	31	2
2023-09-13T00:00	24341	29	-54.0	-83.9	39	2
2023-09-13T00:00	24369	29	-54.0	-83.9	51	2
2023-09-13T00:00	24389	29	-54.1	-84.0	70	2
2023-09-13T00:00	24416	29	-54.0	-83.9	95	2
2023-09-13T00:00	24440	28	-54.1	-84.0	120	2
2023-09-13T00:00	24470	28	-54.1	-84.0	140	2
2023-09-13T00:00	24494	28	-53.9	-83.8	156	2
2023-09-13T00:00	24524	28	-53.9	-83.8	169	3
2023-09-13T00:00	24551	28	-54.0	-83.9	177	3
2023-09-13T00:00	24579	28	-54.1	-84.0	183	3
2023-09-13T00:00	24613	28	-54.3	-84.1	185	3
2023-09-13T00:00	24632	28	-54.4	-84.2	185	3
2023-09-13T00:00	24662	27	-54.4	-84.2	185	3
2023-09-13T00:00	24682	27	-54.3	-84.1	185	3
2023-09-13T00:00	24713	27	-54.1	-84.5	188	3
2023-09-13T00:00	24741	27	-53.9	-84.3	193	3
2023-09-13T00:00	24768	27	-53.8	-84.2	199	3
2023-09-13T00:00	24785	27	-53.5	-84.0	203	3
2023-09-13T00:00	24824	27	-53.5	-84.0	206	3
2023-09-13T00:00	24842	27	-53.5	-84.0	207	4
2023-09-13T00:00	24875	27	-53.5	-84.0	207	4
2023-09-13T00:00	24895	26	-53.5	-84.0	205	3
2023-09-13T00:00	24920	26	-53.5	-84.0	200	3
2023-09-13T00:00	24950	26	-53.7	-84.2	193	3
2023-09-13T00:00	24972	26	-53.7	-84.2	185	3
2023-09-13T00:00	24995	26	-53.7	-84.2	178	3
2023-09-13T00:00	25021	26	-53.7	-84.2	175	3
2023-09-13T00:00	25042	26	-53.5	-84.0	175	3
2023-09-13T00:00	25071	26	-53.4	-83.9	178	4
2023-09-13T00:00	25100	26	-53.3	-84.4	183	4
2023-09-13T00:00	25127	26	-53.1	-84.3	189	4
2023-09-13T00:00	25147	25	-52.9	-84.1	194	5
2023-09-13T00:00	25167	25	-52.7	-84.0	200	5
2023-09-13T00:00	25196	25	-52.6	-83.9	205	6
2023-09-13T00:00	25226	25	-52.3	-83.7	211	6
2023-09-13T00:00	25248	25	-52.0	-83.5	217	6
2023-09-13T00:00	25268	25	-51.9	-83.4	222	7
2023-09-13T00:00	25291	25	-51.9	-83.4	226	7
2023-09-13T00:00	25318	25	-52.0	-83.5	228	7
2023-09-13T00:00	25342	25	-52.1	-83.5	230	7
2023-09-13T00:00	25362	25	-52.1	-83.5	231	6
2023-09-13T00:00	25386	25	-52.1	-83.5	232	6
2023-09-13T00:00	25414	24	-51.9	-83.4	234	5
2023-09-13T00:00	25438	24	-51.8	-83.3	235	5
2023-09-13T00:00	25460	24	-51.9	-83.4	236	5
2023-09-13T00:00	25487	24	-51.8	-83.3	236	5
2023-09-13T00:00	25511	24	-51.7	-83.2	237	5
2023-09-13T00:00	25532	24	-51.5	-83.1	237	6
2023-09-13T00:00	25561	24	-51.5	-83.1	238	6
2023-09-13T00:00	25588	24	-51.6	-83.2	239	6
2023-09-13T00:00	25606	24	-51.6	-83.2	239	6
2023-09-13T00:00	25631	24	-51.7	-83.2	238	6
2023-09-13T00:00	25656	24	-51.8	-83.3	237	6
2023-09-13T00:00	25684	23	-51.7	-83.2	234	6
2023-09-13T00:00	25703	23	-51.6	-83.2	231	6
2023-09-13T00:00	25734	23	-51.6	-83.2	228	6
2023-09-13T00:00	25754	23	-51.5	-83.1	226	7
2023-09-13T00:00	25783	23	-51.6	-83.2	224	7
2023-09-13T00:00	25811	23	-51.8	-83.3	223	8
2023-09-13T00:00	25826	23	-52.0	-83.5	223	8
2023-09-13T00:00	25853	23	-52.1	-83.5	224	8
2023-09-13T00:00	25876	23	-52.1	-83.5	226	9
2023-09-13T00:00	25904	23	-52.1	-83.5	228	9
2023-09-13T00:00	25926	23	-52.1	-83.5	231	9
2023-09-13T00:00	25950	22	-52.3	-83.7	235	9
2023-09-13T00:00	25989	22	-52.2	-83.6	238	9
2023-09-13T00:00	26004	22	-52.2	-83.6	240	9
2023-09-13T00:00	26027	22	-52.2	-83.6	242	9
2023-09-13T00:00	26050	22	-52.3	-83.7	242	9
2023-09-13T00:00	26067	22	-52.3	-83.7	242	9
2023-09-13T00:00	26098	22	-52.2	-83.6	242	10
2023-09-13T00:00	26118	22	-52.1	-83.5	243	10
2023-09-13T00:00	26145	22	-52.0	-83.5	243	10
2023-09-13T00:00	26174	22	-52.0	-83.5	245	9
2023-09-13T00:00	26192	22	-51.9	-83.4	246	9
2023-09-13T00:00	26219	22	-51.9	-83.4	247	9
2023-09-13T00:00	26241	21	-51.7	-83.2	247	9
2023-09-13T00:00	26270	21	-51.7	-83.2	247	9
2023-09-13T00:00	26291	21	-51.6	-83.2	246	10
2023-09-13T00:00	26320	21	-51.3	-83.6	246	10
2023-09-13T00:00	26342	21	-51.3	-83.6	246	10
2023-09-13T00:00	26366	21	-51.2	-83.5	247	10
2023-09-13T00:00	26391	21	-51.2	-83.5	249	10
2023-09-13T00:00	26415	21	-51.1	-83.4	252	10
2023-09-13T00:00	26438	21	-51.0	-83.3	256	10
2023-09-13T00:00	26463	21	-50.9	-83.3	261	9
2023-09-13T00:00	26498	21	-50.8	-83.2	265	9
2023-09-13T00:00	26516	21	-50.7	-83.1	269	8
2023-09-13T00:00	26540	21	-50.7	-83.1	273	8
2023-09-13T00:00	26571	20	-50.6	-83.1	278	8
2023-09-13T00:00	26588	20	-50.7	-83.1	282	7
2023-09-13T00:00	26620	20	-50.6	-83.1	287	7
2023-09-13T00:00	26637	20	-50.7	-83.1	293	6
2023-09-13T00:00	26665	20	-50.7	-83.1	299	6
2023-09-13T00:00	26688	20	-50.5	-83.0	306	6
2023-09-13T00:00	26712	20	-50.3	-82.8	311	5
2023-09-13T00:00	26738	20	-50.3	-82.8	314	5
2023-09-13T00:00	26758	20	-50.5	-83.0	314	5
2023-09-13T00:00	26794	20	-50.5	-83.0	312	4
2023-09-13T00:00	26811	20	-50.5	-83.0	307	4
2023-09-13T00:00	26846	20	-50.5	-83.0	299	4
2023-09-13T00:00	26871	20	-50.4	-82.9	290	3
2023-09-13T00:00	26890	19	-50.3	-82.8	280	3
2023-09-13T00:00	26914	19	-50.2	-82.8	272	4
2023-09-13T00:00	26948	19	-50.3	-82.8	267	4
2023-09-13T00:00	26970	19	-50.4	-82.9	263	4
2023-09-13T00:00	26997	19	-50.5	-83.0	261	5
2023-09-13T00:00	27025	19	-50.6	-83.1	259	6
2023-09-13T00:00	27044	19	-50.7	-83.1	258	6
2023-09-13T00:00	27081	19	-50.8	-83.2	258	7
2023-09-13T00:00	27108	19	-50.6	-83.1	259	8
2023-09-13T00:00	27121	19	-50.2	-82.8	260	8
2023-09-13T00:00	27157	19	-49.6	-82.3	261	9
2023-09-13T00:00	27182	19	-49.4	-82.9	262	9
2023-09-13T00:00	27216	19	-49.3	-82.8	262	8
2023-09-13T00:00	27243	18	-49.0	-82.6	262	8
2023-09-13T00:00	27260	18	-48.9	-82.5	261	8
2023-09-13T00:00	27290	18	-48.8	-82.4	261	7
2023-09-13T00:00	27323	18	-48.8	-82.4	261	7
2023-09-13T00:00	27352	18	-48.8	-82.4	260	6
2023-09-13T00:00	27371	18	-48.9	-82.5	259	5
2023-09-13T00:00	27399	18	-49.0	-81.9	258	5
2023-09-13T00:00	27418	18	-49.0	-81.9	258	4
2023-09-13T00:00	27450	18	-49.0	-81.9	257	4
2023-09-13T00:00	27475	18	-48.9	-81.8	257	4
2023-09-13T00:00	27509	18	-48.9	-81.8	256	3
2023-09-13T00:00	27526	18	-48.9	-81.8	253	3
2023-09-13T00:00	27562	18	-49.1	-82.0	250	4
2023-09-13T00:00	27583	18	-49.2	-82.0	247	4
2023-09-13T00:00	27614	17	-49.2	-82.0	246	4
2023-09-13T00:00	27644	17	-49.2	-82.0	247	4
2023-09-13T00:00	27670	17	-49.0	-81.9	249	5
2023-09-13T00:00	27700	17	-48.8	-82.4	252	5
2023-09-13T00:00	27719	17	-48.8	-82.4	256	5
2023-09-13T00:00	27755	17	-48.7	-82.4	260	6
2023-09-13T00:00	27776	17	-48.5	-82.2	263	6
2023-09-13T00:00	27807	17	-48.5	-82.2	266	6
2023-09-13T00:00	27826	17	-48.7	-82.4	267	6
2023-09-13T00:00	27864	17	-48.8	-81.7	268	5
2023-09-13T00:00	27886	17	-48.9	-81.8	269	5
2023-09-13T00:00	27915	17	-48.9	-81.8	269	5
2023-09-13T00:00	27948	17	-48.9	-81.8	269	4
2023-09-13T00:00	27971	17	-48.7	-82.4	269	3
2023-09-13T00:00	27993	16	-48.5	-82.2	268	3
2023-09-13T00:00	28025	16	-48.3	-82.1	263	2
2023-09-13T00:00	28052	16	-48.3	-82.1	246	1
2023-09-13T00:00	28083	16	-48.3	-82.1	210	1
2023-09-13T00:00	28108	16	-48.3	-82.1	179	1
2023-09-13T00:00	28144	16	-48.4	-82.2	169	2
2023-09-13T00:00	28149	16	-48.3	-82.1	167	3
2023-09-13T00:00	28185	16	-48.3	-82.1	170	3
2023-09-13T00:00	28216	16	-48.3	-82.1	175	4
2023-09-13T00:00	28249	16	-48.3	-82.1	179	4
2023-09-13T00:00	28273	16	-48.1	-81.9	183	5
2023-09-13T00:00	28301	16	-48.1	-81.9	185	6
2023-09-13T00:00	28326	16	-48.2	-82.0	186	6
2023-09-13T00:00	28346	16	-48.4	-82.2	187	6
2023-09-13T00:00	28384	16	-48.6	-81.6	189	7
2023-09-13T00:00	28402	15	-48.8	-81.7	190	7
2023-09-13T00:00	28431	15	-48.7	-81.7	193	7
2023-09-13T00:00	28463	15	-48.7	-82.4	196	7
2023-09-13T00:00	28481	15	-48.7	-82.4	200	7
2023-09-13T00:00	28506	15	-48.6	-82.3	206	7
2023-09-13T00:00	28531	15	-48.6	-82.3	213	6
2023-09-13T00:00	28550	15	-48.5	-82.2	220	6
2023-09-13T00:00	28581	15	-48.3	-82.1	226	6
2023-09-13T00:00	28603	15	-48.3	-82.1	231	6
2023-09-13T00:00	28625	15	-48.2	-82.0	233	6
2023-09-13T00:00	28646	15	-48.1	-81.9	235	6
2023-09-13T00:00	28668	15	-47.7	-81.6	235	6
2023-09-13T00:00	28698	15	-47.7	-81.6	235	6
2023-09-13T00:00	28716	15	-47.7	-81.6	235	6
2023-09-13T00:00	28744	15	-47.7	-81.6	234	6
2023-09-13T00:00	28760	15	-47.6	-81.6	233	6
2023-09-13T00:00	28783	15	-47.7	-81.6	231	7
2023-09-13T00:00	28811	15	-47.9	-81.8	231	7
2023-09-13T00:00	28839	14	-48.0	-81.9	232	8
2023-09-13T00:00	28848	14	-47.7	-81.6	234	8
2023-09-13T00:00	28869	14	-47.4	-82.2	236	9
2023-09-13T00:00	28888	14	-47.2	-82.1	239	9
2023-09-13T00:00	28929	14	-46.9	-81.9	242	9
2023-09-13T00:00	28947	14	-46.8	-81.8	246	9
2023-09-13T00:00	28984	14	-46.8	-81.8	249	8
2023-09-13T00:00	29005	14	-46.4	-81.5	254	9
2023-09-13T00:00	29036	14	-46.4	-81.5	254	9
2023-09-13T00:00	29049	14	-46.3	-81.4	254	9
2023-09-13T00:00	29080	14	-45.8	-81.1	253	9
2023-09-13T00:00	29096	14	-45.5	-80.9	253	9
2023-09-13T00:00	29126	14	-45.3	-80.7	253	9
2023-09-13T00:00	29156	14	-45.1	-80.6	253	9
2023-09-13T00:00	29177	14	-45.0	-80.5	254	9
2023-09-13T00:00	29201	14	-45.0	-80.5	254	8
2023-09-13T00:00	29228	14	-44.9	-80.4	255	8
2023-09-13T00:00	29250	14	-45.0	-80.5	255	7
2023-09-13T00:00	29268	14	-45.0	-80.5	256	7
2023-09-13T00:00	29293	14	-45.0	-80.5	257	7
2023-09-13T00:00	29340	13	-45.1	-80.6	259	7
2023-09-13T00:00	29355	13	-45.1	-80.6	261	7
2023-09-13T00:00	29374	13	-45.1	-80.6	261	7
2023-09-13T00:00	29403	13	-45.0	-80.5	261	7
2023-09-13T00:00	29439	13	-45.1	-80.6	261	8
2023-09-13T00:00	29456	13	-45.1	-80.6	262	7
2023-09-13T00:00	29493	13	-45.2	-80.7	262	7
2023-09-13T00:00	29519	13	-45.2	-80.7	264	8
2023-09-13T00:00	29559	13	-45.2	-80.7	265	8
2023-09-13T00:00	29580	13	-45.2	-80.7	266	8
2023-09-13T00:00	29613	13	-45.3	-80.7	267	8
2023-09-13T00:00	29634	13	-45.4	-80.8	267	8
2023-09-13T00:00	29674	13	-45.4	-80.8	266	8
2023-09-13T00:00	29707	13	-45.4	-80.8	264	8
2023-09-13T00:00	29731	13	-45.4	-80.8	261	8
2023-09-13T00:00	29751	13	-45.4	-80.8	258	8
2023-09-13T00:00	29788	13	-45.3	-80.7	254	7
2023-09-13T00:00	29808	13	-45.1	-80.6	251	7
2023-09-13T00:00	29840	12	-44.7	-81.2	249	7
2023-09-13T00:00	29867	12	-44.4	-81.0	246	6
2023-09-13T00:00	29905	12	-44.1	-80.8	242	6
2023-09-13T00:00	29943	12	-44.2	-80.9	237	6
2023-09-13T00:00	29983	12	-44.4	-81.0	226	6
2023-09-13T00:00	30027	12	-44.2	-80.9	222	7
2023-09-13T00:00	30059	12	-43.6	-80.4	219	8
2023-09-13T00:00	30061	12	-43.4	-80.3	217	8
2023-09-13T00:00	30112	12	-43.4	-80.3	216	9
2023-09-13T00:00	30128	12	-43.4	-80.3	216	10
2023-09-13T00:00	30143	12	-43.6	-80.4	216	11
2023-09-13T00:00	30180	12	-43.5	-80.4	217	12
2023-09-13T00:00	30210	12	-43.5	-80.4	218	12
2023-09-13T00:00	30223	12	-43.6	-80.4	219	13
2023-09-13T00:00	30272	12	-43.7	-80.5	220	13
2023-09-13T00:00	30292	12	-43.8	-80.6	221	14
2023-09-13T00:00	30303	12	-43.8	-80.6	221	14
2023-09-13T00:00	30324	12	-43.8	-80.6	222	14
2023-09-13T00:00	30343	12	-43.7	-80.5	222	15
2023-09-13T00:00	30385	12	-43.4	-80.3	223	15
2023-09-13T00:00	30415	11	-43.4	-80.3	224	15
2023-09-13T00:00	30436	11	-43.6	-80.4	226	14
2023-09-13T00:00	30461	11	-43.5	-80.4	228	14
2023-09-13T00:00	30483	11	-43.5	-80.4	230	14
2023-09-13T00:00	30515	11	-43.7	-80.5	233	13
2023-09-13T00:00	30528	11	-43.8	-80.6	237	13
2023-09-13T00:00	30554	11	-43.8	-80.6	241	13
2023-09-13T00:00	30576	11	-43.8	-80.6	246	12
2023-09-13T00:00	30589	11	-43.6	-80.4	251	13
2023-09-13T00:00	30631	11	-43.4	-80.3	255	13
2023-09-13T00:00	30660	11	-43.4	-80.3	258	13
2023-09-13T00:00	30688	11	-43.3	-80.2	259	13
2023-09-13T00:00	30724	11	-42.6	-79.7	261	13
2023-09-13T00:00	30773	11	-42.7	-79.8	261	13
2023-09-13T00:00	30800	11	-42.7	-79.8	263	12
2023-09-13T00:00	30826	11	-42.6	-79.7	264	12
2023-09-13T00:00	30858	11	-42.4	-79.6	264	12
2023-09-13T00:00	30871	11	-42.4	-79.6	264	12
2023-09-13T00:00	30919	11	-42.2	-79.5	263	12
2023-09-13T00:00	30935	11	-42.2	-79.5	260	11
2023-09-13T00:00	30973	11	-42.1	-79.4	257	11
2023-09-13T00:00	30984	11	-42.1	-79.4	254	10
2023-09-13T00:00	31016	10	-42.0	-79.3	250	10
2023-09-13T00:00	31035	10	-42.0	-79.3	245	10
2023-09-13T00:00	31053	10	-42.1	-79.4	241	9
2023-09-13T00:00	31096	10	-42.1	-79.4	236	9
2023-09-13T00:00	31150	10	-42.1	-79.4	231	9
2023-09-13T00:00	31159	10	-42.0	-79.3	227	9
2023-09-13T00:00	31182	10	-41.9	-79.2	224	9
2023-09-13T00:00	31202	10	-41.9	-79.2	222	9
2023-09-13T00:00	31228	10	-42.0	-79.3	220	9
2023-09-13T00:00	31259	10	-42.1	-79.4	219	9
2023-09-13T00:00	31272	10	-42.1	-79.4	219	9
2023-09-13T00:00	31326	10	-42.1	-79.4	218	9
2023-09-13T00:00	31347	10	-42.0	-79.3	219	9
2023-09-13T00:00	31386	10	-42.0	-79.3	220	9
2023-09-13T00:00	31449	10	-41.9	-79.2	225	9
2023-09-13T00:00	31465	10	-41.9	-79.2	227	9
2023-09-13T00:00	31497	10	-42.0	-79.3	229	9
2023-09-13T00:00	31523	10	-42.1	-79.4	231	9
2023-09-13T00:00	31533	10	-42.1	-79.4	233	9
2023-09-13T00:00	31565	10	-42.1	-79.4	235	9
2023-09-13T00:00	31601	10	-42.1	-79.4	237	10
2023-09-13T00:00	31627	10	-42.3	-79.5	239	10
2023-09-13T00:00	31659	10	-42.4	-79.6	241	10
2023-09-13T00:00	31695	9	-42.4	-79.6	243	10
2023-09-13T00:00	31722	9	-42.4	-79.6	245	10
2023-09-13T00:00	31730	9	-42.5	-79.7	246	10
2023-09-13T00:00	31761	9	-42.4	-79.6	247	10
2023-09-13T00:00	31789	9	-42.3	-79.5	249	10
2023-09-13T00:00	31815	9	-42.1	-79.4	251	9
2023-09-13T00:00	31855	9	-42.2	-79.5	253	9
2023-09-13T00:00	31863	9	-42.3	-79.5	256	9
2023-09-13T00:00	31900	9	-42.2	-79.5	260	8
2023-09-13T00:00	31931	9	-42.1	-80.5	264	8
2023-09-13T00:00	31951	9	-42.1	-80.5	267	8
2023-09-13T00:00	31976	9	-41.9	-80.4	271	8
2023-09-13T00:00	32009	9	-41.8	-80.3	275	8
2023-09-13T00:00	32041	9	-41.7	-80.2	277	8
2023-09-13T00:00	32052	9	-41.7	-80.2	277	8
2023-09-13T00:00	32077	9	-41.6	-80.1	275	7
2023-09-13T00:00	32083	9	-41.4	-80.0	270	7
2023-09-13T00:00	32137	9	-41.2	-79.9	263	7
2023-09-13T00:00	32157	9	-41.2	-79.9	256	6
2023-09-13T00:00	32197	9	-41.3	-79.9	251	7
2023-09-13T00:00	32209	9	-41.4	-80.0	249	7
2023-09-13T00:00	32230	9	-41.4	-80.0	250	7
2023-09-13T00:00	32252	9	-41.2	-79.9	253	7
2023-09-13T00:00	32289	9	-41.0	-79.7	258	7
2023-09-13T00:00	32313	9	-40.9	-79.7	264	7
2023-09-13T00:00	32339	9	-40.9	-79.7	269	8
2023-09-13T00:00	32377	9	-41.0	-79.7	272	8
2023-09-13T00:00	32397	9	-41.1	-79.8	273	8
2023-09-13T00:00	32449	8	-41.2	-79.9	270	8
2023-09-13T00:00	32485	8	-41.3	-79.9	267	8
2023-09-13T00:00	32488	8	-41.3	-79.9	264	8
2023-09-13T00:00	32513	8	-41.4	-80.0	262	8
2023-09-13T00:00	32545	8	-41.5	-80.1	260	9
2023-09-13T00:00	32551	8	-41.6	-80.1	258	9
2023-09-13T00:00	32600	8	-41.6	-80.1	256	9
2023-09-13T00:00	32615	8	-41.6	-80.1	254	10
2023-09-13T00:00	32649	8	-41.7	-80.2	253	10
2023-09-13T00:00	32677	8	-41.8	-80.3	253	11
2023-09-13T00:00	32716	8	-41.7	-80.2	253	11
2023-09-13T00:00	32732	8	-41.5	-80.1	253	11
2023-09-13T00:00	32775	8	-41.5	-80.1	253	12
2023-09-13T00:00	32826	8	-41.5	-80.1	251	12
2023-09-13T00:00	32853	8	-41.5	-80.1	249	14
2023-09-13T00:00	32858	8	-41.6	-80.1	249	14
2023-09-13T00:00	32892	8	-41.6	-80.1	249	14
2023-09-13T00:00	32896	8	-41.6	-80.1	251	15
2023-09-13T00:00	32939	8	-41.6	-80.1	252	15
2023-09-13T00:00	32962	8	-41.5	-80.1	255	15
2023-09-13T00:00	32983	8	-41.4	-80.0	256	14
2023-09-13T00:00	32994	8	-41.4	-80.0	258	14
2023-09-13T00:00	33027	8	-41.4	-80.0	259	14
2023-09-13T00:00	33040	8	-41.5	-80.1	260	14
2023-09-13T00:00	33080	8	-41.4	-80.0	260	13
2023-09-13T00:00	33093	8	-41.3	-79.9	260	13
2023-09-13T00:00	33143	8	-41.2	-79.9	261	12
2023-09-13T00:00	33162	8	-41.1	-79.8	261	12
2023-09-13T00:00	33170	8	-40.9	-79.7	262	12
2023-09-13T00:00	33202	8	-41.0	-79.7	263	12
2023-09-13T00:00	33247	8	-40.8	-79.6	264	12
2023-09-13T00:00	33264	8	-40.6	-79.5	264	12
2023-09-13T00:00	33308	7	-40.2	-79.2	262	12
2023-09-13T00:00	33339	7	-40.2	-79.2	261	12
2023-09-13T00:00	33348	7	-40.2	-79.2	260	12
2023-09-13T00:00	33378	7	-40.2	-79.2	259	13
2023-09-13T00:00	33434	7	-40.2	-79.2	259	13
2023-09-13T00:00	33466	7	-40.2	-79.2	258	15
2023-09-13T00:00	33509	7	-40.2	-79.2	258	15
2023-09-13T00:00	33530	7	-40.4	-79.3	258	15
2023-09-13T00:00	33540	7	-40.5	-79.4	258	15
2023-09-13T00:00	33581	7	-40.6	-79.5	259	15
2023-09-13T00:00	33601	7	-40.7	-79.5	259	15
2023-09-13T00:00	33632	7	-40.7	-79.5	261	15
2023-09-13T00:00	33653	7	-40.7	-79.5	262	15
2023-09-13T00:00	33674	7	-40.5	-79.4	264	15
2023-09-13T00:00	33716	7	-40.6	-79.5	265	15
2023-09-13T00:00	33742	7	-40.8	-79.6	265	15
2023-09-13T00:00	33770	7	-40.8	-79.6	266	15
2023-09-13T00:00	33787	7	-40.9	-79.7	266	15
2023-09-13T00:00	33834	7	-41.1	-79.8	267	15
2023-09-13T00:00	33844	7	-41.2	-79.9	267	15
2023-09-13T00:00	33877	7	-41.4	-80.0	266	15
2023-09-13T00:00	33905	7	-41.5	-80.1	265	14
2023-09-13T00:00	33946	7	-41.5	-80.1	263	14
2023-09-13T00:00	33974	7	-41.4	-80.0	258	13
2023-09-13T00:00	34018	7	-41.4	-80.0	254	12
2023-09-13T00:00	34033	7	-41.2	-79.9	252	12
2023-09-13T00:00	34072	7	-41.2	-79.9	250	12
2023-09-13T00:00	34098	7	-41.2	-79.9	249	11
2023-09-13T00:00	34123	7	-41.2	-79.9	250	11
2023-09-13T00:00	34149	7	-41.2	-79.9	251	10
2023-09-13T00:00	34173	7	-41.1	-79.8	253	10
2023-09-13T00:00	34197	7	-41.1	-79.8	254	9
2023-09-13T00:00	34235	7	-41.1	-79.8	255	9
2023-09-13T00:00	34245	7	-41.2	-79.9	254	9
2023-09-13T00:00	34276	7	-41.2	-79.9	253	8
2023-09-13T00:00	34281	6	-41.2	-79.9	251	8
2023-09-13T00:00	34331	6	-40.9	-79.7	250	8
2023-09-13T00:00	34359	6	-40.8	-79.6	249	9
2023-09-13T00:00	34364	6	-40.9	-79.7	249	9
2023-09-13T00:00	34406	6	-40.9	-79.7	248	9
2023-09-13T00:00	34416	6	-41.0	-79.7	247	10
2023-09-13T00:00	34455	6	-41.0	-79.7	245	10
2023-09-13T00:00	34481	6	-40.9	-79.7	244	10
2023-09-13T00:00	34515	6	-40.7	-79.5	242	10
2023-09-13T00:00	34516	6	-40.6	-79.5	241	10
2023-09-13T00:00	34541	6	-40.5	-79.4	240	10
2023-09-13T00:00	34606	6	-40.4	-79.3	241	9
2023-09-13T00:00	34611	6	-40.1	-79.1	244	9
2023-09-13T00:00	34646	6	-40.0	-79.0	246	9
2023-09-13T00:00	34694	6	-40.0	-79.0	249	8
2023-09-13T00:00	34701	6	-39.8	-78.9	251	8
2023-09-13T00:00	34725	6	-39.7	-78.8	254	8
2023-09-13T00:00	34741	6	-39.5	-78.7	257	8
2023-09-13T00:00	34773	6	-39.0	-78.3	261	8
2023-09-13T00:00	34809	6	-39.0	-78.3	262	7
2023-09-13T00:00	34856	6	-39.1	-78.4	263	7
2023-09-13T00:00	34875	6	-39.0	-78.3	262	7
2023-09-13T00:00	34899	6	-39.1	-78.4	259	7
2023-09-13T00:00	34906	6	-39.0	-78.3	256	6
2023-09-13T00:00	34945	6	-39.0	-78.3	251	6
2023-09-13T00:00	34965	6	-38.6	-78.1	240	6
2023-09-13T00:00	35006	6	-38.5	-78.0	229	6
2023-09-13T00:00	35032	6	-38.4	-77.9	225	6
2023-09-13T00:00	35074	6	-38.3	-77.9	216	6
2023-09-13T00:00	35086	6	-38.4	-77.9	212	6
2023-09-13T00:00	35124	6	-38.5	-78.0	208	7
2023-09-13T00:00	35136	6	-38.5	-78.0	205	7
2023-09-13T00:00	35151	6	-38.4	-77.9	202	8
2023-09-13T00:00	35186	6	-38.3	-77.9	196	9
2023-09-13T00:00	35219	6	-38.2	-77.8	193	9
2023-09-13T00:00	35270	6	-38.0	-77.6	191	10
2023-09-13T00:00	35294	6	-37.9	-77.6	195	10
2023-09-13T00:00	35313	6	-37.8	-77.5	200	11
2023-09-13T00:00	35348	6	-37.5	-77.3	206	11
2023-09-13T00:00	35389	6	-36.9	-76.9	217	11
2023-09-13T00:00	35402	6	-36.7	-76.7	221	11
2023-09-13T00:00	35408	6	-36.7	-76.7	225	12
2023-09-13T00:00	35451	5	-36.6	-76.7	228	12
2023-09-13T00:00	35484	5	-36.8	-76.8	234	12
2023-09-13T00:00	35514	5	-36.7	-76.7	238	12
2023-09-13T00:00	35558	5	-36.4	-76.5	242	12
2023-09-13T00:00	35579	5	-35.7	-76.1	250	12
2023-09-13T00:00	35603	5	-35.4	-75.8	254	12
2023-09-13T00:00	35604	5	-35.3	-75.8	257	12
2023-09-13T00:00	35638	5	-35.3	-75.8	259	12
2023-09-13T00:00	35672	5	-35.2	-75.7	260	12
2023-09-13T00:00	35691	5	-34.9	-75.5	259	12
2023-09-13T00:00	35717	5	-34.7	-75.4	258	12
2023-09-13T00:00	35753	5	-34.6	-75.3	257	12
2023-09-13T00:00	35780	5	-34.3	-75.1	257	12
2023-09-13T00:00	35790	5	-33.4	-74.5	256	13
2023-09-13T00:00	35804	5	-33.0	-74.2	254	13
2023-09-13T00:00	35854	5	-32.7	-74.0	253	14
2023-09-13T00:00	35866	5	-32.2	-73.6	252	14
2023-09-13T00:00	35880	5	-32.0	-73.5	251	15
2023-09-13T00:00	35903	5	-31.8	-73.4	250	15
2023-09-13T00:00	35929	5	-31.5	-73.2	249	15
2023-09-13T00:00	35936	5	-31.2	-73.0	248	16
2023-09-13T00:00	35974	5	-31.3	-73.0	249	16
2023-09-13T00:00	36006	5	-31.3	-73.0	250	16
2023-09-13T00:00	36008	5	-31.0	-72.8	251	16
2023-09-13T00:00	36044	5	-30.9	-72.8	253	16
2023-09-13T00:00	36052	5	-30.7	-72.6	260	15
2023-09-13T00:00	36089	5	-30.5	-72.5	262	14
2023-09-13T00:00	36116	5	-30.3	-72.3	267	14
2023-09-13T00:00	36127	5	-30.1	-72.2	269	13
2023-09-13T00:00	36147	5	-29.9	-72.1	271	13
2023-09-13T00:00	36172	5	-29.8	-72.0	275	13
2023-09-13T00:00	36215	5	-29.8	-72.0	276	13
2023-09-13T00:00	36225	5	-29.9	-72.1	278	13
2023-09-13T00:00	36234	5	-30.1	-72.2	281	13
2023-09-13T00:00	36236	5	-30.2	-72.3	283	13
2023-09-13T00:00	36275	5	-30.3	-72.3	285	12
2023-09-13T00:00	36293	5	-30.5	-72.5	289	12
2023-09-13T00:00	36318	5	-30.8	-72.7	299	12
2023-09-13T00:00	36347	5	-30.9	-72.8	299	13
2023-09-13T00:00	36386	5	-29.5	-71.8	296	14
2023-09-13T00:00	36395	5	-29.3	-71.7	294	15
2023-09-13T00:00	36440	5	-29.2	-71.6	293	15
2023-09-13T00:00	36448	5	-29.1	-71.5	291	15
2023-09-13T00:00	36456	5	-29.2	-71.6	291	14
2023-09-13T00:00	36493	5	-29.3	-71.7	290	14
2023-09-13T00:00	36517	5	-29.3	-71.7	290	14
2023-09-13T00:00	36547	5	-29.0	-71.4	290	13
2023-09-13T00:00	36615	5	-28.9	-71.4	292	12
2023-09-13T00:00	36620	5	-29.3	-71.7	295	11
2023-09-13T00:00	36677	5	-29.4	-71.7	296	11
2023-09-13T00:00	36698	5	-29.5	-71.8	298	10
2023-09-13T00:00	36719	5	-29.8	-72.0	300	10
2023-09-13T00:00	36754	5	-30.0	-72.1	303	9
2023-09-13T00:00	36760	5	-30.1	-72.2	304	9
2023-09-13T00:00	36816	5	-30.2	-72.3	305	8
2023-09-13T00:00	36855	5	-30.4	-72.4	305	8
2023-09-13T00:00	36866	5	-30.5	-72.5	304	9
2023-09-13T00:00	36883	4	-30.6	-72.5	302	9
2023-09-13T00:00	36893	4	-31.0	-72.8	300	9
2023-09-13T00:00	36908	4	-30.4	-72.4	296	10
2023-09-13T00:00	36920	4	-30.4	-72.4	294	10
2023-09-13T00:00	36933	4	-30.4	-72.4	293	10
2023-09-13T06:00	112	997	17.1	16.6	120	3
2023-09-13T06:00	135	995	17.2	16.4	105	2
2023-09-13T06:00	160	992	17.9	15.6	116	3
2023-09-13T06:00	182	989	18.9	15.1	128	4
2023-09-13T06:00	209	986	19.4	14.5	142	4
2023-09-13T06:00	230	984	20.1	13.9	157	4
2023-09-13T06:00	254	981	20.0	13.9	171	4
2023-09-13T06:00	277	978	19.9	13.8	181	5
2023-09-13T06:00	296	976	19.7	13.7	188	5
2023-09-13T06:00	318	974	19.8	13.5	193	6
2023-09-13T06:00	345	971	19.5	13.3	197	6
2023-09-13T06:00	368	968	19.4	13.3	200	7
2023-09-13T06:00	391	966	19.3	13.0	203	8
2023-09-13T06:00	414	963	19.4	12.9	206	9
2023-09-13T06:00	438	960	19.3	12.8	208	10
2023-09-13T06:00	462	958	19.3	12.2	209	10
2023-09-13T06:00	485	955	20.0	11.7	209	11
2023-09-13T06:00	512	952	19.9	11.7	210	11
2023-09-13T06:00	537	949	19.7	11.5	210	12
2023-09-13T06:00	566	946	19.8	11.3	210	12
2023-09-13T06:00	593	943	19.8	11.1	212	12
2023-09-13T06:00	621	940	19.7	10.9	214	12
2023-09-13T06:00	646	937	19.5	10.7	218	11
2023-09-13T06:00	674	934	19.5	10.7	221	11
2023-09-13T06:00	700	932	19.4	10.6	224	11
2023-09-13T06:00	727	929	19.2	10.4	227	11
2023-09-13T06:00	754	926	19.0	10.3	228	11
2023-09-13T06:00	779	923	18.8	10.2	229	11
2023-09-13T06:00	804	920	18.8	10.0	229	11
2023-09-13T06:00	833	917	18.6	9.7	228	11
2023-09-13T06:00	863	914	18.6	9.1	227	11
2023-09-13T06:00	895	911	18.6	8.8	227	11
2023-09-13T06:00	926	908	18.4	8.6	228	11
2023-09-13T06:00	950	905	18.2	8.8	230	11
2023-09-13T06:00	979	902	17.9	8.6	232	12
2023-09-13T06:00	1004	899	17.9	8.4	233	12
2023-09-13T06:00	1033	896	18.2	7.8	234	12
2023-09-13T06:00	1064	893	18.0	7.6	235	12
2023-09-13T06:00	1094	890	17.8	7.7	235	12
2023-09-13T06:00	1121	887	17.5	7.6	235	12
2023-09-13T06:00	1150	884	17.3	7.6	235	11
2023-09-13T06:00	1177	881	17.0	7.5	235	11
2023-09-13T06:00	1207	878	16.8	7.5	234	11
2023-09-13T06:00	1235	875	16.7	7.3	232	10
2023-09-13T06:00	1259	872	16.8	7.1	230	10
2023-09-13T06:00	1289	870	16.6	6.8	227	9
2023-09-13T06:00	1316	867	16.5	6.5	225	9
2023-09-13T06:00	1345	864	16.5	6.5	224	9
2023-09-13T06:00	1372	861	16.3	6.2	224	9
2023-09-13T06:00	1397	859	16.1	6.1	224	8
2023-09-13T06:00	1424	856	15.9	6.0	224	8
2023-09-13T06:00	1451	853	15.7	6.0	223	8
2023-09-13T06:00	1472	851	15.5	6.0	222	8
2023-09-13T06:00	1499	848	15.3	5.8	220	8
2023-09-13T06:00	1521	846	15.3	5.6	219	7
2023-09-13T06:00	1548	843	15.3	5.4	218	7
2023-09-13T06:00	1575	841	15.2	5.0	219	7
2023-09-13T06:00	1602	838	15.3	4.8	221	7
2023-09-13T06:00	1628	836	15.2	4.9	223	8
2023-09-13T06:00	1654	833	15.0	5.1	226	8
2023-09-13T06:00	1681	830	14.9	5.4	227	9
2023-09-13T06:00	1708	828	14.7	5.4	228	10
2023-09-13T06:00	1737	825	14.6	5.4	229	10
2023-09-13T06:00	1772	822	14.3	5.5	230	10
2023-09-13T06:00	1809	818	14.0	5.4	231	11
2023-09-13T06:00	1839	815	13.6	5.3	232	11
2023-09-13T06:00	1872	812	13.3	5.2	233	11
2023-09-13T06:00	1904	809	13.1	5.0	234	12
2023-09-13T06:00	1932	806	12.9	4.9	236	12
2023-09-13T06:00	1962	803	12.6	4.9	237	13
2023-09-13T06:00	1990	801	12.4	4.8	238	14
2023-09-13T06:00	2017	798	12.3	4.6	238	15
2023-09-13T06:00	2043	795	12.1	4.6	239	15
2023-09-13T06:00	2068	793	11.8	4.5	239	15
2023-09-13T06:00	2097	790	11.6	4.5	240	15
2023-09-13T06:00	2129	788	11.3	4.5	241	15
2023-09-13T06:00	2154	785	11.1	4.5	241	15
2023-09-13T06:00	2184	782	10.8	4.4	242	16
2023-09-13T06:00	2212	780	10.5	4.4	242	16
2023-09-13T06:00	2238	777	10.2	4.2	242	16
2023-09-13T06:00	2265	775	10.0	4.3	242	17
2023-09-13T06:00	2292	772	9.7	4.2	242	17
2023-09-13T06:00	2314	770	9.4	4.0	242	18
2023-09-13T06:00	2340	768	9.2	4.1	242	18
2023-09-13T06:00	2366	765	8.9	4.0	242	19
2023-09-13T06:00	2392	763	8.8	4.1	242	19
2023-09-13T06:00	2419	760	8.6	4.0	241	19
2023-09-13T06:00	2448	758	8.4	4.1	240	20
2023-09-13T06:00	2475	755	8.1	4.0	239	20
2023-09-13T06:00	2500	753	7.9	3.9	239	20
2023-09-13T06:00	2522	751	7.9	4.1	238	20
2023-09-13T06:00	2548	749	7.9	4.1	238	20
2023-09-13T06:00	2576	746	7.7	3.7	238	20
2023-09-13T06:00	2601	744	7.4	4.1	238	20
2023-09-13T06:00	2634	741	7.1	4.0	238	20
2023-09-13T06:00	2657	739	7.0	3.7	238	20
2023-09-13T06:00	2680	737	6.8	3.5	237	20
2023-09-13T06:00	2704	735	6.6	3.4	237	20
2023-09-13T06:00	2723	733	6.4	3.4	236	20
2023-09-13T06:00	2749	730	6.2	3.2	236	20
2023-09-13T06:00	2776	728	5.9	3.0	236	20
2023-09-13T06:00	2803	726	5.7	2.9	236	20
2023-09-13T06:00	2830	723	5.5	2.8	235	20
2023-09-13T06:00	2859	721	5.2	2.6	235	20
2023-09-13T06:00	2889	718	5.0	2.4	235	19
2023-09-13T06:00	2921	716	4.7	2.1	234	19
2023-09-13T06:00	2946	713	4.5	1.8	234	19
2023-09-13T06:00	2973	711	4.3	1.5	233	19
2023-09-13T06:00	3000	708	4.2	1.5	232	19
2023-09-13T06:00	3026	706	3.9	1.6	230	20
2023-09-13T06:00	3057	703	3.7	1.6	229	20
2023-09-13T06:00	3085	701	3.4	2.2	228	20
2023-09-13T06:00	3115	699	3.3	1.7	227	20
2023-09-13T06:00	3144	696	3.1	1.8	226	20
2023-09-13T06:00	3173	694	2.8	2.2	226	20
2023-09-13T06:00	3203	691	2.5	2.0	226	20
2023-09-13T06:00	3229	689	2.3	1.9	226	20
2023-09-13T06:00	3256	686	2.1	1.5	227	20
2023-09-13T06:00	3281	684	1.9	0.8	229	20
2023-09-13T06:00	3310	682	2.0	-1.0	230	20
2023-09-13T06:00	3340	679	1.9	-1.2	232	20
2023-09-13T06:00	3369	677	1.7	-1.3	233	20
2023-09-13T06:00	3395	675	1.5	-1.7	233	20
2023-09-13T06:00	3424	672	1.3	-1.9	233	20
2023-09-13T06:00	3451	670	1.1	-1.9	233	21
2023-09-13T06:00	3482	668	0.9	-2.1	233	21
2023-09-13T06:00	3510	665	0.7	-2.5	233	21
2023-09-13T06:00	3539	663	0.5	-2.6	234	21
2023-09-13T06:00	3572	660	0.4	-2.9	234	21
2023-09-13T06:00	3595	658	0.2	-3.0	235	21
2023-09-13T06:00	3628	656	0.0	-3.3	235	21
2023-09-13T06:00	3656	653	-0.1	-3.6	236	21
2023-09-13T06:00	3687	651	-0.2	-4.2	236	21
2023-09-13T06:00	3717	648	-0.4	-4.4	236	22
2023-09-13T06:00	3748	646	-0.6	-4.6	236	22
2023-09-13T06:00	3778	643	-0.9	-4.8	236	22
2023-09-13T06:00	3804	641	-1.1	-4.7	237	22
2023-09-13T06:00	3836	639	-1.4	-5.0	237	22
2023-09-13T06:00	3863	636	-1.7	-5.0	236	22
2023-09-13T06:00	3894	634	-2.0	-5.1	236	22
2023-09-13T06:00	3925	632	-2.1	-5.3	236	22
2023-09-13T06:00	3955	629	-2.4	-5.7	236	22
2023-09-13T06:00	3984	627	-2.6	-5.7	236	22
2023-09-13T06:00	4014	624	-2.8	-6.0	236	23
2023-09-13T06:00	4045	622	-2.9	-6.8	236	23
2023-09-13T06:00	4074	620	-3.1	-6.8	236	22
2023-09-13T06:00	4102	618	-3.4	-6.8	236	22
2023-09-13T06:00	4132	615	-3.7	-6.7	235	22
2023-09-13T06:00	4162	613	-4.0	-6.8	234	22
2023-09-13T06:00	4191	611	-4.2	-6.9	234	21
2023-09-13T06:00	4220	608	-4.5	-7.1	233	21
2023-09-13T06:00	4254	606	-4.8	-7.2	232	21
2023-09-13T06:00	4284	604	-5.1	-7.0	231	21
2023-09-13T06:00	4312	601	-5.3	-7.0	231	21
2023-09-13T06:00	4337	599	-5.5	-7.1	230	21
2023-09-13T06:00	4366	597	-5.5	-7.7	229	21
2023-09-13T06:00	4395	595	-5.6	-8.4	229	21
2023-09-13T06:00	4422	593	-5.8	-8.4	229	21
2023-09-13T06:00	4452	591	-6.1	-8.7	229	21
2023-09-13T06:00	4474	589	-6.3	-8.8	228	21
2023-09-13T06:00	4502	587	-6.5	-8.7	227	21
2023-09-13T06:00	4532	585	-6.7	-9.2	225	21
2023-09-13T06:00	4563	582	-6.8	-9.4	224	22
2023-09-13T06:00	4592	580	-6.9	-9.2	222	22
2023-09-13T06:00	4623	578	-7.2	-9.3	222	22
2023-09-13T06:00	4652	576	-7.4	-9.4	221	22
2023-09-13T06:00	4680	574	-7.7	-9.4	221	23
2023-09-13T06:00	4711	571	-8.0	-9.7	221	23
2023-09-13T06:00	4744	569	-8.3	-10.0	221	23
2023-09-13T06:00	4773	567	-8.4	-10.6	221	23
2023-09-13T06:00	4802	565	-8.6	-10.5	221	23
2023-09-13T06:00	4831	563	-8.7	-10.7	221	23
2023-09-13T06:00	4858	561	-8.8	-11.0	221	23
2023-09-13T06:00	4884	559	-8.9	-11.2	222	23
2023-09-13T06:00	4912	557	-9.1	-11.5	222	22
2023-09-13T06:00	4942	555	-9.3	-11.6	222	22
2023-09-13T06:00	4972	553	-9.5	-11.9	222	22
2023-09-13T06:00	5003	550	-9.6	-11.9	222	22
2023-09-13T06:00	5033	548	-9.6	-12.0	222	22
2023-09-13T06:00	5062	546	-9.8	-12.1	223	22
2023-09-13T06:00	5092	544	-10.0	-12.3	224	21
2023-09-13T06:00	5122	542	-10.1	-12.7	225	21
2023-09-13T06:00	5151	540	-10.2	-13.3	226	20
2023-09-13T06:00	5188	537	-10.4	-13.8	227	20
2023-09-13T06:00	5217	535	-10.6	-14.6	228	19
2023-09-13T06:00	5248	533	-10.8	-15.0	229	19
2023-09-13T06:00	5278	531	-11.0	-15.5	230	19
2023-09-13T06:00	5306	529	-11.3	-15.9	231	19
2023-09-13T06:00	5335	527	-11.5	-16.0	231	19
2023-09-13T06:00	5364	525	-11.8	-16.2	232	19
2023-09-13T06:00	5394	523	-12.0	-16.5	232	19
2023-09-13T06:00	5425	521	-12.2	-17.3	232	19
2023-09-13T06:00	5449	519	-12.3	-18.1	232	19
2023-09-13T06:00	5475	518	-12.4	-18.2	232	19
2023-09-13T06:00	5505	516	-12.6	-18.9	232	19
2023-09-13T06:00	5536	513	-12.7	-21.9	233	19
2023-09-13T06:00	5566	511	-12.8	-25.4	233	19
2023-09-13T06:00	5598	509	-12.8	-28.4	233	19
2023-09-13T06:00	5626	507	-13.0	-28.1	233	18
2023-09-13T06:00	5651	506	-13.2	-28.1	232	18
2023-09-13T06:00	5680	504	-13.3	-27.4	232	18
2023-09-13T06:00	5711	502	-13.5	-26.9	232	18
2023-09-13T06:00	5740	500	-13.7	-27.3	233	18
2023-09-13T06:00	5769	498	-13.9	-27.2	234	18
2023-09-13T06:00	5792	496	-14.0	-28.0	235	18
2023-09-13T06:00	5823	495	-14.3	-27.4	235	18
2023-09-13T06:00	5846	493	-14.4	-26.1	235	18
2023-09-13T06:00	5872	491	-14.5	-24.4	235	18
2023-09-13T06:00	5896	490	-14.6	-23.9	235	18
2023-09-13T06:00	5928	488	-14.7	-23.1	235	18
2023-09-13T06:00	5959	486	-14.9	-24.1	235	18
2023-09-13T06:00	5991	484	-15.2	-25.1	236	18
2023-09-13T06:00	6022	482	-15.5	-25.3	236	18
2023-09-13T06:00	6055	480	-15.7	-25.7	236	18
2023-09-13T06:00	6084	478	-16.0	-25.8	236	18
2023-09-13T06:00	6113	476	-16.2	-26.3	236	19
2023-09-13T06:00	6143	474	-16.5	-26.9	237	19
2023-09-13T06:00	6170	472	-16.7	-27.9	237	19
2023-09-13T06:00	6198	470	-17.0	-27.5	237	19
2023-09-13T06:00	6225	469	-17.3	-28.2	237	19
2023-09-13T06:00	6257	467	-17.7	-28.9	237	19
2023-09-13T06:00	6289	465	-18.1	-27.6	238	19
2023-09-13T06:00	6318	463	-18.4	-25.6	239	20
2023-09-13T06:00	6348	461	-18.5	-24.4	240	20
2023-09-13T06:00	6378	459	-18.8	-23.7	241	20
2023-09-13T06:00	6408	457	-19.0	-22.6	241	20
2023-09-13T06:00	6438	456	-18.9	-22.0	242	20
2023-09-13T06:00	6467	454	-19.1	-21.9	242	20
2023-09-13T06:00	6496	452	-19.1	-21.4	242	19
2023-09-13T06:00	6528	450	-19.0	-21.2	242	19
2023-09-13T06:00	6554	449	-18.9	-21.0	241	18
2023-09-13T06:00	6581	447	-19.0	-21.1	240	17
2023-09-13T06:00	6611	445	-19.2	-21.3	239	17
2023-09-13T06:00	6641	443	-19.2	-21.3	238	16
2023-09-13T06:00	6670	442	-19.3	-21.4	238	16
2023-09-13T06:00	6701	440	-19.4	-21.6	238	16
2023-09-13T06:00	6729	438	-19.6	-21.8	238	16
2023-09-13T06:00	6759	436	-19.8	-22.0	238	15
2023-09-13T06:00	6790	435	-20.0	-22.2	237	15
2023-09-13T06:00	6818	433	-20.1	-22.3	236	15
2023-09-13T06:00	6848	431	-20.3	-22.5	234	15
2023-09-13T06:00	6880	429	-20.4	-22.6	232	15
2023-09-13T06:00	6911	427	-20.6	-22.8	230	15
2023-09-13T06:00	6943	426	-20.8	-23.1	228	15
2023-09-13T06:00	6971	424	-21.0	-23.2	225	15
2023-09-13T06:00	7001	422	-21.2	-23.4	222	15
2023-09-13T06:00	7034	420	-21.4	-23.6	219	15
2023-09-13T06:00	7064	419	-21.6	-23.8	215	15
2023-09-13T06:00	7097	417	-21.9	-24.0	212	16
2023-09-13T06:00	7125	415	-22.1	-24.4	209	16
2023-09-13T06:00	7157	413	-22.3	-24.6	208	17
2023-09-13T06:00	7189	412	-22.5	-24.8	207	17
2023-09-13T06:00	7219	410	-22.6	-25.0	207	17
2023-09-13T06:00	7250	408	-22.8	-25.3	206	17
2023-09-13T06:00	7281	407	-23.1	-25.5	206	17
2023-09-13T06:00	7314	405	-23.4	-25.8	206	17
2023-09-13T06:00	7344	403	-23.6	-26.1	205	17
2023-09-13T06:00	7373	401	-23.8	-26.4	205	17
2023-09-13T06:00	7404	400	-24.0	-26.6	205	18
2023-09-13T06:00	7433	398	-24.2	-26.8	204	18
2023-09-13T06:00	7462	397	-24.4	-27.1	204	18
2023-09-13T06:00	7491	395	-24.5	-27.2	203	18
2023-09-13T06:00	7522	393	-24.8	-27.4	201	18
2023-09-13T06:00	7552	392	-25.0	-27.6	200	18
2023-09-13T06:00	7585	390	-25.2	-27.6	200	18
2023-09-13T06:00	7617	388	-25.5	-28.0	200	18
2023-09-13T06:00	7642	387	-25.7	-28.2	201	18
2023-09-13T06:00	7673	385	-25.9	-28.5	203	18
2023-09-13T06:00	7704	384	-26.2	-28.9	204	18
2023-09-13T06:00	7737	382	-26.4	-29.0	206	18
2023-09-13T06:00	7766	380	-26.6	-29.2	207	18
2023-09-13T06:00	7795	379	-26.8	-29.5	207	18
2023-09-13T06:00	7826	377	-27.1	-29.8	207	17
2023-09-13T06:00	7856	376	-27.3	-30.0	207	17
2023-09-13T06:00	7888	374	-27.6	-30.2	207	17
2023-09-13T06:00	7918	372	-27.8	-30.4	208	17
2023-09-13T06:00	7946	371	-28.0	-30.6	208	17
2023-09-13T06:00	7981	369	-28.2	-30.9	208	17
2023-09-13T06:00	8011	368	-28.4	-31.1	207	17
2023-09-13T06:00	8039	366	-28.7	-31.4	207	17
2023-09-13T06:00	8071	365	-28.9	-31.6	206	17
2023-09-13T06:00	8096	363	-29.1	-31.9	205	16
2023-09-13T06:00	8130	362	-29.3	-32.1	204	16
2023-09-13T06:00	8161	360	-29.5	-32.4	203	15
2023-09-13T06:00	8188	359	-29.7	-32.5	203	15
2023-09-13T06:00	8219	357	-29.9	-32.7	202	15
2023-09-13T06:00	8249	356	-30.2	-32.9	202	15
2023-09-13T06:00	8275	354	-30.4	-33.0	203	14
2023-09-13T06:00	8307	353	-30.6	-33.2	203	14
2023-09-13T06:00	8340	351	-30.9	-33.4	204	14
2023-09-13T06:00	8371	349	-31.2	-33.8	204	15
2023-09-13T06:00	8406	348	-31.5	-34.1	205	15
2023-09-13T06:00	8439	346	-31.7	-34.5	205	15
2023-09-13T06:00	8471	345	-32.0	-34.7	205	15
2023-09-13T06:00	8499	343	-32.3	-34.9	205	15
2023-09-13T06:00	8532	342	-32.5	-35.2	205	15
2023-09-13T06:00	8566	340	-32.8	-35.6	205	15
2023-09-13T06:00	8598	338	-33.1	-35.9	205	15
2023-09-13T06:00	8632	337	-33.4	-36.2	206	15
2023-09-13T06:00	8667	335	-33.6	-36.4	206	15
2023-09-13T06:00	8702	334	-33.9	-36.6	206	15
2023-09-13T06:00	8734	332	-34.2	-36.9	205	15
2023-09-13T06:00	8772	330	-34.6	-37.3	205	15
2023-09-13T06:00	8805	329	-34.8	-37.6	205	15
2023-09-13T06:00	8842	327	-35.2	-37.9	205	15
2023-09-13T06:00	8880	325	-35.5	-38.2	205	15
2023-09-13T06:00	8916	323	-35.8	-38.4	205	15
2023-09-13T06:00	8950	322	-36.1	-38.8	204	14
2023-09-13T06:00	8986	320	-36.4	-39.1	203	14
2023-09-13T06:00	9019	319	-36.7	-39.4	202	14
2023-09-13T06:00	9052	317	-36.9	-39.6	201	13
2023-09-13T06:00	9085	316	-37.2	-39.8	200	13
2023-09-13T06:00	9121	314	-37.5	-40.2	199	14
2023-09-13T06:00	9155	312	-37.8	-40.4	198	14
2023-09-13T06:00	9190	311	-38.2	-40.9	196	14
2023-09-13T06:00	9226	309	-38.5	-41.3	195	14
2023-09-13T06:00	9256	308	-38.7	-41.4	194	14
2023-09-13T06:00	9292	306	-39.0	-41.8	193	14
2023-09-13T06:00	9323	305	-39.3	-42.1	193	14
2023-09-13T06:00	9356	303	-39.6	-42.4	193	14
2023-09-13T06:00	9390	302	-39.8	-42.6	193	14
2023-09-13T06:00	9423	300	-40.1	-42.9	193	14
2023-09-13T06:00	9462	299	-40.5	-43.4	193	14
2023-09-13T06:00	9497	297	-40.8	-43.7	192	14
2023-09-13T06:00	9532	296	-41.1	-44.1	192	14
2023-09-13T06:00	9567	294	-41.4	-44.4	193	14
2023-09-13T06:00	9607	292	-41.8	-44.9	193	14
2023-09-13T06:00	9639	291	-42.0	-45.0	193	14
2023-09-13T06:00	9672	290	-42.3	-45.3	192	14
2023-09-13T06:00	9706	288	-42.6	-45.8	192	14
2023-09-13T06:00	9738	287	-42.9	-46.2	191	14
2023-09-13T06:00	9773	285	-43.2	-46.4	190	13
2023-09-13T06:00	9808	284	-43.5	-46.7	190	13
2023-09-13T06:00	9845	282	-43.8	-47.1	189	13
2023-09-13T06:00	9885	281	-44.1	-47.5	188	13
2023-09-13T06:00	9921	279	-44.5	-47.9	187	14
2023-09-13T06:00	9952	278	-44.7	-48.1	186	13
2023-09-13T06:00	9983	277	-45.1	-48.5	184	13
2023-09-13T06:00	10016	275	-45.3	-48.8	183	13
2023-09-13T06:00	10047	274	-45.6	-49.0	182	13
2023-09-13T06:00	10081	272	-46.0	-49.4	181	12
2023-09-13T06:00	10119	271	-46.3	-49.8	181	12
2023-09-13T06:00	10153	270	-46.6	-50.1	182	11
2023-09-13T06:00	10186	268	-46.9	-50.4	182	11
2023-09-13T06:00	10218	267	-47.2	-50.5	183	11
2023-09-13T06:00	10249	266	-47.5	-50.9	183	11
2023-09-13T06:00	10282	264	-47.8	-51.3	183	11
2023-09-13T06:00	10319	263	-48.1	-51.8	183	11
2023-09-13T06:00	10349	262	-48.5	-52.3	183	12
2023-09-13T06:00	10376	261	-48.7	-52.4	183	12
2023-09-13T06:00	10401	260	-49.0	-52.6	182	12
2023-09-13T06:00	10431	258	-49.3	-53.0	181	12
2023-09-13T06:00	10458	257	-49.5	-53.2	181	12
2023-09-13T06:00	10490	256	-49.8	-53.5	182	12
2023-09-13T06:00	10515	255	-50.1	-53.7	183	12
2023-09-13T06:00	10545	254	-50.3	-53.7	185	13
2023-09-13T06:00	10581	253	-50.7	-54.0	185	13
2023-09-13T06:00	10603	252	-50.9	-54.2	185	12
2023-09-13T06:00	10631	251	-51.2	-54.5	184	12
2023-09-13T06:00	10664	249	-51.5	-54.7	183	12
2023-09-13T06:00	10697	248	-51.8	-55.0	181	13
2023-09-13T06:00	10723	247	-52.0	-55.3	180	13
2023-09-13T06:00	10760	246	-52.4	-55.8	180	13
2023-09-13T06:00	10780	245	-52.6	-56.5	180	13
2023-09-13T06:00	10803	244	-52.8	-57.4	181	13
2023-09-13T06:00	10826	243	-53.0	-57.7	182	13
2023-09-13T06:00	10850	242	-53.2	-57.8	184	13
2023-09-13T06:00	10879	241	-53.5	-58.0	187	13
2023-09-13T06:00	10920	240	-53.7	-58.3	191	13
2023-09-13T06:00	10955	238	-53.8	-58.4	196	13
2023-09-13T06:00	10989	237	-53.9	-58.4	201	14
2023-09-13T06:00	11023	236	-54.2	-58.6	205	14
2023-09-13T06:00	11056	235	-54.3	-58.6	207	15
2023-09-13T06:00	11091	233	-54.6	-58.8	209	16
2023-09-13T06:00	11126	232	-54.9	-59.0	211	16
2023-09-13T06:00	11158	231	-55.1	-59.1	213	16
2023-09-13T06:00	11197	230	-55.5	-59.3	217	16
2023-09-13T06:00	11232	228	-55.8	-59.4	220	16
2023-09-13T06:00	11267	227	-56.2		224	17
2023-09-13T06:00	11297	226	-56.4	-59.8	227	18
2023-09-13T06:00	11326	225	-56.7	-60.0	230	18
2023-09-13T06:00	11354	224	-56.9	-60.1	231	19
2023-09-13T06:00	11380	223	-57.2	-60.3	232	19
2023-09-13T06:00	11409	222	-57.3	-60.3	232	19
2023-09-13T06:00	11432	221	-57.4	-60.5	233	19
2023-09-13T06:00	11459	220	-57.5	-60.7	233	19
2023-09-13T06:00	11481	219	-57.7	-61.0	232	19
2023-09-13T06:00	11503	219	-57.8	-61.1	232	19
2023-09-13T06:00	11526	218	-58.0	-61.2	230	19
2023-09-13T06:00	11562	217	-58.3	-61.5	229	18
2023-09-13T06:00	11602	215	-58.6	-62.0	227	18
2023-09-13T06:00	11625	214	-58.8		225	19
2023-09-13T06:00	11659	213	-59.0	-62.8	224	20
2023-09-13T06:00	11692	212	-59.4	-62.8	223	21
2023-09-13T06:00	11718	211	-59.1	-61.9	222	21
2023-09-13T06:00	11736	211	-58.9	-61.5	222	22
2023-09-13T06:00	11758	210	-58.8	-61.7	223	22
2023-09-13T06:00	11782	209	-58.8	-62.0	223	22
2023-09-13T06:00	11804	208	-58.9	-62.2	224	22
2023-09-13T06:00	11829	208	-59.1	-62.3	225	22
2023-09-13T06:00	11850	207	-59.3	-62.4	226	21
2023-09-13T06:00	11871	206	-59.5	-62.5	227	21
2023-09-13T06:00	11891	206	-59.6	-62.7	229	20
2023-09-13T06:00	11912	205	-59.7	-62.9	231	20
2023-09-13T06:00	11942	204	-60.0	-63.5	234	19
2023-09-13T06:00	11974	203	-60.0	-63.8	238	19
2023-09-13T06:00	12015	201	-59.8	-64.2	242	19
2023-09-13T06:00	12056	200	-59.1	-64.1	246	18
2023-09-13T06:00	12076	200	-58.1	-63.6	249	19
2023-09-13T06:00	12099	199	-58.2	-63.9	250	19
2023-09-13T06:00	12118	198	-58.3	-63.9	251	19
2023-09-13T06:00	12141	197	-58.5	-63.8	251	19
2023-09-13T06:00	12165	197	-58.7	-63.7	250	19
2023-09-13T06:00	12191	196	-58.9	-63.8	250	19
2023-09-13T06:00	12215	195	-59.1	-64.0	250	19
2023-09-13T06:00	12241	194	-59.4	-64.2	250	19
2023-09-13T06:00	12281	193	-59.7	-64.4	250	18
2023-09-13T06:00	12303	192	-59.9	-64.7	250	18
2023-09-13T06:00	12330	192	-60.0	-65.3	250	17
2023-09-13T06:00	12358	191	-59.6	-65.9	251	16
2023-09-13T06:00	12387	190	-59.4	-66.9	252	16
2023-09-13T06:00	12415	189	-59.3	-68.0	253	16
2023-09-13T06:00	12443	188	-59.5	-69.7	255	16
2023-09-13T06:00	12469	187	-58.5	-71.1	255	16
2023-09-13T06:00	12498	187	-57.7	-73.2	255	17
2023-09-13T06:00	12530	186	-57.4	-75.6	254	18
2023-09-13T06:00	12563	185	-56.6	-76.9	254	19
2023-09-13T06:00	12593	184	-56.4	-77.4	254	19
2023-09-13T06:00	12617	183	-56.5	-77.0	254	20
2023-09-13T06:00	12640	182	-56.7	-76.3	254	20
2023-09-13T06:00	12661	182	-56.9	-75.8	254	20
2023-09-13T06:00	12683	181	-57.1	-75.7	254	20
2023-09-13T06:00	12706	181	-57.2	-75.9	253	19
2023-09-13T06:00	12732	180	-56.9	-76.1	252	19
2023-09-13T06:00	12752	179	-56.7	-76.4	251	19
2023-09-13T06:00	12773	179	-56.7	-76.7	249	19
2023-09-13T06:00	12795	178	-56.8	-76.7	248	18
2023-09-13T06:00	12816	177	-57.0	-76.7	247	18
2023-09-13T06:00	12837	177	-57.2	-76.5	246	18
2023-09-13T06:00	12860	176	-57.3	-76.1	245	18
2023-09-13T06:00	12879	176	-57.5	-75.6	244	18
2023-09-13T06:00	12899	175	-57.4	-75.1	244	18
2023-09-13T06:00	12920	175	-56.7	-74.7	245	17
2023-09-13T06:00	12938	174	-55.9	-75.4	246	17
2023-09-13T06:00	12956	173	-55.6	-77.0	248	17
2023-09-13T06:00	12982	173	-55.2	-78.2	249	16
2023-09-13T06:00	13000	172	-54.3	-77.8	250	16
2023-09-13T06:00	13020	172	-53.7	-77.4	251	15
2023-09-13T06:00	13040	171	-53.7	-77.2	251	15
2023-09-13T06:00	13060	171	-53.6	-76.4	251	15
2023-09-13T06:00	13080	170	-53.6	-75.7	251	14
2023-09-13T06:00	13098	170	-53.6	-75.1	250	14
2023-09-13T06:00	13118	169	-53.4	-74.7	250	13
2023-09-13T06:00	13140	169	-53.4		250	13
2023-09-13T06:00	13157	168	-53.3	-74.0	251	13
2023-09-13T06:00	13177	168	-53.4	-74.2	252	13
2023-09-13T06:00	13196	167	-53.5	-74.8	253	13
2023-09-13T06:00	13218	167	-53.3	-75.3	253	14
2023-09-13T06:00	13240	166	-53.3	-75.6	253	14
2023-09-13T06:00	13258	166	-53.5	-75.6	252	14
2023-09-13T06:00	13283	165	-53.5	-75.0	250	15
2023-09-13T06:00	13304	164	-53.6	-74.1	249	15
2023-09-13T06:00	13329	164	-53.7	-73.0	248	15
2023-09-13T06:00	13351	163	-53.9	-72.2	247	15
2023-09-13T06:00	13371	163	-54.1	-71.7	246	15
2023-09-13T06:00	13392	162	-54.3	-71.5	245	15
2023-09-13T06:00	13410	162	-54.5	-71.9	244	14
2023-09-13T06:00	13432	161	-54.6	-72.8	244	14
2023-09-13T06:00	13453	161	-54.5	-73.6	245	13
2023-09-13T06:00	13475	160	-54.3	-73.9	246	13
2023-09-13T06:00	13498	160	-54.1	-73.9	246	13
2023-09-13T06:00	13519	159	-54.1	-74.2	246	12
2023-09-13T06:00	13541	158	-53.9	-75.1	245	12
2023-09-13T06:00	13561	158	-54.0	-76.7	243	12
2023-09-13T06:00	13586	157	-54.0	-78.2	241	12
2023-09-13T06:00	13608	157	-54.0	-79.0	239	12
2023-09-13T06:00	13629	156	-53.9	-79.2	238	12
2023-09-13T06:00	13651	156	-54.0	-79.3	239	12
2023-09-13T06:00	13671	155	-54.1	-79.3	240	12
2023-09-13T06:00	13693	155	-54.1	-79.1	241	13
2023-09-13T06:00	13713	154	-54.1	-79.1	242	13
2023-09-13T06:00	13736	154	-54.2	-79.2	243	14
2023-09-13T06:00	13757	153	-54.2	-79.2	244	14
2023-09-13T06:00	13775	153	-54.2	-79.2	244	14
2023-09-13T06:00	13799	152	-54.4	-79.3	244	14
2023-09-13T06:00	13821	152	-54.4	-79.3	243	15
2023-09-13T06:00	13843	151	-54.3	-79.3	243	15
2023-09-13T06:00	13863	151	-54.5	-79.2	243	15
2023-09-13T06:00	13885	150	-54.6	-79.3	244	15
2023-09-13T06:00	13906	150	-54.5	-79.2	245	15
2023-09-13T06:00	13927	149	-54.5	-79.2	246	15
2023-09-13T06:00	13947	149	-54.4	-79.1	247	15
2023-09-13T06:00	13967	148	-54.5	-79.4	249	14
2023-09-13T06:00	13988	148	-54.6	-79.5	250	14
2023-09-13T06:00	14009	147	-54.7	-79.6	251	14
2023-09-13T06:00	14030	147	-54.9	-79.7	251	13
2023-09-13T06:00	14051	146	-54.9	-80.0	251	13
2023-09-13T06:00	14074	146	-55.0	-80.0	251	12
2023-09-13T06:00	14093	145	-55.1	-80.1	250	12
2023-09-13T06:00	14115	145	-55.1	-80.1	250	12
2023-09-13T06:00	14137	144	-55.3	-80.0	249	12
2023-09-13T06:00	14160	144	-55.4	-80.1	249	13
2023-09-13T06:00	14182	143	-55.5	-80.2	249	13
2023-09-13T06:00	14203	143	-55.6	-80.3	249	13
2023-09-13T06:00	14223	142	-55.7	-80.4	250	13
2023-09-13T06:00	14247	142	-55.9	-80.3	251	14
2023-09-13T06:00	14265	141	-56.1	-80.2	251	14
2023-09-13T06:00	14284	141	-56.2	-80.1	252	14
2023-09-13T06:00	14306	141	-56.4	-80.1	253	14
2023-09-13T06:00	14327	140	-56.2	-79.5	253	14
2023-09-13T06:00	14348	140	-56.0	-79.2	253	14
2023-09-13T06:00	14368	139	-56.0	-79.2	254	13
2023-09-13T06:00	14389	139	-56.0	-79.6	254	13
2023-09-13T06:00	14409	138	-55.8	-80.0	254	13
2023-09-13T06:00	14428	138	-55.6	-80.5	255	13
2023-09-13T06:00	14447	137	-55.7	-80.8	256	12
2023-09-13T06:00	14466	137	-55.6	-81.0	257	12
2023-09-13T06:00	14488	137	-55.5	-80.9	258	12
2023-09-13T06:00	14506	136	-55.4	-80.8	259	12
2023-09-13T06:00	14527	136	-55.2	-80.9	260	12
2023-09-13T06:00	14547	135	-55.1	-80.9	260	12
2023-09-13T06:00	14564	135	-55.1	-80.9	261	12
2023-09-13T06:00	14583	135	-55.2	-80.7	260	11
2023-09-13T06:00	14602	134	-55.2	-80.7	260	11
2023-09-13T06:00	14620	134	-55.3	-80.8	259	11
2023-09-13T06:00	14640	133	-55.5	-80.9	257	10
2023-09-13T06:00	14659	133	-55.5	-80.9	255	10
2023-09-13T06:00	14683	133	-55.4	-81.1	252	9
2023-09-13T06:00	14704	132	-55.2	-80.9	249	9
2023-09-13T06:00	14722	132	-55.2	-80.9	246	8
2023-09-13T06:00	14745	131	-55.3	-81.0	243	8
2023-09-13T06:00	14764	131	-55.1	-80.9	240	8
2023-09-13T06:00	14783	130	-55.2	-80.9	237	8
2023-09-13T06:00	14805	130	-55.4	-81.1	234	8
2023-09-13T06:00	14825	130	-55.5	-81.2	232	9
2023-09-13T06:00	14846	129	-55.6	-81.3	229	9
2023-09-13T06:00	14868	129	-55.6	-81.3	227	9
2023-09-13T06:00	14889	128	-55.6	-81.0	227	10
2023-09-13T06:00	14909	128	-55.7	-81.1	228	10
2023-09-13T06:00	14928	127	-55.9	-81.2	229	10
2023-09-13T06:00	14951	127	-56.0	-81.3	232	11
2023-09-13T06:00	14971	127	-55.8	-81.2	234	11
2023-09-13T06:00	14992	126	-55.7	-81.1	235	11
2023-09-13T06:00	15011	126	-55.8	-81.2	237	11
2023-09-13T06:00	15032	125	-55.8	-81.2	238	11
2023-09-13T06:00	15051	125	-55.8	-81.2	239	12
2023-09-13T06:00	15074	125	-55.8	-81.2	240	12
2023-09-13T06:00	15094	124	-55.9	-81.2	241	12
2023-09-13T06:00	15116	124	-56.0	-81.3	242	12
2023-09-13T06:00	15138	123	-55.9	-81.2	242	12
2023-09-13T06:00	15156	123	-56.0	-81.3	242	12
2023-09-13T06:00	15179	123	-56.1	-81.1	243	13
2023-09-13T06:00	15199	122	-56.2	-81.2	243	13
2023-09-13T06:00	15222	122	-56.4	-81.4	243	13
2023-09-13T06:00	15243	121	-56.6	-81.3	244	13
2023-09-13T06:00	15265	121	-56.8	-81.5	245	13
2023-09-13T06:00	15285	121	-57.0	-81.6	247	13
2023-09-13T06:00	15306	120	-57.1	-81.7	248	14
2023-09-13T06:00	15329	120	-57.3	-81.6	250	14
2023-09-13T06:00	15351	119	-57.4	-81.7	252	14
2023-09-13T06:00	15372	119	-57.6	-81.9	253	15
2023-09-13T06:00	15396	118	-57.7		255	15
2023-09-13T06:00	15420	118	-57.7		256	15
2023-09-13T06:00	15442	118	-57.7		258	14
2023-09-13T06:00	15465	117	-57.6	-81.9	259	14
2023-09-13T06:00	15487	117	-57.7		260	13
2023-09-13T06:00	15509	116	-57.8	-82.0	262	13
2023-09-13T06:00	15529	116	-58.0	-82.2	263	12
2023-09-13T06:00	15551	116	-58.1	-82.3	263	12
2023-09-13T06:00	15573	115	-58.3	-82.2	263	11
2023-09-13T06:00	15596	115	-58.4	-82.3	263	11
2023-09-13T06:00	15618	114	-58.4	-82.3	264	11
2023-09-13T06:00	15638	114	-58.6	-82.4	264	10
2023-09-13T06:00	15659	114	-58.6	-82.4	264	10
2023-09-13T06:00	15684	113	-58.5	-82.6	265	10
2023-09-13T06:00	15700	113	-58.4	-82.5	265	10
2023-09-13T06:00	15720	112	-58.4	-82.5	265	10
2023-09-13T06:00	15740	112	-58.4	-82.5	265	10
2023-09-13T06:00	15763	112	-58.6	-82.7	266	10
2023-09-13T06:00	15783	111	-58.7	-82.7	267	10
2023-09-13T06:00	15804	111	-58.4	-82.7	269	10
2023-09-13T06:00	15826	111	-58.4	-82.7	270	10
2023-09-13T06:00	15848	110	-58.4	-82.7	270	10
2023-09-13T06:00	15869	110	-58.4	-82.9	269	10
2023-09-13T06:00	15889	110	-58.3	-82.9	266	9
2023-09-13T06:00	15911	109	-58.2	-82.8	263	9
2023-09-13T06:00	15933	109	-58.1	-82.7	259	9
2023-09-13T06:00	15955	108	-58.2	-82.8	257	9
2023-09-13T06:00	15976	108	-58.2	-82.8	256	9
2023-09-13T06:00	15996	108	-58.4	-82.9	256	10
2023-09-13T06:00	16018	107	-58.5	-83.0	257	10
2023-09-13T06:00	16040	107	-58.6	-83.1	259	11
2023-09-13T06:00	16059	107	-58.5	-83.0	262	11
2023-09-13T06:00	16079	106	-58.3	-83.1	265	12
2023-09-13T06:00	16099	106	-58.3	-83.1	268	12
2023-09-13T06:00	16118	106	-58.2	-83.0	271	13
2023-09-13T06:00	16140	105	-58.3	-83.1	273	13
2023-09-13T06:00	16159	105	-58.3	-83.1	275	14
2023-09-13T06:00	16178	105	-58.4	-83.2	277	14
2023-09-13T06:00	16198	104	-58.4	-83.2	279	15
2023-09-13T06:00	16221	104	-58.5	-83.3	281	15
2023-09-13T06:00	16240	104	-58.5	-83.5	283	15
2023-09-13T06:00	16258	103	-58.4	-83.4	285	14
2023-09-13T06:00	16280	103	-58.0	-83.4	288	13
2023-09-13T06:00	16298	103	-57.8	-83.5	290	12
2023-09-13T06:00	16322	102	-57.5	-83.3	292	12
2023-09-13T06:00	16343	102	-57.2	-83.3	294	11
2023-09-13T06:00	16367	101	-57.1	-83.2	294	10
2023-09-13T06:00	16394	101	-57.1	-83.2	294	9
2023-09-13T06:00	16418	101	-57.2	-83.3	293	8
2023-09-13T06:00	16441	100	-57.3	-83.1	291	7
2023-09-13T06:00	16465	100	-57.5	-83.3	290	7
2023-09-13T06:00	16486	100	-57.6	-83.3	288	6
2023-09-13T06:00	16510	99	-57.7	-83.4	287	5
2023-09-13T06:00	16536	99	-57.8	-83.5	284	5
2023-09-13T06:00	16558	98	-57.8	-83.5	280	5
2023-09-13T06:00	16584	98	-57.9	-83.6	275	4
2023-09-13T06:00	16606	98	-58.1	-83.7	267	4
2023-09-13T06:00	16629	97	-58.3	-83.9	260	5
2023-09-13T06:00	16655	97	-58.4	-84.0	254	5
2023-09-13T06:00	16678	97	-58.2	-83.8	249	6
2023-09-13T06:00	16699	96	-58.3	-83.9	246	7
2023-09-13T06:00	16725	96	-58.2	-84.1	245	8
2023-09-13T06:00	16749	96	-58.1	-84.0	246	8
2023-09-13T06:00	16773	95	-58.1	-84.0	248	9
2023-09-13T06:00	16798	95	-58.1	-84.0	251	9
2023-09-13T06:00	16820	94	-58.1	-84.0	255	10
2023-09-13T06:00	16845	94	-58.1	-84.0	260	10
2023-09-13T06:00	16872	94	-58.2	-84.1	265	10
2023-09-13T06:00	16895	93	-58.2	-84.1	269	10
2023-09-13T06:00	16919	93	-58.2	-84.1	274	10
2023-09-13T06:00	16945	93	-58.2	-84.4	278	10
2023-09-13T06:00	16972	92	-58.2	-84.4	282	10
2023-09-13T06:00	16997	92	-57.8	-84.1	286	10
2023-09-13T06:00	17022	91	-57.6	-83.9	290	10
2023-09-13T06:00	17047	91	-57.8	-84.1	293	10
2023-09-13T06:00	17075	91	-57.9	-84.2	295	10
2023-09-13T06:00	17097	90	-58.0	-84.2	297	10
2023-09-13T06:00	17125	90	-58.1	-84.3	298	11
2023-09-13T06:00	17148	90	-58.2	-84.4	299	11
2023-09-13T06:00	17172	89	-58.2	-84.1	298	11
2023-09-13T06:00	17195	89	-58.4	-84.3	298	10
2023-09-13T06:00	17220	89	-58.4	-84.3	297	10
2023-09-13T06:00	17245	88	-58.6	-84.4	297	10
2023-09-13T06:00	17267	88	-58.7	-84.5	297	10
2023-09-13T06:00	17291	88	-58.6	-84.4	297	10
2023-09-13T06:00	17314	87	-58.7	-84.5	298	9
2023-09-13T06:00	17334	87	-58.8	-84.6	298	9
2023-09-13T06:00	17359	87	-58.9	-84.6	298	9
2023-09-13T06:00	17379	86	-59.0	-84.7	297	9
2023-09-13T06:00	17403	86	-59.2	-84.9	296	8
2023-09-13T06:00	17425	86	-59.1	-84.8	294	8
2023-09-13T06:00	17444	86	-58.9	-84.6	293	8
2023-09-13T06:00	17465	85	-58.8	-84.6	292	8
2023-09-13T06:00	17487	85	-58.7	-84.5	292	9
2023-09-13T06:00	17502	85	-58.8	-84.6	293	9
2023-09-13T06:00	17524	84	-58.9	-84.6	294	9
2023-09-13T06:00	17543	84	-59.0	-84.7	295	9
2023-09-13T06:00	17562	84	-58.9	-84.6	296	8
2023-09-13T06:00	17584	84	-58.9	-84.9	297	8
2023-09-13T06:00	17604	83	-58.7	-84.8	298	7
2023-09-13T06:00	17624	83	-58.5	-84.9	297	6
2023-09-13T06:00	17642	83	-58.4	-84.9	294	6
2023-09-13T06:00	17661	83	-58.2	-84.7	289	5
2023-09-13T06:00	17682	82	-58.1	-84.6	282	6
2023-09-13T06:00	17702	82	-58.1	-84.6	276	6
2023-09-13T06:00	17718	82	-58.0	-84.9	271	7
2023-09-13T06:00	17738	82	-58.1	-85.0	267	7
2023-09-13T06:00	17759	81	-58.1	-85.0	266	8
2023-09-13T06:00	17777	81	-58.1	-85.0	266	8
2023-09-13T06:00	17798	81	-57.9	-84.8	267	8
2023-09-13T06:00	17819	81	-57.8	-84.7	270	8
2023-09-13T06:00	17839	80	-57.7	-84.7	274	8
2023-09-13T06:00	17858	80	-57.7	-84.7	278	8
2023-09-13T06:00	17881	80	-57.6	-84.9	283	8
2023-09-13T06:00	17904	80	-57.6	-84.9	288	8
2023-09-13T06:00	17925	79	-57.6	-84.9	292	7
2023-09-13T06:00	17946	79	-57.5	-84.9	296	7
2023-09-13T06:00	17968	79	-57.4	-84.8	299	7
2023-09-13T06:00	17990	78	-57.4	-84.8	302	7
2023-09-13T06:00	18011	78	-57.5	-84.9	304	6
2023-09-13T06:00	18037	78	-57.5	-84.9	306	6
2023-09-13T06:00	18061	78	-57.5	-84.9	307	5
2023-09-13T06:00	18084	77	-57.5	-84.5	307	4
2023-09-13T06:00	18108	77	-57.7	-85.0	304	3
2023-09-13T06:00	18132	77	-57.7	-85.0	296	2
2023-09-13T06:00	18151	76	-57.7	-85.0	280	2
2023-09-13T06:00	18176	76	-57.7	-85.0	261	2
2023-09-13T06:00	18199	76	-57.7	-85.0	249	2
2023-09-13T06:00	18224	76	-57.6	-84.9	244	3
2023-09-13T06:00	18250	75	-57.7	-85.0	242	3
2023-09-13T06:00	18274	75	-57.8	-85.1	241	4
2023-09-13T06:00	18297	75	-57.9	-84.8	240	4
2023-09-13T06:00	18323	74	-58.0	-84.9	240	5
2023-09-13T06:00	18346	74	-58.0	-85.2	242	5
2023-09-13T06:00	18367	74	-57.9	-85.2	244	6
2023-09-13T06:00	18394	74	-57.8	-85.1	247	6
2023-09-13T06:00	18418	73	-57.7	-85.0	250	7
2023-09-13T06:00	18442	73	-57.8	-85.1	253	7
2023-09-13T06:00	18466	73	-57.8	-85.1	256	7
2023-09-13T06:00	18495	72	-57.8	-85.1	258	7
2023-09-13T06:00	18520	72	-57.8	-85.1	261	7
2023-09-13T06:00	18545	72	-57.8	-85.1	264	6
2023-09-13T06:00	18569	72	-57.6	-84.9	266	6
2023-09-13T06:00	18594	71	-57.6	-84.9	267	6
2023-09-13T06:00	18617	71	-57.6	-84.9	269	6
2023-09-13T06:00	18643	71	-57.6	-84.9	271	6
2023-09-13T06:00	18666	70	-57.7	-85.0	274	7
2023-09-13T06:00	18689	70	-57.8	-85.1	276	7
2023-09-13T06:00	18717	70	-57.8	-85.1	279	7
2023-09-13T06:00	18741	70	-57.9	-85.2	281	7
2023-09-13T06:00	18766	69	-57.9	-85.2	283	8
2023-09-13T06:00	18788	69	-57.9	-85.2	283	8
2023-09-13T06:00	18810	69	-57.9	-85.2	283	8
2023-09-13T06:00	18834	69	-58.0	-85.2	283	8
2023-09-13T06:00	18855	68	-58.1	-85.3	283	8
2023-09-13T06:00	18880	68	-58.2	-85.4	283	8
2023-09-13T06:00	18901	68	-58.3	-85.5	284	8
2023-09-13T06:00	18921	68	-58.4	-85.5	286	8
2023-09-13T06:00	18946	67	-58.5	-85.6	289	8
2023-09-13T06:00	18964	67	-58.4	-85.5	293	8
2023-09-13T06:00	18989	67	-58.3	-85.5	297	7
2023-09-13T06:00	19012	67	-58.2	-85.4	303	7
2023-09-13T06:00	19027	67	-58.2	-85.4	310	7
2023-09-13T06:00	19051	66	-58.1	-85.7	317	6
2023-09-13T06:00	19072	66	-57.9	-85.5	324	6
2023-09-13T06:00	19093	66	-57.6	-85.3	331	5
2023-09-13T06:00	19116	66	-57.4	-85.2	338	5
2023-09-13T06:00	19137	65	-57.3	-85.5	343	4
2023-09-13T06:00	19155	65	-57.2	-85.4	347	3
2023-09-13T06:00	19174	65	-57.1	-84.9	347	3
2023-09-13T06:00	19195	65	-57.1	-84.9	342	2
2023-09-13T06:00	19219	65	-57.1	-84.9	321	1
2023-09-13T06:00	19240	64	-57.2	-85.0	283	1
2023-09-13T06:00	19258	64	-57.2	-85.4	262	2
2023-09-13T06:00	19280	64	-57.2	-85.4	257	2
2023-09-13T06:00	19303	64	-57.2	-85.4	258	3
2023-09-13T06:00	19323	64	-57.2	-85.4	262	3
2023-09-13T06:00	19339	63	-56.9	-85.2	266	4
2023-09-13T06:00	19362	63	-56.5	-84.9	272	4
2023-09-13T06:00	19384	63	-56.3	-85.1	277	3
2023-09-13T06:00	19405	63	-56.2	-85.1	283	3
2023-09-13T06:00	19426	62	-56.1	-85.0	289	2
2023-09-13T06:00	19446	62	-55.8	-84.8	295	2
2023-09-13T06:00	19467	62	-55.7	-84.7	296	1
2023-09-13T06:00	19490	62	-55.7	-84.7	286	1
2023-09-13T06:00	19514	62	-55.6	-84.6	271	1
2023-09-13T06:00	19533	61	-55.6	-84.6	263	2
2023-09-13T06:00	19559	61	-55.5	-84.5	259	2
2023-09-13T06:00	19582	61	-55.6	-84.2	256	3
2023-09-13T06:00	19607	61	-55.8	-84.3	254	3
2023-09-13T06:00	19631	61	-56.0	-84.5	251	4
2023-09-13T06:00	19657	60	-56.2	-84.6	248	4
2023-09-13T06:00	19679	60	-56.4	-84.4	246	5
2023-09-13T06:00	19703	60	-56.5	-84.5	246	6
2023-09-13T06:00	19728	60	-56.6	-84.5	247	6
2023-09-13T06:00	19753	59	-56.8	-84.7	251	6
2023-09-13T06:00	19779	59	-56.8	-84.7	256	7
2023-09-13T06:00	19805	59	-56.7	-85.0	262	7
2023-09-13T06:00	19830	59	-56.7	-85.0	268	7
2023-09-13T06:00	19857	58	-56.6	-84.9	275	7
2023-09-13T06:00	19882	58	-56.6	-84.9	281	7
2023-09-13T06:00	19907	58	-56.6	-84.9	287	7
2023-09-13T06:00	19936	58	-56.6	-84.9	292	6
2023-09-13T06:00	19960	57	-56.5	-84.9	297	6
2023-09-13T06:00	19988	57	-56.5	-84.9	301	6
2023-09-13T06:00	20012	57	-56.3	-84.7	306	6
2023-09-13T06:00	20042	57	-56.3	-84.7	310	5
2023-09-13T06:00	20064	57	-56.4	-84.8	314	5
2023-09-13T06:00	20089	56	-56.4	-84.8	318	5
2023-09-13T06:00	20114	56	-56.5	-84.9	321	5
2023-09-13T06:00	20139	56	-56.7	-85.0	324	5
2023-09-13T06:00	20164	56	-56.8	-84.7	329	4
2023-09-13T06:00	20189	55	-57.0	-84.8	335	4
2023-09-13T06:00	20214	55	-57.1	-84.9	342	4
2023-09-13T06:00	20237	55	-57.1	-84.9	350	3
2023-09-13T06:00	20262	55	-57.2	-85.0	358	3
2023-09-13T06:00	20285	55	-57.3	-85.1	6	3
2023-09-13T06:00	20308	54	-57.4	-85.2	12	2
2023-09-13T06:00	20332	54	-57.4	-85.2	17	1
2023-09-13T06:00	20355	54	-57.4	-85.2	18	1
2023-09-13T06:00	20379	54	-57.4	-85.6	235	0
2023-09-13T06:00	20403	54	-57.3	-85.5	224	1
2023-09-13T06:00	20429	53	-57.1	-85.3	226	2
2023-09-13T06:00	20450	53	-57.1	-85.3	229	3
2023-09-13T06:00	20473	53	-57.3	-85.5	233	3
2023-09-13T06:00	20497	53	-57.4	-85.6	238	4
2023-09-13T06:00	20518	53	-57.4	-85.6	246	4
2023-09-13T06:00	20543	52	-57.3	-85.5	255	4
2023-09-13T06:00	20563	52	-57.0	-85.2	268	3
2023-09-13T06:00	20584	52	-57.0	-85.2	280	3
2023-09-13T06:00	20608	52	-56.9	-85.2	291	3
2023-09-13T06:00	20626	52	-56.9	-85.6	300	3
2023-09-13T06:00	20653	52	-56.8	-85.5	305	3
2023-09-13T06:00	20672	51	-56.7	-85.4	309	3
2023-09-13T06:00	20695	51	-56.5	-85.3	311	3
2023-09-13T06:00	20717	51	-56.3	-85.1	311	3
2023-09-13T06:00	20743	51	-56.0	-84.9	310	2
2023-09-13T06:00	20764	51	-55.9	-85.3	308	2
2023-09-13T06:00	20786	50	-55.8	-84.8	304	2
2023-09-13T06:00	20811	50	-55.7	-84.7	300	2
2023-09-13T06:00	20832	50	-55.8	-84.8	298	2
2023-09-13T06:00	20857	50	-55.9	-84.8	298	3
2023-09-13T06:00	20879	50	-56.0	-84.9	297	3
2023-09-13T06:00	20905	50	-56.2	-85.1	296	3
2023-09-13T06:00	20926	49	-56.3	-84.7	294	3
2023-09-13T06:00	20955	49	-56.4	-84.8	290	3
2023-09-13T06:00	20979	49	-56.7	-85.0	284	3
2023-09-13T06:00	21003	49	-56.9	-85.2	275	3
2023-09-13T06:00	21026	49	-57.1	-84.9	265	3
2023-09-13T06:00	21054	48	-57.3	-85.1	256	3
2023-09-13T06:00	21077	48	-57.4	-85.6	251	4
2023-09-13T06:00	21103	48	-57.3	-85.5	248	5
2023-09-13T06:00	21125	48	-57.3	-85.5	248	5
2023-09-13T06:00	21158	48	-57.2	-85.4	248	6
2023-09-13T06:00	21183	47	-57.3	-85.5	250	6
2023-09-13T06:00	21204	47	-57.4	-85.6	252	6
2023-09-13T06:00	21232	47	-57.6	-85.7	254	6
2023-09-13T06:00	21262	47	-57.6	-85.7	256	6
2023-09-13T06:00	21284	47	-57.6	-85.7	259	6
2023-09-13T06:00	21311	46	-57.7	-85.4	261	6
2023-09-13T06:00	21340	46	-57.7	-85.4	263	5
2023-09-13T06:00	21369	46	-57.8	-85.9	266	5
2023-09-13T06:00	21394	46	-57.8	-85.9	270	5
2023-09-13T06:00	21418	46	-57.8	-85.5	275	4
2023-09-13T06:00	21447	45	-57.9	-85.5	283	4
2023-09-13T06:00	21471	45	-58.0	-86.0	294	3
2023-09-13T06:00	21498	45	-58.0	-86.0	307	3
2023-09-13T06:00	21523	45	-57.9		321	3
2023-09-13T06:00	21548	45	-58.0	-86.0	332	3
2023-09-13T06:00	21574	45	-57.9		341	3
2023-09-13T06:00	21603	44	-57.6	-85.7	350	2
2023-09-13T06:00	21626	44	-57.5	-86.1	360	2
2023-09-13T06:00	21654	44	-57.2	-85.8	13	1
2023-09-13T06:00	21678	44	-57.1	-85.7	31	1
2023-09-13T06:00	21704	44	-57.1	-85.7	46	1
2023-09-13T06:00	21721	43	-57.2	-85.8	53	1
2023-09-13T06:00	21745	43	-57.1	-85.7	52	1
2023-09-13T06:00	21774	43	-57.1	-85.7	44	1
2023-09-13T06:00	21797	43	-57.1	-85.3	27	1
2023-09-13T06:00	21817	43	-57.1	-85.7	0	1
2023-09-13T06:00	21839	43	-57.1	-85.7	333	1
2023-09-13T06:00	21861	43	-56.9	-85.6	318	1
2023-09-13T06:00	21884	42	-56.8	-85.5	313	1
2023-09-13T06:00	21908	42	-56.7	-85.4	313	1
2023-09-13T06:00	21926	42	-56.5	-85.3	312	2
2023-09-13T06:00	21952	42	-56.5	-85.3	310	2
2023-09-13T06:00	21971	42	-56.4	-85.2	305	2
2023-09-13T06:00	21996	42	-56.2	-85.5	299	2
2023-09-13T06:00	22015	42	-56.1	-85.5	293	2
2023-09-13T06:00	22037	41	-56.0		286	2
2023-09-13T06:00	22056	41	-55.9	-85.3	282	2
2023-09-13T06:00	22077	41	-55.8	-85.2	280	2
2023-09-13T06:00	22104	41	-55.8	-85.2	279	2
2023-09-13T06:00	22122	41	-55.8	-85.2	279	2
2023-09-13T06:00	22139	41	-55.7	-85.2	278	2
2023-09-13T06:00	22167	41	-55.8	-85.2	276	2
2023-09-13T06:00	22186	40	-55.8	-85.2	273	2
2023-09-13T06:00	22209	40	-55.7	-85.2	267	2
2023-09-13T06:00	22232	40	-55.6	-85.1	259	2
2023-09-13T06:00	22253	40	-55.6	-85.1	248	2
2023-09-13T06:00	22277	40	-55.6	-85.1	239	2
2023-09-13T06:00	22301	40	-55.6	-85.1	234	2
2023-09-13T06:00	22323	40	-55.7	-84.7	232	3
2023-09-13T06:00	22352	39	-55.8	-84.8	233	3
2023-09-13T06:00	22372	39	-55.9	-84.8	233	4
2023-09-13T06:00	22397	39	-55.8	-84.8	234	4
2023-09-13T06:00	22421	39	-55.8	-84.8	235	5
2023-09-13T06:00	22446	39	-55.8	-84.8	237	5
2023-09-13T06:00	22473	39	-55.9	-84.8	240	5
2023-09-13T06:00	22497	39	-55.9	-84.8	244	5
2023-09-13T06:00	22520	38	-56.0	-84.9	247	4
2023-09-13T06:00	22550	38	-56.1	-85.0	251	4
2023-09-13T06:00	22567	38	-56.2	-85.1	254	4
2023-09-13T06:00	22595	38	-56.3	-85.1	258	4
2023-09-13T06:00	22622	38	-56.3	-85.1	262	3
2023-09-13T06:00	22650	38	-56.4	-85.2	264	3
2023-09-13T06:00	22671	37	-56.3	-85.1	264	3
2023-09-13T06:00	22699	37	-56.1	-85.0	262	3
2023-09-13T06:00	22724	37	-56.0		258	3
2023-09-13T06:00	22750	37	-56.0		252	3
2023-09-13T06:00	22777	37	-56.0		245	2
2023-09-13T06:00	22798	37	-56.0		237	2
2023-09-13T06:00	22822	37	-56.1	-85.0	227	2
2023-09-13T06:00	22852	36	-56.2	-85.1	218	2
2023-09-13T06:00	22873	36	-56.1	-85.0	210	2
2023-09-13T06:00	22900	36	-56.1	-85.0	205	3
2023-09-13T06:00	22920	36	-56.1	-85.0	202	3
2023-09-13T06:00	22949	36	-56.1	-85.0	200	4
2023-09-13T06:00	22973	36	-56.1	-85.5	198	4
2023-09-13T06:00	23001	36	-56.0		198	4
2023-09-13T06:00	23022	35	-55.8	-85.2	200	5
2023-09-13T06:00	23042	35	-55.7	-85.2	204	5
2023-09-13T06:00	23067	35	-55.7	-85.2	209	5
2023-09-13T06:00	23090	35	-55.8	-85.2	215	5
2023-09-13T06:00	23112	35	-55.8	-85.2	219	5
2023-09-13T06:00	23132	35	-55.9	-85.3	223	5
2023-09-13T06:00	23156	35	-55.9	-85.3	228	5
2023-09-13T06:00	23181	35	-55.9	-85.3	233	5
2023-09-13T06:00	23205	34	-55.8	-85.2	241	5
2023-09-13T06:00	23222	34	-55.7	-85.2	249	5
2023-09-13T06:00	23254	34	-55.7	-85.2	257	5
2023-09-13T06:00	23269	34	-55.7	-85.2	265	6
2023-09-13T06:00	23290	34	-55.7	-85.2	271	6
2023-09-13T06:00	23317	34	-55.7	-85.2	276	5
2023-09-13T06:00	23340	34	-55.5	-85.0	282	5
2023-09-13T06:00	23363	34	-55.5	-85.0	287	5
2023-09-13T06:00	23385	33	-55.4	-84.9	292	4
2023-09-13T06:00	23406	33	-55.3	-84.9	297	4
2023-09-13T06:00	23436	33	-55.3	-84.9	303	4
2023-09-13T06:00	23456	33	-55.2	-84.8	308	3
2023-09-13T06:00	23480	33	-55.1	-84.7	315	3
2023-09-13T06:00	23509	33	-55.0	-85.1	323	2
2023-09-13T06:00	23530	33	-55.0	-85.1	335	2
2023-09-13T06:00	23552	33	-54.9	-85.1	354	1
2023-09-13T06:00	23576	32	-54.9	-84.6	40	1
2023-09-13T06:00	23608	32	-54.9	-84.6	94	1
2023-09-13T06:00	23630	32	-55.0	-84.6	116	2
2023-09-13T06:00	23661	32	-55.1	-84.7	125	2
2023-09-13T06:00	23683	32	-55.3	-84.9	130	3
2023-09-13T06:00	23710	32	-55.4	-84.9	133	4
2023-09-13T06:00	23744	32	-55.4	-84.9	136	4
2023-09-13T06:00	23766	32	-55.5	-84.5	139	4
2023-09-13T06:00	23793	31	-55.6	-84.6	142	4
2023-09-13T06:00	23825	31	-55.8	-84.8	145	5
2023-09-13T06:00	23848	31	-55.9	-84.8	148	5
2023-09-13T06:00	23875	31	-56.1	-85.0	150	5
2023-09-13T06:00	23906	31	-56.2	-85.1	153	5
2023-09-13T06:00	23934	31	-56.3	-85.1	157	5
2023-09-13T06:00	23957	31	-56.4	-85.2	161	5
2023-09-13T06:00	23996	30	-56.4	-85.2	166	6
2023-09-13T06:00	24016	30	-56.5	-85.3	172	6
2023-09-13T06:00	24046	30	-56.5	-85.3	177	6
2023-09-13T06:00	24076	30	-56.5	-85.3	183	5
2023-09-13T06:00	24110	30	-56.6	-85.4	188	5
2023-09-13T06:00	24135	30	-56.7	-85.9	194	5
2023-09-13T06:00	24162	30	-56.5	-85.8	200	5
2023-09-13T06:00	24191	30	-56.3	-85.6	205	5
2023-09-13T06:00	24225	29	-56.2	-85.5	208	5
2023-09-13T06:00	24256	29	-56.3	-85.6	211	5
2023-09-13T06:00	24280	29	-56.3	-85.6	213	5
2023-09-13T06:00	24311	29	-56.3	-85.6	215	5
2023-09-13T06:00	24347	29	-56.2	-85.5	217	5
2023-09-13T06:00	24370	29	-56.1	-85.5	220	5
2023-09-13T06:00	24395	29	-55.9	-85.3	224	5
2023-09-13T06:00	24419	28	-55.9	-85.3	228	5
2023-09-13T06:00	24446	28	-55.9	-85.3	233	5
2023-09-13T06:00	24481	28	-56.0		237	5
2023-09-13T06:00	24502	28	-56.0		240	5
2023-09-13T06:00	24531	28	-56.0		244	6
2023-09-13T06:00	24558	28	-55.9	-85.3	248	6
2023-09-13T06:00	24584	28	-55.9	-85.3	253	6
2023-09-13T06:00	24608	28	-55.9	-85.3	258	6
2023-09-13T06:00	24627	28	-55.9	-85.3	263	6
2023-09-13T06:00	24657	27	-55.8	-85.2	266	6
2023-09-13T06:00	24685	27	-55.6	-85.1	269	6
2023-09-13T06:00	24701	27	-55.5	-85.5	272	6
2023-09-13T06:00	24730	27	-55.5	-85.5	275	6
2023-09-13T06:00	24753	27	-55.5	-85.5	278	6
2023-09-13T06:00	24778	27	-55.4	-85.4	282	6
2023-09-13T06:00	24803	27	-55.3	-85.4	285	6
2023-09-13T06:00	24825	27	-55.4	-85.4	287	6
2023-09-13T06:00	24854	27	-55.3	-85.4	289	6
2023-09-13T06:00	24867	27	-55.2	-85.3	291	6
2023-09-13T06:00	24901	26	-55.2	-85.3	294	6
2023-09-13T06:00	24930	26	-55.1	-85.2	299	6
2023-09-13T06:00	24956	26	-55.2	-85.3	304	5
2023-09-13T06:00	24980	26	-55.2	-85.3	310	5
2023-09-13T06:00	25000	26	-55.1	-85.2	313	5
2023-09-13T06:00	25022	26	-55.1	-85.2	313	5
2023-09-13T06:00	25051	26	-55.1	-85.2	309	5
2023-09-13T06:00	25074	26	-55.0	-85.1	301	4
2023-09-13T06:00	25105	26	-54.9	-85.1	293	5
2023-09-13T06:00	25125	25	-54.9	-85.1	286	5
2023-09-13T06:00	25156	25	-55.0	-85.1	284	5
2023-09-13T06:00	25187	25	-55.0	-85.1	286	5
2023-09-13T06:00	25210	25	-55.0	-85.1	291	5
2023-09-13T06:00	25243	25	-55.1	-85.2	299	5
2023-09-13T06:00	25270	25	-55.0	-85.1	308	5
2023-09-13T06:00	25295	25	-55.0	-85.1	315	5
2023-09-13T06:00	25326	25	-55.0	-85.1	321	5
2023-09-13T06:00	25349	25	-55.0	-85.1	325	5
2023-09-13T06:00	25388	24	-55.0	-85.1	327	5
2023-09-13T06:00	25410	24	-54.8	-85.0	328	5
2023-09-13T06:00	25438	24	-54.7	-84.9	328	4
2023-09-13T06:00	25468	24	-54.4	-85.2	326	4
2023-09-13T06:00	25492	24	-54.2	-85.1	321	3
2023-09-13T06:00	25532	24	-54.2	-85.1	314	3
2023-09-13T06:00	25549	24	-54.1	-85.0	307	3
2023-09-13T06:00	25577	24	-53.9	-84.9	300	3
2023-09-13T06:00	25610	24	-53.9	-84.9	296	3
2023-09-13T06:00	25639	24	-53.8	-84.8	293	3
2023-09-13T06:00	25670	23	-53.6	-84.6	289	3
2023-09-13T06:00	25701	23	-53.4	-84.5	284	3
2023-09-13T06:00	25721	23	-53.1	-84.3	277	3
2023-09-13T06:00	25746	23	-53.0	-84.2	270	3
2023-09-13T06:00	25779	23	-52.9	-84.1	264	3
2023-09-13T06:00	25801	23	-52.8	-84.7	259	3
2023-09-13T06:00	25833	23	-52.6	-84.5	255	3
2023-09-13T06:00	25862	23	-52.4	-84.4	254	3
2023-09-13T06:00	25885	23	-52.1	-84.2	255	3
2023-09-13T06:00	25910	23	-52.0	-84.1	258	2
2023-09-13T06:00	25935	22	-52.0	-84.1	264	2
2023-09-13T06:00	25953	22	-51.9	-84.0	270	2
2023-09-13T06:00	25984	22	-51.9	-84.0	273	1
2023-09-13T06:00	25999	22	-51.8	-83.9	273	2
2023-09-13T06:00	26029	22	-51.5	-83.7	273	2
2023-09-13T06:00	26059	22	-51.2	-83.5	272	2
2023-09-13T06:00	26069	22	-50.9	-83.3	272	2
2023-09-13T06:00	26105	22	-50.7	-83.1	271	3
2023-09-13T06:00	26123	22	-50.6	-83.7	269	3
2023-09-13T06:00	26151	22	-50.5	-83.7	266	3
2023-09-13T06:00	26177	22	-50.4	-83.6	262	2
2023-09-13T06:00	26204	22	-50.2	-83.5	254	2
2023-09-13T06:00	26228	21	-50.0	-82.6	243	2
2023-09-13T06:00	26254	21	-50.1	-82.7	225	2
2023-09-13T06:00	26283	21	-50.2	-82.8	207	2
2023-09-13T06:00	26296	21	-50.3	-82.8	194	2
2023-09-13T06:00	26332	21	-50.4	-82.9	187	3
2023-09-13T06:00	26365	21	-50.3	-82.8	185	3
2023-09-13T06:00	26383	21	-50.2	-82.8	185	4
2023-09-13T06:00	26411	21	-50.1	-82.7	185	5
2023-09-13T06:00	26431	21	-50.1	-82.7	184	5
2023-09-13T06:00	26466	21	-50.1	-82.7	182	6
2023-09-13T06:00	26490	21	-50.1	-82.7	181	6
2023-09-13T06:00	26521	21	-50.2	-82.8	179	6
2023-09-13T06:00	26550	20	-50.3	-82.8	179	7
2023-09-13T06:00	26573	20	-50.4	-82.9	180	7
2023-09-13T06:00	26602	20	-50.5	-83.0	183	7
2023-09-13T06:00	26640	20	-50.6	-83.1	186	8
2023-09-13T06:00	26671	20	-50.7	-83.1	191	8
2023-09-13T06:00	26691	20	-50.9	-83.3	197	8
2023-09-13T06:00	26719	20	-51.0	-83.3	204	8
2023-09-13T06:00	26748	20	-51.0	-83.3	210	8
2023-09-13T06:00	26779	20	-50.7	-83.1	215	8
2023-09-13T06:00	26815	20	-50.2	-83.5	219	8
2023-09-13T06:00	26828	20	-50.0	-83.3	222	8
2023-09-13T06:00	26862	20	-49.9	-83.2	225	8
2023-09-13T06:00	26889	19	-50.1	-83.4	228	7
2023-09-13T06:00	26917	19	-50.2	-82.8	232	7
2023-09-13T06:00	26952	19	-50.2	-82.8	237	7
2023-09-13T06:00	26982	19	-50.3	-82.8	243	6
2023-09-13T06:00	27006	19	-50.4	-82.9	247	6
2023-09-13T06:00	27040	19	-50.5	-83.0	250	6
2023-09-13T06:00	27074	19	-50.5	-83.0	250	6
2023-09-13T06:00	27096	19	-50.6	-83.1	248	5
2023-09-13T06:00	27122	19	-50.7	-83.1	244	5
2023-09-13T06:00	27163	19	-50.8	-83.2	238	4
2023-09-13T06:00	27187	19	-50.7	-83.1	230	4
2023-09-13T06:00	27228	18	-50.7	-83.1	221	4
2023-09-13T06:00	27257	18	-50.8	-83.2	213	4
2023-09-13T06:00	27285	18	-50.8	-83.2	206	4
2023-09-13T06:00	27317	18	-50.7	-83.1	202	5
2023-09-13T06:00	27351	18	-50.6	-83.7	201	5
2023-09-13T06:00	27382	18	-50.4	-83.6	202	5
2023-09-13T06:00	27398	18	-50.2	-83.5	206	5
2023-09-13T06:00	27437	18	-50.1	-83.4	211	5
2023-09-13T06:00	27475	18	-50.0	-83.3	217	5
2023-09-13T06:00	27491	18	-50.0	-83.3	222	5
2023-09-13T06:00	27531	18	-50.0	-83.3	224	5
2023-09-13T06:00	27563	18	-50.0	-83.3	225	5
2023-09-13T06:00	27570	17	-49.9	-83.2	225	5
2023-09-13T06:00	27611	17	-49.9	-83.2	225	5
2023-09-13T06:00	27642	17	-50.0	-83.3	227	6
2023-09-13T06:00	27668	17	-49.9	-83.2	231	6
2023-09-13T06:00	27691	17	-49.9	-83.2	235	6
2023-09-13T06:00	27716	17	-49.9	-83.2	241	6
2023-09-13T06:00	27742	17	-49.9	-83.2	246	6
2023-09-13T06:00	27763	17	-49.8	-83.2	251	6
2023-09-13T06:00	27797	17	-49.9	-83.2	254	6
2023-09-13T06:00	27813	17	-50.0	-83.3	255	6
2023-09-13T06:00	27843	17	-50.1	-83.4	255	6
2023-09-13T06:00	27874	17	-50.0	-83.3	253	6
2023-09-13T06:00	27889	17	-49.9	-83.2	251	6
2023-09-13T06:00	27927	17	-49.7	-83.1	248	7
2023-09-13T06:00	27941	17	-49.5	-82.9	247	7
2023-09-13T06:00	27969	16	-49.3	-82.8	246	8
2023-09-13T06:00	27972	16	-49.1	-82.7	245	8
2023-09-13T06:00	28018	16	-49.1	-82.7	246	9
2023-09-13T06:00	28038	16	-49.1	-82.7	247	9
2023-09-13T06:00	28075	16	-49.1	-82.7	247	10
2023-09-13T06:00	28090	16	-48.8	-83.2	248	11
2023-09-13T06:00	28110	16	-48.6	-83.1	248	11
2023-09-13T06:00	28147	16	-48.5	-83.0	249	12
2023-09-13T06:00	28171	16	-48.5	-83.0	250	12
2023-09-13T06:00	28198	16	-48.5	-83.0	252	12
2023-09-13T06:00	28233	16	-48.3	-82.9	254	11
2023-09-13T06:00	28264	16	-48.2	-82.8	257	11
2023-09-13T06:00	28294	16	-48.3	-82.9	259	11
2023-09-13T06:00	28309	16	-48.4	-82.9	261	10
2023-09-13T06:00	28339	16	-48.3	-82.9	261	10
2023-09-13T06:00	28368	15	-48.2	-82.8	261	9
2023-09-13T06:00	28395	15	-48.1	-82.7	260	9
2023-09-13T06:00	28429	15	-48.0	-82.7	259	9
2023-09-13T06:00	28453	15	-47.8	-82.5	258	10
2023-09-13T06:00	28488	15	-47.7	-82.4	258	10
2023-09-13T06:00	28529	15	-47.5	-82.3	260	10
2023-09-13T06:00	28568	15	-47.3	-82.2	262	10
2023-09-13T06:00	28592	15	-47.1	-82.0	265	10
2023-09-13T06:00	28621	15	-46.9	-81.9	269	10
2023-09-13T06:00	28651	15	-46.9	-81.9	273	10
2023-09-13T06:00	28690	15	-46.6	-82.6	276	10
2023-09-13T06:00	28723	15	-46.3	-82.4	279	10
2023-09-13T06:00	28745	15	-46.3	-82.4	280	10
2023-09-13T06:00	28778	15	-46.3	-82.4	282	9
2023-09-13T06:00	28818	14	-46.3	-82.4	284	9
2023-09-13T06:00	28858	14	-46.2	-81.4	286	9
2023-09-13T06:00	28882	14	-46.2	-81.4	288	9
2023-09-13T06:00	28916	14	-46.2	-81.4	289	9
2023-09-13T06:00	28950	14	-46.3	-81.4	290	9
2023-09-13T06:00	28984	14	-46.2	-81.4	292	9
2023-09-13T06:00	29035	14	-46.2	-81.4	293	8
2023-09-13T06:00	29047	14	-46.2	-82.3	295	8
2023-09-13T06:00	29074	14	-46.1	-82.2	296	7
2023-09-13T06:00	29110	14	-45.9	-82.1	296	7
2023-09-13T06:00	29136	14	-45.8	-82.0	294	6
2023-09-13T06:00	29166	14	-45.8	-82.0	290	6
2023-09-13T06:00	29194	14	-45.7	-81.9	285	6
2023-09-13T06:00	29226	14	-45.5	-81.8	281	6
2023-09-13T06:00	29254	14	-45.4	-81.7	278	6
2023-09-13T06:00	29283	14	-45.3	-81.6	278	6
2023-09-13T06:00	29303	13	-45.1	-81.5	279	6
2023-09-13T06:00	29331	13	-45.1	-81.5	281	6
2023-09-13T06:00	29357	13	-45.1	-81.5	284	6
2023-09-13T06:00	29397	13	-45.1	-81.5	288	5
2023-09-13T06:00	29408	13	-45.1	-81.5	293	5
2023-09-13T06:00	29444	13	-45.1	-81.5	300	4
2023-09-13T06:00	29466	13	-45.0	-81.4	310	3
2023-09-13T06:00	29491	13	-44.9	-81.4	321	3
2023-09-13T06:00	29519	13	-44.8	-81.3	330	3
2023-09-13T06:00	29546	13	-44.9	-81.4	336	3
2023-09-13T06:00	29571	13	-45.0	-81.4	339	3
2023-09-13T06:00	29602	13	-45.1	-81.5	338	3
2023-09-13T06:00	29630	13	-45.2	-81.6	332	3
2023-09-13T06:00	29640	13	-45.2	-81.6	321	2
2023-09-13T06:00	29680	13	-45.1	-81.5	302	2
2023-09-13T06:00	29721	13	-45.0	-81.4	278	2
2023-09-13T06:00	29738	13	-45.1	-81.5	259	3
2023-09-13T06:00	29782	13	-45.2	-81.6	247	3
2023-09-13T06:00	29810	12	-45.2	-81.6	241	4
2023-09-13T06:00	29831	12	-45.2	-81.6	237	5
2023-09-13T06:00	29871	12	-45.3	-81.6	235	5
2023-09-13T06:00	29907	12	-45.3	-81.6	233	6
2023-09-13T06:00	29942	12	-45.2	-81.6	232	7
2023-09-13T06:00	29965	12	-45.3	-81.6	232	8
2023-09-13T06:00	30004	12	-45.4	-81.7	233	8
2023-09-13T06:00	30042	12	-45.4	-81.7	235	10
2023-09-13T06:00	30084	12	-45.2	-81.6	237	11
2023-09-13T06:00	30114	12	-45.0	-81.4	239	11
2023-09-13T06:00	30147	12	-44.9	-81.4	241	12
2023-09-13T06:00	30181	12	-45.0	-81.4	243	13
2023-09-13T06:00	30204	12	-45.1	-81.5	245	14
2023-09-13T06:00	30234	12	-45.0	-81.4	248	14
2023-09-13T06:00	30277	12	-45.0	-81.4	250	14
2023-09-13T06:00	30317	12	-44.9	-81.4	253	14
2023-09-13T06:00	30338	12	-44.8	-81.3	256	14
2023-09-13T06:00	30394	11	-44.7	-81.2	259	13
2023-09-13T06:00	30410	11	-44.6	-81.2	261	13
2023-09-13T06:00	30448	11	-44.6	-81.2	263	12
2023-09-13T06:00	30486	11	-44.7	-81.2	264	12
2023-09-13T06:00	30507	11	-44.7	-81.2	266	11
2023-09-13T06:00	30548	11	-44.7	-81.2	268	10
2023-09-13T06:00	30565	11	-44.8	-81.3	270	9
2023-09-13T06:00	30597	11	-44.8	-81.3	272	9
2023-09-13T06:00	30640	11	-44.8	-81.3	276	8
2023-09-13T06:00	30660	11	-44.8	-81.3	279	8
2023-09-13T06:00	30672	11	-44.7	-81.2	284	7
2023-09-13T06:00	30701	11	-44.6	-82.2	288	7
2023-09-13T06:00	30735	11	-44.3	-82.0	291	6
2023-09-13T06:00	30764	11	-43.9	-81.8	294	6
2023-09-13T06:00	30768	11	-43.8	-81.7	296	5
2023-09-13T06:00	30794	11	-43.6	-81.5	297	4
2023-09-13T06:00	30828	11	-43.3	-81.3	297	4
2023-09-13T06:00	30846	11	-43.0	-81.1	294	3
2023-09-13T06:00	30868	11	-42.7	-80.9	287	3
2023-09-13T06:00	30896	11	-42.5	-80.8	274	2
2023-09-13T06:00	30927	11	-42.3	-80.6	257	2
2023-09-13T06:00	30946	11	-42.1	-80.5	243	3
2023-09-13T06:00	30967	10	-42.1	-80.5	236	4
2023-09-13T06:00	30995	10	-41.9	-80.4	234	5
2023-09-13T06:00	31021	10	-41.8	-80.3	235	6
2023-09-13T06:00	31047	10	-41.8	-80.3	237	7
2023-09-13T06:00	31070	10	-41.7	-80.2	239	8
2023-09-13T06:00	31094	10	-41.6	-80.1	242	8
2023-09-13T06:00	31121	10	-41.4	-80.0	245	9
2023-09-13T06:00	31154	10	-41.2	-79.9	247	9
2023-09-13T06:00	31178	10	-40.9	-79.7	250	10
2023-09-13T06:00	31204	10	-40.8	-79.6	251	10
2023-09-13T06:00	31227	10	-40.7	-79.5	252	10
2023-09-13T06:00	31252	10	-40.5	-79.4	252	10
2023-09-13T06:00	31297	10	-40.5	-79.4	252	10
2023-09-13T06:00	31316	10	-40.6	-79.5	252	10
2023-09-13T06:00	31337	10	-40.7	-79.5	252	9
2023-09-13T06:00	31366	10	-40.8	-79.6	253	9
2023-09-13T06:00	31428	10	-40.9	-79.7	255	9
2023-09-13T06:00	31449	10	-41.1	-79.8	256	8
2023-09-13T06:00	31459	10	-41.2	-79.9	258	8
2023-09-13T06:00	31499	10	-41.2	-79.9	259	8
2023-09-13T06:00	31539	10	-41.4	-80.0	259	7
2023-09-13T06:00	31580	10	-41.5	-80.1	259	7
2023-09-13T06:00	31609	10	-41.6	-80.1	259	7
2023-09-13T06:00	31664	10	-41.6	-80.1	258	7
2023-09-13T06:00	31716	9	-41.3	-79.9	254	7
2023-09-13T06:00	31752	9	-41.4	-80.0	250	6
2023-09-13T06:00	31782	9	-41.5	-80.1	245	6
2023-09-13T06:00	31825	9	-41.7	-80.2	242	6
2023-09-13T06:00	31858	9	-41.9	-80.4	238	6
2023-09-13T06:00	31902	9	-42.1	-80.5	236	6
2023-09-13T06:00	31912	9	-42.3	-80.6	234	6
2023-09-13T06:00	31954	9	-42.4	-80.7	233	6
2023-09-13T06:00	31985	9	-42.5	-80.8	233	6
2023-09-13T06:00	32031	9	-42.5	-80.8	234	6
2023-09-13T06:00	32053	9	-42.5	-80.8	237	5
2023-09-13T06:00	32082	9	-42.4	-80.7	241	5
2023-09-13T06:00	32116	9	-42.5	-80.8	246	5
2023-09-13T06:00	32147	9	-42.5	-80.8	252	5
2023-09-13T06:00	32179	9	-42.6	-80.8	256	5
2023-09-13T06:00	32206	9	-42.6	-80.8	259	5
2023-09-13T06:00	32238	9	-42.7	-80.9	261	6
2023-09-13T06:00	32268	9	-42.8	-81.0	262	6
2023-09-13T06:00	32310	9	-42.9	-81.1	262	7
2023-09-13T06:00	32325	9	-43.1	-81.2	262	7
2023-09-13T06:00	32366	9	-43.2	-81.3	262	8
2023-09-13T06:00	32397	9	-43.4	-81.4	263	8
2023-09-13T06:00	32428	8	-43.5	-81.5	264	9
2023-09-13T06:00	32471	8	-43.3	-81.3	264	9
2023-09-13T06:00	32486	8	-43.2	-81.3	263	10
2023-09-13T06:00	32527	8	-43.2	-81.3	261	10
2023-09-13T06:00	32537	8	-43.1	-81.2	259	9
2023-09-13T06:00	32567	8	-42.9	-81.1	258	9
2023-09-13T06:00	32592	8	-42.8	-81.0	258	9
2023-09-13T06:00	32631	8	-42.7	-80.9	261	9
2023-09-13T06:00	32646	8	-42.6	-80.8	264	9
2023-09-13T06:00	32680	8	-42.5	-80.8	268	9
2023-09-13T06:00	32718	8	-42.4	-80.7	271	8
2023-09-13T06:00	32721	8	-42.2	-80.6	273	8
2023-09-13T06:00	32780	8	-42.1	-80.5	274	8
2023-09-13T06:00	32797	8	-41.9	-80.4	275	7
2023-09-13T06:00	32830	8	-41.6	-80.1	275	7
2023-09-13T06:00	32855	8	-41.3	-79.9	274	7
2023-09-13T06:00	32856	8	-41.1	-79.8	273	7
2023-09-13T06:00	32912	8	-41.0	-79.7	271	6
2023-09-13T06:00	32946	8	-40.9	-79.7	268	6
2023-09-13T06:00	32962	8	-40.7	-79.5	265	6
2023-09-13T06:00	32988	8	-40.6	-79.5	262	6
2023-09-13T06:00	33052	8	-40.6	-79.5	260	6
2023-09-13T06:00	33062	8	-40.6	-79.5	258	7
2023-09-13T06:00	33079	8	-40.7	-79.5	255	7
2023-09-13T06:00	33121	8	-40.6	-79.5	252	7
2023-09-13T06:00	33179	8	-40.4	-79.3	248	7
2023-09-13T06:00	33209	8	-40.4	-79.3	244	7
2023-09-13T06:00	33218	8	-40.5	-79.4	242	7
2023-09-13T06:00	33235	8	-40.5	-79.4	240	7
2023-09-13T06:00	33295	7	-40.4	-79.3	241	7
2023-09-13T06:00	33324	7	-40.3	-79.2	243	6
2023-09-13T06:00	33342	7	-40.2	-79.2	245	6
2023-09-13T06:00	33384	7	-40.1	-79.1	247	5
2023-09-13T06:00	33416	7	-40.2	-79.2	247	5
2023-09-13T06:00	33471	7	-40.1	-79.1	246	5
2023-09-13T06:00	33480	7	-39.9	-79.0	245	4
2023-09-13T06:00	33526	7	-39.7	-78.8	246	4
2023-09-13T06:00	33553	7	-39.6	-78.8	248	4
2023-09-13T06:00	33598	7	-39.4	-78.6	251	4
2023-09-13T06:00	33622	7	-39.3	-78.5	253	4
2023-09-13T06:00	33648	7	-39.1	-78.4	254	5
2023-09-13T06:00	33676	7	-39.0	-78.3	253	5
2023-09-13T06:00	33697	7	-38.9	-78.3	252	6
2023-09-13T06:00	33740	7	-38.9	-78.3	250	6
2023-09-13T06:00	33747	7	-38.8	-78.2	247	7
2023-09-13T06:00	33794	7	-38.7	-78.1	245	7
2023-09-13T06:00	33807	7	-38.6	-78.1	242	8
2023-09-13T06:00	33850	7	-38.7	-78.1	239	8
2023-09-13T06:00	33866	7	-38.7	-78.1	236	9
2023-09-13T06:00	33911	7	-38.7	-78.1	233	9
2023-09-13T06:00	33947	7	-38.7	-78.1	232	9
2023-09-13T06:00	33975	7	-38.6	-78.1	232	9
2023-09-13T06:00	34004	7	-38.6	-78.1	233	9
2023-09-13T06:00	34019	7	-38.6	-78.1	235	9
2023-09-13T06:00	34036	7	-38.7	-78.1	237	9
2023-09-13T12:00	112	999	22.7	16.7	280	5
2023-09-13T12:00	137	996	21.4	15.9	280	4
2023-09-13T12:00	161	993	20.7	15.6	279	5
2023-09-13T12:00	189	990	19.7	15.2	278	6
2023-09-13T12:00	213	988	19.4	15.0	277	7
2023-09-13T12:00	236	985	19.2	14.9	276	8
2023-09-13T12:00	260	982	19.0	15.0	275	8
2023-09-13T12:00	285	979	18.8	15.1	274	9
2023-09-13T12:00	320	976	18.6	15.0	274	9
2023-09-13T12:00	353	972	18.1	14.8	274	9
2023-09-13T12:00	384	968	17.8	14.7	274	10
2023-09-13T12:00	415	965	17.7	14.9	274	9
2023-09-13T12:00	448	961	17.3	14.8	274	9
2023-09-13T12:00	474	958	17.1	14.5	273	9
2023-09-13T12:00	501	955	16.8	14.7	272	8
2023-09-13T12:00	526	952	16.5	14.3	271	8
2023-09-13T12:00	563	948	16.4	14.4	271	7
2023-09-13T12:00	593	945	15.9	14.2	270	7
2023-09-13T12:00	626	941	15.7	14.2	270	8
2023-09-13T12:00	663	937	15.4	14.2	271	8
2023-09-13T12:00	699	933	15.1	14.1	271	8
2023-09-13T12:00	739	929	14.7	14.0	271	8
2023-09-13T12:00	782	924	14.3	13.9	269	7
2023-09-13T12:00	819	920	13.9	13.9	266	7
2023-09-13T12:00	853	916	13.7	13.7	263	7
2023-09-13T12:00	888	912	13.6	13.6	260	8
2023-09-13T12:00	926	909	13.4	13.4	259	8
2023-09-13T12:00	960	905	13.2	13.2	259	9
2023-09-13T12:00	990	902	13.0	13.0	259	9
2023-09-13T12:00	1020	898	12.8	12.8	258	10
2023-09-13T12:00	1044	896	12.5	11.8	257	10
2023-09-13T12:00	1065	894	12.3	11.9	256	10
2023-09-13T12:00	1085	891	12.3	11.9	256	11
2023-09-13T12:00	1108	889	12.2	12.0	255	11
2023-09-13T12:00	1132	887	12.0	11.8	255	11
2023-09-13T12:00	1154	884	11.9	10.5	253	12
2023-09-13T12:00	1185	881	12.2	9.1	251	12
2023-09-13T12:00	1205	879	13.8	8.8	250	12
2023-09-13T12:00	1232	876	13.6	8.9	248	13
2023-09-13T12:00	1262	873	13.6	8.5	248	13
2023-09-13T12:00	1286	870	13.2	8.5	248	13
2023-09-13T12:00	1313	868	13.1	8.2	249	13
2023-09-13T12:00	1338	865	12.9	8.3	250	13
2023-09-13T12:00	1368	862	12.7	8.4	251	13
2023-09-13T12:00	1401	859	12.4	8.0	253	13
2023-09-13T12:00	1428	856	12.5	7.8	255	13
2023-09-13T12:00	1452	853	12.4	7.8	256	13
2023-09-13T12:00	1474	851	12.2	7.6	257	13
2023-09-13T12:00	1498	849	12.0	7.5	258	13
2023-09-13T12:00	1521	846	11.9	7.3	258	13
2023-09-13T12:00	1545	844	11.7	7.2	258	13
2023-09-13T12:00	1570	841	11.8	6.5	259	13
2023-09-13T12:00	1597	839	12.1	5.7	259	13
2023-09-13T12:00	1622	836	12.0	5.4	260	14
2023-09-13T12:00	1645	834	11.9	5.6	260	14
2023-09-13T12:00	1667	832	11.6	5.5	260	14
2023-09-13T12:00	1687	830	11.4	5.4	258	13
2023-09-13T12:00	1716	827	11.3	5.5	256	13
2023-09-13T12:00	1747	824	11.0	5.2	255	12
2023-09-13T12:00	1772	821	10.9	4.9	255	12
2023-09-13T12:00	1798	819	10.7	4.6	256	12
2023-09-13T12:00	1825	816	10.7	4.1	257	11
2023-09-13T12:00	1848	814	10.3	4.1	258	11
2023-09-13T12:00	1872	812	10.2	3.9	257	11
2023-09-13T12:00	1894	810	10.0	3.8	255	12
2023-09-13T12:00	1918	807	9.9	3.9	252	12
2023-09-13T12:00	1943	805	9.7	4.5	249	12
2023-09-13T12:00	1964	803	9.5	5.0	246	12
2023-09-13T12:00	1992	800	9.3	5.5	245	12
2023-09-13T12:00	2020	797	9.0	5.6	244	12
2023-09-13T12:00	2043	795	8.8	5.8	244	12
2023-09-13T12:00	2070	793	8.6	6.4	243	12
2023-09-13T12:00	2093	790	8.5	6.3	243	12
2023-09-13T12:00	2115	788	8.3	6.2	243	12
2023-09-13T12:00	2139	786	8.2	6.1	244	12
2023-09-13T12:00	2165	783	7.9	5.9	245	12
2023-09-13T12:00	2190	781	7.7	5.8	247	12
2023-09-13T12:00	2213	779	7.5	5.8	247	12
2023-09-13T12:00	2236	777	7.4	5.8	247	12
2023-09-13T12:00	2259	775	7.4	5.4	246	12
2023-09-13T12:00	2282	772	7.2	5.4	246	11
2023-09-13T12:00	2305	770	7.4	4.6	246	11
2023-09-13T12:00	2328	768	7.4	4.4	246	11
2023-09-13T12:00	2350	766	7.2	4.2	246	11
2023-09-13T12:00	2377	764	7.0	4.2	245	12
2023-09-13T12:00	2403	761	6.7	4.0	244	12
2023-09-13T12:00	2426	759	6.6	4.0	244	12
2023-09-13T12:00	2449	757	6.5	4.3	244	12
2023-09-13T12:00	2470	755	6.2	4.4	245	12
2023-09-13T12:00	2490	753	6.1	4.2	245	12
2023-09-13T12:00	2514	751	5.9	4.2	245	12
2023-09-13T12:00	2539	749	5.8	4.1	245	13
2023-09-13T12:00	2561	747	5.7	3.9	245	13
2023-09-13T12:00	2586	744	5.6	4.0	245	14
2023-09-13T12:00	2611	742	5.5	3.8	246	14
2023-09-13T12:00	2634	740	5.3	3.8	247	14
2023-09-13T12:00	2653	738	5.2	3.4	248	14
2023-09-13T12:00	2676	736	5.2	3.0	249	14
2023-09-13T12:00	2697	734	5.2	2.7	250	14
2023-09-13T12:00	2720	732	5.1	2.7	250	14
2023-09-13T12:00	2741	730	5.0	2.7	250	14
2023-09-13T12:00	2765	728	4.9	2.6	249	14
2023-09-13T12:00	2791	726	4.7	2.4	248	13
2023-09-13T12:00	2811	724	4.5	2.4	247	13
2023-09-13T12:00	2833	722	4.4		245	13
2023-09-13T12:00	2855	720	4.3	2.1	244	14
2023-09-13T12:00	2877	718	4.1	2.0	244	14
2023-09-13T12:00	2901	716	3.9	1.9	245	14
2023-09-13T12:00	2924	714	3.7	1.9	247	15
2023-09-13T12:00	2942	713	3.6	1.7	249	15
2023-09-13T12:00	2966	711	3.6	1.2	249	15
2023-09-13T12:00	2990	708	3.5	1.4	247	15
2023-09-13T12:00	3018	706	3.4	0.7	244	15
2023-09-13T12:00	3036	704	3.3	1.0	241	15
2023-09-13T12:00	3055	703	3.1	1.0	238	16
2023-09-13T12:00	3074	701	3.1	0.5	237	16
2023-09-13T12:00	3094	699	3.1	0.0	237	17
2023-09-13T12:00	3112	698	3.1	0.1	238	17
2023-09-13T12:00	3140	696	3.1	-0.3	239	17
2023-09-13T12:00	3164	694	3.0	-0.2	240	17
2023-09-13T12:00	3184	692	2.8	-0.3	241	17
2023-09-13T12:00	3204	690	2.6	-0.4	241	17
2023-09-13T12:00	3227	688	2.5	-0.6	240	17
2023-09-13T12:00	3249	686	2.6	-0.9	240	16
2023-09-13T12:00	3271	684	2.4		239	16
2023-09-13T12:00	3290	683	2.3	-1.0	238	16
2023-09-13T12:00	3310	681	2.1	-1.1	238	15
2023-09-13T12:00	3334	679	1.9	-1.2	240	15
2023-09-13T12:00	3355	677	1.7	-1.3	242	15
2023-09-13T12:00	3377	676	1.5	-1.3	244	15
2023-09-13T12:00	3395	674	1.3	-1.4	245	15
2023-09-13T12:00	3415	672	1.2	-1.4	245	16
2023-09-13T12:00	3438	670	1.0	-1.5	244	16
2023-09-13T12:00	3462	668	0.9	-1.7	242	16
2023-09-13T12:00	3486	666	0.7	-1.8	240	17
2023-09-13T12:00	3508	664	0.6	-2.0	237	17
2023-09-13T12:00	3534	662	0.4	-2.0	233	17
2023-09-13T12:00	3555	661	0.2	-2.0	230	17
2023-09-13T12:00	3577	659	0.1	-2.3	227	17
2023-09-13T12:00	3600	657	0.0	-2.8	226	17
2023-09-13T12:00	3623	655	-0.1	-2.9	225	17
2023-09-13T12:00	3644	653	-0.3	-3.2	225	17
2023-09-13T12:00	3667	651	-0.3	-3.6	227	17
2023-09-13T12:00	3690	650	-0.4	-4.0	229	17
2023-09-13T12:00	3715	648	-0.5	-4.4	232	18
2023-09-13T12:00	3738	646	-0.7	-3.7	235	18
2023-09-13T12:00	3760	644	-0.8	-3.9	237	19
2023-09-13T12:00	3780	642	-0.8	-4.1	238	19
2023-09-13T12:00	3802	641	-0.9	-4.5	239	20
2023-09-13T12:00	3823	639	-1.0	-5.1	239	19
2023-09-13T12:00	3843	637	-1.1	-5.3	239	19
2023-09-13T12:00	3870	635	-1.2	-5.8	237	19
2023-09-13T12:00	3898	633	-1.4	-6.4	236	18
2023-09-13T12:00	3922	631	-1.5	-6.8	234	18
2023-09-13T12:00	3943	629	-1.6	-6.9	234	17
2023-09-13T12:00	3966	627	-1.7	-7.2	234	17
2023-09-13T12:00	3993	625	-1.9	-7.2	235	16
2023-09-13T12:00	4022	623	-2.1	-7.1	237	16
2023-09-13T12:00	4051	621	-2.3	-5.1	239	15
2023-09-13T12:00	4077	619	-2.4	-5.5	241	15
2023-09-13T12:00	4102	617	-2.5	-6.4	244	15
2023-09-13T12:00	4125	615	-2.7	-6.4	246	15
2023-09-13T12:00	4146	613	-2.8	-6.5	248	16
2023-09-13T12:00	4170	612	-3.0	-6.6	248	16
2023-09-13T12:00	4200	609	-3.2	-6.6	249	16
2023-09-13T12:00	4222	608	-3.5	-6.6	248	16
2023-09-13T12:00	4243	606	-3.7	-6.8	247	16
2023-09-13T12:00	4262	604	-3.9	-6.8	246	16
2023-09-13T12:00	4288	603	-4.0	-6.7	245	16
2023-09-13T12:00	4311	601	-4.3	-6.6	244	16
2023-09-13T12:00	4336	599	-4.5	-6.9	243	16
2023-09-13T12:00	4360	597	-4.7	-7.1	241	16
2023-09-13T12:00	4382	595	-4.9	-7.1	240	16
2023-09-13T12:00	4400	594	-5.1	-7.4	240	16
2023-09-13T12:00	4425	592	-5.1	-7.4	241	16
2023-09-13T12:00	4447	591	-5.2	-7.3	242	16
2023-09-13T12:00	4469	589	-5.3		244	16
2023-09-13T12:00	4490	587	-5.5	-7.6	244	17
2023-09-13T12:00	4509	586	-5.7	-7.8	244	17
2023-09-13T12:00	4534	584	-5.8	-7.7	242	17
2023-09-13T12:00	4562	582	-6.2	-7.9	241	17
2023-09-13T12:00	4586	580	-6.4	-7.9	239	17
2023-09-13T12:00	4606	579	-6.6	-8.0	239	17
2023-09-13T12:00	4625	577	-6.8	-8.1	240	17
2023-09-13T12:00	4643	576	-6.9	-8.1	241	17
2023-09-13T12:00	4662	574	-7.1	-7.9	241	16
2023-09-13T12:00	4685	573	-7.3	-8.0	242	16
2023-09-13T12:00	4708	571	-7.2	-8.3	241	15
2023-09-13T12:00	4737	569	-7.4	-8.4	241	16
2023-09-13T12:00	4768	567	-7.7	-8.6	240	16
2023-09-13T12:00	4787	565	-7.9	-8.7	240	16
2023-09-13T12:00	4811	564	-8.1	-9.0	240	17
2023-09-13T12:00	4835	562	-8.1	-9.4	239	17
2023-09-13T12:00	4857	560	-8.3	-9.5	237	17
2023-09-13T12:00	4875	559	-8.3	-10.0	237	18
2023-09-13T12:00	4898	557	-8.4	-10.3	237	18
2023-09-13T12:00	4919	556	-8.6	-10.5	238	19
2023-09-13T12:00	4939	554	-8.7	-10.7	239	19
2023-09-13T12:00	4963	553	-8.8	-10.7	240	19
2023-09-13T12:00	4988	551	-8.9	-10.8	240	19
2023-09-13T12:00	5014	549	-9.0	-11.0	239	18
2023-09-13T12:00	5042	547	-9.1	-11.2	238	18
2023-09-13T12:00	5065	545	-9.2	-11.4	237	18
2023-09-13T12:00	5090	544	-9.3	-11.5	238	18
2023-09-13T12:00	5106	542	-9.5	-11.6	240	18
2023-09-13T12:00	5130	541	-9.6	-11.7	242	18
2023-09-13T12:00	5148	540	-9.8	-11.9	245	18
2023-09-13T12:00	5174	538	-9.8	-12.1	247	18
2023-09-13T12:00	5195	536	-9.9	-12.3	248	19
2023-09-13T12:00	5220	535	-9.9	-12.7	249	20
2023-09-13T12:00	5239	533	-9.8	-12.9	249	20
2023-09-13T12:00	5259	532	-9.9	-13.1	249	21
2023-09-13T12:00	5281	531	-10.1	-13.1	249	22
2023-09-13T12:00	5302	529	-10.3	-13.3	249	22
2023-09-13T12:00	5327	527	-10.4	-13.4	249	22
2023-09-13T12:00	5345	526	-10.6	-13.4	249	22
2023-09-13T12:00	5367	525	-10.7	-13.6	249	22
2023-09-13T12:00	5386	523	-10.8	-13.7	248	21
2023-09-13T12:00	5410	521	-10.9	-13.9	247	20
2023-09-13T12:00	5445	519	-11.2	-14.1	245	20
2023-09-13T12:00	5469	518	-11.4	-14.3	243	20
2023-09-13T12:00	5488	516	-11.6	-14.5	242	19
2023-09-13T12:00	5509	515	-11.6	-14.5	242	19
2023-09-13T12:00	5531	513	-11.7	-14.5	243	19
2023-09-13T12:00	5556	512	-11.8	-14.8	245	19
2023-09-13T12:00	5579	510	-12.0	-14.9	246	19
2023-09-13T12:00	5604	509	-12.0	-15.4	248	19
2023-09-13T12:00	5627	507	-12.1	-15.6	248	20
2023-09-13T12:00	5642	506	-12.2	-15.7	247	20
2023-09-13T12:00	5666	504	-12.3	-16.0	246	21
2023-09-13T12:00	5695	503	-12.4	-16.1	245	21
2023-09-13T12:00	5718	501	-12.6	-16.5	244	21
2023-09-13T12:00	5744	499	-12.7	-17.0	243	21
2023-09-13T12:00	5778	497	-12.6	-18.4	241	21
2023-09-13T12:00	5804	496	-12.5	-19.9	240	21
2023-09-13T12:00	5824	494	-12.7	-20.6	239	21
2023-09-13T12:00	5855	492	-12.7	-21.0	238	21
2023-09-13T12:00	5882	491	-13.0	-21.7	236	21
2023-09-13T12:00	5904	489	-13.2	-22.1	235	20
2023-09-13T12:00	5927	488	-13.5	-22.0	234	20
2023-09-13T12:00	5951	486	-13.6	-22.3	234	19
2023-09-13T12:00	5978	484	-13.9	-22.5	236	19
2023-09-13T12:00	6001	483	-14.1	-22.6	239	18
2023-09-13T12:00	6028	481	-14.4	-22.8	242	18
2023-09-13T12:00	6055	480	-14.6	-22.7	245	18
2023-09-13T12:00	6075	478	-14.8	-22.8	247	18
2023-09-13T12:00	6104	476	-15.0	-23.1	247	18
2023-09-13T12:00	6125	475	-15.1	-22.1	246	17
2023-09-13T12:00	6152	473	-15.3	-21.2	244	17
2023-09-13T12:00	6183	471	-15.5	-20.7	243	16
2023-09-13T12:00	6206	470	-15.7	-20.7	243	16
2023-09-13T12:00	6237	468	-15.8	-21.1	242	17
2023-09-13T12:00	6264	466	-16.0	-21.1	242	17
2023-09-13T12:00	6283	465	-16.2	-21.9	242	17
2023-09-13T12:00	6304	464	-16.2	-22.0	242	17
2023-09-13T12:00	6336	462	-16.4	-21.9	243	17
2023-09-13T12:00	6356	460	-16.7	-22.1	244	17
2023-09-13T12:00	6388	459	-16.9	-22.8	244	17
2023-09-13T12:00	6407	458	-17.0	-23.0	244	17
2023-09-13T12:00	6428	456	-17.2	-23.1	243	17
2023-09-13T12:00	6453	455	-17.2	-23.4	242	17
2023-09-13T12:00	6482	453	-17.5	-23.6	240	17
2023-09-13T12:00	6502	452	-17.7	-24.0	238	17
2023-09-13T12:00	6520	451	-17.8	-24.3	238	17
2023-09-13T12:00	6544	449	-17.9	-24.3	239	17
2023-09-13T12:00	6570	448	-18.2	-24.6	241	17
2023-09-13T12:00	6600	446	-18.4	-24.6	243	17
2023-09-13T12:00	6620	445	-18.8	-24.7	245	17
2023-09-13T12:00	6640	443	-18.9	-24.9	247	17
2023-09-13T12:00	6660	442	-19.1	-25.0	247	17
2023-09-13T12:00	6681	441	-19.2	-25.2	246	16
2023-09-13T12:00	6703	440	-19.3	-26.2	246	16
2023-09-13T12:00	6724	438	-19.5	-26.4	245	16
2023-09-13T12:00	6750	437	-19.7	-26.5	244	16
2023-09-13T12:00	6773	436	-19.9	-26.6	244	16
2023-09-13T12:00	6796	434	-20.1	-26.8	242	16
2023-09-13T12:00	6823	433	-20.3	-26.8	241	17
2023-09-13T12:00	6843	431	-20.6	-26.9	240	18
2023-09-13T12:00	6870	430	-20.7	-27.2	241	18
2023-09-13T12:00	6896	428	-21.1	-27.2	243	19
2023-09-13T12:00	6920	427	-21.3	-27.4	245	19
2023-09-13T12:00	6946	426	-21.5	-27.2	248	18
2023-09-13T12:00	6969	424	-21.8	-27.4	250	18
2023-09-13T12:00	6991	423	-21.9	-27.4	251	18
2023-09-13T12:00	7019	421	-22.1	-28.0	251	18
2023-09-13T12:00	7046	420	-22.3	-28.8	249	18
2023-09-13T12:00	7065	419	-22.4	-29.1	248	18
2023-09-13T12:00	7088	417	-22.6	-29.4	248	19
2023-09-13T12:00	7111	416	-22.8	-29.6	248	19
2023-09-13T12:00	7140	414	-22.9	-30.0	248	19
2023-09-13T12:00	7167	413	-23.3	-30.6	248	19
2023-09-13T12:00	7198	411	-23.5	-31.6	248	18
2023-09-13T12:00	7221	410	-23.7	-31.7	247	18
2023-09-13T12:00	7246	409	-23.7	-32.0	246	18
2023-09-13T12:00	7270	407	-23.8	-33.9	245	18
2023-09-13T12:00	7292	406	-24.0	-35.4	245	19
2023-09-13T12:00	7318	405	-24.1	-37.5	245	20
2023-09-13T12:00	7335	403	-24.1	-37.4	246	20
2023-09-13T12:00	7357	402	-24.2	-37.8	247	20
2023-09-13T12:00	7381	401	-24.4	-37.9	247	20
2023-09-13T12:00	7404	400	-24.6	-38.0	247	20
2023-09-13T12:00	7432	398	-24.7	-37.9	245	20
2023-09-13T12:00	7455	397	-25.0	-38.2	244	20
2023-09-13T12:00	7480	396	-25.0	-39.1	243	21
2023-09-13T12:00	7506	394	-25.2	-39.4	243	21
2023-09-13T12:00	7525	393	-25.4	-38.8	243	21
2023-09-13T12:00	7546	392	-25.5	-38.5	243	21
2023-09-13T12:00	7568	391	-25.5	-38.7	243	21
2023-09-13T12:00	7593	389	-25.6	-39.4	243	21
2023-09-13T12:00	7621	388	-25.8	-40.0	243	21
2023-09-13T12:00	7651	386	-26.0	-40.5	243	20
2023-09-13T12:00	7672	385	-26.2	-40.8	244	20
2023-09-13T12:00	7694	384	-26.3	-41.0	244	20
2023-09-13T12:00	7716	383	-26.4		244	19
2023-09-13T12:00	7735	382	-26.6	-41.7	243	19
2023-09-13T12:00	7755	381	-26.7	-42.0	242	19
2023-09-13T12:00	7779	380	-26.8	-42.5	241	19
2023-09-13T12:00	7804	378	-27.0	-43.1	240	19
2023-09-13T12:00	7825	377	-27.1	-43.3	241	19
2023-09-13T12:00	7844	376	-27.2	-44.3	241	19
2023-09-13T12:00	7867	375	-27.3	-45.2	242	19
2023-09-13T12:00	7891	374	-27.4	-46.5	241	19
2023-09-13T12:00	7913	373	-27.6	-46.6	240	19
2023-09-13T12:00	7936	371	-27.7	-46.7	238	19
2023-09-13T12:00	7962	370	-28.0	-47.1	237	19
2023-09-13T12:00	7986	369	-28.2	-47.5	237	19
2023-09-13T12:00	8005	368	-28.4	-47.9	238	19
2023-09-13T12:00	8030	367	-28.6	-48.0	240	19
2023-09-13T12:00	8049	366	-28.8	-47.9	242	18
2023-09-13T12:00	8076	364	-29.0	-47.7	243	18
2023-09-13T12:00	8095	363	-29.2	-47.6	243	18
2023-09-13T12:00	8114	362	-29.4	-47.8	242	18
2023-09-13T12:00	8139	361	-29.6	-47.7	240	19
2023-09-13T12:00	8161	360	-29.9	-47.6	239	20
2023-09-13T12:00	8181	359	-30.1	-46.7	238	20
2023-09-13T12:00	8198	358	-30.2	-45.5	238	21
2023-09-13T12:00	8231	356	-30.4	-44.0	239	21
2023-09-13T12:00	8257	355	-30.7	-44.6	240	21
2023-09-13T12:00	8274	354	-30.9	-43.3	241	20
2023-09-13T12:00	8294	353	-31.1	-43.8	242	20
2023-09-13T12:00	8317	352	-31.2	-43.5	242	20
2023-09-13T12:00	8347	351	-31.5	-43.6	242	19
2023-09-13T12:00	8369	350	-31.8	-43.8	241	20
2023-09-13T12:00	8390	348	-32.0	-43.3	241	20
2023-09-13T12:00	8419	347	-32.3	-43.1	241	20
2023-09-13T12:00	8435	346	-32.5	-43.4	241	21
2023-09-13T12:00	8459	345	-32.6	-43.1	241	20
2023-09-13T12:00	8480	344	-32.8	-42.9	241	20
2023-09-13T12:00	8507	343	-33.1	-43.0	241	19
2023-09-13T12:00	8531	342	-33.4	-42.8	241	19
2023-09-13T12:00	8557	340	-33.6	-42.1	242	18
2023-09-13T12:00	8586	339	-33.9	-42.1	243	19
2023-09-13T12:00	8604	338	-34.1	-42.0	243	19
2023-09-13T12:00	8622	337	-34.1	-41.8	244	20
2023-09-13T12:00	8642	336	-34.4	-41.7	245	20
2023-09-13T12:00	8660	335	-34.5	-41.3	245	21
2023-09-13T12:00	8678	334	-34.5	-40.7	245	21
2023-09-13T12:00	8699	333	-34.5	-40.9	245	20
2023-09-13T12:00	8731	332	-34.6	-42.6	245	20
2023-09-13T12:00	8753	331	-34.9	-44.0	246	20
2023-09-13T12:00	8774	330	-34.7	-46.7	246	19
2023-09-13T12:00	8798	329	-34.8	-47.0	247	20
2023-09-13T12:00	8827	327	-35.1	-47.3	247	20
2023-09-13T12:00	8852	326	-35.3	-47.1	247	21
2023-09-13T12:00	8883	325	-35.6	-47.3	247	21
2023-09-13T12:00	8900	324	-35.8	-47.4	246	21
2023-09-13T12:00	8931	323	-36.0	-47.5	246	22
2023-09-13T12:00	8952	322	-36.3	-47.3	245	21
2023-09-13T12:00	8977	320	-36.6	-47.6	245	22
2023-09-13T12:00	9005	319	-36.8	-47.5	246	22
2023-09-13T12:00	9027	318	-37.0	-47.6	246	22
2023-09-13T12:00	9047	317	-37.2	-47.5	247	22
2023-09-13T12:00	9070	316	-37.4	-47.4	247	22
2023-09-13T12:00	9096	315	-37.8	-47.6	247	22
2023-09-13T12:00	9119	314	-37.9	-47.9	247	22
2023-09-13T12:00	9141	313	-38.1	-47.6	247	22
2023-09-13T12:00	9159	312	-38.3	-47.6	246	22
2023-09-13T12:00	9180	311	-38.5	-47.6	246	21
2023-09-13T12:00	9203	310	-38.7	-47.7	245	21
2023-09-13T12:00	9229	309	-39.1	-47.6	245	21
2023-09-13T12:00	9248	308	-39.2	-47.9	245	20
2023-09-13T12:00	9269	307	-39.4	-48.0	244	20
2023-09-13T12:00	9288	306	-39.6	-48.1	245	21
2023-09-13T12:00	9309	305	-39.6	-48.9	245	21
2023-09-13T12:00	9331	304	-39.8	-48.9	246	21
2023-09-13T12:00	9355	303	-40.0	-48.8	246	21
2023-09-13T12:00	9376	302	-40.3	-48.9	247	21
2023-09-13T12:00	9398	301	-40.4	-49.4	247	21
2023-09-13T12:00	9420	300	-40.7	-49.7	247	21
2023-09-13T12:00	9439	300	-40.8	-49.9	247	21
2023-09-13T12:00	9463	298	-41.0		247	21
2023-09-13T12:00	9494	297	-41.2	-50.7	247	21
2023-09-13T12:00	9526	296	-41.6	-50.9	247	21
2023-09-13T12:00	9556	295	-41.9	-51.4	247	20
2023-09-13T12:00	9584	293	-42.1		247	19
2023-09-13T12:00	9616	292	-42.4	-51.6	247	19
2023-09-13T12:00	9639	291	-42.8	-51.0	248	18
2023-09-13T12:00	9666	290	-43.0	-51.0	247	18
2023-09-13T12:00	9685	289	-43.2	-51.0	247	18
2023-09-13T12:00	9717	288	-43.3	-50.6	245	19
2023-09-13T12:00	9740	287	-43.7	-50.6	244	19
2023-09-13T12:00	9764	286	-43.8	-50.4	242	19
2023-09-13T12:00	9786	285	-44.0	-50.5	242	19
2023-09-13T12:00	9807	284	-44.2	-50.4	242	19
2023-09-13T12:00	9832	283	-44.4	-50.3	242	20
2023-09-13T12:00	9855	282	-44.7	-50.4	242	20
2023-09-13T12:00	9874	281	-44.8	-49.2	243	20
2023-09-13T12:00	9896	280	-45.0		243	20
2023-09-13T12:00	9917	279	-45.3	-50.2	243	20
2023-09-13T12:00	9937	278	-45.4	-51.5	242	20
2023-09-13T12:00	9959	277	-45.6	-53.9	242	20
2023-09-13T12:00	9983	276	-45.7	-54.7	241	20
2023-09-13T12:00	10003	275	-46.0	-54.5	240	20
2023-09-13T12:00	10026	275	-46.2	-54.0	240	20
2023-09-13T12:00	10048	274	-46.3	-53.1	241	20
2023-09-13T12:00	10070	273	-46.5	-53.1	241	20
2023-09-13T12:00	10093	272	-46.8	-53.4	241	20
2023-09-13T12:00	10113	271	-47.0	-53.6	241	20
2023-09-13T12:00	10137	270	-47.1	-53.8	240	20
2023-09-13T12:00	10160	269	-47.3	-54.4	240	20
2023-09-13T12:00	10184	268	-47.6	-55.0	239	20
2023-09-13T12:00	10207	267	-47.8	-55.3	238	20
2023-09-13T12:00	10231	266	-48.0	-56.0	237	19
2023-09-13T12:00	10257	265	-48.2		235	19
2023-09-13T12:00	10280	264	-48.4	-56.6	234	20
2023-09-13T12:00	10315	263	-48.7	-55.9	232	20
2023-09-13T12:00	10338	262	-49.0	-55.5	232	20
2023-09-13T12:00	10362	261	-49.1	-55.0	231	21
2023-09-13T12:00	10383	260	-49.2	-55.2	232	21
2023-09-13T12:00	10403	259	-49.2	-55.5	232	21
2023-09-13T12:00	10423	258	-49.4	-55.9	232	21
2023-09-13T12:00	10443	258	-49.6	-55.9	233	21
2023-09-13T12:00	10464	257	-49.7	-56.0	233	21
2023-09-13T12:00	10487	256	-49.9	-56.3	233	21
2023-09-13T12:00	10509	255	-50.1	-56.3	232	21
2023-09-13T12:00	10530	254	-50.3	-56.3	232	21
2023-09-13T12:00	10553	253	-50.6	-56.7	232	21
2023-09-13T12:00	10577	252	-50.8	-57.7	231	21
2023-09-13T12:00	10597	252	-50.9	-58.3	231	21
2023-09-13T12:00	10619	251	-51.0	-58.0	232	21
2023-09-13T12:00	10641	250	-51.2	-58.1	232	20
2023-09-13T12:00	10662	249	-51.3	-58.2	232	20
2023-09-13T12:00	10683	248	-51.6	-58.4	232	20
2023-09-13T12:00	10704	248	-51.7	-58.1	232	20
2023-09-13T12:00	10726	247	-51.9	-58.2	232	20
2023-09-13T12:00	10746	246	-52.1	-58.3	232	20
2023-09-13T12:00	10767	245	-52.2	-58.2	232	19
2023-09-13T12:00	10792	244	-52.4	-58.4	233	19
2023-09-13T12:00	10818	243	-52.3	-58.8	233	19
2023-09-13T12:00	10840	242	-52.4	-59.4	233	19
2023-09-13T12:00	10861	242	-52.6	-59.9	234	19
2023-09-13T12:00	10883	241	-52.5	-60.1	234	20
2023-09-13T12:00	10905	240	-52.7	-60.4	233	20
2023-09-13T12:00	10933	239	-52.9	-60.2	233	20
2023-09-13T12:00	10955	238	-53.0	-60.0	233	21
2023-09-13T12:00	10977	237	-53.2	-59.9	234	21
2023-09-13T12:00	10999	237	-53.4	-59.9	234	21
2023-09-13T12:00	11021	236	-53.5	-59.8	235	21
2023-09-13T12:00	11041	235	-53.9	-59.9	235	21
2023-09-13T12:00	11061	234	-53.9	-59.8	236	22
2023-09-13T12:00	11082	234	-54.1	-60.0	236	22
2023-09-13T12:00	11102	233	-54.3	-60.1	236	22
2023-09-13T12:00	11123	232	-54.5	-60.2	237	22
2023-09-13T12:00	11143	231	-54.7	-60.2	237	22
2023-09-13T12:00	11165	230	-54.9	-60.2	237	22
2023-09-13T12:00	11187	230	-55.1	-60.3	237	23
2023-09-13T12:00	11209	229	-55.3	-60.5	237	23
2023-09-13T12:00	11232	228	-55.3	-60.5	237	23
2023-09-13T12:00	11252	227	-55.6	-60.6	237	23
2023-09-13T12:00	11276	226	-55.7	-60.5	236	23
2023-09-13T12:00	11300	226	-55.9	-60.6	235	23
2023-09-13T12:00	11321	225	-56.0	-60.7	234	23
2023-09-13T12:00	11344	224	-56.3	-61.2	233	23
2023-09-13T12:00	11365	223	-56.3	-61.3	233	22
2023-09-13T12:00	11388	223	-56.3	-61.5	232	22
2023-09-13T12:00	11409	222	-56.5	-61.7	232	22
2023-09-13T12:00	11432	221	-56.4	-61.5	232	22
2023-09-13T12:00	11455	220	-56.5	-61.6	231	22
2023-09-13T12:00	11475	219	-56.6	-61.7	231	22
2023-09-13T12:00	11499	219	-56.9	-61.9	231	22
2023-09-13T12:00	11521	218	-57.1	-62.0	230	23
2023-09-13T12:00	11544	217	-57.1	-61.8	229	23
2023-09-13T12:00	11576	216	-57.5	-61.8	228	23
2023-09-13T12:00	11601	215	-57.9	-61.8	228	23
2023-09-13T12:00	11628	214	-58.0	-61.7	227	23
2023-09-13T12:00	11653	213	-58.1	-61.7	227	23
2023-09-13T12:00	11674	213	-58.4	-61.9	228	23
2023-09-13T12:00	11696	212	-58.6	-61.9	229	23
2023-09-13T12:00	11718	211	-58.7	-61.7	230	23
2023-09-13T12:00	11741	210	-58.8	-61.7	231	23
2023-09-13T12:00	11765	210	-59.0	-62.0	232	24
2023-09-13T12:00	11786	209	-58.9	-61.9	233	24
2023-09-13T12:00	11812	208	-59.0	-62.1	235	24
2023-09-13T12:00	11840	207	-59.1	-62.4	236	23
2023-09-13T12:00	11863	206	-59.2	-63.0	238	23
2023-09-13T12:00	11887	206	-58.9	-63.5	240	23
2023-09-13T12:00	11911	205	-58.9	-64.5	241	22
2023-09-13T12:00	11937	204	-58.8	-65.7	241	22
2023-09-13T12:00	11960	203	-58.6	-66.7	241	22
2023-09-13T12:00	11984	202	-58.5	-67.4	240	22
2023-09-13T12:00	12007	202	-58.6	-67.6	240	22
2023-09-13T12:00	12032	201	-58.7	-67.4	240	22
2023-09-13T12:00	12056	200	-58.9	-67.8	241	22
2023-09-13T12:00	12081	199	-59.1	-68.4	241	23
2023-09-13T12:00	12109	198	-59.1	-69.1	242	23
2023-09-13T12:00	12132	198	-58.9	-69.7	242	23
2023-09-13T12:00	12155	197	-58.9	-70.3	241	22
2023-09-13T12:00	12178	196	-59.0	-70.6	240	22
2023-09-13T12:00	12199	196	-58.9	-70.6	239	21
2023-09-13T12:00	12220	195	-58.9	-71.1	238	21
2023-09-13T12:00	12240	194	-58.5	-71.5	238	21
2023-09-13T12:00	12260	194	-58.2	-72.0	238	22
2023-09-13T12:00	12283	193	-57.6	-72.1	239	22
2023-09-13T12:00	12301	192	-57.9	-72.9	241	22
2023-09-13T12:00	12323	192	-57.7	-73.1	242	22
2023-09-13T12:00	12343	191	-57.4	-73.4	244	22
2023-09-13T12:00	12366	190	-57.0	-73.7	245	22
2023-09-13T12:00	12401	190	-57.1	-74.6	247	21
2023-09-13T12:00	12420	189	-57.1	-75.1	250	21
2023-09-13T12:00	12443	188	-56.7	-75.5	252	20
2023-09-13T12:00	12463	188	-56.5	-76.0	254	20
2023-09-13T12:00	12482	187	-56.6	-76.3	257	20
2023-09-13T12:00	12504	186	-56.6	-76.4	259	20
2023-09-13T12:00	12525	186	-56.8	-76.7	261	20
2023-09-13T12:00	12545	185	-56.3	-76.8	264	20
2023-09-13T12:00	12566	185	-56.0	-77.2	266	20
2023-09-13T12:00	12585	184	-55.8	-77.6	268	20
2023-09-13T12:00	12607	183	-55.7	-78.0	269	20
2023-09-13T12:00	12627	183	-55.5	-77.9	270	19
2023-09-13T12:00	12649	182	-55.2	-77.9	269	18
2023-09-13T12:00	12676	181	-55.3	-78.1	268	18
2023-09-13T12:00	12703	181	-55.3	-77.9	265	17
2023-09-13T12:00	12727	180	-55.4	-78.0	262	16
2023-09-13T12:00	12760	179	-55.5	-77.9	260	16
2023-09-13T12:00	12780	179	-55.5	-77.9	259	16
2023-09-13T12:00	12795	178	-55.7	-78.1	257	16
2023-09-13T12:00	12816	177	-55.8	-78.2	256	17
2023-09-13T12:00	12835	177	-55.8	-78.2	255	17
2023-09-13T12:00	12857	176	-55.9	-78.3	255	17
2023-09-13T12:00	12875	176	-55.9	-78.4	254	17
2023-09-13T12:00	12896	175	-55.7	-78.4	254	17
2023-09-13T12:00	12918	175	-55.3	-78.3	255	17
2023-09-13T12:00	12941	174	-55.4	-78.5	256	17
2023-09-13T12:00	12962	173	-55.5	-78.6	257	17
2023-09-13T12:00	12985	173	-55.0	-78.4	257	17
2023-09-13T12:00	13007	172	-55.0	-78.6	258	17
2023-09-13T12:00	13030	172	-54.9	-78.7	258	18
2023-09-13T12:00	13053	171	-54.5	-78.6	258	18
2023-09-13T12:00	13077	170	-54.5	-78.8	258	18
2023-09-13T12:00	13094	170	-54.4	-78.9	258	18
2023-09-13T12:00	13117	169	-54.4	-78.9	258	18
2023-09-13T12:00	13139	169	-54.2	-79.0	257	17
2023-09-13T12:00	13159	168	-54.0	-79.0	256	17
2023-09-13T12:00	13185	168	-53.6	-78.9	256	16
2023-09-13T12:00	13209	167	-53.5	-79.1	257	15
2023-09-13T12:00	13231	166	-53.3	-78.9	259	15
2023-09-13T12:00	13253	166	-53.1	-79.0	260	15
2023-09-13T12:00	13275	165	-53.1	-79.0	262	15
2023-09-13T12:00	13296	165	-53.1	-79.0	262	14
2023-09-13T12:00	13316	164	-53.1	-79.0	262	14
2023-09-13T12:00	13343	163	-53.2	-79.1	262	14
2023-09-13T12:00	13366	163	-53.5	-79.4	262	13
2023-09-13T12:00	13389	162	-53.7	-79.5	262	13
2023-09-13T12:00	13410	162	-53.7	-79.5	263	12
2023-09-13T12:00	13430	161	-53.7	-79.5	264	12
2023-09-13T12:00	13455	161	-53.7	-79.5	265	12
2023-09-13T12:00	13478	160	-53.8	-79.6	266	11
2023-09-13T12:00	13502	159	-53.8	-79.6	267	11
2023-09-13T12:00	13525	159	-54.0	-79.7	268	10
2023-09-13T12:00	13547	158	-54.2	-79.7	268	10
2023-09-13T12:00	13570	158	-54.4	-79.8	269	10
2023-09-13T12:00	13591	157	-54.6	-80.0	269	10
2023-09-13T12:00	13612	157	-54.6	-80.0	268	10
2023-09-13T12:00	13634	156	-54.5	-79.6	268	10
2023-09-13T12:00	13655	156	-54.5	-79.9	268	10
2023-09-13T12:00	13678	155	-54.4	-79.8	268	10
2023-09-13T12:00	13701	155	-54.4	-79.8	268	10
2023-09-13T12:00	13721	154	-54.5	-79.9	267	10
2023-09-13T12:00	13744	154	-54.7	-80.0	265	10
2023-09-13T12:00	13764	153	-54.6	-80.0	262	11
2023-09-13T12:00	13789	152	-54.7	-80.3	259	11
2023-09-13T12:00	13809	152	-54.7	-80.3	256	11
2023-09-13T12:00	13830	152	-54.6	-80.2	254	11
2023-09-13T12:00	13849	151	-54.6	-80.5	253	12
2023-09-13T12:00	13869	151	-54.5	-80.4	252	12
2023-09-13T12:00	13891	150	-54.3	-80.2	252	12
2023-09-13T12:00	13913	150	-54.4	-80.3	252	12
2023-09-13T12:00	13933	149	-54.4	-80.3	253	12
2023-09-13T12:00	13954	149	-54.5	-80.4	254	12
2023-09-13T12:00	13975	148	-54.4	-80.6	255	12
2023-09-13T12:00	13994	148	-54.3	-80.5	256	12
2023-09-13T12:00	14013	147	-54.2	-80.4	257	13
2023-09-13T12:00	14033	147	-54.1	-80.4	257	13
2023-09-13T12:00	14052	146	-54.1	-80.6	258	13
2023-09-13T12:00	14073	146	-54.0	-80.6	259	13
2023-09-13T12:00	14094	145	-53.8	-80.4	260	12
2023-09-13T12:00	14117	145	-53.8	-80.4	262	12
2023-09-13T12:00	14136	144	-53.9	-80.5	263	12
2023-09-13T12:00	14157	144	-54.0	-80.6	264	12
2023-09-13T12:00	14179	143	-54.1	-80.6	265	12
2023-09-13T12:00	14200	143	-54.2	-80.7	265	12
2023-09-13T12:00	14224	142	-54.2	-80.7	264	12
2023-09-13T12:00	14247	142	-54.5	-80.7	264	12
2023-09-13T12:00	14273	141	-54.6	-81.0	263	12
2023-09-13T12:00	14297	141	-54.7	-81.1	262	12
2023-09-13T12:00	14319	140	-54.5	-80.9	261	12
2023-09-13T12:00	14341	140	-54.5	-80.7	261	11
2023-09-13T12:00	14366	139	-54.7	-80.8	260	11
2023-09-13T12:00	14390	139	-54.8	-80.9	259	11
2023-09-13T12:00	14411	138	-55.0	-81.1	258	11
2023-09-13T12:00	14435	138	-55.2	-81.2	257	11
2023-09-13T12:00	14458	137	-55.4	-81.4	256	11
2023-09-13T12:00	14478	137	-55.4	-81.4	255	11
2023-09-13T12:00	14503	136	-55.4	-81.4	254	11
2023-09-13T12:00	14524	136	-55.4	-81.4	252	11
2023-09-13T12:00	14547	135	-55.3	-81.3	251	11
2023-09-13T12:00	14569	135	-55.3	-81.3	251	10
2023-09-13T12:00	14589	135	-55.3	-81.3	251	10
2023-09-13T12:00	14611	134	-55.4	-81.4	252	10
2023-09-13T12:00	14636	134	-55.4	-81.4	254	10
2023-09-13T12:00	14657	133	-55.4	-81.4	255	10
2023-09-13T12:00	14680	133	-55.4	-81.4	256	10
2023-09-13T12:00	14698	132	-55.4	-81.4	257	10
2023-09-13T12:00	14724	132	-55.4	-81.6	258	10
2023-09-13T12:00	14749	131	-55.4	-81.6	257	10
2023-09-13T12:00	14769	131	-55.6	-81.8	256	11
2023-09-13T12:00	14789	130	-55.4	-81.6	255	11
2023-09-13T12:00	14814	130	-55.5	-81.7	254	12
2023-09-13T12:00	14833	129	-55.4	-81.6	253	12
2023-09-13T12:00	14858	129	-55.6	-81.8	254	12
2023-09-13T12:00	14882	129	-55.6	-81.8	255	12
2023-09-13T12:00	14907	128	-55.7	-81.9	256	12
2023-09-13T12:00	14930	128	-56.0	-82.1	258	12
2023-09-13T12:00	14955	127	-55.9	-82.0	259	12
2023-09-13T12:00	14977	127	-56.0	-82.1	259	12
2023-09-13T12:00	15002	126	-56.1	-81.9	259	12
2023-09-13T12:00	15023	126	-56.4	-82.1	257	11
2023-09-13T12:00	15048	125	-56.5	-82.2	254	11
2023-09-13T12:00	15072	125	-56.9	-82.5	251	11
2023-09-13T12:00	15094	124	-57.0	-82.6	249	11
2023-09-13T12:00	15117	124	-56.8	-82.5	248	11
2023-09-13T12:00	15138	123	-56.8	-82.5	248	12
2023-09-13T12:00	15161	123	-56.7	-82.7	248	12
2023-09-13T12:00	15184	123	-56.5	-82.8	250	13
2023-09-13T12:00	15208	122	-56.4	-82.7	252	14
2023-09-13T12:00	15230	122	-56.2	-82.6	254	14
2023-09-13T12:00	15254	121	-56.2	-82.6	256	14
2023-09-13T12:00	15280	121	-56.2	-82.6	257	15
2023-09-13T12:00	15302	120	-56.2	-82.6	259	14
2023-09-13T12:00	15325	120	-56.3	-82.6	259	14
2023-09-13T12:00	15351	119	-56.3	-82.6	260	14
2023-09-13T12:00	15373	119	-56.2	-82.6	260	14
2023-09-13T12:00	15396	119	-56.0	-82.4	260	14
2023-09-13T12:00	15419	118	-56.0	-82.4	260	14
2023-09-13T12:00	15439	118	-56.0	-82.4	259	14
2023-09-13T12:00	15459	117	-56.2	-82.6	259	14
2023-09-13T12:00	15480	117	-56.1	-82.5	259	14
2023-09-13T12:00	15506	117	-56.1	-82.5	259	14
2023-09-13T12:00	15530	116	-56.2	-82.6	259	14
2023-09-13T12:00	15557	116	-56.4	-82.7	260	14
2023-09-13T12:00	15580	115	-56.5	-82.8	261	14
2023-09-13T12:00	15602	115	-56.6	-82.9	262	14
2023-09-13T12:00	15625	114	-56.6	-82.6	264	14
2023-09-13T12:00	15652	114	-56.5	-82.5	264	13
2023-09-13T12:00	15678	113	-56.6	-82.6	265	13
2023-09-13T12:00	15704	113	-56.7	-82.7	265	12
2023-09-13T12:00	15728	112	-56.7	-82.7	265	11
2023-09-13T12:00	15752	112	-56.6	-82.6	265	11
2023-09-13T12:00	15774	112	-56.6	-82.6	265	10
2023-09-13T12:00	15799	111	-56.5	-82.5	265	10
2023-09-13T12:00	15824	111	-56.8	-82.7	265	9
2023-09-13T12:00	15849	110	-57.0	-82.9	264	9
2023-09-13T12:00	15872	110	-57.0	-82.9	263	9
2023-09-13T12:00	15893	110	-56.9	-82.8	263	9
2023-09-13T12:00	15920	109	-56.8	-82.7	262	9
2023-09-13T12:00	15944	109	-57.0	-82.9	262	9
2023-09-13T12:00	15965	108	-57.2	-83.0	260	10
2023-09-13T12:00	15990	108	-57.2	-83.0	258	9
2023-09-13T12:00	16014	108	-57.1	-83.0	256	9
2023-09-13T12:00	16038	107	-56.9	-82.8	253	9
2023-09-13T12:00	16064	107	-57.1	-83.0	250	9
2023-09-13T12:00	16088	106	-57.2	-83.0	247	8
2023-09-13T12:00	16117	106	-57.1	-83.0	245	8
2023-09-13T12:00	16138	105	-57.4	-83.2	245	8
2023-09-13T12:00	16160	105	-57.6	-83.1	247	9
2023-09-13T12:00	16183	105	-57.7	-83.2	250	9
2023-09-13T12:00	16204	104	-57.9	-83.6	254	10
2023-09-13T12:00	16227	104	-57.6	-83.3	257	10
2023-09-13T12:00	16250	104	-57.4	-83.2	259	11
2023-09-13T12:00	16268	103	-57.4	-83.5	261	11
2023-09-13T12:00	16293	103	-57.2	-83.3	262	11
2023-09-13T12:00	16316	102	-57.1	-83.2	263	11
2023-09-13T12:00	16341	102	-56.9	-83.4	264	10
2023-09-13T12:00	16363	102	-56.7	-83.2	264	10
2023-09-13T12:00	16384	101	-56.4	-83.3	264	10
2023-09-13T12:00	16409	101	-56.1	-83.1	262	10
2023-09-13T12:00	16433	101	-56.1	-83.1	261	10
2023-09-13T12:00	16458	100	-56.1	-83.1	258	10
2023-09-13T12:00	16480	100	-56.0	-83.0	256	10
2023-09-13T12:00	16502	100	-56.1	-83.1	253	10
2023-09-13T12:00	16525	99	-56.3	-83.3	252	10
2023-09-13T12:00	16549	99	-56.4	-83.3	251	11
2023-09-13T12:00	16574	98	-56.3	-83.3	250	11
2023-09-13T12:00	16596	98	-56.5	-83.4	251	12
2023-09-13T12:00	16619	98	-56.5	-83.1	252	12
2023-09-13T12:00	16640	97	-56.8	-83.3	255	12
2023-09-13T12:00	16665	97	-56.8	-83.3	258	12
2023-09-13T12:00	16687	97	-56.9	-83.7	262	11
2023-09-13T12:00	16713	96	-56.9	-83.7	266	11
2023-09-13T12:00	16736	96	-56.8	-83.6	269	11
2023-09-13T12:00	16761	96	-56.7	-83.6	273	11
2023-09-13T12:00	16789	95	-56.7	-83.9	275	11
2023-09-13T12:00	16814	95	-56.6	-83.8	278	11
2023-09-13T12:00	16835	94	-56.6	-83.8	280	11
2023-09-13T12:00	16857	94	-56.7	-83.9	281	11
2023-09-13T12:00	16879	94	-56.7	-83.9	282	11
2023-09-13T12:00	16903	93	-56.7	-83.9	282	10
2023-09-13T12:00	16924	93	-56.7	-83.9	282	10
2023-09-13T12:00	16948	93	-56.8	-84.0	281	9
2023-09-13T12:00	16970	92	-56.8	-84.0	280	9
2023-09-13T12:00	16991	92	-56.8	-84.0	278	8
2023-09-13T12:00	17018	92	-57.0	-84.1	276	8
2023-09-13T12:00	17036	91	-57.1	-84.2	275	8
2023-09-13T12:00	17060	91	-57.0	-84.1	275	8
2023-09-13T12:00	17087	91	-57.1	-84.2	275	8
2023-09-13T12:00	17112	90	-57.3	-84.0	274	8
2023-09-13T12:00	17135	90	-57.2	-83.9	273	8
2023-09-13T12:00	17160	90	-57.3	-84.0	270	8
2023-09-13T12:00	17185	89	-57.4	-84.1	268	7
2023-09-13T12:00	17211	89	-57.6	-84.3	266	7
2023-09-13T12:00	17235	89	-57.8	-84.4	265	7
2023-09-13T12:00	17259	88	-57.8	-84.4	264	7
2023-09-13T12:00	17282	88	-57.8	-84.4	264	7
2023-09-13T12:00	17306	88	-57.5	-84.2	265	7
2023-09-13T12:00	17334	87	-57.4	-84.1	267	7
2023-09-13T12:00	17354	87	-57.4	-84.4	268	6
2023-09-13T12:00	17381	87	-57.3	-84.4	269	6
2023-09-13T12:00	17407	86	-57.4	-84.4	269	6
2023-09-13T12:00	17428	86	-57.2	-84.3	269	5
2023-09-13T12:00	17452	86	-57.0	-84.1	267	5
2023-09-13T12:00	17475	85	-57.0	-84.1	266	5
2023-09-13T12:00	17499	85	-57.1	-84.2	265	5
2023-09-13T12:00	17525	85	-57.3	-84.4	265	5
2023-09-13T12:00	17548	84	-57.2	-84.3	264	6
2023-09-13T12:00	17573	84	-57.2	-84.3	262	5
2023-09-13T12:00	17595	84	-57.2	-84.3	260	5
2023-09-13T12:00	17617	83	-57.3	-84.4	258	5
2023-09-13T12:00	17640	83	-57.3	-84.4	257	5
2023-09-13T12:00	17664	83	-57.3	-84.4	257	5
2023-09-13T12:00	17689	83	-57.5	-84.5	259	5
2023-09-13T12:00	17713	82	-57.6	-84.6	262	5
2023-09-13T12:00	17736	82	-57.7	-84.7	265	5
2023-09-13T12:00	17760	82	-57.6	-84.6	269	5
2023-09-13T12:00	17784	81	-57.5	-84.5	272	5
2023-09-13T12:00	17809	81	-57.5	-84.5	275	5
2023-09-13T12:00	17829	81	-57.5	-84.5	278	5
2023-09-13T12:00	17856	80	-57.4	-84.8	281	5
2023-09-13T12:00	17879	80	-57.3	-84.7	282	5
2023-09-13T12:00	17901	80	-57.3	-84.7	283	5
2023-09-13T12:00	17925	79	-57.1	-84.6	283	5
2023-09-13T12:00	17950	79	-57.2	-84.6	282	5
2023-09-13T12:00	17972	79	-57.2	-84.6	282	5
2023-09-13T12:00	17998	79	-57.3	-84.7	281	5
2023-09-13T12:00	18021	78	-57.3	-84.7	281	5
2023-09-13T12:00	18044	78	-57.4	-84.8	280	6
2023-09-13T12:00	18070	78	-57.4	-84.8	280	6
2023-09-13T12:00	18093	77	-57.4	-84.8	280	6
2023-09-13T12:00	18114	77	-57.5	-84.9	282	6
2023-09-13T12:00	18138	77	-57.6	-84.9	284	6
2023-09-13T12:00	18162	77	-57.5	-84.9	288	6
2023-09-13T12:00	18185	76	-57.4	-84.8	291	6
2023-09-13T12:00	18210	76	-57.3	-84.7	292	6
2023-09-13T12:00	18233	76	-57.5	-84.9	292	6
2023-09-13T12:00	18260	75	-57.4	-84.8	290	7
2023-09-13T12:00	18281	75	-57.5	-84.9	287	7
2023-09-13T12:00	18307	75	-57.4	-84.8	285	7
2023-09-13T12:00	18332	75	-57.5	-84.9	284	8
2023-09-13T12:00	18357	74	-57.8	-84.7	283	8
2023-09-13T12:00	18382	74	-57.8	-85.1	284	9
2023-09-13T12:00	18412	74	-57.9	-85.2	285	9
2023-09-13T12:00	18438	73	-58.0	-85.2	286	9
2023-09-13T12:00	18459	73	-57.7	-85.0	287	9
2023-09-13T12:00	18490	73	-57.4	-85.2	289	8
2023-09-13T12:00	18511	72	-57.2	-85.0	290	8
2023-09-13T12:00	18538	72	-57.3	-85.1	291	7
2023-09-13T12:00	18562	72	-57.3	-85.1	292	7
2023-09-13T12:00	18589	72	-57.2	-85.0	292	7
2023-09-13T12:00	18613	71	-57.4	-85.2	291	7
2023-09-13T12:00	18640	71	-57.4	-84.8	289	7
2023-09-13T12:00	18664	71	-57.5	-84.9	287	7
2023-09-13T12:00	18689	70	-57.6	-84.9	285	7
2023-09-13T12:00	18719	70	-57.4	-84.8	282	7
2023-09-13T12:00	18739	70	-57.4	-85.2	278	7
2023-09-13T12:00	18763	70	-57.3	-85.1	274	6
2023-09-13T12:00	18789	69	-57.3	-85.1	271	6
2023-09-13T12:00	18812	69	-57.2	-85.0	269	6
2023-09-13T12:00	18836	69	-57.3	-85.1	267	6
2023-09-13T12:00	18858	69	-57.3	-85.1	265	6
2023-09-13T12:00	18881	68	-57.3	-85.1	263	6
2023-09-13T12:00	18903	68	-57.2	-85.0	258	5
2023-09-13T12:00	18928	68	-57.1	-84.9	253	5
2023-09-13T12:00	18949	68	-57.0	-84.8	246	5
2023-09-13T12:00	18971	67	-56.9	-84.8	241	6
2023-09-13T12:00	18991	67	-56.9	-85.2	236	6
2023-09-13T12:00	19016	67	-56.8	-85.1	234	7
2023-09-13T12:00	19040	67	-56.6	-84.9	232	7
2023-09-13T12:00	19064	66	-56.3	-84.7	230	8
2023-09-13T12:00	19087	66	-56.2	-84.6	229	8
2023-09-13T12:00	19104	66	-56.3	-84.7	229	8
2023-09-13T12:00	19129	66	-56.4	-84.8	229	9
2023-09-13T12:00	19150	65	-56.6	-84.5	230	9
2023-09-13T12:00	19175	65	-56.8	-84.7	232	9
2023-09-13T12:00	19200	65	-57.0	-84.8	235	10
2023-09-13T12:00	19224	65	-57.1	-84.9	238	10
2023-09-13T12:00	19246	64	-57.1	-84.9	241	11
2023-09-13T12:00	19274	64	-57.3	-85.1	243	11
2023-09-13T12:00	19294	64	-57.3	-85.1	246	11
2023-09-13T12:00	19320	64	-57.2	-85.0	248	11
2023-09-13T12:00	19348	64	-57.1	-84.9	250	11
2023-09-13T12:00	19370	63	-57.1	-84.9	251	11
2023-09-13T12:00	19393	63	-57.1	-84.9	252	10
2023-09-13T12:00	19420	63	-57.1	-84.9	254	10
2023-09-13T12:00	19444	63	-57.2	-85.0	255	10
2023-09-13T12:00	19470	62	-57.2	-85.0	256	10
2023-09-13T12:00	19497	62	-57.3	-85.1	258	10
2023-09-13T12:00	19521	62	-57.5	-85.2	260	9
2023-09-13T12:00	19542	62	-57.4	-85.2	262	9
2023-09-13T12:00	19569	61	-57.3	-85.1	264	8
2023-09-13T12:00	19598	61	-57.4	-85.2	267	8
2023-09-13T12:00	19620	61	-57.3	-85.5	269	7
2023-09-13T12:00	19644	61	-56.9	-85.2	272	7
2023-09-13T12:00	19670	60	-56.8	-85.1	275	7
2023-09-13T12:00	19697	60	-56.9	-85.2	276	6
2023-09-13T12:00	19725	60	-56.9	-85.2	277	6
2023-09-13T12:00	19752	60	-56.8	-85.1	276	6
2023-09-13T12:00	19777	59	-57.0	-85.2	276	6
2023-09-13T12:00	19806	59	-57.0	-85.2	277	6
2023-09-13T12:00	19835	59	-56.9	-85.2	279	6
2023-09-13T12:00	19861	59	-57.0	-85.2	281	6
2023-09-13T12:00	19888	58	-57.0	-85.2	283	6
2023-09-13T12:00	19918	58	-56.7	-85.0	282	5
2023-09-13T12:00	19942	58	-56.5	-84.9	280	5
2023-09-13T12:00	19970	58	-56.2	-84.6	275	5
2023-09-13T12:00	19997	57	-56.3	-84.7	268	4
2023-09-13T12:00	20024	57	-56.3	-84.7	260	4
2023-09-13T12:00	20053	57	-56.3	-84.7	251	4
2023-09-13T12:00	20081	57	-56.3	-84.7	242	4
2023-09-13T12:00	20112	56	-56.3	-84.7	237	5
2023-09-13T12:00	20141	56	-56.4	-84.8	234	5
2023-09-13T12:00	20170	56	-56.4	-84.8	233	5
2023-09-13T12:00	20195	56	-56.3	-84.7	233	5
2023-09-13T12:00	20220	55	-56.4	-84.8	235	6
2023-09-13T12:00	20249	55	-56.4	-84.8	238	6
2023-09-13T12:00	20277	55	-56.7	-85.0	241	6
2023-09-13T12:00	20304	55	-56.9	-84.8	244	7
2023-09-13T12:00	20328	54	-57.0	-84.8	248	7
2023-09-13T12:00	20352	54	-57.0	-84.8	253	7
2023-09-13T12:00	20377	54	-56.9	-84.8	257	8
2023-09-13T12:00	20406	54	-57.1	-84.9	262	8
2023-09-13T12:00	20438	53	-57.2	-85.0	267	8
2023-09-13T12:00	20465	53	-57.1	-84.9	272	7
2023-09-13T12:00	20486	53	-57.1	-85.3	277	7
2023-09-13T12:00	20514	53	-57.1	-85.3	281	7
2023-09-13T12:00	20538	53	-57.1	-85.3	284	7
2023-09-13T12:00	20566	52	-57.2	-85.4	287	7
2023-09-13T12:00	20590	52	-57.1	-85.3	288	6
2023-09-13T12:00	20619	52	-57.0	-85.2	290	6
2023-09-13T12:00	20639	52	-56.9	-85.2	291	5
2023-09-13T12:00	20667	52	-56.8	-85.1	292	5
2023-09-13T12:00	20691	51	-56.6	-85.4	293	5
2023-09-13T12:00	20715	51	-56.5	-85.3	294	5
2023-09-13T12:00	20743	51	-56.5	-85.3	294	5
2023-09-13T12:00	20765	51	-56.4	-85.2	294	5
2023-09-13T12:00	20789	51	-56.4	-84.8	293	5
2023-09-13T12:00	20816	50	-56.5	-84.9	292	5
2023-09-13T12:00	20839	50	-56.5	-84.9	291	5
2023-09-13T12:00	20865	50	-56.6	-84.9	291	4
2023-09-13T12:00	20891	50	-56.6	-84.9	293	4
2023-09-13T12:00	20915	50	-56.7	-85.0	297	4
2023-09-13T12:00	20944	49	-56.7	-85.0	304	3
2023-09-13T12:00	20970	49	-56.8	-85.1	316	2
2023-09-13T12:00	20995	49	-56.7	-85.0	336	2
2023-09-13T12:00	21018	49	-56.7	-85.0	1	2
2023-09-13T12:00	21046	49	-56.9	-85.2	22	2
2023-09-13T12:00	21073	48	-57.1	-85.3	32	2
2023-09-13T12:00	21099	48	-57.0	-85.2	29	1
2023-09-13T12:00	21121	48	-57.0	-85.2	353	1
2023-09-13T12:00	21144	48	-57.1	-85.3	303	1
2023-09-13T12:00	21170	48	-56.9	-85.2	295	1
2023-09-13T12:00	21198	47	-56.9	-85.6	303	2
2023-09-13T12:00	21222	47	-56.8	-85.5	318	2
2023-09-13T12:00	21249	47	-56.6	-85.4	334	2
2023-09-13T12:00	21273	47	-56.3	-85.1	347	2
2023-09-13T12:00	21299	47	-56.0	-84.9	356	1
2023-09-13T12:00	21323	46	-55.8	-84.8	8	1
2023-09-13T12:00	21351	46	-55.9	-84.8	68	0
2023-09-13T12:00	21378	46	-55.9	-84.8	143	1
2023-09-13T12:00	21406	46	-56.0	-84.9	157	1
2023-09-13T12:00	21431	46	-56.0	-84.9	165	2
2023-09-13T12:00	21458	46	-56.0	-84.9	174	2
2023-09-13T12:00	21484	45	-56.2	-85.1	183	3
2023-09-13T12:00	21510	45	-56.3	-85.1	192	3
2023-09-13T12:00	21537	45	-56.0	-84.9	198	4
2023-09-13T12:00	21562	45	-56.1	-85.0	205	4
2023-09-13T12:00	21587	45	-56.4	-85.2	211	4
2023-09-13T12:00	21616	44	-56.4	-84.8	217	4
2023-09-13T12:00	21644	44	-56.4	-84.8	225	5
2023-09-13T12:00	21670	44	-56.4	-84.8	232	5
2023-09-13T12:00	21696	44	-56.5	-84.9	238	5
2023-09-13T12:00	21721	44	-56.5	-84.9	243	5
2023-09-13T12:00	21747	43	-56.4	-84.8	247	5
2023-09-13T12:00	21774	43	-56.3	-85.1	250	5
2023-09-13T12:00	21800	43	-56.4	-85.2	251	4
2023-09-13T12:00	21825	43	-56.2	-85.1	252	4
2023-09-13T12:00	21853	43	-56.0		252	4
2023-09-13T12:00	21877	43	-55.7	-85.2	252	4
2023-09-13T12:00	21905	42	-55.4	-84.9	253	5
2023-09-13T12:00	21929	42	-55.3	-84.9	254	5
2023-09-13T12:00	21959	42	-55.3	-84.9	256	5
2023-09-13T12:00	21984	42	-55.3	-84.9	259	5
2023-09-13T12:00	22006	42	-55.5	-85.0	262	4
2023-09-13T12:00	22036	42	-55.5	-84.5	266	4
2023-09-13T12:00	22064	41	-55.5	-84.5	270	4
2023-09-13T12:00	22090	41	-55.5	-84.5	273	4
2023-09-13T12:00	22113	41	-55.3	-84.4	277	3
2023-09-13T12:00	22141	41	-55.3	-84.9	279	3
2023-09-13T12:00	22165	41	-55.3	-84.9	281	3
2023-09-13T12:00	22189	41	-55.2	-84.8	282	4
2023-09-13T12:00	22218	40	-55.0	-84.6	281	4
2023-09-13T12:00	22243	40	-54.8	-84.5	281	4
2023-09-13T12:00	22271	40	-54.9	-84.6	282	4
2023-09-13T12:00	22298	40	-55.1	-84.2	285	4
2023-09-13T12:00	22321	40	-55.2	-84.3	290	4
2023-09-13T12:00	22349	40	-55.2	-84.3	295	4
2023-09-13T12:00	22373	39	-55.4	-84.5	301	4
2023-09-13T12:00	22400	39	-55.3	-84.9	305	4
2023-09-13T12:00	22430	39	-55.2	-84.8	308	4
2023-09-13T12:00	22460	39	-54.9	-84.6	309	3
2023-09-13T12:00	22483	39	-54.8	-84.5	309	3
2023-09-13T12:00	22512	39	-54.7	-84.4	310	3
2023-09-13T12:00	22535	38	-54.7	-84.4	312	3
2023-09-13T12:00	22560	38	-54.7	-84.4	314	3
2023-09-13T12:00	22588	38	-54.5	-84.3	317	3
2023-09-13T12:00	22620	38	-54.6	-84.3	318	3
2023-09-13T12:00	22648	38	-54.8	-84.5	317	2
2023-09-13T12:00	22673	38	-54.8	-84.5	311	2
2023-09-13T12:00	22700	37	-55.0	-84.2	302	3
2023-09-13T12:00	22731	37	-55.1	-84.2	294	3
2023-09-13T12:00	22754	37	-55.3	-84.4	287	4
2023-09-13T12:00	22780	37	-55.2	-84.3	283	4
2023-09-13T12:00	22809	37	-55.2	-84.3	281	5
2023-09-13T12:00	22836	37	-55.4	-84.5	282	5
2023-09-13T12:00	22863	37	-55.5	-84.5	284	5
2023-09-13T12:00	22889	36	-55.5	-84.5	288	5
2023-09-13T12:00	22913	36	-55.4	-84.5	294	6
2023-09-13T12:00	22941	36	-55.5	-84.5	298	6
2023-09-13T12:00	22973	36	-55.5	-84.5	302	6
2023-09-13T12:00	22998	36	-55.6	-84.6	304	6
2023-09-13T12:00	23028	36	-55.6	-84.6	305	6
2023-09-13T12:00	23051	35	-55.7	-84.3	307	6
2023-09-13T12:00	23079	35	-55.8	-84.3	309	6
2023-09-13T12:00	23107	35	-56.0	-84.5	313	5
2023-09-13T12:00	23134	35	-56.0	-84.5	318	5
2023-09-13T12:00	23153	35	-56.0	-84.9	323	4
2023-09-13T12:00	23184	35	-55.9	-84.8	329	4
2023-09-13T12:00	23209	35	-56.0	-84.9	334	3
2023-09-13T12:00	23241	34	-56.0	-84.9	337	3
2023-09-13T12:00	23268	34	-56.1	-85.0	338	2
2023-09-13T12:00	23293	34	-56.1	-85.0	335	1
2023-09-13T12:00	23317	34	-56.0	-84.9	321	1
2023-09-13T12:00	23344	34	-55.9	-84.8	233	0
2023-09-13T12:00	23372	34	-55.8	-84.8	189	1
2023-09-13T12:00	23403	34	-55.8	-84.8	180	2
2023-09-13T12:00	23426	33	-55.7	-85.2	176	2
2023-09-13T12:00	23453	33	-55.7	-85.2	175	3
2023-09-13T12:00	23482	33	-55.6	-85.1	176	3
2023-09-13T12:00	23505	33	-55.8	-85.2	180	4
2023-09-13T12:00	23531	33	-55.8	-85.2	184	4
2023-09-13T12:00	23555	33	-55.7	-85.2	190	4
2023-09-13T12:00	23585	33	-55.9	-84.8	197	5
2023-09-13T12:00	23613	32	-56.0	-84.9	205	5
2023-09-13T12:00	23634	32	-56.1	-85.0	213	5
2023-09-13T12:00	23664	32	-56.0	-84.9	222	5
2023-09-13T12:00	23698	32	-56.2	-85.1	230	5
2023-09-13T12:00	23723	32	-56.1	-85.0	238	6
2023-09-13T12:00	23750	32	-55.8	-84.8	244	6
2023-09-13T12:00	23774	32	-55.8	-85.2	250	6
2023-09-13T12:00	23804	32	-55.8	-85.2	256	6
2023-09-13T12:00	23825	31	-55.8	-85.2	262	6
2023-09-13T12:00	23855	31	-55.7	-85.2	268	7
2023-09-13T12:00	23887	31	-55.4	-84.9	272	7
2023-09-13T12:00	23910	31	-55.3	-85.4	277	7
2023-09-13T12:00	23940	31	-55.1	-85.2	282	7
2023-09-13T12:00	23966	31	-55.0	-85.1	288	6
2023-09-13T12:00	24000	31	-55.0	-85.1	296	6
2023-09-13T12:00	24022	30	-55.0	-85.1	306	5
2023-09-13T12:00	24045	30	-55.0	-85.1	315	5
2023-09-13T12:00	24078	30	-55.0	-85.1	322	5
2023-09-13T12:00	24098	30	-54.9	-84.6	325	4
2023-09-13T12:00	24125	30	-54.7	-84.4	323	4
2023-09-13T12:00	24155	30	-54.7	-84.4	318	4
2023-09-13T12:00	24178	30	-54.7	-84.4	312	4
2023-09-13T12:00	24202	30	-54.6	-84.8	308	4
2023-09-13T12:00	24232	29	-54.6	-84.8	305	4
2023-09-13T12:00	24261	29	-54.5	-84.8	305	4
2023-09-13T12:00	24289	29	-54.4	-84.7	305	4
2023-09-13T12:00	24317	29	-54.4	-84.7	305	4
2023-09-13T12:00	24352	29	-54.2	-84.5	305	4
2023-09-13T12:00	24368	29	-54.1	-84.5	304	4
2023-09-13T12:00	24401	29	-54.2	-84.5	304	4
2023-09-13T12:00	24426	29	-54.2	-84.5	305	4
2023-09-13T12:00	24460	28	-54.2	-84.5	306	4
2023-09-13T12:00	24487	28	-54.0	-84.4	307	3
2023-09-13T12:00	24518	28	-53.9	-84.3	308	3
2023-09-13T12:00	24541	28	-53.9	-84.3	308	2
2023-09-13T12:00	24574	28	-53.8	-84.2	308	2
2023-09-13T12:00	24607	28	-53.8	-84.2	305	1
2023-09-13T12:00	24626	28	-53.7	-84.2	298	1
2023-09-13T12:00	24664	28	-53.6	-84.1	274	1
2023-09-13T12:00	24691	27	-53.6	-84.1	233	1
2023-09-13T12:00	24722	27	-53.6	-84.1	215	1
2023-09-13T12:00	24750	27	-53.6	-84.1	213	2
2023-09-13T12:00	24775	27	-53.7	-84.2	217	2
2023-09-13T12:00	24807	27	-53.6	-84.1	221	2
2023-09-13T12:00	24830	27	-53.3	-83.9	223	3
2023-09-13T12:00	24858	27	-53.2	-83.8	225	3
2023-09-13T12:00	24885	27	-53.3	-83.9	226	4
2023-09-13T12:00	24916	27	-53.4	-83.9	227	4
2023-09-13T12:00	24938	26	-53.4	-83.9	229	4
2023-09-13T12:00	24969	26	-53.3	-83.9	231	3
2023-09-13T12:00	24982	26	-53.3	-83.9	230	3
2023-09-13T12:00	25016	26	-53.3	-84.4	223	3
2023-09-13T12:00	25045	26	-53.2	-84.4	212	4
2023-09-13T12:00	25075	26	-52.9	-84.1	202	4
2023-09-13T12:00	25098	26	-52.5	-83.8	195	5
2023-09-13T12:00	25126	26	-52.1	-84.2	190	6
2023-09-13T12:00	25155	26	-51.9	-84.0	187	7
2023-09-13T12:00	25183	25	-51.8	-83.9	185	7
2023-09-13T12:00	25200	25	-51.5	-83.7	184	7
2023-09-13T12:00	25235	25	-51.5	-83.7	186	7
2023-09-13T12:00	25250	25	-51.6	-83.8	188	7
2023-09-13T12:00	25281	25	-51.8	-83.3	193	6
2023-09-13T12:00	25311	25	-51.9	-83.4	197	6
2023-09-13T12:00	25326	25	-51.8	-83.3	202	6
2023-09-13T12:00	25364	25	-51.6	-83.2	203	5
2023-09-13T12:00	25383	25	-51.5	-83.1	203	5
2023-09-13T12:00	25408	25	-51.5	-83.1	201	6
2023-09-13T12:00	25439	24	-51.6	-83.2	199	6
2023-09-13T12:00	25464	24	-51.5	-83.1	198	6
2023-09-13T12:00	25490	24	-51.4	-83.0	198	6
2023-09-13T12:00	25510	24	-51.4	-83.0	198	6
2023-09-13T12:00	25548	24	-51.4	-83.0	199	6
2023-09-13T12:00	25574	24	-51.4	-83.0	199	6
2023-09-13T12:00	25600	24	-51.4	-83.6	200	6
2023-09-13T12:00	25620	24	-51.4	-83.6	202	6
2023-09-13T12:00	25653	24	-51.3	-83.6	205	6
2023-09-13T12:00	25681	24	-51.3	-83.6	209	6
2023-09-13T12:00	25708	23	-51.2	-83.5	212	6
2023-09-13T12:00	25733	23	-51.2	-82.9	215	7
2023-09-13T12:00	25758	23	-51.2	-82.9	217	7
2023-09-13T12:00	25787	23	-51.2	-82.9	220	8
2023-09-13T12:00	25811	23	-51.4	-82.5	222	8
2023-09-13T12:00	25839	23	-51.4	-82.5	224	8
2023-09-13T12:00	25874	23	-51.4	-82.5	227	9
2023-09-13T12:00	25897	23	-51.4	-83.0	231	9
2023-09-13T12:00	25926	23	-51.3	-82.9	235	9
2023-09-13T12:00	25956	23	-51.2	-82.9	238	9
2023-09-13T12:00	25972	23	-51.3	-82.9	242	10
2023-09-13T12:00	26009	22	-51.4	-83.0	245	10
2023-09-13T12:00	26026	22	-51.3	-82.9	247	9
2023-09-13T12:00	26057	22	-51.2	-82.9	250	8
2023-09-13T12:00	26088	22	-51.3	-82.9	252	7
2023-09-13T12:00	26118	22	-51.2	-83.5	255	6
2023-09-13T12:00	26143	22	-51.0	-83.3	259	5
2023-09-13T12:00	26165	22	-50.9	-83.3	264	4
2023-09-13T12:00	26205	22	-50.8	-83.2	268	3
2023-09-13T12:00	26230	22	-50.9	-83.3	269	3
2023-09-13T12:00	26260	22	-50.9	-83.3	264	3
2023-09-13T12:00	26285	21	-50.9	-83.3	254	3
2023-09-13T12:00	26315	21	-51.0	-83.3	245	4
2023-09-13T12:00	26337	21	-51.1	-83.4	240	4
2023-09-13T12:00	26375	21	-51.0	-83.3	238	5
2023-09-13T12:00	26396	21	-50.9	-83.3	240	5
2023-09-13T12:00	26429	21	-50.8	-83.2	243	6
2023-09-13T12:00	26450	21	-50.7	-83.1	246	7
2023-09-13T12:00	26477	21	-50.6	-83.1	249	7
2023-09-13T12:00	26520	21	-50.5	-83.0	252	8
2023-09-13T12:00	26543	21	-50.5	-83.0	256	8
2023-09-13T12:00	26572	21	-50.5	-83.0	259	9
2023-09-13T12:00	26594	20	-50.4	-82.9	264	9
2023-09-13T12:00	26617	20	-50.4	-82.9	268	10
2023-09-13T12:00	26650	20	-50.4	-82.9	273	10
2023-09-13T12:00	26685	20	-50.3	-82.8	278	10
2023-09-13T12:00	26710	20	-50.3	-82.8	282	10
2023-09-13T12:00	26746	20	-50.2	-82.8	287	9
2023-09-13T12:00	26773	20	-50.1	-82.7	291	8
2023-09-13T12:00	26798	20	-50.0	-82.6	295	7
2023-09-13T12:00	26821	20	-50.0	-82.6	298	6
2023-09-13T12:00	26857	20	-50.1	-82.7	301	5
2023-09-13T12:00	26882	20	-50.3	-82.8	302	5
2023-09-13T12:00	26904	20	-50.4	-82.9	300	4
2023-09-13T12:00	26943	19	-50.4	-82.9	291	3
2023-09-13T12:00	26964	19	-50.2	-82.8	276	3
2023-09-13T12:00	26999	19	-50.0	-83.3	263	4
2023-09-13T12:00	27025	19	-49.6	-83.0	255	5
2023-09-13T12:00	27054	19	-49.1	-82.7	252	6
2023-09-13T12:00	27076	19	-49.0	-82.6	252	7
2023-09-13T12:00	27110	19	-49.0	-82.6	253	8
2023-09-13T12:00	27137	19	-48.7	-82.4	255	8
2023-09-13T12:00	27159	19	-48.3	-82.1	257	8
2023-09-13T12:00	27184	19	-48.0	-81.9	258	8
2023-09-13T12:00	27223	19	-47.7	-82.4	258	7
2023-09-13T12:00	27241	19	-47.6	-82.4	256	7
2023-09-13T12:00	27276	18	-47.5	-82.3	254	6
2023-09-13T12:00	27307	18	-47.2	-82.1	250	6
2023-09-13T12:00	27322	18	-46.9	-81.9	246	6
2023-09-13T12:00	27358	18	-46.8	-81.8	241	6
2023-09-13T12:00	27387	18	-46.7	-81.7	236	6
2023-09-13T12:00	27418	18	-46.7	-81.7	231	6
2023-09-13T12:00	27428	18	-46.7	-81.7	228	6
2023-09-13T12:00	27458	18	-46.6	-81.7	224	7
2023-09-13T12:00	27507	18	-46.5	-81.6	222	7
2023-09-13T12:00	27535	18	-46.5	-81.6	219	8
2023-09-13T12:00	27558	18	-46.4	-81.5	217	8
2023-09-13T12:00	27580	18	-46.4	-81.5	215	9
2023-09-13T12:00	27613	18	-46.1	-81.3	214	9
2023-09-13T12:00	27635	17	-46.0	-81.2	215	9
2023-09-13T12:00	27672	17	-46.1	-81.3	218	9
2023-09-13T12:00	27696	17	-46.0	-81.2	223	8
2023-09-13T12:00	27722	17	-45.8	-81.1	230	8
2023-09-13T12:00	27760	17	-45.7	-81.0	236	8
2023-09-13T12:00	27782	17	-45.9	-81.2	242	8
2023-09-13T12:00	27808	17	-45.8	-81.1	246	8
2023-09-13T12:00	27838	17	-45.8	-81.1	249	8
2023-09-13T12:00	27874	17	-45.7	-81.0	249	8
2023-09-13T12:00	27888	17	-45.7	-81.0	248	8
2023-09-13T12:00	27930	17	-45.7	-81.0	246	8
2023-09-13T12:00	27950	17	-45.5	-80.9	242	9
2023-09-13T12:00	27988	17	-45.4	-80.8	238	9
2023-09-13T12:00	28002	17	-45.4	-80.8	233	10
2023-09-13T12:00	28041	16	-45.4	-80.8	229	10
2023-09-13T12:00	28071	16	-45.4	-80.8	227	11
2023-09-13T12:00	28103	16	-45.5	-80.9	225	11
2023-09-13T12:00	28133	16	-45.5	-80.9	225	12
2023-09-13T12:00	28158	16	-45.6	-80.9	227	12
2023-09-13T12:00	28182	16	-45.6	-80.9	230	12
2023-09-13T12:00	28216	16	-45.5	-80.9	233	13
2023-09-13T12:00	28260	16	-45.5	-80.9	237	13
2023-09-13T12:00	28278	16	-45.6	-80.9	241	13
2023-09-13T12:00	28313	16	-45.6	-80.9	244	12
2023-09-13T12:00	28352	16	-45.4	-80.8	246	12
2023-09-13T12:00	28375	16	-45.4	-80.8	248	12
2023-09-13T12:00	28396	16	-45.5	-80.9	249	11
2023-09-13T12:00	28429	16	-45.5	-80.9	250	11
2023-09-13T12:00	28463	15	-45.5	-80.9	249	10
2023-09-13T12:00	28489	15	-45.6	-80.9	249	10
2023-09-13T12:00	28513	15	-45.6	-80.9	248	10
2023-09-13T12:00	28549	15	-45.5	-80.9	246	9
2023-09-13T12:00	28562	15	-45.6	-80.9	244	9
2023-09-13T12:00	28604	15	-45.7	-81.0	241	8
2023-09-13T12:00	28631	15	-45.7	-81.0	238	8
2023-09-13T12:00	28662	15	-45.6	-80.9	234	8
2023-09-13T12:00	28687	15	-45.7	-81.0	230	8
2023-09-13T12:00	28717	15	-45.7	-81.0	227	8
2023-09-13T12:00	28745	15	-45.7	-81.0	225	8
2023-09-13T12:00	28777	15	-45.8	-81.1	222	8
2023-09-13T12:00	28790	15	-46.0	-80.4	220	8
2023-09-13T12:00	28814	15	-46.2	-80.6	218	8
2023-09-13T12:00	28854	15	-46.3	-80.6	215	7
2023-09-13T12:00	28886	14	-46.5	-80.8	213	7
2023-09-13T12:00	28914	14	-46.7	-80.9	212	7
2023-09-13T12:00	28936	14	-46.7	-80.9	211	7
2023-09-13T12:00	28965	14	-46.6	-80.9	212	8
2023-09-13T12:00	28996	14	-46.5	-80.8	215	8
2023-09-13T12:00	29033	14	-46.4	-80.7	218	9
2023-09-13T12:00	29053	14	-46.3	-81.4	221	9
2023-09-13T12:00	29080	14	-46.2	-81.4	223	10
2023-09-13T12:00	29112	14	-46.2	-81.4	225	10
2023-09-13T12:00	29147	14	-46.3	-81.4	226	11
2023-09-13T12:00	29164	14	-46.3	-81.4	226	11
2023-09-13T12:00	29198	14	-46.3	-81.4	226	12
2023-09-13T12:00	29227	14	-46.2	-81.4	226	12
2023-09-13T12:00	29263	14	-46.2	-81.4	226	12
2023-09-13T12:00	29286	14	-46.3	-81.4	226	12
2023-09-13T12:00	29329	14	-46.3	-81.4	226	12
2023-09-13T12:00	29347	14	-46.4	-81.5	226	11
2023-09-13T12:00	29379	13	-46.4	-81.5	226	11
2023-09-13T12:00	29408	13	-46.5	-81.6	227	10
2023-09-13T12:00	29435	13	-46.6	-81.7	229	10
2023-09-13T12:00	29461	13	-46.5	-81.6	231	10
2023-09-13T12:00	29488	13	-46.5	-81.6	232	11
2023-09-13T12:00	29512	13	-46.4	-81.5	234	11
2023-09-13T12:00	29542	13	-46.3	-81.4	234	12
2023-09-13T12:00	29577	13	-46.1	-81.3	234	13
2023-09-13T12:00	29614	13	-45.9	-81.2	233	13
2023-09-13T12:00	29638	13	-45.6	-80.9	233	14
2023-09-13T12:00	29659	13	-45.3	-80.7	232	15
2023-09-13T12:00	29696	13	-45.3	-80.7	232	15
2023-09-13T12:00	29716	13	-45.3	-80.7	232	16
2023-09-13T12:00	29736	13	-45.5	-80.9	232	16
2023-09-13T12:00	29776	13	-45.7	-81.0	233	16
2023-09-13T12:00	29798	13	-45.8	-81.1	234	16
2023-09-13T12:00	29839	13	-45.7	-81.0	236	16
2023-09-13T12:00	29861	13	-45.6	-80.9	239	16
2023-09-13T12:00	29894	12	-45.5	-81.8	241	15
2023-09-13T12:00	29923	12	-45.5	-81.8	244	15
2023-09-13T12:00	29936	12	-45.4	-81.7	246	15
2023-09-13T12:00	29975	12	-45.3	-81.6	249	14
2023-09-13T12:00	30001	12	-45.3	-81.6	252	14
2023-09-13T12:00	30037	12	-45.4	-81.7	255	14
2023-09-13T12:00	30064	12	-45.3	-81.6	257	14
2023-09-13T12:00	30080	12	-45.3	-81.6	260	14
2023-09-13T12:00	30117	12	-45.3	-81.6	262	14
2023-09-13T12:00	30141	12	-45.4	-80.8	264	14
2023-09-13T12:00	30176	12	-45.4	-80.8	266	13
2023-09-13T12:00	30203	12	-45.5	-80.9	268	12
2023-09-13T12:00	30214	12	-45.5	-81.8	269	12
2023-09-13T12:00	30253	12	-45.4	-81.7	270	11
2023-09-13T12:00	30283	12	-45.2	-81.6	270	11
2023-09-13T12:00	30312	12	-44.8	-81.3	270	11
2023-09-13T12:00	30353	12	-44.5	-81.1	271	11
2023-09-13T12:00	30371	12	-44.2	-80.9	272	12
2023-09-13T12:00	30403	12	-44.1	-80.8	274	12
2023-09-13T12:00	30428	12	-44.1	-80.8	275	12
2023-09-13T12:00	30450	11	-44.0	-80.7	277	12
2023-09-13T12:00	30485	11	-43.9	-81.8	278	11
2023-09-13T12:00	30505	11	-43.8	-81.7	279	11
2023-09-13T12:00	30544	11	-43.6	-81.5	279	10
2023-09-13T12:00	30569	11	-43.5	-81.5	279	9
2023-09-13T12:00	30593	11	-43.5	-81.5	277	9
2023-09-13T12:00	30623	11	-43.5	-80.4	275	8
2023-09-13T12:00	30649	11	-43.4	-80.3	272	8
2023-09-13T12:00	30666	11	-43.3	-80.2	269	8
2023-09-13T12:00	30714	11	-43.4	-80.3	266	7
2023-09-13T12:00	30752	11	-43.5	-80.4	262	7
2023-09-13T12:00	30772	11	-43.4	-80.3	257	7
2023-09-13T12:00	30799	11	-43.4	-80.3	252	7
2023-09-13T12:00	30840	11	-43.4	-80.3	248	7
2023-09-13T12:00	30851	11	-43.3	-80.2	244	8
2023-09-13T12:00	30889	11	-43.3	-80.2	242	9
2023-09-13T12:00	30922	11	-43.3	-80.2	241	9
2023-09-13T12:00	30941	11	-43.4	-80.3	240	10
2023-09-13T12:00	30966	11	-43.3	-80.2	239	10
2023-09-13T12:00	30999	11	-43.4	-80.3	238	10
2023-09-13T12:00	31036	11	-43.4	-80.3	238	11
2023-09-13T12:00	31062	10	-43.4	-80.3	239	11
2023-09-13T12:00	31090	10	-43.3	-80.2	240	11
2023-09-13T12:00	31133	10	-43.2	-80.2	242	12
2023-09-13T12:00	31144	10	-43.1	-81.2	244	12
2023-09-13T12:00	31180	10	-43.1	-81.2	245	12
2023-09-13T12:00	31200	10	-43.2	-81.3	245	12
2023-09-13T12:00	31248	10	-43.2	-81.3	246	12
2023-09-13T12:00	31271	10	-43.1	-81.2	245	11
2023-09-13T12:00	31295	10	-42.9	-81.1	245	11
2023-09-13T12:00	31324	10	-42.6	-80.8	244	11
2023-09-13T12:00	31377	10	-42.3	-80.6	243	10
2023-09-13T12:00	31391	10	-41.7	-80.2	239	10
2023-09-13T12:00	31438	10	-41.4	-80.0	236	10
2023-09-13T12:00	31474	10	-41.3	-79.9	232	10
2023-09-13T12:00	31494	10	-41.2	-79.9	228	10
2023-09-13T12:00	31540	10	-41.2	-79.9	225	10
2023-09-13T12:00	31571	10	-41.1	-79.8	221	11
2023-09-13T12:00	31601	10	-40.9	-79.7	220	12
2023-09-13T12:00	31623	10	-40.7	-79.5	220	13
2023-09-13T12:00	31656	10	-40.6	-79.5	220	13
2023-09-13T12:00	31681	10	-40.5	-79.4	221	13
2023-09-13T12:00	31704	10	-40.4	-79.3	222	13
2023-09-13T12:00	31744	9	-40.4	-79.3	223	13
2023-09-13T12:00	31773	9	-40.5	-79.4	225	13
2023-09-13T12:00	31810	9	-40.6	-79.5	227	13
2023-09-13T12:00	31822	9	-40.4	-79.3	230	14
2023-09-13T12:00	31850	9	-40.2	-79.2	232	14
2023-09-13T12:00	31879	9	-40.0	-79.0	235	14
2023-09-13T12:00	31916	9	-40.0	-79.0	237	14
2023-09-13T12:00	31927	9	-40.0	-79.0	239	14
2023-09-13T12:00	31971	9	-40.1	-79.1	241	14
2023-09-13T12:00	31982	9	-40.2	-79.2	242	14
2023-09-13T12:00	32029	9	-40.1	-79.1	243	13
2023-09-13T12:00	32033	9	-39.8	-78.9	242	13
2023-09-13T12:00	32060	9	-39.6	-78.8	241	12
2023-09-13T12:00	32115	9	-39.5	-78.7	240	12
2023-09-13T12:00	32136	9	-39.5	-78.7	239	12
2023-09-13T12:00	32160	9	-39.4	-78.6	238	12
2023-09-13T12:00	32192	9	-39.3	-78.5	237	12
2023-09-13T12:00	32212	9	-39.2	-78.5	235	12
2023-09-13T12:00	32253	9	-39.2	-78.5	234	13
2023-09-13T12:00	32265	9	-39.2	-78.5	233	13
2023-09-13T12:00	32301	9	-39.1	-78.4	233	14
2023-09-13T12:00	32329	9	-39.0	-78.3	233	15
2023-09-13T12:00	32361	9	-38.9	-78.3	233	15
2023-09-13T12:00	32391	9	-38.9	-78.3	234	15
2023-09-13T12:00	32403	9	-38.8	-78.2	234	15
2023-09-13T12:00	32441	9	-38.9	-78.3	234	15
2023-09-13T12:00	32460	9	-38.9	-78.3	234	14
2023-09-13T12:00	32489	9	-39.0	-78.3	234	14
2023-09-13T12:00	32518	8	-39.0	-78.3	233	14
2023-09-13T12:00	32558	8	-39.2	-78.5	232	13
2023-09-13T12:00	32574	8	-39.3	-78.5	231	13
2023-09-13T12:00	32606	8	-39.5	-78.7	230	12
2023-09-13T12:00	32647	8	-39.5	-78.7	230	12
2023-09-13T12:00	32650	8	-39.5	-78.7	231	12
2023-09-13T12:00	32681	8	-39.5	-78.7	232	12
2023-09-13T12:00	32715	8	-39.4	-78.6	233	12
2023-09-13T12:00	32747	8	-39.3	-78.5	234	12
2023-09-13T12:00	32781	8	-39.2	-78.5	235	12
2023-09-13T12:00	32804	8	-39.3	-78.5	237	12
2023-09-13T12:00	32826	8	-39.3	-78.5	239	12
2023-09-13T12:00	32854	8	-39.4	-78.6	240	12
2023-09-13T12:00	32900	8	-39.4	-78.6	242	12
2023-09-13T12:00	32928	8	-39.5	-78.7	244	12
2023-09-13T12:00	32949	8	-39.5	-78.7	246	12
2023-09-13T12:00	32967	8	-39.6	-78.8	247	12
2023-09-13T12:00	33029	8	-39.6	-78.8	248	12
2023-09-13T12:00	33067	8	-39.7	-78.8	250	12
2023-09-13T12:00	33071	8	-39.8	-78.9	251	12
2023-09-13T12:00	33102	8	-39.7	-78.8	251	12
2023-09-13T12:00	33148	8	-39.8	-78.9	252	12
2023-09-13T12:00	33187	8	-39.8	-78.9	251	12
2023-09-13T12:00	33196	8	-39.8	-78.9	250	12
2023-09-13T12:00	33209	8	-39.8	-78.9	249	12
2023-09-13T12:00	33234	8	-39.9	-79.0	249	12
2023-09-13T12:00	33287	8	-39.9	-79.0	249	11
2023-09-13T12:00	33308	8	-39.9	-79.0	250	11
2023-09-13T12:00	33349	8	-39.9	-79.0	251	11
2023-09-13T12:00	33381	7	-39.9	-79.0	251	10
2023-09-13T12:00	33413	7	-39.9	-79.0	249	10
2023-09-13T12:00	33417	7	-39.8	-78.9	247	10
2023-09-13T12:00	33495	7	-39.7	-78.8	244	10
2023-09-13T12:00	33523	7	-39.5	-78.7	239	10
2023-09-13T18:00	112	1001	20.2	16.4	320	2
2023-09-13T18:00	142	998	20.4	16.2	318	4
2023-09-13T18:00	168	995	20.3	15.9	316	5
2023-09-13T18:00	198	991	20.1	15.7	314	5
2023-09-13T18:00	233	988	19.8	15.4	313	6
2023-09-13T18:00	260	984	19.6	15.5	311	6
2023-09-13T18:00	289	981	19.3	15.4	310	7
2023-09-13T18:00	310	978	19.1	15.4	310	7
2023-09-13T18:00	338	976	18.9	15.4	309	7
2023-09-13T18:00	360	973	18.6	15.2	308	7
2023-09-13T18:00	381	971	18.5	15.0	308	7
2023-09-13T18:00	402	968	18.3	15.0	308	7
2023-09-13T18:00	423	966	18.3	14.9	308	7
2023-09-13T18:00	444	963	18.2	14.3	309	7
2023-09-13T18:00	471	960	18.0	14.1	308	7
2023-09-13T18:00	493	958	17.7	14.0	307	7
2023-09-13T18:00	513	956	17.6	13.9	306	7
2023-09-13T18:00	531	954	17.4	13.9	304	7
2023-09-13T18:00	550	952	17.2	13.7	302	7
2023-09-13T18:00	574	949	17.0	13.6	302	8
2023-09-13T18:00	594	946	16.8	13.5	304	8
2023-09-13T18:00	625	943	16.6	12.9	307	8
2023-09-13T18:00	650	941	16.4	12.9	311	8
2023-09-13T18:00	670	938	16.3	12.5	314	8
2023-09-13T18:00	694	936	16.2	12.6	315	8
2023-09-13T18:00	717	933	16.0	12.4	314	9
2023-09-13T18:00	736	931	15.9	12.5	312	9
2023-09-13T18:00	753	929	15.7	12.5	310	9
2023-09-13T18:00	772	927	15.5	12.4	308	9
2023-09-13T18:00	792	925	15.3	12.3	307	9
2023-09-13T18:00	811	923	15.1	12.3	308	9
2023-09-13T18:00	830	921	15.0	12.5	308	9
2023-09-13T18:00	849	919	14.8	12.5	308	8
2023-09-13T18:00	871	916	14.6	12.5	308	8
2023-09-13T18:00	896	914	14.4	12.4	308	8
2023-09-13T18:00	918	911	14.2	12.3	307	8
2023-09-13T18:00	938	909	14.1	12.5	307	8
2023-09-13T18:00	964	907	14.0	12.3	307	8
2023-09-13T18:00	985	904	13.9	12.2	307	9
2023-09-13T18:00	1010	901	13.7	12.2	307	9
2023-09-13T18:00	1029	899	13.5	12.1	307	9
2023-09-13T18:00	1049	897	13.4	12.0	307	9
2023-09-13T18:00	1067	895	13.2	12.0	307	9
2023-09-13T18:00	1084	894	13.1	11.7	306	9
2023-09-13T18:00	1102	892	13.0	11.8	305	9
2023-09-13T18:00	1122	889	12.8	11.6	304	9
2023-09-13T18:00	1146	887	12.7	11.4	303	10
2023-09-13T18:00	1170	885	12.5	11.2	302	10
2023-09-13T18:00	1190	882	12.4	11.4	300	10
2023-09-13T18:00	1213	880	12.4	11.4	298	10
2023-09-13T18:00	1237	878	12.5	11.1	295	10
2023-09-13T18:00	1262	875	12.5	10.9	292	10
2023-09-13T18:00	1282	873	12.3	11.1	290	9
2023-09-13T18:00	1300	871	12.2	10.9	289	9
2023-09-13T18:00	1322	869	12.1	10.8	289	9
2023-09-13T18:00	1344	866	11.8	10.8	289	9
2023-09-13T18:00	1366	864	11.6	10.7	289	9
2023-09-13T18:00	1389	862	11.4	10.7	290	9
2023-09-13T18:00	1409	860	11.3	10.5	290	9
2023-09-13T18:00	1427	858	11.3	10.2	291	9
2023-09-13T18:00	1446	856	11.2	10.2	291	9
2023-09-13T18:00	1469	854	11.0	10.1	291	9
2023-09-13T18:00	1491	851	10.6	10.5	291	10
2023-09-13T18:00	1514	849	10.9	9.3	290	10
2023-09-13T18:00	1537	846	11.3	8.8	289	10
2023-09-13T18:00	1563	844	10.8	9.2	289	10
2023-09-13T18:00	1580	842	10.2	9.8	288	10
2023-09-13T18:00	1598	841	9.9	9.9	287	10
2023-09-13T18:00	1615	839	9.9	9.3	287	10
2023-09-13T18:00	1625	838	9.7	9.6	287	10
2023-09-13T18:00	1640	836	10.1	8.5	287	10
2023-09-13T18:00	1660	834	10.5	8.1	287	10
2023-09-13T18:00	1681	832	10.3	8.1	287	11
2023-09-13T18:00	1704	830	10.1	8.1	286	11
2023-09-13T18:00	1728	827	9.8	7.9	286	11
2023-09-13T18:00	1751	825	9.7	7.9	285	11
2023-09-13T18:00	1775	823	9.7	7.7	285	11
2023-09-13T18:00	1799	821	9.7	7.3	285	11
2023-09-13T18:00	1824	818	9.6	7.2	284	10
2023-09-13T18:00	1848	816	9.5	7.2	284	10
2023-09-13T18:00	1874	813	9.2	7.0	283	10
2023-09-13T18:00	1899	811	9.0	7.0	283	10
2023-09-13T18:00	1926	808	8.8	6.9	284	10
2023-09-13T18:00	1953	805	8.7	6.6	283	10
2023-09-13T18:00	1978	803	8.8	6.4	283	11
2023-09-13T18:00	2001	801	8.6	6.3	283	11
2023-09-13T18:00	2024	798	8.4	6.3	283	11
2023-09-13T18:00	2053	796	8.2	6.3	283	12
2023-09-13T18:00	2083	793	8.0	6.1	284	12
2023-09-13T18:00	2112	790	7.8	5.9	285	12
2023-09-13T18:00	2142	787	7.6	5.8	286	12
2023-09-13T18:00	2168	785	7.3	5.7	286	12
2023-09-13T18:00	2195	782	7.2	5.7	286	11
2023-09-13T18:00	2217	780	7.1	5.6	286	11
2023-09-13T18:00	2241	778	6.8	5.5	285	11
2023-09-13T18:00	2269	775	6.6	5.5	285	11
2023-09-13T18:00	2296	773	6.3	5.4	284	11
2023-09-13T18:00	2318	770	6.2	5.3	284	11
2023-09-13T18:00	2346	768	6.1	4.8	283	11
2023-09-13T18:00	2371	766	5.9	4.6	282	11
2023-09-13T18:00	2395	763	5.7	4.4	281	11
2023-09-13T18:00	2419	761	5.6	4.3	280	11
2023-09-13T18:00	2444	759	5.4	4.2	279	11
2023-09-13T18:00	2471	756	5.5	3.8	277	11
2023-09-13T18:00	2501	754	5.2	3.7	275	11
2023-09-13T18:00	2529	751	4.9	3.6	274	11
2023-09-13T18:00	2557	749	4.9	3.3	274	11
2023-09-13T18:00	2584	746	4.8	3.2	274	11
2023-09-13T18:00	2612	743	4.5	2.9	275	11
2023-09-13T18:00	2640	741	4.5	2.6	276	11
2023-09-13T18:00	2668	738	4.4	2.5	278	11
2023-09-13T18:00	2699	736	4.2	2.4	278	11
2023-09-13T18:00	2720	734	4.3	2.2	279	11
2023-09-13T18:00	2743	731	4.2	2.1	279	11
2023-09-13T18:00	2771	729	4.1	2.0	278	11
2023-09-13T18:00	2800	727	4.0	2.0	277	11
2023-09-13T18:00	2828	724	3.7	1.9	276	11
2023-09-13T18:00	2853	722	3.5	1.9	275	11
2023-09-13T18:00	2879	719	3.3	1.8	274	11
2023-09-13T18:00	2912	717	3.2	1.7	273	11
2023-09-13T18:00	2948	713	2.8	1.7	273	11
2023-09-13T18:00	2977	711	2.5	1.7	274	11
2023-09-13T18:00	3010	708	2.2	1.5	275	10
2023-09-13T18:00	3047	705	2.1	1.3	277	10
2023-09-13T18:00	3079	702	1.7	1.4	279	10
2023-09-13T18:00	3111	699	1.4	1.4	282	10
2023-09-13T18:00	3139	697	1.3	1.3	284	10
2023-09-13T18:00	3164	694	1.1	1.1	286	10
2023-09-13T18:00	3195	692	0.9	0.6	286	10
2023-09-13T18:00	3227	689	0.8	0.3	285	10
2023-09-13T18:00	3255	687	0.6	0.1	283	10
2023-09-13T18:00	3281	684	0.4	0.4	281	10
2023-09-13T18:00	3306	682	0.2	0.2	279	10
2023-09-13T18:00	3336	680	0.2	0.2	278	10
2023-09-13T18:00	3364	677	0.0	0.0	278	10
2023-09-13T18:00	3392	675	-0.2	-0.2	279	10
2023-09-13T18:00	3419	673	-0.4	-0.4	280	9
2023-09-13T18:00	3449	670	-0.5	-0.5	281	9
2023-09-13T18:00	3482	668	-0.7	-0.7	281	9
2023-09-13T18:00	3509	665	-0.8	-0.8	281	9
2023-09-13T18:00	3537	663	-1.0	-1.0	281	9
2023-09-13T18:00	3569	660	-1.2	-1.2	282	9
2023-09-13T18:00	3601	658	-1.4	-1.4	283	8
2023-09-13T18:00	3626	656	-1.5	-1.5	282	9
2023-09-13T18:00	3654	653	-1.6	-1.6	281	9
2023-09-13T18:00	3686	651	-1.8	-1.8	278	9
2023-09-13T18:00	3715	648	-2.0	-2.0	276	9
2023-09-13T18:00	3746	646	-2.2	-2.2	275	9
2023-09-13T18:00	3772	644	-2.3	-2.3	275	9
2023-09-13T18:00	3803	641	-2.5	-2.5	275	10
2023-09-13T18:00	3833	639	-2.8	-2.8	274	10
2023-09-13T18:00	3861	636	-3.6	-3.6	272	10
2023-09-13T18:00	3890	634	-3.4	-6.7	269	10
2023-09-13T18:00	3926	631	-3.5	-7.4	265	10
2023-09-13T18:00	3961	629	-3.3	-10.1	261	11
2023-09-13T18:00	3990	626	-3.4	-10.8	258	11
2023-09-13T18:00	4020	624	-3.5	-11.0	257	11
2023-09-13T18:00	4044	622	-3.6	-11.0	257	11
2023-09-13T18:00	4076	620	-3.7	-11.0	257	11
2023-09-13T18:00	4098	617	-3.9	-11.1	256	11
2023-09-13T18:00	4131	615	-3.8	-12.3	256	11
2023-09-13T18:00	4156	613	-3.7	-12.9	255	11
2023-09-13T18:00	4179	611	-3.8	-12.7	254	12
2023-09-13T18:00	4203	610	-4.0	-11.1	254	12
2023-09-13T18:00	4226	608	-4.2	-9.4	254	12
2023-09-13T18:00	4252	606	-4.5	-8.0	255	12
2023-09-13T18:00	4278	604	-4.7	-7.5	255	12
2023-09-13T18:00	4302	602	-4.9	-7.5	255	12
2023-09-13T18:00	4324	600	-5.0	-8.5	255	12
2023-09-13T18:00	4344	599	-5.0	-11.5	254	12
2023-09-13T18:00	4370	597	-5.1	-14.2	253	12
2023-09-13T18:00	4398	595	-5.1	-17.3	252	12
2023-09-13T18:00	4423	593	-5.2	-17.3	252	13
2023-09-13T18:00	4446	591	-5.3	-17.2	252	13
2023-09-13T18:00	4467	589	-5.5	-17.4	252	13
2023-09-13T18:00	4495	587	-5.5	-17.8	252	13
2023-09-13T18:00	4520	585	-5.7	-18.3	252	13
2023-09-13T18:00	4547	584	-5.7	-18.6	252	13
2023-09-13T18:00	4570	582	-5.9	-18.7	253	13
2023-09-13T18:00	4595	580	-6.1	-19.1	255	12
2023-09-13T18:00	4617	578	-6.3	-20.6	257	12
2023-09-13T18:00	4640	576	-6.1	-23.4	260	11
2023-09-13T18:00	4666	575	-6.0	-26.6	263	11
2023-09-13T18:00	4694	572	-6.0	-28.9	266	12
2023-09-13T18:00	4730	570	-6.1	-29.7	268	12
2023-09-13T18:00	4757	568	-6.3	-30.4	268	12
2023-09-13T18:00	4780	566	-6.6	-30.5	268	11
2023-09-13T18:00	4806	564	-6.8	-30.4	266	12
2023-09-13T18:00	4829	563	-7.0	-28.6	264	12
2023-09-13T18:00	4856	561	-7.1	-29.4	262	12
2023-09-13T18:00	4878	559	-7.2	-29.1	261	12
2023-09-13T18:00	4905	557	-7.4	-29.3	261	13
2023-09-13T18:00	4927	556	-7.5	-29.7	262	13
2023-09-13T18:00	4954	554	-7.6	-30.8	263	13
2023-09-13T18:00	4979	552	-7.7	-31.3	264	13
2023-09-13T18:00	5010	550	-8.0	-32.2	266	13
2023-09-13T18:00	5039	548	-8.2	-33.7	268	13
2023-09-13T18:00	5060	546	-8.3	-33.8	270	13
2023-09-13T18:00	5080	545	-8.5	-34.1	271	13
2023-09-13T18:00	5107	543	-8.7	-34.3	272	13
2023-09-13T18:00	5130	541	-8.8	-34.9	273	13
2023-09-13T18:00	5156	540	-9.0	-35.7	274	13
2023-09-13T18:00	5174	538	-9.1	-36.0	275	13
2023-09-13T18:00	5197	537	-9.3	-36.5	276	13
2023-09-13T18:00	5221	535	-9.5	-36.4	276	13
2023-09-13T18:00	5243	534	-9.7	-36.1	276	13
2023-09-13T18:00	5265	532	-9.9	-36.1	276	13
2023-09-13T18:00	5294	530	-10.2	-36.5	276	12
2023-09-13T18:00	5312	529	-10.3	-36.7	275	12
2023-09-13T18:00	5332	527	-10.5	-36.7	273	12
2023-09-13T18:00	5352	526	-10.7	-36.4	272	12
2023-09-13T18:00	5375	524	-10.8	-36.9	270	13
2023-09-13T18:00	5396	523	-10.9	-37.5	269	13
2023-09-13T18:00	5418	521	-11.1	-37.6	267	13
2023-09-13T18:00	5447	520	-11.3	-37.2	265	13
2023-09-13T18:00	5473	518	-11.5	-36.0	264	13
2023-09-13T18:00	5495	516	-11.7	-35.2	262	13
2023-09-13T18:00	5517	515	-11.9	-35.2	261	13
2023-09-13T18:00	5548	513	-12.1	-35.0	261	12
2023-09-13T18:00	5574	511	-12.4	-35.3	261	12
2023-09-13T18:00	5600	509	-12.6	-35.3	263	12
2023-09-13T18:00	5623	508	-12.8	-35.4	264	12
2023-09-13T18:00	5649	506	-13.1	-35.5	265	13
2023-09-13T18:00	5675	504	-13.3	-35.7	266	13
2023-09-13T18:00	5707	502	-13.6	-35.8	267	14
2023-09-13T18:00	5726	501	-13.8	-35.9	268	15
2023-09-13T18:00	5751	499	-14.0	-35.8	269	15
2023-09-13T18:00	5778	498	-14.2	-35.7	270	15
2023-09-13T18:00	5805	496	-14.5	-35.8	271	16
2023-09-13T18:00	5831	494	-14.7	-35.8	270	15
2023-09-13T18:00	5862	492	-15.0	-33.9	269	15
2023-09-13T18:00	5886	491	-15.2	-32.1	267	15
2023-09-13T18:00	5906	489	-15.1	-35.8	266	14
2023-09-13T18:00	5929	488	-15.2	-35.5	265	14
2023-09-13T18:00	5953	486	-15.3	-35.6	264	14
2023-09-13T18:00	5980	485	-15.5	-35.9	264	13
2023-09-13T18:00	6003	483	-15.7	-36.0	263	13
2023-09-13T18:00	6033	481	-16.0	-36.6	263	13
2023-09-13T18:00	6058	479	-16.2	-36.9	262	13
2023-09-13T18:00	6081	478	-16.4	-37.1	262	13
2023-09-13T18:00	6113	476	-16.7	-36.9	262	13
2023-09-13T18:00	6139	474	-16.9	-36.9	263	13
2023-09-13T18:00	6171	472	-17.2	-37.1	263	13
2023-09-13T18:00	6191	471	-17.4	-37.4	263	13
2023-09-13T18:00	6216	469	-17.6	-37.4	263	13
2023-09-13T18:00	6246	467	-17.9	-37.6	263	13
2023-09-13T18:00	6279	466	-18.2	-37.4	263	13
2023-09-13T18:00	6307	464	-18.4	-37.3	264	13
2023-09-13T18:00	6331	462	-18.7	-37.8	265	12
2023-09-13T18:00	6351	461	-18.8	-38.1	266	12
2023-09-13T18:00	6382	459	-19.0	-41.0	267	12
2023-09-13T18:00	6407	458	-19.1	-42.8	267	12
2023-09-13T18:00	6430	456	-19.3	-43.1	268	12
2023-09-13T18:00	6453	455	-19.5	-43.2	267	12
2023-09-13T18:00	6480	453	-19.7	-43.4	267	12
2023-09-13T18:00	6502	452	-19.9	-43.5	266	12
2023-09-13T18:00	6527	450	-20.1	-43.7	266	12
2023-09-13T18:00	6553	449	-20.3		266	12
2023-09-13T18:00	6577	447	-20.5	-44.3	266	12
2023-09-13T18:00	6600	446	-20.6	-44.7	268	13
2023-09-13T18:00	6627	444	-20.7	-45.2	269	13
2023-09-13T18:00	6647	443	-20.9	-45.2	269	14
2023-09-13T18:00	6668	442	-21.0	-45.3	269	15
2023-09-13T18:00	6694	440	-21.2	-45.3	269	15
2023-09-13T18:00	6725	438	-21.5	-45.4	268	16
2023-09-13T18:00	6750	437	-21.6	-41.6	266	16
2023-09-13T18:00	6770	436	-21.7	-39.2	265	16
2023-09-13T18:00	6791	434	-21.9	-41.1	263	17
2023-09-13T18:00	6814	433	-22.0	-40.1	262	17
2023-09-13T18:00	6839	431	-22.2	-39.4	261	17
2023-09-13T18:00	6868	430	-22.5	-39.1	259	17
2023-09-13T18:00	6895	428	-22.7	-38.7	257	17
2023-09-13T18:00	6923	427	-23.0	-38.6	255	17
2023-09-13T18:00	6945	425	-23.2	-38.6	254	17
2023-09-13T18:00	6972	424	-23.3	-39.6	252	18
2023-09-13T18:00	6997	422	-23.3	-40.4	252	18
2023-09-13T18:00	7021	421	-23.5	-40.1	252	18
2023-09-13T18:00	7048	419	-23.6	-40.7	252	18
2023-09-13T18:00	7074	418	-23.7	-42.1	252	18
2023-09-13T18:00	7101	416	-23.9	-40.0	252	18
2023-09-13T18:00	7131	415	-24.1	-35.1	251	18
2023-09-13T18:00	7155	413	-24.3	-38.6	250	19
2023-09-13T18:00	7181	412	-24.5	-39.5	249	19
2023-09-13T18:00	7207	410	-24.8	-36.9	248	19
2023-09-13T18:00	7236	409	-24.9	-43.3	247	18
2023-09-13T18:00	7262	407	-25.0	-45.1	247	18
2023-09-13T18:00	7293	406	-25.3	-44.5	248	18
2023-09-13T18:00	7314	404	-25.4	-44.6	248	19
2023-09-13T18:00	7333	403	-25.6	-44.3	249	19
2023-09-13T18:00	7357	402	-25.9	-44.3	250	19
2023-09-13T18:00	7385	400	-26.1	-44.2	251	19
2023-09-13T18:00	7409	399	-26.3	-44.4	252	19
2023-09-13T18:00	7435	398	-26.6	-44.4	253	19
2023-09-13T18:00	7462	396	-26.8	-44.7	254	19
2023-09-13T18:00	7484	395	-26.9	-45.1	254	19
2023-09-13T18:00	7506	394	-27.1	-45.6	253	19
2023-09-13T18:00	7529	392	-27.3	-46.1	253	19
2023-09-13T18:00	7553	391	-27.5	-46.8	253	20
2023-09-13T18:00	7578	390	-27.7	-47.0	253	20
2023-09-13T18:00	7606	388	-27.9	-47.3	253	20
2023-09-13T18:00	7638	387	-28.2	-47.6	254	20
2023-09-13T18:00	7672	385	-28.5	-47.5	255	20
2023-09-13T18:00	7692	384	-28.7	-47.8	255	20
2023-09-13T18:00	7715	383	-28.9	-48.0	255	20
2023-09-13T18:00	7736	381	-29.1	-48.4	254	20
2023-09-13T18:00	7757	380	-29.3	-48.4	252	20
2023-09-13T18:00	7782	379	-29.5	-45.9	250	21
2023-09-13T18:00	7812	377	-29.6	-41.0	249	21
2023-09-13T18:00	7833	376	-29.8	-41.0	248	21
2023-09-13T18:00	7862	375	-30.1	-40.6	248	21
2023-09-13T18:00	7886	373	-30.3	-40.5	248	20
2023-09-13T18:00	7912	372	-30.6	-39.7	247	20
2023-09-13T18:00	7937	371	-30.8	-40.6	246	20
2023-09-13T18:00	7965	369	-31.1	-38.6	246	20
2023-09-13T18:00	7993	368	-31.3	-37.7	245	20
2023-09-13T18:00	8016	367	-31.6	-37.9	244	20
2023-09-13T18:00	8043	365	-31.8	-38.0	244	20
2023-09-13T18:00	8071	364	-32.0	-38.7	243	20
2023-09-13T18:00	8095	363	-32.3	-40.1	243	19
2023-09-13T18:00	8118	361	-32.5	-41.5	243	19
2023-09-13T18:00	8145	360	-32.7	-42.9	243	19
2023-09-13T18:00	8172	359	-32.9	-44.0	242	19
2023-09-13T18:00	8197	357	-33.1	-44.7	242	19
2023-09-13T18:00	8227	356	-33.4	-44.8	241	20
2023-09-13T18:00	8255	354	-33.6	-43.8	241	20
2023-09-13T18:00	8277	353	-33.8	-43.8	240	20
2023-09-13T18:00	8307	352	-34.0	-45.0	240	21
2023-09-13T18:00	8332	351	-34.2	-46.1	240	21
2023-09-13T18:00	8357	349	-34.3	-45.6	240	22
2023-09-13T18:00	8383	348	-34.5	-35.0	240	22
2023-09-13T18:00	8408	347	-34.6	-34.6	240	22
2023-09-13T18:00	8436	345	-34.6	-36.7	239	22
2023-09-13T18:00	8464	344	-34.7	-39.8	238	22
2023-09-13T18:00	8490	343	-34.8	-44.9	238	23
2023-09-13T18:00	8516	341	-35.0	-43.3	238	23
2023-09-13T18:00	8543	340	-35.2	-42.1	237	23
2023-09-13T18:00	8570	339	-35.5	-42.2	237	23
2023-09-13T18:00	8594	338	-35.6	-42.6	237	23
2023-09-13T18:00	8624	336	-35.7	-43.7	236	23
2023-09-13T18:00	8651	335	-36.0	-43.5	236	23
2023-09-13T18:00	8676	334	-36.2	-43.6	236	24
2023-09-13T18:00	8703	332	-36.4	-43.8	235	24
2023-09-13T18:00	8728	331	-36.6	-44.1	235	24
2023-09-13T18:00	8757	330	-36.9	-44.2	235	24
2023-09-13T18:00	8782	329	-37.1	-44.2	235	24
2023-09-13T18:00	8809	327	-37.4	-44.5	234	24
2023-09-13T18:00	8841	326	-37.5	-45.5	234	24
2023-09-13T18:00	8871	324	-37.7	-46.0	233	24
2023-09-13T18:00	8900	323	-37.9	-46.2	232	24
2023-09-13T18:00	8928	322	-38.1	-46.0	232	24
2023-09-13T18:00	8955	320	-38.3	-45.1	231	23
2023-09-13T18:00	8981	319	-38.5	-45.6	231	24
2023-09-13T18:00	9005	318	-38.8	-46.9	231	24
2023-09-13T18:00	9035	317	-39.0	-47.3	231	24
2023-09-13T18:00	9061	316	-39.2	-46.3	231	24
2023-09-13T18:00	9083	315	-39.4	-46.4	231	24
2023-09-13T18:00	9104	314	-39.6	-46.4	231	24
2023-09-13T18:00	9129	312	-39.9	-46.5	231	24
2023-09-13T18:00	9149	311	-40.0	-46.4	231	24
2023-09-13T18:00	9175	310	-40.3	-46.5	231	24
2023-09-13T18:00	9201	309	-40.6	-46.6	232	25
2023-09-13T18:00	9227	308	-40.8	-46.7	232	25
2023-09-13T18:00	9252	307	-41.0	-47.2	232	25
2023-09-13T18:00	9278	306	-41.0	-49.2	232	25
2023-09-13T18:00	9305	305	-41.2	-49.6	232	25
2023-09-13T18:00	9328	303	-41.4	-50.5	232	26
2023-09-13T18:00	9350	302	-41.5	-50.9	233	26
2023-09-13T18:00	9371	301	-41.7	-50.8	233	26
2023-09-13T18:00	9393	301	-41.9	-50.6	234	26
2023-09-13T18:00	9415	299	-42.1	-50.7	235	26
2023-09-13T18:00	9441	298	-42.3	-51.1	236	27
2023-09-13T18:00	9465	297	-42.4	-52.8	236	28
2023-09-13T18:00	9496	296	-42.2	-55.0	236	28
2023-09-13T18:00	9519	295	-42.2	-55.5	236	29
2023-09-13T18:00	9540	294	-42.3	-55.5	237	29
2023-09-13T18:00	9566	293	-42.5	-55.2	237	30
2023-09-13T18:00	9595	292	-42.8	-54.1	238	30
2023-09-13T18:00	9615	291	-42.9	-52.0	239	30
2023-09-13T18:00	9637	290	-42.9	-53.4	240	30
2023-09-13T18:00	9654	289	-43.1	-53.8	241	31
2023-09-13T18:00	9672	288	-43.3	-53.6	241	31
2023-09-13T18:00	9692	287	-43.5	-53.5	241	31
2023-09-13T18:00	9710	287	-43.6	-52.5	242	30
2023-09-13T18:00	9734	286	-43.8	-52.2	242	30
2023-09-13T18:00	9751	285	-44.0	-51.9	241	30
2023-09-13T18:00	9773	284	-44.2	-51.4	241	30
2023-09-13T18:00	9794	283	-44.4	-51.9	241	30
2023-09-13T18:00	9815	282	-44.6	-51.0	240	30
2023-09-13T18:00	9838	281	-44.8	-51.2	240	30
2023-09-13T18:00	9859	280	-45.0	-51.5	240	31
2023-09-13T18:00	9883	279	-45.3	-51.5	241	31
2023-09-13T18:00	9904	278	-45.5	-51.4	241	31
2023-09-13T18:00	9929	278	-45.7	-51.5	240	31
2023-09-13T18:00	9953	276	-46.0	-51.4	240	31
2023-09-13T18:00	9977	276	-46.2	-51.4	239	31
2023-09-13T18:00	10002	275	-46.4	-51.4	239	31
2023-09-13T18:00	10024	274	-46.6	-51.3	239	31
2023-09-13T18:00	10048	273	-46.9	-51.4	240	31
2023-09-13T18:00	10075	271	-47.2	-51.7	240	31
2023-09-13T18:00	10104	270	-47.4	-51.5	241	31
2023-09-13T18:00	10130	269	-47.7	-51.4	241	31
2023-09-13T18:00	10153	268	-47.9	-51.4	242	31
2023-09-13T18:00	10177	267	-48.1	-51.8	242	32
2023-09-13T18:00	10202	266	-48.3	-52.4	242	32
2023-09-13T18:00	10235	265	-48.6	-52.8	243	32
2023-09-13T18:00	10261	264	-48.8	-53.7	243	33
2023-09-13T18:00	10287	263	-49.1	-54.2	243	33
2023-09-13T18:00	10310	262	-49.3	-54.4	243	33
2023-09-13T18:00	10337	261	-49.5	-55.3	243	33
2023-09-13T18:00	10360	260	-49.7	-56.0	243	33
2023-09-13T18:00	10381	259	-49.8	-55.4	243	33
2023-09-13T18:00	10406	258	-49.9	-54.6	243	33
2023-09-13T18:00	10427	257	-50.1	-55.0	243	32
2023-09-13T18:00	10451	256	-50.2	-55.8	243	32
2023-09-13T18:00	10475	255	-50.4	-56.4	243	32
2023-09-13T18:00	10499	254	-50.6	-56.6	244	32
2023-09-13T18:00	10523	254	-50.8	-56.8	244	31
2023-09-13T18:00	10542	253	-51.0	-57.1	244	31
2023-09-13T18:00	10564	252	-51.2	-56.9	244	31
2023-09-13T18:00	10589	251	-51.4	-56.2	244	31
2023-09-13T18:00	10613	250	-51.5	-56.1	244	32
2023-09-13T18:00	10634	249	-51.6	-57.0	244	32
2023-09-13T18:00	10652	248	-51.7	-58.1	244	32
2023-09-13T18:00	10674	248	-51.8	-58.6	244	32
2023-09-13T18:00	10696	247	-52.0	-58.7	244	32
2023-09-13T18:00	10718	246	-52.1	-58.6	245	32
2023-09-13T18:00	10741	245	-52.3	-58.8	245	32
2023-09-13T18:00	10761	244	-52.4	-59.4	246	32
2023-09-13T18:00	10784	243	-52.5	-59.8	247	32
2023-09-13T18:00	10808	243	-52.6	-59.9	247	31
2023-09-13T18:00	10829	242	-52.8	-60.0	248	31
2023-09-13T18:00	10856	241	-52.8	-59.8	248	31
2023-09-13T18:00	10880	240	-53.0	-59.9	249	31
2023-09-13T18:00	10905	239	-53.2	-59.8	249	31
2023-09-13T18:00	10930	238	-53.5	-59.9	250	31
2023-09-13T18:00	10957	237	-53.8	-60.1	250	30
2023-09-13T18:00	10985	236	-54.0	-60.2	250	30
2023-09-13T18:00	11017	235	-54.2	-60.4	251	30
2023-09-13T18:00	11042	234	-54.3	-60.7	251	29
2023-09-13T18:00	11069	233	-54.5	-61.2	251	28
2023-09-13T18:00	11093	232	-54.5	-61.9	251	28
2023-09-13T18:00	11115	231	-54.4	-62.5	251	27
2023-09-13T18:00	11136	231	-54.5	-63.0	251	26
2023-09-13T18:00	11159	230	-54.5	-63.4	251	25
2023-09-13T18:00	11181	229	-54.6	-64.2	252	25
2023-09-13T18:00	11206	228	-54.3	-64.9	253	24
2023-09-13T18:00	11227	227	-54.2	-65.4	253	24
2023-09-13T18:00	11246	227	-54.2	-65.7	254	24
2023-09-13T18:00	11268	226	-54.2	-65.9	254	23
2023-09-13T18:00	11288	225	-54.3	-66.2	255	23
2023-09-13T18:00	11311	224	-54.2	-66.3	254	22
2023-09-13T18:00	11333	224	-54.3	-66.3	254	22
2023-09-13T18:00	11354	223	-54.5	-66.3	253	21
2023-09-13T18:00	11377	222	-54.6	-66.5	253	21
2023-09-13T18:00	11404	221	-54.4	-66.6	252	20
2023-09-13T18:00	11429	220	-54.3	-66.9	251	20
2023-09-13T18:00	11452	219	-54.2	-67.2	249	19
2023-09-13T18:00	11475	219	-54.1	-67.5	248	19
2023-09-13T18:00	11495	218	-54.1	-67.8	246	19
2023-09-13T18:00	11516	217	-54.0	-68.2	245	18
2023-09-13T18:00	11536	217	-53.7	-68.6	244	18
2023-09-13T18:00	11555	216	-53.3	-69.0	244	18
2023-09-13T18:00	11577	215	-53.3	-69.4	245	18
2023-09-13T18:00	11602	214	-53.3	-69.6	246	18
2023-09-13T18:00	11625	214	-53.2	-69.8	247	18
2023-09-13T18:00	11647	213	-53.3	-70.1	248	19
2023-09-13T18:00	11672	212	-53.4	-70.2	250	19
2023-09-13T18:00	11694	211	-53.6	-70.2	251	19
2023-09-13T18:00	11717	211	-53.7	-70.4	252	19
2023-09-13T18:00	11741	210	-53.8	-70.9	252	20
2023-09-13T18:00	11770	209	-53.4	-71.0	252	20
2023-09-13T18:00	11795	208	-53.5	-71.4	252	20
2023-09-13T18:00	11816	207	-53.1	-71.3	252	20
2023-09-13T18:00	11842	207	-53.3	-71.5	252	20
2023-09-13T18:00	11867	206	-53.3	-71.6	252	20
2023-09-13T18:00	11896	205	-53.5	-71.9	252	20
2023-09-13T18:00	11921	204	-53.6	-72.0	252	20
2023-09-13T18:00	11950	203	-53.6	-72.1	251	20
2023-09-13T18:00	11981	202	-53.7	-72.3	251	20
2023-09-13T18:00	12006	201	-53.5	-72.2	250	20
2023-09-13T18:00	12028	201	-53.7	-72.5	250	20
2023-09-13T18:00	12050	200	-53.7	-72.5	249	20
2023-09-13T18:00	12071	199	-53.9	-72.7	249	20
2023-09-13T18:00	12089	199	-53.7	-72.8	249	20
2023-09-13T18:00	12108	198	-53.6	-73.1	248	20
2023-09-13T18:00	12127	198	-53.1	-73.1	247	20
2023-09-13T18:00	12147	197	-53.0	-73.5	247	20
2023-09-13T18:00	12165	196	-53.0	-73.9	247	20
2023-09-13T18:00	12186	196	-53.0	-74.1	248	19
2023-09-13T18:00	12210	195	-53.0	-74.3	248	19
2023-09-13T18:00	12236	194	-53.0	-74.3	249	19
2023-09-13T18:00	12265	193	-53.3	-74.7	249	19
2023-09-13T18:00	12287	193	-53.3	-74.9	249	18
2023-09-13T18:00	12310	192	-53.2	-74.9	250	18
2023-09-13T18:00	12330	191	-53.1	-75.1	250	18
2023-09-13T18:00	12352	191	-52.8	-75.2	251	18
2023-09-13T18:00	12374	190	-52.9	-75.4	252	18
2023-09-13T18:00	12398	189	-53.0	-75.6	253	17
2023-09-13T18:00	12421	189	-52.6	-75.6	253	17
2023-09-13T18:00	12443	188	-52.6	-75.9	253	16
2023-09-13T18:00	12463	188	-52.5	-75.9	253	16
2023-09-13T18:00	12482	187	-52.5	-76.2	253	16
2023-09-13T18:00	12500	186	-52.3	-76.4	254	16
2023-09-13T18:00	12521	186	-51.9	-76.5	255	16
2023-09-13T18:00	12542	185	-51.9	-76.7	257	16
2023-09-13T18:00	12564	185	-51.9	-76.9	258	16
2023-09-13T18:00	12586	184	-51.6	-76.9	259	16
2023-09-13T18:00	12607	183	-51.4	-76.8	260	16
2023-09-13T18:00	12635	183	-51.4	-76.8	259	16
2023-09-13T18:00	12656	182	-51.5	-76.8	258	16
2023-09-13T18:00	12682	181	-51.7	-76.8	257	16
2023-09-13T18:00	12706	181	-51.9	-76.7	254	15
2023-09-13T18:00	12734	180	-52.1	-76.9	252	15
2023-09-13T18:00	12762	179	-52.2	-77.0	251	16
2023-09-13T18:00	12784	178	-52.4		250	16
2023-09-13T18:00	12810	178	-52.5	-77.2	250	16
2023-09-13T18:00	12838	177	-52.3	-77.2	251	16
2023-09-13T18:00	12861	176	-52.4	-77.3	252	16
2023-09-13T18:00	12884	176	-52.5	-77.2	254	16
2023-09-13T18:00	12910	175	-52.6	-77.3	256	16
2023-09-13T18:00	12938	174	-52.7	-77.3	257	16
2023-09-13T18:00	12963	174	-52.7	-77.3	258	16
2023-09-13T18:00	12987	173	-52.7	-77.3	258	16
2023-09-13T18:00	13009	172	-52.6	-77.3	257	16
2023-09-13T18:00	13034	172	-52.8	-77.4	257	17
2023-09-13T18:00	13060	171	-52.9	-77.5	256	17
2023-09-13T18:00	13083	170	-53.0	-77.6	256	18
2023-09-13T18:00	13106	170	-53.0	-77.8	256	18
2023-09-13T18:00	13127	169	-53.0	-77.8	256	18
2023-09-13T18:00	13152	169	-53.0	-78.0	256	18
2023-09-13T18:00	13175	168	-53.0	-78.2	257	18
2023-09-13T18:00	13197	167	-52.8	-78.3	257	17
2023-09-13T18:00	13222	167	-52.6	-78.4	258	17
2023-09-13T18:00	13247	166	-52.6	-78.4	258	16
2023-09-13T18:00	13272	166	-52.6	-78.4	259	16
2023-09-13T18:00	13293	165	-52.7		260	15
2023-09-13T18:00	13313	164	-52.8	-78.3	261	15
2023-09-13T18:00	13337	164	-52.8	-78.3	261	15
2023-09-13T18:00	13358	163	-52.9	-78.4	262	14
2023-09-13T18:00	13379	163	-53.0	-78.5	263	14
2023-09-13T18:00	13402	162	-53.1	-78.6	264	14
2023-09-13T18:00	13423	162	-53.2	-78.6	266	14
2023-09-13T18:00	13445	161	-53.2	-78.9	267	14
2023-09-13T18:00	13467	161	-53.1	-79.0	268	14
2023-09-13T18:00	13488	160	-53.2	-79.1	268	15
2023-09-13T18:00	13510	159	-53.3	-79.2	268	15
2023-09-13T18:00	13532	159	-53.5	-79.4	268	15
2023-09-13T18:00	13554	158	-53.6	-79.4	268	16
2023-09-13T18:00	13576	158	-53.7	-79.5	268	16
2023-09-13T18:00	13596	157	-53.8	-79.6	268	16
2023-09-13T18:00	13618	157	-53.7	-79.8	268	15
2023-09-13T18:00	13644	156	-53.5	-79.6	267	15
2023-09-13T18:00	13663	156	-53.6	-80.0	266	15
2023-09-13T18:00	13684	155	-53.7	-80.0	266	15
2023-09-13T18:00	13707	155	-53.8	-80.1	266	15
2023-09-13T18:00	13727	154	-53.9	-80.2	267	14
2023-09-13T18:00	13749	154	-54.0	-80.0	268	14
2023-09-13T18:00	13770	153	-54.1	-80.1	268	14
2023-09-13T18:00	13796	153	-54.2	-80.2	269	14
2023-09-13T18:00	13820	152	-54.3	-80.2	269	14
2023-09-13T18:00	13844	151	-54.2	-80.4	269	13
2023-09-13T18:00	13866	151	-54.2	-80.4	269	13
2023-09-13T18:00	13890	150	-54.1	-80.4	269	12
2023-09-13T18:00	13912	150	-54.2	-80.4	269	11
2023-09-13T18:00	13939	149	-54.3	-80.5	269	11
2023-09-13T18:00	13965	149	-54.3	-80.5	268	11
2023-09-13T18:00	13990	148	-54.4	-80.6	267	10
2023-09-13T18:00	14012	147	-54.6	-80.7	265	10
2023-09-13T18:00	14034	147	-54.8	-80.6	265	11
2023-09-13T18:00	14064	146	-55.0	-80.8	265	11
2023-09-13T18:00	14087	146	-55.1	-80.9	265	11
2023-09-13T18:00	14109	145	-55.2	-80.7	266	12
2023-09-13T18:00	14132	145	-55.4	-80.8	267	12
2023-09-13T18:00	14156	144	-55.4	-80.6	268	12
2023-09-13T18:00	14180	144	-55.4	-80.6	269	12
2023-09-13T18:00	14202	143	-55.6	-80.5	270	12
2023-09-13T18:00	14229	143	-55.6	-80.5	270	12
2023-09-13T18:00	14256	142	-55.4	-80.6	271	12
2023-09-13T18:00	14279	141	-55.4	-80.6	272	12
2023-09-13T18:00	14302	141	-55.4	-80.6	273	12
2023-09-13T18:00	14327	140	-55.5	-80.7	273	12
2023-09-13T18:00	14350	140	-55.6	-80.8	274	12
2023-09-13T18:00	14375	139	-55.6	-80.8	275	12
2023-09-13T18:00	14399	139	-55.6	-80.8	277	12
2023-09-13T18:00	14423	138	-55.6	-80.8	279	12
2023-09-13T18:00	14453	138	-55.9	-81.0	280	12
2023-09-13T18:00	14477	137	-56.0	-81.1	282	12
2023-09-13T18:00	14501	137	-56.2	-81.0	283	12
2023-09-13T18:00	14522	136	-56.2	-81.0	283	12
2023-09-13T18:00	14546	136	-56.3	-81.1	283	12
2023-09-13T18:00	14567	135	-56.2	-81.0	283	12
2023-09-13T18:00	14591	135	-56.4	-81.4	284	12
2023-09-13T18:00	14612	134	-56.4	-81.4	284	11
2023-09-13T18:00	14635	134	-56.4	-81.4	283	11
2023-09-13T18:00	14659	133	-56.4	-81.4	282	11
2023-09-13T18:00	14682	133	-56.5	-81.5	281	11
2023-09-13T18:00	14707	132	-56.6	-81.5	279	12
2023-09-13T18:00	14728	132	-56.5	-81.5	277	12
2023-09-13T18:00	14754	131	-56.6	-81.5	277	12
2023-09-13T18:00	14776	131	-56.7	-81.9	277	12
2023-09-13T18:00	14799	130	-56.5	-81.7	278	12
2023-09-13T18:00	14823	130	-56.5	-81.7	279	12
2023-09-13T18:00	14845	129	-56.6	-81.8	280	12
2023-09-13T18:00	14868	129	-56.6	-81.8	280	11
2023-09-13T18:00	14887	129	-56.4	-81.9	280	11
2023-09-13T18:00	14909	128	-56.5	-82.0	278	11
2023-09-13T18:00	14928	128	-56.3	-82.1	275	11
2023-09-13T18:00	14951	127	-56.0	-81.8	271	11
2023-09-13T18:00	14975	127	-55.8	-82.0	267	11
2023-09-13T18:00	15000	126	-55.6	-81.8	263	11
2023-09-13T18:00	15019	126	-55.7	-81.9	260	11
2023-09-13T18:00	15044	125	-55.8	-81.7	258	12
2023-09-13T18:00	15064	125	-56.0	-81.8	258	12
2023-09-13T18:00	15088	125	-56.1	-81.9	259	12
2023-09-13T18:00	15109	124	-56.1	-81.9	261	12
2023-09-13T18:00	15132	124	-56.1	-81.9	263	13
2023-09-13T18:00	15154	123	-56.1	-81.9	265	13
2023-09-13T18:00	15176	123	-56.1	-81.9	267	13
2023-09-13T18:00	15197	122	-56.0	-81.8	268	13
2023-09-13T18:00	15220	122	-56.1	-81.9	270	13
2023-09-13T18:00	15246	121	-56.1	-81.9	272	13
2023-09-13T18:00	15267	121	-56.0	-81.8	275	13
2023-09-13T18:00	15292	121	-56.0	-82.1	277	13
2023-09-13T18:00	15319	120	-56.1	-82.2	280	13
2023-09-13T18:00	15339	120	-56.1	-82.2	283	13
2023-09-13T18:00	15362	119	-56.2	-82.3	285	13
2023-09-13T18:00	15385	119	-56.3	-82.3	287	14
2023-09-13T18:00	15408	118	-56.6	-82.6	289	14
2023-09-13T18:00	15434	118	-56.7	-82.7	290	14
2023-09-13T18:00	15458	117	-56.5	-82.5	290	14
2023-09-13T18:00	15481	117	-56.3	-82.3	289	13
2023-09-13T18:00	15508	117	-56.5	-82.5	288	13
2023-09-13T18:00	15531	116	-56.4	-82.7	286	13
2023-09-13T18:00	15554	116	-56.5	-82.8	284	13
2023-09-13T18:00	15579	115	-56.4	-82.4	282	12
2023-09-13T18:00	15600	115	-56.5	-82.5	281	12
2023-09-13T18:00	15625	114	-56.5	-82.5	279	12
2023-09-13T18:00	15650	114	-56.4	-82.4	277	12
2023-09-13T18:00	15675	114	-56.4	-82.1	275	12
2023-09-13T18:00	15700	113	-56.5	-82.2	273	12
2023-09-13T18:00	15724	113	-56.6	-82.3	272	12
2023-09-13T18:00	15749	112	-56.8	-82.2	272	12
2023-09-13T18:00	15773	112	-56.9	-82.3	272	12
2023-09-13T18:00	15798	111	-56.7	-82.4	273	11
2023-09-13T18:00	15818	111	-56.6	-82.3	273	11
2023-09-13T18:00	15842	111	-56.7	-82.4	274	11
2023-09-13T18:00	15866	110	-56.9	-82.5	274	10
2023-09-13T18:00	15889	110	-57.1	-82.4	273	10
2023-09-13T18:00	15913	109	-57.2	-82.8	272	11
2023-09-13T18:00	15936	109	-57.1	-82.7	272	11
2023-09-13T18:00	15960	109	-57.0	-82.6	271	11
2023-09-13T18:00	15987	108	-57.0	-82.9	270	11
2023-09-13T18:00	16015	108	-56.6	-82.6	270	12
2023-09-13T18:00	16040	107	-56.8	-83.0	269	11
2023-09-13T18:00	16062	107	-56.5	-82.8	268	11
2023-09-13T18:00	16088	106	-56.6	-82.9	267	11
2023-09-13T18:00	16107	106	-56.8	-83.0	266	11
2023-09-13T18:00	16130	106	-57.0	-83.2	266	11
2023-09-13T18:00	16156	105	-57.0	-83.2	267	11
2023-09-13T18:00	16180	105	-56.8	-83.0	268	10
2023-09-13T18:00	16199	105	-56.9	-83.1	269	10
2023-09-13T18:00	16226	104	-56.8	-83.0	270	10
2023-09-13T18:00	16250	104	-56.8	-83.3	269	10
2023-09-13T18:00	16270	103	-56.7	-83.2	268	9
2023-09-13T18:00	16293	103	-56.7	-83.2	266	9
2023-09-13T18:00	16317	103	-56.7	-83.2	264	9
2023-09-13T18:00	16339	102	-56.8	-83.3	263	9
2023-09-13T18:00	16364	102	-56.9	-83.4	262	9
2023-09-13T18:00	16388	101	-57.1	-83.5	262	9
2023-09-13T18:00	16409	101	-57.2	-83.3	262	9
2023-09-13T18:00	16435	101	-57.3	-83.4	262	8
2023-09-13T18:00	16458	100	-57.3	-83.4	263	8
2023-09-13T18:00	16479	100	-57.5	-83.6	264	8
2023-09-13T18:00	16505	100	-57.7	-83.7	265	8
2023-09-13T18:00	16528	99	-57.7	-83.7	266	8
2023-09-13T18:00	16551	99	-57.7	-83.7	267	8
2023-09-13T18:00	16575	98	-57.7	-83.7	267	8
2023-09-13T18:00	16597	98	-57.9	-83.9	268	8
2023-09-13T18:00	16626	98	-58.1	-84.0	269	8
2023-09-13T18:00	16648	97	-58.2	-84.1	270	9
2023-09-13T18:00	16672	97	-58.3	-84.2	271	9
2023-09-13T18:00	16700	97	-58.5	-84.0	272	10
2023-09-13T18:00	16724	96	-58.6	-84.1	272	10
2023-09-13T18:00	16750	96	-58.7	-84.2	273	11
2023-09-13T18:00	16772	95	-58.8	-84.3	274	11
2023-09-13T18:00	16797	95	-58.9	-84.4	275	11
2023-09-13T18:00	16821	95	-59.0	-84.4	275	11
2023-09-13T18:00	16847	94	-58.8	-84.6	276	11
2023-09-13T18:00	16872	94	-58.5	-84.3	277	11
2023-09-13T18:00	16896	94	-58.4	-84.6	278	11
2023-09-13T18:00	16923	93	-58.3	-84.5	280	11
2023-09-13T18:00	16949	93	-58.4	-84.3	281	10
2023-09-13T18:00	16973	92	-58.6	-84.4	281	10
2023-09-13T18:00	17003	92	-58.8	-84.6	281	9
2023-09-13T18:00	17026	92	-58.8	-84.6	280	9
2023-09-13T18:00	17052	91	-58.7	-84.5	279	8
2023-09-13T18:00	17074	91	-58.7	-84.5	278	8
2023-09-13T18:00	17098	91	-58.8	-84.3	277	8
2023-09-13T18:00	17126	90	-58.8	-84.3	277	8
2023-09-13T18:00	17144	90	-59.0	-84.4	277	9
2023-09-13T18:00	17173	90	-59.2	-84.6	279	10
2023-09-13T18:00	17198	89	-59.0	-84.4	280	10
2023-09-13T18:00	17217	89	-58.8	-84.6	281	11
2023-09-13T18:00	17244	89	-58.9	-84.6	283	11
2023-09-13T18:00	17270	88	-59.0	-84.7	284	11
2023-09-13T18:00	17291	88	-59.0	-84.7	284	12
2023-09-13T18:00	17310	88	-58.9	-84.6	284	12
2023-09-13T18:00	17335	87	-58.7	-84.8	284	12
2023-09-13T18:00	17356	87	-58.4	-84.6	283	12
2023-09-13T18:00	17383	87	-58.1	-84.6	281	12
2023-09-13T18:00	17404	86	-58.1	-84.6	280	12
2023-09-13T18:00	17426	86	-58.0	-84.6	279	12
2023-09-13T18:00	17445	86	-57.8	-84.4	278	12
2023-09-13T18:00	17471	85	-57.8	-84.4	278	12
2023-09-13T18:00	17490	85	-57.9	-84.5	278	12
2023-09-13T18:00	17515	85	-57.9	-84.5	279	12
2023-09-13T18:00	17535	85	-57.6	-84.6	280	13
2023-09-13T18:00	17558	84	-57.7	-84.7	282	13
2023-09-13T18:00	17582	84	-57.6	-84.6	284	13
2023-09-13T18:00	17600	84	-57.4	-84.8	287	13
2023-09-13T18:00	17622	83	-57.3	-84.7	289	13
2023-09-13T18:00	17646	83	-57.0	-84.5	291	12
2023-09-13T18:00	17673	83	-57.1	-84.6	293	11
2023-09-13T18:00	17694	82	-57.2	-84.6	295	11
2023-09-13T18:00	17715	82	-57.0	-84.5	297	10
2023-09-13T18:00	17744	82	-56.8	-84.3	299	10
2023-09-13T18:00	17769	81	-56.9	-84.4	300	9
2023-09-13T18:00	17790	81	-56.9	-84.4	301	8
2023-09-13T18:00	17811	81	-57.0	-84.5	302	8
2023-09-13T18:00	17835	81	-56.8	-84.3	303	7
2023-09-13T18:00	17862	80	-56.7	-84.2	303	6
2023-09-13T18:00	17888	80	-56.8	-84.3	302	6
2023-09-13T18:00	17913	80	-57.0	-84.5	299	6
2023-09-13T18:00	17937	79	-57.1	-84.6	296	6
2023-09-13T18:00	17962	79	-57.2	-84.6	293	7
2023-09-13T18:00	17987	79	-57.1	-84.6	290	7
2023-09-13T18:00	18011	78	-57.3	-84.7	287	7
2023-09-13T18:00	18036	78	-57.1	-84.6	283	7
2023-09-13T18:00	18065	78	-57.2	-84.6	280	7
2023-09-13T18:00	18094	77	-57.4	-84.8	277	7
2023-09-13T18:00	18114	77	-57.4	-84.8	276	7
2023-09-13T18:00	18137	77	-57.6	-84.6	277	7
2023-09-13T18:00	18167	77	-57.7	-84.7	280	7
2023-09-13T18:00	18191	76	-57.8	-84.7	284	7
2023-09-13T18:00	18212	76	-58.1	-85.0	288	8
2023-09-13T18:00	18236	76	-58.2	-85.0	292	8
2023-09-13T18:00	18259	75	-58.1	-85.0	297	8
2023-09-13T18:00	18285	75	-58.1	-85.3	301	8
2023-09-13T18:00	18306	75	-58.0	-85.2	305	8
2023-09-13T18:00	18331	75	-57.7	-85.0	308	8
2023-09-13T18:00	18354	74	-57.6	-84.9	310	8
2023-09-13T18:00	18374	74	-57.7	-85.0	312	8
2023-09-13T18:00	18396	74	-57.7	-85.0	313	8
2023-09-13T18:00	18420	73	-57.6	-84.9	313	7
2023-09-13T18:00	18447	73	-57.7	-85.4	312	7
2023-09-13T18:00	18465	73	-57.5	-85.2	311	6
2023-09-13T18:00	18488	73	-57.4	-85.2	308	6
2023-09-13T18:00	18512	72	-57.5	-85.2	304	5
2023-09-13T18:00	18530	72	-57.5	-85.2	299	4
2023-09-13T18:00	18552	72	-57.1	-84.9	292	4
2023-09-13T18:00	18575	72	-57.0	-85.2	284	4
2023-09-13T18:00	18594	71	-57.0	-85.2	275	4
2023-09-13T18:00	18617	71	-56.4	-84.8	265	4
2023-09-13T18:00	18642	71	-56.4	-84.8	257	4
2023-09-13T18:00	18663	71	-56.3	-84.7	251	4
2023-09-13T18:00	18685	70	-56.1	-84.6	250	4
2023-09-13T18:00	18705	70	-56.2	-84.6	251	4
2023-09-13T18:00	18729	70	-56.4	-84.8	253	4
2023-09-13T18:00	18748	70	-56.4	-84.8	256	4
2023-09-13T18:00	18771	70	-56.4	-84.4	257	4
2023-09-13T18:00	18791	69	-56.5	-84.5	259	4
2023-09-13T18:00	18812	69	-56.7	-84.6	260	4
2023-09-13T18:00	18835	69	-56.9	-84.8	263	4
2023-09-13T18:00	18855	69	-57.0	-84.8	268	5
2023-09-13T18:00	18880	68	-57.1	-84.9	273	5
2023-09-13T18:00	18901	68	-57.0	-84.8	278	6
2023-09-13T18:00	18924	68	-57.1	-84.9	282	6
2023-09-13T18:00	18946	68	-57.1	-84.9	286	7
2023-09-13T18:00	18971	67	-57.2	-85.0	289	7
2023-09-13T18:00	18994	67	-57.1	-84.9	290	7
2023-09-13T18:00	19015	67	-57.0	-84.8	290	8
2023-09-13T18:00	19038	67	-57.0	-84.8	289	8
2023-09-13T18:00	19063	66	-57.2	-85.0	289	9
2023-09-13T18:00	19086	66	-57.4	-85.2	288	9
2023-09-13T18:00	19107	66	-57.5	-84.9	288	9
2023-09-13T18:00	19133	66	-57.7	-85.0	288	10
2023-09-13T18:00	19156	65	-57.8	-85.1	289	10
2023-09-13T18:00	19177	65	-57.9	-85.2	291	10
2023-09-13T18:00	19203	65	-57.9	-85.2	293	10
2023-09-13T18:00	19225	65	-57.8	-85.1	295	10
2023-09-13T18:00	19247	64	-57.7	-85.4	296	9
2023-09-13T18:00	19270	64	-57.7	-85.4	297	8
2023-09-13T18:00	19292	64	-57.7	-85.4	296	8
2023-09-13T18:00	19316	64	-57.6	-85.3	295	7
2023-09-13T18:00	19339	64	-57.5	-85.2	293	7
2023-09-13T18:00	19361	63	-57.5	-85.2	291	7
2023-09-13T18:00	19388	63	-57.5	-85.2	292	7
2023-09-13T18:00	19408	63	-57.4	-85.2	293	7
2023-09-13T18:00	19430	63	-57.2	-85.4	296	7
2023-09-13T18:00	19451	62	-57.2	-85.4	299	8
2023-09-13T18:00	19476	62	-57.1	-85.3	302	8
2023-09-13T18:00	19500	62	-57.1	-85.3	303	8
2023-09-13T18:00	19525	62	-57.1	-85.3	305	9
2023-09-13T18:00	19544	62	-57.1	-85.3	306	9
2023-09-13T18:00	19570	61	-57.0	-85.2	306	8
2023-09-13T18:00	19593	61	-57.0	-85.2	306	8
2023-09-13T18:00	19619	61	-56.9	-85.2	305	8
2023-09-13T18:00	19639	61	-56.6	-84.9	303	7
2023-09-13T18:00	19664	60	-56.6	-85.4	301	7
2023-09-13T18:00	19686	60	-56.2	-85.1	298	6
2023-09-13T18:00	19712	60	-56.0	-84.9	295	6
2023-09-13T18:00	19736	60	-56.1	-85.0	293	6
2023-09-13T18:00	19763	59	-56.2	-84.6	294	6
2023-09-13T18:00	19790	59	-56.4	-84.8	297	6
2023-09-13T18:00	19813	59	-56.2	-84.6	302	6
2023-09-13T18:00	19836	59	-56.3	-84.7	307	5
2023-09-13T18:00	19861	59	-56.4	-84.8	311	5
2023-09-13T18:00	19881	58	-55.8	-84.8	313	5
2023-09-13T18:00	19902	58	-55.7	-84.7	312	4
2023-09-13T18:00	19923	58	-55.8	-84.8	309	4
2023-09-13T18:00	19949	58	-55.9	-84.4	306	4
2023-09-13T18:00	19975	58	-56.0	-84.5	304	4
2023-09-13T18:00	19997	57	-56.2	-84.6	304	4
2023-09-13T18:00	20018	57	-56.1	-84.6	306	5
2023-09-13T18:00	20040	57	-55.9	-84.4	309	5
2023-09-13T18:00	20063	57	-56.0	-84.5	311	5
2023-09-13T18:00	20082	57	-56.0	-84.5	311	5
2023-09-13T18:00	20108	56	-56.1	-84.6	310	5
2023-09-13T18:00	20130	56	-56.2	-84.6	307	5
2023-09-13T18:00	20154	56	-56.2	-84.6	302	5
2023-09-13T18:00	20174	56	-56.2	-84.6	297	6
2023-09-13T18:00	20198	56	-56.2	-84.6	293	6
2023-09-13T18:00	20221	55	-56.3	-84.7	291	6
2023-09-13T18:00	20245	55	-56.5	-84.9	291	6
2023-09-13T18:00	20267	55	-56.7	-85.0	292	6
2023-09-13T18:00	20291	55	-56.7	-85.0	294	6
2023-09-13T18:00	20319	55	-56.6	-84.9	298	6
2023-09-13T18:00	20337	54	-56.6	-84.9	302	5
2023-09-13T18:00	20360	54	-56.4	-85.2	306	5
2023-09-13T18:00	20385	54	-56.1	-85.0	309	5
2023-09-13T18:00	20411	54	-55.9	-84.8	310	4
2023-09-13T18:00	20431	54	-55.7	-84.7	310	4
2023-09-13T18:00	20456	53	-55.5	-84.5	310	3
2023-09-13T18:00	20480	53	-55.3	-84.4	308	3
2023-09-13T18:00	20502	53	-55.2	-84.3	306	2
2023-09-13T18:00	20527	53	-55.3	-84.4	301	2
2023-09-13T18:00	20550	53	-55.3	-84.4	292	1
2023-09-13T18:00	20574	52	-55.2	-84.3	272	1
2023-09-13T18:00	20595	52	-55.4	-84.5	245	1
2023-09-13T18:00	20618	52	-55.4	-84.5	234	1
2023-09-13T18:00	20639	52	-55.5	-84.5	234	2
2023-09-13T18:00	20662	52	-55.5	-84.5	240	2
2023-09-13T18:00	20685	51	-55.4	-84.5	246	3
2023-09-13T18:00	20709	51	-55.4	-84.5	249	3
2023-09-13T18:00	20731	51	-55.5	-84.5	251	4
2023-09-13T18:00	20757	51	-55.6	-84.6	251	4
2023-09-13T18:00	20772	51	-55.3	-84.4	251	5
2023-09-13T18:00	20802	51	-55.2	-84.3	251	5
2023-09-13T18:00	20815	50	-55.0	-84.2	251	5
2023-09-13T18:00	20838	50	-55.1	-84.2	251	5
2023-09-13T18:00	20857	50	-55.2	-84.3	253	5
2023-09-13T18:00	20880	50	-55.2	-84.3	255	5
2023-09-13T18:00	20906	50	-55.3	-84.4	257	5
2023-09-13T18:00	20926	50	-55.3	-84.4	259	5
2023-09-13T18:00	20945	49	-55.4	-84.5	261	4
2023-09-13T18:00	20966	49	-55.5	-84.5	263	4
2023-09-13T18:00	20990	49	-55.6	-84.6	265	4
2023-09-13T18:00	21012	49	-55.7	-84.7	268	3
2023-09-13T18:00	21038	49	-55.7	-84.7	271	3
2023-09-13T18:00	21061	48	-55.8	-84.8	276	3
2023-09-13T18:00	21081	48	-55.8	-84.8	279	4
2023-09-13T18:00	21103	48	-55.8	-84.8	281	4
2023-09-13T18:00	21123	48	-55.9	-84.8	281	4
2023-09-13T18:00	21144	48	-55.9	-84.8	279	4
2023-09-13T18:00	21167	48	-55.9	-84.8	274	4
2023-09-13T18:00	21191	48	-55.8	-84.8	268	4
2023-09-13T18:00	21212	47	-55.7	-84.7	260	4
2023-09-13T18:00	21232	47	-55.7	-84.7	253	4
2023-09-13T18:00	21255	47	-55.9	-84.8	247	4
2023-09-13T18:00	21279	47	-55.9	-84.8	243	5
2023-09-13T18:00	21303	47	-56.0	-84.9	241	5
2023-09-13T18:00	21323	47	-56.0	-84.9	241	5
2023-09-13T18:00	21346	46	-56.2	-85.1	244	6
2023-09-13T18:00	21369	46	-56.3	-85.1	248	6
2023-09-13T18:00	21390	46	-56.4	-85.2	253	7
2023-09-13T18:00	21412	46	-56.3	-85.1	259	7
2023-09-13T18:00	21437	46	-56.1	-85.0	264	7
2023-09-13T18:00	21459	46	-56.0	-84.9	269	7
2023-09-13T18:00	21479	45	-56.0	-84.9	273	7
2023-09-13T18:00	21500	45	-56.0	-84.9	277	7
2023-09-13T18:00	21524	45	-56.0	-84.9	282	7
2023-09-13T18:00	21547	45	-55.6	-85.1	286	7
2023-09-13T18:00	21572	45	-55.5	-85.0	291	7
2023-09-13T18:00	21591	45	-55.5	-85.0	295	7
2023-09-13T18:00	21615	44	-55.5	-85.0	299	7
2023-09-13T18:00	21639	44	-55.4	-84.5	302	6
2023-09-13T18:00	21657	44	-55.5	-84.5	304	6
2023-09-13T18:00	21682	44	-55.5	-84.5	304	6
2023-09-13T18:00	21699	44	-55.4	-84.5	305	6
2023-09-13T18:00	21722	44	-55.4	-84.5	304	6
2023-09-13T18:00	21749	44	-55.3	-84.4	304	5
2023-09-13T18:00	21768	43	-55.2	-84.8	303	5
2023-09-13T18:00	21789	43	-55.2	-84.8	302	4
2023-09-13T18:00	21817	43	-55.2	-84.8	300	4
2023-09-13T18:00	21835	43	-55.1	-84.7	298	4
2023-09-13T18:00	21866	43	-55.1	-84.7	294	4
2023-09-13T18:00	21879	43	-55.1	-84.7	291	4
2023-09-13T18:00	21909	42	-55.1	-84.7	290	4
2023-09-13T18:00	21933	42	-55.0	-84.6	289	5
2023-09-13T18:00	21954	42	-55.1	-84.2	290	5
2023-09-13T18:00	21976	42	-55.2	-84.3	292	5
2023-09-13T18:00	22004	42	-55.3	-84.4	295	5
2023-09-13T18:00	22023	42	-55.5	-84.5	298	5
2023-09-13T18:00	22047	42	-55.6	-84.6	301	5
2023-09-13T18:00	22069	41	-55.7	-84.7	304	5
2023-09-13T18:00	22092	41	-55.6	-84.6	305	5
2023-09-13T18:00	22118	41	-55.6	-84.6	306	4
2023-09-13T18:00	22139	41	-55.6	-84.6	307	4
2023-09-13T18:00	22165	41	-55.5	-84.5	308	4
2023-09-13T18:00	22183	41	-55.4	-84.5	309	4
2023-09-13T18:00	22208	41	-55.5	-84.5	310	4
2023-09-13T18:00	22228	40	-55.6	-84.6	309	3
2023-09-13T18:00	22252	40	-55.7	-84.7	307	3
2023-09-13T18:00	22276	40	-55.9	-84.8	302	3
2023-09-13T18:00	22302	40	-55.9	-84.8	297	3
2023-09-13T18:00	22328	40	-55.8	-84.8	293	3
2023-09-13T18:00	22347	40	-55.7	-84.7	291	3
2023-09-13T18:00	22369	39	-55.7	-84.7	291	3
2023-09-13T18:00	22395	39	-55.9	-84.8	291	3
2023-09-13T18:00	22418	39	-56.0	-84.9	291	2
2023-09-13T18:00	22446	39	-56.0	-84.9	289	2
2023-09-13T18:00	22470	39	-56.1	-85.0	284	2
2023-09-13T18:00	22495	39	-56.0	-84.9	276	2
2023-09-13T18:00	22517	39	-56.0	-84.9	269	2
2023-09-13T18:00	22538	38	-56.1	-85.0	263	2
2023-09-13T18:00	22562	38	-55.8	-85.2	259	2
2023-09-13T18:00	22587	38	-55.6	-85.1	257	2
2023-09-13T18:00	22610	38	-55.7	-85.2	256	2
2023-09-13T18:00	22627	38	-55.8	-84.8	255	3
2023-09-13T18:00	22655	38	-55.7	-84.7	255	3
2023-09-13T18:00	22677	38	-55.8	-84.8	254	3
2023-09-13T18:00	22694	38	-55.9	-84.8	253	3
2023-09-13T18:00	22717	37	-56.0	-84.9	253	3
2023-09-13T18:00	22745	37	-56.0	-84.9	254	2
2023-09-13T18:00	22767	37	-56.1	-85.0	258	2
2023-09-13T18:00	22790	37	-56.1	-85.0	264	2
2023-09-13T18:00	22813	37	-55.9	-84.8	268	2
2023-09-13T18:00	22833	37	-55.9	-84.8	269	2
2023-09-13T18:00	22862	37	-56.0	-84.9	264	2
2023-09-13T18:00	22882	36	-56.0	-84.9	254	2
2023-09-13T18:00	22908	36	-56.0	-84.9	242	2
2023-09-13T18:00	22930	36	-56.1	-85.0	232	2
2023-09-13T18:00	22954	36	-56.2	-85.1	226	2
2023-09-13T18:00	22974	36	-56.3	-85.1	223	3
2023-09-13T18:00	23001	36	-56.4	-85.2	224	3
2023-09-13T18:00	23024	36	-56.5	-85.3	225	3
2023-09-13T18:00	23054	35	-56.4	-85.2	226	3
2023-09-13T18:00	23073	35	-56.4	-85.2	227	4
2023-09-13T18:00	23100	35	-56.5	-85.3	229	4
2023-09-13T18:00	23120	35	-56.6	-85.4	231	4
2023-09-13T18:00	23143	35	-56.7	-85.4	234	4
2023-09-13T18:00	23169	35	-56.6	-85.4	237	4
2023-09-13T18:00	23197	35	-56.6	-85.4	240	4
2023-09-13T18:00	23219	35	-56.6	-85.4	242	4
2023-09-13T18:00	23242	34	-56.7	-85.0	243	5
2023-09-13T18:00	23269	34	-56.8	-85.1	244	5
2023-09-13T18:00	23288	34	-57.0	-85.2	244	6
2023-09-13T18:00	23313	34	-57.1	-85.3	246	6
2023-09-13T18:00	23335	34	-57.1	-85.3	248	6
2023-09-13T18:00	23356	34	-57.2	-85.4	251	7
2023-09-13T18:00	23384	34	-57.2	-85.8	254	7
2023-09-13T18:00	23407	34	-57.0	-85.7	257	7
2023-09-13T18:00	23432	33	-56.9	-85.6	260	7
2023-09-13T18:00	23455	33	-56.9	-85.6	262	7
2023-09-13T18:00	23478	33	-57.0	-85.7	263	7
2023-09-13T18:00	23502	33	-56.9	-85.6	264	7
2023-09-13T18:00	23523	33	-56.9	-85.6	264	7
2023-09-13T18:00	23549	33	-56.9	-85.6	264	7
2023-09-13T18:00	23572	33	-56.7	-85.4	264	7
2023-09-13T18:00	23597	33	-56.7	-85.9	266	7
2023-09-13T18:00	23617	32	-56.5	-85.8	269	7
2023-09-13T18:00	23643	32	-56.3	-85.6	273	6
2023-09-13T18:00	23660	32	-55.9	-85.3	278	6
2023-09-13T18:00	23686	32	-55.7	-85.2	283	6
2023-09-13T18:00	23711	32	-55.6	-85.6	288	5
2023-09-13T18:00	23729	32	-55.4	-85.4	294	4
2023-09-13T18:00	23746	32	-55.2	-85.3	300	4
2023-09-13T18:00	23781	32	-54.9	-85.1	308	3
2023-09-13T18:00	23797	32	-54.9	-85.1	315	2
2023-09-13T18:00	23818	31	-54.8	-85.0	322	2
2023-09-13T18:00	23845	31	-54.9	-85.1	325	1
2023-09-13T18:00	23872	31	-55.0	-85.1	316	1
2023-09-13T18:00	23890	31	-54.8	-85.0	264	1
2023-09-13T18:00	23911	31	-54.7	-84.9	231	1
2023-09-13T18:00	23929	31	-54.5	-84.8	224	2
2023-09-13T18:00	23955	31	-54.4	-84.7	222	2
2023-09-13T18:00	23981	31	-54.5	-84.8	221	3
2023-09-13T18:00	24001	31	-54.6	-84.8	220	3
2023-09-13T18:00	24029	30	-54.5	-84.8	220	4
2023-09-13T18:00	24049	30	-54.4	-84.7	220	4
2023-09-13T18:00	24076	30	-54.4	-84.7	221	4
2023-09-13T18:00	24102	30	-54.3	-84.1	223	4
2023-09-13T18:00	24117	30	-54.4	-84.2	227	4
2023-09-13T18:00	24146	30	-54.3	-84.1	232	4
2023-09-13T18:00	24172	30	-54.4	-84.2	239	4
2023-09-13T18:00	24195	30	-54.5	-84.3	246	3
2023-09-13T18:00	24222	30	-54.6	-84.3	252	3
2023-09-13T18:00	24244	29	-54.6	-84.3	256	3
2023-09-13T18:00	24269	29	-54.6	-84.3	257	2
2023-09-13T18:00	24297	29	-54.7	-84.4	253	2
2023-09-13T18:00	24318	29	-54.9	-84.6	248	2
2023-09-13T18:00	24351	29	-54.9	-84.6	241	2
2023-09-13T18:00	24375	29	-54.8	-84.5	236	2
2023-09-13T18:00	24401	29	-54.8	-84.5	234	2
2023-09-13T18:00	24425	29	-54.8	-84.5	232	2
2023-09-13T18:00	24447	28	-54.8	-84.5	232	2
2023-09-13T18:00	24469	28	-54.8	-84.5	234	2
2023-09-13T18:00	24500	28	-54.7	-84.4	237	3
2023-09-13T18:00	24521	28	-54.7	-84.4	240	3
2023-09-13T18:00	24547	28	-54.6	-84.3	241	4
2023-09-13T18:00	24571	28	-54.7	-84.4	241	4
2023-09-13T18:00	24597	28	-54.7	-84.4	240	5
2023-09-13T18:00	24618	28	-54.7	-84.4	239	6
2023-09-13T18:00	24650	28	-54.6	-84.8	239	6
2023-09-13T18:00	24670	28	-54.8	-85.0	239	6
2023-09-13T18:00	24702	27	-54.7	-84.9	240	7
2023-09-13T18:00	24721	27	-54.6	-84.8	242	7
2023-09-13T18:00	24745	27	-54.6	-84.8	244	8
2023-09-13T18:00	24782	27	-54.6	-84.8	245	8
2023-09-13T18:00	24802	27	-54.7	-84.9	248	8
2023-09-13T18:00	24818	27	-54.7	-84.9	250	8
2023-09-13T18:00	24850	27	-54.6	-84.8	253	8
2023-09-13T18:00	24878	27	-54.4	-84.7	257	8
2023-09-13T18:00	24902	27	-54.4	-84.7	261	8
2023-09-13T18:00	24931	26	-54.5	-84.8	264	8
2023-09-13T18:00	24950	26	-54.6	-84.8	266	8
2023-09-13T18:00	24974	26	-54.3	-84.6	267	8
2023-09-13T18:00	25001	26	-54.2	-84.5	268	8
2023-09-13T18:00	25026	26	-54.1	-84.5	267	8
2023-09-13T18:00	25050	26	-53.9	-84.3	267	9
2023-09-13T18:00	25085	26	-53.8	-84.2	266	9
2023-09-13T18:00	25109	26	-53.9	-84.3	267	10
2023-09-13T18:00	25130	26	-53.8	-84.2	267	11
2023-09-13T18:00	25160	26	-53.7	-84.2	268	11
2023-09-13T18:00	25187	25	-53.7	-84.2	270	11
2023-09-13T18:00	25216	25	-53.7	-84.2	271	11
2023-09-13T18:00	25236	25	-53.9	-84.3	273	11
2023-09-13T18:00	25257	25	-53.7	-84.2	274	10
2023-09-13T18:00	25287	25	-53.5	-84.0	275	9
2023-09-13T18:00	25318	25	-53.5	-84.0	276	8
2023-09-13T18:00	25340	25	-53.6	-84.1	275	7
2023-09-13T18:00	25363	25	-53.7	-84.2	275	6
2023-09-13T18:00	25387	25	-53.6	-84.1	274	6
2023-09-13T18:00	25418	25	-53.6	-84.6	273	6
2023-09-13T18:00	25439	24	-53.5	-84.6	272	6
2023-09-13T18:00	25472	24	-53.1	-84.3	271	6
2023-09-13T18:00	25494	24	-52.7	-84.0	271	6
2023-09-13T18:00	25524	24	-52.6	-84.5	271	7
2023-09-13T18:00	25551	24	-52.3	-84.3	272	7
2023-09-13T18:00	25574	24	-52.2	-84.2	275	6
2023-09-13T18:00	25602	24	-52.0	-84.1	278	6
2023-09-13T18:00	25622	24	-51.9	-84.0	283	6
2023-09-13T18:00	25657	24	-51.7	-83.9	288	6
2023-09-13T18:00	25681	24	-51.4	-83.6	294	6
2023-09-13T18:00	25701	23	-51.4	-83.6	300	6
2023-09-13T18:00	25730	23	-51.3	-83.6	307	6
2023-09-13T18:00	25763	23	-51.2	-83.5	313	6
2023-09-13T18:00	25791	23	-51.3	-83.6	317	5
2023-09-13T18:00	25816	23	-51.3	-83.6	317	5
2023-09-13T18:00	25841	23	-51.4	-83.6	313	4
2023-09-13T18:00	25868	23	-51.3	-83.6	304	4
2023-09-13T18:00	25895	23	-50.9	-83.3	290	4
2023-09-13T18:00	25927	23	-50.7	-83.1	274	4
2023-09-13T18:00	25955	23	-50.5	-83.0	260	4
2023-09-13T18:00	25983	22	-50.4	-82.9	250	5
2023-09-13T18:00	26005	22	-50.4	-82.9	243	5
2023-09-13T18:00	26041	22	-50.2	-82.8	240	6
2023-09-13T18:00	26066	22	-49.9	-83.2	239	6
2023-09-13T18:00	26094	22	-49.6	-83.0	241	7
2023-09-13T18:00	26130	22	-49.0	-82.6	246	7
2023-09-13T18:00	26154	22	-48.7	-82.4	251	7
2023-09-13T18:00	26184	22	-48.7	-82.4	258	7
2023-09-13T18:00	26208	22	-48.8	-82.4	264	7
2023-09-13T18:00	26227	22	-49.0	-81.9	269	6
2023-09-13T18:00	26254	22	-49.1	-82.0	272	6
2023-09-13T18:00	26286	21	-49.2	-82.0	274	5
2023-09-13T18:00	26314	21	-49.2	-82.0	274	5
2023-09-13T18:00	26338	21	-49.1	-82.0	274	4
2023-09-13T18:00	26364	21	-49.1	-82.0	271	3
2023-09-13T18:00	26403	21	-49.1	-82.0	265	3
2023-09-13T18:00	26423	21	-49.2	-82.0	252	2
2023-09-13T18:00	26456	21	-49.3	-82.1	234	2
2023-09-13T18:00	26478	21	-49.3	-82.1	218	3
2023-09-13T18:00	26509	21	-49.2	-82.0	209	4
2023-09-13T18:00	26545	21	-49.0	-82.6	204	5
2023-09-13T18:00	26552	21	-48.7	-82.4	202	6
2023-09-13T18:00	26589	20	-48.5	-82.2	202	7
2023-09-13T18:00	26612	20	-48.4	-82.2	202	8
2023-09-13T18:00	26645	20	-48.3	-82.1	203	8
2023-09-13T18:00	26663	20	-48.2	-82.0	205	9
2023-09-13T18:00	26692	20	-48.3	-82.1	208	9
2023-09-13T18:00	26718	20	-48.3	-82.1	212	9
2023-09-13T18:00	26738	20	-48.4	-82.2	217	9
2023-09-13T18:00	26764	20	-48.2	-82.0	222	9
2023-09-13T18:00	26792	20	-48.1	-81.9	228	8
2023-09-13T18:00	26823	20	-48.0	-81.9	235	8
2023-09-13T18:00	26837	20	-47.9	-81.8	241	7
2023-09-13T18:00	26877	20	-48.1	-81.9	248	7
2023-09-13T18:00	26895	20	-48.3	-82.1	255	6
2023-09-13T18:00	26927	19	-48.4	-82.2	261	6
2023-09-13T18:00	26943	19	-48.2	-82.0	265	6
2023-09-13T18:00	26976	19	-48.0	-81.9	269	6
2023-09-13T18:00	27002	19	-47.7	-81.6	272	6
2023-09-13T18:00	27024	19	-47.4	-81.4	275	6
2023-09-13T18:00	27053	19	-47.4	-81.4	277	7
2023-09-13T18:00	27077	19	-47.5	-81.5	279	8
2023-09-13T18:00	27100	19	-47.5	-81.5	280	8
2023-09-13T18:00	27124	19	-47.5	-81.5	281	9
2023-09-13T18:00	27150	19	-47.6	-81.6	281	9
2023-09-13T18:00	27184	19	-47.7	-81.6	280	9
2023-09-13T18:00	27210	19	-47.8	-81.7	279	9
2023-09-13T18:00	27240	19	-47.9	-81.8	278	9
2023-09-13T18:00	27271	18	-48.0	-81.9	277	9
2023-09-13T18:00	27305	18	-48.1	-81.9	276	9
2023-09-13T18:00	27324	18	-48.1	-81.9	276	8
2023-09-13T18:00	27355	18	-47.9	-81.8	274	8
2023-09-13T18:00	27388	18	-48.0	-81.9	272	7
2023-09-13T18:00	27420	18	-48.0	-81.9	268	7
2023-09-13T18:00	27444	18	-48.0	-81.9	264	7
2023-09-13T18:00	27481	18	-47.9	-81.8	260	7
2023-09-13T18:00	27498	18	-47.9	-81.8	256	7
2023-09-13T18:00	27537	18	-48.1	-81.9	254	7
2023-09-13T18:00	27556	18	-48.3	-82.1	253	7
2023-09-13T18:00	27586	18	-48.5	-82.2	253	7
2023-09-13T18:00	27612	18	-48.6	-82.3	254	8
2023-09-13T18:00	27647	17	-48.5	-82.2	256	7
2023-09-13T18:00	27670	17	-48.6	-82.3	258	7
2023-09-13T18:00	27697	17	-48.7	-82.4	259	7
2023-09-13T18:00	27731	17	-48.7	-82.4	261	7
2023-09-13T18:00	27760	17	-48.7	-82.4	262	7
2023-09-13T18:00	27778	17	-48.8	-82.4	263	7
2023-09-13T18:00	27816	17	-48.7	-82.4	263	7
2023-09-13T18:00	27847	17	-48.6	-82.3	263	8
2023-09-13T18:00	27879	17	-48.5	-82.2	262	9
2023-09-13T18:00	27916	17	-48.4	-82.2	260	9
2023-09-13T18:00	27948	17	-48.4	-82.2	258	10
2023-09-13T18:00	27978	17	-48.5	-82.2	256	10
2023-09-13T18:00	27991	17	-48.7	-82.4	255	10
2023-09-13T18:00	28024	16	-48.5	-82.2	254	10
2023-09-13T18:00	28063	16	-48.6	-82.3	253	10
2023-09-13T18:00	28077	16	-48.5	-82.2	253	9
2023-09-13T18:00	28117	16	-48.4	-82.2	253	9
2023-09-13T18:00	28146	16	-48.3	-82.1	253	9
2023-09-13T18:00	28168	16	-48.3	-82.1	253	9
2023-09-13T18:00	28188	16	-48.4	-82.2	255	9
2023-09-13T18:00	28226	16	-48.3	-82.1	258	8
2023-09-13T18:00	28251	16	-48.0	-81.9	262	8
2023-09-13T18:00	28287	16	-47.9	-81.8	265	8
2023-09-13T18:00	28313	16	-47.9	-81.8	268	8
2023-09-13T18:00	28332	16	-47.8	-82.5	270	8
2023-09-13T18:00	28357	16	-47.5	-82.3	271	9
2023-09-13T18:00	28395	16	-47.2	-82.1	272	9
2023-09-13T18:00	28434	16	-47.3	-82.2	274	10
2023-09-13T18:00	28459	15	-47.4	-82.2	275	10
2023-09-13T18:00	28493	15	-47.1	-82.0	275	11
2023-09-13T18:00	28505	15	-47.0	-81.9	276	11
2023-09-13T18:00	28540	15	-46.9	-81.9	275	12
2023-09-13T18:00	28567	15	-47.0	-81.9	274	12
2023-09-13T18:00	28592	15	-47.2	-82.1	272	12
2023-09-13T18:00	28631	15	-47.3	-82.2	272	13
2023-09-13T18:00	28664	15	-47.3	-82.2	272	13
2023-09-13T18:00	28672	15	-47.0	-81.9	273	14
2023-09-13T18:00	28704	15	-46.8	-81.8	274	14
2023-09-13T18:00	28739	15	-46.7	-81.7	275	14
2023-09-13T18:00	28768	15	-46.5	-81.6	276	14
2023-09-13T18:00	28800	15	-46.7	-81.7	277	14
2023-09-13T18:00	28825	15	-46.8	-81.8	277	14
2023-09-13T18:00	28851	15	-46.8	-81.8	277	13
2023-09-13T18:00	28883	14	-46.9	-81.9	276	13
2023-09-13T18:00	28915	14	-46.7	-81.7	276	13
2023-09-13T18:00	28953	14	-46.2	-81.4	276	13
2023-09-13T18:00	28974	14	-45.8	-81.1	275	13
2023-09-13T18:00	29007	14	-45.4	-81.7	275	13
2023-09-13T18:00	29028	14	-45.3	-81.6	276	13
2023-09-13T18:00	29062	14	-45.0	-81.4	276	14
2023-09-13T18:00	29089	14	-44.6	-81.2	277	14
2023-09-13T18:00	29111	14	-44.5	-81.1	278	14
2023-09-13T18:00	29163	14	-44.4	-81.0	278	14
2023-09-13T18:00	29173	14	-44.6	-81.2	278	14
2023-09-13T18:00	29214	14	-44.6	-81.2	277	13
2023-09-13T18:00	29239	14	-44.4	-81.0	276	13
2023-09-13T18:00	29270	14	-44.0	-80.7	275	13
2023-09-13T18:00	29287	14	-43.9	-80.7	273	12
2023-09-13T18:00	29339	14	-44.0	-80.7	272	12
2023-09-13T18:00	29350	13	-44.1	-80.8	270	13
2023-09-13T18:00	29385	13	-44.2	-80.9	269	13
2023-09-13T18:00	29414	13	-44.1	-80.8	269	13
2023-09-13T18:00	29442	13	-44.1	-80.8	269	14
2023-09-13T18:00	29469	13	-43.8	-80.6	269	14
2023-09-13T18:00	29504	13	-43.8	-80.6	270	14
2023-09-13T18:00	29530	13	-43.7	-80.5	271	13
2023-09-13T18:00	29565	13	-43.6	-80.4	272	13
2023-09-13T18:00	29586	13	-43.5	-80.4	273	12
2023-09-13T18:00	29613	13	-43.7	-80.5	275	12
2023-09-13T18:00	29654	13	-43.6	-80.4	276	11
2023-09-13T18:00	29675	13	-43.4	-80.3	279	11
2023-09-13T18:00	29703	13	-43.3	-80.2	282	10
2023-09-13T18:00	29739	13	-43.0	-80.0	286	10
2023-09-13T18:00	29764	13	-43.0	-80.0	290	11
2023-09-13T18:00	29795	13	-43.0	-80.0	294	11
2023-09-13T18:00	29808	13	-42.9	-80.0	298	11
2023-09-13T18:00	29843	13	-42.8	-79.9	302	11
2023-09-13T18:00	29877	13	-42.7	-79.8	305	11
2023-09-13T18:00	29895	12	-42.3	-79.5	310	11
2023-09-13T18:00	29930	12	-42.5	-79.7	315	11
2023-09-13T18:00	29957	12	-42.6	-79.7	321	10
2023-09-13T18:00	29985	12	-42.1	-80.5	326	10
2023-09-13T18:00	30016	12	-41.6	-80.1	330	10
2023-09-13T18:00	30032	12	-41.4	-80.0	334	9
2023-09-13T18:00	30072	12	-41.4	-80.0	336	8
2023-09-13T18:00	30076	12	-41.5	-80.1	338	8
2023-09-13T18:00	30101	12	-41.6	-80.1	339	7
2023-09-13T18:00	30143	12	-41.7	-80.2	340	6
2023-09-13T18:00	30158	12	-41.7	-80.2	340	5
2023-09-13T18:00	30192	12	-41.7	-79.1	339	4
2023-09-13T18:00	30227	12	-41.7	-79.1	334	3
2023-09-13T18:00	30249	12	-41.7	-79.1	321	2
2023-09-13T18:00	30284	12	-41.7	-79.1	278	1
2023-09-13T18:00	30314	12	-41.9	-79.2	229	1
2023-09-13T18:00	30337	12	-42.0	-79.3	211	2
2023-09-13T18:00	30359	12	-41.9	-79.2	206	3
2023-09-13T18:00	30394	12	-42.1	-79.4	204	4
2023-09-13T18:00	30420	12	-42.1	-79.4	203	5
2023-09-13T18:00	30443	11	-42.3	-79.5	203	6
2023-09-13T18:00	30478	11	-42.4	-79.6	204	6
2023-09-13T18:00	30508	11	-42.6	-79.7	205	7
2023-09-13T18:00	30531	11	-42.8	-79.9	207	8
2023-09-13T18:00	30555	11	-42.9	-80.0	210	8
2023-09-13T18:00	30594	11	-43.1	-80.1	214	8
2023-09-13T18:00	30611	11	-43.2	-80.2	219	9
2023-09-13T18:00	30649	11	-43.2	-80.2	224	9
2023-09-13T18:00	30694	11	-43.1	-80.1	228	9
2023-09-13T18:00	30712	11	-43.0	-80.0	231	10
2023-09-13T18:00	30735	11	-42.7	-80.9	232	10
2023-09-13T18:00	30754	11	-42.6	-80.8	233	11
2023-09-13T18:00	30786	11	-42.6	-80.8	234	11
2023-09-13T18:00	30823	11	-42.5	-80.8	233	12
2023-09-13T18:00	30840	11	-42.3	-80.6	232	12
2023-09-13T18:00	30875	11	-42.2	-80.6	231	12
2023-09-13T18:00	30898	11	-42.4	-80.7	230	11
2023-09-13T18:00	30945	11	-42.3	-80.6	231	11
2023-09-13T18:00	30956	11	-42.3	-80.6	232	11
2023-09-13T18:00	30994	11	-42.3	-80.6	234	11
2023-09-13T18:00	31012	11	-42.6	-80.8	238	11
2023-09-13T18:00	31059	11	-42.7	-80.9	241	11
2023-09-13T18:00	31083	10	-42.5	-80.8	244	11
2023-09-13T18:00	31100	10	-42.5	-80.8	247	11
2023-09-13T18:00	31140	10	-42.5	-80.8	249	11
2023-09-13T18:00	31175	10	-42.3	-80.6	251	12
2023-09-13T18:00	31196	10	-42.2	-80.6	253	12
2023-09-13T18:00	31232	10	-42.1	-80.5	255	13
2023-09-13T18:00	31263	10	-42.1	-80.5	257	13
2023-09-13T18:00	31300	10	-42.2	-80.6	260	13
2023-09-13T18:00	31331	10	-42.0	-80.4	263	13
2023-09-13T18:00	31365	10	-41.6	-80.1	266	13
2023-09-13T18:00	31383	10	-41.6	-80.1	268	13
2023-09-13T18:00	31413	10	-41.8	-80.3	270	13
2023-09-13T18:00	31456	10	-41.9	-80.4	271	12
2023-09-13T18:00	31473	10	-41.9	-80.4	271	12
2023-09-13T18:00	31508	10	-42.0	-80.4	270	12
2023-09-13T18:00	31540	10	-42.0	-80.4	269	12
2023-09-13T18:00	31564	10	-41.9	-80.4	268	12
2023-09-13T18:00	31595	10	-41.9	-80.4	267	12
2023-09-13T18:00	31630	10	-42.0	-80.4	266	12
2023-09-13T18:00	31670	10	-42.1	-80.5	265	13
2023-09-13T18:00	31681	10	-42.2	-80.6	265	13
2023-09-13T18:00	31740	10	-42.4	-80.7	265	13
2023-09-13T18:00	31771	9	-42.2	-80.6	265	12
2023-09-13T18:00	31802	9	-41.8	-80.3	266	12
2023-09-13T18:00	31826	9	-41.5	-80.1	268	11
2023-09-13T18:00	31838	9	-41.5	-80.1	271	11
2023-09-13T18:00	31861	9	-41.3	-79.9	273	10
2023-09-13T18:00	31921	9	-41.0	-79.7	275	10
2023-09-13T18:00	31929	9	-40.8	-79.6	276	10
2023-09-13T18:00	31979	9	-40.7	-79.5	277	9
2023-09-13T18:00	32003	9	-40.8	-79.6	276	8
2023-09-13T18:00	32023	9	-40.9	-79.7	275	8
2023-09-13T18:00	32047	9	-41.1	-79.8	274	7
2023-09-13T18:00	32103	9	-41.2	-79.9	272	7
2023-09-13T18:00	32115	9	-41.2	-79.9	270	6
2023-09-13T18:00	32138	9	-41.2	-79.9	268	6
2023-09-13T18:00	32184	9	-41.0	-79.7	267	6
2023-09-13T18:00	32212	9	-40.9	-79.7	267	6
2023-09-13T18:00	32244	9	-40.7	-79.5	267	6
2023-09-13T18:00	32274	9	-40.5	-79.4	268	6
2023-09-13T18:00	32300	9	-40.6	-79.5	270	6
2023-09-13T18:00	32330	9	-40.5	-79.4	273	6
2023-09-13T18:00	32367	9	-40.4	-79.3	276	7
2023-09-13T18:00	32372	9	-40.3	-79.2	279	7
2023-09-13T18:00	32409	9	-40.5	-79.4	281	7
2023-09-13T18:00	32412	9	-40.6	-79.5	283	7
2023-09-13T18:00	32456	9	-40.7	-79.5	283	8
2023-09-13T18:00	32493	9	-40.8	-79.6	283	8
2023-09-13T18:00	32515	8	-40.9	-79.7	281	8
2023-09-13T18:00	32542	8	-41.0	-79.7	279	8
2023-09-13T18:00	32557	8	-40.9	-79.7	275	8
2023-09-13T18:00	32575	8	-40.8	-79.6	271	8
2023-09-13T18:00	32592	8	-40.8	-79.6	266	8
2023-09-13T18:00	32670	8	-40.7	-79.5	263	8
2023-09-13T18:00	32678	8	-40.3	-79.2	262	8
2023-09-13T18:00	32692	8	-40.3	-79.2	264	8
2023-09-13T18:00	32732	8	-40.2	-79.2	266	8
2023-09-13T18:00	32768	8	-39.8	-78.9	269	8
2023-09-13T18:00	32794	8	-39.5	-78.7	269	8
2023-09-13T18:00	32836	8	-39.1	-78.4	268	8
2023-09-13T18:00	32856	8	-39.0	-78.3	264	7
2023-09-13T18:00	32881	8	-39.0	-78.3	260	7
2023-09-13T18:00	32889	8	-38.9	-78.3	256	7
2023-09-13T18:00	32931	8	-38.9	-78.3	254	7
2023-09-13T18:00	32955	8	-38.8	-78.2	253	8
2023-09-13T18:00	32992	8	-38.5	-78.0	252	8
2023-09-13T18:00	33028	8	-38.5	-78.0	250	8
2023-09-13T18:00	33047	8	-38.3	-77.9	247	9
2023-09-13T18:00	33068	8	-38.3	-77.9	244	9
2023-09-13T18:00	33093	8	-38.5	-78.0	241	9
2023-09-13T18:00	33134	8	-38.4	-77.9	241	10
2023-09-13T18:00	33158	8	-38.3	-77.9	241	10
2023-09-13T18:00	33199	8	-38.4	-77.9	242	10
2023-09-13T18:00	33220	8	-38.5	-78.0	244	11
2023-09-13T18:00	33275	8	-38.5	-78.0	246	11
2023-09-13T18:00	33310	8	-38.6	-78.1	248	12
2023-09-13T18:00	33319	8	-38.8	-78.2	250	12
2023-09-13T18:00	33364	7	-38.9	-78.3	253	12
2023-09-13T18:00	33409	7	-38.6	-78.1	258	13
2023-09-13T18:00	33445	7	-38.2	-77.8	259	13
2023-09-13T18:00	33469	7	-37.8	-77.5	260	13
2023-09-13T18:00	33506	7	-37.8	-77.5	262	13
2023-09-13T18:00	33530	7	-37.9	-77.6	263	13
2023-09-13T18:00	33540	7	-38.0	-77.6	265	13
2023-09-13T18:00	33597	7	-38.1	-77.7	267	12
2023-09-13T18:00	33632	7	-38.1	-77.7	269	12
2023-09-13T18:00	33653	7	-38.0	-77.6	272	11
2023-09-13T18:00	33682	7	-37.7	-77.4	275	11
2023-09-13T18:00	33703	7	-37.7	-77.4	279	10
2023-09-13T18:00	33748	7	-37.7	-77.4	281	10
2023-09-13T18:00	33813	7	-37.7	-77.4	286	10
2023-09-13T18:00	33826	7	-37.8	-77.5	288	10
2023-09-13T18:00	33852	7	-37.9	-77.6	290	9
2023-09-13T18:00	33872	7	-38.0	-77.6	292	9
2023-09-13T18:00	33897	7	-38.1	-77.7	293	9
2023-09-13T18:00	33923	7	-38.1	-77.7	293	9
2023-09-13T18:00	33948	7	-38.1	-77.7	291	9
2023-09-13T18:00	33974	7	-38.2	-77.8	289	9
2023-09-13T18:00	34019	7	-38.2	-77.8	286	9
2023-09-13T18:00	34031	7	-38.0	-77.6	283	9
2023-09-13T18:00	34075	7	-38.0	-77.6	282	10
2023-09-13T18:00	34100	7	-37.7	-77.4	281	10
2023-09-13T18:00	34137	7	-37.5	-77.3	281	11
2023-09-13T18:00	34151	7	-37.5	-77.3	281	12
2023-09-13T18:00	34194	7	-37.7	-77.4	281	13
2023-09-13T18:00	34214	7	-37.8	-77.5	281	13
2023-09-13T18:00	34237	7	-37.7	-77.4	281	14
2023-09-13T18:00	34272	7	-37.7	-77.4	281	14
2023-09-13T18:00	34292	7	-37.8	-77.5	280	14
2023-09-13T18:00	34326	7	-37.8	-77.5	280	14
2023-09-13T18:00	34350	7	-37.7	-77.4	279	14
2023-09-13T18:00	34400	6	-37.6	-77.4	279	13
2023-09-13T18:00	34415	6	-37.7	-77.4	279	13
2023-09-13T18:00	34446	6	-37.6	-77.4	279	12
2023-09-13T18:00	34465	6	-37.5	-77.3	282	11
2023-09-13T18:00	34522	6	-37.5	-77.3	284	10
2023-09-13T18:00	34537	6	-37.6	-77.4	287	9
2023-09-13T18:00	34559	6	-37.6	-77.4	291	9
2023-09-13T18:00	34595	6	-37.6	-77.4	294	9
2023-09-13T18:00	34619	6	-37.3	-77.2	296	9
2023-09-13T18:00	34690	6	-37.3	-77.2	296	9
2023-09-13T18:00	34700	6	-37.1	-77.0	296	9
2023-09-13T18:00	34736	6	-36.9	-76.9	295	8
2023-09-13T18:00	34784	6	-36.9	-76.9	295	8
2023-09-13T18:00	34816	6	-36.8	-76.8	294	8
2023-09-13T18:00	34855	6	-36.9	-76.9	293	8
2023-09-13T18:00	34867	6	-37.0	-77.0	292	8
2023-09-13T18:00	34906	6	-37.2	-77.1	290	7
2023-09-13T18:00	34915	6	-37.2	-77.1	288	7
2023-09-13T18:00	34936	6	-37.3	-77.2	286	7
2023-09-13T18:00	34982	6	-37.5	-77.3	283	7
2023-09-13T18:00	35024	6	-37.4	-77.2	279	6
2023-09-13T18:00	35091	6	-37.0	-77.0	266	5
2023-09-13T18:00	35092	6	-36.8	-76.8	259	5
2023-09-13T18:00	35159	6	-36.8	-76.8	252	5
2023-09-13T18:00	35167	6	-36.8	-76.8	246	6
2023-09-13T18:00	35203	6	-36.8	-76.8	235	7
2023-09-13T18:00	35228	6	-36.6	-76.7	231	7
2023-09-13T18:00	35263	6	-36.6	-76.7	227	8
2023-09-13T18:00	35270	6	-36.6	-76.7	223	8
2023-09-13T18:00	35341	6	-36.5	-76.6	220	8
2023-09-13T18:00	35365	6	-36.4	-76.5	216	8
2023-09-13T18:00	35386	6	-36.3	-76.5	214	8
2023-09-13T18:00	35407	6	-36.2	-76.4	212	7
2023-09-13T18:00	35462	6	-36.2	-76.4	211	7
2023-09-13T18:00	35483	6	-36.4	-76.5	212	7
2023-09-13T18:00	35488	6	-36.4	-76.5	213	8
2023-09-13T18:00	35514	6	-36.1	-76.3	216	8
2023-09-13T18:00	35524	5	-35.8	-76.1	220	9
2023-09-13T18:00	35546	5	-35.8	-76.1	225	9
2023-09-13T18:00	35560	5	-35.8	-76.1	229	10
2023-09-13T18:00	35592	5	-35.7	-76.1	234	11
2023-09-13T18:00	35626	5	-35.6	-76.0	239	11
2023-09-13T18:00	35628	5	-35.3	-75.8	243	12
2023-09-13T18:00	35669	5	-35.1	-75.6	247	13
2023-09-13T18:00	35671	5	-35.0	-75.6	250	14
2023-09-13T18:00	35726	5	-34.8	-75.4	251	15
2023-09-13T18:00	35749	5	-34.5	-75.2	253	15
2023-09-13T18:00	35762	5	-33.9	-74.8	255	16
2023-09-13T18:00	35788	5	-33.2	-74.3	258	16
2023-09-13T18:00	35825	5	-32.3	-73.7	261	17
2023-09-13T18:00	35861	5	-31.8	-73.4	261	17
2023-09-14T00:00	112	1005	15.0	14.8	327	3
2023-09-14T00:00	143	1002	14.6	14.0	324	4
2023-09-14T00:00	165	999	14.4	13.7	323	5
2023-09-14T00:00	194	996	14.2	13.8	323	6
2023-09-14T00:00	222	992	13.9	13.6	324	7
2023-09-14T00:00	252	989	13.7	13.5	325	7
2023-09-14T00:00	274	986	13.5	13.4	328	7
2023-09-14T00:00	302	983	13.3	13.3	330	7
2023-09-14T00:00	329	980	13.1	13.1	332	8
2023-09-14T00:00	359	976	12.9	12.9	334	8
2023-09-14T00:00	386	973	12.7	12.7	337	8
2023-09-14T00:00	409	971	12.6	12.6	340	8
2023-09-14T00:00	432	968	12.5	12.5	344	9
2023-09-14T00:00	457	965	12.3	12.3	347	9
2023-09-14T00:00	483	962	12.3	11.4	351	9
2023-09-14T00:00	507	959	12.3	10.9	355	9
2023-09-14T00:00	531	957	12.3	10.8	358	8
2023-09-14T00:00	556	954	12.1	10.6	1	8
2023-09-14T00:00	583	951	12.1	10.1	4	8
2023-09-14T00:00	607	948	12.2	9.7	5	8
2023-09-14T00:00	640	945	12.4	8.9	5	8
2023-09-14T00:00	660	942	12.3	9.6	4	8
2023-09-14T00:00	684	939	12.2	9.8	3	7
2023-09-14T00:00	710	936	11.9	9.8	0	6
2023-09-14T00:00	736	934	11.8	10.9	356	5
2023-09-14T00:00	760	931	11.8	11.2	349	4
2023-09-14T00:00	784	928	11.8	11.5	338	4
2023-09-14T00:00	804	926	11.7	11.7	328	4
2023-09-14T00:00	826	924	11.7	11.7	322	4
2023-09-14T00:00	846	921	12.1	11.6	319	4
2023-09-14T00:00	870	919	12.4	11.3	319	5
2023-09-14T00:00	891	916	12.7	11.0	319	5
2023-09-14T00:00	919	913	12.6	10.6	319	5
2023-09-14T00:00	950	910	12.4	10.4	319	5
2023-09-14T00:00	977	907	12.2	10.5	320	5
2023-09-14T00:00	1005	904	11.9	10.1	321	5
2023-09-14T00:00	1032	901	11.8	10.0	324	5
2023-09-14T00:00	1063	898	11.6	9.8	326	5
2023-09-14T00:00	1092	895	11.3	9.6	327	5
2023-09-14T00:00	1126	891	11.0	9.5	327	5
2023-09-14T00:00	1151	888	10.8	9.6	326	5
2023-09-14T00:00	1177	886	10.5	9.5	325	5
2023-09-14T00:00	1203	883	10.2	9.3	325	5
2023-09-14T00:00	1232	880	10.0	9.4	327	5
2023-09-14T00:00	1258	877	9.7	9.3	330	5
2023-09-14T00:00	1283	875	9.5	9.3	332	5
2023-09-14T00:00	1306	872	9.2	9.2	332	5
2023-09-14T00:00	1330	870	9.0	9.0	331	6
2023-09-14T00:00	1354	867	8.9	8.9	328	6
2023-09-14T00:00	1377	865	8.8	8.8	325	6
2023-09-14T00:00	1400	862	8.7	8.7	322	7
2023-09-14T00:00	1428	859	8.6	8.6	319	7
2023-09-14T00:00	1459	856	8.4	8.4	316	6
2023-09-14T00:00	1488	853	8.2	8.2	312	6
2023-09-14T00:00	1514	851	8.0	8.0	309	6
2023-09-14T00:00	1534	848	7.9	7.7	307	6
2023-09-14T00:00	1555	846	8.9	6.7	304	5
2023-09-14T00:00	1580	844	8.8	6.8	302	5
2023-09-14T00:00	1600	842	8.7	6.6	297	5
2023-09-14T00:00	1624	839	8.6	6.5	291	4
2023-09-14T00:00	1651	837	8.6	6.3	283	4
2023-09-14T00:00	1676	834	8.5	6.4	276	4
2023-09-14T00:00	1711	831	8.3	6.3	270	5
2023-09-14T00:00	1740	828	8.2	6.2	268	5
2023-09-14T00:00	1769	825	8.0	6.1	267	5
2023-09-14T00:00	1788	822	8.0	6.1	267	5
2023-09-14T00:00	1818	820	7.9	5.9	267	5
2023-09-14T00:00	1838	818	7.8	5.7	267	6
2023-09-14T00:00	1863	815	7.6	5.6	267	6
2023-09-14T00:00	1884	813	7.5	5.6	267	6
2023-09-14T00:00	1913	811	7.2	5.4	267	7
2023-09-14T00:00	1935	808	7.1	5.4	266	7
2023-09-14T00:00	1961	806	6.9		264	8
2023-09-14T00:00	1977	804	6.8	5.1	262	8
2023-09-14T00:00	2004	802	6.7	4.9	259	8
2023-09-14T00:00	2027	799	6.6	4.7	257	8
2023-09-14T00:00	2049	797	6.5	4.4	256	8
2023-09-14T00:00	2071	795	6.4	4.4	257	7
2023-09-14T00:00	2095	793	6.3	3.7	260	7
2023-09-14T00:00	2122	790	6.3	3.6	266	6
2023-09-14T00:00	2153	787	6.3	3.2	273	6
2023-09-14T00:00	2191	784	6.1	2.7	278	6
2023-09-14T00:00	2217	781	5.9	2.3	281	6
2023-09-14T00:00	2243	779	5.7	2.2	282	7
2023-09-14T00:00	2265	776	5.5	2.2	281	7
2023-09-14T00:00	2288	774	5.3	2.1	280	7
2023-09-14T00:00	2306	772	5.1	2.1	278	7
2023-09-14T00:00	2327	771	5.0	2.1	276	7
2023-09-14T00:00	2349	768	4.8	1.8	273	7
2023-09-14T00:00	2370	766	4.6		271	8
2023-09-14T00:00	2399	764	4.5	0.6	270	8
2023-09-14T00:00	2423	762	4.4	0.1	268	8
2023-09-14T00:00	2445	759	4.2	-0.1	267	9
2023-09-14T00:00	2470	757	3.9	-0.3	265	9
2023-09-14T00:00	2487	755	3.8	-0.2	263	9
2023-09-14T00:00	2512	753	3.5	-0.5	261	9
2023-09-14T00:00	2536	751	3.3	-0.8	260	9
2023-09-14T00:00	2561	749	3.1	-0.8	261	9
2023-09-14T00:00	2585	746	2.9	-1.0	263	10
2023-09-14T00:00	2609	744	2.6	-1.2	266	10
2023-09-14T00:00	2633	742	2.4	-1.2	268	10
2023-09-14T00:00	2657	740	2.2	-1.8	271	10
2023-09-14T00:00	2684	738	2.0	-2.4	275	10
2023-09-14T00:00	2705	735	2.5		277	10
2023-09-14T00:00	2730	733	2.6	-13.7	279	9
2023-09-14T00:00	2750	731	2.6	-14.4	279	9
2023-09-14T00:00	2767	730	2.5	-14.3	277	9
2023-09-14T00:00	2795	727	2.4	-15.6	273	8
2023-09-14T00:00	2818	725	2.3	-13.9	269	8
2023-09-14T00:00	2839	723	2.2	-14.9	265	7
2023-09-14T00:00	2867	721	2.0		262	7
2023-09-14T00:00	2890	719	1.8	-16.3	261	7
2023-09-14T00:00	2909	717	1.7	-18.9	261	8
2023-09-14T00:00	2940	714	1.5	-19.8	261	8
2023-09-14T00:00	2963	712	1.4	-20.2	261	9
2023-09-14T00:00	2982	710	1.3	-20.7	261	9
2023-09-14T00:00	3011	708	1.1	-21.4	260	9
2023-09-14T00:00	3036	706	1.0	-21.6	259	9
2023-09-14T00:00	3061	704	0.8	-21.7	259	9
2023-09-14T00:00	3085	702	0.8	-20.8	258	9
2023-09-14T00:00	3108	699	0.7	-20.0	256	9
2023-09-14T00:00	3136	697	0.5	-20.2	253	9
2023-09-14T00:00	3161	695	0.3	-20.4	249	9
2023-09-14T00:00	3190	693	0.2	-20.7	245	9
2023-09-14T00:00	3216	690	-0.1	-20.9	241	9
2023-09-14T00:00	3243	688	-0.3	-20.8	238	8
2023-09-14T00:00	3286	684	-0.6	-20.8	236	8
2023-09-14T00:00	3313	682	-0.5	-21.2	235	7
2023-09-14T00:00	3338	680	-0.7	-21.6	234	7
2023-09-14T00:00	3356	678	-0.8	-21.9	235	8
2023-09-14T00:00	3385	676	-0.6	-23.1	237	8
2023-09-14T00:00	3410	674	-0.6	-23.2	241	9
2023-09-14T00:00	3436	672	-0.8	-23.3	245	10
2023-09-14T00:00	3455	670	-1.0	-23.5	249	10
2023-09-14T00:00	3483	667	-1.0	-24.0	252	11
2023-09-14T00:00	3511	665	-0.9	-25.3	254	11
2023-09-14T00:00	3529	664	-0.7	-26.3	254	11
2023-09-14T00:00	3551	662	-0.4	-28.6	254	11
2023-09-14T00:00	3573	660	-0.2	-30.2	254	10
2023-09-14T00:00	3594	658	0.1	-31.1	254	10
2023-09-14T00:00	3621	656	0.3	-32.3	258	10
2023-09-14T00:00	3649	654	0.4	-34.1	263	10
2023-09-14T00:00	3668	652	0.5	-35.3	269	10
2023-09-14T00:00	3686	651	0.5	-35.9	275	10
2023-09-14T00:00	3715	648	0.4	-36.6	281	11
2023-09-14T00:00	3741	646	0.3	-36.9	286	11
2023-09-14T00:00	3760	645	0.5	-37.8	289	11
2023-09-14T00:00	3781	643	0.4	-37.8	291	11
2023-09-14T00:00	3806	641	0.3	-37.9	292	11
2023-09-14T00:00	3825	639	0.3	-37.2	294	11
2023-09-14T00:00	3859	637	0.0	-37.1	296	11
2023-09-14T00:00	3881	635	-0.2	-37.0	299	11
2023-09-14T00:00	3910	633	-0.2	-37.9	301	11
2023-09-14T00:00	3933	631	-0.3	-38.3	304	12
2023-09-14T00:00	3949	630	-0.4	-38.4	305	12
2023-09-14T00:00	3972	628	-0.4	-40.3	307	13
2023-09-14T00:00	3991	626	-0.5	-39.2	308	13
2023-09-14T00:00	4015	625	-0.7	-38.0	309	13
2023-09-14T00:00	4036	623	-0.8	-38.0	308	13
2023-09-14T00:00	4059	621	-1.0	-37.9	307	12
2023-09-14T00:00	4087	619	-1.3	-37.8	306	12
2023-09-14T00:00	4110	617	-1.5	-37.9	304	12
2023-09-14T00:00	4136	615	-1.7	-37.8	302	12
2023-09-14T00:00	4170	613	-1.9	-37.1	301	12
2023-09-14T00:00	4192	611	-2.1	-37.0	300	13
2023-09-14T00:00	4218	609	-2.3	-36.6	300	13
2023-09-14T00:00	4243	607	-2.6	-36.6	301	13
2023-09-14T00:00	4267	605	-2.8	-36.5	302	13
2023-09-14T00:00	4288	603	-3.0	-36.5	302	13
2023-09-14T00:00	4303	602	-3.1	-36.3	302	12
2023-09-14T00:00	4324	601	-3.3	-36.3	301	12
2023-09-14T00:00	4348	599	-3.6	-36.3	299	12
2023-09-14T00:00	4375	597	-3.8	-35.8	298	12
2023-09-14T00:00	4402	595	-3.9	-34.4	297	12
2023-09-14T00:00	4420	593	-4.1	-34.2	296	12
2023-09-14T00:00	4439	592	-4.2	-34.0	295	12
2023-09-14T00:00	4458	591	-4.4	-34.0	295	12
2023-09-14T00:00	4478	589	-4.6	-34.0	295	12
2023-09-14T00:00	4498	588	-4.8	-34.1	295	12
2023-09-14T00:00	4516	586	-4.9	-33.9	294	13
2023-09-14T00:00	4540	584	-5.2	-34.2	294	13
2023-09-14T00:00	4568	582	-5.4	-33.5	293	13
2023-09-14T00:00	4589	581	-5.6	-32.5	294	13
2023-09-14T00:00	4612	579	-5.8	-34.3	296	13
2023-09-14T00:00	4635	577	-6.0	-32.4	298	13
2023-09-14T00:00	4666	575	-6.2	-33.8	301	13
2023-09-14T00:00	4694	573	-6.5	-31.8	304	12
2023-09-14T00:00	4729	571	-6.7	-32.6	307	12
2023-09-14T00:00	4759	569	-6.9	-33.3	308	12
2023-09-14T00:00	4774	567	-7.0	-33.2	308	12
2023-09-14T00:00	4790	566	-7.2	-33.4	309	11
2023-09-14T00:00	4811	565	-7.4	-33.6	309	11
2023-09-14T00:00	4830	563	-7.5	-33.8	310	11
2023-09-14T00:00	4851	561	-7.6	-33.8	311	11
2023-09-14T00:00	4884	559	-7.8	-33.5	312	12
2023-09-14T00:00	4906	558	-8.1	-33.1	313	12
2023-09-14T00:00	4924	556	-8.2	-32.3	313	12
2023-09-14T00:00	4950	555	-8.4	-31.8	312	13
2023-09-14T00:00	4978	552	-8.7	-31.5	310	13
2023-09-14T00:00	5010	550	-9.0	-31.0	308	13
2023-09-14T00:00	5038	548	-9.2	-31.1	307	13
2023-09-14T00:00	5058	547	-9.3	-31.2	305	13
2023-09-14T00:00	5075	546	-9.5	-31.5	303	13
2023-09-14T00:00	5092	544	-9.6	-31.7	303	13
2023-09-14T00:00	5111	543	-9.8	-32.0	302	13
2023-09-14T00:00	5130	542	-9.9	-32.0	303	13
2023-09-14T00:00	5154	540	-10.1	-31.9	303	13
2023-09-14T00:00	5188	538	-10.4	-32.0	304	13
2023-09-14T00:00	5209	536	-10.6	-32.2	303	12
2023-09-14T00:00	5228	535	-10.7	-32.2	303	12
2023-09-14T00:00	5247	534	-10.9	-32.3	301	12
2023-09-14T00:00	5268	532	-11.0	-32.3	300	12
2023-09-14T00:00	5294	530	-11.3	-32.5	299	12
2023-09-14T00:00	5324	528	-11.5	-32.1	298	12
2023-09-14T00:00	5359	526	-11.8	-30.9	298	12
2023-09-14T00:00	5375	525	-11.9	-31.1	297	12
2023-09-14T00:00	5397	523	-12.1	-31.2	297	12
2023-09-14T00:00	5420	522	-12.3	-31.2	297	12
2023-09-14T00:00	5449	520	-12.6	-31.3	298	12
2023-09-14T00:00	5478	518	-12.8	-31.3	299	12
2023-09-14T00:00	5508	516	-13.1	-31.3	299	12
2023-09-14T00:00	5535	514	-13.4	-31.4	300	12
2023-09-14T00:00	5554	513	-13.5	-31.4	300	12
2023-09-14T00:00	5572	511	-13.7	-31.4	300	12
2023-09-14T00:00	5591	510	-13.9	-31.4	299	12
2023-09-14T00:00	5611	509	-14.0	-31.4	299	12
2023-09-14T00:00	5630	507	-14.2	-31.4	299	12
2023-09-14T00:00	5653	506	-14.4	-31.6	300	12
2023-09-14T00:00	5684	504	-14.6	-31.6	301	13
2023-09-14T00:00	5714	502	-14.9	-31.7	302	13
2023-09-14T00:00	5738	500	-15.1	-31.8	303	13
2023-09-14T00:00	5757	499	-15.3	-31.9	302	13
2023-09-14T00:00	5778	498	-15.5	-32.0	300	13
2023-09-14T00:00	5799	496	-15.6	-32.0	298	13
2023-09-14T00:00	5822	495	-15.9	-32.1	295	13
2023-09-14T00:00	5851	493	-16.1	-32.4	293	13
2023-09-14T00:00	5877	491	-16.3	-32.7	292	13
2023-09-14T00:00	5903	489	-16.5	-32.9	292	13
2023-09-14T00:00	5933	487	-16.7	-32.5	292	13
2023-09-14T00:00	5960	486	-16.9	-32.7	292	13
2023-09-14T00:00	5986	484	-17.1	-32.7	291	13
2023-09-14T00:00	6013	482	-17.4	-32.8	290	13
2023-09-14T00:00	6042	480	-17.6	-32.9	288	14
2023-09-14T00:00	6073	479	-17.9	-33.4	286	14
2023-09-14T00:00	6090	477	-18.1	-33.4	285	13
2023-09-14T00:00	6108	476	-18.2	-33.4	284	13
2023-09-14T00:00	6129	475	-18.4	-33.4	284	12
2023-09-14T00:00	6148	474	-18.5	-33.3	284	12
2023-09-14T00:00	6170	472	-18.7	-33.0	284	12
2023-09-14T00:00	6195	471	-19.0	-32.8	284	12
2023-09-14T00:00	6229	469	-19.3	-32.5	284	12
2023-09-14T00:00	6269	466	-19.6	-33.5	284	13
2023-09-14T00:00	6290	465	-19.6	-34.4	284	13
2023-09-14T00:00	6308	464	-19.8	-34.7	284	13
2023-09-14T00:00	6331	462	-20.0	-34.9	283	13
2023-09-14T00:00	6358	460	-20.2	-35.9	283	14
2023-09-14T00:00	6388	459	-20.4		283	14
2023-09-14T00:00	6421	457	-20.7	-37.5	283	15
2023-09-14T00:00	6443	455	-20.9	-38.0	283	15
2023-09-14T00:00	6461	454	-21.0	-38.6	284	15
2023-09-14T00:00	6478	453	-21.2	-39.2	285	14
2023-09-14T00:00	6496	452	-21.4	-39.8	286	14
2023-09-14T00:00	6515	451	-21.5	-40.9	287	14
2023-09-14T00:00	6535	450	-21.7	-41.4	287	14
2023-09-14T00:00	6553	448	-21.8	-41.4	286	14
2023-09-14T00:00	6571	447	-22.0	-41.5	285	14
2023-09-14T00:00	6593	446	-22.2	-41.6	284	14
2023-09-14T00:00	6612	445	-22.4	-41.5	284	14
2023-09-14T00:00	6631	444	-22.5	-41.3	283	14
2023-09-14T00:00	6658	442	-22.7	-41.7	283	14
2023-09-14T00:00	6688	440	-23.0	-41.8	284	14
2023-09-14T00:00	6721	438	-23.3	-41.7	284	14
2023-09-14T00:00	6751	437	-23.6	-41.9	284	14
2023-09-14T00:00	6776	435	-23.8	-42.1	283	14
2023-09-14T00:00	6803	433	-24.0	-42.3	282	14
2023-09-14T00:00	6835	432	-24.2	-43.5	282	14
2023-09-14T00:00	6868	430	-24.4	-45.8	282	14
2023-09-14T00:00	6886	428	-24.5	-46.4	284	14
2023-09-14T00:00	6912	427	-24.7	-47.6	287	14
2023-09-14T00:00	6943	425	-24.9	-49.1	290	15
2023-09-14T00:00	6975	423	-25.1	-49.9	293	15
2023-09-14T00:00	7001	422	-25.3	-50.4	294	15
2023-09-14T00:00	7025	420	-25.5	-50.3	294	15
2023-09-14T00:00	7056	419	-25.8	-51.5	294	15
2023-09-14T00:00	7080	417	-25.8	-53.4	293	15
2023-09-14T00:00	7104	416	-25.8	-54.4	293	14
2023-09-14T00:00	7133	414	-26.0	-54.7	293	14
2023-09-14T00:00	7165	412	-26.3	-55.4	293	14
2023-09-14T00:00	7198	410	-26.5	-55.5	293	14
2023-09-14T00:00	7232	409	-26.8	-56.2	293	14
2023-09-14T00:00	7264	407	-27.0	-56.1	293	14
2023-09-14T00:00	7284	406	-27.2	-56.1	293	14
2023-09-14T00:00	7305	404	-27.3	-55.3	294	14
2023-09-14T00:00	7325	403	-27.4	-55.2	296	14
2023-09-14T00:00	7349	402	-27.6	-55.6	296	14
2023-09-14T00:00	7371	401	-27.8	-55.5	297	14
2023-09-14T00:00	7393	400	-27.9	-55.6	297	14
2023-09-14T00:00	7413	398	-28.0	-55.5	297	14
2023-09-14T00:00	7443	397	-28.2	-55.7	297	14
2023-09-14T00:00	7471	395	-28.5	-56.1	298	14
2023-09-14T00:00	7500	394	-28.6	-56.4	299	15
2023-09-14T00:00	7529	392	-28.7	-56.2	300	15
2023-09-14T00:00	7560	390	-28.9	-56.2	301	16
2023-09-14T00:00	7591	389	-29.2	-56.3	302	16
2023-09-14T00:00	7617	387	-29.4	-56.6	302	16
2023-09-14T00:00	7646	386	-29.5	-56.9	301	16
2023-09-14T00:00	7669	384	-29.7	-56.8	300	16
2023-09-14T00:00	7693	383	-29.9	-57.0	300	16
2023-09-14T00:00	7717	382	-30.1	-57.2	299	16
2023-09-14T00:00	7741	380	-30.2	-57.2	299	16
2023-09-14T00:00	7767	379	-30.4	-57.4	298	16
2023-09-14T00:00	7793	378	-30.6		298	16
2023-09-14T00:00	7822	376	-30.8	-57.7	298	16
2023-09-14T00:00	7851	375	-31.0	-58.1	298	16
2023-09-14T00:00	7877	373	-31.1	-58.1	297	16
2023-09-14T00:00	7903	372	-31.2	-58.0	297	16
2023-09-14T00:00	7927	371	-31.4	-58.2	297	16
2023-09-14T00:00	7951	369	-31.6	-58.4	297	16
2023-09-14T00:00	7977	368	-31.7	-58.4	298	16
2023-09-14T00:00	8004	367	-31.9	-58.4	298	16
2023-09-14T00:00	8029	365	-32.0	-58.8	299	17
2023-09-14T00:00	8059	364	-32.2	-59.4	299	17
2023-09-14T00:00	8086	362	-32.3	-59.8	299	17
2023-09-14T00:00	8112	361	-32.4	-60.3	300	17
2023-09-14T00:00	8140	360	-32.6	-60.7	301	17
2023-09-14T00:00	8164	358	-32.7	-60.8	302	17
2023-09-14T00:00	8192	357	-32.8	-61.1	302	17
2023-09-14T00:00	8223	355	-33.0	-61.2	301	17
2023-09-14T00:00	8254	354	-33.2	-61.0	299	17
2023-09-14T00:00	8281	352	-33.4	-60.5	296	17
2023-09-14T00:00	8308	351	-33.6	-60.3	294	17
2023-09-14T00:00	8335	350	-33.8	-60.3	292	17
2023-09-14T00:00	8364	348	-34.0	-60.1	291	18
2023-09-14T00:00	8391	347	-34.1	-60.0	291	18
2023-09-14T00:00	8413	346	-34.3	-60.0	290	17
2023-09-14T00:00	8437	345	-34.4	-60.2	289	17
2023-09-14T00:00	8470	343	-34.7	-60.5	289	16
2023-09-14T00:00	8489	342	-34.7	-60.3	289	16
2023-09-14T00:00	8508	341	-34.8	-60.1	289	16
2023-09-14T00:00	8535	340	-35.0	-59.8	290	16
2023-09-14T00:00	8560	339	-35.1	-59.7	291	16
2023-09-14T00:00	8589	337	-35.3	-59.7	293	16
2023-09-14T00:00	8607	336	-35.5	-60.0	293	16
2023-09-14T00:00	8631	335	-35.6	-59.8	293	16
2023-09-14T00:00	8653	334	-35.8	-59.8	293	16
2023-09-14T00:00	8673	333	-35.9	-60.1	293	16
2023-09-14T00:00	8693	332	-36.0	-60.0	293	16
2023-09-14T00:00	8714	331	-36.1	-60.1	293	16
2023-09-14T00:00	8739	330	-36.3	-60.2	294	15
2023-09-14T00:00	8768	329	-36.5	-60.5	295	15
2023-09-14T00:00	8795	328	-36.7	-60.7	295	15
2023-09-14T00:00	8814	326	-36.9	-60.7	296	15
2023-09-14T00:00	8842	325	-37.2	-60.8	297	15
2023-09-14T00:00	8869	324	-37.4	-61.0	298	15
2023-09-14T00:00	8893	323	-37.7	-61.1	299	15
2023-09-14T00:00	8917	322	-37.9	-61.1	299	15
2023-09-14T00:00	8938	321	-38.1	-61.1	299	15
2023-09-14T00:00	8959	320	-38.3	-61.2	299	15
2023-09-14T00:00	8984	319	-38.5	-61.3	299	15
2023-09-14T00:00	9007	317	-38.8	-61.3	299	15
2023-09-14T00:00	9034	316	-39.0	-61.3	300	15
2023-09-14T00:00	9059	315	-39.2	-61.4	300	14
2023-09-14T00:00	9083	314	-39.5	-61.6	300	14
2023-09-14T00:00	9110	313	-39.7	-61.7	301	14
2023-09-14T00:00	9133	312	-39.9	-61.6	302	14
2023-09-14T00:00	9156	311	-40.2	-61.8	303	14
2023-09-14T00:00	9177	310	-40.3	-61.8	304	14
2023-09-14T00:00	9197	309	-40.5	-62.0	304	14
2023-09-14T00:00	9214	308	-40.7	-62.0	305	14
2023-09-14T00:00	9232	307	-40.8	-62.3	305	14
2023-09-14T00:00	9252	306	-40.9	-62.5	305	14
2023-09-14T00:00	9269	306	-41.0	-62.6	305	13
2023-09-14T00:00	9287	305	-41.1	-62.7	304	13
2023-09-14T00:00	9307	304	-41.3	-62.9	303	13
2023-09-14T00:00	9327	303	-41.4	-62.8	302	13
2023-09-14T00:00	9350	302	-41.6	-63.1	301	13
2023-09-14T00:00	9380	301	-41.7	-63.4	301	13
2023-09-14T00:00	9404	300	-41.9	-63.5	300	13
2023-09-14T00:00	9429	298	-41.7	-63.3	299	12
2023-09-14T00:00	9456	297	-41.8	-63.3	297	11
2023-09-14T00:00	9486	296	-42.0	-63.2	292	10
2023-09-14T00:00	9517	295	-42.1	-63.2	284	9
2023-09-14T00:00	9545	293	-42.3	-63.3	275	8
2023-09-14T00:00	9561	293	-42.4	-63.2	267	8
2023-09-14T00:00	9587	291	-42.7	-63.3	261	8
2023-09-14T00:00	9624	290	-43.0	-63.3	259	8
2023-09-14T00:00	9646	289	-43.2	-63.3	259	9
2023-09-14T00:00	9686	287	-43.5	-63.2	261	9
2023-09-14T00:00	9718	286	-43.8	-63.4	265	10
2023-09-14T00:00	9742	285	-44.0	-63.3	268	11
2023-09-14T00:00	9775	284	-44.3	-63.2	270	12
2023-09-14T00:00	9810	282	-44.6	-63.2	271	12
2023-09-14T00:00	9832	281	-44.8	-63.3	270	13
2023-09-14T00:00	9858	280	-45.0	-63.3	267	13
2023-09-14T00:00	9884	279	-45.2	-63.2	264	13
2023-09-14T00:00	9916	278	-45.5	-63.2	261	13
2023-09-14T00:00	9944	276	-45.8	-63.4	260	14
2023-09-14T00:00	9967	275	-46.0	-63.3	260	14
2023-09-14T00:00	9991	274	-46.2	-63.4	261	14
2023-09-14T00:00	10015	273	-46.4	-63.3	263	15
2023-09-14T00:00	10042	272	-46.6	-63.3	264	15
2023-09-14T00:00	10069	271	-46.8	-63.3	264	15
2023-09-14T00:00	10092	270	-47.0	-63.3	263	15
2023-09-14T00:00	10115	269	-47.2	-63.4	263	15
2023-09-14T00:00	10136	269	-47.4	-63.4	263	15
2023-09-14T00:00	10159	268	-47.6	-63.4	264	15
2023-09-14T00:00	10179	267	-47.8	-63.4	265	16
2023-09-14T00:00	10205	266	-48.0	-63.4	266	16
2023-09-14T00:00	10229	265	-48.2	-63.5	267	16
2023-09-14T00:00	10249	264	-48.3	-63.5	267	16
2023-09-14T00:00	10269	263	-48.5	-63.5	267	16
2023-09-14T00:00	10290	262	-48.7	-63.6	267	16
2023-09-14T00:00	10307	262	-48.9	-63.6	266	16
2023-09-14T00:00	10325	261	-49.0	-63.7	265	16
2023-09-14T00:00	10342	260	-49.1	-63.8	262	15
2023-09-14T00:00	10364	259	-49.2	-64.2	260	15
2023-09-14T00:00	10394	258	-49.2	-65.3	257	15
2023-09-14T00:00	10417	257	-49.0	-66.2	255	15
2023-09-14T00:00	10438	257	-49.2	-66.3	254	16
2023-09-14T00:00	10455	256	-49.2	-65.7	255	17
2023-09-14T00:00	10474	255	-49.3	-65.5	256	17
2023-09-14T00:00	10493	254	-49.4	-65.3	257	18
2023-09-14T00:00	10511	254	-49.5	-65.1	258	18
2023-09-14T00:00	10531	253	-49.7	-65.1	258	18
2023-09-14T00:00	10549	252	-49.8	-65.0	259	18
2023-09-14T00:00	10567	251	-50.0	-65.0	260	18
2023-09-14T00:00	10587	251	-50.1	-64.9	260	18
2023-09-14T00:00	10606	250	-50.3	-64.9	261	19
2023-09-14T00:00	10625	249	-50.4	-65.0	262	19
2023-09-14T00:00	10644	249	-50.6	-65.1	262	19
2023-09-14T00:00	10663	248	-50.7	-65.0	263	19
2023-09-14T00:00	10684	247	-50.8	-64.8	263	19
2023-09-14T00:00	10703	246	-51.0	-64.7	263	19
2023-09-14T00:00	10724	245	-51.2	-64.8	264	19
2023-09-14T00:00	10743	245	-51.4	-64.8	264	19
2023-09-14T00:00	10762	244	-51.6	-64.9	265	19
2023-09-14T00:00	10785	243	-51.8	-65.0	265	19
2023-09-14T00:00	10803	243	-51.9	-65.0	266	18
2023-09-14T00:00	10824	242	-52.2	-65.0	266	18
2023-09-14T00:00	10846	241	-52.4	-64.9	267	18
2023-09-14T00:00	10866	240	-52.4	-64.8	268	17
2023-09-14T00:00	10888	239	-52.3	-64.9	269	17
2023-09-14T00:00	10908	239	-52.3	-65.2	270	16
2023-09-14T00:00	10927	238	-52.4	-65.3	270	16
2023-09-14T00:00	10948	237	-52.4	-65.3	271	16
2023-09-14T00:00	10968	236	-52.4	-65.6	271	16
2023-09-14T00:00	10990	236	-52.5	-65.9	270	16
2023-09-14T00:00	11011	235	-52.6	-66.1	268	16
2023-09-14T00:00	11033	234	-52.7	-66.2	266	15
2023-09-14T00:00	11059	233	-52.8	-66.1	264	15
2023-09-14T00:00	11090	232	-52.8	-66.2	262	15
2023-09-14T00:00	11123	231	-52.7	-66.3	259	15
2023-09-14T00:00	11158	230	-53.0	-66.6	256	14
2023-09-14T00:00	11183	229	-53.1	-66.5	252	14
2023-09-14T00:00	11221	227	-53.4	-66.4	249	14
2023-09-14T00:00	11246	226	-53.7	-66.4	246	15
2023-09-14T00:00	11269	226	-53.9	-66.4	245	15
2023-09-14T00:00	11290	225	-54.2	-66.5	245	15
2023-09-14T00:00	11319	224	-54.3	-66.3	246	15
2023-09-14T00:00	11339	223	-54.5	-66.3	248	15
2023-09-14T00:00	11357	223	-54.7	-66.5	250	15
2023-09-14T00:00	11379	222	-54.8	-66.6	252	15
2023-09-14T00:00	11402	221	-55.0	-66.7	254	15
2023-09-14T00:00	11423	220	-55.1	-67.0	256	15
2023-09-14T00:00	11446	219	-54.8	-67.3	257	15
2023-09-14T00:00	11467	219	-54.7	-67.7	259	15
2023-09-14T00:00	11486	218	-54.7	-67.8	260	14
2023-09-14T00:00	11506	217	-54.9	-68.1	262	14
2023-09-14T00:00	11526	217	-54.6	-68.0	263	14
2023-09-14T00:00	11546	216	-54.6	-68.3	265	14
2023-09-14T00:00	11565	215	-54.6		266	15
2023-09-14T00:00	11584	215	-54.6	-68.6	268	15
2023-09-14T00:00	11605	214	-54.7	-68.9	268	16
2023-09-14T00:00	11625	213	-54.4	-69.1	269	16
2023-09-14T00:00	11645	213	-54.0	-69.4	268	16
2023-09-14T00:00	11664	212	-54.0	-69.9	268	17
2023-09-14T00:00	11683	212	-53.9	-70.6	267	16
2023-09-14T00:00	11701	211	-53.1	-71.2	265	16
2023-09-14T00:00	11722	210	-52.4	-72.0	264	16
2023-09-14T00:00	11741	210	-52.3	-72.8	263	16
2023-09-14T00:00	11762	209	-52.0	-72.8	263	15
2023-09-14T00:00	11781	208	-52.1	-72.9	263	15
2023-09-14T00:00	11799	208	-52.2	-72.7	264	15
2023-09-14T00:00	11820	207	-52.4	-72.8	265	15
2023-09-14T00:00	11843	206	-52.5	-72.8	267	16
2023-09-14T00:00	11862	206	-52.6	-72.7	269	16
2023-09-14T00:00	11887	205	-52.7	-72.7	271	16
2023-09-14T00:00	11908	204	-52.9	-72.9	272	16
2023-09-14T00:00	11933	204	-52.9	-73.0	273	16
2023-09-14T00:00	11953	203	-52.5	-73.2	272	15
2023-09-14T00:00	11975	202	-52.2	-73.3	271	15
2023-09-14T00:00	11996	201	-52.3	-73.6	270	15
2023-09-14T00:00	12017	201	-52.4	-73.7	269	15
2023-09-14T00:00	12039	200	-52.6	-73.8	268	15
2023-09-14T00:00	12059	200	-52.8	-73.9	267	15
2023-09-14T00:00	12081	199	-52.8	-73.9	267	15
2023-09-14T00:00	12103	198	-53.0	-74.1	268	15
2023-09-14T00:00	12124	198	-53.2	-74.3	269	15
2023-09-14T00:00	12146	197	-53.4		269	15
2023-09-14T00:00	12170	196	-53.4		268	14
2023-09-14T00:00	12195	195	-53.5	-74.5	267	14
2023-09-14T00:00	12218	195	-53.3	-74.6	265	14
2023-09-14T00:00	12241	194	-53.0	-74.6	262	14
2023-09-14T00:00	12260	193	-53.1	-74.8	261	15
2023-09-14T00:00	12282	193	-53.2	-74.9	261	15
2023-09-14T00:00	12303	192	-53.2	-74.9	261	16
2023-09-14T00:00	12323	192	-53.3	-75.1	262	16
2023-09-14T00:00	12343	191	-53.3	-75.3	263	16
2023-09-14T00:00	12363	190	-53.2	-75.3	263	17
2023-09-14T00:00	12386	190	-53.2	-75.5	263	17
2023-09-14T00:00	12405	189	-53.2	-76.1	263	16
2023-09-14T00:00	12424	189	-52.8	-76.5	263	16
2023-09-14T00:00	12445	188	-52.7	-76.9	263	16
2023-09-14T00:00	12466	187	-52.7	-77.3	264	16
2023-09-14T00:00	12488	187	-52.7	-77.6	266	16
2023-09-14T00:00	12508	186	-52.8	-77.6	268	16
2023-09-14T00:00	12528	186	-52.7	-77.8	270	16
2023-09-14T00:00	12546	185	-52.5	-77.8	272	16
2023-09-14T00:00	12567	184	-52.4	-78.0	274	16
2023-09-14T00:00	12582	184	-52.4	-78.2	276	16
2023-09-14T00:00	12604	183	-52.3	-78.2	277	16
2023-09-14T00:00	12622	183	-52.3	-78.2	279	16
2023-09-14T00:00	12640	182	-52.4	-78.2	280	16
2023-09-14T00:00	12658	182	-52.5	-78.6	280	16
2023-09-14T00:00	12677	181	-52.4	-78.8	280	16
2023-09-14T00:00	12694	181	-51.7	-78.5	279	15
2023-09-14T00:00	12710	180	-51.6	-78.7	278	15
2023-09-14T00:00	12728	180	-51.3	-78.8	277	15
2023-09-14T00:00	12747	179	-51.3	-78.8	277	15
2023-09-14T00:00	12767	179	-51.4	-78.8	276	15
2023-09-14T00:00	12784	178	-51.5	-78.9	275	15
2023-09-14T00:00	12803	178	-51.6	-79.0	275	15
2023-09-14T00:00	12823	177	-51.5	-78.9	275	15
2023-09-14T00:00	12841	177	-51.6	-79.3	275	16
2023-09-14T00:00	12862	176	-51.6	-79.3	277	16
2023-09-14T00:00	12880	176	-51.5	-79.2	278	16
2023-09-14T00:00	12898	175	-51.5	-79.2	279	16
2023-09-14T00:00	12918	175	-51.6	-79.3	280	16
2023-09-14T00:00	12937	174	-51.8	-79.5	281	16
2023-09-14T00:00	12955	174	-51.8	-79.5	281	16
2023-09-14T00:00	12977	173	-51.8	-79.5	281	15
2023-09-14T00:00	12996	173	-51.9	-79.5	280	15
2023-09-14T00:00	13016	172	-51.8	-79.5	279	15
2023-09-14T00:00	13035	172	-51.9	-79.5	277	14
2023-09-14T00:00	13060	171	-51.8	-79.8	274	14
2023-09-14T00:00	13080	170	-51.7	-79.7	271	13
2023-09-14T00:00	13099	170	-51.5	-79.6	269	13
2023-09-14T00:00	13120	169	-51.5	-79.9	267	13
2023-09-14T00:00	13140	169	-51.5	-79.9	266	13
2023-09-14T00:00	13160	168	-51.6	-79.6	265	13
2023-09-14T00:00	13180	168	-51.8	-79.8	265	14
2023-09-14T00:00	13201	167	-52.0	-80.0	265	14
2023-09-14T00:00	13222	167	-52.2	-80.1	265	14
2023-09-14T00:00	13242	166	-52.4	-79.9	266	14
2023-09-14T00:00	13262	166	-52.5	-80.0	267	15
2023-09-14T00:00	13281	165	-52.6	-80.1	268	15
2023-09-14T00:00	13300	165	-52.8	-79.9	269	15
2023-09-14T00:00	13321	164	-52.9	-80.0	270	15
2023-09-14T00:00	13343	164	-53.1	-80.2	271	15
2023-09-14T00:00	13365	163	-53.2	-80.2	272	15
2023-09-14T00:00	13384	163	-53.1	-80.2	272	15
2023-09-14T00:00	13404	162	-53.0	-80.4	272	14
2023-09-14T00:00	13424	162	-52.9	-80.3	272	14
2023-09-14T00:00	13443	161	-53.0	-80.4	272	14
2023-09-14T00:00	13464	161	-53.0	-80.7	272	14
2023-09-14T00:00	13483	160	-53.0	-80.7	272	14
2023-09-14T00:00	13504	160	-53.1	-80.5	273	14
2023-09-14T00:00	13525	159	-53.2	-80.5	273	13
2023-09-14T00:00	13543	159	-53.2	-80.5	273	13
2023-09-14T00:00	13563	158	-53.1	-80.8	274	13
2023-09-14T00:00	13585	158	-53.1	-80.8	274	13
2023-09-14T00:00	13605	157	-52.9	-80.6	275	13
2023-09-14T00:00	13625	157	-53.0	-81.1	275	12
2023-09-14T00:00	13647	156	-53.0	-80.7	276	12
2023-09-14T00:00	13665	156	-53.1	-80.8	276	12
2023-09-14T00:00	13686	155	-53.3	-80.9	277	12
2023-09-14T00:00	13707	155	-53.4	-81.0	277	12
2023-09-14T00:00	13726	154	-53.6	-81.2	277	12
2023-09-14T00:00	13747	154	-53.7	-81.3	276	12
2023-09-14T00:00	13766	153	-53.7	-81.3	275	12
2023-09-14T00:00	13788	153	-53.8	-81.3	274	12
2023-09-14T00:00	13810	152	-53.8	-81.3	273	13
2023-09-14T00:00	13826	152	-53.7	-81.3	272	13
2023-09-14T00:00	13846	151	-53.8	-81.3	272	13
2023-09-14T00:00	13866	151	-54.0	-81.5	273	13
2023-09-14T00:00	13885	150	-54.1	-81.6	274	13
2023-09-14T00:00	13906	150	-54.2	-81.6	275	13
2023-09-14T00:00	13926	149	-54.3	-81.7	276	13
2023-09-14T00:00	13945	149	-54.4	-81.8	277	13
2023-09-14T00:00	13963	149	-54.4	-81.8	278	13
2023-09-14T00:00	13985	148	-54.2	-81.6	278	13
2023-09-14T00:00	14005	148	-54.0	-81.8	279	13
2023-09-14T00:00	14025	147	-54.0	-81.8	279	13
2023-09-14T00:00	14050	147	-54.0	-81.8	279	13
2023-09-14T00:00	14072	146	-54.0	-82.2	279	12
2023-09-14T00:00	14091	146	-53.6	-81.9	280	11
2023-09-14T00:00	14114	145	-53.5	-81.8	282	11
2023-09-14T00:00	14134	145	-53.5	-82.2	285	11
2023-09-14T00:00	14153	144	-53.5	-82.2	287	11
2023-09-14T00:00	14174	144	-53.4	-82.1	289	11
2023-09-14T00:00	14196	143	-53.2	-82.0	290	11
2023-09-14T00:00	14216	143	-53.3	-82.0	291	11
2023-09-14T00:00	14239	142	-53.4	-82.1	292	10
2023-09-14T00:00	14261	142	-53.5	-82.2	291	10
2023-09-14T00:00	14285	141	-53.5	-82.2	290	10
2023-09-14T00:00	14304	141	-53.5	-82.2	289	10
2023-09-14T00:00	14329	140	-53.5	-82.2	286	9
2023-09-14T00:00	14351	140	-53.6	-82.3	284	9
2023-09-14T00:00	14375	139	-53.8	-82.0	281	10
2023-09-14T00:00	14396	139	-53.9	-82.1	280	10
2023-09-14T00:00	14420	138	-54.0	-82.2	278	10
2023-09-14T00:00	14441	138	-54.1	-81.9	277	10
2023-09-14T00:00	14464	137	-54.2	-82.0	275	10
2023-09-14T00:00	14487	137	-54.4	-82.1	273	10
2023-09-14T00:00	14508	136	-54.5	-81.9	270	10
2023-09-14T00:00	14534	136	-54.6	-81.9	267	9
2023-09-14T00:00	14561	135	-54.7	-82.0	263	9
2023-09-14T00:00	14581	135	-54.8	-82.1	261	9
2023-09-14T00:00	14605	134	-55.0	-82.3	259	9
2023-09-14T00:00	14626	134	-55.1	-82.0	258	10
2023-09-14T00:00	14647	134	-55.3	-82.2	258	10
2023-09-14T00:00	14669	133	-55.5	-82.3	258	10
2023-09-14T00:00	14693	133	-55.7	-82.5	259	10
2023-09-14T00:00	14712	132	-55.8	-82.5	260	10
2023-09-14T00:00	14732	132	-55.8	-82.5	261	10
2023-09-14T00:00	14754	131	-55.8	-82.5	262	9
2023-09-14T00:00	14775	131	-55.8	-82.5	264	9
2023-09-14T00:00	14796	130	-55.8	-82.5	265	9
2023-09-14T00:00	14814	130	-55.8	-82.5	267	9
2023-09-14T00:00	14835	130	-55.9	-82.6	268	9
2023-09-14T00:00	14858	129	-56.0	-82.7	268	9
2023-09-14T00:00	14876	129	-56.1	-82.8	268	8
2023-09-14T00:00	14899	128	-56.2	-82.9	267	8
2023-09-14T00:00	14917	128	-56.3	-82.9	265	8
2023-09-14T00:00	14941	128	-56.3	-82.6	263	8
2023-09-14T00:00	14960	127	-56.3	-82.6	261	8
2023-09-14T00:00	14982	127	-56.4	-82.7	259	8
2023-09-14T00:00	15000	126	-56.5	-82.8	259	8
2023-09-14T00:00	15021	126	-56.7	-82.9	258	8
2023-09-14T00:00	15042	125	-56.7	-82.9	259	8
2023-09-14T00:00	15061	125	-56.5	-83.1	259	8
2023-09-14T00:00	15081	125	-56.5	-83.1	259	8
2023-09-14T00:00	15101	124	-56.6	-83.2	259	8
2023-09-14T00:00	15120	124	-56.7	-83.2	260	8
2023-09-14T00:00	15140	124	-56.6	-82.9	260	8
2023-09-14T00:00	15158	123	-56.8	-83.0	261	8
2023-09-14T00:00	15180	123	-56.9	-83.1	262	8
2023-09-14T00:00	15198	122	-57.0	-83.2	263	8
2023-09-14T00:00	15217	122	-57.2	-83.3	264	8
2023-09-14T00:00	15239	122	-57.4	-83.2	264	8
2023-09-14T00:00	15260	121	-57.6	-83.3	263	9
2023-09-14T00:00	15279	121	-57.7	-83.4	262	9
2023-09-14T00:00	15301	120	-57.8	-83.2	261	9
2023-09-14T00:00	15320	120	-57.8	-83.2	260	9
2023-09-14T00:00	15342	120	-57.9	-83.3	259	10
2023-09-14T00:00	15359	119	-58.0	-83.4	259	10
2023-09-14T00:00	15381	119	-58.2	-83.3	259	11
2023-09-14T00:00	15402	119	-58.2	-83.3	260	11
2023-09-14T00:00	15421	118	-58.3		262	11
2023-09-14T00:00	15440	118	-58.2	-83.5	264	11
2023-09-14T00:00	15458	118	-58.1	-83.7	266	11
2023-09-14T00:00	15474	117	-57.6	-83.6	267	10
2023-09-14T00:00	15495	117	-57.4	-83.8	268	10
2023-09-14T00:00	15516	116	-57.1	-83.5	269	10
2023-09-14T00:00	15535	116	-57.2	-83.6	269	9
2023-09-14T00:00	15555	116	-57.3	-84.0	270	10
2023-09-14T00:00	15574	115	-57.3	-84.0	270	10
2023-09-14T00:00	15595	115	-56.8	-83.6	270	11
2023-09-14T00:00	15615	115	-56.8	-83.6	270	11
2023-09-14T00:00	15642	114	-56.8	-83.6	271	12
2023-09-14T00:00	15661	114	-56.9	-83.7	271	12
2023-09-14T00:00	15684	113	-57.0	-83.8	272	13
2023-09-14T00:00	15706	113	-57.0	-83.8	273	13
2023-09-14T00:00	15729	113	-57.0	-83.8	274	13
2023-09-14T00:00	15751	112	-57.1	-84.2	276	13
2023-09-14T00:00	15774	112	-57.1	-84.2	278	13
2023-09-14T00:00	15799	111	-57.2	-84.6	280	14
2023-09-14T00:00	15822	111	-57.1	-84.6	282	14
2023-09-14T00:00	15849	110	-56.7	-84.6	283	14
2023-09-14T00:00	15874	110	-56.5	-84.9	285	14
2023-09-14T00:00	15900	110	-56.5	-84.9	286	14
2023-09-14T00:00	15927	109	-56.4	-84.8	288	14
2023-09-14T00:00	15949	109	-56.4	-84.8	288	13
2023-09-14T00:00	15976	108	-56.2	-85.1	289	12
2023-09-14T00:00	16002	108	-56.1	-85.0	288	11
2023-09-14T00:00	16025	107	-55.9	-84.8	286	10
2023-09-14T00:00	16054	107	-55.9	-84.8	284	10
2023-09-14T00:00	16079	107	-55.9	-84.8	280	9
2023-09-14T00:00	16104	106	-56.0	-84.9	275	8
2023-09-14T00:00	16131	106	-56.0	-84.9	271	8
2023-09-14T00:00	16156	105	-56.2	-85.1	267	8
2023-09-14T00:00	16177	105	-56.2	-85.1	265	8
2023-09-14T00:00	16201	105	-56.3	-85.1	264	9
2023-09-14T00:00	16220	104	-56.2	-85.1	265	9
2023-09-14T00:00	16246	104	-56.2	-84.6	267	9
2023-09-14T00:00	16266	103	-56.2	-84.6	269	9
2023-09-14T00:00	16286	103	-56.2	-84.6	271	9
2023-09-14T00:00	16307	103	-56.2	-84.6	274	9
2023-09-14T00:00	16329	102	-56.3	-84.7	277	8
2023-09-14T00:00	16350	102	-56.4	-84.8	279	8
2023-09-14T00:00	16372	102	-56.4	-85.2	281	8
2023-09-14T00:00	16395	101	-56.1	-85.0	282	8
2023-09-14T00:00	16417	101	-55.9	-84.8	283	8
2023-09-14T00:00	16438	101	-55.8	-84.8	283	8
2023-09-14T00:00	16460	100	-55.9	-85.3	283	7
2023-09-14T00:00	16478	100	-55.8	-85.2	283	7
2023-09-14T00:00	16501	100	-55.8	-85.2	282	7
2023-09-14T00:00	16524	99	-55.9	-84.8	280	6
2023-09-14T00:00	16547	99	-55.9	-84.8	276	6
2023-09-14T00:00	16571	99	-56.0	-84.9	271	6
2023-09-14T00:00	16593	98	-56.2	-85.1	267	6
2023-09-14T00:00	16619	98	-56.4	-85.2	264	6
2023-09-14T00:00	16639	98	-56.6	-84.9	262	6
2023-09-14T00:00	16666	97	-56.8	-85.1	261	6
2023-09-14T00:00	16684	97	-57.0	-85.2	261	6
2023-09-14T00:00	16704	97	-57.2	-85.0	261	6
2023-09-14T00:00	16726	96	-57.4	-85.2	262	7
2023-09-14T00:00	16747	96	-57.5	-85.2	263	7
2023-09-14T00:00	16767	96	-57.6	-85.3	265	7
2023-09-14T00:00	16787	95	-57.7	-85.8	266	8
2023-09-14T00:00	16803	95	-57.4	-85.6	267	8
2023-09-14T00:00	16826	95	-57.3	-85.5	268	8
2023-09-14T00:00	16846	94	-57.3	-85.5	269	8
2023-09-14T00:00	16865	94	-57.4	-85.6	268	8
2023-09-14T00:00	16884	94	-57.2	-85.4	267	7
2023-09-14T00:00	16905	94	-57.0	-85.7	265	7
2023-09-14T00:00	16925	93	-57.0	-85.7	262	6
2023-09-14T00:00	16945	93	-57.0	-85.7	260	6
2023-09-14T00:00	16965	93	-57.1	-85.7	259	6
2023-09-14T00:00	16984	92	-57.0	-85.7	260	6
2023-09-14T00:00	17006	92	-57.1	-85.7	263	6
2023-09-14T00:00	17026	92	-57.2	-85.4	268	6
2023-09-14T00:00	17051	91	-57.2	-85.4	272	6
2023-09-14T00:00	17068	91	-57.4	-85.6	275	6
2023-09-14T00:00	17087	91	-57.5	-85.6	276	6
2023-09-14T00:00	17108	91	-57.7	-85.8	275	6
2023-09-14T00:00	17133	90	-57.8	-85.9	273	6
2023-09-14T00:00	17150	90	-57.8	-85.9	270	7
2023-09-14T00:00	17176	90	-58.0	-85.6	267	7
2023-09-14T00:00	17195	89	-58.1	-85.7	265	8
2023-09-14T00:00	17216	89	-58.1	-85.7	265	8
2023-09-14T00:00	17237	89	-58.3	-85.8	265	9
2023-09-14T00:00	17262	88	-58.4	-85.9	265	9
2023-09-14T00:00	17279	88	-58.3	-85.8	267	10
2023-09-14T00:00	17303	88	-58.4	-85.9	268	10
2023-09-14T00:00	17324	88	-58.5	-86.4	269	10
2023-09-14T00:00	17342	87	-58.6	-86.5	270	10
2023-09-14T00:00	17364	87	-58.6	-86.5	272	10
2023-09-14T00:00	17386	87	-58.6	-86.5	273	10
2023-09-14T00:00	17408	86	-58.3	-86.2	275	10
2023-09-14T00:00	17432	86	-58.2	-86.6	277	9
2023-09-14T00:00	17453	86	-58.3	-86.7	279	9
2023-09-14T00:00	17474	85	-57.9	-86.4	280	9
2023-09-14T00:00	17495	85	-57.7	-86.7	281	9
2023-09-14T00:00	17517	85	-57.6	-86.6	281	10
2023-09-14T00:00	17537	85	-57.4	-86.4	281	10
2023-09-14T00:00	17561	84	-57.4	-86.4	281	10
2023-09-14T00:00	17581	84	-57.5	-86.5	281	10
2023-09-14T00:00	17603	84	-57.6	-86.6	281	9
2023-09-14T00:00	17624	83	-57.6	-86.6	280	9
2023-09-14T00:00	17642	83	-57.5	-86.5	280	9
2023-09-14T00:00	17668	83	-57.6	-86.6	280	8
2023-09-14T00:00	17689	83	-57.7	-86.7	279	8
2023-09-14T00:00	17706	82	-57.7	-86.7	278	8
2023-09-14T00:00	17729	82	-57.5	-86.5	275	8
2023-09-14T00:00	17748	82	-57.3	-86.4	272	9
2023-09-14T00:00	17770	82	-57.2	-86.8	270	9
2023-09-14T00:00	17790	81	-57.2	-86.8	267	10
2023-09-14T00:00	17815	81	-57.2	-86.8	265	10
2023-09-14T00:00	17834	81	-57.1	-86.7	264	11
2023-09-14T00:00	17855	80	-57.2	-86.8	263	11
2023-09-14T00:00	17880	80	-57.3	-86.4	262	12
2023-09-14T00:00	17899	80	-57.3	-86.4	262	12
2023-09-14T00:00	17920	80	-57.5	-86.5	262	12
2023-09-14T00:00	17936	79	-57.7	-86.7	262	13
2023-09-14T00:00	17959	79	-57.8	-86.7	263	13
2023-09-14T00:00	17976	79	-57.8	-86.7	264	13
2023-09-14T00:00	17999	79	-57.6	-86.6	266	12
2023-09-14T00:00	18017	78	-57.5	-86.5	268	12
2023-09-14T00:00	18037	78	-57.4	-86.9	270	12
2023-09-14T00:00	18058	78	-57.2	-86.8	272	11
2023-09-14T00:00	18076	78	-57.0	-86.6	274	11
2023-09-14T00:00	18098	77	-56.9	-86.6	275	10
2023-09-14T00:00	18118	77	-57.0	-86.6	275	9
2023-09-14T00:00	18141	77	-57.0	-86.6	275	9
2023-09-14T00:00	18160	77	-57.1	-86.7	275	8
2023-09-14T00:00	18181	76	-57.1	-86.7	276	8
2023-09-14T00:00	18202	76	-57.0	-86.6	277	8
2023-09-14T00:00	18224	76	-56.8	-86.5	278	7
2023-09-14T00:00	18244	76	-56.9	-86.6	279	7
2023-09-14T00:00	18262	75	-56.9	-86.6	277	7
2023-09-14T00:00	18288	75	-56.9	-86.6	273	6
2023-09-14T00:00	18307	75	-56.8	-86.5	267	6
2023-09-14T00:00	18329	75	-56.6	-86.9	260	5
2023-09-14T00:00	18352	74	-56.5	-86.8	253	5
2023-09-14T00:00	18374	74	-56.5	-86.8	248	6
2023-09-14T00:00	18394	74	-56.5	-86.8	245	6
2023-09-14T00:00	18415	74	-56.4		244	6
2023-09-14T00:00	18439	73	-56.6	-86.3	243	7
2023-09-14T00:00	18460	73	-56.7	-86.4	243	7
2023-09-14T00:00	18484	73	-56.9	-86.6	243	7
2023-09-14T00:00	18505	73	-57.1	-86.7	243	7
2023-09-14T00:00	18528	72	-57.1	-86.7	244	7
2023-09-14T00:00	18551	72	-57.2	-86.3	246	8
2023-09-14T00:00	18572	72	-57.4	-86.4	249	8
2023-09-14T00:00	18598	72	-57.5	-86.5	252	8
2023-09-14T00:00	18619	71	-57.6	-86.6	255	9
2023-09-14T00:00	18642	71	-57.6	-86.6	256	9
2023-09-14T00:00	18664	71	-57.6	-86.6	255	9
2023-09-14T00:00	18691	71	-57.7	-86.7	253	9
2023-09-14T00:00	18711	70	-57.5	-86.5	252	9
2023-09-14T00:00	18735	70	-57.7	-86.7	252	9
2023-09-14T00:00	18760	70	-57.9	-86.8	253	9
2023-09-14T00:00	18785	69	-58.0	-86.9	255	9
2023-09-14T00:00	18809	69	-58.0	-86.9	257	10
2023-09-14T00:00	18829	69	-58.1	-87.0	260	10
2023-09-14T00:00	18856	69	-58.2	-87.5	261	10
2023-09-14T00:00	18878	68	-58.0	-87.4	263	10
2023-09-14T00:00	18903	68	-57.8	-87.2	264	10
2023-09-14T00:00	18923	68	-57.4	-87.5	267	11
2023-09-14T00:00	18951	68	-57.4	-87.5	271	11
2023-09-14T00:00	18972	67	-57.0	-87.2	275	11
2023-09-14T00:00	18995	67	-56.8	-87.0	279	11
2023-09-14T00:00	19019	67	-56.8	-87.0	282	11
2023-09-14T00:00	19045	67	-56.9	-87.1	286	11
2023-09-14T00:00	19065	66	-57.1	-87.2	289	11
2023-09-14T00:00	19087	66	-57.1	-87.2	292	10
2023-09-14T00:00	19113	66	-57.0	-87.2	296	10
2023-09-14T00:00	19132	66	-56.8	-87.0	299	10
2023-09-14T00:00	19155	66	-56.6	-86.9	301	9
2023-09-14T00:00	19177	65	-56.6	-86.9	302	9
2023-09-14T00:00	19198	65	-56.7	-86.9	303	9
2023-09-14T00:00	19221	65	-56.9	-87.1	302	9
2023-09-14T00:00	19240	65	-56.9	-87.1	302	9
2023-09-14T00:00	19263	64	-56.9	-87.1	302	10
2023-09-14T00:00	19285	64	-56.9	-87.1	302	10
2023-09-14T00:00	19307	64	-56.7	-86.9	302	10
2023-09-14T00:00	19333	64	-56.7	-86.9	303	9
2023-09-14T00:00	19353	64	-56.7	-86.9	304	9
2023-09-14T00:00	19375	63	-56.5	-86.8	304	8
2023-09-14T00:00	19398	63	-56.6	-86.9	304	7
2023-09-14T00:00	19418	63	-56.5	-86.8	302	7
2023-09-14T00:00	19444	63	-56.2	-86.6	300	7
2023-09-14T00:00	19465	62	-56.2	-86.6	298	7
2023-09-14T00:00	19490	62	-56.4		297	6
2023-09-14T00:00	19511	62	-56.5	-86.8	296	6
2023-09-14T00:00	19534	62	-56.7	-86.9	295	6
2023-09-14T00:00	19557	61	-56.8	-86.5	292	6
2023-09-14T00:00	19583	61	-57.0	-86.6	288	5
2023-09-14T00:00	19603	61	-57.0	-86.6	285	5
2023-09-14T00:00	19632	61	-57.0	-86.6	282	5
2023-09-14T00:00	19649	61	-57.0	-87.2	281	6
2023-09-14T00:00	19672	60	-56.6	-86.9	282	6
2023-09-14T00:00	19693	60	-56.6	-86.9	283	6
2023-09-14T00:00	19719	60	-56.5	-86.8	283	7
2023-09-14T00:00	19742	60	-56.5	-86.8	282	7
2023-09-14T00:00	19763	60	-56.4		281	7
2023-09-14T00:00	19784	59	-56.4		279	7
2023-09-14T00:00	19808	59	-56.5	-86.8	277	8
2023-09-14T00:00	19832	59	-56.5	-86.8	276	8
2023-09-14T00:00	19858	59	-56.4		275	7
2023-09-14T00:00	19881	58	-56.6	-86.9	275	7
2023-09-14T00:00	19904	58	-56.7	-86.9	276	7
2023-09-14T00:00	19924	58	-56.6	-86.9	277	6
2023-09-14T00:00	19947	58	-56.4		279	6
2023-09-14T00:00	19967	58	-56.5	-86.8	279	6
2023-09-14T00:00	19991	57	-56.6	-86.9	279	6
2023-09-14T00:00	20012	57	-56.6	-86.9	278	6
2023-09-14T00:00	20039	57	-56.5	-86.8	277	6
2023-09-14T00:00	20063	57	-56.7	-86.9	275	6
2023-09-14T00:00	20086	57	-56.8	-87.0	273	5
2023-09-14T00:00	20108	56	-56.7	-86.9	270	5
2023-09-14T00:00	20135	56	-56.7	-86.9	266	4
2023-09-14T00:00	20156	56	-56.7	-86.9	262	4
2023-09-14T00:00	20181	56	-56.8	-87.0	256	3
2023-09-14T00:00	20205	56	-56.7	-86.9	248	3
2023-09-14T00:00	20228	55	-56.7	-86.9	241	3
2023-09-14T00:00	20250	55	-56.7	-86.9	235	2
2023-09-14T00:00	20271	55	-56.8	-87.0	233	2
2023-09-14T00:00	20297	55	-56.8	-87.0	237	2
2023-09-14T00:00	20319	55	-56.9	-87.1	246	3
2023-09-14T00:00	20339	54	-56.9	-87.1	256	3
2023-09-14T00:00	20361	54	-56.8	-87.0	264	3
2023-09-14T00:00	20388	54	-56.7	-86.9	270	4
2023-09-14T00:00	20409	54	-56.7	-86.9	274	4
2023-09-14T00:00	20433	54	-56.7	-86.9	278	4
2023-09-14T00:00	20456	53	-56.6	-86.9	280	5
2023-09-14T00:00	20482	53	-56.3	-86.6	281	4
2023-09-14T00:00	20506	53	-56.3	-87.2	281	4
2023-09-14T00:00	20527	53	-56.3	-87.2	280	4
2023-09-14T00:00	20554	53	-55.9	-86.9	278	4
2023-09-14T00:00	20581	52	-56.0	-87.0	274	3
2023-09-14T00:00	20604	52	-56.2	-86.6	269	3
2023-09-14T00:00	20629	52	-56.4		264	3
2023-09-14T00:00	20653	52	-56.6	-86.9	261	4
2023-09-14T00:00	20678	52	-56.8	-87.0	260	4
2023-09-14T00:00	20703	51	-56.9	-87.1	262	4
2023-09-14T00:00	20723	51	-56.8	-87.0	265	4
2023-09-14T00:00	20748	51	-56.8	-87.0	270	5
2023-09-14T00:00	20772	51	-56.9	-87.1	276	5
2023-09-14T00:00	20796	51	-57.0	-87.2	282	5
2023-09-14T00:00	20818	50	-57.0	-87.2	288	5
2023-09-14T00:00	20838	50	-57.0	-87.2	293	5
2023-09-14T00:00	20865	50	-56.9	-87.1	298	4
2023-09-14T00:00	20888	50	-56.9	-87.1	304	4
2023-09-14T00:00	20915	50	-56.8	-87.0	309	4
2023-09-14T00:00	20937	49	-56.9	-87.1	316	4
2023-09-14T00:00	20959	49	-56.9	-87.1	322	4
2023-09-14T00:00	20981	49	-56.8	-87.0	326	4
2023-09-14T00:00	21009	49	-56.8	-87.0	328	4
2023-09-14T00:00	21028	49	-56.7	-86.9	328	4
2023-09-14T00:00	21054	49	-56.6	-86.9	326	4
2023-09-14T00:00	21079	48	-56.7	-86.9	321	4
2023-09-14T00:00	21103	48	-56.8	-87.0	314	4
2023-09-14T00:00	21124	48	-56.8	-87.0	307	4
2023-09-14T00:00	21152	48	-57.0	-87.2	302	4
2023-09-14T00:00	21172	48	-57.0	-87.2	299	4
2023-09-14T00:00	21196	47	-57.1	-87.2	299	4
2023-09-14T00:00	21221	47	-57.0	-87.2	299	4
2023-09-14T00:00	21244	47	-57.0	-87.2	300	4
2023-09-14T00:00	21270	47	-57.0	-87.2	300	4
2023-09-14T00:00	21296	47	-56.9	-87.1	302	4
2023-09-14T00:00	21318	47	-56.9	-87.1	305	4
2023-09-14T00:00	21339	46	-56.8	-87.0	310	4
2023-09-14T00:00	21365	46	-56.9	-87.1	316	5
2023-09-14T00:00	21392	46	-56.8	-87.0	322	5
2023-09-14T00:00	21417	46	-56.8	-87.0	329	4
2023-09-14T00:00	21439	46	-56.8	-87.0	335	4
2023-09-14T00:00	21463	46	-56.9	-87.1	340	4
2023-09-14T00:00	21493	45	-57.0	-87.2	344	4
2023-09-14T00:00	21513	45	-57.0	-87.2	346	4
2023-09-14T00:00	21535	45	-56.9	-87.1	346	3
2023-09-14T00:00	21562	45	-56.7	-87.5	345	3
2023-09-14T00:00	21587	45	-56.5	-87.4	343	2
2023-09-14T00:00	21613	44	-56.6	-87.5	338	2
2023-09-14T00:00	21638	44	-56.5	-87.4	325	1
2023-09-14T00:00	21661	44	-56.3	-87.2	293	1
2023-09-14T00:00	21684	44	-56.2	-87.2	266	1
2023-09-14T00:00	21708	44	-56.2	-87.2	259	1
2023-09-14T00:00	21732	44	-56.4	-87.3	259	2
2023-09-14T00:00	21755	43	-56.6	-87.5	263	2
2023-09-14T00:00	21778	43	-56.7	-87.5	268	3
2023-09-14T00:00	21807	43	-56.4	-87.3	275	3
2023-09-14T00:00	21830	43	-56.2	-87.2	284	3
2023-09-14T00:00	21853	43	-56.1	-87.1	293	3
2023-09-14T00:00	21881	43	-56.1	-87.1	302	3
2023-09-14T00:00	21902	42	-56.3	-87.2	309	3
2023-09-14T00:00	21922	42	-56.4	-87.3	314	3
2023-09-14T00:00	21945	42	-56.5	-87.4	318	3
2023-09-14T00:00	21972	42	-56.4	-87.3	320	3
2023-09-14T00:00	21997	42	-56.3	-87.2	322	3
2023-09-14T00:00	22023	42	-56.3	-87.2	325	3
2023-09-14T00:00	22047	42	-56.3	-87.2	330	4
2023-09-14T00:00	22069	41	-56.2	-87.2	334	4
2023-09-14T00:00	22092	41	-56.3	-87.2	339	4
2023-09-14T00:00	22118	41	-56.4	-87.3	342	4
2023-09-14T00:00	22138	41	-56.5	-87.4	344	4
2023-09-14T00:00	22161	41	-56.4	-87.3	343	4
2023-09-14T00:00	22190	41	-56.5	-87.4	341	4
2023-09-14T00:00	22209	40	-56.5	-87.4	338	3
2023-09-14T00:00	22232	40	-56.5	-86.8	333	3
2023-09-14T00:00	22255	40	-56.6	-86.9	325	3
2023-09-14T00:00	22279	40	-56.6	-86.9	311	2
2023-09-14T00:00	22302	40	-56.7	-86.9	291	2
2023-09-14T00:00	22325	40	-56.9	-87.1	275	3
2023-09-14T00:00	22350	40	-57.0	-87.2	265	4
2023-09-14T00:00	22375	39	-56.9	-87.7	261	4
2023-09-14T00:00	22405	39	-56.9	-87.7	260	5
2023-09-14T00:00	22422	39	-56.6	-87.5	262	5
2023-09-14T00:00	22448	39	-56.3	-87.2	264	6
2023-09-14T00:00	22467	39	-56.2	-87.8	267	6
2023-09-14T00:00	22492	39	-55.9	-87.6	270	6
2023-09-14T00:00	22516	39	-55.7	-87.5	272	6
2023-09-14T00:00	22537	38	-55.7	-87.5	275	6
2023-09-14T00:00	22564	38	-55.8	-87.5	279	6
2023-09-14T00:00	22587	38	-55.7	-87.5	282	6
2023-09-14T00:00	22606	38	-55.7	-87.5	286	6
2023-09-14T00:00	22631	38	-55.7	-86.8	289	6
2023-09-14T00:00	22656	38	-55.8	-86.9	293	5
2023-09-14T00:00	22681	38	-55.8	-86.9	295	5
2023-09-14T00:00	22705	37	-55.7	-86.8	297	4
2023-09-14T00:00	22727	37	-55.8	-86.9	296	4
2023-09-14T00:00	22752	37	-56.0	-87.0	291	3
2023-09-14T00:00	22777	37	-55.9	-86.9	283	3
2023-09-14T00:00	22800	37	-55.8	-86.9	276	4
2023-09-14T00:00	22824	37	-55.9	-86.9	270	4
2023-09-14T00:00	22846	37	-55.7	-87.5	267	4
2023-09-14T00:00	22872	36	-55.6	-87.4	267	4
2023-09-14T00:00	22890	36	-55.4	-87.2	268	4
2023-09-14T00:00	22914	36	-55.4	-87.2	269	4
2023-09-14T00:00	22943	36	-55.2	-87.1	271	4
2023-09-14T00:00	22960	36	-54.9	-86.9	271	4
2023-09-14T00:00	22984	36	-54.7	-86.7	270	4
2023-09-14T00:00	23007	36	-54.6	-86.7	268	4
2023-09-14T00:00	23032	36	-54.6	-86.7	266	5
2023-09-14T00:00	23059	35	-54.7	-86.7	265	5
2023-09-14T00:00	23081	35	-54.6	-86.7	266	5
2023-09-14T00:00	23109	35	-54.6	-86.7	267	6
2023-09-14T00:00	23133	35	-54.6	-86.7	269	6
2023-09-14T00:00	23161	35	-54.4	-86.5	272	6
2023-09-14T00:00	23182	35	-54.2	-86.4	275	6
2023-09-14T00:00	23205	35	-54.3	-87.2	279	6
2023-09-14T00:00	23229	34	-54.2	-87.1	284	6
2023-09-14T00:00	23254	34	-54.0	-87.0	290	5
2023-09-14T00:00	23278	34	-53.8	-86.8	296	4
2023-09-14T00:00	23299	34	-53.8	-86.8	304	4
2023-09-14T00:00	23332	34	-53.8	-86.8	310	4
2023-09-14T00:00	23359	34	-53.9	-86.9	315	3
2023-09-14T00:00	23378	34	-53.9	-86.9	316	3
2023-09-14T00:00	23406	34	-53.7	-86.8	314	3
2023-09-14T00:00	23424	33	-53.5	-86.6	309	3
2023-09-14T00:00	23447	33	-53.5	-86.6	300	2
2023-09-14T00:00	23473	33	-53.4	-86.5	286	2
2023-09-14T00:00	23494	33	-53.5	-86.6	261	1
2023-09-14T00:00	23523	33	-53.6	-86.7	228	2
2023-09-14T00:00	23545	33	-53.7	-86.0	203	2
2023-09-14T00:00	23569	33	-53.7	-86.0	189	3
2023-09-14T00:00	23593	33	-53.9	-86.2	183	3
2023-09-14T00:00	23622	32	-53.9	-86.2	181	4
2023-09-14T00:00	23648	32	-53.9	-86.2	182	5
2023-09-14T00:00	23675	32	-54.0	-86.2	184	5
2023-09-14T00:00	23701	32	-54.0	-86.2	187	6
2023-09-14T00:00	23723	32	-54.2	-86.4	191	6
2023-09-14T00:00	23748	32	-54.3	-86.4	195	6
2023-09-14T00:00	23775	32	-54.5	-86.6	199	6
2023-09-14T00:00	23792	32	-54.6	-86.7	203	6
2023-09-14T00:00	23828	31	-54.7	-86.7	206	6
2023-09-14T00:00	23853	31	-54.9	-86.9	209	5
2023-09-14T00:00	23880	31	-54.9	-86.9	213	5
2023-09-14T00:00	23903	31	-54.8	-86.8	216	5
2023-09-14T00:00	23924	31	-54.8	-86.8	221	5
2023-09-14T00:00	23953	31	-54.9	-86.9	225	5
2023-09-14T00:00	23982	31	-54.9	-86.9	229	5
2023-09-14T00:00	24002	31	-55.0	-87.0	232	4
2023-09-14T00:00	24029	30	-55.1	-87.0	234	4
2023-09-14T00:00	24057	30	-55.2	-87.1	234	4
2023-09-14T00:00	24075	30	-55.3	-87.2	232	3
2023-09-14T00:00	24104	30	-55.3	-87.2	225	3
2023-09-14T00:00	24129	30	-55.4	-86.6	217	3
2023-09-14T00:00	24147	30	-55.4	-86.6	209	3
2023-09-14T00:00	24174	30	-55.5	-86.7	205	3
2023-09-14T00:00	24196	30	-55.5	-86.7	203	4
2023-09-14T00:00	24227	30	-55.7	-86.8	205	4
2023-09-14T00:00	24246	29	-55.8	-86.9	209	5
2023-09-14T00:00	24272	29	-55.9	-86.9	215	6
2023-09-14T00:00	24297	29	-55.9	-86.9	221	6
2023-09-14T00:00	24324	29	-55.7	-86.8	226	7
2023-09-14T00:00	24347	29	-55.7	-87.5	231	8
2023-09-14T00:00	24373	29	-55.8	-87.5	235	8
2023-09-14T00:00	24398	29	-55.6	-86.7	239	9
2023-09-14T00:00	24420	29	-55.7	-86.8	243	9
2023-09-14T00:00	24450	29	-55.9	-86.9	246	9
2023-09-14T00:00	24471	28	-55.9	-86.9	249	9
2023-09-14T00:00	24500	28	-56.0	-87.0	251	9
2023-09-14T00:00	24525	28	-56.0	-87.0	253	9
2023-09-14T00:00	24558	28	-55.8	-87.5	253	9
2023-09-14T00:00	24572	28	-55.8	-87.5	254	9
2023-09-14T00:00	24607	28	-55.6	-87.4	254	9
2023-09-14T00:00	24635	28	-55.5	-87.3	254	9
2023-09-14T00:00	24657	28	-55.4	-87.2	255	8
2023-09-14T00:00	24681	27	-55.4	-87.2	255	8
2023-09-14T00:00	24711	27	-55.4	-87.2	256	7
2023-09-14T00:00	24742	27	-55.3	-87.2	257	7
2023-09-14T00:00	24763	27	-55.1	-87.0	258	6
2023-09-14T00:00	24789	27	-55.0	-87.0	261	6
2023-09-14T00:00	24813	27	-54.8	-86.8	265	6
2023-09-14T00:00	24845	27	-54.8	-86.8	269	6
2023-09-14T00:00	24863	27	-54.7	-87.5	274	6
2023-09-14T00:00	24893	27	-54.6	-87.4	278	6
2023-09-14T00:00	24918	26	-54.4	-87.3	282	7
2023-09-14T00:00	24945	26	-54.4	-87.3	286	6
2023-09-14T00:00	24964	26	-54.5	-87.3	291	6
2023-09-14T00:00	24991	26	-54.5	-87.3	297	6
2023-09-14T00:00	25024	26	-54.4	-87.3	302	5
2023-09-14T00:00	25041	26	-54.1	-87.1	306	5
2023-09-14T00:00	25063	26	-53.8	-86.8	309	4
2023-09-14T00:00	25088	26	-53.5	-86.6	309	4
2023-09-14T00:00	25116	26	-53.1	-87.2	307	3
2023-09-14T00:00	25147	26	-53.0	-87.1	304	3
2023-09-14T00:00	25166	25	-52.9	-87.1	302	2
2023-09-14T00:00	25194	25	-52.6	-86.8	303	3
2023-09-14T00:00	25218	25	-52.4	-86.7	306	3
2023-09-14T00:00	25241	25	-52.1	-86.5	310	3
2023-09-14T00:00	25269	25	-52.1	-86.5	314	3
2023-09-14T00:00	25285	25	-51.9	-86.3	319	4
2023-09-14T00:00	25314	25	-51.7	-86.2	324	3
2023-09-14T00:00	25339	25	-51.6	-86.1	328	3
2023-09-14T00:00	25360	25	-51.7	-86.2	333	3
2023-09-14T00:00	25389	25	-51.8	-86.3	336	3
2023-09-14T00:00	25410	25	-51.7	-86.2	340	2
2023-09-14T00:00	25433	24	-51.7	-86.2	343	2
2023-09-14T00:00	25454	24	-51.6	-86.1	345	2
2023-09-14T00:00	25485	24	-51.4	-86.0	343	2
2023-09-14T00:00	25513	24	-51.3	-85.9	337	2
2023-09-14T00:00	25542	24	-51.4	-86.0	325	2
2023-09-14T00:00	25564	24	-51.5	-86.1	309	2
2023-09-14T00:00	25579	24	-51.5	-86.1	291	2
2023-09-14T00:00	25614	24	-51.6	-86.1	274	3
2023-09-14T00:00	25633	24	-51.6	-86.1	260	3
2023-09-14T00:00	25657	24	-51.6	-86.1	249	4
2023-09-14T00:00	25681	24	-51.7	-86.2	241	4
2023-09-14T00:00	25701	23	-51.6	-85.2	236	5
2023-09-14T00:00	25721	23	-51.6	-85.2	233	5
2023-09-14T00:00	25743	23	-51.7	-85.3	233	6
2023-09-14T00:00	25768	23	-51.9	-85.5	234	6
2023-09-14T00:00	25805	23	-52.1	-85.6	236	7
2023-09-14T00:00	25821	23	-52.0	-85.5	239	7
2023-09-14T00:00	25854	23	-51.9	-85.5	243	7
2023-09-14T00:00	25875	23	-52.0	-85.5	247	7
2023-09-14T00:00	25904	23	-52.1	-85.6	252	7
2023-09-14T00:00	25928	23	-52.0	-85.5	256	7
2023-09-14T00:00	25956	23	-52.0	-85.5	261	7
2023-09-14T00:00	25979	22	-52.0	-86.4	264	7
2023-09-14T00:00	26011	22	-52.1	-86.5	268	7
2023-09-14T00:00	26035	22	-52.1	-85.6	271	7
2023-09-14T00:00	26059	22	-52.2	-85.7	274	7
2023-09-14T00:00	26082	22	-52.2	-85.7	278	6
2023-09-14T00:00	26116	22	-52.2	-85.7	283	6
2023-09-14T00:00	26146	22	-52.3	-85.8	287	5
2023-09-14T00:00	26172	22	-52.1	-86.5	289	5
2023-09-14T00:00	26186	22	-52.1	-86.5	288	4
2023-09-14T00:00	26222	22	-52.0	-86.4	282	3
2023-09-14T00:00	26253	22	-52.0	-86.4	270	3
2023-09-14T00:00	26276	21	-51.7	-86.2	255	3
2023-09-14T00:00	26302	21	-51.6	-86.1	243	4
2023-09-14T00:00	26326	21	-51.5	-86.1	236	5
2023-09-14T00:00	26354	21	-51.5	-86.1	232	5
2023-09-14T00:00	26382	21	-51.4	-86.0	231	6
2023-09-14T00:00	26410	21	-51.4	-86.0	231	7
2023-09-14T00:00	26434	21	-51.4	-86.0	233	8
2023-09-14T00:00	26465	21	-51.1	-85.8	235	8
2023-09-14T00:00	26481	21	-50.9	-86.7	238	9
2023-09-14T00:00	26510	21	-50.7	-86.5	242	9
2023-09-14T00:00	26536	21	-50.3	-86.2	246	8
2023-09-14T00:00	26571	21	-50.3	-86.2	250	8
2023-09-14T00:00	26591	20	-50.4	-85.3	255	8
2023-09-14T00:00	26619	20	-50.4	-85.3	259	8
2023-09-14T00:00	26650	20	-50.5	-85.3	264	8
2023-09-14T00:00	26675	20	-50.5	-85.3	269	8
2023-09-14T00:00	26697	20	-50.5	-85.3	273	8
2023-09-14T00:00	26715	20	-50.5	-85.3	276	8
2023-09-14T00:00	26729	20	-50.3	-85.2	278	8
2023-09-14T00:00	26766	20	-50.2	-85.1	278	7
2023-09-14T00:00	26786	20	-50.3	-85.2	277	7
2023-09-14T00:00	26819	20	-50.2	-85.1	276	6
2023-09-14T00:00	26842	20	-50.1	-85.1	273	6
2023-09-14T00:00	26868	20	-50.2	-85.1	269	5
2023-09-14T00:00	26888	20	-50.3	-85.2	264	5
2023-09-14T00:00	26915	19	-50.3	-85.2	258	5
2023-09-14T00:00	26943	19	-50.3	-85.2	251	5
2023-09-14T00:00	26958	19	-50.0	-86.0	245	5
2023-09-14T00:00	26992	19	-50.1	-86.1	239	6
2023-09-14T00:00	27006	19	-50.0	-86.0	233	6
2023-09-14T00:00	27041	19	-50.0	-86.0	227	7
2023-09-14T00:00	27067	19	-49.9	-86.0	220	7
2023-09-14T00:00	27082	19	-49.8	-85.9	212	7
2023-09-14T00:00	27116	19	-49.7	-85.8	206	8
2023-09-14T00:00	27142	19	-49.6	-85.8	200	8
2023-09-14T00:00	27156	19	-49.3	-85.5	198	8
2023-09-14T00:00	27187	19	-48.8	-85.2	198	8
2023-09-14T00:00	27216	19	-48.6	-85.0	200	9
2023-09-14T00:00	27234	19	-48.4	-84.9	203	9
2023-09-14T00:00	27257	18	-48.2	-84.8	207	9
2023-09-14T00:00	27273	18	-48.0	-84.6	211	9
2023-09-14T00:00	27310	18	-48.0	-84.6	216	9
2023-09-14T00:00	27338	18	-48.1	-84.7	220	9
2023-09-14T00:00	27363	18	-48.1	-84.7	224	9
2023-09-14T00:00	27386	18	-48.2	-84.8	227	9
2023-09-14T00:00	27419	18	-48.2	-84.8	229	9
2023-09-14T00:00	27447	18	-48.2	-84.8	230	10
2023-09-14T00:00	27473	18	-48.2	-84.8	232	10
2023-09-14T00:00	27500	18	-48.1	-84.7	235	10
2023-09-14T00:00	27525	18	-48.0	-84.6	239	10
2023-09-14T00:00	27545	18	-48.0	-84.6	244	9
2023-09-14T00:00	27576	18	-47.9	-84.6	249	9
2023-09-14T00:00	27605	18	-47.5	-84.3	253	9
2023-09-14T00:00	27630	17	-47.3	-84.1	257	8
2023-09-14T00:00	27667	17	-47.4	-84.2	260	8
2023-09-14T00:00	27690	17	-47.4	-84.2	262	7
2023-09-14T00:00	27709	17	-47.5	-84.3	265	6
2023-09-14T00:00	27740	17	-47.6	-84.3	267	6
2023-09-14T00:00	27764	17	-47.6	-84.3	270	6
2023-09-14T00:00	27793	17	-47.7	-84.4	273	6
2023-09-14T00:00	27828	17	-47.6	-84.3	275	6
2023-09-14T00:00	27848	17	-47.7	-84.4	277	6
2023-09-14T00:00	27884	17	-47.7	-84.4	278	7
2023-09-14T00:00	27908	17	-47.8	-84.5	279	7
2023-09-14T00:00	27933	17	-47.9	-84.6	281	8
2023-09-14T00:00	27957	17	-47.9	-84.6	282	8
2023-09-14T00:00	27979	17	-48.0	-84.6	283	8
2023-09-14T00:00	28017	16	-48.2	-84.8	285	7
2023-09-14T00:00	28031	16	-48.2	-84.8	287	7
2023-09-14T00:00	28064	16	-48.4	-84.9	288	7
2023-09-14T00:00	28090	16	-48.5	-85.0	289	6
2023-09-14T00:00	28108	16	-48.3	-84.8	288	5
2023-09-14T00:00	28145	16	-48.3	-84.8	286	4
2023-09-14T00:00	28167	16	-48.4	-84.9	280	3
2023-09-14T00:00	28180	16	-48.2	-84.8	271	3
2023-09-14T00:00	28211	16	-48.2	-84.8	259	2
2023-09-14T00:00	28246	16	-48.3	-84.8	245	2
2023-09-14T00:00	28266	16	-48.2	-84.8	235	2
2023-09-14T00:00	28293	16	-48.1	-84.7	230	2
2023-09-14T00:00	28311	16	-48.1	-84.7	228	3
2023-09-14T00:00	28335	16	-48.0	-84.6	228	3
2023-09-14T00:00	28372	16	-47.9	-84.6	227	4
2023-09-14T00:00	28392	16	-47.7	-84.4	226	4
2023-09-14T00:00	28422	16	-47.5	-84.3	226	5
2023-09-14T00:00	28445	15	-47.4	-84.2	225	5
2023-09-14T00:00	28475	15	-47.3	-84.1	225	5
2023-09-14T00:00	28494	15	-47.3	-84.1	226	5
2023-09-14T00:00	28528	15	-47.2	-84.1	227	5
2023-09-14T00:00	28543	15	-47.1	-84.0	229	6
2023-09-14T00:00	28589	15	-46.6	-83.6	230	6
2023-09-14T00:00	28611	15	-46.5	-83.6	231	7
2023-09-14T00:00	28635	15	-46.5	-83.6	232	7
2023-09-14T00:00	28660	15	-46.4	-83.5	234	8
2023-09-14T00:00	28680	15	-46.4	-83.5	236	8
2023-09-14T00:00	28707	15	-46.3	-83.4	240	9
2023-09-14T00:00	28746	15	-46.1	-83.3	244	9
2023-09-14T00:00	28768	15	-45.8	-83.1	249	10
2023-09-14T00:00	28788	15	-45.1	-82.6	254	10
2023-09-14T00:00	28824	15	-44.7	-82.3	259	11
2023-09-14T00:00	28847	15	-44.6	-82.2	264	11
2023-09-14T00:00	28896	14	-44.6	-82.2	269	12
2023-09-14T00:00	28915	14	-44.7	-82.3	273	13
2023-09-14T00:00	28946	14	-44.7	-82.3	277	13
2023-09-14T00:00	28972	14	-44.7	-82.3	280	14
2023-09-14T00:00	29025	14	-44.9	-82.5	283	14
2023-09-14T00:00	29046	14	-45.0	-82.5	285	14
2023-09-14T00:00	29079	14	-45.1	-82.6	287	14
2023-09-14T00:00	29108	14	-45.2	-82.7	288	13
2023-09-14T00:00	29143	14	-45.1	-82.6	289	12
2023-09-14T00:00	29185	14	-44.8	-82.4	289	11
2023-09-14T00:00	29210	14	-44.8	-82.4	290	11
2023-09-14T00:00	29249	14	-45.0	-82.5	291	10
2023-09-14T00:00	29276	14	-45.1	-82.6	294	9
2023-09-14T00:00	29310	14	-45.3	-82.7	297	8
2023-09-14T00:00	29328	14	-45.4	-82.8	300	8
2023-09-14T00:00	29369	13	-45.4	-82.8	303	7
2023-09-14T00:00	29410	13	-45.3	-82.7	305	6
2023-09-14T00:00	29426	13	-45.3	-82.7	306	6
2023-09-14T00:00	29467	13	-45.3	-82.7	305	5
2023-09-14T00:00	29494	13	-45.4	-82.8	303	5
2023-09-14T00:00	29520	13	-45.4	-82.8	300	5
2023-09-14T00:00	29552	13	-45.4	-82.8	296	4
2023-09-14T00:00	29595	13	-45.6	-82.9	291	4
2023-09-14T00:00	29625	13	-45.8	-83.1	284	4
2023-09-14T00:00	29649	13	-46.0	-83.2	276	3
2023-09-14T00:00	29683	13	-46.2	-83.4	266	3
2023-09-14T00:00	29714	13	-46.3	-83.4	256	3
2023-09-14T00:00	29738	13	-46.4	-83.5	247	3
2023-09-14T00:00	29762	13	-46.6	-83.6	242	4
2023-09-14T00:00	29790	13	-46.7	-83.7	240	4
2023-09-14T00:00	29833	13	-46.7	-83.7	240	5
2023-09-14T00:00	29870	13	-46.7	-83.7	241	5
2023-09-14T00:00	29883	12	-46.7	-83.7	241	6
2023-09-14T00:00	29908	12	-46.7	-83.7	241	7
2023-09-14T00:00	29940	12	-46.6	-83.6	239	8
2023-09-14T00:00	29985	12	-46.4	-83.5	236	8
2023-09-14T00:00	30002	12	-46.5	-83.6	232	9
2023-09-14T00:00	30009	12	-46.4	-83.5	228	9
2023-09-14T00:00	30054	12	-46.4	-83.5	224	10
2023-09-14T00:00	30091	12	-46.5	-83.6	221	10
2023-09-14T00:00	30125	12	-46.7	-83.7	219	11
2023-09-14T00:00	30142	12	-46.9	-83.9	218	11
2023-09-14T00:00	30178	12	-47.1	-84.0	218	11
2023-09-14T00:00	30194	12	-47.2	-84.1	219	12
2023-09-14T00:00	30219	12	-47.3	-84.1	221	12
2023-09-14T00:00	30247	12	-47.4	-84.2	222	12
2023-09-14T00:00	30278	12	-47.5	-84.3	224	12
2023-09-14T00:00	30325	12	-47.5	-84.3	226	12
2023-09-14T00:00	30363	12	-47.3	-84.1	230	13
2023-09-14T00:00	30378	12	-47.3	-84.1	232	13
2023-09-14T00:00	30398	12	-47.0	-83.9	234	13
2023-09-14T00:00	30433	11	-46.6	-83.6	237	13
2023-09-14T00:00	30456	11	-46.5	-83.6	239	13
2023-09-14T00:00	30484	11	-46.5	-83.6	241	13
2023-09-14T00:00	30533	11	-46.5	-83.6	243	14
2023-09-14T00:00	30538	11	-46.3	-83.4	244	14
2023-09-14T00:00	30557	11	-45.9	-83.2	245	15
2023-09-14T00:00	30592	11	-45.4	-82.8	246	15
2023-09-14T00:00	30623	11	-44.9	-82.5	249	15
2023-09-14T00:00	30649	11	-44.2	-82.0	252	15
2023-09-14T00:00	30671	11	-44.1	-81.9	255	15
2023-09-14T00:00	30708	11	-44.0	-81.8	258	15
2023-09-14T00:00	30709	11	-43.8	-81.7	260	15
2023-09-14T00:00	30752	11	-43.7	-81.6	261	15
2023-09-14T00:00	30777	11	-43.4	-81.4	262	15
2023-09-14T00:00	30806	11	-43.5	-81.5	263	15
2023-09-14T00:00	30833	11	-43.3	-81.3	263	14
2023-09-14T00:00	30848	11	-43.2	-81.3	263	14
2023-09-14T00:00	30900	11	-43.0	-81.1	264	14
2023-09-14T00:00	30902	11	-43.1	-81.2	266	14
2023-09-14T00:00	30933	11	-43.2	-81.3	268	14
2023-09-14T00:00	30973	11	-43.3	-81.3	270	14
2023-09-14T00:00	30992	11	-43.2	-81.3	272	14
2023-09-14T00:00	31012	11	-42.8	-81.0	273	15
2023-09-14T00:00	31032	10	-42.1	-80.5	275	15
2023-09-14T00:00	31061	10	-42.1	-80.5	275	15
2023-09-14T00:00	31093	10	-42.0	-80.4	276	14
2023-09-14T00:00	31114	10	-41.9	-80.4	277	14
2023-09-14T00:00	31129	10	-42.0	-80.4	277	13
2023-09-14T00:00	31179	10	-41.9	-80.4	277	13
2023-09-14T00:00	31187	10	-41.8	-80.3	276	12
2023-09-14T00:00	31219	10	-41.7	-80.2	275	12
2023-09-14T00:00	31237	10	-41.8	-80.3	274	12
2023-09-14T00:00	31259	10	-41.7	-80.2	272	12
2023-09-14T00:00	31287	10	-41.6	-80.1	269	12
2023-09-14T00:00	31297	10	-41.6	-80.1	267	12
2023-09-14T00:00	31324	10	-41.5	-80.1	265	12
2023-09-14T00:00	31371	10	-41.6	-80.1	264	12
2023-09-14T00:00	31390	10	-41.6	-80.1	264	12
2023-09-14T00:00	31414	10	-41.5	-80.1	264	11
2023-09-14T00:00	31432	10	-41.4	-80.0	265	11
2023-09-14T00:00	31458	10	-41.2	-79.9	265	10
2023-09-14T00:00	31497	10	-41.2	-79.9	265	9
2023-09-14T00:00	31515	10	-41.3	-79.9	265	9
2023-09-14T00:00	31543	10	-41.4	-80.0	265	8
2023-09-14T00:00	31566	10	-41.5	-80.1	264	8
2023-09-14T00:00	31600	10	-41.5	-80.1	264	8
2023-09-14T00:00	31638	10	-41.5	-80.1	265	8
2023-09-14T00:00	31653	10	-41.5	-80.1	265	8
2023-09-14T00:00	31687	10	-41.6	-80.1	266	8
2023-09-14T00:00	31719	9	-41.5	-80.1	266	8
2023-09-14T00:00	31746	9	-41.5	-80.1	266	8
2023-09-14T00:00	31761	9	-41.4	-80.0	265	8
2023-09-14T00:00	31813	9	-41.4	-80.0	264	8
2023-09-14T00:00	31815	9	-41.4	-80.0	261	8
2023-09-14T00:00	31828	9	-41.3	-79.9	257	8
2023-09-14T00:00	31884	9	-41.3	-79.9	252	8
2023-09-14T00:00	31912	9	-41.4	-80.0	248	8
2023-09-14T00:00	31945	9	-41.4	-80.0	243	8
2023-09-14T00:00	31946	9	-41.4	-80.0	239	8
2023-09-14T00:00	31983	9	-41.4	-80.0	235	9
2023-09-14T00:00	32021	9	-41.5	-80.1	232	9
2023-09-14T00:00	32043	9	-41.6	-80.1	231	9
2023-09-14T00:00	32083	9	-41.6	-80.1	230	10
2023-09-14T00:00	32103	9	-41.6	-80.1	230	10
2023-09-14T00:00	32123	9	-41.8	-80.3	229	11
2023-09-14T00:00	32173	9	-41.9	-80.4	229	12
2023-09-14T00:00	32186	9	-42.0	-80.4	228	12
2023-09-14T00:00	32207	9	-42.0	-80.4	227	12
2023-09-14T00:00	32257	9	-42.0	-80.4	226	13
2023-09-14T00:00	32266	9	-42.0	-80.4	226	13
2023-09-14T00:00	32286	9	-42.2	-80.6	225	12
2023-09-14T00:00	32311	9	-42.2	-80.6	224	12
2023-09-14T00:00	32352	9	-42.3	-80.6	223	12
2023-09-14T00:00	32360	9	-42.4	-80.7	222	12
2023-09-14T00:00	32388	9	-42.3	-80.6	221	11
2023-09-14T00:00	32425	9	-42.2	-80.6	221	11
2023-09-14T00:00	32435	9	-42.1	-80.5	222	11
2023-09-14T00:00	32464	8	-42.1	-80.5	225	11
2023-09-14T00:00	32484	8	-41.9	-80.4	228	12
2023-09-14T00:00	32508	8	-41.7	-80.2	230	12
2023-09-14T00:00	32542	8	-41.4	-80.0	233	13
2023-09-14T00:00	32580	8	-41.3	-79.9	237	13
2023-09-14T00:00	32582	8	-41.2	-79.9	240	14
2023-09-14T00:00	32610	8	-41.2	-79.9	242	14
2023-09-14T06:00	113	1008	12.9	12.6	305	3
2023-09-14T06:00	137	1005	12.8	12.0	303	4
2023-09-14T06:00	164	1001	12.6	11.7	304	5
2023-09-14T06:00	185	999	12.4	11.5	305	6
2023-09-14T06:00	206	996	12.3	11.4	306	6
2023-09-14T06:00	230	994	12.1	11.4	307	6
2023-09-14T06:00	253	991	11.9	11.3	309	6
2023-09-14T06:00	275	988	11.7	11.3	310	6
2023-09-14T06:00	301	985	11.4	11.3	311	6
2023-09-14T06:00	325	982	11.2	11.1	313	7
2023-09-14T06:00	351	979	10.9	10.9	316	7
2023-09-14T06:00	373	977	10.8	10.8	320	7
2023-09-14T06:00	395	974	10.9	10.1	325	7
2023-09-14T06:00	415	972	10.9	9.9	330	7
2023-09-14T06:00	438	969	10.9	9.3	334	7
2023-09-14T06:00	459	967	11.4	9.4	338	7
2023-09-14T06:00	480	964	11.4	9.6	341	6
2023-09-14T06:00	498	962	11.3		343	6
2023-09-14T06:00	518	960	11.2	9.3	343	6
2023-09-14T06:00	538	958	11.1	9.7	343	6
2023-09-14T06:00	561	955	11.0	9.7	342	6
2023-09-14T06:00	581	953	10.8	10.1	340	5
2023-09-14T06:00	602	950	10.7	9.9	338	5
2023-09-14T06:00	621	948	10.5	9.5	336	5
2023-09-14T06:00	645	946	10.4	9.7	335	5
2023-09-14T06:00	665	943	10.3	9.1	335	6
2023-09-14T06:00	684	941	10.3	7.0	335	6
2023-09-14T06:00	711	938	10.4	5.6	335	6
2023-09-14T06:00	728	936	10.4	3.4	335	6
2023-09-14T06:00	749	933	10.4	1.3	333	6
2023-09-14T06:00	783	930	10.5	0.1	331	6
2023-09-14T06:00	807	927	10.4	0.1	329	6
2023-09-14T06:00	837	924	10.3	0.1	328	6
2023-09-14T06:00	856	921	10.1	0.5	328	6
2023-09-14T06:00	883	919	10.0	-0.1	330	6
2023-09-14T06:00	910	916	9.8	0.6	331	6
2023-09-14T06:00	939	913	9.7	1.1	333	5
2023-09-14T06:00	959	910	9.5	3.2	333	5
2023-09-14T06:00	979	908	9.3		332	5
2023-09-14T06:00	1006	905	9.2	3.5	330	5
2023-09-14T06:00	1032	902	9.1	2.9	329	5
2023-09-14T06:00	1057	900	8.8	3.0	327	5
2023-09-14T06:00	1079	897	8.6	4.1	324	5
2023-09-14T06:00	1102	895	8.3	4.8	319	5
2023-09-14T06:00	1126	892	8.1	4.8	313	5
2023-09-14T06:00	1149	890	7.9	4.6	309	5
2023-09-14T06:00	1177	887	7.8	4.5	308	5
2023-09-14T06:00	1198	884	7.6	5.3	310	5
2023-09-14T06:00	1224	882	7.4	6.4	314	6
2023-09-14T06:00	1248	879	7.2	6.3	318	6
2023-09-14T06:00	1269	877	7.1	6.8	323	6
2023-09-14T06:00	1293	874	7.2	3.7	328	6
2023-09-14T06:00	1315	872	7.3	0.8	332	6
2023-09-14T06:00	1338	870	7.2	3.0	334	6
2023-09-14T06:00	1363	867	8.0	-3.4	335	5
2023-09-14T06:00	1386	865	8.3	-4.4	333	5
2023-09-14T06:00	1410	862	8.1	-1.0	329	5
2023-09-14T06:00	1434	860	7.8	3.5	326	4
2023-09-14T06:00	1459	857	7.6	6.1	324	4
2023-09-14T06:00	1486	854	7.3	6.5	322	4
2023-09-14T06:00	1513	852	7.1	6.5	319	4
2023-09-14T06:00	1533	849	7.0	6.5	314	4
2023-09-14T06:00	1557	847	6.8	6.5	307	4
2023-09-14T06:00	1582	844	6.5	6.4	300	5
2023-09-14T06:00	1606	842	6.3	6.3	293	5
2023-09-14T06:00	1632	839	6.1	6.1	289	5
2023-09-14T06:00	1657	837	6.0	6.0	289	5
2023-09-14T06:00	1686	834	5.7	5.7	293	5
2023-09-14T06:00	1712	831	5.6	5.6	301	5
2023-09-14T06:00	1739	828	5.5	5.5	311	5
2023-09-14T06:00	1764	826	5.7	5.7	321	5
2023-09-14T06:00	1790	823	5.7	5.4	329	5
2023-09-14T06:00	1816	821	5.5	5.1	334	5
2023-09-14T06:00	1838	818	5.5	4.7	335	6
2023-09-14T06:00	1860	816	5.6	4.4	336	6
2023-09-14T06:00	1882	814	5.7	3.8	335	6
2023-09-14T06:00	1908	811	5.8	4.2	336	7
2023-09-14T06:00	1935	809	5.7	4.0	337	7
2023-09-14T06:00	1951	807	5.6	4.0	339	6
2023-09-14T06:00	1970	805	5.5	4.0	340	6
2023-09-14T06:00	1993	803	5.4	4.0	342	6
2023-09-14T06:00	2015	801	5.6	3.5	342	6
2023-09-14T06:00	2035	799	5.6	3.6	342	6
2023-09-14T06:00	2061	796	5.5	3.5	341	6
2023-09-14T06:00	2081	794	5.3	3.3	340	6
2023-09-14T06:00	2108	792	5.3	2.7	340	7
2023-09-14T06:00	2131	789	5.4	2.4	340	7
2023-09-14T06:00	2155	787	5.3	2.1	339	7
2023-09-14T06:00	2177	785	5.4	2.0	339	7
2023-09-14T06:00	2197	783	5.4	1.6	338	7
2023-09-14T06:00	2212	782	5.4	1.1	337	7
2023-09-14T06:00	2230	780	5.4	0.9	337	7
2023-09-14T06:00	2248	778	5.4	0.6	337	7
2023-09-14T06:00	2268	776	5.4	0.2	338	7
2023-09-14T06:00	2290	774	5.3	0.0	341	7
2023-09-14T06:00	2315	772	5.3	-0.8	345	6
2023-09-14T06:00	2339	770	5.3	-1.2	349	6
2023-09-14T06:00	2356	768	5.2	-1.4	354	7
2023-09-14T06:00	2376	766	5.1	-1.5	357	7
2023-09-14T06:00	2398	764	5.1	-2.2	357	7
2023-09-14T06:00	2419	762	5.2	-3.0	356	8
2023-09-14T06:00	2448	760	5.2	-3.3	354	8
2023-09-14T06:00	2469	758	5.0	-3.1	352	8
2023-09-14T06:00	2490	756	5.0	-3.2	350	8
2023-09-14T06:00	2506	754	5.0	-4.0	349	7
2023-09-14T06:00	2529	752	4.9	-4.1	348	7
2023-09-14T06:00	2552	750	4.9	-5.0	346	6
2023-09-14T06:00	2577	748	4.9	-5.8	344	6
2023-09-14T06:00	2598	746	4.8	-6.3	342	5
2023-09-14T06:00	2623	743	4.8	-6.8	341	5
2023-09-14T06:00	2643	742	4.8	-6.8	340	5
2023-09-14T06:00	2665	740	4.6	-6.9	341	5
2023-09-14T06:00	2686	738	4.5	-7.2	341	5
2023-09-14T06:00	2709	735	4.4	-7.7	341	5
2023-09-14T06:00	2737	733	4.2	-8.9	340	5
2023-09-14T06:00	2764	731	4.1	-10.1	338	6
2023-09-14T06:00	2789	728	3.9	-10.6	335	6
2023-09-14T06:00	2808	727	3.7	-10.8	332	6
2023-09-14T06:00	2829	725	3.6	-11.2	328	6
2023-09-14T06:00	2856	722	3.6	-12.1	324	6
2023-09-14T06:00	2879	720	3.4	-10.7	322	6
2023-09-14T06:00	2907	718	3.2	-10.9	320	5
2023-09-14T06:00	2933	716	3.1	-10.7	318	5
2023-09-14T06:00	2957	713	3.0	-10.9	315	5
2023-09-14T06:00	2985	711	2.8	-11.1	311	5
2023-09-14T06:00	3006	709	2.7	-11.2	306	5
2023-09-14T06:00	3038	706	2.4	-11.2	304	4
2023-09-14T06:00	3067	704	2.1	-11.3	304	4
2023-09-14T06:00	3089	702	1.9	-11.3	308	4
2023-09-14T06:00	3118	699	1.7	-11.2	314	4
2023-09-14T06:00	3144	697	1.6	-11.3	320	5
2023-09-14T06:00	3162	695	1.4	-11.3	326	5
2023-09-14T06:00	3183	694	1.2	-11.4	330	6
2023-09-14T06:00	3203	692	1.2	-11.9	333	6
2023-09-14T06:00	3225	690	1.3	-13.4	336	6
2023-09-14T06:00	3246	688	1.4	-15.5	337	6
2023-09-14T06:00	3269	686	1.7	-21.9	337	6
2023-09-14T06:00	3295	684	2.2	-28.3	335	6
2023-09-14T06:00	3320	682	2.5	-31.0	332	6
2023-09-14T06:00	3342	680	2.5	-31.2	330	6
2023-09-14T06:00	3368	678	2.8	-38.2	329	6
2023-09-14T06:00	3397	676	2.9	-38.6	328	6
2023-09-14T06:00	3421	674	2.8	-35.0	327	6
2023-09-14T06:00	3442	672	2.7	-36.4	326	6
2023-09-14T06:00	3465	670	2.9	-38.2	324	6
2023-09-14T06:00	3491	668	2.9	-35.2	322	6
2023-09-14T06:00	3516	666	2.7	-31.9	322	6
2023-09-14T06:00	3536	664	2.6	-31.3	321	6
2023-09-14T06:00	3563	662	2.5	-30.6	321	6
2023-09-14T06:00	3593	660	2.2	-30.6	319	6
2023-09-14T06:00	3614	658	2.0	-30.5	317	7
2023-09-14T06:00	3642	655	1.8	-30.5	314	7
2023-09-14T06:00	3669	653	1.6	-30.6	312	7
2023-09-14T06:00	3693	651	1.4	-30.8	311	7
2023-09-14T06:00	3713	649	1.2	-30.4	312	7
2023-09-14T06:00	3739	647	1.0	-30.7	313	7
2023-09-14T06:00	3771	645	0.8	-32.3	313	7
2023-09-14T06:00	3801	643	0.6	-31.7	312	7
2023-09-14T06:00	3829	640	0.3	-31.7	310	7
2023-09-14T06:00	3850	639	0.2	-32.5	308	7
2023-09-14T06:00	3867	637	0.1	-32.2	308	7
2023-09-14T06:00	3886	636	-0.1	-31.8	309	7
2023-09-14T06:00	3904	634	-0.3	-31.1	310	7
2023-09-14T06:00	3928	632	-0.4	-31.0	311	7
2023-09-14T06:00	3958	630	-0.7	-30.3	312	7
2023-09-14T06:00	3989	628	-0.9	-33.8	312	7
2023-09-14T06:00	4006	626	-1.0	-36.7	312	7
2023-09-14T06:00	4025	625	-1.1	-34.8	313	7
2023-09-14T06:00	4044	623	-1.3	-35.2	314	7
2023-09-14T06:00	4061	622	-1.4	-35.0	315	7
2023-09-14T06:00	4081	620	-1.6	-32.1	316	7
2023-09-14T06:00	4101	619	-1.8	-32.1	316	7
2023-09-14T06:00	4119	617	-1.9	-33.6	316	7
2023-09-14T06:00	4136	616	-2.1	-33.9	315	8
2023-09-14T06:00	4158	614	-2.3	-33.9	315	8
2023-09-14T06:00	4183	613	-2.4	-34.9	315	8
2023-09-14T06:00	4201	611	-2.6	-34.7	315	8
2023-09-14T06:00	4221	609	-2.8	-35.4	316	8
2023-09-14T06:00	4250	607	-3.0	-35.6	317	8
2023-09-14T06:00	4279	605	-3.3	-36.7	319	8
2023-09-14T06:00	4312	603	-3.6	-36.3	321	8
2023-09-14T06:00	4337	601	-3.7	-37.0	324	8
2023-09-14T06:00	4365	599	-4.0	-37.5	324	8
2023-09-14T06:00	4388	597	-4.1	-33.0	323	9
2023-09-14T06:00	4410	595	-4.4	-28.6	321	9
2023-09-14T06:00	4432	593	-4.6	-26.8	318	9
2023-09-14T06:00	4453	592	-4.8	-24.8	316	9
2023-09-14T06:00	4475	590	-5.0	-23.8	314	9
2023-09-14T06:00	4493	589	-5.2	-23.2	312	9
2023-09-14T06:00	4512	587	-5.3	-23.0	311	9
2023-09-14T06:00	4533	586	-5.4	-22.9	309	9
2023-09-14T06:00	4559	584	-5.6	-23.1	308	9
2023-09-14T06:00	4588	582	-5.8	-23.3	309	9
2023-09-14T06:00	4615	580	-6.0	-23.6	310	10
2023-09-14T06:00	4640	578	-6.1	-24.8	313	9
2023-09-14T06:00	4668	576	-5.9	-27.5	316	9
2023-09-14T06:00	4693	574	-5.6	-31.4	318	9
2023-09-14T06:00	4711	573	-5.5	-33.7	321	9
2023-09-14T06:00	4731	571	-5.5	-33.8	323	8
2023-09-14T06:00	4750	570	-5.6	-34.0	326	8
2023-09-14T06:00	4775	568	-5.7	-34.4	330	8
2023-09-14T06:00	4797	566	-5.8	-34.9	333	8
2023-09-14T06:00	4824	564	-5.9	-35.3	336	8
2023-09-14T06:00	4851	563	-6.1	-34.0	339	9
2023-09-14T06:00	4872	561	-6.3	-33.0	340	9
2023-09-14T06:00	4895	559	-6.4	-31.6	341	9
2023-09-14T06:00	4919	558	-6.6	-29.1	342	9
2023-09-14T06:00	4939	556	-6.8	-28.9	343	9
2023-09-14T06:00	4965	554	-7.0	-27.6	344	9
2023-09-14T06:00	4996	552	-7.3	-27.3	345	9
2023-09-14T06:00	5021	550	-7.5	-27.2	345	9
2023-09-14T06:00	5042	549	-7.7	-26.7	344	9
2023-09-14T06:00	5062	548	-7.9	-26.6	340	9
2023-09-14T06:00	5083	546	-8.1	-26.6	337	10
2023-09-14T06:00	5111	544	-8.0	-26.4	333	10
2023-09-14T06:00	5130	543	-8.2	-26.4	331	11
2023-09-14T06:00	5150	541	-8.4	-26.5	329	11
2023-09-14T06:00	5169	540	-8.5	-26.6	328	11
2023-09-14T06:00	5188	539	-8.6	-26.7	327	12
2023-09-14T06:00	5208	537	-8.7	-26.8	327	12
2023-09-14T06:00	5228	536	-8.8	-26.6	326	12
2023-09-14T06:00	5252	534	-9.1	-26.9	326	12
2023-09-14T06:00	5281	532	-9.4	-26.8	325	12
2023-09-14T06:00	5314	530	-9.6	-26.7	325	12
2023-09-14T06:00	5341	528	-9.9	-26.7	325	12
2023-09-14T06:00	5371	526	-10.2	-27.1	325	12
2023-09-14T06:00	5398	524	-10.5	-27.1	325	12
2023-09-14T06:00	5427	522	-10.7	-26.8	325	12
2023-09-14T06:00	5452	521	-11.0	-26.9	324	12
2023-09-14T06:00	5476	519	-11.2	-27.2	324	13
2023-09-14T06:00	5505	517	-11.4	-27.2	323	13
2023-09-14T06:00	5522	516	-11.6	-27.2	321	13
2023-09-14T06:00	5541	515	-11.8	-27.2	320	12
2023-09-14T06:00	5557	513	-11.9		319	12
2023-09-14T06:00	5580	512	-12.1	-27.0	318	12
2023-09-14T06:00	5596	511	-12.1	-28.1	318	12
2023-09-14T06:00	5613	510	-12.2	-28.5	317	12
2023-09-14T06:00	5631	508	-12.3	-29.0	317	12
2023-09-14T06:00	5651	507	-12.5	-29.1	317	12
2023-09-14T06:00	5670	506	-12.7	-29.3	317	12
2023-09-14T06:00	5689	505	-12.8	-29.1	317	12
2023-09-14T06:00	5707	503	-13.0	-28.9	316	12
2023-09-14T06:00	5725	502	-13.2	-28.2	316	12
2023-09-14T06:00	5745	501	-13.3	-28.4	315	12
2023-09-14T06:00	5764	500	-13.5	-28.3	315	12
2023-09-14T06:00	5782	499	-13.6	-28.2	315	13
2023-09-14T06:00	5801	497	-13.8	-28.5	316	13
2023-09-14T06:00	5819	496	-13.9	-28.3	316	13
2023-09-14T06:00	5838	495	-14.0	-28.8	317	13
2023-09-14T06:00	5858	494	-14.2	-29.4	316	14
2023-09-14T06:00	5875	492	-14.3	-29.4	316	14
2023-09-14T06:00	5894	491	-14.5	-29.6	315	14
2023-09-14T06:00	5913	490	-14.6	-30.1	314	14
2023-09-14T06:00	5930	489	-14.7	-30.3	313	14
2023-09-14T06:00	5950	488	-14.9	-30.3	313	14
2023-09-14T06:00	5971	486	-15.0	-30.2	312	14
2023-09-14T06:00	5989	485	-15.2	-30.2	312	14
2023-09-14T06:00	6008	484	-15.3	-30.8	312	13
2023-09-14T06:00	6025	483	-15.4	-31.0	312	13
2023-09-14T06:00	6045	482	-15.5	-31.3	312	13
2023-09-14T06:00	6062	480	-15.7	-31.7	312	13
2023-09-14T06:00	6082	479	-15.8	-31.6	312	13
2023-09-14T06:00	6100	478	-16.0	-31.8	311	13
2023-09-14T06:00	6117	477	-16.1	-31.8	312	13
2023-09-14T06:00	6137	476	-16.2	-32.7	312	13
2023-09-14T06:00	6155	475	-16.4	-32.9	311	13
2023-09-14T06:00	6173	473	-16.5	-33.0	311	13
2023-09-14T06:00	6191	472	-16.7	-33.2	311	12
2023-09-14T06:00	6212	471	-16.9	-33.5	311	12
2023-09-14T06:00	6230	470	-17.0	-33.6	311	12
2023-09-14T06:00	6248	469	-17.2	-33.6	311	12
2023-09-14T06:00	6266	468	-17.3	-33.9	311	12
2023-09-14T06:00	6284	466	-17.3	-34.1	311	11
2023-09-14T06:00	6302	465	-17.5	-34.4	310	11
2023-09-14T06:00	6323	464	-17.7	-34.5	309	11
2023-09-14T06:00	6339	463	-17.8	-34.6	308	11
2023-09-14T06:00	6360	462	-18.0	-34.9	308	11
2023-09-14T06:00	6378	461	-18.1	-35.3	307	11
2023-09-14T06:00	6393	460	-18.3	-35.5	307	11
2023-09-14T06:00	6413	459	-18.4	-35.7	306	11
2023-09-14T06:00	6431	457	-18.6	-35.8	306	11
2023-09-14T06:00	6447	456	-18.7	-35.9	306	11
2023-09-14T06:00	6465	455	-18.9	-36.0	306	11
2023-09-14T06:00	6483	454	-19.0	-36.0	306	11
2023-09-14T06:00	6500	453	-19.2	-36.2	306	11
2023-09-14T06:00	6518	452	-19.4	-36.2	306	11
2023-09-14T06:00	6537	451	-19.5	-36.1	305	11
2023-09-14T06:00	6556	450	-19.7	-36.2	305	11
2023-09-14T06:00	6573	449	-19.8	-36.4	304	11
2023-09-14T06:00	6591	448	-19.9	-36.7	304	10
2023-09-14T06:00	6612	446	-20.1	-37.0	303	10
2023-09-14T06:00	6629	445	-20.2	-37.1	302	10
2023-09-14T06:00	6647	444	-20.4	-37.1	300	10
2023-09-14T06:00	6666	443	-20.5	-37.1	299	10
2023-09-14T06:00	6683	442	-20.7	-37.5	298	10
2023-09-14T06:00	6701	441	-20.7	-38.1	297	10
2023-09-14T06:00	6718	440	-20.8	-38.1	297	10
2023-09-14T06:00	6736	439	-21.0	-38.2	297	10
2023-09-14T06:00	6753	438	-21.1	-38.6	297	10
2023-09-14T06:00	6769	437	-21.3	-38.9	297	11
2023-09-14T06:00	6789	436	-21.4	-39.5	297	11
2023-09-14T06:00	6805	435	-21.6	-39.0	297	11
2023-09-14T06:00	6825	434	-21.7	-39.1	297	11
2023-09-14T06:00	6840	433	-21.8	-39.7	297	11
2023-09-14T06:00	6857	432	-22.0	-39.8	297	11
2023-09-14T06:00	6877	431	-22.2	-39.7	297	11
2023-09-14T06:00	6894	430	-22.3	-39.7	297	11
2023-09-14T06:00	6911	429	-22.5	-39.8	297	12
2023-09-14T06:00	6929	428	-22.6	-40.1	297	12
2023-09-14T06:00	6947	426	-22.8	-40.3	298	12
2023-09-14T06:00	6965	425	-22.9	-39.8	298	12
2023-09-14T06:00	6985	424	-23.1	-39.6	299	12
2023-09-14T06:00	7002	423	-23.2	-39.5	299	12
2023-09-14T06:00	7023	422	-23.4	-39.5	299	12
2023-09-14T06:00	7038	421	-23.6	-39.5	299	12
2023-09-14T06:00	7054	420	-23.7	-39.4	299	12
2023-09-14T06:00	7073	419	-23.9	-39.7	299	12
2023-09-14T06:00	7089	418	-24.0	-39.7	299	12
2023-09-14T06:00	7106	417	-24.2	-39.7	299	13
2023-09-14T06:00	7125	416	-24.3	-39.6	300	13
2023-09-14T06:00	7141	415	-24.5	-39.3	300	13
2023-09-14T06:00	7158	414	-24.6	-38.9	301	13
2023-09-14T06:00	7175	413	-24.7	-38.2	302	13
2023-09-14T06:00	7194	412	-24.9	-36.7	303	13
2023-09-14T06:00	7211	411	-25.0	-35.5	303	13
2023-09-14T06:00	7228	410	-25.2	-34.9	304	13
2023-09-14T06:00	7246	409	-25.3	-35.0	305	13
2023-09-14T06:00	7264	408	-25.5	-35.0	305	13
2023-09-14T06:00	7283	407	-25.6	-34.8	305	13
2023-09-14T06:00	7303	406	-25.8	-34.3	305	13
2023-09-14T06:00	7321	405	-26.0	-34.5	304	13
2023-09-14T06:00	7341	404	-26.2	-34.3	303	13
2023-09-14T06:00	7358	403	-26.3	-34.3	302	13
2023-09-14T06:00	7377	402	-26.5	-34.3	302	13
2023-09-14T06:00	7394	401	-26.7	-34.2	301	13
2023-09-14T06:00	7413	400	-26.8	-33.6	300	13
2023-09-14T06:00	7429	399	-26.9	-32.4	300	14
2023-09-14T06:00	7449	398	-27.1	-32.8	300	14
2023-09-14T06:00	7467	397	-27.2	-33.4	300	14
2023-09-14T06:00	7484	396	-27.3	-33.4	300	14
2023-09-14T06:00	7504	395	-27.5	-33.5	300	14
2023-09-14T06:00	7523	394	-27.7	-33.6	300	14
2023-09-14T06:00	7543	393	-27.8	-33.5	299	14
2023-09-14T06:00	7561	392	-28.0	-33.5	299	14
2023-09-14T06:00	7579	391	-28.1	-33.9	299	14
2023-09-14T06:00	7599	390	-28.2	-34.9	298	13
2023-09-14T06:00	7618	389	-28.3	-35.5	298	13
2023-09-14T06:00	7637	388	-28.5	-36.5	298	13
2023-09-14T06:00	7655	387	-28.6	-36.9	298	13
2023-09-14T06:00	7673	386	-28.7	-37.1	298	14
2023-09-14T06:00	7691	385	-28.9	-37.5	298	14
2023-09-14T06:00	7708	384	-29.1	-37.6	297	14
2023-09-14T06:00	7729	383	-29.2	-37.6	297	14
2023-09-14T06:00	7746	382	-29.4	-37.6	296	14
2023-09-14T06:00	7768	381	-29.6	-37.8	296	14
2023-09-14T06:00	7787	380	-29.8	-38.0	296	14
2023-09-14T06:00	7808	379	-30.0	-38.7	296	14
2023-09-14T06:00	7829	378	-30.2	-38.9	296	14
2023-09-14T06:00	7846	377	-30.4	-39.1	296	14
2023-09-14T06:00	7867	375	-30.6	-39.4	296	14
2023-09-14T06:00	7888	374	-30.7	-39.6	296	14
2023-09-14T06:00	7906	373	-30.9	-39.5	295	15
2023-09-14T06:00	7924	372	-31.1	-39.8	295	15
2023-09-14T06:00	7944	371	-31.3	-40.2	295	15
2023-09-14T06:00	7963	370	-31.4	-41.0	296	15
2023-09-14T06:00	7982	369	-31.6	-42.3	296	15
2023-09-14T06:00	8000	368	-31.6	-41.4	296	15
2023-09-14T06:00	8022	367	-31.7	-40.5	297	14
2023-09-14T06:00	8040	366	-31.9	-41.0	297	14
2023-09-14T06:00	8058	365	-32.0	-42.0	298	14
2023-09-14T06:00	8078	364	-32.0	-40.9	298	14
2023-09-14T06:00	8099	363	-32.2	-41.4	299	14
2023-09-14T06:00	8119	362	-32.4	-40.2	300	14
2023-09-14T06:00	8137	361	-32.5	-39.5	301	14
2023-09-14T06:00	8160	360	-32.7	-39.5	302	13
2023-09-14T06:00	8181	359	-32.9	-39.3	303	14
2023-09-14T06:00	8202	358	-33.1	-39.4	304	14
2023-09-14T06:00	8224	357	-33.2	-39.8	304	14
2023-09-14T06:00	8247	356	-33.4	-39.9	305	15
2023-09-14T06:00	8268	355	-33.5	-40.4	307	15
2023-09-14T06:00	8290	354	-33.6	-41.0	308	15
2023-09-14T06:00	8312	353	-33.7	-41.2	310	15
2023-09-14T06:00	8333	351	-33.9	-41.4	311	16
2023-09-14T06:00	8353	350	-34.0	-42.1	312	16
2023-09-14T06:00	8374	349	-34.1	-42.6	313	16
2023-09-14T06:00	8395	348	-34.2	-43.1	314	16
2023-09-14T06:00	8418	347	-34.3	-44.0	315	16
2023-09-14T06:00	8439	346	-34.5	-44.6	316	16
2023-09-14T06:00	8459	345	-34.7	-44.9	318	16
2023-09-14T06:00	8480	344	-34.9	-44.6	319	16
2023-09-14T06:00	8508	343	-35.1	-44.7	320	16
2023-09-14T06:00	8531	342	-35.3	-44.9	321	16
2023-09-14T06:00	8551	341	-35.5	-45.4	321	16
2023-09-14T06:00	8574	340	-35.8	-45.3	321	16
2023-09-14T06:00	8595	339	-36.0		321	16
2023-09-14T06:00	8615	338	-36.2	-45.4	321	16
2023-09-14T06:00	8637	337	-36.4	-45.5	322	16
2023-09-14T06:00	8655	336	-36.6	-45.7	323	16
2023-09-14T06:00	8678	334	-36.8	-45.7	324	16
2023-09-14T06:00	8701	333	-37.0	-46.5	325	16
2023-09-14T06:00	8723	332	-37.2	-46.8	325	16
2023-09-14T06:00	8747	331	-37.4	-47.2	325	16
2023-09-14T06:00	8770	330	-37.6	-47.4	325	16
2023-09-14T06:00	8791	329	-37.8	-47.3	326	16
2023-09-14T06:00	8812	328	-38.0	-47.7	327	16
2023-09-14T06:00	8832	327	-38.2	-48.0	328	16
2023-09-14T06:00	8849	326	-38.3	-48.7	329	15
2023-09-14T06:00	8867	325	-38.4	-49.9	329	16
2023-09-14T06:00	8889	324	-38.5	-51.8	330	16
2023-09-14T06:00	8909	324	-38.6	-53.2	330	16
2023-09-14T06:00	8928	323	-38.7	-53.2	330	16
2023-09-14T06:00	8947	322	-38.9	-53.0	330	16
2023-09-14T06:00	8965	321	-39.1	-52.8	330	16
2023-09-14T06:00	8985	320	-39.3	-52.8	330	16
2023-09-14T06:00	9002	319	-39.4	-52.6	331	16
2023-09-14T06:00	9022	318	-39.6	-52.6	331	16
2023-09-14T06:00	9038	317	-39.8	-52.6	331	16
2023-09-14T06:00	9059	316	-40.0	-52.7	331	16
2023-09-14T06:00	9079	316	-40.2	-52.8	331	16
2023-09-14T06:00	9100	315	-40.4	-52.6	330	16
2023-09-14T06:00	9119	314	-40.6	-52.6	330	17
2023-09-14T06:00	9135	313	-40.8	-52.7	330	17
2023-09-14T06:00	9154	312	-40.9	-52.6	330	17
2023-09-14T06:00	9177	311	-41.1	-53.1	331	17
2023-09-14T06:00	9195	310	-41.2	-53.3	331	17
2023-09-14T06:00	9218	309	-41.4	-53.5	332	18
2023-09-14T06:00	9238	308	-41.6	-53.6	333	18
2023-09-14T06:00	9257	307	-41.8	-53.6	334	18
2023-09-14T06:00	9279	306	-41.9	-53.3	334	18
2023-09-14T06:00	9297	306	-42.1	-53.1	335	18
2023-09-14T06:00	9318	305	-42.3	-53.0	336	18
2023-09-14T06:00	9338	304	-42.5	-53.0	336	18
2023-09-14T06:00	9358	303	-42.7	-52.9	337	18
2023-09-14T06:00	9379	302	-42.9	-52.9	337	18
2023-09-14T06:00	9400	301	-43.1	-53.0	338	18
2023-09-14T06:00	9420	300	-43.2	-53.0	338	18
2023-09-14T06:00	9439	299	-43.4	-53.2	338	18
2023-09-14T06:00	9459	298	-43.5	-53.6	337	18
2023-09-14T06:00	9479	297	-43.7	-53.9	337	17
2023-09-14T06:00	9498	297	-43.8	-54.2	337	17
2023-09-14T06:00	9519	296	-44.0	-54.4	337	17
2023-09-14T06:00	9540	295	-44.2	-54.6	338	17
2023-09-14T06:00	9560	294	-44.4	-54.7	338	16
2023-09-14T06:00	9580	293	-44.5	-54.9	338	16
2023-09-14T06:00	9599	292	-44.7	-55.2	337	16
2023-09-14T06:00	9618	291	-44.8	-55.2	337	16
2023-09-14T06:00	9637	290	-45.0	-55.5	337	15
2023-09-14T06:00	9658	290	-45.1	-55.7	337	15
2023-09-14T06:00	9677	289	-45.3	-56.0	337	15
2023-09-14T06:00	9698	288	-45.5	-56.1	336	15
2023-09-14T06:00	9716	287	-45.7	-56.2	336	15
2023-09-14T06:00	9738	286	-45.9	-56.2	335	15
2023-09-14T06:00	9759	285	-46.1	-56.4	334	15
2023-09-14T06:00	9779	284	-46.3	-56.7	333	15
2023-09-14T06:00	9799	284	-46.4	-56.6	332	15
2023-09-14T06:00	9819	283	-46.6	-56.6	332	15
2023-09-14T06:00	9839	282	-46.8	-56.6	332	14
2023-09-14T06:00	9858	281	-47.0	-56.7	333	14
2023-09-14T06:00	9877	280	-47.1	-56.7	333	14
2023-09-14T06:00	9898	279	-47.4	-56.8	334	14
2023-09-14T06:00	9919	278	-47.6	-56.9	335	14
2023-09-14T06:00	9939	278	-47.7	-56.9	336	13
2023-09-14T06:00	9958	277	-47.9	-57.0	336	13
2023-09-14T06:00	9976	276	-48.1	-57.1	336	13
2023-09-14T06:00	9996	275	-48.2	-57.3	336	13
2023-09-14T06:00	10016	274	-48.4	-57.6	335	12
2023-09-14T06:00	10036	274	-48.6	-57.7	334	12
2023-09-14T06:00	10052	273	-48.7	-58.0	333	12
2023-09-14T06:00	10073	272	-48.8	-58.7	332	12
2023-09-14T06:00	10091	271	-48.8	-59.4	331	13
2023-09-14T06:00	10113	270	-48.9	-59.6	331	13
2023-09-14T06:00	10131	270	-49.0	-59.3	331	13
2023-09-14T06:00	10151	269	-49.2	-59.0	330	13
2023-09-14T06:00	10171	268	-49.4	-58.8	330	13
2023-09-14T06:00	10189	267	-49.5	-58.8	331	13
2023-09-14T06:00	10208	266	-49.6	-58.9	331	13
2023-09-14T06:00	10226	266	-49.8	-58.8	331	13
2023-09-14T06:00	10245	265	-49.9	-59.0	331	13
2023-09-14T06:00	10265	264	-50.0	-59.5	330	13
2023-09-14T06:00	10285	263	-50.1	-59.8	330	13
2023-09-14T06:00	10306	262	-50.3	-59.9	329	13
2023-09-14T06:00	10327	262	-50.5	-60.0	328	13
2023-09-14T06:00	10349	261	-50.6	-60.2	327	13
2023-09-14T06:00	10369	260	-50.7	-60.5	326	12
2023-09-14T06:00	10389	259	-50.9	-60.5	325	12
2023-09-14T06:00	10411	258	-51.1	-60.5	324	12
2023-09-14T06:00	10431	257	-51.3	-60.6	323	12
2023-09-14T06:00	10452	257	-51.4	-60.5	322	12
2023-09-14T06:00	10471	256	-51.6	-60.5	322	11
2023-09-14T06:00	10495	255	-51.8	-60.6	320	11
2023-09-14T06:00	10518	254	-52.0	-60.6	319	11
2023-09-14T06:00	10541	253	-52.2	-60.8	317	11
2023-09-14T06:00	10563	252	-52.4	-60.9	315	11
2023-09-14T06:00	10582	252	-52.5	-61.0	314	11
2023-09-14T06:00	10603	251	-52.7	-61.1	314	11
2023-09-14T06:00	10621	250	-53.0	-61.3	313	11
2023-09-14T06:00	10643	249	-53.1	-61.2	313	11
2023-09-14T06:00	10662	248	-53.3	-61.1	313	11
2023-09-14T06:00	10683	248	-53.5	-61.4	312	11
2023-09-14T06:00	10702	247	-53.7	-61.7	312	11
2023-09-14T06:00	10723	246	-53.9	-62.1	311	11
2023-09-14T06:00	10740	245	-53.9	-62.4	310	11
2023-09-14T06:00	10761	245	-54.1	-62.6	309	11
2023-09-14T06:00	10781	244	-54.2	-62.6	308	11
2023-09-14T06:00	10801	243	-54.4	-62.8	308	11
2023-09-14T06:00	10821	242	-54.6	-63.0	307	11
2023-09-14T06:00	10840	242	-54.7	-63.2	307	11
2023-09-14T06:00	10861	241	-54.9	-63.4	308	11
2023-09-14T06:00	10878	240	-55.1	-63.5	308	11
2023-09-14T06:00	10897	240	-55.2	-63.5	309	11
2023-09-14T06:00	10915	239	-55.3	-63.4	310	11
2023-09-14T06:00	10935	238	-55.5	-63.3	311	11
2023-09-14T06:00	10954	237	-55.7	-63.3	312	12
2023-09-14T06:00	10973	237	-55.8	-63.2	312	12
2023-09-14T06:00	10993	236	-56.0	-63.4	312	12
2023-09-14T06:00	11012	235	-56.1	-63.5	313	12
2023-09-14T06:00	11032	234	-56.2	-63.6	313	12
2023-09-14T06:00	11055	234	-56.2	-63.6	314	12
2023-09-14T06:00	11077	233	-56.4	-63.7	315	12
2023-09-14T06:00	11095	232	-56.5	-63.7	315	13
2023-09-14T06:00	11116	231	-56.7	-63.8	315	13
2023-09-14T06:00	11134	231	-56.9	-63.8	315	13
2023-09-14T06:00	11156	230	-56.8	-63.5	315	13
2023-09-14T06:00	11172	229	-56.8	-63.4	314	14
2023-09-14T06:00	11193	229	-56.7	-63.3	313	14
2023-09-14T06:00	11211	228	-56.8	-63.5	313	14
2023-09-14T06:00	11229	227	-57.0		312	14
2023-09-14T06:00	11249	227	-57.1	-63.7	311	14
2023-09-14T06:00	11268	226	-57.2	-63.8	309	14
2023-09-14T06:00	11283	225	-57.3	-63.9	306	13
2023-09-14T06:00	11307	225	-57.4	-64.2	303	13
2023-09-14T06:00	11329	224	-57.1	-64.6	300	12
2023-09-14T06:00	11346	223	-56.1	-64.7	297	12
2023-09-14T06:00	11365	222	-56.0	-65.6	294	11
2023-09-14T06:00	11385	222	-55.9	-65.8	292	11
2023-09-14T06:00	11406	221	-55.9	-65.9	290	11
2023-09-14T06:00	11424	220	-55.9	-65.9	288	11
2023-09-14T06:00	11445	220	-56.0	-65.9	285	11
2023-09-14T06:00	11468	219	-56.2	-66.0	282	11
2023-09-14T06:00	11489	218	-56.4	-66.0	280	11
2023-09-14T06:00	11510	217	-56.5	-65.9	278	12
2023-09-14T06:00	11533	217	-56.7	-66.0	277	13
2023-09-14T06:00	11556	216	-56.9	-66.1	278	13
2023-09-14T06:00	11574	215	-56.9	-66.0	279	14
2023-09-14T06:00	11594	215	-57.0	-66.1	281	14
2023-09-14T06:00	11611	214	-56.9	-66.3	283	15
2023-09-14T06:00	11635	213	-56.7	-66.4	284	15
2023-09-14T06:00	11653	213	-56.4	-66.6	285	16
2023-09-14T06:00	11670	212	-56.3	-66.9	286	16
2023-09-14T06:00	11691	211	-56.3	-67.1	287	16
2023-09-14T06:00	11708	211	-56.4	-67.1	287	16
2023-09-14T06:00	11728	210	-56.5	-67.1	287	17
2023-09-14T06:00	11747	209	-56.6	-67.2	288	17
2023-09-14T06:00	11766	209	-56.6	-67.3	288	17
2023-09-14T06:00	11787	208	-56.6	-67.4	289	17
2023-09-14T06:00	11810	207	-56.7	-67.6	290	18
2023-09-14T06:00	11829	207	-56.8	-67.7	291	18
2023-09-14T06:00	11849	206	-57.0	-67.8	292	18
2023-09-14T06:00	11869	205	-57.0	-67.9	293	18
2023-09-14T06:00	11890	205	-57.1	-68.1	295	18
2023-09-14T06:00	11911	204	-57.1	-68.2	297	18
2023-09-14T06:00	11932	203	-57.2		300	18
2023-09-14T06:00	11954	203	-57.0	-68.7	302	18
2023-09-14T06:00	11976	202	-56.9	-69.2	305	17
2023-09-14T06:00	11994	201	-56.5	-69.9	308	17
2023-09-14T06:00	12015	201	-55.7	-70.8	310	16
2023-09-14T06:00	12039	200	-54.6	-71.5	311	15
2023-09-14T06:00	12062	199	-54.4	-72.5	312	14
2023-09-14T06:00	12093	198	-54.1	-72.9	313	13
2023-09-14T06:00	12124	197	-53.8	-73.1	312	12
2023-09-14T06:00	12147	197	-53.8	-73.3	311	11
2023-09-14T06:00	12178	196	-53.9	-73.4	309	11
2023-09-14T06:00	12204	195	-54.1	-73.5	307	10
2023-09-14T06:00	12224	194	-54.2	-73.5	304	9
2023-09-14T06:00	12249	194	-54.2	-73.5	302	8
2023-09-14T06:00	12275	193	-54.3	-73.6	299	8
2023-09-14T06:00	12298	192	-54.5	-73.7	295	8
2023-09-14T06:00	12321	191	-54.7	-73.8	291	8
2023-09-14T06:00	12343	191	-54.8	-73.8	286	8
2023-09-14T06:00	12362	190	-55.0	-74.0	283	8
2023-09-14T06:00	12383	190	-55.0	-74.1	282	9
2023-09-14T06:00	12402	189	-55.0	-74.3	283	9
2023-09-14T06:00	12423	188	-55.0	-74.5	284	9
2023-09-14T06:00	12446	188	-55.1	-74.7	286	10
2023-09-14T06:00	12463	187	-55.3	-74.9	287	10
2023-09-14T06:00	12483	187	-55.3	-74.9	287	10
2023-09-14T06:00	12503	186	-55.4	-75.0	286	11
2023-09-14T06:00	12522	185	-55.4	-75.0	285	11
2023-09-14T06:00	12540	185	-55.5	-75.1	284	12
2023-09-14T06:00	12560	184	-55.6	-75.2	284	12
2023-09-14T06:00	12579	184	-55.8	-75.3	284	13
2023-09-14T06:00	12597	183	-55.9	-75.4	284	14
2023-09-14T06:00	12619	183	-55.9	-75.5	285	15
2023-09-14T06:00	12639	182	-55.8	-75.6	286	15
2023-09-14T06:00	12658	182	-55.8	-75.9	287	16
2023-09-14T06:00	12677	181	-55.6	-76.2	288	16
2023-09-14T06:00	12695	181	-55.0	-76.5	290	17
2023-09-14T06:00	12712	180	-54.3	-76.8	291	17
2023-09-14T06:00	12733	179	-54.0	-77.2	293	16
2023-09-14T06:00	12751	179	-53.7	-77.5	294	16
2023-09-14T06:00	12770	178	-53.4	-77.7	295	16
2023-09-14T06:00	12789	178	-53.3	-77.6	296	15
2023-09-14T06:00	12810	177	-53.4	-77.9	298	15
2023-09-14T06:00	12832	177	-53.0	-77.8	299	14
2023-09-14T06:00	12846	176	-52.7	-78.0	299	13
2023-09-14T06:00	12865	176	-52.6	-78.2	300	13
2023-09-14T06:00	12883	175	-52.5	-78.1	299	12
2023-09-14T06:00	12903	175	-52.4	-78.2	298	11
2023-09-14T06:00	12919	174	-52.3	-78.4	297	11
2023-09-14T06:00	12940	174	-52.1	-78.5	294	10
2023-09-14T06:00	12959	173	-51.9	-78.4	292	10
2023-09-14T06:00	12979	173	-51.8	-78.3	289	9
2023-09-14T06:00	13000	172	-51.8	-78.6	287	9
2023-09-14T06:00	13016	172	-52.0	-78.7	285	10
2023-09-14T06:00	13035	171	-52.1	-78.8	283	10
2023-09-14T06:00	13051	171	-52.1	-78.8	282	10
2023-09-14T06:00	13073	170	-52.1	-78.8	281	10
2023-09-14T06:00	13095	170	-52.1	-78.8	280	11
2023-09-14T06:00	13112	169	-52.2	-79.2	279	11
2023-09-14T06:00	13131	169	-52.0	-79.0	278	11
2023-09-14T06:00	13150	168	-52.0	-79.3	278	11
2023-09-14T06:00	13171	168	-52.3	-79.2	277	11
2023-09-14T06:00	13191	167	-52.5	-79.4	276	11
2023-09-14T06:00	13208	167	-52.6	-79.5	275	11
2023-09-14T06:00	13224	166	-52.8	-79.6	274	12
2023-09-14T06:00	13250	166	-53.0	-79.8	273	12
2023-09-14T06:00	13269	165	-53.1	-79.9	272	12
2023-09-14T06:00	13288	165	-53.2	-79.9	271	12
2023-09-14T06:00	13310	164	-53.3	-80.0	271	12
2023-09-14T06:00	13331	164	-53.5	-80.2	272	12
2023-09-14T06:00	13350	163	-53.5	-80.2	273	11
2023-09-14T06:00	13372	163	-53.6	-80.2	274	11
2023-09-14T06:00	13390	162	-53.7	-80.3	276	11
2023-09-14T06:00	13412	162	-53.8	-80.4	277	10
2023-09-14T06:00	13432	161	-53.8	-80.1	278	10
2023-09-14T06:00	13455	160	-53.8	-80.1	279	10
2023-09-14T06:00	13473	160	-53.8	-80.1	279	9
2023-09-14T06:00	13497	159	-53.8	-80.4	278	9
2023-09-14T06:00	13520	159	-53.9	-80.5	276	8
2023-09-14T06:00	13536	158	-53.9	-80.8	272	8
2023-09-14T06:00	13561	158	-53.5	-80.5	267	7
2023-09-14T06:00	13583	157	-53.2	-80.2	263	7
2023-09-14T06:00	13601	157	-53.3	-80.3	258	8
2023-09-14T06:00	13620	156	-53.5	-80.5	255	8
2023-09-14T06:00	13642	156	-53.6	-80.5	253	8
2023-09-14T06:00	13662	155	-53.5	-80.2	252	8
2023-09-14T06:00	13684	155	-53.4	-80.1	252	8
2023-09-14T06:00	13703	154	-53.5	-80.2	252	8
2023-09-14T06:00	13723	154	-53.7	-80.3	253	8
2023-09-14T06:00	13744	153	-53.8	-80.4	254	8
2023-09-14T06:00	13762	153	-53.9	-80.5	255	8
2023-09-14T06:00	13782	152	-54.0	-80.6	256	9
2023-09-14T06:00	13804	152	-54.2	-80.7	256	9
2023-09-14T06:00	13823	152	-54.3	-80.8	256	10
2023-09-14T06:00	13839	151	-54.3	-80.8	256	10
2023-09-14T06:00	13865	151	-54.3	-80.5	257	10
2023-09-14T06:00	13886	150	-54.5	-80.7	257	10
2023-09-14T06:00	13906	150	-54.6	-81.0	258	10
2023-09-14T06:00	13926	149	-54.8	-81.2	260	10
2023-09-14T06:00	13948	149	-54.9	-81.0	261	10
2023-09-14T06:00	13969	148	-55.0	-81.1	263	10
2023-09-14T06:00	13996	148	-55.0	-81.1	264	10
2023-09-14T06:00	14010	147	-55.1	-81.1	266	10
2023-09-14T06:00	14030	147	-55.2	-81.2	267	10
2023-09-14T06:00	14053	146	-55.3	-81.3	269	11
2023-09-14T06:00	14074	146	-55.3	-81.3	270	11
2023-09-14T06:00	14092	145	-55.4	-81.4	272	11
2023-09-14T06:00	14114	145	-55.4	-81.4	274	11
2023-09-14T06:00	14136	144	-55.4	-81.4	277	11
2023-09-14T06:00	14156	144	-55.5	-81.4	279	11
2023-09-14T06:00	14177	143	-55.6	-81.5	281	11
2023-09-14T06:00	14193	143	-55.7	-81.6	282	11
2023-09-14T06:00	14218	142	-55.6	-81.8	283	11
2023-09-14T06:00	14241	142	-55.5	-81.7	283	11
2023-09-14T06:00	14263	141	-55.4	-81.6	283	10
2023-09-14T06:00	14283	141	-55.4	-81.9	282	10
2023-09-14T06:00	14302	141	-55.3	-81.9	282	10
2023-09-14T06:00	14326	140	-55.2	-82.1	281	10
2023-09-14T06:00	14346	140	-55.1	-82.0	279	10
2023-09-14T06:00	14370	139	-55.0	-81.9	277	10
2023-09-14T06:00	14394	139	-55.0	-81.9	274	10
2023-09-14T06:00	14410	138	-54.8	-81.8	270	10
2023-09-14T06:00	14432	138	-54.8	-81.8	267	10
2023-09-14T06:00	14453	137	-54.8	-82.1	264	10
2023-09-14T06:00	14480	137	-54.9	-82.2	262	11
2023-09-14T06:00	14496	136	-55.0	-82.3	260	11
2023-09-14T06:00	14519	136	-55.1	-82.0	259	11
2023-09-14T06:00	14543	135	-55.1	-82.0	257	11
2023-09-14T06:00	14562	135	-55.2	-81.8	256	11
2023-09-14T06:00	14583	135	-55.4	-81.9	256	11
2023-09-14T06:00	14604	134	-55.5	-82.0	256	11
2023-09-14T06:00	14623	134	-55.6	-82.1	256	11
2023-09-14T06:00	14651	133	-55.8	-82.2	257	12
2023-09-14T06:00	14671	133	-55.9	-82.3	258	12
2023-09-14T06:00	14691	132	-55.9	-82.3	260	12
2023-09-14T06:00	14709	132	-56.0	-82.4	263	12
2023-09-14T06:00	14731	131	-56.1	-82.2	265	13
2023-09-14T06:00	14753	131	-56.2	-82.3	268	13
2023-09-14T06:00	14779	131	-56.2	-82.3	269	13
2023-09-14T06:00	14797	130	-56.2	-82.3	270	13
2023-09-14T06:00	14817	130	-56.0	-82.4	271	13
2023-09-14T06:00	14835	129	-56.1	-82.5	272	13
2023-09-14T06:00	14857	129	-56.3	-82.6	273	13
2023-09-14T06:00	14877	128	-56.3	-82.6	275	13
2023-09-14T06:00	14904	128	-56.2	-82.6	277	13
2023-09-14T06:00	14919	128	-56.0	-82.4	279	13
2023-09-14T06:00	14939	127	-56.0	-82.4	281	12
2023-09-14T06:00	14960	127	-56.1	-82.8	281	12
2023-09-14T06:00	14984	126	-56.1	-82.8	281	12
2023-09-14T06:00	15004	126	-55.9	-82.6	280	11
2023-09-14T06:00	15027	125	-55.9	-82.6	278	11
2023-09-14T06:00	15049	125	-55.7	-82.5	275	10
2023-09-14T06:00	15072	125	-55.6	-82.7	272	10
2023-09-14T06:00	15092	124	-55.4	-82.6	270	10
2023-09-14T06:00	15111	124	-55.5	-82.6	269	10
2023-09-14T06:00	15137	123	-55.6	-82.7	268	10
2023-09-14T06:00	15154	123	-55.8	-82.5	268	10
2023-09-14T06:00	15177	123	-55.9	-82.6	269	10
2023-09-14T06:00	15200	122	-56.1	-82.8	269	10
2023-09-14T06:00	15219	122	-56.2	-82.6	270	10
2023-09-14T06:00	15244	121	-56.4	-82.7	271	11
2023-09-14T06:00	15264	121	-56.5	-82.8	272	11
2023-09-14T06:00	15287	120	-56.6	-82.9	273	11
2023-09-14T06:00	15309	120	-56.7	-82.9	274	12
2023-09-14T06:00	15332	120	-56.7	-82.9	275	12
2023-09-14T06:00	15350	119	-56.7	-82.9	276	12
2023-09-14T06:00	15373	119	-56.7	-82.7	277	12
2023-09-14T06:00	15395	118	-56.9	-82.8	277	13
2023-09-14T06:00	15414	118	-57.0	-82.9	277	13
2023-09-14T06:00	15435	118	-57.1	-83.0	277	13
2023-09-14T06:00	15459	117	-57.1	-83.2	276	13
2023-09-14T06:00	15478	117	-57.1	-83.2	276	13
2023-09-14T06:00	15505	116	-57.1	-83.2	276	13
2023-09-14T06:00	15525	116	-57.1	-83.2	276	13
2023-09-14T06:00	15546	116	-57.2	-83.3	276	13
2023-09-14T06:00	15567	115	-57.3	-83.4	276	13
2023-09-14T06:00	15587	115	-57.3	-83.4	276	13
2023-09-14T06:00	15610	114	-57.3	-83.4	276	13
2023-09-14T06:00	15633	114	-57.3	-83.4	277	13
2023-09-14T06:00	15657	114	-57.2	-83.6	278	12
2023-09-14T06:00	15677	113	-57.2	-83.3	279	12
2023-09-14T06:00	15699	113	-57.2	-83.3	280	12
2023-09-14T06:00	15721	112	-57.3	-83.4	281	11
2023-09-14T06:00	15744	112	-57.3	-83.4	282	11
2023-09-14T06:00	15763	112	-57.4	-83.8	284	11
2023-09-14T06:00	15785	111	-57.4	-83.8	285	11
2023-09-14T06:00	15810	111	-57.3	-83.7	286	11
2023-09-14T06:00	15832	111	-57.2	-83.6	287	11
2023-09-14T06:00	15850	110	-57.2	-83.9	288	11
2023-09-14T06:00	15872	110	-57.0	-84.1	289	10
2023-09-14T06:00	15893	109	-56.8	-84.3	290	10
2023-09-14T06:00	15916	109	-56.7	-84.2	291	9
2023-09-14T06:00	15938	109	-56.8	-84.3	292	9
2023-09-14T06:00	15957	108	-56.8	-84.3	292	9
2023-09-14T06:00	15981	108	-56.6	-84.2	291	9
2023-09-14T06:00	16003	108	-56.6	-84.5	290	9
2023-09-14T06:00	16023	107	-56.6	-84.5	288	9
2023-09-14T06:00	16046	107	-56.7	-84.2	286	9
2023-09-14T06:00	16065	106	-56.6	-84.2	285	9
2023-09-14T06:00	16087	106	-56.6	-84.2	284	9
2023-09-14T06:00	16108	106	-56.6	-84.2	283	10
2023-09-14T06:00	16133	105	-56.5	-84.5	282	10
2023-09-14T06:00	16155	105	-56.6	-84.5	282	10
2023-09-14T06:00	16180	105	-56.7	-84.6	283	10
2023-09-14T06:00	16200	104	-56.8	-84.7	283	10
2023-09-14T06:00	16224	104	-56.9	-84.4	284	10
2023-09-14T06:00	16247	103	-57.1	-84.6	284	9
2023-09-14T06:00	16267	103	-57.3	-84.7	284	9
2023-09-14T06:00	16291	103	-57.4	-84.8	285	9
2023-09-14T06:00	16316	102	-57.6	-84.9	287	9
2023-09-14T06:00	16333	102	-57.6	-84.9	288	9
2023-09-14T06:00	16360	102	-57.7	-85.0	290	9
2023-09-14T06:00	16382	101	-57.8	-85.1	291	9
2023-09-14T06:00	16406	101	-57.8	-85.1	291	8
2023-09-14T06:00	16425	101	-57.9	-85.2	291	8
2023-09-14T06:00	16448	100	-57.8	-85.1	290	8
2023-09-14T06:00	16466	100	-57.8	-85.1	289	8
2023-09-14T06:00	16490	100	-57.8	-85.1	287	8
2023-09-14T06:00	16514	99	-57.6	-85.3	285	8
2023-09-14T06:00	16535	99	-57.6	-85.3	281	8
2023-09-14T06:00	16556	99	-57.7	-85.4	277	8
2023-09-14T06:00	16580	98	-57.7	-85.0	273	8
2023-09-14T06:00	16602	98	-57.7	-85.0	269	9
2023-09-14T06:00	16623	97	-57.8	-85.1	266	9
2023-09-14T06:00	16646	97	-57.9	-85.2	265	10
2023-09-14T06:00	16669	97	-58.1	-85.3	265	10
2023-09-14T06:00	16693	96	-58.1	-85.3	266	11
2023-09-14T06:00	16716	96	-58.0	-85.2	268	11
2023-09-14T06:00	16740	96	-58.0	-85.2	270	11
2023-09-14T06:00	16764	95	-57.9	-85.2	272	11
2023-09-14T06:00	16785	95	-58.0	-85.6	273	11
2023-09-14T06:00	16810	95	-58.0	-85.6	274	11
2023-09-14T06:00	16833	94	-57.9	-85.5	274	11
2023-09-14T06:00	16849	94	-57.8	-85.5	274	11
2023-09-14T06:00	16877	94	-57.8	-85.9	274	11
2023-09-14T06:00	16901	93	-57.7	-85.8	275	11
2023-09-14T06:00	16927	93	-57.6	-85.7	276	11
2023-09-14T06:00	16948	93	-57.6	-85.7	277	11
2023-09-14T06:00	16974	92	-57.7	-85.8	279	11
2023-09-14T06:00	16997	92	-57.6	-85.7	281	11
2023-09-14T06:00	17019	92	-57.7	-85.8	282	11
2023-09-14T06:00	17044	91	-57.5	-85.6	282	10
2023-09-14T06:00	17065	91	-57.6	-85.7	281	10
2023-09-14T06:00	17092	91	-57.7	-85.8	278	10
2023-09-14T06:00	17117	90	-57.7	-85.8	275	9
2023-09-14T06:00	17139	90	-57.7	-85.8	272	9
2023-09-14T06:00	17165	90	-57.7	-85.8	271	9
2023-09-14T06:00	17185	89	-57.7	-85.8	270	9
2023-09-14T06:00	17211	89	-57.6	-86.1	272	9
2023-09-14T06:00	17235	88	-57.5	-86.1	274	9
2023-09-14T06:00	17259	88	-57.4	-86.0	277	9
2023-09-14T06:00	17281	88	-57.4	-86.0	279	9
2023-09-14T06:00	17310	88	-57.4	-86.0	280	9
2023-09-14T06:00	17325	87	-57.4	-86.0	281	8
2023-09-14T06:00	17358	87	-57.3	-85.9	281	8
2023-09-14T06:00	17374	87	-57.2	-85.8	281	7
2023-09-14T06:00	17397	86	-57.2	-85.8	281	7
2023-09-14T06:00	17417	86	-57.3	-85.9	282	6
2023-09-14T06:00	17443	86	-57.3	-85.9	284	6
2023-09-14T06:00	17469	85	-57.3	-85.9	285	6
2023-09-14T06:00	17494	85	-57.3	-85.9	287	6
2023-09-14T06:00	17515	85	-57.3	-85.9	289	6
2023-09-14T06:00	17536	84	-57.4	-86.0	291	6
2023-09-14T06:00	17563	84	-57.3	-85.9	292	6
2023-09-14T06:00	17585	84	-57.4	-86.0	293	7
2023-09-14T06:00	17612	83	-57.4	-86.4	292	7
2023-09-14T06:00	17630	83	-57.2	-86.3	289	7
2023-09-14T06:00	17664	83	-57.1	-86.2	285	7
2023-09-14T06:00	17681	82	-57.1	-86.2	281	7
2023-09-14T06:00	17705	82	-57.2	-86.3	276	7
2023-09-14T06:00	17726	82	-57.3	-86.4	271	7
2023-09-14T06:00	17749	82	-57.3	-86.4	266	7
2023-09-14T06:00	17772	81	-57.3	-86.4	263	7
2023-09-14T06:00	17794	81	-57.4	-86.4	261	8
2023-09-14T06:00	17819	81	-57.4	-86.4	261	8
2023-09-14T06:00	17838	80	-57.5	-86.1	263	8
2023-09-14T06:00	17863	80	-57.6	-86.6	266	9
2023-09-14T06:00	17891	80	-57.7	-86.7	271	9
2023-09-14T06:00	17912	79	-57.6	-86.6	276	9
2023-09-14T06:00	17937	79	-57.4	-86.4	281	9
2023-09-14T06:00	17958	79	-57.2	-86.3	285	9
2023-09-14T06:00	17985	79	-57.0	-86.6	289	9
2023-09-14T06:00	18009	78	-57.0	-86.6	291	9
2023-09-14T06:00	18027	78	-57.0	-86.6	290	9
2023-09-14T06:00	18055	78	-56.9	-86.6	288	9
2023-09-14T06:00	18079	77	-56.8	-86.5	286	9
2023-09-14T06:00	18103	77	-56.8	-86.0	283	9
2023-09-14T06:00	18124	77	-57.0	-86.1	282	9
2023-09-14T06:00	18149	77	-57.1	-86.7	283	8
2023-09-14T06:00	18173	76	-57.1	-86.7	285	8
2023-09-14T06:00	18197	76	-57.1	-86.7	286	7
2023-09-14T06:00	18217	76	-57.1	-86.2	287	7
2023-09-14T06:00	18241	75	-57.2	-86.3	287	7
2023-09-14T06:00	18264	75	-57.3	-86.4	286	7
2023-09-14T06:00	18286	75	-57.2	-86.3	284	7
2023-09-14T06:00	18312	75	-57.1	-86.2	283	7
2023-09-14T06:00	18333	74	-57.1	-86.2	282	8
2023-09-14T06:00	18357	74	-57.1	-86.2	281	8
2023-09-14T06:00	18383	74	-57.3	-86.4	281	8
2023-09-14T06:00	18408	74	-57.4	-86.4	280	8
2023-09-14T06:00	18432	73	-57.3	-86.4	280	9
2023-09-14T06:00	18457	73	-57.4	-86.4	280	9
2023-09-14T06:00	18482	73	-57.4	-86.4	281	9
2023-09-14T06:00	18505	72	-57.4	-86.9	282	9
2023-09-14T06:00	18533	72	-57.4	-86.9	283	9
2023-09-14T06:00	18553	72	-57.2	-86.8	285	8
2023-09-14T06:00	18577	72	-57.1	-86.7	287	8
2023-09-14T06:00	18603	71	-57.3	-86.9	290	8
2023-09-14T06:00	18623	71	-57.4	-86.9	293	8
2023-09-14T06:00	18650	71	-57.3	-86.9	296	7
2023-09-14T06:00	18670	71	-57.1	-86.7	299	7
2023-09-14T06:00	18696	70	-57.1	-86.7	303	7
2023-09-14T06:00	18719	70	-57.2	-86.8	307	6
2023-09-14T06:00	18743	70	-57.0	-86.6	311	6
2023-09-14T06:00	18769	69	-56.8	-86.5	315	6
2023-09-14T06:00	18791	69	-56.9	-86.6	318	5
2023-09-14T06:00	18814	69	-57.0	-86.6	320	5
2023-09-14T06:00	18838	69	-56.8	-86.5	322	5
2023-09-14T06:00	18862	68	-56.8	-86.5	320	4
2023-09-14T06:00	18888	68	-57.0	-86.6	317	4
2023-09-14T06:00	18907	68	-57.0	-86.6	310	4
2023-09-14T06:00	18926	68	-57.0	-86.6	304	4
2023-09-14T06:00	18955	67	-57.2	-86.3	299	4
2023-09-14T06:00	18981	67	-57.3	-86.4	297	4
2023-09-14T06:00	19002	67	-57.4	-86.4	296	4
2023-09-14T06:00	19032	67	-57.4	-86.9	294	3
2023-09-14T06:00	19052	66	-57.2	-86.8	289	3
2023-09-14T06:00	19076	66	-57.2	-86.8	281	3
2023-09-14T06:00	19096	66	-56.9	-86.6	270	3
2023-09-14T06:00	19124	66	-56.9	-86.6	260	3
2023-09-14T06:00	19149	65	-56.8	-87.0	252	3
2023-09-14T06:00	19168	65	-56.8	-87.0	246	4
2023-09-14T06:00	19196	65	-56.7	-86.4	241	4
2023-09-14T06:00	19218	65	-56.7	-86.4	237	4
2023-09-14T06:00	19245	64	-56.7	-86.4	234	3
2023-09-14T06:00	19266	64	-56.7	-86.4	232	3
2023-09-14T06:00	19290	64	-56.8	-86.5	231	3
2023-09-14T06:00	19312	64	-57.0	-86.6	231	3
2023-09-14T06:00	19335	63	-57.1	-86.7	231	4
2023-09-14T06:00	19354	63	-57.0	-86.6	231	4
2023-09-14T06:00	19379	63	-56.9	-86.6	232	5
2023-09-14T06:00	19400	63	-56.7	-86.9	234	5
2023-09-14T06:00	19421	63	-56.5	-86.8	235	6
2023-09-14T06:00	19444	62	-56.4		236	7
2023-09-14T06:00	19468	62	-56.5	-86.8	237	7
2023-09-14T06:00	19492	62	-56.4		239	7
2023-09-14T06:00	19513	62	-56.3	-86.6	242	7
2023-09-14T06:00	19535	62	-56.5	-86.8	245	7
2023-09-14T06:00	19558	61	-56.6	-86.3	250	7
2023-09-14T06:00	19575	61	-56.6	-86.3	255	7
2023-09-14T06:00	19612	61	-56.7	-86.4	260	7
2023-09-14T06:00	19625	61	-56.7	-86.4	266	7
2023-09-14T06:00	19651	60	-56.8	-86.5	271	7
2023-09-14T06:00	19671	60	-56.8	-86.5	277	7
2023-09-14T06:00	19694	60	-56.7	-86.4	282	7
2023-09-14T06:00	19718	60	-56.8	-86.5	286	7
2023-09-14T06:00	19737	60	-56.8	-86.5	289	6
2023-09-14T06:00	19759	59	-56.9	-86.6	291	6
2023-09-14T06:00	19787	59	-56.9	-86.6	292	6
2023-09-14T06:00	19807	59	-56.9	-86.6	294	5
2023-09-14T06:00	19831	59	-57.0	-86.6	296	5
2023-09-14T06:00	19852	58	-56.9	-86.6	299	5
2023-09-14T06:00	19875	58	-56.8	-87.0	301	5
2023-09-14T06:00	19900	58	-56.7	-86.9	303	5
2023-09-14T06:00	19921	58	-56.6	-86.9	303	5
2023-09-14T06:00	19944	58	-56.5	-86.8	302	4
2023-09-14T06:00	19968	57	-56.4		299	4
2023-09-14T06:00	19989	57	-56.4		296	4
2023-09-14T06:00	20020	57	-56.4		293	4
2023-09-14T06:00	20039	57	-56.4		293	5
2023-09-14T06:00	20063	57	-56.5	-86.3	295	5
2023-09-14T06:00	20090	56	-56.7	-86.4	299	5
2023-09-14T06:00	20114	56	-56.9	-86.6	303	5
2023-09-14T06:00	20138	56	-57.0	-86.6	308	5
2023-09-14T06:00	20164	56	-57.1	-86.7	313	5
2023-09-14T06:00	20190	55	-57.0	-86.6	318	5
2023-09-14T06:00	20216	55	-57.1	-86.7	324	4
2023-09-14T06:00	20240	55	-57.2	-86.8	331	4
2023-09-14T06:00	20265	55	-57.3	-86.9	339	3
2023-09-14T06:00	20289	55	-57.3	-86.9	345	3
2023-09-14T06:00	20316	54	-57.3	-86.9	347	3
2023-09-14T06:00	20339	54	-57.2	-86.8	343	2
2023-09-14T06:00	20362	54	-57.2	-86.8	335	2
2023-09-14T06:00	20391	54	-57.3	-86.9	327	2
2023-09-14T06:00	20419	54	-57.4	-86.9	322	3
2023-09-14T06:00	20440	53	-57.5	-87.0	319	3
2023-09-14T06:00	20462	53	-57.6	-87.1	318	4
2023-09-14T06:00	20485	53	-57.6	-87.1	316	4
2023-09-14T06:00	20515	53	-57.6	-87.1	314	4
2023-09-14T06:00	20536	53	-57.7	-87.2	311	4
2023-09-14T06:00	20562	52	-57.8	-87.2	307	4
2023-09-14T06:00	20588	52	-57.8	-87.2	302	4
2023-09-14T06:00	20616	52	-57.8	-86.7	297	4
2023-09-14T06:00	20642	52	-57.8	-86.7	291	4
2023-09-14T06:00	20667	51	-57.9	-86.8	286	4
2023-09-14T06:00	20691	51	-58.0	-86.9	283	4
2023-09-14T06:00	20712	51	-58.1	-87.0	280	4
2023-09-14T06:00	20742	51	-58.4	-87.2	277	4
2023-09-14T06:00	20769	51	-58.5	-87.3	274	4
2023-09-14T06:00	20792	50	-58.4	-87.2	270	4
2023-09-14T06:00	20815	50	-58.5	-87.3	266	4
2023-09-14T06:00	20837	50	-58.5	-87.3	263	4
2023-09-14T06:00	20859	50	-58.4	-87.2	261	5
2023-09-14T06:00	20888	50	-58.4	-87.7	262	5
2023-09-14T06:00	20913	49	-58.2	-87.5	264	5
2023-09-14T06:00	20932	49	-58.1	-87.4	266	5
2023-09-14T06:00	20958	49	-57.8	-87.8	266	4
2023-09-14T06:00	20986	49	-57.5	-87.5	263	3
2023-09-14T06:00	21008	49	-56.9	-87.1	257	3
2023-09-14T06:00	21034	49	-56.6	-86.9	249	2
2023-09-14T06:00	21058	48	-56.5	-86.8	244	2
2023-09-14T06:00	21081	48	-56.6	-86.9	246	3
2023-09-14T06:00	21103	48	-56.5	-86.8	251	3
2023-09-14T06:00	21128	48	-56.5	-86.8	259	3
2023-09-14T06:00	21157	48	-56.4		268	3
2023-09-14T06:00	21191	47	-56.4		279	3
2023-09-14T06:00	21204	47	-56.5	-86.8	288	3
2023-09-14T06:00	21232	47	-56.5	-86.8	296	3
2023-09-14T06:00	21259	47	-56.6	-86.9	300	3
2023-09-14T06:00	21289	47	-56.7	-86.9	300	3
2023-09-14T06:00	21308	46	-56.7	-86.9	294	3
2023-09-14T06:00	21334	46	-56.7	-86.9	285	3
2023-09-14T06:00	21358	46	-56.6	-86.9	276	3
2023-09-14T06:00	21385	46	-56.5	-86.8	268	3
2023-09-14T06:00	21408	46	-56.5	-86.8	263	4
2023-09-14T06:00	21430	46	-56.6	-86.9	261	4
2023-09-14T06:00	21463	45	-56.7	-86.9	261	4
2023-09-14T06:00	21491	45	-56.7	-86.9	262	4
2023-09-14T06:00	21511	45	-56.8	-87.0	263	4
2023-09-14T06:00	21540	45	-56.9	-87.1	264	4
2023-09-14T06:00	21565	45	-56.9	-87.1	264	4
2023-09-14T06:00	21589	44	-56.9	-87.1	263	4
2023-09-14T06:00	21607	44	-56.9	-87.1	261	4
2023-09-14T06:00	21635	44	-56.9	-87.1	259	4
2023-09-14T06:00	21656	44	-57.0	-87.2	258	5
2023-09-14T06:00	21687	44	-56.9	-87.1	257	5
2023-09-14T06:00	21711	44	-56.8	-87.0	259	6
2023-09-14T06:00	21736	43	-57.0	-87.2	262	6
2023-09-14T06:00	21765	43	-57.1	-87.2	266	6
2023-09-14T06:00	21793	43	-57.1	-87.2	269	6
2023-09-14T06:00	21813	43	-57.0	-87.2	271	7
2023-09-14T06:00	21843	43	-57.0	-87.2	270	7
2023-09-14T06:00	21870	43	-57.0	-87.2	268	7
2023-09-14T06:00	21896	42	-56.8	-87.0	265	7
2023-09-14T06:00	21912	42	-56.7	-86.9	263	7
2023-09-14T06:00	21943	42	-56.5	-86.8	263	7
2023-09-14T06:00	21962	42	-56.4		264	7
2023-09-14T06:00	21989	42	-56.3	-86.6	267	7
2023-09-14T06:00	22023	42	-56.3	-86.6	270	7
2023-09-14T06:00	22042	41	-56.3	-86.6	273	6
2023-09-14T06:00	22064	41	-56.4		275	6
2023-09-14T06:00	22093	41	-56.4		278	6
2023-09-14T06:00	22113	41	-56.4		281	5
2023-09-14T06:00	22145	41	-56.5	-86.8	283	5
2023-09-14T06:00	22169	41	-56.6	-86.9	283	5
2023-09-14T06:00	22195	40	-56.7	-86.9	280	4
2023-09-14T06:00	22219	40	-56.8	-87.0	275	4
2023-09-14T06:00	22248	40	-56.9	-87.1	271	5
2023-09-14T06:00	22274	40	-56.9	-87.1	268	5
2023-09-14T06:00	22301	40	-56.8	-87.0	268	5
2023-09-14T06:00	22316	40	-56.7	-86.9	270	6
2023-09-14T06:00	22349	39	-56.6	-86.9	274	6
2023-09-14T06:00	22368	39	-56.5	-86.8	278	6
2023-09-14T06:00	22405	39	-56.4		283	6
2023-09-14T06:00	22428	39	-56.4		286	7
2023-09-14T06:00	22445	39	-56.4		287	7
2023-09-14T06:00	22477	39	-56.3	-86.6	287	6
2023-09-14T06:00	22496	39	-56.3	-86.6	286	6
2023-09-14T06:00	22524	38	-56.3	-86.6	284	5
2023-09-14T06:00	22549	38	-56.3	-86.6	281	5
2023-09-14T06:00	22578	38	-56.2	-87.2	279	5
2023-09-14T06:00	22604	38	-56.1	-87.1	276	4
2023-09-14T06:00	22630	38	-55.9	-86.9	275	4
2023-09-14T06:00	22655	38	-55.7	-86.8	275	5
2023-09-14T06:00	22674	37	-55.8	-86.9	277	5
2023-09-14T06:00	22709	37	-56.0	-87.0	279	5
2023-09-14T06:00	22729	37	-56.0	-87.0	283	5
2023-09-14T06:00	22756	37	-56.0	-87.0	286	6
2023-09-14T06:00	22777	37	-56.0	-87.0	290	6
2023-09-14T06:00	22802	37	-56.0	-87.0	292	6
2023-09-14T06:00	22824	37	-55.9	-86.9	294	7
2023-09-14T06:00	22853	36	-55.8	-86.9	294	7
2023-09-14T06:00	22878	36	-55.6	-86.7	295	8
2023-09-14T06:00	22902	36	-55.6	-86.7	295	8
2023-09-14T06:00	22929	36	-55.6	-86.7	296	8
2023-09-14T06:00	22949	36	-55.7	-86.8	297	7
2023-09-14T06:00	22975	36	-55.6	-86.7	299	7
2023-09-14T06:00	23001	36	-55.6	-86.7	303	6
2023-09-14T06:00	23017	35	-55.6	-86.7	307	6
2023-09-14T06:00	23051	35	-55.6	-86.7	313	5
2023-09-14T06:00	23071	35	-55.7	-86.8	318	4
2023-09-14T06:00	23102	35	-55.6	-86.7	325	4
2023-09-14T06:00	23120	35	-55.6	-86.7	333	3
2023-09-14T06:00	23151	35	-55.5	-86.7	340	3
2023-09-14T06:00	23170	35	-55.6	-86.7	348	2
2023-09-14T06:00	23200	35	-55.7	-86.8	357	2
2023-09-14T06:00	23231	34	-55.8	-86.3	7	1
2023-09-14T06:00	23248	34	-55.9	-86.3	21	1
2023-09-14T06:00	23278	34	-56.0	-86.4	36	1
2023-09-14T06:00	23308	34	-56.2	-86.6	41	1
2023-09-14T06:00	23334	34	-56.2	-86.6	31	1
2023-09-14T06:00	23363	34	-56.3	-86.6	11	1
2023-09-14T06:00	23382	34	-56.4		355	1
2023-09-14T06:00	23411	33	-56.6	-86.9	343	1
2023-09-14T06:00	23438	33	-56.6	-86.9	336	2
2023-09-14T06:00	23472	33	-56.6	-86.9	330	1
2023-09-14T06:00	23493	33	-56.7	-86.9	324	1
2023-09-14T06:00	23526	33	-56.7	-86.9	314	1
2023-09-14T06:00	23551	33	-56.7	-86.9	289	0
2023-09-14T06:00	23577	32	-56.6	-86.9	257	1
2023-09-14T06:00	23611	32	-56.6	-86.9	248	1
2023-09-14T06:00	23633	32	-56.5	-87.4	253	1
2023-09-14T06:00	23662	32	-56.6	-87.5	260	1
2023-09-14T06:00	23693	32	-56.4	-87.3	268	2
2023-09-14T06:00	23721	32	-56.2	-87.2	274	2
2023-09-14T06:00	23754	32	-56.2	-87.2	279	3
2023-09-14T06:00	23767	32	-56.2	-87.2	284	3
2023-09-14T06:00	23805	31	-56.2	-87.2	288	4
2023-09-14T06:00	23834	31	-56.2	-87.2	291	4
2023-09-14T06:00	23859	31	-56.2	-87.2	294	4
2023-09-14T06:00	23880	31	-56.2	-87.2	295	4
2023-09-14T06:00	23904	31	-56.2	-87.2	295	4
2023-09-14T06:00	23938	31	-56.1	-87.1	294	4
2023-09-14T06:00	23964	31	-55.9	-86.9	293	4
2023-09-14T06:00	23986	30	-55.8	-86.9	293	4
2023-09-14T06:00	24017	30	-55.7	-86.8	295	4
2023-09-14T06:00	24040	30	-55.5	-87.3	298	4
2023-09-14T06:00	24063	30	-55.3	-87.2	303	4
2023-09-14T06:00	24092	30	-55.2	-87.1	310	4
2023-09-14T06:00	24125	30	-55.1	-87.0	319	4
2023-09-14T06:00	24146	30	-55.0	-87.0	329	4
2023-09-14T06:00	24167	30	-54.8	-86.8	339	4
2023-09-14T06:00	24192	30	-54.3	-86.4	349	4
2023-09-14T06:00	24221	29	-54.1	-86.3	356	4
2023-09-14T06:00	24252	29	-54.1	-86.3	3	4
2023-09-14T06:00	24277	29	-54.0	-86.2	9	4
2023-09-14T06:00	24302	29	-54.1	-86.3	15	4
2023-09-14T06:00	24329	29	-54.0	-86.2	21	4
2023-09-14T06:00	24354	29	-54.0	-86.2	26	4
2023-09-14T06:00	24380	29	-54.1	-86.3	29	4
2023-09-14T06:00	24408	29	-54.1	-86.3	30	4
2023-09-14T06:00	24438	28	-54.2	-86.4	30	4
2023-09-14T06:00	24470	28	-54.2	-86.4	31	4
2023-09-14T06:00	24491	28	-54.1	-86.3	33	4
2023-09-14T06:00	24529	28	-54.1	-86.3	37	4
2023-09-14T06:00	24551	28	-54.0	-86.2	41	4
2023-09-14T06:00	24577	28	-54.1	-86.3	44	3
2023-09-14T06:00	24605	28	-54.2	-86.4	44	3
2023-09-14T06:00	24628	28	-54.3	-86.4	43	3
2023-09-14T06:00	24648	27	-54.4	-86.5	42	2
2023-09-14T06:00	24690	27	-54.4	-86.5	46	2
2023-09-14T06:00	24723	27	-54.3	-86.4	57	2
2023-09-14T06:00	24740	27	-54.2	-86.4	78	2
2023-09-14T06:00	24768	27	-54.0	-86.2	101	2
2023-09-14T06:00	24811	27	-54.1	-86.3	118	2
2023-09-14T06:00	24828	27	-54.3	-86.4	130	3
2023-09-14T06:00	24858	27	-54.5	-85.9	140	4
2023-09-14T06:00	24887	27	-54.7	-86.1	148	4
2023-09-14T06:00	24919	26	-54.8	-86.1	157	5
2023-09-14T06:00	24951	26	-54.8	-86.1	167	5
2023-09-14T06:00	24972	26	-54.8	-86.8	176	6
2023-09-14T06:00	25002	26	-54.6	-86.7	184	6
2023-09-14T06:00	25035	26	-54.3	-86.4	189	7
2023-09-14T06:00	25063	26	-54.2	-86.4	193	7
2023-09-14T06:00	25084	26	-54.0	-86.2	196	8
2023-09-14T06:00	25118	26	-53.9	-86.2	199	8
2023-09-14T06:00	25148	25	-53.9	-86.2	201	8
2023-09-14T06:00	25178	25	-54.0	-86.2	204	8
2023-09-14T06:00	25199	25	-54.1	-86.3	207	8
2023-09-14T06:00	25229	25	-54.3	-86.4	210	9
2023-09-14T06:00	25255	25	-54.4	-86.5	213	9
2023-09-14T06:00	25277	25	-54.4	-86.5	216	9
2023-09-14T06:00	25314	25	-54.4	-86.5	218	9
2023-09-14T06:00	25338	25	-54.5	-85.9	220	9
2023-09-14T06:00	25360	25	-54.6	-86.0	222	9
2023-09-14T06:00	25379	25	-54.7	-86.1	224	9
2023-09-14T06:00	25420	24	-54.8	-86.1	225	8
2023-09-14T06:00	25442	24	-54.9	-86.2	226	8
2023-09-14T06:00	25465	24	-55.0	-87.0	227	7
2023-09-14T06:00	25498	24	-55.0	-87.0	228	7
2023-09-14T06:00	25521	24	-54.6	-86.7	230	7
2023-09-14T06:00	25537	24	-54.3	-86.4	232	7
2023-09-14T06:00	25565	24	-54.0	-86.2	234	7
2023-09-14T06:00	25606	24	-54.0	-87.0	236	8
2023-09-14T06:00	25630	24	-54.1	-87.1	238	8
2023-09-14T06:00	25661	24	-54.1	-87.1	240	8
2023-09-14T06:00	25679	23	-54.0	-87.0	242	8
2023-09-14T06:00	25703	23	-53.9	-86.9	245	8
2023-09-14T06:00	25728	23	-53.7	-86.8	250	7
2023-09-14T06:00	25767	23	-53.4	-86.5	255	6
2023-09-14T06:00	25785	23	-53.2	-86.4	262	5
2023-09-14T06:00	25819	23	-52.9	-86.2	269	5
2023-09-14T06:00	25855	23	-52.7	-86.0	275	4
2023-09-14T06:00	25866	23	-52.5	-86.8	278	4
2023-09-14T06:00	25902	23	-52.0	-86.4	278	3
2023-09-14T06:00	25910	23	-51.7	-86.2	274	3
2023-09-14T06:00	25956	22	-51.4	-86.0	267	3
2023-09-14T06:00	25976	22	-50.9	-85.6	261	4
2023-09-14T06:00	26009	22	-50.7	-85.5	257	4
2023-09-14T06:00	26040	22	-50.6	-85.4	256	5
2023-09-14T06:00	26068	22	-50.6	-85.4	256	6
2023-09-14T06:00	26101	22	-50.6	-85.4	257	6
2023-09-14T06:00	26123	22	-50.6	-85.4	258	7
2023-09-14T06:00	26154	22	-50.6	-85.4	260	8
2023-09-14T06:00	26182	22	-50.6	-85.4	263	8
2023-09-14T06:00	26214	22	-50.6	-85.4	265	8
2023-09-14T06:00	26243	21	-50.4	-85.3	267	8
2023-09-14T06:00	26276	21	-50.2	-85.1	269	8
2023-09-14T06:00	26292	21	-50.1	-85.1	269	7
2023-09-14T06:00	26331	21	-50.2	-85.1	268	6
2023-09-14T06:00	26362	21	-50.1	-85.1	266	6
2023-09-14T06:00	26363	21	-50.1	-85.1	262	5
2023-09-14T06:00	26402	21	-50.1	-85.1	257	4
2023-09-14T06:00	26438	21	-50.1	-85.1	250	4
2023-09-14T06:00	26465	21	-49.9	-84.9	241	4
2023-09-14T06:00	26480	21	-49.8	-84.8	233	4
2023-09-14T06:00	26529	21	-49.7	-84.8	225	4
2023-09-14T06:00	26558	20	-49.8	-84.8	218	4
2023-09-14T06:00	26611	20	-49.9	-84.9	214	4
2023-09-14T06:00	26644	20	-50.1	-85.1	214	5
2023-09-14T06:00	26673	20	-50.1	-85.1	218	5
2023-09-14T06:00	26703	20	-50.0	-85.0	225	5
2023-09-14T06:00	26715	20	-49.9	-84.9	234	5
2023-09-14T06:00	26759	20	-49.9	-84.9	244	5
2023-09-14T06:00	26771	20	-49.9	-84.9	253	5
2023-09-14T06:00	26819	20	-49.9	-84.9	262	5
2023-09-14T06:00	26845	20	-49.9	-84.9	269	6
2023-09-14T06:00	26869	20	-49.8	-84.8	276	6
2023-09-14T06:00	26881	19	-49.8	-84.8	280	6
2023-09-14T06:00	26921	19	-49.9	-84.9	284	6
2023-09-14T06:00	26946	19	-49.9	-84.9	287	6
2023-09-14T06:00	26980	19	-49.8	-84.8	289	6
2023-09-14T06:00	27007	19	-49.6	-84.7	291	6
2023-09-14T06:00	27046	19	-49.2	-84.4	291	5
2023-09-14T06:00	27071	19	-48.9	-85.3	290	5
2023-09-14T06:00	27082	19	-48.8	-85.2	287	5
2023-09-14T06:00	27124	19	-48.7	-85.1	284	6
2023-09-14T06:00	27163	19	-48.5	-85.0	282	7
2023-09-14T06:00	27183	19	-48.5	-85.0	280	8
2023-09-14T06:00	27192	19	-48.4	-84.9	280	9
2023-09-14T06:00	27234	18	-48.4	-84.9	280	10
2023-09-14T06:00	27276	18	-48.4	-84.9	281	10
2023-09-14T06:00	27307	18	-48.3	-84.8	283	10
2023-09-14T06:00	27347	18	-48.2	-84.8	285	10
2023-09-14T06:00	27362	18	-48.1	-84.7	288	9
2023-09-14T06:00	27397	18	-48.2	-84.8	292	8
2023-09-14T06:00	27417	18	-48.4	-83.8	298	8
2023-09-14T06:00	27431	18	-48.6		304	7
2023-09-14T06:00	27473	18	-48.8	-84.1	311	7
2023-09-14T06:00	27514	18	-48.9	-84.2	317	7
2023-09-14T06:00	27536	18	-48.8	-84.1	323	6
2023-09-14T06:00	27556	18	-48.8	-84.1	327	6
2023-09-14T06:00	27589	18	-48.7	-85.1	329	6
2023-09-14T06:00	27616	17	-48.5	-85.0	328	5
2023-09-14T06:00	27633	17	-48.5	-85.0	325	4
2023-09-14T06:00	27666	17	-48.4	-84.9	319	3
2023-09-14T06:00	27689	17	-48.2	-84.8	308	3
2023-09-14T06:00	27714	17	-48.1	-84.7	287	2
2023-09-14T06:00	27755	17	-48.0	-84.6	254	2
2023-09-14T06:00	27781	17	-48.0	-84.6	225	2
2023-09-14T06:00	27798	17	-48.1	-84.7	209	3
2023-09-14T06:00	27827	17	-48.1	-84.7	201	4
2023-09-14T06:00	27858	17	-48.0	-84.6	198	5
2023-09-14T06:00	27905	17	-47.7	-84.4	197	6
2023-09-14T06:00	27920	17	-47.6	-84.3	197	7
2023-09-14T06:00	27948	17	-47.7	-84.4	200	7
2023-09-14T06:00	27985	16	-47.9	-84.6	205	8
2023-09-14T06:00	28010	16	-48.1	-84.7	211	8
2023-09-14T06:00	28037	16	-48.0	-84.6	218	9
2023-09-14T06:00	28073	16	-47.7	-84.4	224	10
2023-09-14T06:00	28105	16	-47.4	-84.2	229	10
2023-09-14T06:00	28130	16	-47.2	-84.1	234	11
2023-09-14T06:00	28173	16	-46.9	-83.9	239	11
2023-09-14T06:00	28202	16	-46.4	-83.5	244	11
2023-09-14T06:00	28218	16	-46.1	-83.3	248	11
2023-09-14T06:00	28258	16	-45.9	-83.2	252	11
2023-09-14T06:00	28293	16	-45.9	-83.2	255	10
2023-09-14T06:00	28328	16	-45.9	-83.2	258	11
2023-09-14T06:00	28347	16	-46.0	-83.2	261	11
2023-09-14T06:00	28375	16	-46.1	-83.3	264	11
2023-09-14T06:00	28413	15	-46.3	-83.4	266	11
2023-09-14T06:00	28445	15	-46.3	-83.4	269	12
2023-09-14T06:00	28477	15	-46.4	-83.5	271	12
2023-09-14T06:00	28505	15	-46.6	-83.6	274	12
2023-09-14T06:00	28529	15	-46.7	-83.7	277	12
2023-09-14T06:00	28554	15	-46.8	-83.8	280	11
2023-09-14T06:00	28576	15	-46.8	-83.8	283	11
2023-09-14T06:00	28618	15	-46.8	-83.8	286	11
2023-09-14T06:00	28643	15	-46.7	-83.7	289	10
2023-09-14T06:00	28701	15	-46.6	-83.6	291	10
2023-09-14T06:00	28718	15	-46.6	-83.6	291	9
2023-09-14T06:00	28735	15	-46.5	-83.6	291	9
2023-09-14T06:00	28769	15	-46.4	-83.5	291	8
2023-09-14T06:00	28784	15	-46.2	-83.4	290	8
2023-09-14T06:00	28830	15	-46.0	-83.2	289	7
2023-09-14T06:00	28858	14	-45.9	-83.2	288	7
2023-09-14T06:00	28886	14	-45.7	-83.0	288	6
2023-09-14T06:00	28913	14	-45.5	-82.9	289	6
2023-09-14T06:00	28948	14	-45.5	-82.9	291	5
2023-09-14T06:00	28968	14	-45.4	-82.8	295	5
2023-09-14T06:00	29022	14	-45.4	-82.8	298	5
2023-09-14T06:00	29056	14	-45.4	-82.8	303	4
2023-09-14T06:00	29089	14	-45.2	-82.7	303	4
2023-09-14T06:00	29117	14	-45.1	-82.6	301	4
2023-09-14T06:00	29144	14	-45.0	-82.5	295	3
2023-09-14T06:00	29165	14	-45.0	-82.5	287	3
2023-09-14T06:00	29208	14	-45.0	-82.5	275	3
2023-09-14T06:00	29235	14	-44.9	-82.5	262	3
2023-09-14T06:00	29261	14	-44.8	-82.4	251	4
2023-09-14T06:00	29296	14	-44.7	-82.3	243	4
2023-09-14T06:00	29327	13	-44.7	-82.3	237	5
2023-09-14T06:00	29340	13	-44.8	-82.4	234	6
2023-09-14T06:00	29377	13	-45.0	-82.5	233	6
2023-09-14T06:00	29408	13	-45.1	-82.6	232	7
2023-09-14T06:00	29426	13	-45.2	-82.7	233	8
2023-09-14T06:00	29468	13	-45.2	-82.7	233	8
2023-09-14T06:00	29495	13	-45.2	-82.7	233	9
2023-09-14T06:00	29521	13	-45.3	-82.7	234	10
2023-09-14T06:00	29552	13	-45.3	-82.7	234	10
2023-09-14T06:00	29594	13	-45.4	-82.8	234	11
2023-09-14T06:00	29605	13	-45.6	-82.9	235	11
2023-09-14T06:00	29633	13	-45.7	-83.0	236	11
2023-09-14T06:00	29653	13	-45.7	-83.0	237	11
2023-09-14T06:00	29685	13	-45.7	-83.0	239	11
2023-09-14T06:00	29730	13	-45.6	-82.9	241	11
2023-09-14T06:00	29746	13	-45.4	-82.8	244	11
2023-09-14T06:00	29789	13	-45.2	-82.7	247	11
2023-09-14T06:00	29795	13	-44.9	-82.5	250	12
2023-09-14T06:00	29838	13	-44.6	-82.2	252	12
2023-09-14T06:00	29866	12	-44.5	-82.2	254	12
2023-09-14T06:00	29896	12	-44.5	-82.2	256	12
2023-09-14T06:00	29918	12	-44.7	-82.3	257	13
2023-09-14T06:00	29942	12	-44.9	-82.5	259	13
2023-09-14T06:00	30012	12	-45.0	-82.5	261	13
2023-09-14T06:00	30029	12	-44.9	-82.5	263	14
2023-09-14T06:00	30054	12	-44.7	-82.3	267	14
2023-09-14T06:00	30092	12	-44.3	-82.0	270	15
2023-09-14T06:00	30145	12	-43.8	-81.7	272	15
2023-09-14T06:00	30152	12	-43.6	-81.5	275	15
2023-09-14T06:00	30174	12	-43.5	-81.5	276	15
2023-09-14T06:00	30208	12	-43.4	-81.4	277	15
2023-09-14T06:00	30244	12	-43.2	-81.3	278	15
2023-09-14T06:00	30275	12	-43.1	-81.2	277	14
2023-09-14T06:00	30309	12	-42.9	-81.1	277	14
2023-09-14T06:00	30332	12	-42.8	-81.0	276	13
2023-09-14T06:00	30341	12	-42.7	-80.9	276	13
2023-09-14T06:00	30383	12	-42.7	-80.9	277	13
2023-09-14T06:00	30409	11	-42.7	-80.9	278	12
2023-09-14T06:00	30444	11	-42.6	-80.8	279	12
2023-09-14T06:00	30456	11	-42.6	-80.8	280	11
2023-09-14T06:00	30503	11	-42.6	-80.8	281	11
2023-09-14T06:00	30545	11	-42.4	-80.7	282	10
2023-09-14T06:00	30551	11	-42.4	-80.7	282	10
2023-09-14T06:00	30599	11	-42.4	-80.7	282	9
2023-09-14T06:00	30644	11	-42.4	-80.7	281	8
2023-09-14T06:00	30677	11	-42.3	-80.6	282	7
2023-09-14T06:00	30708	11	-42.3	-80.6	283	7
2023-09-14T06:00	30743	11	-42.2	-80.6	286	6
2023-09-14T06:00	30768	11	-42.2	-80.6	290	5
2023-09-14T06:00	30792	11	-42.1	-80.5	295	5
2023-09-14T06:00	30832	11	-42.1	-80.5	301	4
2023-09-14T06:00	30852	11	-42.0	-80.4	308	4
2023-09-14T06:00	30900	11	-42.0	-80.4	316	3
2023-09-14T06:00	30917	11	-42.0	-80.4	323	3
2023-09-14T06:00	30926	11	-42.1	-80.5	329	3
2023-09-14T06:00	30984	11	-42.3	-80.6	333	3
2023-09-14T06:00	31017	11	-42.5	-80.8	333	2
2023-09-14T06:00	31028	10	-42.6	-80.8	328	2
2023-09-14T06:00	31059	10	-42.7	-80.9	313	2
2023-09-14T06:00	31120	10	-42.7	-80.9	287	1
2023-09-14T06:00	31144	10	-42.6	-80.8	261	2
2023-09-14T06:00	31163	10	-42.5	-80.8	244	2
2023-09-14T06:00	31197	10	-42.4	-80.7	233	3
2023-09-14T06:00	31265	10	-42.3	-80.6	225	3
2023-09-14T06:00	31281	10	-42.3	-80.6	218	4
2023-09-14T06:00	31296	10	-42.3	-80.6	211	4
2023-09-14T06:00	31319	10	-42.3	-80.6	205	5
2023-09-14T06:00	31357	10	-42.5	-80.8	200	5
2023-09-14T06:00	31382	10	-42.6	-80.8	197	5
2023-09-14T06:00	31415	10	-42.8	-81.0	196	5
2023-09-14T06:00	31478	10	-42.9	-81.1	197	6
2023-09-14T06:00	31513	10	-42.9	-81.1	199	6
2023-09-14T06:00	31514	10	-42.8	-81.0	203	6
2023-09-14T06:00	31532	10	-42.7	-80.9	207	6
2023-09-14T06:00	31574	10	-42.7	-80.9	211	7
2023-09-14T06:00	31585	10	-42.8	-81.0	214	8
2023-09-14T06:00	31622	10	-42.9	-81.1	216	8
2023-09-14T06:00	31654	10	-42.9	-81.1	218	9
2023-09-14T06:00	31703	9	-43.0	-81.1	219	9
2023-09-14T06:00	31704	9	-43.0	-81.1	221	10
2023-09-14T06:00	31768	9	-43.1	-81.2	222	10
2023-09-14T06:00	31769	9	-43.2	-81.3	223	10
2023-09-14T06:00	31831	9	-43.1	-81.2	224	11
2023-09-14T06:00	31840	9	-43.0	-81.1	224	11
2023-09-14T06:00	31859	9	-42.8	-81.0	224	11
2023-09-14T06:00	31911	9	-42.9	-81.1	224	11
2023-09-14T06:00	31938	9	-43.2	-81.3	225	11
2023-09-14T06:00	31955	9	-43.4	-81.4	226	12
2023-09-14T06:00	31980	9	-43.4	-81.4	228	12
2023-09-14T06:00	32017	9	-43.3	-81.3	230	13
2023-09-14T06:00	32047	9	-43.1	-81.2	233	13
2023-09-14T06:00	32079	9	-43.0	-81.1	236	12
2023-09-14T06:00	32158	9	-42.8	-81.0	240	12
2023-09-14T06:00	32196	9	-41.8	-80.3	253	12
2023-09-14T06:00	32235	9	-41.6	-80.1	257	13
2023-09-14T06:00	32254	9	-41.4	-80.0	260	13
2023-09-14T06:00	32258	9	-41.1	-79.8	263	13
2023-09-14T06:00	32333	9	-40.9	-79.7	265	14
2023-09-14T06:00	32337	9	-40.7	-79.5	266	14
2023-09-14T06:00	32382	9	-40.8	-79.6	267	13
2023-09-14T06:00	32393	9	-40.9	-79.7	267	13
2023-09-14T06:00	32476	9	-40.8	-79.6	266	12
2023-09-14T06:00	32494	8	-40.4	-79.3	264	10
2023-09-14T06:00	32548	8	-40.2	-79.2	264	10
2023-09-14T06:00	32609	8	-39.5	-78.7	268	10
2023-09-14T06:00	32637	8	-39.4	-78.6	271	10
2023-09-14T06:00	32682	8	-39.4	-78.6	274	11
2023-09-14T06:00	32718	8	-39.4	-78.6	277	11
2023-09-14T06:00	32759	8	-39.1	-78.4	284	12
2023-09-14T06:00	32777	8	-39.0	-78.3	286	12
2023-09-14T06:00	32822	8	-38.8	-78.2	288	12
2023-09-14T06:00	32841	8	-38.4	-77.9	290	12
2023-09-14T06:00	32879	8	-38.0	-77.6	292	11
2023-09-14T06:00	32913	8	-37.8	-77.5	293	11
2023-09-14T06:00	32938	8	-37.8	-77.5	295	9
2023-09-14T06:00	32959	8	-37.8	-77.5	296	8
2023-09-14T06:00	33004	8	-37.8	-77.5	296	7
2023-09-14T06:00	33044	8	-37.7	-77.4	296	6
2023-09-14T06:00	33083	8	-37.6	-77.4	293	5
2023-09-14T06:00	33117	8	-37.5	-77.3	287	4
2023-09-14T06:00	33130	8	-37.5	-77.3	279	4
2023-09-14T06:00	33140	8	-37.4	-77.2	267	3
2023-09-14T06:00	33199	8	-37.4	-77.2	254	3
2023-09-14T06:00	33229	8	-37.5	-77.3	241	3
2023-09-14T06:00	33255	8	-37.6	-77.4	230	3
2023-09-14T06:00	33295	8	-37.8	-77.5	222	4
2023-09-14T06:00	33318	7	-37.9	-77.6	218	4
2023-09-14T06:00	33330	7	-38.0	-77.6	218	5
2023-09-14T06:00	33405	7	-37.9	-77.6	221	5
2023-09-14T06:00	33418	7	-37.6	-77.4	226	5
2023-09-14T06:00	33431	7	-37.5	-77.3	234	5
2023-09-14T06:00	33486	7	-37.7	-77.4	242	5
2023-09-14T06:00	33520	7	-37.8	-77.5	250	6
2023-09-14T06:00	33558	7	-37.9	-77.6	258	6
2023-09-14T06:00	33649	7	-38.0	-77.6	265	7
2023-09-14T06:00	33655	7	-38.2	-77.8	276	10
2023-09-14T06:00	33687	7	-38.1	-77.7	276	11
2023-09-14T06:00	33701	7	-37.9	-77.6	274	11
2023-09-14T06:00	33816	7	-37.8	-77.5	271	12
2023-09-14T06:00	33833	7	-37.7	-77.4	264	12
2023-09-14T06:00	33902	7	-37.4	-77.2	257	11
2023-09-14T06:00	33908	7	-37.1	-77.0	254	11
2023-09-14T06:00	33948	7	-36.9	-76.9	251	11
2023-09-14T06:00	33967	7	-36.8	-76.8	249	11
2023-09-14T06:00	33998	7	-36.7	-76.7	248	11
2023-09-14T12:00	112	1009	18.3	8.6	280	4
2023-09-14T12:00	138	1006	16.9	8.2	292	3
2023-09-14T12:00	167	1003	16.7	7.9	289	4
2023-09-14T12:00	201	999	16.2	7.8	291	4
2023-09-14T12:00	230	996	15.9	7.6	295	5
2023-09-14T12:00	255	993	15.6	7.6	302	5
2023-09-14T12:00	283	989	15.2	7.5	309	5
2023-09-14T12:00	316	986	15.0	7.5	316	5
2023-09-14T12:00	347	982	14.8	7.7	321	5
2023-09-14T12:00	387	978	14.6	7.7	325	5
2023-09-14T12:00	417	974	14.1	7.5	326	4
2023-09-14T12:00	449	970	13.8	7.4	326	4
2023-09-14T12:00	475	967	13.5	7.4	324	4
2023-09-14T12:00	510	963	13.4	7.6	321	4
2023-09-14T12:00	543	959	13.0	7.4	318	4
2023-09-14T12:00	575	956	12.6	7.5	317	4
2023-09-14T12:00	604	952	12.3	7.4	317	4
2023-09-14T12:00	630	949	12.0	7.3	319	4
2023-09-14T12:00	666	946	11.7	7.1	321	4
2023-09-14T12:00	692	943	11.5	7.1	323	4
2023-09-14T12:00	718	939	11.1	7.2	323	4
2023-09-14T12:00	746	936	10.8	7.1	325	4
2023-09-14T12:00	775	933	10.5	7.1	329	4
2023-09-14T12:00	800	930	10.2	7.0	334	4
2023-09-14T12:00	825	928	10.0	7.1	339	4
2023-09-14T12:00	849	925	9.8	6.8	343	4
2023-09-14T12:00	868	923	9.6	6.9	345	4
2023-09-14T12:00	892	920	9.3	6.8	344	4
2023-09-14T12:00	917	917	9.1	6.8	343	4
2023-09-14T12:00	947	914	8.9	6.5	341	3
2023-09-14T12:00	967	912	8.7	6.1	338	3
2023-09-14T12:00	993	909	8.7	5.4	335	3
2023-09-14T12:00	1020	906	8.4	5.4	331	3
2023-09-14T12:00	1049	903	8.2	4.9	327	4
2023-09-14T12:00	1083	899	7.9	4.3	323	4
2023-09-14T12:00	1108	896	7.8	3.3	319	4
2023-09-14T12:00	1139	893	7.5	4.1	317	4
2023-09-14T12:00	1163	890	7.3	3.3	317	4
2023-09-14T12:00	1192	887	7.2	2.3	319	4
2023-09-14T12:00	1222	884	7.3	-1.3	320	4
2023-09-14T12:00	1250	881	7.3	-2.2	322	3
2023-09-14T12:00	1277	878	7.5	-3.3	322	3
2023-09-14T12:00	1306	875	7.3		321	3
2023-09-14T12:00	1337	872	7.1	-2.5	321	3
2023-09-14T12:00	1368	869	6.9	-1.9	323	3
2023-09-14T12:00	1396	866	6.8	-1.7	326	2
2023-09-14T12:00	1423	863	7.2	-0.5	328	2
2023-09-14T12:00	1452	860	7.2	0.3	333	1
2023-09-14T12:00	1481	857	7.1	1.4	341	1
2023-09-14T12:00	1509	854	7.0	3.2	2	1
2023-09-14T12:00	1531	852	6.8	3.6	14	1
2023-09-14T12:00	1555	849	6.7	4.3	6	1
2023-09-14T12:00	1584	846	6.6	4.0	354	1
2023-09-14T12:00	1609	843	6.6	3.5	344	2
2023-09-14T12:00	1635	841	6.6	2.6	337	2
2023-09-14T12:00	1664	838	6.5	2.5	334	2
2023-09-14T12:00	1697	835	6.5	-1.0	334	3
2023-09-14T12:00	1723	832	7.0	-11.2	336	3
2023-09-14T12:00	1752	829	7.0	-11.2	339	3
2023-09-14T12:00	1778	826	6.9	-13.5	341	3
2023-09-14T12:00	1803	824	6.9	-16.0	342	3
2023-09-14T12:00	1830	821	6.9	-16.6	343	3
2023-09-14T12:00	1853	819	6.9	-16.3	343	3
2023-09-14T12:00	1877	816	6.7	-10.7	344	3
2023-09-14T12:00	1896	814	6.7	-8.7	345	3
2023-09-14T12:00	1922	812	6.8	-8.9	347	3
2023-09-14T12:00	1949	809	6.9	-16.0	347	4
2023-09-14T12:00	1971	807	7.0	-13.0	347	5
2023-09-14T12:00	1996	805	7.1	-13.4	347	5
2023-09-14T12:00	2023	802	7.1	-25.1	346	5
2023-09-14T12:00	2054	799	7.4	-34.9	344	6
2023-09-14T12:00	2079	797	7.5	-36.7	342	6
2023-09-14T12:00	2103	794	7.4	-23.1	340	6
2023-09-14T12:00	2127	792	7.0	-5.2	338	6
2023-09-14T12:00	2148	790	7.1	-5.8	338	6
2023-09-14T12:00	2174	787	7.1	-6.9	338	5
2023-09-14T12:00	2204	785	7.1	-7.8	340	5
2023-09-14T12:00	2229	782	7.0	-7.5	341	4
2023-09-14T12:00	2255	780	6.8	-7.7	340	4
2023-09-14T12:00	2284	777	6.6	-8.3	337	4
2023-09-14T12:00	2312	774	6.4	-8.6	332	4
2023-09-14T12:00	2337	772	6.2	-5.6	326	4
2023-09-14T12:00	2364	769	6.1	-7.3	322	4
2023-09-14T12:00	2389	767	6.0	-7.9	321	4
2023-09-14T12:00	2409	765	5.9	-7.5	323	3
2023-09-14T12:00	2431	763	5.8	-6.7	328	3
2023-09-14T12:00	2452	761	5.7	-8.3	334	3
2023-09-14T12:00	2476	759	5.6	-10.0	339	3
2023-09-14T12:00	2505	756	5.4	-9.6	342	3
2023-09-14T12:00	2535	753	5.2	-9.0	342	3
2023-09-14T12:00	2563	751	5.0	-10.8	342	3
2023-09-14T12:00	2591	748	4.8	-11.5	342	3
2023-09-14T12:00	2616	746	4.6	-11.3	342	3
2023-09-14T12:00	2645	743	4.4	-12.7	342	3
2023-09-14T12:00	2678	740	4.2	-12.6	340	3
2023-09-14T12:00	2707	738	4.0	-12.4	336	3
2023-09-14T12:00	2736	735	3.8	-13.0	330	3
2023-09-14T12:00	2757	733	3.6	-12.3	324	3
2023-09-14T12:00	2779	731	3.5	-10.7	320	4
2023-09-14T12:00	2800	729	3.4	-11.4	319	4
2023-09-14T12:00	2819	728	3.4	-12.3	319	4
2023-09-14T12:00	2845	725	3.4	-14.7	321	4
2023-09-14T12:00	2871	723	3.4	-16.6	325	4
2023-09-14T12:00	2900	720	3.4	-17.5	328	4
2023-09-14T12:00	2926	718	3.3	-18.2	331	4
2023-09-14T12:00	2951	716	3.1	-18.6	331	4
2023-09-14T12:00	2979	713	3.0	-19.1	330	5
2023-09-14T12:00	2998	712	2.9	-19.4	329	5
2023-09-14T12:00	3021	710	2.8	-20.1	328	5
2023-09-14T12:00	3043	708	2.7	-20.2	327	5
2023-09-14T12:00	3067	705	2.6	-20.9	327	5
2023-09-14T12:00	3095	703	2.5	-21.4	326	5
2023-09-14T12:00	3116	701	2.5	-22.2	325	6
2023-09-14T12:00	3139	699	2.6	-25.6	324	7
2023-09-14T12:00	3162	697	2.9	-31.8	322	7
2023-09-14T12:00	3185	695	3.1	-37.6	319	7
2023-09-14T12:00	3210	693	3.3	-41.5	316	7
2023-09-14T12:00	3233	691	3.2	-41.0	314	7
2023-09-14T12:00	3255	689	3.1	-39.9	314	6
2023-09-14T12:00	3277	688	3.0	-39.0	316	6
2023-09-14T12:00	3297	686	3.0	-38.5	319	6
2023-09-14T12:00	3326	683	2.9	-39.1	321	6
2023-09-14T12:00	3353	681	2.7	-39.7	322	6
2023-09-14T12:00	3380	679	2.5	-39.8	320	6
2023-09-14T12:00	3407	677	2.4	-39.8	316	7
2023-09-14T12:00	3424	675	2.4	-40.4	312	7
2023-09-14T12:00	3447	673	2.2	-40.5	309	7
2023-09-14T12:00	3471	671	2.1	-40.5	306	7
2023-09-14T12:00	3495	669	2.0	-40.6	304	7
2023-09-14T12:00	3517	667	1.9	-40.2	303	7
2023-09-14T12:00	3541	665	1.7	-39.4	302	7
2023-09-14T12:00	3566	663	1.5	-37.9	302	7
2023-09-14T12:00	3591	661	1.3	-35.1	301	6
2023-09-14T12:00	3618	659	1.2	-34.1	301	6
2023-09-14T12:00	3651	657	0.9	-35.3	299	6
2023-09-14T12:00	3678	654	0.9	-40.3	296	6
2023-09-14T12:00	3711	652	0.7	-37.0	291	6
2023-09-14T12:00	3736	649	0.6	-36.7	286	7
2023-09-14T12:00	3760	647	0.4	-36.9	281	7
2023-09-14T12:00	3793	645	0.2	-37.3	280	7
2023-09-14T12:00	3828	642	0.1	-36.5	281	7
2023-09-14T12:00	3861	640	-0.1	-36.9	285	6
2023-09-14T12:00	3883	638	-0.2	-38.3	290	6
2023-09-14T12:00	3910	636	-0.3	-30.3	294	6
2023-09-14T12:00	3929	634	-0.5	-21.7	296	6
2023-09-14T12:00	3956	632	-0.7	-20.9	296	6
2023-09-14T12:00	3986	630	-1.0	-20.1	294	6
2023-09-14T12:00	4009	627	-1.2	-19.5	293	5
2023-09-14T12:00	4039	625	-1.5	-19.7	292	5
2023-09-14T12:00	4068	623	-1.6	-21.2	292	5
2023-09-14T12:00	4096	621	-1.7	-21.8	293	5
2023-09-14T12:00	4124	619	-1.7	-22.6	296	5
2023-09-14T12:00	4151	616	-1.7	-22.4	301	5
2023-09-14T12:00	4184	614	-1.8	-22.0	305	5
2023-09-14T12:00	4211	612	-2.0	-22.2	307	5
2023-09-14T12:00	4238	610	-2.2	-22.4	305	5
2023-09-14T12:00	4257	608	-2.3	-22.2	301	6
2023-09-14T12:00	4279	607	-2.5	-22.1	295	6
2023-09-14T12:00	4305	605	-2.6	-21.9	290	6
2023-09-14T12:00	4336	603	-2.8	-21.5	288	6
2023-09-14T12:00	4355	601	-2.9	-22.0	289	6
2023-09-14T12:00	4376	599	-3.0	-21.7	292	6
2023-09-14T12:00	4393	598	-3.2	-21.7	295	6
2023-09-14T12:00	4413	597	-3.3	-21.5	296	6
2023-09-14T12:00	4430	595	-3.4	-20.9	295	6
2023-09-14T12:00	4451	594	-3.6	-21.2	291	6
2023-09-14T12:00	4478	592	-3.8	-21.5	286	6
2023-09-14T12:00	4504	590	-4.0	-22.8	281	6
2023-09-14T12:00	4525	588	-4.1	-22.9	278	6
2023-09-14T12:00	4551	586	-4.3	-22.8	278	7
2023-09-14T12:00	4576	584	-4.5	-23.0	280	6
2023-09-14T12:00	4604	582	-4.6	-23.1	284	6
2023-09-14T12:00	4633	580	-4.8	-22.0	288	6
2023-09-14T12:00	4661	578	-5.0	-20.4	291	6
2023-09-14T12:00	4689	576	-5.2	-19.9	295	6
2023-09-14T12:00	4720	574	-5.5	-20.2	299	6
2023-09-14T12:00	4744	572	-5.7	-20.3	302	6
2023-09-14T12:00	4773	570	-5.9	-20.5	304	6
2023-09-14T12:00	4802	568	-6.0	-20.7	303	5
2023-09-14T12:00	4822	566	-6.1	-20.9	301	5
2023-09-14T12:00	4854	564	-6.4	-20.8	297	5
2023-09-14T12:00	4888	561	-6.6	-20.4	294	5
2023-09-14T12:00	4922	559	-6.9	-20.0	293	5
2023-09-14T12:00	4944	557	-7.0	-18.7	294	6
2023-09-14T12:00	4969	556	-7.2	-17.9	296	6
2023-09-14T12:00	4995	554	-7.5	-17.3	298	6
2023-09-14T12:00	5022	552	-7.7	-16.7	302	6
2023-09-14T12:00	5044	550	-7.9	-16.4	305	6
2023-09-14T12:00	5068	549	-8.1	-16.4	308	6
2023-09-14T12:00	5093	547	-8.3	-16.6	311	6
2023-09-14T12:00	5112	546	-8.5	-16.8	313	7
2023-09-14T12:00	5132	544	-8.7	-17.3	315	8
2023-09-14T12:00	5163	542	-8.9	-17.7	315	8
2023-09-14T12:00	5189	540	-9.1	-18.1	316	8
2023-09-14T12:00	5219	538	-9.4	-18.4	316	7
2023-09-14T12:00	5240	536	-9.5	-18.6	315	7
2023-09-14T12:00	5270	535	-9.6	-18.9	314	7
2023-09-14T12:00	5286	533	-9.7	-19.4	311	7
2023-09-14T12:00	5307	532	-9.9	-19.5	309	7
2023-09-14T12:00	5339	530	-10.1	-19.5	307	8
2023-09-14T12:00	5362	528	-10.3	-19.7	307	8
2023-09-14T12:00	5380	527	-10.5	-19.6	308	8
2023-09-14T12:00	5400	526	-10.6	-19.6	309	8
2023-09-14T12:00	5417	524	-10.7	-20.0	309	8
2023-09-14T12:00	5439	523	-10.9	-19.9	310	9
2023-09-14T12:00	5474	521	-11.1	-20.0	309	9
2023-09-14T12:00	5507	518	-11.4	-19.8	308	9
2023-09-14T12:00	5537	516	-11.6	-20.0	307	9
2023-09-14T12:00	5568	514	-11.7	-21.2	305	9
2023-09-14T12:00	5595	512	-11.9	-21.6	303	9
2023-09-14T12:00	5616	511	-12.1	-21.7	301	9
2023-09-14T12:00	5643	509	-12.3	-21.5	299	9
2023-09-14T12:00	5675	507	-12.6	-21.1	298	9
2023-09-14T12:00	5698	505	-12.8	-20.9	298	9
2023-09-14T12:00	5725	504	-13.0	-20.9	298	8
2023-09-14T12:00	5760	502	-13.2	-21.6	297	8
2023-09-14T12:00	5780	500	-13.3	-22.2	297	8
2023-09-14T12:00	5798	499	-13.5	-22.2	298	8
2023-09-14T12:00	5821	497	-13.7	-22.4	298	8
2023-09-14T12:00	5839	496	-13.8	-22.4	299	8
2023-09-14T12:00	5859	495	-13.9	-22.6	298	7
2023-09-14T12:00	5880	494	-14.1	-22.6	295	7
2023-09-14T12:00	5909	492	-14.3	-22.8	290	7
2023-09-14T12:00	5940	490	-14.4	-23.5	285	7
2023-09-14T12:00	5966	488	-14.6	-24.0	281	6
2023-09-14T12:00	6002	486	-14.7	-23.6	280	6
2023-09-14T12:00	6035	484	-14.9	-22.9	283	6
2023-09-14T12:00	6058	482	-15.0	-23.1	287	6
2023-09-14T12:00	6077	481	-15.0	-23.7	292	6
2023-09-14T12:00	6108	479	-15.1	-24.9	296	7
2023-09-14T12:00	6144	477	-15.3	-25.8	297	7
2023-09-14T12:00	6166	475	-15.3	-27.0	298	7
2023-09-14T12:00	6191	474	-15.5	-27.4	298	8
2023-09-14T12:00	6220	472	-15.7	-28.1	299	7
2023-09-14T12:00	6242	470	-15.9	-28.3	299	7
2023-09-14T12:00	6273	469	-16.1	-30.0	301	6
2023-09-14T12:00	6297	467	-16.2	-31.1	305	5
2023-09-14T12:00	6329	465	-16.5	-31.2	312	5
2023-09-14T12:00	6355	464	-16.7	-31.4	320	5
2023-09-14T12:00	6374	462	-16.9	-31.4	327	5
2023-09-14T12:00	6400	461	-17.1	-31.7	331	5
2023-09-14T12:00	6432	459	-17.1		333	5
2023-09-14T12:00	6454	457	-17.2	-33.4	333	5
2023-09-14T12:00	6483	456	-17.5	-32.9	333	5
2023-09-14T12:00	6516	454	-17.8	-32.8	335	6
2023-09-14T12:00	6552	452	-18.0	-34.0	338	6
2023-09-14T12:00	6586	450	-18.2	-33.9	341	6
2023-09-14T12:00	6603	448	-18.3	-33.6	345	7
2023-09-14T12:00	6626	447	-18.6	-33.7	349	6
2023-09-14T12:00	6661	445	-18.9	-33.0	351	6
2023-09-14T12:00	6688	443	-19.1	-32.9	351	6
2023-09-14T12:00	6704	442	-19.3	-32.9	349	6
2023-09-14T12:00	6725	441	-19.4	-32.7	346	7
2023-09-14T12:00	6743	440	-19.5	-33.1	344	7
2023-09-14T12:00	6764	439	-19.7	-33.5	343	7
2023-09-14T12:00	6792	437	-19.8	-33.6	342	7
2023-09-14T12:00	6826	435	-20.1	-33.3	341	8
2023-09-14T12:00	6847	434	-20.3	-33.9	338	8
2023-09-14T12:00	6871	432	-20.5	-33.5	335	8
2023-09-14T12:00	6901	431	-20.7	-33.8	331	8
2023-09-14T12:00	6931	429	-20.9	-35.0	329	8
2023-09-14T12:00	6956	427	-21.1	-34.9	329	8
2023-09-14T12:00	6994	426	-21.4	-34.6	330	8
2023-09-14T12:00	7022	424	-21.7	-34.6	331	8
2023-09-14T12:00	7053	422	-22.0	-34.5	331	8
2023-09-14T12:00	7077	421	-22.2	-34.9	330	8
2023-09-14T12:00	7108	419	-22.4	-34.9	328	9
2023-09-14T12:00	7131	417	-22.6	-35.1	327	10
2023-09-14T12:00	7158	416	-22.9	-35.2	327	10
2023-09-14T12:00	7187	414	-23.1	-35.3	328	11
2023-09-14T12:00	7218	413	-23.4	-35.5	330	12
2023-09-14T12:00	7244	411	-23.6	-35.4	332	12
2023-09-14T12:00	7275	409	-23.8	-34.7	332	12
2023-09-14T12:00	7296	408	-24.0	-34.7	330	12
2023-09-14T12:00	7331	406	-24.3	-34.7	328	12
2023-09-14T12:00	7364	404	-24.6	-34.8	325	11
2023-09-14T12:00	7386	403	-24.8	-34.7	323	11
2023-09-14T12:00	7405	402	-25.0	-34.6	322	11
2023-09-14T12:00	7422	401	-25.2	-34.4	323	11
2023-09-14T12:00	7443	400	-25.4	-34.1	325	10
2023-09-14T12:00	7472	398	-25.7	-34.2	326	10
2023-09-14T12:00	7510	396	-26.0	-34.5	328	10
2023-09-14T12:00	7533	395	-26.2	-34.6	329	10
2023-09-14T12:00	7552	394	-26.4	-34.5	330	10
2023-09-14T12:00	7575	393	-26.7	-34.5	331	10
2023-09-14T12:00	7602	391	-26.9	-34.7	332	10
2023-09-14T12:00	7633	390	-27.1	-35.6	333	10
2023-09-14T12:00	7650	389	-27.2	-35.7	334	9
2023-09-14T12:00	7668	388	-27.4	-35.9	334	9
2023-09-14T12:00	7687	387	-27.5	-36.3	333	9
2023-09-14T12:00	7708	386	-27.7	-36.6	333	9
2023-09-14T12:00	7728	385	-27.9	-36.8	333	9
2023-09-14T12:00	7747	384	-28.1	-36.8	333	9
2023-09-14T12:00	7769	382	-28.3	-36.7	334	9
2023-09-14T12:00	7787	381	-28.5	-36.7	335	9
2023-09-14T12:00	7816	380	-28.7	-36.6	335	10
2023-09-14T12:00	7857	378	-29.1	-37.0	336	10
2023-09-14T12:00	7888	376	-29.3	-36.9	336	10
2023-09-14T12:00	7908	375	-29.5	-37.0	337	10
2023-09-14T12:00	7926	374	-29.7	-37.1	337	10
2023-09-14T12:00	7950	373	-29.9	-37.3	336	10
2023-09-14T12:00	7983	371	-30.2	-37.3	335	9
2023-09-14T12:00	8023	369	-30.6	-37.5	333	9
2023-09-14T12:00	8049	368	-30.8	-38.0	331	9
2023-09-14T12:00	8067	367	-31.0	-38.0	329	9
2023-09-14T12:00	8085	366	-31.2	-37.9	328	9
2023-09-14T12:00	8105	365	-31.3	-38.0	328	9
2023-09-14T12:00	8125	364	-31.5	-38.4	327	9
2023-09-14T12:00	8145	363	-31.7	-38.6	327	9
2023-09-14T12:00	8164	362	-31.8	-39.1	327	9
2023-09-14T12:00	8183	361	-32.0	-39.1	326	9
2023-09-14T12:00	8203	360	-32.2	-39.3	325	9
2023-09-14T12:00	8221	359	-32.4	-39.5	324	9
2023-09-14T12:00	8244	358	-32.6	-39.7	322	9
2023-09-14T12:00	8269	356	-32.8	-39.8	321	8
2023-09-14T12:00	8304	355	-33.1	-42.2	319	8
2023-09-14T12:00	8329	353	-33.2	-44.4	318	8
2023-09-14T12:00	8358	352	-33.5	-44.9	316	8
2023-09-14T12:00	8391	350	-33.7	-46.4	315	8
2023-09-14T12:00	8420	349	-33.7	-49.8	314	9
2023-09-14T12:00	8453	347	-33.9	-48.2	313	9
2023-09-14T12:00	8488	346	-34.2	-48.3	313	10
2023-09-14T12:00	8506	345	-34.4	-48.2	312	10
2023-09-14T12:00	8525	344	-34.6	-47.9	311	10
2023-09-14T12:00	8544	343	-34.8	-47.8	311	10
2023-09-14T12:00	8563	342	-34.9	-47.9	311	10
2023-09-14T12:00	8583	341	-35.1	-48.3	311	10
2023-09-14T12:00	8600	340	-35.2	-48.4	311	10
2023-09-14T12:00	8620	339	-35.4	-48.3	311	10
2023-09-14T12:00	8638	338	-35.5	-48.3	310	10
2023-09-14T12:00	8659	337	-35.7	-48.2	310	10
2023-09-14T12:00	8676	336	-35.8	-48.3	309	9
2023-09-14T12:00	8697	335	-36.0	-48.4	309	9
2023-09-14T12:00	8716	334	-36.2	-48.5	310	9
2023-09-14T12:00	8738	333	-36.4	-48.4	312	9
2023-09-14T12:00	8765	332	-36.6	-48.4	314	9
2023-09-14T12:00	8794	331	-36.9	-48.4	316	9
2023-09-14T12:00	8822	329	-37.1	-48.4	317	9
2023-09-14T12:00	8852	328	-37.3	-48.6	318	9
2023-09-14T12:00	8880	326	-37.6	-48.4	319	9
2023-09-14T12:00	8913	325	-38.0	-48.2	321	9
2023-09-14T12:00	8943	323	-38.3	-48.1	322	9
2023-09-14T12:00	8978	322	-38.6	-48.3	324	9
2023-09-14T12:00	9008	321	-38.8	-48.1	326	9
2023-09-14T12:00	9030	319	-38.9	-47.8	327	9
2023-09-14T12:00	9059	318	-39.1	-47.4	330	8
2023-09-14T12:00	9098	316	-39.5	-47.4	332	8
2023-09-14T12:00	9124	315	-39.7	-47.7	333	8
2023-09-14T12:00	9140	314	-39.9	-48.1	334	8
2023-09-14T12:00	9159	313	-40.0	-48.4	333	9
2023-09-14T12:00	9179	313	-40.1	-48.6	332	9
2023-09-14T12:00	9200	312	-40.3	-48.1	332	10
2023-09-14T12:00	9222	311	-40.5	-48.2	332	10
2023-09-14T12:00	9248	309	-40.7	-48.5	333	11
2023-09-14T12:00	9272	308	-40.9	-48.8	334	11
2023-09-14T12:00	9298	307	-41.2	-49.1	335	11
2023-09-14T12:00	9320	306	-41.3	-49.1	335	11
2023-09-14T12:00	9348	305	-41.6	-49.5	335	11
2023-09-14T12:00	9382	303	-41.9	-49.2	335	11
2023-09-14T12:00	9415	302	-42.2	-48.8	336	11
2023-09-14T12:00	9436	301	-42.4	-48.5	337	11
2023-09-14T12:00	9458	300	-42.6	-48.4	337	11
2023-09-14T12:00	9480	299	-42.8	-48.1	337	12
2023-09-14T12:00	9509	298	-43.0	-47.7	336	12
2023-09-14T12:00	9540	296	-43.3	-47.8	335	12
2023-09-14T12:00	9569	295	-43.6	-47.9	334	12
2023-09-14T12:00	9601	294	-43.9	-47.8	335	12
2023-09-14T12:00	9634	292	-44.2	-48.5	337	12
2023-09-14T12:00	9670	291	-44.5	-48.9	339	12
2023-09-14T12:00	9688	290	-44.7	-49.2	341	13
2023-09-14T12:00	9710	289	-44.9	-49.9	342	13
2023-09-14T12:00	9733	288	-45.1	-50.6	342	12
2023-09-14T12:00	9758	287	-45.4	-50.6	341	12
2023-09-14T12:00	9786	286	-45.5	-50.2	340	11
2023-09-14T12:00	9817	284	-45.8	-50.7	340	10
2023-09-14T12:00	9849	283	-46.1	-51.0	341	10
2023-09-14T12:00	9875	282	-46.3	-51.4	342	10
2023-09-14T12:00	9904	281	-46.6	-51.9	343	10
2023-09-14T12:00	9923	280	-46.8	-51.8	343	10
2023-09-14T12:00	9945	279	-47.0	-51.9	342	10
2023-09-14T12:00	9971	278	-47.3	-52.6	340	10
2023-09-14T12:00	9996	277	-47.5	-53.1	339	10
2023-09-14T12:00	10022	276	-47.7	-53.8	340	10
2023-09-14T12:00	10045	275	-47.9	-54.4	342	10
2023-09-14T12:00	10071	274	-48.1	-54.7	343	10
2023-09-14T12:00	10095	273	-48.3	-55.2	345	11
2023-09-14T12:00	10122	271	-48.6	-55.8	345	11
2023-09-14T12:00	10153	270	-48.9	-56.2	345	11
2023-09-14T12:00	10178	269	-49.1	-56.3	346	11
2023-09-14T12:00	10198	268	-49.2	-55.9	346	11
2023-09-14T12:00	10222	267	-49.5	-56.0	347	11
2023-09-14T12:00	10244	267	-49.7	-56.2	347	11
2023-09-14T12:00	10265	266	-49.9	-56.4	346	11
2023-09-14T12:00	10287	265	-50.1	-56.5	346	11
2023-09-14T12:00	10315	264	-50.3	-56.5	345	11
2023-09-14T12:00	10347	262	-50.6	-56.7	345	11
2023-09-14T12:00	10373	261	-50.9	-57.0	346	11
2023-09-14T12:00	10396	260	-51.1	-57.0	347	10
2023-09-14T12:00	10418	259	-51.3		348	10
2023-09-14T12:00	10440	259	-51.5	-56.7	349	10
2023-09-14T12:00	10462	258	-51.7	-56.7	349	9
2023-09-14T12:00	10482	257	-51.9	-56.8	349	9
2023-09-14T12:00	10504	256	-52.1	-56.8	349	9
2023-09-14T12:00	10527	255	-52.3	-56.9	348	9
2023-09-14T12:00	10548	254	-52.5	-57.2	348	9
2023-09-14T12:00	10572	253	-52.7	-57.4	347	9
2023-09-14T12:00	10603	252	-53.1	-57.6	348	8
2023-09-14T12:00	10629	251	-53.2	-57.9	348	8
2023-09-14T12:00	10649	250	-53.2	-58.6	350	8
2023-09-14T12:00	10673	249	-53.4	-58.9	352	8
2023-09-14T12:00	10694	249	-53.6	-58.8	354	8
2023-09-14T12:00	10716	248	-53.8	-58.7	355	8
2023-09-14T12:00	10740	247	-54.0	-58.8	356	8
2023-09-14T12:00	10766	246	-54.3	-59.0	356	8
2023-09-14T12:00	10795	245	-54.6	-59.2	357	8
2023-09-14T12:00	10822	244	-54.8	-59.3	358	8
2023-09-14T12:00	10845	243	-55.0	-59.5	359	8
2023-09-14T12:00	10871	242	-55.2	-59.6	0	7
2023-09-14T12:00	10897	241	-55.4	-59.9	1	7
2023-09-14T12:00	10921	240	-55.6	-60.1	0	7
2023-09-14T12:00	10949	239	-55.8	-60.1	359	7
2023-09-14T12:00	10975	238	-56.1	-60.3	358	7
2023-09-14T12:00	11005	237	-56.3	-60.4	357	7
2023-09-14T12:00	11035	236	-56.5	-60.5	355	7
2023-09-14T12:00	11060	235	-56.7	-60.6	355	6
2023-09-14T12:00	11084	234	-56.9	-60.8	354	6
2023-09-14T12:00	11106	233	-57.0	-60.9	355	6
2023-09-14T12:00	11127	232	-57.1	-61.1	355	6
2023-09-14T12:00	11150	231	-57.2	-61.4	355	5
2023-09-14T12:00	11171	231	-57.4	-61.6	355	5
2023-09-14T12:00	11192	230	-57.5	-61.7	353	5
2023-09-14T12:00	11212	229	-57.7		350	5
2023-09-14T12:00	11235	228	-57.8	-62.1	346	6
2023-09-14T12:00	11254	228	-57.9	-62.2	342	6
2023-09-14T12:00	11275	227	-58.0	-62.4	337	6
2023-09-14T12:00	11296	226	-58.2	-62.6	331	6
2023-09-14T12:00	11319	225	-58.3	-62.8	324	6
2023-09-14T12:00	11343	224	-58.6	-63.3	316	6
2023-09-14T12:00	11362	224	-58.5	-64.1	309	5
2023-09-14T12:00	11382	223	-57.9	-64.9	302	5
2023-09-14T12:00	11401	222	-57.7	-66.2	297	5
2023-09-14T12:00	11425	222	-57.7	-66.8	292	5
2023-09-14T12:00	11445	221	-57.7	-67.0	289	5
2023-09-14T12:00	11467	220	-57.9	-67.3	286	6
2023-09-14T12:00	11487	219	-57.9	-67.3	285	6
2023-09-14T12:00	11509	219	-58.1	-67.4	284	6
2023-09-14T12:00	11530	218	-58.3	-67.3	285	7
2023-09-14T12:00	11552	217	-58.3	-66.9	286	7
2023-09-14T12:00	11574	216	-58.5	-66.7	288	8
2023-09-14T12:00	11593	216	-58.6	-66.5	291	8
2023-09-14T12:00	11614	215	-58.7	-66.3	294	9
2023-09-14T12:00	11633	214	-58.8	-66.3	297	9
2023-09-14T12:00	11656	214	-58.9	-66.3	300	10
2023-09-14T12:00	11679	213	-58.9	-66.3	304	11
2023-09-14T12:00	11698	212	-58.9	-66.3	307	11
2023-09-14T12:00	11721	211	-58.8	-66.4	310	12
2023-09-14T12:00	11741	211	-58.5	-66.4	313	12
2023-09-14T12:00	11761	210	-58.4	-66.5	315	12
2023-09-14T12:00	11782	209	-58.5	-66.8	318	12
2023-09-14T12:00	11801	209	-58.4	-66.9	319	12
2023-09-14T12:00	11822	208	-58.4	-67.1	320	11
2023-09-14T12:00	11852	207	-58.5	-67.4	320	11
2023-09-14T12:00	11875	206	-58.3	-67.5	319	11
2023-09-14T12:00	11896	206	-58.1	-67.6	317	11
2023-09-14T12:00	11920	205	-58.1	-67.8	315	11
2023-09-14T12:00	11953	204	-58.3	-67.8	312	11
2023-09-14T12:00	11971	203	-58.5	-67.7	310	12
2023-09-14T12:00	11992	202	-58.6	-67.7	308	11
2023-09-14T12:00	12015	202	-58.7	-67.8	306	11
2023-09-14T12:00	12036	201	-58.7	-67.8	305	11
2023-09-14T12:00	12056	200	-58.1	-67.5	304	10
2023-09-14T12:00	12076	200	-57.9	-67.7	303	10
2023-09-14T12:00	12097	199	-57.7	-67.9	302	9
2023-09-14T12:00	12118	198	-57.8	-68.3	301	9
2023-09-14T12:00	12140	198	-57.8	-68.7	298	8
2023-09-14T12:00	12161	197	-57.5	-69.0	295	8
2023-09-14T12:00	12182	196	-57.0	-69.2	291	8
2023-09-14T12:00	12202	196	-57.0	-69.6	289	7
2023-09-14T12:00	12221	195	-57.1	-69.9	289	7
2023-09-14T12:00	12240	195	-57.0	-69.9	289	7
2023-09-14T12:00	12262	194	-56.9	-70.1	289	7
2023-09-14T12:00	12281	193	-56.8	-70.4	288	7
2023-09-14T12:00	12300	193	-56.8	-70.8	285	7
2023-09-14T12:00	12326	192	-56.9	-71.3	281	7
2023-09-14T12:00	12351	191	-56.7	-71.9	275	7
2023-09-14T12:00	12369	191	-56.4	-72.4	270	7
2023-09-14T12:00	12393	190	-56.5	-73.3	266	8
2023-09-14T12:00	12416	189	-56.6	-73.6	263	9
2023-09-14T12:00	12438	189	-56.7	-73.6	261	9
2023-09-14T12:00	12458	188	-56.8	-73.7	261	10
2023-09-14T12:00	12479	187	-56.4	-73.3	262	10
2023-09-14T12:00	12502	187	-56.2	-72.8	263	10
2023-09-14T12:00	12526	186	-56.2	-72.5	265	11
2023-09-14T12:00	12546	185	-56.2	-72.6	267	11
2023-09-14T12:00	12569	185	-55.9	-73.0	270	11
2023-09-14T12:00	12591	184	-55.7	-73.4	273	12
2023-09-14T12:00	12614	183	-55.6	-73.5	275	12
2023-09-14T12:00	12637	183	-55.5	-73.4	278	13
2023-09-14T12:00	12659	182	-55.5	-73.3	280	13
2023-09-14T12:00	12678	182	-55.6	-73.5	282	13
2023-09-14T12:00	12704	181	-55.6	-73.6	284	13
2023-09-14T12:00	12726	180	-55.7	-73.8	285	13
2023-09-14T12:00	12748	180	-55.8	-73.8	287	12
2023-09-14T12:00	12770	179	-56.0	-73.8	288	12
2023-09-14T12:00	12792	178	-56.1	-73.7	289	12
2023-09-14T12:00	12814	178	-56.3	-73.9	290	12
2023-09-14T12:00	12838	177	-56.4	-74.1	290	12
2023-09-14T12:00	12857	177	-56.4	-74.6	290	12
2023-09-14T12:00	12882	176	-56.2	-75.4	288	11
2023-09-14T12:00	12903	175	-55.9	-76.2	287	11
2023-09-14T12:00	12925	175	-55.6	-76.9	285	10
2023-09-14T12:00	12947	174	-55.4	-77.1	283	10
2023-09-14T12:00	12969	174	-55.3	-77.0	282	10
2023-09-14T12:00	12988	173	-55.2	-77.0	280	10
2023-09-14T12:00	13009	172	-55.0	-77.1	279	10
2023-09-14T12:00	13032	172	-54.8	-77.5	277	10
2023-09-14T12:00	13052	171	-54.5	-78.0	275	10
2023-09-14T12:00	13074	171	-54.1	-78.1	274	10
2023-09-14T12:00	13097	170	-54.0	-78.2	273	10
2023-09-14T12:00	13116	170	-54.0	-78.2	273	10
2023-09-14T12:00	13137	169	-54.1	-78.3	274	10
2023-09-14T12:00	13156	169	-54.0	-78.4	274	9
2023-09-14T12:00	13179	168	-54.1	-78.5	274	9
2023-09-14T12:00	13201	167	-54.1	-78.5	272	8
2023-09-14T12:00	13222	167	-53.9	-78.5	270	8
2023-09-14T12:00	13245	166	-53.5	-78.6	267	7
2023-09-14T12:00	13266	166	-53.5	-78.6	264	7
2023-09-14T12:00	13289	165	-53.6	-78.9	262	7
2023-09-14T12:00	13308	165	-53.7	-78.8	261	7
2023-09-14T12:00	13330	164	-53.8	-78.9	260	7
2023-09-14T12:00	13348	164	-53.8	-78.9	260	7
2023-09-14T12:00	13370	163	-54.0	-79.0	259	7
2023-09-14T12:00	13392	162	-54.1	-78.9	258	7
2023-09-14T12:00	13414	162	-54.3	-79.0	257	8
2023-09-14T12:00	13434	161	-54.5	-79.2	255	8
2023-09-14T12:00	13455	161	-54.6	-79.5	253	9
2023-09-14T12:00	13484	160	-54.5	-79.4	251	10
2023-09-14T12:00	13503	160	-54.3	-79.5	250	10
2023-09-14T12:00	13527	159	-54.4	-79.6	249	11
2023-09-14T12:00	13549	159	-54.5	-79.4	249	11
2023-09-14T12:00	13567	158	-54.7	-79.6	249	12
2023-09-14T12:00	13590	158	-54.8	-79.7	251	12
2023-09-14T12:00	13612	157	-54.9	-79.7	252	12
2023-09-14T12:00	13633	156	-54.9	-80.0	255	13
2023-09-14T12:00	13656	156	-54.8	-79.9	257	13
2023-09-14T12:00	13679	155	-54.7	-80.0	259	13
2023-09-14T12:00	13697	155	-54.8	-80.1	261	13
2023-09-14T12:00	13720	154	-55.0	-80.3	263	14
2023-09-14T12:00	13739	154	-55.1	-80.4	264	14
2023-09-14T12:00	13762	153	-55.1	-80.4	265	14
2023-09-14T12:00	13782	153	-55.3	-80.5	267	14
2023-09-14T12:00	13805	152	-55.4	-80.6	268	14
2023-09-14T12:00	13825	152	-55.5	-80.7	268	13
2023-09-14T12:00	13850	151	-55.5	-80.7	268	13
2023-09-14T12:00	13870	151	-55.4	-80.6	268	13
2023-09-14T12:00	13893	150	-55.3	-80.8	267	12
2023-09-14T12:00	13912	150	-55.2	-80.7	267	13
2023-09-14T12:00	13936	149	-55.3	-80.8	268	13
2023-09-14T12:00	13964	149	-55.2	-80.7	269	13
2023-09-14T12:00	13988	148	-55.3	-80.8	271	14
2023-09-14T12:00	14010	147	-55.5	-80.9	273	15
2023-09-14T12:00	14034	147	-55.6	-81.0	275	15
2023-09-14T12:00	14053	146	-55.6	-81.0	276	15
2023-09-14T12:00	14075	146	-55.8	-80.9	277	15
2023-09-14T12:00	14096	146	-55.9	-81.0	278	15
2023-09-14T12:00	14119	145	-56.0	-81.1	279	14
2023-09-14T12:00	14140	145	-56.1	-81.1	280	14
2023-09-14T12:00	14162	144	-56.2	-81.2	281	13
2023-09-14T12:00	14182	144	-56.3	-81.3	281	13
2023-09-14T12:00	14203	143	-56.4	-81.4	281	12
2023-09-14T12:00	14222	143	-56.4	-81.4	281	12
2023-09-14T12:00	14243	142	-56.4	-81.4	279	11
2023-09-14T12:00	14263	142	-56.3	-81.5	277	11
2023-09-14T12:00	14285	141	-56.2	-81.5	275	11
2023-09-14T12:00	14306	141	-56.1	-81.6	275	10
2023-09-14T12:00	14328	140	-56.0	-81.6	275	10
2023-09-14T12:00	14347	140	-55.9	-81.5	276	10
2023-09-14T12:00	14370	139	-55.9	-81.5	277	10
2023-09-14T12:00	14388	139	-55.8	-81.4	277	10
2023-09-14T12:00	14411	139	-55.8	-81.4	276	9
2023-09-14T12:00	14431	138	-55.8	-81.4	273	9
2023-09-14T12:00	14449	138	-55.6	-81.3	270	9
2023-09-14T12:00	14467	137	-55.5	-81.2	267	9
2023-09-14T12:00	14491	137	-55.5	-81.4	265	9
2023-09-14T12:00	14509	136	-55.4	-81.4	264	9
2023-09-14T12:00	14533	136	-55.4	-81.4	263	10
2023-09-14T12:00	14551	135	-55.3	-81.6	262	10
2023-09-14T12:00	14574	135	-55.2	-81.5	260	10
2023-09-14T12:00	14593	135	-55.2	-81.5	259	10
2023-09-14T12:00	14615	134	-55.2	-81.5	258	10
2023-09-14T12:00	14639	134	-55.3	-81.6	258	10
2023-09-14T12:00	14659	133	-55.3	-81.6	259	10
2023-09-14T12:00	14682	133	-55.4	-81.6	260	10
2023-09-14T12:00	14703	132	-55.3	-81.6	262	11
2023-09-14T12:00	14727	132	-55.3	-81.3	265	11
2023-09-14T12:00	14748	131	-55.4	-81.4	267	11
2023-09-14T12:00	14771	131	-55.4	-81.4	269	11
2023-09-14T12:00	14793	130	-55.5	-81.4	271	11
2023-09-14T12:00	14816	130	-55.6	-81.5	273	11
2023-09-14T12:00	14836	130	-55.8	-81.4	275	11
2023-09-14T12:00	14861	129	-56.0	-81.6	278	11
2023-09-14T12:00	14882	129	-56.1	-81.6	280	10
2023-09-14T12:00	14907	128	-56.0	-81.6	282	10
2023-09-14T12:00	14928	128	-55.9	-81.5	283	10
2023-09-14T12:00	14951	127	-56.0	-81.6	284	10
2023-09-14T12:00	14971	127	-56.0	-81.8	284	10
2023-09-14T12:00	14997	126	-55.9	-81.8	283	10
2023-09-14T12:00	15018	126	-55.8	-81.7	282	9
2023-09-14T12:00	15041	125	-55.9	-81.8	281	9
2023-09-14T12:00	15063	125	-55.9	-81.8	280	9
2023-09-14T12:00	15088	125	-55.9	-81.8	279	9
2023-09-14T12:00	15114	124	-55.9	-81.8	276	9
2023-09-14T12:00	15134	124	-55.9	-81.8	274	9
2023-09-14T12:00	15158	123	-56.0	-81.8	270	9
2023-09-14T12:00	15179	123	-56.1	-81.9	267	9
2023-09-14T12:00	15202	122	-56.1	-81.9	264	9
2023-09-14T12:00	15226	122	-56.2	-82.0	262	10
2023-09-14T12:00	15249	121	-56.3	-82.1	261	10
2023-09-14T12:00	15273	121	-56.4	-82.1	261	10
2023-09-14T12:00	15297	120	-56.6	-82.0	261	10
2023-09-14T12:00	15321	120	-56.6	-82.0	262	10
2023-09-14T12:00	15344	120	-56.8	-82.2	263	10
2023-09-14T12:00	15369	119	-56.8	-82.2	263	10
2023-09-14T12:00	15393	119	-56.8	-82.2	264	9
2023-09-14T12:00	15416	118	-56.9	-82.3	264	9
2023-09-14T12:00	15441	118	-56.9	-82.3	265	9
2023-09-14T12:00	15462	117	-57.1	-82.4	266	9
2023-09-14T12:00	15490	117	-57.2	-82.5	268	8
2023-09-14T12:00	15510	116	-57.3	-82.6	271	8
2023-09-14T12:00	15534	116	-57.5	-82.7	274	8
2023-09-14T12:00	15555	116	-57.6	-82.6	276	8
2023-09-14T12:00	15577	115	-57.6	-82.6	277	8
2023-09-14T12:00	15600	115	-57.7	-82.6	277	8
2023-09-14T12:00	15622	114	-57.5	-82.5	277	8
2023-09-14T12:00	15646	114	-57.5	-82.5	276	8
2023-09-14T12:00	15670	114	-57.6	-82.8	275	8
2023-09-14T12:00	15694	113	-57.6	-82.6	275	8
2023-09-14T12:00	15717	113	-57.7	-82.6	275	9
2023-09-14T12:00	15743	112	-57.8	-82.7	275	9
2023-09-14T12:00	15764	112	-57.9	-82.8	275	10
2023-09-14T12:00	15789	111	-58.1	-83.0	275	10
2023-09-14T12:00	15816	111	-58.2	-83.0	275	10
2023-09-14T12:00	15836	111	-58.2	-83.0	275	9
2023-09-14T12:00	15858	110	-58.1	-83.0	275	9
2023-09-14T12:00	15881	110	-58.1	-83.0	275	9
2023-09-14T12:00	15903	109	-58.2	-83.0	276	9
2023-09-14T12:00	15926	109	-58.1	-83.0	277	9
2023-09-14T12:00	15949	109	-58.1	-83.0	278	9
2023-09-14T12:00	15974	108	-58.3	-83.1	278	8
2023-09-14T12:00	16002	108	-58.3	-83.1	278	8
2023-09-14T12:00	16025	107	-58.2	-83.0	277	8
2023-09-14T12:00	16044	107	-58.1	-83.2	277	7
2023-09-14T12:00	16069	107	-58.1	-83.2	276	7
2023-09-14T12:00	16089	106	-58.3		275	6
2023-09-14T12:00	16115	106	-58.3		273	6
2023-09-14T12:00	16142	105	-58.4	-83.2	270	6
2023-09-14T12:00	16162	105	-58.5	-83.3	267	6
2023-09-14T12:00	16187	105	-58.6	-83.3	264	6
2023-09-14T12:00	16207	104	-58.7	-83.4	262	6
2023-09-14T12:00	16230	104	-58.7	-83.7	261	7
2023-09-14T12:00	16254	103	-58.8	-83.8	261	7
2023-09-14T12:00	16282	103	-58.9	-84.1	262	8
2023-09-14T12:00	16306	103	-59.0	-84.2	263	9
2023-09-14T12:00	16334	102	-59.1	-84.2	263	9
2023-09-14T12:00	16353	102	-59.1	-84.2	262	10
2023-09-14T12:00	16377	101	-59.3	-84.4	261	10
2023-09-14T12:00	16406	101	-59.5	-84.6	260	10
2023-09-14T12:00	16426	101	-59.6	-84.6	258	10
2023-09-14T12:00	16449	100	-59.5	-84.6	257	10
2023-09-14T12:00	16469	100	-59.2	-84.6	256	10
2023-09-14T12:00	16494	100	-58.8	-84.3	256	11
2023-09-14T12:00	16516	99	-58.7	-84.5	257	11
2023-09-14T12:00	16539	99	-58.8	-84.6	258	11
2023-09-14T12:00	16563	99	-58.9	-84.6	259	11
2023-09-14T12:00	16587	98	-58.7	-84.5	260	11
2023-09-14T12:00	16609	98	-58.4	-84.6	261	11
2023-09-14T12:00	16627	98	-58.2	-84.4	262	11
2023-09-14T12:00	16652	97	-58.2	-84.7	263	11
2023-09-14T12:00	16672	97	-58.0	-84.6	265	10
2023-09-14T12:00	16693	96	-57.7	-84.3	267	10
2023-09-14T12:00	16721	96	-57.6	-84.6	270	10
2023-09-14T12:00	16742	96	-57.7	-84.7	274	10
2023-09-14T12:00	16767	95	-57.7	-84.3	278	10
2023-09-14T12:00	16789	95	-57.8	-84.4	281	9
2023-09-14T12:00	16813	95	-57.8	-84.4	284	9
2023-09-14T12:00	16833	94	-57.5	-84.2	287	9
2023-09-14T12:00	16855	94	-57.3	-84.4	289	9
2023-09-14T12:00	16876	94	-57.3	-84.4	291	9
2023-09-14T12:00	16900	93	-57.3	-84.0	293	9
2023-09-14T12:00	16920	93	-57.5	-84.2	295	8
2023-09-14T12:00	16942	93	-57.5	-84.2	296	8
2023-09-14T12:00	16967	92	-57.4	-84.1	296	7
2023-09-14T12:00	16988	92	-57.3	-84.0	294	7
2023-09-14T12:00	17013	92	-57.5	-84.2	291	6
2023-09-14T12:00	17038	91	-57.6	-84.6	285	5
2023-09-14T12:00	17062	91	-57.6	-84.6	276	5
2023-09-14T12:00	17087	91	-57.4	-84.4	266	5
2023-09-14T12:00	17108	90	-57.4	-84.4	257	5
2023-09-14T12:00	17128	90	-57.5	-84.5	250	6
2023-09-14T12:00	17152	90	-57.5	-84.5	245	6
2023-09-14T12:00	17175	89	-57.5	-84.5	242	7
2023-09-14T12:00	17199	89	-57.5	-84.5	241	7
2023-09-14T12:00	17224	89	-57.6	-84.3	241	8
2023-09-14T12:00	17247	88	-57.9	-84.5	242	8
2023-09-14T12:00	17271	88	-58.0	-84.6	243	8
2023-09-14T12:00	17298	88	-58.1	-85.0	245	9
2023-09-14T12:00	17319	87	-58.0	-84.9	245	9
2023-09-14T12:00	17343	87	-57.8	-85.1	244	8
2023-09-14T12:00	17366	87	-57.5	-84.9	242	8
2023-09-14T12:00	17391	86	-57.5	-85.2	240	8
2023-09-14T12:00	17412	86	-57.3	-85.1	237	9
2023-09-14T12:00	17438	86	-57.1	-84.9	236	9
2023-09-14T12:00	17460	86	-57.3	-85.1	236	9
2023-09-14T12:00	17482	85	-57.2	-85.0	237	9
2023-09-14T12:00	17507	85	-57.3	-84.7	238	9
2023-09-14T12:00	17531	85	-57.4	-84.8	240	9
2023-09-14T12:00	17554	84	-57.4	-84.8	242	9
2023-09-14T12:00	17580	84	-57.4	-84.8	245	8
2023-09-14T12:00	17607	84	-57.5	-84.9	249	8
2023-09-14T12:00	17631	83	-57.6	-84.9	252	8
2023-09-14T12:00	17657	83	-57.6	-84.9	256	8
2023-09-14T12:00	17679	83	-57.6	-84.9	258	8
2023-09-14T12:00	17705	82	-57.7	-85.0	259	8
2023-09-14T12:00	17729	82	-57.7	-85.0	259	8
2023-09-14T12:00	17752	82	-57.7	-85.4	258	8
2023-09-14T12:00	17781	81	-57.7	-85.4	257	8
2023-09-14T12:00	17802	81	-57.9	-85.5	256	8
2023-09-14T12:00	17826	81	-57.8	-85.5	256	9
2023-09-14T12:00	17850	80	-57.7	-85.4	257	9
2023-09-14T12:00	17871	80	-57.6	-85.3	258	9
2023-09-14T12:00	17897	80	-57.7	-85.4	260	9
2023-09-14T12:00	17920	79	-57.8	-85.5	262	9
2023-09-14T12:00	17944	79	-57.8	-85.5	265	9
2023-09-14T12:00	17965	79	-57.7	-85.4	266	9
2023-09-14T12:00	17992	79	-57.8	-85.5	266	9
2023-09-14T12:00	18013	78	-57.9	-85.5	265	9
2023-09-14T12:00	18034	78	-57.8	-85.5	262	9
2023-09-14T12:00	18061	78	-57.6	-85.3	259	8
2023-09-14T12:00	18083	77	-57.5	-85.2	255	8
2023-09-14T12:00	18109	77	-57.5	-85.2	252	8
2023-09-14T12:00	18129	77	-57.5	-85.2	250	8
2023-09-14T12:00	18150	77	-57.6	-85.3	247	8
2023-09-14T12:00	18176	76	-57.7	-85.4	245	8
2023-09-14T12:00	18198	76	-57.7	-85.4	244	8
2023-09-14T12:00	18220	76	-57.5	-85.2	243	8
2023-09-14T12:00	18241	76	-57.3	-85.5	244	8
2023-09-14T12:00	18267	75	-57.2	-85.4	245	8
2023-09-14T12:00	18288	75	-57.2	-85.4	246	8
2023-09-14T12:00	18311	75	-57.2	-85.4	248	8
2023-09-14T12:00	18330	74	-57.2	-85.4	249	8
2023-09-14T12:00	18353	74	-57.2	-85.4	251	9
2023-09-14T12:00	18377	74	-57.2	-85.4	253	9
2023-09-14T12:00	18399	74	-57.1	-85.3	255	9
2023-09-14T12:00	18424	73	-57.1	-85.3	256	9
2023-09-14T12:00	18444	73	-57.0	-85.2	258	9
2023-09-14T12:00	18467	73	-57.0	-85.2	260	9
2023-09-14T12:00	18494	73	-56.9	-85.2	261	8
2023-09-14T12:00	18519	72	-57.0	-85.2	263	8
2023-09-14T12:00	18540	72	-57.0	-85.2	264	7
2023-09-14T12:00	18560	72	-56.9	-85.2	267	6
2023-09-14T12:00	18585	72	-56.9	-85.2	269	6
2023-09-14T12:00	18608	71	-56.9	-85.2	272	6
2023-09-14T12:00	18634	71	-56.9	-85.2	274	5
2023-09-14T12:00	18656	71	-56.9	-85.2	276	5
2023-09-14T12:00	18683	70	-56.9	-85.2	276	5
2023-09-14T12:00	18704	70	-57.0	-85.2	275	5
2023-09-14T12:00	18724	70	-57.1	-85.3	271	4
2023-09-14T12:00	18752	70	-57.0	-85.2	266	4
2023-09-14T12:00	18775	69	-57.0	-85.2	259	4
2023-09-14T12:00	18796	69	-57.1	-85.3	252	4
2023-09-14T12:00	18823	69	-57.1	-85.3	247	5
2023-09-14T12:00	18847	69	-57.2	-85.4	242	5
2023-09-14T12:00	18869	68	-57.3	-85.5	239	5
2023-09-14T12:00	18894	68	-57.5	-85.2	236	6
2023-09-14T12:00	18918	68	-57.7	-85.4	234	6
2023-09-14T12:00	18943	68	-57.8	-85.5	231	6
2023-09-14T12:00	18973	67	-58.0	-85.6	228	6
2023-09-14T12:00	18994	67	-58.1	-85.7	226	7
2023-09-14T12:00	19019	67	-58.0	-85.6	225	7
2023-09-14T12:00	19043	67	-58.1	-85.7	225	7
2023-09-14T12:00	19068	66	-58.3	-86.2	228	8
2023-09-14T12:00	19092	66	-58.3	-86.2	233	8
2023-09-14T12:00	19121	66	-58.2	-86.2	238	8
2023-09-14T12:00	19141	66	-58.1		245	8
2023-09-14T12:00	19169	65	-58.0	-86.0	250	9
2023-09-14T12:00	19194	65	-57.8	-86.3	255	9
2023-09-14T12:00	19222	65	-57.7	-86.2	258	9
2023-09-14T12:00	19244	64	-57.4	-86.0	260	10
2023-09-14T12:00	19272	64	-57.0	-85.7	262	9
2023-09-14T12:00	19296	64	-57.0	-85.7	263	9
2023-09-14T12:00	19320	64	-57.0	-85.7	263	9
2023-09-14T12:00	19350	63	-57.1	-85.7	263	8
2023-09-14T12:00	19373	63	-57.0	-85.7	263	8
2023-09-14T12:00	19397	63	-56.9	-85.6	264	8
2023-09-14T12:00	19422	63	-56.9	-85.6	266	9
2023-09-14T12:00	19454	62	-56.8	-85.5	268	9
2023-09-14T12:00	19474	62	-56.7	-85.4	271	9
2023-09-14T12:00	19498	62	-56.8	-85.5	272	10
2023-09-14T12:00	19527	62	-56.8	-85.5	274	10
2023-09-14T12:00	19546	61	-56.9	-85.6	274	9
2023-09-14T12:00	19575	61	-56.9	-85.6	273	9
2023-09-14T12:00	19599	61	-56.6	-85.8	272	8
2023-09-14T12:00	19622	61	-56.4	-85.7	271	8
2023-09-14T12:00	19645	60	-56.4	-85.2	269	7
2023-09-14T12:00	19673	60	-56.4	-85.2	267	7
2023-09-14T12:00	19700	60	-56.5	-85.3	265	6
2023-09-14T12:00	19723	60	-56.7	-85.4	263	6
2023-09-14T12:00	19746	60	-56.8	-85.5	262	6
2023-09-14T12:00	19768	59	-56.6	-85.4	263	6
2023-09-14T12:00	19800	59	-56.5	-85.3	264	6
2023-09-14T12:00	19823	59	-56.5	-85.3	267	6
2023-09-14T12:00	19844	59	-56.6	-85.4	270	6
2023-09-14T12:00	19870	58	-56.6	-85.4	272	6
2023-09-14T12:00	19894	58	-56.6	-85.4	274	6
2023-09-14T12:00	19920	58	-56.6	-85.4	274	5
2023-09-14T12:00	19942	58	-56.6	-85.4	272	5
2023-09-14T12:00	19972	57	-56.7	-85.4	267	4
2023-09-14T12:00	19998	57	-56.8	-85.5	259	4
2023-09-14T12:00	20023	57	-56.6	-85.4	250	4
2023-09-14T12:00	20048	57	-56.4	-85.2	242	4
2023-09-14T12:00	20073	57	-56.4	-85.2	236	4
2023-09-14T12:00	20098	56	-56.5	-85.3	234	4
2023-09-14T12:00	20120	56	-56.7	-85.4	234	5
2023-09-14T12:00	20152	56	-56.7	-85.4	236	6
2023-09-14T12:00	20177	56	-56.8	-85.5	240	6
2023-09-14T12:00	20202	55	-56.6	-85.4	245	6
2023-09-14T12:00	20226	55	-56.4	-85.7	250	7
2023-09-14T12:00	20253	55	-56.4	-85.7	257	7
2023-09-14T12:00	20282	55	-56.3	-85.6	263	7
2023-09-14T12:00	20304	55	-56.1	-85.5	269	7
2023-09-14T12:00	20332	54	-55.9	-85.3	274	7
2023-09-14T12:00	20357	54	-55.9	-85.3	277	7
2023-09-14T12:00	20382	54	-55.9	-85.3	278	7
2023-09-14T12:00	20405	54	-55.9	-85.3	278	7
2023-09-14T12:00	20432	53	-55.8	-85.2	276	7
2023-09-14T12:00	20455	53	-55.7	-85.2	274	6
2023-09-14T12:00	20482	53	-55.7	-85.2	272	7
2023-09-14T12:00	20509	53	-55.6	-85.1	271	7
2023-09-14T12:00	20530	53	-55.5	-85.0	270	7
2023-09-14T12:00	20554	52	-55.6	-85.1	270	8
2023-09-14T12:00	20585	52	-55.6	-85.1	271	8
2023-09-14T12:00	20602	52	-55.6	-85.1	273	8
2023-09-14T12:00	20633	52	-55.6	-85.1	276	9
2023-09-14T12:00	20651	52	-55.6	-85.1	279	9
2023-09-14T12:00	20681	51	-55.6	-85.1	283	9
2023-09-14T12:00	20709	51	-55.6	-85.1	286	10
2023-09-14T12:00	20731	51	-55.7	-85.2	290	10
2023-09-14T12:00	20759	51	-55.7	-85.2	294	10
2023-09-14T12:00	20780	51	-55.7	-85.2	299	9
2023-09-14T12:00	20806	50	-55.6	-85.1	303	9
2023-09-14T12:00	20834	50	-55.6	-85.1	309	9
2023-09-14T12:00	20859	50	-55.7	-85.2	314	8
2023-09-14T12:00	20888	50	-55.5	-85.0	320	7
2023-09-14T12:00	20905	50	-55.4	-84.9	326	6
2023-09-14T12:00	20935	49	-55.3	-84.9	332	5
2023-09-14T12:00	20963	49	-55.2	-84.8	340	4
2023-09-14T12:00	20986	49	-55.2	-84.8	348	3
2023-09-14T12:00	21014	49	-55.3	-84.9	358	3
2023-09-14T12:00	21039	49	-55.2	-84.8	12	2
2023-09-14T12:00	21067	48	-55.4	-84.9	32	1
2023-09-14T12:00	21092	48	-55.5	-85.0	65	1
2023-09-14T12:00	21116	48	-55.5	-84.5	104	1
2023-09-14T12:00	21140	48	-55.7	-84.7	133	1
2023-09-14T12:00	21168	48	-56.1	-85.0	152	2
2023-09-14T12:00	21189	47	-56.3	-85.1	166	2
2023-09-14T12:00	21221	47	-56.4	-85.2	179	2
2023-09-14T12:00	21245	47	-56.6	-85.4	189	3
2023-09-14T12:00	21274	47	-56.8	-85.5	198	3
2023-09-14T12:00	21296	47	-56.8	-85.5	207	4
2023-09-14T12:00	21314	47	-56.9	-85.6	213	4
2023-09-14T12:00	21341	46	-56.9	-85.6	219	4
2023-09-14T12:00	21365	46	-56.7	-85.4	222	4
2023-09-14T12:00	21394	46	-56.4	-85.7	224	4
2023-09-14T12:00	21425	46	-56.3	-85.6	225	4
2023-09-14T12:00	21442	46	-56.3	-85.6	226	3
2023-09-14T12:00	21469	45	-56.3	-85.6	229	3
2023-09-14T12:00	21498	45	-56.2	-85.5	234	4
2023-09-14T12:00	21517	45	-56.2	-85.5	240	4
2023-09-14T12:00	21545	45	-56.3	-85.6	247	4
2023-09-14T12:00	21566	45	-56.1	-85.5	252	5
2023-09-14T12:00	21591	45	-56.2	-85.5	258	5
2023-09-14T12:00	21620	44	-56.2	-85.5	262	5
2023-09-14T12:00	21643	44	-56.1	-85.5	266	5
2023-09-14T12:00	21669	44	-56.1	-85.5	268	5
2023-09-14T12:00	21697	44	-56.0		271	4
2023-09-14T12:00	21720	44	-55.8	-85.2	272	3
2023-09-14T12:00	21748	43	-55.7	-85.2	273	3
2023-09-14T12:00	21772	43	-55.7	-85.7	272	2
2023-09-14T12:00	21796	43	-55.5	-85.5	269	2
2023-09-14T12:00	21826	43	-55.4	-85.4	264	2
2023-09-14T12:00	21852	43	-55.3	-85.4	258	2
2023-09-14T12:00	21878	43	-55.3	-85.4	252	2
2023-09-14T12:00	21901	42	-55.3	-85.4	245	2
2023-09-14T12:00	21921	42	-55.3	-84.9	238	2
2023-09-14T12:00	21952	42	-55.3	-84.9	232	2
2023-09-14T12:00	21975	42	-55.3	-84.9	228	2
2023-09-14T12:00	22005	42	-55.4	-84.9	229	1
2023-09-14T12:00	22030	42	-55.4	-84.9	239	1
2023-09-14T12:00	22051	41	-55.2	-84.8	256	1
2023-09-14T12:00	22082	41	-55.1	-84.7	271	1
2023-09-14T12:00	22103	41	-55.2	-84.8	279	2
2023-09-14T12:00	22127	41	-55.3	-84.9	283	2
2023-09-14T12:00	22159	41	-55.5	-85.0	286	3
2023-09-14T12:00	22182	41	-55.6	-85.1	289	3
2023-09-14T12:00	22210	40	-55.8	-85.2	295	3
2023-09-14T12:00	22240	40	-55.9	-85.3	304	2
2023-09-14T12:00	22256	40	-55.9	-85.3	317	2
2023-09-14T12:00	22281	40	-56.0		334	2
2023-09-14T12:00	22315	40	-56.1	-85.5	350	1
2023-09-14T12:00	22342	40	-56.2	-85.5	3	1
2023-09-14T12:00	22367	39	-56.2	-85.5	14	1
2023-09-14T12:00	22388	39	-56.1	-85.5	63	0
2023-09-14T12:00	22414	39	-56.0		191	1
2023-09-14T12:00	22438	39	-56.0		193	1
2023-09-14T12:00	22464	39	-56.0		193	1
2023-09-14T12:00	22496	39	-55.9	-85.3	193	1
2023-09-14T12:00	22520	39	-55.7	-85.2	193	1
2023-09-14T12:00	22548	38	-55.7	-85.2	195	1
2023-09-14T12:00	22571	38	-55.7	-85.2	199	1
2023-09-14T12:00	22592	38	-55.9	-85.3	205	1
2023-09-14T12:00	22619	38	-56.0		212	1
2023-09-14T12:00	22652	38	-56.0		216	1
2023-09-14T12:00	22664	38	-56.0		217	1
2023-09-14T12:00	22701	37	-55.9	-85.3	211	1
2023-09-14T12:00	22724	37	-55.9	-85.3	200	1
2023-09-14T12:00	22751	37	-56.0		191	1
2023-09-14T12:00	22778	37	-56.0		188	2
2023-09-14T12:00	22803	37	-56.1	-85.5	189	2
2023-09-14T12:00	22828	37	-56.0		191	3
2023-09-14T12:00	22853	37	-55.9	-85.3	193	3
2023-09-14T12:00	22885	36	-55.7	-85.7	197	3
2023-09-14T12:00	22903	36	-55.6	-85.6	202	3
2023-09-14T12:00	22932	36	-55.6	-85.6	208	4
2023-09-14T12:00	22954	36	-55.6	-85.6	215	4
2023-09-14T12:00	22974	36	-55.5	-85.5	221	4
2023-09-14T12:00	23010	36	-55.2	-85.3	224	4
2023-09-14T12:00	23028	36	-55.1	-85.2	226	5
2023-09-14T12:00	23064	35	-55.2	-85.3	227	6
2023-09-14T12:00	23087	35	-55.2	-85.3	229	6
2023-09-14T12:00	23121	35	-55.1	-85.2	232	6
2023-09-14T12:00	23143	35	-54.9	-85.1	236	6
2023-09-14T12:00	23166	35	-54.8	-85.0	239	6
2023-09-14T12:00	23191	35	-54.8	-85.0	241	6
2023-09-14T12:00	23218	35	-54.7	-84.9	242	6
2023-09-14T12:00	23253	34	-54.8	-85.0	243	5
2023-09-14T12:00	23268	34	-54.9	-85.1	243	5
2023-09-14T12:00	23295	34	-54.9	-85.1	245	5
2023-09-14T12:00	23329	34	-54.9	-85.1	247	5
2023-09-14T12:00	23358	34	-55.1	-85.2	250	5
2023-09-14T12:00	23382	34	-55.1	-85.2	253	5
2023-09-14T12:00	23404	34	-55.3	-84.9	254	6
2023-09-14T12:00	23434	33	-55.3	-84.9	255	6
2023-09-14T12:00	23463	33	-55.3	-84.9	255	6
2023-09-14T12:00	23491	33	-55.3	-84.9	256	5
2023-09-14T12:00	23521	33	-55.4	-85.4	256	5
2023-09-14T12:00	23546	33	-55.4	-85.4	257	5
2023-09-14T12:00	23569	33	-55.4	-85.4	256	5
2023-09-14T12:00	23609	33	-55.3	-85.4	256	5
2023-09-14T12:00	23629	32	-55.3	-85.4	255	5
2023-09-14T12:00	23647	32	-55.2	-85.3	255	6
2023-09-14T12:00	23686	32	-55.3	-85.4	256	6
2023-09-14T12:00	23714	32	-55.4	-85.4	257	6
2023-09-14T12:00	23733	32	-55.2	-85.3	259	6
2023-09-14T12:00	23769	32	-55.2	-85.3	261	6
2023-09-14T12:00	23788	32	-55.2	-85.3	262	6
2023-09-14T12:00	23822	31	-55.3	-85.4	262	6
2023-09-14T12:00	23848	31	-55.4	-85.4	263	6
2023-09-14T12:00	23879	31	-55.2	-85.3	266	6
2023-09-14T12:00	23902	31	-54.9	-85.1	268	6
2023-09-14T12:00	23935	31	-54.7	-85.5	272	6
2023-09-14T12:00	23959	31	-54.6	-85.4	275	6
2023-09-14T12:00	23979	31	-54.6	-85.4	278	6
2023-09-14T12:00	24012	30	-54.3	-85.2	279	6
2023-09-14T12:00	24032	30	-54.2	-85.1	280	5
2023-09-14T12:00	24074	30	-54.3	-85.2	278	5
2023-09-14T12:00	24090	30	-54.4	-85.2	274	4
2023-09-14T12:00	24122	30	-54.4	-85.2	268	4
2023-09-14T12:00	24152	30	-54.3	-84.6	261	4
2023-09-14T12:00	24183	30	-54.3	-84.6	255	4
2023-09-14T12:00	24201	30	-54.4	-84.7	252	5
2023-09-14T12:00	24236	29	-54.5	-84.8	249	5
2023-09-14T12:00	24270	29	-54.7	-84.9	247	5
2023-09-14T12:00	24292	29	-54.8	-85.0	245	6
2023-09-14T12:00	24322	29	-54.9	-85.1	243	6
2023-09-14T12:00	24346	29	-55.1	-84.7	241	6
2023-09-14T12:00	24367	29	-55.2	-84.8	240	7
2023-09-14T12:00	24398	29	-55.4	-84.9	238	7
2023-09-14T12:00	24428	29	-55.5	-85.0	236	7
2023-09-14T12:00	24453	28	-55.6	-85.1	234	8
2023-09-14T12:00	24480	28	-55.6	-85.1	233	8
2023-09-14T12:00	24515	28	-55.7	-85.2	233	9
2023-09-14T12:00	24539	28	-55.7	-85.2	234	9
2023-09-14T12:00	24565	28	-55.8	-85.2	237	10
2023-09-14T12:00	24595	28	-56.0		241	11
2023-09-14T12:00	24617	28	-56.0	-85.9	245	11
2023-09-14T12:00	24647	28	-55.8	-85.7	249	11
2023-09-14T12:00	24674	27	-55.5	-85.5	252	11
2023-09-14T12:00	24705	27	-55.3	-85.4	256	11
2023-09-14T12:00	24736	27	-55.1	-85.8	259	11
2023-09-14T12:00	24768	27	-55.0	-85.7	261	11
2023-09-14T12:00	24790	27	-54.9	-85.6	262	11
2023-09-14T12:00	24820	27	-54.9	-85.6	262	11
2023-09-14T12:00	24844	27	-54.6	-85.4	262	11
2023-09-14T12:00	24882	27	-54.3	-85.2	263	11
2023-09-14T12:00	24905	27	-54.3	-85.2	263	11
2023-09-14T12:00	24931	26	-54.3	-85.2	265	11
2023-09-14T12:00	24965	26	-54.2	-85.1	267	11
2023-09-14T12:00	24989	26	-54.1	-85.0	270	11
2023-09-14T12:00	25011	26	-54.2	-85.1	273	11
2023-09-14T12:00	25037	26	-54.0	-84.9	277	10
2023-09-14T12:00	25068	26	-53.7	-85.3	281	10
2023-09-14T12:00	25106	26	-53.2	-85.0	284	10
2023-09-14T12:00	25126	26	-52.8	-84.7	286	10
2023-09-14T12:00	25152	26	-52.6	-84.5	288	9
2023-09-14T12:00	25180	25	-52.5	-85.1	289	9
2023-09-14T12:00	25209	25	-52.0	-84.8	289	8
2023-09-14T12:00	25240	25	-51.5	-84.4	289	7
2023-09-14T12:00	25265	25	-51.2	-84.2	289	6
2023-09-14T12:00	25294	25	-50.8	-83.9	290	6
2023-09-14T12:00	25327	25	-50.5	-83.7	292	5
2023-09-14T12:00	25350	25	-50.2	-83.5	295	4
2023-09-14T12:00	25384	25	-50.1	-83.4	299	3
2023-09-14T12:00	25402	25	-50.0	-83.3	301	2
2023-09-14T12:00	25443	24	-50.1	-83.4	299	2
2023-09-14T12:00	25468	24	-50.2	-83.5	285	1
2023-09-14T12:00	25493	24	-50.2	-82.8	250	1
2023-09-14T12:00	25528	24	-50.1	-82.7	222	1
2023-09-14T12:00	25556	24	-50.2	-82.8	211	2
2023-09-14T12:00	25576	24	-50.3	-82.8	209	2
2023-09-14T12:00	25602	24	-50.4	-82.9	210	3
2023-09-14T12:00	25633	24	-50.5	-83.0	213	3
2023-09-14T12:00	25660	24	-50.6	-83.1	216	4
2023-09-14T12:00	25686	24	-50.6	-83.1	219	5
2023-09-14T12:00	25711	23	-50.7	-83.1	221	6
2023-09-14T12:00	25737	23	-50.7	-83.1	223	7
2023-09-14T12:00	25772	23	-50.8	-83.2	225	7
2023-09-14T12:00	25793	23	-50.9	-83.3	228	8
2023-09-14T12:00	25822	23	-50.9	-83.3	230	8
2023-09-14T12:00	25851	23	-50.9	-83.3	233	8
2023-09-14T12:00	25874	23	-50.8	-83.2	237	7
2023-09-14T12:00	25911	23	-50.9	-83.3	241	7
2023-09-14T12:00	25933	23	-50.9	-83.3	247	6
2023-09-14T12:00	25965	23	-50.9	-83.3	253	6
2023-09-14T12:00	25990	22	-50.8	-83.2	261	5
2023-09-14T12:00	26019	22	-50.9	-83.3	270	5
2023-09-14T12:00	26048	22	-51.0	-83.3	277	5
2023-09-14T12:00	26086	22	-51.0	-83.3	281	4
2023-09-14T12:00	26103	22	-50.9	-83.3	284	4
2023-09-14T12:00	26139	22	-50.8	-83.2	283	4
2023-09-14T12:00	26163	22	-50.9	-83.3	280	4
2023-09-14T12:00	26184	22	-50.9	-83.3	273	4
2023-09-14T12:00	26224	22	-50.8	-83.2	264	4
2023-09-14T12:00	26243	22	-50.7	-83.8	256	4
2023-09-14T12:00	26267	21	-50.6	-83.7	249	5
2023-09-14T12:00	26310	21	-50.4	-83.6	244	5
2023-09-14T12:00	26326	21	-50.3	-83.5	241	6
2023-09-14T12:00	26352	21	-50.0	-83.3	240	6
2023-09-14T12:00	26387	21	-49.9	-83.2	240	6
2023-09-14T12:00	26408	21	-49.9	-83.2	240	6
2023-09-14T12:00	26455	21	-49.9	-83.2	242	7
2023-09-14T12:00	26463	21	-49.9	-83.2	243	7
2023-09-14T12:00	26516	21	-49.9	-83.2	244	7
2023-09-14T12:00	26531	21	-50.0	-83.3	245	8
2023-09-14T12:00	26566	21	-50.1	-83.4	245	8
2023-09-14T12:00	26584	20	-50.1	-83.4	246	8
2023-09-14T12:00	26619	20	-50.1	-83.4	246	8
2023-09-14T12:00	26639	20	-50.0	-83.3	247	8
2023-09-14T12:00	26673	20	-49.9	-83.2	248	8
2023-09-14T12:00	26708	20	-49.7	-83.1	250	7
2023-09-14T12:00	26712	20	-49.7	-83.1	251	7
2023-09-14T12:00	26760	20	-49.7	-83.1	251	7
2023-09-14T12:00	26776	20	-49.7	-83.1	249	7
2023-09-14T12:00	26805	20	-49.6	-83.0	246	7
2023-09-14T12:00	26836	20	-49.4	-82.9	242	7
2023-09-14T12:00	26871	20	-49.2	-82.7	239	8
2023-09-14T12:00	26901	20	-49.2	-82.7	237	8
2023-09-14T12:00	26935	19	-49.2	-82.7	236	8
2023-09-14T12:00	26954	19	-49.2	-82.7	237	8
2023-09-14T12:00	26984	19	-49.0	-82.6	240	8
2023-09-14T12:00	27032	19	-48.9	-82.5	243	8
2023-09-14T12:00	27045	19	-48.8	-82.4	245	8
2023-09-14T12:00	27085	19	-48.8	-82.4	246	7
2023-09-14T12:00	27109	19	-48.7	-82.4	245	7
2023-09-14T12:00	27149	19	-48.7	-83.2	243	7
2023-09-14T12:00	27171	19	-48.8	-83.2	240	7
2023-09-14T12:00	27209	19	-48.5	-83.0	236	8
2023-09-14T12:00	27241	19	-48.2	-82.8	234	8
2023-09-14T12:00	27265	18	-47.9	-82.6	231	8
2023-09-14T12:00	27303	18	-48.0	-82.7	228	9
2023-09-14T12:00	27336	18	-48.3	-82.9	224	9
2023-09-14T12:00	27359	18	-48.4	-82.9	220	9
2023-09-14T12:00	27402	18	-48.3	-82.9	216	9
2023-09-14T12:00	27432	18	-48.1	-82.7	213	9
2023-09-14T12:00	27442	18	-47.8	-82.5	212	10
2023-09-14T12:00	27477	18	-47.7	-82.4	212	10
2023-09-14T12:00	27522	18	-47.8	-82.5	214	10
2023-09-14T12:00	27527	18	-47.9	-82.6	216	10
2023-09-14T12:00	27569	18	-47.7	-82.4	218	11
2023-09-14T12:00	27599	18	-47.7	-82.4	220	11
2023-09-14T12:00	27612	18	-47.7	-82.4	223	11
2023-09-14T12:00	27645	17	-47.8	-82.5	226	11
2023-09-14T12:00	27678	17	-47.7	-82.4	229	12
2023-09-14T12:00	27698	17	-47.7	-82.4	233	12
2023-09-14T12:00	27727	17	-47.6	-82.4	236	12
2023-09-14T12:00	27761	17	-47.5	-82.3	240	12
2023-09-14T12:00	27776	17	-47.4	-82.2	243	12
2023-09-14T12:00	27816	17	-47.3	-82.2	247	12
2023-09-14T12:00	27834	17	-47.1	-82.0	250	12
2023-09-14T12:00	27866	17	-46.9	-81.9	253	12
2023-09-14T12:00	27882	17	-46.8	-82.7	256	13
2023-09-14T12:00	27918	17	-46.6	-82.6	259	13
2023-09-14T12:00	27948	17	-46.5	-82.5	261	13
2023-09-14T12:00	27968	17	-46.3	-82.4	264	14
2023-09-14T12:00	27984	17	-45.9	-82.1	266	14
2023-09-14T12:00	28006	17	-45.5	-81.8	268	14
2023-09-14T12:00	28040	16	-45.3	-81.6	270	14
2023-09-14T12:00	28060	16	-45.3	-81.6	271	14
2023-09-14T12:00	28093	16	-45.4	-81.7	273	13
2023-09-14T12:00	28122	16	-45.4	-81.7	274	13
2023-09-14T12:00	28154	16	-45.3	-81.6	275	12
2023-09-14T12:00	28170	16	-45.2	-81.6	277	12
2023-09-14T12:00	28206	16	-45.0	-81.4	278	12
2023-09-14T12:00	28225	16	-45.0	-81.4	280	11
2023-09-14T12:00	28255	16	-44.9	-81.4	281	11
2023-09-14T12:00	28278	16	-44.9	-81.4	282	10
2023-09-14T12:00	28303	16	-44.9	-81.4	281	10
2023-09-14T12:00	28345	16	-44.9	-81.4	280	9
2023-09-14T12:00	28375	16	-44.8	-81.3	279	9
2023-09-14T12:00	28405	16	-44.7	-81.2	279	9
2023-09-14T12:00	28432	16	-44.7	-81.2	281	9
2023-09-14T12:00	28450	15	-44.7	-81.2	283	9
2023-09-14T12:00	28496	15	-44.9	-81.4	286	9
2023-09-14T12:00	28525	15	-45.0	-81.4	288	8
2023-09-14T12:00	28547	15	-45.2	-81.6	291	8
2023-09-14T12:00	28557	15	-45.3	-81.6	292	7
2023-09-14T12:00	28613	15	-45.4	-81.7	293	7
2023-09-14T12:00	28650	15	-45.5	-81.8	293	6
2023-09-14T12:00	28661	15	-45.4	-81.7	291	6
2023-09-14T12:00	28690	15	-45.4	-81.7	287	5
2023-09-14T12:00	28705	15	-45.3	-81.6	281	5
2023-09-14T12:00	28746	15	-45.3	-81.6	273	4
2023-09-14T12:00	28782	15	-45.4	-81.7	265	4
2023-09-14T12:00	28814	15	-45.5	-81.8	258	5
2023-09-14T12:00	28850	15	-45.5	-81.8	254	5
2023-09-14T12:00	28861	15	-45.6	-81.9	250	5
2023-09-14T12:00	28889	14	-45.8	-82.0	247	5
2023-09-14T12:00	28919	14	-45.9	-82.1	244	6
2023-09-14T12:00	28940	14	-45.9	-82.1	241	6
2023-09-14T12:00	28979	14	-45.8	-81.1	238	6
2023-09-14T12:00	29010	14	-46.0	-81.2	236	7
2023-09-14T12:00	29041	14	-46.1	-81.3	234	7
2023-09-14T12:00	29051	14	-46.2	-82.3	233	8
2023-09-14T12:00	29104	14	-46.3	-82.4	232	8
2023-09-14T12:00	29116	14	-46.5	-82.5	232	9
2023-09-14T12:00	29160	14	-46.3	-82.4	232	9
2023-09-14T12:00	29192	14	-46.2	-82.3	232	10
2023-09-14T12:00	29210	14	-46.1	-82.2	232	11
2023-09-14T12:00	29230	14	-46.2	-82.3	234	11
2023-09-14T12:00	29279	14	-46.1	-82.2	235	12
2023-09-14T12:00	29319	14	-45.5	-81.8	242	13
2023-09-14T12:00	29363	14	-45.4	-81.7	246	14
2023-09-14T12:00	29376	13	-45.2	-81.6	250	14
2023-09-14T12:00	29398	13	-45.0	-81.4	254	14
2023-09-14T12:00	29437	13	-44.7	-82.3	256	14
2023-09-14T12:00	29466	13	-44.6	-82.2	257	13
2023-09-14T12:00	29506	13	-44.6	-82.2	258	13
2023-09-14T12:00	29524	13	-44.6	-82.2	257	13
2023-09-14T12:00	29539	13	-44.5	-82.2	256	12
2023-09-14T12:00	29588	13	-44.3	-82.0	256	12
2023-09-14T12:00	29598	13	-44.1	-81.9	255	12
2023-09-14T12:00	29624	13	-43.9	-81.8	255	12
2023-09-14T12:00	29666	13	-43.8	-81.7	254	13
2023-09-14T12:00	29687	13	-43.8	-81.7	254	13
2023-09-14T12:00	29715	13	-43.8	-81.7	254	13
2023-09-14T12:00	29760	13	-43.9	-81.8	254	13
2023-09-14T12:00	29772	13	-43.9	-81.8	255	13
2023-09-14T12:00	29811	13	-44.1	-80.8	256	13
2023-09-14T12:00	29841	13	-44.2	-80.9	257	13
2023-09-14T12:00	29865	13	-44.3	-80.9	259	12
2023-09-14T12:00	29901	12	-44.4	-81.0	261	12
2023-09-14T12:00	29917	12	-44.5	-81.1	264	11
2023-09-14T12:00	29949	12	-44.5	-81.1	266	11
2023-09-14T12:00	29981	12	-44.5	-81.1	267	10
2023-09-14T12:00	30025	12	-44.5	-82.2	267	10
2023-09-14T12:00	30061	12	-44.4	-82.1	267	9
2023-09-14T12:00	30077	12	-44.3	-82.0	266	8
2023-09-14T12:00	30086	12	-44.1	-81.9	265	8
2023-09-14T12:00	30161	12	-43.9	-81.8	265	8
2023-09-14T12:00	30165	12	-43.8	-81.7	266	7
2023-09-14T12:00	30223	12	-43.8	-81.7	269	7
2023-09-14T12:00	30231	12	-43.9	-81.8	272	6
2023-09-14T12:00	30263	12	-44.0	-81.8	276	6
2023-09-14T12:00	30293	12	-44.1	-81.9	279	6
2023-09-14T12:00	30325	12	-44.2	-82.0	281	5
2023-09-14T12:00	30352	12	-44.2	-82.0	280	5
2023-09-14T12:00	30385	12	-44.0	-81.8	278	4
2023-09-14T12:00	30436	12	-43.8	-81.7	272	4
2023-09-14T12:00	30466	11	-43.8	-81.7	267	4
2023-09-14T12:00	30492	11	-44.0	-81.8	262	4
2023-09-14T12:00	30537	11	-44.2	-82.0	255	4
2023-09-14T12:00	30560	11	-44.4	-82.1	247	4
2023-09-14T12:00	30587	11	-44.4	-82.1	239	4
2023-09-14T12:00	30610	11	-44.4	-82.1	234	4
2023-09-14T12:00	30647	11	-44.3	-82.0	230	4
2023-09-14T12:00	30657	11	-44.3	-82.0	228	4
2023-09-14T12:00	30689	11	-44.2	-82.0	226	5
2023-09-14T12:00	30715	11	-44.0	-81.8	224	5
2023-09-14T12:00	30762	11	-44.1	-81.9	222	6
2023-09-14T12:00	30777	11	-44.2	-82.0	221	6
2023-09-14T12:00	30801	11	-44.3	-82.0	220	7
2023-09-14T12:00	30837	11	-44.5	-82.2	221	7
2023-09-14T12:00	30846	11	-44.6	-81.2	222	8
2023-09-14T12:00	30875	11	-44.7	-81.2	223	8
2023-09-14T12:00	30919	11	-44.7	-82.3	224	9
2023-09-14T12:00	30936	11	-44.7	-82.3	224	10
2023-09-14T12:00	30953	11	-44.5	-82.2	223	10
2023-09-14T12:00	30972	11	-44.4	-82.1	222	11
2023-09-14T12:00	31008	11	-44.5	-82.2	223	12
2023-09-14T12:00	31058	11	-44.7	-82.3	224	12
2023-09-14T12:00	31087	10	-44.4	-82.1	227	13
2023-09-14T12:00	31108	10	-44.3	-82.0	229	14
2023-09-14T12:00	31143	10	-44.2	-82.0	230	14
2023-09-14T12:00	31173	10	-44.0	-81.8	231	15
2023-09-14T12:00	31203	10	-43.9	-81.8	232	15
2023-09-14T12:00	31232	10	-43.9	-81.8	234	16
2023-09-14T12:00	31259	10	-43.9	-81.8	236	16
2023-09-14T12:00	31295	10	-43.8	-81.7	240	16
2023-09-14T12:00	31340	10	-43.7	-81.6	241	16
2023-09-14T12:00	31370	10	-43.6	-81.5	243	16
2023-09-14T12:00	31411	10	-43.6	-81.5	244	16
2023-09-14T12:00	31431	10	-43.5	-81.5	245	15
2023-09-14T12:00	31459	10	-43.3	-81.3	247	15
2023-09-14T12:00	31480	10	-43.1	-81.2	248	15
2023-09-14T12:00	31516	10	-42.9	-81.1	249	15
2023-09-14T12:00	31554	10	-42.8	-81.0	249	15
2023-09-14T12:00	31571	10	-42.7	-80.9	249	14
2023-09-14T12:00	31601	10	-42.5	-80.8	247	14
2023-09-14T12:00	31620	10	-42.4	-80.7	246	14
2023-09-14T12:00	31655	10	-42.3	-80.6	246	14
2023-09-14T12:00	31696	10	-42.2	-80.6	247	14
2023-09-14T12:00	31705	10	-42.2	-80.6	249	14
2023-09-14T12:00	31726	9	-42.2	-80.6	252	14
2023-09-14T12:00	31754	9	-42.3	-80.6	255	14
2023-09-14T12:00	31809	9	-42.3	-80.6	259	15
2023-09-14T12:00	31826	9	-42.2	-80.6	262	15
2023-09-14T12:00	31833	9	-42.2	-80.6	265	16
2023-09-14T12:00	31872	9	-42.1	-80.5	268	16
2023-09-14T12:00	31906	9	-42.0	-80.4	271	16
2023-09-14T12:00	31927	9	-41.8	-80.3	273	15
2023-09-14T12:00	31967	9	-41.7	-80.2	274	15
2023-09-14T12:00	31975	9	-41.5	-80.1	274	14
2023-09-14T12:00	32026	9	-41.4	-80.0	273	14
2023-09-14T12:00	32050	9	-41.3	-79.9	270	13
2023-09-14T12:00	32069	9	-41.2	-79.9	267	12
2023-09-14T12:00	32116	9	-41.2	-79.9	264	12
2023-09-14T12:00	32146	9	-41.0	-79.7	261	11
2023-09-14T12:00	32152	9	-40.8	-79.6	257	10
2023-09-14T12:00	32185	9	-40.9	-79.7	254	10
2023-09-14T12:00	32203	9	-40.9	-79.7	252	10
2023-09-14T12:00	32280	9	-40.9	-79.7	250	10
2023-09-14T12:00	32311	9	-40.9	-79.7	250	10
2023-09-14T12:00	32319	9	-40.8	-79.6	251	10
2023-09-14T12:00	32356	9	-40.8	-79.6	251	11
2023-09-14T12:00	32391	9	-40.8	-79.6	252	11
2023-09-14T12:00	32420	9	-40.8	-79.6	251	11
2023-09-14T12:00	32467	9	-40.8	-79.6	249	12
2023-09-14T12:00	32477	8	-40.8	-79.6	246	12
2023-09-14T12:00	32495	8	-40.7	-79.5	244	12
2023-09-14T12:00	32567	8	-40.7	-79.5	243	12
2023-09-14T12:00	32581	8	-40.7	-79.5	242	12
2023-09-14T12:00	32602	8	-40.8	-79.6	242	12
2023-09-14T12:00	32624	8	-40.8	-79.6	242	12
2023-09-14T12:00	32639	8	-40.8	-79.6	242	11
2023-09-14T12:00	32708	8	-40.7	-79.5	242	11
2023-09-14T12:00	32740	8	-40.6	-79.5	239	10
2023-09-14T12:00	32773	8	-40.6	-79.5	236	10
2023-09-14T12:00	32798	8	-40.5	-79.4	234	9
2023-09-14T12:00	32807	8	-40.4	-79.3	232	9
2023-09-14T12:00	32870	8	-40.2	-79.2	232	8
2023-09-14T12:00	32885	8	-40.1	-79.1	232	8
2023-09-14T12:00	32897	8	-40.0	-79.0	231	8
2023-09-14T12:00	32912	8	-40.0	-79.0	228	8
2023-09-14T12:00	32983	8	-39.9	-79.0	223	8
2023-09-14T12:00	33006	8	-39.7	-78.8	218	9
2023-09-14T12:00	33021	8	-39.6	-78.8	213	9
2023-09-14T12:00	33033	8	-39.6	-78.8	211	10
2023-09-14T12:00	33063	8	-39.6	-78.8	211	11
2023-09-14T12:00	33074	8	-39.4	-78.6	212	11
2023-09-14T12:00	33123	8	-39.2	-78.5	214	11
2023-09-14T12:00	33145	8	-39.1	-78.4	217	12
2023-09-14T12:00	33169	8	-39.2	-78.5	220	12
2023-09-14T12:00	33182	8	-39.2	-78.5	222	13
2023-09-14T12:00	33215	8	-39.3	-78.5	224	13
2023-09-14T12:00	33243	8	-39.4	-78.6	226	14
2023-09-14T12:00	33268	8	-39.5	-78.7	227	14
2023-09-14T12:00	33298	8	-39.6	-78.8	230	15
2023-09-14T12:00	33340	7	-39.7	-78.8	233	15
2023-09-14T12:00	33374	7	-39.8	-78.9	236	15
2023-09-14T12:00	33392	7	-39.8	-78.9	240	15
2023-09-14T12:00	33412	7	-39.8	-78.9	243	15
2023-09-14T18:00	116	1009	17.4	9.5	18	2
2023-09-14T18:00	145	1006	17.8	8.2	20	3
2023-09-14T18:00	169	1003	17.8	8.0	18	3
2023-09-14T18:00	192	1000	17.5	7.8	15	4
2023-09-14T18:00	217	997	17.3	7.6	12	4
2023-09-14T18:00	240	994	17.1	7.6	10	4
2023-09-14T18:00	265	991	16.9	7.6	9	4
2023-09-14T18:00	288	989	16.7	7.6	10	3
2023-09-14T18:00	311	986	16.4	7.5	9	3
2023-09-14T18:00	334	983	16.2	7.9	6	3
2023-09-14T18:00	356	981	16.0	7.6	360	2
2023-09-14T18:00	377	978	15.8	7.6	354	2
2023-09-14T18:00	400	976	15.6	7.6	354	2
2023-09-14T18:00	417	974	15.4	7.4	358	2
2023-09-14T18:00	441	971	15.2	7.4	6	2
2023-09-14T18:00	462	969	15.0	7.3	12	2
2023-09-14T18:00	478	967	14.9	7.3	15	2
2023-09-14T18:00	502	964	14.7	7.2	10	2
2023-09-14T18:00	524	962	14.4	7.0	357	2
2023-09-14T18:00	538	960	14.3	6.9	337	2
2023-09-14T18:00	557	958	14.2	6.9	323	2
2023-09-14T18:00	580	955	13.9	7.0	318	2
2023-09-14T18:00	604	953	13.7	6.7	317	2
2023-09-14T18:00	622	950	13.6	7.0	318	2
2023-09-14T18:00	640	948	13.4	6.9	320	2
2023-09-14T18:00	658	946	13.2	6.8	323	2
2023-09-14T18:00	679	944	13.0	6.7	327	3
2023-09-14T18:00	701	942	12.8	6.7	332	3
2023-09-14T18:00	724	939	12.6	6.8	338	2
2023-09-14T18:00	752	936	12.3	6.6	343	2
2023-09-14T18:00	774	933	12.1	6.7	346	2
2023-09-14T18:00	797	931	11.9	6.6	346	2
2023-09-14T18:00	820	928	11.7	6.5	343	2
2023-09-14T18:00	840	926	11.5	6.5	339	2
2023-09-14T18:00	859	924	11.3	6.5	336	2
2023-09-14T18:00	878	922	11.1	6.4	336	2
2023-09-14T18:00	897	920	10.9	6.4	340	2
2023-09-14T18:00	926	917	10.6	6.3	349	2
2023-09-14T18:00	947	914	10.4	6.3	358	2
2023-09-14T18:00	963	912	10.3	6.3	359	1
2023-09-14T18:00	988	910	10.1	6.3	341	1
2023-09-14T18:00	1011	907	9.8	6.2	314	1
2023-09-14T18:00	1035	905	9.6	6.1	305	2
2023-09-14T18:00	1057	902	9.4	6.1	308	2
2023-09-14T18:00	1079	900	9.2	6.1	318	2
2023-09-14T18:00	1102	898	9.0	6.2	331	2
2023-09-14T18:00	1122	895	8.8	6.1	342	2
2023-09-14T18:00	1140	893	8.6	6.1	347	2
2023-09-14T18:00	1163	891	8.3	5.9	346	2
2023-09-14T18:00	1185	889	8.1	5.9	341	2
2023-09-14T18:00	1204	886	8.0	6.0	335	3
2023-09-14T18:00	1225	884	7.8	6.0	331	3
2023-09-14T18:00	1250	881	7.5	5.9	331	2
2023-09-14T18:00	1279	879	7.3	5.7	332	2
2023-09-14T18:00	1303	876	7.1	5.6	334	2
2023-09-14T18:00	1323	874	7.0	5.1	332	2
2023-09-14T18:00	1348	871	6.8	4.7	325	2
2023-09-14T18:00	1369	869	6.8	3.8	316	2
2023-09-14T18:00	1391	867	6.9	2.8	310	2
2023-09-14T18:00	1409	864	6.9	2.2	308	2
2023-09-14T18:00	1436	862	7.3	-2.3	312	2
2023-09-14T18:00	1461	859	8.2	-7.9	320	2
2023-09-14T18:00	1482	857	8.6	-7.5	328	2
2023-09-14T18:00	1502	855	8.5	-7.7	335	2
2023-09-14T18:00	1519	853	8.4	-7.9	341	2
2023-09-14T18:00	1541	851	8.4	-8.4	347	2
2023-09-14T18:00	1563	849	8.3	-9.8	355	1
2023-09-14T18:00	1579	847	8.3	-10.6	3	1
2023-09-14T18:00	1596	845	8.3	-11.2	10	1
2023-09-14T18:00	1618	843	8.2	-11.4	13	2
2023-09-14T18:00	1642	841	8.5	-12.6	15	2
2023-09-14T18:00	1660	839	8.6	-15.9	15	3
2023-09-14T18:00	1685	836	8.6	-19.6	11	3
2023-09-14T18:00	1706	834	8.5	-20.9	4	3
2023-09-14T18:00	1733	831	8.8	-32.4	355	3
2023-09-14T18:00	1756	829	8.7	-32.1	347	3
2023-09-14T18:00	1783	826	8.6	-32.9	342	4
2023-09-14T18:00	1809	824	8.5	-34.2	341	4
2023-09-14T18:00	1831	822	8.5	-33.8	340	4
2023-09-14T18:00	1844	820	8.4	-31.0	338	4
2023-09-14T18:00	1867	818	8.3	-21.8	336	4
2023-09-14T18:00	1895	815	8.1	-6.0	334	5
2023-09-14T18:00	1915	813	8.0	-4.5	333	5
2023-09-14T18:00	1935	811	7.8	-3.5	332	5
2023-09-14T18:00	1954	809	7.6	-2.3	332	5
2023-09-14T18:00	1978	807	7.5	-2.3	331	5
2023-09-14T18:00	1996	805	7.4	-1.8	327	5
2023-09-14T18:00	2021	803	7.3	-2.2	321	4
2023-09-14T18:00	2045	801	7.3		313	4
2023-09-14T18:00	2060	799	7.2	-3.0	307	5
2023-09-14T18:00	2081	797	7.1	-3.4	302	5
2023-09-14T18:00	2104	795	7.0	-4.1	299	5
2023-09-14T18:00	2125	793	7.0	-5.3	296	6
2023-09-14T18:00	2146	791	6.8	-4.9	295	5
2023-09-14T18:00	2174	788	6.6	-4.4	294	5
2023-09-14T18:00	2195	786	6.4	-4.5	295	4
2023-09-14T18:00	2217	784	6.3	-4.2	297	4
2023-09-14T18:00	2234	782	6.2	-4.4	299	4
2023-09-14T18:00	2258	780	6.0	-4.6	300	4
2023-09-14T18:00	2274	778	5.9	-4.5	298	4
2023-09-14T18:00	2296	776	5.9	-5.0	293	3
2023-09-14T18:00	2320	774	5.9	-5.8	283	3
2023-09-14T18:00	2342	772	5.9	-8.7	270	3
2023-09-14T18:00	2362	770	6.1	-8.5	257	3
2023-09-14T18:00	2385	768	6.0	-8.3	247	3
2023-09-14T18:00	2407	766	6.0	-8.2	243	3
2023-09-14T18:00	2428	764	5.9	-9.1	242	3
2023-09-14T18:00	2452	762	5.8	-9.8	244	3
2023-09-14T18:00	2471	760	5.9	-11.2	246	3
2023-09-14T18:00	2495	758	5.9	-12.1	248	2
2023-09-14T18:00	2523	755	5.7	-11.9	247	2
2023-09-14T18:00	2544	753	5.6	-11.5	242	1
2023-09-14T18:00	2562	751	5.5	-11.7	220	1
2023-09-14T18:00	2586	749	5.4	-12.8	186	1
2023-09-14T18:00	2614	747	5.4	-14.2	178	1
2023-09-14T18:00	2637	745	5.4	-14.5	190	1
2023-09-14T18:00	2659	743	5.3	-14.9	214	1
2023-09-14T18:00	2682	741	5.2	-15.4	241	1
2023-09-14T18:00	2702	739	5.0	-15.6	260	1
2023-09-14T18:00	2725	737	4.9	-15.9	272	2
2023-09-14T18:00	2745	735	4.8	-16.1	281	2
2023-09-14T18:00	2763	733	4.7		291	2
2023-09-14T18:00	2781	732	4.6	-16.9	301	3
2023-09-14T18:00	2800	730	4.4	-17.2	312	3
2023-09-14T18:00	2824	728	4.3	-18.0	321	3
2023-09-14T18:00	2844	726	4.3	-19.3	328	3
2023-09-14T18:00	2867	724	4.2	-18.9	332	3
2023-09-14T18:00	2883	722	4.2	-18.8	333	3
2023-09-14T18:00	2904	721	4.0	-19.1	334	3
2023-09-14T18:00	2925	719	4.0	-19.4	335	3
2023-09-14T18:00	2951	717	3.9	-19.8	336	4
2023-09-14T18:00	2970	715	3.9	-20.8	338	4
2023-09-14T18:00	2990	713	4.2	-27.3	340	4
2023-09-14T18:00	3017	711	4.1	-29.1	344	3
2023-09-14T18:00	3041	709	4.1	-38.8	349	3
2023-09-14T18:00	3066	706	4.2	-39.2	354	4
2023-09-14T18:00	3094	704	4.1	-39.3	357	4
2023-09-14T18:00	3118	702	4.1	-39.3	357	4
2023-09-14T18:00	3148	699	4.1	-38.8	354	4
2023-09-14T18:00	3171	697	4.0	-37.0	350	4
2023-09-14T18:00	3192	695	3.9	-28.7	346	4
2023-09-14T18:00	3213	694	3.8	-23.8	342	4
2023-09-14T18:00	3231	692	3.7	-20.8	340	4
2023-09-14T18:00	3251	690	3.6	-20.7	339	4
2023-09-14T18:00	3278	688	3.5	-19.1	340	4
2023-09-14T18:00	3306	686	3.3	-17.5	342	4
2023-09-14T18:00	3324	684	3.3	-18.0	347	5
2023-09-14T18:00	3347	682	3.1	-17.5	353	5
2023-09-14T18:00	3370	680	3.0	-17.7	357	6
2023-09-14T18:00	3396	678	2.9	-17.4	358	6
2023-09-14T18:00	3421	676	2.6	-17.2	356	6
2023-09-14T18:00	3452	674	2.4	-15.6	351	6
2023-09-14T18:00	3477	671	2.3	-16.5	344	6
2023-09-14T18:00	3500	670	2.2	-17.9	338	6
2023-09-14T18:00	3525	668	2.2	-19.0	333	7
2023-09-14T18:00	3543	666	2.1	-18.7	330	7
2023-09-14T18:00	3572	664	2.1	-20.2	329	6
2023-09-14T18:00	3597	662	2.1	-18.0	328	6
2023-09-14T18:00	3615	660	2.0	-16.1	328	6
2023-09-14T18:00	3633	659	1.9	-15.1	329	6
2023-09-14T18:00	3652	657	1.8	-16.1	328	5
2023-09-14T18:00	3673	655	1.7	-16.9	327	5
2023-09-14T18:00	3693	654	1.6	-18.9	325	4
2023-09-14T18:00	3716	652	1.5	-19.5	322	4
2023-09-14T18:00	3742	650	1.3	-18.7	319	4
2023-09-14T18:00	3768	648	1.2		318	4
2023-09-14T18:00	3792	646	1.1	-24.8	319	4
2023-09-14T18:00	3815	644	1.0	-21.0	321	4
2023-09-14T18:00	3836	642	0.9	-19.4	322	5
2023-09-14T18:00	3867	640	0.7	-18.1	321	6
2023-09-14T18:00	3889	638	0.5	-15.3	320	6
2023-09-14T18:00	3911	636	0.3	-14.7	318	6
2023-09-14T18:00	3931	635	0.2	-11.8	316	6
2023-09-14T18:00	3950	633	0.0	-11.4	314	6
2023-09-14T18:00	3974	631	-0.1	-11.7	313	6
2023-09-14T18:00	4004	629	-0.4	-12.3	311	6
2023-09-14T18:00	4022	627	-0.5	-12.4	309	6
2023-09-14T18:00	4041	626	-0.7	-11.9	307	6
2023-09-14T18:00	4062	624	-0.8	-14.4	305	6
2023-09-14T18:00	4084	622	-0.8	-16.1	304	6
2023-09-14T18:00	4115	620	-1.0	-16.4	303	6
2023-09-14T18:00	4138	618	-1.1	-16.6	304	6
2023-09-14T18:00	4157	617	-1.3	-16.8	306	6
2023-09-14T18:00	4175	615	-1.5	-16.8	307	7
2023-09-14T18:00	4196	614	-1.6	-16.8	307	7
2023-09-14T18:00	4223	612	-1.8	-16.7	304	6
2023-09-14T18:00	4253	610	-2.1	-15.9	301	6
2023-09-14T18:00	4278	608	-2.3	-17.1	297	6
2023-09-14T18:00	4297	606	-2.4	-14.7	295	6
2023-09-14T18:00	4314	605	-2.6	-14.1	295	6
2023-09-14T18:00	4335	603	-2.8	-14.2	298	5
2023-09-14T18:00	4361	601	-2.9	-14.9	302	5
2023-09-14T18:00	4385	599	-3.1	-15.1	305	5
2023-09-14T18:00	4407	598	-3.3	-15.7	306	5
2023-09-14T18:00	4433	596	-3.5	-15.8	305	5
2023-09-14T18:00	4452	594	-3.7	-16.0	303	5
2023-09-14T18:00	4470	593	-3.8	-16.2	301	5
2023-09-14T18:00	4489	592	-4.0	-16.4	299	5
2023-09-14T18:00	4506	590	-4.1	-16.4	298	5
2023-09-14T18:00	4528	589	-4.3	-16.4	298	5
2023-09-14T18:00	4552	587	-4.5	-16.4	298	5
2023-09-14T18:00	4577	585	-4.7	-17.0	298	4
2023-09-14T18:00	4605	583	-4.9	-17.3	299	4
2023-09-14T18:00	4622	582	-5.1	-17.3	301	5
2023-09-14T18:00	4642	580	-5.2	-17.5	306	5
2023-09-14T18:00	4660	579	-5.4	-17.9	311	5
2023-09-14T18:00	4684	577	-5.6	-18.5	316	5
2023-09-14T18:00	4708	575	-5.8	-19.3	318	5
2023-09-14T18:00	4727	574	-5.9	-19.9	317	5
2023-09-14T18:00	4748	572	-6.1	-20.0	314	5
2023-09-14T18:00	4776	570	-6.3	-19.9	309	5
2023-09-14T18:00	4799	569	-6.5	-18.6	306	5
2023-09-14T18:00	4825	567	-6.7	-13.5	304	5
2023-09-14T18:00	4850	565	-7.0	-13.9	303	5
2023-09-14T18:00	4882	563	-7.3	-13.9	303	5
2023-09-14T18:00	4901	561	-7.4	-14.3	303	6
2023-09-14T18:00	4916	560	-7.5	-14.3	303	5
2023-09-14T18:00	4935	559	-7.7	-13.7	303	5
2023-09-14T18:00	4957	557	-7.9	-13.6	305	5
2023-09-14T18:00	4988	555	-8.1	-13.8	308	5
2023-09-14T18:00	5014	553	-8.3	-13.9	312	4
2023-09-14T18:00	5035	552	-8.4	-14.5	317	4
2023-09-14T18:00	5054	550	-8.5	-15.0	321	4
2023-09-14T18:00	5073	549	-8.5	-15.3	323	4
2023-09-14T18:00	5091	548	-8.4	-16.0	323	5
2023-09-14T18:00	5109	546	-8.5	-16.2	322	5
2023-09-14T18:00	5134	545	-8.6	-16.8	321	5
2023-09-14T18:00	5163	543	-8.6	-17.5	318	6
2023-09-14T18:00	5182	541	-8.7	-17.7	315	6
2023-09-14T18:00	5201	540	-8.7	-18.1	311	6
2023-09-14T18:00	5222	538	-8.7	-18.8	306	6
2023-09-14T18:00	5247	537	-8.7	-19.9	302	6
2023-09-14T18:00	5272	535	-8.6	-20.9	298	6
2023-09-14T18:00	5305	533	-8.8	-21.1	297	7
2023-09-14T18:00	5325	531	-9.0	-21.4	296	7
2023-09-14T18:00	5345	530	-9.1	-21.5	296	7
2023-09-14T18:00	5366	529	-9.3	-21.9	297	7
2023-09-14T18:00	5385	527	-9.3	-22.8	297	6
2023-09-14T18:00	5412	525	-9.4	-22.8	296	6
2023-09-14T18:00	5438	524	-9.4	-23.4	295	6
2023-09-14T18:00	5463	522	-9.4	-23.6	293	5
2023-09-14T18:00	5485	521	-9.6	-23.8	293	5
2023-09-14T18:00	5508	519	-9.7	-23.9	295	5
2023-09-14T18:00	5528	518	-9.8	-24.2	298	5
2023-09-14T18:00	5554	516	-10.0	-24.0	301	5
2023-09-14T18:00	5585	514	-10.2	-23.5	303	5
2023-09-14T18:00	5610	512	-10.4	-23.6	303	5
2023-09-14T18:00	5631	511	-10.6	-23.7	301	5
2023-09-14T18:00	5651	509	-10.7	-24.3	299	5
2023-09-14T18:00	5673	508	-10.9	-24.6	296	5
2023-09-14T18:00	5700	506	-11.2	-24.8	295	5
2023-09-14T18:00	5722	505	-11.3	-24.8	294	5
2023-09-14T18:00	5743	503	-11.5	-24.8	295	5
2023-09-14T18:00	5771	502	-11.7	-24.7	295	6
2023-09-14T18:00	5801	500	-11.9	-24.9	295	6
2023-09-14T18:00	5828	498	-12.2	-25.0	295	6
2023-09-14T18:00	5855	496	-12.4	-25.0	295	6
2023-09-14T18:00	5883	494	-12.7	-25.1	294	6
2023-09-14T18:00	5915	492	-13.0	-25.2	293	6
2023-09-14T18:00	5948	490	-13.3	-25.3	292	7
2023-09-14T18:00	5979	488	-13.5	-25.4	291	7
2023-09-14T18:00	6012	486	-13.8	-25.7	290	7
2023-09-14T18:00	6040	484	-14.0	-25.8	290	7
2023-09-14T18:00	6067	483	-14.2	-25.7	290	7
2023-09-14T18:00	6089	481	-14.4	-25.8	290	7
2023-09-14T18:00	6111	480	-14.6	-26.0	291	8
2023-09-14T18:00	6134	478	-14.6	-26.4	291	8
2023-09-14T18:00	6156	477	-14.8	-26.2	291	8
2023-09-14T18:00	6184	475	-15.0	-25.5	291	8
2023-09-14T18:00	6211	473	-15.2	-25.4	291	8
2023-09-14T18:00	6243	471	-15.4	-25.7	291	8
2023-09-14T18:00	6273	470	-15.6	-25.7	293	8
2023-09-14T18:00	6300	468	-15.8	-26.0	295	8
2023-09-14T18:00	6322	466	-16.0	-26.3	297	8
2023-09-14T18:00	6353	464	-16.2	-26.4	297	9
2023-09-14T18:00	6388	462	-16.4	-26.9	297	9
2023-09-14T18:00	6416	461	-16.7	-27.7	295	9
2023-09-14T18:00	6436	459	-16.8	-27.9	294	9
2023-09-14T18:00	6456	458	-17.0	-28.8	293	10
2023-09-14T18:00	6478	457	-17.2	-29.5	292	10
2023-09-14T18:00	6501	455	-17.3	-30.6	291	10
2023-09-14T18:00	6526	454	-17.5	-31.0	290	10
2023-09-14T18:00	6553	452	-17.7	-31.5	288	10
2023-09-14T18:00	6577	451	-17.9	-31.7	287	10
2023-09-14T18:00	6608	449	-18.2	-31.7	285	9
2023-09-14T18:00	6643	447	-18.3	-32.3	284	9
2023-09-14T18:00	6666	445	-18.5	-32.3	283	8
2023-09-14T18:00	6696	444	-18.8	-32.3	280	8
2023-09-14T18:00	6726	442	-19.1	-32.4	277	7
2023-09-14T18:00	6748	441	-19.3	-32.4	274	7
2023-09-14T18:00	6772	439	-19.5	-32.0	273	7
2023-09-14T18:00	6795	438	-19.8	-31.7	274	7
2023-09-14T18:00	6813	437	-20.0	-31.8	276	7
2023-09-14T18:00	6836	435	-20.2	-31.9	279	8
2023-09-14T18:00	6864	434	-20.4	-31.9	281	8
2023-09-14T18:00	6891	432	-20.7	-32.0	282	8
2023-09-14T18:00	6911	431	-20.9	-32.0	282	8
2023-09-14T18:00	6931	430	-21.1	-32.1	280	8
2023-09-14T18:00	6953	429	-21.3	-32.0	278	8
2023-09-14T18:00	6976	427	-21.5	-32.1	276	8
2023-09-14T18:00	7006	426	-21.8	-32.1	274	8
2023-09-14T18:00	7030	424	-22.0	-32.2	272	8
2023-09-14T18:00	7055	423	-22.3	-32.2	272	8
2023-09-14T18:00	7083	421	-22.5	-31.9	272	8
2023-09-14T18:00	7101	420	-22.7	-32.0	273	8
2023-09-14T18:00	7122	419	-22.9	-31.7	275	8
2023-09-14T18:00	7145	418	-23.1	-31.7	276	8
2023-09-14T18:00	7166	416	-23.3	-32.0	278	9
2023-09-14T18:00	7189	415	-23.5	-32.1	278	9
2023-09-14T18:00	7215	414	-23.7	-32.2	278	9
2023-09-14T18:00	7240	412	-23.9	-32.3	278	9
2023-09-14T18:00	7266	411	-24.2	-32.5	278	9
2023-09-14T18:00	7292	409	-24.4	-32.6	278	10
2023-09-14T18:00	7320	408	-24.7	-33.0	279	10
2023-09-14T18:00	7344	406	-24.9	-33.2	280	11
2023-09-14T18:00	7371	405	-25.1	-33.4	281	11
2023-09-14T18:00	7402	403	-25.4	-34.0	283	10
2023-09-14T18:00	7427	402	-25.6	-34.2	285	10
2023-09-14T18:00	7452	400	-25.8	-33.7	287	10
2023-09-14T18:00	7477	399	-26.1	-33.4	288	10
2023-09-14T18:00	7506	397	-26.3	-33.3	288	9
2023-09-14T18:00	7528	396	-26.5	-31.9	287	9
2023-09-14T18:00	7551	395	-26.7	-31.0	286	9
2023-09-14T18:00	7579	393	-26.8	-32.1	285	9
2023-09-14T18:00	7610	392	-26.9		284	9
2023-09-14T18:00	7638	390	-27.2	-33.1	283	9
2023-09-14T18:00	7667	389	-27.4	-33.0	282	9
2023-09-14T18:00	7695	387	-27.6	-33.5	280	9
2023-09-14T18:00	7722	386	-27.7	-34.1	279	9
2023-09-14T18:00	7743	384	-27.8	-35.4	278	9
2023-09-14T18:00	7764	383	-27.9	-36.4	278	9
2023-09-14T18:00	7785	382	-28.1	-36.4	278	9
2023-09-14T18:00	7804	381	-28.3	-36.1	280	9
2023-09-14T18:00	7824	380	-28.4	-35.3	281	9
2023-09-14T18:00	7843	379	-28.6	-35.6	282	9
2023-09-14T18:00	7870	378	-28.8	-35.9	284	10
2023-09-14T18:00	7903	376	-29.1	-36.3	285	10
2023-09-14T18:00	7926	375	-29.2	-36.8	286	10
2023-09-14T18:00	7944	374	-29.3	-36.9	287	10
2023-09-14T18:00	7965	373	-29.5	-37.1	287	10
2023-09-14T18:00	7986	372	-29.6	-37.9	288	10
2023-09-14T18:00	8011	370	-29.8	-39.3	288	10
2023-09-14T18:00	8038	369	-29.9	-39.4	288	10
2023-09-14T18:00	8066	368	-30.2	-39.6	288	10
2023-09-14T18:00	8090	366	-30.4	-39.5	289	10
2023-09-14T18:00	8117	365	-30.7	-39.8	289	9
2023-09-14T18:00	8148	363	-30.9	-39.6	289	9
2023-09-14T18:00	8173	362	-31.2	-39.6	289	9
2023-09-14T18:00	8203	360	-31.4	-39.6	290	10
2023-09-14T18:00	8233	359	-31.6	-40.0	291	10
2023-09-14T18:00	8259	358	-31.9	-40.7	292	10
2023-09-14T18:00	8284	356	-32.0	-40.9	293	10
2023-09-14T18:00	8307	355	-32.1	-40.9	294	10
2023-09-14T18:00	8333	354	-32.3	-41.1	294	10
2023-09-14T18:00	8364	352	-32.6	-41.6	293	10
2023-09-14T18:00	8391	351	-32.8	-42.0	292	10
2023-09-14T18:00	8415	350	-33.0	-42.3	291	10
2023-09-14T18:00	8440	349	-33.2	-42.2	291	10
2023-09-14T18:00	8459	348	-33.4	-42.3	290	10
2023-09-14T18:00	8479	347	-33.6	-42.7	290	10
2023-09-14T18:00	8500	346	-33.8	-43.6	289	10
2023-09-14T18:00	8523	344	-33.9	-44.6	289	10
2023-09-14T18:00	8546	343	-34.2	-44.7	289	10
2023-09-14T18:00	8570	342	-34.4	-45.1	288	10
2023-09-14T18:00	8596	341	-34.6	-44.9	288	10
2023-09-14T18:00	8621	340	-34.9	-45.1	287	10
2023-09-14T18:00	8646	338	-35.1	-45.1	286	10
2023-09-14T18:00	8670	337	-35.3	-45.2	285	10
2023-09-14T18:00	8691	336	-35.5	-45.3	283	10
2023-09-14T18:00	8716	335	-35.8	-46.1	281	10
2023-09-14T18:00	8741	334	-35.9	-46.2	280	9
2023-09-14T18:00	8766	333	-36.1	-46.3	279	9
2023-09-14T18:00	8795	331	-36.3	-47.0	278	9
2023-09-14T18:00	8822	330	-36.4	-47.4	278	8
2023-09-14T18:00	8845	329	-36.6	-47.2	278	8
2023-09-14T18:00	8867	328	-36.8	-47.0	277	8
2023-09-14T18:00	8886	327	-37.0	-47.1	277	8
2023-09-14T18:00	8908	326	-37.2	-47.2	276	8
2023-09-14T18:00	8929	325	-37.4	-47.2	276	8
2023-09-14T18:00	8953	324	-37.6	-47.2	276	8
2023-09-14T18:00	8976	323	-37.8	-47.4	277	8
2023-09-14T18:00	8999	322	-38.0	-47.4	276	8
2023-09-14T18:00	9020	321	-38.2	-47.4	276	8
2023-09-14T18:00	9042	320	-38.5	-47.5	275	7
2023-09-14T18:00	9067	318	-38.7	-47.5	274	7
2023-09-14T18:00	9092	317	-38.9	-47.5	273	7
2023-09-14T18:00	9113	316	-39.1	-47.7	273	6
2023-09-14T18:00	9132	315	-39.3	-47.8	273	6
2023-09-14T18:00	9156	314	-39.5	-48.2	273	6
2023-09-14T18:00	9174	314	-39.6	-48.4	273	6
2023-09-14T18:00	9194	313	-39.8	-48.5	273	6
2023-09-14T18:00	9214	312	-40.0	-48.6	274	6
2023-09-14T18:00	9232	311	-40.1	-48.7	275	6
2023-09-14T18:00	9260	310	-40.3	-49.0	278	6
2023-09-14T18:00	9286	308	-40.6	-49.3	282	5
2023-09-14T18:00	9314	307	-40.8	-49.2	286	5
2023-09-14T18:00	9342	306	-41.1	-49.1	290	5
2023-09-14T18:00	9372	305	-41.4		293	5
2023-09-14T18:00	9396	303	-41.5	-49.9	296	5
2023-09-14T18:00	9416	303	-41.7	-50.2	297	5
2023-09-14T18:00	9439	302	-41.9	-50.5	298	5
2023-09-14T18:00	9460	301	-42.1	-51.2	299	5
2023-09-14T18:00	9482	300	-42.2	-51.1	301	5
2023-09-14T18:00	9504	299	-42.4	-51.0	302	5
2023-09-14T18:00	9526	298	-42.6	-51.6	304	5
2023-09-14T18:00	9548	297	-42.8	-52.1	306	5
2023-09-14T18:00	9570	296	-42.9	-52.9	308	5
2023-09-14T18:00	9591	295	-43.1	-53.1	310	5
2023-09-14T18:00	9616	294	-43.2	-53.2	311	5
2023-09-14T18:00	9643	293	-43.4	-53.5	312	5
2023-09-14T18:00	9664	292	-43.6	-53.6	313	5
2023-09-14T18:00	9689	291	-43.8	-53.6	313	5
2023-09-14T18:00	9709	290	-44.0	-54.1	314	5
2023-09-14T18:00	9732	289	-44.2	-54.6	315	5
2023-09-14T18:00	9759	288	-44.4	-54.9	316	5
2023-09-14T18:00	9786	286	-44.6	-55.1	317	5
2023-09-14T18:00	9809	285	-44.8	-55.2	319	6
2023-09-14T18:00	9832	284	-45.0	-55.5	319	6
2023-09-14T18:00	9854	284	-45.2	-55.6	320	6
2023-09-14T18:00	9872	283	-45.4	-55.9	320	6
2023-09-14T18:00	9894	282	-45.5	-56.4	320	6
2023-09-14T18:00	9915	281	-45.7	-56.6	321	6
2023-09-14T18:00	9935	280	-45.9	-56.8	321	7
2023-09-14T18:00	9954	279	-46.1	-56.8	321	7
2023-09-14T18:00	9972	279	-46.3	-56.8	321	7
2023-09-14T18:00	9990	278	-46.4	-57.0	322	7
2023-09-14T18:00	10010	277	-46.6	-57.1	323	7
2023-09-14T18:00	10027	276	-46.8	-57.0	324	7
2023-09-14T18:00	10046	275	-47.0	-57.3	324	7
2023-09-14T18:00	10065	275	-47.1	-57.3	324	8
2023-09-14T18:00	10084	274	-47.3	-57.6	324	8
2023-09-14T18:00	10103	273	-47.4	-58.3	323	8
2023-09-14T18:00	10124	272	-47.6	-58.3	324	8
2023-09-14T18:00	10142	271	-47.8	-58.3	324	8
2023-09-14T18:00	10162	271	-48.0	-58.3	324	8
2023-09-14T18:00	10183	270	-48.1	-58.3	325	8
2023-09-14T18:00	10200	269	-48.3	-58.4	325	8
2023-09-14T18:00	10220	268	-48.5	-58.4	324	8
2023-09-14T18:00	10239	267	-48.7	-58.5	324	8
2023-09-14T18:00	10259	267	-48.8	-58.6	324	8
2023-09-14T18:00	10280	266	-49.0	-58.8	324	8
2023-09-14T18:00	10299	265	-49.2	-58.8	324	8
2023-09-14T18:00	10319	264	-49.4	-58.7	325	8
2023-09-14T18:00	10339	263	-49.6	-58.9	325	8
2023-09-14T18:00	10361	263	-49.7	-59.3	325	9
2023-09-14T18:00	10381	262	-49.9	-59.5	325	9
2023-09-14T18:00	10399	261	-50.1	-59.5	325	9
2023-09-14T18:00	10418	260	-50.3	-59.5	325	9
2023-09-14T18:00	10437	260	-50.4	-59.4	325	9
2023-09-14T18:00	10457	259	-50.6	-59.5	326	9
2023-09-14T18:00	10476	258	-50.8		326	9
2023-09-14T18:00	10494	257	-51.0	-59.6	327	8
2023-09-14T18:00	10514	256	-51.1	-59.5	327	8
2023-09-14T18:00	10534	256	-51.3	-59.6	327	8
2023-09-14T18:00	10553	255	-51.5	-59.6	326	8
2023-09-14T18:00	10573	254	-51.7	-59.3	326	9
2023-09-14T18:00	10592	253	-51.8		325	9
2023-09-14T18:00	10612	253	-52.0	-59.0	324	9
2023-09-14T18:00	10630	252	-52.1	-59.3	323	9
2023-09-14T18:00	10650	251	-52.2	-59.7	322	9
2023-09-14T18:00	10674	250	-52.3	-59.8	320	8
2023-09-14T18:00	10695	249	-52.5	-59.9	318	8
2023-09-14T18:00	10717	249	-52.7	-60.1	315	8
2023-09-14T18:00	10743	248	-52.9	-60.6	312	8
2023-09-14T18:00	10767	247	-53.1	-61.2	310	7
2023-09-14T18:00	10787	246	-53.3	-61.5	308	7
2023-09-14T18:00	10808	245	-53.5	-61.7	307	7
2023-09-14T18:00	10829	244	-53.7	-61.9	307	7
2023-09-14T18:00	10845	244	-53.9	-62.1	307	7
2023-09-14T18:00	10866	243	-54.0	-62.1	308	7
2023-09-14T18:00	10885	242	-54.2	-62.2	310	7
2023-09-14T18:00	10905	241	-54.4	-62.3	312	7
2023-09-14T18:00	10923	241	-54.5	-62.2	313	7
2023-09-14T18:00	10940	240	-54.7	-62.2	314	8
2023-09-14T18:00	10958	239	-54.9	-62.2	315	8
2023-09-14T18:00	10976	239	-55.0	-62.1	315	8
2023-09-14T18:00	10994	238	-55.2	-62.1	314	8
2023-09-14T18:00	11011	237	-55.3	-62.1	314	8
2023-09-14T18:00	11030	237	-55.5	-62.1	313	8
2023-09-14T18:00	11050	236	-55.7	-62.0	313	8
2023-09-14T18:00	11072	235	-55.9	-62.0	313	8
2023-09-14T18:00	11093	234	-56.0	-62.0	313	9
2023-09-14T18:00	11113	234	-56.2	-62.1	313	9
2023-09-14T18:00	11137	233	-56.5	-62.3	313	9
2023-09-14T18:00	11157	232	-56.7	-62.3	312	9
2023-09-14T18:00	11177	231	-56.8	-62.3	311	9
2023-09-14T18:00	11196	231	-57.0	-62.3	310	9
2023-09-14T18:00	11216	230	-57.1	-62.3	310	9
2023-09-14T18:00	11234	229	-57.3	-62.4	310	10
2023-09-14T18:00	11255	228	-57.5	-62.5	312	10
2023-09-14T18:00	11274	228	-57.6	-62.5	313	10
2023-09-14T18:00	11294	227	-57.8	-62.6	315	10
2023-09-14T18:00	11313	226	-57.9	-62.6	316	10
2023-09-14T18:00	11331	226	-58.0	-62.7	317	10
2023-09-14T18:00	11351	225	-58.2	-62.8	318	10
2023-09-14T18:00	11370	224	-58.3	-62.9	319	10
2023-09-14T18:00	11389	224	-58.4	-63.0	321	11
2023-09-14T18:00	11407	223	-58.6	-63.2	322	11
2023-09-14T18:00	11427	222	-58.6	-63.2	324	11
2023-09-14T18:00	11443	222	-58.7	-63.3	325	11
2023-09-14T18:00	11463	221	-58.8	-63.3	326	11
2023-09-14T18:00	11481	220	-58.9	-63.4	327	11
2023-09-14T18:00	11504	220	-59.1	-63.6	327	11
2023-09-14T18:00	11523	219	-59.3	-63.7	328	11
2023-09-14T18:00	11540	218	-59.4	-63.7	328	11
2023-09-14T18:00	11560	218	-59.6	-63.8	329	11
2023-09-14T18:00	11581	217	-59.8	-63.9	330	11
2023-09-14T18:00	11602	216	-60.0	-64.1	331	11
2023-09-14T18:00	11620	216	-60.1	-64.3	332	11
2023-09-14T18:00	11638	215	-60.3	-64.6	332	11
2023-09-14T18:00	11659	214	-60.5	-65.1	333	10
2023-09-14T18:00	11677	214	-60.6	-65.4	333	10
2023-09-14T18:00	11697	213	-60.7	-65.7	333	10
2023-09-14T18:00	11719	212	-60.9	-65.9	333	10
2023-09-14T18:00	11740	211	-61.0	-66.1	332	10
2023-09-14T18:00	11761	211	-61.2	-66.3	332	10
2023-09-14T18:00	11779	210	-61.3		331	9
2023-09-14T18:00	11801	209	-61.4	-66.9	331	9
2023-09-14T18:00	11829	208	-61.5	-67.4	330	8
2023-09-14T18:00	11855	208	-61.0	-67.3	328	7
2023-09-14T18:00	11882	207	-60.7	-67.3	323	6
2023-09-14T18:00	11905	206	-60.8	-67.4	316	5
2023-09-14T18:00	11932	205	-60.9	-67.4	306	4
2023-09-14T18:00	11967	204	-61.0	-67.3	294	4
2023-09-14T18:00	11988	203	-61.1	-67.1	281	4
2023-09-14T18:00	12009	202	-61.2	-67.0	270	4
2023-09-14T18:00	12032	202	-61.3	-67.1	260	4
2023-09-14T18:00	12052	201	-61.4	-67.0	252	4
2023-09-14T18:00	12075	200	-61.5	-66.9	246	4
2023-09-14T18:00	12096	200	-61.6	-66.8	244	4
2023-09-14T18:00	12118	199	-61.7	-66.8	245	5
2023-09-14T18:00	12140	198	-61.8	-66.9	248	5
2023-09-14T18:00	12159	198	-61.9	-67.0	253	6
2023-09-14T18:00	12182	197	-61.9	-67.2	258	7
2023-09-14T18:00	12203	196	-61.9	-67.6	263	8
2023-09-14T18:00	12223	196	-61.9	-68.4	268	8
2023-09-14T18:00	12248	195	-60.7	-68.4	272	9
2023-09-14T18:00	12269	194	-60.5	-69.2	277	10
2023-09-14T18:00	12291	193	-60.3	-69.8	281	10
2023-09-14T18:00	12313	193	-60.3	-70.3	284	11
2023-09-14T18:00	12333	192	-60.0	-70.5	287	11
2023-09-14T18:00	12354	192	-59.8	-71.0	288	11
2023-09-14T18:00	12372	191	-59.7	-71.6	287	11
2023-09-14T18:00	12393	190	-59.4	-72.0	284	11
2023-09-14T18:00	12416	190	-58.9	-72.1	280	11
2023-09-14T18:00	12438	189	-58.3	-71.9	277	11
2023-09-14T18:00	12462	188	-58.2	-71.8	274	12
2023-09-14T18:00	12481	188	-58.1	-71.5	272	12
2023-09-14T18:00	12502	187	-58.2	-71.3	271	13
2023-09-14T18:00	12520	187	-58.3	-71.2	270	13
2023-09-14T18:00	12539	186	-58.3	-71.3	270	13
2023-09-14T18:00	12559	185	-57.9	-71.3	270	13
2023-09-14T18:00	12579	185	-57.8	-71.7	270	13
2023-09-14T18:00	12600	184	-57.7	-71.9	270	13
2023-09-14T18:00	12618	184	-57.8	-72.1	271	12
2023-09-14T18:00	12640	183	-57.9	-72.2	272	12
2023-09-14T18:00	12658	183	-57.9	-72.1	274	11
2023-09-14T18:00	12676	182	-57.8	-72.2	275	11
2023-09-14T18:00	12695	181	-57.6	-72.4	276	11
2023-09-14T18:00	12714	181	-57.7	-73.0	276	11
2023-09-14T18:00	12733	180	-57.4	-73.4	276	11
2023-09-14T18:00	12752	180	-56.9	-73.8	275	11
2023-09-14T18:00	12771	179	-56.8	-74.5	275	11
2023-09-14T18:00	12789	179	-56.8	-75.2	274	11
2023-09-14T18:00	12808	178	-56.7	-75.8	273	11
2023-09-14T18:00	12827	178	-56.4	-76.3	272	11
2023-09-14T18:00	12848	177	-56.2	-76.7	271	10
2023-09-14T18:00	12866	177	-55.9	-76.8	270	10
2023-09-14T18:00	12887	176	-55.8	-76.8	269	11
2023-09-14T18:00	12908	175	-55.8	-76.6	269	11
2023-09-14T18:00	12927	175	-56.0	-76.6	270	11
2023-09-14T18:00	12947	174	-56.1	-76.1	271	11
2023-09-14T18:00	12967	174	-56.0	-75.3	272	11
2023-09-14T18:00	12984	173	-56.0	-74.7	272	11
2023-09-14T18:00	13005	173	-56.0	-74.2	272	11
2023-09-14T18:00	13024	172	-55.9	-74.3	272	11
2023-09-14T18:00	13045	172	-55.2	-74.3	270	10
2023-09-14T18:00	13064	171	-55.3	-75.1	268	10
2023-09-14T18:00	13084	171	-54.9	-75.4	267	11
2023-09-14T18:00	13105	170	-54.6	-75.8	266	11
2023-09-14T18:00	13124	170	-54.4	-76.2	265	12
2023-09-14T18:00	13145	169	-54.4	-76.7	264	12
2023-09-14T18:00	13166	168	-54.5	-77.3	264	13
2023-09-14T18:00	13189	168	-54.6	-77.7	264	13
2023-09-14T18:00	13206	167	-54.6	-77.9	264	14
2023-09-14T18:00	13227	167	-54.8	-78.2	264	14
2023-09-14T18:00	13248	166	-54.8	-78.4	265	15
2023-09-14T18:00	13268	166	-54.7	-78.5	266	15
2023-09-14T18:00	13289	165	-54.7	-78.7	267	16
2023-09-14T18:00	13309	165	-54.7	-78.7	268	16
2023-09-14T18:00	13332	164	-54.7	-78.9	268	17
2023-09-14T18:00	13352	164	-54.5		267	17
2023-09-14T18:00	13373	163	-54.6	-79.1	267	17
2023-09-14T18:00	13396	163	-54.7	-79.1	265	17
2023-09-14T18:00	13418	162	-54.5		264	17
2023-09-14T18:00	13436	161	-54.6	-79.1	264	17
2023-09-14T18:00	13459	161	-54.8	-79.2	264	17
2023-09-14T18:00	13482	160	-54.9	-79.3	264	17
2023-09-14T18:00	13504	160	-55.0	-79.4	266	16
2023-09-14T18:00	13526	159	-54.6	-79.1	267	16
2023-09-14T18:00	13546	159	-54.8	-79.4	269	16
2023-09-14T18:00	13568	158	-54.9	-79.3	271	16
2023-09-14T18:00	13590	158	-55.1	-79.5	273	16
2023-09-14T18:00	13616	157	-55.3	-79.6	275	16
2023-09-14T18:00	13637	157	-55.3	-79.6	277	16
2023-09-14T18:00	13660	156	-55.4	-79.7	280	16
2023-09-14T18:00	13679	155	-55.5	-79.8	282	16
2023-09-14T18:00	13701	155	-55.6	-79.8	284	16
2023-09-14T18:00	13721	154	-55.4	-79.7	286	16
2023-09-14T18:00	13742	154	-55.4	-79.9	287	15
2023-09-14T18:00	13763	153	-55.3	-80.0	287	15
2023-09-14T18:00	13784	153	-55.0	-79.8	287	14
2023-09-14T18:00	13806	152	-55.0	-80.0	288	14
2023-09-14T18:00	13826	152	-55.0	-80.0	288	13
2023-09-14T18:00	13847	151	-55.1	-80.1	289	13
2023-09-14T18:00	13868	151	-55.0	-80.0	289	12
2023-09-14T18:00	13888	150	-54.9	-80.0	289	12
2023-09-14T18:00	13907	150	-54.7	-80.0	288	11
2023-09-14T18:00	13930	150	-54.6	-80.0	286	11
2023-09-14T18:00	13949	149	-54.6	-80.0	283	11
2023-09-14T18:00	13970	149	-54.7	-80.0	280	11
2023-09-14T18:00	13989	148	-54.8	-80.1	277	11
2023-09-14T18:00	14011	148	-54.9	-80.2	274	11
2023-09-14T18:00	14032	147	-54.9	-80.2	272	11
2023-09-14T18:00	14053	147	-54.9	-80.2	271	11
2023-09-14T18:00	14072	146	-54.7	-80.0	270	12
2023-09-14T18:00	14091	146	-54.8	-80.1	270	12
2023-09-14T18:00	14115	145	-54.9	-80.2	270	12
2023-09-14T18:00	14136	145	-55.0	-80.3	269	12
2023-09-14T18:00	14157	144	-55.1	-80.4	268	12
2023-09-14T18:00	14177	144	-55.0	-80.3	268	12
2023-09-14T18:00	14198	143	-55.1	-80.4	267	12
2023-09-14T18:00	14220	143	-55.1	-80.4	266	12
2023-09-14T18:00	14241	142	-55.2	-80.4	266	12
2023-09-14T18:00	14262	142	-55.4	-80.4	266	12
2023-09-14T18:00	14283	141	-55.5	-80.4	267	12
2023-09-14T18:00	14305	141	-55.6	-80.5	268	12
2023-09-14T18:00	14325	141	-55.7	-80.6	270	12
2023-09-14T18:00	14346	140	-55.8	-80.7	271	12
2023-09-14T18:00	14366	140	-55.9	-80.5	272	12
2023-09-14T18:00	14387	139	-55.9	-80.5	274	12
2023-09-14T18:00	14409	139	-56.0	-80.6	275	12
2023-09-14T18:00	14430	138	-56.0	-80.6	275	12
2023-09-14T18:00	14452	138	-56.1	-80.7	275	12
2023-09-14T18:00	14472	137	-56.2	-80.8	275	12
2023-09-14T18:00	14494	137	-56.2	-80.5	274	12
2023-09-14T18:00	14518	136	-56.2	-80.5	274	12
2023-09-14T18:00	14537	136	-56.3	-80.6	275	12
2023-09-14T18:00	14558	135	-56.3	-80.6	275	13
2023-09-14T18:00	14579	135	-56.3	-80.6	276	13
2023-09-14T18:00	14600	135	-56.4	-80.9	277	13
2023-09-14T18:00	14619	134	-56.4	-81.1	276	13
2023-09-14T18:00	14643	134	-56.3	-81.1	276	13
2023-09-14T18:00	14663	133	-56.2	-81.2	274	13
2023-09-14T18:00	14682	133	-56.2	-81.2	273	12
2023-09-14T18:00	14704	132	-56.2	-81.5	272	11
2023-09-14T18:00	14724	132	-56.2	-81.5	271	11
2023-09-14T18:00	14745	132	-56.2	-81.5	271	11
2023-09-14T18:00	14764	131	-56.1	-81.4	271	11
2023-09-14T18:00	14787	131	-56.1	-81.4	270	10
2023-09-14T18:00	14805	130	-56.1	-81.4	270	10
2023-09-14T18:00	14826	130	-56.1	-81.4	269	10
2023-09-14T18:00	14846	129	-55.9	-81.2	268	11
2023-09-14T18:00	14866	129	-55.8	-81.2	267	11
2023-09-14T18:00	14885	129	-55.9	-81.2	267	11
2023-09-14T18:00	14906	128	-56.0	-81.3	266	11
2023-09-14T18:00	14927	128	-56.1	-81.4	265	11
2023-09-14T18:00	14946	127	-56.1	-81.4	264	12
2023-09-14T18:00	14966	127	-56.1	-81.4	264	12
2023-09-14T18:00	14986	127	-56.2	-81.5	263	12
2023-09-14T18:00	15007	126	-56.2	-81.5	264	12
2023-09-14T18:00	15026	126	-56.2	-81.5	264	12
2023-09-14T18:00	15047	125	-56.2	-81.5	265	12
2023-09-14T18:00	15067	125	-56.2	-81.5	266	12
2023-09-14T18:00	15087	125	-56.3	-81.5	267	12
2023-09-14T18:00	15106	124	-56.2	-81.5	268	12
2023-09-14T18:00	15128	124	-56.2	-81.5	269	11
2023-09-14T18:00	15150	123	-56.4	-81.6	271	11
2023-09-14T18:00	15168	123	-56.5	-81.7	272	11
2023-09-14T18:00	15188	123	-56.6	-81.5	272	11
2023-09-14T18:00	15210	122	-56.5	-81.7	272	11
2023-09-14T18:00	15230	122	-56.5	-81.7	272	10
2023-09-14T18:00	15250	121	-56.5	-81.7	271	10
2023-09-14T18:00	15273	121	-56.4	-81.6	270	10
2023-09-14T18:00	15294	121	-56.5	-81.7	269	10
2023-09-14T18:00	15315	120	-56.6	-81.8	268	10
2023-09-14T18:00	15337	120	-56.7	-81.9	267	10
2023-09-14T18:00	15359	119	-56.7	-81.9	267	9
2023-09-14T18:00	15381	119	-56.7	-81.6	268	9
2023-09-14T18:00	15401	119	-56.9	-81.8	268	9
2023-09-14T18:00	15424	118	-57.1	-81.9	269	8
2023-09-14T18:00	15445	118	-57.2	-82.0	270	8
2023-09-14T18:00	15466	117	-57.4	-82.2	271	8
2023-09-14T18:00	15488	117	-57.4	-82.2	272	9
2023-09-14T18:00	15509	117	-57.4	-82.2	273	9
2023-09-14T18:00	15529	116	-57.3	-82.1	274	9
2023-09-14T18:00	15552	116	-57.4	-82.2	275	9
2023-09-14T18:00	15571	115	-57.5	-82.2	276	9
2023-09-14T18:00	15593	115	-57.5	-82.2	277	9
2023-09-14T18:00	15614	115	-57.5	-82.2	276	9
2023-09-14T18:00	15636	114	-57.6	-82.3	275	9
2023-09-14T18:00	15658	114	-57.4	-82.2	273	9
2023-09-14T18:00	15683	113	-57.4	-82.2	271	9
2023-09-14T18:00	15704	113	-57.3	-82.3	269	9
2023-09-14T18:00	15726	113	-57.3	-82.3	267	9
2023-09-14T18:00	15748	112	-57.5	-82.5	267	9
2023-09-14T18:00	15773	112	-57.4	-82.4	269	9
2023-09-14T18:00	15792	111	-57.3	-82.3	271	9
2023-09-14T18:00	15816	111	-57.2	-82.2	273	10
2023-09-14T18:00	15834	111	-57.1	-82.2	276	10
2023-09-14T18:00	15855	110	-57.2	-82.2	278	10
2023-09-14T18:00	15879	110	-57.3	-82.3	279	10
2023-09-14T18:00	15898	110	-57.2	-82.2	280	9
2023-09-14T18:00	15920	109	-57.1	-82.2	280	9
2023-09-14T18:00	15941	109	-56.9	-82.0	280	9
2023-09-14T18:00	15963	109	-57.1	-82.4	279	9
2023-09-14T18:00	15986	108	-57.0	-82.3	278	9
2023-09-14T18:00	16003	108	-57.0	-82.3	276	8
2023-09-14T18:00	16026	107	-57.0	-82.3	274	8
2023-09-14T18:00	16048	107	-57.1	-82.4	271	8
2023-09-14T18:00	16069	107	-57.2	-82.2	269	8
2023-09-14T18:00	16088	106	-57.4	-82.4	266	8
2023-09-14T18:00	16110	106	-57.5	-82.2	263	8
2023-09-14T18:00	16132	106	-57.7	-82.4	261	8
2023-09-14T18:00	16153	105	-57.9	-82.6	260	8
2023-09-14T18:00	16174	105	-58.0	-82.6	259	9
2023-09-14T18:00	16191	105	-58.0	-82.6	260	9
2023-09-14T18:00	16216	104	-58.0	-82.6	261	10
2023-09-14T18:00	16239	104	-58.2	-82.8	262	10
2023-09-14T18:00	16260	104	-58.4	-82.9	265	10
2023-09-14T18:00	16284	103	-58.5	-83.0	267	11
2023-09-14T18:00	16303	103	-58.4	-83.2	270	11
2023-09-14T18:00	16325	102	-58.2	-83.3	271	11
2023-09-14T18:00	16348	102	-58.1	-83.2	273	11
2023-09-14T18:00	16369	102	-58.0	-83.4	273	12
2023-09-14T18:00	16388	101	-58.0	-83.7	274	12
2023-09-14T18:00	16411	101	-57.8	-83.5	275	12
2023-09-14T18:00	16430	101	-57.8	-83.8	277	12
2023-09-14T18:00	16451	100	-57.8	-83.8	278	11
2023-09-14T18:00	16476	100	-57.8	-83.8	281	11
2023-09-14T18:00	16496	100	-57.8	-83.8	283	11
2023-09-14T18:00	16520	99	-57.7	-83.7	285	11
2023-09-14T18:00	16538	99	-57.7	-83.7	287	10
2023-09-14T18:00	16560	99	-57.6	-83.6	288	10
2023-09-14T18:00	16581	98	-57.7	-83.7	288	9
2023-09-14T18:00	16602	98	-57.7	-83.7	288	9
2023-09-14T18:00	16625	98	-57.7	-83.7	286	9
2023-09-14T18:00	16647	97	-57.7	-83.7	284	9
2023-09-14T18:00	16668	97	-57.6	-83.6	281	8
2023-09-14T18:00	16692	97	-57.6	-83.9	280	8
2023-09-14T18:00	16714	96	-57.6	-83.9	281	8
2023-09-14T18:00	16740	96	-57.5	-83.9	282	8
2023-09-14T18:00	16761	96	-57.3	-83.7	285	7
2023-09-14T18:00	16782	95	-57.1	-83.9	286	7
2023-09-14T18:00	16808	95	-57.2	-83.9	285	7
2023-09-14T18:00	16831	95	-57.1	-83.9	282	6
2023-09-14T18:00	16854	94	-57.3	-84.0	277	6
2023-09-14T18:00	16879	94	-57.4	-84.1	270	6
2023-09-14T18:00	16906	93	-57.2	-83.6	263	6
2023-09-14T18:00	16927	93	-57.3	-83.7	256	6
2023-09-14T18:00	16951	93	-57.5	-83.9	251	7
2023-09-14T18:00	16976	92	-57.6	-83.9	247	7
2023-09-14T18:00	16996	92	-57.7	-84.0	243	8
2023-09-14T18:00	17020	92	-57.9	-83.9	241	8
2023-09-14T18:00	17041	92	-58.0	-83.9	241	9
2023-09-14T18:00	17061	91	-57.9	-83.9	241	9
2023-09-14T18:00	17085	91	-58.0	-83.9	243	10
2023-09-14T18:00	17108	91	-58.1	-84.0	245	11
2023-09-14T18:00	17131	90	-58.0	-83.9	248	11
2023-09-14T18:00	17152	90	-58.0	-83.9	252	11
2023-09-14T18:00	17174	90	-58.0	-83.9	255	11
2023-09-14T18:00	17195	89	-58.0	-84.2	259	11
2023-09-14T18:00	17218	89	-58.0	-84.2	262	11
2023-09-14T18:00	17240	89	-58.0	-84.2	264	11
2023-09-14T18:00	17263	88	-57.7	-84.3	266	11
2023-09-14T18:00	17284	88	-57.5	-84.2	267	11
2023-09-14T18:00	17307	88	-57.5	-84.2	268	11
2023-09-14T18:00	17330	87	-57.4	-84.1	269	10
2023-09-14T18:00	17352	87	-57.4	-84.1	270	10
2023-09-14T18:00	17374	87	-57.6	-84.3	272	9
2023-09-14T18:00	17399	86	-57.5	-84.2	273	9
2023-09-14T18:00	17422	86	-57.6	-84.3	273	8
2023-09-14T18:00	17441	86	-57.6	-84.3	273	8
2023-09-14T18:00	17464	86	-57.5	-84.2	272	8
2023-09-14T18:00	17485	85	-57.5	-84.2	271	7
2023-09-14T18:00	17506	85	-57.5	-84.2	270	7
2023-09-14T18:00	17530	85	-57.5	-84.2	270	8
2023-09-14T18:00	17554	84	-57.6	-84.3	270	8
2023-09-14T18:00	17578	84	-57.7	-84.3	270	8
2023-09-14T18:00	17597	84	-57.7	-84.3	271	8
2023-09-14T18:00	17624	83	-57.8	-84.4	272	8
2023-09-14T18:00	17642	83	-57.8	-84.4	272	8
2023-09-14T18:00	17662	83	-57.8	-84.7	273	8
2023-09-14T18:00	17686	83	-57.7	-84.7	272	8
2023-09-14T18:00	17707	82	-57.5	-84.5	272	8
2023-09-14T18:00	17731	82	-57.4	-84.4	271	8
2023-09-14T18:00	17753	82	-57.3	-84.4	272	9
2023-09-14T18:00	17775	81	-57.3	-84.7	273	9
2023-09-14T18:00	17796	81	-57.2	-84.6	275	9
2023-09-14T18:00	17817	81	-57.3	-84.4	277	9
2023-09-14T18:00	17838	81	-57.4	-84.4	279	10
2023-09-14T18:00	17862	80	-57.4	-84.4	282	10
2023-09-14T18:00	17885	80	-57.2	-84.6	284	10
2023-09-14T18:00	17906	80	-57.2	-84.6	285	10
2023-09-14T18:00	17927	80	-57.2	-84.6	286	10
2023-09-14T18:00	17948	79	-57.2	-84.6	287	10
2023-09-14T18:00	17969	79	-57.2	-84.6	287	10
2023-09-14T18:00	17989	79	-57.2	-84.6	287	9
2023-09-14T18:00	18008	78	-57.3	-84.7	286	9
2023-09-14T18:00	18033	78	-57.3	-84.7	284	8
2023-09-14T18:00	18054	78	-57.2	-84.6	282	8
2023-09-14T18:00	18078	78	-56.9	-84.8	280	8
2023-09-14T18:00	18100	77	-56.8	-84.7	277	8
2023-09-14T18:00	18123	77	-56.7	-84.6	276	8
2023-09-14T18:00	18146	77	-56.6	-84.5	275	9
2023-09-14T18:00	18165	77	-56.6	-84.5	275	9
2023-09-14T18:00	18190	76	-56.5	-84.5	276	9
2023-09-14T18:00	18209	76	-56.5	-84.5	276	9
2023-09-14T18:00	18232	76	-56.4	-84.4	277	9
2023-09-14T18:00	18255	76	-56.3	-84.3	277	8
2023-09-14T18:00	18274	75	-56.4	-84.4	278	8
2023-09-14T18:00	18298	75	-56.3	-84.3	278	8
2023-09-14T18:00	18319	75	-56.2	-84.2	278	8
2023-09-14T18:00	18344	74	-56.1	-84.2	278	8
2023-09-14T18:00	18364	74	-56.1	-84.2	276	8
2023-09-14T18:00	18388	74	-56.0	-84.5	274	8
2023-09-14T18:00	18410	74	-55.9	-84.4	271	8
2023-09-14T18:00	18429	73	-55.9	-84.4	268	8
2023-09-14T18:00	18452	73	-56.0	-84.1	266	8
2023-09-14T18:00	18473	73	-56.1	-84.2	264	8
2023-09-14T18:00	18494	73	-56.0	-84.1	263	7
2023-09-14T18:00	18516	72	-56.0	-84.1	262	7
2023-09-14T18:00	18540	72	-56.0	-84.1	260	6
2023-09-14T18:00	18563	72	-56.1	-84.2	257	6
2023-09-14T18:00	18585	72	-56.1	-84.2	253	5
2023-09-14T18:00	18608	71	-56.0	-84.1	247	5
2023-09-14T18:00	18629	71	-56.1	-84.2	241	5
2023-09-14T18:00	18651	71	-56.2	-84.2	235	5
2023-09-14T18:00	18673	71	-56.3	-84.3	229	5
2023-09-14T18:00	18698	70	-56.3	-84.3	224	5
2023-09-14T18:00	18716	70	-56.4	-84.4	221	6
2023-09-14T18:00	18740	70	-56.5	-84.5	220	6
2023-09-14T18:00	18762	70	-56.4	-84.4	221	7
2023-09-14T18:00	18785	69	-56.1	-84.2	223	8
2023-09-14T18:00	18808	69	-56.1	-84.6	226	9
2023-09-14T18:00	18833	69	-56.0	-84.1	230	9
2023-09-14T18:00	18858	69	-56.1	-84.2	233	10
2023-09-14T18:00	18877	68	-56.2	-84.2	235	10
2023-09-14T18:00	18900	68	-56.3	-84.3	238	11
2023-09-14T18:00	18926	68	-56.5	-84.5	239	11
2023-09-14T18:00	18948	68	-56.6	-84.5	241	11
2023-09-14T18:00	18970	67	-56.7	-84.2	243	12
2023-09-14T18:00	18995	67	-56.9	-84.4	244	12
2023-09-14T18:00	19018	67	-57.1	-84.6	246	12
2023-09-14T18:00	19042	67	-57.2	-84.6	248	12
2023-09-14T18:00	19067	66	-57.3	-84.7	251	12
2023-09-14T18:00	19090	66	-57.3	-84.7	254	12
2023-09-14T18:00	19115	66	-57.4	-84.8	258	12
2023-09-14T18:00	19137	66	-57.4	-85.2	262	11
2023-09-14T18:00	19162	65	-57.4	-85.2	266	11
2023-09-14T18:00	19182	65	-57.0	-84.8	270	11
2023-09-14T18:00	19209	65	-56.9	-84.8	272	10
2023-09-14T18:00	19229	65	-56.8	-85.1	274	10
2023-09-14T18:00	19254	65	-56.7	-85.0	275	10
2023-09-14T18:00	19277	64	-56.6	-84.9	276	10
2023-09-14T18:00	19301	64	-56.5	-84.9	277	10
2023-09-14T18:00	19321	64	-56.6	-84.9	278	9
2023-09-14T18:00	19346	64	-56.5	-84.9	278	9
2023-09-14T18:00	19368	63	-56.6	-84.5	277	9
2023-09-14T18:00	19394	63	-56.5	-84.9	276	8
2023-09-14T18:00	19415	63	-56.5	-84.9	275	8
2023-09-14T18:00	19440	63	-56.6	-84.9	274	8
2023-09-14T18:00	19461	62	-56.5	-84.9	274	8
2023-09-14T18:00	19483	62	-56.5	-84.9	275	9
2023-09-14T18:00	19504	62	-56.4	-84.8	277	9
2023-09-14T18:00	19531	62	-56.3	-84.7	280	8
2023-09-14T18:00	19553	62	-56.2	-84.6	283	8
2023-09-14T18:00	19577	61	-56.1	-84.6	286	7
2023-09-14T18:00	19603	61	-56.1	-84.6	288	7
2023-09-14T18:00	19625	61	-56.1	-84.6	289	6
2023-09-14T18:00	19645	61	-56.1	-84.6	287	6
2023-09-14T18:00	19669	60	-56.1	-84.6	283	5
2023-09-14T18:00	19694	60	-56.2	-84.6	278	5
2023-09-14T18:00	19718	60	-56.2	-84.6	272	5
2023-09-14T18:00	19739	60	-56.3	-84.7	267	5
2023-09-14T18:00	19765	60	-56.4	-84.4	263	6
2023-09-14T18:00	19792	59	-56.5	-84.5	261	6
2023-09-14T18:00	19811	59	-56.6	-84.5	261	6
2023-09-14T18:00	19838	59	-56.7	-84.6	262	7
2023-09-14T18:00	19862	59	-56.7	-84.6	263	8
2023-09-14T18:00	19887	58	-56.9	-84.8	266	8
2023-09-14T18:00	19911	58	-57.0	-84.8	269	8
2023-09-14T18:00	19934	58	-56.9	-84.8	273	9
2023-09-14T18:00	19959	58	-57.0	-84.8	278	9
2023-09-14T18:00	19981	58	-57.0	-84.8	282	9
2023-09-14T18:00	20005	57	-56.8	-84.7	286	9
2023-09-14T18:00	20025	57	-56.8	-84.7	288	9
2023-09-14T18:00	20050	57	-56.7	-85.0	289	9
2023-09-14T18:00	20074	57	-56.7	-85.0	289	8
2023-09-14T18:00	20095	56	-56.8	-85.1	287	8
2023-09-14T18:00	20124	56	-56.9	-85.2	285	8
2023-09-14T18:00	20145	56	-56.9	-85.2	285	8
2023-09-14T18:00	20165	56	-56.9	-85.2	285	8
2023-09-14T18:00	20192	56	-56.8	-85.1	287	8
2023-09-14T18:00	20217	55	-56.7	-85.0	290	7
2023-09-14T18:00	20236	55	-56.7	-85.0	293	7
2023-09-14T18:00	20262	55	-56.8	-85.1	295	7
2023-09-14T18:00	20284	55	-56.6	-84.9	296	7
2023-09-14T18:00	20309	55	-56.5	-84.9	295	6
2023-09-14T18:00	20334	54	-56.5	-84.9	293	6
2023-09-14T18:00	20358	54	-56.5	-84.9	289	6
2023-09-14T18:00	20378	54	-56.5	-84.9	284	5
2023-09-14T18:00	20405	54	-56.4	-84.8	278	5
2023-09-14T18:00	20425	54	-56.5	-84.9	271	4
2023-09-14T18:00	20452	53	-56.3	-84.7	262	4
2023-09-14T18:00	20474	53	-56.4	-84.8	250	3
2023-09-14T18:00	20498	53	-56.5	-84.9	238	3
2023-09-14T18:00	20520	53	-56.5	-84.9	229	3
2023-09-14T18:00	20547	53	-56.6	-84.9	225	3
2023-09-14T18:00	20569	52	-56.5	-84.9	228	3
2023-09-14T18:00	20594	52	-56.7	-85.0	237	3
2023-09-14T18:00	20618	52	-56.7	-85.0	249	3
2023-09-14T18:00	20638	52	-56.6	-84.9	260	3
2023-09-14T18:00	20662	52	-56.7	-85.0	269	4
2023-09-14T18:00	20685	51	-56.8	-84.7	275	5
2023-09-14T18:00	20708	51	-56.9	-84.8	279	5
2023-09-14T18:00	20735	51	-57.0	-84.8	280	6
2023-09-14T18:00	20757	51	-57.0	-84.8	281	6
2023-09-14T18:00	20780	51	-56.9	-85.2	280	6
2023-09-14T18:00	20803	51	-56.8	-85.1	277	5
2023-09-14T18:00	20828	50	-56.5	-84.9	272	5
2023-09-14T18:00	20854	50	-56.2	-85.1	266	4
2023-09-14T18:00	20880	50	-56.0	-84.9	258	4
2023-09-14T18:00	20901	50	-56.1	-85.0	249	3
2023-09-14T18:00	20924	50	-56.0	-84.9	240	3
2023-09-14T18:00	20947	49	-55.9	-84.8	230	4
2023-09-14T18:00	20974	49	-56.0	-84.5	222	4
2023-09-14T18:00	20999	49	-56.0	-84.5	217	4
2023-09-14T18:00	21021	49	-56.0	-84.5	215	5
2023-09-14T18:00	21048	49	-56.0	-84.5	214	6
2023-09-14T18:00	21069	48	-56.1	-84.6	214	6
2023-09-14T18:00	21094	48	-56.3	-84.7	216	6
2023-09-14T18:00	21116	48	-56.4	-84.4	219	7
2023-09-14T18:00	21145	48	-56.6	-84.5	223	7
2023-09-14T18:00	21165	48	-56.7	-84.6	228	8
2023-09-14T18:00	21193	48	-56.8	-84.7	234	8
2023-09-14T18:00	21217	47	-56.8	-84.7	240	9
2023-09-14T18:00	21241	47	-56.7	-85.0	245	9
2023-09-14T18:00	21265	47	-56.6	-84.9	250	9
2023-09-14T18:00	21288	47	-56.6	-84.9	254	9
2023-09-14T18:00	21312	47	-56.5	-84.9	258	9
2023-09-14T18:00	21340	46	-56.5	-84.9	262	8
2023-09-14T18:00	21364	46	-56.4	-85.2	265	8
2023-09-14T18:00	21387	46	-56.2	-85.1	267	7
2023-09-14T18:00	21413	46	-55.9	-84.8	267	7
2023-09-14T18:00	21437	46	-55.6	-84.6	265	7
2023-09-14T18:00	21463	46	-55.4	-84.5	263	6
2023-09-14T18:00	21489	45	-55.4	-84.5	261	6
2023-09-14T18:00	21509	45	-55.3	-84.4	260	6
2023-09-14T18:00	21533	45	-55.1	-84.2	259	6
2023-09-14T18:00	21558	45	-55.0	-84.2	260	6
2023-09-14T18:00	21585	45	-55.0	-84.2	262	6
2023-09-14T18:00	21610	45	-55.0	-84.2	264	6
2023-09-14T18:00	21630	44	-55.0	-84.2	266	5
2023-09-14T18:00	21653	44	-54.8	-84.0	267	5
2023-09-14T18:00	21676	44	-54.7	-83.9	267	4
2023-09-14T18:00	21703	44	-54.7	-83.9	266	4
2023-09-14T18:00	21730	44	-54.6	-83.9	266	4
2023-09-14T18:00	21755	44	-54.7	-83.9	267	4
2023-09-14T18:00	21781	43	-54.7	-83.9	268	4
2023-09-14T18:00	21800	43	-54.5	-83.8	269	4
2023-09-14T18:00	21828	43	-54.5	-83.8	269	4
2023-09-14T18:00	21850	43	-54.7	-83.9	268	3
2023-09-14T18:00	21875	43	-54.8	-84.0	265	3
2023-09-14T18:00	21902	43	-54.8	-84.0	263	3
2023-09-14T18:00	21923	42	-55.0	-84.2	263	3
2023-09-14T18:00	21951	42	-55.1	-84.2	265	3
2023-09-14T18:00	21976	42	-55.1	-84.2	268	3
2023-09-14T18:00	21997	42	-55.2	-84.3	270	3
2023-09-14T18:00	22023	42	-55.0	-84.2	271	3
2023-09-14T18:00	22046	42	-55.2	-83.9	271	3
2023-09-14T18:00	22073	41	-55.4	-84.0	271	4
2023-09-14T18:00	22101	41	-55.6	-84.2	271	4
2023-09-14T18:00	22122	41	-55.7	-84.3	270	4
2023-09-14T18:00	22143	41	-55.9	-84.4	267	4
2023-09-14T18:00	22169	41	-56.1	-84.6	264	4
2023-09-14T18:00	22195	41	-56.2	-84.6	259	4
2023-09-14T18:00	22218	40	-56.2	-84.6	254	4
2023-09-14T18:00	22246	40	-56.4	-84.8	249	4
2023-09-14T18:00	22269	40	-56.5	-84.9	246	4
2023-09-14T18:00	22293	40	-56.6	-84.9	243	4
2023-09-14T18:00	22315	40	-56.7	-85.0	242	4
2023-09-14T18:00	22349	40	-56.7	-85.0	242	4
2023-09-14T18:00	22369	39	-56.5	-84.9	243	5
2023-09-14T18:00	22398	39	-56.6	-84.9	245	5
2023-09-14T18:00	22422	39	-56.7	-85.0	247	6
2023-09-14T18:00	22443	39	-56.8	-85.1	250	6
2023-09-14T18:00	22471	39	-56.7	-85.0	254	7
2023-09-14T18:00	22495	39	-56.8	-85.1	258	7
2023-09-14T18:00	22521	39	-56.8	-85.1	262	7
2023-09-14T18:00	22540	38	-56.6	-84.9	266	7
2023-09-14T18:00	22571	38	-56.6	-84.9	269	7
2023-09-14T18:00	22594	38	-56.5	-84.9	272	7
2023-09-14T18:00	22622	38	-56.5	-85.3	275	7
2023-09-14T18:00	22646	38	-56.3	-85.1	278	7
2023-09-14T18:00	22663	38	-56.2	-85.1	281	7
2023-09-14T18:00	22689	38	-56.0	-84.9	284	7
2023-09-14T18:00	22717	37	-55.7	-84.7	287	8
2023-09-14T18:00	22743	37	-55.6	-84.6	290	8
2023-09-14T18:00	22770	37	-55.6	-84.6	293	8
2023-09-14T18:00	22793	37	-55.6	-84.6	295	8
2023-09-14T18:00	22817	37	-55.5	-84.5	296	8
2023-09-14T18:00	22844	37	-55.6	-84.6	296	9
2023-09-14T18:00	22870	37	-55.7	-84.7	297	9
2023-09-14T18:00	22893	36	-55.8	-84.8	298	9
2023-09-14T18:00	22919	36	-56.0	-84.9	299	9
2023-09-14T18:00	22943	36	-56.1	-84.6	301	8
2023-09-14T18:00	22964	36	-56.0	-84.5	303	8
2023-09-14T18:00	22991	36	-55.9	-84.8	305	7
2023-09-14T18:00	23016	36	-55.9	-84.8	307	7
2023-09-14T18:00	23039	36	-56.0	-84.9	308	6
2023-09-14T18:00	23070	35	-56.1	-85.0	307	6
2023-09-14T18:00	23096	35	-55.9	-84.8	304	6
2023-09-14T18:00	23116	35	-55.9	-84.8	301	7
2023-09-14T18:00	23149	35	-55.8	-84.8	299	7
2023-09-14T18:00	23168	35	-55.4	-84.5	298	8
2023-09-14T18:00	23197	35	-55.3	-84.9	298	9
2023-09-14T18:00	23222	35	-55.3	-84.9	298	9
2023-09-14T18:00	23253	34	-55.3	-84.9	299	9
2023-09-14T18:00	23276	34	-55.2	-84.8	300	9
2023-09-14T18:00	23297	34	-54.9	-84.6	302	8
2023-09-14T18:00	23323	34	-54.9	-84.6	304	8
2023-09-14T18:00	23352	34	-54.8	-84.5	306	7
2023-09-14T18:00	23374	34	-54.4	-84.2	308	7
2023-09-14T18:00	23403	34	-54.2	-84.0	308	6
2023-09-14T18:00	23429	33	-54.2	-84.0	307	6
2023-09-14T18:00	23456	33	-54.2	-84.0	305	5
2023-09-14T18:00	23482	33	-54.2	-84.0	301	5
2023-09-14T18:00	23506	33	-54.2	-84.0	297	4
2023-09-14T18:00	23529	33	-54.3	-84.1	294	4
2023-09-14T18:00	23552	33	-54.2	-84.0	293	4
2023-09-14T18:00	23586	33	-54.1	-84.0	292	4
2023-09-14T18:00	23606	33	-54.1	-84.0	291	4
2023-09-14T18:00	23634	32	-54.1	-84.0	290	4
2023-09-14T18:00	23660	32	-54.2	-84.0	289	3
2023-09-14T18:00	23687	32	-54.3	-84.1	288	3
2023-09-14T18:00	23709	32	-54.2	-84.0	288	4
2023-09-14T18:00	23735	32	-54.2	-84.0	290	4
2023-09-14T18:00	23767	32	-54.3	-84.1	292	4
2023-09-14T18:00	23792	32	-54.5	-84.3	294	4
2023-09-14T18:00	23819	31	-54.4	-84.2	296	4
2023-09-14T18:00	23843	31	-54.4	-84.2	298	4
2023-09-14T18:00	23875	31	-54.5	-84.3	300	4
2023-09-14T18:00	23896	31	-54.6	-84.3	301	4
2023-09-14T18:00	23920	31	-54.6	-84.3	302	4
2023-09-14T18:00	23945	31	-54.7	-84.4	301	4
2023-09-14T18:00	23971	31	-54.7	-84.4	300	4
2023-09-14T18:00	24004	31	-54.6	-84.3	299	4
2023-09-14T18:00	24026	30	-54.6	-84.3	296	4
2023-09-14T18:00	24057	30	-54.6	-84.3	291	4
2023-09-14T18:00	24078	30	-54.5	-84.3	284	4
2023-09-14T18:00	24099	30	-54.4	-84.2	276	4
2023-09-14T18:00	24124	30	-54.4	-84.2	268	4
2023-09-14T18:00	24155	30	-54.4	-84.2	262	4
2023-09-14T18:00	24187	30	-54.5	-84.3	256	5
2023-09-14T18:00	24204	30	-54.7	-83.9	252	5
2023-09-14T18:00	24233	30	-54.8	-84.0	249	6
2023-09-14T18:00	24257	29	-55.1	-84.2	246	6
2023-09-14T18:00	24286	29	-55.3	-84.4	244	6
2023-09-14T18:00	24307	29	-55.5	-84.5	243	6
2023-09-14T18:00	24334	29	-55.7	-84.7	243	5
2023-09-14T18:00	24361	29	-55.5	-84.5	245	5
2023-09-14T18:00	24384	29	-55.5	-84.5	249	5
2023-09-14T18:00	24415	29	-55.6	-84.6	254	5
2023-09-14T18:00	24441	29	-55.5	-84.5	258	5
2023-09-14T18:00	24462	28	-55.3	-84.9	262	5
2023-09-14T18:00	24490	28	-54.9	-84.6	265	5
2023-09-14T18:00	24519	28	-55.0	-84.6	267	5
2023-09-14T18:00	24535	28	-55.1	-84.7	268	5
2023-09-14T18:00	24569	28	-55.2	-84.8	269	5
2023-09-14T18:00	24595	28	-55.2	-84.8	270	5
2023-09-14T18:00	24617	28	-55.0	-84.6	271	5
2023-09-14T18:00	24649	28	-55.0	-84.6	272	4
2023-09-14T18:00	24672	28	-54.9	-85.1	272	4
2023-09-14T18:00	24698	27	-54.3	-84.6	271	4
2023-09-14T18:00	24723	27	-53.8	-84.2	270	4
2023-09-14T18:00	24747	27	-53.3	-84.4	269	3
2023-09-14T18:00	24779	27	-52.9	-84.1	270	3
2023-09-14T18:00	24805	27	-52.8	-84.1	274	3
2023-09-14T18:00	24827	27	-52.7	-84.0	281	3
2023-09-14T18:00	24856	27	-52.7	-84.0	290	2
2023-09-14T18:00	24878	27	-52.7	-84.0	299	2
2023-09-14T18:00	24904	27	-52.5	-83.3	306	2
2023-09-14T18:00	24927	26	-52.5	-83.3	308	2
2023-09-14T18:00	24958	26	-52.6	-83.3	305	1
2023-09-14T18:00	24982	26	-52.5	-83.3	289	1
2023-09-14T18:00	25009	26	-52.4	-83.2	239	1
2023-09-14T18:00	25030	26	-52.6	-83.3	188	1
2023-09-14T18:00	25063	26	-52.7	-83.4	171	1
2023-09-14T18:00	25087	26	-52.9	-83.6	165	2
2023-09-14T18:00	25111	26	-52.9	-83.6	164	3
2023-09-14T18:00	25139	26	-52.7	-83.4	164	3
2023-09-14T18:00	25164	26	-52.6	-83.3	166	4
2023-09-14T18:00	25190	25	-52.6	-83.3	168	4
2023-09-14T18:00	25214	25	-52.7	-83.4	171	5
2023-09-14T18:00	25241	25	-52.4	-83.2	176	5
2023-09-14T18:00	25269	25	-52.1	-83.0	182	5
2023-09-14T18:00	25291	25	-52.2	-83.1	189	5
2023-09-14T18:00	25317	25	-52.4	-83.2	196	5
2023-09-14T18:00	25338	25	-52.5	-83.3	204	5
2023-09-14T18:00	25369	25	-52.6	-83.3	211	5
2023-09-14T18:00	25397	25	-52.5	-83.3	217	6
2023-09-14T18:00	25423	25	-52.6	-83.3	221	6
2023-09-14T18:00	25448	24	-52.7	-83.4	223	6
2023-09-14T18:00	25470	24	-52.7	-83.4	224	6
2023-09-14T18:00	25503	24	-52.7	-83.4	224	5
2023-09-14T18:00	25526	24	-52.5	-83.3	225	6
2023-09-14T18:00	25547	24	-52.5	-83.3	226	6
2023-09-14T18:00	25570	24	-52.3	-83.1	229	6
2023-09-14T18:00	25596	24	-52.2	-83.1	232	6
2023-09-14T18:00	25620	24	-52.3	-83.1	235	6
2023-09-14T18:00	25657	24	-52.3	-83.1	238	6
2023-09-14T18:00	25678	24	-52.2	-83.1	241	6
2023-09-14T18:00	25708	23	-52.3	-83.1	244	6
2023-09-14T18:00	25732	23	-52.3	-83.1	246	6
2023-09-14T18:00	25765	23	-52.3	-83.1	248	5
2023-09-14T18:00	25779	23	-52.4	-83.2	251	5
2023-09-14T18:00	25809	23	-52.4	-83.2	254	5
2023-09-14T18:00	25840	23	-52.5	-83.3	259	6
2023-09-14T18:00	25865	23	-52.3	-83.1	263	6
2023-09-14T18:00	25892	23	-52.0	-83.5	265	6
2023-09-14T18:00	25916	23	-51.8	-83.3	266	6
2023-09-14T18:00	25941	23	-51.8	-83.3	265	6
2023-09-14T18:00	25974	23	-51.7	-83.2	263	6
2023-09-14T18:00	25994	22	-51.7	-83.2	261	6
2023-09-14T18:00	26020	22	-51.6	-83.2	259	6
2023-09-14T18:00	26045	22	-51.6	-83.2	257	6
2023-09-14T18:00	26076	22	-51.5	-83.1	255	6
2023-09-14T18:00	26109	22	-51.4	-83.0	254	7
2023-09-14T18:00	26136	22	-51.3	-82.9	254	8
2023-09-14T18:00	26156	22	-50.9	-82.7	254	8
2023-09-14T18:00	26197	22	-50.7	-82.5	256	9
2023-09-14T18:00	26208	22	-50.4	-82.3	259	10
2023-09-14T18:00	26245	22	-50.6	-82.4	261	10
2023-09-14T18:00	26270	22	-50.8	-82.6	263	11
2023-09-14T18:00	26300	21	-51.0	-82.7	265	10
2023-09-14T18:00	26321	21	-51.0	-82.7	268	10
2023-09-14T18:00	26360	21	-50.7	-82.5	270	9
2023-09-14T18:00	26385	21	-50.6	-82.4	273	9
2023-09-14T18:00	26404	21	-50.7	-82.5	277	8
2023-09-14T18:00	26434	21	-50.7	-82.5	280	7
2023-09-14T18:00	26460	21	-50.5		284	6
2023-09-14T18:00	26487	21	-50.4	-82.3	286	6
2023-09-14T18:00	26516	21	-50.4	-82.3	288	6
2023-09-14T18:00	26539	21	-50.4	-82.3	288	7
2023-09-14T18:00	26573	21	-50.5		286	7
2023-09-14T18:00	26604	20	-50.4	-82.3	283	7
2023-09-14T18:00	26620	20	-50.3	-82.2	279	8
2023-09-14T18:00	26652	20	-50.3	-82.2	275	9
2023-09-14T18:00	26681	20	-50.3	-82.8	272	10
2023-09-14T18:00	26697	20	-50.0	-82.6	270	10
2023-09-14T18:00	26732	20	-49.7	-82.4	269	11
2023-09-14T18:00	26756	20	-49.6	-82.3	270	12
2023-09-14T18:00	26785	20	-49.6	-82.3	271	13
2023-09-14T18:00	26809	20	-49.7	-82.4	272	13
2023-09-14T18:00	26841	20	-49.8	-82.5	273	13
2023-09-14T18:00	26860	20	-49.8	-82.5	275	14
2023-09-14T18:00	26878	20	-49.5	-82.3	278	14
2023-09-14T18:00	26913	20	-49.3	-82.1	281	14
2023-09-14T18:00	26932	19	-49.2	-82.0	284	13
2023-09-14T18:00	26961	19	-49.1	-82.0	287	13
2023-09-14T18:00	26997	19	-48.9	-81.8	289	13
2023-09-14T18:00	27026	19	-48.7	-81.7	290	13
2023-09-14T18:00	27041	19	-48.6	-81.6	289	13
2023-09-14T18:00	27073	19	-48.6	-81.6	289	12
2023-09-14T18:00	27098	19	-48.4	-81.4	288	12
2023-09-14T18:00	27128	19	-48.5	-81.5	287	12
2023-09-14T18:00	27141	19	-48.4	-81.4	287	12
2023-09-14T18:00	27186	19	-48.0	-81.2	288	12
2023-09-14T18:00	27200	19	-47.8	-81.0	289	12
2023-09-14T18:00	27236	19	-47.7	-80.9	291	12
2023-09-14T18:00	27260	19	-47.6	-80.9	291	12
2023-09-14T18:00	27282	18	-47.7	-80.9	291	12
2023-09-14T18:00	27306	18	-47.9	-81.1	291	12
2023-09-14T18:00	27341	18	-48.0	-81.2	290	11
2023-09-14T18:00	27368	18	-47.9	-81.1	289	11
2023-09-14T18:00	27386	18	-47.9	-81.1	288	11
2023-09-14T18:00	27418	18	-48.0	-81.2	287	10
2023-09-14T18:00	27447	18	-47.9	-81.1	287	10
2023-09-14T18:00	27478	18	-47.8	-81.0	287	10
2023-09-14T18:00	27508	18	-47.8	-81.0	287	10
2023-09-14T18:00	27532	18	-47.8	-81.0	286	10
2023-09-14T18:00	27568	18	-47.9	-81.1	286	10
2023-09-14T18:00	27587	18	-48.0	-81.2	285	9
2023-09-14T18:00	27610	18	-48.1	-81.2	285	9
2023-09-14T18:00	27643	17	-48.0	-81.2	285	9
2023-09-14T18:00	27672	17	-48.0	-81.2	285	9
2023-09-14T18:00	27693	17	-48.0	-81.2	287	9
2023-09-14T18:00	27736	17	-47.9	-81.1	288	9
2023-09-14T18:00	27762	17	-47.8	-81.0	289	9
2023-09-14T18:00	27788	17	-47.7	-81.6	290	9
2023-09-14T18:00	27808	17	-47.7	-81.6	292	10
2023-09-14T18:00	27838	17	-47.2	-81.3	293	10
2023-09-14T18:00	27863	17	-46.9	-81.1	294	9
2023-09-14T18:00	27903	17	-46.9	-81.1	296	9
2023-09-14T18:00	27932	17	-46.6	-80.9	298	9
2023-09-14T18:00	27950	17	-46.6	-80.9	300	8
2023-09-14T18:00	27973	17	-46.5	-80.8	302	8
2023-09-14T18:00	28007	17	-46.4	-80.7	304	7
2023-09-14T18:00	28037	16	-46.3	-80.6	304	6
2023-09-14T18:00	28060	16	-46.3	-80.6	302	5
2023-09-14T18:00	28088	16	-45.9	-80.3	299	5
2023-09-14T18:00	28121	16	-45.8	-80.3	296	4
2023-09-14T18:00	28149	16	-45.8	-80.3	292	4
2023-09-14T18:00	28174	16	-45.8	-80.3	287	4
2023-09-14T18:00	28208	16	-45.6	-80.1	283	4
2023-09-14T18:00	28232	16	-45.6	-80.1	275	3
2023-09-14T18:00	28255	16	-45.7	-80.2	265	3
2023-09-14T18:00	28280	16	-45.7	-80.2	249	3
2023-09-14T18:00	28309	16	-45.6	-80.1	230	2
2023-09-14T18:00	28334	16	-45.6	-80.1	214	3
2023-09-14T18:00	28360	16	-45.4	-80.0	203	3
2023-09-14T18:00	28382	16	-45.4	-80.0	199	4
2023-09-14T18:00	28416	16	-45.2	-79.8	198	4
2023-09-14T18:00	28434	15	-45.0	-79.7	200	5
2023-09-14T18:00	28477	15	-45.0	-79.7	202	5
2023-09-14T18:00	28500	15	-44.9	-79.6	204	6
2023-09-14T18:00	28532	15	-45.0	-79.7	206	6
2023-09-14T18:00	28547	15	-45.1	-79.8	208	7
2023-09-14T18:00	28579	15	-45.0	-79.7	210	8
2023-09-14T18:00	28605	15	-45.2	-79.8	212	8
2023-09-14T18:00	28638	15	-45.5	-80.1	214	9
2023-09-14T18:00	28670	15	-45.6	-80.1	216	10
2023-09-14T18:00	28690	15	-45.7	-80.2	217	11
2023-09-14T18:00	28717	15	-45.8	-80.3	219	11
2023-09-14T18:00	28751	15	-45.9	-80.3	221	11
2023-09-14T18:00	28784	15	-45.6	-80.1	223	11
2023-09-14T18:00	28807	15	-45.6	-80.1	225	11
2023-09-14T18:00	28828	15	-45.7	-80.2	228	11
2023-09-14T18:00	28868	15	-45.8	-80.3	231	11
2023-09-14T18:00	28891	14	-45.8	-80.3	234	12
2023-09-14T18:00	28909	14	-45.8	-80.3	237	12
2023-09-14T18:00	28947	14	-45.8	-80.3	240	12
2023-09-14T18:00	28979	14	-45.8	-80.3	244	12
2023-09-14T18:00	29001	14	-45.6	-80.1	247	12
2023-09-14T18:00	29024	14	-45.3	-79.9	251	12
2023-09-14T18:00	29064	14	-45.1	-80.6	254	12
2023-09-14T18:00	29077	14	-45.0	-80.5	257	12
2023-09-14T18:00	29116	14	-45.1	-80.6	261	12
2023-09-14T18:00	29120	14	-44.9	-80.4	265	11
2023-09-14T18:00	29175	14	-44.7	-80.3	270	11
2023-09-14T18:00	29201	14	-44.6	-80.2	275	11
2023-09-14T18:00	29219	14	-44.3	-80.0	280	11
2023-09-14T18:00	29247	14	-44.2	-79.9	284	11
2023-09-14T18:00	29275	14	-44.1	-79.9	288	11
2023-09-14T18:00	29309	14	-44.1	-79.9	291	10
2023-09-14T18:00	29340	14	-43.9	-79.7	295	10
2023-09-14T18:00	29371	13	-43.8	-79.6	299	10
2023-09-14T18:00	29401	13	-43.8	-79.6	303	10
2023-09-14T18:00	29418	13	-43.8	-79.6	308	10
2023-09-14T18:00	29444	13	-43.8	-79.6	312	10
2023-09-14T18:00	29481	13	-43.8	-79.6	315	10
2023-09-14T18:00	29509	13	-43.7	-79.6	317	10
2023-09-14T18:00	29543	13	-43.1		318	9
2023-09-14T18:00	29551	13	-42.8	-78.9	318	9
2023-09-14T18:00	29583	13	-42.9	-79.0	317	8
2023-09-14T18:00	29616	13	-42.9	-79.0	315	8
2023-09-14T18:00	29651	13	-42.9	-79.0	312	8
2023-09-14T18:00	29667	13	-43.0	-79.1	310	7
2023-09-14T18:00	29704	13	-43.1		307	7
2023-09-14T18:00	29737	13	-43.2	-79.2	306	8
2023-09-14T18:00	29756	13	-43.2	-79.2	306	8
2023-09-14T18:00	29791	13	-43.3	-79.3	307	8
2023-09-14T18:00	29809	13	-43.3	-79.3	308	9
2023-09-14T18:00	29855	13	-43.3	-79.3	309	9
2023-09-14T18:00	29878	13	-43.3	-79.3	310	9
2023-09-14T18:00	29906	12	-43.3	-79.3	310	10
2023-09-14T18:00	29933	12	-43.2	-79.2	309	10
2023-09-14T18:00	29969	12	-43.2	-79.2	307	10
2023-09-14T18:00	29992	12	-43.2	-79.2	303	9
2023-09-14T18:00	30007	12	-43.2	-79.2	299	9
2023-09-14T18:00	30048	12	-43.2	-79.2	294	8
2023-09-14T18:00	30073	12	-43.3	-79.3	288	7
2023-09-14T18:00	30108	12	-43.4	-79.4	282	7
2023-09-14T18:00	30127	12	-43.5	-79.4	276	6
2023-09-14T18:00	30167	12	-43.5	-79.4	271	6
2023-09-14T18:00	30178	12	-43.5	-79.4	268	5
2023-09-14T18:00	30216	12	-43.5	-79.4	266	5
2023-09-14T18:00	30230	12	-43.7	-79.6	264	4
2023-09-14T18:00	30265	12	-43.8	-79.6	260	4
2023-09-14T18:00	30288	12	-44.0	-79.8	255	4
2023-09-14T18:00	30325	12	-44.0	-79.8	249	5
2023-09-14T18:00	30353	12	-44.0	-79.8	245	5
2023-09-14T18:00	30376	12	-44.0	-79.8	242	6
2023-09-14T18:00	30402	12	-44.1	-79.9	242	7
2023-09-14T18:00	30436	12	-44.3	-80.0	243	8
2023-09-14T18:00	30462	11	-44.4	-80.1	245	8
2023-09-14T18:00	30489	11	-44.5	-80.1	247	9
2023-09-14T18:00	30503	11	-44.6	-80.2	249	9
2023-09-14T18:00	30542	11	-44.5	-80.1	252	10
2023-09-14T18:00	30569	11	-44.3	-80.0	253	10
2023-09-14T18:00	30622	11	-44.2	-79.9	254	11
2023-09-14T18:00	30639	11	-44.1	-79.9	255	12
2023-09-14T18:00	30665	11	-43.8	-79.6	255	12
2023-09-14T18:00	30703	11	-43.5	-80.4	254	13
2023-09-14T18:00	30716	11	-43.0	-80.0	254	14
2023-09-14T18:00	30757	11	-42.7	-79.8	253	14
2023-09-14T18:00	30782	11	-42.6	-79.7	253	14
2023-09-14T18:00	30822	11	-42.6	-79.7	253	15
2023-09-14T18:00	30847	11	-42.7	-79.8	254	15
2023-09-14T18:00	30870	11	-42.6	-79.7	255	15
2023-09-14T18:00	30900	11	-42.5	-79.7	255	16
2023-09-14T18:00	30932	11	-42.5	-79.7	256	16
2023-09-14T18:00	30950	11	-42.5	-79.7	257	16
2023-09-14T18:00	31011	11	-42.6	-79.7	258	16
2023-09-14T18:00	31023	11	-42.6	-79.7	260	16
2023-09-14T18:00	31053	11	-42.4	-79.6	262	16
2023-09-14T18:00	31093	10	-42.1	-79.4	265	15
2023-09-14T18:00	31116	10	-42.0	-79.3	268	15
2023-09-14T18:00	31140	10	-42.1	-79.4	271	15
2023-09-14T18:00	31177	10	-42.0	-79.3	274	15
2023-09-14T18:00	31198	10	-42.0	-79.3	276	15
2023-09-14T18:00	31226	10	-42.2	-79.5	278	14
2023-09-14T18:00	31275	10	-42.3	-79.5	279	14
2023-09-14T18:00	31296	10	-42.3	-79.5	281	14
2023-09-14T18:00	31343	10	-42.3	-79.5	283	13
2023-09-14T18:00	31377	10	-42.3	-79.5	285	13
2023-09-14T18:00	31385	10	-42.5	-79.7	285	12
2023-09-14T18:00	31438	10	-42.6	-79.7	285	12
2023-09-14T18:00	31450	10	-42.2	-79.5	283	12
2023-09-14T18:00	31462	10	-42.1	-79.4	281	12
2023-09-14T18:00	31492	10	-42.0	-79.3	280	12
2023-09-14T18:00	31540	10	-42.0	-79.3	279	12
2023-09-14T18:00	31551	10	-41.7	-79.1	278	11
2023-09-14T18:00	31572	10	-41.6	-79.0	277	11
2023-09-14T18:00	31612	10	-41.6	-79.0	275	10
2023-09-14T18:00	31648	10	-41.4	-78.9	273	9
2023-09-14T18:00	31672	10	-41.4	-78.9	272	9
2023-09-14T18:00	31695	10	-41.3	-78.8	270	8
2023-09-14T18:00	31717	10	-41.3	-78.8	269	7
2023-09-14T18:00	31752	9	-41.3	-78.8	270	6
2023-09-14T18:00	31771	9	-41.4	-78.9	271	6
2023-09-14T18:00	31793	9	-41.4	-78.9	271	6
2023-09-14T18:00	31829	9	-41.4	-78.9	271	6
2023-09-14T18:00	31847	9	-41.4	-78.9	270	6
2023-09-14T18:00	31873	9	-41.5	-79.0	268	6
2023-09-14T18:00	31894	9	-41.6	-79.0	265	6
2023-09-14T18:00	31923	9	-41.5	-79.0	263	6
2023-09-14T18:00	31982	9	-41.1	-78.7	262	6
2023-09-14T18:00	32016	9	-40.1	-79.1	260	7
2023-09-14T18:00	32031	9	-39.9	-79.0	258	8
2023-09-14T18:00	32061	9	-39.6	-78.8	256	9
2023-09-14T18:00	32089	9	-39.3	-78.5	254	9
2023-09-14T18:00	32122	9	-39.0	-78.3	254	10
2023-09-14T18:00	32169	9	-39.0	-78.3	255	9
2023-09-14T18:00	32170	9	-38.8	-78.2	257	9
2023-09-14T18:00	32217	9	-38.8	-78.2	259	8
2023-09-14T18:00	32237	9	-38.8	-78.2	262	8
2023-09-14T18:00	32264	9	-38.9	-78.3	266	7
2023-09-14T18:00	32307	9	-38.9	-78.3	272	7
2023-09-14T18:00	32312	9	-39.0	-78.3	279	7
2023-09-14T18:00	32364	9	-39.1	-78.4	286	7
2023-09-14T18:00	32386	9	-39.0	-78.3	293	7
2023-09-14T18:00	32406	9	-39.0	-78.3	300	7
2023-09-14T18:00	32449	9	-39.0	-78.3	305	8
2023-09-14T18:00	32475	9	-39.2	-78.5	309	8
2023-09-14T18:00	32505	9	-39.3	-77.4	311	8
2023-09-14T18:00	32513	8	-39.4	-77.5	312	8
2023-09-14T18:00	32547	8	-39.5	-77.6	310	7
2023-09-14T18:00	32566	8	-39.5	-77.6	306	7
2023-09-14T18:00	32605	8	-39.6	-77.6	301	6
2023-09-14T18:00	32623	8	-39.7	-77.7	294	6
2023-09-14T18:00	32676	8	-39.7	-77.7	285	5
2023-09-14T18:00	32692	8	-39.8	-77.8	276	5
2023-09-14T18:00	32721	8	-39.9	-77.8	266	5
2023-09-14T18:00	32728	8	-40.1	-78.0	259	6
2023-09-14T18:00	32749	8	-40.2	-78.0	254	6
2023-09-14T18:00	32777	8	-40.2	-78.0	252	7
2023-09-14T18:00	32829	8	-40.1	-78.0	253	8
2023-09-14T18:00	32863	8	-40.2	-78.0	255	8
2023-09-14T18:00	32880	8	-40.2	-78.0	258	9
2023-09-14T18:00	32920	8	-40.1	-78.0	261	10
2023-09-14T18:00	32951	8	-40.0	-77.9	263	11
2023-09-14T18:00	32969	8	-39.9	-79.0	265	11
2023-09-14T18:00	33000	8	-39.9	-79.0	266	12
2023-09-14T18:00	33016	8	-39.9	-79.0	266	12
2023-09-14T18:00	33046	8	-39.8	-78.9	267	11
2023-09-14T18:00	33074	8	-39.5	-78.7	267	11
2023-09-14T18:00	33116	8	-39.4	-78.6	268	11
2023-09-14T18:00	33148	8	-39.3	-78.5	270	11
2023-09-14T18:00	33174	8	-39.2	-78.5	272	11
2023-09-14T18:00	33182	8	-38.8	-78.2	275	12
2023-09-14T18:00	33203	8	-38.6	-78.1	278	13
2023-09-14T18:00	33241	8	-38.5	-78.0	281	13
2023-09-14T18:00	33277	8	-38.5	-78.0	283	14
2023-09-14T18:00	33294	8	-38.3	-77.9	285	14
2023-09-14T18:00	33326	8	-38.1	-77.7	287	13
2023-09-14T18:00	33349	8	-38.0	-77.6	290	13
2023-09-14T18:00	33353	7	-38.0	-77.6	293	12
2023-09-14T18:00	33407	7	-37.9	-77.6	297	12
2023-09-14T18:00	33416	7	-38.1	-77.7	300	11
2023-09-14T18:00	33465	7	-38.2	-77.8	301	11
2023-09-14T18:00	33488	7	-38.1	-77.7	302	11
2023-09-14T18:00	33492	7	-37.6	-77.4	301	10
2023-09-14T18:00	33522	7	-37.4	-77.2	298	10
2023-09-14T18:00	33577	7	-37.4	-77.2	295	9
2023-09-14T18:00	33581	7	-37.4	-77.2	290	9
2023-09-14T18:00	33652	7	-37.4	-77.2	285	9
2023-09-14T18:00	33691	7	-37.1	-77.0	276	9
2023-09-14T18:00	33694	7	-37.0	-77.0	273	9
2023-09-14T18:00	33716	7	-36.9	-76.9	272	9
2023-09-14T18:00	33744	7	-36.8	-76.8	273	9
2023-09-14T18:00	33793	7	-36.4	-76.5	275	9
2023-09-14T18:00	33823	7	-36.5	-76.6	279	9
2023-09-14T18:00	33824	7	-36.6	-76.7	283	9
2023-09-14T18:00	33856	7	-36.5	-76.6	288	9
2023-09-14T18:00	33903	7	-36.5	-76.6	292	9
2023-09-14T18:00	33923	7	-36.2	-76.4	297	10
2023-09-14T18:00	33948	7	-35.9	-76.2	300	10
2023-09-14T18:00	33994	7	-35.8	-76.1	303	9
2023-09-14T18:00	34015	7	-35.7	-76.1	305	9
2023-09-14T18:00	34039	7	-35.6	-76.0	306	9
2023-09-14T18:00	34063	7	-35.5	-75.9	304	8
2023-09-14T18:00	34103	7	-35.2	-75.7	300	8
2023-09-14T18:00	34137	7	-35.2	-75.7	294	7
2023-09-14T18:00	34150	7	-35.1	-75.6	288	8
2023-09-14T18:00	34156	7	-35.2	-75.7	282	8
2023-09-14T18:00	34185	7	-35.2	-75.7	276	8
2023-09-14T18:00	34247	7	-35.4	-75.8	270	9
2023-09-14T18:00	34279	7	-35.6	-76.0	260	10
2023-09-14T18:00	34309	7	-35.6	-76.0	256	11
2023-09-14T18:00	34353	7	-35.4	-75.8	253	12
2023-09-14T18:00	34382	6	-35.2	-75.7	251	13
2023-09-14T18:00	34404	6	-35.2	-75.7	250	14
2023-09-14T18:00	34414	6	-35.4	-75.8	249	15
2023-09-14T18:00	34440	6	-35.6	-76.0	248	16
2023-09-14T18:00	34476	6	-35.8	-76.1	247	17
2023-09-14T18:00	34522	6	-35.8	-76.1	246	17
2023-09-14T18:00	34540	6	-36.0	-76.3	245	18
2023-09-14T18:00	34570	6	-35.7	-76.1	244	18
2023-09-14T18:00	34582	6	-35.9	-76.2	244	18
2023-09-14T18:00	34625	6	-36.1	-76.3	244	18
2023-09-14T18:00	34651	6	-36.0	-76.3	245	17
2023-09-14T18:00	34713	6	-35.6	-76.0	246	16
2023-09-14T18:00	34748	6	-35.2	-75.7	248	14
2023-09-14T18:00	34776	6	-35.3	-75.8	249	13
2023-09-14T18:00	34794	6	-35.4	-75.8	250	13
2023-09-14T18:00	34818	6	-35.5	-75.9	252	12
2023-09-14T18:00	34864	6	-35.6	-76.0	255	11
2023-09-14T18:00	34881	6	-35.8	-76.1	257	11
2023-09-14T18:00	34899	6	-35.8	-76.1	260	11
2023-09-14T18:00	34937	6	-35.7	-76.1	262	11
2023-09-14T18:00	34946	6	-35.4	-75.8	262	11
2023-09-14T18:00	34983	6	-35.3	-75.8	262	11
2023-09-14T18:00	35032	6	-35.3	-75.8	262	11
2023-09-14T18:00	35049	6	-35.2	-75.7	262	11
2023-09-14T18:00	35079	6	-35.2	-75.7	263	11
2023-09-14T18:00	35091	6	-35.1	-75.6	265	11
2023-09-14T18:00	35112	6	-35.0	-75.6	266	11
2023-09-14T18:00	35152	6	-34.9	-75.5	267	12
2023-09-14T18:00	35171	6	-34.9	-75.5	267	11
2023-09-14T18:00	35219	6	-34.9	-75.5	266	11
2023-09-14T18:00	35270	6	-34.9	-75.5	261	12
2023-09-14T18:00	35302	6	-34.9	-75.5	259	12
2023-09-14T18:00	35342	6	-34.8	-75.4	258	12
2023-09-14T18:00	35357	6	-35.0	-75.6	256	12
2023-09-14T18:00	35379	6	-34.9	-75.5	256	12
2023-09-15T00:00	118	1009	15.1	7.1	50	3
2023-09-15T00:00	141	1007	16.0	6.7	54	4
2023-09-15T00:00	164	1004	16.5	6.9	58	4
2023-09-15T00:00	183	1001	16.4	8.1	61	5
2023-09-15T00:00	208	999	16.2	9.1	63	5
2023-09-15T00:00	235	996	15.9	9.9	64	5
2023-09-15T00:00	260	993	15.9	8.8	64	5
2023-09-15T00:00	285	990	16.0	6.6	62	5
2023-09-15T00:00	313	986	15.8		59	5
2023-09-15T00:00	342	983	15.6	6.2	57	5
2023-09-15T00:00	373	980	15.3	5.8	57	5
2023-09-15T00:00	402	976	15.0	5.6	58	4
2023-09-15T00:00	425	974	14.8	5.4	60	4
2023-09-15T00:00	447	971	14.6	5.1	61	4
2023-09-15T00:00	471	968	14.5	5.0	62	3
2023-09-15T00:00	498	965	14.3	5.4	62	3
2023-09-15T00:00	526	962	14.0	5.9	63	3
2023-09-15T00:00	550	959	13.8	6.3	64	2
2023-09-15T00:00	579	956	13.5	6.2	67	2
2023-09-15T00:00	607	953	13.3	6.3	72	2
2023-09-15T00:00	634	950	13.0	6.1	78	1
2023-09-15T00:00	658	947	12.8	6.2	85	1
2023-09-15T00:00	686	944	12.6	6.4	90	1
2023-09-15T00:00	712	941	12.3	6.2	97	1
2023-09-15T00:00	738	938	12.1	6.3	105	1
2023-09-15T00:00	762	935	11.9	6.2	115	2
2023-09-15T00:00	791	932	11.6	6.1	125	2
2023-09-15T00:00	817	929	11.4	6.1	132	3
2023-09-15T00:00	838	927	11.2	6.1	136	3
2023-09-15T00:00	860	924	11.0	5.8	138	3
2023-09-15T00:00	886	922	10.8	5.5	138	3
2023-09-15T00:00	911	919	10.6	5.3	137	3
2023-09-15T00:00	936	916	10.5	5.1	137	3
2023-09-15T00:00	967	913	10.2	4.9	139	3
2023-09-15T00:00	991	910	9.9	4.8	144	3
2023-09-15T00:00	1017	907	9.7	4.8	150	3
2023-09-15T00:00	1041	904	9.5		158	3
2023-09-15T00:00	1069	901	9.4	4.0	164	3
2023-09-15T00:00	1099	898	9.3	3.4	168	3
2023-09-15T00:00	1128	895	9.1	2.9	170	4
2023-09-15T00:00	1154	892	9.1	1.8	171	5
2023-09-15T00:00	1181	889	9.0	1.3	170	5
2023-09-15T00:00	1205	887	8.9	2.1	171	6
2023-09-15T00:00	1225	885	8.7	3.1	172	7
2023-09-15T00:00	1248	882	8.7	3.4	174	8
2023-09-15T00:00	1270	880	8.6	3.8	177	8
2023-09-15T00:00	1288	878	8.4	4.1	179	7
2023-09-15T00:00	1312	876	8.3	4.6	180	6
2023-09-15T00:00	1335	873	8.3	4.1	177	5
2023-09-15T00:00	1358	871	8.1	3.5	171	4
2023-09-15T00:00	1381	868	8.0	3.8	162	4
2023-09-15T00:00	1402	866	7.9	3.6	154	3
2023-09-15T00:00	1427	863	7.7	2.8	150	4
2023-09-15T00:00	1451	861	7.6	1.9	150	4
2023-09-15T00:00	1476	858	7.5		152	4
2023-09-15T00:00	1501	856	7.4	1.6	156	4
2023-09-15T00:00	1530	853	7.6	-3.2	161	3
2023-09-15T00:00	1556	850	7.8	-6.3	169	3
2023-09-15T00:00	1580	847	7.9	-10.6	179	2
2023-09-15T00:00	1607	845	8.0	-3.8	195	1
2023-09-15T00:00	1627	842	8.3		220	1
2023-09-15T00:00	1655	840	8.6	-30.0	250	1
2023-09-15T00:00	1680	837	8.7	-32.9	275	1
2023-09-15T00:00	1707	835	8.9	-33.9	293	1
2023-09-15T00:00	1734	832	8.7	-11.8	308	1
2023-09-15T00:00	1759	829	8.3	-3.0	320	1
2023-09-15T00:00	1782	827	8.0	0.0	331	1
2023-09-15T00:00	1802	825	7.9	-0.7	340	1
2023-09-15T00:00	1822	823	7.9	-1.2	358	1
2023-09-15T00:00	1846	821	7.9	-0.9	60	0
2023-09-15T00:00	1866	819	7.9	-1.1	124	0
2023-09-15T00:00	1887	816	7.9	-2.4	154	0
2023-09-15T00:00	1916	814	8.0	-3.7	239	0
2023-09-15T00:00	1943	811	7.9	-4.0	279	1
2023-09-15T00:00	1970	808	7.8	-4.4	287	1
2023-09-15T00:00	1999	806	7.7	-5.0	291	2
2023-09-15T00:00	2021	803	7.6	-5.4	296	2
2023-09-15T00:00	2045	801	7.4	-5.4	308	1
2023-09-15T00:00	2067	799	7.2	-5.5	323	1
2023-09-15T00:00	2087	797	7.0	-5.6	331	2
2023-09-15T00:00	2111	795	6.9	-5.7	331	2
2023-09-15T00:00	2135	792	6.8	-5.8	329	3
2023-09-15T00:00	2158	790	6.6	-5.9	325	3
2023-09-15T00:00	2183	788	6.6	-6.4	321	3
2023-09-15T00:00	2209	785	6.5	-6.9	315	2
2023-09-15T00:00	2237	782	6.4	-7.3	302	2
2023-09-15T00:00	2267	780	6.3	-7.6	278	1
2023-09-15T00:00	2295	777	6.3	-8.2	247	1
2023-09-15T00:00	2327	774	6.6	-11.2	221	1
2023-09-15T00:00	2352	772	6.7	-11.9	200	2
2023-09-15T00:00	2376	769	6.7	-12.3	183	2
2023-09-15T00:00	2401	767	6.7	-12.8	172	2
2023-09-15T00:00	2428	764	6.8	-14.1	167	2
2023-09-15T00:00	2458	762	6.8	-15.2	164	2
2023-09-15T00:00	2483	759	6.7	-14.6	163	2
2023-09-15T00:00	2508	757	6.5	-15.4	164	2
2023-09-15T00:00	2534	755	6.4	-15.5	166	2
2023-09-15T00:00	2562	752	6.3	-15.7	171	2
2023-09-15T00:00	2590	749	6.1	-16.2	175	2
2023-09-15T00:00	2618	747	6.0	-16.7	179	2
2023-09-15T00:00	2641	745	5.9	-17.8	179	2
2023-09-15T00:00	2663	743	5.7		175	1
2023-09-15T00:00	2684	741	5.6	-18.5	154	1
2023-09-15T00:00	2705	739	5.6	-18.7	73	1
2023-09-15T00:00	2727	737	5.6	-20.7	49	1
2023-09-15T00:00	2748	735	5.5	-21.1	53	1
2023-09-15T00:00	2780	732	5.3	-20.5	76	1
2023-09-15T00:00	2809	730	5.1	-20.2	121	1
2023-09-15T00:00	2839	727	4.9	-21.1	151	1
2023-09-15T00:00	2864	725	4.7	-21.2	162	1
2023-09-15T00:00	2898	722	4.8	-33.4	165	2
2023-09-15T00:00	2923	719	5.1	-40.4	162	2
2023-09-15T00:00	2952	717	5.0	-39.3	156	2
2023-09-15T00:00	2975	715	4.9	-39.3	151	2
2023-09-15T00:00	2999	713	4.7	-38.9	149	2
2023-09-15T00:00	3023	711	4.6	-37.1	151	2
2023-09-15T00:00	3046	709	4.5	-34.2	160	2
2023-09-15T00:00	3067	707	4.4	-30.1	176	2
2023-09-15T00:00	3089	705	4.3	-27.4	192	2
2023-09-15T00:00	3120	702	4.2	-19.9	199	2
2023-09-15T00:00	3153	699	4.0	-19.4	197	2
2023-09-15T00:00	3187	697	3.8	-16.8	191	2
2023-09-15T00:00	3216	694	3.7	-17.2	182	2
2023-09-15T00:00	3246	691	3.6	-17.5	174	2
2023-09-15T00:00	3278	689	3.3	-18.4	169	1
2023-09-15T00:00	3312	686	3.1	-18.9	174	1
2023-09-15T00:00	3338	684	2.9	-19.3	221	0
2023-09-15T00:00	3365	681	2.8	-21.4	251	1
2023-09-15T00:00	3394	679	3.0	-30.6	249	1
2023-09-15T00:00	3420	677	3.0	-30.8	242	1
2023-09-15T00:00	3444	675	3.0	-30.4	239	1
2023-09-15T00:00	3471	673	2.9	-28.3	243	1
2023-09-15T00:00	3498	670	2.6	-24.8	286	0
2023-09-15T00:00	3522	668	2.4	-17.1	353	1
2023-09-15T00:00	3550	666	2.1	-12.4	8	1
2023-09-15T00:00	3579	664	1.8	-7.8	12	1
2023-09-15T00:00	3603	662	1.6	-7.1	11	1
2023-09-15T00:00	3629	659	1.4	-7.2	1	1
2023-09-15T00:00	3653	658	1.2	-7.3	333	1
2023-09-15T00:00	3678	656	1.0	-6.5	305	1
2023-09-15T00:00	3698	654	0.8	-6.8	292	1
2023-09-15T00:00	3732	651	0.6	-6.5	288	2
2023-09-15T00:00	3760	649	0.4	-6.5	289	2
2023-09-15T00:00	3791	646	0.1	-6.6	292	2
2023-09-15T00:00	3822	644	-0.1	-6.7	295	2
2023-09-15T00:00	3845	642	-0.2	-7.3	295	2
2023-09-15T00:00	3870	640	-0.3	-7.6	292	3
2023-09-15T00:00	3895	638	-0.4	-7.5	288	4
2023-09-15T00:00	3919	636	-0.5	-8.7	286	4
2023-09-15T00:00	3948	634	-0.6	-9.1	285	5
2023-09-15T00:00	3975	632	-0.7	-9.8	285	5
2023-09-15T00:00	4005	629	-0.8	-8.4	287	5
2023-09-15T00:00	4031	627	-0.9	-8.8	290	5
2023-09-15T00:00	4057	625	-1.1	-9.0	292	5
2023-09-15T00:00	4083	623	-1.2	-9.4	294	5
2023-09-15T00:00	4107	621	-1.2	-10.9	295	4
2023-09-15T00:00	4132	619	-1.3	-11.2	295	4
2023-09-15T00:00	4163	617	-1.5	-13.6	296	4
2023-09-15T00:00	4189	615	-1.5	-13.5	298	4
2023-09-15T00:00	4213	613	-1.8	-11.6	302	4
2023-09-15T00:00	4249	610	-2.1	-11.5	307	4
2023-09-15T00:00	4281	608	-2.2	-11.8	311	4
2023-09-15T00:00	4313	605	-2.4	-12.1	316	4
2023-09-15T00:00	4344	603	-2.6	-12.5	321	5
2023-09-15T00:00	4374	601	-2.8	-13.0	326	5
2023-09-15T00:00	4400	599	-3.0	-13.3	328	5
2023-09-15T00:00	4429	597	-3.2	-13.1	328	5
2023-09-15T00:00	4458	594	-3.4	-12.7	325	6
2023-09-15T00:00	4484	592	-3.5	-12.8	320	6
2023-09-15T00:00	4512	590	-3.7	-13.2	313	6
2023-09-15T00:00	4542	588	-3.9	-13.1	307	5
2023-09-15T00:00	4570	586	-4.1	-13.1	302	5
2023-09-15T00:00	4594	584	-4.3	-13.2	298	4
2023-09-15T00:00	4622	582	-4.5	-13.3	296	4
2023-09-15T00:00	4642	580	-4.7	-13.4	296	4
2023-09-15T00:00	4676	578	-4.9	-13.5	297	4
2023-09-15T00:00	4700	576	-5.1	-13.5	296	4
2023-09-15T00:00	4727	574	-5.3	-13.8	294	4
2023-09-15T00:00	4752	573	-5.5	-14.0	292	5
2023-09-15T00:00	4775	571	-5.7	-14.1	291	5
2023-09-15T00:00	4801	569	-6.0	-14.2	291	5
2023-09-15T00:00	4827	567	-6.2	-14.2	291	5
2023-09-15T00:00	4855	565	-6.5	-14.4	292	5
2023-09-15T00:00	4874	564	-6.7	-14.4	291	6
2023-09-15T00:00	4902	562	-6.9	-14.6	290	6
2023-09-15T00:00	4930	560	-7.1	-14.6	289	6
2023-09-15T00:00	4960	558	-7.4	-14.6	288	6
2023-09-15T00:00	4995	555	-7.6	-14.9	286	6
2023-09-15T00:00	5017	553	-7.8	-15.0	285	6
2023-09-15T00:00	5054	551	-8.1	-15.4	282	6
2023-09-15T00:00	5078	549	-8.2	-15.5	280	6
2023-09-15T00:00	5101	548	-8.4	-15.6	278	6
2023-09-15T00:00	5124	546	-8.6	-15.6	277	6
2023-09-15T00:00	5155	544	-8.9	-15.6	277	6
2023-09-15T00:00	5189	542	-9.1	-16.1	276	6
2023-09-15T00:00	5207	540	-9.2	-16.1	275	5
2023-09-15T00:00	5238	538	-9.4	-16.3	274	5
2023-09-15T00:00	5266	536	-9.6	-16.6	274	5
2023-09-15T00:00	5294	534	-9.9	-17.1	274	5
2023-09-15T00:00	5323	532	-10.0	-17.8	276	5
2023-09-15T00:00	5353	530	-10.1	-17.1	277	5
2023-09-15T00:00	5380	528	-10.3	-17.6	277	4
2023-09-15T00:00	5411	526	-10.4	-17.9	274	4
2023-09-15T00:00	5443	524	-10.6	-18.3	269	4
2023-09-15T00:00	5472	522	-10.7	-18.6	263	5
2023-09-15T00:00	5504	520	-10.9	-19.2	260	5
2023-09-15T00:00	5530	518	-11.1	-19.5	260	5
2023-09-15T00:00	5552	516	-11.2	-19.1	262	5
2023-09-15T00:00	5576	515	-11.4	-19.2	266	5
2023-09-15T00:00	5605	513	-11.6	-19.3	271	5
2023-09-15T00:00	5633	511	-11.8	-19.7	275	5
2023-09-15T00:00	5657	509	-12.0	-19.9	275	5
2023-09-15T00:00	5679	508	-12.2	-20.1	272	5
2023-09-15T00:00	5701	507	-12.4	-20.0	269	5
2023-09-15T00:00	5723	505	-12.6	-20.0	269	5
2023-09-15T00:00	5743	504	-12.7	-19.6	271	5
2023-09-15T00:00	5767	502	-12.9	-19.5	274	6
2023-09-15T00:00	5802	500	-13.0	-20.5	277	6
2023-09-15T00:00	5838	498	-13.2	-20.8	279	7
2023-09-15T00:00	5859	496	-13.4	-20.6	280	7
2023-09-15T00:00	5886	494	-13.6	-20.8	283	7
2023-09-15T00:00	5917	492	-13.8	-20.9	287	7
2023-09-15T00:00	5952	490	-13.9	-21.3	292	6
2023-09-15T00:00	5981	488	-14.1	-21.4	295	6
2023-09-15T00:00	6006	487	-14.3	-21.3	295	6
2023-09-15T00:00	6034	485	-14.5	-20.9	293	6
2023-09-15T00:00	6066	483	-14.8	-20.8	289	6
2023-09-15T00:00	6101	481	-15.0	-21.5	285	6
2023-09-15T00:00	6122	479	-15.1	-21.7	282	6
2023-09-15T00:00	6144	478	-15.2	-21.8	280	6
2023-09-15T00:00	6176	476	-15.5	-21.9	280	6
2023-09-15T00:00	6206	474	-15.7	-21.7	280	6
2023-09-15T00:00	6234	472	-16.0	-22.0	282	6
2023-09-15T00:00	6266	470	-16.2	-22.3	285	6
2023-09-15T00:00	6302	468	-16.4	-22.7	287	6
2023-09-15T00:00	6330	466	-16.6	-23.0	288	6
2023-09-15T00:00	6363	464	-16.9	-23.5	287	5
2023-09-15T00:00	6395	462	-17.1	-23.7	285	5
2023-09-15T00:00	6427	460	-17.4	-23.8	282	5
2023-09-15T00:00	6461	458	-17.6	-24.3	281	5
2023-09-15T00:00	6483	457	-17.8	-24.8	281	5
2023-09-15T00:00	6511	455	-17.9	-24.8	281	6
2023-09-15T00:00	6548	453	-18.2	-24.8	280	7
2023-09-15T00:00	6580	451	-18.5	-24.9	279	7
2023-09-15T00:00	6602	449	-18.6	-25.0	278	7
2023-09-15T00:00	6637	448	-18.8	-25.5	277	7
2023-09-15T00:00	6666	446	-18.9	-25.9	276	7
2023-09-15T00:00	6700	444	-19.2	-26.1	274	7
2023-09-15T00:00	6732	442	-19.5	-26.3	272	7
2023-09-15T00:00	6760	440	-19.7	-26.3	270	7
2023-09-15T00:00	6786	439	-20.0	-26.4	269	7
2023-09-15T00:00	6811	437	-20.2	-26.4	268	7
2023-09-15T00:00	6843	435	-20.5	-26.6	268	7
2023-09-15T00:00	6872	434	-20.8	-26.7	270	7
2023-09-15T00:00	6904	432	-21.0	-26.9	272	7
2023-09-15T00:00	6928	430	-21.3	-27.2	275	7
2023-09-15T00:00	6958	428	-21.6	-27.4	278	7
2023-09-15T00:00	6994	426	-21.8	-27.6	281	7
2023-09-15T00:00	7033	424	-22.1	-28.6	283	7
2023-09-15T00:00	7058	423	-22.3	-28.6	284	7
2023-09-15T00:00	7086	421	-22.6	-28.7	285	7
2023-09-15T00:00	7116	419	-22.8	-29.0	284	7
2023-09-15T00:00	7138	418	-23.0	-29.2	284	7
2023-09-15T00:00	7159	417	-23.2	-29.3	285	7
2023-09-15T00:00	7182	416	-23.4	-29.7	286	7
2023-09-15T00:00	7209	414	-23.6	-30.0	287	7
2023-09-15T00:00	7242	412	-23.9	-30.7	288	8
2023-09-15T00:00	7267	411	-24.1	-31.3	290	8
2023-09-15T00:00	7292	409	-24.3	-31.9	293	8
2023-09-15T00:00	7314	408	-24.5	-32.0	296	8
2023-09-15T00:00	7340	407	-24.7	-31.7	299	9
2023-09-15T00:00	7372	405	-25.0	-31.8	299	9
2023-09-15T00:00	7397	403	-25.2	-31.9	298	9
2023-09-15T00:00	7428	402	-25.5	-31.8	295	9
2023-09-15T00:00	7458	400	-25.8	-32.0	291	10
2023-09-15T00:00	7491	398	-26.0	-32.6	288	10
2023-09-15T00:00	7509	397	-26.2	-32.4	286	10
2023-09-15T00:00	7541	396	-26.4	-32.4	285	10
2023-09-15T00:00	7562	394	-26.5	-33.6	285	9
2023-09-15T00:00	7583	393	-26.6	-34.3	285	9
2023-09-15T00:00	7601	392	-26.6	-33.7	285	10
2023-09-15T00:00	7625	391	-26.7	-36.1	286	10
2023-09-15T00:00	7659	389	-26.9	-38.1	287	10
2023-09-15T00:00	7689	388	-27.1	-37.7	289	11
2023-09-15T00:00	7713	386	-27.2	-37.7	292	11
2023-09-15T00:00	7744	385	-27.4	-37.9	295	11
2023-09-15T00:00	7767	383	-27.6	-38.7	297	10
2023-09-15T00:00	7787	382	-27.8	-38.2	297	10
2023-09-15T00:00	7810	381	-28.0	-37.9	297	10
2023-09-15T00:00	7839	380	-28.3	-38.0	296	10
2023-09-15T00:00	7865	378	-28.5	-38.9	296	9
2023-09-15T00:00	7892	377	-28.8	-38.1	296	9
2023-09-15T00:00	7914	376	-29.0	-38.1	298	9
2023-09-15T00:00	7936	374	-29.2	-38.1	300	9
2023-09-15T00:00	7966	373	-29.5	-38.2	302	10
2023-09-15T00:00	8000	371	-29.8	-38.6	301	10
2023-09-15T00:00	8023	370	-30.0	-38.7	300	11
2023-09-15T00:00	8045	369	-30.2	-38.9	297	11
2023-09-15T00:00	8067	368	-30.4	-38.9	294	11
2023-09-15T00:00	8091	366	-30.6	-39.2	292	11
2023-09-15T00:00	8121	365	-30.8	-38.8	290	11
2023-09-15T00:00	8149	363	-31.1	-38.8	289	11
2023-09-15T00:00	8172	362	-31.3	-38.6	289	12
2023-09-15T00:00	8195	361	-31.5	-37.7	290	12
2023-09-15T00:00	8232	359	-31.9	-37.6	291	12
2023-09-15T00:00	8265	358	-32.2	-37.9	291	12
2023-09-15T00:00	8295	356	-32.5	-37.8	291	12
2023-09-15T00:00	8322	355	-32.7	-37.9	288	12
2023-09-15T00:00	8352	353	-33.0	-37.9	285	11
2023-09-15T00:00	8392	351	-33.3	-38.4	281	11
2023-09-15T00:00	8424	349	-33.5	-39.6	278	10
2023-09-15T00:00	8455	348	-33.7	-40.1	278	10
2023-09-15T00:00	8493	346	-34.0	-40.3	279	10
2023-09-15T00:00	8515	345	-34.2		283	11
2023-09-15T00:00	8540	344	-34.5	-40.5	285	11
2023-09-15T00:00	8568	342	-34.7	-40.8	287	11
2023-09-15T00:00	8602	341	-35.0	-41.0	287	11
2023-09-15T00:00	8638	339	-35.3	-41.4	286	11
2023-09-15T00:00	8667	338	-35.6	-41.8	285	11
2023-09-15T00:00	8689	336	-35.7	-42.1	284	11
2023-09-15T00:00	8720	335	-36.0	-42.4	284	11
2023-09-15T00:00	8749	334	-36.2	-42.8	284	11
2023-09-15T00:00	8775	332	-36.4	-43.2	285	11
2023-09-15T00:00	8810	331	-36.7	-43.9	286	11
2023-09-15T00:00	8843	329	-37.0	-44.4	286	11
2023-09-15T00:00	8865	328	-37.2	-44.6	286	10
2023-09-15T00:00	8899	326	-37.4	-45.1	286	10
2023-09-15T00:00	8934	325	-37.7	-45.8	284	10
2023-09-15T00:00	8969	323	-37.9	-46.7	282	9
2023-09-15T00:00	8997	322	-38.1	-47.3	279	9
2023-09-15T00:00	9017	321	-38.2	-47.4	277	9
2023-09-15T00:00	9035	320	-38.4	-47.7	275	9
2023-09-15T00:00	9057	319	-38.5	-48.0	273	10
2023-09-15T00:00	9080	318	-38.7	-48.5	271	10
2023-09-15T00:00	9106	317	-38.9	-48.5	270	10
2023-09-15T00:00	9134	315	-39.1	-48.7	268	10
2023-09-15T00:00	9169	314	-39.4	-49.0	265	10
2023-09-15T00:00	9193	313	-39.6	-49.7	264	11
2023-09-15T00:00	9216	312	-39.7	-50.2	263	11
2023-09-15T00:00	9239	311	-39.9	-50.9	262	11
2023-09-15T00:00	9261	310	-40.0	-51.6	261	12
2023-09-15T00:00	9288	308	-40.3	-52.0	261	12
2023-09-15T00:00	9319	307	-40.5	-52.3	261	12
2023-09-15T00:00	9351	306	-40.8	-52.4	261	12
2023-09-15T00:00	9381	304	-41.1	-52.4	262	12
2023-09-15T00:00	9411	303	-41.4	-52.7	262	12
2023-09-15T00:00	9440	302	-41.7	-52.8	261	12
2023-09-15T00:00	9465	300	-41.9	-52.9	261	11
2023-09-15T00:00	9495	299	-42.2	-53.3	261	11
2023-09-15T00:00	9521	298	-42.4	-53.5	262	11
2023-09-15T00:00	9545	297	-42.6	-53.9	262	11
2023-09-15T00:00	9569	296	-42.7	-54.5	262	11
2023-09-15T00:00	9590	295	-42.9	-54.4	263	10
2023-09-15T00:00	9615	294	-43.1	-54.2	263	10
2023-09-15T00:00	9637	293	-43.3	-54.2	262	10
2023-09-15T00:00	9662	292	-43.5	-53.8	261	10
2023-09-15T00:00	9689	291	-43.8	-53.0	260	10
2023-09-15T00:00	9719	289	-44.0	-53.4	260	10
2023-09-15T00:00	9745	288	-44.3	-54.5	260	10
2023-09-15T00:00	9778	287	-44.5	-55.2	261	10
2023-09-15T00:00	9802	286	-44.8	-55.0	263	10
2023-09-15T00:00	9824	285	-45.0	-54.8	264	10
2023-09-15T00:00	9845	284	-45.2	-54.6	265	10
2023-09-15T00:00	9868	283	-45.4	-54.4	266	9
2023-09-15T00:00	9897	282	-45.6	-55.1	267	9
2023-09-15T00:00	9926	281	-45.8	-56.0	267	9
2023-09-15T00:00	9950	280	-46.0	-56.8	268	9
2023-09-15T00:00	9975	279	-46.1	-57.0	268	9
2023-09-15T00:00	9999	278	-46.4	-57.0	270	9
2023-09-15T00:00	10020	277	-46.6	-56.8	271	9
2023-09-15T00:00	10044	276	-46.8	-56.4	273	8
2023-09-15T00:00	10066	275	-47.0	-55.9	276	8
2023-09-15T00:00	10095	273	-47.3	-55.5	277	8
2023-09-15T00:00	10125	272	-47.6	-55.5	278	8
2023-09-15T00:00	10155	271	-47.8	-56.2	279	8
2023-09-15T00:00	10187	270	-48.0	-56.3	279	8
2023-09-15T00:00	10213	269	-48.3	-55.9	278	8
2023-09-15T00:00	10241	268	-48.6	-55.8	277	8
2023-09-15T00:00	10272	266	-48.9	-55.9	275	8
2023-09-15T00:00	10296	265	-49.1	-56.0	273	7
2023-09-15T00:00	10321	264	-49.3	-55.9	271	7
2023-09-15T00:00	10348	263	-49.6	-56.4	270	7
2023-09-15T00:00	10377	262	-49.8	-56.9	270	7
2023-09-15T00:00	10404	261	-50.0	-57.5	270	7
2023-09-15T00:00	10432	260	-50.2	-57.9	272	7
2023-09-15T00:00	10460	259	-50.5	-58.4	274	7
2023-09-15T00:00	10486	258	-50.7	-58.5	276	7
2023-09-15T00:00	10511	257	-50.9	-58.5	277	7
2023-09-15T00:00	10537	256	-51.1	-58.5	278	7
2023-09-15T00:00	10559	255	-51.3	-58.3	279	7
2023-09-15T00:00	10583	254	-51.5	-57.9	280	7
2023-09-15T00:00	10608	253	-51.8	-57.8	281	7
2023-09-15T00:00	10631	252	-52.0	-57.7	281	7
2023-09-15T00:00	10658	251	-52.2	-57.7	283	7
2023-09-15T00:00	10681	250	-52.5	-57.8	284	7
2023-09-15T00:00	10706	249	-52.7	-57.9	285	8
2023-09-15T00:00	10726	248	-52.9	-57.9	287	8
2023-09-15T00:00	10749	247	-53.1	-57.9	289	8
2023-09-15T00:00	10770	247	-53.3	-58.1	290	8
2023-09-15T00:00	10793	246	-53.5	-58.8	291	8
2023-09-15T00:00	10813	245	-53.5	-59.4	292	8
2023-09-15T00:00	10837	244	-53.7	-59.9	293	8
2023-09-15T00:00	10860	243	-53.9	-60.1	294	8
2023-09-15T00:00	10882	242	-54.1	-60.0	294	8
2023-09-15T00:00	10903	242	-54.3	-59.9	295	8
2023-09-15T00:00	10925	241	-54.5	-59.7	295	8
2023-09-15T00:00	10948	240	-54.7	-59.6	294	8
2023-09-15T00:00	10971	239	-54.9	-59.6	293	8
2023-09-15T00:00	10995	238	-55.1	-59.6	293	8
2023-09-15T00:00	11015	237	-55.3	-59.6	293	8
2023-09-15T00:00	11038	237	-55.5	-59.7	295	8
2023-09-15T00:00	11061	236	-55.8	-60.1	297	8
2023-09-15T00:00	11084	235	-55.9	-60.7	300	8
2023-09-15T00:00	11112	234	-56.1	-61.4	303	8
2023-09-15T00:00	11144	233	-56.3	-61.6	305	7
2023-09-15T00:00	11173	232	-56.5	-61.8	306	7
2023-09-15T00:00	11201	231	-56.7	-62.2	304	6
2023-09-15T00:00	11226	230	-56.9	-62.6	301	6
2023-09-15T00:00	11254	229	-57.1	-62.8	297	6
2023-09-15T00:00	11290	227	-57.3	-63.0	294	6
2023-09-15T00:00	11322	226	-57.5	-63.3	292	6
2023-09-15T00:00	11351	225	-57.7	-63.7	292	6
2023-09-15T00:00	11373	224	-57.9	-64.2	292	6
2023-09-15T00:00	11394	224	-58.0	-64.6	292	6
2023-09-15T00:00	11417	223	-58.2	-64.9	291	6
2023-09-15T00:00	11437	222	-58.4	-64.9	290	6
2023-09-15T00:00	11458	221	-58.5	-64.8	290	6
2023-09-15T00:00	11478	221	-58.6	-65.0	289	6
2023-09-15T00:00	11500	220	-58.7	-65.4	289	6
2023-09-15T00:00	11522	219	-58.8	-66.0	289	6
2023-09-15T00:00	11541	218	-59.0	-66.4	288	6
2023-09-15T00:00	11563	218	-59.1	-66.5	288	6
2023-09-15T00:00	11584	217	-59.3	-66.4	288	6
2023-09-15T00:00	11605	216	-59.4	-66.2	288	6
2023-09-15T00:00	11624	216	-59.6	-66.2	289	6
2023-09-15T00:00	11645	215	-59.8	-66.1	289	7
2023-09-15T00:00	11667	214	-60.0	-66.2	290	7
2023-09-15T00:00	11686	213	-60.1	-66.1	290	7
2023-09-15T00:00	11706	213	-60.3	-66.3	289	7
2023-09-15T00:00	11727	212	-60.4	-66.3	289	7
2023-09-15T00:00	11747	211	-60.6	-66.3	290	7
2023-09-15T00:00	11771	211	-60.8	-66.3	292	7
2023-09-15T00:00	11791	210	-61.0	-66.3	293	7
2023-09-15T00:00	11811	209	-61.0	-66.4	295	7
2023-09-15T00:00	11834	208	-60.9	-66.6	296	7
2023-09-15T00:00	11854	208	-60.9	-66.8	297	7
2023-09-15T00:00	11875	207	-60.8	-67.0	296	7
2023-09-15T00:00	11899	206	-60.9	-67.1	295	7
2023-09-15T00:00	11920	206	-61.0	-67.2	293	7
2023-09-15T00:00	11943	205	-61.1	-67.2	291	7
2023-09-15T00:00	11964	204	-61.3	-67.3	290	7
2023-09-15T00:00	11984	203	-61.5	-67.5	289	7
2023-09-15T00:00	12005	203	-61.7	-67.6	288	7
2023-09-15T00:00	12028	202	-61.8	-67.4	287	7
2023-09-15T00:00	12050	201	-61.9	-67.3	288	8
2023-09-15T00:00	12072	201	-61.7	-67.0	289	8
2023-09-15T00:00	12099	200	-61.5	-66.8	291	8
2023-09-15T00:00	12124	199	-61.4	-66.5	294	8
2023-09-15T00:00	12151	198	-61.6	-66.5	296	8
2023-09-15T00:00	12181	197	-61.8	-66.4	299	8
2023-09-15T00:00	12207	196	-61.9	-66.3	299	7
2023-09-15T00:00	12239	195	-62.2	-66.4	297	7
2023-09-15T00:00	12278	194	-62.4	-66.6	293	7
2023-09-15T00:00	12307	193	-62.4	-66.8	289	7
2023-09-15T00:00	12336	192	-62.1	-67.0	287	8
2023-09-15T00:00	12365	191	-62.1	-67.7	287	9
2023-09-15T00:00	12397	190	-62.1	-68.8	288	10
2023-09-15T00:00	12426	189	-61.5	-69.7	289	10
2023-09-15T00:00	12448	189	-60.3	-70.6	289	11
2023-09-15T00:00	12472	188	-59.3	-71.6	288	11
2023-09-15T00:00	12492	187	-58.4	-72.1	287	12
2023-09-15T00:00	12513	187	-57.6	-71.7	287	12
2023-09-15T00:00	12536	186	-57.6	-71.8	288	12
2023-09-15T00:00	12557	185	-57.6	-71.9	290	13
2023-09-15T00:00	12580	185	-57.4	-71.8	293	12
2023-09-15T00:00	12599	184	-57.4	-71.6	295	12
2023-09-15T00:00	12620	184	-57.6	-71.5	297	12
2023-09-15T00:00	12642	183	-57.7	-71.2	299	12
2023-09-15T00:00	12663	182	-57.7	-70.8	299	11
2023-09-15T00:00	12684	182	-57.7	-70.6	298	11
2023-09-15T00:00	12706	181	-57.7	-70.6	297	10
2023-09-15T00:00	12728	181	-57.5	-70.7	294	10
2023-09-15T00:00	12749	180	-57.1	-70.9	292	9
2023-09-15T00:00	12774	179	-57.0	-71.5	287	8
2023-09-15T00:00	12800	178	-57.0	-72.2	283	8
2023-09-15T00:00	12828	178	-57.0	-72.6	278	8
2023-09-15T00:00	12852	177	-56.9	-72.9	274	8
2023-09-15T00:00	12874	176	-56.9	-73.1	271	8
2023-09-15T00:00	12893	176	-57.1	-73.3	269	8
2023-09-15T00:00	12917	175	-57.2	-73.5	268	8
2023-09-15T00:00	12937	175	-57.0	-73.7	268	8
2023-09-15T00:00	12961	174	-57.0	-74.0	268	9
2023-09-15T00:00	12978	173	-57.0	-74.4	269	9
2023-09-15T00:00	13001	173	-57.1	-74.8	269	10
2023-09-15T00:00	13022	172	-57.0	-75.2	270	10
2023-09-15T00:00	13041	172	-56.7	-75.7	270	10
2023-09-15T00:00	13061	171	-56.6	-76.5	270	11
2023-09-15T00:00	13083	171	-56.7	-77.4	270	11
2023-09-15T00:00	13102	170	-56.3	-77.7	270	11
2023-09-15T00:00	13123	170	-55.9	-77.8	270	11
2023-09-15T00:00	13142	169	-55.7	-77.8	270	11
2023-09-15T00:00	13164	169	-55.6	-77.9	270	11
2023-09-15T00:00	13185	168	-55.5	-77.8	270	11
2023-09-15T00:00	13206	167	-55.5	-77.9	270	11
2023-09-15T00:00	13227	167	-55.7	-78.3	270	12
2023-09-15T00:00	13246	166	-55.7	-78.3	270	12
2023-09-15T00:00	13265	166	-55.6	-78.4	270	12
2023-09-15T00:00	13286	165	-55.4	-78.2	270	12
2023-09-15T00:00	13307	165	-55.2	-78.2	270	12
2023-09-15T00:00	13327	164	-55.3	-78.3	270	12
2023-09-15T00:00	13347	164	-55.4	-78.4	271	12
2023-09-15T00:00	13368	163	-55.3	-78.5	271	12
2023-09-15T00:00	13389	163	-55.2	-78.4	272	12
2023-09-15T00:00	13408	162	-55.0	-78.4	273	12
2023-09-15T00:00	13427	162	-54.7	-78.5	273	12
2023-09-15T00:00	13448	161	-54.4	-78.7	273	12
2023-09-15T00:00	13471	161	-54.2	-79.2	273	12
2023-09-15T00:00	13489	160	-53.9	-79.4	273	11
2023-09-15T00:00	13509	160	-53.7	-79.8	273	11
2023-09-15T00:00	13530	159	-53.6	-79.7	273	11
2023-09-15T00:00	13549	159	-53.3	-79.7	274	11
2023-09-15T00:00	13571	158	-53.2	-79.7	275	10
2023-09-15T00:00	13595	158	-53.1	-79.6	277	10
2023-09-15T00:00	13614	157	-53.3	-79.7	278	10
2023-09-15T00:00	13637	157	-53.4	-79.8	279	10
2023-09-15T00:00	13657	156	-53.5	-79.9	277	10
2023-09-15T00:00	13681	155	-53.5	-79.9	275	10
2023-09-15T00:00	13703	155	-53.6	-80.0	271	10
2023-09-15T00:00	13725	154	-53.6	-79.7	268	10
2023-09-15T00:00	13747	154	-53.8	-79.8	265	10
2023-09-15T00:00	13771	153	-54.0	-80.0	263	10
2023-09-15T00:00	13793	153	-54.2	-79.9	262	11
2023-09-15T00:00	13815	152	-54.4	-80.1	261	11
2023-09-15T00:00	13839	152	-54.6	-80.2	261	11
2023-09-15T00:00	13857	151	-54.7	-80.3	260	11
2023-09-15T00:00	13877	151	-54.7	-80.3	261	11
2023-09-15T00:00	13900	150	-54.7	-80.3	261	11
2023-09-15T00:00	13920	150	-54.7	-80.3	262	12
2023-09-15T00:00	13942	149	-54.8	-80.4	263	12
2023-09-15T00:00	13962	149	-54.9	-80.4	264	12
2023-09-15T00:00	13983	148	-55.0	-80.5	264	12
2023-09-15T00:00	14006	148	-55.1	-80.6	263	12
2023-09-15T00:00	14026	147	-55.1	-80.6	262	12
2023-09-15T00:00	14047	147	-55.2	-80.7	262	12
2023-09-15T00:00	14069	146	-55.3	-80.8	262	13
2023-09-15T00:00	14090	146	-55.4	-80.6	262	13
2023-09-15T00:00	14112	145	-55.5	-80.7	263	13
2023-09-15T00:00	14134	145	-55.6	-80.8	264	13
2023-09-15T00:00	14154	144	-55.7	-80.8	265	13
2023-09-15T00:00	14173	144	-55.8	-80.9	266	13
2023-09-15T00:00	14194	143	-55.8	-80.9	267	13
2023-09-15T00:00	14217	143	-55.8	-80.9	267	13
2023-09-15T00:00	14240	142	-55.8	-80.9	268	12
2023-09-15T00:00	14261	142	-55.8	-80.9	268	12
2023-09-15T00:00	14282	142	-55.8	-80.9	268	12
2023-09-15T00:00	14302	141	-55.9	-81.2	268	12
2023-09-15T00:00	14325	141	-55.6	-81.0	268	12
2023-09-15T00:00	14347	140	-55.6	-81.0	268	13
2023-09-15T00:00	14367	140	-55.7	-81.1	267	13
2023-09-15T00:00	14387	139	-55.9	-81.2	266	13
2023-09-15T00:00	14410	139	-55.9	-81.2	266	13
2023-09-15T00:00	14430	138	-55.9	-81.2	265	13
2023-09-15T00:00	14453	138	-55.9	-81.2	264	13
2023-09-15T00:00	14473	137	-56.1	-81.1	263	13
2023-09-15T00:00	14497	137	-56.1	-81.1	263	13
2023-09-15T00:00	14517	136	-56.1	-81.1	263	12
2023-09-15T00:00	14539	136	-56.1	-81.1	263	12
2023-09-15T00:00	14562	135	-56.0	-81.1	264	12
2023-09-15T00:00	14583	135	-56.1	-81.1	265	11
2023-09-15T00:00	14604	134	-56.2	-81.2	267	11
2023-09-15T00:00	14625	134	-56.2	-81.2	269	11
2023-09-15T00:00	14647	134	-56.3	-81.3	270	11
2023-09-15T00:00	14669	133	-56.4	-81.4	272	11
2023-09-15T00:00	14692	133	-56.4	-81.4	273	11
2023-09-15T00:00	14714	132	-56.3	-81.3	273	11
2023-09-15T00:00	14735	132	-56.2	-81.2	273	11
2023-09-15T00:00	14756	131	-56.3	-81.3	271	11
2023-09-15T00:00	14778	131	-56.2	-81.2	270	11
2023-09-15T00:00	14802	130	-56.3	-81.3	269	11
2023-09-15T00:00	14820	130	-56.3	-81.3	269	11
2023-09-15T00:00	14844	130	-56.5	-81.5	269	11
2023-09-15T00:00	14866	129	-56.6	-81.5	270	11
2023-09-15T00:00	14889	129	-56.6	-81.5	271	11
2023-09-15T00:00	14909	128	-56.6	-81.5	272	11
2023-09-15T00:00	14931	128	-56.6	-81.5	273	11
2023-09-15T00:00	14953	127	-56.6	-81.5	272	11
2023-09-15T00:00	14974	127	-56.7	-81.9	271	11
2023-09-15T00:00	14996	126	-56.6	-81.8	269	11
2023-09-15T00:00	15015	126	-56.5	-81.7	267	11
2023-09-15T00:00	15039	126	-56.5	-81.7	265	11
2023-09-15T00:00	15061	125	-56.5	-81.7	263	11
2023-09-15T00:00	15081	125	-56.6	-81.8	261	11
2023-09-15T00:00	15102	124	-56.7	-81.9	259	11
2023-09-15T00:00	15125	124	-56.8	-81.9	258	11
2023-09-15T00:00	15151	123	-56.7	-81.9	257	11
2023-09-15T00:00	15171	123	-56.6	-81.8	256	12
2023-09-15T00:00	15195	123	-56.7	-81.9	256	12
2023-09-15T00:00	15215	122	-56.6	-81.8	257	12
2023-09-15T00:00	15238	122	-56.7	-81.9	259	11
2023-09-15T00:00	15261	121	-56.8	-82.2	260	11
2023-09-15T00:00	15282	121	-56.6	-82.0	263	11
2023-09-15T00:00	15304	120	-56.5	-82.0	266	11
2023-09-15T00:00	15327	120	-56.5	-82.0	269	11
2023-09-15T00:00	15350	120	-56.6	-82.0	272	11
2023-09-15T00:00	15373	119	-56.7	-82.1	274	11
2023-09-15T00:00	15396	119	-56.8	-81.9	277	11
2023-09-15T00:00	15418	118	-57.0	-82.1	279	10
2023-09-15T00:00	15438	118	-57.1	-82.2	280	10
2023-09-15T00:00	15459	118	-57.1	-82.2	280	9
2023-09-15T00:00	15483	117	-57.1	-82.2	279	9
2023-09-15T00:00	15503	117	-57.2	-82.2	278	9
2023-09-15T00:00	15524	116	-57.3	-82.3	275	9
2023-09-15T00:00	15545	116	-57.3	-82.3	273	9
2023-09-15T00:00	15564	116	-57.2	-82.5	271	9
2023-09-15T00:00	15590	115	-57.1	-82.4	269	9
2023-09-15T00:00	15610	115	-57.2	-82.5	268	9
2023-09-15T00:00	15630	114	-57.2	-82.5	268	10
2023-09-15T00:00	15651	114	-57.3	-82.3	268	10
2023-09-15T00:00	15673	114	-57.5	-82.5	269	10
2023-09-15T00:00	15696	113	-57.6	-82.6	270	11
2023-09-15T00:00	15716	113	-57.7	-82.6	271	11
2023-09-15T00:00	15738	112	-57.8	-82.7	271	12
2023-09-15T00:00	15760	112	-57.5	-82.5	271	12
2023-09-15T00:00	15778	112	-57.6	-82.6	271	12
2023-09-15T00:00	15798	111	-57.7	-82.6	271	12
2023-09-15T00:00	15821	111	-57.7	-82.6	271	12
2023-09-15T00:00	15843	111	-57.6	-82.6	271	11
2023-09-15T00:00	15864	110	-57.6	-82.6	271	11
2023-09-15T00:00	15885	110	-57.7	-82.6	271	10
2023-09-15T00:00	15906	110	-57.8	-82.7	270	10
2023-09-15T00:00	15927	109	-57.9	-82.8	269	9
2023-09-15T00:00	15946	109	-57.9	-82.8	268	9
2023-09-15T00:00	15967	108	-57.9	-82.8	266	8
2023-09-15T00:00	15992	108	-58.0	-82.9	264	8
2023-09-15T00:00	16011	108	-58.0	-82.9	263	7
2023-09-15T00:00	16035	107	-58.0	-82.9	262	7
2023-09-15T00:00	16055	107	-58.0	-83.1	262	8
2023-09-15T00:00	16077	107	-57.8	-83.0	262	8
2023-09-15T00:00	16099	106	-57.7	-82.9	263	8
2023-09-15T00:00	16120	106	-57.8	-83.0	264	9
2023-09-15T00:00	16141	106	-57.9	-83.0	265	9
2023-09-15T00:00	16165	105	-58.0	-82.9	267	10
2023-09-15T00:00	16188	105	-58.2	-83.0	269	11
2023-09-15T00:00	16210	104	-58.3	-83.1	271	11
2023-09-15T00:00	16231	104	-58.4	-83.2	273	12
2023-09-15T00:00	16253	104	-58.5	-83.3	275	13
2023-09-15T00:00	16274	103	-58.5	-83.3	276	13
2023-09-15T00:00	16295	103	-58.3		277	13
2023-09-15T00:00	16315	103	-58.2	-83.3	278	13
2023-09-15T00:00	16338	102	-58.1	-83.5	278	12
2023-09-15T00:00	16363	102	-57.9	-83.3	279	12
2023-09-15T00:00	16384	102	-57.9	-83.3	279	11
2023-09-15T00:00	16403	101	-57.9	-83.6	279	10
2023-09-15T00:00	16427	101	-57.8	-83.5	279	10
2023-09-15T00:00	16452	100	-57.8	-83.5	278	10
2023-09-15T00:00	16471	100	-57.8	-83.8	277	10
2023-09-15T00:00	16492	100	-57.7	-83.7	276	10
2023-09-15T00:00	16515	99	-57.5	-83.6	276	10
2023-09-15T00:00	16536	99	-57.6	-83.9	276	10
2023-09-15T00:00	16557	99	-57.7	-84.0	276	10
2023-09-15T00:00	16578	98	-57.8	-84.1	275	10
2023-09-15T00:00	16602	98	-57.8	-84.1	273	10
2023-09-15T00:00	16624	98	-57.7	-84.0	270	9
2023-09-15T00:00	16646	97	-57.4	-84.1	266	9
2023-09-15T00:00	16668	97	-57.4	-84.1	262	8
2023-09-15T00:00	16692	97	-57.4	-84.1	258	9
2023-09-15T00:00	16712	96	-57.4	-84.1	255	9
2023-09-15T00:00	16738	96	-57.4	-84.1	253	9
2023-09-15T00:00	16760	96	-57.4	-84.1	252	10
2023-09-15T00:00	16782	95	-57.6	-84.3	252	10
2023-09-15T00:00	16802	95	-57.6	-84.3	253	10
2023-09-15T00:00	16827	95	-57.7	-84.3	254	11
2023-09-15T00:00	16849	94	-57.9	-84.5	256	11
2023-09-15T00:00	16874	94	-57.9	-84.5	257	11
2023-09-15T00:00	16896	94	-57.9	-84.5	259	11
2023-09-15T00:00	16918	93	-58.0	-84.6	260	11
2023-09-15T00:00	16942	93	-58.0	-84.6	261	11
2023-09-15T00:00	16964	93	-58.0	-84.6	262	11
2023-09-15T00:00	16988	92	-57.9	-84.5	262	12
2023-09-15T00:00	17010	92	-57.8	-84.7	263	12
2023-09-15T00:00	17033	92	-57.7	-84.7	264	12
2023-09-15T00:00	17056	91	-57.7	-84.7	264	13
2023-09-15T00:00	17080	91	-57.8	-84.7	265	13
2023-09-15T00:00	17104	91	-57.9	-84.5	266	14
2023-09-15T00:00	17126	90	-58.0	-84.6	268	14
2023-09-15T00:00	17147	90	-58.2	-84.7	269	14
2023-09-15T00:00	17170	90	-58.2	-84.7	270	14
2023-09-15T00:00	17194	89	-58.1	-84.6	272	14
2023-09-15T00:00	17218	89	-58.2	-84.7	274	14
2023-09-15T00:00	17240	89	-58.4	-84.9	276	14
2023-09-15T00:00	17261	88	-58.4	-84.9	277	13
2023-09-15T00:00	17285	88	-58.6	-85.0	278	13
2023-09-15T00:00	17308	88	-58.6	-85.0	280	12
2023-09-15T00:00	17330	87	-58.7	-85.1	280	12
2023-09-15T00:00	17353	87	-58.7	-85.1	281	11
2023-09-15T00:00	17378	87	-58.6	-85.0	281	10
2023-09-15T00:00	17400	86	-58.4	-85.2	281	9
2023-09-15T00:00	17424	86	-58.2	-85.0	280	9
2023-09-15T00:00	17443	86	-58.2	-85.0	280	8
2023-09-15T00:00	17467	85	-58.1	-85.3	279	8
2023-09-15T00:00	17489	85	-57.9	-85.2	280	8
2023-09-15T00:00	17510	85	-57.7	-85.0	280	8
2023-09-15T00:00	17534	85	-57.3	-84.7	280	8
2023-09-15T00:00	17557	84	-57.4	-85.2	280	8
2023-09-15T00:00	17580	84	-57.4	-85.2	280	8
2023-09-15T00:00	17607	84	-57.5	-84.9	280	8
2023-09-15T00:00	17629	83	-57.6	-84.9	280	8
2023-09-15T00:00	17648	83	-57.7	-85.0	280	8
2023-09-15T00:00	17673	83	-57.7	-85.0	280	8
2023-09-15T00:00	17695	82	-57.7	-85.0	280	7
2023-09-15T00:00	17719	82	-57.9	-85.2	280	7
2023-09-15T00:00	17743	82	-57.9	-85.2	282	7
2023-09-15T00:00	17764	82	-57.6	-85.3	284	7
2023-09-15T00:00	17792	81	-57.5	-85.2	286	7
2023-09-15T00:00	17814	81	-57.3	-85.1	288	7
2023-09-15T00:00	17838	81	-57.3	-85.1	290	7
2023-09-15T00:00	17857	80	-57.4	-85.2	291	7
2023-09-15T00:00	17882	80	-57.6	-85.3	292	6
2023-09-15T00:00	17905	80	-57.7	-85.0	292	6
2023-09-15T00:00	17928	79	-57.8	-85.1	291	6
2023-09-15T00:00	17953	79	-57.8	-85.1	288	5
2023-09-15T00:00	17978	79	-57.9	-85.2	283	5
2023-09-15T00:00	18002	79	-58.0	-85.2	277	5
2023-09-15T00:00	18027	78	-57.9	-85.5	270	5
2023-09-15T00:00	18051	78	-57.7	-85.4	265	6
2023-09-15T00:00	18071	78	-57.8	-85.5	261	6
2023-09-15T00:00	18098	77	-57.9	-85.5	260	7
2023-09-15T00:00	18118	77	-58.0	-85.6	259	7
2023-09-15T00:00	18142	77	-58.1	-85.3	259	8
2023-09-15T00:00	18166	77	-58.2	-85.8	260	8
2023-09-15T00:00	18189	76	-58.0	-85.6	260	8
2023-09-15T00:00	18211	76	-58.0	-85.6	260	8
2023-09-15T00:00	18236	76	-57.9	-85.5	259	7
2023-09-15T00:00	18256	75	-57.7	-85.4	258	7
2023-09-15T00:00	18281	75	-57.7	-85.4	257	7
2023-09-15T00:00	18305	75	-57.8	-85.5	256	7
2023-09-15T00:00	18327	75	-57.9	-85.5	255	7
2023-09-15T00:00	18350	74	-57.9	-85.5	254	7
2023-09-15T00:00	18372	74	-57.8	-85.5	253	7
2023-09-15T00:00	18396	74	-57.6	-85.3	252	7
2023-09-15T00:00	18417	74	-57.6	-85.3	251	7
2023-09-15T00:00	18444	73	-57.7	-85.4	250	6
2023-09-15T00:00	18464	73	-57.8	-85.5	249	6
2023-09-15T00:00	18483	73	-57.8	-85.5	250	6
2023-09-15T00:00	18507	72	-57.8	-85.5	252	7
2023-09-15T00:00	18532	72	-57.6	-85.7	254	7
2023-09-15T00:00	18553	72	-57.7	-85.8	256	7
2023-09-15T00:00	18576	72	-57.8	-85.9	258	7
2023-09-15T00:00	18596	71	-57.5	-85.6	259	7
2023-09-15T00:00	18618	71	-57.3	-85.5	259	7
2023-09-15T00:00	18641	71	-57.0	-85.2	258	7
2023-09-15T00:00	18665	71	-57.2	-85.4	257	7
2023-09-15T00:00	18686	70	-57.2	-85.8	255	7
2023-09-15T00:00	18708	70	-57.2	-85.8	254	7
2023-09-15T00:00	18729	70	-56.9	-85.6	252	8
2023-09-15T00:00	18752	70	-56.8	-85.5	252	8
2023-09-15T00:00	18776	69	-56.6	-85.4	252	8
2023-09-15T00:00	18797	69	-56.5	-85.3	252	9
2023-09-15T00:00	18819	69	-56.5	-85.3	253	9
2023-09-15T00:00	18844	69	-56.7	-85.4	254	10
2023-09-15T00:00	18865	69	-56.8	-85.1	254	10
2023-09-15T00:00	18885	68	-56.9	-85.2	255	11
2023-09-15T00:00	18908	68	-57.0	-85.2	256	11
2023-09-15T00:00	18933	68	-57.1	-85.3	258	11
2023-09-15T00:00	18956	68	-57.2	-85.4	259	11
2023-09-15T00:00	18975	67	-57.2	-85.4	260	11
2023-09-15T00:00	18998	67	-57.3	-85.5	260	10
2023-09-15T00:00	19022	67	-57.4	-85.6	259	10
2023-09-15T00:00	19038	67	-57.3	-85.5	257	9
2023-09-15T00:00	19064	66	-57.3	-85.5	254	9
2023-09-15T00:00	19084	66	-57.3	-85.5	252	8
2023-09-15T00:00	19107	66	-57.1	-85.7	249	8
2023-09-15T00:00	19126	66	-56.9	-85.6	246	7
2023-09-15T00:00	19149	65	-56.8	-85.5	242	7
2023-09-15T00:00	19175	65	-56.8	-85.5	238	7
2023-09-15T00:00	19195	65	-56.6	-85.4	233	6
2023-09-15T00:00	19218	65	-56.5	-85.3	229	6
2023-09-15T00:00	19243	65	-56.5	-85.3	226	6
2023-09-15T00:00	19268	64	-56.5	-85.3	224	6
2023-09-15T00:00	19291	64	-56.5	-85.3	224	6
2023-09-15T00:00	19316	64	-56.3	-85.1	227	5
2023-09-15T00:00	19339	64	-56.1	-85.0	231	5
2023-09-15T00:00	19360	63	-56.2	-85.1	236	5
2023-09-15T00:00	19387	63	-56.2	-85.1	242	5
2023-09-15T00:00	19409	63	-56.1	-85.5	247	5
2023-09-15T00:00	19431	63	-55.9	-85.3	252	5
2023-09-15T00:00	19456	62	-55.9	-85.3	256	5
2023-09-15T00:00	19481	62	-55.9	-84.8	259	5
2023-09-15T00:00	19506	62	-56.0	-84.9	261	4
2023-09-15T00:00	19527	62	-56.2	-85.1	262	4
2023-09-15T00:00	19549	61	-56.2	-85.1	261	4
2023-09-15T00:00	19575	61	-56.2	-85.1	257	4
2023-09-15T00:00	19596	61	-56.3	-85.1	252	3
2023-09-15T00:00	19623	61	-56.4	-85.2	246	3
2023-09-15T00:00	19647	61	-56.5	-85.3	238	3
2023-09-15T00:00	19669	60	-56.5	-85.3	228	4
2023-09-15T00:00	19693	60	-56.4	-85.2	222	4
2023-09-15T00:00	19718	60	-56.4	-85.2	219	5
2023-09-15T00:00	19739	60	-56.6	-85.4	218	5
2023-09-15T00:00	19764	59	-56.8	-85.1	217	6
2023-09-15T00:00	19787	59	-56.9	-85.2	217	6
2023-09-15T00:00	19815	59	-57.1	-85.3	218	7
2023-09-15T00:00	19838	59	-57.2	-85.4	220	7
2023-09-15T00:00	19861	59	-57.3	-85.5	223	8
2023-09-15T00:00	19886	58	-57.3	-85.5	225	8
2023-09-15T00:00	19907	58	-57.5	-85.6	229	8
2023-09-15T00:00	19930	58	-57.6	-85.7	231	8
2023-09-15T00:00	19953	58	-57.3	-85.9	234	7
2023-09-15T00:00	19980	57	-57.1	-85.7	236	7
2023-09-15T00:00	20003	57	-57.1	-85.7	237	7
2023-09-15T00:00	20027	57	-57.1	-85.7	239	7
2023-09-15T00:00	20052	57	-57.1	-85.7	240	7
2023-09-15T00:00	20079	57	-57.0	-85.7	241	6
2023-09-15T00:00	20102	56	-57.0	-85.7	241	6
2023-09-15T00:00	20127	56	-57.1	-85.7	242	6
2023-09-15T00:00	20156	56	-57.1	-85.7	242	6
2023-09-15T00:00	20178	56	-57.1	-85.7	242	6
2023-09-15T00:00	20205	55	-57.0	-85.7	241	6
2023-09-15T00:00	20227	55	-57.1	-85.7	241	6
2023-09-15T00:00	20251	55	-57.2	-85.8	240	6
2023-09-15T00:00	20277	55	-57.2	-85.8	239	6
2023-09-15T00:00	20302	55	-57.1	-85.7	239	7
2023-09-15T00:00	20328	54	-57.2	-85.8	239	7
2023-09-15T00:00	20352	54	-57.1	-85.7	240	7
2023-09-15T00:00	20380	54	-56.9	-85.6	241	8
2023-09-15T00:00	20399	54	-56.9	-85.6	243	8
2023-09-15T00:00	20425	54	-56.7	-85.4	244	9
2023-09-15T00:00	20452	53	-56.6	-85.4	246	9
2023-09-15T00:00	20471	53	-56.6	-85.4	248	9
2023-09-15T00:00	20496	53	-56.7	-85.4	249	10
2023-09-15T00:00	20523	53	-56.7	-85.4	250	10
2023-09-15T00:00	20544	53	-56.7	-85.4	251	10
2023-09-15T00:00	20572	52	-56.8	-85.5	252	11
2023-09-15T00:00	20600	52	-56.9	-85.6	252	10
2023-09-15T00:00	20623	52	-57.1	-85.7	253	10
2023-09-15T00:00	20649	52	-57.3	-85.9	254	10
2023-09-15T00:00	20677	51	-57.2	-85.8	255	9
2023-09-15T00:00	20703	51	-57.0	-85.7	258	8
2023-09-15T00:00	20729	51	-57.2	-85.8	263	8
2023-09-15T00:00	20749	51	-57.2	-85.8	268	7
2023-09-15T00:00	20776	51	-57.3	-85.9	274	7
2023-09-15T00:00	20800	50	-57.3	-85.9	280	6
2023-09-15T00:00	20827	50	-57.3	-85.9	285	6
2023-09-15T00:00	20850	50	-57.4	-86.0	286	5
2023-09-15T00:00	20875	50	-57.2	-85.8	283	5
2023-09-15T00:00	20899	50	-56.9	-85.6	279	6
2023-09-15T00:00	20926	49	-56.6	-85.8	274	6
2023-09-15T00:00	20951	49	-56.5	-85.8	270	6
2023-09-15T00:00	20972	49	-56.6	-85.8	268	7
2023-09-15T00:00	20999	49	-56.6	-85.4	267	7
2023-09-15T00:00	21022	49	-56.7	-85.4	267	8
2023-09-15T00:00	21055	49	-56.7	-85.4	269	9
2023-09-15T00:00	21079	48	-56.9	-85.6	271	9
2023-09-15T00:00	21104	48	-57.0	-85.7	273	9
2023-09-15T00:00	21128	48	-57.0	-85.7	276	10
2023-09-15T00:00	21148	48	-56.8	-85.5	280	10
2023-09-15T00:00	21180	48	-56.7	-85.4	284	9
2023-09-15T00:00	21199	47	-56.7	-85.9	288	9
2023-09-15T00:00	21227	47	-56.6	-85.8	294	9
2023-09-15T00:00	21251	47	-56.5	-85.8	300	8
2023-09-15T00:00	21275	47	-56.4	-85.7	306	8
2023-09-15T00:00	21298	47	-56.1	-85.5	312	7
2023-09-15T00:00	21325	46	-56.1	-85.5	318	7
2023-09-15T00:00	21348	46	-56.1	-85.5	322	6
2023-09-15T00:00	21381	46	-56.1	-85.5	325	5
2023-09-15T00:00	21397	46	-56.1	-85.5	327	5
2023-09-15T00:00	21423	46	-55.8	-85.2	326	4
2023-09-15T00:00	21451	46	-55.9	-85.3	325	4
2023-09-15T00:00	21479	45	-55.9	-85.3	321	4
2023-09-15T00:00	21504	45	-56.0		318	4
2023-09-15T00:00	21527	45	-55.9	-85.3	316	4
2023-09-15T00:00	21550	45	-55.8	-85.2	315	4
2023-09-15T00:00	21579	45	-55.8	-85.2	315	4
2023-09-15T00:00	21604	45	-55.8	-85.2	316	3
2023-09-15T00:00	21628	44	-55.8	-85.2	316	3
2023-09-15T00:00	21651	44	-55.9	-85.3	317	3
2023-09-15T00:00	21676	44	-56.0		316	3
2023-09-15T00:00	21708	44	-56.1	-85.5	316	3
2023-09-15T00:00	21727	44	-56.1	-85.5	316	3
2023-09-15T00:00	21755	43	-56.0		318	3
2023-09-15T00:00	21774	43	-55.8	-85.2	319	3
2023-09-15T00:00	21803	43	-55.7	-85.2	321	3
2023-09-15T00:00	21826	43	-55.7	-85.2	320	2
2023-09-15T00:00	21854	43	-55.6	-85.1	315	2
2023-09-15T00:00	21877	43	-55.7	-85.2	304	2
2023-09-15T00:00	21903	42	-55.9	-85.3	287	2
2023-09-15T00:00	21929	42	-56.0		273	2
2023-09-15T00:00	21957	42	-56.1	-85.5	265	2
2023-09-15T00:00	21985	42	-56.1	-85.0	261	3
2023-09-15T00:00	22009	42	-56.2	-85.1	258	3
2023-09-15T00:00	22034	42	-56.4	-85.2	255	4
2023-09-15T00:00	22056	41	-56.5	-85.3	253	4
2023-09-15T00:00	22086	41	-56.6	-85.4	252	5
2023-09-15T00:00	22105	41	-56.5	-85.8	255	5
2023-09-15T00:00	22135	41	-56.5	-85.8	260	5
2023-09-15T00:00	22160	41	-56.3	-85.6	267	5
2023-09-15T00:00	22188	41	-56.1	-85.5	275	5
2023-09-15T00:00	22213	40	-56.1	-85.5	283	5
2023-09-15T00:00	22238	40	-56.0		289	5
2023-09-15T00:00	22261	40	-56.1	-85.5	293	6
2023-09-15T00:00	22292	40	-56.1	-85.5	294	6
2023-09-15T00:00	22314	40	-56.2	-85.5	294	6
2023-09-15T00:00	22341	40	-56.2	-85.5	293	6
2023-09-15T00:00	22370	39	-56.2	-85.5	293	6
2023-09-15T00:00	22393	39	-56.3	-85.6	293	6
2023-09-15T00:00	22418	39	-56.2	-85.5	294	6
2023-09-15T00:00	22451	39	-56.2	-85.5	296	7
2023-09-15T00:00	22472	39	-56.3	-85.6	299	7
2023-09-15T00:00	22500	39	-56.2	-85.5	301	7
2023-09-15T00:00	22525	39	-56.1	-85.5	304	7
2023-09-15T00:00	22547	38	-56.2	-85.5	306	6
2023-09-15T00:00	22575	38	-56.3	-85.6	308	6
2023-09-15T00:00	22601	38	-56.3	-85.6	309	6
2023-09-15T00:00	22626	38	-56.0		309	5
2023-09-15T00:00	22652	38	-55.8	-85.7	309	5
2023-09-15T00:00	22672	38	-55.9	-85.8	307	4
2023-09-15T00:00	22706	37	-55.9	-85.8	303	4
2023-09-15T00:00	22735	37	-55.9	-85.8	299	3
2023-09-15T00:00	22761	37	-56.0		292	3
2023-09-15T00:00	22784	37	-55.9	-85.3	286	3
2023-09-15T00:00	22813	37	-56.0		282	2
2023-09-15T00:00	22841	37	-56.1	-85.5	279	2
2023-09-15T00:00	22860	37	-56.1	-85.5	276	2
2023-09-15T00:00	22886	36	-56.1	-85.5	271	2
2023-09-15T00:00	22909	36	-56.2	-85.5	265	3
2023-09-15T00:00	22933	36	-56.2	-85.5	259	3
2023-09-15T00:00	22967	36	-56.1	-85.5	254	4
2023-09-15T00:00	22983	36	-56.0		250	4
2023-09-15T00:00	23014	36	-56.0	-85.9	248	4
2023-09-15T00:00	23039	35	-55.7	-85.7	247	3
2023-09-15T00:00	23065	35	-55.6	-85.6	245	3
2023-09-15T00:00	23096	35	-55.5	-85.5	242	2
2023-09-15T00:00	23124	35	-55.4	-85.4	234	2
2023-09-15T00:00	23146	35	-55.3	-85.4	216	1
2023-09-15T00:00	23178	35	-55.2	-85.3	184	1
2023-09-15T00:00	23200	35	-55.1	-85.2	162	1
2023-09-15T00:00	23226	34	-55.2	-85.3	160	1
2023-09-15T00:00	23254	34	-54.9	-85.1	165	2
2023-09-15T00:00	23279	34	-54.8	-85.0	175	2
2023-09-15T00:00	23297	34	-54.9	-85.1	188	2
2023-09-15T00:00	23324	34	-55.1	-85.2	199	2
2023-09-15T00:00	23350	34	-55.2	-85.3	208	3
2023-09-15T00:00	23381	34	-55.4	-85.4	213	3
2023-09-15T00:00	23403	34	-55.3	-85.4	217	4
2023-09-15T00:00	23428	33	-55.3	-85.4	220	4
2023-09-15T00:00	23458	33	-55.4	-85.4	223	4
2023-09-15T00:00	23486	33	-55.4	-85.4	227	5
2023-09-15T00:00	23501	33	-55.6	-85.6	230	5
2023-09-15T00:00	23529	33	-55.5	-85.5	235	5
2023-09-15T00:00	23557	33	-55.2	-85.3	241	5
2023-09-15T00:00	23581	33	-55.3	-85.4	247	5
2023-09-15T00:00	23613	32	-55.4	-85.4	252	5
2023-09-15T00:00	23642	32	-55.5	-85.5	256	5
2023-09-15T00:00	23661	32	-55.2	-85.3	258	6
2023-09-15T00:00	23691	32	-55.2	-85.3	259	6
2023-09-15T00:00	23720	32	-55.3	-85.4	260	6
2023-09-15T00:00	23743	32	-55.4	-85.4	261	6
2023-09-15T00:00	23775	32	-55.6	-85.6	262	6
2023-09-15T00:00	23795	32	-55.5	-85.5	263	6
2023-09-15T00:00	23824	31	-55.6	-85.6	263	6
2023-09-15T00:00	23848	31	-55.7	-85.7	261	6
2023-09-15T00:00	23874	31	-55.7	-85.7	259	5
2023-09-15T00:00	23899	31	-55.6	-85.6	256	5
2023-09-15T00:00	23927	31	-55.6	-85.6	253	5
2023-09-15T00:00	23954	31	-55.5	-85.5	251	5
2023-09-15T00:00	23984	31	-55.6	-85.6	249	5
2023-09-15T00:00	24006	31	-55.5	-85.5	249	5
2023-09-15T00:00	24030	30	-55.6	-85.6	250	5
2023-09-15T00:00	24062	30	-55.6	-85.6	253	5
2023-09-15T00:00	24091	30	-55.5	-85.5	256	5
2023-09-15T00:00	24110	30	-55.3	-85.4	258	5
2023-09-15T00:00	24131	30	-55.1	-85.2	261	6
2023-09-15T00:00	24167	30	-55.1	-85.8	264	6
2023-09-15T00:00	24191	30	-54.9	-85.6	267	6
2023-09-15T00:00	24214	30	-54.8	-85.5	268	6
2023-09-15T00:00	24240	29	-54.7	-85.5	269	6
2023-09-15T00:00	24262	29	-54.6	-85.4	270	6
2023-09-15T00:00	24296	29	-54.5	-85.3	271	6
2023-09-15T00:00	24316	29	-54.1	-85.0	271	6
2023-09-15T00:00	24344	29	-54.1	-85.0	271	6
2023-09-15T00:00	24370	29	-54.0	-84.9	271	5
2023-09-15T00:00	24395	29	-53.7	-85.3	270	5
2023-09-15T00:00	24431	29	-53.2	-85.0	270	5
2023-09-15T00:00	24446	28	-53.2	-85.0	270	5
2023-09-15T00:00	24477	28	-53.0	-84.8	270	4
2023-09-15T00:00	24497	28	-53.0	-84.8	270	4
2023-09-15T00:00	24527	28	-52.8	-84.7	271	4
2023-09-15T00:00	24556	28	-52.7	-84.6	274	3
2023-09-15T00:00	24576	28	-52.7	-84.0	280	3
2023-09-15T00:00	24604	28	-52.8	-84.1	289	3
2023-09-15T00:00	24630	28	-53.0	-84.2	299	3
2023-09-15T00:00	24655	28	-53.2	-84.4	312	2
2023-09-15T00:00	24685	27	-53.2	-84.4	322	2
2023-09-15T00:00	24713	27	-53.3	-84.4	332	2
2023-09-15T00:00	24730	27	-53.4	-84.5	337	2
2023-09-15T00:00	24763	27	-53.3	-84.4	335	2
2023-09-15T00:00	24791	27	-53.3	-84.4	318	1
2023-09-15T00:00	24822	27	-53.3	-84.4	287	1
2023-09-15T00:00	24843	27	-53.3	-84.4	256	1
2023-09-15T00:00	24866	27	-53.5	-84.6	235	2
2023-09-15T00:00	24899	27	-53.7	-84.7	225	3
2023-09-15T00:00	24924	26	-53.8	-84.8	220	3
2023-09-15T00:00	24951	26	-53.8	-84.8	219	4
2023-09-15T00:00	24977	26	-53.6	-84.6	220	4
2023-09-15T00:00	25004	26	-53.4	-84.5	224	5
2023-09-15T00:00	25027	26	-53.4	-84.5	230	5
2023-09-15T00:00	25061	26	-53.5	-84.6	237	6
2023-09-15T00:00	25088	26	-53.4	-84.5	243	6
2023-09-15T00:00	25116	26	-53.3	-85.0	249	6
2023-09-15T00:00	25145	26	-53.0	-84.8	256	7
2023-09-15T00:00	25176	25	-53.0	-84.8	261	7
2023-09-15T00:00	25201	25	-52.7	-84.6	265	7
2023-09-15T00:00	25228	25	-52.7	-84.6	269	6
2023-09-15T00:00	25254	25	-52.6	-84.5	271	6
2023-09-15T00:00	25286	25	-52.5	-84.4	273	6
2023-09-15T00:00	25319	25	-52.1	-84.2	273	6
2023-09-15T00:00	25332	25	-51.9	-84.0	274	6
2023-09-15T00:00	25375	25	-51.8	-83.9	276	6
2023-09-15T00:00	25399	25	-51.9	-84.0	278	6
2023-09-15T00:00	25426	24	-51.7	-84.5	280	6
2023-09-15T00:00	25466	24	-51.5	-84.4	283	6
2023-09-15T00:00	25486	24	-51.4	-84.3	284	6
2023-09-15T00:00	25515	24	-51.3	-84.3	284	6
2023-09-15T00:00	25545	24	-51.1	-84.1	282	6
2023-09-15T00:00	25579	24	-50.8	-83.9	280	6
2023-09-15T00:00	25604	24	-50.7	-83.8	278	6
2023-09-15T00:00	25628	24	-50.5	-83.7	275	5
2023-09-15T00:00	25656	24	-50.5	-83.7	275	5
2023-09-15T00:00	25687	24	-50.3	-83.5	277	5
2023-09-15T00:00	25706	23	-50.2	-83.5	280	5
2023-09-15T00:00	25743	23	-50.1	-83.4	283	5
2023-09-15T00:00	25762	23	-50.0	-83.3	287	5
2023-09-15T00:00	25796	23	-50.0	-83.3	291	5
2023-09-15T00:00	25833	23	-50.0	-83.3	295	4
2023-09-15T00:00	25855	23	-49.9	-83.2	298	4
2023-09-15T00:00	25880	23	-49.7	-83.1	297	4
2023-09-15T00:00	25905	23	-49.5	-82.9	294	4
2023-09-15T00:00	25935	23	-49.6	-83.0	288	3
2023-09-15T00:00	25967	23	-49.6	-83.0	278	3
2023-09-15T00:00	25983	22	-49.4	-82.9	268	3
2023-09-15T00:00	26011	22	-48.9	-82.5	260	4
2023-09-15T00:00	26045	22	-48.6	-82.3	254	4
2023-09-15T00:00	26075	22	-48.6	-82.3	250	4
2023-09-15T00:00	26100	22	-48.7	-82.4	246	5
2023-09-15T00:00	26127	22	-48.8	-82.4	243	5
2023-09-15T00:00	26141	22	-48.9	-82.5	241	5
2023-09-15T00:00	26176	22	-49.0	-82.6	238	5
2023-09-15T00:00	26203	22	-49.2	-82.7	237	6
2023-09-15T00:00	26233	22	-49.2	-82.7	236	6
2023-09-15T00:00	26259	22	-49.2	-82.7	238	6
2023-09-15T00:00	26288	21	-49.2	-82.7	240	6
2023-09-15T00:00	26308	21	-49.2	-82.7	245	6
2023-09-15T00:00	26336	21	-49.1	-82.7	251	6
2023-09-15T00:00	26363	21	-49.1	-82.7	256	6
2023-09-15T00:00	26395	21	-49.0	-82.6	263	7
2023-09-15T00:00	26421	21	-49.1	-82.7	268	7
2023-09-15T00:00	26446	21	-49.1	-82.7	272	7
2023-09-15T00:00	26483	21	-48.7	-82.4	278	7
2023-09-15T00:00	26509	21	-48.7	-82.4	285	7
2023-09-15T00:00	26530	21	-48.8	-82.4	288	7
2023-09-15T00:00	26567	21	-48.9	-82.5	291	7
2023-09-15T00:00	26593	20	-49.1	-82.7	294	7
2023-09-15T00:00	26622	20	-49.1	-82.7	295	7
2023-09-15T00:00	26654	20	-49.1	-82.7	296	6
2023-09-15T00:00	26687	20	-49.1	-82.7	297	6
2023-09-15T00:00	26709	20	-49.2	-82.7	296	5
2023-09-15T00:00	26737	20	-49.3	-82.8	294	5
2023-09-15T00:00	26770	20	-49.3	-82.8	290	4
2023-09-15T00:00	26798	20	-49.3	-82.8	282	4
2023-09-15T00:00	26824	20	-49.2	-82.7	272	4
2023-09-15T00:00	26858	20	-49.2	-82.7	262	3
2023-09-15T00:00	26887	20	-49.4	-82.9	253	4
2023-09-15T00:00	26913	20	-49.4	-82.9	245	4
2023-09-15T00:00	26938	19	-49.0	-82.6	241	4
2023-09-15T00:00	26967	19	-49.0	-82.6	239	4
2023-09-15T00:00	27009	19	-48.8	-82.4	238	5
2023-09-15T00:00	27029	19	-48.9	-82.5	237	5
2023-09-15T00:00	27063	19	-49.0	-82.6	236	5
2023-09-15T00:00	27095	19	-49.0	-82.6	235	5
2023-09-15T00:00	27110	19	-49.0	-82.6	234	5
2023-09-15T00:00	27150	19	-48.9	-82.5	234	5
2023-09-15T00:00	27170	19	-48.8	-82.4	235	5
2023-09-15T00:00	27194	19	-48.7	-83.2	237	5
2023-09-15T00:00	27228	19	-48.7	-82.4	241	4
2023-09-15T00:00	27253	19	-48.8	-82.4	244	4
2023-09-15T00:00	27281	18	-48.9	-82.5	245	4
2023-09-15T00:00	27317	18	-49.0	-82.6	244	4
2023-09-15T00:00	27342	18	-49.0	-82.6	240	4
2023-09-15T00:00	27377	18	-48.8	-82.4	235	4
2023-09-15T00:00	27397	18	-48.7	-82.4	231	5
2023-09-15T00:00	27428	18	-48.8	-82.4	228	5
2023-09-15T00:00	27460	18	-48.9	-82.5	226	6
2023-09-15T00:00	27490	18	-49.0	-82.6	227	7
2023-09-15T00:00	27507	18	-49.0	-82.6	228	8
2023-09-15T00:00	27545	18	-49.0	-82.6	230	8
2023-09-15T00:00	27574	18	-49.1	-82.7	233	9
2023-09-15T00:00	27600	18	-49.1	-83.4	236	9
2023-09-15T00:00	27623	18	-48.6	-83.1	240	9
2023-09-15T00:00	27643	17	-48.4	-82.9	244	9
2023-09-15T00:00	27679	17	-48.1	-82.7	248	10
2023-09-15T00:00	27710	17	-48.1	-82.7	251	10
2023-09-15T00:00	27729	17	-47.9	-82.6	253	10
2023-09-15T00:00	27749	17	-47.9	-82.6	254	10
2023-09-15T00:00	27778	17	-47.9	-82.6	255	9
2023-09-15T00:00	27806	17	-48.0	-82.7	255	9
2023-09-15T00:00	27836	17	-47.8	-82.5	253	9
2023-09-15T00:00	27862	17	-47.8	-82.5	251	9
2023-09-15T00:00	27884	17	-47.8	-82.5	248	9
2023-09-15T00:00	27911	17	-47.8	-82.5	245	8
2023-09-15T00:00	27948	17	-47.9	-82.6	241	8
2023-09-15T00:00	27973	17	-47.9	-82.6	237	8
2023-09-15T00:00	28010	17	-47.8	-82.5	233	8
2023-09-15T00:00	28035	16	-47.7	-82.4	230	8
2023-09-15T00:00	28057	16	-47.6	-82.4	228	8
2023-09-15T00:00	28094	16	-47.5	-82.3	226	9
2023-09-15T00:00	28116	16	-47.4	-82.2	226	9
2023-09-15T00:00	28150	16	-47.1	-82.0	226	9
2023-09-15T00:00	28176	16	-47.1	-82.9	226	10
2023-09-15T00:00	28205	16	-46.9	-82.8	227	10
2023-09-15T00:00	28227	16	-46.9	-82.8	228	10
2023-09-15T00:00	28260	16	-46.8	-82.7	229	11
2023-09-15T00:00	28288	16	-46.8	-82.7	230	11
2023-09-15T00:00	28318	16	-46.7	-81.7	231	12
2023-09-15T00:00	28344	16	-46.7	-81.7	233	12
2023-09-15T00:00	28379	16	-46.7	-81.7	234	13
2023-09-15T00:00	28403	16	-46.9	-81.9	234	13
2023-09-15T00:00	28429	15	-47.0	-81.9	235	14
2023-09-15T00:00	28462	15	-47.2	-82.1	236	15
2023-09-15T00:00	28482	15	-47.2	-82.1	237	15
2023-09-15T00:00	28525	15	-47.3	-82.2	238	16
2023-09-15T00:00	28553	15	-47.4	-82.2	239	16
2023-09-15T00:00	28576	15	-47.6	-82.4	241	17
2023-09-15T00:00	28602	15	-47.5	-82.3	243	17
2023-09-15T00:00	28623	15	-47.1	-82.0	245	16
2023-09-15T00:00	28657	15	-46.8	-81.8	247	16
2023-09-15T00:00	28687	15	-46.8	-82.7	249	15
2023-09-15T00:00	28719	15	-46.9	-82.8	252	14
2023-09-15T00:00	28741	15	-46.9	-82.8	254	14
2023-09-15T00:00	28769	15	-46.9	-82.8	256	13
2023-09-15T00:00	28799	15	-46.9	-82.8	258	13
2023-09-15T00:00	28831	15	-46.8	-81.8	261	12
2023-09-15T00:00	28863	15	-46.9	-81.9	264	12
2023-09-15T00:00	28880	14	-47.1	-82.0	267	12
2023-09-15T00:00	28916	14	-47.2	-82.1	270	11
2023-09-15T00:00	28932	14	-47.2	-82.1	274	11
2023-09-15T00:00	28961	14	-47.1	-82.0	277	10
2023-09-15T00:00	28995	14	-46.9	-82.8	279	10
2023-09-15T00:00	29018	14	-46.9	-82.8	280	9
2023-09-15T00:00	29045	14	-46.3	-82.4	280	9
2023-09-15T00:00	29071	14	-45.9	-82.1	280	9
2023-09-15T00:00	29098	14	-45.6	-81.9	279	9
2023-09-15T00:00	29130	14	-45.3	-81.6	277	9
2023-09-15T00:00	29150	14	-45.2	-81.6	275	8
2023-09-15T00:00	29177	14	-45.1	-81.5	273	8
2023-09-15T00:00	29219	14	-45.1	-81.5	271	8
2023-09-15T00:00	29227	14	-45.1	-81.5	270	7
2023-09-15T00:00	29263	14	-45.1	-81.5	268	7
2023-09-15T00:00	29284	14	-45.0	-81.4	267	6
2023-09-15T00:00	29315	14	-44.7	-81.2	264	6
2023-09-15T00:00	29342	14	-44.3	-80.9	261	6
2023-09-15T00:00	29364	13	-44.2	-82.0	255	5
2023-09-15T00:00	29406	13	-44.3	-82.0	250	5
2023-09-15T00:00	29432	13	-44.4	-82.1	243	5
2023-09-15T00:00	29442	13	-44.2	-82.0	235	5
2023-09-15T00:00	29492	13	-44.0	-81.8	228	5
2023-09-15T00:00	29507	13	-43.9	-80.7	223	5
2023-09-15T00:00	29538	13	-43.9	-80.7	218	5
2023-09-15T00:00	29573	13	-44.0	-80.7	215	6
2023-09-15T00:00	29583	13	-44.2	-80.9	212	6
2023-09-15T00:00	29621	13	-44.3	-80.9	211	6
2023-09-15T00:00	29646	13	-44.5	-81.1	210	6
2023-09-15T00:00	29681	13	-44.6	-81.2	211	7
2023-09-15T00:00	29707	13	-44.8	-81.3	211	7
2023-09-15T00:00	29741	13	-44.9	-81.4	213	8
2023-09-15T00:00	29769	13	-44.9	-81.4	215	8
2023-09-15T00:00	29795	13	-44.8	-81.3	216	8
2023-09-15T00:00	29842	13	-45.0	-81.4	217	9
2023-09-15T00:00	29862	13	-45.1	-81.5	219	9
2023-09-15T00:00	29897	12	-45.3	-81.6	221	10
2023-09-15T00:00	29930	12	-45.3	-81.6	224	10
2023-09-15T00:00	29960	12	-45.5	-81.8	226	11
2023-09-15T00:00	29974	12	-45.6	-81.9	228	11
2023-09-15T00:00	30015	12	-45.8	-82.0	230	11
2023-09-15T00:00	30035	12	-45.8	-82.0	232	11
2023-09-15T00:00	30077	12	-46.0	-82.1	234	11
2023-09-15T00:00	30098	12	-46.1	-82.2	234	11
2023-09-15T00:00	30131	12	-46.3	-82.4	235	11
2023-09-15T00:00	30158	12	-46.5	-82.5	235	10
2023-09-15T00:00	30184	12	-46.6	-82.6	235	10
2023-09-15T00:00	30232	12	-46.8	-81.8	235	10
2023-09-15T00:00	30261	12	-46.8	-82.7	235	10
2023-09-15T00:00	30291	12	-46.9	-82.8	235	10
2023-09-15T00:00	30316	12	-46.8	-82.7	236	10
2023-09-15T00:00	30362	12	-46.7	-82.6	237	10
2023-09-15T00:00	30386	12	-46.8	-82.7	237	10
2023-09-15T00:00	30411	12	-46.9	-82.8	237	10
2023-09-15T00:00	30443	11	-47.1	-82.0	238	10
2023-09-15T00:00	30470	11	-47.2	-82.1	239	10
2023-09-15T00:00	30500	11	-47.4	-82.2	241	11
2023-09-15T00:00	30524	11	-47.5	-82.3	244	11
2023-09-15T00:00	30553	11	-47.7	-82.4	247	12
2023-09-15T00:00	30593	11	-47.8	-82.5	251	12
2023-09-15T00:00	30628	11	-47.8	-82.5	255	13
2023-09-15T00:00	30658	11	-47.8	-83.4	259	13
2023-09-15T00:00	30679	11	-47.4	-83.1	262	14
2023-09-15T00:00	30695	11	-46.9	-82.8	264	14
2023-09-15T00:00	30753	11	-46.6	-82.6	265	14
2023-09-15T00:00	30770	11	-46.6	-82.6	267	13
2023-09-15T00:00	30800	11	-46.5	-82.5	268	14
2023-09-15T00:00	30821	11	-46.4	-82.4	270	14
2023-09-15T00:00	30863	11	-46.3	-83.4	273	14
2023-09-15T00:00	30892	11	-45.7	-83.0	277	15
2023-09-15T00:00	30924	11	-45.4	-82.8	280	15
2023-09-15T00:00	30946	11	-45.2	-82.7	284	16
2023-09-15T00:00	30984	11	-44.8	-82.4	286	17
2023-09-15T00:00	31020	11	-44.0	-81.8	287	18
2023-09-15T00:00	31028	10	-43.8	-81.7	288	18
2023-09-15T00:00	31065	10	-43.8	-81.7	288	18
2023-09-15T00:00	31097	10	-43.5	-81.5	288	18
2023-09-15T00:00	31130	10	-43.5	-81.5	287	17
2023-09-15T00:00	31152	10	-43.4	-81.4	287	16
2023-09-15T00:00	31195	10	-43.5	-81.5	287	15
2023-09-15T00:00	31222	10	-43.6	-81.5	287	14
2023-09-15T00:00	31260	10	-43.6	-81.5	288	13
2023-09-15T00:00	31285	10	-43.7	-81.6	288	12
2023-09-15T00:00	31304	10	-43.7	-81.6	289	12
2023-09-15T00:00	31351	10	-43.7	-81.6	291	11
2023-09-15T00:00	31369	10	-43.6	-81.5	292	11
2023-09-15T00:00	31399	10	-43.6	-81.5	294	10
2023-09-15T00:00	31436	10	-43.6	-81.5	295	10
2023-09-15T00:00	31461	10	-43.7	-81.6	297	10
2023-09-15T00:00	31505	10	-43.6	-81.5	297	11
2023-09-15T00:00	31530	10	-43.6	-81.5	298	11
2023-09-15T00:00	31567	10	-43.4	-81.4	298	11
2023-09-15T00:00	31613	10	-43.3	-81.3	297	12
2023-09-15T00:00	31657	10	-43.3	-81.3	296	12
2023-09-15T00:00	31708	10	-43.1	-81.2	295	12
2023-09-15T00:00	31715	9	-42.8	-81.0	294	11
2023-09-15T00:00	31743	9	-42.7	-80.9	294	10
2023-09-15T00:00	31778	9	-42.8	-81.0	295	10
2023-09-15T00:00	31822	9	-42.5	-80.8	296	9
2023-09-15T00:00	31835	9	-42.3	-80.6	298	8
2023-09-15T00:00	31882	9	-42.1	-80.5	300	8
2023-09-15T00:00	31885	9	-42.0	-80.4	300	8
2023-09-15T00:00	31942	9	-41.8	-80.3	300	7
2023-09-15T00:00	31978	9	-41.8	-80.3	299	8
2023-09-15T00:00	31993	9	-41.8	-80.3	297	8
2023-09-15T00:00	32019	9	-42.0	-80.4	296	8
2023-09-15T00:00	32057	9	-41.9	-80.4	295	8
2023-09-15T00:00	32082	9	-42.0	-80.4	294	9
2023-09-15T00:00	32114	9	-42.0	-80.4	293	9
2023-09-15T00:00	32139	9	-42.0	-80.4	292	9
2023-09-15T00:00	32170	9	-42.1	-80.5	292	10
2023-09-15T00:00	32198	9	-42.2	-80.6	291	10
2023-09-15T00:00	32234	9	-42.2	-80.6	290	10
2023-09-15T00:00	32265	9	-42.3	-80.6	287	10
2023-09-15T00:00	32278	9	-42.2	-80.6	284	9
2023-09-15T00:00	32321	9	-41.9	-80.4	281	8
2023-09-15T00:00	32360	9	-41.8	-80.3	276	8
2023-09-15T00:00	32374	9	-41.4	-80.0	272	7
2023-09-15T00:00	32418	9	-41.4	-80.0	266	7
2023-09-15T00:00	32444	9	-41.2	-79.9	259	6
2023-09-15T00:00	32485	8	-41.0	-79.7	251	6
2023-09-15T00:00	32517	8	-40.6	-79.5	234	5
2023-09-15T00:00	32552	8	-40.6	-79.5	229	5
2023-09-15T00:00	32609	8	-40.5	-79.4	228	5
2023-09-15T00:00	32654	8	-40.5	-79.4	235	5
2023-09-15T00:00	32681	8	-40.2	-79.2	241	5
2023-09-15T00:00	32711	8	-40.2	-79.2	251	6
2023-09-15T00:00	32735	8	-40.2	-79.2	261	6
2023-09-15T00:00	32770	8	-40.1	-79.1	268	7
2023-09-15T00:00	32791	8	-40.0	-79.0	274	8
2023-09-15T00:00	32824	8	-39.9	-79.0	278	9
2023-09-15T00:00	32854	8	-39.5	-78.7	281	9
2023-09-15T00:00	32897	8	-39.4	-78.6	283	10
2023-09-15T00:00	32943	8	-39.2	-78.5	284	10
2023-09-15T00:00	32963	8	-38.5	-78.0	284	11
2023-09-15T00:00	32969	8	-38.2	-77.8	284	11
2023-09-15T00:00	32995	8	-37.9	-77.6	283	10
2023-09-15T00:00	33039	8	-37.9	-77.6	280	10
2023-09-15T00:00	33076	8	-37.8	-77.5	278	9
2023-09-15T00:00	33092	8	-37.8	-77.5	275	9
2023-09-15T00:00	33107	8	-37.5	-77.3	271	8
2023-09-15T00:00	33139	8	-37.3	-77.2	263	8
2023-09-15T00:00	33178	8	-37.0	-77.0	261	8
2023-09-15T00:00	33207	8	-36.8	-76.8	261	7
2023-09-15T00:00	33223	8	-36.8	-76.8	261	7
2023-09-15T00:00	33272	8	-36.8	-76.8	261	7
2023-09-15T00:00	33287	8	-36.6	-76.7	260	7
2023-09-15T00:00	33316	8	-36.5	-76.6	260	7
2023-09-15T00:00	33338	7	-36.1	-76.3	260	7
2023-09-15T00:00	33373	7	-35.9	-76.2	262	7
2023-09-15T00:00	33402	7	-35.9	-76.2	264	7
2023-09-15T00:00	33407	7	-35.7	-76.1	267	8
2023-09-15T00:00	33461	7	-35.8	-76.1	270	8
2023-09-15T00:00	33468	7	-35.8	-76.1	275	8
2023-09-15T00:00	33506	7	-35.7	-76.1	280	8
2023-09-15T00:00	33528	7	-35.8	-76.1	285	9
2023-09-15T00:00	33551	7	-35.9	-76.2	288	9
2023-09-15T00:00	33589	7	-36.1	-76.3	290	8
2023-09-15T00:00	33645	7	-36.2	-76.4	291	8
2023-09-15T00:00	33692	7	-36.4	-76.5	288	8
2023-09-15T00:00	33695	7	-36.2	-76.4	285	8
2023-09-15T00:00	33730	7	-36.1	-76.3	283	8
2023-09-15T00:00	33753	7	-36.1	-76.3	280	8
2023-09-15T00:00	33789	7	-36.2	-76.4	277	8
2023-09-15T00:00	33816	7	-36.3	-76.5	274	8
2023-09-15T00:00	33862	7	-36.3	-76.5	272	8
2023-09-15T00:00	33866	7	-36.1	-76.3	270	8
2023-09-15T00:00	33897	7	-36.1	-76.3	266	9
2023-09-15T00:00	33926	7	-36.2	-76.4	262	8
2023-09-15T00:00	33977	7	-36.3	-76.5	256	8
2023-09-15T00:00	33990	7	-36.4	-76.5	248	8
2023-09-15T00:00	34053	7	-36.5	-76.6	242	9
2023-09-15T00:00	34071	7	-36.6	-76.7	236	9
2023-09-15T00:00	34084	7	-36.6	-76.7	232	10
2023-09-15T00:00	34126	7	-36.6	-76.7	229	11
2023-09-15T00:00	34145	7	-36.8	-76.8	227	11
2023-09-15T00:00	34193	7	-37.0	-77.0	229	13
2023-09-15T00:00	34216	7	-37.2	-77.1	232	13
2023-09-15T00:00	34261	7	-36.8	-76.8	236	13
2023-09-15T00:00	34267	7	-36.6	-76.7	241	13
2023-09-15T00:00	34300	7	-36.5	-76.6	246	12
2023-09-15T00:00	34344	6	-36.4	-76.5	251	12
2023-09-15T00:00	34347	6	-36.2	-76.4	255	12
2023-09-15T00:00	34387	6	-35.9	-76.2	259	12
2023-09-15T00:00	34410	6	-35.8	-76.1	264	13
2023-09-15T00:00	34433	6	-35.7	-76.1	268	13
2023-09-15T00:00	34467	6	-35.7	-76.1	272	13
2023-09-15T00:00	34487	6	-35.8	-76.1	275	13
2023-09-15T00:00	34536	6	-35.9	-76.2	278	13
2023-09-15T00:00	34537	6	-35.9	-76.2	280	12
2023-09-15T00:00	34570	6	-35.9	-76.2	281	12
2023-09-15T00:00	34605	6	-35.9	-76.2	283	11
2023-09-15T00:00	34622	6	-35.9	-76.2	283	11
2023-09-15T00:00	34669	6	-35.8	-76.1	282	10
2023-09-15T00:00	34683	6	-35.1	-75.6	281	10
2023-09-15T00:00	34723	6	-34.7	-75.4	279	10
2023-09-15T00:00	34746	6	-34.6	-75.3	277	10
2023-09-15T00:00	34774	6	-34.7	-75.4	276	10
2023-09-15T00:00	34818	6	-35.0	-75.6	276	10
2023-09-15T00:00	34849	6	-34.9	-75.5	280	10
2023-09-15T00:00	34908	6	-34.9	-75.5	282	10
2023-09-15T00:00	34920	6	-35.0	-75.6	284	9
2023-09-15T00:00	34955	6	-35.1	-75.6	286	9
2023-09-15T00:00	34987	6	-35.1	-75.6	287	9
2023-09-15T00:00	35014	6	-35.1	-75.6	287	9
2023-09-15T00:00	35030	6	-35.0	-75.6	286	10
2023-09-15T00:00	35086	6	-34.9	-75.5	285	10
2023-09-15T00:00	35151	6	-35.0	-75.6	284	11
2023-09-15T00:00	35175	6	-34.7	-75.4	285	11
2023-09-15T00:00	35189	6	-34.7	-75.4	286	12
2023-09-15T00:00	35216	6	-34.6	-75.3	285	12
2023-09-15T00:00	35242	6	-34.5	-75.2	284	13
2023-09-15T00:00	35300	6	-34.1	-75.0	282	14
2023-09-15T00:00	35344	6	-34.0	-74.9	281	14
2023-09-15T00:00	35368	6	-33.7	-74.7	279	15
2023-09-15T00:00	35397	6	-33.7	-74.7	278	15
2023-09-15T00:00	35452	6	-33.4	-74.5	278	15
2023-09-15T00:00	35460	6	-33.3	-74.4	277	14
2023-09-15T00:00	35510	6	-33.2	-74.3	276	14
2023-09-15T00:00	35531	5	-33.2	-74.3	276	13
2023-09-15T00:00	35562	5	-33.4	-74.5	277	12
2023-09-15T00:00	35585	5	-33.5	-74.5	279	12
2023-09-15T00:00	35593	5	-33.5	-74.5	282	11
2023-09-15T00:00	35634	5	-33.7	-74.7	284	11
2023-09-15T00:00	35683	5	-33.7	-74.7	285	10
2023-09-15T00:00	35721	5	-34.0	-74.9	287	9
2023-09-15T00:00	35774	5	-34.1	-75.0	285	9
2023-09-15T00:00	35837	5	-34.1	-75.0	284	9
2023-09-15T00:00	35857	5	-34.2	-75.0	283	9
2023-09-15T00:00	35913	5	-34.1	-75.0	281	10
2023-09-15T00:00	35929	5	-34.1	-75.0	280	10
2023-09-15T00:00	35944	5	-34.2	-75.0	280	11
2023-09-15T00:00	35949	5	-34.2	-75.0	279	11
2023-09-15T00:00	36000	5	-34.3	-75.1	279	11
2023-09-15T00:00	36041	5	-34.4	-75.2	278	11
2023-09-15T00:00	36060	5	-34.5	-75.2	277	11
2023-09-15T00:00	36090	5	-34.4	-75.2	277	11
2023-09-15T06:00	112	1010	11.8	10.4	100	3
2023-09-15T06:00	134	1007	12.6	10.9	120	3
2023-09-15T06:00	152	1005	13.1	11.0	125	4
2023-09-15T06:00	174	1003	13.3	11.2	129	5
2023-09-15T06:00	196	1000	13.5	11.3	133	6
2023-09-15T06:00	217	997	14.3	11.3	136	6
2023-09-15T06:00	243	995	14.6	11.3	139	6
2023-09-15T06:00	264	992	14.8	11.2	141	5
2023-09-15T06:00	290	989	15.0	10.7	142	5
2023-09-15T06:00	313	986	15.2	10.2	142	5
2023-09-15T06:00	339	983	15.1	9.4	142	5
2023-09-15T06:00	362	980	15.1	8.9	142	5
2023-09-15T06:00	388	978	15.1	8.6	143	5
2023-09-15T06:00	409	975	15.0	8.6	142	5
2023-09-15T06:00	429	973	14.8	8.9	140	5
2023-09-15T06:00	453	970	14.6	8.9	137	5
2023-09-15T06:00	476	967	14.4	9.1	132	5
2023-09-15T06:00	502	965	14.2	9.2	129	5
2023-09-15T06:00	528	962	13.9	9.0	127	5
2023-09-15T06:00	546	959	13.8	9.0	127	5
2023-09-15T06:00	570	957	13.6	8.4	129	5
2023-09-15T06:00	595	954	13.4	8.0	130	5
2023-09-15T06:00	618	951	13.2	8.0	131	5
2023-09-15T06:00	638	949	13.0	7.4	131	5
2023-09-15T06:00	661	946	12.9	7.4	130	5
2023-09-15T06:00	680	944	12.7	7.3	128	5
2023-09-15T06:00	705	942	12.4	7.1	127	4
2023-09-15T06:00	724	939	12.2	7.2	126	4
2023-09-15T06:00	749	937	12.0	7.1	125	4
2023-09-15T06:00	768	934	11.8	6.8	125	4
2023-09-15T06:00	788	932	11.6	6.8	126	4
2023-09-15T06:00	818	929	11.4	6.5	128	4
2023-09-15T06:00	847	926	11.1	6.2	130	4
2023-09-15T06:00	868	923	10.9	6.1	132	4
2023-09-15T06:00	891	921	10.8	6.0	133	5
2023-09-15T06:00	923	917	10.5	5.8	133	5
2023-09-15T06:00	951	914	10.3	6.0	134	4
2023-09-15T06:00	978	911	10.1	6.2	135	4
2023-09-15T06:00	1004	908	9.9	6.0	136	3
2023-09-15T06:00	1039	905	9.7	5.7	139	3
2023-09-15T06:00	1062	902	9.6	5.5	143	3
2023-09-15T06:00	1082	900	9.5	5.5	150	3
2023-09-15T06:00	1108	897	9.3	5.2	160	3
2023-09-15T06:00	1131	895	9.1	4.9	172	3
2023-09-15T06:00	1154	892	9.0	4.8	184	3
2023-09-15T06:00	1183	889	8.8	4.6	192	3
2023-09-15T06:00	1210	886	8.6	4.3	194	3
2023-09-15T06:00	1233	884	8.6	3.9	191	3
2023-09-15T06:00	1258	881	8.5	4.1	184	3
2023-09-15T06:00	1282	879	8.5	4.1	177	3
2023-09-15T06:00	1305	876	8.4	4.0	172	3
2023-09-15T06:00	1334	873	8.4	3.3	169	3
2023-09-15T06:00	1357	871	8.8	-1.5	165	4
2023-09-15T06:00	1378	868	9.0	-2.2	160	4
2023-09-15T06:00	1404	866	9.0	-1.2	154	4
2023-09-15T06:00	1424	863	9.0	-1.6	147	4
2023-09-15T06:00	1448	861	8.9	-2.4	139	3
2023-09-15T06:00	1466	859	8.8	-2.7	131	3
2023-09-15T06:00	1487	857	8.8	-3.7	124	4
2023-09-15T06:00	1512	854	8.9	-7.3	119	4
2023-09-15T06:00	1534	852	8.8	-4.5	116	4
2023-09-15T06:00	1555	850	9.0	-10.7	116	4
2023-09-15T06:00	1579	847	9.1	-15.5	117	4
2023-09-15T06:00	1605	845	9.2	-20.8	119	4
2023-09-15T06:00	1628	842	9.4	-32.4	122	4
2023-09-15T06:00	1652	840	9.4	-33.6	124	3
2023-09-15T06:00	1675	837	9.3	-32.1	126	3
2023-09-15T06:00	1704	835	9.2	-24.2	127	2
2023-09-15T06:00	1726	832	9.0	-10.6	130	2
2023-09-15T06:00	1749	830	8.6	-5.9	135	2
2023-09-15T06:00	1772	828	8.5	-4.3	142	2
2023-09-15T06:00	1793	826	8.3	-4.4	148	2
2023-09-15T06:00	1813	824	8.2	-3.8	149	2
2023-09-15T06:00	1835	822	8.1	-4.5	144	2
2023-09-15T06:00	1858	819	8.0	-3.8	133	2
2023-09-15T06:00	1880	817	8.0	-4.4	120	2
2023-09-15T06:00	1902	815	7.9	-3.9	111	2
2023-09-15T06:00	1928	812	7.6	-2.7	108	2
2023-09-15T06:00	1953	810	7.6	-3.8	110	2
2023-09-15T06:00	1976	808	7.6	-3.9	115	2
2023-09-15T06:00	2004	805	7.5	-4.5	120	2
2023-09-15T06:00	2034	802	7.4	-4.6	125	2
2023-09-15T06:00	2057	800	7.2	-4.5	131	2
2023-09-15T06:00	2080	797	7.2		137	2
2023-09-15T06:00	2108	795	7.4	-7.3	142	2
2023-09-15T06:00	2131	793	7.2	-6.9	144	1
2023-09-15T06:00	2157	790	7.1	-7.5	140	1
2023-09-15T06:00	2184	787	7.2	-9.8	126	1
2023-09-15T06:00	2208	785	7.2	-10.4	102	1
2023-09-15T06:00	2230	783	7.2	-10.6	84	1
2023-09-15T06:00	2258	781	7.0	-9.8	84	1
2023-09-15T06:00	2286	778	6.8	-9.1	106	1
2023-09-15T06:00	2318	775	6.6	-10.0	142	1
2023-09-15T06:00	2343	772	6.5	-10.8	167	1
2023-09-15T06:00	2369	770	6.4	-11.0	181	1
2023-09-15T06:00	2394	768	6.4	-12.5	191	1
2023-09-15T06:00	2420	765	6.5	-14.6	198	1
2023-09-15T06:00	2447	763	6.5	-15.7	201	1
2023-09-15T06:00	2472	760	6.5	-15.5	197	1
2023-09-15T06:00	2497	758	6.4	-15.8	182	1
2023-09-15T06:00	2524	756	6.4	-16.6	168	1
2023-09-15T06:00	2549	753	6.3	-18.4	160	2
2023-09-15T06:00	2576	751	6.3	-18.9	159	2
2023-09-15T06:00	2603	748	6.2	-19.8	159	2
2023-09-15T06:00	2625	746	6.2	-20.0	159	2
2023-09-15T06:00	2646	744	6.2	-20.8	158	2
2023-09-15T06:00	2667	742	6.1	-22.2	154	2
2023-09-15T06:00	2697	740	6.0	-21.7	148	1
2023-09-15T06:00	2721	738	5.9	-20.7	142	1
2023-09-15T06:00	2742	736	6.0	-23.7	140	1
2023-09-15T06:00	2761	734	6.0	-30.4	144	1
2023-09-15T06:00	2782	732	6.1	-37.0	150	1
2023-09-15T06:00	2812	730	5.8	-33.7	155	1
2023-09-15T06:00	2834	727	5.7	-36.8	151	1
2023-09-15T06:00	2860	725	5.6	-40.1	136	1
2023-09-15T06:00	2881	723	5.6	-38.9	112	1
2023-09-15T06:00	2909	721	5.6	-38.4	83	1
2023-09-15T06:00	2930	719	5.5	-31.8	56	1
2023-09-15T06:00	2955	717	5.4	-28.6	36	1
2023-09-15T06:00	2982	714	5.3	-27.7	22	2
2023-09-15T06:00	3002	713	5.1	-27.9	13	2
2023-09-15T06:00	3022	711	5.0	-27.7	8	2
2023-09-15T06:00	3045	709	4.9	-23.4	5	2
2023-09-15T06:00	3070	707	4.7	-19.2	7	1
2023-09-15T06:00	3092	705	4.6	-17.2	22	1
2023-09-15T06:00	3122	702	4.6	-16.6	129	0
2023-09-15T06:00	3148	700	4.5	-17.3	162	1
2023-09-15T06:00	3173	698	4.4	-17.7	173	2
2023-09-15T06:00	3198	696	4.3	-18.0	182	3
2023-09-15T06:00	3220	694	4.2	-18.4	191	3
2023-09-15T06:00	3242	692	4.1		200	3
2023-09-15T06:00	3266	690	3.9	-19.4	209	3
2023-09-15T06:00	3286	688	3.9	-23.6	216	2
2023-09-15T06:00	3308	686	3.9	-30.2	215	2
2023-09-15T06:00	3336	684	4.0	-29.5	207	2
2023-09-15T06:00	3358	682	4.0	-29.5	196	3
2023-09-15T06:00	3383	680	3.9	-27.8	188	3
2023-09-15T06:00	3408	678	3.6	-27.1	184	3
2023-09-15T06:00	3429	676	3.5	-25.9	183	3
2023-09-15T06:00	3447	675	3.4	-19.5	184	3
2023-09-15T06:00	3466	673	3.3	-10.5	187	2
2023-09-15T06:00	3495	671	3.0	-10.7	191	2
2023-09-15T06:00	3520	669	2.7	-9.9	195	1
2023-09-15T06:00	3541	667	2.5	-7.5	198	1
2023-09-15T06:00	3566	665	2.3	-7.2	198	1
2023-09-15T06:00	3598	662	2.1	-7.3	196	1
2023-09-15T06:00	3627	660	1.8	-7.5	195	1
2023-09-15T06:00	3654	658	1.6	-7.4	195	2
2023-09-15T06:00	3672	656	1.4	-7.6	196	2
2023-09-15T06:00	3698	654	1.2	-7.7	196	2
2023-09-15T06:00	3716	652	1.1	-7.7	196	2
2023-09-15T06:00	3738	651	0.9	-7.7	193	1
2023-09-15T06:00	3763	649	0.7	-7.8	185	1
2023-09-15T06:00	3785	647	0.6	-8.0	171	1
2023-09-15T06:00	3810	645	0.3	-8.1	155	1
2023-09-15T06:00	3836	643	0.1	-7.9	150	1
2023-09-15T06:00	3867	640	-0.2	-8.1	164	1
2023-09-15T06:00	3889	638	-0.4	-8.0	198	1
2023-09-15T06:00	3919	636	-0.6	-8.4	234	1
2023-09-15T06:00	3941	634	-0.7	-8.3	255	1
2023-09-15T06:00	3964	633	-0.8	-8.7	264	1
2023-09-15T06:00	3982	631	-0.8	-9.4	268	2
2023-09-15T06:00	4009	629	-0.8	-9.3	270	2
2023-09-15T06:00	4033	627	-0.9	-10.0	270	2
2023-09-15T06:00	4062	625	-1.0	-11.2	271	2
2023-09-15T06:00	4078	624	-1.2	-11.4	273	2
2023-09-15T06:00	4100	622	-1.3	-11.7	278	2
2023-09-15T06:00	4120	620	-1.5	-12.2	289	1
2023-09-15T06:00	4144	618	-1.6	-12.4	304	1
2023-09-15T06:00	4171	616	-1.8	-12.5	319	1
2023-09-15T06:00	4195	614	-2.0		330	1
2023-09-15T06:00	4222	612	-2.2	-13.1	332	1
2023-09-15T06:00	4247	611	-2.4	-13.5	324	1
2023-09-15T06:00	4267	609	-2.6	-13.6	308	1
2023-09-15T06:00	4299	607	-2.7	-14.5	289	1
2023-09-15T06:00	4321	605	-2.8	-14.3	275	2
2023-09-15T06:00	4345	603	-2.8	-14.4	267	2
2023-09-15T06:00	4371	601	-3.0	-14.9	264	2
2023-09-15T06:00	4401	599	-3.2	-14.2	265	2
2023-09-15T06:00	4426	597	-3.4	-14.3	267	2
2023-09-15T06:00	4450	595	-3.6	-14.8	268	2
2023-09-15T06:00	4469	594	-3.8	-14.7	266	2
2023-09-15T06:00	4495	592	-4.0	-12.4	262	2
2023-09-15T06:00	4517	590	-4.2	-11.2	257	2
2023-09-15T06:00	4541	588	-4.4	-12.0	255	3
2023-09-15T06:00	4566	586	-4.6	-12.9	254	3
2023-09-15T06:00	4596	584	-4.7	-13.2	253	3
2023-09-15T06:00	4619	582	-4.9	-13.8	250	3
2023-09-15T06:00	4644	581	-5.0	-14.4	242	2
2023-09-15T06:00	4670	579	-5.2	-14.9	228	2
2023-09-15T06:00	4694	577	-5.4	-14.7	211	2
2023-09-15T06:00	4724	575	-5.6	-14.0	202	2
2023-09-15T06:00	4745	573	-5.8	-14.3	201	2
2023-09-15T06:00	4766	572	-5.9	-14.3	206	2
2023-09-15T06:00	4785	570	-6.0	-14.3	212	2
2023-09-15T06:00	4806	569	-6.2	-14.1	220	2
2023-09-15T06:00	4831	567	-6.4	-14.1	229	2
2023-09-15T06:00	4857	565	-6.6	-14.4	240	2
2023-09-15T06:00	4878	563	-6.7	-14.4	254	1
2023-09-15T06:00	4906	561	-6.9	-14.7	265	2
2023-09-15T06:00	4931	560	-7.0	-14.8	268	2
2023-09-15T06:00	4951	558	-7.1	-14.9	265	2
2023-09-15T06:00	4974	557	-7.2	-15.1	261	2
2023-09-15T06:00	4999	555	-7.4	-14.8	256	2
2023-09-15T06:00	5029	553	-7.6	-14.8	251	2
2023-09-15T06:00	5056	551	-7.8	-15.3	248	2
2023-09-15T06:00	5079	549	-8.0	-15.3	245	2
2023-09-15T06:00	5104	547	-8.1	-15.3	243	2
2023-09-15T06:00	5132	545	-8.4	-15.5	243	2
2023-09-15T06:00	5157	544	-8.5	-15.7	246	2
2023-09-15T06:00	5192	541	-8.8	-15.8	249	3
2023-09-15T06:00	5217	540	-8.9	-16.1	253	2
2023-09-15T06:00	5242	538	-9.0	-16.8	259	2
2023-09-15T06:00	5267	536	-9.0	-17.2	267	2
2023-09-15T06:00	5287	535	-9.1	-17.5	279	2
2023-09-15T06:00	5316	533	-9.3	-17.8	292	2
2023-09-15T06:00	5349	530	-9.4	-17.9	300	2
2023-09-15T06:00	5373	529	-9.6	-18.2	303	3
2023-09-15T06:00	5391	528	-9.8	-18.4	302	3
2023-09-15T06:00	5410	526	-9.9	-18.7	296	3
2023-09-15T06:00	5432	525	-10.0	-19.5	286	3
2023-09-15T06:00	5451	523	-10.2	-20.0	275	3
2023-09-15T06:00	5477	522	-10.3	-20.6	266	3
2023-09-15T06:00	5507	520	-10.4	-20.6	259	3
2023-09-15T06:00	5533	518	-10.6	-20.6	257	4
2023-09-15T06:00	5553	516	-10.7	-20.5	258	4
2023-09-15T06:00	5585	514	-11.0	-20.7	261	4
2023-09-15T06:00	5609	513	-11.2	-20.8	263	5
2023-09-15T06:00	5630	511	-11.3	-20.7	263	5
2023-09-15T06:00	5655	510	-11.6		260	5
2023-09-15T06:00	5692	507	-11.8	-22.0	255	6
2023-09-15T06:00	5712	506	-12.0	-22.0	249	6
2023-09-15T06:00	5734	504	-12.2	-21.9	244	6
2023-09-15T06:00	5764	503	-12.4	-21.5	239	6
2023-09-15T06:00	5788	501	-12.6	-21.6	237	6
2023-09-15T06:00	5820	499	-12.9	-21.6	236	6
2023-09-15T06:00	5846	497	-13.1	-21.8	238	6
2023-09-15T06:00	5866	496	-13.3	-21.9	240	5
2023-09-15T06:00	5882	495	-13.4	-22.1	243	5
2023-09-15T06:00	5904	493	-13.6	-22.3	246	5
2023-09-15T06:00	5923	492	-13.7	-22.3	246	5
2023-09-15T06:00	5945	491	-13.9	-22.3	246	6
2023-09-15T06:00	5976	489	-14.2	-22.4	245	6
2023-09-15T06:00	5999	487	-14.3	-22.3	245	6
2023-09-15T06:00	6029	485	-14.6	-22.8	245	6
2023-09-15T06:00	6050	484	-14.8	-22.9	246	6
2023-09-15T06:00	6069	483	-14.9	-22.8	248	6
2023-09-15T06:00	6087	482	-15.1	-22.7	249	6
2023-09-15T06:00	6109	480	-15.3	-22.7	249	6
2023-09-15T06:00	6140	478	-15.6	-22.8	247	6
2023-09-15T06:00	6166	476	-15.8	-22.7	245	6
2023-09-15T06:00	6197	475	-16.1	-22.7	245	6
2023-09-15T06:00	6216	473	-16.3	-22.4	246	6
2023-09-15T06:00	6242	472	-16.5	-22.5	248	6
2023-09-15T06:00	6274	470	-16.7	-23.1	251	6
2023-09-15T06:00	6296	468	-16.8	-23.4	255	7
2023-09-15T06:00	6319	467	-17.0	-23.6	257	7
2023-09-15T06:00	6344	465	-17.2	-23.8	260	7
2023-09-15T06:00	6372	464	-17.5	-23.9	261	6
2023-09-15T06:00	6399	462	-17.8	-24.1	262	6
2023-09-15T06:00	6425	460	-18.0	-24.3	262	6
2023-09-15T06:00	6449	459	-18.2	-24.8	261	7
2023-09-15T06:00	6473	457	-18.3	-25.5	259	7
2023-09-15T06:00	6501	456	-18.4	-26.1	258	8
2023-09-15T06:00	6519	455	-18.4	-26.5	256	8
2023-09-15T06:00	6539	453	-18.5	-26.3	255	8
2023-09-15T06:00	6558	452	-18.7	-26.3	254	7
2023-09-15T06:00	6580	451	-18.8	-26.5	252	7
2023-09-15T06:00	6615	449	-19.1	-27.1	250	7
2023-09-15T06:00	6641	447	-19.2	-27.8	249	7
2023-09-15T06:00	6676	445	-19.4	-29.6	248	7
2023-09-15T06:00	6697	444	-19.6	-28.9	248	8
2023-09-15T06:00	6725	442	-19.9	-28.1	249	8
2023-09-15T06:00	6749	441	-20.1	-28.1	250	8
2023-09-15T06:00	6777	439	-20.3	-28.3	252	8
2023-09-15T06:00	6804	438	-20.5	-28.3	253	8
2023-09-15T06:00	6829	436	-20.7	-28.6	253	8
2023-09-15T06:00	6853	435	-20.9	-28.6	253	8
2023-09-15T06:00	6874	433	-21.1		253	7
2023-09-15T06:00	6893	432	-21.3	-29.4	252	7
2023-09-15T06:00	6926	430	-21.5	-29.4	251	7
2023-09-15T06:00	6952	429	-21.7	-30.1	251	7
2023-09-15T06:00	6970	428	-21.9	-30.1	251	7
2023-09-15T06:00	6997	426	-22.1	-30.5	253	7
2023-09-15T06:00	7027	425	-22.4	-30.8	255	7
2023-09-15T06:00	7051	423	-22.6	-31.0	258	7
2023-09-15T06:00	7077	422	-22.9	-31.3	261	7
2023-09-15T06:00	7104	420	-23.1	-31.4	264	7
2023-09-15T06:00	7134	418	-23.4	-31.7	265	7
2023-09-15T06:00	7164	417	-23.7	-32.2	266	8
2023-09-15T06:00	7192	415	-24.0	-32.5	266	8
2023-09-15T06:00	7214	414	-24.2	-32.6	267	8
2023-09-15T06:00	7244	412	-24.4	-34.0	269	8
2023-09-15T06:00	7271	411	-24.6	-35.3	270	8
2023-09-15T06:00	7292	409	-24.7	-35.5	270	7
2023-09-15T06:00	7326	408	-25.0	-35.6	270	7
2023-09-15T06:00	7351	406	-25.2	-35.8	269	7
2023-09-15T06:00	7377	405	-25.3	-37.8	268	7
2023-09-15T06:00	7399	403	-25.5	-38.5	268	7
2023-09-15T06:00	7429	402	-25.7	-38.6	268	7
2023-09-15T06:00	7459	400	-26.0	-39.8	269	7
2023-09-15T06:00	7489	398	-26.1	-41.1	271	7
2023-09-15T06:00	7519	397	-26.3	-41.5	272	7
2023-09-15T06:00	7539	396	-26.4	-41.7	273	8
2023-09-15T06:00	7560	394	-26.6	-42.0	274	8
2023-09-15T06:00	7584	393	-26.7	-41.6	275	9
2023-09-15T06:00	7613	392	-26.9	-40.7	276	9
2023-09-15T06:00	7642	390	-27.2	-41.9	277	10
2023-09-15T06:00	7677	388	-27.4	-43.1	279	10
2023-09-15T06:00	7698	387	-27.5	-43.6	281	11
2023-09-15T06:00	7721	386	-27.6		284	11
2023-09-15T06:00	7753	384	-27.7	-42.6	285	11
2023-09-15T06:00	7778	383	-27.9	-41.3	287	11
2023-09-15T06:00	7810	381	-28.2	-41.1	287	10
2023-09-15T06:00	7834	380	-28.4	-40.3	288	10
2023-09-15T06:00	7858	378	-28.7	-40.2	288	10
2023-09-15T06:00	7886	377	-28.9	-42.0	289	9
2023-09-15T06:00	7912	376	-29.0	-43.8	290	9
2023-09-15T06:00	7944	374	-29.3	-44.8	291	8
2023-09-15T06:00	7969	373	-29.5	-46.0	290	8
2023-09-15T06:00	7991	371	-29.6	-44.6	289	8
2023-09-15T06:00	8018	370	-29.9	-43.5	288	8
2023-09-15T06:00	8042	369	-30.1	-43.1	286	8
2023-09-15T06:00	8065	368	-30.3	-44.4	285	8
2023-09-15T06:00	8092	366	-30.5	-45.4	285	7
2023-09-15T06:00	8121	365	-30.7	-46.5	286	7
2023-09-15T06:00	8144	364	-30.8	-46.2	287	7
2023-09-15T06:00	8168	362	-31.0	-46.7	289	7
2023-09-15T06:00	8197	361	-31.2	-46.6	290	7
2023-09-15T06:00	8231	359	-31.5	-46.8	291	7
2023-09-15T06:00	8255	358	-31.6	-46.8	291	7
2023-09-15T06:00	8277	357	-31.8	-46.7	290	7
2023-09-15T06:00	8302	356	-32.0	-45.6	289	7
2023-09-15T06:00	8328	354	-32.2	-45.4	287	7
2023-09-15T06:00	8362	353	-32.5	-45.1	287	8
2023-09-15T06:00	8380	352	-32.7	-44.9	287	8
2023-09-15T06:00	8402	351	-32.9	-44.0	287	8
2023-09-15T06:00	8421	350	-33.1	-43.9	287	8
2023-09-15T06:00	8443	349	-33.3	-43.9	288	7
2023-09-15T06:00	8461	348	-33.5	-44.0	288	7
2023-09-15T06:00	8482	347	-33.7	-43.9	289	7
2023-09-15T06:00	8505	345	-33.9	-44.2	289	7
2023-09-15T06:00	8534	344	-34.2	-44.2	289	7
2023-09-15T06:00	8564	343	-34.4	-45.0	288	7
2023-09-15T06:00	8586	341	-34.6	-45.4	287	7
2023-09-15T06:00	8610	340	-34.8	-45.5	286	8
2023-09-15T06:00	8635	339	-35.0	-45.4	285	8
2023-09-15T06:00	8666	338	-35.3	-45.6	285	8
2023-09-15T06:00	8689	337	-35.6	-45.8	286	7
2023-09-15T06:00	8710	335	-35.8	-45.8	288	7
2023-09-15T06:00	8730	334	-36.0	-45.8	288	7
2023-09-15T06:00	8750	334	-36.1	-45.8	289	7
2023-09-15T06:00	8768	333	-36.3	-46.0	289	7
2023-09-15T06:00	8787	332	-36.5	-46.2	288	8
2023-09-15T06:00	8807	331	-36.7	-46.2	289	8
2023-09-15T06:00	8825	330	-36.8	-46.1	289	8
2023-09-15T06:00	8845	329	-37.0	-46.5	290	8
2023-09-15T06:00	8865	328	-37.2	-46.8	291	8
2023-09-15T06:00	8884	327	-37.3	-46.4	293	8
2023-09-15T06:00	8905	326	-37.5	-47.0	294	8
2023-09-15T06:00	8923	325	-37.6	-47.3	294	8
2023-09-15T06:00	8945	324	-37.8	-47.3	294	8
2023-09-15T06:00	8972	323	-38.1	-47.4	293	7
2023-09-15T06:00	8995	322	-38.3	-47.6	291	7
2023-09-15T06:00	9016	321	-38.5	-47.8	290	7
2023-09-15T06:00	9039	320	-38.7	-47.8	288	8
2023-09-15T06:00	9061	319	-38.9	-47.8	287	8
2023-09-15T06:00	9085	318	-39.1	-47.7	287	8
2023-09-15T06:00	9106	317	-39.3	-47.8	287	8
2023-09-15T06:00	9125	316	-39.5	-48.0	288	7
2023-09-15T06:00	9143	315	-39.6	-48.0	290	7
2023-09-15T06:00	9163	314	-39.9	-47.7	291	7
2023-09-15T06:00	9183	313	-40.0	-47.3	293	7
2023-09-15T06:00	9206	312	-40.2	-47.5	295	7
2023-09-15T06:00	9236	311	-40.4	-48.2	297	7
2023-09-15T06:00	9258	310	-40.6	-48.5	298	7
2023-09-15T06:00	9279	309	-40.8	-47.7	299	7
2023-09-15T06:00	9300	308	-41.0	-47.1	300	7
2023-09-15T06:00	9321	307	-41.2	-47.0	300	7
2023-09-15T06:00	9347	306	-41.5	-47.1	300	7
2023-09-15T06:00	9371	305	-41.7	-47.2	300	6
2023-09-15T06:00	9391	304	-41.9	-47.2	299	6
2023-09-15T06:00	9417	303	-42.1	-47.1	297	6
2023-09-15T06:00	9438	302	-42.4	-47.3	295	6
2023-09-15T06:00	9460	301	-42.5	-47.7	291	6
2023-09-15T06:00	9481	300	-42.7	-48.7	287	5
2023-09-15T06:00	9503	299	-42.9	-48.9	283	5
2023-09-15T06:00	9524	298	-43.1	-48.9	280	6
2023-09-15T06:00	9545	297	-43.2	-49.1	277	6
2023-09-15T06:00	9565	296	-43.3	-49.3	276	6
2023-09-15T06:00	9588	295	-43.5	-49.5	274	6
2023-09-15T06:00	9609	294	-43.7		274	6
2023-09-15T06:00	9634	293	-43.9	-50.3	274	7
2023-09-15T06:00	9659	292	-44.1	-51.1	276	7
2023-09-15T06:00	9681	291	-44.2	-51.0	278	7
2023-09-15T06:00	9703	290	-44.4	-51.3	280	7
2023-09-15T06:00	9724	289	-44.5	-51.7	282	7
2023-09-15T06:00	9745	288	-44.7	-51.7	283	7
2023-09-15T06:00	9770	287	-44.9	-51.8	285	7
2023-09-15T06:00	9791	286	-45.1	-51.8	286	7
2023-09-15T06:00	9814	285	-45.4	-51.8	288	7
2023-09-15T06:00	9839	284	-45.6	-51.7	289	8
2023-09-15T06:00	9868	283	-45.9	-51.9	289	8
2023-09-15T06:00	9893	282	-46.1	-52.1	288	8
2023-09-15T06:00	9918	281	-46.2	-52.7	287	8
2023-09-15T06:00	9938	280	-46.3	-53.4	285	7
2023-09-15T06:00	9958	279	-46.4	-54.4	284	7
2023-09-15T06:00	9978	278	-46.5	-55.2	283	7
2023-09-15T06:00	9999	277	-46.7	-55.0	284	7
2023-09-15T06:00	10020	277	-46.9	-54.7	284	7
2023-09-15T06:00	10041	276	-47.1	-54.6	285	7
2023-09-15T06:00	10060	275	-47.3	-54.7	285	7
2023-09-15T06:00	10082	274	-47.5	-54.9	284	7
2023-09-15T06:00	10102	273	-47.6	-55.1	284	7
2023-09-15T06:00	10123	272	-47.8	-55.3	284	7
2023-09-15T06:00	10145	271	-48.0	-55.4	285	6
2023-09-15T06:00	10164	271	-48.2	-55.5	286	6
2023-09-15T06:00	10185	270	-48.4	-55.8	287	6
2023-09-15T06:00	10207	269	-48.5	-56.4	288	6
2023-09-15T06:00	10227	268	-48.6	-56.6	289	6
2023-09-15T06:00	10248	267	-48.8	-56.7	289	6
2023-09-15T06:00	10271	266	-49.0	-56.7	289	6
2023-09-15T06:00	10290	265	-49.2	-57.0	289	6
2023-09-15T06:00	10309	265	-49.3	-57.4	289	6
2023-09-15T06:00	10331	264	-49.5	-57.7	288	6
2023-09-15T06:00	10351	263	-49.7	-57.9	287	5
2023-09-15T06:00	10370	262	-49.8	-57.8	287	5
2023-09-15T06:00	10391	261	-50.0	-57.8	287	5
2023-09-15T06:00	10413	260	-50.2	-57.8	287	5
2023-09-15T06:00	10435	260	-50.4	-57.9	288	5
2023-09-15T06:00	10456	259	-50.6	-58.0	289	5
2023-09-15T06:00	10476	258	-50.8		289	5
2023-09-15T06:00	10497	257	-51.0	-58.0	289	5
2023-09-15T06:00	10518	256	-51.1	-58.2	289	5
2023-09-15T06:00	10538	256	-51.3	-58.4	288	5
2023-09-15T06:00	10559	255	-51.5	-58.5	288	5
2023-09-15T06:00	10577	254	-51.6	-58.7	287	5
2023-09-15T06:00	10597	253	-51.8	-59.1	286	4
2023-09-15T06:00	10618	252	-51.9	-59.2	285	4
2023-09-15T06:00	10638	252	-52.1	-59.1	284	4
2023-09-15T06:00	10662	251	-52.3	-59.1	284	4
2023-09-15T06:00	10682	250	-52.5	-59.3	284	4
2023-09-15T06:00	10704	249	-52.6	-59.5	284	4
2023-09-15T06:00	10725	248	-52.8	-59.8	284	4
2023-09-15T06:00	10745	247	-52.9	-60.4	284	4
2023-09-15T06:00	10768	247	-52.9	-60.6	284	4
2023-09-15T06:00	10787	246	-53.0	-60.7	283	4
2023-09-15T06:00	10808	245	-53.1	-60.8	283	3
2023-09-15T06:00	10829	244	-53.3	-61.0	282	3
2023-09-15T06:00	10852	243	-53.5	-61.2	281	3
2023-09-15T06:00	10882	242	-53.7	-61.4	279	3
2023-09-15T06:00	10907	241	-53.9	-61.6	274	3
2023-09-15T06:00	10938	240	-54.2	-61.8	269	3
2023-09-15T06:00	10961	239	-54.4	-61.8	262	3
2023-09-15T06:00	10986	238	-54.6	-61.8	257	3
2023-09-15T06:00	11011	237	-54.9	-61.8	254	3
2023-09-15T06:00	11034	237	-55.1	-61.8	252	3
2023-09-15T06:00	11055	236	-55.3	-61.7	252	3
2023-09-15T06:00	11079	235	-55.5	-61.7	253	3
2023-09-15T06:00	11104	234	-55.7	-61.6	254	3
2023-09-15T06:00	11128	233	-56.0	-61.7	255	3
2023-09-15T06:00	11149	232	-56.2	-61.7	256	3
2023-09-15T06:00	11172	232	-56.3	-61.6	258	4
2023-09-15T06:00	11193	231	-56.5	-61.6	260	4
2023-09-15T06:00	11217	230	-56.7	-61.8	262	4
2023-09-15T06:00	11237	229	-56.8	-62.1	263	4
2023-09-15T06:00	11257	228	-56.9	-62.5	264	4
2023-09-15T06:00	11279	228	-57.0	-63.0	265	4
2023-09-15T06:00	11299	227	-57.2	-63.4	267	4
2023-09-15T06:00	11320	226	-57.4	-63.5	271	4
2023-09-15T06:00	11342	225	-57.5	-63.5	275	4
2023-09-15T06:00	11364	225	-57.8	-63.9	278	4
2023-09-15T06:00	11387	224	-58.0	-64.1	281	4
2023-09-15T06:00	11409	223	-58.1	-64.3	283	4
2023-09-15T06:00	11429	222	-58.2	-64.4	283	4
2023-09-15T06:00	11451	222	-58.4	-64.5	283	4
2023-09-15T06:00	11470	221	-58.6	-64.6	282	4
2023-09-15T06:00	11492	220	-58.7	-64.7	282	4
2023-09-15T06:00	11511	219	-58.9	-64.9	282	4
2023-09-15T06:00	11532	219	-59.0	-65.0	282	5
2023-09-15T06:00	11553	218	-59.1	-64.9	282	5
2023-09-15T06:00	11573	217	-59.3	-65.0	283	5
2023-09-15T06:00	11593	217	-59.5	-65.1	284	5
2023-09-15T06:00	11611	216	-59.6	-65.2	286	5
2023-09-15T06:00	11633	215	-59.8	-65.4	287	5
2023-09-15T06:00	11654	214	-59.9	-65.5	288	5
2023-09-15T06:00	11673	214	-60.0	-65.7	290	5
2023-09-15T06:00	11696	213	-60.1	-65.8	291	5
2023-09-15T06:00	11715	212	-60.3	-66.0	293	5
2023-09-15T06:00	11737	212	-60.4	-66.1	296	5
2023-09-15T06:00	11756	211	-60.5	-66.3	298	5
2023-09-15T06:00	11777	210	-60.6	-66.4	299	5
2023-09-15T06:00	11797	210	-60.7	-66.5	300	5
2023-09-15T06:00	11815	209	-60.8	-66.4	299	5
2023-09-15T06:00	11835	208	-60.9	-66.4	297	5
2023-09-15T06:00	11857	208	-61.1	-66.5	293	4
2023-09-15T06:00	11875	207	-61.3	-66.5	289	4
2023-09-15T06:00	11896	206	-61.4	-66.4	284	4
2023-09-15T06:00	11916	206	-61.6	-66.4	279	4
2023-09-15T06:00	11935	205	-61.7	-66.5	274	4
2023-09-15T06:00	11955	204	-61.7	-66.5	271	4
2023-09-15T06:00	11977	204	-61.6	-66.6	268	4
2023-09-15T06:00	11997	203	-61.7	-66.8	267	5
2023-09-15T06:00	12018	202	-61.9	-67.0	267	5
2023-09-15T06:00	12043	201	-62.1	-67.2	269	5
2023-09-15T06:00	12062	201	-62.2	-67.2	273	5
2023-09-15T06:00	12082	200	-62.2	-67.3	278	5
2023-09-15T06:00	12104	199	-62.3	-67.4	283	5
2023-09-15T06:00	12125	199	-62.3	-67.4	288	5
2023-09-15T06:00	12143	198	-62.3	-67.4	290	6
2023-09-15T06:00	12165	198	-62.2	-67.3	291	6
2023-09-15T06:00	12184	197	-62.1	-67.3	289	6
2023-09-15T06:00	12204	196	-62.2	-67.4	286	6
2023-09-15T06:00	12229	195	-61.8	-66.9	283	6
2023-09-15T06:00	12256	195	-62.0	-67.0	280	6
2023-09-15T06:00	12280	194	-62.2	-67.0	279	6
2023-09-15T06:00	12302	193	-62.4	-67.1	279	7
2023-09-15T06:00	12324	193	-62.6	-67.2	279	7
2023-09-15T06:00	12345	192	-62.8	-67.3	280	7
2023-09-15T06:00	12367	191	-63.0	-67.4	281	8
2023-09-15T06:00	12386	191	-63.1	-67.6	281	8
2023-09-15T06:00	12406	190	-62.7	-67.6	282	8
2023-09-15T06:00	12429	189	-62.5	-68.0	284	8
2023-09-15T06:00	12450	189	-61.9	-68.3	286	8
2023-09-15T06:00	12469	188	-61.0	-68.4	289	8
2023-09-15T06:00	12492	187	-60.8	-69.0	293	8
2023-09-15T06:00	12512	187	-60.4	-69.2	296	8
2023-09-15T06:00	12532	186	-59.9	-69.2	299	8
2023-09-15T06:00	12552	186	-59.7	-69.2	299	8
2023-09-15T06:00	12570	185	-59.8	-69.2	299	8
2023-09-15T06:00	12593	184	-59.8	-68.9	296	7
2023-09-15T06:00	12617	184	-59.8	-68.6	292	7
2023-09-15T06:00	12639	183	-59.7	-68.2	286	7
2023-09-15T06:00	12665	182	-59.6	-68.0	279	6
2023-09-15T06:00	12691	181	-59.5	-67.9	270	6
2023-09-15T06:00	12711	181	-59.7	-68.1	260	6
2023-09-15T06:00	12738	180	-59.8	-68.1	251	6
2023-09-15T06:00	12759	179	-59.9	-68.2	244	7
2023-09-15T06:00	12778	179	-59.9	-68.3	241	7
2023-09-15T06:00	12800	178	-59.8	-68.5	240	8
2023-09-15T06:00	12821	178	-59.6	-69.1	242	9
2023-09-15T06:00	12839	177	-59.3	-70.5	244	10
2023-09-15T06:00	12860	177	-58.6	-72.1	246	10
2023-09-15T06:00	12882	176	-58.1	-74.4	248	11
2023-09-15T06:00	12903	175	-57.7	-76.6	250	12
2023-09-15T06:00	12925	175	-57.2	-77.8	251	12
2023-09-15T06:00	12945	174	-56.8		251	13
2023-09-15T06:00	12963	174	-56.4	-78.5	251	13
2023-09-15T06:00	12986	173	-56.0	-78.2	252	14
2023-09-15T06:00	13005	173	-55.9	-77.8	252	14
2023-09-15T06:00	13027	172	-55.7	-77.5	253	14
2023-09-15T06:00	13048	171	-55.3	-77.3	255	14
2023-09-15T06:00	13069	171	-55.2	-77.4	256	14
2023-09-15T06:00	13089	170	-55.1	-77.6	258	14
2023-09-15T06:00	13109	170	-55.1	-77.8	259	14
2023-09-15T06:00	13129	169	-55.1	-77.8	260	14
2023-09-15T06:00	13152	169	-55.1	-77.8	262	14
2023-09-15T06:00	13172	168	-55.2	-78.0	263	14
2023-09-15T06:00	13195	168	-55.2	-78.0	264	14
2023-09-15T06:00	13216	167	-55.2	-78.2	265	14
2023-09-15T06:00	13234	167	-55.2	-78.4	266	13
2023-09-15T06:00	13253	166	-55.1	-78.5	268	13
2023-09-15T06:00	13275	165	-54.9	-78.5	269	13
2023-09-15T06:00	13293	165	-55.0	-78.6	270	13
2023-09-15T06:00	13315	164	-55.0	-78.8	270	12
2023-09-15T06:00	13335	164	-55.0	-78.8	270	12
2023-09-15T06:00	13356	163	-54.9	-78.7	270	12
2023-09-15T06:00	13376	163	-54.9	-78.7	270	11
2023-09-15T06:00	13397	162	-54.9	-78.9	270	11
2023-09-15T06:00	13416	162	-54.6	-78.9	271	11
2023-09-15T06:00	13438	161	-54.3	-78.8	273	11
2023-09-15T06:00	13458	161	-54.2	-79.0	275	10
2023-09-15T06:00	13481	160	-54.2	-79.2	277	10
2023-09-15T06:00	13503	160	-54.1	-79.3	278	10
2023-09-15T06:00	13521	159	-53.8	-79.1	279	10
2023-09-15T06:00	13545	159	-53.7	-79.3	280	9
2023-09-15T06:00	13563	158	-53.8	-79.6	280	9
2023-09-15T06:00	13585	158	-53.9	-79.7	280	9
2023-09-15T06:00	13605	157	-54.0	-79.7	280	9
2023-09-15T06:00	13626	157	-54.2	-79.7	281	9
2023-09-15T06:00	13647	156	-54.4	-79.8	281	8
2023-09-15T06:00	13669	156	-54.5	-79.9	281	8
2023-09-15T06:00	13690	155	-54.6	-80.0	280	8
2023-09-15T06:00	13709	155	-54.7	-80.0	279	8
2023-09-15T06:00	13730	154	-54.9	-80.0	278	8
2023-09-15T06:00	13750	154	-55.0	-80.0	277	7
2023-09-15T06:00	13772	153	-55.0	-80.0	276	7
2023-09-15T06:00	13795	153	-55.0	-80.0	274	7
2023-09-15T06:00	13814	152	-55.1	-80.1	272	7
2023-09-15T06:00	13833	152	-55.2	-80.2	271	7
2023-09-15T06:00	13856	151	-55.4	-80.1	269	7
2023-09-15T06:00	13876	151	-55.4	-80.4	268	8
2023-09-15T06:00	13898	150	-55.5	-80.4	266	8
2023-09-15T06:00	13917	150	-55.6	-80.5	264	8
2023-09-15T06:00	13937	149	-55.7	-80.6	262	8
2023-09-15T06:00	13960	149	-55.8	-80.7	260	9
2023-09-15T06:00	13981	148	-56.0	-80.6	259	9
2023-09-15T06:00	14001	148	-56.0	-80.6	259	9
2023-09-15T06:00	14021	147	-56.0	-80.8	260	9
2023-09-15T06:00	14043	147	-56.1	-80.9	261	9
2023-09-15T06:00	14062	146	-56.2	-81.0	262	10
2023-09-15T06:00	14083	146	-56.1	-80.9	263	10
2023-09-15T06:00	14102	145	-56.1	-80.9	264	10
2023-09-15T06:00	14123	145	-56.0	-80.8	265	10
2023-09-15T06:00	14146	144	-56.0	-80.8	266	10
2023-09-15T06:00	14165	144	-56.0	-80.8	267	10
2023-09-15T06:00	14186	143	-56.1	-80.9	269	10
2023-09-15T06:00	14206	143	-56.1	-80.9	270	10
2023-09-15T06:00	14228	143	-56.2	-81.0	271	10
2023-09-15T06:00	14248	142	-56.3	-81.1	272	10
2023-09-15T06:00	14270	142	-56.3	-81.1	273	10
2023-09-15T06:00	14292	141	-56.2	-81.0	274	10
2023-09-15T06:00	14312	141	-56.3	-81.1	275	10
2023-09-15T06:00	14337	140	-56.3	-81.1	275	9
2023-09-15T06:00	14354	140	-56.4	-80.9	276	9
2023-09-15T06:00	14376	139	-56.6	-81.1	278	9
2023-09-15T06:00	14398	139	-56.7	-81.2	279	8
2023-09-15T06:00	14418	138	-56.8	-81.2	281	8
2023-09-15T06:00	14437	138	-56.9	-81.1	281	8
2023-09-15T06:00	14460	137	-57.0	-81.2	280	7
2023-09-15T06:00	14478	137	-57.0	-81.2	277	7
2023-09-15T06:00	14499	137	-57.1	-81.2	272	7
2023-09-15T06:00	14520	136	-57.1	-81.2	267	7
2023-09-15T06:00	14540	136	-57.0	-81.2	262	7
2023-09-15T06:00	14563	135	-56.9	-81.1	259	7
2023-09-15T06:00	14582	135	-57.1	-81.2	256	7
2023-09-15T06:00	14602	134	-57.3	-81.4	255	7
2023-09-15T06:00	14625	134	-57.3	-81.2	255	8
2023-09-15T06:00	14649	133	-57.5	-81.4	254	8
2023-09-15T06:00	14667	133	-57.6	-81.4	254	8
2023-09-15T06:00	14690	132	-57.7	-81.5	254	8
2023-09-15T06:00	14714	132	-57.7	-81.7	253	8
2023-09-15T06:00	14734	132	-57.7	-81.7	252	9
2023-09-15T06:00	14757	131	-57.2	-81.5	251	9
2023-09-15T06:00	14778	131	-56.8	-81.2	250	9
2023-09-15T06:00	14797	130	-56.8	-81.2	250	10
2023-09-15T06:00	14820	130	-56.8	-81.2	250	10
2023-09-15T06:00	14842	129	-57.0	-81.4	251	10
2023-09-15T06:00	14861	129	-57.2	-81.5	253	11
2023-09-15T06:00	14882	128	-57.2	-81.5	255	11
2023-09-15T06:00	14905	128	-57.2	-81.5	258	11
2023-09-15T06:00	14927	128	-56.9	-81.3	261	11
2023-09-15T06:00	14948	127	-57.0	-81.4	263	10
2023-09-15T06:00	14970	127	-57.1	-81.7	266	10
2023-09-15T06:00	14990	126	-57.1	-81.7	268	10
2023-09-15T06:00	15012	126	-57.2	-81.8	269	9
2023-09-15T06:00	15035	125	-57.2	-81.8	270	9
2023-09-15T06:00	15055	125	-57.2	-81.8	270	9
2023-09-15T06:00	15074	125	-57.0	-81.8	270	9
2023-09-15T06:00	15096	124	-56.9	-81.8	270	9
2023-09-15T06:00	15115	124	-56.9	-81.8	270	9
2023-09-15T06:00	15136	123	-56.9	-81.8	271	9
2023-09-15T06:00	15158	123	-57.0	-81.8	272	10
2023-09-15T06:00	15178	123	-56.9	-81.8	274	10
2023-09-15T06:00	15200	122	-56.9	-81.8	275	11
2023-09-15T06:00	15224	122	-56.9	-81.8	275	11
2023-09-15T06:00	15244	121	-56.8	-81.7	275	11
2023-09-15T06:00	15264	121	-56.7	-81.6	274	11
2023-09-15T06:00	15283	121	-56.7	-81.6	274	10
2023-09-15T06:00	15306	120	-56.8	-81.7	274	10
2023-09-15T06:00	15328	120	-56.8	-81.7	274	10
2023-09-15T06:00	15348	119	-56.9	-81.8	274	11
2023-09-15T06:00	15369	119	-57.0	-81.8	275	11
2023-09-15T06:00	15392	119	-57.2	-81.8	275	11
2023-09-15T06:00	15413	118	-57.3	-81.8	275	11
2023-09-15T06:00	15433	118	-57.4	-81.9	276	11
2023-09-15T06:00	15455	117	-57.5	-82.0	277	11
2023-09-15T06:00	15476	117	-57.7	-82.2	279	11
2023-09-15T06:00	15497	117	-57.7	-82.2	282	11
2023-09-15T06:00	15521	116	-57.8	-82.2	284	11
2023-09-15T06:00	15542	116	-57.8	-82.2	287	11
2023-09-15T06:00	15566	115	-57.8	-82.2	289	11
2023-09-15T06:00	15588	115	-57.8	-82.2	291	11
2023-09-15T06:00	15611	115	-57.8	-82.2	293	10
2023-09-15T06:00	15631	114	-57.9	-82.3	295	10
2023-09-15T06:00	15657	114	-58.0	-82.4	295	9
2023-09-15T06:00	15677	113	-58.1	-82.5	295	9
2023-09-15T06:00	15696	113	-58.1	-82.5	293	8
2023-09-15T06:00	15718	113	-58.0	-82.4	291	8
2023-09-15T06:00	15742	112	-58.0	-82.4	288	7
2023-09-15T06:00	15766	112	-58.0	-82.6	285	7
2023-09-15T06:00	15789	111	-58.1	-82.7	282	6
2023-09-15T06:00	15810	111	-58.0	-82.6	280	6
2023-09-15T06:00	15830	111	-58.1	-82.5	278	6
2023-09-15T06:00	15849	110	-58.2	-82.6	277	6
2023-09-15T06:00	15873	110	-58.4	-82.7	276	6
2023-09-15T06:00	15896	109	-58.6	-82.7	276	6
2023-09-15T06:00	15918	109	-58.7	-82.7	277	7
2023-09-15T06:00	15942	109	-58.8	-82.8	278	7
2023-09-15T06:00	15963	108	-58.9	-82.9	280	7
2023-09-15T06:00	15984	108	-59.0	-82.8	281	7
2023-09-15T06:00	16008	108	-59.1	-82.8	282	7
2023-09-15T06:00	16031	107	-59.2	-82.9	281	6
2023-09-15T06:00	16055	107	-59.2	-82.9	278	6
2023-09-15T06:00	16076	106	-59.2	-82.9	274	6
2023-09-15T06:00	16099	106	-59.2	-83.1	269	6
2023-09-15T06:00	16121	106	-59.0	-83.0	264	6
2023-09-15T06:00	16142	105	-59.0	-83.0	261	6
2023-09-15T06:00	16166	105	-59.0	-83.0	259	6
2023-09-15T06:00	16186	105	-59.0	-83.0	259	6
2023-09-15T06:00	16209	104	-59.2	-83.1	260	7
2023-09-15T06:00	16234	104	-59.3	-83.2	261	7
2023-09-15T06:00	16257	103	-59.4	-83.3	263	8
2023-09-15T06:00	16279	103	-59.3	-83.2	266	8
2023-09-15T06:00	16300	103	-59.3	-83.2	269	9
2023-09-15T06:00	16322	102	-59.4	-83.3	273	9
2023-09-15T06:00	16347	102	-59.4	-83.3	278	10
2023-09-15T06:00	16368	102	-59.4	-83.5	283	10
2023-09-15T06:00	16391	101	-59.2	-83.3	289	10
2023-09-15T06:00	16412	101	-59.0	-83.4	293	10
2023-09-15T06:00	16435	100	-58.8	-83.5	297	9
2023-09-15T06:00	16456	100	-58.8	-83.5	299	9
2023-09-15T06:00	16479	100	-58.6	-83.6	299	8
2023-09-15T06:00	16502	99	-58.4	-83.4	298	8
2023-09-15T06:00	16521	99	-58.3	-83.6	294	7
2023-09-15T06:00	16546	99	-58.2	-83.5	288	6
2023-09-15T06:00	16568	98	-58.3	-83.6	281	6
2023-09-15T06:00	16589	98	-58.1	-83.7	274	6
2023-09-15T06:00	16612	98	-57.9	-83.6	268	6
2023-09-15T06:00	16635	97	-57.9	-83.6	265	6
2023-09-15T06:00	16657	97	-57.8	-83.8	264	7
2023-09-15T06:00	16679	97	-57.7	-83.7	263	7
2023-09-15T06:00	16702	96	-57.8	-83.8	262	7
2023-09-15T06:00	16724	96	-57.9	-83.9	261	8
2023-09-15T06:00	16745	96	-57.8	-83.8	259	8
2023-09-15T06:00	16770	95	-57.8	-83.8	258	8
2023-09-15T06:00	16789	95	-57.7	-83.7	258	9
2023-09-15T06:00	16815	95	-57.8	-83.8	259	9
2023-09-15T06:00	16836	94	-57.9	-83.9	261	9
2023-09-15T06:00	16861	94	-58.0	-83.9	263	9
2023-09-15T06:00	16880	94	-58.1	-84.0	265	9
2023-09-15T06:00	16904	93	-58.1	-84.0	266	8
2023-09-15T06:00	16926	93	-58.2	-84.1	266	8
2023-09-15T06:00	16948	93	-58.1	-84.0	266	9
2023-09-15T06:00	16973	92	-58.1	-84.3	266	9
2023-09-15T06:00	16997	92	-58.0	-84.2	266	9
2023-09-15T06:00	17018	92	-57.8	-84.1	266	9
2023-09-15T06:00	17043	91	-57.9	-84.2	265	9
2023-09-15T06:00	17065	91	-57.9	-84.5	263	9
2023-09-15T06:00	17086	91	-57.9	-84.5	261	8
2023-09-15T06:00	17105	90	-57.8	-84.4	258	8
2023-09-15T06:00	17129	90	-57.6	-84.3	257	7
2023-09-15T06:00	17152	90	-57.7	-84.3	257	7
2023-09-15T06:00	17174	89	-57.8	-84.4	258	7
2023-09-15T06:00	17198	89	-57.7	-84.3	259	6
2023-09-15T06:00	17218	89	-57.7	-84.3	258	6
2023-09-15T06:00	17242	88	-57.7	-84.3	255	6
2023-09-15T06:00	17266	88	-57.5	-84.2	251	6
2023-09-15T06:00	17287	88	-57.4	-84.4	246	7
2023-09-15T06:00	17309	87	-57.4	-84.4	242	7
2023-09-15T06:00	17330	87	-57.4	-84.4	241	8
2023-09-15T06:00	17352	87	-57.5	-84.5	241	8
2023-09-15T06:00	17375	87	-57.5	-84.5	243	9
2023-09-15T06:00	17398	86	-57.4	-84.4	245	9
2023-09-15T06:00	17420	86	-57.4	-84.4	249	9
2023-09-15T06:00	17441	86	-57.4	-84.4	252	9
2023-09-15T06:00	17468	85	-57.4	-84.4	256	8
2023-09-15T06:00	17492	85	-57.4	-84.4	260	8
2023-09-15T06:00	17511	85	-57.3	-84.4	262	8
2023-09-15T06:00	17534	84	-57.4	-84.4	263	7
2023-09-15T06:00	17557	84	-57.4	-84.4	262	7
2023-09-15T06:00	17578	84	-57.2	-84.3	260	7
2023-09-15T06:00	17601	83	-57.2	-84.3	258	7
2023-09-15T06:00	17623	83	-57.3	-84.7	256	6
2023-09-15T06:00	17646	83	-57.2	-84.6	255	6
2023-09-15T06:00	17665	83	-57.3	-84.7	254	6
2023-09-15T06:00	17688	82	-57.3	-84.4	253	6
2023-09-15T06:00	17710	82	-57.2	-84.3	253	6
2023-09-15T06:00	17733	82	-57.3	-84.4	252	6
2023-09-15T06:00	17755	81	-57.3	-84.4	251	6
2023-09-15T06:00	17778	81	-57.4	-84.4	250	7
2023-09-15T06:00	17805	81	-57.5	-84.5	250	7
2023-09-15T06:00	17822	81	-57.6	-84.6	249	8
2023-09-15T06:00	17847	80	-57.8	-84.7	250	8
2023-09-15T06:00	17873	80	-57.9	-84.8	251	8
2023-09-15T06:00	17897	80	-57.9	-84.8	252	9
2023-09-15T06:00	17917	79	-57.9	-84.8	254	9
2023-09-15T06:00	17938	79	-57.9	-84.8	254	9
2023-09-15T06:00	17961	79	-57.8	-84.7	254	9
2023-09-15T06:00	17982	79	-57.9	-84.8	255	10
2023-09-15T06:00	18009	78	-57.8	-85.1	256	10
2023-09-15T06:00	18032	78	-57.7	-85.0	257	11
2023-09-15T06:00	18055	78	-57.6	-84.9	258	11
2023-09-15T06:00	18076	77	-57.5	-84.9	260	12
2023-09-15T06:00	18099	77	-57.5	-84.9	262	12
2023-09-15T06:00	18122	77	-57.6	-84.9	263	11
2023-09-15T06:00	18145	77	-57.7	-85.0	263	11
2023-09-15T06:00	18167	76	-57.7	-85.0	263	10
2023-09-15T06:00	18194	76	-57.6	-84.9	263	9
2023-09-15T06:00	18216	76	-57.4	-84.8	263	9
2023-09-15T06:00	18240	75	-57.4	-84.8	263	9
2023-09-15T06:00	18266	75	-57.4	-84.8	264	8
2023-09-15T06:00	18288	75	-57.3	-84.7	265	9
2023-09-15T06:00	18310	75	-57.2	-84.6	265	9
2023-09-15T06:00	18335	74	-57.2	-84.6	265	9
2023-09-15T06:00	18354	74	-57.3	-84.7	265	9
2023-09-15T06:00	18379	74	-57.3	-85.1	264	10
2023-09-15T06:00	18405	74	-57.2	-85.0	264	10
2023-09-15T06:00	18429	73	-57.3	-85.1	264	10
2023-09-15T06:00	18455	73	-57.3	-85.1	263	10
2023-09-15T06:00	18482	73	-57.2	-85.0	263	10
2023-09-15T06:00	18506	72	-57.1	-84.9	262	10
2023-09-15T06:00	18530	72	-56.9	-84.8	261	9
2023-09-15T06:00	18552	72	-56.9	-84.8	261	9
2023-09-15T06:00	18580	72	-56.6	-84.5	263	9
2023-09-15T06:00	18601	71	-56.6	-84.5	265	10
2023-09-15T06:00	18629	71	-56.8	-84.7	267	10
2023-09-15T06:00	18652	71	-56.9	-84.8	270	10
2023-09-15T06:00	18677	70	-56.8	-84.7	271	10
2023-09-15T06:00	18701	70	-56.8	-84.7	272	10
2023-09-15T06:00	18729	70	-56.7	-84.6	273	10
2023-09-15T06:00	18754	70	-56.8	-84.7	273	10
2023-09-15T06:00	18776	69	-56.7	-85.0	273	10
2023-09-15T06:00	18805	69	-56.5	-84.9	273	10
2023-09-15T06:00	18827	69	-56.4	-84.8	274	9
2023-09-15T06:00	18854	68	-56.4	-84.8	274	9
2023-09-15T06:00	18877	68	-56.3	-84.7	274	9
2023-09-15T06:00	18902	68	-56.3	-84.7	272	8
2023-09-15T06:00	18927	68	-56.3	-84.7	270	8
2023-09-15T06:00	18955	67	-56.2	-84.6	267	8
2023-09-15T06:00	18977	67	-56.0	-84.5	262	7
2023-09-15T06:00	19004	67	-56.1	-84.6	257	7
2023-09-15T06:00	19029	67	-56.1	-84.6	251	7
2023-09-15T06:00	19052	66	-56.2	-84.6	246	7
2023-09-15T06:00	19079	66	-56.3	-84.3	243	7
2023-09-15T06:00	19104	66	-56.4	-84.8	241	7
2023-09-15T06:00	19130	66	-56.3	-84.7	242	8
2023-09-15T06:00	19154	65	-56.1	-84.6	244	8
2023-09-15T06:00	19178	65	-56.1	-84.6	247	8
2023-09-15T06:00	19204	65	-56.0	-84.5	249	8
2023-09-15T06:00	19230	65	-56.0	-84.5	251	9
2023-09-15T06:00	19256	64	-56.0	-84.5	253	9
2023-09-15T06:00	19281	64	-56.2	-84.6	255	9
2023-09-15T06:00	19304	64	-56.3	-84.7	258	9
2023-09-15T06:00	19333	64	-56.3	-84.3	261	8
2023-09-15T06:00	19355	63	-56.4	-84.4	264	8
2023-09-15T06:00	19379	63	-56.6	-84.5	267	8
2023-09-15T06:00	19406	63	-56.6	-84.5	270	8
2023-09-15T06:00	19431	63	-56.7	-84.6	272	8
2023-09-15T06:00	19451	62	-56.7	-84.6	272	7
2023-09-15T06:00	19478	62	-56.7	-84.6	272	7
2023-09-15T06:00	19507	62	-56.6	-84.5	271	7
2023-09-15T06:00	19532	62	-56.6	-84.5	269	7
2023-09-15T06:00	19553	61	-56.7	-85.0	267	7
2023-09-15T06:00	19578	61	-56.8	-84.7	266	7
2023-09-15T06:00	19599	61	-56.8	-84.7	264	7
2023-09-15T06:00	19628	61	-56.8	-84.7	262	7
2023-09-15T06:00	19650	60	-56.8	-84.7	260	7
2023-09-15T06:00	19672	60	-57.0	-84.8	258	7
2023-09-15T06:00	19702	60	-57.2	-85.0	256	7
2023-09-15T06:00	19726	60	-57.3	-85.1	255	7
2023-09-15T06:00	19749	59	-57.3	-85.1	255	8
2023-09-15T06:00	19776	59	-57.4	-85.2	256	8
2023-09-15T06:00	19795	59	-57.3	-85.1	257	9
2023-09-15T06:00	19822	59	-57.3	-85.1	259	9
2023-09-15T06:00	19844	59	-57.2	-85.0	262	9
2023-09-15T06:00	19873	58	-57.3	-85.1	265	9
2023-09-15T06:00	19897	58	-57.3	-85.1	268	9
2023-09-15T06:00	19921	58	-57.4	-85.2	271	8
2023-09-15T06:00	19945	58	-57.5	-85.2	273	8
2023-09-15T06:00	19969	57	-57.1	-85.3	274	8
2023-09-15T06:00	19991	57	-56.9	-85.2	274	7
2023-09-15T06:00	20017	57	-56.9	-85.2	275	7
2023-09-15T06:00	20040	57	-56.9	-85.2	276	7
2023-09-15T06:00	20064	57	-57.0	-85.2	277	7
2023-09-15T06:00	20088	56	-57.1	-85.3	279	7
2023-09-15T06:00	20109	56	-57.1	-85.3	280	8
2023-09-15T06:00	20135	56	-57.1	-85.3	282	8
2023-09-15T06:00	20157	56	-56.9	-85.2	283	9
2023-09-15T06:00	20178	56	-56.9	-85.2	284	9
2023-09-15T06:00	20204	55	-56.9	-85.2	284	9
2023-09-15T06:00	20229	55	-56.8	-85.1	285	9
2023-09-15T06:00	20251	55	-56.6	-84.9	285	8
2023-09-15T06:00	20274	55	-56.4	-84.8	286	8
2023-09-15T06:00	20301	55	-56.3	-85.1	287	7
2023-09-15T06:00	20324	54	-56.3	-85.1	289	7
2023-09-15T06:00	20344	54	-56.1	-85.0	291	6
2023-09-15T06:00	20367	54	-56.1	-85.0	294	6
2023-09-15T06:00	20390	54	-56.0	-84.9	297	6
2023-09-15T06:00	20413	54	-55.8	-84.8	298	5
2023-09-15T06:00	20439	53	-55.6	-84.6	298	5
2023-09-15T06:00	20462	53	-55.5	-84.5	297	5
2023-09-15T06:00	20485	53	-55.6	-84.6	296	5
2023-09-15T06:00	20515	53	-55.5	-84.5	295	5
2023-09-15T06:00	20533	53	-55.5	-84.5	294	5
2023-09-15T06:00	20559	52	-55.5	-84.1	294	5
2023-09-15T06:00	20583	52	-55.6	-84.2	293	5
2023-09-15T06:00	20607	52	-55.7	-84.3	290	5
2023-09-15T06:00	20633	52	-55.7	-84.3	286	5
2023-09-15T06:00	20658	52	-55.7	-84.3	278	4
2023-09-15T06:00	20682	51	-55.8	-84.3	267	4
2023-09-15T06:00	20711	51	-55.9	-84.4	255	4
2023-09-15T06:00	20734	51	-56.0	-84.5	244	4
2023-09-15T06:00	20759	51	-56.0	-84.5	236	4
2023-09-15T06:00	20783	51	-56.1	-84.6	233	5
2023-09-15T06:00	20808	50	-56.1	-84.6	233	5
2023-09-15T06:00	20835	50	-56.0	-84.5	234	5
2023-09-15T06:00	20862	50	-56.1	-84.6	238	5
2023-09-15T06:00	20890	50	-56.1	-84.6	242	4
2023-09-15T06:00	20914	50	-56.2	-84.6	246	4
2023-09-15T06:00	20941	49	-56.2	-84.6	251	4
2023-09-15T06:00	20965	49	-56.2	-84.6	258	3
2023-09-15T06:00	20997	49	-56.2	-84.6	266	3
2023-09-15T06:00	21018	49	-56.0	-84.9	274	2
2023-09-15T06:00	21052	48	-55.7	-84.7	278	2
2023-09-15T06:00	21077	48	-55.6	-84.6	274	1
2023-09-15T06:00	21100	48	-55.5	-84.5	247	1
2023-09-15T06:00	21127	48	-55.5	-84.5	207	1
2023-09-15T06:00	21146	48	-55.4	-84.5	192	1
2023-09-15T06:00	21175	48	-55.4	-84.5	189	2
2023-09-15T06:00	21202	47	-55.5	-84.5	190	3
2023-09-15T06:00	21227	47	-55.6	-84.2	193	3
2023-09-15T06:00	21251	47	-55.8	-84.3	195	4
2023-09-15T06:00	21274	47	-55.9	-84.4	198	5
2023-09-15T06:00	21307	47	-56.1	-84.6	201	5
2023-09-15T06:00	21330	46	-56.2	-84.6	203	6
2023-09-15T06:00	21359	46	-56.4	-84.4	205	6
2023-09-15T06:00	21387	46	-56.6	-84.5	207	6
2023-09-15T06:00	21409	46	-56.7	-84.6	210	6
2023-09-15T06:00	21439	46	-56.8	-84.7	212	6
2023-09-15T06:00	21463	45	-56.7	-84.6	215	6
2023-09-15T06:00	21488	45	-56.7	-84.6	219	5
2023-09-15T06:00	21516	45	-56.8	-84.7	223	5
2023-09-15T06:00	21547	45	-56.8	-85.1	226	5
2023-09-15T06:00	21565	45	-56.9	-85.2	229	4
2023-09-15T06:00	21595	44	-56.9	-85.2	231	4
2023-09-15T06:00	21623	44	-56.8	-85.1	233	4
2023-09-15T06:00	21648	44	-56.9	-85.2	236	4
2023-09-15T06:00	21676	44	-56.9	-85.2	241	4
2023-09-15T06:00	21703	44	-56.9	-85.2	246	4
2023-09-15T06:00	21721	44	-56.8	-85.1	251	4
2023-09-15T06:00	21746	43	-56.7	-85.0	254	4
2023-09-15T06:00	21773	43	-56.8	-85.1	256	5
2023-09-15T06:00	21797	43	-56.9	-84.8	258	5
2023-09-15T06:00	21823	43	-57.1	-84.9	258	5
2023-09-15T06:00	21854	43	-57.2	-85.0	258	5
2023-09-15T06:00	21874	43	-57.2	-85.0	257	5
2023-09-15T06:00	21896	42	-57.2	-85.0	256	5
2023-09-15T06:00	21925	42	-57.3	-85.1	256	5
2023-09-15T06:00	21949	42	-57.3	-85.1	256	5
2023-09-15T06:00	21972	42	-57.3	-85.1	256	5
2023-09-15T06:00	22002	42	-57.2	-85.4	259	5
2023-09-15T06:00	22026	42	-57.1	-85.3	262	5
2023-09-15T06:00	22051	41	-57.1	-85.3	266	6
2023-09-15T06:00	22078	41	-57.0	-85.2	270	6
2023-09-15T06:00	22101	41	-56.8	-85.1	273	7
2023-09-15T06:00	22128	41	-56.7	-85.0	276	7
2023-09-15T06:00	22154	41	-56.8	-85.1	279	8
2023-09-15T06:00	22178	41	-56.8	-85.1	282	8
2023-09-15T06:00	22203	40	-56.8	-85.1	285	8
2023-09-15T06:00	22230	40	-56.7	-85.0	288	8
2023-09-15T06:00	22255	40	-56.6	-85.4	290	7
2023-09-15T06:00	22279	40	-56.4	-85.2	293	6
2023-09-15T06:00	22302	40	-56.2	-85.1	296	6
2023-09-15T06:00	22333	40	-56.2	-85.1	299	5
2023-09-15T06:00	22358	39	-56.2	-85.1	303	4
2023-09-15T06:00	22386	39	-56.2	-85.1	305	3
2023-09-15T06:00	22410	39	-56.2	-84.6	308	3
2023-09-15T06:00	22441	39	-56.4	-84.8	310	2
2023-09-15T06:00	22465	39	-56.5	-84.9	312	1
2023-09-15T06:00	22489	39	-56.6	-84.9	313	1
2023-09-15T06:00	22517	38	-56.6	-84.9	313	1
2023-09-15T06:00	22543	38	-56.5	-84.9	312	1
2023-09-15T06:00	22565	38	-56.6	-84.9	309	1
2023-09-15T06:00	22594	38	-56.6	-84.9	303	1
2023-09-15T06:00	22616	38	-56.6	-84.9	293	1
2023-09-15T06:00	22645	38	-56.6	-84.9	281	1
2023-09-15T06:00	22668	38	-56.5	-84.9	270	2
2023-09-15T06:00	22692	37	-56.6	-84.9	261	2
2023-09-15T06:00	22718	37	-56.7	-85.0	256	3
2023-09-15T06:00	22745	37	-56.8	-85.1	252	4
2023-09-15T06:00	22764	37	-56.9	-85.2	250	4
2023-09-15T06:00	22793	37	-56.9	-85.2	250	5
2023-09-15T06:00	22816	37	-56.9	-85.2	251	5
2023-09-15T06:00	22844	37	-56.9	-85.2	253	6
2023-09-15T06:00	22867	36	-56.8	-85.1	256	6
2023-09-15T06:00	22893	36	-56.7	-85.0	260	6
2023-09-15T06:00	22920	36	-56.8	-85.1	264	6
2023-09-15T06:00	22946	36	-56.9	-85.2	268	6
2023-09-15T06:00	22973	36	-57.0	-85.2	271	6
2023-09-15T06:00	22993	36	-56.9	-85.2	273	6
2023-09-15T06:00	23027	36	-56.8	-85.1	274	6
2023-09-15T06:00	23049	35	-56.9	-85.2	273	5
2023-09-15T06:00	23073	35	-56.9	-85.2	272	5
2023-09-15T06:00	23100	35	-56.7	-85.4	270	6
2023-09-15T06:00	23125	35	-56.6	-85.4	269	6
2023-09-15T06:00	23153	35	-56.4	-85.2	268	7
2023-09-15T06:00	23175	35	-56.1	-85.0	269	7
2023-09-15T06:00	23206	35	-56.0	-84.9	270	8
2023-09-15T06:00	23230	34	-55.9	-84.8	271	8
2023-09-15T06:00	23259	34	-55.9	-84.8	273	9
2023-09-15T06:00	23288	34	-55.9	-84.8	276	9
2023-09-15T06:00	23313	34	-55.9	-84.8	279	8
2023-09-15T06:00	23343	34	-55.8	-84.8	281	8
2023-09-15T06:00	23367	34	-55.7	-84.7	284	7
2023-09-15T06:00	23395	33	-55.7	-84.7	286	6
2023-09-15T06:00	23426	33	-55.7	-84.7	287	6
2023-09-15T06:00	23447	33	-55.7	-84.7	289	5
2023-09-15T06:00	23471	33	-55.7	-84.7	289	5
2023-09-15T06:00	23500	33	-55.7	-84.7	288	4
2023-09-15T06:00	23527	33	-55.9	-84.8	283	4
2023-09-15T06:00	23552	33	-56.1	-85.0	275	3
2023-09-15T06:00	23576	33	-56.0	-84.9	264	3
2023-09-15T06:00	23605	32	-56.0	-84.9	253	3
2023-09-15T06:00	23633	32	-55.9	-84.8	246	3
2023-09-15T06:00	23664	32	-55.8	-85.2	245	3
2023-09-15T06:00	23683	32	-55.5	-85.0	249	4
2023-09-15T06:00	23715	32	-55.2	-84.8	255	5
2023-09-15T06:00	23739	32	-55.0	-84.6	262	5
2023-09-15T06:00	23770	32	-54.9	-84.6	268	6
2023-09-15T06:00	23795	31	-54.7	-84.4	274	6
2023-09-15T06:00	23813	31	-54.6	-84.3	277	7
2023-09-15T06:00	23844	31	-54.5	-84.8	279	7
2023-09-15T06:00	23875	31	-54.4	-84.7	279	7
2023-09-15T06:00	23900	31	-54.2	-84.5	278	6
2023-09-15T06:00	23929	31	-54.0	-84.4	276	6
2023-09-15T06:00	23955	31	-54.0	-84.4	275	6
2023-09-15T06:00	23978	31	-53.9	-83.8	276	5
2023-09-15T06:00	24002	30	-54.0	-83.9	278	5
2023-09-15T06:00	24034	30	-54.1	-84.0	281	5
2023-09-15T06:00	24057	30	-54.2	-84.0	284	6
2023-09-15T06:00	24090	30	-54.2	-84.0	287	6
2023-09-15T06:00	24114	30	-54.2	-84.0	290	6
2023-09-15T06:00	24144	30	-54.2	-84.0	294	5
2023-09-15T06:00	24167	30	-54.1	-84.0	300	5
2023-09-15T06:00	24197	30	-54.0	-83.9	308	5
2023-09-15T06:00	24218	29	-54.1	-84.0	316	4
2023-09-15T06:00	24252	29	-54.1	-84.0	322	4
2023-09-15T06:00	24279	29	-54.0	-83.9	328	4
2023-09-15T06:00	24303	29	-54.0	-83.9	332	5
2023-09-15T06:00	24331	29	-54.0	-83.9	336	4
2023-09-15T06:00	24363	29	-54.1	-84.0	339	4
2023-09-15T06:00	24390	29	-54.3	-84.1	341	4
2023-09-15T06:00	24415	29	-54.4	-84.2	340	4
2023-09-15T06:00	24447	28	-54.5	-84.3	337	3
2023-09-15T06:00	24474	28	-54.5	-84.3	331	3
2023-09-15T06:00	24499	28	-54.4	-84.2	325	3
2023-09-15T06:00	24527	28	-54.3	-84.1	321	2
2023-09-15T06:00	24556	28	-54.2	-84.0	320	2
2023-09-15T06:00	24588	28	-54.2	-84.0	321	2
2023-09-15T06:00	24612	28	-54.3	-84.1	320	2
2023-09-15T06:00	24638	28	-54.3	-84.1	311	1
2023-09-15T06:00	24657	27	-54.3	-84.1	288	1
2023-09-15T06:00	24690	27	-54.4	-84.2	262	2
2023-09-15T06:00	24719	27	-54.5	-84.3	245	2
2023-09-15T06:00	24742	27	-54.5	-84.3	239	3
2023-09-15T06:00	24776	27	-54.6	-84.3	236	3
2023-09-15T06:00	24795	27	-54.6	-84.3	237	4
2023-09-15T06:00	24825	27	-54.7	-84.4	239	4
2023-09-15T06:00	24855	27	-54.9	-84.6	242	3
2023-09-15T06:00	24882	27	-55.0	-84.6	246	3
2023-09-15T06:00	24911	26	-55.0	-84.6	252	3
2023-09-15T06:00	24938	26	-55.0	-84.6	258	2
2023-09-15T06:00	24969	26	-55.0	-84.6	262	2
2023-09-15T06:00	24989	26	-55.0	-84.6	263	2
2023-09-15T06:00	25007	26	-54.8	-84.5	261	3
2023-09-15T06:00	25039	26	-54.5	-84.8	259	3
2023-09-15T06:00	25064	26	-54.4	-84.7	257	4
2023-09-15T06:00	25090	26	-54.3	-84.6	257	4
2023-09-15T06:00	25119	26	-54.1	-84.5	257	5
2023-09-15T06:00	25142	26	-53.8	-84.2	259	5
2023-09-15T06:00	25172	25	-53.7	-84.2	261	6
2023-09-15T06:00	25191	25	-53.6	-84.1	265	6
2023-09-15T06:00	25222	25	-53.7	-84.2	269	6
2023-09-15T06:00	25243	25	-53.6	-84.1	274	6
2023-09-15T06:00	25265	25	-53.5	-84.0	278	6
2023-09-15T06:00	25294	25	-53.4	-83.9	281	5
2023-09-15T06:00	25315	25	-53.4	-83.9	281	5
2023-09-15T06:00	25350	25	-53.2	-83.8	281	5
2023-09-15T06:00	25367	25	-53.3	-83.9	279	5
2023-09-15T06:00	25401	25	-53.3	-83.9	279	5
2023-09-15T06:00	25423	24	-53.2	-83.8	279	5
2023-09-15T06:00	25455	24	-53.3	-83.9	282	5
2023-09-15T06:00	25474	24	-53.2	-83.8	285	4
2023-09-15T06:00	25505	24	-53.1	-83.7	289	4
2023-09-15T06:00	25533	24	-53.2	-83.8	293	4
2023-09-15T06:00	25555	24	-53.3	-83.9	296	3
2023-09-15T06:00	25581	24	-53.3	-83.9	297	3
2023-09-15T06:00	25615	24	-53.1	-83.7	295	2
2023-09-15T06:00	25642	24	-52.9	-83.6	286	2
2023-09-15T06:00	25663	24	-52.8	-83.5	268	1
2023-09-15T06:00	25681	23	-52.8	-83.5	247	1
2023-09-15T06:00	25710	23	-52.9	-83.6	235	2
2023-09-15T06:00	25750	23	-52.7	-84.0	229	2
2023-09-15T06:00	25780	23	-52.5	-83.8	226	2
2023-09-15T06:00	25800	23	-52.3	-83.7	223	3
2023-09-15T06:00	25838	23	-52.1	-83.5	221	3
2023-09-15T06:00	25862	23	-52.1	-83.5	221	4
2023-09-15T06:00	25893	23	-52.0	-83.5	221	4
2023-09-15T06:00	25919	23	-51.8	-83.3	222	5
2023-09-15T06:00	25946	23	-51.7	-83.2	225	5
2023-09-15T06:00	25981	22	-51.6	-83.2	227	5
2023-09-15T06:00	26009	22	-51.5	-83.1	229	6
2023-09-15T06:00	26038	22	-51.3	-82.9	232	6
2023-09-15T06:00	26060	22	-51.3	-82.9	236	6
2023-09-15T06:00	26107	22	-51.2	-82.9	242	6
2023-09-15T06:00	26124	22	-51.3	-82.9	250	5
2023-09-15T06:00	26155	22	-51.3	-82.9	260	5
2023-09-15T06:00	26183	22	-51.3	-82.9	272	5
2023-09-15T06:00	26212	22	-51.3	-82.9	283	6
2023-09-15T06:00	26244	22	-51.4	-83.0	292	6
2023-09-15T06:00	26281	21	-51.4	-83.0	299	6
2023-09-15T06:00	26305	21	-51.5	-83.1	303	7
2023-09-15T06:00	26335	21	-51.6	-83.2	305	7
2023-09-15T06:00	26363	21	-51.6	-83.2	304	7
2023-09-15T06:00	26393	21	-51.6	-83.2	302	6
2023-09-15T06:00	26417	21	-51.5	-83.1	300	6
2023-09-15T06:00	26448	21	-51.3	-82.9	298	5
2023-09-15T06:00	26469	21	-51.1	-82.8	297	5
2023-09-15T06:00	26507	21	-51.0	-82.7	294	4
2023-09-15T06:00	26533	21	-50.9	-83.3	289	4
2023-09-15T06:00	26563	20	-50.8	-83.2	282	4
2023-09-15T06:00	26588	20	-50.7	-83.1	274	4
2023-09-15T06:00	26612	20	-50.6	-83.1	270	5
2023-09-15T06:00	26633	20	-50.5	-83.0	268	6
2023-09-15T06:00	26674	20	-50.5	-83.0	269	6
2023-09-15T06:00	26694	20	-50.4	-82.9	269	7
2023-09-15T06:00	26730	20	-50.2	-82.8	269	8
2023-09-15T06:00	26758	20	-50.1	-82.7	269	9
2023-09-15T06:00	26785	20	-50.1	-82.7	269	9
2023-09-15T06:00	26804	20	-50.0	-82.6	270	9
2023-09-15T06:00	26840	20	-49.7	-82.4	271	9
2023-09-15T06:00	26850	20	-49.6	-82.3	272	9
2023-09-15T06:00	26889	19	-49.5	-82.3	273	9
2023-09-15T06:00	26919	19	-49.3	-82.1	272	9
2023-09-15T06:00	26947	19	-49.2	-82.0	270	9
2023-09-15T06:00	26969	19	-49.2	-82.0	268	9
2023-09-15T06:00	26997	19	-49.2	-82.0	266	9
2023-09-15T06:00	27021	19	-49.1	-82.0	265	10
2023-09-15T06:00	27063	19	-49.0	-81.9	265	10
2023-09-15T06:00	27089	19	-49.0	-81.9	266	10
2023-09-15T06:00	27114	19	-48.9	-81.8	268	10
2023-09-15T06:00	27138	19	-48.8	-81.7	270	10
2023-09-15T06:00	27168	19	-48.7	-81.7	271	10
2023-09-15T06:00	27202	19	-48.8	-81.7	272	11
2023-09-15T06:00	27232	19	-48.7	-81.7	273	11
2023-09-15T06:00	27270	18	-48.7	-82.4	273	11
2023-09-15T06:00	27284	18	-48.5	-82.2	274	11
2023-09-15T06:00	27332	18	-48.2	-82.0	275	11
2023-09-15T06:00	27338	18	-48.0	-81.9	276	11
2023-09-15T06:00	27373	18	-47.9	-81.8	277	11
2023-09-15T06:00	27406	18	-48.0	-81.9	279	11
2023-09-15T06:00	27435	18	-48.1	-81.9	279	11
2023-09-15T06:00	27472	18	-48.0	-81.9	280	10
2023-09-15T06:00	27492	18	-47.9	-81.1	279	10
2023-09-15T06:00	27539	18	-48.0	-81.2	278	9
2023-09-15T06:00	27557	18	-48.2	-81.3	276	9
2023-09-15T06:00	27584	18	-48.4	-81.4	273	9
2023-09-15T06:00	27626	17	-48.5	-81.5	271	9
2023-09-15T06:00	27656	17	-48.4	-81.4	269	9
2023-09-15T06:00	27683	17	-48.3	-81.4	268	9
2023-09-15T06:00	27711	17	-48.4	-81.4	267	9
2023-09-15T06:00	27744	17	-48.5	-81.5	266	9
2023-09-15T06:00	27762	17	-48.6	-81.6	265	9
2023-09-15T06:00	27808	17	-48.6	-81.6	264	9
2023-09-15T06:00	27829	17	-48.5	-81.5	264	9
2023-09-15T06:00	27867	17	-48.4	-82.2	264	9
2023-09-15T06:00	27887	17	-48.4	-82.2	264	10
2023-09-15T06:00	27919	17	-48.3	-82.1	264	10
2023-09-15T06:00	27956	17	-48.2	-82.0	264	11
2023-09-15T06:00	27967	17	-48.1	-81.9	263	12
2023-09-15T06:00	28002	16	-48.0	-81.9	262	12
2023-09-15T06:00	28035	16	-47.9	-81.8	261	12
2023-09-15T06:00	28061	16	-47.9	-81.8	259	12
2023-09-15T06:00	28092	16	-47.9	-81.8	258	12
2023-09-15T06:00	28122	16	-47.9	-81.8	258	12
2023-09-15T06:00	28148	16	-47.6	-81.6	258	11
2023-09-15T06:00	28186	16	-47.4	-81.4	259	11
2023-09-15T06:00	28205	16	-47.4	-81.4	260	11
2023-09-15T06:00	28224	16	-47.4	-81.4	263	11
2023-09-15T06:00	28280	16	-47.4	-81.4	265	11
2023-09-15T06:00	28293	16	-47.2	-81.3	268	11
2023-09-15T06:00	28326	16	-47.1	-81.2	271	11
2023-09-15T06:00	28348	16	-47.1	-81.2	273	11
2023-09-15T06:00	28384	16	-47.1	-81.2	276	11
2023-09-15T06:00	28411	15	-47.0	-81.1	278	11
2023-09-15T06:00	28436	15	-47.0	-81.1	281	11
2023-09-15T06:00	28463	15	-46.9	-81.1	284	11
2023-09-15T06:00	28493	15	-46.6	-81.7	287	12
2023-09-15T06:00	28521	15	-46.4	-81.5	290	12
2023-09-15T06:00	28554	15	-46.1	-81.3	293	12
2023-09-15T06:00	28590	15	-46.0	-81.2	294	11
2023-09-15T06:00	28619	15	-45.9	-81.2	294	11
2023-09-15T06:00	28645	15	-45.8	-81.1	292	10
2023-09-15T06:00	28673	15	-45.8	-81.1	292	10
2023-09-15T06:00	28710	15	-45.8	-81.1	292	9
2023-09-15T06:00	28742	15	-45.7	-81.0	294	9
2023-09-15T06:00	28772	15	-45.7	-81.0	298	8
2023-09-15T06:00	28809	15	-45.8	-81.1	302	8
2023-09-15T06:00	28833	15	-45.9	-81.2	304	8
2023-09-15T06:00	28869	14	-46.0	-81.2	305	7
2023-09-15T06:00	28897	14	-45.8	-81.1	304	7
2023-09-15T06:00	28929	14	-45.7	-81.0	301	6
2023-09-15T06:00	28957	14	-45.8	-80.3	297	6
2023-09-15T06:00	28992	14	-46.0	-80.4	292	6
2023-09-15T06:00	29023	14	-46.3	-80.6	286	6
2023-09-15T06:00	29053	14	-46.6	-80.9	281	6
2023-09-15T06:00	29081	14	-46.8	-81.0	276	6
2023-09-15T06:00	29106	14	-46.9	-81.1	272	6
2023-09-15T06:00	29134	14	-47.0	-81.1	269	6
2023-09-15T06:00	29181	14	-47.1	-81.2	268	6
2023-09-15T06:00	29187	14	-47.1	-81.2	267	6
2023-09-15T06:00	29237	14	-47.3	-81.4	267	6
2023-09-15T06:00	29251	14	-47.4	-81.4	267	6
2023-09-15T06:00	29284	14	-47.3	-81.4	267	6
2023-09-15T06:00	29305	14	-47.3	-81.4	267	6
2023-09-15T06:00	29356	13	-47.2	-81.3	267	6
2023-09-15T06:00	29373	13	-47.2	-81.3	266	6
2023-09-15T06:00	29412	13	-47.1	-81.2	264	7
2023-09-15T06:00	29440	13	-47.1	-81.2	262	7
2023-09-15T06:00	29477	13	-47.0	-81.1	260	8
2023-09-15T06:00	29517	13	-47.0	-81.1	258	8
2023-09-15T06:00	29523	13	-47.0	-81.1	258	9
2023-09-15T06:00	29567	13	-47.0	-81.1	259	9
2023-09-15T06:00	29582	13	-47.0	-81.1	260	10
2023-09-15T06:00	29620	13	-47.1	-82.0	262	10
2023-09-15T06:00	29650	13	-47.0	-81.9	263	10
2023-09-15T06:00	29668	13	-46.7	-81.7	265	10
2023-09-15T06:00	29718	13	-46.3	-81.4	266	10
2023-09-15T06:00	29739	13	-45.8	-81.1	266	10
2023-09-15T06:00	29773	13	-45.4	-80.8	266	10
2023-09-15T06:00	29789	13	-45.2	-80.7	265	11
2023-09-15T06:00	29827	13	-45.2	-81.6	264	11
2023-09-15T06:00	29841	12	-45.2	-81.6	263	11
2023-09-15T06:00	29877	12	-45.0	-81.4	264	11
2023-09-15T06:00	29911	12	-44.8	-81.3	265	11
2023-09-15T06:00	29946	12	-44.4	-81.0	268	11
2023-09-15T06:00	29967	12	-44.1	-80.8	272	11
2023-09-15T06:00	29998	12	-44.1	-80.8	276	11
2023-09-15T06:00	30031	12	-44.2	-80.9	280	11
2023-09-15T06:00	30064	12	-44.4	-80.1	285	11
2023-09-15T06:00	30101	12	-44.5	-80.1	289	11
2023-09-15T06:00	30105	12	-44.4	-80.1	292	12
2023-09-15T06:00	30143	12	-44.2	-80.9	294	12
2023-09-15T06:00	30169	12	-44.0	-80.7	294	12
2023-09-15T06:00	30200	12	-43.9	-80.7	294	12
2023-09-15T06:00	30227	12	-44.0	-80.7	293	11
2023-09-15T06:00	30264	12	-44.1	-80.8	293	11
2023-09-15T06:00	30290	12	-44.1	-79.9	294	11
2023-09-15T06:00	30311	12	-44.0	-80.7	296	10
2023-09-15T06:00	30340	12	-43.9	-80.7	300	10
2023-09-15T06:00	30380	12	-43.9	-80.7	302	10
2023-09-15T06:00	30393	11	-44.0	-80.7	304	9
2023-09-15T06:00	30427	11	-43.8	-80.6	305	9
2023-09-15T06:00	30474	11	-43.6	-80.4	305	8
2023-09-15T06:00	30496	11	-43.5	-80.4	305	7
2023-09-15T06:00	30525	11	-43.5	-80.4	307	6
2023-09-15T06:00	30543	11	-43.4	-80.3	311	6
2023-09-15T06:00	30585	11	-43.4	-80.3	316	6
2023-09-15T06:00	30611	11	-43.4	-80.3	322	6
2023-09-15T06:00	30632	11	-43.4	-80.3	326	5
2023-09-15T06:00	30670	11	-43.5	-80.4	329	5
2023-09-15T06:00	30692	11	-43.7	-80.5	332	4
2023-09-15T06:00	30717	11	-43.8	-80.6	335	3
2023-09-15T06:00	30760	11	-43.7	-80.5	341	3
2023-09-15T06:00	30793	11	-43.7	-80.5	350	2
2023-09-15T06:00	30814	11	-43.7	-80.5	3	1
2023-09-15T06:00	30841	11	-43.6	-80.4	27	1
2023-09-15T06:00	30868	11	-43.5	-80.4	97	1
2023-09-15T06:00	30901	11	-43.3	-80.2	157	1
2023-09-15T06:00	30943	11	-43.1	-80.1	176	2
2023-09-15T06:00	30987	11	-43.1	-80.1	190	4
2023-09-15T06:00	31024	10	-43.2	-80.2	192	4
2023-09-15T06:00	31051	10	-43.4	-80.3	194	5
2023-09-15T06:00	31079	10	-43.4	-80.3	194	5
2023-09-15T06:00	31102	10	-43.4	-80.3	195	5
2023-09-15T06:00	31136	10	-43.4	-80.3	196	5
2023-09-15T06:00	31174	10	-43.4	-80.3	199	5
2023-09-15T06:00	31216	10	-43.3	-80.2	203	5
2023-09-15T06:00	31237	10	-43.2	-80.2	207	6
2023-09-15T06:00	31267	10	-43.3	-80.2	210	6
2023-09-15T06:00	31290	10	-43.4	-80.3	213	7
2023-09-15T06:00	31309	10	-43.6	-80.4	216	7
2023-09-15T06:00	31352	10	-43.8	-80.6	218	8
2023-09-15T06:00	31398	10	-44.0	-79.8	220	8
2023-09-15T06:00	31413	10	-44.2	-79.9	222	8
2023-09-15T06:00	31439	10	-44.3	-80.0	223	7
2023-09-15T06:00	31476	10	-44.3	-80.9	223	7
2023-09-15T06:00	31504	10	-44.2	-80.9	221	6
2023-09-15T06:00	31536	10	-44.2	-80.9	218	5
2023-09-15T06:00	31559	10	-44.3	-80.9	212	4
2023-09-15T06:00	31590	10	-44.2	-80.9	206	3
2023-09-15T06:00	31612	10	-44.1	-80.8	206	3
2023-09-15T06:00	31637	10	-44.2	-80.9	212	3
2023-09-15T06:00	31675	10	-44.4	-81.0	222	3
2023-09-15T06:00	31707	9	-44.3	-80.9	231	4
2023-09-15T06:00	31727	9	-44.2	-80.9	237	5
2023-09-15T06:00	31745	9	-44.2	-80.9	241	5
2023-09-15T06:00	31786	9	-44.4	-81.0	244	6
2023-09-15T06:00	31813	9	-44.5	-80.1	247	7
2023-09-15T06:00	31853	9	-44.6	-80.2	250	8
2023-09-15T06:00	31866	9	-44.7	-81.2	252	10
2023-09-15T06:00	31885	9	-44.7	-81.2	254	11
2023-09-15T06:00	31936	9	-44.6	-81.2	256	11
2023-09-15T06:00	31941	9	-44.3	-80.9	259	12
2023-09-15T06:00	31969	9	-44.1	-80.8	262	12
2023-09-15T06:00	32001	9	-43.8	-80.6	265	12
2023-09-15T06:00	32039	9	-43.7	-80.5	269	12
2023-09-15T06:00	32048	9	-43.7	-80.5	273	11
2023-09-15T06:00	32089	9	-43.6	-80.4	277	11
2023-09-15T06:00	32103	9	-43.5	-80.4	280	11
2023-09-15T06:00	32140	9	-43.3	-80.2	282	11
2023-09-15T06:00	32152	9	-43.2	-80.2	282	10
2023-09-15T06:00	32172	9	-43.0	-80.0	281	11
2023-09-15T06:00	32190	9	-42.8	-81.0	278	11
2023-09-15T06:00	32235	9	-42.5	-80.8	275	11
2023-09-15T06:00	32277	9	-42.2	-80.6	271	12
2023-09-15T06:00	32289	9	-41.8	-80.3	263	13
2023-09-15T06:00	32345	9	-41.7	-80.2	262	14
2023-09-15T06:00	32355	9	-41.6	-80.1	261	15
2023-09-15T06:00	32373	9	-41.5	-80.1	261	16
2023-09-15T06:00	32407	9	-41.3	-79.9	261	17
2023-09-15T06:00	32409	9	-40.8	-79.6	261	17
2023-09-15T06:00	32443	8	-40.3	-79.2	260	17
2023-09-15T06:00	32476	8	-39.9	-79.0	259	17
2023-09-15T06:00	32498	8	-39.5	-78.7	258	17
2023-09-15T06:00	32526	8	-39.3	-78.5	257	16
2023-09-15T06:00	32570	8	-39.3	-78.5	257	16
2023-09-15T06:00	32582	8	-39.4	-78.6	258	15
2023-09-15T06:00	32630	8	-39.6	-78.8	258	15
2023-09-15T06:00	32631	8	-39.8	-78.9	258	14
2023-09-15T06:00	32670	8	-39.9	-79.0	259	14
2023-09-15T06:00	32693	8	-40.0	-79.0	259	13
2023-09-15T06:00	32734	8	-40.0	-79.0	260	12
2023-09-15T06:00	32746	8	-39.8	-78.9	261	12
2023-09-15T06:00	32786	8	-39.6	-78.8	263	11
2023-09-15T06:00	32817	8	-39.5	-78.7	268	9
2023-09-15T06:00	32858	8	-39.6	-78.8	270	9
2023-09-15T06:00	32883	8	-39.7	-78.8	272	8
2023-09-15T06:00	32930	8	-39.8	-78.9	273	8
2023-09-15T06:00	32944	8	-39.7	-78.8	274	8
2023-09-15T06:00	32978	8	-39.7	-78.8	274	8
2023-09-15T06:00	33013	8	-39.7	-78.8	273	8
2023-09-15T06:00	33049	8	-39.8	-78.9	271	9
2023-09-15T06:00	33075	8	-39.8	-78.9	267	9
2023-09-15T06:00	33102	8	-39.8	-78.9	265	10
2023-09-15T06:00	33128	8	-39.6	-78.8	263	11
2023-09-15T12:00	112	1010	22.0	10.8	130	4
2023-09-15T12:00	137	1007	20.4	9.8	125	3
2023-09-15T12:00	165	1003	19.4	9.0	125	4
2023-09-15T12:00	191	1000	19.2	9.1	126	5
2023-09-15T12:00	215	998	19.0	9.2	126	5
2023-09-15T12:00	236	995	18.7	9.6	126	5
2023-09-15T12:00	262	992	18.4	9.7	127	5
2023-09-15T12:00	284	990	18.2	9.5	128	5
2023-09-15T12:00	309	987	18.0	9.1	130	5
2023-09-15T12:00	331	984	17.8	9.5	131	5
2023-09-15T12:00	353	981	17.5	9.5	132	5
2023-09-15T12:00	383	978	17.3	9.5	131	5
2023-09-15T12:00	404	976	17.1	9.2	130	5
2023-09-15T12:00	427	973	16.9	9.1	129	5
2023-09-15T12:00	453	970	16.6	8.8	127	5
2023-09-15T12:00	474	968	16.5	8.8	126	5
2023-09-15T12:00	495	965	16.3	8.9	126	5
2023-09-15T12:00	515	963	16.0	9.0	126	5
2023-09-15T12:00	534	961	15.8	8.9	127	5
2023-09-15T12:00	555	959	15.6	8.8	127	5
2023-09-15T12:00	577	956	15.4	8.8	127	5
2023-09-15T12:00	597	954	15.2	8.9	126	5
2023-09-15T12:00	622	951	15.0	8.8	126	5
2023-09-15T12:00	644	949	14.9	8.9	126	5
2023-09-15T12:00	665	946	14.6	8.6	129	5
2023-09-15T12:00	689	944	14.4	8.7	132	5
2023-09-15T12:00	706	942	14.2	8.7	134	5
2023-09-15T12:00	730	939	14.0	8.6	135	5
2023-09-15T12:00	757	936	13.7	8.7	134	5
2023-09-15T12:00	786	933	13.4	8.5	132	6
2023-09-15T12:00	806	931	13.2	8.6	130	6
2023-09-15T12:00	822	929	13.0	8.5	129	6
2023-09-15T12:00	843	927	12.8	8.5	130	6
2023-09-15T12:00	866	924	12.5	8.3	134	6
2023-09-15T12:00	891	921	12.3	8.3	139	6
2023-09-15T12:00	917	918	12.0	8.3	145	6
2023-09-15T12:00	945	915	11.8	8.2	150	6
2023-09-15T12:00	969	913	11.6	8.1	154	7
2023-09-15T12:00	986	911	11.4	8.2	156	6
2023-09-15T12:00	1010	908	11.1	8.0	158	6
2023-09-15T12:00	1034	906	10.9	8.0	160	6
2023-09-15T12:00	1056	903	10.7	7.9	164	6
2023-09-15T12:00	1082	901	10.4	7.9	168	6
2023-09-15T12:00	1105	898	10.3	7.6	171	6
2023-09-15T12:00	1122	896	10.1	7.8	173	6
2023-09-15T12:00	1146	894	9.9	7.7	172	6
2023-09-15T12:00	1169	891	9.7	7.7	170	6
2023-09-15T12:00	1198	888	9.4	7.5	167	6
2023-09-15T12:00	1218	886	9.2	7.5	162	6
2023-09-15T12:00	1242	883	9.1	7.3	157	6
2023-09-15T12:00	1266	881	8.8	7.4	153	6
2023-09-15T12:00	1292	878	8.5	7.2	150	6
2023-09-15T12:00	1321	875	8.2	7.1	148	6
2023-09-15T12:00	1349	872	8.0	7.1	147	7
2023-09-15T12:00	1370	870	7.8	7.3	148	7
2023-09-15T12:00	1396	867	7.5	7.2	150	7
2023-09-15T12:00	1423	864	7.4	6.7	152	8
2023-09-15T12:00	1441	862	7.4	6.0	154	9
2023-09-15T12:00	1461	860	7.6	5.1	155	9
2023-09-15T12:00	1482	858	7.3	5.3	155	10
2023-09-15T12:00	1505	856	7.5	4.4	155	11
2023-09-15T12:00	1525	854	7.5	3.6	154	11
2023-09-15T12:00	1542	852	7.4	3.7	153	11
2023-09-15T12:00	1559	850	7.3	3.7	151	11
2023-09-15T12:00	1579	848	7.1	3.8	148	11
2023-09-15T12:00	1597	846	7.0	3.8	146	11
2023-09-15T12:00	1618	844	6.9	3.8	143	11
2023-09-15T12:00	1640	842	6.8	3.6	140	11
2023-09-15T12:00	1665	839	6.7	3.3	137	10
2023-09-15T12:00	1684	837	7.0	1.8	134	10
2023-09-15T12:00	1713	834	7.2	1.2	133	9
2023-09-15T12:00	1740	831	7.1	0.7	132	9
2023-09-15T12:00	1774	828	6.9	0.4	131	8
2023-09-15T12:00	1804	825	6.7	0.2	128	6
2023-09-15T12:00	1829	822	6.5	-0.1	122	5
2023-09-15T12:00	1865	819	7.6	-5.9	110	4
2023-09-15T12:00	1887	817	8.4	-9.4	95	3
2023-09-15T12:00	1905	815	8.5	-11.9	87	3
2023-09-15T12:00	1925	813	9.4	-24.9	89	3
2023-09-15T12:00	1947	811	9.6	-35.4	96	4
2023-09-15T12:00	1968	809	9.5	-36.5	105	4
2023-09-15T12:00	1988	807	9.5	-31.6	112	5
2023-09-15T12:00	2015	804	9.3	-33.7	117	5
2023-09-15T12:00	2041	802	9.3	-26.0	120	4
2023-09-15T12:00	2071	799	9.2	-20.7	123	4
2023-09-15T12:00	2097	796	9.0	-14.3	124	3
2023-09-15T12:00	2123	794	9.0	-13.2	123	3
2023-09-15T12:00	2149	791	8.9	-12.7	120	3
2023-09-15T12:00	2169	789	8.9	-13.2	117	3
2023-09-15T12:00	2191	787	8.8	-13.0	116	4
2023-09-15T12:00	2211	785	8.7	-13.4	116	5
2023-09-15T12:00	2232	783	8.5	-14.2	117	6
2023-09-15T12:00	2253	781	8.5	-14.9	118	6
2023-09-15T12:00	2280	779	8.5	-15.4	121	6
2023-09-15T12:00	2310	776	8.5	-17.2	125	6
2023-09-15T12:00	2335	774	8.6	-21.1	133	5
2023-09-15T12:00	2363	771	8.9	-36.9	142	5
2023-09-15T12:00	2389	769	9.0	-41.0	149	6
2023-09-15T12:00	2410	767	8.9	-43.0	153	6
2023-09-15T12:00	2436	764	8.8	-43.0	153	6
2023-09-15T12:00	2464	762	8.7	-43.1	150	6
2023-09-15T12:00	2488	759	8.6	-43.2	145	6
2023-09-15T12:00	2515	757	8.5	-43.2	142	6
2023-09-15T12:00	2539	755	8.4	-44.4	141	6
2023-09-15T12:00	2560	753	8.3	-41.4	141	5
2023-09-15T12:00	2583	751	8.2	-39.9	141	5
2023-09-15T12:00	2602	749	8.2	-39.2	141	4
2023-09-15T12:00	2620	747	8.2	-39.2	139	4
2023-09-15T12:00	2643	745	8.1	-39.2	135	3
2023-09-15T12:00	2669	743	8.0	-39.3	132	3
2023-09-15T12:00	2690	741	7.9	-39.3	129	3
2023-09-15T12:00	2712	739	7.8	-39.4	129	4
2023-09-15T12:00	2735	737	7.7	-38.8	129	4
2023-09-15T12:00	2760	735	7.6	-36.1	129	5
2023-09-15T12:00	2783	733	7.4	-30.8	130	6
2023-09-15T12:00	2799	731	7.2	-26.4	131	7
2023-09-15T12:00	2823	729	7.1	-21.5	133	7
2023-09-15T12:00	2845	727	6.9	-19.4	135	6
2023-09-15T12:00	2873	725	6.8	-17.7	138	6
2023-09-15T12:00	2901	722	6.6	-17.3	141	6
2023-09-15T12:00	2923	720	6.4	-17.3	143	6
2023-09-15T12:00	2947	718	6.2	-17.7	142	5
2023-09-15T12:00	2973	716	6.1	-17.7	140	6
2023-09-15T12:00	2995	714	5.9	-17.3	138	6
2023-09-15T12:00	3016	712	5.8	-17.4	138	6
2023-09-15T12:00	3037	710	5.7	-17.7	138	6
2023-09-15T12:00	3057	709	5.6	-17.7	138	5
2023-09-15T12:00	3083	706	5.4	-17.7	136	5
2023-09-15T12:00	3103	705	5.2	-17.3	130	4
2023-09-15T12:00	3124	703	5.2	-18.6	122	4
2023-09-15T12:00	3146	701	5.1	-19.8	116	4
2023-09-15T12:00	3175	698	5.0	-20.8	114	4
2023-09-15T12:00	3205	696	4.8	-21.6	116	4
2023-09-15T12:00	3225	694	5.1	-23.0	118	3
2023-09-15T12:00	3253	692	5.2	-28.2	123	3
2023-09-15T12:00	3279	690	5.1	-28.0	129	3
2023-09-15T12:00	3307	687	4.9	-28.2	136	3
2023-09-15T12:00	3336	685	4.7	-26.5	144	3
2023-09-15T12:00	3358	683	4.5	-26.6	149	3
2023-09-15T12:00	3391	680	4.2	-24.7	151	3
2023-09-15T12:00	3413	678	4.0	-24.5	151	3
2023-09-15T12:00	3434	677	3.9	-22.5	151	4
2023-09-15T12:00	3461	674	3.8	-24.3	154	4
2023-09-15T12:00	3483	672	3.6	-22.6	159	4
2023-09-15T12:00	3508	671	3.4	-23.4	165	5
2023-09-15T12:00	3530	669	3.2	-23.8	169	5
2023-09-15T12:00	3552	667	3.1	-22.8	172	5
2023-09-15T12:00	3578	665	2.8	-22.8	173	4
2023-09-15T12:00	3604	663	2.6	-22.8	171	4
2023-09-15T12:00	3621	661	2.5	-22.0	164	4
2023-09-15T12:00	3648	659	2.2	-21.0	154	4
2023-09-15T12:00	3674	657	2.1	-22.7	143	4
2023-09-15T12:00	3699	655	1.9	-22.0	136	4
2023-09-15T12:00	3718	653	1.8	-22.6	136	4
2023-09-15T12:00	3737	652	1.7	-24.0	142	4
2023-09-15T12:00	3765	649	1.5	-22.1	152	4
2023-09-15T12:00	3798	647	1.3	-14.9	163	4
2023-09-15T12:00	3828	644	1.1	-18.3	171	4
2023-09-15T12:00	3856	642	1.0	-22.1	177	3
2023-09-15T12:00	3875	641	0.8	-22.8	179	3
2023-09-15T12:00	3896	639	0.7	-23.7	180	3
2023-09-15T12:00	3921	637	0.6	-22.6	180	3
2023-09-15T12:00	3941	635	0.4	-22.9	180	3
2023-09-15T12:00	3966	633	0.2	-23.1	180	2
2023-09-15T12:00	3997	631	-0.1	-21.9	181	2
2023-09-15T12:00	4027	629	-0.2	-17.0	184	2
2023-09-15T12:00	4055	627	-0.5	-11.8	192	1
2023-09-15T12:00	4079	625	-0.6	-13.0	202	1
2023-09-15T12:00	4100	623	-0.8	-12.1	208	2
2023-09-15T12:00	4132	621	-1.0	-11.6	207	2
2023-09-15T12:00	4150	619	-1.2	-11.6	202	2
2023-09-15T12:00	4174	617	-1.4	-11.6	195	1
2023-09-15T12:00	4200	615	-1.6	-12.1	190	1
2023-09-15T12:00	4223	613	-1.7	-12.3	192	1
2023-09-15T12:00	4242	612	-1.9	-12.6	203	1
2023-09-15T12:00	4263	610	-2.0	-12.7	209	2
2023-09-15T12:00	4283	609	-2.2	-12.8	209	2
2023-09-15T12:00	4303	607	-2.4	-12.9	207	3
2023-09-15T12:00	4329	605	-2.6	-13.0	205	3
2023-09-15T12:00	4357	603	-2.8	-13.0	204	4
2023-09-15T12:00	4384	601	-3.1	-13.2	205	4
2023-09-15T12:00	4407	599	-3.3	-13.3	207	4
2023-09-15T12:00	4439	597	-3.6	-13.4	207	5
2023-09-15T12:00	4466	595	-3.8	-13.5	205	5
2023-09-15T12:00	4488	593	-4.0	-13.9	201	5
2023-09-15T12:00	4512	591	-4.1	-14.2	196	4
2023-09-15T12:00	4534	590	-4.2	-13.8	193	4
2023-09-15T12:00	4552	588	-4.3	-13.5	194	3
2023-09-15T12:00	4569	587	-4.4	-13.6	202	3
2023-09-15T12:00	4589	585	-4.5	-13.5	219	2
2023-09-15T12:00	4621	583	-4.7	-13.5	239	2
2023-09-15T12:00	4648	581	-4.9	-13.8	254	2
2023-09-15T12:00	4672	579	-5.1	-14.3	258	1
2023-09-15T12:00	4697	578	-5.2	-15.5	240	1
2023-09-15T12:00	4717	576	-5.3	-15.2	202	1
2023-09-15T12:00	4737	575	-5.5	-15.0	192	2
2023-09-15T12:00	4767	573	-5.6	-15.2	197	2
2023-09-15T12:00	4794	570	-5.7	-14.8	205	3
2023-09-15T12:00	4817	569	-5.9	-15.1	213	3
2023-09-15T12:00	4840	567	-6.1	-14.7	219	3
2023-09-15T12:00	4865	565	-6.3	-14.8	224	3
2023-09-15T12:00	4889	564	-6.5	-15.0	228	2
2023-09-15T12:00	4919	562	-6.7	-15.3	233	2
2023-09-15T12:00	4938	560	-6.8	-15.1	235	2
2023-09-15T12:00	4957	559	-7.0	-15.2	233	1
2023-09-15T12:00	4979	557	-7.2	-15.3	222	1
2023-09-15T12:00	5001	556	-7.4	-15.6	207	1
2023-09-15T12:00	5023	554	-7.6	-15.7	199	1
2023-09-15T12:00	5046	552	-7.8	-15.6	200	1
2023-09-15T12:00	5078	550	-8.0	-15.6	211	2
2023-09-15T12:00	5100	549	-8.1	-15.8	223	2
2023-09-15T12:00	5119	547	-8.3	-15.9	232	2
2023-09-15T12:00	5141	546	-8.5	-16.4	234	3
2023-09-15T12:00	5172	544	-8.7	-17.1	232	3
2023-09-15T12:00	5194	542	-8.8	-17.3	227	3
2023-09-15T12:00	5221	540	-8.9		220	3
2023-09-15T12:00	5250	538	-9.1	-18.1	212	3
2023-09-15T12:00	5277	536	-9.4	-18.8	206	3
2023-09-15T12:00	5300	534	-9.6	-18.6	202	3
2023-09-15T12:00	5332	532	-9.8	-18.6	200	4
2023-09-15T12:00	5357	531	-9.9	-19.1	199	4
2023-09-15T12:00	5379	529	-10.0	-19.5	198	4
2023-09-15T12:00	5403	527	-10.1	-20.5	195	5
2023-09-15T12:00	5432	526	-10.2	-20.4	190	5
2023-09-15T12:00	5453	524	-10.3	-20.6	185	5
2023-09-15T12:00	5481	522	-10.5	-20.7	180	5
2023-09-15T12:00	5507	520	-10.7	-20.9	175	5
2023-09-15T12:00	5538	518	-10.9	-21.2	173	5
2023-09-15T12:00	5563	517	-11.1	-21.3	174	5
2023-09-15T12:00	5583	515	-11.2	-21.2	177	5
2023-09-15T12:00	5606	514	-11.4	-21.4	181	5
2023-09-15T12:00	5635	512	-11.6	-21.6	185	5
2023-09-15T12:00	5659	510	-11.8	-21.7	189	5
2023-09-15T12:00	5685	509	-12.0	-21.7	193	4
2023-09-15T12:00	5703	507	-12.2	-21.7	198	4
2023-09-15T12:00	5723	506	-12.3	-21.7	205	4
2023-09-15T12:00	5753	504	-12.6	-21.7	214	4
2023-09-15T12:00	5785	502	-12.6	-22.4	223	4
2023-09-15T12:00	5814	500	-12.5	-24.4	230	4
2023-09-15T12:00	5832	499	-12.6	-25.2	234	4
2023-09-15T12:00	5856	497	-12.7	-26.7	236	5
2023-09-15T12:00	5886	495	-12.8	-27.2	236	5
2023-09-15T12:00	5920	493	-13.0	-27.5	235	6
2023-09-15T12:00	5948	491	-13.2	-27.1	236	6
2023-09-15T12:00	5977	489	-13.5	-26.0	238	7
2023-09-15T12:00	6012	487	-13.8	-25.4	240	7
2023-09-15T12:00	6040	485	-14.1	-25.7	242	7
2023-09-15T12:00	6065	484	-14.3	-25.6	244	7
2023-09-15T12:00	6088	482	-14.5	-24.7	246	6
2023-09-15T12:00	6115	481	-14.7	-24.5	246	6
2023-09-15T12:00	6149	479	-15.0	-24.3	246	6
2023-09-15T12:00	6175	477	-15.2	-24.7	245	6
2023-09-15T12:00	6201	475	-15.2	-25.4	244	7
2023-09-15T12:00	6229	473	-15.5	-25.6	244	7
2023-09-15T12:00	6253	472	-15.6	-25.8	244	8
2023-09-15T12:00	6273	471	-15.7	-26.2	245	8
2023-09-15T12:00	6299	469	-15.9	-26.4	245	7
2023-09-15T12:00	6330	467	-16.1	-26.8	245	7
2023-09-15T12:00	6352	466	-16.3	-26.9	245	7
2023-09-15T12:00	6374	464	-16.5	-26.8	245	7
2023-09-15T12:00	6398	463	-16.7	-26.9	244	8
2023-09-15T12:00	6428	461	-16.9	-27.8	243	8
2023-09-15T12:00	6458	459	-17.1	-27.6	242	8
2023-09-15T12:00	6486	457	-17.4	-27.9	242	7
2023-09-15T12:00	6515	456	-17.7	-28.0	243	7
2023-09-15T12:00	6551	454	-17.9		245	6
2023-09-15T12:00	6569	452	-18.1	-28.5	246	6
2023-09-15T12:00	6588	451	-18.3	-28.8	247	6
2023-09-15T12:00	6610	450	-18.5	-28.7	247	6
2023-09-15T12:00	6632	449	-18.7	-28.9	247	7
2023-09-15T12:00	6656	447	-18.9	-29.0	248	7
2023-09-15T12:00	6684	446	-19.2	-29.1	249	7
2023-09-15T12:00	6709	444	-19.4	-29.1	250	7
2023-09-15T12:00	6735	442	-19.7	-29.2	251	6
2023-09-15T12:00	6764	441	-20.0	-29.4	250	6
2023-09-15T12:00	6787	439	-20.2	-29.4	248	6
2023-09-15T12:00	6813	438	-20.5	-29.5	244	6
2023-09-15T12:00	6847	436	-20.8	-29.7	239	6
2023-09-15T12:00	6872	434	-21.0	-29.8	234	6
2023-09-15T12:00	6900	433	-21.2	-30.2	230	6
2023-09-15T12:00	6932	431	-21.4	-30.8	228	6
2023-09-15T12:00	6968	429	-21.6	-31.0	229	6
2023-09-15T12:00	6993	427	-21.8	-31.1	231	7
2023-09-15T12:00	7022	426	-22.1	-31.2	233	7
2023-09-15T12:00	7055	424	-22.4	-31.9	235	7
2023-09-15T12:00	7088	422	-22.6	-32.1	235	7
2023-09-15T12:00	7115	420	-22.9	-32.4	234	8
2023-09-15T12:00	7145	419	-23.1	-33.3	233	8
2023-09-15T12:00	7168	417	-23.2	-33.3	233	8
2023-09-15T12:00	7189	416	-23.4	-32.9	234	7
2023-09-15T12:00	7215	414	-23.6	-32.9	237	7
2023-09-15T12:00	7246	413	-23.7	-34.0	241	7
2023-09-15T12:00	7278	411	-23.9	-34.6	245	7
2023-09-15T12:00	7319	409	-24.2	-34.9	248	7
2023-09-15T12:00	7351	407	-24.3	-34.4	249	7
2023-09-15T12:00	7371	406	-24.5	-34.5	250	7
2023-09-15T12:00	7393	404	-24.7	-35.1	249	7
2023-09-15T12:00	7427	403	-25.0	-36.3	247	7
2023-09-15T12:00	7458	401	-25.2	-38.2	245	8
2023-09-15T12:00	7487	399	-25.4	-39.2	243	8
2023-09-15T12:00	7523	397	-25.6	-38.0	242	8
2023-09-15T12:00	7559	395	-26.0	-37.9	241	8
2023-09-15T12:00	7589	394	-26.3	-37.8	241	8
2023-09-15T12:00	7619	392	-26.6	-36.7	242	8
2023-09-15T12:00	7647	391	-26.8	-36.7	242	8
2023-09-15T12:00	7672	389	-27.0	-37.2	243	7
2023-09-15T12:00	7695	388	-27.2	-36.9	243	7
2023-09-15T12:00	7719	387	-27.5	-37.1	242	7
2023-09-15T12:00	7754	385	-27.7	-38.4	240	7
2023-09-15T12:00	7788	383	-27.9	-38.7	240	7
2023-09-15T12:00	7824	381	-28.2	-39.2	240	7
2023-09-15T12:00	7859	379	-28.5	-39.2	240	7
2023-09-15T12:00	7878	378	-28.7	-39.1	241	7
2023-09-15T12:00	7899	377	-28.9	-39.2	240	7
2023-09-15T12:00	7923	376	-29.1	-39.3	239	7
2023-09-15T12:00	7951	374	-29.4	-39.0	238	7
2023-09-15T12:00	7982	373	-29.7	-39.3	236	7
2023-09-15T12:00	8012	371	-29.9	-39.7	237	6
2023-09-15T12:00	8049	369	-30.3	-39.8	238	6
2023-09-15T12:00	8080	368	-30.5	-39.8	241	5
2023-09-15T12:00	8113	366	-30.8	-41.1	245	5
2023-09-15T12:00	8144	364	-31.0	-43.3	250	5
2023-09-15T12:00	8174	363	-31.2	-43.5	255	5
2023-09-15T12:00	8207	361	-31.5	-44.8	258	5
2023-09-15T12:00	8241	359	-31.7	-46.8	261	5
2023-09-15T12:00	8267	358	-31.8	-47.0	263	5
2023-09-15T12:00	8297	357	-32.1	-45.2	265	5
2023-09-15T12:00	8332	355	-32.3	-48.1	267	4
2023-09-15T12:00	8368	353	-32.6	-48.6	269	4
2023-09-15T12:00	8403	351	-32.9	-47.8	270	4
2023-09-15T12:00	8433	350	-33.2	-43.9	270	4
2023-09-15T12:00	8458	349	-33.4	-44.3	270	4
2023-09-15T12:00	8481	347	-33.6	-44.2	267	4
2023-09-15T12:00	8505	346	-33.9	-44.8	263	4
2023-09-15T12:00	8536	345	-34.1	-45.2	258	4
2023-09-15T12:00	8562	343	-34.4	-47.2	253	4
2023-09-15T12:00	8590	342	-34.6	-49.0	249	4
2023-09-15T12:00	8623	340	-34.9	-46.4	247	4
2023-09-15T12:00	8649	339	-35.2	-46.2	248	3
2023-09-15T12:00	8677	338	-35.4	-49.2	251	3
2023-09-15T12:00	8709	336	-35.7	-49.8	252	3
2023-09-15T12:00	8743	335	-36.0	-46.8	250	3
2023-09-15T12:00	8776	333	-36.3	-46.7	245	3
2023-09-15T12:00	8807	331	-36.6	-45.7	237	3
2023-09-15T12:00	8834	330	-36.9	-46.2	229	4
2023-09-15T12:00	8864	329	-37.1	-46.3	222	4
2023-09-15T12:00	8890	328	-37.4	-46.0	218	4
2023-09-15T12:00	8918	326	-37.7	-45.8	215	4
2023-09-15T12:00	8950	325	-38.0	-46.0	213	4
2023-09-15T12:00	8973	324	-38.1	-46.7	214	4
2023-09-15T12:00	8995	323	-38.3	-46.9	216	3
2023-09-15T12:00	9016	322	-38.5	-47.7	219	3
2023-09-15T12:00	9040	320	-38.7	-49.1	224	3
2023-09-15T12:00	9069	319	-38.9	-50.9	227	3
2023-09-15T12:00	9100	318	-39.2	-48.3	228	3
2023-09-15T12:00	9127	316	-39.5	-47.6	227	3
2023-09-15T12:00	9157	315	-39.8	-47.7	223	3
2023-09-15T12:00	9189	314	-40.1	-47.3	218	3
2023-09-15T12:00	9214	312	-40.3	-47.9	213	3
2023-09-15T12:00	9238	311	-40.5	-48.4	209	3
2023-09-15T12:00	9260	310	-40.7	-48.2	207	3
2023-09-15T12:00	9283	309	-40.8	-48.5	206	3
2023-09-15T12:00	9310	308	-41.0	-48.4	208	3
2023-09-15T12:00	9338	307	-41.2	-48.1	212	3
2023-09-15T12:00	9359	306	-41.5	-48.4	216	2
2023-09-15T12:00	9383	305	-41.6	-48.2	222	2
2023-09-15T12:00	9407	304	-41.9	-48.2	227	2
2023-09-15T12:00	9437	302	-42.1	-48.3	230	2
2023-09-15T12:00	9465	301	-42.3	-48.8	229	2
2023-09-15T12:00	9493	300	-42.6	-49.3	227	2
2023-09-15T12:00	9519	299	-42.8	-49.3	226	2
2023-09-15T12:00	9541	298	-43.0	-49.5	226	3
2023-09-15T12:00	9564	297	-43.2	-49.5	227	3
2023-09-15T12:00	9587	296	-43.4	-49.8	230	3
2023-09-15T12:00	9617	294	-43.7	-50.1	232	3
2023-09-15T12:00	9645	293	-44.0	-50.7	233	3
2023-09-15T12:00	9669	292	-44.2	-50.7	233	3
2023-09-15T12:00	9695	291	-44.5	-51.0	232	3
2023-09-15T12:00	9726	290	-44.7	-51.4	230	3
2023-09-15T12:00	9756	288	-45.0	-51.7	228	3
2023-09-15T12:00	9786	287	-45.2	-51.9	228	3
2023-09-15T12:00	9817	286	-45.4	-52.6	228	3
2023-09-15T12:00	9844	285	-45.5	-53.5	228	3
2023-09-15T12:00	9866	284	-45.7	-53.7	228	4
2023-09-15T12:00	9888	283	-45.9	-53.7	229	4
2023-09-15T12:00	9910	282	-46.0	-53.6	231	4
2023-09-15T12:00	9935	281	-46.3	-54.2	234	4
2023-09-15T12:00	9966	279	-46.4	-55.8	237	5
2023-09-15T12:00	9995	278	-46.6	-56.3	240	5
2023-09-15T12:00	10024	277	-46.8	-56.8	242	5
2023-09-15T12:00	10047	276	-47.0	-57.2	242	5
2023-09-15T12:00	10073	275	-47.2	-57.1	240	5
2023-09-15T12:00	10104	274	-47.5	-56.9	237	5
2023-09-15T12:00	10136	272	-47.8	-56.7	234	5
2023-09-15T12:00	10163	271	-48.0	-56.7	232	5
2023-09-15T12:00	10189	270	-48.2	-56.8	231	5
2023-09-15T12:00	10217	269	-48.5	-57.5	230	6
2023-09-15T12:00	10242	268	-48.7	-58.6	229	6
2023-09-15T12:00	10270	267	-49.0	-58.9	228	6
2023-09-15T12:00	10296	266	-49.2	-58.7	226	6
2023-09-15T12:00	10320	265	-49.4	-58.6	224	6
2023-09-15T12:00	10349	264	-49.7	-58.9	222	6
2023-09-15T12:00	10376	263	-49.9	-59.2	222	6
2023-09-15T12:00	10398	262	-50.1	-59.2	223	6
2023-09-15T12:00	10422	261	-50.4	-59.2	223	6
2023-09-15T12:00	10444	260	-50.6	-59.3	222	6
2023-09-15T12:00	10468	259	-50.7	-59.2	221	6
2023-09-15T12:00	10493	258	-51.0	-59.3	218	6
2023-09-15T12:00	10517	257	-51.2	-59.2	216	7
2023-09-15T12:00	10542	256	-51.4	-59.3	215	7
2023-09-15T12:00	10569	255	-51.7	-59.4	215	7
2023-09-15T12:00	10598	254	-52.0	-59.5	215	7
2023-09-15T12:00	10622	253	-52.2	-59.5	215	7
2023-09-15T12:00	10650	252	-52.4	-59.6	215	7
2023-09-15T12:00	10669	251	-52.6	-59.8	215	7
2023-09-15T12:00	10690	250	-52.8	-59.7	215	7
2023-09-15T12:00	10715	249	-53.1	-59.8	216	7
2023-09-15T12:00	10741	248	-53.3	-59.9	218	7
2023-09-15T12:00	10763	247	-53.5		219	7
2023-09-15T12:00	10786	246	-53.7	-60.0	221	7
2023-09-15T12:00	10807	246	-53.9	-60.2	221	7
2023-09-15T12:00	10829	245	-54.1	-60.4	222	7
2023-09-15T12:00	10851	244	-54.2	-60.5	221	7
2023-09-15T12:00	10870	243	-54.5	-60.7	221	7
2023-09-15T12:00	10891	242	-54.7	-60.7	220	7
2023-09-15T12:00	10913	242	-54.8	-60.7	218	7
2023-09-15T12:00	10933	241	-55.0	-60.8	216	7
2023-09-15T12:00	10954	240	-55.1	-60.7	215	8
2023-09-15T12:00	10976	239	-55.3	-60.8	213	8
2023-09-15T12:00	10996	238	-55.5	-60.7	212	8
2023-09-15T12:00	11018	238	-55.7	-60.7	211	8
2023-09-15T12:00	11041	237	-55.9	-60.7	211	8
2023-09-15T12:00	11063	236	-56.1	-60.8	211	8
2023-09-15T12:00	11089	235	-56.2	-61.1	212	8
2023-09-15T12:00	11115	234	-56.3	-61.6	214	8
2023-09-15T12:00	11143	233	-56.4	-62.2	215	8
2023-09-15T12:00	11171	232	-56.6	-62.7	215	8
2023-09-15T12:00	11193	231	-56.8	-62.9	215	8
2023-09-15T12:00	11214	230	-57.0	-63.0	214	8
2023-09-15T12:00	11239	230	-57.2	-63.1	215	8
2023-09-15T12:00	11266	229	-57.4	-63.5	215	8
2023-09-15T12:00	11294	228	-57.5	-63.8	217	7
2023-09-15T12:00	11316	227	-57.8	-64.2	218	7
2023-09-15T12:00	11337	226	-57.9	-64.2	219	7
2023-09-15T12:00	11357	225	-58.0	-64.0	218	7
2023-09-15T12:00	11380	224	-58.2	-64.0	217	6
2023-09-15T12:00	11405	224	-58.4	-64.1	216	6
2023-09-15T12:00	11432	223	-58.5	-64.2	214	6
2023-09-15T12:00	11457	222	-58.7		212	6
2023-09-15T12:00	11479	221	-58.9	-64.5	211	6
2023-09-15T12:00	11503	220	-59.1	-64.2	209	6
2023-09-15T12:00	11525	219	-59.2	-63.9	207	6
2023-09-15T12:00	11551	218	-59.4	-64.0	204	5
2023-09-15T12:00	11576	218	-59.5	-64.2	201	5
2023-09-15T12:00	11603	217	-59.7	-64.6	198	5
2023-09-15T12:00	11629	216	-59.8	-64.9	197	5
2023-09-15T12:00	11656	215	-60.0	-65.2	199	5
2023-09-15T12:00	11680	214	-60.1	-65.3	201	5
2023-09-15T12:00	11703	213	-60.4	-65.5	204	5
2023-09-15T12:00	11727	212	-60.5	-65.6	207	6
2023-09-15T12:00	11750	212	-60.7	-65.9	210	6
2023-09-15T12:00	11770	211	-60.8	-66.2	212	6
2023-09-15T12:00	11793	210	-61.0	-66.6	214	6
2023-09-15T12:00	11815	209	-61.1	-66.8	216	5
2023-09-15T12:00	11836	209	-61.3	-67.1	218	5
2023-09-15T12:00	11858	208	-61.4	-67.3	218	5
2023-09-15T12:00	11879	207	-61.5	-67.4	217	5
2023-09-15T12:00	11899	207	-61.6	-67.5	215	4
2023-09-15T12:00	11919	206	-61.7	-67.7	211	4
2023-09-15T12:00	11939	205	-61.8	-67.6	207	4
2023-09-15T12:00	11958	205	-61.9	-67.4	203	4
2023-09-15T12:00	11979	204	-61.9	-67.0	200	4
2023-09-15T12:00	11998	203	-62.1	-67.0	197	4
2023-09-15T12:00	12021	203	-62.2	-67.0	194	4
2023-09-15T12:00	12041	202	-62.4	-67.2	192	4
2023-09-15T12:00	12060	201	-62.5	-67.4	192	4
2023-09-15T12:00	12081	201	-62.4	-67.4	194	5
2023-09-15T12:00	12101	200	-62.0	-67.2	197	5
2023-09-15T12:00	12123	199	-61.8	-67.2	201	5
2023-09-15T12:00	12143	199	-61.6	-67.1	203	5
2023-09-15T12:00	12167	198	-61.5	-67.0	205	5
2023-09-15T12:00	12187	197	-61.5	-67.1	205	6
2023-09-15T12:00	12210	196	-61.1	-66.9	205	6
2023-09-15T12:00	12228	196	-61.2	-67.1	206	5
2023-09-15T12:00	12251	195	-61.4	-67.3	207	5
2023-09-15T12:00	12274	194	-61.6	-67.5	210	4
2023-09-15T12:00	12296	194	-61.6	-67.7	215	3
2023-09-15T12:00	12320	193	-61.2	-67.6	222	3
2023-09-15T12:00	12342	192	-61.2	-67.9	226	3
2023-09-15T12:00	12361	192	-61.2	-68.3	226	3
2023-09-15T12:00	12381	191	-60.9	-68.5	220	3
2023-09-15T12:00	12402	190	-60.3	-68.4	213	3
2023-09-15T12:00	12423	190	-60.0	-68.5	208	4
2023-09-15T12:00	12444	189	-60.0	-68.8	204	4
2023-09-15T12:00	12465	189	-59.7	-68.6	203	4
2023-09-15T12:00	12483	188	-59.4	-68.4	204	5
2023-09-15T12:00	12506	187	-59.3	-68.4	206	5
2023-09-15T12:00	12526	187	-59.4	-68.4	208	5
2023-09-15T12:00	12548	186	-59.6	-68.6	211	6
2023-09-15T12:00	12569	185	-59.8	-68.9	213	7
2023-09-15T12:00	12589	185	-59.7	-68.9	216	7
2023-09-15T12:00	12610	184	-59.3	-68.8	219	7
2023-09-15T12:00	12632	184	-59.2	-69.1	223	8
2023-09-15T12:00	12651	183	-59.3	-69.7	228	8
2023-09-15T12:00	12670	182	-59.2	-70.4	233	8
2023-09-15T12:00	12690	182	-59.1	-71.3	238	8
2023-09-15T12:00	12709	181	-59.1	-72.4	243	9
2023-09-15T12:00	12731	181	-59.1	-73.3	248	9
2023-09-15T12:00	12753	180	-58.9	-73.9	253	9
2023-09-15T12:00	12769	180	-58.4	-74.0	258	10
2023-09-15T12:00	12791	179	-58.0	-74.1	262	10
2023-09-15T12:00	12812	178	-57.7	-74.3	266	10
2023-09-15T12:00	12830	178	-57.3	-74.7	269	10
2023-09-15T12:00	12851	177	-57.1	-75.5	270	10
2023-09-15T12:00	12869	177	-56.9	-76.5	270	10
2023-09-15T12:00	12888	176	-56.7	-77.3	269	11
2023-09-15T12:00	12909	176	-56.7	-77.6	268	11
2023-09-15T12:00	12929	175	-56.7	-77.8	266	12
2023-09-15T12:00	12951	174	-56.8	-77.8	265	12
2023-09-15T12:00	12975	174	-56.7	-78.0	264	13
2023-09-15T12:00	12997	173	-56.2	-78.1	264	14
2023-09-15T12:00	13017	173	-55.8	-78.0	265	14
2023-09-15T12:00	13038	172	-55.6	-78.2	266	15
2023-09-15T12:00	13059	172	-55.5	-78.4	267	14
2023-09-15T12:00	13077	171	-55.4	-78.5	270	14
2023-09-15T12:00	13101	170	-55.4	-78.7	272	13
2023-09-15T12:00	13124	170	-55.5	-78.8	274	13
2023-09-15T12:00	13147	169	-55.5	-78.8	277	12
2023-09-15T12:00	13173	169	-55.7	-78.8	279	11
2023-09-15T12:00	13195	168	-55.8	-78.9	280	11
2023-09-15T12:00	13217	167	-55.9	-78.9	281	10
2023-09-15T12:00	13239	167	-56.0	-79.0	280	10
2023-09-15T12:00	13260	166	-56.1	-79.1	278	9
2023-09-15T12:00	13283	166	-56.2	-79.2	275	8
2023-09-15T12:00	13301	165	-56.2	-79.2	271	8
2023-09-15T12:00	13323	165	-56.2	-79.4	267	8
2023-09-15T12:00	13345	164	-55.8	-79.2	264	8
2023-09-15T12:00	13365	163	-55.4	-78.9	261	8
2023-09-15T12:00	13386	163	-55.3	-78.8	259	8
2023-09-15T12:00	13407	162	-55.4	-78.9	257	8
2023-09-15T12:00	13428	162	-55.4	-79.1	255	8
2023-09-15T12:00	13446	161	-55.4	-79.3	253	9
2023-09-15T12:00	13467	161	-55.4	-79.5	250	9
2023-09-15T12:00	13487	160	-55.3	-79.6	247	9
2023-09-15T12:00	13507	160	-55.2	-80.0	244	9
2023-09-15T12:00	13528	159	-55.0	-80.0	241	9
2023-09-15T12:00	13548	159	-54.9	-80.2	238	9
2023-09-15T12:00	13570	158	-55.0	-80.3	236	9
2023-09-15T12:00	13590	158	-55.0	-80.3	234	9
2023-09-15T12:00	13611	157	-55.1	-80.4	233	9
2023-09-15T12:00	13632	157	-55.2	-80.4	231	10
2023-09-15T12:00	13653	156	-55.3	-80.3	229	10
2023-09-15T12:00	13673	156	-55.4	-80.4	228	10
2023-09-15T12:00	13694	155	-55.4	-80.4	226	10
2023-09-15T12:00	13714	155	-55.6	-80.5	225	10
2023-09-15T12:00	13737	154	-55.7	-80.8	225	11
2023-09-15T12:00	13757	154	-55.8	-80.9	226	11
2023-09-15T12:00	13778	153	-55.8	-80.9	228	11
2023-09-15T12:00	13799	153	-55.7	-80.8	232	11
2023-09-15T12:00	13820	152	-55.7	-81.1	236	11
2023-09-15T12:00	13845	152	-55.7	-81.1	240	11
2023-09-15T12:00	13868	151	-55.7	-81.3	244	10
2023-09-15T12:00	13889	151	-55.6	-81.3	248	10
2023-09-15T12:00	13911	150	-55.8	-81.4	252	10
2023-09-15T12:00	13932	150	-55.7	-81.3	255	10
2023-09-15T12:00	13954	149	-55.4	-81.1	259	10
2023-09-15T12:00	13978	149	-55.4	-81.1	263	10
2023-09-15T12:00	13998	148	-55.5	-81.4	266	11
2023-09-15T12:00	14019	148	-55.6	-81.5	268	11
2023-09-15T12:00	14042	147	-55.6	-81.5	270	11
2023-09-15T12:00	14063	147	-55.7	-81.6	271	12
2023-09-15T12:00	14085	146	-55.6	-81.5	273	12
2023-09-15T12:00	14105	146	-55.7	-81.6	275	12
2023-09-15T12:00	14129	145	-55.8	-81.4	276	12
2023-09-15T12:00	14149	145	-55.9	-81.5	276	12
2023-09-15T12:00	14170	144	-56.1	-81.6	276	12
2023-09-15T12:00	14191	144	-56.0	-81.6	274	11
2023-09-15T12:00	14213	143	-56.0	-81.6	271	11
2023-09-15T12:00	14233	143	-56.2	-81.7	267	10
2023-09-15T12:00	14256	142	-56.2	-81.7	263	10
2023-09-15T12:00	14278	142	-56.3	-81.8	260	10
2023-09-15T12:00	14299	141	-56.3	-81.8	257	10
2023-09-15T12:00	14319	141	-56.2	-81.7	254	10
2023-09-15T12:00	14341	140	-56.1	-81.6	251	10
2023-09-15T12:00	14361	140	-56.2	-81.7	249	10
2023-09-15T12:00	14380	139	-56.2	-81.7	247	11
2023-09-15T12:00	14401	139	-56.2	-81.7	246	11
2023-09-15T12:00	14425	138	-56.3	-81.8	245	12
2023-09-15T12:00	14443	138	-56.3	-81.8	244	12
2023-09-15T12:00	14463	138	-56.2	-81.7	244	13
2023-09-15T12:00	14484	137	-56.0	-81.8	243	13
2023-09-15T12:00	14507	137	-55.8	-81.7	243	13
2023-09-15T12:00	14531	136	-55.8	-81.7	243	14
2023-09-15T12:00	14551	136	-55.8	-81.7	244	14
2023-09-15T12:00	14573	135	-55.9	-81.8	246	14
2023-09-15T12:00	14596	135	-55.9	-81.8	248	14
2023-09-15T12:00	14617	134	-55.7	-81.9	251	14
2023-09-15T12:00	14640	134	-55.7	-81.9	254	14
2023-09-15T12:00	14660	133	-55.8	-81.7	257	14
2023-09-15T12:00	14683	133	-56.0	-81.8	260	13
2023-09-15T12:00	14704	132	-56.1	-81.9	263	13
2023-09-15T12:00	14725	132	-56.2	-82.0	267	13
2023-09-15T12:00	14747	132	-56.2	-82.0	270	13
2023-09-15T12:00	14771	131	-56.2	-82.0	273	13
2023-09-15T12:00	14791	131	-56.2	-82.0	276	12
2023-09-15T12:00	14811	130	-56.1	-81.9	279	12
2023-09-15T12:00	14832	130	-56.0	-81.8	281	11
2023-09-15T12:00	14852	129	-56.0	-81.8	281	11
2023-09-15T12:00	14874	129	-56.1	-81.9	281	11
2023-09-15T12:00	14895	129	-56.3	-82.1	281	10
2023-09-15T12:00	14917	128	-56.3	-82.1	279	10
2023-09-15T12:00	14937	128	-56.4	-82.1	278	9
2023-09-15T12:00	14958	127	-56.3	-82.1	276	9
2023-09-15T12:00	14978	127	-56.3	-82.1	274	9
2023-09-15T12:00	14996	127	-56.3	-82.1	271	9
2023-09-15T12:00	15020	126	-56.3	-82.1	269	9
2023-09-15T12:00	15040	126	-56.4	-82.1	267	9
2023-09-15T12:00	15059	125	-56.4	-82.1	265	9
2023-09-15T12:00	15079	125	-56.3	-82.1	264	9
2023-09-15T12:00	15100	124	-56.3	-82.1	264	9
2023-09-15T12:00	15122	124	-56.4	-82.1	263	9
2023-09-15T12:00	15143	124	-56.5	-82.5	263	9
2023-09-15T12:00	15162	123	-56.5	-82.2	262	9
2023-09-15T12:00	15185	123	-56.5	-82.2	263	9
2023-09-15T12:00	15211	122	-56.5	-82.2	264	10
2023-09-15T12:00	15235	122	-56.4	-82.4	265	10
2023-09-15T12:00	15254	121	-56.4	-82.4	266	10
2023-09-15T12:00	15278	121	-56.6	-82.6	267	10
2023-09-15T12:00	15300	121	-56.6	-82.6	268	10
2023-09-15T12:00	15320	120	-56.6	-82.6	269	10
2023-09-15T12:00	15343	120	-56.6	-82.6	269	10
2023-09-15T12:00	15365	119	-56.6	-82.6	270	9
2023-09-15T12:00	15386	119	-56.8	-82.5	270	9
2023-09-15T12:00	15409	119	-57.0	-82.6	269	8
2023-09-15T12:00	15431	118	-57.1	-82.7	268	8
2023-09-15T12:00	15453	118	-57.3	-82.6	265	8
2023-09-15T12:00	15476	117	-57.3	-82.6	262	7
2023-09-15T12:00	15495	117	-57.3	-82.8	258	7
2023-09-15T12:00	15521	116	-57.4	-82.9	253	7
2023-09-15T12:00	15542	116	-57.4	-82.9	250	7
2023-09-15T12:00	15563	116	-57.4	-82.9	247	7
2023-09-15T12:00	15588	115	-57.4	-82.9	246	8
2023-09-15T12:00	15608	115	-57.4	-82.9	246	8
2023-09-15T12:00	15629	114	-57.5	-83.0	246	9
2023-09-15T12:00	15653	114	-57.6	-83.1	246	9
2023-09-15T12:00	15677	114	-57.7	-83.2	247	9
2023-09-15T12:00	15698	113	-57.7	-82.9	248	9
2023-09-15T12:00	15721	113	-57.7	-82.9	248	10
2023-09-15T12:00	15741	112	-57.8	-83.0	249	10
2023-09-15T12:00	15764	112	-57.9	-83.0	249	10
2023-09-15T12:00	15785	112	-58.0	-83.1	248	10
2023-09-15T12:00	15807	111	-58.1	-83.2	247	10
2023-09-15T12:00	15831	111	-58.1	-83.2	245	9
2023-09-15T12:00	15853	111	-58.1	-83.2	243	9
2023-09-15T12:00	15874	110	-58.1	-83.2	241	9
2023-09-15T12:00	15895	110	-58.0	-83.1	240	9
2023-09-15T12:00	15919	109	-58.0	-83.4	240	9
2023-09-15T12:00	15939	109	-58.0	-83.4	241	9
2023-09-15T12:00	15963	109	-58.1	-83.5	242	10
2023-09-15T12:00	15985	108	-58.1	-83.2	244	10
2023-09-15T12:00	16006	108	-58.2	-83.3	246	10
2023-09-15T12:00	16031	107	-58.3		248	11
2023-09-15T12:00	16050	107	-58.4	-83.4	249	11
2023-09-15T12:00	16071	107	-58.3		251	11
2023-09-15T12:00	16093	106	-58.4	-83.4	252	11
2023-09-15T12:00	16115	106	-58.5	-83.5	253	11
2023-09-15T12:00	16136	106	-58.5	-83.5	255	11
2023-09-15T12:00	16160	105	-58.6	-83.6	256	10
2023-09-15T12:00	16180	105	-58.6	-83.6	256	10
2023-09-15T12:00	16202	105	-58.5	-83.8	256	9
2023-09-15T12:00	16225	104	-58.4	-83.7	254	9
2023-09-15T12:00	16245	104	-58.4	-83.7	252	9
2023-09-15T12:00	16266	103	-58.4	-83.7	249	8
2023-09-15T12:00	16289	103	-58.4	-83.7	246	8
2023-09-15T12:00	16309	103	-58.5	-83.8	242	8
2023-09-15T12:00	16330	102	-58.5	-84.0	238	8
2023-09-15T12:00	16350	102	-58.5	-84.0	235	8
2023-09-15T12:00	16369	102	-58.6	-84.1	233	9
2023-09-15T12:00	16392	101	-58.4	-84.0	233	9
2023-09-15T12:00	16415	101	-58.4	-84.0	233	10
2023-09-15T12:00	16441	101	-58.5	-84.0	233	11
2023-09-15T12:00	16461	100	-58.6	-84.1	234	11
2023-09-15T12:00	16482	100	-58.8	-84.3	235	12
2023-09-15T12:00	16503	100	-58.8	-84.3	237	13
2023-09-15T12:00	16525	99	-58.9	-84.4	238	13
2023-09-15T12:00	16546	99	-58.9	-84.4	240	14
2023-09-15T12:00	16569	99	-58.9	-84.4	242	14
2023-09-15T12:00	16589	98	-58.9	-84.4	245	14
2023-09-15T12:00	16613	98	-59.0	-84.4	247	15
2023-09-15T12:00	16636	98	-59.2	-84.6	250	15
2023-09-15T12:00	16656	97	-59.2	-84.6	253	15
2023-09-15T12:00	16677	97	-59.1	-84.8	256	15
2023-09-15T12:00	16698	97	-59.0	-84.7	258	15
2023-09-15T12:00	16720	96	-58.9	-84.6	261	15
2023-09-15T12:00	16743	96	-59.0	-84.7	263	14
2023-09-15T12:00	16763	96	-59.0	-85.0	265	14
2023-09-15T12:00	16784	95	-59.0	-85.0	267	13
2023-09-15T12:00	16805	95	-59.0	-85.0	268	12
2023-09-15T12:00	16829	95	-59.1	-85.1	269	12
2023-09-15T12:00	16849	94	-59.1	-85.1	270	12
2023-09-15T12:00	16870	94	-59.1	-85.1	271	11
2023-09-15T12:00	16892	94	-59.0	-85.3	271	11
2023-09-15T12:00	16912	93	-58.7	-85.1	272	11
2023-09-15T12:00	16935	93	-58.5	-85.3	273	11
2023-09-15T12:00	16959	93	-58.4	-85.2	274	11
2023-09-15T12:00	16980	92	-58.4	-85.2	275	11
2023-09-15T12:00	17003	92	-58.3	-85.1	275	10
2023-09-15T12:00	17026	92	-58.4	-85.5	274	10
2023-09-15T12:00	17048	91	-58.2	-85.4	272	9
2023-09-15T12:00	17071	91	-58.1	-85.3	269	9
2023-09-15T12:00	17095	91	-58.2	-85.4	266	9
2023-09-15T12:00	17116	90	-58.2	-85.4	263	8
2023-09-15T12:00	17140	90	-58.2	-85.4	261	8
2023-09-15T12:00	17162	90	-58.2	-85.4	260	8
2023-09-15T12:00	17186	89	-58.1	-85.3	259	8
2023-09-15T12:00	17210	89	-58.1	-85.7	258	8
2023-09-15T12:00	17237	89	-58.0	-85.6	257	8
2023-09-15T12:00	17257	88	-58.0	-85.2	256	8
2023-09-15T12:00	17280	88	-58.2	-85.4	256	9
2023-09-15T12:00	17303	88	-58.2	-85.4	257	9
2023-09-15T12:00	17326	87	-58.2	-85.4	258	9
2023-09-15T12:00	17349	87	-58.3	-85.5	260	9
2023-09-15T12:00	17373	87	-58.3	-85.5	262	9
2023-09-15T12:00	17395	86	-58.3	-85.5	264	9
2023-09-15T12:00	17416	86	-58.3	-85.5	265	10
2023-09-15T12:00	17441	86	-58.3	-85.8	267	10
2023-09-15T12:00	17463	86	-58.4	-85.9	268	10
2023-09-15T12:00	17486	85	-58.4	-85.9	270	10
2023-09-15T12:00	17510	85	-58.5	-86.0	272	10
2023-09-15T12:00	17534	85	-58.5	-85.6	275	10
2023-09-15T12:00	17554	84	-58.6	-85.7	277	10
2023-09-15T12:00	17576	84	-58.7	-85.8	280	10
2023-09-15T12:00	17600	84	-58.7	-85.8	282	9
2023-09-15T12:00	17622	83	-58.8	-85.9	284	9
2023-09-15T12:00	17644	83	-58.8	-85.9	285	8
2023-09-15T12:00	17665	83	-58.8	-85.9	287	8
2023-09-15T12:00	17691	83	-58.9	-85.9	289	7
2023-09-15T12:00	17712	82	-59.1		291	6
2023-09-15T12:00	17731	82	-59.2	-86.2	290	6
2023-09-15T12:00	17754	82	-59.1	-86.5	288	5
2023-09-15T12:00	17779	81	-58.6	-86.1	282	5
2023-09-15T12:00	17799	81	-58.4	-86.3	276	5
2023-09-15T12:00	17819	81	-58.3	-86.2	270	5
2023-09-15T12:00	17843	81	-58.2	-86.2	265	5
2023-09-15T12:00	17865	80	-58.3	-86.2	261	5
2023-09-15T12:00	17885	80	-58.4	-86.3	258	6
2023-09-15T12:00	17910	80	-58.5	-86.4	255	6
2023-09-15T12:00	17929	79	-58.5	-86.4	254	6
2023-09-15T12:00	17949	79	-58.5	-86.4	253	6
2023-09-15T12:00	17972	79	-58.3	-86.2	254	6
2023-09-15T12:00	17994	79	-58.1		256	7
2023-09-15T12:00	18016	78	-58.0	-86.0	260	7
2023-09-15T12:00	18035	78	-57.9	-86.4	264	7
2023-09-15T12:00	18061	78	-58.0	-86.4	269	8
2023-09-15T12:00	18083	78	-57.9	-86.4	273	8
2023-09-15T12:00	18103	77	-57.8	-86.3	275	8
2023-09-15T12:00	18126	77	-57.4	-86.4	277	8
2023-09-15T12:00	18150	77	-57.1	-86.2	277	8
2023-09-15T12:00	18171	76	-56.8	-86.0	276	8
2023-09-15T12:00	18195	76	-56.6	-85.8	275	8
2023-09-15T12:00	18219	76	-56.4	-85.7	273	8
2023-09-15T12:00	18242	76	-56.3	-85.6	272	8
2023-09-15T12:00	18264	75	-56.4	-85.7	272	8
2023-09-15T12:00	18288	75	-56.4	-85.7	272	8
2023-09-15T12:00	18309	75	-56.5	-85.8	272	8
2023-09-15T12:00	18331	75	-56.6	-85.8	272	8
2023-09-15T12:00	18356	74	-56.6	-85.8	272	8
2023-09-15T12:00	18380	74	-56.7	-85.9	273	8
2023-09-15T12:00	18402	74	-56.7	-85.9	274	8
2023-09-15T12:00	18425	73	-56.6	-85.8	274	8
2023-09-15T12:00	18448	73	-56.6	-85.8	273	8
2023-09-15T12:00	18472	73	-56.6	-85.8	270	7
2023-09-15T12:00	18496	73	-56.4	-85.7	267	7
2023-09-15T12:00	18521	72	-56.3	-85.6	263	7
2023-09-15T12:00	18541	72	-56.2	-86.0	260	7
2023-09-15T12:00	18568	72	-56.2	-86.0	258	7
2023-09-15T12:00	18591	72	-56.1	-86.0	257	7
2023-09-15T12:00	18615	71	-56.1	-85.5	256	7
2023-09-15T12:00	18637	71	-56.3	-85.6	256	7
2023-09-15T12:00	18661	71	-56.4	-85.7	255	7
2023-09-15T12:00	18684	71	-56.3	-85.6	255	7
2023-09-15T12:00	18705	70	-56.4	-85.7	256	7
2023-09-15T12:00	18729	70	-56.5	-85.8	256	7
2023-09-15T12:00	18755	70	-56.7	-85.9	256	7
2023-09-15T12:00	18778	69	-56.8	-86.0	255	6
2023-09-15T12:00	18802	69	-56.8	-86.0	255	6
2023-09-15T12:00	18825	69	-56.9	-86.1	253	6
2023-09-15T12:00	18847	69	-56.8	-86.0	250	6
2023-09-15T12:00	18870	68	-56.6	-85.8	245	5
2023-09-15T12:00	18895	68	-56.6	-85.8	239	5
2023-09-15T12:00	18921	68	-56.7	-85.9	233	5
2023-09-15T12:00	18943	68	-56.7	-85.9	226	5
2023-09-15T12:00	18965	67	-56.8	-86.0	219	5
2023-09-15T12:00	18988	67	-56.7	-85.9	215	5
2023-09-15T12:00	19010	67	-56.8	-86.0	212	5
2023-09-15T12:00	19033	67	-56.9	-86.1	213	5
2023-09-15T12:00	19056	66	-57.0	-86.1	216	5
2023-09-15T12:00	19078	66	-57.0	-86.1	220	6
2023-09-15T12:00	19105	66	-56.9	-86.1	226	6
2023-09-15T12:00	19125	66	-57.0	-86.1	231	7
2023-09-15T12:00	19149	66	-57.0	-86.1	236	7
2023-09-15T12:00	19172	65	-57.1	-86.2	241	8
2023-09-15T12:00	19193	65	-57.2	-86.3	245	8
2023-09-15T12:00	19219	65	-57.3	-86.4	250	8
2023-09-15T12:00	19242	65	-57.3	-86.4	255	9
2023-09-15T12:00	19266	64	-57.2	-86.3	259	9
2023-09-15T12:00	19289	64	-57.1	-86.2	263	9
2023-09-15T12:00	19310	64	-57.2	-86.3	266	9
2023-09-15T12:00	19334	64	-57.2	-86.3	268	8
2023-09-15T12:00	19356	63	-57.1	-86.2	267	8
2023-09-15T12:00	19383	63	-56.8	-86.0	264	7
2023-09-15T12:00	19405	63	-56.7	-85.9	259	7
2023-09-15T12:00	19425	63	-56.8	-86.0	252	6
2023-09-15T12:00	19452	62	-56.9	-86.1	244	6
2023-09-15T12:00	19475	62	-57.0	-86.1	235	6
2023-09-15T12:00	19494	62	-57.0	-86.1	228	6
2023-09-15T12:00	19521	62	-56.9	-86.1	223	7
2023-09-15T12:00	19546	62	-57.0	-86.1	220	7
2023-09-15T12:00	19571	61	-57.2	-86.3	220	7
2023-09-15T12:00	19594	61	-57.2	-86.3	220	8
2023-09-15T12:00	19616	61	-57.1	-86.2	223	8
2023-09-15T12:00	19644	61	-57.1	-86.2	226	8
2023-09-15T12:00	19668	60	-57.2	-86.3	230	8
2023-09-15T12:00	19694	60	-57.4	-86.4	234	8
2023-09-15T12:00	19719	60	-57.5	-86.5	239	8
2023-09-15T12:00	19744	60	-57.5	-86.5	244	8
2023-09-15T12:00	19766	59	-57.6	-86.6	248	8
2023-09-15T12:00	19792	59	-57.5	-86.5	252	8
2023-09-15T12:00	19817	59	-57.4	-86.4	254	8
2023-09-15T12:00	19844	59	-57.4	-86.4	256	7
2023-09-15T12:00	19870	58	-57.4	-86.4	257	7
2023-09-15T12:00	19894	58	-57.3	-86.4	257	6
2023-09-15T12:00	19919	58	-57.3	-86.4	256	6
2023-09-15T12:00	19946	58	-57.3	-86.4	255	6
2023-09-15T12:00	19970	58	-57.2	-86.3	253	6
2023-09-15T12:00	19997	57	-57.2	-86.3	251	6
2023-09-15T12:00	20022	57	-57.3	-86.4	248	7
2023-09-15T12:00	20050	57	-57.3	-86.4	245	7
2023-09-15T12:00	20071	57	-57.4	-86.4	242	7
2023-09-15T12:00	20094	56	-57.5	-86.5	240	7
2023-09-15T12:00	20121	56	-57.5	-86.5	239	8
2023-09-15T12:00	20145	56	-57.5	-86.5	240	8
2023-09-15T12:00	20174	56	-57.5	-86.5	242	8
2023-09-15T12:00	20193	56	-57.5	-86.5	246	8
2023-09-15T12:00	20220	55	-57.5	-86.5	249	8
2023-09-15T12:00	20245	55	-57.5	-86.5	251	7
2023-09-15T12:00	20267	55	-57.5	-86.5	251	7
2023-09-15T12:00	20290	55	-57.4	-86.4	249	7
2023-09-15T12:00	20316	54	-57.3	-86.4	245	7
2023-09-15T12:00	20342	54	-57.4	-86.9	241	7
2023-09-15T12:00	20365	54	-57.2	-86.8	239	7
2023-09-15T12:00	20390	54	-57.0	-86.6	238	7
2023-09-15T12:00	20414	54	-57.1	-86.2	239	8
2023-09-15T12:00	20438	53	-57.3	-86.4	242	8
2023-09-15T12:00	20463	53	-57.2	-86.3	244	8
2023-09-15T12:00	20484	53	-57.2	-86.3	245	8
2023-09-15T12:00	20511	53	-57.3	-86.4	245	8
2023-09-15T12:00	20530	53	-57.4	-86.4	244	8
2023-09-15T12:00	20560	52	-57.4	-86.4	243	8
2023-09-15T12:00	20584	52	-57.3	-86.4	241	8
2023-09-15T12:00	20604	52	-57.2	-86.3	240	8
2023-09-15T12:00	20631	52	-57.1	-86.2	239	8
2023-09-15T12:00	20654	52	-57.1	-86.2	238	8
2023-09-15T12:00	20677	51	-57.0	-86.1	237	9
2023-09-15T12:00	20701	51	-57.3	-86.4	237	9
2023-09-15T12:00	20723	51	-57.4	-86.4	237	9
2023-09-15T12:00	20745	51	-57.2	-86.3	237	9
2023-09-15T12:00	20769	51	-57.1	-86.7	237	10
2023-09-15T12:00	20796	51	-57.0	-86.6	237	10
2023-09-15T12:00	20815	50	-57.0	-86.6	239	10
2023-09-15T12:00	20842	50	-56.8	-86.5	240	10
2023-09-15T12:00	20865	50	-56.5	-86.3	242	10
2023-09-15T12:00	20890	50	-56.3	-86.1	244	10
2023-09-15T12:00	20917	50	-56.3	-86.1	247	9
2023-09-15T12:00	20942	49	-56.3	-86.1	249	9
2023-09-15T12:00	20962	49	-56.3	-86.1	251	9
2023-09-15T12:00	20985	49	-56.4	-86.2	253	9
2023-09-15T12:00	21013	49	-56.5	-86.3	254	9
2023-09-15T12:00	21040	49	-56.4	-86.2	255	9
2023-09-15T12:00	21063	48	-56.5	-86.3	255	9
2023-09-15T12:00	21092	48	-56.6	-86.3	255	9
2023-09-15T12:00	21119	48	-56.8	-86.5	255	9
2023-09-15T12:00	21142	48	-56.7	-86.4	254	8
2023-09-15T12:00	21166	48	-56.6	-86.3	253	8
2023-09-15T12:00	21194	47	-56.4	-86.2	253	7
2023-09-15T12:00	21220	47	-56.3	-86.1	252	7
2023-09-15T12:00	21241	47	-56.3	-86.1	253	7
2023-09-15T12:00	21267	47	-56.3	-86.1	254	7
2023-09-15T12:00	21293	47	-56.3	-86.1	256	8
2023-09-15T12:00	21318	47	-56.4	-86.2	258	8
2023-09-15T12:00	21342	46	-56.6	-86.3	260	8
2023-09-15T12:00	21369	46	-56.8	-86.5	263	9
2023-09-15T12:00	21392	46	-56.7	-86.4	265	9
2023-09-15T12:00	21420	46	-56.5	-86.3	267	9
2023-09-15T12:00	21445	46	-56.6	-86.3	268	9
2023-09-15T12:00	21473	45	-56.6	-86.3	270	9
2023-09-15T12:00	21497	45	-56.7	-86.4	272	9
2023-09-15T12:00	21520	45	-56.6	-86.3	274	8
2023-09-15T12:00	21541	45	-56.3	-86.6	275	8
2023-09-15T12:00	21570	45	-56.0	-86.4	275	8
2023-09-15T12:00	21598	45	-55.7	-86.2	275	8
2023-09-15T12:00	21622	44	-55.7	-86.2	273	7
2023-09-15T12:00	21648	44	-55.8	-86.3	271	7
2023-09-15T12:00	21670	44	-55.6	-86.1	269	7
2023-09-15T12:00	21694	44	-55.5	-86.1	269	7
2023-09-15T12:00	21718	44	-55.6	-86.1	270	6
2023-09-15T12:00	21739	44	-55.8	-86.3	273	6
2023-09-15T12:00	21764	43	-55.7	-86.2	278	6
2023-09-15T12:00	21783	43	-55.6	-86.1	283	6
2023-09-15T12:00	21813	43	-55.5	-86.1	287	6
2023-09-15T12:00	21835	43	-55.3	-85.9	289	6
2023-09-15T12:00	21859	43	-55.2	-85.8	289	6
2023-09-15T12:00	21880	43	-55.0	-85.7	287	6
2023-09-15T12:00	21908	42	-54.8	-85.5	283	5
2023-09-15T12:00	21936	42	-54.8	-85.5	278	5
2023-09-15T12:00	21957	42	-54.9	-85.6	274	5
2023-09-15T12:00	21981	42	-55.0	-85.7	269	5
2023-09-15T12:00	22008	42	-55.1	-85.8	265	5
2023-09-15T12:00	22026	42	-55.2	-85.8	261	5
2023-09-15T12:00	22051	41	-55.2	-85.8	259	5
2023-09-15T12:00	22079	41	-55.3	-85.9	259	4
2023-09-15T12:00	22103	41	-55.3	-85.9	262	4
2023-09-15T12:00	22130	41	-55.3	-85.9	267	3
2023-09-15T12:00	22153	41	-55.3	-85.9	275	3
2023-09-15T12:00	22177	41	-55.2	-85.8	285	2
2023-09-15T12:00	22200	40	-55.1	-85.8	295	2
2023-09-15T12:00	22225	40	-55.1	-85.8	303	2
2023-09-15T12:00	22251	40	-55.1	-85.8	304	1
2023-09-15T12:00	22273	40	-55.1	-85.8	296	1
2023-09-15T12:00	22300	40	-55.1	-85.8	277	1
2023-09-15T12:00	22328	40	-55.1	-85.8	258	2
2023-09-15T12:00	22351	40	-55.2	-85.8	246	2
2023-09-15T12:00	22373	39	-55.5	-85.5	240	3
2023-09-15T12:00	22403	39	-55.6	-85.6	237	3
2023-09-15T12:00	22425	39	-55.7	-85.7	236	4
2023-09-15T12:00	22452	39	-55.8	-85.7	237	4
2023-09-15T12:00	22477	39	-55.9	-85.8	238	5
2023-09-15T12:00	22502	39	-56.0	-85.9	239	5
2023-09-15T12:00	22528	38	-56.0	-85.9	241	6
2023-09-15T12:00	22556	38	-56.2	-86.0	243	6
2023-09-15T12:00	22585	38	-56.4	-86.2	245	6
2023-09-15T12:00	22607	38	-56.2	-86.0	248	7
2023-09-15T12:00	22631	38	-56.0	-86.4	250	7
2023-09-15T12:00	22662	38	-56.0	-86.4	253	7
2023-09-15T12:00	22688	38	-55.9	-86.3	255	6
2023-09-15T12:00	22715	37	-55.7	-86.2	258	6
2023-09-15T12:00	22743	37	-55.5	-86.1	260	5
2023-09-15T12:00	22771	37	-55.5	-86.1	264	4
2023-09-15T12:00	22797	37	-55.6	-86.1	269	4
2023-09-15T12:00	22823	37	-55.7	-86.2	274	4
2023-09-15T12:00	22849	37	-55.8	-86.3	279	4
2023-09-15T12:00	22876	36	-55.7	-86.2	281	4
2023-09-15T12:00	22908	36	-55.6	-86.1	282	4
2023-09-15T12:00	22937	36	-55.4	-86.0	283	4
2023-09-15T12:00	22960	36	-55.3	-85.9	284	4
2023-09-15T12:00	22986	36	-55.3	-85.9	284	4
2023-09-15T12:00	23019	36	-55.2	-85.8	286	4
2023-09-15T12:00	23051	35	-55.2	-85.8	288	4
2023-09-15T12:00	23074	35	-55.2	-85.8	292	4
2023-09-15T12:00	23103	35	-55.3	-85.9	296	4
2023-09-15T12:00	23127	35	-55.4	-86.0	300	4
2023-09-15T12:00	23156	35	-55.5	-86.1	302	4
2023-09-15T12:00	23182	35	-55.6	-86.1	302	3
2023-09-15T12:00	23207	35	-55.6	-86.1	300	3
2023-09-15T12:00	23233	34	-55.7	-86.2	295	3
2023-09-15T12:00	23260	34	-55.7	-85.7	286	2
2023-09-15T12:00	23283	34	-55.8	-85.7	274	2
2023-09-15T12:00	23313	34	-55.8	-86.3	262	2
2023-09-15T12:00	23338	34	-55.8	-86.3	250	3
2023-09-15T12:00	23362	34	-55.8	-86.3	242	3
2023-09-15T12:00	23393	34	-55.7	-86.2	236	4
2023-09-15T12:00	23411	33	-55.5	-86.1	232	4
2023-09-15T12:00	23443	33	-55.4	-86.0	231	5
2023-09-15T12:00	23467	33	-55.4	-86.0	233	5
2023-09-15T12:00	23494	33	-55.3	-85.9	236	5
2023-09-15T12:00	23515	33	-55.3	-85.9	241	5
2023-09-15T12:00	23546	33	-55.4	-86.0	246	6
2023-09-15T12:00	23572	33	-55.4	-86.0	251	6
2023-09-15T12:00	23598	33	-55.4	-86.0	255	6
2023-09-15T12:00	23625	32	-55.4	-86.0	257	6
2023-09-15T12:00	23653	32	-55.3	-85.9	259	6
2023-09-15T12:00	23680	32	-55.3	-85.9	259	6
2023-09-15T12:00	23710	32	-55.2	-85.8	260	6
2023-09-15T12:00	23735	32	-55.1	-86.4	263	5
2023-09-15T12:00	23760	32	-55.1	-86.4	268	5
2023-09-15T12:00	23788	32	-55.0	-86.3	275	5
2023-09-15T12:00	23810	31	-54.9	-86.2	284	5
2023-09-15T12:00	23836	31	-54.8	-86.1	292	5
2023-09-15T12:00	23867	31	-54.7	-86.1	299	5
2023-09-15T12:00	23889	31	-54.7	-86.1	304	4
2023-09-15T12:00	23919	31	-54.7	-86.1	307	4
2023-09-15T12:00	23943	31	-54.8	-85.5	310	3
2023-09-15T12:00	23974	31	-54.8	-85.5	314	3
2023-09-15T12:00	23999	31	-55.0	-85.7	320	2
2023-09-15T12:00	24020	30	-55.1	-85.8	328	2
2023-09-15T12:00	24043	30	-55.2	-85.8	338	1
2023-09-15T12:00	24071	30	-55.2	-85.8	355	1
2023-09-15T12:00	24100	30	-55.2	-85.8	60	0
2023-09-15T12:00	24124	30	-55.4	-86.0	133	1
2023-09-15T12:00	24152	30	-55.4	-86.0	154	1
2023-09-15T12:00	24175	30	-55.4	-86.0	168	1
2023-09-15T12:00	24197	30	-55.4	-86.0	180	2
2023-09-15T12:00	24225	29	-55.4	-86.0	192	2
2023-09-15T12:00	24252	29	-55.4	-86.0	202	3
2023-09-15T12:00	24281	29	-55.3	-85.9	209	3
2023-09-15T12:00	24301	29	-55.3	-85.9	215	4
2023-09-15T12:00	24328	29	-55.3	-86.5	219	5
2023-09-15T12:00	24359	29	-55.1	-86.4	221	5
2023-09-15T12:00	24384	29	-54.9	-86.2	222	6
2023-09-15T12:00	24412	29	-54.8	-86.1	223	6
2023-09-15T12:00	24439	29	-54.7	-86.1	224	6
2023-09-15T12:00	24467	28	-54.6	-86.0	225	6
2023-09-15T12:00	24488	28	-54.6	-86.0	227	6
2023-09-15T12:00	24523	28	-54.6	-86.0	228	5
2023-09-15T12:00	24544	28	-54.6	-86.0	228	5
2023-09-15T12:00	24577	28	-54.3	-85.8	229	5
2023-09-15T12:00	24596	28	-54.1	-85.6	230	5
2023-09-15T12:00	24626	28	-53.9	-85.5	233	5
2023-09-15T12:00	24653	28	-54.0	-85.5	238	5
2023-09-15T12:00	24683	27	-54.0	-86.2	244	6
2023-09-15T12:00	24715	27	-53.8	-86.1	249	6
2023-09-15T12:00	24740	27	-53.5	-85.9	253	6
2023-09-15T12:00	24760	27	-53.3	-85.7	256	7
2023-09-15T12:00	24791	27	-53.2	-85.6	260	7
2023-09-15T12:00	24824	27	-53.1	-85.6	264	6
2023-09-15T12:00	24845	27	-52.9	-85.4	269	6
2023-09-15T12:00	24874	27	-52.9	-85.4	274	6
2023-09-15T12:00	24904	27	-52.9	-85.4	278	5
2023-09-15T12:00	24930	26	-52.9	-85.4	281	5
2023-09-15T12:00	24958	26	-52.7	-85.3	283	4
2023-09-15T12:00	24989	26	-52.5	-85.1	281	4
2023-09-15T12:00	25007	26	-52.3	-85.0	275	3
2023-09-15T12:00	25038	26	-52.2	-84.9	261	2
2023-09-15T12:00	25066	26	-52.3	-85.0	240	2
2023-09-15T12:00	25096	26	-52.2	-84.9	218	2
2023-09-15T12:00	25123	26	-52.1	-84.8	203	2
2023-09-15T12:00	25150	26	-52.0	-84.8	197	2
2023-09-15T12:00	25181	25	-52.0	-84.8	196	2
2023-09-15T12:00	25206	25	-52.1	-84.8	200	2
2023-09-15T12:00	25236	25	-52.1	-84.8	208	2
2023-09-15T12:00	25261	25	-52.0	-84.8	219	2
2023-09-15T12:00	25285	25	-52.0	-84.8	231	3
2023-09-15T12:00	25318	25	-51.9	-84.7	241	3
2023-09-15T12:00	25337	25	-51.8	-84.6	248	3
2023-09-15T12:00	25368	25	-51.9	-84.7	249	4
2023-09-15T12:00	25399	25	-52.0	-84.8	247	5
2023-09-15T12:00	25424	24	-51.9	-84.7	244	5
2023-09-15T12:00	25456	24	-51.5	-85.2	241	6
2023-09-15T12:00	25476	24	-51.4	-85.1	239	6
2023-09-15T12:00	25510	24	-51.2	-85.0	240	6
2023-09-15T12:00	25532	24	-51.1	-84.9	244	6
2023-09-15T12:00	25562	24	-51.1	-84.9	249	6
2023-09-15T12:00	25586	24	-50.9	-84.7	254	6
2023-09-15T12:00	25619	24	-50.7	-84.6	260	6
2023-09-15T12:00	25638	24	-50.7	-84.6	265	6
2023-09-15T12:00	25672	24	-50.8	-84.7	271	7
2023-09-15T12:00	25698	23	-50.9	-84.7	277	7
2023-09-15T12:00	25717	23	-50.7	-84.6	281	7
2023-09-15T12:00	25748	23	-50.3	-84.3	284	7
2023-09-15T12:00	25773	23	-49.9	-84.0	285	7
2023-09-15T12:00	25792	23	-49.8	-84.0	284	6
2023-09-15T12:00	25828	23	-49.8	-84.0	282	6
2023-09-15T12:00	25851	23	-49.7	-83.9	281	5
2023-09-15T12:00	25880	23	-49.9	-84.0	281	5
2023-09-15T12:00	25909	23	-50.0	-84.1	282	5
2023-09-15T12:00	25931	23	-50.0	-84.1	283	4
2023-09-15T12:00	25951	23	-50.1	-84.2	282	4
2023-09-15T12:00	25989	22	-50.2	-84.2	277	3
2023-09-15T12:00	26015	22	-50.4	-84.4	267	3
2023-09-15T12:00	26041	22	-50.4	-84.4	253	3
2023-09-15T12:00	26068	22	-50.4	-84.4	241	3
2023-09-15T12:00	26106	22	-50.3	-84.3	234	4
2023-09-15T12:00	26127	22	-50.3	-84.3	231	5
2023-09-15T12:00	26160	22	-50.3	-84.3	231	5
2023-09-15T12:00	26186	22	-50.3	-84.3	230	6
2023-09-15T12:00	26214	22	-50.3	-84.3	230	7
2023-09-15T12:00	26240	22	-50.2	-84.2	231	7
2023-09-15T12:00	26267	22	-50.1	-84.2	232	8
2023-09-15T12:00	26303	21	-49.9	-84.0	233	8
2023-09-15T12:00	26326	21	-49.8	-84.0	236	9
2023-09-15T12:00	26355	21	-49.7	-83.9	238	9
2023-09-15T12:00	26386	21	-49.6	-83.8	240	10
2023-09-15T12:00	26416	21	-49.4	-84.6	241	10
2023-09-15T12:00	26448	21	-49.2	-84.4	243	10
2023-09-15T12:00	26469	21	-49.1	-84.3	245	9
2023-09-15T12:00	26508	21	-48.9	-84.2	247	9
2023-09-15T12:00	26530	21	-48.8	-84.1	250	8
2023-09-15T12:00	26560	21	-48.7	-84.1	252	8
2023-09-15T12:00	26594	20	-48.7	-84.1	255	8
2023-09-15T12:00	26614	20	-48.6		257	7
2023-09-15T12:00	26651	20	-48.5	-83.9	258	7
2023-09-15T12:00	26682	20	-48.5	-83.9	260	7
2023-09-15T12:00	26717	20	-48.5	-83.9	260	7
2023-09-15T12:00	26741	20	-48.6		261	7
2023-09-15T12:00	26772	20	-48.7	-83.2	262	7
2023-09-15T12:00	26799	20	-48.8	-83.2	263	7
2023-09-15T12:00	26835	20	-48.8	-83.2	265	7
2023-09-15T12:00	26861	20	-48.8	-83.2	267	7
2023-09-15T12:00	26886	20	-48.8	-83.2	269	7
2023-09-15T12:00	26920	19	-48.9	-83.3	270	7
2023-09-15T12:00	26952	19	-49.0	-83.4	271	7
2023-09-15T12:00	26976	19	-49.1	-83.4	272	7
2023-09-15T12:00	27006	19	-49.3	-83.6	272	7
2023-09-15T12:00	27042	19	-49.4	-83.7	271	7
2023-09-15T12:00	27070	19	-49.5	-83.7	268	8
2023-09-15T12:00	27095	19	-49.5	-83.7	265	8
2023-09-15T12:00	27121	19	-49.5	-83.7	260	8
2023-09-15T12:00	27152	19	-49.5	-83.7	256	9
2023-09-15T12:00	27176	19	-49.4	-83.7	252	9
2023-09-15T12:00	27213	19	-49.3	-84.5	248	9
2023-09-15T12:00	27235	19	-49.3	-84.5	246	9
2023-09-15T12:00	27274	18	-49.1	-84.3	244	9
2023-09-15T12:00	27296	18	-48.8	-84.1	243	9
2023-09-15T12:00	27331	18	-48.5	-83.9	242	9
2023-09-15T12:00	27355	18	-48.3	-83.8	241	8
2023-09-15T12:00	27385	18	-48.2	-83.7	237	8
2023-09-15T12:00	27415	18	-48.2	-83.7	233	8
2023-09-15T12:00	27445	18	-48.1	-83.6	229	8
2023-09-15T12:00	27473	18	-48.0	-83.6	227	9
2023-09-15T12:00	27510	18	-47.8	-83.4	226	9
2023-09-15T12:00	27529	18	-47.7	-83.4	227	10
2023-09-15T12:00	27565	18	-47.5	-83.2	229	10
2023-09-15T12:00	27580	18	-47.2	-83.0	232	11
2023-09-15T12:00	27621	18	-46.9	-82.8	234	11
2023-09-15T12:00	27645	17	-46.8	-82.7	237	11
2023-09-15T12:00	27681	17	-46.9	-82.8	238	11
2023-09-15T12:00	27707	17	-46.8	-82.7	240	11
2023-09-15T12:00	27731	17	-46.8	-82.7	242	11
2023-09-15T12:00	27769	17	-46.9	-83.9	244	11
2023-09-15T12:00	27794	17	-46.8	-83.8	247	11
2023-09-15T12:00	27826	17	-46.7	-83.7	250	11
2023-09-15T12:00	27862	17	-46.6	-83.6	252	12
2023-09-15T12:00	27877	17	-46.5	-83.6	254	12
2023-09-15T12:00	27919	17	-46.3	-83.4	256	12
2023-09-15T12:00	27951	17	-46.3	-83.4	257	12
2023-09-15T12:00	27980	17	-46.4	-83.5	258	11
2023-09-15T12:00	28018	17	-46.4	-83.5	258	11
2023-09-15T12:00	28041	16	-46.5	-82.5	259	10
2023-09-15T12:00	28064	16	-46.5	-82.5	261	9
2023-09-15T12:00	28090	16	-46.5	-82.5	262	8
2023-09-15T12:00	28127	16	-46.4	-83.5	264	8
2023-09-15T12:00	28156	16	-46.4	-83.5	264	8
2023-09-15T12:00	28179	16	-46.3	-83.4	265	7
2023-09-15T12:00	28205	16	-46.1	-83.3	264	7
2023-09-15T12:00	28241	16	-46.0	-83.2	262	7
2023-09-15T12:00	28273	16	-45.9	-83.2	260	7
2023-09-15T12:00	28298	16	-45.8	-83.1	258	7
2023-09-15T12:00	28332	16	-45.8	-83.1	254	7
2023-09-15T12:00	28347	16	-45.7	-83.0	251	6
2023-09-15T12:00	28379	16	-45.8	-83.1	248	6
2023-09-15T12:00	28414	16	-45.8	-83.1	246	6
2023-09-15T12:00	28439	15	-45.9	-83.2	246	6
2023-09-15T12:00	28479	15	-45.9	-83.2	247	6
2023-09-15T12:00	28508	15	-45.9	-83.2	248	6
2023-09-15T12:00	28533	15	-45.9	-83.2	248	6
2023-09-15T12:00	28566	15	-45.9	-83.2	248	6
2023-09-15T12:00	28592	15	-45.9	-83.2	247	6
2023-09-15T12:00	28612	15	-45.9	-83.2	244	6
2023-09-15T12:00	28650	15	-46.0	-83.2	240	6
2023-09-15T12:00	28673	15	-46.1	-83.3	235	6
2023-09-15T12:00	28706	15	-46.1	-83.3	230	7
2023-09-15T12:00	28743	15	-46.2	-83.4	224	7
2023-09-15T12:00	28772	15	-46.3	-83.4	218	7
2023-09-15T12:00	28794	15	-46.4	-83.5	214	8
2023-09-15T12:00	28825	15	-46.4	-83.5	211	9
2023-09-15T12:00	28866	15	-46.4	-83.5	209	9
2023-09-15T12:00	28894	14	-46.4	-83.5	208	10
2023-09-15T12:00	28927	14	-46.5	-83.6	209	10
2023-09-15T12:00	28957	14	-46.5	-83.6	210	11
2023-09-15T12:00	28981	14	-46.6	-83.6	214	11
2023-09-15T12:00	29002	14	-46.6	-83.6	218	11
2023-09-15T12:00	29047	14	-46.5	-83.6	222	12
2023-09-15T12:00	29080	14	-46.4	-83.5	227	12
2023-09-15T12:00	29098	14	-46.3	-83.4	231	12
2023-09-15T12:00	29134	14	-46.3	-83.4	235	13
2023-09-15T12:00	29173	14	-46.2	-83.4	239	13
2023-09-15T12:00	29190	14	-46.2	-83.4	242	12
2023-09-15T12:00	29223	14	-46.3	-83.4	245	12
2023-09-15T12:00	29258	14	-46.3	-83.4	247	12
2023-09-15T12:00	29276	14	-46.3	-83.4	250	12
2023-09-15T12:00	29309	14	-46.2	-83.4	252	12
2023-09-15T12:00	29352	14	-46.0	-83.2	253	11
2023-09-15T12:00	29386	13	-45.9	-83.2	255	11
2023-09-15T12:00	29405	13	-45.9	-83.2	256	11
2023-09-15T12:00	29437	13	-46.0	-83.2	257	11
2023-09-15T12:00	29472	13	-46.0	-83.2	257	11
2023-09-15T12:00	29488	13	-45.8	-83.1	257	11
2023-09-15T12:00	29538	13	-45.6	-82.9	256	11
2023-09-15T12:00	29558	13	-45.4	-82.8	255	11
2023-09-15T12:00	29595	13	-45.4	-82.8	255	11
2023-09-15T12:00	29626	13	-45.3	-82.7	254	11
2023-09-15T12:00	29662	13	-45.1	-82.6	254	11
2023-09-15T12:00	29690	13	-45.0	-82.5	253	11
2023-09-15T12:00	29705	13	-45.0	-82.5	252	11
2023-09-15T12:00	29743	13	-44.9	-82.5	251	11
2023-09-15T12:00	29772	13	-44.9	-82.5	249	11
2023-09-15T12:00	29798	13	-44.9	-82.5	248	12
2023-09-15T12:00	29833	13	-45.0	-82.5	246	12
2023-09-15T12:00	29865	13	-45.0	-82.5	245	13
2023-09-15T12:00	29879	12	-44.8	-82.4	244	13
2023-09-15T12:00	29919	12	-44.7	-82.3	243	13
2023-09-15T12:00	29952	12	-44.6	-82.2	243	13
2023-09-15T12:00	29972	12	-44.5	-82.2	244	13
2023-09-15T12:00	30008	12	-44.5	-82.2	244	13
2023-09-15T12:00	30043	12	-44.5	-82.2	245	13
2023-09-15T12:00	30062	12	-44.3	-82.0	245	13
2023-09-15T12:00	30092	12	-44.1	-81.9	244	13
2023-09-15T12:00	30128	12	-44.1	-81.9	243	13
2023-09-15T12:00	30145	12	-44.0	-81.8	242	13
2023-09-15T12:00	30189	12	-44.0	-81.8	242	13
2023-09-15T12:00	30214	12	-44.0	-81.8	242	13
2023-09-15T12:00	30240	12	-44.0	-81.8	244	13
2023-09-15T12:00	30266	12	-44.1	-81.9	245	13
2023-09-15T12:00	30301	12	-44.0	-81.8	247	12
2023-09-15T12:00	30328	12	-44.0	-81.8	249	12
2023-09-15T12:00	30344	12	-43.9	-81.8	250	13
2023-09-15T12:00	30379	12	-43.8	-81.7	250	13
2023-09-15T12:00	30412	12	-43.8	-81.7	250	13
2023-09-15T12:00	30444	11	-44.0	-81.8	249	13
2023-09-15T12:00	30466	11	-44.1	-81.9	249	13
2023-09-15T12:00	30495	11	-44.1	-81.9	249	13
2023-09-15T12:00	30529	11	-44.1	-81.9	250	14
2023-09-15T12:00	30563	11	-44.1	-81.9	251	14
2023-09-15T12:00	30584	11	-44.3	-82.0	252	14
2023-09-15T12:00	30622	11	-44.3	-82.0	253	15
2023-09-15T12:00	30647	11	-44.3	-82.0	253	15
2023-09-15T12:00	30673	11	-44.2	-82.0	252	16
2023-09-15T12:00	30709	11	-44.2	-82.0	250	16
2023-09-15T12:00	30741	11	-44.2	-82.0	247	17
2023-09-15T12:00	30777	11	-44.2	-82.0	244	18
2023-09-15T12:00	30793	11	-43.9	-81.8	241	18
2023-09-15T12:00	30819	11	-43.6	-81.5	239	19
2023-09-15T12:00	30855	11	-43.6	-81.5	238	20
2023-09-15T12:00	30905	11	-43.6	-81.5	238	20
2023-09-15T12:00	30921	11	-43.7	-81.6	238	21
2023-09-15T12:00	30949	11	-43.8	-81.7	240	21
2023-09-15T12:00	30969	11	-43.7	-81.6	242	21
2023-09-15T12:00	31001	11	-43.4	-81.4	244	21
2023-09-15T12:00	31048	11	-43.3	-81.3	246	21
2023-09-15T12:00	31053	10	-43.3	-81.3	248	20
2023-09-15T12:00	31085	10	-43.2	-81.3	249	20
2023-09-15T12:00	31122	10	-43.1	-81.2	251	20
2023-09-15T12:00	31165	10	-43.0	-81.1	252	19
2023-09-15T12:00	31172	10	-43.1	-81.2	253	19
2023-09-15T12:00	31216	10	-43.3	-81.3	254	19
2023-09-15T12:00	31242	10	-43.3	-81.3	255	18
2023-09-15T12:00	31263	10	-43.0	-81.1	255	18
2023-09-15T12:00	31292	10	-42.9	-81.1	255	17
2023-09-15T12:00	31315	10	-43.0	-81.1	255	17
2023-09-15T12:00	31345	10	-43.0	-81.1	254	17
2023-09-15T12:00	31384	10	-43.1	-81.2	254	16
2023-09-15T12:00	31417	10	-43.1	-81.2	254	17
2023-09-15T12:00	31427	10	-42.9	-81.1	255	17
2023-09-15T12:00	31475	10	-42.7	-80.9	255	17
2023-09-15T12:00	31506	10	-42.7	-80.9	256	18
2023-09-15T12:00	31523	10	-42.9	-81.1	257	19
2023-09-15T12:00	31560	10	-43.0	-81.1	257	19
2023-09-15T12:00	31577	10	-43.0	-81.1	258	19
2023-09-15T12:00	31634	10	-42.9	-81.1	259	18
2023-09-15T12:00	31642	10	-42.7	-80.9	260	18
2023-09-15T12:00	31675	10	-42.4	-80.7	261	17
2023-09-15T12:00	31705	10	-42.3	-80.6	262	17
2023-09-15T12:00	31742	9	-42.3	-80.6	262	16
2023-09-15T12:00	31774	9	-42.2	-80.6	263	16
2023-09-15T12:00	31787	9	-42.2	-80.6	264	16
2023-09-15T12:00	31829	9	-42.3	-80.6	264	15
2023-09-15T12:00	31862	9	-42.5	-80.8	265	15
2023-09-15T12:00	31883	9	-42.5	-80.8	265	14
2023-09-15T12:00	31901	9	-42.4	-80.7	265	14
2023-09-15T12:00	31938	9	-42.2	-80.6	265	13
2023-09-15T12:00	31971	9	-42.1	-80.5	264	12
2023-09-15T12:00	32004	9	-42.1	-80.5	262	12
2023-09-15T12:00	32020	9	-42.1	-80.5	260	12
2023-09-15T12:00	32054	9	-42.2	-80.6	259	12
2023-09-15T12:00	32083	9	-42.2	-80.6	258	12
2023-09-15T12:00	32103	9	-42.1	-80.5	257	11
2023-09-15T12:00	32154	9	-42.0	-80.4	257	11
2023-09-15T12:00	32160	9	-41.9	-80.4	258	11
2023-09-15T12:00	32198	9	-41.9	-80.4	259	12
2023-09-15T12:00	32231	9	-41.9	-80.4	261	12
2023-09-15T12:00	32256	9	-41.9	-80.4	264	13
2023-09-15T12:00	32289	9	-41.8	-80.3	267	13
2023-09-15T12:00	32297	9	-41.7	-80.2	271	14
2023-09-15T12:00	32326	9	-41.6	-80.1	275	15
2023-09-15T12:00	32381	9	-41.4	-80.0	280	15
2023-09-15T12:00	32428	9	-41.0	-79.7	288	17
2023-09-15T12:00	32447	9	-40.8	-79.6	291	17
2023-09-15T12:00	32483	9	-40.6	-79.5	294	18
2023-09-15T12:00	32514	8	-40.6	-79.5	296	18
2023-09-15T12:00	32525	8	-40.6	-79.5	298	19
2023-09-15T12:00	32564	8	-40.6	-79.5	300	19
2023-09-15T12:00	32604	8	-40.6	-79.5	301	19
2023-09-15T12:00	32632	8	-40.4	-79.3	301	19
2023-09-15T12:00	32646	8	-40.3	-79.2	302	18
2023-09-15T12:00	32680	8	-40.1	-79.1	302	17
2023-09-15T12:00	32717	8	-39.8	-78.9	303	16
2023-09-15T12:00	32744	8	-39.7	-78.8	303	15
2023-09-15T18:00	112	1007	19.4	12.4	120	4
2023-09-15T18:00	138	1004	19.6	12.6	116	4
2023-09-15T18:00	157	1002	19.5	12.5	116	6
2023-09-15T18:00	183	999	19.3	12.4	115	7
2023-09-15T18:00	210	996	19.2	12.4	113	7
2023-09-15T18:00	238	993	19.0	12.3	112	8
2023-09-15T18:00	263	990	18.8	12.1	112	8
2023-09-15T18:00	289	987	18.6	12.2	112	8
2023-09-15T18:00	315	984	18.3	12.1	111	8
2023-09-15T18:00	336	981	18.1	12.0	111	8
2023-09-15T18:00	361	979	17.9	11.8	110	8
2023-09-15T18:00	383	976	17.7	11.9	110	8
2023-09-15T18:00	405	974	17.5	11.9	110	8
2023-09-15T18:00	432	971	17.2	11.8	110	8
2023-09-15T18:00	461	967	16.9	11.8	110	8
2023-09-15T18:00	490	964	16.6	11.7	109	8
2023-09-15T18:00	515	961	16.4	11.8	108	8
2023-09-15T18:00	543	958	16.1	11.5	107	8
2023-09-15T18:00	576	955	15.8	11.5	107	8
2023-09-15T18:00	602	952	15.6	11.5	108	8
2023-09-15T18:00	622	949	15.3	11.5	110	8
2023-09-15T18:00	649	946	15.2	11.2	112	9
2023-09-15T18:00	669	944	14.9	11.4	115	9
2023-09-15T18:00	697	941	14.7	11.0	118	9
2023-09-15T18:00	724	938	14.5	10.9	122	9
2023-09-15T18:00	748	935	14.3	10.8	125	9
2023-09-15T18:00	771	933	14.1	10.8	127	9
2023-09-15T18:00	798	930	13.8	10.5	129	9
2023-09-15T18:00	824	927	13.6	10.6	130	9
2023-09-15T18:00	853	924	13.4	10.4	131	8
2023-09-15T18:00	881	920	13.2	10.3	132	8
2023-09-15T18:00	911	917	12.9	10.1	135	8
2023-09-15T18:00	937	915	12.8	10.1	139	7
2023-09-15T18:00	962	912	12.6	10.1	143	7
2023-09-15T18:00	991	909	12.3	9.7	145	7
2023-09-15T18:00	1023	905	12.1	9.8	147	7
2023-09-15T18:00	1054	902	11.9	9.1	147	7
2023-09-15T18:00	1077	899	11.7	9.2	147	7
2023-09-15T18:00	1103	897	11.6	8.6	147	7
2023-09-15T18:00	1127	894	11.5	8.4	147	7
2023-09-15T18:00	1151	891	11.3	8.3	147	6
2023-09-15T18:00	1176	889	11.0	8.3	147	6
2023-09-15T18:00	1205	886	10.8	8.2	147	7
2023-09-15T18:00	1239	882	10.5	7.9	148	7
2023-09-15T18:00	1268	879	10.2	7.9	148	7
2023-09-15T18:00	1295	876	10.0	7.9	149	7
2023-09-15T18:00	1322	873	9.8	7.7	150	8
2023-09-15T18:00	1353	870	9.6	7.3	150	8
2023-09-15T18:00	1383	867	9.5	7.2	151	8
2023-09-15T18:00	1413	864	9.3	7.1	151	8
2023-09-15T18:00	1446	861	9.0	6.9	152	8
2023-09-15T18:00	1470	858	8.8	6.1	153	8
2023-09-15T18:00	1493	855	8.6	6.1	153	8
2023-09-15T18:00	1519	853	8.4	6.0	154	8
2023-09-15T18:00	1546	850	8.2	6.0	155	8
2023-09-15T18:00	1572	847	7.9	6.0	156	8
2023-09-15T18:00	1597	845	7.7	5.8	155	8
2023-09-15T18:00	1621	842	7.5	5.9	154	8
2023-09-15T18:00	1644	840	7.3	5.7	152	8
2023-09-15T18:00	1664	838	7.1	5.8	150	8
2023-09-15T18:00	1692	835	6.8	5.6	149	8
2023-09-15T18:00	1715	833	6.6	5.7	148	8
2023-09-15T18:00	1738	830	6.4	5.5	148	9
2023-09-15T18:00	1765	828	6.2	5.4	148	9
2023-09-15T18:00	1791	825	5.9	5.3	147	9
2023-09-15T18:00	1821	822	5.7	5.1	146	8
2023-09-15T18:00	1848	820	5.5	5.1	145	8
2023-09-15T18:00	1872	817	5.4	4.8	143	7
2023-09-15T18:00	1902	814	5.4	4.5	140	6
2023-09-15T18:00	1932	811	7.0	-0.8	136	5
2023-09-15T18:00	1960	808	9.1	-7.1	130	5
2023-09-15T18:00	1982	806	10.6	-17.0	123	4
2023-09-15T18:00	2010	804	11.5	-26.3	119	4
2023-09-15T18:00	2038	801	12.0	-33.9	119	3
2023-09-15T18:00	2065	798	12.0	-39.2	125	3
2023-09-15T18:00	2090	796	11.9	-41.2	135	3
2023-09-15T18:00	2115	793	11.7	-41.4	148	2
2023-09-15T18:00	2140	791	11.8		158	2
2023-09-15T18:00	2163	789	11.8	-38.5	161	3
2023-09-15T18:00	2192	786	11.6	-38.6	158	3
2023-09-15T18:00	2220	784	11.5	-37.2	153	4
2023-09-15T18:00	2246	781	11.3	-37.3	149	4
2023-09-15T18:00	2272	779	11.2	-36.0	146	5
2023-09-15T18:00	2301	776	11.1	-36.7	146	5
2023-09-15T18:00	2326	774	11.0	-36.8	148	5
2023-09-15T18:00	2355	771	10.9	-36.9	152	5
2023-09-15T18:00	2383	768	10.7	-37.6	155	5
2023-09-15T18:00	2408	766	10.7	-38.4	158	5
2023-09-15T18:00	2441	763	10.5		157	4
2023-09-15T18:00	2465	761	10.4	-38.5	155	4
2023-09-15T18:00	2495	758	10.3	-38.6	152	4
2023-09-15T18:00	2522	756	10.3	-38.6	151	4
2023-09-15T18:00	2548	753	10.2	-36.7	151	4
2023-09-15T18:00	2573	751	10.0	-38.8	152	4
2023-09-15T18:00	2602	748	9.9	-35.2	153	5
2023-09-15T18:00	2630	746	9.7	-30.8	152	5
2023-09-15T18:00	2660	743	9.5	-29.4	150	5
2023-09-15T18:00	2687	741	9.4	-27.7	146	5
2023-09-15T18:00	2719	738	9.2	-26.5	142	5
2023-09-15T18:00	2748	735	9.0	-26.2	140	5
2023-09-15T18:00	2775	733	8.9	-27.8	138	5
2023-09-15T18:00	2805	730	8.7	-25.4	139	5
2023-09-15T18:00	2834	728	8.5	-24.3	142	5
2023-09-15T18:00	2860	725	8.3		146	5
2023-09-15T18:00	2891	723	8.1	-24.3	151	5
2023-09-15T18:00	2914	720	8.0	-23.4	156	5
2023-09-15T18:00	2948	718	7.7	-22.1	158	5
2023-09-15T18:00	2973	715	7.6	-20.9	159	6
2023-09-15T18:00	3004	713	7.3	-20.3	159	6
2023-09-15T18:00	3034	710	7.1	-18.4	159	7
2023-09-15T18:00	3060	708	7.0	-17.4	158	7
2023-09-15T18:00	3087	705	6.9	-15.6	158	7
2023-09-15T18:00	3122	703	6.6	-15.4	157	7
2023-09-15T18:00	3148	700	6.5	-14.6	157	6
2023-09-15T18:00	3186	697	6.4	-13.4	157	6
2023-09-15T18:00	3206	695	6.2	-13.3	157	6
2023-09-15T18:00	3237	693	6.0	-13.0	157	6
2023-09-15T18:00	3269	690	5.7	-12.9	157	5
2023-09-15T18:00	3294	688	5.6	-12.0	158	5
2023-09-15T18:00	3319	686	5.4	-11.7	161	5
2023-09-15T18:00	3351	683	5.2	-11.7	166	5
2023-09-15T18:00	3380	681	4.9	-11.7	170	5
2023-09-15T18:00	3403	679	4.7	-11.6	172	5
2023-09-15T18:00	3429	677	4.5	-11.6	173	5
2023-09-15T18:00	3456	674	4.2	-11.8	171	5
2023-09-15T18:00	3481	672	4.0	-12.0	169	5
2023-09-15T18:00	3508	670	3.8	-12.2	167	5
2023-09-15T18:00	3536	668	3.6	-12.0	167	5
2023-09-15T18:00	3563	666	3.3	-12.1	166	5
2023-09-15T18:00	3586	664	3.2	-11.6	166	5
2023-09-15T18:00	3617	661	2.9	-11.6	166	5
2023-09-15T18:00	3647	659	2.7	-11.9	164	5
2023-09-15T18:00	3677	656	2.5	-11.6	162	5
2023-09-15T18:00	3708	654	2.3	-11.6	160	5
2023-09-15T18:00	3737	652	2.1	-11.8	159	5
2023-09-15T18:00	3765	649	1.9	-11.9	159	5
2023-09-15T18:00	3788	647	1.7	-12.2	160	5
2023-09-15T18:00	3818	645	1.6	-12.5	163	5
2023-09-15T18:00	3845	643	1.5	-12.9	166	5
2023-09-15T18:00	3870	641	1.3	-13.0	169	5
2023-09-15T18:00	3900	638	1.1	-12.7	169	5
2023-09-15T18:00	3923	636	0.9	-12.8	168	5
2023-09-15T18:00	3953	634	0.7	-12.4	166	5
2023-09-15T18:00	3983	632	0.4	-11.9	163	4
2023-09-15T18:00	4011	630	0.2	-11.8	160	4
2023-09-15T18:00	4040	627	0.0	-11.9	158	4
2023-09-15T18:00	4067	625	-0.2	-12.1	154	4
2023-09-15T18:00	4094	623	-0.3	-12.2	151	4
2023-09-15T18:00	4125	621	-0.6	-12.5	149	4
2023-09-15T18:00	4154	618	-0.8	-12.7	148	4
2023-09-15T18:00	4181	616	-1.0	-13.1	150	4
2023-09-15T18:00	4210	614	-1.1	-13.6	153	3
2023-09-15T18:00	4238	612	-1.3	-13.7	157	3
2023-09-15T18:00	4266	610	-1.5	-13.9	160	3
2023-09-15T18:00	4297	607	-1.7	-14.1	161	3
2023-09-15T18:00	4328	605	-1.9	-14.5	161	3
2023-09-15T18:00	4354	603	-1.9	-15.1	161	3
2023-09-15T18:00	4384	601	-2.1	-15.8	161	3
2023-09-15T18:00	4407	599	-2.3	-15.9	162	3
2023-09-15T18:00	4435	597	-2.5	-16.0	163	3
2023-09-15T18:00	4463	595	-2.7	-16.0	164	3
2023-09-15T18:00	4491	593	-2.9	-16.0	166	3
2023-09-15T18:00	4523	591	-3.2	-16.1	167	3
2023-09-15T18:00	4549	588	-3.4	-16.0	167	3
2023-09-15T18:00	4579	586	-3.7	-16.0	168	4
2023-09-15T18:00	4607	584	-3.9	-15.9	169	4
2023-09-15T18:00	4633	582	-4.0	-15.9	172	4
2023-09-15T18:00	4663	580	-4.2	-16.1	175	4
2023-09-15T18:00	4689	578	-4.5	-16.4	177	4
2023-09-15T18:00	4719	576	-4.7	-16.7	179	5
2023-09-15T18:00	4754	574	-5.1	-17.0	178	5
2023-09-15T18:00	4779	572	-5.2	-17.3	177	5
2023-09-15T18:00	4805	570	-5.4	-17.0	176	5
2023-09-15T18:00	4836	567	-5.6	-17.3	176	6
2023-09-15T18:00	4864	565	-5.7	-17.5	178	6
2023-09-15T18:00	4888	563	-5.9	-17.6	179	6
2023-09-15T18:00	4922	561	-6.0	-17.9	180	6
2023-09-15T18:00	4953	559	-6.3	-18.1	180	6
2023-09-15T18:00	4987	557	-6.5	-18.1	179	6
2023-09-15T18:00	5018	554	-6.7	-18.1	177	6
2023-09-15T18:00	5050	552	-6.8	-18.4	174	7
2023-09-15T18:00	5082	550	-7.0	-18.1	173	7
2023-09-15T18:00	5116	547	-7.2	-18.3	173	7
2023-09-15T18:00	5150	545	-7.4	-18.5	173	7
2023-09-15T18:00	5184	543	-7.6	-18.9	174	7
2023-09-15T18:00	5212	541	-7.7	-20.3	175	7
2023-09-15T18:00	5241	539	-7.7	-21.6	176	7
2023-09-15T18:00	5273	537	-7.8	-22.2	177	7
2023-09-15T18:00	5300	535	-7.9	-21.5	178	7
2023-09-15T18:00	5332	532	-8.1	-21.8	181	7
2023-09-15T18:00	5364	530	-8.2	-23.8	185	6
2023-09-15T18:00	5389	528	-8.4	-24.6	189	6
2023-09-15T18:00	5422	526	-8.7	-25.7	193	6
2023-09-15T18:00	5453	524	-8.9	-26.0	195	5
2023-09-15T18:00	5482	522	-9.2	-26.1	196	5
2023-09-15T18:00	5508	520	-9.5	-26.3	194	5
2023-09-15T18:00	5544	518	-9.7	-26.9	192	5
2023-09-15T18:00	5577	516	-10.0	-26.7	190	5
2023-09-15T18:00	5598	514	-10.2	-26.4	190	5
2023-09-15T18:00	5622	513	-10.3	-26.9	191	5
2023-09-15T18:00	5648	511	-10.5	-27.5	195	4
2023-09-15T18:00	5680	509	-10.7	-28.0	198	5
2023-09-15T18:00	5705	507	-10.8	-28.0	200	5
2023-09-15T18:00	5741	505	-11.0	-29.2	201	5
2023-09-15T18:00	5771	503	-11.2	-31.2	202	5
2023-09-15T18:00	5801	501	-11.4	-31.8	205	5
2023-09-15T18:00	5830	499	-11.7	-32.1	208	5
2023-09-15T18:00	5860	497	-11.9	-32.3	213	5
2023-09-15T18:00	5888	495	-12.2	-32.4	216	5
2023-09-15T18:00	5916	493	-12.4	-32.5	219	5
2023-09-15T18:00	5944	492	-12.7	-32.9	220	5
2023-09-15T18:00	5976	490	-13.0	-32.4	220	5
2023-09-15T18:00	6009	488	-13.3	-32.2	221	6
2023-09-15T18:00	6043	485	-13.6	-32.1	223	6
2023-09-15T18:00	6072	483	-13.8	-32.1	225	6
2023-09-15T18:00	6108	481	-14.1	-32.3	228	7
2023-09-15T18:00	6143	479	-14.4	-32.4	230	7
2023-09-15T18:00	6169	477	-14.6	-32.5	231	7
2023-09-15T18:00	6200	475	-14.9	-32.3	230	6
2023-09-15T18:00	6236	473	-15.2	-32.5	228	6
2023-09-15T18:00	6266	471	-15.5	-32.6	225	6
2023-09-15T18:00	6293	470	-15.8	-32.7	222	6
2023-09-15T18:00	6322	468	-16.0	-32.9	222	5
2023-09-15T18:00	6341	467	-16.2	-32.8	223	5
2023-09-15T18:00	6362	465	-16.4		225	6
2023-09-15T18:00	6398	463	-16.7	-32.0	228	6
2023-09-15T18:00	6426	461	-17.0	-31.9	229	6
2023-09-15T18:00	6460	459	-17.3	-31.5	231	6
2023-09-15T18:00	6489	457	-17.6	-31.2	231	6
2023-09-15T18:00	6522	456	-17.9	-31.3	230	5
2023-09-15T18:00	6550	454	-18.1	-31.2	227	5
2023-09-15T18:00	6572	452	-18.3	-31.5	223	5
2023-09-15T18:00	6597	451	-18.4	-32.2	218	5
2023-09-15T18:00	6631	449	-18.7	-32.9	215	5
2023-09-15T18:00	6661	447	-19.0	-33.1	214	5
2023-09-15T18:00	6702	445	-19.3	-33.0	216	5
2023-09-15T18:00	6733	443	-19.6	-33.4	221	5
2023-09-15T18:00	6767	441	-19.8	-34.3	227	5
2023-09-15T18:00	6799	439	-20.1	-35.0	230	5
2023-09-15T18:00	6834	437	-20.3	-37.5	231	5
2023-09-15T18:00	6860	435	-20.5	-36.4	231	6
2023-09-15T18:00	6887	434	-20.7	-36.5	230	6
2023-09-15T18:00	6924	432	-21.0	-34.8	229	5
2023-09-15T18:00	6955	430	-21.3	-35.8	228	5
2023-09-15T18:00	6985	428	-21.6	-36.3	226	5
2023-09-15T18:00	7019	426	-21.8		224	5
2023-09-15T18:00	7047	424	-22.0	-36.6	221	5
2023-09-15T18:00	7075	423	-22.3	-36.0	220	6
2023-09-15T18:00	7106	421	-22.6	-34.5	219	6
2023-09-15T18:00	7137	419	-22.9	-34.5	220	6
2023-09-15T18:00	7165	418	-23.2	-34.4	220	6
2023-09-15T18:00	7200	416	-23.5	-34.1	220	6
2023-09-15T18:00	7238	414	-23.8	-34.2	218	6
2023-09-15T18:00	7261	412	-24.0	-34.2	216	5
2023-09-15T18:00	7293	410	-24.3	-34.1	212	5
2023-09-15T18:00	7327	408	-24.6	-33.8	208	5
2023-09-15T18:00	7358	407	-24.8	-34.6	206	5
2023-09-15T18:00	7390	405	-25.1	-35.6	207	5
2023-09-15T18:00	7423	403	-25.3	-35.6	212	5
2023-09-15T18:00	7448	402	-25.6	-35.8	218	5
2023-09-15T18:00	7479	400	-25.9	-35.8	225	5
2023-09-15T18:00	7517	398	-26.1	-36.1	229	5
2023-09-15T18:00	7542	396	-26.4	-36.6	231	5
2023-09-15T18:00	7569	395	-26.6	-36.5	230	5
2023-09-15T18:00	7593	394	-26.8	-36.6	226	5
2023-09-15T18:00	7629	392	-27.0	-36.8	222	5
2023-09-15T18:00	7659	390	-27.3	-37.3	217	5
2023-09-15T18:00	7681	389	-27.5		213	5
2023-09-15T18:00	7712	387	-27.6	-38.8	210	5
2023-09-15T18:00	7745	386	-27.9	-38.8	208	5
2023-09-15T18:00	7772	384	-28.1	-38.7	207	6
2023-09-15T18:00	7802	382	-28.4	-38.6	207	6
2023-09-15T18:00	7837	381	-28.7	-38.5	208	6
2023-09-15T18:00	7872	379	-29.0	-38.3	208	6
2023-09-15T18:00	7902	377	-29.2	-38.2	207	6
2023-09-15T18:00	7926	376	-29.5	-38.3	204	6
2023-09-15T18:00	7947	375	-29.7	-38.4	201	6
2023-09-15T18:00	7976	373	-29.9	-39.0	197	6
2023-09-15T18:00	8002	372	-30.1	-39.4	194	6
2023-09-15T18:00	8036	370	-30.3	-39.8	192	6
2023-09-15T18:00	8074	368	-30.7	-40.1	191	7
2023-09-15T18:00	8102	367	-30.9	-40.4	191	7
2023-09-15T18:00	8121	366	-31.1	-40.6	192	7
2023-09-15T18:00	8150	364	-31.3	-40.6	192	7
2023-09-15T18:00	8178	363	-31.6	-40.8	193	7
2023-09-15T18:00	8211	361	-31.9	-41.2	192	7
2023-09-15T18:00	8242	360	-32.1	-41.2	190	7
2023-09-15T18:00	8268	358	-32.4	-41.6	186	7
2023-09-15T18:00	8298	357	-32.6	-42.5	183	7
2023-09-15T18:00	8334	355	-32.8	-43.2	179	7
2023-09-15T18:00	8356	354	-32.9	-43.8	177	7
2023-09-15T18:00	8389	352	-33.2	-44.4	174	7
2023-09-15T18:00	8418	351	-33.5	-44.6	171	7
2023-09-15T18:00	8446	349	-33.7	-44.6	168	7
2023-09-15T18:00	8478	348	-33.9	-44.7	164	7
2023-09-15T18:00	8511	346	-34.2	-45.3	162	7
2023-09-15T18:00	8531	345	-34.4	-45.4	162	8
2023-09-15T18:00	8561	343	-34.7	-45.2	162	7
2023-09-15T18:00	8600	342	-35.0	-46.3	163	7
2023-09-15T18:00	8627	340	-35.2	-46.8	164	7
2023-09-15T18:00	8650	339	-35.5	-46.9	166	7
2023-09-15T18:00	8679	338	-35.7	-46.9	167	7
2023-09-15T18:00	8707	336	-36.0	-46.8	169	7
2023-09-15T18:00	8742	335	-36.3	-46.5	171	7
2023-09-15T18:00	8778	333	-36.6	-46.6	172	7
2023-09-15T18:00	8800	332	-36.8	-46.2	172	7
2023-09-15T18:00	8828	331	-37.0	-46.6	170	7
2023-09-15T18:00	8857	329	-37.3	-46.5	167	7
2023-09-15T18:00	8903	327	-37.7	-46.7	167	7
2023-09-15T18:00	8935	326	-38.0	-46.6	169	7
2023-09-15T18:00	8966	324	-38.3	-46.1	174	7
2023-09-15T18:00	8995	323	-38.4	-47.2	179	8
2023-09-15T18:00	9016	322	-38.4	-50.3	185	9
2023-09-15T18:00	9048	320	-38.4	-51.4	189	9
2023-09-15T18:00	9075	319	-38.7	-51.1	192	9
2023-09-15T18:00	9104	318	-39.0	-52.1	194	9
2023-09-15T18:00	9137	316	-39.2	-53.6	195	9
2023-09-15T18:00	9171	314	-39.5	-54.8	196	9
2023-09-15T18:00	9206	313	-39.8	-54.6	196	8
2023-09-15T18:00	9228	312	-40.0	-55.0	195	8
2023-09-15T18:00	9250	311	-40.2	-55.1	194	8
2023-09-15T18:00	9277	310	-40.4	-55.0	192	8
2023-09-15T18:00	9306	308	-40.7	-55.3	190	8
2023-09-15T18:00	9339	307	-41.0	-55.4	189	8
2023-09-15T18:00	9373	305	-41.3	-55.6	189	8
2023-09-15T18:00	9394	304	-41.4	-55.4	189	8
2023-09-15T18:00	9415	303	-41.6	-54.8	190	8
2023-09-15T18:00	9444	302	-41.9	-55.1	191	8
2023-09-15T18:00	9478	301	-42.2	-55.5	191	8
2023-09-15T18:00	9514	299	-42.6	-55.8	191	8
2023-09-15T18:00	9533	298	-42.7	-55.9	190	8
2023-09-15T18:00	9552	297	-42.9	-55.9	189	8
2023-09-15T18:00	9573	296	-43.1	-56.1	187	8
2023-09-15T18:00	9593	296	-43.3	-56.0	186	8
2023-09-15T18:00	9615	295	-43.5	-55.7	185	8
2023-09-15T18:00	9645	293	-43.8	-55.7	184	8
2023-09-15T18:00	9672	292	-44.0	-55.9	183	8
2023-09-15T18:00	9701	291	-44.3	-55.9	183	8
2023-09-15T18:00	9733	289	-44.6	-56.3	182	8
2023-09-15T18:00	9760	288	-44.8	-56.6	181	8
2023-09-15T18:00	9785	287	-45.0	-56.9	180	7
2023-09-15T18:00	9814	286	-45.3	-57.3	180	7
2023-09-15T18:00	9845	285	-45.5	-57.7	179	7
2023-09-15T18:00	9865	284	-45.7	-58.2	179	6
2023-09-15T18:00	9890	283	-45.9	-58.9	178	6
2023-09-15T18:00	9917	282	-46.1	-59.6	178	6
2023-09-15T18:00	9946	280	-46.3	-59.9	177	6
2023-09-15T18:00	9969	279	-46.5	-59.9	177	6
2023-09-15T18:00	9994	278	-46.7	-60.0	176	7
2023-09-15T18:00	10020	277	-47.0	-60.1	175	7
2023-09-15T18:00	10046	276	-47.2	-59.9	175	7
2023-09-15T18:00	10074	275	-47.4	-59.5	175	7
2023-09-15T18:00	10094	274	-47.6	-59.2	175	7
2023-09-15T18:00	10125	273	-47.9	-58.4	175	7
2023-09-15T18:00	10151	272	-48.1	-57.9	176	7
2023-09-15T18:00	10175	271	-48.4	-57.8	177	7
2023-09-15T18:00	10204	270	-48.6	-57.7	177	7
2023-09-15T18:00	10234	268	-48.9	-57.7	176	7
2023-09-15T18:00	10260	267	-49.2	-57.6	175	6
2023-09-15T18:00	10291	266	-49.5	-57.4	174	6
2023-09-15T18:00	10320	265	-49.7	-57.0	173	6
2023-09-15T18:00	10341	264	-49.9	-56.6	172	6
2023-09-15T18:00	10362	263	-50.1	-56.4	171	6
2023-09-15T18:00	10386	262	-50.3	-56.1	170	6
2023-09-15T18:00	10411	261	-50.6	-56.4	170	6
2023-09-15T18:00	10439	260	-50.8	-56.6	169	6
2023-09-15T18:00	10463	259	-51.0	-56.8	169	6
2023-09-15T18:00	10491	258	-51.3	-57.3	170	6
2023-09-15T18:00	10521	257	-51.6	-58.2	172	6
2023-09-15T18:00	10548	256	-51.8	-59.6	173	6
2023-09-15T18:00	10576	255	-52.0	-60.8	173	6
2023-09-15T18:00	10605	254	-52.2	-60.9	173	6
2023-09-15T18:00	10635	252	-52.4	-60.5	173	6
2023-09-15T18:00	10670	251	-52.5	-60.2	174	6
2023-09-15T18:00	10704	250	-52.8	-60.3	176	7
2023-09-15T18:00	10732	249	-53.1	-60.5	179	7
2023-09-15T18:00	10757	248	-53.3	-60.5	182	7
2023-09-15T18:00	10782	247	-53.5	-60.6	184	7
2023-09-15T18:00	10810	246	-53.8	-60.9	185	7
2023-09-15T18:00	10838	245	-54.0	-61.2	186	8
2023-09-15T18:00	10858	244	-54.2	-61.7	186	8
2023-09-15T18:00	10879	243	-54.3	-61.9	187	8
2023-09-15T18:00	10904	242	-54.5	-62.0	187	8
2023-09-15T18:00	10929	241	-54.7	-62.0	187	8
2023-09-15T18:00	10955	240	-54.9	-62.0	188	8
2023-09-15T18:00	10988	239	-55.2	-62.1	188	8
2023-09-15T18:00	11017	238	-55.5	-62.3	187	8
2023-09-15T18:00	11046	237	-55.7	-62.3	186	8
2023-09-15T18:00	11074	236	-55.9	-62.3	185	9
2023-09-15T18:00	11100	235	-56.1	-62.5	184	9
2023-09-15T18:00	11127	234	-56.3	-62.8	183	9
2023-09-15T18:00	11159	233	-56.5	-63.1	183	9
2023-09-15T18:00	11185	232	-56.7	-63.2	183	9
2023-09-15T18:00	11214	230	-57.0	-63.4	182	9
2023-09-15T18:00	11245	229	-57.2	-63.4	181	9
2023-09-15T18:00	11271	228	-57.5	-63.5	181	9
2023-09-15T18:00	11297	228	-57.7	-63.5	180	9
2023-09-15T18:00	11319	227	-57.9	-63.6	180	9
2023-09-15T18:00	11342	226	-58.0	-63.6	181	9
2023-09-15T18:00	11363	225	-58.2	-63.8	181	9
2023-09-15T18:00	11385	224	-58.3	-64.0	182	9
2023-09-15T18:00	11407	224	-58.5	-64.2	182	9
2023-09-15T18:00	11427	223	-58.6	-64.2	181	8
2023-09-15T18:00	11450	222	-58.8	-64.2	180	8
2023-09-15T18:00	11468	221	-59.0	-64.1	179	8
2023-09-15T18:00	11491	221	-59.2	-64.0	177	8
2023-09-15T18:00	11514	220	-59.4	-64.0	176	8
2023-09-15T18:00	11535	219	-59.5	-64.1	175	9
2023-09-15T18:00	11557	218	-59.6	-64.3	174	9
2023-09-15T18:00	11579	217	-59.8	-64.6	173	9
2023-09-15T18:00	11603	217	-60.0	-64.9	173	9
2023-09-15T18:00	11627	216	-60.1	-65.0	172	10
2023-09-15T18:00	11647	215	-60.2	-65.3	172	10
2023-09-15T18:00	11669	214	-60.2	-65.3	171	10
2023-09-15T18:00	11690	214	-60.4	-65.4	169	10
2023-09-15T18:00	11714	213	-60.4		168	10
2023-09-15T18:00	11738	212	-60.6	-65.5	166	10
2023-09-15T18:00	11760	211	-60.6	-65.7	166	10
2023-09-15T18:00	11782	211	-60.4	-65.8	166	10
2023-09-15T18:00	11805	210	-60.6	-66.2	169	10
2023-09-15T18:00	11828	209	-60.7	-66.5	173	11
2023-09-15T18:00	11850	208	-60.9	-66.8	179	11
2023-09-15T18:00	11889	207	-60.9	-67.0	186	11
2023-09-15T18:00	11921	206	-60.7	-67.1	191	12
2023-09-15T18:00	11951	205	-60.5	-67.0	195	12
2023-09-15T18:00	11991	204	-60.6	-67.2	198	13
2023-09-15T18:00	12010	203	-60.8	-67.4	200	12
2023-09-15T18:00	12031	202	-60.7	-67.3	202	12
2023-09-15T18:00	12053	202	-60.8	-67.4	205	11
2023-09-15T18:00	12079	201	-60.8	-67.4	208	10
2023-09-15T18:00	12110	200	-60.9	-67.6	211	9
2023-09-15T18:00	12136	199	-61.0	-67.7	214	8
2023-09-15T18:00	12165	198	-61.1	-67.9	216	7
2023-09-15T18:00	12187	197	-61.2	-68.0	217	6
2023-09-15T18:00	12209	197	-61.3	-68.3	217	6
2023-09-15T18:00	12234	196	-61.1	-68.4	218	6
2023-09-15T18:00	12261	195	-60.6	-68.5	221	6
2023-09-15T18:00	12285	194	-60.3	-68.9	224	6
2023-09-15T18:00	12311	193	-60.1	-69.4	227	6
2023-09-15T18:00	12334	193	-59.9	-69.6	229	6
2023-09-15T18:00	12359	192	-59.6	-69.8	230	6
2023-09-15T18:00	12381	191	-59.4	-70.2	230	6
2023-09-15T18:00	12404	191	-59.0	-70.5	229	6
2023-09-15T18:00	12426	190	-58.9	-71.1	228	7
2023-09-15T18:00	12452	189	-58.7	-71.6	228	7
2023-09-15T18:00	12479	188	-58.2	-72.2	229	8
2023-09-15T18:00	12510	187	-57.8	-73.1	231	9
2023-09-15T18:00	12538	186	-57.3	-73.9	234	9
2023-09-15T18:00	12570	186	-57.1	-74.6	238	10
2023-09-15T18:00	12591	185	-57.1	-75.1	242	10
2023-09-15T18:00	12615	184	-57.2	-75.5	247	10
2023-09-15T18:00	12634	184	-57.3	-75.8	251	9
2023-09-15T18:00	12656	183	-57.3	-75.9	254	9
2023-09-15T18:00	12679	182	-57.3	-76.1	257	8
2023-09-15T18:00	12701	182	-57.1	-76.2	258	8
2023-09-15T18:00	12720	181	-57.1	-76.4	257	7
2023-09-15T18:00	12738	181	-57.1	-76.4	255	7
2023-09-15T18:00	12762	180	-57.1	-76.5	253	7
2023-09-15T18:00	12783	179	-56.9	-76.4	251	6
2023-09-15T18:00	12805	179	-56.9	-76.6	250	6
2023-09-15T18:00	12829	178	-56.6	-76.7	251	6
2023-09-15T18:00	12849	178	-56.5	-77.0	251	5
2023-09-15T18:00	12870	177	-56.3	-77.2	251	5
2023-09-15T18:00	12891	176	-56.2	-77.5	248	4
2023-09-15T18:00	12914	176	-56.1	-77.8	243	4
2023-09-15T18:00	12936	175	-55.6	-78.0	236	3
2023-09-15T18:00	12957	175	-55.2	-78.2	229	3
2023-09-15T18:00	12978	174	-54.7	-78.3	222	3
2023-09-15T18:00	12999	173	-54.6	-78.5	216	3
2023-09-15T18:00	13024	173	-54.6	-78.6	211	4
2023-09-15T18:00	13043	172	-54.7	-78.7	208	4
2023-09-15T18:00	13069	172	-54.8	-78.8	207	5
2023-09-15T18:00	13102	171	-54.8	-79.0	207	6
2023-09-15T18:00	13127	170	-54.7	-78.9	209	7
2023-09-15T18:00	13148	169	-54.7	-79.1	212	8
2023-09-15T18:00	13171	169	-54.7	-79.4	216	9
2023-09-15T18:00	13191	168	-54.7	-79.4	220	9
2023-09-15T18:00	13210	168	-54.7	-79.6	223	10
2023-09-15T18:00	13232	167	-54.7	-79.6	226	10
2023-09-15T18:00	13252	167	-54.8	-79.7	229	10
2023-09-15T18:00	13275	166	-54.9	-79.7	230	9
2023-09-15T18:00	13298	165	-54.9	-79.7	232	9
2023-09-15T18:00	13320	165	-54.9	-79.7	233	9
2023-09-15T18:00	13344	164	-55.0	-80.0	235	9
2023-09-15T18:00	13364	164	-55.0	-80.0	237	9
2023-09-15T18:00	13388	163	-54.8	-80.1	239	9
2023-09-15T18:00	13410	163	-54.7	-80.3	240	9
2023-09-15T18:00	13430	162	-54.6	-80.5	241	10
2023-09-15T18:00	13452	162	-54.4	-80.6	241	10
2023-09-15T18:00	13473	161	-54.3	-80.5	240	11
2023-09-15T18:00	13495	160	-54.1	-80.6	240	11
2023-09-15T18:00	13515	160	-53.9	-80.5	241	11
2023-09-15T18:00	13538	159	-53.8	-80.4	243	11
2023-09-15T18:00	13559	159	-53.8	-80.4	246	11
2023-09-15T18:00	13581	158	-53.6	-80.5	249	11
2023-09-15T18:00	13606	158	-53.7	-80.6	253	11
2023-09-15T18:00	13629	157	-53.5	-80.5	256	11
2023-09-15T18:00	13655	157	-53.7	-80.6	259	11
2023-09-15T18:00	13675	156	-53.8	-80.7	259	11
2023-09-15T18:00	13697	155	-53.6	-80.9	259	11
2023-09-15T18:00	13721	155	-53.1	-80.5	257	11
2023-09-15T18:00	13742	154	-53.1	-80.8	255	11
2023-09-15T18:00	13763	154	-53.1	-80.8	254	11
2023-09-15T18:00	13785	153	-53.2	-80.5	252	10
2023-09-15T18:00	13809	153	-53.4	-80.7	250	10
2023-09-15T18:00	13831	152	-53.6	-80.5	249	10
2023-09-15T18:00	13852	152	-53.8	-80.7	247	10
2023-09-15T18:00	13871	151	-53.9	-80.5	245	10
2023-09-15T18:00	13894	151	-54.1	-80.6	244	10
2023-09-15T18:00	13914	150	-54.3	-80.8	243	10
2023-09-15T18:00	13937	150	-54.5	-80.7	242	10
2023-09-15T18:00	13962	149	-54.7	-80.8	241	10
2023-09-15T18:00	13981	149	-54.8	-80.9	241	9
2023-09-15T18:00	14005	148	-54.8	-81.2	242	9
2023-09-15T18:00	14026	148	-54.7	-81.4	243	9
2023-09-15T18:00	14050	147	-54.8	-81.5	244	8
2023-09-15T18:00	14073	147	-55.0	-81.6	244	8
2023-09-15T18:00	14094	146	-55.0	-81.6	243	8
2023-09-15T18:00	14117	146	-55.1	-81.7	242	8
2023-09-15T18:00	14140	145	-55.2	-81.5	242	9
2023-09-15T18:00	14160	145	-55.3	-81.6	242	9
2023-09-15T18:00	14185	144	-55.5	-81.7	242	9
2023-09-15T18:00	14205	144	-55.5	-81.7	243	10
2023-09-15T18:00	14227	143	-55.6	-81.8	245	10
2023-09-15T18:00	14248	143	-55.6	-81.8	246	11
2023-09-15T18:00	14274	142	-55.7	-81.9	248	11
2023-09-15T18:00	14294	142	-55.7	-81.9	250	12
2023-09-15T18:00	14316	141	-55.7	-81.9	252	12
2023-09-15T18:00	14340	141	-55.8	-81.7	255	13
2023-09-15T18:00	14362	140	-56.0	-81.8	258	13
2023-09-15T18:00	14384	140	-56.1	-81.6	260	13
2023-09-15T18:00	14410	139	-56.2	-81.7	263	14
2023-09-15T18:00	14430	139	-56.3	-81.8	265	14
2023-09-15T18:00	14451	138	-56.4	-81.9	267	14
2023-09-15T18:00	14473	138	-56.6	-81.8	269	14
2023-09-15T18:00	14494	137	-56.7	-81.9	271	15
2023-09-15T18:00	14514	137	-56.8	-81.9	273	15
2023-09-15T18:00	14535	136	-56.8	-81.9	275	15
2023-09-15T18:00	14559	136	-56.9	-82.0	277	15
2023-09-15T18:00	14581	135	-56.8	-81.9	280	14
2023-09-15T18:00	14605	135	-56.9	-82.0	282	14
2023-09-15T18:00	14626	134	-57.0	-82.1	284	14
2023-09-15T18:00	14649	134	-57.0	-82.3	285	13
2023-09-15T18:00	14671	133	-56.7	-82.1	285	13
2023-09-15T18:00	14694	133	-56.4	-81.9	283	12
2023-09-15T18:00	14715	133	-56.4	-82.1	282	12
2023-09-15T18:00	14738	132	-56.4	-82.1	280	11
2023-09-15T18:00	14759	132	-56.5	-82.2	279	11
2023-09-15T18:00	14782	131	-56.5	-82.2	278	11
2023-09-15T18:00	14801	131	-56.6	-82.0	277	11
2023-09-15T18:00	14825	130	-56.6	-82.0	277	11
2023-09-15T18:00	14846	130	-56.7	-82.1	277	11
2023-09-15T18:00	14868	129	-56.6	-82.0	277	11
2023-09-15T18:00	14892	129	-56.6	-82.0	277	11
2023-09-15T18:00	14914	128	-56.6	-82.0	276	10
2023-09-15T18:00	14936	128	-56.6	-82.0	274	10
2023-09-15T18:00	14959	128	-56.7	-82.1	271	10
2023-09-15T18:00	14984	127	-56.8	-82.2	268	10
2023-09-15T18:00	15009	127	-56.9	-82.3	265	10
2023-09-15T18:00	15029	126	-57.0	-82.3	263	10
2023-09-15T18:00	15052	126	-57.1	-82.4	262	11
2023-09-15T18:00	15074	125	-57.3	-82.6	261	11
2023-09-15T18:00	15099	125	-57.3	-82.3	262	11
2023-09-15T18:00	15122	124	-57.2	-82.5	263	11
2023-09-15T18:00	15142	124	-57.2	-82.5	264	12
2023-09-15T18:00	15162	124	-57.2	-82.5	267	12
2023-09-15T18:00	15185	123	-57.3	-82.3	269	12
2023-09-15T18:00	15209	123	-57.5	-82.5	272	12
2023-09-15T18:00	15234	122	-57.6	-82.6	275	11
2023-09-15T18:00	15256	122	-57.7	-82.6	277	11
2023-09-15T18:00	15279	121	-57.7	-82.6	279	11
2023-09-15T18:00	15300	121	-57.8	-82.7	280	10
2023-09-15T18:00	15324	120	-58.0	-82.9	281	10
2023-09-15T18:00	15347	120	-58.1	-82.7	280	10
2023-09-15T18:00	15371	120	-58.3	-82.9	278	9
2023-09-15T18:00	15392	119	-58.3	-82.9	275	9
2023-09-15T18:00	15414	119	-58.1	-82.7	272	9
2023-09-15T18:00	15436	118	-58.1	-82.7	268	9
2023-09-15T18:00	15459	118	-58.1	-83.0	265	9
2023-09-15T18:00	15481	117	-58.2	-83.0	262	9
2023-09-15T18:00	15503	117	-58.2	-83.0	259	10
2023-09-15T18:00	15526	117	-58.3	-83.1	256	10
2023-09-15T18:00	15548	116	-58.3	-82.9	255	10
2023-09-15T18:00	15570	116	-58.4	-82.9	254	11
2023-09-15T18:00	15592	115	-58.3	-82.9	255	11
2023-09-15T18:00	15617	115	-58.4	-82.9	256	12
2023-09-15T18:00	15639	115	-58.6	-83.1	257	12
2023-09-15T18:00	15662	114	-58.7	-83.2	260	13
2023-09-15T18:00	15685	114	-58.7	-83.2	263	13
2023-09-15T18:00	15708	113	-58.6	-83.1	266	13
2023-09-15T18:00	15734	113	-58.5	-83.3	269	13
2023-09-15T18:00	15757	112	-58.4	-83.2	272	13
2023-09-15T18:00	15776	112	-58.3	-83.1	274	13
2023-09-15T18:00	15798	112	-58.4	-83.2	275	12
2023-09-15T18:00	15823	111	-58.4	-83.2	275	12
2023-09-15T18:00	15848	111	-58.4	-83.2	275	11
2023-09-15T18:00	15866	110	-58.5	-83.3	274	10
2023-09-15T18:00	15889	110	-58.5	-83.3	273	10
2023-09-15T18:00	15913	110	-58.5	-83.3	272	9
2023-09-15T18:00	15939	109	-58.5	-83.3	270	10
2023-09-15T18:00	15964	109	-58.5	-83.3	269	10
2023-09-15T18:00	15981	108	-58.5	-83.3	268	10
2023-09-15T18:00	16008	108	-58.6	-83.3	268	11
2023-09-15T18:00	16031	108	-58.7	-83.4	268	11
2023-09-15T18:00	16053	107	-58.7	-83.4	268	11
2023-09-15T18:00	16077	107	-58.7	-83.4	267	11
2023-09-15T18:00	16102	106	-58.6	-83.3	266	11
2023-09-15T18:00	16127	106	-58.4	-83.4	265	11
2023-09-15T18:00	16149	106	-58.6	-83.6	264	11
2023-09-15T18:00	16177	105	-58.5	-83.8	264	10
2023-09-15T18:00	16199	105	-58.5	-83.8	265	10
2023-09-15T18:00	16221	104	-58.4	-83.7	266	11
2023-09-15T18:00	16243	104	-58.2	-83.5	268	11
2023-09-15T18:00	16266	104	-58.4	-83.7	270	12
2023-09-15T18:00	16292	103	-58.4	-84.0	272	12
2023-09-15T18:00	16312	103	-58.5	-84.0	274	12
2023-09-15T18:00	16337	102	-58.6	-84.1	276	12
2023-09-15T18:00	16361	102	-58.4	-84.0	278	13
2023-09-15T18:00	16383	102	-58.5	-84.0	280	13
2023-09-15T18:00	16405	101	-58.6	-84.1	281	13
2023-09-15T18:00	16428	101	-58.8	-84.3	283	12
2023-09-15T18:00	16452	101	-58.8	-84.6	285	12
2023-09-15T18:00	16473	100	-58.5	-84.3	287	12
2023-09-15T18:00	16497	100	-58.4	-84.3	288	11
2023-09-15T18:00	16518	100	-58.3	-84.5	289	11
2023-09-15T18:00	16543	99	-58.2	-84.4	290	10
2023-09-15T18:00	16564	99	-58.2	-84.4	291	9
2023-09-15T18:00	16583	99	-58.1	-84.6	291	8
2023-09-15T18:00	16609	98	-58.1	-84.6	289	8
2023-09-15T18:00	16633	98	-58.0	-84.6	287	8
2023-09-15T18:00	16652	97	-57.9	-84.5	284	7
2023-09-15T18:00	16674	97	-57.9	-84.5	281	7
2023-09-15T18:00	16698	97	-57.9	-84.8	281	7
2023-09-15T18:00	16719	96	-57.9	-84.8	282	7
2023-09-15T18:00	16744	96	-57.7	-84.7	285	7
2023-09-15T18:00	16768	96	-57.7	-85.0	287	7
2023-09-15T18:00	16788	95	-57.7	-85.0	290	7
2023-09-15T18:00	16809	95	-57.8	-85.1	291	7
2023-09-15T18:00	16834	95	-57.7	-85.0	290	6
2023-09-15T18:00	16856	94	-57.7	-85.0	286	6
2023-09-15T18:00	16879	94	-57.8	-85.1	281	5
2023-09-15T18:00	16904	94	-57.7	-85.0	273	5
2023-09-15T18:00	16923	93	-57.8	-85.1	264	5
2023-09-15T18:00	16947	93	-57.8	-85.1	255	5
2023-09-15T18:00	16969	93	-57.9	-85.2	249	6
2023-09-15T18:00	16990	92	-58.0	-85.2	244	6
2023-09-15T18:00	17013	92	-58.1	-85.3	242	6
2023-09-15T18:00	17034	92	-58.0	-85.2	242	7
2023-09-15T18:00	17056	91	-58.1	-85.3	243	7
2023-09-15T18:00	17081	91	-58.0	-85.2	244	7
2023-09-15T18:00	17103	91	-57.9	-85.2	246	8
2023-09-15T18:00	17128	90	-57.9	-85.2	247	8
2023-09-15T18:00	17148	90	-58.0	-85.2	248	9
2023-09-15T18:00	17173	90	-58.1	-85.3	248	9
2023-09-15T18:00	17194	89	-58.2	-85.4	248	10
2023-09-15T18:00	17216	89	-58.3	-85.5	248	10
2023-09-15T18:00	17236	89	-58.4	-85.5	247	10
2023-09-15T18:00	17260	89	-58.4	-85.5	247	10
2023-09-15T18:00	17281	88	-58.0	-85.2	246	10
2023-09-15T18:00	17304	88	-58.1	-85.7	246	10
2023-09-15T18:00	17330	88	-58.1	-85.7	245	9
2023-09-15T18:00	17351	87	-58.1	-85.7	245	9
2023-09-15T18:00	17378	87	-58.2	-85.8	245	8
2023-09-15T18:00	17399	87	-58.1	-85.7	245	8
2023-09-15T18:00	17425	86	-58.1	-85.7	245	8
2023-09-15T18:00	17444	86	-58.0	-85.6	246	8
2023-09-15T18:00	17468	86	-58.0	-86.0	247	9
2023-09-15T18:00	17493	85	-57.7	-85.8	248	9
2023-09-15T18:00	17518	85	-57.5	-85.6	249	9
2023-09-15T18:00	17540	85	-57.4	-85.6	250	10
2023-09-15T18:00	17564	84	-57.4	-85.6	250	10
2023-09-15T18:00	17587	84	-57.5	-86.1	250	11
2023-09-15T18:00	17614	84	-57.2	-85.8	248	11
2023-09-15T18:00	17638	83	-57.0	-85.7	246	12
2023-09-15T18:00	17664	83	-57.1	-85.7	244	13
2023-09-15T18:00	17687	83	-57.2	-85.8	243	13
2023-09-15T18:00	17714	82	-57.1	-85.7	243	14
2023-09-15T18:00	17738	82	-57.3	-85.9	244	14
2023-09-15T18:00	17765	82	-57.3	-85.9	247	14
2023-09-15T18:00	17784	81	-57.4	-86.0	250	14
2023-09-15T18:00	17807	81	-57.2	-85.8	254	14
2023-09-15T18:00	17832	81	-57.1	-85.7	258	13
2023-09-15T18:00	17856	81	-57.0	-85.7	262	13
2023-09-15T18:00	17882	80	-57.0	-85.7	265	12
2023-09-15T18:00	17901	80	-57.0	-85.7	267	11
2023-09-15T18:00	17930	80	-57.2	-85.8	268	10
2023-09-15T18:00	17954	79	-57.2	-85.8	268	10
2023-09-15T18:00	17977	79	-57.2	-85.8	268	9
2023-09-15T18:00	17999	79	-57.3	-85.9	268	9
2023-09-15T18:00	18023	78	-57.3	-85.9	268	9
2023-09-15T18:00	18045	78	-57.4	-86.0	268	9
2023-09-15T18:00	18069	78	-57.4	-86.0	267	9
2023-09-15T18:00	18095	78	-57.3	-85.9	266	9
2023-09-15T18:00	18120	77	-57.4	-86.0	264	9
2023-09-15T18:00	18140	77	-57.5	-86.1	262	9
2023-09-15T18:00	18165	77	-57.7	-86.2	260	9
2023-09-15T18:00	18186	76	-57.8	-86.3	260	9
2023-09-15T18:00	18214	76	-58.0	-86.0	260	10
2023-09-15T18:00	18236	76	-58.1		261	10
2023-09-15T18:00	18258	76	-58.2	-86.2	262	10
2023-09-15T18:00	18286	75	-58.2	-86.2	263	9
2023-09-15T18:00	18307	75	-58.2	-86.2	263	9
2023-09-15T18:00	18334	75	-58.3	-86.2	263	8
2023-09-15T18:00	18358	74	-58.5	-86.4	262	8
2023-09-15T18:00	18382	74	-58.7	-86.5	261	7
2023-09-15T18:00	18405	74	-58.6	-86.5	259	6
2023-09-15T18:00	18427	74	-58.6	-86.5	256	6
2023-09-15T18:00	18451	73	-58.7	-86.5	254	6
2023-09-15T18:00	18477	73	-58.7	-87.0	252	6
2023-09-15T18:00	18505	73	-58.6	-86.9	252	6
2023-09-15T18:00	18527	72	-58.5	-86.8	254	7
2023-09-15T18:00	18548	72	-58.6	-86.9	256	7
2023-09-15T18:00	18573	72	-58.7	-87.0	259	7
2023-09-15T18:00	18600	72	-58.6	-86.9	263	8
2023-09-15T18:00	18622	71	-58.4	-86.7	265	8
2023-09-15T18:00	18646	71	-58.5	-86.8	266	7
2023-09-15T18:00	18673	71	-58.4	-86.7	266	7
2023-09-15T18:00	18697	70	-58.2	-86.6	265	7
2023-09-15T18:00	18720	70	-58.2	-87.0	263	7
2023-09-15T18:00	18744	70	-58.1	-87.0	261	7
2023-09-15T18:00	18771	70	-57.8	-86.7	259	7
2023-09-15T18:00	18797	69	-57.9	-86.8	257	7
2023-09-15T18:00	18819	69	-57.8	-86.7	255	7
2023-09-15T18:00	18846	69	-57.7	-86.7	253	7
2023-09-15T18:00	18871	69	-57.6	-86.6	251	7
2023-09-15T18:00	18894	68	-57.6	-86.6	249	7
2023-09-15T18:00	18924	68	-57.4	-86.4	248	7
2023-09-15T18:00	18945	68	-57.2	-86.3	247	7
2023-09-15T18:00	18966	68	-57.2	-86.8	248	7
2023-09-15T18:00	18995	67	-57.1	-86.7	249	8
2023-09-15T18:00	19018	67	-57.1	-86.7	250	9
2023-09-15T18:00	19045	67	-57.1	-86.2	253	9
2023-09-15T18:00	19071	66	-57.1	-86.2	256	9
2023-09-15T18:00	19096	66	-57.0	-86.1	260	10
2023-09-15T18:00	19120	66	-57.0	-86.1	264	10
2023-09-15T18:00	19144	66	-57.1	-86.2	267	11
2023-09-15T18:00	19170	65	-57.1	-86.2	269	11
2023-09-15T18:00	19193	65	-57.2	-86.3	272	11
2023-09-15T18:00	19221	65	-57.1	-86.2	273	12
2023-09-15T18:00	19247	65	-56.9	-86.1	275	12
2023-09-15T18:00	19271	64	-57.0	-86.1	275	11
2023-09-15T18:00	19295	64	-57.0	-86.1	276	11
2023-09-15T18:00	19320	64	-57.0	-86.1	275	10
2023-09-15T18:00	19347	64	-57.0	-86.1	273	10
2023-09-15T18:00	19373	63	-57.1	-86.2	269	9
2023-09-15T18:00	19399	63	-56.9	-86.1	265	8
2023-09-15T18:00	19420	63	-56.9	-86.1	260	8
2023-09-15T18:00	19443	63	-56.8	-86.5	255	8
2023-09-15T18:00	19469	62	-56.7	-86.4	252	8
2023-09-15T18:00	19493	62	-56.8	-86.5	251	9
2023-09-15T18:00	19514	62	-56.7	-86.4	251	9
2023-09-15T18:00	19537	62	-56.5	-86.3	253	9
2023-09-15T18:00	19564	61	-56.5	-86.3	256	9
2023-09-15T18:00	19590	61	-56.5	-86.3	259	9
2023-09-15T18:00	19618	61	-56.4	-86.2	263	9
2023-09-15T18:00	19637	61	-56.4	-86.2	266	9
2023-09-15T18:00	19662	61	-56.3	-86.1	268	9
2023-09-15T18:00	19688	60	-56.1	-86.0	270	9
2023-09-15T18:00	19710	60	-56.1	-86.0	270	9
2023-09-15T18:00	19733	60	-56.2	-86.0	269	8
2023-09-15T18:00	19763	60	-56.1	-86.0	268	8
2023-09-15T18:00	19784	59	-56.0	-85.9	268	8
2023-09-15T18:00	19808	59	-56.1	-86.0	268	8
2023-09-15T18:00	19837	59	-56.1	-86.0	268	8
2023-09-15T18:00	19861	59	-56.0	-85.9	267	8
2023-09-15T18:00	19882	58	-56.0	-85.9	264	8
2023-09-15T18:00	19910	58	-56.1	-86.0	260	8
2023-09-15T18:00	19936	58	-56.1	-86.0	257	8
2023-09-15T18:00	19956	58	-56.1	-86.0	256	7
2023-09-15T18:00	19983	58	-56.1	-86.0	256	7
2023-09-15T18:00	20009	57	-56.2	-86.0	259	7
2023-09-15T18:00	20034	57	-55.8	-86.3	262	7
2023-09-15T18:00	20057	57	-55.5	-86.1	264	6
2023-09-15T18:00	20082	57	-55.2	-85.8	266	6
2023-09-15T18:00	20102	56	-55.0	-85.7	267	6
2023-09-15T18:00	20132	56	-55.0	-85.7	269	6
2023-09-15T18:00	20153	56	-55.0	-85.7	270	6
2023-09-15T18:00	20178	56	-54.9	-85.6	272	6
2023-09-15T18:00	20203	56	-54.9	-85.6	273	6
2023-09-15T18:00	20227	55	-54.9	-85.6	274	6
2023-09-15T18:00	20256	55	-55.0	-85.7	275	6
2023-09-15T18:00	20280	55	-55.1	-85.2	276	5
2023-09-15T18:00	20304	55	-55.1	-85.2	277	5
2023-09-15T18:00	20330	54	-55.2	-85.3	277	4
2023-09-15T18:00	20353	54	-55.1	-85.2	277	4
2023-09-15T18:00	20380	54	-54.9	-85.6	275	4
2023-09-15T18:00	20405	54	-54.9	-85.6	273	4
2023-09-15T18:00	20433	54	-54.9	-85.6	271	5
2023-09-15T18:00	20459	53	-54.9	-85.6	269	5
2023-09-15T18:00	20486	53	-54.9	-85.6	266	5
2023-09-15T18:00	20515	53	-55.0	-85.7	264	6
2023-09-15T18:00	20535	53	-55.1	-85.8	263	6
2023-09-15T18:00	20564	53	-55.1	-85.2	262	6
2023-09-15T18:00	20592	52	-55.2	-85.3	263	6
2023-09-15T18:00	20615	52	-55.3	-85.4	264	6
2023-09-15T18:00	20641	52	-55.2	-85.3	266	6
2023-09-15T18:00	20665	52	-55.3	-85.4	269	6
2023-09-15T18:00	20691	51	-55.1	-85.2	272	6
2023-09-15T18:00	20720	51	-55.2	-85.3	275	7
2023-09-15T18:00	20742	51	-55.3	-85.4	277	7
2023-09-15T18:00	20769	51	-55.4	-85.4	279	7
2023-09-15T18:00	20795	51	-55.4	-85.4	280	8
2023-09-15T18:00	20821	50	-55.4	-85.4	280	8
2023-09-15T18:00	20848	50	-55.4	-85.4	280	7
2023-09-15T18:00	20874	50	-55.4	-85.4	279	7
2023-09-15T18:00	20897	50	-55.6	-85.6	278	6
2023-09-15T18:00	20923	50	-55.6	-85.6	277	5
2023-09-15T18:00	20953	49	-55.6	-85.6	276	5
2023-09-15T18:00	20976	49	-55.6	-85.6	277	5
2023-09-15T18:00	21004	49	-55.7	-85.7	280	4
2023-09-15T18:00	21026	49	-55.6	-85.6	283	4
2023-09-15T18:00	21053	49	-55.6	-85.6	286	5
2023-09-15T18:00	21075	48	-55.5	-85.5	288	5
2023-09-15T18:00	21098	48	-55.5	-85.5	289	5
2023-09-15T18:00	21123	48	-55.4	-85.4	288	5
2023-09-15T18:00	21153	48	-55.5	-86.1	286	5
2023-09-15T18:00	21175	48	-55.4	-86.0	284	4
2023-09-15T18:00	21205	48	-55.3	-85.9	281	4
2023-09-15T18:00	21227	47	-55.3	-85.4	278	4
2023-09-15T18:00	21252	47	-55.3	-85.4	276	4
2023-09-15T18:00	21279	47	-55.4	-85.4	274	3
2023-09-15T18:00	21299	47	-55.4	-85.4	273	3
2023-09-15T18:00	21318	47	-55.4	-85.4	276	2
2023-09-15T18:00	21346	46	-55.3	-85.9	284	2
2023-09-15T18:00	21371	46	-55.2	-85.8	300	2
2023-09-15T18:00	21402	46	-55.1	-85.8	317	2
2023-09-15T18:00	21427	46	-55.1	-85.8	331	2
2023-09-15T18:00	21449	46	-55.2	-85.3	340	3
2023-09-15T18:00	21479	46	-55.2	-85.3	345	3
2023-09-15T18:00	21501	45	-55.3	-85.4	348	3
2023-09-15T18:00	21523	45	-55.4	-85.4	347	2
2023-09-15T18:00	21550	45	-55.5	-85.5	342	2
2023-09-15T18:00	21580	45	-55.5	-85.5	329	1
2023-09-15T18:00	21609	45	-55.7	-85.7	296	1
2023-09-15T18:00	21639	44	-55.9	-85.8	254	1
2023-09-15T18:00	21662	44	-56.1	-85.5	236	2
2023-09-15T18:00	21690	44	-56.3	-85.6	231	2
2023-09-15T18:00	21709	44	-56.4	-85.7	232	3
2023-09-15T18:00	21740	44	-56.5	-85.8	235	3
2023-09-15T18:00	21767	43	-56.5	-85.8	240	4
2023-09-15T18:00	21798	43	-56.6	-85.8	244	4
2023-09-15T18:00	21824	43	-56.7	-85.9	247	4
2023-09-15T18:00	21853	43	-56.8	-86.0	249	5
2023-09-15T18:00	21878	43	-56.7	-85.9	252	5
2023-09-15T18:00	21906	43	-56.7	-86.4	255	5
2023-09-15T18:00	21931	42	-56.6	-86.3	259	5
2023-09-15T18:00	21958	42	-56.4	-86.2	262	5
2023-09-15T18:00	21981	42	-56.4	-86.2	264	5
2023-09-15T18:00	22012	42	-56.5	-86.3	264	5
2023-09-15T18:00	22043	42	-56.4	-86.2	261	5
2023-09-15T18:00	22064	42	-56.3	-86.1	256	5
2023-09-15T18:00	22094	41	-56.4	-86.2	253	5
2023-09-15T18:00	22121	41	-56.6	-85.8	251	5
2023-09-15T18:00	22148	41	-56.6	-85.8	250	6
2023-09-15T18:00	22178	41	-56.8	-86.0	250	6
2023-09-15T18:00	22205	41	-56.9	-86.1	251	6
2023-09-15T18:00	22230	40	-57.1	-86.2	253	7
2023-09-15T18:00	22253	40	-57.2	-86.3	255	7
2023-09-15T18:00	22281	40	-57.2	-86.3	259	7
2023-09-15T18:00	22311	40	-57.4	-86.4	262	7
2023-09-15T18:00	22333	40	-57.5	-86.5	265	7
2023-09-15T18:00	22355	40	-57.4	-86.4	268	7
2023-09-15T18:00	22389	39	-57.4	-86.4	270	7
2023-09-15T18:00	22410	39	-57.4	-86.4	273	6
2023-09-15T18:00	22445	39	-57.2	-86.3	276	6
2023-09-15T18:00	22465	39	-57.3	-86.4	278	5
2023-09-15T18:00	22497	39	-57.3	-86.4	279	5
2023-09-15T18:00	22522	39	-57.4	-86.4	278	5
2023-09-15T18:00	22548	38	-57.5	-86.5	274	5
2023-09-15T18:00	22575	38	-57.4	-86.4	270	6
2023-09-15T18:00	22601	38	-57.3	-86.4	267	6
2023-09-15T18:00	22627	38	-57.0	-86.1	266	6
2023-09-15T18:00	22651	38	-57.1	-86.7	267	7
2023-09-15T18:00	22678	38	-57.2	-86.8	271	7
2023-09-15T18:00	22703	38	-57.2	-86.8	275	7
2023-09-15T18:00	22731	37	-57.2	-86.8	280	7
2023-09-15T18:00	22753	37	-56.9	-86.6	283	7
2023-09-15T18:00	22781	37	-56.7	-86.4	286	7
2023-09-15T18:00	22806	37	-56.6	-86.3	287	8
2023-09-15T18:00	22835	37	-56.5	-86.3	287	8
2023-09-15T18:00	22862	37	-56.5	-86.8	287	8
2023-09-15T18:00	22881	36	-56.3	-86.6	287	8
2023-09-15T18:00	22908	36	-56.1	-86.5	288	8
2023-09-15T18:00	22935	36	-55.9	-86.3	289	7
2023-09-15T18:00	22957	36	-55.8	-86.3	290	7
2023-09-15T18:00	22985	36	-55.6	-86.1	290	6
2023-09-15T18:00	23013	36	-55.4	-86.0	288	5
2023-09-15T18:00	23034	36	-55.4	-86.0	281	5
2023-09-15T18:00	23064	35	-55.5	-86.1	271	4
2023-09-15T18:00	23088	35	-55.5	-86.1	259	4
2023-09-15T18:00	23119	35	-55.6	-86.1	251	4
2023-09-15T18:00	23133	35	-55.3	-85.9	247	5
2023-09-15T18:00	23166	35	-55.0	-85.7	249	5
2023-09-15T18:00	23194	35	-55.0	-85.7	253	5
2023-09-15T18:00	23215	35	-54.8	-85.5	259	5
2023-09-15T18:00	23245	34	-54.7	-85.5	264	4
2023-09-15T18:00	23270	34	-54.8	-85.5	269	4
2023-09-15T18:00	23294	34	-54.9	-85.6	271	4
2023-09-15T18:00	23325	34	-54.9	-85.6	272	4
2023-09-15T18:00	23348	34	-54.9	-85.6	271	4
2023-09-15T18:00	23380	34	-55.0	-85.7	268	4
2023-09-15T18:00	23398	34	-55.1	-85.8	263	3
2023-09-15T18:00	23432	33	-55.1	-85.8	255	3
2023-09-15T18:00	23454	33	-55.2	-85.8	247	3
2023-09-15T18:00	23477	33	-55.0	-85.7	242	3
2023-09-15T18:00	23515	33	-55.0	-85.7	240	4
2023-09-15T18:00	23540	33	-55.1	-85.8	241	4
2023-09-15T18:00	23566	33	-55.2	-85.8	244	4
2023-09-15T18:00	23596	33	-55.2	-85.8	248	4
2023-09-15T18:00	23624	32	-55.2	-85.8	251	4
2023-09-15T18:00	23654	32	-55.3	-85.9	253	4
2023-09-15T18:00	23676	32	-55.3	-85.9	255	4
2023-09-15T18:00	23701	32	-55.4	-86.0	256	4
2023-09-15T18:00	23734	32	-55.6	-86.1	257	4
2023-09-15T18:00	23761	32	-55.6	-86.1	258	4
2023-09-15T18:00	23785	32	-55.5	-86.1	257	4
2023-09-15T18:00	23815	32	-55.5	-86.1	254	4
2023-09-15T18:00	23842	31	-55.3	-85.9	248	4
2023-09-15T18:00	23869	31	-55.2	-85.8	238	3
2023-09-15T18:00	23892	31	-55.1	-85.8	226	4
2023-09-15T18:00	23920	31	-55.3	-85.9	218	4
2023-09-15T18:00	23949	31	-55.4	-86.0	213	5
2023-09-15T18:00	23976	31	-55.2	-85.8	211	6
2023-09-15T18:00	24010	31	-55.1	-85.8	211	6
2023-09-15T18:00	24037	30	-55.0	-85.7	213	7
2023-09-15T18:00	24055	30	-55.1	-85.8	217	7
2023-09-15T18:00	24089	30	-55.3	-85.9	223	8
2023-09-15T18:00	24116	30	-55.3	-85.9	230	8
2023-09-15T18:00	24146	30	-55.3	-85.9	236	9
2023-09-15T18:00	24173	30	-54.8	-86.1	242	9
2023-09-15T18:00	24197	30	-54.7	-86.1	247	10
2023-09-15T18:00	24231	30	-54.7	-86.1	251	10
2023-09-15T18:00	24250	29	-54.6	-86.0	254	10
2023-09-15T18:00	24279	29	-54.6	-86.0	258	11
2023-09-15T18:00	24308	29	-54.7	-86.1	261	10
2023-09-15T18:00	24337	29	-54.7	-86.1	264	10
2023-09-15T18:00	24368	29	-54.5	-85.9	267	10
2023-09-15T18:00	24385	29	-54.1	-85.6	269	10
2023-09-15T18:00	24415	29	-54.1	-85.6	270	9
2023-09-15T18:00	24439	29	-54.1	-85.6	271	9
2023-09-15T18:00	24471	28	-54.0	-85.5	272	8
2023-09-15T18:00	24495	28	-53.7	-85.3	272	8
2023-09-15T18:00	24520	28	-53.8	-85.4	273	8
2023-09-15T18:00	24557	28	-53.8	-85.4	274	8
2023-09-15T18:00	24576	28	-53.7	-85.3	276	8
2023-09-15T18:00	24609	28	-53.8	-85.4	279	9
2023-09-15T18:00	24630	28	-53.7	-85.3	281	9
2023-09-15T18:00	24661	28	-53.3	-85.0	283	9
2023-09-15T18:00	24695	28	-53.3	-85.0	284	9
2023-09-15T18:00	24718	27	-53.3	-85.7	284	9
2023-09-15T18:00	24741	27	-53.2	-85.6	284	9
2023-09-15T18:00	24767	27	-53.1	-85.6	284	8
2023-09-15T18:00	24792	27	-52.9	-85.4	284	7
2023-09-15T18:00	24815	27	-52.8	-85.3	283	7
2023-09-15T18:00	24852	27	-52.8	-84.7	284	6
2023-09-15T18:00	24878	27	-53.0	-84.8	284	5
2023-09-15T18:00	24897	27	-53.1	-84.9	284	5
2023-09-15T18:00	24930	26	-53.2	-85.0	283	4
2023-09-15T18:00	24958	26	-53.3	-85.0	281	4
2023-09-15T18:00	24988	26	-53.4	-85.1	278	4
2023-09-15T18:00	25014	26	-53.2	-85.0	274	4
2023-09-15T18:00	25037	26	-53.1	-84.9	270	4
2023-09-15T18:00	25064	26	-53.0	-84.8	267	5
2023-09-15T18:00	25099	26	-53.1	-84.9	265	5
2023-09-15T18:00	25122	26	-53.0	-84.8	265	5
2023-09-15T18:00	25155	26	-53.0	-85.5	266	5
2023-09-15T18:00	25179	25	-53.0	-85.5	267	6
2023-09-15T18:00	25209	25	-52.9	-85.4	268	6
2023-09-15T18:00	25234	25	-53.0	-85.5	268	6
2023-09-15T18:00	25265	25	-52.9	-85.4	266	7
2023-09-15T18:00	25290	25	-52.9	-85.4	264	7
2023-09-15T18:00	25318	25	-52.9	-85.4	261	8
2023-09-15T18:00	25350	25	-52.8	-85.3	259	8
2023-09-15T18:00	25371	25	-52.9	-85.4	257	8
2023-09-15T18:00	25405	25	-52.7	-85.3	257	8
2023-09-15T18:00	25431	25	-52.9	-85.4	258	8
2023-09-15T18:00	25463	24	-52.9	-85.4	260	9
2023-09-15T18:00	25485	24	-52.8	-85.3	261	9
2023-09-15T18:00	25513	24	-52.8	-85.3	263	9
2023-09-15T18:00	25553	24	-52.6	-85.2	264	9
2023-09-15T18:00	25576	24	-52.5	-85.1	266	9
2023-09-15T18:00	25599	24	-52.5	-85.1	268	9
2023-09-15T18:00	25630	24	-52.5	-85.1	272	8
2023-09-15T18:00	25663	24	-52.3	-85.0	277	8
2023-09-15T18:00	25683	24	-52.4	-85.1	283	7
2023-09-15T18:00	25717	23	-52.4	-85.1	289	7
2023-09-15T18:00	25743	23	-52.3	-85.0	295	7
2023-09-15T18:00	25766	23	-52.3	-85.0	300	7
2023-09-15T18:00	25796	23	-52.4	-85.1	305	7
2023-09-15T18:00	25827	23	-52.5	-85.1	310	7
2023-09-15T18:00	25851	23	-52.5	-85.1	312	6
2023-09-15T18:00	25872	23	-52.6	-85.2	313	6
2023-09-15T18:00	25907	23	-52.8	-85.3	312	6
2023-09-15T18:00	25939	23	-52.7	-85.3	308	6
2023-09-15T18:00	25959	23	-52.4	-85.1	303	6
2023-09-15T18:00	25988	22	-52.4	-85.1	296	6
2023-09-15T18:00	26016	22	-52.4	-85.1	288	6
2023-09-15T18:00	26034	22	-52.5	-85.1	280	6
2023-09-15T18:00	26064	22	-52.5	-85.1	272	7
2023-09-15T18:00	26090	22	-52.4	-85.1	265	8
2023-09-15T18:00	26113	22	-52.1	-84.8	260	8
2023-09-15T18:00	26130	22	-51.8	-85.4	258	9
2023-09-15T18:00	26164	22	-51.6	-85.2	258	10
2023-09-15T18:00	26186	22	-51.0	-84.8	259	11
2023-09-15T18:00	26220	22	-50.4	-84.4	262	11
2023-09-15T18:00	26234	22	-50.0	-85.0	266	12
2023-09-15T18:00	26270	22	-49.9	-84.9	270	12
2023-09-15T18:00	26300	21	-49.8	-84.0	274	13
2023-09-15T18:00	26321	21	-49.8	-84.0	277	13
2023-09-15T18:00	26347	21	-49.8	-84.0	280	14
2023-09-15T18:00	26371	21	-49.6	-83.8	282	14
2023-09-15T18:00	26404	21	-49.5	-83.7	283	14
2023-09-15T18:00	26428	21	-49.4	-83.7	285	14
2023-09-15T18:00	26452	21	-49.3	-83.6	286	13
2023-09-15T18:00	26479	21	-49.3	-83.6	287	12
2023-09-15T18:00	26510	21	-49.3	-83.6	288	11
2023-09-15T18:00	26541	21	-49.3	-83.6	288	11
2023-09-15T18:00	26573	21	-49.2	-83.5	287	10
2023-09-15T18:00	26596	20	-49.3	-83.6	286	10
2023-09-15T18:00	26622	20	-49.4	-83.7	285	10
2023-09-15T18:00	26652	20	-49.6	-83.8	284	9
2023-09-15T18:00	26680	20	-49.7	-83.9	283	9
2023-09-15T18:00	26720	20	-49.8	-84.0	281	9
2023-09-15T18:00	26739	20	-50.0	-84.1	278	9
2023-09-15T18:00	26760	20	-50.1	-84.2	274	9
2023-09-15T18:00	26810	20	-49.8	-84.0	270	9
2023-09-15T18:00	26825	20	-49.7	-83.9	265	8
2023-09-15T18:00	26858	20	-49.4	-83.7	260	8
2023-09-15T18:00	26889	20	-49.3	-83.6	256	8
2023-09-15T18:00	26912	20	-49.2	-83.5	252	8
2023-09-15T18:00	26941	19	-49.2	-83.5	250	8
2023-09-15T18:00	26978	19	-49.3	-83.6	249	9
2023-09-15T18:00	27005	19	-49.3	-83.6	251	9
2023-09-15T18:00	27036	19	-49.3	-83.6	254	9
2023-09-15T18:00	27065	19	-49.3	-83.6	259	9
2023-09-15T18:00	27097	19	-49.1	-83.4	264	10
2023-09-15T18:00	27117	19	-49.1	-83.4	268	10
2023-09-15T18:00	27159	19	-49.0	-83.4	271	10
2023-09-15T18:00	27190	19	-48.8	-83.2	273	11
2023-09-15T18:00	27222	19	-48.7	-83.2	274	12
2023-09-15T18:00	27244	19	-48.8	-83.2	275	12
2023-09-15T18:00	27273	18	-48.9	-83.3	276	13
2023-09-15T18:00	27310	18	-48.8	-83.2	278	14
2023-09-15T18:00	27339	18	-48.8	-83.2	280	14
2023-09-15T18:00	27362	18	-48.8	-83.2	282	15
2023-09-15T18:00	27400	18	-48.6	-83.1	284	15
2023-09-15T18:00	27426	18	-48.5	-83.0	287	15
2023-09-15T18:00	27464	18	-48.5	-83.9	289	14
2023-09-15T18:00	27498	18	-48.5	-83.9	292	13
2023-09-15T18:00	27534	18	-48.3	-83.8	294	13
2023-09-15T18:00	27545	18	-48.2	-83.7	296	12
2023-09-15T18:00	27583	18	-48.2	-82.8	298	11
2023-09-15T18:00	27608	18	-48.4	-82.9	300	11
2023-09-15T18:00	27640	18	-48.7	-83.2	302	10
2023-09-15T18:00	27660	17	-48.9	-83.3	304	10
2023-09-15T18:00	27704	17	-48.9	-83.3	307	9
2023-09-15T18:00	27728	17	-48.8	-83.2	310	9
2023-09-15T18:00	27747	17	-49.0	-83.4	313	8
2023-09-15T18:00	27788	17	-49.2	-83.5	315	8
2023-09-15T18:00	27821	17	-49.4	-83.7	315	7
2023-09-15T18:00	27845	17	-49.3	-83.6	314	7
2023-09-15T18:00	27865	17	-49.3	-83.6	311	6
2023-09-15T18:00	27900	17	-49.4	-83.7	306	6
2023-09-15T18:00	27932	17	-49.5	-83.7	300	6
2023-09-15T18:00	27965	17	-49.5	-83.7	294	6
2023-09-15T18:00	27980	17	-49.5	-83.7	289	6
2023-09-15T18:00	28024	17	-49.5	-83.7	284	7
2023-09-15T18:00	28049	16	-49.4	-83.7	281	7
2023-09-15T18:00	28078	16	-49.3	-83.6	279	8
2023-09-15T18:00	28103	16	-49.2	-83.5	277	9
2023-09-15T18:00	28134	16	-49.2	-83.5	276	10
2023-09-15T18:00	28166	16	-49.2	-83.5	274	11
2023-09-15T18:00	28195	16	-49.2	-84.4	273	12
2023-09-15T18:00	28221	16	-49.1	-84.3	273	12
2023-09-15T18:00	28250	16	-48.9	-84.2	272	13
2023-09-15T18:00	28290	16	-48.8	-84.1	272	13
2023-09-15T18:00	28316	16	-48.8	-84.1	272	13
2023-09-15T18:00	28341	16	-48.8	-84.1	272	13
2023-09-15T18:00	28377	16	-48.8	-84.1	273	13
2023-09-15T18:00	28392	16	-48.5	-83.9	274	13
2023-09-15T18:00	28432	16	-48.2	-83.7	274	13
2023-09-15T18:00	28453	15	-48.2	-83.7	274	13
2023-09-15T18:00	28476	15	-48.3	-83.8	274	13
2023-09-15T18:00	28511	15	-48.3	-83.8	272	13
2023-09-15T18:00	28544	15	-48.1	-83.6	270	12
2023-09-15T18:00	28577	15	-47.9	-83.5	266	12
2023-09-15T18:00	28596	15	-47.8	-83.4	263	12
2023-09-15T18:00	28622	15	-47.7	-83.4	260	13
2023-09-15T18:00	28659	15	-47.8	-83.4	259	13
2023-09-15T18:00	28680	15	-47.6	-83.3	259	13
2023-09-15T18:00	28717	15	-47.4	-83.1	260	14
2023-09-15T18:00	28742	15	-47.2	-83.0	262	14
2023-09-15T18:00	28777	15	-47.2	-83.0	265	15
2023-09-15T18:00	28792	15	-46.8	-83.8	268	15
2023-09-15T18:00	28833	15	-46.5	-83.6	270	16
2023-09-15T18:00	28868	15	-46.5	-82.5	273	16
2023-09-15T18:00	28887	14	-46.7	-82.6	276	16
2023-09-15T18:00	28922	14	-46.7	-82.6	279	16
2023-09-15T18:00	28959	14	-46.8	-82.7	281	15
2023-09-15T18:00	28979	14	-46.7	-82.6	284	15
2023-09-15T18:00	29018	14	-46.6	-82.6	286	14
2023-09-15T18:00	29037	14	-46.6	-82.6	288	14
2023-09-15T18:00	29076	14	-46.5	-82.5	289	14
2023-09-15T18:00	29098	14	-46.4	-83.5	290	13
2023-09-15T18:00	29131	14	-46.3	-83.4	291	13
2023-09-15T18:00	29165	14	-46.3	-83.4	291	13
2023-09-15T18:00	29183	14	-45.9	-83.2	290	12
2023-09-15T18:00	29219	14	-45.6	-82.9	289	12
2023-09-15T18:00	29245	14	-45.4	-82.8	288	12
2023-09-15T18:00	29278	14	-45.1	-82.6	286	12
2023-09-15T18:00	29304	14	-45.1	-82.6	284	12
2023-09-15T18:00	29337	14	-45.0	-82.5	282	12
2023-09-15T18:00	29379	13	-45.1	-82.6	281	12
2023-09-15T18:00	29405	13	-45.0	-82.5	280	12
2023-09-15T18:00	29437	13	-45.0	-82.5	280	12
2023-09-15T18:00	29458	13	-44.9	-82.5	280	13
2023-09-15T18:00	29478	13	-44.6	-82.2	282	13
2023-09-15T18:00	29507	13	-44.4	-82.1	283	13
2023-09-15T18:00	29546	13	-44.2	-82.0	286	13
2023-09-15T18:00	29561	13	-44.2	-82.0	289	13
2023-09-15T18:00	29595	13	-44.0	-81.8	292	14
2023-09-15T18:00	29618	13	-43.9	-81.8	296	15
2023-09-15T18:00	29657	13	-43.9	-81.8	299	15
2023-09-15T18:00	29694	13	-43.8	-81.7	301	16
2023-09-15T18:00	29716	13	-43.6	-81.5	303	17
2023-09-15T18:00	29745	13	-43.5	-81.5	305	18
2023-09-15T18:00	29791	13	-43.5	-81.5	306	18
2023-09-15T18:00	29797	13	-43.2	-81.3	307	18
2023-09-15T18:00	29828	13	-42.9	-81.1	309	17
2023-09-15T18:00	29852	13	-43.0	-81.1	309	16
2023-09-15T18:00	29891	12	-42.8	-81.0	311	15
2023-09-15T18:00	29924	12	-42.5	-80.8	312	14
2023-09-15T18:00	29939	12	-42.8	-81.0	314	12
2023-09-15T18:00	29949	12	-42.7	-80.9	316	11
2023-09-15T18:00	29990	12	-42.5	-80.8	319	11
2023-09-15T18:00	30033	12	-42.4	-80.7	321	10
2023-09-15T18:00	30047	12	-42.4	-80.7	322	10
2023-09-15T18:00	30086	12	-42.2	-80.6	322	11
2023-09-15T18:00	30114	12	-42.3	-80.6	321	11
2023-09-15T18:00	30145	12	-42.4	-80.7	320	11
2023-09-15T18:00	30176	12	-42.6	-80.8	320	11
2023-09-15T18:00	30202	12	-42.8	-81.0	319	11
2023-09-15T18:00	30237	12	-43.0	-81.1	320	11
2023-09-15T18:00	30272	12	-43.0	-81.1	321	11
2023-09-15T18:00	30277	12	-43.0	-81.1	322	10
2023-09-15T18:00	30323	12	-42.9	-81.1	324	9
2023-09-15T18:00	30352	12	-43.0	-81.1	328	8
2023-09-15T18:00	30373	12	-43.0	-81.1	332	8
2023-09-15T18:00	30410	12	-42.9	-81.1	336	7
2023-09-15T18:00	30418	12	-42.8	-81.0	341	6
2023-09-15T18:00	30469	11	-42.6	-80.8	344	6
2023-09-15T18:00	30487	11	-42.6	-80.8	345	6
2023-09-15T18:00	30521	11	-42.6	-80.8	343	6
2023-09-15T18:00	30552	11	-42.4	-80.7	341	7
2023-09-15T18:00	30588	11	-42.4	-80.7	338	8
2023-09-15T18:00	30604	11	-42.5	-80.8	335	9
2023-09-15T18:00	30631	11	-42.5	-80.8	333	10
2023-09-15T18:00	30676	11	-42.5	-80.8	330	10
2023-09-15T18:00	30691	11	-42.4	-80.7	328	10
2023-09-15T18:00	30731	11	-42.3	-80.6	327	10
2023-09-15T18:00	30763	11	-42.1	-80.5	327	10
2023-09-15T18:00	30795	11	-42.0	-80.4	328	9
2023-09-15T18:00	30829	11	-41.8	-80.3	330	8
2023-09-15T18:00	30861	11	-41.6	-80.1	332	7
2023-09-15T18:00	30894	11	-41.5	-80.1	331	7
2023-09-15T18:00	30913	11	-41.5	-80.1	328	7
2023-09-15T18:00	30955	11	-41.4	-80.0	324	7
2023-09-15T18:00	30972	11	-41.3	-79.9	321	7
2023-09-15T18:00	30992	11	-41.4	-80.0	320	7
2023-09-15T18:00	31044	11	-41.4	-80.0	320	6
2023-09-15T18:00	31067	10	-40.9	-79.7	321	5
2023-09-15T18:00	31101	10	-40.3	-79.2	322	4
2023-09-15T18:00	31143	10	-40.1	-79.1	318	3
2023-09-15T18:00	31163	10	-40.0	-79.0	302	2
2023-09-15T18:00	31191	10	-39.7	-78.8	263	2
2023-09-15T18:00	31220	10	-39.6	-78.8	234	2
2023-09-15T18:00	31250	10	-39.4	-78.6	223	3
2023-09-15T18:00	31270	10	-39.3	-78.5	218	4
2023-09-15T18:00	31296	10	-39.0	-78.3	216	5
2023-09-15T18:00	31335	10	-38.8	-78.2	214	5
2023-09-15T18:00	31360	10	-38.5	-78.0	215	5
2023-09-15T18:00	31391	10	-38.3	-77.9	218	5
2023-09-15T18:00	31414	10	-38.1	-77.7	225	4
2023-09-15T18:00	31443	10	-37.8	-77.5	232	4
2023-09-15T18:00	31486	10	-37.7	-77.4	236	5
2023-09-15T18:00	31500	10	-37.6	-77.4	236	5
2023-09-15T18:00	31525	10	-37.5	-77.3	232	6
2023-09-15T18:00	31566	10	-37.4	-77.2	226	7
2023-09-15T18:00	31588	10	-37.1	-77.0	220	8
2023-09-15T18:00	31615	10	-37.2	-77.1	216	8
2023-09-15T18:00	31665	10	-37.3	-77.2	214	9
2023-09-15T18:00	31683	10	-37.4	-77.2	213	10
2023-09-15T18:00	31706	10	-37.4	-77.2	213	10
2023-09-15T18:00	31733	10	-37.4	-77.2	215	10
2023-09-15T18:00	31766	9	-37.3	-77.2	216	10
2023-09-15T18:00	31789	9	-37.4	-77.2	217	9
2023-09-15T18:00	31811	9	-37.3	-77.2	217	9
2023-09-15T18:00	31847	9	-37.3	-77.2	217	9
2023-09-15T18:00	31883	9	-37.3	-77.2	216	8
2023-09-15T18:00	31905	9	-37.4	-77.2	215	7
2023-09-15T18:00	31936	9	-37.3	-77.2	214	7
2023-09-15T18:00	31967	9	-37.1	-77.0	215	6
2023-09-15T18:00	32002	9	-37.4	-77.2	222	4
2023-09-15T18:00	32046	9	-37.7	-77.4	230	4
2023-09-15T18:00	32085	9	-37.9	-77.6	240	3
2023-09-15T18:00	32105	9	-38.1	-77.7	253	2
2023-09-15T18:00	32123	9	-38.3	-77.9	264	2
2023-09-15T18:00	32165	9	-38.5	-78.0	266	1
2023-09-15T18:00	32205	9	-38.6	-78.1	248	1
2023-09-15T18:00	32227	9	-38.5	-78.0	202	1
2023-09-15T18:00	32256	9	-37.8	-77.5	179	2
2023-09-15T18:00	32281	9	-37.7	-77.4	173	2
2023-09-15T18:00	32313	9	-37.7	-77.4	172	3
2023-09-15T18:00	32347	9	-37.9	-77.6	172	4
2023-09-15T18:00	32372	9	-38.1	-77.7	173	5
2023-09-15T18:00	32410	9	-38.1	-77.7	173	6
2023-09-15T18:00	32423	9	-38.2	-77.8	173	7
2023-09-15T18:00	32484	9	-38.4	-77.9	173	8
2023-09-15T18:00	32510	9	-38.6	-78.1	174	8
2023-09-15T18:00	32521	8	-38.8	-78.2	175	9
2023-09-15T18:00	32558	8	-38.9	-78.3	177	10
2023-09-15T18:00	32600	8	-39.1	-78.4	180	11
2023-09-15T18:00	32611	8	-39.1	-78.4	183	12
2023-09-15T18:00	32668	8	-38.8	-78.2	187	12
2023-09-15T18:00	32691	8	-38.7	-78.1	190	13
2023-09-15T18:00	32706	8	-38.9	-78.3	194	13
2023-09-15T18:00	32748	8	-39.0	-78.3	198	14
2023-09-15T18:00	32767	8	-39.1	-78.4	201	14
2023-09-15T18:00	32802	8	-39.3	-78.5	205	14
2023-09-15T18:00	32859	8	-39.4	-78.6	208	15
2023-09-15T18:00	32910	8	-39.6	-78.8	212	16
2023-09-15T18:00	32927	8	-39.7	-78.8	214	17
2023-09-15T18:00	32956	8	-39.7	-78.8	215	18
2023-09-15T18:00	32994	8	-39.7	-78.8	217	19
2023-09-15T18:00	33022	8	-39.5	-78.7	219	19
2023-09-15T18:00	33050	8	-39.6	-78.8	220	20
2023-09-15T18:00	33098	8	-39.7	-78.8	222	20
2023-09-15T18:00	33137	8	-39.9	-79.0	223	20
2023-09-15T18:00	33163	8	-40.1	-79.1	225	20
2023-09-15T18:00	33202	8	-40.3	-79.2	226	19
2023-09-15T18:00	33246	8	-40.5	-79.4	228	19
2023-09-15T18:00	33255	8	-40.6	-79.5	230	18
2023-09-15T18:00	33284	8	-40.6	-79.5	232	17
2023-09-15T18:00	33348	8	-39.9	-79.0	235	15
2023-09-15T18:00	33349	8	-39.9	-79.0	236	14
2023-09-15T18:00	33414	7	-39.5	-78.7	237	13
2023-09-15T18:00	33453	7	-39.2	-78.5	238	12
2023-09-15T18:00	33482	7	-39.1	-78.4	240	13
2023-09-15T18:00	33508	7	-39.0	-78.3	241	13
2023-09-15T18:00	33550	7	-38.8	-78.2	242	13
2023-09-15T18:00	33575	7	-38.8	-78.2	243	14
2023-09-15T18:00	33588	7	-38.9	-78.3	244	14
2023-09-15T18:00	33620	7	-39.1	-78.4	246	14
2023-09-15T18:00	33637	7	-39.3	-78.5	249	14
2023-09-15T18:00	33708	7	-39.5	-78.7	251	14
2023-09-15T18:00	33716	7	-39.1	-78.4	255	14
2023-09-15T18:00	33736	7	-38.8	-78.2	255	13
2023-09-15T18:00	33780	7	-38.6	-78.1	254	12
2023-09-15T18:00	33791	7	-38.7	-78.1	253	11
2023-09-15T18:00	33834	7	-38.5	-78.0	252	10
2023-09-15T18:00	33861	7	-38.5	-78.0	252	9
2023-09-15T18:00	33910	7	-38.4	-77.9	253	8
2023-09-15T18:00	33934	7	-37.9	-77.6	256	7
2023-09-15T18:00	33953	7	-37.7	-77.4	258	7
2023-09-15T18:00	34031	7	-37.4	-77.2	258	7
2023-09-15T18:00	34049	7	-37.3	-77.2	257	7
2023-09-15T18:00	34074	7	-37.5	-77.3	256	7
2023-09-15T18:00	34106	7	-37.8	-77.5	253	8
2023-09-15T18:00	34138	7	-38.0	-77.6	252	9
2023-09-15T18:00	34172	7	-38.1	-77.7	251	9
2023-09-15T18:00	34176	7	-38.2	-77.8	249	10
2023-09-15T18:00	34193	7	-38.3	-77.9	248	10
2023-09-15T18:00	34228	7	-38.3	-77.9	247	11
2023-09-15T18:00	34283	7	-38.2	-77.8	248	11
2023-09-15T18:00	34343	7	-38.4	-77.9	252	12
2023-09-15T18:00	34363	7	-38.3	-77.9	255	12
2023-09-15T18:00	34394	6	-38.2	-77.8	259	13
2023-09-15T18:00	34395	6	-37.9	-77.6	263	13
2023-09-15T18:00	34458	6	-37.7	-77.4	267	14
2023-09-15T18:00	34477	6	-37.7	-77.4	271	14
2023-09-15T18:00	34512	6	-37.5	-77.3	275	14
2023-09-15T18:00	34550	6	-37.7	-77.4	282	14
2023-09-15T18:00	34587	6	-37.5	-77.3	286	14
2023-09-15T18:00	34621	6	-37.4	-77.2	290	15
2023-09-15T18:00	34658	6	-37.3	-77.2	293	15
2023-09-15T18:00	34718	6	-37.3	-77.2	298	15
2023-09-15T18:00	34741	6	-37.3	-77.2	301	16
2023-09-15T18:00	34764	6	-37.3	-77.2	302	15
2023-09-15T18:00	34803	6	-37.3	-77.2	304	15
2023-09-15T18:00	34824	6	-37.2	-77.1	304	15
2023-09-15T18:00	34840	6	-36.9	-76.9	304	14
2023-09-15T18:00	34861	6	-36.3	-76.5	303	14
2023-09-15T18:00	34900	6	-35.9	-76.2	300	13
2023-09-15T18:00	34932	6	-35.9	-76.2	296	12
2023-09-15T18:00	34983	6	-35.9	-76.2	295	11
2023-09-15T18:00	34991	6	-35.9	-76.2	295	11
2023-09-15T18:00	35023	6	-35.6	-76.0	296	10
2023-09-15T18:00	35046	6	-35.4	-75.8	297	10
2023-09-15T18:00	35074	6	-35.3	-75.8	298	10
2023-09-15T18:00	35129	6	-35.3	-75.8	300	10
2023-09-15T18:00	35150	6	-35.3	-75.8	300	10
2023-09-15T18:00	35152	6	-35.2	-75.7	301	10
2023-09-15T18:00	35180	6	-35.1	-75.6	301	10
2023-09-15T18:00	35217	6	-35.0	-75.6	300	10
2023-09-16T00:00	-999					
2023-09-16T00:00	135	1005	15.6	9.6	119	4
2023-09-16T00:00	160	1002	15.7	9.0	120	6
2023-09-16T00:00	189	998	16.1	8.7	121	8
2023-09-16T00:00	218	995	16.1	8.5	122	10
2023-09-16T00:00	247	991	16.2	8.3	123	11
2023-09-16T00:00	278	988	16.1	8.0	124	13
2023-09-16T00:00	298	985	16.3	7.8	125	14
2023-09-16T00:00	324	983	16.5	7.4	126	15
2023-09-16T00:00	345	980	17.2	6.6	128	15
2023-09-16T00:00	369	977	17.5	6.2	130	15
2023-09-16T00:00	392	975	17.4	6.2	132	15
2023-09-16T00:00	421	972	17.2	6.8	134	15
2023-09-16T00:00	449	968	17.0	7.1	135	15
2023-09-16T00:00	477	965	16.7	7.4	136	15
2023-09-16T00:00	499	963	16.6	8.2	137	14
2023-09-16T00:00	523	960	16.4	9.1	139	14
2023-09-16T00:00	547	957	16.2	9.9	141	14
2023-09-16T00:00	574	954	16.0	9.8	143	14
2023-09-16T00:00	604	951	15.7	9.6	145	14
2023-09-16T00:00	631	948	15.5	9.5	147	15
2023-09-16T00:00	661	945	15.2	9.5	149	15
2023-09-16T00:00	689	941	15.1	9.5	150	14
2023-09-16T00:00	716	938	14.9	9.4	151	14
2023-09-16T00:00	744	935	14.7	8.9	151	14
2023-09-16T00:00	775	932	14.5	9.1	152	13
2023-09-16T00:00	796	929	14.4	8.9	152	12
2023-09-16T00:00	817	927	14.3	8.9	152	12
2023-09-16T00:00	842	924	14.1	8.8	152	11
2023-09-16T00:00	869	922	14.1	8.2	152	11
2023-09-16T00:00	895	919	13.9	8.1	152	10
2023-09-16T00:00	917	916	13.7	7.9	153	10
2023-09-16T00:00	944	914	13.7	7.6	154	10
2023-09-16T00:00	966	911	13.5	7.4	155	9
2023-09-16T00:00	993	908	13.4	7.1	156	9
2023-09-16T00:00	1024	905	13.1	7.0	156	9
2023-09-16T00:00	1047	902	13.0	7.2	155	8
2023-09-16T00:00	1074	899	12.7	7.2	154	8
2023-09-16T00:00	1099	897	12.5	7.2	152	8
2023-09-16T00:00	1122	894	12.3	7.3	151	8
2023-09-16T00:00	1150	891	12.1	7.1	150	8
2023-09-16T00:00	1174	889	11.8	7.0	152	8
2023-09-16T00:00	1203	886	11.6	6.9	154	7
2023-09-16T00:00	1225	883	11.4	6.8	158	7
2023-09-16T00:00	1253	881	11.2	6.8	162	7
2023-09-16T00:00	1278	878	10.9	6.6	165	7
2023-09-16T00:00	1303	875	10.8	6.3	166	7
2023-09-16T00:00	1326	873	10.6	6.4	167	7
2023-09-16T00:00	1354	870	10.3	6.2	167	7
2023-09-16T00:00	1383	867	10.0	6.1	168	7
2023-09-16T00:00	1420	863	9.7	5.9	169	7
2023-09-16T00:00	1449	860	9.5	5.8	171	7
2023-09-16T00:00	1476	857	9.2	5.7	173	7
2023-09-16T00:00	1502	854	8.9	5.5	175	7
2023-09-16T00:00	1532	852	8.7	5.6	177	7
2023-09-16T00:00	1554	849	8.5	5.7	180	7
2023-09-16T00:00	1583	846	8.2	5.6	184	7
2023-09-16T00:00	1609	843	8.0	5.6	189	7
2023-09-16T00:00	1637	841	7.7	5.6	194	7
2023-09-16T00:00	1665	838	7.4	5.5	199	7
2023-09-16T00:00	1697	835	7.2	5.6	201	7
2023-09-16T00:00	1722	832	6.9	5.4	202	7
2023-09-16T00:00	1755	829	6.7	5.2	202	7
2023-09-16T00:00	1786	826	6.5	5.2	199	7
2023-09-16T00:00	1813	823	6.4	4.3	193	6
2023-09-16T00:00	1841	820	6.6	3.0	184	6
2023-09-16T00:00	1867	817	6.7	2.3	173	6
2023-09-16T00:00	1889	815	7.0	0.5	165	6
2023-09-16T00:00	1909	813	8.0	-5.2	161	6
2023-09-16T00:00	1933	811	9.4	-16.8	160	7
2023-09-16T00:00	1955	809	9.9	-17.1	160	6
2023-09-16T00:00	1982	806	10.9	-25.8	160	6
2023-09-16T00:00	2005	804	11.2	-29.2	158	6
2023-09-16T00:00	2026	802	11.7	-33.6	155	6
2023-09-16T00:00	2050	800	11.8	-32.6	153	6
2023-09-16T00:00	2073	797	11.6	-31.8	152	7
2023-09-16T00:00	2095	795	11.5	-29.7	151	7
2023-09-16T00:00	2121	793	11.5	-24.5	151	7
2023-09-16T00:00	2143	791	11.6	-25.3	151	7
2023-09-16T00:00	2168	788	11.7	-28.6	151	7
2023-09-16T00:00	2189	786	11.7	-30.6	151	6
2023-09-16T00:00	2213	784	11.7	-32.6	152	6
2023-09-16T00:00	2237	782	11.9	-33.0	153	6
2023-09-16T00:00	2261	779	11.8	-33.0	155	6
2023-09-16T00:00	2288	777	11.6	-33.1	157	6
2023-09-16T00:00	2309	775	11.4	-32.8	158	6
2023-09-16T00:00	2335	773	11.3	-32.9	158	6
2023-09-16T00:00	2359	770	11.0	-32.6	158	7
2023-09-16T00:00	2388	768	10.9	-32.7	157	7
2023-09-16T00:00	2411	766	10.8	-33.6	156	7
2023-09-16T00:00	2440	763	10.7	-33.7	155	7
2023-09-16T00:00	2465	761	10.7	-34.7	154	6
2023-09-16T00:00	2491	758	10.6	-34.7	152	6
2023-09-16T00:00	2516	756	10.5	-37.8	149	6
2023-09-16T00:00	2540	754	10.3	-37.9	146	6
2023-09-16T00:00	2564	752	10.2	-38.7	143	6
2023-09-16T00:00	2586	750	10.1	-38.7	140	5
2023-09-16T00:00	2613	747	10.2	-37.9	138	5
2023-09-16T00:00	2637	745	10.1	-38.0	136	5
2023-09-16T00:00	2657	743	10.0	-38.1	136	5
2023-09-16T00:00	2679	741	9.9	-38.1	140	5
2023-09-16T00:00	2708	739	9.7	-38.2	146	5
2023-09-16T00:00	2734	737	9.6	-33.1	153	5
2023-09-16T00:00	2755	735	9.5	-27.6	160	5
2023-09-16T00:00	2778	733	9.3	-26.2	165	5
2023-09-16T00:00	2799	731	9.2	-22.7	168	4
2023-09-16T00:00	2821	729	9.1	-18.6	169	4
2023-09-16T00:00	2845	727	8.9	-15.1	170	4
2023-09-16T00:00	2868	725	8.7	-14.2	171	5
2023-09-16T00:00	2893	722	8.5	-14.2	170	5
2023-09-16T00:00	2918	720	8.3	-13.9	169	5
2023-09-16T00:00	2945	718	8.0	-13.1	166	5
2023-09-16T00:00	2977	715	7.7	-12.9	164	5
2023-09-16T00:00	3003	713	7.4	-11.5	163	5
2023-09-16T00:00	3029	711	7.2	-11.3	163	6
2023-09-16T00:00	3053	708	7.1	-13.0	165	6
2023-09-16T00:00	3079	706	7.0	-12.6	168	6
2023-09-16T00:00	3105	704	6.9	-13.0	171	6
2023-09-16T00:00	3128	702	6.9	-14.3	172	6
2023-09-16T00:00	3150	700	6.8	-15.4	172	6
2023-09-16T00:00	3175	698	6.6	-15.6	171	6
2023-09-16T00:00	3201	696	6.5	-16.3	170	6
2023-09-16T00:00	3228	694	6.2	-16.7	169	6
2023-09-16T00:00	3259	691	6.0	-17.5	169	7
2023-09-16T00:00	3285	689	5.9	-18.7	168	7
2023-09-16T00:00	3317	686	5.7	-18.9	168	7
2023-09-16T00:00	3337	684	5.6	-19.0	166	7
2023-09-16T00:00	3367	682	5.3	-19.0	164	7
2023-09-16T00:00	3390	680	5.1	-19.0	161	7
2023-09-16T00:00	3417	678	4.9	-19.0	158	6
2023-09-16T00:00	3439	676	4.8	-19.1	155	6
2023-09-16T00:00	3467	674	4.7	-17.6	153	6
2023-09-16T00:00	3494	671	4.5	-18.2	151	6
2023-09-16T00:00	3526	669	4.2	-15.5	150	6
2023-09-16T00:00	3556	666	3.9	-14.3	150	6
2023-09-16T00:00	3583	664	3.6	-12.3	151	7
2023-09-16T00:00	3611	662	3.3	-12.2	152	7
2023-09-16T00:00	3637	660	3.1	-12.0	154	7
2023-09-16T00:00	3667	657	2.8	-11.5	154	7
2023-09-16T00:00	3700	655	2.5	-11.5	155	7
2023-09-16T00:00	3726	652	2.3	-11.5	155	6
2023-09-16T00:00	3755	650	2.0	-11.9	155	6
2023-09-16T00:00	3781	648	1.7	-12.0	154	6
2023-09-16T00:00	3805	646	1.5	-12.1	153	6
2023-09-16T00:00	3827	644	1.3	-12.0	152	6
2023-09-16T00:00	3849	642	1.1	-12.1	151	6
2023-09-16T00:00	3873	641	0.9	-12.4	151	6
2023-09-16T00:00	3895	639	0.8	-12.5	152	6
2023-09-16T00:00	3925	637	0.6	-12.4	156	6
2023-09-16T00:00	3949	634	0.5	-13.5	161	6
2023-09-16T00:00	3980	632	0.3	-14.5	167	6
2023-09-16T00:00	4004	630	0.1	-14.6	172	5
2023-09-16T00:00	4031	628	-0.1	-14.6	177	5
2023-09-16T00:00	4050	627	-0.3	-14.9	181	4
2023-09-16T00:00	4074	625	-0.4	-14.6	181	4
2023-09-16T00:00	4104	622	-0.6	-16.0	176	4
2023-09-16T00:00	4137	620	-0.8	-17.0	169	4
2023-09-16T00:00	4167	618	-1.0	-16.8	163	4
2023-09-16T00:00	4191	616	-1.2	-17.2	159	4
2023-09-16T00:00	4217	614	-1.4	-17.8	158	4
2023-09-16T00:00	4246	611	-1.7	-17.9	159	4
2023-09-16T00:00	4281	609	-1.9	-17.8	161	4
2023-09-16T00:00	4308	606	-2.2	-17.0	162	3
2023-09-16T00:00	4333	605	-2.4	-16.6	161	3
2023-09-16T00:00	4355	603	-2.5	-16.6	156	2
2023-09-16T00:00	4388	600	-2.6	-16.7	149	2
2023-09-16T00:00	4421	598	-2.9	-17.1	142	2
2023-09-16T00:00	4452	596	-3.1	-17.5	136	2
2023-09-16T00:00	4484	593	-3.2	-18.0	135	2
2023-09-16T00:00	4510	591	-3.4	-18.2	138	2
2023-09-16T00:00	4542	589	-3.7	-18.4	147	2
2023-09-16T00:00	4563	587	-3.9	-18.7	160	2
2023-09-16T00:00	4585	586	-4.0	-19.1	173	2
2023-09-16T00:00	4613	584	-4.2	-19.2	180	2
2023-09-16T00:00	4642	582	-4.5	-19.2	183	2
2023-09-16T00:00	4664	580	-4.6	-19.2	183	3
2023-09-16T00:00	4697	577	-4.6	-19.9	181	3
2023-09-16T00:00	4732	575	-4.7	-20.8	179	4
2023-09-16T00:00	4756	573	-4.9	-21.3	177	4
2023-09-16T00:00	4784	571	-5.0	-21.7	177	4
2023-09-16T00:00	4813	569	-5.2	-22.2	178	5
2023-09-16T00:00	4843	567	-5.3	-22.5	182	5
2023-09-16T00:00	4869	565	-5.4	-22.9	187	5
2023-09-16T00:00	4910	562	-5.5	-24.4	192	5
2023-09-16T00:00	4945	560	-5.3	-25.6	196	6
2023-09-16T00:00	4967	558	-5.5	-25.8	199	7
2023-09-16T00:00	4995	556	-5.6	-26.1	200	7
2023-09-16T00:00	5030	554	-5.8	-26.0	200	8
2023-09-16T00:00	5055	552	-6.1	-26.0	200	8
2023-09-16T00:00	5077	550	-6.3	-25.7	200	9
2023-09-16T00:00	5106	548	-6.4	-25.0	200	9
2023-09-16T00:00	5143	546	-6.7	-25.1	199	9
2023-09-16T00:00	5171	544	-6.9		199	9
2023-09-16T00:00	5197	542	-7.1	-25.2	199	9
2023-09-16T00:00	5224	540	-7.4	-25.3	198	10
2023-09-16T00:00	5251	538	-7.6	-25.4	196	10
2023-09-16T00:00	5276	536	-7.8	-25.5	193	10
2023-09-16T00:00	5299	535	-8.0	-25.5	190	10
2023-09-16T00:00	5333	532	-8.3	-26.0	186	9
2023-09-16T00:00	5365	530	-8.5	-26.2	183	9
2023-09-16T00:00	5384	529	-8.7	-26.1	182	8
2023-09-16T00:00	5408	527	-8.8	-25.8	183	8
2023-09-16T00:00	5434	526	-9.0	-24.7	184	7
2023-09-16T00:00	5458	524	-9.3	-24.8	186	7
2023-09-16T00:00	5495	521	-9.6	-24.5	186	8
2023-09-16T00:00	5527	519	-9.9	-24.6	186	8
2023-09-16T00:00	5549	518	-10.1	-24.7	185	8
2023-09-16T00:00	5568	516	-10.3	-24.6	183	9
2023-09-16T00:00	5589	515	-10.4	-25.0	181	9
2023-09-16T00:00	5612	513	-10.6	-25.5	179	9
2023-09-16T00:00	5642	512	-10.8	-25.9	177	9
2023-09-16T00:00	5667	510	-11.0	-26.0	176	8
2023-09-16T00:00	5688	508	-11.2	-26.0	175	8
2023-09-16T00:00	5717	507	-11.5	-25.8	175	8
2023-09-16T00:00	5747	505	-11.8	-25.7	174	8
2023-09-16T00:00	5769	503	-12.0	-26.1	173	8
2023-09-16T00:00	5796	501	-12.2	-26.3	172	8
2023-09-16T00:00	5829	499	-12.5	-26.6	172	8
2023-09-16T00:00	5862	497	-12.8	-27.5	174	8
2023-09-16T00:00	5897	495	-13.1	-27.1	176	8
2023-09-16T00:00	5920	493	-13.3	-27.6	178	9
2023-09-16T00:00	5941	492	-13.5	-27.9	180	9
2023-09-16T00:00	5965	490	-13.8	-28.4	182	8
2023-09-16T00:00	5995	488	-14.0	-29.5	182	8
2023-09-16T00:00	6017	487	-14.1	-30.1	181	8
2023-09-16T00:00	6043	485	-14.4	-30.1	179	8
2023-09-16T00:00	6072	483	-14.7	-30.2	177	8
2023-09-16T00:00	6103	481	-15.0	-30.2	176	8
2023-09-16T00:00	6135	479	-15.3	-30.2	176	9
2023-09-16T00:00	6165	478	-15.5	-30.9	177	9
2023-09-16T00:00	6186	476	-15.7	-30.9	177	9
2023-09-16T00:00	6207	475	-15.9	-30.9	176	10
2023-09-16T00:00	6229	474	-16.1	-30.9	175	10
2023-09-16T00:00	6250	472	-16.3	-30.9	173	10
2023-09-16T00:00	6269	471	-16.4	-31.0	173	10
2023-09-16T00:00	6301	469	-16.7	-30.7	172	10
2023-09-16T00:00	6333	467	-17.0	-30.2	172	9
2023-09-16T00:00	6364	465	-17.2	-29.6	171	9
2023-09-16T00:00	6386	464	-17.4	-30.8	169	8
2023-09-16T00:00	6417	462	-17.6	-30.9	166	8
2023-09-16T00:00	6442	460	-17.9	-30.9	165	8
2023-09-16T00:00	6472	458	-18.2	-30.6	165	8
2023-09-16T00:00	6505	456	-18.5	-30.6	167	8
2023-09-16T00:00	6540	454	-18.8	-30.3	170	8
2023-09-16T00:00	6564	453	-19.0	-30.8	172	8
2023-09-16T00:00	6589	451	-19.2	-32.0	172	9
2023-09-16T00:00	6610	450	-19.4	-32.8	170	9
2023-09-16T00:00	6641	448	-19.6	-32.8	167	9
2023-09-16T00:00	6679	446	-19.9	-34.0	165	9
2023-09-16T00:00	6700	445	-20.0	-34.7	163	9
2023-09-16T00:00	6722	443	-20.2	-34.3	163	9
2023-09-16T00:00	6742	442	-20.4	-33.8	164	8
2023-09-16T00:00	6767	441	-20.6	-32.9	165	8
2023-09-16T00:00	6799	439	-20.9	-32.8	167	8
2023-09-16T00:00	6825	437	-21.1	-32.8	168	8
2023-09-16T00:00	6855	435	-21.4	-32.8	168	8
2023-09-16T00:00	6877	434	-21.6	-33.0	167	8
2023-09-16T00:00	6898	433	-21.7	-33.2	165	8
2023-09-16T00:00	6925	431	-21.9	-32.6	163	8
2023-09-16T00:00	6961	429	-22.3	-32.4	161	8
2023-09-16T00:00	6993	427	-22.5	-32.7	162	8
2023-09-16T00:00	7023	426	-22.8	-32.1	163	9
2023-09-16T00:00	7054	424	-23.0	-31.7	163	9
2023-09-16T00:00	7076	422	-23.2	-31.8	163	9
2023-09-16T00:00	7098	421	-23.4	-31.9	162	9
2023-09-16T00:00	7129	419	-23.7	-31.6	161	8
2023-09-16T00:00	7161	418	-24.0	-31.7	159	8
2023-09-16T00:00	7185	416	-24.2	-31.8	158	8
2023-09-16T00:00	7217	414	-24.5	-32.4	157	7
2023-09-16T00:00	7240	413	-24.6	-32.6	158	8
2023-09-16T00:00	7264	412	-24.7	-33.4	160	8
2023-09-16T00:00	7290	410	-24.9	-33.7	161	8
2023-09-16T00:00	7317	409	-25.1	-33.8	162	8
2023-09-16T00:00	7352	407	-25.4	-34.3	161	8
2023-09-16T00:00	7379	405	-25.6	-34.9	160	8
2023-09-16T00:00	7412	403	-25.8	-35.1	157	8
2023-09-16T00:00	7444	402	-26.0	-35.6	155	8
2023-09-16T00:00	7470	400	-26.2	-35.7	154	8
2023-09-16T00:00	7497	399	-26.5	-36.0	155	8
2023-09-16T00:00	7524	397	-26.7	-36.3	157	8
2023-09-16T00:00	7561	395	-27.0	-36.7	159	8
2023-09-16T00:00	7583	394	-27.1	-37.0	160	8
2023-09-16T00:00	7612	392	-27.3	-36.8	162	7
2023-09-16T00:00	7649	390	-27.7	-36.7	164	7
2023-09-16T00:00	7687	388	-28.1	-36.8	166	7
2023-09-16T00:00	7718	387	-28.4	-37.1	168	7
2023-09-16T00:00	7748	385	-28.6	-37.5	169	7
2023-09-16T00:00	7778	383	-28.9	-38.0	169	7
2023-09-16T00:00	7808	382	-29.1	-38.2	166	7
2023-09-16T00:00	7845	380	-29.4	-38.8	164	7
2023-09-16T00:00	7872	378	-29.6	-39.5	163	7
2023-09-16T00:00	7893	377	-29.7	-40.1	164	7
2023-09-16T00:00	7914	376	-29.8	-40.1	166	7
2023-09-16T00:00	7933	375	-30.0	-40.1	168	8
2023-09-16T00:00	7955	374	-30.2	-40.5	170	8
2023-09-16T00:00	7983	372	-30.4	-41.0	172	8
2023-09-16T00:00	8020	371	-30.6	-41.5	174	9
2023-09-16T00:00	8051	369	-30.9	-42.0	176	9
2023-09-16T00:00	8070	368	-31.0	-42.2	178	8
2023-09-16T00:00	8088	367	-31.2	-42.5	180	8
2023-09-16T00:00	8115	366	-31.4	-43.0	183	7
2023-09-16T00:00	8142	364	-31.6	-43.2	186	7
2023-09-16T00:00	8176	363	-31.8	-43.6	189	7
2023-09-16T00:00	8197	361	-32.0	-44.3	192	7
2023-09-16T00:00	8218	360	-32.2	-44.4	194	7
2023-09-16T00:00	8241	359	-32.4	-45.2	195	7
2023-09-16T00:00	8266	358	-32.6	-46.2	198	7
2023-09-16T00:00	8304	356	-32.8	-47.2	201	6
2023-09-16T00:00	8341	354	-33.1	-47.2	204	6
2023-09-16T00:00	8377	352	-33.5	-47.3	206	6
2023-09-16T00:00	8404	351	-33.7	-47.4	206	6
2023-09-16T00:00	8424	350	-33.9	-47.4	204	6
2023-09-16T00:00	8446	349	-34.1	-47.4	200	6
2023-09-16T00:00	8467	348	-34.3	-47.4	197	6
2023-09-16T00:00	8492	347	-34.6	-47.7	195	7
2023-09-16T00:00	8513	345	-34.8	-47.8	193	7
2023-09-16T00:00	8541	344	-35.0	-47.9	191	7
2023-09-16T00:00	8574	342	-35.3	-47.9	188	7
2023-09-16T00:00	8612	341	-35.7	-48.2	185	7
2023-09-16T00:00	8634	340	-35.9	-48.3	182	7
2023-09-16T00:00	8657	338	-36.1	-48.6	180	8
2023-09-16T00:00	8690	337	-36.3	-48.8	179	8
2023-09-16T00:00	8722	335	-36.6	-49.1	179	8
2023-09-16T00:00	8751	334	-36.8	-49.4	179	8
2023-09-16T00:00	8780	333	-37.1	-49.6	180	8
2023-09-16T00:00	8808	331	-37.3	-50.1	182	8
2023-09-16T00:00	8834	330	-37.4	-50.9	185	8
2023-09-16T00:00	8867	328	-37.7	-51.0	187	8
2023-09-16T00:00	8893	327	-37.9	-51.6	188	9
2023-09-16T00:00	8919	326	-38.1	-51.6	188	10
2023-09-16T00:00	8945	325	-38.3	-51.6	186	10
2023-09-16T00:00	8970	323	-38.6	-51.7	184	11
2023-09-16T00:00	8995	322	-38.8	-51.7	183	11
2023-09-16T00:00	9025	321	-39.1	-51.6	182	11
2023-09-16T00:00	9055	319	-39.4	-51.7	181	11
2023-09-16T00:00	9084	318	-39.6	-51.7	181	11
2023-09-16T00:00	9112	317	-39.9	-51.8	179	10
2023-09-16T00:00	9144	315	-40.2	-52.0	177	10
2023-09-16T00:00	9182	314	-40.6	-52.2	174	10
2023-09-16T00:00	9208	312	-40.8	-52.3	171	10
2023-09-16T00:00	9231	311	-41.0	-52.4	170	10
2023-09-16T00:00	9257	310	-41.3	-52.4	169	10
2023-09-16T00:00	9284	309	-41.5	-52.7	169	11
2023-09-16T00:00	9315	308	-41.7	-53.5	169	11
2023-09-16T00:00	9339	306	-41.8	-54.6	169	11
2023-09-16T00:00	9362	305	-42.0	-54.9	168	11
2023-09-16T00:00	9392	304	-42.2	-55.1	168	11
2023-09-16T00:00	9422	303	-42.5	-55.5	168	12
2023-09-16T00:00	9457	301	-42.7	-55.7	169	12
2023-09-16T00:00	9489	300	-42.9	-55.9	170	12
2023-09-16T00:00	9513	299	-43.1	-56.1	172	12
2023-09-16T00:00	9540	297	-43.3	-55.8	173	12
2023-09-16T00:00	9567	296	-43.6	-55.5	174	13
2023-09-16T00:00	9596	295	-43.8	-55.2	174	13
2023-09-16T00:00	9622	294	-44.1	-55.2	174	13
2023-09-16T00:00	9650	293	-44.4	-55.1	175	13
2023-09-16T00:00	9678	291	-44.6	-55.0	176	13
2023-09-16T00:00	9703	290	-44.9	-54.7	177	13
2023-09-16T00:00	9729	289	-45.1	-54.5	178	13
2023-09-16T00:00	9754	288	-45.3	-54.6	178	13
2023-09-16T00:00	9772	287	-45.5	-54.8	178	14
2023-09-16T00:00	9794	286	-45.7	-54.6	177	14
2023-09-16T00:00	9816	285	-45.9	-54.1	176	14
2023-09-16T00:00	9842	284	-46.1	-54.2	175	13
2023-09-16T00:00	9870	283	-46.4	-54.3	175	14
2023-09-16T00:00	9896	282	-46.6	-54.4	174	14
2023-09-16T00:00	9924	281	-46.9	-54.9	174	14
2023-09-16T00:00	9952	280	-47.1	-55.8	173	15
2023-09-16T00:00	9980	278	-47.3	-56.1	173	15
2023-09-16T00:00	10010	277	-47.5	-56.2	173	15
2023-09-16T00:00	10038	276	-47.8	-56.7	173	15
2023-09-16T00:00	10065	275	-48.0	-57.0	172	15
2023-09-16T00:00	10092	274	-48.2	-57.3	171	15
2023-09-16T00:00	10120	273	-48.5	-57.6	170	15
2023-09-16T00:00	10145	272	-48.7	-57.6	168	15
2023-09-16T00:00	10172	270	-49.0	-57.9	168	15
2023-09-16T00:00	10199	269	-49.2	-58.1	167	15
2023-09-16T00:00	10224	268	-49.4	-58.6	167	15
2023-09-16T00:00	10243	268	-49.6	-58.8	168	15
2023-09-16T00:00	10265	267	-49.8	-58.7	169	15
2023-09-16T00:00	10288	266	-49.9	-58.1	169	15
2023-09-16T00:00	10309	265	-50.1	-57.8	169	15
2023-09-16T00:00	10334	264	-50.4	-58.0	169	15
2023-09-16T00:00	10362	263	-50.6	-58.0	168	15
2023-09-16T00:00	10390	262	-50.9	-58.3	167	15
2023-09-16T00:00	10418	260	-51.1	-58.7	166	15
2023-09-16T00:00	10449	259	-51.3	-59.0	166	15
2023-09-16T00:00	10478	258	-51.6	-59.4	166	15
2023-09-16T00:00	10506	257	-51.8	-59.6	167	15
2023-09-16T00:00	10530	256	-52.0	-59.7	168	15
2023-09-16T00:00	10551	255	-52.2	-59.9	168	15
2023-09-16T00:00	10574	254	-52.4	-60.2	169	15
2023-09-16T00:00	10600	253	-52.5	-60.4	169	16
2023-09-16T00:00	10625	252	-52.7	-60.5	169	16
2023-09-16T00:00	10645	251	-52.9	-60.5	169	16
2023-09-16T00:00	10671	250	-53.1	-60.5	168	16
2023-09-16T00:00	10703	249	-53.3	-60.5	168	16
2023-09-16T00:00	10724	248	-53.5	-60.7	168	17
2023-09-16T00:00	10750	247	-53.7	-60.8	168	17
2023-09-16T00:00	10774	246	-53.9	-60.8	168	17
2023-09-16T00:00	10801	245	-54.1	-60.9	169	17
2023-09-16T00:00	10828	244	-54.3	-61.0	169	17
2023-09-16T00:00	10852	244	-54.5	-61.3	169	17
2023-09-16T00:00	10875	243	-54.6	-61.4	169	17
2023-09-16T00:00	10898	242	-54.8	-61.6	168	17
2023-09-16T00:00	10921	241	-55.0	-61.9	168	16
2023-09-16T00:00	10944	240	-55.1	-62.4	168	16
2023-09-16T00:00	10967	239	-55.3	-62.7	168	16
2023-09-16T00:00	10988	238	-55.5	-62.7	168	16
2023-09-16T00:00	11010	238	-55.6	-62.5	168	16
2023-09-16T00:00	11034	237	-55.7	-62.5	169	16
2023-09-16T00:00	11057	236	-55.7	-62.7	170	16
2023-09-16T00:00	11080	235	-55.7	-62.9	170	17
2023-09-16T00:00	11104	234	-55.8	-63.2	171	17
2023-09-16T00:00	11127	233	-55.8	-63.3	172	17
2023-09-16T00:00	11150	232	-56.0	-63.6	172	17
2023-09-16T00:00	11176	231	-56.2	-63.7	173	17
2023-09-16T00:00	11204	230	-56.5	-63.7	174	17
2023-09-16T00:00	11231	229	-56.7	-63.7	175	17
2023-09-16T00:00	11259	228	-56.9	-63.7	175	17
2023-09-16T00:00	11283	228	-57.2	-64.1	176	17
2023-09-16T00:00	11306	227	-57.1	-64.3	177	17
2023-09-16T00:00	11330	226	-57.0	-64.5	178	17
2023-09-16T00:00	11354	225	-57.2	-64.8	179	17
2023-09-16T00:00	11379	224	-57.4	-64.9	181	17
2023-09-16T00:00	11403	223	-57.5	-64.9	182	17
2023-09-16T00:00	11425	223	-57.6	-65.0	182	17
2023-09-16T00:00	11445	222	-57.6	-65.0	182	17
2023-09-16T00:00	11467	221	-57.7	-65.1	182	17
2023-09-16T00:00	11489	220	-57.9	-65.2	182	16
2023-09-16T00:00	11510	220	-58.0	-65.1	182	16
2023-09-16T00:00	11531	219	-58.2	-65.2	183	16
2023-09-16T00:00	11553	218	-58.3	-65.2	184	15
2023-09-16T00:00	11575	217	-58.4	-65.4	185	15
2023-09-16T00:00	11595	217	-58.4	-65.7	186	15
2023-09-16T00:00	11616	216	-58.5	-66.1	186	15
2023-09-16T00:00	11638	215	-58.6	-66.3	186	14
2023-09-16T00:00	11657	214	-58.7	-66.2	186	14
2023-09-16T00:00	11677	214	-58.9	-66.2	187	14
2023-09-16T00:00	11700	213	-59.0	-66.2	188	14
2023-09-16T00:00	11720	212	-59.1	-66.2	189	14
2023-09-16T00:00	11742	212	-59.3	-66.5	191	13
2023-09-16T00:00	11764	211	-59.4	-66.8	193	13
2023-09-16T00:00	11787	210	-59.4	-67.1	195	13
2023-09-16T00:00	11807	209	-59.4	-67.4	196	13
2023-09-16T00:00	11829	209	-59.5	-67.7	196	12
2023-09-16T00:00	11849	208	-59.5	-67.7	196	12
2023-09-16T00:00	11867	207	-59.6	-67.7	195	11
2023-09-16T00:00	11889	207	-59.7	-67.6	195	11
2023-09-16T00:00	11912	206	-59.9	-67.7	194	10
2023-09-16T00:00	11933	205	-59.8	-67.6	195	10
2023-09-16T00:00	11953	205	-59.7	-67.5	196	9
2023-09-16T00:00	11972	204	-59.5	-67.6	197	9
2023-09-16T00:00	11993	203	-58.8	-67.5	198	10
2023-09-16T00:00	12014	203	-58.4	-67.9	200	10
2023-09-16T00:00	12031	202	-58.1	-68.3	201	11
2023-09-16T00:00	12052	201	-57.9	-68.6	201	11
2023-09-16T00:00	12073	201	-57.8	-68.9	202	11
2023-09-16T00:00	12091	200	-57.8	-69.2	204	12
2023-09-16T00:00	12111	199	-57.9	-69.5	206	12
2023-09-16T00:00	12132	199	-57.9	-69.7	209	12
2023-09-16T00:00	12151	198	-57.7	-69.9	212	11
2023-09-16T00:00	12170	198	-57.6	-70.3	216	11
2023-09-16T00:00	12189	197	-57.6	-70.6	220	11
2023-09-16T00:00	12211	196	-57.4	-70.9	223	10
2023-09-16T00:00	12228	196	-57.2	-71.3	226	10
2023-09-16T00:00	12249	195	-56.9	-71.8	228	9
2023-09-16T00:00	12269	195	-56.6	-72.3	229	9
2023-09-16T00:00	12289	194	-56.4	-72.8	230	8
2023-09-16T00:00	12312	193	-56.3	-73.2	230	8
2023-09-16T00:00	12333	193	-56.2	-73.4	231	8
2023-09-16T00:00	12352	192	-56.2	-73.7	231	8
2023-09-16T00:00	12372	191	-56.0	-73.9	232	8
2023-09-16T00:00	12391	191	-55.9	-74.2	233	8
2023-09-16T00:00	12411	190	-55.9	-74.4	234	8
2023-09-16T00:00	12432	190	-55.7	-74.5	235	8
2023-09-16T00:00	12453	189	-55.7	-74.7	235	8
2023-09-16T00:00	12474	188	-55.8	-75.1	234	8
2023-09-16T00:00	12497	188	-55.8	-75.3	233	8
2023-09-16T00:00	12518	187	-55.6	-75.3	232	8
2023-09-16T00:00	12539	186	-55.4	-75.3	232	8
2023-09-16T00:00	12559	186	-55.6	-75.5	233	8
2023-09-16T00:00	12579	185	-55.6	-75.6	234	8
2023-09-16T00:00	12604	185	-55.6	-75.9	235	9
2023-09-16T00:00	12624	184	-55.4	-75.9	236	9
2023-09-16T00:00	12645	183	-55.4	-76.1	236	9
2023-09-16T00:00	12665	183	-55.6	-76.2	235	9
2023-09-16T00:00	12687	182	-55.5	-76.3	234	10
2023-09-16T00:00	12708	182	-55.4	-76.3	234	10
2023-09-16T00:00	12728	181	-55.4	-76.4	234	11
2023-09-16T00:00	12750	180	-55.3	-76.6	235	11
2023-09-16T00:00	12767	180	-55.1		236	12
2023-09-16T00:00	12789	179	-54.9	-76.9	238	12
2023-09-16T00:00	12808	179	-54.8	-77.1	240	12
2023-09-16T00:00	12829	178	-54.8	-77.4	242	13
2023-09-16T00:00	12855	177	-54.7	-77.6	245	13
2023-09-16T00:00	12877	177	-54.5	-77.6	249	13
2023-09-16T00:00	12902	176	-54.5	-77.8	253	13
2023-09-16T00:00	12922	176	-54.6	-78.1	256	13
2023-09-16T00:00	12945	175	-54.6	-78.1	259	13
2023-09-16T00:00	12966	174	-54.6	-78.3	261	13
2023-09-16T00:00	12985	174	-54.6	-78.5	262	13
2023-09-16T00:00	13008	173	-54.3	-78.4	262	13
2023-09-16T00:00	13029	173	-54.2	-78.5	262	13
2023-09-16T00:00	13052	172	-54.2	-78.5	261	13
2023-09-16T00:00	13072	172	-54.3	-78.6	261	13
2023-09-16T00:00	13091	171	-54.3	-78.8	260	14
2023-09-16T00:00	13112	170	-54.3	-79.0	260	14
2023-09-16T00:00	13133	170	-54.3	-79.3	261	14
2023-09-16T00:00	13153	169	-54.2	-79.4	262	14
2023-09-16T00:00	13173	169	-54.1	-79.6	262	14
2023-09-16T00:00	13196	168	-53.8	-79.3	263	14
2023-09-16T00:00	13217	168	-53.9	-79.7	263	13
2023-09-16T00:00	13239	167	-54.1	-79.8	263	13
2023-09-16T00:00	13258	167	-54.2	-79.7	263	13
2023-09-16T00:00	13280	166	-54.4	-79.8	263	12
2023-09-16T00:00	13298	166	-54.5	-79.9	263	12
2023-09-16T00:00	13323	165	-54.5	-79.9	264	12
2023-09-16T00:00	13344	164	-54.5	-80.1	265	12
2023-09-16T00:00	13367	164	-54.5	-80.1	267	12
2023-09-16T00:00	13390	163	-54.5	-80.1	269	12
2023-09-16T00:00	13412	163	-54.6	-80.0	271	12
2023-09-16T00:00	13431	162	-54.7	-80.0	272	12
2023-09-16T00:00	13454	162	-54.8	-80.1	273	11
2023-09-16T00:00	13475	161	-54.8	-80.1	275	11
2023-09-16T00:00	13498	161	-54.8	-80.1	276	11
2023-09-16T00:00	13521	160	-54.5	-79.9	277	11
2023-09-16T00:00	13540	159	-54.6	-80.0	279	11
2023-09-16T00:00	13562	159	-54.7	-79.8	280	11
2023-09-16T00:00	13583	158	-54.8	-79.9	281	11
2023-09-16T00:00	13606	158	-54.8	-79.7	282	10
2023-09-16T00:00	13629	157	-55.0	-79.8	282	10
2023-09-16T00:00	13650	157	-55.2	-79.7	282	10
2023-09-16T00:00	13673	156	-55.4	-79.7	282	9
2023-09-16T00:00	13694	156	-55.5	-79.8	281	9
2023-09-16T00:00	13715	155	-55.7	-79.9	280	8
2023-09-16T00:00	13738	155	-55.5	-80.0	279	8
2023-09-16T00:00	13760	154	-55.5	-80.2	278	7
2023-09-16T00:00	13781	154	-55.4	-80.1	277	7
2023-09-16T00:00	13804	153	-55.4	-80.4	275	7
2023-09-16T00:00	13827	152	-55.3	-80.3	274	7
2023-09-16T00:00	13847	152	-55.3	-80.5	271	7
2023-09-16T00:00	13869	151	-55.4	-80.6	269	7
2023-09-16T00:00	13889	151	-55.4	-80.6	267	7
2023-09-16T00:00	13912	150	-55.2	-80.4	265	7
2023-09-16T00:00	13934	150	-55.2	-80.4	263	7
2023-09-16T00:00	13955	149	-55.2	-80.4	261	8
2023-09-16T00:00	13976	149	-55.3	-80.5	259	8
2023-09-16T00:00	13997	148	-55.4	-80.6	257	8
2023-09-16T00:00	14021	148	-55.5	-80.7	257	9
2023-09-16T00:00	14042	147	-55.6	-80.8	257	9
2023-09-16T00:00	14065	147	-55.5	-80.9	258	10
2023-09-16T00:00	14084	146	-55.4	-81.1	260	11
2023-09-16T00:00	14106	146	-55.3	-81.3	261	11
2023-09-16T00:00	14126	145	-55.3	-81.6	262	11
2023-09-16T00:00	14145	145	-55.3	-81.6	262	11
2023-09-16T00:00	14168	145	-55.3	-81.6	262	11
2023-09-16T00:00	14189	144	-55.3	-81.6	263	10
2023-09-16T00:00	14211	144	-55.3	-81.6	263	10
2023-09-16T00:00	14229	143	-55.4	-81.6	265	10
2023-09-16T00:00	14250	143	-55.4	-81.6	267	10
2023-09-16T00:00	14273	142	-55.4	-81.6	269	10
2023-09-16T00:00	14295	142	-55.4	-81.6	271	9
2023-09-16T00:00	14317	141	-55.3	-81.6	273	9
2023-09-16T00:00	14335	141	-55.4	-81.6	274	9
2023-09-16T00:00	14359	140	-55.3	-81.6	276	9
2023-09-16T00:00	14379	140	-55.3	-81.6	278	8
2023-09-16T00:00	14404	139	-55.2	-81.5	279	8
2023-09-16T00:00	14426	139	-55.2	-81.5	280	8
2023-09-16T00:00	14444	138	-55.3	-81.6	280	7
2023-09-16T00:00	14466	138	-55.3	-81.6	279	7
2023-09-16T00:00	14487	137	-55.3	-81.6	276	7
2023-09-16T00:00	14512	137	-55.4	-81.6	272	6
2023-09-16T00:00	14532	136	-55.4	-81.6	266	6
2023-09-16T00:00	14554	136	-55.5	-81.7	260	6
2023-09-16T00:00	14580	135	-55.6	-81.8	254	7
2023-09-16T00:00	14601	135	-55.6	-81.5	250	7
2023-09-16T00:00	14623	135	-55.6	-81.5	248	8
2023-09-16T00:00	14644	134	-55.6	-81.5	247	8
2023-09-16T00:00	14665	134	-55.6	-81.5	248	9
2023-09-16T00:00	14687	133	-55.6	-81.5	249	9
2023-09-16T00:00	14709	133	-55.7	-81.6	251	9
2023-09-16T00:00	14730	132	-55.8	-81.7	254	9
2023-09-16T00:00	14752	132	-55.7	-81.9	256	9
2023-09-16T00:00	14773	131	-55.6	-81.8	257	9
2023-09-16T00:00	14792	131	-55.7	-81.9	258	9
2023-09-16T00:00	14814	131	-55.7	-81.9	257	9
2023-09-16T00:00	14837	130	-55.6	-81.8	257	9
2023-09-16T00:00	14856	130	-55.7	-81.9	256	9
2023-09-16T00:00	14881	129	-55.9	-82.0	256	9
2023-09-16T00:00	14899	129	-56.0	-82.1	256	8
2023-09-16T00:00	14924	128	-55.9	-82.0	257	8
2023-09-16T00:00	14944	128	-56.0	-81.8	259	8
2023-09-16T00:00	14968	127	-56.1	-81.9	261	8
2023-09-16T00:00	14989	127	-56.2	-82.0	262	8
2023-09-16T00:00	15012	127	-56.4	-82.1	261	8
2023-09-16T00:00	15035	126	-56.5	-82.0	260	8
2023-09-16T00:00	15059	126	-56.6	-82.0	257	8
2023-09-16T00:00	15079	125	-56.7	-82.1	254	8
2023-09-16T00:00	15103	125	-56.7	-82.1	250	9
2023-09-16T00:00	15123	124	-56.8	-82.2	247	9
2023-09-16T00:00	15145	124	-56.9	-82.3	245	9
2023-09-16T00:00	15168	123	-57.0	-82.3	243	9
2023-09-16T00:00	15189	123	-57.1	-82.4	241	9
2023-09-16T00:00	15209	123	-57.1	-82.4	240	10
2023-09-16T00:00	15230	122	-57.1	-82.4	240	10
2023-09-16T00:00	15255	122	-57.2	-82.5	240	10
2023-09-16T00:00	15274	121	-57.2	-82.5	241	11
2023-09-16T00:00	15301	121	-57.1	-82.4	243	11
2023-09-16T00:00	15320	121	-57.1	-82.4	245	12
2023-09-16T00:00	15341	120	-57.0	-82.3	248	12
2023-09-16T00:00	15363	120	-57.0	-82.3	251	12
2023-09-16T00:00	15383	119	-56.9	-82.3	254	13
2023-09-16T00:00	15407	119	-57.0	-82.3	256	13
2023-09-16T00:00	15428	119	-57.1	-82.4	258	13
2023-09-16T00:00	15451	118	-57.3	-82.6	259	13
2023-09-16T00:00	15473	118	-57.4	-82.4	261	12
2023-09-16T00:00	15493	117	-57.5	-82.5	263	12
2023-09-16T00:00	15518	117	-57.6	-82.6	265	11
2023-09-16T00:00	15540	116	-57.7	-82.6	268	11
2023-09-16T00:00	15563	116	-57.6	-82.6	270	10
2023-09-16T00:00	15585	116	-57.5	-82.7	272	9
2023-09-16T00:00	15606	115	-57.5	-82.7	273	9
2023-09-16T00:00	15631	115	-57.5	-82.7	273	8
2023-09-16T00:00	15652	114	-57.5	-82.7	271	8
2023-09-16T00:00	15676	114	-57.5	-82.7	267	8
2023-09-16T00:00	15697	114	-57.4	-82.7	263	8
2023-09-16T00:00	15717	113	-57.5	-82.7	258	7
2023-09-16T00:00	15742	113	-57.6	-82.8	254	7
2023-09-16T00:00	15762	112	-57.6	-82.8	250	7
2023-09-16T00:00	15786	112	-57.6	-82.8	246	8
2023-09-16T00:00	15807	112	-57.5	-82.7	243	8
2023-09-16T00:00	15828	111	-57.5	-82.7	241	8
2023-09-16T00:00	15850	111	-57.5	-82.7	240	8
2023-09-16T00:00	15871	110	-57.5	-82.7	238	9
2023-09-16T00:00	15893	110	-57.6	-82.8	238	9
2023-09-16T00:00	15915	110	-57.8	-83.0	237	10
2023-09-16T00:00	15938	109	-57.9	-83.0	238	10
2023-09-16T00:00	15962	109	-58.0	-83.1	238	10
2023-09-16T00:00	15984	109	-58.0	-83.1	239	11
2023-09-16T00:00	16005	108	-57.8	-83.2	239	11
2023-09-16T00:00	16027	108	-57.7	-83.2	240	12
2023-09-16T00:00	16049	107	-57.7	-83.2	240	13
2023-09-16T00:00	16074	107	-57.7	-83.2	240	13
2023-09-16T00:00	16094	107	-57.7	-83.2	241	13
2023-09-16T00:00	16113	106	-57.8	-83.2	243	13
2023-09-16T00:00	16137	106	-57.9	-83.3	246	13
2023-09-16T00:00	16159	106	-57.9	-83.3	249	13
2023-09-16T00:00	16182	105	-57.8	-83.2	252	12
2023-09-16T00:00	16205	105	-57.8	-83.2	254	12
2023-09-16T00:00	16229	104	-58.0	-83.4	256	11
2023-09-16T00:00	16246	104	-58.1	-83.5	256	11
2023-09-16T00:00	16268	104	-58.1	-83.5	257	11
2023-09-16T00:00	16293	103	-58.2	-83.5	257	10
2023-09-16T00:00	16314	103	-58.3	-83.6	257	10
2023-09-16T00:00	16339	103	-58.5	-83.8	256	10
2023-09-16T00:00	16358	102	-58.6	-83.9	256	9
2023-09-16T00:00	16383	102	-58.6	-83.9	256	9
2023-09-16T00:00	16401	102	-58.7	-83.9	256	8
2023-09-16T00:00	16427	101	-58.8	-84.0	254	7
2023-09-16T00:00	16446	101	-59.0	-84.2	251	7
2023-09-16T00:00	16467	100	-59.0	-84.2	246	7
2023-09-16T00:00	16488	100	-59.0	-84.2	239	7
2023-09-16T00:00	16510	100	-59.0	-84.4	232	7
2023-09-16T00:00	16529	99	-58.7	-84.2	227	7
2023-09-16T00:00	16554	99	-58.7	-84.2	224	8
2023-09-16T00:00	16574	99	-58.8	-84.3	223	9
2023-09-16T00:00	16600	98	-58.9	-84.4	223	9
2023-09-16T00:00	16620	98	-59.0	-84.4	224	10
2023-09-16T00:00	16644	98	-59.1	-84.5	225	10
2023-09-16T00:00	16665	97	-59.2	-84.6	227	10
2023-09-16T00:00	16692	97	-59.2	-84.6	227	10
2023-09-16T00:00	16713	97	-59.3	-84.7	228	10
2023-09-16T00:00	16734	96	-59.3	-84.7	227	10
2023-09-16T00:00	16756	96	-59.4	-85.0	226	10
2023-09-16T00:00	16779	96	-59.4	-85.0	225	10
2023-09-16T00:00	16803	95	-59.3	-85.0	225	11
2023-09-16T00:00	16827	95	-59.1	-85.1	226	11
2023-09-16T00:00	16853	95	-58.9	-84.9	228	11
2023-09-16T00:00	16874	94	-58.9	-85.3	231	12
2023-09-16T00:00	16896	94	-58.6	-85.0	234	12
2023-09-16T00:00	16922	94	-58.4	-84.9	238	13
2023-09-16T00:00	16944	93	-58.3	-84.8	241	13
2023-09-16T00:00	16969	93	-58.3	-84.8	244	14
2023-09-16T00:00	16992	92	-58.4	-84.9	247	14
2023-09-16T00:00	17013	92	-58.4	-84.9	249	14
2023-09-16T00:00	17037	92	-58.2	-84.7	251	14
2023-09-16T00:00	17059	91	-58.1	-85.0	254	13
2023-09-16T00:00	17082	91	-57.9	-84.8	255	13
2023-09-16T00:00	17106	91	-58.0	-84.9	257	13
2023-09-16T00:00	17128	90	-58.1	-85.0	258	13
2023-09-16T00:00	17150	90	-58.1	-85.0	259	13
2023-09-16T00:00	17176	90	-58.2	-85.0	259	12
2023-09-16T00:00	17200	89	-57.9	-84.8	260	12
2023-09-16T00:00	17220	89	-57.9	-84.8	261	12
2023-09-16T00:00	17243	89	-57.8	-85.1	262	12
2023-09-16T00:00	17269	88	-57.8	-85.1	263	12
2023-09-16T00:00	17292	88	-57.9	-85.2	264	12
2023-09-16T00:00	17312	88	-58.0	-85.2	265	12
2023-09-16T00:00	17335	88	-58.0	-85.2	265	12
2023-09-16T00:00	17363	87	-58.0	-85.2	265	12
2023-09-16T00:00	17385	87	-58.0	-85.2	265	12
2023-09-16T00:00	17410	87	-58.0	-85.2	266	11
2023-09-16T00:00	17435	86	-58.1	-85.3	266	11
2023-09-16T00:00	17458	86	-58.2	-85.4	267	11
2023-09-16T00:00	17477	86	-58.3	-85.5	268	11
2023-09-16T00:00	17500	85	-58.2	-85.4	268	10
2023-09-16T00:00	17525	85	-58.2	-85.4	269	10
2023-09-16T00:00	17551	85	-58.2	-85.4	269	10
2023-09-16T00:00	17571	84	-58.2	-85.4	268	11
2023-09-16T00:00	17597	84	-58.3	-85.5	268	11
2023-09-16T00:00	17619	84	-58.3	-85.5	266	11
2023-09-16T00:00	17645	83	-58.2	-85.4	265	11
2023-09-16T00:00	17665	83	-58.3	-85.5	264	11
2023-09-16T00:00	17691	83	-58.3	-85.5	264	11
2023-09-16T00:00	17710	82	-58.4	-85.5	264	11
2023-09-16T00:00	17734	82	-58.4	-85.5	265	11
2023-09-16T00:00	17755	82	-58.3	-85.5	267	11
2023-09-16T00:00	17782	82	-58.3	-85.5	269	11
2023-09-16T00:00	17803	81	-58.4	-85.5	270	10
2023-09-16T00:00	17827	81	-58.5	-85.6	271	10
2023-09-16T00:00	17849	81	-58.6	-85.7	271	9
2023-09-16T00:00	17871	80	-58.7	-85.8	270	9
2023-09-16T00:00	17895	80	-58.7	-85.8	267	8
2023-09-16T00:00	17917	80	-58.5	-86.0	263	8
2023-09-16T00:00	17944	79	-58.3	-85.8	258	7
2023-09-16T00:00	17966	79	-58.4	-85.9	252	7
2023-09-16T00:00	17991	79	-58.5	-86.0	248	7
2023-09-16T00:00	18014	79	-58.4	-85.9	244	7
2023-09-16T00:00	18035	78	-58.4	-85.9	241	8
2023-09-16T00:00	18056	78	-58.4	-85.9	239	8
2023-09-16T00:00	18079	78	-58.5	-86.0	238	8
2023-09-16T00:00	18105	77	-58.5	-86.0	238	8
2023-09-16T00:00	18129	77	-58.5	-86.0	239	9
2023-09-16T00:00	18152	77	-58.5	-86.0	242	9
2023-09-16T00:00	18172	77	-58.4	-85.9	244	9
2023-09-16T00:00	18200	76	-58.4	-85.9	247	9
2023-09-16T00:00	18221	76	-58.6	-86.1	249	9
2023-09-16T00:00	18245	76	-58.5	-86.0	251	9
2023-09-16T00:00	18267	75	-58.2	-86.2	251	10
2023-09-16T00:00	18291	75	-58.2	-86.2	252	10
2023-09-16T00:00	18314	75	-57.9		253	10
2023-09-16T00:00	18337	75	-57.8	-85.9	254	11
2023-09-16T00:00	18360	74	-57.9		255	11
2023-09-16T00:00	18382	74	-58.0	-86.0	256	12
2023-09-16T00:00	18405	74	-58.0	-86.0	258	12
2023-09-16T00:00	18430	74	-57.9		260	12
2023-09-16T00:00	18454	73	-57.6	-85.7	262	12
2023-09-16T00:00	18476	73	-57.6	-85.7	264	11
2023-09-16T00:00	18503	73	-57.5	-85.6	265	11
2023-09-16T00:00	18524	72	-57.4	-86.0	266	11
2023-09-16T00:00	18547	72	-57.4	-86.0	266	11
2023-09-16T00:00	18570	72	-57.4	-85.6	265	11
2023-09-16T00:00	18589	72	-57.4	-85.6	263	10
2023-09-16T00:00	18614	71	-57.5	-85.6	262	10
2023-09-16T00:00	18636	71	-57.5	-85.6	261	10
2023-09-16T00:00	18662	71	-57.5	-85.6	261	10
2023-09-16T00:00	18682	71	-57.5	-85.6	261	10
2023-09-16T00:00	18706	70	-57.4	-86.0	262	10
2023-09-16T00:00	18733	70	-57.4	-86.0	262	11
2023-09-16T00:00	18753	70	-57.3	-85.9	262	11
2023-09-16T00:00	18778	70	-57.2	-85.8	261	12
2023-09-16T00:00	18798	69	-57.0	-85.7	260	13
2023-09-16T00:00	18819	69	-56.9	-85.6	260	13
2023-09-16T00:00	18842	69	-56.8	-85.5	260	13
2023-09-16T00:00	18868	69	-56.9	-85.6	261	14
2023-09-16T00:00	18892	68	-56.9	-85.6	263	14
2023-09-16T00:00	18913	68	-56.8	-85.5	265	13
2023-09-16T00:00	18939	68	-56.8	-85.5	267	13
2023-09-16T00:00	18960	68	-56.9	-85.6	269	13
2023-09-16T00:00	18981	67	-56.8	-85.5	271	13
2023-09-16T00:00	19007	67	-56.6	-85.4	274	12
2023-09-16T00:00	19030	67	-56.7	-85.4	276	12
2023-09-16T00:00	19052	67	-56.7	-85.4	278	12
2023-09-16T00:00	19077	66	-56.6	-85.4	280	11
2023-09-16T00:00	19103	66	-56.7	-85.4	282	11
2023-09-16T00:00	19126	66	-56.7	-85.4	283	10
2023-09-16T00:00	19147	66	-56.8	-85.5	284	10
2023-09-16T00:00	19171	65	-56.9	-85.6	285	10
2023-09-16T00:00	19193	65	-56.8	-85.5	284	9
2023-09-16T00:00	19217	65	-56.7	-85.4	282	9
2023-09-16T00:00	19240	65	-56.5	-85.3	279	8
2023-09-16T00:00	19264	64	-56.5	-85.3	276	8
2023-09-16T00:00	19289	64	-56.5	-85.3	272	8
2023-09-16T00:00	19311	64	-56.6	-85.4	268	8
2023-09-16T00:00	19333	64	-56.6	-85.4	266	8
2023-09-16T00:00	19357	64	-56.5	-85.3	265	9
2023-09-16T00:00	19384	63	-56.3	-85.6	264	9
2023-09-16T00:00	19411	63	-56.3	-85.6	262	9
2023-09-16T00:00	19433	63	-56.4	-85.7	262	10
2023-09-16T00:00	19461	63	-56.3	-85.6	262	10
2023-09-16T00:00	19481	62	-56.3	-85.6	262	10
2023-09-16T00:00	19507	62	-56.4	-85.7	264	10
2023-09-16T00:00	19529	62	-56.4	-85.7	267	10
2023-09-16T00:00	19558	62	-56.5	-85.3	269	10
2023-09-16T00:00	19584	61	-56.6	-85.4	271	10
2023-09-16T00:00	19610	61	-56.6	-85.4	271	10
2023-09-16T00:00	19631	61	-56.6	-85.4	271	9
2023-09-16T00:00	19655	61	-56.8	-85.5	270	8
2023-09-16T00:00	19682	60	-56.8	-85.5	268	8
2023-09-16T00:00	19707	60	-56.9	-85.6	264	7
2023-09-16T00:00	19733	60	-56.9	-85.6	259	7
2023-09-16T00:00	19755	60	-56.6	-85.4	253	6
2023-09-16T00:00	19779	59	-56.5	-85.3	248	6
2023-09-16T00:00	19811	59	-56.6	-85.4	244	6
2023-09-16T00:00	19836	59	-56.8	-85.5	243	7
2023-09-16T00:00	19860	59	-56.8	-86.0	242	7
2023-09-16T00:00	19887	58	-56.8	-86.0	244	7
2023-09-16T00:00	19916	58	-56.8	-86.0	246	7
2023-09-16T00:00	19940	58	-56.7	-85.9	251	7
2023-09-16T00:00	19966	58	-56.5	-85.8	256	7
2023-09-16T00:00	19993	58	-56.3	-85.6	262	7
2023-09-16T00:00	20016	57	-56.4	-85.7	268	6
2023-09-16T00:00	20041	57	-56.4	-85.7	275	6
2023-09-16T00:00	20065	57	-56.4	-85.7	280	6
2023-09-16T00:00	20095	57	-56.6	-85.8	284	6
2023-09-16T00:00	20120	56	-56.6	-85.8	284	6
2023-09-16T00:00	20147	56	-56.5	-85.8	281	6
2023-09-16T00:00	20171	56	-56.4	-85.7	274	6
2023-09-16T00:00	20205	56	-56.4	-85.2	266	6
2023-09-16T00:00	20229	55	-56.5	-85.3	259	6
2023-09-16T00:00	20257	55	-56.7	-85.4	254	6
2023-09-16T00:00	20278	55	-56.9	-85.6	252	7
2023-09-16T00:00	20305	55	-57.1	-85.7	250	7
2023-09-16T00:00	20331	54	-57.3	-85.5	249	7
2023-09-16T00:00	20355	54	-57.5	-85.6	248	7
2023-09-16T00:00	20384	54	-57.6	-85.7	247	7
2023-09-16T00:00	20411	54	-57.7	-85.8	246	7
2023-09-16T00:00	20435	54	-57.8	-85.9	246	7
2023-09-16T00:00	20461	53	-58.0	-86.0	246	8
2023-09-16T00:00	20486	53	-58.1		246	8
2023-09-16T00:00	20511	53	-58.0	-86.0	247	8
2023-09-16T00:00	20531	53	-58.0	-86.0	247	9
2023-09-16T00:00	20559	53	-58.0	-86.4	248	9
2023-09-16T00:00	20585	52	-57.9	-86.4	248	9
2023-09-16T00:00	20608	52	-57.7	-86.2	248	9
2023-09-16T00:00	20634	52	-57.7	-86.2	248	10
2023-09-16T00:00	20656	52	-57.7	-86.2	248	10
2023-09-16T00:00	20681	52	-57.8	-86.3	247	10
2023-09-16T00:00	20707	51	-57.9	-86.4	248	10
2023-09-16T00:00	20727	51	-58.0	-86.4	250	10
2023-09-16T00:00	20752	51	-58.1	-86.5	253	10
2023-09-16T00:00	20777	51	-58.0	-86.4	257	9
2023-09-16T00:00	20802	51	-57.9	-86.4	262	9
2023-09-16T00:00	20828	50	-57.8	-86.3	266	8
2023-09-16T00:00	20851	50	-57.7	-86.2	268	8
2023-09-16T00:00	20877	50	-57.7	-86.2	269	7
2023-09-16T00:00	20897	50	-57.3	-85.9	268	7
2023-09-16T00:00	20926	50	-57.2	-86.3	268	7
2023-09-16T00:00	20945	49	-57.1	-86.2	268	7
2023-09-16T00:00	20969	49	-57.0	-86.1	270	7
2023-09-16T00:00	20993	49	-56.9	-86.1	272	7
2023-09-16T00:00	21018	49	-56.9	-86.1	275	7
2023-09-16T00:00	21043	49	-56.9	-86.1	279	7
2023-09-16T00:00	21061	49	-56.9	-86.1	283	7
2023-09-16T00:00	21086	48	-56.8	-86.0	287	7
2023-09-16T00:00	21110	48	-56.7	-85.9	291	7
2023-09-16T00:00	21130	48	-56.7	-85.9	296	6
2023-09-16T00:00	21156	48	-56.8	-86.0	299	6
2023-09-16T00:00	21176	48	-56.9	-86.1	302	5
2023-09-16T00:00	21205	47	-56.7	-85.9	303	5
2023-09-16T00:00	21223	47	-56.7	-85.9	302	4
2023-09-16T00:00	21249	47	-56.8	-85.5	299	3
2023-09-16T00:00	21272	47	-56.9	-85.6	293	3
2023-09-16T00:00	21297	47	-57.0	-85.7	281	2
2023-09-16T00:00	21320	47	-57.1	-85.7	263	2
2023-09-16T00:00	21343	46	-57.0	-85.7	249	2
2023-09-16T00:00	21370	46	-56.9	-85.6	246	2
2023-09-16T00:00	21394	46	-56.8	-86.0	250	3
2023-09-16T00:00	21417	46	-56.8	-86.0	255	4
2023-09-16T00:00	21442	46	-56.9	-86.1	259	4
2023-09-16T00:00	21466	46	-56.9	-86.1	260	5
2023-09-16T00:00	21494	45	-57.0	-85.7	260	5
2023-09-16T00:00	21516	45	-57.1	-85.7	257	5
2023-09-16T00:00	21543	45	-56.9	-85.6	253	5
2023-09-16T00:00	21566	45	-56.8	-86.0	249	5
2023-09-16T00:00	21587	45	-56.8	-86.0	248	5
2023-09-16T00:00	21610	45	-56.8	-86.0	249	5
2023-09-16T00:00	21633	44	-56.9	-86.1	253	5
2023-09-16T00:00	21658	44	-56.5	-85.8	259	6
2023-09-16T00:00	21683	44	-56.2	-86.0	265	6
2023-09-16T00:00	21709	44	-56.2	-86.0	271	6
2023-09-16T00:00	21734	44	-56.1	-86.0	276	6
2023-09-16T00:00	21757	43	-56.0	-85.9	281	6
2023-09-16T00:00	21786	43	-56.0		285	6
2023-09-16T00:00	21813	43	-56.1	-85.5	288	5
2023-09-16T00:00	21836	43	-56.1	-85.5	290	5
2023-09-16T00:00	21865	43	-56.0		289	5
2023-09-16T00:00	21888	43	-56.0		285	4
2023-09-16T00:00	21912	42	-55.9	-85.8	280	4
2023-09-16T00:00	21937	42	-55.7	-85.7	274	4
2023-09-16T00:00	21964	42	-55.6	-85.6	271	4
2023-09-16T00:00	21986	42	-55.5	-85.5	270	4
2023-09-16T00:00	22006	42	-55.5	-85.5	270	4
2023-09-16T00:00	22039	42	-55.3	-85.4	272	5
2023-09-16T00:00	22060	41	-55.3	-85.4	274	4
2023-09-16T00:00	22086	41	-55.3	-85.4	274	4
2023-09-16T00:00	22110	41	-55.3	-85.4	271	4
2023-09-16T00:00	22138	41	-55.3	-85.4	264	3
2023-09-16T00:00	22165	41	-55.2	-85.3	250	3
2023-09-16T00:00	22188	41	-55.1	-85.2	232	3
2023-09-16T00:00	22218	40	-55.1	-85.2	219	3
2023-09-16T00:00	22243	40	-55.1	-85.2	213	3
2023-09-16T00:00	22265	40	-55.1	-85.2	214	3
2023-09-16T00:00	22292	40	-55.2	-85.3	221	3
2023-09-16T00:00	22318	40	-55.1	-85.2	232	3
2023-09-16T00:00	22339	40	-55.0	-85.1	247	3
2023-09-16T00:00	22370	40	-55.0	-85.1	260	4
2023-09-16T00:00	22391	39	-54.7	-84.9	269	4
2023-09-16T00:00	22419	39	-54.7	-84.9	274	4
2023-09-16T00:00	22444	39	-54.7	-85.5	276	4
2023-09-16T00:00	22469	39	-54.5	-85.3	276	4
2023-09-16T00:00	22495	39	-54.4	-85.2	276	5
2023-09-16T00:00	22523	39	-54.3	-85.2	276	5
2023-09-16T00:00	22550	38	-54.2	-85.1	278	5
2023-09-16T00:00	22574	38	-54.3	-85.2	282	5
2023-09-16T00:00	22601	38	-54.3	-85.2	287	5
2023-09-16T00:00	22624	38	-54.1	-85.0	292	5
2023-09-16T00:00	22651	38	-54.1	-85.0	298	5
2023-09-16T00:00	22676	38	-54.0	-84.9	303	5
2023-09-16T00:00	22698	38	-53.9	-84.9	308	4
2023-09-16T00:00	22723	37	-53.9	-84.9	312	4
2023-09-16T00:00	22751	37	-54.0	-84.4	315	4
2023-09-16T00:00	22775	37	-54.1	-84.5	318	4
2023-09-16T00:00	22801	37	-54.3	-84.6	321	4
2023-09-16T00:00	22830	37	-54.5	-84.8	323	3
2023-09-16T00:00	22850	37	-54.7	-84.9	325	3
2023-09-16T00:00	22883	36	-54.8	-85.0	325	3
2023-09-16T00:00	22907	36	-54.9	-85.1	324	3
2023-09-16T00:00	22928	36	-55.0	-85.1	320	3
2023-09-16T00:00	22957	36	-55.1	-85.2	314	3
2023-09-16T00:00	22987	36	-55.0	-85.1	307	4
2023-09-16T00:00	23007	36	-54.9	-85.1	300	4
2023-09-16T00:00	23041	36	-55.0	-85.1	292	4
2023-09-16T00:00	23062	35	-55.2	-85.3	285	4
2023-09-16T00:00	23095	35	-55.2	-85.3	280	4
2023-09-16T00:00	23121	35	-55.3	-85.4	277	4
2023-09-16T00:00	23143	35	-55.5	-85.5	276	4
2023-09-16T00:00	23171	35	-55.6	-85.1	277	4
2023-09-16T00:00	23197	35	-55.7	-85.7	279	4
2023-09-16T00:00	23226	35	-55.6	-85.6	280	5
2023-09-16T00:00	23253	34	-55.5	-85.5	279	5
2023-09-16T00:00	23277	34	-55.7	-85.7	276	5
2023-09-16T00:00	23312	34	-55.6	-85.6	273	6
2023-09-16T00:00	23336	34	-55.7	-85.7	271	6
2023-09-16T00:00	23359	34	-55.8	-85.7	270	7
2023-09-16T00:00	23389	34	-55.9	-85.8	270	8
2023-09-16T00:00	23413	34	-55.8	-85.7	271	8
2023-09-16T00:00	23439	33	-55.9	-85.8	271	8
2023-09-16T00:00	23471	33	-56.0	-85.9	272	8
2023-09-16T00:00	23496	33	-55.8	-85.7	273	8
2023-09-16T00:00	23521	33	-55.8	-85.7	273	8
2023-09-16T00:00	23542	33	-55.7	-85.7	274	8
2023-09-16T00:00	23568	33	-55.7	-85.7	274	8
2023-09-16T00:00	23599	33	-55.8	-85.7	274	8
2023-09-16T00:00	23621	32	-55.8	-85.7	274	8
2023-09-16T00:00	23652	32	-55.9	-85.8	275	8
2023-09-16T00:00	23683	32	-55.8	-85.7	276	8
2023-09-16T00:00	23703	32	-55.7	-85.7	278	8
2023-09-16T00:00	23731	32	-55.7	-85.7	280	9
2023-09-16T00:00	23760	32	-55.8	-85.7	282	9
2023-09-16T00:00	23788	32	-55.9	-85.8	282	9
2023-09-16T00:00	23812	32	-55.6	-85.6	283	10
2023-09-16T00:00	23837	31	-55.4	-85.4	284	9
2023-09-16T00:00	23862	31	-55.4	-85.4	285	9
2023-09-16T00:00	23885	31	-55.4	-85.4	286	9
2023-09-16T00:00	23917	31	-55.3	-85.4	288	9
2023-09-16T00:00	23942	31	-55.2	-85.3	291	8
2023-09-16T00:00	23971	31	-55.2	-85.3	294	8
2023-09-16T00:00	23999	31	-55.3	-85.4	298	7
2023-09-16T00:00	24021	31	-55.4	-85.4	301	7
2023-09-16T00:00	24043	30	-55.5	-85.5	304	6
2023-09-16T00:00	24071	30	-55.5	-85.5	307	6
2023-09-16T00:00	24094	30	-55.5	-85.5	309	5
2023-09-16T00:00	24119	30	-55.5	-85.5	311	5
2023-09-16T00:00	24146	30	-55.5	-85.5	313	4
2023-09-16T00:00	24172	30	-55.4	-85.4	317	4
2023-09-16T00:00	24199	30	-55.2	-85.3	323	3
2023-09-16T00:00	24225	30	-55.1	-85.2	331	3
2023-09-16T00:00	24253	29	-55.0	-85.7	342	3
2023-09-16T00:00	24274	29	-54.9	-85.1	351	3
2023-09-16T00:00	24297	29	-55.1	-85.2	360	3
2023-09-16T00:00	24323	29	-55.2	-85.3	7	3
2023-09-16T00:00	24354	29	-55.3	-85.4	13	3
2023-09-16T00:00	24382	29	-55.4	-85.4	18	3
2023-09-16T00:00	24402	29	-55.4	-85.4	21	2
2023-09-16T00:00	24430	29	-55.3	-85.4	20	2
2023-09-16T00:00	24461	28	-55.1	-85.2	13	2
2023-09-16T00:00	24496	28	-55.1	-85.2	1	2
2023-09-16T00:00	24519	28	-55.2	-85.3	347	2
2023-09-16T00:00	24543	28	-55.1	-85.8	335	2
2023-09-16T00:00	24566	28	-55.0	-85.7	326	2
2023-09-16T00:00	24600	28	-54.8	-85.5	317	3
2023-09-16T00:00	24624	28	-54.5	-85.3	308	3
2023-09-16T00:00	24649	28	-54.3	-85.2	298	3
2023-09-16T00:00	24679	28	-54.2	-85.1	287	3
2023-09-16T00:00	24703	27	-54.1	-85.0	275	3
2023-09-16T00:00	24733	27	-54.1	-85.0	266	3
2023-09-16T00:00	24762	27	-54.0	-84.9	260	4
2023-09-16T00:00	24782	27	-54.1	-85.6	258	4
2023-09-16T00:00	24812	27	-54.0	-85.5	259	4
2023-09-16T00:00	24837	27	-53.1	-84.9	260	5
2023-09-16T00:00	24873	27	-52.7	-84.6	261	5
2023-09-16T00:00	24893	27	-52.4	-85.1	262	6
2023-09-16T00:00	24923	27	-52.1	-84.8	263	6
2023-09-16T00:00	24952	26	-51.9	-84.7	264	6
2023-09-16T00:00	24984	26	-51.5	-84.4	268	6
2023-09-16T00:00	25012	26	-51.2	-84.2	273	6
2023-09-16T00:00	25037	26	-51.1	-84.1	280	6
2023-09-16T00:00	25058	26	-50.9	-84.0	287	5
2023-09-16T00:00	25090	26	-51.0	-84.0	293	5
2023-09-16T00:00	25116	26	-51.2	-83.5	298	5
2023-09-16T00:00	25146	26	-51.3	-83.6	304	6
2023-09-16T00:00	25170	26	-51.4	-83.6	310	6
2023-09-16T00:00	25203	25	-51.4	-83.6	316	6
2023-09-16T00:00	25232	25	-51.5	-83.7	322	5
2023-09-16T00:00	25261	25	-51.5	-83.7	328	5
2023-09-16T00:00	25286	25	-51.5	-83.7	333	5
2023-09-16T00:00	25314	25	-51.6	-83.8	335	5
2023-09-16T00:00	25337	25	-51.7	-83.9	336	4
2023-09-16T00:00	25374	25	-51.6	-83.8	333	4
2023-09-16T00:00	25392	25	-51.4	-83.6	327	4
2023-09-16T00:00	25422	25	-51.2	-83.5	318	3
2023-09-16T00:00	25446	24	-51.2	-83.5	306	3
2023-09-16T00:00	25477	24	-51.2	-83.5	291	3
2023-09-16T00:00	25502	24	-51.2	-83.5	278	3
2023-09-16T00:00	25523	24	-51.1	-83.4	268	3
2023-09-16T00:00	25552	24	-51.0	-83.3	262	4
2023-09-16T00:00	25585	24	-51.1	-83.4	257	5
2023-09-16T00:00	25613	24	-51.2	-83.5	254	5
2023-09-16T00:00	25640	24	-51.3	-83.6	250	6
2023-09-16T00:00	25667	24	-51.4	-83.6	248	6
2023-09-16T00:00	25691	24	-51.6	-83.8	246	7
2023-09-16T00:00	25722	23	-51.7	-83.9	245	7
2023-09-16T00:00	25752	23	-51.5	-83.7	245	8
2023-09-16T00:00	25766	23	-51.4	-83.6	246	7
2023-09-16T00:00	25805	23	-51.4	-83.6	248	7
2023-09-16T00:00	25827	23	-51.3	-83.6	251	7
2023-09-16T00:00	25851	23	-51.4	-83.6	254	6
2023-09-16T00:00	25879	23	-51.5	-83.7	258	6
2023-09-16T00:00	25904	23	-51.4	-83.6	262	6
2023-09-16T00:00	25936	23	-51.4	-83.6	266	6
2023-09-16T00:00	25957	23	-51.6	-83.8	270	7
2023-09-16T00:00	25991	22	-51.5	-83.7	273	7
2023-09-16T00:00	26021	22	-51.5	-83.7	276	8
2023-09-16T00:00	26048	22	-51.4	-83.6	279	8
2023-09-16T00:00	26069	22	-50.9	-84.0	281	8
2023-09-16T00:00	26093	22	-50.8	-83.9	283	8
2023-09-16T00:00	26132	22	-50.7	-83.8	284	7
2023-09-16T00:00	26152	22	-50.5	-83.7	285	7
2023-09-16T00:00	26177	22	-50.5	-83.7	285	6
2023-09-16T00:00	26211	22	-50.7	-83.8	284	5
2023-09-16T00:00	26234	22	-50.8	-83.9	280	4
2023-09-16T00:00	26264	22	-51.0	-83.3	274	3
2023-09-16T00:00	26303	21	-51.0	-83.3	262	3
2023-09-16T00:00	26320	21	-51.0	-83.3	242	2
2023-09-16T00:00	26350	21	-51.1	-83.4	220	2
2023-09-16T00:00	26389	21	-51.2	-83.5	205	3
2023-09-16T00:00	26407	21	-51.2	-83.5	197	4
2023-09-16T00:00	26446	21	-51.2	-83.5	195	4
2023-09-16T00:00	26471	21	-51.3	-83.6	196	5
2023-09-16T00:00	26485	21	-51.2	-83.5	199	5
2023-09-16T00:00	26525	21	-51.2	-83.5	204	6
2023-09-16T00:00	26552	21	-51.1	-83.4	210	6
2023-09-16T00:00	26580	21	-51.1	-84.1	216	7
2023-09-16T00:00	26606	20	-51.0	-84.0	223	7
2023-09-16T00:00	26636	20	-51.0	-84.0	230	8
2023-09-16T00:00	26663	20	-50.8	-83.9	236	8
2023-09-16T00:00	26702	20	-50.8	-83.9	242	9
2023-09-16T00:00	26720	20	-50.7	-83.8	247	9
2023-09-16T00:00	26757	20	-50.7	-83.8	251	10
2023-09-16T00:00	26780	20	-50.6	-83.7	254	10
2023-09-16T00:00	26810	20	-50.6	-83.7	257	10
2023-09-16T00:00	26834	20	-50.5	-83.7	259	10
2023-09-16T00:00	26864	20	-50.4	-83.6	261	10
2023-09-16T00:00	26895	20	-50.4	-83.6	263	9
2023-09-16T00:00	26915	20	-50.7	-83.8	267	9
2023-09-16T00:00	26957	19	-50.8	-83.2	270	9
2023-09-16T00:00	26972	19	-50.9	-83.3	272	9
2023-09-16T00:00	27012	19	-51.1	-83.4	273	9
2023-09-16T00:00	27040	19	-51.2	-83.5	272	8
2023-09-16T00:00	27058	19	-51.0	-83.3	268	8
2023-09-16T00:00	27093	19	-51.0	-83.3	263	7
2023-09-16T00:00	27118	19	-51.2	-83.5	258	7
2023-09-16T00:00	27149	19	-51.3	-83.6	253	7
2023-09-16T00:00	27172	19	-51.2	-84.2	249	6
2023-09-16T00:00	27195	19	-51.1	-84.1	247	6
2023-09-16T00:00	27235	19	-50.9	-84.0	245	6
2023-09-16T00:00	27258	19	-50.8	-83.9	245	6
2023-09-16T00:00	27297	18	-50.6	-83.7	245	7
2023-09-16T00:00	27316	18	-50.6	-83.7	247	7
2023-09-16T00:00	27354	18	-50.5	-83.7	247	7
2023-09-16T00:00	27383	18	-50.4	-83.6	247	7
2023-09-16T00:00	27403	18	-50.3	-83.5	244	8
2023-09-16T00:00	27430	18	-50.1	-83.4	240	8
2023-09-16T00:00	27450	18	-50.1	-83.4	236	9
2023-09-16T00:00	27480	18	-50.1	-83.4	232	9
2023-09-16T00:00	27504	18	-50.0	-83.3	229	10
2023-09-16T00:00	27539	18	-50.1	-83.4	226	10
2023-09-16T00:00	27559	18	-50.2	-83.5	225	10
2023-09-16T00:00	27584	18	-50.1	-83.4	224	10
2023-09-16T00:00	27625	18	-50.0	-83.3	226	10
2023-09-16T00:00	27640	17	-49.8	-83.2	230	10
2023-09-16T00:00	27676	17	-49.4	-83.7	236	10
2023-09-16T00:00	27707	17	-49.0	-83.4	243	10
2023-09-16T00:00	27729	17	-48.9	-83.3	249	10
2023-09-16T00:00	27750	17	-48.9	-83.3	254	11
2023-09-16T00:00	27782	17	-48.7	-83.2	257	10
2023-09-16T00:00	27806	17	-48.4	-82.9	259	10
2023-09-16T00:00	27828	17	-48.2	-82.8	261	10
2023-09-16T00:00	27851	17	-47.7	-82.4	261	10
2023-09-16T00:00	27896	17	-47.5	-83.2	261	9
2023-09-16T00:00	27921	17	-47.4	-83.1	260	9
2023-09-16T00:00	27941	17	-47.0	-82.9	258	9
2023-09-16T00:00	27973	17	-46.7	-82.6	257	8
2023-09-16T00:00	27999	17	-46.4	-82.4	255	8
2023-09-16T00:00	28029	16	-46.3	-82.4	254	7
2023-09-16T00:00	28064	16	-46.3	-82.4	255	7
2023-09-16T00:00	28093	16	-46.2	-82.3	256	7
2023-09-16T00:00	28114	16	-46.1	-82.2	259	7
2023-09-16T00:00	28146	16	-46.0	-82.1	262	7
2023-09-16T00:00	28175	16	-45.9	-81.2	265	8
2023-09-16T00:00	28200	16	-45.9	-81.2	266	8
2023-09-16T00:00	28242	16	-46.0	-81.2	267	9
2023-09-16T00:00	28262	16	-46.1	-81.3	267	9
2023-09-16T00:00	28290	16	-46.2	-81.4	267	10
2023-09-16T00:00	28315	16	-46.4	-81.5	267	10
2023-09-16T00:00	28354	16	-46.5	-81.6	269	10
2023-09-16T00:00	28372	16	-46.6	-81.7	272	10
2023-09-16T00:00	28405	16	-46.7	-81.7	277	10
2023-09-16T00:00	28432	16	-46.7	-81.7	282	10
2023-09-16T00:00	28465	15	-46.4	-81.5	287	10
2023-09-16T00:00	28482	15	-46.3	-81.4	289	9
2023-09-16T00:00	28522	15	-46.1	-81.3	289	9
2023-09-16T00:00	28557	15	-46.1	-81.3	287	9
2023-09-16T00:00	28587	15	-46.2	-81.4	283	8
2023-09-16T00:00	28614	15	-46.2	-81.4	278	8
2023-09-16T00:00	28651	15	-46.3	-81.4	273	8
2023-09-16T00:00	28682	15	-46.4	-81.5	268	7
2023-09-16T00:00	28696	15	-46.5	-81.6	262	7
2023-09-16T00:00	28721	15	-46.3	-81.4	258	7
2023-09-16T00:00	28774	15	-46.3	-81.4	253	7
2023-09-16T00:00	28794	15	-46.3	-81.4	249	7
2023-09-16T00:00	28829	15	-46.4	-81.5	246	8
2023-09-16T00:00	28843	15	-46.4	-81.5	243	8
2023-09-16T00:00	28886	14	-46.3	-81.4	240	8
2023-09-16T00:00	28922	14	-46.4	-81.5	239	8
2023-09-16T00:00	28940	14	-46.4	-81.5	239	8
2023-09-16T00:00	28969	14	-46.3	-81.4	241	8
2023-09-16T00:00	29010	14	-46.2	-81.4	245	8
2023-09-16T00:00	29027	14	-45.9	-81.2	249	8
2023-09-16T00:00	29052	14	-45.9	-82.1	253	8
2023-09-16T00:00	29092	14	-45.9	-82.1	257	8
2023-09-16T00:00	29112	14	-45.7	-81.9	261	8
2023-09-16T00:00	29138	14	-45.5	-81.8	263	8
2023-09-16T00:00	29171	14	-45.4	-81.7	266	8
2023-09-16T00:00	29211	14	-45.1	-81.5	268	8
2023-09-16T00:00	29227	14	-44.8	-81.3	269	8
2023-09-16T00:00	29262	14	-44.7	-81.2	269	8
2023-09-16T00:00	29281	14	-44.7	-81.2	269	8
2023-09-16T00:00	29306	14	-44.8	-81.3	268	8
2023-09-16T00:00	29340	14	-44.8	-81.3	267	8
2023-09-16T00:00	29376	13	-44.6	-81.2	265	7
2023-09-16T00:00	29388	13	-44.6	-81.2	262	7
2023-09-16T00:00	29414	13	-44.6	-81.2	259	6
2023-09-16T00:00	29448	13	-44.5	-81.1	256	6
2023-09-16T00:00	29473	13	-44.3	-80.9	252	6
2023-09-16T00:00	29516	13	-44.2	-80.9	247	5
2023-09-16T00:00	29535	13	-44.3	-80.9	240	5
2023-09-16T00:00	29546	13	-44.4	-81.0	232	5
2023-09-16T00:00	29582	13	-44.4	-81.0	224	6
2023-09-16T00:00	29621	13	-44.3	-80.9	218	6
2023-09-16T00:00	29640	13	-44.4	-81.0	214	6
2023-09-16T00:00	29670	13	-44.6	-81.2	210	7
2023-09-16T00:00	29707	13	-44.7	-81.2	208	7
2023-09-16T00:00	29719	13	-44.5	-81.1	206	8
2023-09-16T00:00	29753	13	-44.6	-81.2	206	8
2023-09-16T00:00	29791	13	-44.7	-81.2	206	9
2023-09-16T00:00	29811	13	-44.7	-81.2	207	10
2023-09-16T00:00	29833	13	-44.8	-81.3	209	11
2023-09-16T00:00	29874	13	-44.7	-81.2	212	12
2023-09-16T00:00	29900	12	-44.5	-81.1	215	13
2023-09-16T00:00	29936	12	-44.6	-81.2	218	14
2023-09-16T00:00	29963	12	-44.7	-81.2	220	15
2023-09-16T00:00	30000	12	-44.7	-81.2	222	16
2023-09-16T00:00	30021	12	-44.7	-81.2	224	17
2023-09-16T00:00	30054	12	-44.4	-81.0	225	18
2023-09-16T00:00	30087	12	-44.2	-80.9	225	18
2023-09-16T00:00	30100	12	-44.3	-80.9	226	18
2023-09-16T00:00	30137	12	-44.2	-80.9	228	18
2023-09-16T00:00	30164	12	-44.2	-80.9	229	18
2023-09-16T00:00	30189	12	-44.1	-80.8	230	18
2023-09-16T00:00	30223	12	-43.9	-80.7	232	18
2023-09-16T00:00	30253	12	-44.0	-80.7	233	19
2023-09-16T00:00	30282	12	-44.2	-80.9	234	19
2023-09-16T00:00	30325	12	-44.4	-81.0	234	20
2023-09-16T00:00	30350	12	-44.6	-81.2	235	21
2023-09-16T00:00	30373	12	-44.7	-81.2	235	21
2023-09-16T00:00	30397	12	-44.9	-81.4	234	22
2023-09-16T00:00	30434	12	-44.9	-81.4	235	22
2023-09-16T00:00	30464	11	-44.9	-80.4	235	23
2023-09-16T00:00	30474	11	-45.2	-80.7	237	23
2023-09-16T00:00	30528	11	-45.5	-80.9	238	23
2023-09-16T00:00	30541	11	-45.7	-81.0	240	23
2023-09-16T00:00	30581	11	-45.8	-81.1	241	23
2023-09-16T00:00	30599	11	-45.7	-81.9	242	23
2023-09-16T00:00	30638	11	-45.5	-81.8	244	22
2023-09-16T00:00	30656	11	-45.4	-81.7	245	21
2023-09-16T00:00	30703	11	-45.4	-81.7	246	21
2023-09-16T00:00	30730	11	-45.2	-81.6	247	20
2023-09-16T00:00	30758	11	-45.2	-81.6	248	19
2023-09-16T00:00	30811	11	-45.3	-81.6	248	18
2023-09-16T00:00	30824	11	-45.5	-81.8	248	17
2023-09-16T00:00	30851	11	-45.7	-81.9	248	17
2023-09-16T00:00	30884	11	-45.7	-81.9	248	16
2023-09-16T00:00	30917	11	-45.7	-81.0	248	16
2023-09-16T00:00	30936	11	-45.9	-81.2	249	16
2023-09-16T00:00	30990	11	-46.0	-81.2	250	15
2023-09-16T00:00	31031	11	-46.3	-81.4	253	15
2023-09-16T00:00	31070	10	-46.0	-82.1	254	15
2023-09-16T00:00	31094	10	-45.8	-82.0	255	15
2023-09-16T00:00	31124	10	-45.8	-82.0	254	15
2023-09-16T00:00	31165	10	-45.8	-82.0	254	16
2023-09-16T00:00	31199	10	-45.8	-82.0	254	16
2023-09-16T00:00	31229	10	-45.8	-82.0	254	17
2023-09-16T00:00	31251	10	-45.9	-82.1	255	18
2023-09-16T00:00	31286	10	-46.0	-82.1	256	19
2023-09-16T00:00	31305	10	-46.2	-81.4	257	19
2023-09-16T00:00	31333	10	-46.4	-81.5	258	20
2023-09-16T00:00	31372	10	-46.5	-82.5	260	20
2023-09-16T00:00	31401	10	-46.3	-82.4	262	20
2023-09-16T00:00	31441	10	-46.0	-82.1	264	20
2023-09-16T00:00	31464	10	-45.7	-81.9	266	20
2023-09-16T00:00	31497	10	-45.3	-81.6	267	19
2023-09-16T00:00	31530	10	-45.2	-81.6	268	19
2023-09-16T00:00	31552	10	-45.2	-81.6	269	19
2023-09-16T00:00	31582	10	-45.3	-81.6	269	19
2023-09-16T00:00	31626	10	-45.1	-81.5	269	19
2023-09-16T00:00	31644	10	-45.2	-81.6	270	20
2023-09-16T00:00	31692	10	-45.2	-81.6	272	20
2023-09-16T00:00	31706	10	-45.1	-81.5	274	21
2023-09-16T00:00	31717	9	-45.1	-81.5	276	21
2023-09-16T00:00	31768	9	-44.8	-81.3	278	21
2023-09-16T00:00	31783	9	-44.9	-81.4	280	21
2023-09-16T00:00	31826	9	-44.8	-81.3	282	21
2023-09-16T00:00	31828	9	-44.4	-81.0	283	20
2023-09-16T00:00	31891	9	-44.1	-80.8	283	20
2023-09-16T00:00	31906	9	-44.1	-80.8	283	19
2023-09-16T00:00	31922	9	-44.0	-80.7	283	19
2023-09-16T00:00	31959	9	-44.1	-80.8	283	18
2023-09-16T00:00	31978	9	-44.1	-80.8	282	18
2023-09-16T00:00	32019	9	-44.1	-80.8	283	17
2023-09-16T00:00	32046	9	-44.1	-80.8	283	17
2023-09-16T00:00	32069	9	-44.2	-80.9	283	16
2023-09-16T00:00	32078	9	-44.4	-81.0	283	16
2023-09-16T00:00	32130	9	-44.4	-81.0	283	15
2023-09-16T00:00	32157	9	-44.2	-80.9	283	15
2023-09-16T00:00	32160	9	-44.1	-80.8	284	14
2023-09-16T00:00	32201	9	-44.0	-80.7	285	14
2023-09-16T00:00	32236	9	-43.8	-80.6	286	14
2023-09-16T00:00	32270	9	-43.8	-80.6	288	14
2023-09-16T00:00	32287	9	-43.7	-80.5	289	14
2023-09-16T00:00	32308	9	-43.7	-81.6	289	15
2023-09-16T00:00	32327	9	-43.6	-81.5	289	15
2023-09-16T00:00	32369	9	-43.6	-81.5	288	16
2023-09-16T00:00	32401	9	-43.6	-81.5	286	16
2023-09-16T00:00	32442	9	-43.6	-80.4	284	16
2023-09-16T00:00	32467	9	-43.7	-80.5	283	16
2023-09-16T00:00	32473	8	-43.7	-80.5	281	16
2023-09-16T00:00	32514	8	-43.6	-80.4	280	16
2023-09-16T00:00	32530	8	-43.6	-80.4	280	16
2023-09-16T00:00	32564	8	-43.6	-80.4	281	17
2023-09-16T00:00	32602	8	-43.6	-81.5	282	17
2023-09-16T00:00	32628	8	-43.4	-81.4	284	18
2023-09-16T00:00	32647	8	-43.2	-81.3	286	18
2023-09-16T00:00	32686	8	-43.1	-81.2	288	19
2023-09-16T00:00	32706	8	-43.1	-81.2	290	20
2023-09-16T00:00	32740	8	-43.1	-81.2	291	21
2023-09-16T00:00	32770	8	-43.0	-81.1	293	22
2023-09-16T00:00	32796	8	-42.4	-80.7	295	22
2023-09-16T00:00	32828	8	-41.6	-80.1	296	22
2023-09-16T00:00	32866	8	-41.5	-80.1	297	22
2023-09-16T00:00	32884	8	-41.1	-79.8	297	22
2023-09-16T00:00	32916	8	-40.6	-79.5	297	22
2023-09-16T00:00	32955	8	-40.1	-79.1	298	22
2023-09-16T00:00	32972	8	-39.8	-78.9	298	22
2023-09-16T00:00	33001	8	-39.6	-78.8	299	21
2023-09-16T00:00	33037	8	-39.4	-78.6	300	21
2023-09-16T00:00	33091	8	-39.0	-78.3	302	19
2023-09-16T00:00	33100	8	-38.8	-78.2	302	19
2023-09-16T00:00	33142	8	-38.8	-78.2	301	18
2023-09-16T00:00	33161	8	-38.5	-78.0	300	17
2023-09-16T00:00	33180	8	-38.3	-77.9	298	17
2023-09-16T00:00	33209	8	-38.2	-77.8	295	16
2023-09-16T00:00	33211	8	-38.2	-77.8	293	15
2023-09-16T00:00	33247	8	-37.9	-77.6	291	15
2023-09-16T00:00	33283	8	-37.1	-77.0	289	14
2023-09-16T00:00	33302	8	-36.7	-76.7	288	14
2023-09-16T00:00	33320	7	-36.7	-76.7	287	13
2023-09-16T06:00	-999					
2023-09-16T06:00	129	1004	11.9	8.3	115	4
2023-09-16T06:00	158	1000	12.8	8.2	120	6
2023-09-16T06:00	182	997	13.1	8.3	126	7
2023-09-16T06:00	209	994	14.5	9.0	130	8
2023-09-16T06:00	233	991	15.2	9.1	135	9
2023-09-16T06:00	258	989	15.8	9.3	139	9
2023-09-16T06:00	282	986	16.8	9.2	141	8
2023-09-16T06:00	309	983	17.7	9.1	142	8
2023-09-16T06:00	337	980	17.6	9.1	142	7
2023-09-16T06:00	362	977	17.5	8.9	142	6
2023-09-16T06:00	387	974	17.6	9.0	143	6
2023-09-16T06:00	414	971	17.7	9.3	145	5
2023-09-16T06:00	437	968	17.6	9.3	149	5
2023-09-16T06:00	463	965	17.5	9.3	153	5
2023-09-16T06:00	488	962	17.3	9.1	156	5
2023-09-16T06:00	514	959	17.1	9.1	159	5
2023-09-16T06:00	537	957	16.9	9.0	161	5
2023-09-16T06:00	561	954	16.7	9.0	161	5
2023-09-16T06:00	586	951	16.6	9.1	161	5
2023-09-16T06:00	613	948	16.4	9.1	159	5
2023-09-16T06:00	634	946	16.3	9.1	158	5
2023-09-16T06:00	660	943	16.1	9.0	158	5
2023-09-16T06:00	682	940	15.8	8.8	158	5
2023-09-16T06:00	706	938	15.6	8.7	159	5
2023-09-16T06:00	731	935	15.4	8.8	159	5
2023-09-16T06:00	757	932	15.1	8.7	157	5
2023-09-16T06:00	786	929	14.9	8.7	154	5
2023-09-16T06:00	811	926	14.6	8.7	151	5
2023-09-16T06:00	838	923	14.4	8.5	147	5
2023-09-16T06:00	869	920	14.2	8.0	143	5
2023-09-16T06:00	898	917	14.0	7.7	140	5
2023-09-16T06:00	922	914	13.8	7.7	137	6
2023-09-16T06:00	949	912	13.5	7.6	136	6
2023-09-16T06:00	969	909	13.4	7.8	137	6
2023-09-16T06:00	991	907	13.2	8.0	138	6
2023-09-16T06:00	1011	904	13.0	8.2	139	5
2023-09-16T06:00	1038	902	12.7	8.1	140	5
2023-09-16T06:00	1064	899	12.5	8.2	141	5
2023-09-16T06:00	1090	896	12.3	8.1	141	6
2023-09-16T06:00	1121	893	12.0	8.0	141	6
2023-09-16T06:00	1144	891	11.8	8.0	140	6
2023-09-16T06:00	1166	888	11.5	7.8	139	6
2023-09-16T06:00	1197	885	11.3	7.9	137	6
2023-09-16T06:00	1225	882	11.0	7.8	135	6
2023-09-16T06:00	1250	879	10.8	7.4	133	6
2023-09-16T06:00	1275	877	10.6	7.3	133	5
2023-09-16T06:00	1301	874	10.3	7.3	133	5
2023-09-16T06:00	1329	871	10.0	7.2	135	6
2023-09-16T06:00	1355	868	9.8	7.1	135	6
2023-09-16T06:00	1382	866	9.5	6.8	134	6
2023-09-16T06:00	1410	863	9.3	6.8	132	6
2023-09-16T06:00	1435	860	9.1	6.3	128	6
2023-09-16T06:00	1461	857	8.9	6.3	125	6
2023-09-16T06:00	1494	854	8.6	6.3	122	7
2023-09-16T06:00	1523	851	8.3	6.1	122	7
2023-09-16T06:00	1553	848	8.1	6.0	124	7
2023-09-16T06:00	1579	845	7.9	6.0	127	7
2023-09-16T06:00	1602	843	7.9	5.4	132	7
2023-09-16T06:00	1636	840	8.0	4.8	138	7
2023-09-16T06:00	1661	837	8.1	4.2	143	8
2023-09-16T06:00	1693	834	8.0	3.9	149	8
2023-09-16T06:00	1722	831	7.8	3.6	154	8
2023-09-16T06:00	1749	828	8.0	3.0	158	8
2023-09-16T06:00	1775	825	8.8	-0.8	160	9
2023-09-16T06:00	1800	823	9.8	-5.8	160	9
2023-09-16T06:00	1826	820	10.0	-6.5	159	9
2023-09-16T06:00	1852	818	10.1	-5.9	157	10
2023-09-16T06:00	1873	815	10.0	-5.7	154	10
2023-09-16T06:00	1903	813	10.1	-6.4	153	10
2023-09-16T06:00	1921	811	10.3	-7.8	151	11
2023-09-16T06:00	1949	808	10.9	-11.5	151	11
2023-09-16T06:00	1973	806	11.1	-11.6	151	11
2023-09-16T06:00	1997	804	11.1	-10.8	152	10
2023-09-16T06:00	2020	801	11.0	-8.8	153	10
2023-09-16T06:00	2049	799	10.9	-9.0	155	10
2023-09-16T06:00	2072	796	10.9	-6.4	157	10
2023-09-16T06:00	2098	794	10.8	-5.9	158	10
2023-09-16T06:00	2122	792	10.9	-7.6	158	9
2023-09-16T06:00	2149	789	11.1	-11.3	158	9
2023-09-16T06:00	2174	787	11.1	-10.2	158	8
2023-09-16T06:00	2201	784	11.0	-10.2	158	8
2023-09-16T06:00	2222	782	11.0	-10.9	160	8
2023-09-16T06:00	2247	780	10.9	-10.9	161	8
2023-09-16T06:00	2274	777	10.9	-11.3	163	8
2023-09-16T06:00	2299	775	11.2	-12.9	163	8
2023-09-16T06:00	2326	773	11.3	-13.2	162	8
2023-09-16T06:00	2348	770	11.3	-13.8	160	8
2023-09-16T06:00	2371	768	11.3	-14.5	157	8
2023-09-16T06:00	2400	766	11.1	-14.7	154	7
2023-09-16T06:00	2430	763	10.9	-14.8	151	7
2023-09-16T06:00	2459	760	10.9	-16.6	148	6
2023-09-16T06:00	2490	757	11.0	-20.8	146	6
2023-09-16T06:00	2512	755	10.9	-22.5	146	6
2023-09-16T06:00	2539	753	10.9	-24.5	146	5
2023-09-16T06:00	2565	751	11.1	-26.8	148	5
2023-09-16T06:00	2592	748	10.9	-27.2	151	5
2023-09-16T06:00	2623	745	10.8	-27.5	153	6
2023-09-16T06:00	2651	743	11.0	-27.1	154	6
2023-09-16T06:00	2680	740	11.1	-24.8	154	6
2023-09-16T06:00	2711	738	11.0	-23.1	155	6
2023-09-16T06:00	2739	735	10.9	-21.4	155	6
2023-09-16T06:00	2767	733	10.7	-22.0	155	6
2023-09-16T06:00	2797	730	10.5	-24.4	155	6
2023-09-16T06:00	2827	727	10.2	-25.0	155	6
2023-09-16T06:00	2854	725	10.0	-23.8	155	6
2023-09-16T06:00	2885	722	9.8	-24.5	155	6
2023-09-16T06:00	2907	720	9.6	-24.4	156	6
2023-09-16T06:00	2931	718	9.4	-22.2	158	6
2023-09-16T06:00	2958	716	9.2	-23.8	161	6
2023-09-16T06:00	2985	713	9.0	-21.7	162	6
2023-09-16T06:00	3015	711	8.7	-20.3	163	6
2023-09-16T06:00	3043	709	8.5	-20.2	163	6
2023-09-16T06:00	3072	706	8.2	-20.8	161	6
2023-09-16T06:00	3097	704	7.9	-19.7	160	6
2023-09-16T06:00	3122	702	7.7	-19.4	159	5
2023-09-16T06:00	3149	700	7.4	-17.9	160	5
2023-09-16T06:00	3168	698	7.2	-17.4	163	5
2023-09-16T06:00	3187	696	7.1	-16.3	166	6
2023-09-16T06:00	3212	694	6.9	-16.5	170	6
2023-09-16T06:00	3242	692	6.6	-16.6	173	6
2023-09-16T06:00	3273	689	6.3	-16.6	177	6
2023-09-16T06:00	3300	687	6.1	-17.0	180	6
2023-09-16T06:00	3325	685	5.8	-17.1	183	6
2023-09-16T06:00	3352	682	5.6	-16.7	186	6
2023-09-16T06:00	3379	680	5.4	-17.2	188	6
2023-09-16T06:00	3408	678	5.2	-16.9	188	6
2023-09-16T06:00	3433	676	4.9	-15.2	187	6
2023-09-16T06:00	3456	674	4.8	-15.2	185	6
2023-09-16T06:00	3483	671	4.6	-15.3	182	6
2023-09-16T06:00	3510	669	4.3	-15.7	181	7
2023-09-16T06:00	3540	667	4.2	-16.0	180	7
2023-09-16T06:00	3561	665	4.2	-16.2	181	7
2023-09-16T06:00	3582	663	4.0	-16.4	182	7
2023-09-16T06:00	3605	662	3.8	-16.5	182	7
2023-09-16T06:00	3623	660	3.7	-16.6	182	6
2023-09-16T06:00	3648	658	3.5	-16.7	182	6
2023-09-16T06:00	3673	656	3.3	-16.8	181	7
2023-09-16T06:00	3702	654	3.1	-16.5	181	7
2023-09-16T06:00	3729	651	2.8	-15.9	182	6
2023-09-16T06:00	3757	649	2.6	-15.9	182	7
2023-09-16T06:00	3781	647	2.4	-15.8	182	7
2023-09-16T06:00	3805	645	2.2	-16.0	182	7
2023-09-16T06:00	3840	643	1.9	-16.0	181	7
2023-09-16T06:00	3868	640	1.6	-16.4	181	7
2023-09-16T06:00	3893	638	1.4	-16.3	181	7
2023-09-16T06:00	3916	636	1.2	-16.4	182	7
2023-09-16T06:00	3940	634	1.0	-16.6	183	7
2023-09-16T06:00	3972	632	0.7	-16.9	183	7
2023-09-16T06:00	3995	630	0.5	-16.6	183	7
2023-09-16T06:00	4016	629	0.3		181	7
2023-09-16T06:00	4038	627	0.1	-16.5	180	8
2023-09-16T06:00	4064	625	-0.1	-16.6	178	8
2023-09-16T06:00	4092	623	-0.3	-16.8	177	9
2023-09-16T06:00	4125	620	-0.5	-18.0	176	9
2023-09-16T06:00	4152	618	-0.7	-19.0	176	10
2023-09-16T06:00	4176	616	-0.8	-19.4	175	10
2023-09-16T06:00	4202	614	-1.0	-20.2	175	10
2023-09-16T06:00	4230	612	-1.2	-20.7	175	11
2023-09-16T06:00	4256	610	-1.4	-21.1	175	11
2023-09-16T06:00	4281	608	-1.6	-21.3	174	11
2023-09-16T06:00	4304	606	-1.8	-21.4	173	12
2023-09-16T06:00	4328	604	-2.0	-21.5	172	12
2023-09-16T06:00	4355	602	-2.2	-21.4	171	12
2023-09-16T06:00	4386	600	-2.4	-20.2	171	12
2023-09-16T06:00	4413	598	-2.6	-20.2	172	12
2023-09-16T06:00	4442	596	-2.9	-19.2	174	12
2023-09-16T06:00	4470	594	-3.2	-18.7	175	12
2023-09-16T06:00	4498	592	-3.4	-18.2	176	12
2023-09-16T06:00	4526	590	-3.7	-18.1	177	12
2023-09-16T06:00	4550	588	-3.9	-18.3	177	12
2023-09-16T06:00	4577	586	-4.1	-19.5	176	12
2023-09-16T06:00	4603	584	-4.4	-19.9	174	12
2023-09-16T06:00	4627	582	-4.5	-21.6	173	12
2023-09-16T06:00	4653	580	-4.7	-21.5	173	11
2023-09-16T06:00	4678	578	-4.8	-22.6	173	11
2023-09-16T06:00	4704	576	-4.9	-22.8	174	11
2023-09-16T06:00	4726	575	-5.1	-23.0	175	11
2023-09-16T06:00	4756	573	-5.4	-23.0	174	11
2023-09-16T06:00	4782	571	-5.5	-23.1	173	11
2023-09-16T06:00	4813	569	-5.7	-23.0	171	12
2023-09-16T06:00	4834	567	-5.9	-23.6	171	12
2023-09-16T06:00	4858	565	-6.0	-23.8	171	12
2023-09-16T06:00	4879	564	-6.2	-23.8	171	13
2023-09-16T06:00	4900	562	-6.3	-23.7	172	12
2023-09-16T06:00	4927	560	-6.4	-24.3	173	12
2023-09-16T06:00	4953	559	-6.5	-25.9	174	12
2023-09-16T06:00	4970	557	-6.5	-26.6	175	13
2023-09-16T06:00	4987	556	-6.5	-26.4	176	13
2023-09-16T06:00	5003	555	-6.5	-25.6	176	13
2023-09-16T06:00	5018	554	-6.6	-26.3	177	13
2023-09-16T06:00	5035	552	-6.6	-26.4	178	13
2023-09-16T06:00	5055	551	-6.8	-25.3	178	13
2023-09-16T06:00	5071	550	-6.9	-24.5	179	13
2023-09-16T06:00	5087	549	-7.1	-23.5	179	13
2023-09-16T06:00	5104	548	-7.2	-23.3	178	13
2023-09-16T06:00	5123	546	-7.4	-23.2	177	13
2023-09-16T06:00	5149	544	-7.7	-23.1	176	13
2023-09-16T06:00	5173	543	-7.9	-22.9	175	13
2023-09-16T06:00	5204	541	-8.2	-22.2	174	13
2023-09-16T06:00	5231	539	-8.4	-21.6	173	13
2023-09-16T06:00	5259	537	-8.6	-21.0	173	13
2023-09-16T06:00	5286	535	-8.9	-20.9	172	13
2023-09-16T06:00	5305	534	-9.0	-21.3	171	13
2023-09-16T06:00	5323	532	-9.1	-22.1	170	13
2023-09-16T06:00	5338	531	-9.2	-22.6	169	13
2023-09-16T06:00	5359	530	-9.3	-23.8	169	13
2023-09-16T06:00	5381	528	-9.5	-24.2	169	13
2023-09-16T06:00	5402	527	-9.6	-24.3	169	12
2023-09-16T06:00	5422	526	-9.8	-23.6	170	12
2023-09-16T06:00	5440	524	-9.9	-23.6	170	12
2023-09-16T06:00	5457	523	-10.1	-23.4	170	12
2023-09-16T06:00	5474	522	-10.2	-24.2	170	12
2023-09-16T06:00	5496	521	-10.5	-23.6	171	13
2023-09-16T06:00	5518	519	-10.7		171	13
2023-09-16T06:00	5543	517	-10.9	-23.4	172	13
2023-09-16T06:00	5573	515	-11.2	-23.5	172	13
2023-09-16T06:00	5604	513	-11.5	-23.5	173	13
2023-09-16T06:00	5632	512	-11.7	-23.9	172	13
2023-09-16T06:00	5651	510	-11.9	-24.1	171	13
2023-09-16T06:00	5678	508	-12.1	-24.2	169	13
2023-09-16T06:00	5706	507	-12.4	-24.4	168	12
2023-09-16T06:00	5729	505	-12.6	-24.5	167	12
2023-09-16T06:00	5753	503	-12.8	-24.5	168	12
2023-09-16T06:00	5779	502	-12.9	-24.3	169	12
2023-09-16T06:00	5812	500	-13.1	-24.6	171	12
2023-09-16T06:00	5841	498	-13.4	-24.8	172	12
2023-09-16T06:00	5868	496	-13.6	-24.9	173	12
2023-09-16T06:00	5892	494	-13.8	-25.1	173	12
2023-09-16T06:00	5913	493	-14.0	-25.2	174	11
2023-09-16T06:00	5940	491	-14.2	-25.4	174	11
2023-09-16T06:00	5966	490	-14.4	-25.6	173	11
2023-09-16T06:00	5989	488	-14.6	-25.8	172	11
2023-09-16T06:00	6014	486	-14.8	-25.9	171	11
2023-09-16T06:00	6036	485	-15.0	-26.2	171	10
2023-09-16T06:00	6059	484	-15.2	-26.7	171	10
2023-09-16T06:00	6083	482	-15.4	-26.9	171	10
2023-09-16T06:00	6104	481	-15.5	-27.3	172	10
2023-09-16T06:00	6129	479	-15.7	-27.6	171	10
2023-09-16T06:00	6156	477	-15.9	-27.8	170	10
2023-09-16T06:00	6188	475	-16.1	-28.2	170	10
2023-09-16T06:00	6218	473	-16.3	-28.4	170	10
2023-09-16T06:00	6244	472	-16.5	-28.2	171	10
2023-09-16T06:00	6267	470	-16.7	-28.2	173	10
2023-09-16T06:00	6290	469	-17.0	-28.3	175	11
2023-09-16T06:00	6319	467	-17.2	-28.3	176	11
2023-09-16T06:00	6339	466	-17.4	-28.5	176	11
2023-09-16T06:00	6358	465	-17.6	-28.8	177	11
2023-09-16T06:00	6380	463	-17.7	-28.7	177	11
2023-09-16T06:00	6401	462	-17.9	-28.8	178	11
2023-09-16T06:00	6420	461	-18.1	-28.9	178	12
2023-09-16T06:00	6442	460	-18.3	-29.1	177	12
2023-09-16T06:00	6460	458	-18.5	-29.1	176	12
2023-09-16T06:00	6477	457	-18.6	-29.1	175	12
2023-09-16T06:00	6495	456	-18.8	-29.1	174	12
2023-09-16T06:00	6516	455	-19.0	-29.2	174	12
2023-09-16T06:00	6534	454	-19.2	-29.4	174	12
2023-09-16T06:00	6553	453	-19.3	-29.4	174	12
2023-09-16T06:00	6575	451	-19.5	-29.6	173	13
2023-09-16T06:00	6593	450	-19.6	-29.6	173	13
2023-09-16T06:00	6612	449	-19.8	-29.6	172	13
2023-09-16T06:00	6635	448	-20.0	-29.6	171	13
2023-09-16T06:00	6655	447	-20.2	-29.8	171	13
2023-09-16T06:00	6680	445	-20.3	-29.9	171	13
2023-09-16T06:00	6709	443	-20.6	-30.2	172	13
2023-09-16T06:00	6744	441	-20.9	-30.7	173	13
2023-09-16T06:00	6765	440	-21.0	-31.4	174	13
2023-09-16T06:00	6784	439	-21.2	-31.6	175	13
2023-09-16T06:00	6802	438	-21.3	-31.6	176	13
2023-09-16T06:00	6821	437	-21.5	-31.8	176	13
2023-09-16T06:00	6846	435	-21.7	-32.0	175	13
2023-09-16T06:00	6871	434	-21.9	-32.2	175	13
2023-09-16T06:00	6894	432	-22.1	-32.0	176	13
2023-09-16T06:00	6916	431	-22.4	-32.0	177	13
2023-09-16T06:00	6946	429	-22.6	-32.6	178	12
2023-09-16T06:00	6971	428	-22.8	-32.8	179	12
2023-09-16T06:00	6998	426	-23.1	-32.9	179	12
2023-09-16T06:00	7019	425	-23.3	-33.1	179	12
2023-09-16T06:00	7043	424	-23.5	-33.3	178	12
2023-09-16T06:00	7064	422	-23.7	-33.4	176	12
2023-09-16T06:00	7085	421	-23.9	-33.7	174	12
2023-09-16T06:00	7104	420	-24.1	-33.8	173	12
2023-09-16T06:00	7127	419	-24.2	-34.2	172	12
2023-09-16T06:00	7148	418	-24.4	-34.7	172	12
2023-09-16T06:00	7169	416	-24.5	-34.8	172	12
2023-09-16T06:00	7190	415	-24.7	-35.1	172	12
2023-09-16T06:00	7213	414	-24.8	-35.3	173	12
2023-09-16T06:00	7237	412	-24.9	-36.3	173	12
2023-09-16T06:00	7264	411	-25.1	-36.6	175	12
2023-09-16T06:00	7288	410	-25.3	-37.0	176	12
2023-09-16T06:00	7318	408	-25.5	-37.4	178	12
2023-09-16T06:00	7338	407	-25.6	-37.8	180	11
2023-09-16T06:00	7357	406	-25.7	-38.3	181	11
2023-09-16T06:00	7381	404	-25.9	-38.7	182	11
2023-09-16T06:00	7411	403	-26.1	-39.6	183	10
2023-09-16T06:00	7438	401	-26.3	-41.3	184	10
2023-09-16T06:00	7463	400	-26.4	-41.9	184	10
2023-09-16T06:00	7485	399	-26.6	-42.2	185	10
2023-09-16T06:00	7506	397	-26.7	-42.2	184	10
2023-09-16T06:00	7527	396	-26.9	-41.9	184	11
2023-09-16T06:00	7550	395	-27.1	-41.8	184	11
2023-09-16T06:00	7569	394	-27.3	-41.9	184	11
2023-09-16T06:00	7589	393	-27.5	-42.2	184	11
2023-09-16T06:00	7608	392	-27.7	-42.5	184	11
2023-09-16T06:00	7627	391	-27.8	-42.6	184	11
2023-09-16T06:00	7647	390	-28.0	-43.0	183	11
2023-09-16T06:00	7667	389	-28.1	-43.4	183	11
2023-09-16T06:00	7686	388	-28.3	-43.2	183	11
2023-09-16T06:00	7706	386	-28.5	-43.2	182	12
2023-09-16T06:00	7730	385	-28.7	-43.1	181	12
2023-09-16T06:00	7750	384	-28.9	-42.9	180	12
2023-09-16T06:00	7773	383	-29.1	-43.3	178	12
2023-09-16T06:00	7800	381	-29.3	-44.0	177	12
2023-09-16T06:00	7831	380	-29.6	-44.3	176	12
2023-09-16T06:00	7860	378	-29.8	-44.2	174	12
2023-09-16T06:00	7887	377	-30.1	-44.1	174	11
2023-09-16T06:00	7914	375	-30.3	-44.0	173	11
2023-09-16T06:00	7940	374	-30.6	-44.3	173	12
2023-09-16T06:00	7967	373	-30.9	-44.5	172	12
2023-09-16T06:00	7988	371	-31.1	-44.4	172	12
2023-09-16T06:00	8013	370	-31.3	-44.4	171	12
2023-09-16T06:00	8032	369	-31.5	-44.5	171	12
2023-09-16T06:00	8056	368	-31.7	-44.5	171	12
2023-09-16T06:00	8081	367	-31.9	-44.6	171	12
2023-09-16T06:00	8104	365	-32.1	-44.6	172	12
2023-09-16T06:00	8130	364	-32.4	-44.6	172	12
2023-09-16T06:00	8151	363	-32.6	-44.7	173	11
2023-09-16T06:00	8172	362	-32.8	-45.0	174	11
2023-09-16T06:00	8190	361	-32.9	-45.6	174	11
2023-09-16T06:00	8210	360	-33.1	-46.3	175	11
2023-09-16T06:00	8233	359	-33.2	-47.2	176	12
2023-09-16T06:00	8255	358	-33.4	-47.9	177	12
2023-09-16T06:00	8280	356	-33.6	-48.6	179	12
2023-09-16T06:00	8306	355	-33.8	-48.4	180	12
2023-09-16T06:00	8338	354	-34.1	-48.4	180	12
2023-09-16T06:00	8360	352	-34.3	-48.6	180	12
2023-09-16T06:00	8381	351	-34.5	-48.7	180	12
2023-09-16T06:00	8402	350	-34.7	-49.0	180	12
2023-09-16T06:00	8424	349	-34.8	-49.1	180	12
2023-09-16T06:00	8445	348	-35.0	-49.4	180	12
2023-09-16T06:00	8466	347	-35.2	-49.4	179	12
2023-09-16T06:00	8486	346	-35.3	-49.4	179	12
2023-09-16T06:00	8508	345	-35.5	-49.5	180	12
2023-09-16T06:00	8528	344	-35.7	-49.5	180	12
2023-09-16T06:00	8549	343	-35.8	-49.5	180	12
2023-09-16T06:00	8569	342	-36.0	-49.7	181	12
2023-09-16T06:00	8590	341	-36.1	-48.8	182	12
2023-09-16T06:00	8609	340	-36.3	-45.8	183	12
2023-09-16T06:00	8634	339	-36.5	-43.8	184	12
2023-09-16T06:00	8657	338	-36.7	-43.8	185	12
2023-09-16T06:00	8677	337	-36.9	-43.3	186	13
2023-09-16T06:00	8697	336	-37.1	-42.0	187	13
2023-09-16T06:00	8718	335	-37.3	-41.4	188	13
2023-09-16T06:00	8741	334	-37.5	-41.4	190	13
2023-09-16T06:00	8762	333	-37.7	-41.5	191	13
2023-09-16T06:00	8782	332	-37.9	-40.7	192	13
2023-09-16T06:00	8804	331	-37.9	-40.7	193	13
2023-09-16T06:00	8826	330	-38.0	-41.7	194	13
2023-09-16T06:00	8846	329	-38.1	-42.4	195	13
2023-09-16T06:00	8869	327	-38.3	-42.5	196	13
2023-09-16T06:00	8892	326	-38.5	-42.9	197	13
2023-09-16T06:00	8913	325	-38.7	-43.1	197	14
2023-09-16T06:00	8934	324	-38.9	-43.1	197	14
2023-09-16T06:00	8953	323	-39.0	-43.2	196	14
2023-09-16T06:00	8974	322	-39.2	-43.4	195	14
2023-09-16T06:00	8993	322	-39.4	-44.1	195	14
2023-09-16T06:00	9014	321	-39.5	-44.9	194	13
2023-09-16T06:00	9037	320	-39.7	-44.9	194	13
2023-09-16T06:00	9061	318	-39.9	-45.2	194	13
2023-09-16T06:00	9083	317	-40.1	-46.8	194	13
2023-09-16T06:00	9107	316	-40.2	-48.5	194	13
2023-09-16T06:00	9129	315	-40.4	-48.4	194	13
2023-09-16T06:00	9152	314	-40.6	-46.9	194	14
2023-09-16T06:00	9172	313	-40.8	-46.7	194	14
2023-09-16T06:00	9193	312	-41.0	-47.1	194	14
2023-09-16T06:00	9212	311	-41.2	-47.4	194	14
2023-09-16T06:00	9232	311	-41.3	-47.5	194	14
2023-09-16T06:00	9254	310	-41.5	-48.5	194	14
2023-09-16T06:00	9273	309	-41.7	-48.7	194	14
2023-09-16T06:00	9294	308	-41.8	-49.2	194	14
2023-09-16T06:00	9315	307	-42.0	-49.6	194	14
2023-09-16T06:00	9334	306	-42.2		193	14
2023-09-16T06:00	9354	305	-42.4	-49.5	193	14
2023-09-16T06:00	9375	304	-42.6	-49.3	194	14
2023-09-16T06:00	9391	303	-42.7	-48.9	194	14
2023-09-16T06:00	9412	302	-42.9	-48.3	195	14
2023-09-16T06:00	9432	301	-43.1	-48.2	196	14
2023-09-16T06:00	9454	301	-43.3	-48.2	196	14
2023-09-16T06:00	9476	300	-43.5	-48.3	196	14
2023-09-16T06:00	9495	299	-43.7	-48.0	196	14
2023-09-16T06:00	9516	298	-43.9	-47.7	195	14
2023-09-16T06:00	9536	297	-44.1	-47.7	195	14
2023-09-16T06:00	9558	296	-44.2	-47.8	194	14
2023-09-16T06:00	9577	295	-44.4	-48.0	193	14
2023-09-16T06:00	9599	294	-44.6	-48.1	192	14
2023-09-16T06:00	9618	293	-44.7	-48.3	192	15
2023-09-16T06:00	9641	292	-44.9	-48.6	192	15
2023-09-16T06:00	9660	291	-45.0	-48.7	192	15
2023-09-16T06:00	9678	291	-45.2	-48.9	191	15
2023-09-16T06:00	9699	290	-45.4	-48.9	191	15
2023-09-16T06:00	9718	289	-45.6	-48.9	191	15
2023-09-16T06:00	9738	288	-45.7	-48.9	190	15
2023-09-16T06:00	9759	287	-45.9	-49.1	190	15
2023-09-16T06:00	9778	286	-46.1	-49.4	189	15
2023-09-16T06:00	9799	285	-46.3	-49.5	189	15
2023-09-16T06:00	9820	284	-46.5	-49.6	189	15
2023-09-16T06:00	9842	284	-46.7	-49.7	189	15
2023-09-16T06:00	9862	283	-46.9	-49.9	189	15
2023-09-16T06:00	9882	282	-47.1	-49.9	189	15
2023-09-16T06:00	9902	281	-47.3	-50.0	189	15
2023-09-16T06:00	9921	280	-47.4	-50.0	189	15
2023-09-16T06:00	9942	279	-47.6	-50.3	189	15
2023-09-16T06:00	9960	279	-47.8	-50.7	189	14
2023-09-16T06:00	9979	278	-48.0	-51.0	189	14
2023-09-16T06:00	9996	277	-48.1	-51.6	189	14
2023-09-16T06:00	10019	276	-48.2	-52.5	189	14
2023-09-16T06:00	10039	275	-48.4	-52.7	189	14
2023-09-16T06:00	10060	274	-48.6	-52.7	188	14
2023-09-16T06:00	10081	273	-48.8	-52.7	188	14
2023-09-16T06:00	10102	273	-48.9	-52.5	188	14
2023-09-16T06:00	10120	272	-49.1	-52.2	188	14
2023-09-16T06:00	10141	271	-49.3	-52.2	188	14
2023-09-16T06:00	10158	270	-49.5		188	14
2023-09-16T06:00	10178	269	-49.6	-52.2	188	14
2023-09-16T06:00	10198	269	-49.8	-52.3	187	14
2023-09-16T06:00	10218	268	-50.0	-52.5	187	15
2023-09-16T06:00	10238	267	-50.2	-52.6	188	15
2023-09-16T06:00	10259	266	-50.4	-52.7	188	15
2023-09-16T06:00	10281	265	-50.6	-52.9	188	15
2023-09-16T06:00	10300	264	-50.8	-53.2	188	15
2023-09-16T06:00	10321	264	-51.0	-53.5	188	15
2023-09-16T06:00	10341	263	-51.2	-53.9	188	15
2023-09-16T06:00	10364	262	-51.4	-54.1	187	15
2023-09-16T06:00	10385	261	-51.5	-54.2	188	15
2023-09-16T06:00	10410	260	-51.7	-54.4	188	15
2023-09-16T06:00	10432	259	-52.0	-54.7	188	14
2023-09-16T06:00	10456	258	-52.2	-54.8	189	14
2023-09-16T06:00	10476	257	-52.4	-54.9	189	14
2023-09-16T06:00	10499	256	-52.5	-55.1	189	14
2023-09-16T06:00	10521	256	-52.7	-55.4	188	14
2023-09-16T06:00	10543	255	-52.8	-55.5	188	14
2023-09-16T06:00	10565	254	-53.0	-55.7	188	15
2023-09-16T06:00	10586	253	-53.2	-56.0	188	15
2023-09-16T06:00	10607	252	-53.4	-56.3	188	15
2023-09-16T06:00	10627	251	-53.5	-56.5	188	15
2023-09-16T06:00	10647	251	-53.7	-56.7	189	15
2023-09-16T06:00	10665	250	-53.8	-56.8	189	15
2023-09-16T06:00	10686	249	-54.0	-56.9	189	15
2023-09-16T06:00	10706	248	-54.2	-57.1	189	14
2023-09-16T06:00	10725	248	-54.4	-57.2	189	14
2023-09-16T06:00	10744	247	-54.5	-57.3	189	14
2023-09-16T06:00	10765	246	-54.6	-57.6	189	14
2023-09-16T06:00	10785	245	-54.7	-57.8	188	14
2023-09-16T06:00	10805	245	-54.8	-58.3	187	14
2023-09-16T06:00	10826	244	-54.9	-58.9	187	14
2023-09-16T06:00	10847	243	-55.0	-59.3	186	14
2023-09-16T06:00	10865	242	-55.2	-59.5	186	15
2023-09-16T06:00	10884	241	-55.3	-59.4	186	15
2023-09-16T06:00	10904	241	-55.5	-59.3	186	15
2023-09-16T06:00	10923	240	-55.7	-59.2	186	15
2023-09-16T06:00	10942	239	-55.9	-59.3	187	15
2023-09-16T06:00	10963	239	-56.0	-59.3	187	15
2023-09-16T06:00	10984	238	-56.1	-59.5	188	15
2023-09-16T06:00	11003	237	-56.3	-59.7	188	15
2023-09-16T06:00	11024	236	-56.4	-59.8	189	15
2023-09-16T06:00	11046	235	-56.6	-60.0	189	15
2023-09-16T06:00	11066	235	-56.8	-60.0	190	15
2023-09-16T06:00	11088	234	-57.0	-60.1	190	15
2023-09-16T06:00	11106	233	-57.2	-60.2	190	15
2023-09-16T06:00	11125	233	-57.3	-60.2	190	14
2023-09-16T06:00	11145	232	-57.5	-60.3	190	14
2023-09-16T06:00	11166	231	-57.6	-60.4	190	14
2023-09-16T06:00	11185	230	-57.6	-60.6	190	13
2023-09-16T06:00	11207	229	-57.7	-60.8	190	13
2023-09-16T06:00	11228	229	-57.8	-61.1	191	12
2023-09-16T06:00	11250	228	-57.9	-61.4	192	11
2023-09-16T06:00	11273	227	-58.0	-61.8	193	11
2023-09-16T06:00	11293	226	-57.9	-62.4	194	10
2023-09-16T06:00	11313	226	-57.7	-63.4	194	10
2023-09-16T06:00	11334	225	-57.1	-64.4	194	10
2023-09-16T06:00	11354	224	-56.1	-65.2	194	9
2023-09-16T06:00	11371	224	-56.0	-66.1	195	9
2023-09-16T06:00	11393	223	-56.1	-66.3	197	9
2023-09-16T06:00	11416	222	-56.1	-66.2	200	10
2023-09-16T06:00	11438	221	-56.0	-66.0	203	10
2023-09-16T06:00	11458	221	-56.1	-66.1	206	10
2023-09-16T06:00	11477	220	-56.2	-66.2	209	10
2023-09-16T06:00	11497	219	-56.2	-66.2	210	10
2023-09-16T06:00	11516	219	-56.3	-66.1	210	10
2023-09-16T06:00	11537	218	-56.4	-66.1	209	10
2023-09-16T06:00	11559	217	-56.5	-66.3	206	10
2023-09-16T06:00	11578	216	-56.5	-66.4	204	10
2023-09-16T06:00	11599	216	-56.4	-66.5	201	10
2023-09-16T06:00	11619	215	-56.4	-66.6	200	10
2023-09-16T06:00	11639	214	-56.4	-66.7	200	10
2023-09-16T06:00	11659	214	-56.5	-66.9	201	10
2023-09-16T06:00	11681	213	-56.6	-66.9	202	10
2023-09-16T06:00	11701	212	-56.7	-66.9	203	10
2023-09-16T06:00	11720	212	-56.8	-67.0	204	10
2023-09-16T06:00	11742	211	-56.8	-67.1	204	10
2023-09-16T06:00	11762	210	-56.9	-67.2	205	10
2023-09-16T06:00	11782	210	-56.9	-67.3	204	9
2023-09-16T06:00	11802	209	-57.1	-67.5	204	9
2023-09-16T06:00	11822	208	-57.2	-67.6	204	9
2023-09-16T06:00	11843	208	-57.2	-67.7	204	9
2023-09-16T06:00	11862	207	-57.3	-67.9	204	9
2023-09-16T06:00	11881	206	-57.3	-68.1	205	10
2023-09-16T06:00	11902	206	-57.4	-68.5	207	10
2023-09-16T06:00	11922	205	-57.1	-68.8	208	10
2023-09-16T06:00	11940	204	-56.7	-69.4	210	10
2023-09-16T06:00	11960	204	-56.4	-69.9	212	10
2023-09-16T06:00	11980	203	-56.5	-70.5	214	10
2023-09-16T06:00	12003	202	-56.4	-70.9	216	10
2023-09-16T06:00	12022	202	-56.1	-71.3	218	9
2023-09-16T06:00	12041	201	-55.7	-72.0	220	9
2023-09-16T06:00	12060	201	-55.7	-72.6	221	8
2023-09-16T06:00	12080	200	-55.6	-72.9	221	8
2023-09-16T06:00	12098	199	-55.6	-73.0	221	8
2023-09-16T06:00	12117	199	-55.6	-73.1	220	8
2023-09-16T06:00	12142	198	-55.7	-73.4	220	9
2023-09-16T06:00	12166	197	-55.4	-73.5	220	9
2023-09-16T06:00	12186	197	-55.1	-73.9	221	10
2023-09-16T06:00	12204	196	-54.6	-74.2	222	10
2023-09-16T06:00	12224	195	-54.5	-74.7	223	9
2023-09-16T06:00	12245	195	-54.4	-75.1	224	9
2023-09-16T06:00	12265	194	-54.2	-75.3	226	9
2023-09-16T06:00	12286	194	-53.9	-75.6	228	9
2023-09-16T06:00	12304	193	-53.6	-75.8	230	9
2023-09-16T06:00	12323	193	-53.6	-75.9	231	9
2023-09-16T06:00	12343	192	-53.6	-76.1	231	9
2023-09-16T06:00	12363	191	-53.6	-76.3	231	10
2023-09-16T06:00	12382	191	-53.3	-76.2	231	10
2023-09-16T06:00	12403	190	-53.2	-76.3	231	10
2023-09-16T06:00	12424	190	-53.1	-76.3	231	10
2023-09-16T06:00	12444	189	-53.0	-76.6	231	10
2023-09-16T06:00	12465	188	-52.9	-76.7	231	11
2023-09-16T06:00	12488	188	-53.0	-76.8	232	11
2023-09-16T06:00	12508	187	-53.1	-77.1	233	11
2023-09-16T06:00	12527	187	-53.2	-77.1	235	11
2023-09-16T06:00	12548	186	-53.2	-77.3	237	11
2023-09-16T06:00	12569	185	-53.1	-77.5	239	11
2023-09-16T06:00	12595	185	-53.2	-77.5	241	11
2023-09-16T06:00	12618	184	-53.0	-77.6	243	11
2023-09-16T06:00	12638	183	-53.1	-77.7	245	10
2023-09-16T06:00	12659	183	-53.2	-77.5	246	10
2023-09-16T06:00	12681	182	-53.3	-77.6	247	10
2023-09-16T06:00	12702	182	-53.5	-77.6	249	10
2023-09-16T06:00	12723	181	-53.6	-77.7	250	9
2023-09-16T06:00	12744	180	-53.7	-77.5	250	9
2023-09-16T06:00	12764	180	-53.9	-77.7	250	9
2023-09-16T06:00	12785	179	-53.8	-77.6	249	9
2023-09-16T06:00	12805	179	-53.6	-77.3	248	9
2023-09-16T06:00	12829	178	-53.6	-77.3	248	9
2023-09-16T06:00	12851	177	-53.5	-77.0	249	10
2023-09-16T06:00	12872	177	-53.0	-76.4	251	10
2023-09-16T06:00	12891	176	-52.9	-76.0	253	11
2023-09-16T06:00	12912	176	-53.0	-75.9	255	11
2023-09-16T06:00	12931	175	-53.1	-75.9	257	11
2023-09-16T06:00	12953	175	-53.2	-75.8	258	11
2023-09-16T06:00	12973	174	-53.3	-75.7	259	11
2023-09-16T06:00	12994	173	-53.4	-75.8	259	11
2023-09-16T06:00	13014	173	-53.6	-75.8	258	10
2023-09-16T06:00	13036	172	-53.7	-75.7	257	10
2023-09-16T06:00	13054	172	-53.5	-75.6	255	10
2023-09-16T06:00	13074	171	-53.4	-75.6	254	10
2023-09-16T06:00	13093	171	-53.4	-75.9	253	10
2023-09-16T06:00	13114	170	-53.3	-76.3	253	11
2023-09-16T06:00	13137	170	-53.1	-76.5	253	11
2023-09-16T06:00	13157	169	-53.1	-76.7	254	11
2023-09-16T06:00	13177	169	-53.1	-77.1	254	12
2023-09-16T06:00	13198	168	-53.0	-77.2	254	12
2023-09-16T06:00	13220	167	-52.9	-77.5	255	12
2023-09-16T06:00	13242	167	-52.8	-77.9	256	12
2023-09-16T06:00	13262	166	-52.7	-78.2	257	12
2023-09-16T06:00	13285	166	-52.6	-78.7	258	12
2023-09-16T06:00	13303	165	-52.5	-78.8	258	12
2023-09-16T06:00	13325	165	-52.5	-78.8	258	12
2023-09-16T06:00	13344	164	-52.6	-79.2	258	12
2023-09-16T06:00	13363	164	-52.7	-79.3	258	12
2023-09-16T06:00	13384	163	-52.7	-79.3	258	12
2023-09-16T06:00	13405	163	-52.7	-79.3	258	12
2023-09-16T06:00	13425	162	-52.8	-79.3	259	12
2023-09-16T06:00	13445	162	-53.0	-79.8	260	12
2023-09-16T06:00	13464	161	-53.0	-79.8	261	12
2023-09-16T06:00	13486	161	-53.1	-79.9	262	12
2023-09-16T06:00	13508	160	-53.3	-79.7	263	12
2023-09-16T06:00	13531	160	-53.4	-79.8	265	12
2023-09-16T06:00	13552	159	-53.7	-80.0	266	12
2023-09-16T06:00	13575	159	-53.9	-80.2	266	12
2023-09-16T06:00	13594	158	-54.0	-80.3	266	12
2023-09-16T06:00	13614	158	-54.1	-80.4	265	12
2023-09-16T06:00	13635	157	-54.1	-80.4	264	12
2023-09-16T06:00	13656	157	-54.1	-80.4	263	12
2023-09-16T06:00	13674	156	-54.1	-80.4	261	12
2023-09-16T06:00	13695	156	-54.2	-80.7	259	12
2023-09-16T06:00	13719	155	-54.3	-80.5	258	11
2023-09-16T06:00	13740	154	-54.4	-80.6	256	11
2023-09-16T06:00	13763	154	-54.6	-80.7	254	11
2023-09-16T06:00	13784	153	-54.8	-80.9	252	11
2023-09-16T06:00	13804	153	-55.0	-80.8	250	11
2023-09-16T06:00	13824	152	-55.1	-80.9	249	11
2023-09-16T06:00	13843	152	-55.1	-80.9	248	11
2023-09-16T06:00	13864	151	-55.2	-80.9	247	11
2023-09-16T06:00	13885	151	-55.3	-81.0	246	12
2023-09-16T06:00	13906	151	-55.4	-81.1	246	12
2023-09-16T06:00	13927	150	-55.6	-81.3	245	12
2023-09-16T06:00	13947	150	-55.7	-81.3	246	13
2023-09-16T06:00	13968	149	-55.7	-81.3	247	13
2023-09-16T06:00	13989	149	-55.8	-81.4	248	13
2023-09-16T06:00	14009	148	-55.9	-81.5	250	13
2023-09-16T06:00	14030	148	-55.9	-81.5	252	14
2023-09-16T06:00	14049	147	-55.9	-81.5	255	14
2023-09-16T06:00	14071	147	-55.9	-81.5	257	14
2023-09-16T06:00	14092	146	-55.9	-81.5	259	14
2023-09-16T06:00	14110	146	-55.9	-81.8	261	14
2023-09-16T06:00	14134	145	-55.9	-81.8	262	14
2023-09-16T06:00	14154	145	-55.9	-81.8	263	13
2023-09-16T06:00	14173	144	-56.0	-82.1	265	13
2023-09-16T06:00	14195	144	-55.8	-82.0	267	13
2023-09-16T06:00	14215	143	-55.9	-82.3	270	12
2023-09-16T06:00	14235	143	-56.0	-82.4	272	12
2023-09-16T06:00	14257	142	-56.0	-82.4	275	12
2023-09-16T06:00	14279	142	-55.9	-82.3	276	12
2023-09-16T06:00	14301	141	-55.9	-82.3	275	11
2023-09-16T06:00	14321	141	-55.8	-82.5	274	11
2023-09-16T06:00	14345	141	-55.5	-82.3	271	10
2023-09-16T06:00	14367	140	-55.3	-82.2	268	10
2023-09-16T06:00	14387	140	-55.4	-82.2	265	10
2023-09-16T06:00	14412	139	-55.6	-82.4	261	9
2023-09-16T06:00	14432	139	-55.8	-82.5	258	9
2023-09-16T06:00	14460	138	-56.0	-82.4	254	9
2023-09-16T06:00	14484	137	-56.1	-82.5	250	8
2023-09-16T06:00	14511	137	-56.2	-82.6	246	8
2023-09-16T06:00	14536	136	-56.2	-82.6	241	8
2023-09-16T06:00	14560	136	-56.4	-82.7	238	9
2023-09-16T06:00	14581	135	-56.5	-82.5	236	9
2023-09-16T06:00	14601	135	-56.6	-82.6	237	9
2023-09-16T06:00	14623	134	-56.7	-82.7	238	10
2023-09-16T06:00	14646	134	-56.8	-82.7	241	10
2023-09-16T06:00	14667	134	-56.9	-82.8	245	11
2023-09-16T06:00	14688	133	-56.9	-82.8	249	11
2023-09-16T06:00	14714	133	-56.9	-82.8	252	11
2023-09-16T06:00	14734	132	-56.9	-82.8	255	12
2023-09-16T06:00	14757	132	-56.9	-82.5	258	12
2023-09-16T06:00	14779	131	-57.0	-82.6	260	12
2023-09-16T06:00	14800	131	-57.1	-82.7	262	12
2023-09-16T06:00	14820	130	-57.2	-82.8	264	12
2023-09-16T06:00	14841	130	-57.3	-82.8	265	12
2023-09-16T06:00	14865	129	-57.4	-82.9	265	12
2023-09-16T06:00	14887	129	-57.4	-82.9	265	12
2023-09-16T06:00	14908	129	-57.5	-83.0	264	12
2023-09-16T06:00	14928	128	-57.6	-83.1	263	12
2023-09-16T06:00	14954	128	-57.6	-83.1	262	12
2023-09-16T06:00	14974	127	-57.4	-82.9	260	11
2023-09-16T06:00	14994	127	-57.5	-83.0	258	11
2023-09-16T06:00	15017	126	-57.6	-83.1	256	11
2023-09-16T06:00	15039	126	-57.7	-82.9	254	11
2023-09-16T06:00	15061	125	-57.8	-83.0	251	11
2023-09-16T06:00	15082	125	-58.0	-83.1	249	11
2023-09-16T06:00	15103	125	-58.0	-83.1	247	11
2023-09-16T06:00	15123	124	-58.1	-83.2	246	11
2023-09-16T06:00	15142	124	-58.2	-83.3	246	11
2023-09-16T06:00	15165	123	-58.2	-83.3	247	12
2023-09-16T06:00	15187	123	-58.2	-83.3	249	12
2023-09-16T06:00	15209	123	-58.2	-83.3	251	13
2023-09-16T06:00	15230	122	-58.2	-83.3	253	13
2023-09-16T06:00	15251	122	-58.2	-83.3	255	14
2023-09-16T06:00	15271	121	-58.2	-83.0	258	14
2023-09-16T06:00	15293	121	-58.4	-83.2	260	14
2023-09-16T06:00	15314	121	-58.5	-83.3	262	14
2023-09-16T06:00	15336	120	-58.6	-83.3	264	13
2023-09-16T06:00	15358	120	-58.6	-83.3	265	13
2023-09-16T06:00	15377	119	-58.5	-83.3	267	13
2023-09-16T06:00	15400	119	-58.4	-83.4	268	12
2023-09-16T06:00	15422	118	-58.4	-83.4	270	12
2023-09-16T06:00	15443	118	-58.2	-83.3	271	11
2023-09-16T06:00	15463	118	-58.2	-83.3	271	11
2023-09-16T06:00	15487	117	-58.3		271	11
2023-09-16T06:00	15508	117	-58.4	-83.4	269	11
2023-09-16T06:00	15528	116	-58.3	-83.6	268	11
2023-09-16T06:00	15550	116	-58.2	-83.5	267	10
2023-09-16T06:00	15575	116	-58.3	-83.6	267	10
2023-09-16T06:00	15594	115	-58.3	-83.6	267	10
2023-09-16T06:00	15615	115	-58.2	-83.5	268	10
2023-09-16T06:00	15639	115	-58.3	-83.6	268	11
2023-09-16T06:00	15660	114	-58.4	-83.7	267	11
2023-09-16T06:00	15682	114	-58.5	-83.5	267	11
2023-09-16T06:00	15705	113	-58.5	-83.5	267	11
2023-09-16T06:00	15727	113	-58.5	-83.5	267	10
2023-09-16T06:00	15748	112	-58.6	-83.6	267	10
2023-09-16T06:00	15772	112	-58.7	-83.7	267	10
2023-09-16T06:00	15796	112	-58.9		267	10
2023-09-16T06:00	15819	111	-59.0	-83.7	267	11
2023-09-16T06:00	15841	111	-59.1	-83.7	266	11
2023-09-16T06:00	15862	110	-59.1	-83.7	265	12
2023-09-16T06:00	15884	110	-59.1	-83.7	264	12
2023-09-16T06:00	15906	110	-59.2	-83.8	263	13
2023-09-16T06:00	15930	109	-59.1	-83.7	262	13
2023-09-16T06:00	15950	109	-59.3	-83.9	261	14
2023-09-16T06:00	15973	109	-59.3	-83.9	261	14
2023-09-16T06:00	15996	108	-59.3	-83.9	261	14
2023-09-16T06:00	16015	108	-59.3	-83.9	262	15
2023-09-16T06:00	16040	107	-59.4	-84.0	263	14
2023-09-16T06:00	16063	107	-59.4	-84.2	264	14
2023-09-16T06:00	16089	107	-59.5	-84.3	266	13
2023-09-16T06:00	16113	106	-59.5	-84.3	268	13
2023-09-16T06:00	16136	106	-59.5	-84.3	270	12
2023-09-16T06:00	16157	105	-59.6	-84.4	272	11
2023-09-16T06:00	16180	105	-59.7	-84.7	274	10
2023-09-16T06:00	16201	105	-59.7	-84.7	273	9
2023-09-16T06:00	16225	104	-59.8	-84.8	271	8
2023-09-16T06:00	16247	104	-59.8	-85.1	268	7
2023-09-16T06:00	16267	104	-59.7	-85.0	263	7
2023-09-16T06:00	16289	103	-59.5	-85.1	259	7
2023-09-16T06:00	16311	103	-59.3	-85.2	257	7
2023-09-16T06:00	16335	102	-59.2	-85.2	256	8
2023-09-16T06:00	16354	102	-59.2	-85.2	256	9
2023-09-16T06:00	16379	102	-59.1	-85.4	256	10
2023-09-16T06:00	16401	101	-59.1	-85.4	255	10
2023-09-16T06:00	16420	101	-59.0	-85.3	253	11
2023-09-16T06:00	16441	101	-59.0	-85.3	251	11
2023-09-16T06:00	16463	100	-59.1	-85.4	249	11
2023-09-16T06:00	16485	100	-59.1	-85.4	247	12
2023-09-16T06:00	16507	100	-59.0	-85.3	247	12
2023-09-16T06:00	16529	99	-58.9	-85.6	248	12
2023-09-16T06:00	16550	99	-58.9	-85.6	250	12
2023-09-16T06:00	16574	99	-58.7	-85.4	253	13
2023-09-16T06:00	16594	98	-58.7	-85.4	255	13
2023-09-16T06:00	16616	98	-58.8	-85.5	257	13
2023-09-16T06:00	16637	98	-58.8	-85.5	259	13
2023-09-16T06:00	16655	97	-58.9	-85.6	260	13
2023-09-16T06:00	16678	97	-58.9	-85.6	262	13
2023-09-16T06:00	16703	97	-58.8	-85.5	264	13
2023-09-16T06:00	16722	96	-58.7	-85.4	267	13
2023-09-16T06:00	16743	96	-58.5	-85.3	269	14
2023-09-16T06:00	16767	96	-58.6	-85.4	271	14
2023-09-16T06:00	16788	95	-58.7	-85.4	273	14
2023-09-16T06:00	16809	95	-58.7	-85.4	275	14
2023-09-16T06:00	16832	95	-58.7	-85.8	276	14
2023-09-16T06:00	16854	94	-58.6	-85.7	277	13
2023-09-16T06:00	16876	94	-58.5	-85.6	277	12
2023-09-16T06:00	16897	94	-58.6	-85.7	278	12
2023-09-16T06:00	16919	93	-58.7	-85.8	278	11
2023-09-16T06:00	16940	93	-58.8	-85.9	279	10
2023-09-16T06:00	16962	93	-58.9	-85.9	280	10
2023-09-16T06:00	16986	92	-59.0	-86.0	280	9
2023-09-16T06:00	17008	92	-58.9	-85.9	279	9
2023-09-16T06:00	17033	92	-58.8	-85.9	276	9
2023-09-16T06:00	17056	91	-58.8	-86.2	271	9
2023-09-16T06:00	17077	91	-58.9	-86.3	266	9
2023-09-16T06:00	17100	91	-58.8	-86.2	262	9
2023-09-16T06:00	17124	90	-58.6	-86.1	259	9
2023-09-16T06:00	17144	90	-58.4	-85.9	257	9
2023-09-16T06:00	17165	90	-58.5	-86.0	257	9
2023-09-16T06:00	17188	89	-58.6	-86.5	257	8
2023-09-16T06:00	17211	89	-58.3	-86.2	257	8
2023-09-16T06:00	17232	89	-58.2	-86.2	257	8
2023-09-16T06:00	17254	88	-58.2	-86.2	257	8
2023-09-16T06:00	17277	88	-58.1		255	8
2023-09-16T06:00	17300	88	-58.1	-86.5	253	7
2023-09-16T06:00	17321	88	-58.1	-86.5	251	8
2023-09-16T06:00	17345	87	-58.0	-86.4	249	8
2023-09-16T06:00	17367	87	-58.0	-86.4	246	8
2023-09-16T06:00	17390	87	-58.0	-86.4	245	8
2023-09-16T06:00	17412	86	-57.9	-86.4	244	8
2023-09-16T06:00	17435	86	-57.8	-86.3	244	8
2023-09-16T06:00	17458	86	-57.9	-86.4	245	8
2023-09-16T06:00	17477	85	-58.0	-86.0	247	8
2023-09-16T06:00	17501	85	-58.1	-86.5	250	8
2023-09-16T06:00	17526	85	-58.0	-86.4	253	8
2023-09-16T06:00	17545	84	-58.0	-86.4	256	7
2023-09-16T06:00	17569	84	-58.0	-86.4	259	7
2023-09-16T06:00	17593	84	-57.9	-86.8	262	7
2023-09-16T06:00	17612	84	-57.8	-86.7	264	7
2023-09-16T06:00	17635	83	-57.7	-86.7	265	7
2023-09-16T06:00	17654	83	-57.6	-86.6	265	7
2023-09-16T06:00	17677	83	-57.4	-86.4	263	8
2023-09-16T06:00	17700	82	-57.4	-86.4	261	8
2023-09-16T06:00	17723	82	-57.5	-86.5	258	8
2023-09-16T06:00	17745	82	-57.5	-86.5	255	9
2023-09-16T06:00	17769	82	-57.7	-86.2	253	9
2023-09-16T06:00	17790	81	-57.8	-86.3	251	9
2023-09-16T06:00	17811	81	-57.9	-86.4	250	9
2023-09-16T06:00	17833	81	-57.9	-86.8	251	9
2023-09-16T06:00	17855	80	-57.8	-86.7	252	10
2023-09-16T06:00	17880	80	-57.9	-86.8	253	11
2023-09-16T06:00	17903	80	-57.9	-86.8	255	11
2023-09-16T06:00	17924	80	-57.9	-86.8	256	12
2023-09-16T06:00	17950	79	-57.8	-86.7	258	12
2023-09-16T06:00	17970	79	-57.9	-86.8	260	12
2023-09-16T06:00	17992	79	-57.8	-86.7	262	12
2023-09-16T06:00	18017	78	-57.7	-86.7	264	12
2023-09-16T06:00	18042	78	-57.6	-86.6	267	12
2023-09-16T06:00	18064	78	-57.6	-86.6	269	12
2023-09-16T06:00	18086	78	-57.6	-87.1	270	12
2023-09-16T06:00	18114	77	-57.6	-87.1	272	12
2023-09-16T06:00	18136	77	-57.6	-87.1	273	12
2023-09-16T06:00	18158	77	-57.5	-87.0	274	12
2023-09-16T06:00	18182	76	-57.4	-86.9	275	12
2023-09-16T06:00	18206	76	-57.0	-86.6	277	12
2023-09-16T06:00	18231	76	-57.1	-86.7	279	12
2023-09-16T06:00	18253	76	-57.2	-86.8	281	12
2023-09-16T06:00	18278	75	-56.9	-86.6	283	11
2023-09-16T06:00	18301	75	-56.8	-87.0	284	11
2023-09-16T06:00	18326	75	-56.7	-86.9	284	10
2023-09-16T06:00	18350	74	-56.7	-86.9	284	10
2023-09-16T06:00	18376	74	-56.8	-86.5	282	9
2023-09-16T06:00	18404	74	-56.8	-86.5	280	9
2023-09-16T06:00	18424	74	-56.6	-86.3	277	8
2023-09-16T06:00	18449	73	-56.6	-86.3	275	8
2023-09-16T06:00	18476	73	-56.7	-86.4	273	8
2023-09-16T06:00	18502	73	-56.7	-86.4	271	8
2023-09-16T06:00	18524	72	-56.7	-86.4	270	8
2023-09-16T06:00	18548	72	-56.4		269	8
2023-09-16T06:00	18574	72	-56.4		269	9
2023-09-16T06:00	18597	72	-56.3	-86.6	268	9
2023-09-16T06:00	18621	71	-56.3	-86.6	268	9
2023-09-16T06:00	18647	71	-56.3	-86.6	268	9
2023-09-16T06:00	18670	71	-56.3	-86.6	268	9
2023-09-16T06:00	18699	70	-56.2	-86.6	268	9
2023-09-16T06:00	18721	70	-56.1	-86.5	269	9
2023-09-16T06:00	18749	70	-56.1	-86.5	270	9
2023-09-16T06:00	18772	70	-56.2	-86.6	271	9
2023-09-16T06:00	18796	69	-56.2	-86.6	273	9
2023-09-16T06:00	18820	69	-56.2	-86.6	274	9
2023-09-16T06:00	18845	69	-56.1	-86.5	275	9
2023-09-16T06:00	18865	69	-56.1	-86.5	275	8
2023-09-16T06:00	18892	68	-56.2	-86.6	276	8
2023-09-16T06:00	18913	68	-55.9	-86.3	276	7
2023-09-16T06:00	18936	68	-55.8	-86.3	275	7
2023-09-16T06:00	18958	68	-55.7	-86.2	274	7
2023-09-16T06:00	18981	67	-55.7	-86.2	272	7
2023-09-16T06:00	19005	67	-55.7	-86.2	270	7
2023-09-16T06:00	19029	67	-55.7	-86.2	266	7
2023-09-16T06:00	19052	67	-55.8	-86.3	263	7
2023-09-16T06:00	19077	66	-55.9	-85.8	259	7
2023-09-16T06:00	19100	66	-56.1	-86.0	254	7
2023-09-16T06:00	19123	66	-56.2	-86.0	250	7
2023-09-16T06:00	19146	66	-56.2	-86.0	247	8
2023-09-16T06:00	19173	65	-56.3	-86.1	245	8
2023-09-16T06:00	19193	65	-56.4	-86.2	244	9
2023-09-16T06:00	19214	65	-56.3	-86.1	244	9
2023-09-16T06:00	19237	65	-56.3	-86.1	245	9
2023-09-16T06:00	19261	64	-56.3	-86.1	246	10
2023-09-16T06:00	19283	64	-56.3	-86.6	247	10
2023-09-16T06:00	19306	64	-56.3	-86.6	248	11
2023-09-16T06:00	19329	64	-56.3	-86.6	250	11
2023-09-16T06:00	19353	64	-56.3	-86.6	251	12
2023-09-16T06:00	19373	63	-56.3	-86.6	252	11
2023-09-16T06:00	19397	63	-56.3	-86.6	254	11
2023-09-16T06:00	19421	63	-56.4		256	11
2023-09-16T06:00	19441	63	-56.5	-86.8	259	10
2023-09-16T06:00	19466	62	-56.6	-86.9	263	10
2023-09-16T06:00	19486	62	-56.6	-86.9	267	9
2023-09-16T06:00	19513	62	-56.7	-86.9	271	9
2023-09-16T06:00	19535	62	-56.7	-86.4	275	9
2023-09-16T06:00	19554	62	-56.7	-86.4	278	9
2023-09-16T06:00	19582	61	-56.7	-86.4	280	9
2023-09-16T06:00	19602	61	-56.7	-86.4	281	8
2023-09-16T06:00	19627	61	-56.8	-86.5	281	8
2023-09-16T06:00	19651	61	-56.8	-86.5	280	8
2023-09-16T06:00	19676	60	-56.9	-86.6	277	8
2023-09-16T06:00	19701	60	-56.9	-86.6	275	7
2023-09-16T06:00	19726	60	-57.1	-86.7	271	7
2023-09-16T06:00	19753	60	-57.1	-86.7	269	6
2023-09-16T06:00	19775	59	-57.3	-86.9	268	6
2023-09-16T06:00	19800	59	-57.4	-86.9	269	6
2023-09-16T06:00	19825	59	-57.4	-86.9	271	7
2023-09-16T06:00	19848	59	-57.4	-86.9	273	7
2023-09-16T06:00	19871	59	-57.4	-86.9	274	8
2023-09-16T06:00	19898	58	-57.4	-86.9	275	9
2023-09-16T06:00	19923	58	-57.5	-87.0	276	9
2023-09-16T06:00	19949	58	-57.5	-87.0	276	10
2023-09-16T06:00	19972	58	-57.7	-87.2	276	10
2023-09-16T06:00	19997	57	-57.9	-87.3	276	10
2023-09-16T06:00	20023	57	-58.0	-86.9	277	10
2023-09-16T06:00	20047	57	-58.0	-86.9	278	10
2023-09-16T06:00	20075	57	-58.0	-86.9	280	10
2023-09-16T06:00	20099	56	-58.0	-87.4	283	10
2023-09-16T06:00	20125	56	-58.1	-87.4	286	9
2023-09-16T06:00	20150	56	-58.1	-87.4	288	9
2023-09-16T06:00	20174	56	-58.0	-87.4	290	8
2023-09-16T06:00	20203	56	-58.0	-87.4	290	8
2023-09-16T06:00	20229	55	-57.9	-87.3	290	7
2023-09-16T06:00	20253	55	-57.9	-87.3	287	6
2023-09-16T06:00	20282	55	-57.8	-87.2	283	6
2023-09-16T06:00	20308	55	-57.8	-87.2	277	5
2023-09-16T06:00	20330	54	-57.8	-87.2	271	5
2023-09-16T06:00	20356	54	-57.9	-87.3	268	5
2023-09-16T06:00	20381	54	-58.0	-87.4	266	6
2023-09-16T06:00	20405	54	-58.0	-87.4	267	6
2023-09-16T06:00	20435	54	-58.1	-87.4	269	6
2023-09-16T06:00	20457	53	-58.2	-87.5	272	7
2023-09-16T06:00	20485	53	-58.2	-87.5	275	7
2023-09-16T06:00	20506	53	-58.0	-87.4	279	7
2023-09-16T06:00	20529	53	-57.7	-87.7	282	7
2023-09-16T06:00	20555	53	-57.5	-87.5	285	7
2023-09-16T06:00	20582	52	-57.3	-87.4	286	7
2023-09-16T06:00	20607	52	-57.1	-87.8	286	7
2023-09-16T06:00	20631	52	-56.8	-87.6	285	7
2023-09-16T06:00	20655	52	-56.4	-87.3	282	6
2023-09-16T06:00	20678	52	-56.2	-87.2	279	6
2023-09-16T06:00	20702	51	-56.3	-87.2	276	6
2023-09-16T06:00	20730	51	-56.2	-87.2	273	6
2023-09-16T06:00	20751	51	-56.1	-87.1	271	5
2023-09-16T06:00	20775	51	-56.1	-87.1	269	5
2023-09-16T06:00	20798	51	-56.0	-87.0	265	5
2023-09-16T06:00	20822	50	-55.9	-86.9	261	5
2023-09-16T06:00	20845	50	-55.9	-86.9	256	5
2023-09-16T06:00	20865	50	-55.9	-86.9	253	5
2023-09-16T06:00	20891	50	-55.9	-86.9	251	5
2023-09-16T06:00	20915	50	-55.8	-86.9	250	5
2023-09-16T06:00	20942	49	-55.8	-86.9	251	4
2023-09-16T06:00	20966	49	-55.6	-86.7	252	4
2023-09-16T06:00	20987	49	-55.5	-86.7	253	4
2023-09-16T06:00	21007	49	-55.6	-86.7	251	3
2023-09-16T06:00	21033	49	-55.6	-86.7	246	3
2023-09-16T06:00	21058	49	-55.6	-86.7	239	3
2023-09-16T06:00	21082	48	-55.6	-86.7	233	3
2023-09-16T06:00	21105	48	-55.7	-86.2	230	3
2023-09-16T06:00	21129	48	-55.9	-86.3	230	3
2023-09-16T06:00	21153	48	-56.0	-86.4	232	3
2023-09-16T06:00	21175	48	-56.0	-86.4	235	4
2023-09-16T06:00	21202	47	-56.1	-86.5	237	4
2023-09-16T06:00	21225	47	-56.0	-86.4	240	5
2023-09-16T06:00	21251	47	-56.0	-86.4	243	5
2023-09-16T06:00	21277	47	-56.2	-86.6	247	6
2023-09-16T06:00	21299	47	-56.3	-86.6	251	6
2023-09-16T06:00	21326	47	-56.4		257	7
2023-09-16T06:00	21348	46	-56.3	-86.6	262	7
2023-09-16T06:00	21377	46	-56.4		267	7
2023-09-16T06:00	21397	46	-56.4		272	7
2023-09-16T06:00	21425	46	-56.3	-86.6	276	8
2023-09-16T06:00	21448	46	-56.4		279	8
2023-09-16T06:00	21475	45	-56.3	-87.2	282	8
2023-09-16T06:00	21503	45	-56.2	-87.2	284	8
2023-09-16T06:00	21526	45	-56.0	-87.0	286	9
2023-09-16T06:00	21550	45	-56.1	-87.1	288	9
2023-09-16T06:00	21576	45	-56.0	-87.0	289	8
2023-09-16T06:00	21601	45	-55.9	-86.9	290	8
2023-09-16T06:00	21625	44	-55.8	-86.9	290	8
2023-09-16T06:00	21646	44	-55.8	-86.9	289	7
2023-09-16T06:00	21675	44	-55.8	-86.9	287	6
2023-09-16T06:00	21701	44	-55.8	-86.9	284	6
2023-09-16T06:00	21724	44	-55.7	-86.8	279	5
2023-09-16T06:00	21756	44	-55.8	-86.9	272	5
2023-09-16T06:00	21779	43	-55.9	-86.9	266	4
2023-09-16T06:00	21801	43	-56.0	-87.0	263	4
2023-09-16T06:00	21826	43	-56.0	-87.0	263	4
2023-09-16T06:00	21859	43	-55.9	-86.9	267	4
2023-09-16T06:00	21874	43	-55.9	-86.9	273	4
2023-09-16T06:00	21901	42	-56.0	-86.4	279	4
2023-09-16T06:00	21930	42	-56.1	-86.5	283	5
2023-09-16T06:00	21951	42	-56.2	-86.6	286	5
2023-09-16T06:00	21984	42	-56.3	-86.6	287	5
2023-09-16T06:00	22002	42	-56.4		288	6
2023-09-16T06:00	22030	42	-56.4		290	6
2023-09-16T06:00	22056	41	-56.3	-87.2	293	6
2023-09-16T06:00	22083	41	-56.1	-87.1	297	5
2023-09-16T06:00	22114	41	-56.0	-87.0	303	5
2023-09-16T06:00	22136	41	-55.9	-86.9	308	5
2023-09-16T06:00	22161	41	-56.0	-87.0	312	5
2023-09-16T06:00	22187	41	-56.0	-87.0	313	5
2023-09-16T06:00	22216	40	-56.1	-86.5	310	5
2023-09-16T06:00	22238	40	-56.3	-86.6	303	4
2023-09-16T06:00	22267	40	-56.4		294	4
2023-09-16T06:00	22291	40	-56.4		285	4
2023-09-16T06:00	22315	40	-56.6	-86.9	278	5
2023-09-16T06:00	22343	40	-56.7	-86.9	274	5
2023-09-16T06:00	22368	39	-56.8	-87.0	272	5
2023-09-16T06:00	22392	39	-56.8	-87.0	271	5
2023-09-16T06:00	22423	39	-56.8	-87.0	269	6
2023-09-16T06:00	22448	39	-56.7	-87.5	268	6
2023-09-16T06:00	22472	39	-56.4	-87.3	267	6
2023-09-16T06:00	22497	39	-56.1	-87.1	268	6
2023-09-16T06:00	22524	39	-55.9	-86.9	270	5
2023-09-16T06:00	22549	38	-55.8	-86.9	275	5
2023-09-16T06:00	22576	38	-55.9	-86.9	280	5
2023-09-16T06:00	22602	38	-56.1	-87.1	287	5
2023-09-16T06:00	22631	38	-56.3	-87.2	294	5
2023-09-16T06:00	22655	38	-56.4		301	5
2023-09-16T06:00	22683	38	-56.4		308	5
2023-09-16T06:00	22706	37	-56.5	-86.8	315	5
2023-09-16T06:00	22736	37	-56.4	-87.3	322	4
2023-09-16T06:00	22761	37	-56.2	-87.2	328	4
2023-09-16T06:00	22790	37	-56.1	-87.1	336	4
2023-09-16T06:00	22809	37	-56.1	-87.1	344	3
2023-09-16T06:00	22840	37	-56.1	-87.1	352	3
2023-09-16T06:00	22871	36	-56.3	-87.2	358	2
2023-09-16T06:00	22895	36	-56.4	-87.3	0	2
2023-09-16T06:00	22919	36	-56.3	-87.2	354	1
2023-09-16T06:00	22946	36	-56.3	-87.2	335	1
2023-09-16T06:00	22976	36	-56.4	-87.3	308	1
2023-09-16T06:00	23001	36	-56.5	-87.4	289	1
2023-09-16T06:00	23027	36	-56.4	-87.3	282	1
2023-09-16T06:00	23054	35	-56.4	-87.3	279	1
2023-09-16T06:00	23079	35	-56.4	-87.3	277	2
2023-09-16T06:00	23104	35	-56.3	-87.2	276	2
2023-09-16T06:00	23131	35	-56.1	-87.1	274	3
2023-09-16T06:00	23156	35	-56.0	-87.0	272	3
2023-09-16T06:00	23184	35	-55.9	-87.6	272	3
2023-09-16T06:00	23210	35	-55.6	-87.4	274	3
2023-09-16T06:00	23234	34	-55.5	-87.3	277	3
2023-09-16T06:00	23255	34	-55.4	-87.2	281	3
2023-09-16T06:00	23280	34	-55.4	-87.2	287	2
2023-09-16T06:00	23308	34	-55.3	-87.2	295	2
2023-09-16T06:00	23329	34	-55.2	-87.1	302	2
2023-09-16T06:00	23357	34	-55.0	-87.0	309	2
2023-09-16T06:00	23378	34	-55.0	-87.0	313	2
2023-09-16T06:00	23400	34	-54.8	-86.8	316	3
2023-09-16T06:00	23424	33	-54.7	-86.7	316	3
2023-09-16T06:00	23450	33	-54.6	-86.7	316	4
2023-09-16T06:00	23477	33	-54.7	-86.7	314	4
2023-09-16T06:00	23508	33	-54.8	-86.8	312	5
2023-09-16T06:00	23529	33	-54.8	-86.8	309	5
2023-09-16T06:00	23558	33	-55.0	-87.0	308	5
2023-09-16T06:00	23583	33	-55.0	-87.0	307	5
2023-09-16T06:00	23606	33	-55.0	-87.0	308	5
2023-09-16T06:00	23638	32	-54.7	-86.7	311	4
2023-09-16T06:00	23665	32	-54.5	-86.6	317	4
2023-09-16T06:00	23691	32	-54.5	-86.6	324	3
2023-09-16T06:00	23714	32	-54.6	-86.7	333	3
2023-09-16T06:00	23739	32	-54.5	-86.6	344	2
2023-09-16T06:00	23761	32	-54.7	-86.7	360	2
2023-09-16T06:00	23789	32	-54.8	-86.1	26	1
2023-09-16T06:00	23814	31	-54.9	-86.2	68	1
2023-09-16T06:00	23842	31	-55.1	-86.4	107	1
2023-09-16T06:00	23870	31	-55.3	-86.5	128	2
2023-09-16T06:00	23897	31	-55.1	-86.4	141	2
2023-09-16T06:00	23920	31	-54.9	-86.2	151	3
2023-09-16T06:00	23950	31	-54.9	-86.9	161	3
2023-09-16T06:00	23973	31	-55.0	-86.3	173	3
2023-09-16T06:00	24000	31	-55.2	-86.4	185	3
2023-09-16T06:00	24026	30	-55.3	-86.5	197	4
2023-09-16T06:00	24054	30	-55.3	-86.5	207	4
2023-09-16T06:00	24084	30	-55.5	-86.7	213	5
2023-09-16T06:00	24111	30	-55.5	-86.7	218	5
2023-09-16T06:00	24138	30	-55.3	-87.2	220	6
2023-09-16T06:00	24164	30	-55.2	-87.1	221	7
2023-09-16T06:00	24191	30	-54.9	-86.9	222	7
2023-09-16T06:00	24222	30	-54.6	-86.7	223	8
2023-09-16T06:00	24250	29	-54.3	-87.2	224	8
2023-09-16T06:00	24276	29	-54.3	-87.2	226	9
2023-09-16T06:00	24307	29	-54.3	-87.2	228	9
2023-09-16T06:00	24322	29	-54.3	-86.4	231	9
2023-09-16T06:00	24355	29	-54.2	-86.4	234	9
2023-09-16T06:00	24384	29	-54.1	-86.3	236	9
2023-09-16T06:00	24403	29	-54.1	-86.3	238	9
2023-09-16T06:00	24433	29	-54.0	-86.2	238	9
2023-09-16T06:00	24463	28	-54.1	-86.3	239	9
2023-09-16T06:00	24493	28	-54.2	-86.4	238	9
2023-09-16T06:00	24519	28	-54.2	-86.4	239	9
2023-09-16T06:00	24543	28	-54.2	-86.4	239	9
2023-09-16T06:00	24569	28	-54.2	-86.4	240	10
2023-09-16T06:00	24595	28	-54.1	-86.3	240	10
2023-09-16T06:00	24621	28	-54.1	-86.3	241	10
2023-09-16T06:00	24652	28	-54.1	-86.3	242	10
2023-09-16T06:00	24681	27	-54.1	-86.3	243	10
2023-09-16T06:00	24712	27	-54.1	-86.3	245	10
2023-09-16T06:00	24736	27	-54.0	-86.2	247	11
2023-09-16T06:00	24763	27	-53.9	-86.2	249	11
2023-09-16T06:00	24790	27	-53.8	-86.1	251	10
2023-09-16T06:00	24819	27	-53.8	-86.1	253	10
2023-09-16T06:00	24845	27	-53.8	-86.1	255	10
2023-09-16T06:00	24875	27	-53.9	-86.2	258	9
2023-09-16T06:00	24904	27	-54.0	-86.2	261	9
2023-09-16T06:00	24928	26	-54.1	-86.3	265	9
2023-09-16T06:00	24954	26	-54.2	-86.4	269	9
2023-09-16T06:00	24988	26	-54.3	-86.4	273	9
2023-09-16T06:00	25013	26	-54.4	-86.5	276	9
2023-09-16T06:00	25039	26	-54.5	-86.6	278	9
2023-09-16T06:00	25070	26	-54.4	-86.5	279	8
2023-09-16T06:00	25101	26	-54.3	-86.4	278	8
2023-09-16T06:00	25128	26	-54.4	-86.5	277	8
2023-09-16T06:00	25153	26	-54.5	-86.6	275	7
2023-09-16T06:00	25180	25	-54.6	-86.7	272	7
2023-09-16T06:00	25213	25	-54.7	-86.7	269	7
2023-09-16T06:00	25242	25	-54.8	-86.8	267	7
2023-09-16T06:00	25264	25	-54.8	-86.8	265	7
2023-09-16T06:00	25282	25	-54.5	-86.6	264	7
2023-09-16T06:00	25308	25	-54.3	-86.4	262	7
2023-09-16T06:00	25337	25	-54.1	-86.3	260	8
2023-09-16T06:00	25361	25	-54.1	-86.3	257	8
2023-09-16T06:00	25394	25	-54.0	-86.2	253	8
2023-09-16T06:00	25426	24	-54.2	-86.4	249	9
2023-09-16T06:00	25449	24	-54.3	-86.4	246	9
2023-09-16T06:00	25478	24	-54.4	-86.5	244	10
2023-09-16T06:00	25502	24	-54.3	-86.4	244	10
2023-09-16T06:00	25533	24	-54.2	-86.4	244	10
2023-09-16T06:00	25563	24	-54.1	-86.3	246	10
2023-09-16T06:00	25581	24	-53.9	-86.2	248	10
2023-09-16T06:00	25612	24	-53.8	-86.8	250	9
2023-09-16T06:00	25633	24	-53.9	-86.9	252	9
2023-09-16T06:00	25673	24	-53.9	-86.9	253	9
2023-09-16T06:00	25697	23	-53.9	-86.9	254	9
2023-09-16T06:00	25722	23	-53.8	-86.8	255	9
2023-09-16T06:00	25751	23	-53.6	-86.7	255	9
2023-09-16T06:00	25778	23	-53.3	-86.5	256	9
2023-09-16T06:00	25798	23	-52.9	-86.2	258	10
2023-09-16T06:00	25829	23	-52.8	-86.1	260	10
2023-09-16T06:00	25862	23	-52.7	-86.0	261	11
2023-09-16T06:00	25884	23	-52.6		263	11
2023-09-16T06:00	25913	23	-52.5	-85.9	265	11
2023-09-16T06:00	25939	23	-52.4	-85.8	266	11
2023-09-16T06:00	25976	22	-52.5	-85.9	267	11
2023-09-16T06:00	25995	22	-52.5	-85.9	269	11
2023-09-16T06:00	26021	22	-52.5	-85.9	270	11
2023-09-16T06:00	26051	22	-52.6		271	11
2023-09-16T06:00	26087	22	-52.7	-86.0	272	10
2023-09-16T06:00	26102	22	-52.7	-86.0	272	9
2023-09-16T06:00	26145	22	-52.6		273	9
2023-09-16T06:00	26170	22	-52.6		272	8
2023-09-16T06:00	26198	22	-52.6		272	8
2023-09-16T06:00	26224	22	-52.6		272	8
2023-09-16T06:00	26257	22	-52.5	-85.9	273	8
2023-09-16T06:00	26279	21	-52.5	-85.9	275	8
2023-09-16T06:00	26305	21	-52.4	-85.8	276	8
2023-09-16T06:00	26337	21	-52.2	-85.7	277	9
2023-09-16T06:00	26372	21	-52.2	-85.7	277	9
2023-09-16T06:00	26389	21	-52.1	-85.6	277	10
2023-09-16T06:00	26426	21	-52.2	-85.7	277	10
2023-09-16T06:00	26460	21	-52.1	-85.6	278	10
2023-09-16T06:00	26483	21	-52.1	-85.6	280	10
2023-09-16T06:00	26513	21	-52.2	-85.7	282	10
2023-09-16T06:00	26538	21	-52.2	-85.7	285	9
2023-09-16T06:00	26573	21	-52.2	-85.7	289	8
2023-09-16T06:00	26599	20	-52.3	-85.8	292	8
2023-09-16T06:00	26635	20	-52.3	-85.8	294	8
2023-09-16T06:00	26653	20	-52.4	-85.8	294	7
2023-09-16T06:00	26690	20	-52.4	-85.8	293	7
2023-09-16T06:00	26715	20	-52.4	-85.8	290	7
2023-09-16T06:00	26750	20	-52.3	-85.8	287	6
2023-09-16T06:00	26767	20	-52.3	-85.8	285	6
2023-09-16T06:00	26798	20	-52.2	-86.6	284	7
2023-09-16T06:00	26840	20	-51.9	-86.3	285	7
2023-09-16T06:00	26866	20	-51.5	-86.1	286	7
2023-09-16T06:00	26883	20	-51.3	-85.9	286	7
2023-09-16T06:00	26921	19	-51.3	-85.9	286	7
2023-09-16T06:00	26948	19	-51.2	-85.8	286	7
2023-09-16T06:00	26976	19	-51.1	-85.8	285	7
2023-09-16T06:00	27006	19	-51.0	-85.7	285	7
2023-09-16T06:00	27033	19	-50.9	-85.6	285	8
2023-09-16T06:00	27063	19	-50.8	-85.6	287	9
2023-09-16T06:00	27093	19	-50.8	-85.6	289	9
2023-09-16T06:00	27120	19	-50.8	-85.6	291	9
2023-09-16T06:00	27146	19	-50.6	-85.4	293	9
2023-09-16T06:00	27172	19	-50.4	-85.3	295	9
2023-09-16T06:00	27197	19	-50.2	-85.1	297	8
2023-09-16T06:00	27222	19	-50.2	-85.1	299	8
2023-09-16T06:00	27258	18	-50.2	-85.1	300	8
2023-09-16T06:00	27276	18	-50.0	-85.0	301	8
2023-09-16T06:00	27318	18	-49.8	-84.8	302	8
2023-09-16T06:00	27338	18	-49.6	-84.7	304	8
2023-09-16T06:00	27376	18	-49.5	-84.6	305	9
2023-09-16T06:00	27400	18	-49.5	-84.6	304	9
2023-09-16T06:00	27426	18	-49.5	-84.6	302	9
2023-09-16T06:00	27453	18	-49.4	-84.6	298	9
2023-09-16T06:00	27478	18	-49.4	-84.6	294	10
2023-09-16T06:00	27507	18	-49.4	-84.6	289	10
2023-09-16T06:00	27542	18	-49.4	-84.6	286	11
2023-09-16T06:00	27574	18	-49.4	-84.6	283	11
2023-09-16T06:00	27584	18	-49.3	-85.5	281	11
2023-09-16T06:00	27625	17	-49.2	-85.5	281	11
2023-09-16T06:00	27661	17	-49.0	-85.3	281	11
2023-09-16T06:00	27695	17	-48.8	-85.2	282	11
2023-09-16T06:00	27710	17	-48.5	-85.0	284	10
2023-09-16T06:00	27731	17	-48.2	-84.8	286	10
2023-09-16T06:00	27770	17	-48.2	-84.8	288	10
2023-09-16T06:00	27806	17	-48.3	-84.8	289	10
2023-09-16T06:00	27825	17	-48.4	-84.9	289	10
2023-09-16T06:00	27858	17	-48.4	-84.9	286	10
2023-09-16T06:00	27882	17	-48.3	-84.8	283	10
2023-09-16T06:00	27916	17	-48.3	-84.8	278	11
2023-09-16T06:00	27939	17	-48.2	-84.8	273	11
2023-09-16T06:00	27972	17	-48.2	-84.8	270	11
2023-09-16T06:00	27994	16	-48.1	-84.7	268	12
2023-09-16T06:00	28037	16	-48.1	-84.7	267	12
2023-09-16T06:00	28062	16	-48.0	-84.6	268	12
2023-09-16T06:00	28090	16	-48.0	-84.6	270	12
2023-09-16T06:00	28120	16	-48.1	-84.7	272	12
2023-09-16T06:00	28151	16	-48.2	-84.8	274	11
2023-09-16T06:00	28177	16	-48.2	-84.8	277	11
2023-09-16T06:00	28205	16	-48.3	-83.8	280	11
2023-09-16T06:00	28241	16	-48.4	-83.8	283	11
2023-09-16T06:00	28271	16	-48.5	-83.9	285	11
2023-09-16T06:00	28294	16	-48.4	-84.9	287	11
2023-09-16T06:00	28338	16	-48.5	-85.0	288	10
2023-09-16T06:00	28374	16	-48.5	-85.0	288	10
2023-09-16T06:00	28394	16	-48.4	-84.9	288	10
2023-09-16T06:00	28423	15	-48.3	-84.8	287	9
2023-09-16T06:00	28449	15	-48.4	-84.9	287	9
2023-09-16T06:00	28483	15	-48.6	-85.0	286	8
2023-09-16T06:00	28515	15	-48.5	-85.0	286	8
2023-09-16T06:00	28548	15	-48.6		286	9
2023-09-16T06:00	28578	15	-48.6		286	9
2023-09-16T06:00	28600	15	-48.7	-84.1	284	9
2023-09-16T06:00	28647	15	-48.7	-84.1	282	10
2023-09-16T06:00	28669	15	-48.8	-84.1	280	11
2023-09-16T06:00	28703	15	-48.8	-85.2	277	11
2023-09-16T06:00	28724	15	-48.7	-85.1	273	12
2023-09-16T06:00	28755	15	-48.5	-85.0	270	12
2023-09-16T06:00	28778	15	-48.2	-84.8	268	13
2023-09-16T06:00	28818	15	-48.2	-84.8	267	13
2023-09-16T06:00	28845	14	-48.2	-84.8	267	13
2023-09-16T06:00	28883	14	-48.1	-84.7	268	13
2023-09-16T06:00	28914	14	-48.0	-84.6	270	13
2023-09-16T06:00	28944	14	-47.8	-84.5	273	12
2023-09-16T06:00	28957	14	-47.6	-84.3	277	12
2023-09-16T06:00	29007	14	-47.6	-84.3	280	11
2023-09-16T06:00	29040	14	-47.5	-84.3	284	11
2023-09-16T06:00	29050	14	-47.3	-84.1	286	10
2023-09-16T06:00	29106	14	-47.0	-83.9	288	10
2023-09-16T06:00	29133	14	-46.8	-83.8	290	9
2023-09-16T06:00	29155	14	-46.8	-83.8	291	9
2023-09-16T06:00	29185	14	-46.9	-83.9	290	8
2023-09-16T06:00	29215	14	-47.0	-83.9	288	8
2023-09-16T06:00	29245	14	-47.2	-84.1	285	8
2023-09-16T06:00	29271	14	-47.2	-84.1	281	8
2023-09-16T06:00	29318	14	-47.2	-84.1	277	9
2023-09-16T06:00	29342	13	-47.2	-84.1	273	9
2023-09-16T06:00	29375	13	-47.2	-84.1	270	9
2023-09-16T06:00	29392	13	-47.0	-83.9	268	10
2023-09-16T06:00	29420	13	-46.8	-83.8	267	10
2023-09-16T06:00	29475	13	-46.6	-83.6	267	10
2023-09-16T06:00	29488	13	-46.4	-83.5	268	10
2023-09-16T06:00	29513	13	-46.1	-83.3	270	11
2023-09-16T06:00	29549	13	-45.9	-83.2	271	11
2023-09-16T06:00	29573	13	-45.7	-83.0	271	12
2023-09-16T06:00	29595	13	-45.7	-83.0	270	12
2023-09-16T06:00	29638	13	-45.7	-83.0	269	12
2023-09-16T06:00	29666	13	-45.8	-83.1	267	13
2023-09-16T06:00	29697	13	-45.8	-83.1	265	13
2023-09-16T06:00	29717	13	-45.9	-83.2	263	13
2023-09-16T06:00	29753	13	-46.0	-83.2	261	13
2023-09-16T06:00	29783	13	-46.1	-83.3	260	14
2023-09-16T06:00	29805	13	-46.1	-83.3	258	14
2023-09-16T06:00	29854	12	-46.1	-83.3	258	14
2023-09-16T06:00	29869	12	-46.2	-83.4	258	14
2023-09-16T06:00	29899	12	-46.3	-83.4	260	13
2023-09-16T06:00	29925	12	-46.3	-83.4	262	13
2023-09-16T06:00	29960	12	-46.5	-83.6	264	14
2023-09-16T06:00	29984	12	-46.7	-83.7	267	14
2023-09-16T06:00	30012	12	-46.8	-83.8	270	14
2023-09-16T06:00	30055	12	-46.7	-83.7	273	14
2023-09-16T06:00	30091	12	-46.4	-83.5	276	15
2023-09-16T06:00	30111	12	-45.9	-83.2	279	15
2023-09-16T06:00	30136	12	-45.4	-82.8	281	14
2023-09-16T06:00	30168	12	-45.1	-82.6	283	14
2023-09-16T06:00	30197	12	-44.9	-82.5	285	14
2023-09-16T06:00	30235	12	-44.8	-82.4	288	14
2023-09-16T06:00	30263	12	-44.5	-82.2	290	14
2023-09-16T06:00	30295	12	-44.1	-81.9	293	14
2023-09-16T06:00	30318	12	-43.8	-81.7	295	14
2023-09-16T06:00	30357	12	-43.7	-81.6	298	14
2023-09-16T06:00	30381	12	-43.7	-81.6	299	14
2023-09-16T06:00	30412	11	-43.7	-81.6	300	14
2023-09-16T06:00	30444	11	-43.6	-81.5	301	14
2023-09-16T06:00	30467	11	-43.4	-81.4	301	14
2023-09-16T06:00	30503	11	-43.3	-81.3	300	14
2023-09-16T06:00	30532	11	-43.3	-81.3	299	14
2023-09-16T06:00	30557	11	-43.4	-81.4	298	14
2023-09-16T06:00	30594	11	-43.4	-81.4	296	14
2023-09-16T06:00	30614	11	-43.3	-81.3	295	14
2023-09-16T06:00	30662	11	-43.3	-81.3	295	14
2023-09-16T06:00	30684	11	-43.2	-81.3	296	14
2023-09-16T06:00	30723	11	-43.1	-81.2	299	14
2023-09-16T06:00	30736	11	-43.2	-81.3	304	14
2023-09-16T06:00	30771	11	-43.2	-81.3	308	13
2023-09-16T06:00	30807	11	-43.2	-81.3	313	13
2023-09-16T06:00	30830	11	-43.0	-81.1	316	13
2023-09-16T06:00	30843	11	-42.8	-81.0	319	13
2023-09-16T06:00	30901	11	-42.7	-80.9	322	13
2023-09-16T06:00	30908	11	-42.7	-80.9	323	13
2023-09-16T06:00	30948	11	-42.8	-81.0	325	12
2023-09-16T06:00	30983	11	-42.9	-81.1	326	11
2023-09-16T06:00	30992	10	-43.1	-81.2	326	10
2023-09-16T06:00	31051	10	-43.1	-81.2	325	9
2023-09-16T06:00	31063	10	-43.1	-81.2	323	9
2023-09-16T06:00	31104	10	-43.0	-81.1	318	8
2023-09-16T06:00	31130	10	-42.8	-81.0	313	8
2023-09-16T06:00	31160	10	-42.7	-80.9	307	7
2023-09-16T06:00	31189	10	-42.7	-80.9	302	7
2023-09-16T06:00	31219	10	-42.8	-81.0	299	7
2023-09-16T06:00	31238	10	-42.7	-80.9	298	7
2023-09-16T06:00	31279	10	-42.6	-80.8	297	6
2023-09-16T06:00	31306	10	-42.4	-80.7	297	6
2023-09-16T06:00	31340	10	-42.2	-80.6	296	6
2023-09-16T06:00	31349	10	-42.2	-80.6	294	6
2023-09-16T06:00	31384	10	-42.1	-80.5	292	5
2023-09-16T06:00	31421	10	-42.1	-80.5	289	5
2023-09-16T06:00	31451	10	-42.2	-80.6	284	5
2023-09-16T06:00	31475	10	-42.2	-80.6	278	5
2023-09-16T06:00	31481	10	-42.2	-80.6	270	5
2023-09-16T06:00	31527	10	-42.0	-80.4	263	5
2023-09-16T06:00	31569	10	-41.8	-80.3	256	5
2023-09-16T06:00	31596	10	-41.6	-80.1	251	5
2023-09-16T06:00	31624	10	-41.4	-80.0	247	5
2023-09-16T06:00	31649	10	-41.2	-79.9	244	4
2023-09-16T06:00	31677	10	-41.1	-79.8	240	3
2023-09-16T06:00	31708	9	-41.1	-79.8	236	3
2023-09-16T06:00	31732	9	-41.1	-79.8	232	2
2023-09-16T06:00	31762	9	-41.0	-79.7	229	2
2023-09-16T06:00	31793	9	-40.9	-79.7	230	2
2023-09-16T06:00	31835	9	-40.7	-79.5	235	2
2023-09-16T06:00	31864	9	-40.7	-79.5	242	3
2023-09-16T06:00	31880	9	-40.8	-79.6	249	4
2023-09-16T06:00	31924	9	-40.9	-79.7	255	5
2023-09-16T06:00	31938	9	-40.8	-79.6	259	5
2023-09-16T06:00	31967	9	-40.6	-79.5	262	6
2023-09-16T06:00	32007	9	-40.4	-79.3	262	6
2023-09-16T06:00	32028	9	-39.9	-79.0	261	6
2023-09-16T06:00	32074	9	-39.5	-78.7	259	6
2023-09-16T06:00	32094	9	-39.2	-78.5	257	6
2023-09-16T06:00	32128	9	-39.0	-78.3	256	6
2023-09-16T06:00	32151	9	-38.9	-78.3	257	6
2023-09-16T06:00	32180	9	-38.9	-78.3	260	6
2023-09-16T06:00	32221	9	-38.9	-78.3	262	6
2023-09-16T06:00	32252	9	-39.0	-78.3	265	5
2023-09-16T06:00	32287	9	-39.1	-78.4	269	5
2023-09-16T06:00	32318	9	-39.0	-78.3	273	4
2023-09-16T06:00	32355	9	-38.9	-78.3	279	3
2023-09-16T06:00	32380	9	-38.8	-78.2	289	2
2023-09-16T06:00	32412	9	-38.7	-78.1	305	2
2023-09-16T06:00	32432	9	-38.6	-78.1	335	1
2023-09-16T06:00	32492	8	-38.6	-78.1	27	1
2023-09-16T06:00	32504	8	-38.7	-78.1	71	1
2023-09-16T06:00	32527	8	-38.6	-78.1	92	1
2023-09-16T06:00	32554	8	-38.5	-78.0	100	2
2023-09-16T06:00	32586	8	-38.6	-78.1	100	2
2023-09-16T06:00	32616	8	-38.7	-78.1	95	3
2023-09-16T06:00	32653	8	-38.9	-78.3	88	3
2023-09-16T06:00	32670	8	-39.0	-78.3	81	3
2023-09-16T06:00	32697	8	-39.0	-78.3	77	4
2023-09-16T06:00	32726	8	-39.2	-78.5	77	4
2023-09-16T06:00	32774	8	-39.4	-78.6	82	4
2023-09-16T06:00	32795	8	-39.6	-78.8	89	4
2023-09-16T06:00	32828	8	-39.7	-78.8	98	5
2023-09-16T06:00	32856	8	-39.8	-78.9	107	5
2023-09-16T06:00	32880	8	-39.7	-78.8	116	5
2023-09-16T06:00	32896	8	-39.4	-78.6	124	5
2023-09-16T06:00	32940	8	-39.3	-78.5	132	5
2023-09-16T06:00	32966	8	-39.2	-78.5	141	4
2023-09-16T06:00	32968	8	-39.2	-78.5	153	4
2023-09-16T06:00	33017	8	-39.2	-78.5	167	4
2023-09-16T06:00	33036	8	-39.1	-78.4	181	4
2023-09-16T06:00	33060	8	-39.0	-78.3	192	4
2023-09-16T06:00	33098	8	-39.0	-78.3	201	4
2023-09-16T06:00	33112	8	-38.9	-78.3	207	4
2023-09-16T06:00	33126	8	-38.8	-78.2	212	4
2023-09-16T06:00	33173	8	-38.8	-78.2	217	4
2023-09-16T06:00	33198	8	-38.8	-78.2	222	4
2023-09-16T06:00	33226	8	-38.7	-78.1	226	3
2023-09-16T06:00	33262	8	-38.6	-78.1	229	3
2023-09-16T06:00	33277	8	-38.5	-78.0	234	2
2023-09-16T06:00	33307	8	-38.5	-78.0	239	2
2023-09-16T06:00	33328	7	-38.5	-78.0	246	1
2023-09-16T06:00	33363	7	-38.4	-77.9	248	1
2023-09-16T06:00	33373	7	-38.4	-77.9	245	2
2023-09-16T06:00	33426	7	-38.5	-78.0	240	2
2023-09-16T06:00	33464	7	-38.6	-78.1	236	3
2023-09-16T06:00	33493	7	-38.7	-78.1	234	3
2023-09-16T06:00	33518	7	-38.8	-78.2	234	4
2023-09-16T06:00	33532	7	-38.7	-78.1	235	4
2023-09-16T06:00	33560	7	-38.7	-78.1	237	5
2023-09-16T06:00	33593	7	-38.7	-78.1	240	6
2023-09-16T06:00	33626	7	-38.6	-78.1	242	7
2023-09-16T06:00	33659	7	-38.6	-78.1	244	8
2023-09-16T06:00	33720	7	-38.7	-78.1	246	8
2023-09-16T06:00	33764	7	-38.9	-78.3	247	10
2023-09-16T06:00	33779	7	-38.8	-78.2	247	11
2023-09-16T06:00	33816	7	-38.7	-78.1	247	12
2023-09-16T06:00	33855	7	-38.6	-78.1	246	12
2023-09-16T06:00	33857	7	-38.6	-78.1	245	12
2023-09-16T06:00	33927	7	-38.7	-78.1	245	12
2023-09-16T06:00	33959	7	-38.4	-77.9	244	12
2023-09-16T12:00	-999					
2023-09-16T12:00	134	1002	21.5	11.4	104	3
2023-09-16T12:00	157	999	21.1	11.1	106	4
2023-09-16T12:00	190	996	20.4	10.8	107	4
2023-09-16T12:00	215	993	20.1	10.7	110	4
2023-09-16T12:00	240	990	20.0	10.6	112	4
2023-09-16T12:00	266	987	19.8	10.8	115	4
2023-09-16T12:00	293	984	19.9	11.0	119	4
2023-09-16T12:00	329	980	19.2	10.8	124	4
2023-09-16T12:00	368	975	19.1	10.7	129	5
2023-09-16T12:00	398	972	18.9	10.9	134	5
2023-09-16T12:00	424	969	18.3	10.4	139	5
2023-09-16T12:00	452	966	18.0	10.2	143	5
2023-09-16T12:00	480	963	17.9	10.2	145	5
2023-09-16T12:00	500	960	17.7	10.3	145	5
2023-09-16T12:00	519	958	17.5	10.2	145	5
2023-09-16T12:00	546	955	17.3	10.2	145	5
2023-09-16T12:00	572	952	17.0	10.0	145	5
2023-09-16T12:00	602	949	16.7	9.9	146	6
2023-09-16T12:00	628	946	16.4	9.9	148	6
2023-09-16T12:00	653	943	16.3	9.9	149	7
2023-09-16T12:00	681	940	16.1	9.8	149	7
2023-09-16T12:00	712	937	16.0	9.9	148	7
2023-09-16T12:00	740	934	15.8	9.9	149	7
2023-09-16T12:00	764	931	15.6	9.9	150	8
2023-09-16T12:00	787	929	15.4	9.9	153	8
2023-09-16T12:00	812	926	15.5	10.0	156	9
2023-09-16T12:00	834	924	15.4	10.1	158	9
2023-09-16T12:00	856	921	15.3	9.7	160	10
2023-09-16T12:00	880	918	15.1	9.7	161	10
2023-09-16T12:00	904	916	14.9	9.7	162	9
2023-09-16T12:00	925	914	14.7	9.7	162	9
2023-09-16T12:00	946	911	14.6	9.7	163	9
2023-09-16T12:00	968	909	14.4	9.8	164	9
2023-09-16T12:00	994	906	14.2	9.9	165	9
2023-09-16T12:00	1012	904	14.0	9.9	166	9
2023-09-16T12:00	1034	902	13.8	10.1	166	10
2023-09-16T12:00	1062	899	13.6	9.9	166	10
2023-09-16T12:00	1084	897	13.4	9.6	165	10
2023-09-16T12:00	1103	895	13.4	9.0	165	9
2023-09-16T12:00	1120	893	13.3	8.9	166	9
2023-09-16T12:00	1141	891	13.1	8.8	167	9
2023-09-16T12:00	1161	888	13.0	8.7	167	9
2023-09-16T12:00	1179	886	12.8	8.7	166	10
2023-09-16T12:00	1200	885	12.6	9.1	165	11
2023-09-16T12:00	1217	883	12.5	9.3	164	11
2023-09-16T12:00	1235	881	12.3	9.2	163	12
2023-09-16T12:00	1256	878	12.1	9.4	164	12
2023-09-16T12:00	1281	876	12.0	9.3	166	12
2023-09-16T12:00	1307	873	11.8	9.5	169	12
2023-09-16T12:00	1329	871	11.6	9.0	172	12
2023-09-16T12:00	1347	869	11.6	8.9	174	12
2023-09-16T12:00	1370	867	11.5	8.6	176	13
2023-09-16T12:00	1392	864	11.6	7.9	178	13
2023-09-16T12:00	1416	862	11.6	7.3	179	14
2023-09-16T12:00	1447	859	11.8	6.1	180	14
2023-09-16T12:00	1471	856	12.3	4.1	180	15
2023-09-16T12:00	1496	854	12.4	4.6	180	14
2023-09-16T12:00	1525	851	12.3	4.7	179	14
2023-09-16T12:00	1544	849	12.1	4.7	178	14
2023-09-16T12:00	1567	846	12.1	3.2	177	15
2023-09-16T12:00	1587	844	12.1	1.7	177	15
2023-09-16T12:00	1606	842	12.1	1.4	178	15
2023-09-16T12:00	1636	840	11.9	1.4	181	15
2023-09-16T12:00	1657	837	11.7	1.5	184	14
2023-09-16T12:00	1681	835	11.6	1.1	188	14
2023-09-16T12:00	1704	833	11.6	0.3	191	14
2023-09-16T12:00	1726	830	11.6	-0.2	194	13
2023-09-16T12:00	1752	828	11.4	-0.3	197	13
2023-09-16T12:00	1780	825	11.3	-0.5	198	12
2023-09-16T12:00	1800	823	11.2	-0.8	198	12
2023-09-16T12:00	1821	821	11.0	-1.2	195	11
2023-09-16T12:00	1849	819	10.8	-2.1	190	10
2023-09-16T12:00	1871	816	11.2	-6.2	185	10
2023-09-16T12:00	1891	814	11.2	-7.7	181	9
2023-09-16T12:00	1911	812	11.3	-10.1	181	9
2023-09-16T12:00	1927	811	11.4	-13.1	183	10
2023-09-16T12:00	1948	809	11.5	-14.0	186	10
2023-09-16T12:00	1974	806	11.8	-16.4	188	11
2023-09-16T12:00	1995	804	11.9	-17.0	189	11
2023-09-16T12:00	2016	802	11.8	-15.7	189	12
2023-09-16T12:00	2038	800	11.8	-11.4	188	13
2023-09-16T12:00	2057	798	11.8	-7.4	187	13
2023-09-16T12:00	2079	796	11.5	-2.0	185	13
2023-09-16T12:00	2100	794	11.3	-1.8	183	13
2023-09-16T12:00	2123	792	11.2	-1.6	181	13
2023-09-16T12:00	2159	789	10.8	-1.5	180	13
2023-09-16T12:00	2183	786	10.6	-1.4	180	13
2023-09-16T12:00	2202	784	10.5	-0.6	181	14
2023-09-16T12:00	2225	782	10.4	-0.1	182	14
2023-09-16T12:00	2250	780	10.3	0.1	182	14
2023-09-16T12:00	2270	778	10.1	0.0	182	14
2023-09-16T12:00	2294	776	10.0	0.2	181	14
2023-09-16T12:00	2315	774	9.8	0.2	181	14
2023-09-16T12:00	2337	772	9.6	0.1	180	14
2023-09-16T12:00	2358	770	9.5	0.1	180	13
2023-09-16T12:00	2379	768	9.3	0.1	179	13
2023-09-16T12:00	2402	766	9.2	-0.2	179	12
2023-09-16T12:00	2421	764	9.1	-0.5	178	12
2023-09-16T12:00	2443	762	9.1	-0.8	177	11
2023-09-16T12:00	2463	760	8.9	-0.8	175	10
2023-09-16T12:00	2483	758	8.8	-0.9	173	10
2023-09-16T12:00	2500	757	8.7	-0.8	171	9
2023-09-16T12:00	2530	754	8.7	-0.8	168	9
2023-09-16T12:00	2553	752	8.5	-0.9	167	9
2023-09-16T12:00	2576	750	8.3	-1.0	167	10
2023-09-16T12:00	2595	748	8.2	-1.0	169	11
2023-09-16T12:00	2612	747	8.1	-1.0	171	11
2023-09-16T12:00	2635	745	8.0	-1.9	173	12
2023-09-16T12:00	2658	743	8.0	-2.1	176	12
2023-09-16T12:00	2676	741	8.0	-2.8	178	12
2023-09-16T12:00	2699	739	7.8	-3.2	179	12
2023-09-16T12:00	2730	736	7.6	-3.8	179	12
2023-09-16T12:00	2753	734	7.6	-5.5	177	11
2023-09-16T12:00	2772	732	7.6	-7.0	175	11
2023-09-16T12:00	2796	730	8.1	-16.9	172	10
2023-09-16T12:00	2819	728	8.3	-20.7	170	10
2023-09-16T12:00	2844	726	8.3	-23.7	169	11
2023-09-16T12:00	2869	724	8.3	-25.9	169	11
2023-09-16T12:00	2888	722	8.5	-30.1	171	12
2023-09-16T12:00	2915	720	8.7	-31.5	172	12
2023-09-16T12:00	2932	718	8.8	-31.7	174	12
2023-09-16T12:00	2949	717	8.8	-32.1	174	12
2023-09-16T12:00	2967	715	8.8	-31.7	174	13
2023-09-16T12:00	2993	713	8.6	-31.2	173	13
2023-09-16T12:00	3017	711	8.4	-30.4	172	13
2023-09-16T12:00	3037	709	8.3	-30.2	171	13
2023-09-16T12:00	3057	707	8.1	-30.6	172	12
2023-09-16T12:00	3083	705	7.9	-31.0	173	12
2023-09-16T12:00	3106	703	7.7	-30.6	175	11
2023-09-16T12:00	3127	701	7.5	-31.0	175	11
2023-09-16T12:00	3155	699	7.3	-30.9	175	11
2023-09-16T12:00	3188	696	7.1	-30.7	174	11
2023-09-16T12:00	3214	694	6.8	-30.6	173	11
2023-09-16T12:00	3238	692	6.6	-31.0	172	10
2023-09-16T12:00	3262	690	6.4	-31.4	172	10
2023-09-16T12:00	3289	688	6.3	-31.8	174	9
2023-09-16T12:00	3311	686	6.1	-31.6	176	9
2023-09-16T12:00	3342	684	5.9	-31.5	179	9
2023-09-16T12:00	3357	682	5.7	-31.6	180	9
2023-09-16T12:00	3373	681	5.6	-31.4	180	9
2023-09-16T12:00	3392	679	5.4	-31.6	180	9
2023-09-16T12:00	3410	678	5.2	-31.4	178	10
2023-09-16T12:00	3431	676	5.1	-31.5	177	10
2023-09-16T12:00	3462	673	4.8	-31.4	177	10
2023-09-16T12:00	3488	671	4.6	-31.6	177	10
2023-09-16T12:00	3513	669	4.4	-31.7	177	10
2023-09-16T12:00	3533	667	4.2	-31.8	177	10
2023-09-16T12:00	3562	665	4.0	-31.7	177	10
2023-09-16T12:00	3587	663	3.8	-31.9	176	10
2023-09-16T12:00	3612	661	3.6	-31.8	175	10
2023-09-16T12:00	3649	658	3.3	-31.7	175	10
2023-09-16T12:00	3670	656	3.1	-32.1	174	11
2023-09-16T12:00	3696	654	3.1	-33.1	173	11
2023-09-16T12:00	3716	652	2.9	-30.5	172	11
2023-09-16T12:00	3743	650	2.6	-28.5	170	11
2023-09-16T12:00	3771	648	2.4	-27.6	169	10
2023-09-16T12:00	3798	646	2.1	-26.3	170	10
2023-09-16T12:00	3821	644	1.9	-27.1	171	10
2023-09-16T12:00	3844	642	1.7	-28.5	172	10
2023-09-16T12:00	3867	640	1.5	-26.4	174	10
2023-09-16T12:00	3896	638	1.3	-22.1	176	10
2023-09-16T12:00	3921	636	1.1	-28.1	178	10
2023-09-16T12:00	3952	634	0.8	-23.6	179	10
2023-09-16T12:00	3982	631	0.6	-22.2	180	10
2023-09-16T12:00	4002	630	0.3	-21.7	180	10
2023-09-16T12:00	4019	628	0.2	-22.8	180	10
2023-09-16T12:00	4042	627	0.0	-23.7	178	10
2023-09-16T12:00	4064	625	-0.2	-23.0	176	10
2023-09-16T12:00	4084	623	-0.4	-23.3	173	9
2023-09-16T12:00	4106	621	-0.6	-23.4	170	9
2023-09-16T12:00	4137	619	-0.9	-24.2	168	9
2023-09-16T12:00	4165	617	-1.1	-24.2	168	8
2023-09-16T12:00	4189	615	-1.3	-22.8	169	8
2023-09-16T12:00	4220	613	-1.6	-22.5	171	8
2023-09-16T12:00	4241	611	-1.8	-22.6	173	9
2023-09-16T12:00	4263	609	-2.0	-23.7	175	9
2023-09-16T12:00	4294	607	-2.2	-22.3	176	10
2023-09-16T12:00	4322	605	-2.4	-22.2	176	10
2023-09-16T12:00	4348	603	-2.6	-22.0	175	10
2023-09-16T12:00	4367	601	-2.8	-22.1	174	10
2023-09-16T12:00	4395	599	-3.0	-22.0	173	9
2023-09-16T12:00	4417	598	-3.2	-22.5	171	8
2023-09-16T12:00	4439	596	-3.4	-22.7	169	8
2023-09-16T12:00	4465	594	-3.6	-21.8	168	8
2023-09-16T12:00	4491	592	-3.8	-22.1	168	9
2023-09-16T12:00	4515	590	-3.9	-22.1	170	9
2023-09-16T12:00	4547	588	-4.2	-22.0	171	10
2023-09-16T12:00	4570	586	-4.3	-21.5	171	10
2023-09-16T12:00	4596	584	-4.6	-21.4	170	10
2023-09-16T12:00	4626	582	-4.8	-21.9	169	10
2023-09-16T12:00	4649	580	-5.0	-21.9	168	10
2023-09-16T12:00	4672	578	-5.2	-21.9	168	10
2023-09-16T12:00	4704	576	-5.5	-22.1	169	10
2023-09-16T12:00	4723	575	-5.7	-22.2	169	10
2023-09-16T12:00	4742	573	-5.8	-22.6	169	10
2023-09-16T12:00	4768	572	-5.8	-23.3	169	10
2023-09-16T12:00	4803	569	-5.8	-24.7	169	10
2023-09-16T12:00	4832	567	-5.9	-24.6	169	10
2023-09-16T12:00	4857	565	-6.0	-26.1	169	10
2023-09-16T12:00	4876	564	-6.1	-26.6	170	11
2023-09-16T12:00	4893	563	-6.2	-27.0	169	11
2023-09-16T12:00	4913	561	-6.3	-27.6	169	11
2023-09-16T12:00	4930	560	-6.3	-27.9	169	12
2023-09-16T12:00	4948	559	-6.4	-28.2	168	12
2023-09-16T12:00	4967	557	-6.5	-28.3	168	12
2023-09-16T12:00	4985	556	-6.6	-28.3	167	12
2023-09-16T12:00	5009	554	-6.8	-28.1	165	13
2023-09-16T12:00	5038	552	-7.0	-27.1	162	13
2023-09-16T12:00	5062	550	-7.2	-26.3	159	13
2023-09-16T12:00	5091	549	-7.5	-25.6	158	13
2023-09-16T12:00	5115	547	-7.7	-25.5	158	12
2023-09-16T12:00	5136	545	-7.9	-25.0	159	12
2023-09-16T12:00	5162	543	-8.1	-23.9	162	12
2023-09-16T12:00	5191	542	-8.4	-22.8	165	11
2023-09-16T12:00	5218	540	-8.7	-22.2	168	11
2023-09-16T12:00	5237	538	-8.8	-21.5	169	11
2023-09-16T12:00	5268	536	-9.1	-21.7	170	10
2023-09-16T12:00	5290	534	-9.3	-21.9	171	10
2023-09-16T12:00	5318	533	-9.5	-22.1	171	10
2023-09-16T12:00	5353	530	-9.8	-22.5	172	10
2023-09-16T12:00	5374	529	-10.0	-23.0	172	10
2023-09-16T12:00	5392	528	-10.1	-23.3	173	10
2023-09-16T12:00	5412	526	-10.3	-23.7	173	11
2023-09-16T12:00	5440	524	-10.5	-24.5	174	11
2023-09-16T12:00	5463	523	-10.7	-26.1	175	11
2023-09-16T12:00	5492	521	-11.0	-26.5	176	10
2023-09-16T12:00	5521	519	-11.2	-27.1	177	10
2023-09-16T12:00	5536	518	-11.3	-27.3	177	10
2023-09-16T12:00	5556	516	-11.5	-27.5	177	9
2023-09-16T12:00	5580	515	-11.8	-27.8	176	9
2023-09-16T12:00	5610	513	-12.0	-28.0	175	9
2023-09-16T12:00	5628	512	-12.2	-28.2	174	9
2023-09-16T12:00	5651	510	-12.4	-29.1	172	9
2023-09-16T12:00	5682	508	-12.4	-30.8	170	10
2023-09-16T12:00	5710	506	-12.5	-32.1	170	10
2023-09-16T12:00	5741	504	-12.6	-33.2	171	10
2023-09-16T12:00	5761	503	-12.8	-33.2	172	10
2023-09-16T12:00	5776	502	-12.9	-33.1	175	10
2023-09-16T12:00	5794	501	-13.0	-33.5	177	9
2023-09-16T12:00	5812	499	-13.0	-35.7	179	9
2023-09-16T12:00	5831	498	-13.1	-36.5	180	9
2023-09-16T12:00	5850	497	-13.2	-36.5	182	9
2023-09-16T12:00	5870	496	-13.3	-37.0	184	9
2023-09-16T12:00	5897	494	-13.4	-37.2	186	9
2023-09-16T12:00	5929	492	-13.6	-38.2	185	9
2023-09-16T12:00	5952	490	-13.8	-38.0	184	9
2023-09-16T12:00	5985	488	-14.1	-37.9	182	9
2023-09-16T12:00	6011	486	-14.4	-37.8	180	9
2023-09-16T12:00	6036	485	-14.6	-37.5	180	9
2023-09-16T12:00	6069	483	-14.9	-37.4	180	9
2023-09-16T12:00	6097	481	-15.2	-37.3	181	9
2023-09-16T12:00	6123	479	-15.4	-37.1	182	9
2023-09-16T12:00	6158	477	-15.7	-36.0	183	9
2023-09-16T12:00	6191	475	-16.0	-35.8	183	9
2023-09-16T12:00	6208	474	-16.1	-35.6	184	9
2023-09-16T12:00	6228	473	-16.3	-35.6	185	8
2023-09-16T12:00	6247	472	-16.5	-35.7	186	8
2023-09-16T12:00	6265	470	-16.7	-35.8	186	8
2023-09-16T12:00	6286	469	-16.9	-36.5	185	8
2023-09-16T12:00	6309	468	-17.1	-36.0	185	8
2023-09-16T12:00	6342	466	-17.3	-34.7	184	9
2023-09-16T12:00	6365	464	-17.4	-37.9	185	9
2023-09-16T12:00	6390	463	-17.6	-39.0	187	10
2023-09-16T12:00	6420	461	-17.7	-38.9	189	10
2023-09-16T12:00	6449	459	-18.0	-39.2	192	10
2023-09-16T12:00	6480	457	-18.2	-39.4	194	10
2023-09-16T12:00	6504	456	-18.4	-39.6	196	10
2023-09-16T12:00	6532	454	-18.7	-39.8	197	9
2023-09-16T12:00	6561	452	-18.9	-39.2	198	9
2023-09-16T12:00	6589	450	-19.2	-39.3	198	9
2023-09-16T12:00	6621	449	-19.4	-39.2	198	9
2023-09-16T12:00	6648	447	-19.5	-40.6	198	9
2023-09-16T12:00	6678	445	-19.7	-41.1	198	9
2023-09-16T12:00	6701	444	-19.8	-41.1	198	9
2023-09-16T12:00	6724	442	-20.1	-41.3	198	9
2023-09-16T12:00	6755	441	-20.3	-41.3	198	9
2023-09-16T12:00	6784	439	-20.6	-41.5	198	9
2023-09-16T12:00	6804	438	-20.8	-41.5	197	10
2023-09-16T12:00	6828	436	-21.0	-42.4	196	10
2023-09-16T12:00	6859	434	-21.3	-42.2	194	10
2023-09-16T12:00	6886	433	-21.5	-43.3	193	11
2023-09-16T12:00	6917	431	-21.7	-42.5	191	11
2023-09-16T12:00	6949	429	-22.0	-42.6	191	11
2023-09-16T12:00	6980	427	-22.1	-42.6	191	11
2023-09-16T12:00	7010	426	-22.4	-42.1	192	11
2023-09-16T12:00	7033	424	-22.6	-41.9	194	11
2023-09-16T12:00	7063	422	-22.9	-42.0	195	11
2023-09-16T12:00	7099	420	-23.1	-42.2	196	11
2023-09-16T12:00	7127	419	-23.4	-42.4	196	11
2023-09-16T12:00	7157	417	-23.6	-42.3	196	12
2023-09-16T12:00	7185	415	-23.9	-42.4	196	13
2023-09-16T12:00	7220	414	-24.2	-42.4	195	13
2023-09-16T12:00	7249	412	-24.5	-42.8	194	14
2023-09-16T12:00	7281	410	-24.8	-42.9	194	14
2023-09-16T12:00	7312	408	-25.1	-43.0	193	14
2023-09-16T12:00	7342	407	-25.4	-42.9	193	14
2023-09-16T12:00	7372	405	-25.6	-42.9	193	14
2023-09-16T12:00	7397	403	-25.9	-43.0	194	14
2023-09-16T12:00	7426	402	-26.1	-43.1	195	15
2023-09-16T12:00	7461	400	-26.4	-43.9	195	15
2023-09-16T12:00	7489	398	-26.6	-43.9	196	15
2023-09-16T12:00	7522	397	-26.9	-44.0	196	14
2023-09-16T12:00	7554	395	-27.2	-44.0	197	14
2023-09-16T12:00	7586	393	-27.5	-44.4	197	13
2023-09-16T12:00	7618	391	-27.8	-45.3	197	12
2023-09-16T12:00	7653	390	-28.0	-45.2	196	12
2023-09-16T12:00	7683	388	-28.3	-45.3	193	12
2023-09-16T12:00	7716	386	-28.5	-45.8	191	12
2023-09-16T12:00	7746	384	-28.8	-46.6	190	12
2023-09-16T12:00	7776	383	-29.0	-46.8	189	13
2023-09-16T12:00	7806	381	-29.3	-46.1	189	13
2023-09-16T12:00	7835	380	-29.5	-45.7	189	14
2023-09-16T12:00	7867	378	-29.8	-46.0	190	14
2023-09-16T12:00	7900	376	-30.1	-46.4	192	13
2023-09-16T12:00	7929	375	-30.3	-46.7	193	13
2023-09-16T12:00	7956	373	-30.6	-47.2	195	13
2023-09-16T12:00	7985	372	-30.8	-46.9	195	13
2023-09-16T12:00	8020	370	-31.1	-47.3	195	13
2023-09-16T12:00	8055	368	-31.4	-49.8	195	13
2023-09-16T12:00	8081	367	-31.6	-47.0	195	14
2023-09-16T12:00	8108	365	-31.8	-46.4	195	14
2023-09-16T12:00	8138	364	-32.1	-52.1	195	14
2023-09-16T12:00	8174	362	-32.3	-49.9	194	15
2023-09-16T12:00	8202	361	-32.6	-49.6	193	15
2023-09-16T12:00	8229	359	-32.8	-48.6	192	14
2023-09-16T12:00	8257	358	-33.1	-49.6	192	14
2023-09-16T12:00	8286	356	-33.3	-50.2	192	13
2023-09-16T12:00	8314	355	-33.5	-51.0	194	13
2023-09-16T12:00	8340	353	-33.7	-46.7	196	13
2023-09-16T12:00	8367	352	-33.8	-38.3	198	13
2023-09-16T12:00	8397	351	-34.0	-37.7	199	13
2023-09-16T12:00	8423	349	-34.2	-37.9	199	13
2023-09-16T12:00	8447	348	-34.5	-38.0	198	13
2023-09-16T12:00	8476	347	-34.8	-38.1	196	13
2023-09-16T12:00	8501	345	-35.0	-38.2	194	13
2023-09-16T12:00	8524	344	-35.2	-38.1	192	14
2023-09-16T12:00	8551	343	-35.5	-38.5	192	14
2023-09-16T12:00	8580	342	-35.7	-38.7	192	14
2023-09-16T12:00	8606	340	-36.0	-38.7	193	14
2023-09-16T12:00	8635	339	-36.3	-38.7	194	14
2023-09-16T12:00	8664	337	-36.5	-39.2	194	14
2023-09-16T12:00	8692	336	-36.8	-39.5	195	14
2023-09-16T12:00	8715	335	-37.0	-39.4	195	14
2023-09-16T12:00	8740	334	-37.3	-39.4	196	15
2023-09-16T12:00	8765	333	-37.5	-39.8	196	15
2023-09-16T12:00	8789	331	-37.8	-40.2	196	15
2023-09-16T12:00	8820	330	-37.9	-42.1	195	15
2023-09-16T12:00	8846	329	-38.0	-45.6	194	15
2023-09-16T12:00	8871	327	-38.1	-46.7	193	14
2023-09-16T12:00	8896	326	-38.3	-46.9	191	14
2023-09-16T12:00	8918	325	-38.5	-46.8	190	14
2023-09-16T12:00	8942	324	-38.6	-47.1	190	14
2023-09-16T12:00	8969	323	-38.9	-47.2	191	14
2023-09-16T12:00	8997	321	-39.1	-46.9	192	14
2023-09-16T12:00	9026	320	-39.4	-46.8	192	14
2023-09-16T12:00	9052	319	-39.6	-46.9	193	14
2023-09-16T12:00	9077	318	-39.8	-47.1	193	14
2023-09-16T12:00	9103	317	-40.1	-47.4	193	14
2023-09-16T12:00	9131	315	-40.3	-47.3	192	14
2023-09-16T12:00	9156	314	-40.6	-47.5	191	13
2023-09-16T12:00	9189	313	-40.9	-47.5	189	13
2023-09-16T12:00	9222	311	-41.2	-47.7	189	14
2023-09-16T12:00	9253	310	-41.5	-47.8	188	14
2023-09-16T12:00	9275	309	-41.7	-48.3	188	14
2023-09-16T12:00	9299	308	-41.9	-48.2	189	14
2023-09-16T12:00	9322	307	-42.2	-48.3	189	14
2023-09-16T12:00	9343	306	-42.3	-48.5	189	14
2023-09-16T12:00	9367	305	-42.6	-48.6	189	14
2023-09-16T12:00	9387	304	-42.7	-48.6	189	15
2023-09-16T12:00	9407	303	-42.9	-48.7	189	15
2023-09-16T12:00	9428	302	-43.1	-49.4	189	15
2023-09-16T12:00	9447	301	-43.2	-50.0	189	15
2023-09-16T12:00	9465	300	-43.4	-50.2	189	15
2023-09-16T12:00	9485	299	-43.5	-49.6	189	15
2023-09-16T12:00	9504	298	-43.7	-49.5	189	15
2023-09-16T12:00	9525	297	-43.9	-49.5	189	15
2023-09-16T12:00	9546	297	-44.0	-49.4	189	15
2023-09-16T12:00	9564	296	-44.2	-49.8	189	15
2023-09-16T12:00	9585	295	-44.4	-50.1	189	15
2023-09-16T12:00	9605	294	-44.6	-50.1	190	15
2023-09-16T12:00	9625	293	-44.8	-50.1	190	15
2023-09-16T12:00	9643	292	-45.0	-50.1	191	15
2023-09-16T12:00	9664	291	-45.2	-50.1	192	15
2023-09-16T12:00	9683	290	-45.4	-50.3	192	15
2023-09-16T12:00	9704	290	-45.5	-51.5	193	15
2023-09-16T12:00	9722	289	-45.7	-52.4	193	15
2023-09-16T12:00	9742	288	-45.9	-52.7	193	15
2023-09-16T12:00	9763	287	-46.0	-53.0	193	15
2023-09-16T12:00	9782	286	-46.1	-53.6	193	15
2023-09-16T12:00	9800	285	-46.3	-54.0	193	15
2023-09-16T12:00	9821	285	-46.4	-54.4	193	15
2023-09-16T12:00	9841	284	-46.5	-54.9	194	15
2023-09-16T12:00	9865	283	-46.7	-55.5	194	14
2023-09-16T12:00	9892	282	-46.8	-56.1	194	14
2023-09-16T12:00	9915	281	-47.0	-56.5	195	14
2023-09-16T12:00	9939	280	-47.2	-56.2	195	14
2023-09-16T12:00	9959	279	-47.4	-56.0	195	14
2023-09-16T12:00	9983	278	-47.6	-56.0	195	14
2023-09-16T12:00	10008	277	-47.9	-56.2	195	13
2023-09-16T12:00	10030	276	-48.1	-56.4	195	13
2023-09-16T12:00	10052	275	-48.3	-56.5	196	13
2023-09-16T12:00	10074	274	-48.6	-56.8	196	13
2023-09-16T12:00	10100	273	-48.8	-57.6	196	14
2023-09-16T12:00	10124	272	-48.8	-58.2	197	14
2023-09-16T12:00	10145	271	-48.9	-58.2	197	13
2023-09-16T12:00	10167	270	-49.1	-58.4	198	13
2023-09-16T12:00	10195	269	-49.3	-59.3	199	13
2023-09-16T12:00	10225	268	-49.4		201	13
2023-09-16T12:00	10252	266	-49.6	-62.0	202	13
2023-09-16T12:00	10278	265	-49.8	-62.1	203	12
2023-09-16T12:00	10307	264	-50.0	-62.3	204	12
2023-09-16T12:00	10339	263	-50.3	-62.3	204	12
2023-09-16T12:00	10365	262	-50.5	-62.3	205	11
2023-09-16T12:00	10385	261	-50.7	-62.4	205	11
2023-09-16T12:00	10405	260	-50.8	-62.2	206	11
2023-09-16T12:00	10427	259	-50.9	-62.1	207	11
2023-09-16T12:00	10449	259	-51.1	-62.1	208	11
2023-09-16T12:00	10467	258	-51.2	-62.1	209	11
2023-09-16T12:00	10487	257	-51.2	-61.9	210	11
2023-09-16T12:00	10509	256	-51.3	-61.8	212	11
2023-09-16T12:00	10529	255	-51.5	-61.7	214	11
2023-09-16T12:00	10554	254	-51.6	-61.1	216	11
2023-09-16T12:00	10585	253	-51.7	-60.3	218	11
2023-09-16T12:00	10612	252	-52.0	-60.2	220	11
2023-09-16T12:00	10634	251	-52.2	-60.1	221	11
2023-09-16T12:00	10661	250	-52.4	-59.9	222	11
2023-09-16T12:00	10690	249	-52.6	-60.3	222	11
2023-09-16T12:00	10715	248	-52.6	-60.8	224	11
2023-09-16T12:00	10738	247	-52.6	-60.9	226	11
2023-09-16T12:00	10758	247	-52.8	-60.9	228	11
2023-09-16T12:00	10779	246	-52.9	-61.0	230	11
2023-09-16T12:00	10800	245	-53.0	-61.2	232	11
2023-09-16T12:00	10822	244	-53.1	-61.4	234	10
2023-09-16T12:00	10842	243	-53.2	-61.8	235	10
2023-09-16T12:00	10864	243	-53.3	-62.2	236	10
2023-09-16T12:00	10884	242	-53.3	-62.3	236	9
2023-09-16T12:00	10901	241	-53.5	-62.4	236	9
2023-09-16T12:00	10922	240	-53.7	-62.5	237	9
2023-09-16T12:00	10942	240	-53.7	-62.7	238	9
2023-09-16T12:00	10962	239	-53.8	-63.0	240	10
2023-09-16T12:00	10981	238	-53.8	-63.4	241	10
2023-09-16T12:00	10999	237	-53.7	-63.5	242	10
2023-09-16T12:00	11018	237	-53.7	-63.7	243	10
2023-09-16T12:00	11037	236	-53.8	-63.9	243	10
2023-09-16T12:00	11054	235	-53.7	-64.1	242	10
2023-09-16T12:00	11072	235	-53.6	-64.1	242	9
2023-09-16T12:00	11093	234	-53.7	-64.3	241	9
2023-09-16T12:00	11113	233	-53.8	-64.4	241	10
2023-09-16T12:00	11132	233	-53.9	-64.6	242	10
2023-09-16T12:00	11148	232	-53.8	-64.7	242	10
2023-09-16T12:00	11168	231	-53.9	-64.8	243	11
2023-09-16T12:00	11187	231	-53.9	-64.7	243	11
2023-09-16T12:00	11206	230	-54.0	-64.7	243	11
2023-09-16T12:00	11223	229	-54.1	-64.8	242	11
2023-09-16T12:00	11242	229	-54.3	-64.9	241	11
2023-09-16T12:00	11265	228	-54.3	-65.0	241	11
2023-09-16T12:00	11283	227	-54.4	-65.1	240	11
2023-09-16T12:00	11302	227	-54.5	-65.3	240	12
2023-09-16T12:00	11321	226	-54.7	-65.5	240	12
2023-09-16T12:00	11340	225	-54.7	-65.6	241	12
2023-09-16T12:00	11360	224	-54.7	-65.7	242	12
2023-09-16T12:00	11380	224	-54.8	-65.9	242	12
2023-09-16T12:00	11400	223	-54.9	-66.1	244	13
2023-09-16T12:00	11421	222	-54.7	-66.2	245	13
2023-09-16T12:00	11442	222	-54.6	-66.3	246	12
2023-09-16T12:00	11463	221	-54.7	-66.3	246	12
2023-09-16T12:00	11481	220	-54.9	-66.3	245	12
2023-09-16T12:00	11502	219	-55.0	-66.1	243	12
2023-09-16T12:00	11525	219	-55.0	-65.9	241	11
2023-09-16T12:00	11544	218	-54.8	-65.8	240	11
2023-09-16T12:00	11563	217	-54.6	-65.8	239	12
2023-09-16T12:00	11583	217	-54.8	-66.0	240	12
2023-09-16T12:00	11606	216	-54.7	-65.9	241	12
2023-09-16T12:00	11629	215	-54.6	-65.7	242	13
2023-09-16T12:00	11652	214	-54.8	-65.8	244	13
2023-09-16T12:00	11673	214	-54.9	-65.7	245	14
2023-09-16T12:00	11692	213	-54.9	-65.6	246	14
2023-09-16T12:00	11715	212	-55.0	-65.7	247	14
2023-09-16T12:00	11737	212	-55.0	-65.9	249	14
2023-09-16T12:00	11756	211	-55.1	-66.3	250	14
2023-09-16T12:00	11781	210	-55.3	-66.5	252	14
2023-09-16T12:00	11800	210	-55.4	-66.5	253	14
2023-09-16T12:00	11821	209	-55.6	-66.5	255	14
2023-09-16T12:00	11843	208	-55.8	-66.6	256	14
2023-09-16T12:00	11862	207	-55.9	-66.7	258	14
2023-09-16T12:00	11882	207	-56.0	-66.9	259	13
2023-09-16T12:00	11902	206	-56.1	-67.3	259	13
2023-09-16T12:00	11923	206	-56.1	-68.0	259	13
2023-09-16T12:00	11944	205	-56.0	-68.8	259	13
2023-09-16T12:00	11962	204	-55.7	-69.8	259	13
2023-09-16T12:00	11984	204	-55.5	-70.6	259	13
2023-09-16T12:00	12004	203	-55.5	-71.1	260	13
2023-09-16T12:00	12025	202	-55.5	-71.3	260	13
2023-09-16T12:00	12043	202	-55.5	-71.5	261	13
2023-09-16T12:00	12065	201	-55.5	-71.9	260	13
2023-09-16T12:00	12085	200	-55.1	-72.3	260	13
2023-09-16T12:00	12105	200	-54.7	-72.5	259	13
2023-09-16T12:00	12127	199	-54.5	-72.9	259	14
2023-09-16T12:00	12148	198	-54.3	-72.9	258	14
2023-09-16T12:00	12166	198	-54.2	-72.8	258	14
2023-09-16T12:00	12186	197	-54.3	-72.9	257	14
2023-09-16T12:00	12206	197	-54.3	-73.1	257	14
2023-09-16T12:00	12223	196	-54.2	-73.1	256	15
2023-09-16T12:00	12243	195	-54.2	-73.2	256	15
2023-09-16T12:00	12263	195	-54.3	-73.2	256	15
2023-09-16T12:00	12285	194	-54.3	-73.3	257	15
2023-09-16T12:00	12302	194	-54.2	-73.3	258	15
2023-09-16T12:00	12324	193	-54.1	-73.4	258	15
2023-09-16T12:00	12346	192	-54.2	-73.5	257	15
2023-09-16T12:00	12366	192	-54.4	-73.7	256	14
2023-09-16T12:00	12387	191	-54.5	-73.8	255	14
2023-09-16T12:00	12405	191	-54.4	-73.9	253	13
2023-09-16T12:00	12427	190	-54.4	-74.1	252	13
2023-09-16T12:00	12446	189	-54.4	-74.2	252	13
2023-09-16T12:00	12465	189	-54.4	-74.3	254	13
2023-09-16T12:00	12486	188	-54.4	-74.5	256	13
2023-09-16T12:00	12511	188	-54.3	-74.6	258	14
2023-09-16T12:00	12530	187	-54.2	-74.6	260	14
2023-09-16T12:00	12552	186	-54.3	-74.7	263	14
2023-09-16T12:00	12574	186	-54.3	-74.6	265	14
2023-09-16T12:00	12590	185	-54.5	-74.6	268	15
2023-09-16T12:00	12613	185	-54.7	-74.7	270	15
2023-09-16T12:00	12633	184	-54.9	-74.8	273	15
2023-09-16T12:00	12654	183	-55.0	-74.9	274	15
2023-09-16T12:00	12673	183	-54.9	-75.2	275	15
2023-09-16T12:00	12691	182	-54.7	-75.4	274	15
2023-09-16T12:00	12711	182	-54.7	-75.7	273	15
2023-09-16T12:00	12732	181	-54.4	-75.9	271	15
2023-09-16T12:00	12752	181	-54.4	-76.2	270	15
2023-09-16T12:00	12771	180	-54.4	-76.3	269	15
2023-09-16T12:00	12793	179	-54.3	-76.4	269	14
2023-09-16T12:00	12812	179	-54.2	-76.4	270	14
2023-09-16T12:00	12832	178	-54.0	-76.3	271	14
2023-09-16T12:00	12852	178	-53.9	-76.3	272	14
2023-09-16T12:00	12872	177	-53.9	-76.3	273	14
2023-09-16T12:00	12891	177	-53.9	-76.5	274	14
2023-09-16T12:00	12911	176	-53.8	-76.4	276	13
2023-09-16T12:00	12933	176	-53.8	-76.6	278	13
2023-09-16T12:00	12951	175	-53.9	-76.8	280	13
2023-09-16T12:00	12972	174	-53.9	-76.8	282	13
2023-09-16T12:00	12993	174	-53.9	-76.8	283	12
2023-09-16T12:00	13014	173	-54.0	-76.9	283	12
2023-09-16T12:00	13031	173	-54.0	-77.1	282	12
2023-09-16T12:00	13054	172	-53.9	-77.0	281	12
2023-09-16T12:00	13073	172	-53.7	-77.0	279	12
2023-09-16T12:00	13096	171	-53.7	-77.0	277	12
2023-09-16T12:00	13116	171	-53.6	-77.1	276	11
2023-09-16T12:00	13138	170	-53.5	-77.0	276	11
2023-09-16T12:00	13157	169	-53.3	-77.0	275	11
2023-09-16T12:00	13178	169	-53.4	-77.1	275	11
2023-09-16T12:00	13200	168	-53.6	-77.1	274	11
2023-09-16T12:00	13221	168	-53.8	-77.1	274	10
2023-09-16T12:00	13242	167	-53.9	-77.2	273	10
2023-09-16T12:00	13261	167	-53.9	-77.2	272	9
2023-09-16T12:00	13282	166	-54.0	-77.1	271	9
2023-09-16T12:00	13305	166	-54.1	-77.3	271	8
2023-09-16T12:00	13325	165	-54.2	-77.4	272	8
2023-09-16T12:00	13346	165	-54.2	-77.2	272	8
2023-09-16T12:00	13366	164	-54.3	-77.3	273	7
2023-09-16T12:00	13387	164	-54.4	-77.4	273	7
2023-09-16T12:00	13409	163	-54.6	-77.6	272	7
2023-09-16T12:00	13427	162	-54.7	-77.6	270	6
2023-09-16T12:00	13448	162	-54.7	-77.6	265	6
2023-09-16T12:00	13467	161	-54.8	-77.7	259	6
2023-09-16T12:00	13489	161	-54.9	-77.8	254	6
2023-09-16T12:00	13511	160	-54.9	-77.8	249	6
2023-09-16T12:00	13530	160	-54.9	-77.8	247	7
2023-09-16T12:00	13550	159	-54.9	-77.8	246	7
2023-09-16T12:00	13570	159	-54.9	-77.8	245	8
2023-09-16T12:00	13591	158	-55.0	-77.9	245	8
2023-09-16T12:00	13610	158	-55.0	-77.9	246	9
2023-09-16T12:00	13635	157	-55.0	-77.9	246	9
2023-09-16T12:00	13653	157	-55.1	-78.0	247	10
2023-09-16T12:00	13673	156	-55.2	-78.0	247	10
2023-09-16T12:00	13693	156	-55.3	-78.1	248	11
2023-09-16T12:00	13716	155	-55.5	-78.3	248	11
2023-09-16T12:00	13740	155	-55.5	-78.3	247	11
2023-09-16T12:00	13762	154	-55.6	-78.5	246	12
2023-09-16T12:00	13783	154	-55.5	-78.4	245	12
2023-09-16T12:00	13801	153	-55.7	-78.6	245	12
2023-09-16T12:00	13821	153	-55.8	-78.7	244	12
2023-09-16T12:00	13842	152	-55.8	-78.9	244	12
2023-09-16T12:00	13862	152	-55.7	-78.8	245	12
2023-09-16T12:00	13883	151	-55.7	-79.0	246	13
2023-09-16T12:00	13903	151	-55.8	-79.0	247	13
2023-09-16T12:00	13925	150	-55.8	-79.0	248	13
2023-09-16T12:00	13945	150	-56.0	-79.4	249	13
2023-09-16T12:00	13966	149	-56.0	-79.4	249	13
2023-09-16T12:00	13985	149	-55.9	-79.3	250	12
2023-09-16T12:00	14006	148	-56.0	-79.6	250	12
2023-09-16T12:00	14025	148	-55.9	-79.5	249	12
2023-09-16T12:00	14045	148	-55.9	-79.7	249	12
2023-09-16T12:00	14066	147	-56.0	-80.0	248	12
2023-09-16T12:00	14085	147	-55.8	-79.8	248	12
2023-09-16T12:00	14105	146	-55.8	-79.8	248	11
2023-09-16T12:00	14121	146	-55.8	-80.0	249	11
2023-09-16T12:00	14143	145	-55.8	-80.0	251	11
2023-09-16T12:00	14163	145	-55.9	-80.3	253	11
2023-09-16T12:00	14185	144	-55.9	-80.3	255	11
2023-09-16T12:00	14205	144	-55.9	-80.5	256	11
2023-09-16T12:00	14225	143	-56.0	-80.8	257	11
2023-09-16T12:00	14241	143	-55.7	-80.6	257	11
2023-09-16T12:00	14263	143	-55.7	-80.8	256	11
2023-09-16T12:00	14284	142	-55.7	-81.1	254	11
2023-09-16T12:00	14305	142	-55.6	-81.0	252	11
2023-09-16T12:00	14323	141	-55.4	-81.1	250	11
2023-09-16T12:00	14343	141	-55.6	-81.3	248	12
2023-09-16T12:00	14363	140	-55.8	-81.4	247	12
2023-09-16T12:00	14385	140	-55.9	-81.2	245	12
2023-09-16T12:00	14406	139	-56.0	-81.3	244	13
2023-09-16T12:00	14425	139	-56.2	-81.5	243	13
2023-09-16T12:00	14444	139	-56.4	-81.4	243	14
2023-09-16T12:00	14466	138	-56.4	-81.4	243	14
2023-09-16T12:00	14485	138	-56.5	-81.5	244	15
2023-09-16T12:00	14505	137	-56.6	-81.5	245	15
2023-09-16T12:00	14524	137	-56.7	-81.6	246	15
2023-09-16T12:00	14545	136	-56.6	-81.5	247	15
2023-09-16T12:00	14565	136	-56.4	-81.4	249	14
2023-09-16T12:00	14585	135	-56.5	-81.5	250	14
2023-09-16T12:00	14606	135	-56.5	-81.5	252	13
2023-09-16T12:00	14627	135	-56.5	-81.7	253	13
2023-09-16T12:00	14647	134	-56.5	-81.7	253	13
2023-09-16T12:00	14667	134	-56.5	-81.7	253	13
2023-09-16T12:00	14689	133	-56.5	-81.7	254	13
2023-09-16T12:00	14707	133	-56.7	-81.6	254	13
2023-09-16T12:00	14728	132	-56.8	-81.7	254	14
2023-09-16T12:00	14749	132	-57.0	-81.8	254	14
2023-09-16T12:00	14771	132	-57.1	-81.7	254	14
2023-09-16T12:00	14791	131	-57.2	-81.8	255	14
2023-09-16T12:00	14812	131	-57.1	-81.7	255	14
2023-09-16T12:00	14834	130	-57.1	-81.7	255	14
2023-09-16T12:00	14856	130	-57.2	-81.8	256	14
2023-09-16T12:00	14875	129	-57.1	-81.7	257	14
2023-09-16T12:00	14897	129	-57.2	-81.8	257	14
2023-09-16T12:00	14917	129	-57.3	-81.6	258	14
2023-09-16T12:00	14942	128	-57.5	-81.8	259	14
2023-09-16T12:00	14962	128	-57.7		259	14
2023-09-16T12:00	14985	127	-57.8	-81.8	260	15
2023-09-16T12:00	15004	127	-58.0	-82.0	261	15
2023-09-16T12:00	15026	126	-58.0	-82.0	262	15
2023-09-16T12:00	15044	126	-57.7	-81.7	263	15
2023-09-16T12:00	15064	126	-57.8	-81.8	264	15
2023-09-16T12:00	15084	125	-58.0	-82.0	266	15
2023-09-16T12:00	15106	125	-58.1	-82.0	266	14
2023-09-16T12:00	15124	124	-58.2	-82.1	267	14
2023-09-16T12:00	15144	124	-58.0	-82.2	267	13
2023-09-16T12:00	15168	124	-57.8	-82.0	266	12
2023-09-16T12:00	15188	123	-57.7	-82.2	265	11
2023-09-16T12:00	15210	123	-57.4	-81.9	263	11
2023-09-16T12:00	15231	122	-57.4	-81.9	260	10
2023-09-16T12:00	15254	122	-57.5	-82.0	257	10
2023-09-16T12:00	15275	121	-57.5	-82.0	253	10
2023-09-16T12:00	15296	121	-57.6	-82.1	250	9
2023-09-16T12:00	15320	121	-57.6	-82.1	247	10
2023-09-16T12:00	15341	120	-57.5	-82.0	245	10
2023-09-16T12:00	15363	120	-57.4	-81.9	242	10
2023-09-16T12:00	15384	119	-57.4	-81.9	240	10
2023-09-16T12:00	15407	119	-57.5	-82.0	237	10
2023-09-16T12:00	15428	119	-57.6	-82.1	235	10
2023-09-16T12:00	15447	118	-57.7	-82.2	233	10
2023-09-16T12:00	15468	118	-57.9	-82.1	231	10
2023-09-16T12:00	15492	117	-58.0	-82.2	230	10
2023-09-16T12:00	15509	117	-58.1	-82.3	230	11
2023-09-16T12:00	15530	117	-58.2	-82.1	231	11
2023-09-16T12:00	15552	116	-58.3	-82.2	233	12
2023-09-16T12:00	15573	116	-58.4	-82.3	234	13
2023-09-16T12:00	15594	116	-58.3	-82.2	235	14
2023-09-16T12:00	15613	115	-58.4	-82.3	237	14
2023-09-16T12:00	15635	115	-58.4	-82.3	238	15
2023-09-16T12:00	15653	114	-58.3	-82.4	239	15
2023-09-16T12:00	15673	114	-58.3	-82.4	241	15
2023-09-16T12:00	15695	114	-58.2	-82.3	241	15
2023-09-16T12:00	15713	113	-58.2	-82.3	242	14
2023-09-16T12:00	15733	113	-58.3	-82.4	242	14
2023-09-16T12:00	15756	113	-58.3	-82.6	241	13
2023-09-16T12:00	15774	112	-58.2	-82.6	240	13
2023-09-16T12:00	15794	112	-58.2	-82.8	240	12
2023-09-16T12:00	15814	112	-58.1	-82.7	239	12
2023-09-16T12:00	15835	111	-58.0	-82.9	238	12
2023-09-16T12:00	15855	111	-57.9	-82.8	238	12
2023-09-16T12:00	15876	110	-57.9	-82.8	237	11
2023-09-16T12:00	15897	110	-58.0	-82.9	236	11
2023-09-16T12:00	15917	110	-58.1	-83.0	235	11
2023-09-16T12:00	15938	109	-58.1	-83.0	235	11
2023-09-16T12:00	15960	109	-58.0	-82.9	236	11
2023-09-16T12:00	15978	109	-58.1	-83.0	236	11
2023-09-16T12:00	16003	108	-58.2	-83.3	237	11
2023-09-16T12:00	16021	108	-58.3		238	12
2023-09-16T12:00	16039	108	-58.3		239	12
2023-09-16T12:00	16062	107	-58.2	-83.3	240	12
2023-09-16T12:00	16087	107	-58.0	-83.4	240	13
2023-09-16T12:00	16105	106	-58.0	-83.4	241	13
2023-09-16T12:00	16127	106	-58.0	-83.4	242	13
2023-09-16T12:00	16151	106	-58.1	-83.5	243	13
2023-09-16T12:00	16172	105	-58.2	-83.3	245	13
2023-09-16T12:00	16193	105	-58.3		247	12
2023-09-16T12:00	16218	105	-58.4	-83.4	250	12
2023-09-16T12:00	16239	104	-58.5	-83.3	252	12
2023-09-16T12:00	16260	104	-58.6	-83.3	253	12
2023-09-16T12:00	16283	104	-58.6	-83.3	254	12
2023-09-16T12:00	16305	103	-58.6	-83.6	254	12
2023-09-16T12:00	16328	103	-58.6	-83.6	253	12
2023-09-16T12:00	16350	102	-58.5	-83.5	251	11
2023-09-16T12:00	16374	102	-58.5	-83.5	250	11
2023-09-16T12:00	16396	102	-58.5	-83.8	249	11
2023-09-16T12:00	16417	101	-58.5	-83.8	249	11
2023-09-16T12:00	16439	101	-58.6	-83.9	251	11
2023-09-16T12:00	16460	101	-58.5	-83.8	253	11
2023-09-16T12:00	16485	100	-58.4	-83.7	254	11
2023-09-16T12:00	16507	100	-58.3	-83.6	256	12
2023-09-16T12:00	16531	100	-58.4	-83.7	257	12
2023-09-16T12:00	16553	99	-58.4	-83.7	257	11
2023-09-16T12:00	16576	99	-58.4	-83.7	256	11
2023-09-16T12:00	16601	98	-58.4	-83.7	255	11
2023-09-16T12:00	16619	98	-58.6	-83.9	253	11
2023-09-16T12:00	16644	98	-58.5	-83.8	251	11
2023-09-16T12:00	16662	97	-58.6	-83.9	249	10
2023-09-16T12:00	16684	97	-58.5	-84.0	247	10
2023-09-16T12:00	16700	97	-58.2	-83.8	245	10
2023-09-16T12:00	16725	96	-58.2	-83.8	242	11
2023-09-16T12:00	16747	96	-58.3	-83.9	240	11
2023-09-16T12:00	16769	96	-58.3	-83.9	237	11
2023-09-16T12:00	16794	95	-58.3	-83.9	234	11
2023-09-16T12:00	16813	95	-58.3	-83.9	231	11
2023-09-16T12:00	16830	95	-58.4	-84.0	229	11
2023-09-16T12:00	16853	95	-58.4	-84.0	227	11
2023-09-16T12:00	16875	94	-58.5	-84.0	226	11
2023-09-16T12:00	16896	94	-58.6	-84.1	226	12
2023-09-16T12:00	16919	94	-58.5	-84.0	228	12
2023-09-16T12:00	16940	93	-58.6	-84.1	231	12
2023-09-16T12:00	16961	93	-58.6	-84.4	234	12
2023-09-16T12:00	16983	93	-58.5	-84.3	238	13
2023-09-16T12:00	17004	92	-58.5	-84.3	241	13
2023-09-16T12:00	17024	92	-58.4	-84.3	244	13
2023-09-16T12:00	17044	92	-58.4	-84.3	247	14
2023-09-16T12:00	17070	91	-58.5	-84.3	249	14
2023-09-16T12:00	17089	91	-58.6	-84.4	251	14
2023-09-16T12:00	17110	91	-58.6	-84.1	252	13
2023-09-16T12:00	17133	90	-58.8	-84.3	253	13
2023-09-16T12:00	17152	90	-58.8	-84.3	253	13
2023-09-16T12:00	17170	90	-58.8	-84.3	253	13
2023-09-16T12:00	17196	90	-58.9	-84.6	252	13
2023-09-16T12:00	17215	89	-58.8	-84.6	252	13
2023-09-16T12:00	17239	89	-58.8	-84.6	252	13
2023-09-16T12:00	17261	89	-58.7	-84.5	252	13
2023-09-16T12:00	17279	88	-58.7	-84.5	253	13
2023-09-16T12:00	17300	88	-58.7	-84.5	255	13
2023-09-16T12:00	17322	88	-58.7	-84.8	257	13
2023-09-16T12:00	17348	87	-58.7	-84.8	258	13
2023-09-16T12:00	17367	87	-58.8	-84.9	260	12
2023-09-16T12:00	17390	87	-58.7	-84.8	261	12
2023-09-16T12:00	17409	87	-58.6	-84.7	262	12
2023-09-16T12:00	17431	86	-58.5	-84.6	264	12
2023-09-16T12:00	17454	86	-58.5	-84.6	265	12
2023-09-16T12:00	17476	86	-58.5	-84.6	266	12
2023-09-16T12:00	17499	85	-58.5	-84.9	267	12
2023-09-16T12:00	17522	85	-58.5	-84.9	269	11
2023-09-16T12:00	17546	85	-58.5	-84.9	270	11
2023-09-16T12:00	17566	84	-58.4	-84.9	272	11
2023-09-16T12:00	17589	84	-58.4	-84.9	272	10
2023-09-16T12:00	17609	84	-58.3	-84.8	271	10
2023-09-16T12:00	17629	84	-58.2	-84.7	270	10
2023-09-16T12:00	17652	83	-58.4	-84.9	268	11
2023-09-16T12:00	17672	83	-58.3	-84.8	265	11
2023-09-16T12:00	17696	83	-58.3	-84.8	263	11
2023-09-16T12:00	17721	82	-58.4	-84.9	260	11
2023-09-16T12:00	17741	82	-58.4	-84.9	258	11
2023-09-16T12:00	17767	82	-58.4	-84.9	257	12
2023-09-16T12:00	17786	82	-58.4	-84.9	257	12
2023-09-16T12:00	17808	81	-58.3	-84.8	258	12
2023-09-16T12:00	17829	81	-58.4	-84.9	259	12
2023-09-16T12:00	17852	81	-58.4	-84.9	261	12
2023-09-16T12:00	17875	80	-58.4	-84.9	263	11
2023-09-16T12:00	17897	80	-58.3	-85.1	265	11
2023-09-16T12:00	17922	80	-58.2	-85.0	266	11
2023-09-16T12:00	17945	79	-58.1	-85.0	267	10
2023-09-16T12:00	17967	79	-58.1	-85.0	266	10
2023-09-16T12:00	17988	79	-58.1	-85.0	264	9
2023-09-16T12:00	18012	79	-58.0	-85.2	262	9
2023-09-16T12:00	18034	78	-57.8	-85.1	261	9
2023-09-16T12:00	18060	78	-57.6	-84.9	260	9
2023-09-16T12:00	18082	78	-57.5	-84.9	259	9
2023-09-16T12:00	18104	77	-57.4	-84.8	258	9
2023-09-16T12:00	18125	77	-57.2	-85.0	257	9
2023-09-16T12:00	18146	77	-57.2	-85.0	255	9
2023-09-16T12:00	18172	77	-57.2	-84.6	254	9
2023-09-16T12:00	18192	76	-57.3	-84.7	252	9
2023-09-16T12:00	18213	76	-57.2	-84.6	250	9
2023-09-16T12:00	18242	76	-57.1	-84.6	247	8
2023-09-16T12:00	18265	76	-57.1	-84.9	244	8
2023-09-16T12:00	18283	75	-57.0	-84.8	242	8
2023-09-16T12:00	18307	75	-57.0	-84.8	241	9
2023-09-16T12:00	18328	75	-56.9	-84.8	241	9
2023-09-16T12:00	18349	75	-56.8	-84.7	242	10
2023-09-16T12:00	18373	74	-56.8	-84.7	242	10
2023-09-16T12:00	18394	74	-57.0	-84.8	243	10
2023-09-16T12:00	18417	74	-57.0	-84.8	243	11
2023-09-16T12:00	18440	73	-56.9	-84.8	242	11
2023-09-16T12:00	18462	73	-56.9	-84.8	241	11
2023-09-16T12:00	18481	73	-56.9	-84.8	240	12
2023-09-16T12:00	18503	73	-57.0	-84.8	239	12
2023-09-16T12:00	18529	72	-57.0	-84.5	239	13
2023-09-16T12:00	18551	72	-57.0	-84.5	238	13
2023-09-16T12:00	18575	72	-57.0	-84.5	238	13
2023-09-16T12:00	18597	72	-57.1	-84.6	239	13
2023-09-16T12:00	18616	71	-57.2	-84.6	240	13
2023-09-16T12:00	18644	71	-57.2	-84.6	241	13
2023-09-16T12:00	18666	71	-57.3	-84.7	243	13
2023-09-16T12:00	18687	71	-57.3	-84.7	246	12
2023-09-16T12:00	18707	70	-57.3	-84.7	248	12
2023-09-16T12:00	18733	70	-57.4	-84.8	251	12
2023-09-16T12:00	18756	70	-57.5	-84.9	253	12
2023-09-16T12:00	18777	70	-57.6	-84.9	256	12
2023-09-16T12:00	18800	69	-57.7	-85.0	257	11
2023-09-16T12:00	18821	69	-57.7	-85.0	258	11
2023-09-16T12:00	18849	69	-57.6	-84.9	259	11
2023-09-16T12:00	18869	69	-57.6	-84.9	258	10
2023-09-16T12:00	18893	68	-57.6	-84.9	257	10
2023-09-16T12:00	18912	68	-57.7	-85.0	255	9
2023-09-16T12:00	18937	68	-57.7	-85.0	252	9
2023-09-16T12:00	18961	68	-57.7	-85.0	250	9
2023-09-16T12:00	18981	67	-57.7	-85.0	249	9
2023-09-16T12:00	19008	67	-57.7	-85.0	249	9
2023-09-16T12:00	19033	67	-57.8	-85.1	248	9
2023-09-16T12:00	19051	67	-57.8	-85.1	248	9
2023-09-16T12:00	19075	66	-57.8	-85.1	247	9
2023-09-16T12:00	19100	66	-57.7	-85.0	247	9
2023-09-16T12:00	19118	66	-57.6	-85.3	246	9
2023-09-16T12:00	19142	66	-57.6	-85.3	246	10
2023-09-16T12:00	19164	66	-57.4	-85.2	247	10
2023-09-16T12:00	19189	65	-57.3	-85.1	248	11
2023-09-16T12:00	19211	65	-57.2	-85.0	249	11
2023-09-16T12:00	19235	65	-57.1	-84.9	250	12
2023-09-16T12:00	19255	65	-57.1	-84.9	251	12
2023-09-16T12:00	19280	64	-57.2	-85.0	252	12
2023-09-16T12:00	19302	64	-57.2	-85.0	252	12
2023-09-16T12:00	19325	64	-57.1	-84.9	253	12
2023-09-16T12:00	19347	64	-57.1	-84.9	253	11
2023-09-16T12:00	19373	63	-57.1	-84.9	254	11
2023-09-16T12:00	19396	63	-57.0	-84.8	256	11
2023-09-16T12:00	19417	63	-57.0	-84.8	258	10
2023-09-16T12:00	19445	63	-56.9	-84.8	259	10
2023-09-16T12:00	19466	62	-56.9	-84.8	260	10
2023-09-16T12:00	19489	62	-57.0	-84.8	259	9
2023-09-16T12:00	19515	62	-57.0	-84.8	258	9
2023-09-16T12:00	19535	62	-57.0	-84.8	257	9
2023-09-16T12:00	19557	62	-57.0	-84.8	256	9
2023-09-16T12:00	19579	61	-57.0	-84.8	256	9
2023-09-16T12:00	19603	61	-57.0	-84.8	255	9
2023-09-16T12:00	19620	61	-57.0	-84.8	255	10
2023-09-16T12:00	19651	61	-57.0	-84.8	254	10
2023-09-16T12:00	19672	60	-57.1	-84.9	253	10
2023-09-16T12:00	19695	60	-57.3	-85.1	253	10
2023-09-16T12:00	19720	60	-57.3	-85.1	252	10
2023-09-16T12:00	19743	60	-57.4	-85.2	252	10
2023-09-16T12:00	19767	60	-57.4	-85.2	252	10
2023-09-16T12:00	19792	59	-57.3	-85.1	253	11
2023-09-16T12:00	19813	59	-57.2	-85.0	254	11
2023-09-16T12:00	19839	59	-57.1	-84.9	255	11
2023-09-16T12:00	19860	59	-57.0	-85.2	256	10
2023-09-16T12:00	19887	58	-56.8	-85.1	257	10
2023-09-16T12:00	19905	58	-56.8	-85.1	257	10
2023-09-16T12:00	19931	58	-56.7	-85.0	255	10
2023-09-16T12:00	19958	58	-56.6	-84.9	253	10
2023-09-16T12:00	19983	58	-56.4	-84.8	250	10
2023-09-16T12:00	20004	57	-56.3	-84.7	247	10
2023-09-16T12:00	20028	57	-56.2	-84.6	244	10
2023-09-16T12:00	20046	57	-56.2	-84.6	241	11
2023-09-16T12:00	20069	57	-56.3	-84.7	240	11
2023-09-16T12:00	20094	57	-56.3	-84.7	240	12
2023-09-16T12:00	20119	56	-56.4	-84.8	241	12
2023-09-16T12:00	20136	56	-56.5	-84.9	243	12
2023-09-16T12:00	20160	56	-56.4	-84.8	246	13
2023-09-16T12:00	20184	56	-56.3	-84.7	249	13
2023-09-16T12:00	20209	56	-56.3	-84.7	253	13
2023-09-16T12:00	20233	55	-56.3	-84.7	257	13
2023-09-16T12:00	20256	55	-56.4	-84.4	261	13
2023-09-16T12:00	20278	55	-56.5	-84.5	264	13
2023-09-16T12:00	20297	55	-56.6	-84.5	267	13
2023-09-16T12:00	20324	55	-56.6	-84.5	269	13
2023-09-16T12:00	20344	54	-56.6	-84.5	272	13
2023-09-16T12:00	20366	54	-56.6	-84.5	274	13
2023-09-16T12:00	20392	54	-56.7	-84.6	276	12
2023-09-16T12:00	20414	54	-56.7	-85.0	278	12
2023-09-16T12:00	20437	54	-56.7	-85.0	280	11
2023-09-16T12:00	20461	53	-56.6	-84.9	282	11
2023-09-16T12:00	20482	53	-56.5	-84.9	284	11
2023-09-16T12:00	20505	53	-56.3	-84.7	287	10
2023-09-16T12:00	20532	53	-56.2	-84.6	290	10
2023-09-16T12:00	20554	53	-56.1	-84.6	294	9
2023-09-16T12:00	20578	52	-56.0	-84.5	297	9
2023-09-16T12:00	20602	52	-56.1	-84.6	301	9
2023-09-16T12:00	20625	52	-56.2	-84.6	303	8
2023-09-16T12:00	20649	52	-56.2	-84.6	305	8
2023-09-16T12:00	20673	52	-56.3	-84.3	306	7
2023-09-16T12:00	20698	51	-56.4	-84.4	306	6
2023-09-16T12:00	20716	51	-56.5	-84.5	305	6
2023-09-16T12:00	20746	51	-56.5	-84.5	304	5
2023-09-16T12:00	20768	51	-56.6	-84.5	302	5
2023-09-16T12:00	20793	51	-56.7	-84.6	301	5
2023-09-16T12:00	20814	51	-56.8	-84.7	299	4
2023-09-16T12:00	20840	50	-57.0	-84.8	296	4
2023-09-16T12:00	20865	50	-57.1	-84.9	294	5
2023-09-16T12:00	20888	50	-57.2	-85.0	292	5
2023-09-16T12:00	20910	50	-57.3	-85.1	290	5
2023-09-16T12:00	20940	50	-57.4	-85.2	289	6
2023-09-16T12:00	20962	49	-57.3	-84.7	288	6
2023-09-16T12:00	20987	49	-57.4	-84.8	288	7
2023-09-16T12:00	21007	49	-57.5	-84.9	287	7
2023-09-16T12:00	21035	49	-57.6	-85.3	285	7
2023-09-16T12:00	21055	49	-57.6	-85.3	283	7
2023-09-16T12:00	21079	48	-57.5	-85.2	280	6
2023-09-16T12:00	21107	48	-57.4	-85.2	277	6
2023-09-16T12:00	21125	48	-57.3	-85.1	273	5
2023-09-16T12:00	21156	48	-57.4	-85.2	270	5
2023-09-16T12:00	21179	48	-57.5	-85.2	269	5
2023-09-16T12:00	21202	48	-57.5	-85.2	268	5
2023-09-16T12:00	21226	47	-57.5	-85.2	268	6
2023-09-16T12:00	21248	47	-57.5	-85.2	269	6
2023-09-16T12:00	21278	47	-57.6	-85.3	271	6
2023-09-16T12:00	21293	47	-57.5	-85.2	274	7
2023-09-16T12:00	21318	47	-57.5	-85.2	277	7
2023-09-16T12:00	21344	46	-57.5	-85.2	279	7
2023-09-16T12:00	21369	46	-57.4	-85.2	281	8
2023-09-16T12:00	21392	46	-57.3	-85.5	281	8
2023-09-16T12:00	21415	46	-57.0	-85.2	281	8
2023-09-16T12:00	21436	46	-56.8	-85.1	281	7
2023-09-16T12:00	21468	46	-56.9	-85.2	281	7
2023-09-16T12:00	21491	45	-57.0	-84.8	280	6
2023-09-16T12:00	21512	45	-57.1	-84.9	277	6
2023-09-16T12:00	21543	45	-57.1	-84.9	274	5
2023-09-16T12:00	21566	45	-57.3	-85.1	270	4
2023-09-16T12:00	21593	45	-57.4	-85.2	267	4
2023-09-16T12:00	21612	45	-57.3	-85.1	266	4
2023-09-16T12:00	21633	44	-57.2	-85.0	268	3
2023-09-16T12:00	21660	44	-57.1	-85.3	272	4
2023-09-16T12:00	21683	44	-56.9	-85.2	274	4
2023-09-16T12:00	21710	44	-56.9	-85.2	274	4
2023-09-16T12:00	21735	44	-56.8	-85.1	272	4
2023-09-16T12:00	21759	44	-56.8	-85.1	267	4
2023-09-16T12:00	21780	43	-56.8	-85.1	262	4
2023-09-16T12:00	21811	43	-57.0	-85.2	256	5
2023-09-16T12:00	21835	43	-56.8	-85.1	252	5
2023-09-16T12:00	21857	43	-56.5	-84.9	248	5
2023-09-16T12:00	21885	43	-56.3	-84.7	246	5
2023-09-16T12:00	21907	42	-56.2	-84.6	245	5
2023-09-16T12:00	21930	42	-56.2	-85.1	247	5
2023-09-16T12:00	21958	42	-56.1	-85.0	251	5
2023-09-16T12:00	21984	42	-56.0	-84.5	256	4
2023-09-16T12:00	22007	42	-56.0	-84.5	260	4
2023-09-16T12:00	22030	42	-56.1	-84.6	263	4
2023-09-16T12:00	22058	42	-56.1	-84.6	263	3
2023-09-16T12:00	22086	41	-56.1	-84.6	260	3
2023-09-16T12:00	22104	41	-56.1	-84.6	253	3
2023-09-16T12:00	22133	41	-56.0	-84.5	247	4
2023-09-16T12:00	22157	41	-56.1	-84.6	242	4
2023-09-16T12:00	22184	41	-56.2	-84.6	239	5
2023-09-16T12:00	22205	41	-56.2	-84.6	238	5
2023-09-16T12:00	22229	40	-56.3	-84.7	240	6
2023-09-16T12:00	22255	40	-56.6	-84.9	243	6
2023-09-16T12:00	22280	40	-56.5	-84.9	248	6
2023-09-16T12:00	22307	40	-56.2	-84.6	255	6
2023-09-16T12:00	22335	40	-56.1	-84.6	263	7
2023-09-16T12:00	22355	40	-56.0	-84.9	270	7
2023-09-16T12:00	22380	39	-56.0	-84.9	276	7
2023-09-16T12:00	22398	39	-56.0	-84.9	281	7
2023-09-16T12:00	22436	39	-55.7	-84.7	284	7
2023-09-16T12:00	22455	39	-55.4	-84.5	287	7
2023-09-16T12:00	22482	39	-55.2	-84.3	287	6
2023-09-16T12:00	22508	39	-55.1	-84.2	287	6
2023-09-16T12:00	22529	39	-55.2	-84.3	284	5
2023-09-16T12:00	22555	38	-55.2	-84.3	279	4
2023-09-16T12:00	22583	38	-55.4	-84.5	272	4
2023-09-16T12:00	22606	38	-55.6	-84.6	263	4
2023-09-16T12:00	22631	38	-55.6	-84.2	254	3
2023-09-16T12:00	22662	38	-55.6	-84.2	244	3
2023-09-16T12:00	22684	38	-55.7	-84.3	237	4
2023-09-16T12:00	22714	37	-55.8	-84.3	233	4
2023-09-16T12:00	22729	37	-56.0	-84.5	231	5
2023-09-16T12:00	22760	37	-56.1	-84.6	231	5
2023-09-16T12:00	22786	37	-56.0	-84.5	232	6
2023-09-16T12:00	22806	37	-55.9	-84.4	234	6
2023-09-16T12:00	22838	37	-55.9	-84.4	238	6
2023-09-16T12:00	22863	37	-55.9	-84.4	243	6
2023-09-16T12:00	22890	36	-56.0	-84.5	248	7
2023-09-16T12:00	22909	36	-56.1	-84.6	252	7
2023-09-16T12:00	22937	36	-56.2	-84.6	256	7
2023-09-16T12:00	22960	36	-56.2	-84.6	258	7
2023-09-16T12:00	22986	36	-56.1	-84.6	259	7
2023-09-16T12:00	23012	36	-55.9	-84.8	259	7
2023-09-16T12:00	23034	36	-55.7	-84.7	259	7
2023-09-16T12:00	23061	35	-55.6	-84.6	259	7
2023-09-16T12:00	23089	35	-55.6	-84.6	260	7
2023-09-16T12:00	23109	35	-55.5	-84.5	261	7
2023-09-16T12:00	23140	35	-55.5	-84.5	263	7
2023-09-16T12:00	23158	35	-55.4	-84.5	265	7
2023-09-16T12:00	23189	35	-55.3	-84.4	267	7
2023-09-16T12:00	23214	35	-55.1	-84.2	269	7
2023-09-16T12:00	23234	35	-55.0	-84.2	272	7
2023-09-16T12:00	23261	34	-55.0	-84.2	275	7
2023-09-16T12:00	23285	34	-54.9	-84.6	279	7
2023-09-16T12:00	23314	34	-54.8	-84.5	283	7
2023-09-16T12:00	23334	34	-54.7	-84.4	288	7
2023-09-16T12:00	23356	34	-54.7	-84.4	293	6
2023-09-16T12:00	23386	34	-54.6	-84.3	296	6
2023-09-16T12:00	23410	34	-54.6	-84.3	299	6
2023-09-16T12:00	23439	33	-54.7	-84.4	300	6
2023-09-16T12:00	23460	33	-54.6	-84.3	299	5
2023-09-16T12:00	23485	33	-54.5	-84.3	296	5
2023-09-16T12:00	23505	33	-54.4	-84.2	290	4
2023-09-16T12:00	23532	33	-54.3	-84.1	282	4
2023-09-16T12:00	23555	33	-54.2	-84.0	273	4
2023-09-16T12:00	23583	33	-54.2	-84.0	265	4
2023-09-16T12:00	23609	33	-54.4	-84.2	259	4
2023-09-16T12:00	23628	32	-54.5	-84.3	255	4
2023-09-16T12:00	23656	32	-54.4	-83.7	252	4
2023-09-16T12:00	23676	32	-54.5	-83.8	249	4
2023-09-16T12:00	23705	32	-54.6	-83.9	246	5
2023-09-16T12:00	23737	32	-54.6	-83.9	243	5
2023-09-16T12:00	23759	32	-54.5	-83.8	242	6
2023-09-16T12:00	23782	32	-54.5	-83.8	243	6
2023-09-16T12:00	23811	32	-54.6	-83.9	244	7
2023-09-16T12:00	23832	31	-54.6	-83.9	246	7
2023-09-16T12:00	23863	31	-54.5	-83.8	247	8
2023-09-16T12:00	23890	31	-54.5	-83.8	248	8
2023-09-16T12:00	23909	31	-54.7	-83.9	250	8
2023-09-16T12:00	23935	31	-55.0	-84.2	252	9
2023-09-16T12:00	23963	31	-55.1	-84.2	254	9
2023-09-16T12:00	23985	31	-55.2	-84.3	256	9
2023-09-16T12:00	24012	31	-55.1	-84.2	259	9
2023-09-16T12:00	24038	30	-54.9	-84.1	261	9
2023-09-16T12:00	24061	30	-54.8	-84.0	263	10
2023-09-16T12:00	24086	30	-54.9	-84.1	265	10
2023-09-16T12:00	24110	30	-55.1	-84.2	266	10
2023-09-16T12:00	24132	30	-55.1	-84.2	268	11
2023-09-16T12:00	24157	30	-54.9	-84.1	270	11
2023-09-16T12:00	24189	30	-54.7	-84.4	271	11
2023-09-16T12:00	24218	30	-54.6	-84.3	273	12
2023-09-16T12:00	24238	29	-54.7	-84.4	274	12
2023-09-16T12:00	24267	29	-54.7	-84.4	276	12
2023-09-16T12:00	24284	29	-54.6	-83.9	277	12
2023-09-16T12:00	24318	29	-54.7	-83.9	278	12
2023-09-16T12:00	24340	29	-54.7	-83.9	279	11
2023-09-16T12:00	24358	29	-54.7	-84.4	280	10
2023-09-16T12:00	24387	29	-54.6	-84.3	282	9
2023-09-16T12:00	24417	29	-54.6	-84.3	284	9
2023-09-16T12:00	24435	29	-54.4	-84.2	288	8
2023-09-16T12:00	24460	28	-54.2	-84.0	292	8
2023-09-16T12:00	24492	28	-54.0	-83.9	296	7
2023-09-16T12:00	24511	28	-53.9	-83.8	299	7
2023-09-16T12:00	24545	28	-53.8	-83.7	301	7
2023-09-16T12:00	24561	28	-53.8	-83.7	304	7
2023-09-16T12:00	24594	28	-53.8	-83.7	306	7
2023-09-16T12:00	24615	28	-53.8	-83.7	308	7
2023-09-16T12:00	24647	28	-53.8	-83.7	310	7
2023-09-16T12:00	24663	28	-53.8	-83.7	310	6
2023-09-16T12:00	24696	27	-53.7	-83.7	308	6
2023-09-16T12:00	24731	27	-53.7	-83.7	304	5
2023-09-16T12:00	24749	27	-53.7	-83.7	298	5
2023-09-16T12:00	24770	27	-53.7	-83.7	291	4
2023-09-16T12:00	24799	27	-53.8	-83.7	284	4
2023-09-16T12:00	24829	27	-53.8	-83.7	278	5
2023-09-16T12:00	24856	27	-53.9	-83.8	276	5
2023-09-16T12:00	24876	27	-53.9	-83.8	275	5
2023-09-16T12:00	24910	27	-53.8	-83.7	277	6
2023-09-16T12:00	24934	26	-53.6	-83.6	280	6
2023-09-16T12:00	24961	26	-53.5	-83.5	285	6
2023-09-16T12:00	24989	26	-53.4	-83.4	289	6
2023-09-16T12:00	25018	26	-53.3		294	6
2023-09-16T12:00	25046	26	-53.3		298	6
2023-09-16T12:00	25068	26	-53.4	-83.4	300	6
2023-09-16T12:00	25095	26	-53.5	-83.5	301	6
2023-09-16T12:00	25126	26	-53.6	-83.6	300	6
2023-09-16T12:00	25154	26	-53.6	-83.6	297	6
2023-09-16T12:00	25178	25	-53.7	-83.7	293	6
2023-09-16T12:00	25207	25	-53.7	-83.7	287	6
2023-09-16T12:00	25229	25	-53.7	-83.7	280	6
2023-09-16T12:00	25260	25	-53.7	-83.7	273	6
2023-09-16T12:00	25288	25	-53.5	-84.0	267	6
2023-09-16T12:00	25312	25	-53.3	-83.9	263	7
2023-09-16T12:00	25337	25	-53.1	-83.7	262	8
2023-09-16T12:00	25364	25	-52.7	-83.4	264	8
2023-09-16T12:00	25390	25	-52.5	-83.8	267	8
2023-09-16T12:00	25420	25	-52.3	-83.7	270	9
2023-09-16T12:00	25449	24	-52.0	-83.5	274	9
2023-09-16T12:00	25478	24	-51.9	-83.4	278	9
2023-09-16T12:00	25501	24	-51.9	-82.8	281	9
2023-09-16T12:00	25518	24	-52.0	-82.9	283	9
2023-09-16T12:00	25551	24	-52.0	-82.9	284	9
2023-09-16T12:00	25570	24	-51.9	-82.8	286	9
2023-09-16T12:00	25596	24	-52.0	-82.9	287	9
2023-09-16T12:00	25630	24	-52.0	-82.9	288	9
2023-09-16T12:00	25659	24	-52.0	-82.9	290	8
2023-09-16T12:00	25689	24	-52.0	-82.9	290	8
2023-09-16T12:00	25713	23	-52.1	-83.0	290	7
2023-09-16T12:00	25738	23	-52.2	-83.1	287	6
2023-09-16T12:00	25767	23	-52.3	-83.1	282	6
2023-09-16T12:00	25786	23	-52.3	-83.1	276	6
2023-09-16T12:00	25821	23	-52.3	-83.1	270	5
2023-09-16T12:00	25850	23	-52.2	-83.1	266	5
2023-09-16T12:00	25880	23	-52.1	-83.0	265	5
2023-09-16T12:00	25898	23	-52.0	-82.9	266	5
2023-09-16T12:00	25922	23	-51.9	-82.8	268	5
2023-09-16T12:00	25954	23	-51.9	-82.8	270	6
2023-09-16T12:00	25984	23	-51.8	-82.8	272	6
2023-09-16T12:00	26010	22	-51.8	-82.8	272	6
2023-09-16T12:00	26026	22	-51.8	-82.8	273	6
2023-09-16T12:00	26061	22	-51.7	-82.7	274	6
2023-09-16T12:00	26094	22	-51.6	-82.6	278	5
2023-09-16T12:00	26113	22	-51.6	-83.2	283	5
2023-09-16T12:00	26133	22	-51.4	-83.0	290	5
2023-09-16T12:00	26157	22	-51.3	-82.9	297	5
2023-09-16T12:00	26207	22	-51.1	-82.8	304	5
2023-09-16T12:00	26236	22	-51.0	-82.7	310	5
2023-09-16T12:00	26255	22	-50.9	-82.7	315	4
2023-09-16T12:00	26285	21	-50.9	-82.7	318	4
2023-09-16T12:00	26308	21	-50.8	-82.6	320	4
2023-09-16T12:00	26338	21	-50.8	-82.6	319	4
2023-09-16T12:00	26353	21	-50.9	-82.7	316	4
2023-09-16T12:00	26394	21	-51.0	-82.7	311	4
2023-09-16T12:00	26426	21	-51.1	-82.2	305	4
2023-09-16T12:00	26445	21	-51.2	-82.3	300	4
2023-09-16T12:00	26479	21	-51.2	-82.3	296	4
2023-09-16T12:00	26508	21	-51.2	-82.3	293	5
2023-09-16T12:00	26534	21	-51.2	-82.3	290	5
2023-09-16T12:00	26566	21	-51.2	-82.3	286	5
2023-09-16T12:00	26585	21	-51.2	-82.3	282	5
2023-09-16T12:00	26621	20	-51.3	-82.4	279	5
2023-09-16T12:00	26645	20	-51.3	-82.4	277	6
2023-09-16T12:00	26673	20	-51.3	-82.4	277	6
2023-09-16T12:00	26711	20	-51.4	-82.5	277	6
2023-09-16T12:00	26734	20	-51.5	-82.5	279	6
2023-09-16T12:00	26768	20	-51.6	-82.6	280	6
2023-09-16T12:00	26786	20	-51.7	-82.7	280	6
2023-09-16T12:00	26809	20	-51.7	-82.7	280	5
2023-09-16T12:00	26843	20	-51.8	-82.8	278	5
2023-09-16T12:00	26875	20	-51.8	-82.8	274	4
2023-09-16T12:00	26898	20	-51.9	-82.8	270	4
2023-09-16T12:00	26920	19	-51.9	-82.8	264	4
2023-09-16T12:00	26941	19	-51.9	-82.8	260	4
2023-09-16T12:00	26984	19	-51.9	-82.8	258	4
2023-09-16T12:00	26989	19	-51.8	-82.8	258	5
2023-09-16T12:00	27023	19	-51.6	-83.2	258	5
2023-09-16T12:00	27057	19	-51.4	-83.0	257	6
2023-09-16T12:00	27079	19	-51.3	-82.9	256	6
2023-09-16T12:00	27098	19	-51.3	-82.9	252	7
2023-09-16T12:00	27136	19	-51.1	-82.8	248	7
2023-09-16T12:00	27154	19	-50.8	-82.6	243	7
2023-09-16T12:00	27190	19	-50.6	-82.4	239	7
2023-09-16T12:00	27218	19	-50.5		234	7
2023-09-16T12:00	27244	19	-50.5		231	8
2023-09-16T12:00	27267	18	-50.5		228	8
2023-09-16T12:00	27295	18	-50.3	-82.2	228	8
2023-09-16T12:00	27321	18	-50.1	-82.1	230	8
2023-09-16T12:00	27341	18	-50.0	-82.0	233	9
2023-09-16T12:00	27376	18	-50.0	-82.0	238	9
2023-09-16T12:00	27400	18	-50.0	-82.0	242	10
2023-09-16T12:00	27433	18	-49.8	-81.8	247	10
2023-09-16T12:00	27459	18	-49.7	-81.8	251	10
2023-09-16T12:00	27489	18	-49.7	-81.8	255	10
2023-09-16T12:00	27508	18	-49.8	-81.8	259	10
2023-09-16T12:00	27554	18	-49.7	-81.8	263	9
2023-09-16T12:00	27558	18	-49.7	-81.8	266	9
2023-09-16T12:00	27589	18	-49.8	-81.8	268	9
2023-09-16T12:00	27615	18	-49.8	-81.8	270	9
2023-09-16T12:00	27638	17	-49.7	-81.8	270	9
2023-09-16T12:00	27679	17	-49.6	-82.3	269	9
2023-09-16T12:00	27708	17	-49.6	-82.3	266	9
2023-09-16T12:00	27723	17	-49.4	-82.2	263	9
2023-09-16T12:00	27765	17	-49.3	-82.1	260	9
2023-09-16T12:00	27787	17	-49.2	-82.0	255	9
2023-09-16T12:00	27824	17	-49.0	-81.9	251	9
2023-09-16T12:00	27837	17	-48.9	-81.8	246	9
2023-09-16T12:00	27859	17	-48.7	-81.7	243	10
2023-09-16T12:00	27898	17	-48.7	-81.7	242	10
2023-09-16T12:00	27920	17	-48.7	-81.7	242	10
2023-09-16T12:00	27943	17	-48.6	-81.6	244	10
2023-09-16T12:00	27973	17	-48.4	-81.4	246	11
2023-09-16T12:00	27993	17	-48.2	-81.3	249	11
2023-09-16T12:00	28037	16	-47.8	-81.7	252	12
2023-09-16T12:00	28069	16	-47.7	-81.6	254	12
2023-09-16T12:00	28086	16	-47.6	-81.6	255	12
2023-09-16T12:00	28117	16	-47.5	-81.5	255	13
2023-09-16T12:00	28151	16	-47.4	-81.4	255	13
2023-09-16T12:00	28167	16	-47.2	-81.3	255	13
2023-09-16T12:00	28185	16	-47.0	-81.1	255	13
2023-09-16T12:00	28210	16	-46.9	-81.1	254	13
2023-09-16T12:00	28244	16	-46.8	-81.0	253	13
2023-09-16T12:00	28277	16	-46.7	-80.9	253	13
2023-09-16T12:00	28298	16	-46.7	-80.9	252	13
2023-09-16T12:00	28321	16	-46.7	-80.9	253	13
2023-09-16T12:00	28345	16	-46.7	-80.9	254	14
2023-09-16T12:00	28375	16	-46.5	-80.8	256	14
2023-09-16T12:00	28393	16	-46.2	-80.6	258	14
2023-09-16T12:00	28419	16	-46.1	-80.5	261	14
2023-09-16T12:00	28457	15	-46.0	-80.4	263	14
2023-09-16T12:00	28491	15	-46.1	-80.5	265	14
2023-09-16T12:00	28510	15	-46.1	-80.5	267	14
2023-09-16T12:00	28519	15	-46.1	-80.5	269	13
2023-09-16T12:00	28548	15	-46.1	-80.5	270	13
2023-09-16T12:00	28584	15	-46.1	-80.5	271	13
2023-09-16T12:00	28616	15	-46.1	-80.5	272	12
2023-09-16T12:00	28647	15	-46.0	-80.4	272	12
2023-09-16T12:00	28686	15	-46.0	-80.4	273	12
2023-09-16T12:00	28696	15	-46.0	-80.4	273	12
2023-09-16T12:00	28717	15	-45.9	-80.3	273	13
2023-09-16T12:00	28747	15	-45.9	-80.3	272	12
2023-09-16T12:00	28778	15	-45.8	-80.3	271	12
2023-09-16T12:00	28805	15	-45.8	-80.3	269	12
2023-09-16T12:00	28828	15	-45.8	-80.3	267	12
2023-09-16T12:00	28864	15	-45.8	-80.3	265	12
2023-09-16T12:00	28889	14	-45.8	-80.3	264	12
2023-09-16T12:00	28933	14	-45.8	-80.3	263	12
2023-09-16T12:00	28951	14	-45.8	-80.3	262	13
2023-09-16T12:00	28971	14	-45.7	-80.2	261	13
2023-09-16T12:00	29001	14	-45.6	-80.1	261	13
2023-09-16T12:00	29017	14	-45.6	-80.1	261	13
2023-09-16T12:00	29072	14	-45.6	-80.1	260	14
2023-09-16T12:00	29095	14	-45.6	-80.1	261	14
2023-09-16T12:00	29118	14	-45.7	-80.2	261	14
2023-09-16T12:00	29133	14	-45.8	-80.3	262	14
2023-09-16T12:00	29158	14	-45.7	-80.2	263	14
2023-09-16T12:00	29204	14	-45.7	-80.2	262	14
2023-09-16T12:00	29207	14	-45.6	-80.1	261	14
2023-09-16T12:00	29260	14	-45.5	-80.1	260	14
2023-09-16T12:00	29300	14	-45.5	-80.1	258	14
2023-09-16T12:00	29306	14	-45.6	-80.1	257	14
2023-09-16T12:00	29351	14	-45.7	-80.2	256	15
2023-09-16T12:00	29369	13	-45.7	-80.2	256	15
2023-09-16T12:00	29399	13	-45.7	-80.2	256	15
2023-09-16T12:00	29418	13	-45.8	-80.3	256	15
2023-09-16T12:00	29465	13	-45.8	-80.3	255	14
2023-09-16T12:00	29466	13	-45.8	-80.3	255	14
2023-09-16T12:00	29511	13	-46.0	-80.4	255	14
2023-09-16T12:00	29532	13	-46.2	-80.6	254	13
2023-09-16T12:00	29568	13	-46.4	-80.7	254	13
2023-09-16T12:00	29585	13	-46.4	-80.7	253	13
2023-09-16T12:00	29607	13	-46.2	-80.6	252	13
2023-09-16T12:00	29635	13	-46.1	-80.5	251	13
2023-09-16T12:00	29673	13	-46.1	-80.5	250	14
2023-09-16T12:00	29695	13	-46.1	-80.5	249	14
2023-09-16T12:00	29718	13	-46.2	-80.6	249	15
2023-09-16T12:00	29743	13	-46.1	-80.5	249	16
2023-09-16T12:00	29784	13	-46.2	-80.6	250	16
2023-09-16T12:00	29795	13	-46.2	-80.6	252	16
2023-09-16T12:00	29854	13	-46.1	-80.5	254	16
2023-09-16T12:00	29903	12	-45.9	-80.3	258	16
2023-09-16T12:00	29919	12	-45.9	-80.3	260	16
2023-09-16T12:00	29940	12	-45.9	-80.3	261	15
2023-09-16T12:00	29971	12	-46.0	-80.4	262	15
2023-09-16T12:00	30005	12	-46.2	-80.6	264	15
2023-09-16T12:00	30034	12	-46.3	-80.6	266	14
2023-09-16T12:00	30051	12	-46.4	-80.7	267	14
2023-09-16T12:00	30102	12	-46.4	-80.7	269	13
2023-09-16T12:00	30144	12	-46.8	-80.3	272	12
2023-09-16T12:00	30180	12	-46.9	-80.4	273	12
2023-09-16T12:00	30197	12	-47.0	-80.4	275	11
2023-09-16T12:00	30231	12	-47.1	-80.5	276	11
2023-09-16T12:00	30267	12	-47.2	-80.6	276	10
2023-09-16T12:00	30275	12	-47.2	-81.3	274	10
2023-09-16T12:00	30333	12	-47.1	-81.2	272	10
2023-09-16T12:00	30368	12	-47.0	-81.1	267	10
2023-09-16T12:00	30409	12	-47.0	-81.1	264	10
2023-09-16T12:00	30439	11	-47.1	-81.2	261	10
2023-09-16T12:00	30452	11	-46.9	-81.1	258	10
2023-09-16T12:00	30481	11	-46.8	-81.0	255	11
2023-09-16T12:00	30495	11	-46.8	-81.0	253	11
2023-09-16T12:00	30545	11	-46.7	-80.9	251	12
2023-09-16T12:00	30572	11	-46.6	-80.9	250	12
2023-09-16T12:00	30595	11	-46.6	-80.9	250	12
2023-09-16T12:00	30616	11	-46.5	-80.8	250	12
2023-09-16T12:00	30645	11	-46.4	-80.7	250	11
2023-09-16T12:00	30673	11	-46.4	-80.7	250	10
2023-09-16T12:00	30711	11	-46.4	-80.7	248	10
2023-09-16T12:00	30739	11	-46.5	-80.8	246	10
2023-09-16T12:00	30744	11	-46.6	-80.9	243	10
2023-09-16T12:00	30789	11	-46.6	-80.9	241	10
2023-09-16T12:00	30807	11	-46.5	-80.8	241	10
2023-09-16T12:00	30842	11	-46.4	-80.7	242	10
2023-09-16T12:00	30860	11	-46.1	-80.5	245	10
2023-09-16T12:00	30883	11	-46.0	-80.4	248	11
2023-09-16T12:00	30922	11	-46.0	-80.4	251	11
2023-09-16T12:00	30941	11	-46.0	-81.2	251	11
2023-09-16T12:00	30973	11	-45.9	-81.2	250	12
2023-09-16T12:00	31006	11	-45.7	-81.0	248	12
2023-09-16T12:00	31013	11	-45.5	-80.9	246	12
2023-09-16T12:00	31050	10	-45.4	-80.8	243	12
2023-09-16T12:00	31073	10	-45.4	-80.8	241	12
2023-09-16T12:00	31106	10	-45.4	-80.8	238	12
2023-09-16T12:00	31134	10	-45.4	-80.8	236	12
2023-09-16T12:00	31164	10	-45.2	-80.7	234	13
2023-09-16T12:00	31186	10	-45.0	-80.5	232	13
2023-09-16T12:00	31218	10	-44.7	-80.3	231	14
2023-09-16T12:00	31231	10	-44.6	-80.2	231	14
2023-09-16T12:00	31245	10	-44.6	-80.2	232	15
2023-09-16T12:00	31273	10	-44.6	-80.2	234	15
2023-09-16T12:00	31324	10	-44.6	-80.2	237	15
2023-09-16T12:00	31342	10	-44.1	-79.9	245	14
2023-09-16T12:00	31374	10	-43.8	-79.6	249	14
2023-09-16T12:00	31401	10	-43.6	-80.4	253	14
2023-09-16T12:00	31444	10	-43.4	-80.3	257	14
2023-09-16T12:00	31447	10	-43.2	-80.2	260	15
2023-09-16T12:00	31461	10	-43.1	-80.1	263	15
2023-09-16T12:00	31495	10	-43.0	-80.0	264	14
2023-09-16T12:00	31535	10	-42.8	-79.9	265	14
2023-09-16T12:00	31553	10	-42.5	-79.7	265	14
2023-09-16T12:00	31585	10	-42.2	-79.5	264	14
2023-09-16T12:00	31594	10	-41.9	-79.2	262	14
2023-09-16T12:00	31624	10	-41.8	-79.2	260	15
2023-09-16T12:00	31641	10	-41.8	-79.2	258	15
2023-09-16T12:00	31680	10	-41.9	-79.2	256	15
2023-09-16T12:00	31692	9	-42.0	-79.3	254	16
2023-09-16T12:00	31724	9	-41.9	-79.2	252	16
2023-09-16T12:00	31756	9	-42.0	-78.4	250	17
2023-09-16T12:00	31777	9	-42.1	-78.4	249	17
2023-09-16T12:00	31805	9	-42.3		248	17
2023-09-16T12:00	31849	9	-42.5	-78.7	247	18
2023-09-16T12:00	31896	9	-42.7	-78.9	248	19
2023-09-16T12:00	31928	9	-42.8	-78.9	249	19
2023-09-16T12:00	31935	9	-43.1		251	20
2023-09-16T12:00	31967	9	-43.3	-79.3	252	20
2023-09-16T12:00	31982	9	-43.2	-79.2	254	20
2023-09-16T12:00	32024	9	-42.9	-79.0	256	19
2023-09-16T12:00	32039	9	-42.5	-79.7	257	19
2023-09-16T12:00	32068	9	-42.1	-79.4	259	19
2023-09-16T12:00	32108	9	-41.9	-79.2	261	18
2023-09-16T12:00	32131	9	-41.9	-79.2	264	18
2023-09-16T12:00	32161	9	-41.9	-79.2	266	18
2023-09-16T12:00	32184	9	-41.9	-79.2	268	18
2023-09-16T12:00	32216	9	-41.7	-79.1	269	18
2023-09-16T12:00	32259	9	-41.6	-79.0	270	17
2023-09-16T12:00	32263	9	-41.6	-79.0	270	17
2023-09-16T12:00	32318	9	-41.5	-79.0	270	16
2023-09-16T12:00	32320	9	-41.4	-78.9	269	15
2023-09-16T12:00	32336	9	-41.2	-78.8	268	15
2023-09-16T12:00	32373	9	-41.1	-78.7	267	14
2023-09-16T12:00	32404	9	-41.0	-78.6	267	14
2023-09-16T12:00	32418	9	-41.0	-78.6	267	14
2023-09-16T12:00	32454	8	-41.0	-78.6	268	14
2023-09-16T12:00	32464	8	-41.0	-78.6	270	14
2023-09-16T12:00	32524	8	-41.0	-78.6	271	14
2023-09-16T12:00	32545	8	-41.1	-78.7	272	14
2023-09-16T12:00	32577	8	-41.0	-78.6	273	14
2023-09-16T12:00	32597	8	-40.9		273	15
2023-09-16T12:00	32605	8	-40.7	-78.4	271	15
2023-09-16T12:00	32639	8	-40.5	-78.3	270	15
2023-09-16T12:00	32661	8	-40.3	-78.1	268	16
2023-09-16T12:00	32716	8	-40.1	-78.0	266	16
2023-09-16T12:00	32731	8	-40.1	-78.0	264	16
2023-09-16T12:00	32745	8	-40.2	-78.0	262	16
2023-09-16T12:00	32761	8	-40.2	-78.0	260	16
2023-09-16T12:00	32807	8	-40.3	-78.1	259	16
2023-09-16T12:00	32818	8	-40.3	-78.1	258	17
2023-09-16T12:00	32846	8	-40.3	-78.1	256	17
2023-09-16T12:00	32890	8	-40.3	-78.1	255	18
2023-09-16T12:00	32900	8	-40.3	-78.1	254	19
2023-09-16T12:00	32954	8	-40.2	-78.0	253	19
2023-09-16T12:00	32972	8	-40.1	-78.0	253	20
2023-09-16T12:00	32996	8	-40.1	-78.0	253	20
2023-09-16T18:00	112	1003	22.8	13.6	110	3
2023-09-16T18:00	141	999	23.0	13.8	119	2
2023-09-16T18:00	163	997	23.1	13.5	120	4
2023-09-16T18:00	189	994	22.8	13.5	119	5
2023-09-16T18:00	217	991	22.6	13.4	118	6
2023-09-16T18:00	243	988	22.5	13.4	117	7
2023-09-16T18:00	272	984	22.2	13.3	116	7
2023-09-16T18:00	303	981	21.9	13.2	115	8
2023-09-16T18:00	332	978	21.7	13.2	116	8
2023-09-16T18:00	358	974	21.4	13.2	117	8
2023-09-16T18:00	387	972	21.2	13.1	119	8
2023-09-16T18:00	410	969	21.0	13.1	120	8
2023-09-16T18:00	433	966	20.8	13.0	122	8
2023-09-16T18:00	454	964	20.6	13.1	122	8
2023-09-16T18:00	478	961	20.4	13.0	123	8
2023-09-16T18:00	501	959	20.1	12.8	124	8
2023-09-16T18:00	526	956	19.9	12.9	126	8
2023-09-16T18:00	550	953	19.7		129	8
2023-09-16T18:00	578	950	19.5	12.8	132	8
2023-09-16T18:00	600	948	19.3	12.8	135	8
2023-09-16T18:00	623	945	19.1	12.7	137	8
2023-09-16T18:00	646	942	18.9	12.7	139	8
2023-09-16T18:00	670	940	18.8	12.6	140	8
2023-09-16T18:00	695	937	18.6	12.7	142	8
2023-09-16T18:00	719	935	18.4	12.5	144	8
2023-09-16T18:00	747	932	18.1	12.4	146	8
2023-09-16T18:00	772	929	18.0	12.3	148	8
2023-09-16T18:00	797	926	17.7	12.2	148	8
2023-09-16T18:00	824	923	17.5	12.2	149	8
2023-09-16T18:00	850	920	17.3	12.1	150	8
2023-09-16T18:00	880	917	17.1	12.1	151	8
2023-09-16T18:00	903	915	16.9	12.0	153	8
2023-09-16T18:00	931	912	16.7	11.9	155	8
2023-09-16T18:00	958	909	16.5	11.8	158	8
2023-09-16T18:00	987	906	16.3	11.5	161	8
2023-09-16T18:00	1013	903	16.1	11.5	164	8
2023-09-16T18:00	1040	900	15.9	11.4	167	8
2023-09-16T18:00	1066	897	15.7	11.3	170	8
2023-09-16T18:00	1091	895	15.6	11.1	173	8
2023-09-16T18:00	1116	892	15.4	11.0	176	9
2023-09-16T18:00	1144	889	15.2	10.9	178	9
2023-09-16T18:00	1169	887	15.0	10.9	180	9
2023-09-16T18:00	1198	884	14.8	10.6	182	9
2023-09-16T18:00	1227	881	14.5	10.5	183	9
2023-09-16T18:00	1254	878	14.3	10.6	185	9
2023-09-16T18:00	1281	875	14.1	10.5	187	9
2023-09-16T18:00	1314	872	13.8	10.3	189	9
2023-09-16T18:00	1342	869	13.6	10.2	190	9
2023-09-16T18:00	1373	866	13.3	10.0	191	10
2023-09-16T18:00	1399	863	13.2	10.0	191	10
2023-09-16T18:00	1429	860	12.9	9.8	190	10
2023-09-16T18:00	1459	857	12.6	9.5	188	10
2023-09-16T18:00	1491	853	12.4	9.4	187	10
2023-09-16T18:00	1520	850	12.1	9.2	186	10
2023-09-16T18:00	1552	848	11.9	8.9	186	11
2023-09-16T18:00	1574	845	11.7	8.9	186	11
2023-09-16T18:00	1600	842	11.5	8.7	187	11
2023-09-16T18:00	1627	840	11.3	8.6	188	11
2023-09-16T18:00	1656	837	11.1	7.7	188	11
2023-09-16T18:00	1682	834	11.0	7.4	189	11
2023-09-16T18:00	1709	832	10.7	7.4	189	11
2023-09-16T18:00	1737	829	10.5	7.3	189	11
2023-09-16T18:00	1765	826	10.2	7.3	190	11
2023-09-16T18:00	1790	823	9.9	7.1	190	11
2023-09-16T18:00	1819	821	9.7	7.1	192	11
2023-09-16T18:00	1847	818	9.4	7.0	193	10
2023-09-16T18:00	1874	815	9.1	7.0	194	10
2023-09-16T18:00	1901	812	8.9	7.0	195	10
2023-09-16T18:00	1929	810	8.6	6.9	195	10
2023-09-16T18:00	1954	807	8.4	7.0	195	10
2023-09-16T18:00	1978	805	8.3	6.6	195	10
2023-09-16T18:00	2005	802	8.4	5.1	196	10
2023-09-16T18:00	2030	800	9.1	1.4	198	9
2023-09-16T18:00	2056	797	9.5	-1.4	201	9
2023-09-16T18:00	2084	795	9.8	-4.5	203	8
2023-09-16T18:00	2107	793	9.9	-6.1	205	7
2023-09-16T18:00	2133	790	10.0	-7.6	207	6
2023-09-16T18:00	2160	788	9.9	-8.7	207	6
2023-09-16T18:00	2187	785	9.9	-10.2	204	5
2023-09-16T18:00	2214	782	9.8	-11.8	200	4
2023-09-16T18:00	2242	780	9.8	-12.7	193	4
2023-09-16T18:00	2269	777	10.0	-13.3	187	4
2023-09-16T18:00	2299	774	10.0	-13.1	183	4
2023-09-16T18:00	2324	772	10.0	-10.4	182	4
2023-09-16T18:00	2352	770	9.9	-8.8	184	4
2023-09-16T18:00	2380	767	9.9	-5.6	188	4
2023-09-16T18:00	2408	764	10.0	-3.8	193	4
2023-09-16T18:00	2436	762	9.9	-2.3	199	4
2023-09-16T18:00	2465	759	9.7	-2.1	204	4
2023-09-16T18:00	2491	757	9.5	-2.3	209	4
2023-09-16T18:00	2519	754	9.3	-2.4	213	4
2023-09-16T18:00	2547	752	9.0	-2.4	217	4
2023-09-16T18:00	2575	749	8.8	-2.5	221	4
2023-09-16T18:00	2601	747	8.6	-2.4	224	4
2023-09-16T18:00	2627	744	8.4	-2.3	225	4
2023-09-16T18:00	2653	742	8.1	-2.4	224	4
2023-09-16T18:00	2682	739	7.8	-2.3	223	4
2023-09-16T18:00	2713	737	7.6	-2.5	221	5
2023-09-16T18:00	2738	734	7.3	-2.5	220	5
2023-09-16T18:00	2763	732	7.1	-2.5	220	5
2023-09-16T18:00	2792	730	6.8	-2.7	220	5
2023-09-16T18:00	2819	727	6.6	-2.6	220	4
2023-09-16T18:00	2852	725	6.3	-2.9	219	4
2023-09-16T18:00	2878	722	6.3	-4.0	218	4
2023-09-16T18:00	2903	720	6.1	-4.3	217	4
2023-09-16T18:00	2934	717	5.9	-4.7	216	4
2023-09-16T18:00	2960	715	5.8	-5.2	217	4
2023-09-16T18:00	2991	712	5.8	-5.4	219	4
2023-09-16T18:00	3019	710	5.5	-5.2	221	4
2023-09-16T18:00	3046	707	5.3	-5.1	224	4
2023-09-16T18:00	3076	705	5.0	-5.1	226	4
2023-09-16T18:00	3104	702	4.8	-4.8	227	4
2023-09-16T18:00	3132	700	4.5	-4.9	226	4
2023-09-16T18:00	3161	698	4.2	-5.0	222	3
2023-09-16T18:00	3190	695	3.9	-5.2	218	3
2023-09-16T18:00	3219	693	3.7	-5.2	212	3
2023-09-16T18:00	3247	690	3.4	-5.4	204	3
2023-09-16T18:00	3274	688	3.2	-5.9	195	3
2023-09-16T18:00	3303	685	2.9	-5.8	185	3
2023-09-16T18:00	3334	683	2.7	-6.5	177	3
2023-09-16T18:00	3361	680	2.8	-9.6	172	4
2023-09-16T18:00	3392	678	2.8	-12.0	170	5
2023-09-16T18:00	3421	675	2.8	-16.0	171	6
2023-09-16T18:00	3449	673	3.0	-24.4	172	6
2023-09-16T18:00	3479	671	3.0	-29.8	173	7
2023-09-16T18:00	3511	668	3.2	-29.2	174	7
2023-09-16T18:00	3540	666	3.1	-18.2	175	7
2023-09-16T18:00	3565	663	3.0	-16.2	175	7
2023-09-16T18:00	3594	661	2.9	-18.5	174	7
2023-09-16T18:00	3620	659	2.9	-23.3	173	6
2023-09-16T18:00	3645	657	3.1	-28.7	170	6
2023-09-16T18:00	3673	655	3.0	-29.3	167	6
2023-09-16T18:00	3700	653	2.9	-29.9	163	5
2023-09-16T18:00	3726	650	2.9	-30.9	161	5
2023-09-16T18:00	3751	648	2.7	-31.0	161	5
2023-09-16T18:00	3779	646	2.5	-30.8	162	4
2023-09-16T18:00	3803	644	2.4	-29.9	164	4
2023-09-16T18:00	3826	643	2.2	-28.3	167	4
2023-09-16T18:00	3848	641	2.1	-26.1	170	3
2023-09-16T18:00	3872	639	2.0	-26.0	172	3
2023-09-16T18:00	3898	637	1.9	-26.1	173	3
2023-09-16T18:00	3926	634	1.7	-26.1	173	4
2023-09-16T18:00	3956	632	1.4	-26.2	172	4
2023-09-16T18:00	3986	630	1.2	-26.7	171	4
2023-09-16T18:00	4013	628	1.0	-26.7	170	5
2023-09-16T18:00	4040	626	0.9	-26.7	170	5
2023-09-16T18:00	4064	624	0.8	-26.7	171	5
2023-09-16T18:00	4095	621	0.5	-26.2	173	5
2023-09-16T18:00	4118	619	0.3	-26.6	176	5
2023-09-16T18:00	4145	617	0.1	-26.7	179	5
2023-09-16T18:00	4175	615	-0.2	-26.9	183	5
2023-09-16T18:00	4202	613	-0.4	-27.2	186	5
2023-09-16T18:00	4229	611	-0.6	-27.8	188	5
2023-09-16T18:00	4258	609	-0.9	-27.4	189	4
2023-09-16T18:00	4287	606	-1.1	-26.9	190	4
2023-09-16T18:00	4314	604	-1.3	-26.7	190	4
2023-09-16T18:00	4342	602	-1.6	-26.9	190	4
2023-09-16T18:00	4371	600	-1.8	-27.1	190	4
2023-09-16T18:00	4396	598	-2.0	-27.3	190	4
2023-09-16T18:00	4425	596	-2.3	-27.6	189	4
2023-09-16T18:00	4456	594	-2.5	-27.0	189	4
2023-09-16T18:00	4483	592	-2.8	-27.0	188	4
2023-09-16T18:00	4511	590	-3.0	-27.0	188	4
2023-09-16T18:00	4540	587	-3.2	-27.0	189	5
2023-09-16T18:00	4573	585	-3.5	-27.0	191	5
2023-09-16T18:00	4606	583	-3.8	-27.3	193	5
2023-09-16T18:00	4636	581	-4.0	-27.5	195	6
2023-09-16T18:00	4662	578	-4.2	-28.3	197	6
2023-09-16T18:00	4693	576	-4.3	-29.2	199	6
2023-09-16T18:00	4721	574	-4.5	-29.7	201	6
2023-09-16T18:00	4753	572	-4.8	-30.1	203	7
2023-09-16T18:00	4779	570	-5.0	-30.5	203	7
2023-09-16T18:00	4808	568	-5.1	-31.2	203	7
2023-09-16T18:00	4834	566	-5.3	-31.3	202	8
2023-09-16T18:00	4863	564	-5.6	-31.3	201	8
2023-09-16T18:00	4894	562	-5.8	-31.6	200	8
2023-09-16T18:00	4926	560	-6.0	-32.0	199	8
2023-09-16T18:00	4953	557	-6.2	-31.8	199	8
2023-09-16T18:00	4978	556	-6.5	-31.5	199	8
2023-09-16T18:00	5010	553	-6.7	-31.4	199	8
2023-09-16T18:00	5048	551	-6.9	-31.7	198	9
2023-09-16T18:00	5076	549	-7.1	-31.9	197	9
2023-09-16T18:00	5104	547	-7.3	-32.0	197	10
2023-09-16T18:00	5140	544	-7.5	-32.2	196	10
2023-09-16T18:00	5168	542	-7.8	-32.3	196	10
2023-09-16T18:00	5194	540	-8.0	-31.9	196	10
2023-09-16T18:00	5225	538	-8.1	-32.2	196	10
2023-09-16T18:00	5252	536	-8.3	-32.4	196	10
2023-09-16T18:00	5283	534	-8.6	-32.4	196	9
2023-09-16T18:00	5315	532	-8.9	-32.4	195	9
2023-09-16T18:00	5345	530	-9.2	-32.8	194	9
2023-09-16T18:00	5375	528	-9.4	-33.4	193	9
2023-09-16T18:00	5406	526	-9.6	-33.2	192	10
2023-09-16T18:00	5438	524	-9.8	-33.3	192	10
2023-09-16T18:00	5470	522	-10.1	-33.2	191	10
2023-09-16T18:00	5503	519	-10.4	-33.2	190	10
2023-09-16T18:00	5539	517	-10.6	-33.4	189	9
2023-09-16T18:00	5569	515	-10.8	-33.6	187	9
2023-09-16T18:00	5597	513	-11.1	-34.2	187	10
2023-09-16T18:00	5622	511	-11.3	-34.6	187	10
2023-09-16T18:00	5656	509	-11.6	-35.0	189	10
2023-09-16T18:00	5690	507	-11.8	-35.1	192	10
2023-09-16T18:00	5718	505	-12.1	-35.2	194	10
2023-09-16T18:00	5747	503	-12.4	-35.2	195	11
2023-09-16T18:00	5770	501	-12.6	-35.2	195	11
2023-09-16T18:00	5793	500	-12.8	-35.2	195	11
2023-09-16T18:00	5815	499	-13.0	-35.2	193	10
2023-09-16T18:00	5839	497	-13.2	-35.4	191	11
2023-09-16T18:00	5862	496	-13.4	-34.6	190	11
2023-09-16T18:00	5887	494	-13.6	-34.0	190	11
2023-09-16T18:00	5918	492	-13.9	-33.1	191	11
2023-09-16T18:00	5947	490	-14.1	-32.8	192	11
2023-09-16T18:00	5977	488	-14.3	-33.2	194	11
2023-09-16T18:00	6002	486	-14.6	-33.2	196	11
2023-09-16T18:00	6029	485	-14.8	-33.0	198	11
2023-09-16T18:00	6050	483	-15.0	-33.2	199	11
2023-09-16T18:00	6071	482	-15.1	-33.2	200	11
2023-09-16T18:00	6093	481	-15.3	-33.4	201	11
2023-09-16T18:00	6113	479	-15.4	-34.4	201	11
2023-09-16T18:00	6135	478	-15.5	-35.0	200	11
2023-09-16T18:00	6157	477	-15.6	-35.6	199	11
2023-09-16T18:00	6181	475	-15.8	-36.0	197	11
2023-09-16T18:00	6203	474	-15.9	-36.3	195	11
2023-09-16T18:00	6227	472	-16.1	-36.5	193	11
2023-09-16T18:00	6258	470	-16.4	-36.7	193	11
2023-09-16T18:00	6285	469	-16.6	-36.8	193	11
2023-09-16T18:00	6305	467	-16.7	-37.2	195	11
2023-09-16T18:00	6325	466	-16.9	-37.2	198	10
2023-09-16T18:00	6351	464	-17.1	-37.3	201	10
2023-09-16T18:00	6381	463	-17.4	-37.5	204	10
2023-09-16T18:00	6407	461	-17.7	-37.7	205	10
2023-09-16T18:00	6431	459	-17.9	-37.8	205	10
2023-09-16T18:00	6458	458	-18.1	-37.9	204	10
2023-09-16T18:00	6485	456	-18.4	-37.6	203	10
2023-09-16T18:00	6513	454	-18.6	-37.4	202	10
2023-09-16T18:00	6541	453	-18.8	-38.2	201	11
2023-09-16T18:00	6563	451	-19.0	-38.5	200	11
2023-09-16T18:00	6592	450	-19.2	-38.6	200	11
2023-09-16T18:00	6621	448	-19.4	-39.5	201	11
2023-09-16T18:00	6645	446	-19.5	-41.2	202	11
2023-09-16T18:00	6669	445	-19.7	-38.8	204	11
2023-09-16T18:00	6694	444	-19.9	-37.8	205	12
2023-09-16T18:00	6718	442	-20.1	-37.0	206	12
2023-09-16T18:00	6742	441	-20.3	-37.7	207	12
2023-09-16T18:00	6775	439	-20.6	-38.9	207	12
2023-09-16T18:00	6800	437	-20.8	-40.1	207	12
2023-09-16T18:00	6829	436	-21.0	-39.9	208	12
2023-09-16T18:00	6860	434	-21.4	-39.4	207	13
2023-09-16T18:00	6890	432	-21.6		207	13
2023-09-16T18:00	6923	430	-21.9	-37.2	206	13
2023-09-16T18:00	6944	429	-22.2	-36.5	206	12
2023-09-16T18:00	6963	428	-22.4	-34.9	205	12
2023-09-16T18:00	6987	426	-22.6	-35.2	204	12
2023-09-16T18:00	7014	425	-22.8	-34.3	202	12
2023-09-16T18:00	7041	423	-23.1	-33.4	201	12
2023-09-16T18:00	7068	422	-23.2	-28.9	201	12
2023-09-16T18:00	7092	420	-23.4	-28.6	202	12
2023-09-16T18:00	7124	418	-23.6	-28.3	204	12
2023-09-16T18:00	7154	417	-23.8	-28.8	205	12
2023-09-16T18:00	7184	415	-23.9	-30.3	206	12
2023-09-16T18:00	7214	413	-24.1	-31.8	206	13
2023-09-16T18:00	7243	412	-24.3	-32.2	206	13
2023-09-16T18:00	7272	410	-24.6	-32.7	206	13
2023-09-16T18:00	7297	409	-24.8	-33.0	206	13
2023-09-16T18:00	7325	407	-25.1	-33.4	206	13
2023-09-16T18:00	7359	405	-25.4	-34.3	207	13
2023-09-16T18:00	7389	403	-25.7	-34.3	207	13
2023-09-16T18:00	7417	402	-25.9	-34.9	208	13
2023-09-16T18:00	7439	401	-26.1	-34.6	208	14
2023-09-16T18:00	7464	399	-26.3	-34.1	208	14
2023-09-16T18:00	7487	398	-26.5	-33.6	208	14
2023-09-16T18:00	7509	397	-26.7	-33.3	208	14
2023-09-16T18:00	7544	395	-27.0	-32.9	208	14
2023-09-16T18:00	7575	393	-27.3	-32.8	208	14
2023-09-16T18:00	7605	392	-27.6	-32.6	209	14
2023-09-16T18:00	7633	390	-27.9	-32.7	210	15
2023-09-16T18:00	7653	389	-28.1	-32.7	210	15
2023-09-16T18:00	7675	388	-28.3	-33.7	211	15
2023-09-16T18:00	7705	386	-28.4	-35.5	211	16
2023-09-16T18:00	7733	385	-28.7	-35.9	211	15
2023-09-16T18:00	7760	383	-28.9	-36.6	212	15
2023-09-16T18:00	7788	382	-29.1	-39.9	213	15
2023-09-16T18:00	7819	380	-29.3	-42.0	214	14
2023-09-16T18:00	7851	378	-29.5	-42.8	215	13
2023-09-16T18:00	7878	377	-29.7	-43.6	215	13
2023-09-16T18:00	7899	376	-29.9	-44.7	216	13
2023-09-16T18:00	7927	374	-30.1	-45.4	216	12
2023-09-16T18:00	7952	373	-30.3	-46.9	215	12
2023-09-16T18:00	7977	372	-30.5	-47.5	215	12
2023-09-16T18:00	7998	371	-30.7	-48.6	214	12
2023-09-16T18:00	8021	369	-30.8	-49.8	214	11
2023-09-16T18:00	8043	368	-31.0	-50.4	214	11
2023-09-16T18:00	8068	367	-31.1	-50.5	214	11
2023-09-16T18:00	8094	365	-31.3	-49.9	214	11
2023-09-16T18:00	8131	364	-31.6	-47.6	215	11
2023-09-16T18:00	8161	362	-31.9	-45.9	216	12
2023-09-16T18:00	8189	361	-32.1	-43.0	216	12
2023-09-16T18:00	8223	359	-32.4	-42.4	217	12
2023-09-16T18:00	8250	358	-32.7	-42.9	217	12
2023-09-16T18:00	8272	356	-32.9	-42.9	217	11
2023-09-16T18:00	8296	355	-33.2	-43.2	217	11
2023-09-16T18:00	8317	354	-33.4	-43.4	217	11
2023-09-16T18:00	8340	353	-33.6	-44.1	217	11
2023-09-16T18:00	8361	352	-33.8	-43.9	218	11
2023-09-16T18:00	8383	351	-34.0	-44.3	219	11
2023-09-16T18:00	8405	350	-34.2	-44.5	220	11
2023-09-16T18:00	8429	349	-34.4	-45.9	221	11
2023-09-16T18:00	8451	347	-34.5	-50.0	222	11
2023-09-16T18:00	8473	346	-34.6	-53.2	223	11
2023-09-16T18:00	8497	345	-34.8	-52.4	224	12
2023-09-16T18:00	8520	344	-34.9	-53.7	226	12
2023-09-16T18:00	8553	342	-35.1	-54.9	229	11
2023-09-16T18:00	8586	341	-35.3	-55.2	231	11
2023-09-16T18:00	8613	340	-35.5	-55.1	234	11
2023-09-16T18:00	8639	338	-35.7	-55.1	237	11
2023-09-16T18:00	8662	337	-35.9	-55.3	239	11
2023-09-16T18:00	8684	336	-36.0	-55.4	240	11
2023-09-16T18:00	8709	335	-36.2	-55.6	242	10
2023-09-16T18:00	8741	333	-36.4	-55.9	242	10
2023-09-16T18:00	8767	332	-36.6	-56.2	243	10
2023-09-16T18:00	8791	331	-36.7	-56.5	243	10
2023-09-16T18:00	8813	330	-36.9	-56.6	244	9
2023-09-16T18:00	8839	329	-37.1	-56.7	246	9
2023-09-16T18:00	8864	327	-37.3	-56.8	249	9
2023-09-16T18:00	8889	326	-37.4	-57.0	252	9
2023-09-16T18:00	8913	325	-37.4	-57.1	255	9
2023-09-16T18:00	8936	324	-37.5	-57.3	257	9
2023-09-16T18:00	8959	323	-37.6	-57.5	260	9
2023-09-16T18:00	8980	322	-37.7	-57.5	262	9
2023-09-16T18:00	9003	321	-37.8	-57.7	263	9
2023-09-16T18:00	9027	320	-38.0	-57.8	263	8
2023-09-16T18:00	9051	319	-38.2	-58.1	263	8
2023-09-16T18:00	9074	318	-38.4	-58.3	263	8
2023-09-16T18:00	9097	317	-38.6	-58.2	263	8
2023-09-16T18:00	9118	316	-38.8	-57.8	263	8
2023-09-16T18:00	9141	315	-39.0	-57.2	264	8
2023-09-16T18:00	9165	313	-39.2	-57.3	264	8
2023-09-16T18:00	9187	312	-39.4	-57.5	265	8
2023-09-16T18:00	9209	311	-39.6	-57.5	265	8
2023-09-16T18:00	9229	310	-39.8	-57.6	266	8
2023-09-16T18:00	9252	309	-40.0	-57.8	265	8
2023-09-16T18:00	9273	309	-40.2	-58.0	265	8
2023-09-16T18:00	9292	308	-40.3	-58.1	265	8
2023-09-16T18:00	9313	307	-40.5	-58.5	265	8
2023-09-16T18:00	9337	306	-40.7	-58.7	266	8
2023-09-16T18:00	9362	305	-40.8	-58.6	267	8
2023-09-16T18:00	9385	303	-41.0	-58.5	269	8
2023-09-16T18:00	9410	302	-41.2	-58.3	272	8
2023-09-16T18:00	9433	301	-41.4	-58.1	273	8
2023-09-16T18:00	9455	300	-41.6	-58.2	275	8
2023-09-16T18:00	9477	299	-41.7		276	8
2023-09-16T18:00	9500	298	-41.9	-58.4	276	8
2023-09-16T18:00	9520	298	-42.1	-58.6	276	8
2023-09-16T18:00	9541	297	-42.2	-58.6	277	9
2023-09-16T18:00	9565	296	-42.4	-58.8	277	9
2023-09-16T18:00	9589	294	-42.5	-58.9	279	9
2023-09-16T18:00	9615	293	-42.7	-59.1	280	10
2023-09-16T18:00	9647	292	-42.9	-59.2	282	10
2023-09-16T18:00	9680	291	-43.1	-59.4	285	11
2023-09-16T18:00	9713	289	-43.4	-59.5	287	11
2023-09-16T18:00	9750	288	-43.7	-59.4	289	11
2023-09-16T18:00	9774	287	-44.0	-59.7	291	12
2023-09-16T18:00	9791	286	-44.1		292	12
2023-09-16T18:00	9814	285	-44.3	-59.6	293	12
2023-09-16T18:00	9834	284	-44.4	-59.6	294	13
2023-09-16T18:00	9859	283	-44.6	-59.8	294	13
2023-09-16T18:00	9885	282	-44.7	-59.7	294	14
2023-09-16T18:00	9905	281	-44.9	-59.6	294	14
2023-09-16T18:00	9933	280	-45.2	-59.5	295	15
2023-09-16T18:00	9964	279	-45.3	-58.6	295	15
2023-09-16T18:00	9990	277	-45.5	-58.2	295	16
2023-09-16T18:00	10015	276	-45.7	-57.8	295	16
2023-09-16T18:00	10039	275	-45.9	-57.3	296	17
2023-09-16T18:00	10062	274	-46.1	-57.3	296	17
2023-09-16T18:00	10085	273	-46.2	-57.2	297	18
2023-09-16T18:00	10107	273	-46.3	-57.3	297	18
2023-09-16T18:00	10129	272	-46.5	-57.7	297	18
2023-09-16T18:00	10153	271	-46.7	-58.0	296	18
2023-09-16T18:00	10174	270	-46.9	-58.3	296	18
2023-09-16T18:00	10198	269	-47.1	-58.6	295	18
2023-09-16T18:00	10221	268	-47.2	-58.8	294	19
2023-09-16T18:00	10246	267	-47.2	-59.1	293	19
2023-09-16T18:00	10275	266	-47.4	-59.3	293	19
2023-09-16T18:00	10304	265	-47.7	-59.3	292	20
2023-09-16T18:00	10328	264	-47.8	-59.2	293	21
2023-09-16T18:00	10351	263	-47.8	-59.1	293	21
2023-09-16T18:00	10372	262	-47.9	-59.0	294	21
2023-09-16T18:00	10394	261	-48.1	-59.4	294	22
2023-09-16T18:00	10415	260	-48.3	-60.1	295	22
2023-09-16T18:00	10434	259	-48.4	-60.5	295	22
2023-09-16T18:00	10454	259	-48.5	-60.5	295	22
2023-09-16T18:00	10476	258	-48.7	-60.5	295	22
2023-09-16T18:00	10497	257	-48.8	-60.4	295	22
2023-09-16T18:00	10518	256	-49.0	-60.5	295	22
2023-09-16T18:00	10539	255	-49.2	-60.7	295	22
2023-09-16T18:00	10561	254	-49.4	-60.9	295	22
2023-09-16T18:00	10583	254	-49.6	-60.9	295	22
2023-09-16T18:00	10605	253	-49.8	-60.9	295	22
2023-09-16T18:00	10626	252	-50.0	-60.9	295	22
2023-09-16T18:00	10646	251	-50.2	-60.9	295	22
2023-09-16T18:00	10667	250	-50.3	-60.8	295	22
2023-09-16T18:00	10689	249	-50.5	-60.8	296	22
2023-09-16T18:00	10711	249	-50.7	-61.1	296	22
2023-09-16T18:00	10734	248	-50.9	-61.2	296	22
2023-09-16T18:00	10758	247	-51.2	-61.2	295	22
2023-09-16T18:00	10778	246	-51.3	-61.3	295	22
2023-09-16T18:00	10800	245	-51.5	-61.7	295	22
2023-09-16T18:00	10820	245	-51.5	-62.0	295	22
2023-09-16T18:00	10840	244	-51.6	-62.1	295	22
2023-09-16T18:00	10861	243	-51.8	-62.1	295	21
2023-09-16T18:00	10881	242	-52.0	-62.0	295	21
2023-09-16T18:00	10902	241	-52.1	-62.0	295	21
2023-09-16T18:00	10921	241	-52.2	-62.0	296	21
2023-09-16T18:00	10942	240	-52.4	-62.1	296	21
2023-09-16T18:00	10970	239	-52.6	-62.2	297	22
2023-09-16T18:00	11003	238	-52.8	-62.3	297	22
2023-09-16T18:00	11026	237	-52.9	-62.4	296	22
2023-09-16T18:00	11056	236	-53.2	-62.4	296	23
2023-09-16T18:00	11093	235	-53.5	-62.4	295	23
2023-09-16T18:00	11118	233	-53.8	-62.4	294	24
2023-09-16T18:00	11142	233	-53.9	-62.5	294	24
2023-09-16T18:00	11163	232	-54.1	-62.9	294	24
2023-09-16T18:00	11183	231	-54.1	-63.2	294	25
2023-09-16T18:00	11205	230	-53.9	-63.5	294	25
2023-09-16T18:00	11226	230	-53.7	-63.7	294	25
2023-09-16T18:00	11246	229	-53.7	-63.9	294	25
2023-09-16T18:00	11268	228	-53.7	-63.8	294	25
2023-09-16T18:00	11289	227	-53.8	-63.8	294	25
2023-09-16T18:00	11313	226	-54.0	-63.8	293	26
2023-09-16T18:00	11334	226	-54.1	-63.9	293	26
2023-09-16T18:00	11355	225	-54.2	-64.0	293	26
2023-09-16T18:00	11375	224	-54.3	-64.1	294	26
2023-09-16T18:00	11398	224	-54.4	-64.2	294	26
2023-09-16T18:00	11416	223	-54.5	-64.2	295	26
2023-09-16T18:00	11438	222	-54.6	-64.3	295	25
2023-09-16T18:00	11459	221	-54.8	-64.4	296	25
2023-09-16T18:00	11481	221	-54.9	-64.6	296	25
2023-09-16T18:00	11504	220	-55.0	-64.7	297	26
2023-09-16T18:00	11524	219	-55.1	-64.9	296	26
2023-09-16T18:00	11547	218	-55.2	-64.9	296	26
2023-09-16T18:00	11574	217	-55.4	-64.9	296	27
2023-09-16T18:00	11599	217	-55.6	-64.8	295	27
2023-09-16T18:00	11623	216	-55.8	-64.7	295	28
2023-09-16T18:00	11647	215	-56.0	-64.6	295	28
2023-09-16T18:00	11671	214	-56.0	-64.4	295	28
2023-09-16T18:00	11692	213	-56.1	-64.5	296	27
2023-09-16T18:00	11716	213	-55.9	-64.5	297	27
2023-09-16T18:00	11739	212	-55.8	-65.1	298	27
2023-09-16T18:00	11764	211	-55.6	-65.8	299	26
2023-09-16T18:00	11787	210	-55.8	-66.8	300	25
2023-09-16T18:00	11816	209	-56.0	-67.5	300	25
2023-09-16T18:00	11841	208	-56.2	-68.0	300	24
2023-09-16T18:00	11867	208	-56.4	-68.2	300	24
2023-09-16T18:00	11891	207	-56.6	-68.4	300	23
2023-09-16T18:00	11914	206	-56.7	-68.5	300	23
2023-09-16T18:00	11934	205	-56.9	-68.7	300	22
2023-09-16T18:00	11954	205	-57.0	-68.9	300	22
2023-09-16T18:00	11975	204	-57.1	-69.1	300	22
2023-09-16T18:00	11997	203	-57.2	-69.4	300	21
2023-09-16T18:00	12019	203	-57.2	-69.6	300	21
2023-09-16T18:00	12039	202	-57.3	-69.6	300	20
2023-09-16T18:00	12060	201	-57.4	-69.5	300	20
2023-09-16T18:00	12080	201	-57.5	-69.0	300	19
2023-09-16T18:00	12102	200	-57.6	-68.4	299	18
2023-09-16T18:00	12123	199	-57.6	-68.1	299	18
2023-09-16T18:00	12144	199	-57.4	-68.4	299	17
2023-09-16T18:00	12164	198	-57.0	-69.2	299	17
2023-09-16T18:00	12186	197	-56.9	-70.1	298	16
2023-09-16T18:00	12208	197	-56.9	-70.5	297	16
2023-09-16T18:00	12227	196	-56.9	-70.5	296	15
2023-09-16T18:00	12248	196	-56.9	-70.4	295	15
2023-09-16T18:00	12270	195	-56.9	-70.4	293	14
2023-09-16T18:00	12291	194	-56.8	-70.3	292	14
2023-09-16T18:00	12312	194	-57.0	-70.4	289	13
2023-09-16T18:00	12332	193	-57.0	-70.4	287	13
2023-09-16T18:00	12352	192	-57.0	-70.6	285	13
2023-09-16T18:00	12372	192	-57.0	-70.8	283	13
2023-09-16T18:00	12390	191	-56.9	-71.2	281	13
2023-09-16T18:00	12412	191	-56.6	-71.7	280	13
2023-09-16T18:00	12433	190	-56.4	-72.4	278	13
2023-09-16T18:00	12454	189	-56.2	-73.1	277	13
2023-09-16T18:00	12474	189	-56.0	-73.5	274	14
2023-09-16T18:00	12493	188	-55.9	-73.6	272	14
2023-09-16T18:00	12515	187	-56.0	-73.9	269	14
2023-09-16T18:00	12536	187	-56.0	-74.2	267	14
2023-09-16T18:00	12556	186	-55.6	-74.5	266	13
2023-09-16T18:00	12577	186	-55.4	-74.8	266	13
2023-09-16T18:00	12596	185	-55.0	-74.8	267	13
2023-09-16T18:00	12615	185	-54.8	-74.8	269	12
2023-09-16T18:00	12636	184	-54.8	-74.8	270	12
2023-09-16T18:00	12659	183	-54.8	-74.7	271	11
2023-09-16T18:00	12678	183	-54.7	-74.6	271	11
2023-09-16T18:00	12700	182	-54.2	-74.4	270	11
2023-09-16T18:00	12722	181	-53.8	-74.4	269	11
2023-09-16T18:00	12742	181	-53.7	-74.4	266	11
2023-09-16T18:00	12762	180	-53.8	-74.5	263	11
2023-09-16T18:00	12785	180	-53.8	-74.6	260	11
2023-09-16T18:00	12807	179	-53.8	-75.0	256	11
2023-09-16T18:00	12829	179	-53.6	-75.2	252	11
2023-09-16T18:00	12850	178	-53.5	-75.6	250	11
2023-09-16T18:00	12871	177	-53.2	-75.8	248	11
2023-09-16T18:00	12890	177	-52.9	-75.7	247	11
2023-09-16T18:00	12911	176	-53.0	-75.9	247	11
2023-09-16T18:00	12932	176	-53.1	-75.9	247	11
2023-09-16T18:00	12955	175	-53.0	-75.8	247	11
2023-09-16T18:00	12975	174	-53.0	-75.6	247	12
2023-09-16T18:00	12997	174	-53.0	-75.6	246	12
2023-09-16T18:00	13018	173	-53.0	-75.8	246	12
2023-09-16T18:00	13041	173	-53.1	-75.9	246	13
2023-09-16T18:00	13061	172	-53.1	-76.0	247	13
2023-09-16T18:00	13084	172	-53.3	-76.2	247	14
2023-09-16T18:00	13106	171	-53.4	-76.3	248	14
2023-09-16T18:00	13127	170	-53.5	-76.3	248	15
2023-09-16T18:00	13150	170	-53.3	-76.5	248	15
2023-09-16T18:00	13171	169	-53.1	-76.5	247	15
2023-09-16T18:00	13193	169	-52.9	-76.5	246	15
2023-09-16T18:00	13216	168	-53.1	-76.9	245	16
2023-09-16T18:00	13239	167	-53.2	-76.8	244	16
2023-09-16T18:00	13260	167	-53.3	-76.9	244	16
2023-09-16T18:00	13283	166	-53.5	-77.0	244	16
2023-09-16T18:00	13305	166	-53.4	-76.9	245	17
2023-09-16T18:00	13329	165	-53.5		246	17
2023-09-16T18:00	13351	165	-53.7	-77.2	247	17
2023-09-16T18:00	13374	164	-53.8	-77.3	249	17
2023-09-16T18:00	13397	163	-53.8	-77.3	250	17
2023-09-16T18:00	13418	163	-53.8	-77.4	250	17
2023-09-16T18:00	13441	162	-53.8	-77.4	251	17
2023-09-16T18:00	13460	162	-53.9	-77.3	251	17
2023-09-16T18:00	13485	161	-54.2	-77.6	251	17
2023-09-16T18:00	13508	161	-54.4	-77.6	251	17
2023-09-16T18:00	13531	160	-54.6	-77.7	250	17
2023-09-16T18:00	13552	159	-54.8	-77.7	250	17
2023-09-16T18:00	13576	159	-55.0	-77.9	250	17
2023-09-16T18:00	13600	158	-55.1	-77.8	250	17
2023-09-16T18:00	13624	158	-55.3	-77.9	250	17
2023-09-16T18:00	13646	157	-55.5	-77.9	251	18
2023-09-16T18:00	13667	157	-55.7	-78.1	252	18
2023-09-16T18:00	13692	156	-55.9	-78.3	253	18
2023-09-16T18:00	13716	155	-55.6	-78.2	255	19
2023-09-16T18:00	13738	155	-55.7	-78.3	257	19
2023-09-16T18:00	13760	154	-55.9	-78.4	259	20
2023-09-16T18:00	13784	154	-56.0	-78.7	261	20
2023-09-16T18:00	13809	153	-55.8	-78.7	262	20
2023-09-16T18:00	13832	153	-55.7	-78.8	264	20
2023-09-16T18:00	13858	152	-55.5	-78.6	265	20
2023-09-16T18:00	13881	151	-55.6	-78.9	266	19
2023-09-16T18:00	13904	151	-55.8	-78.9	266	19
2023-09-16T18:00	13926	150	-56.0	-79.0	266	19
2023-09-16T18:00	13949	150	-56.1	-79.1	267	19
2023-09-16T18:00	13971	149	-56.2	-79.4	267	19
2023-09-16T18:00	13993	149	-56.0	-79.2	267	19
2023-09-16T18:00	14016	148	-56.1	-79.5	267	19
2023-09-16T18:00	14038	148	-56.2	-79.9	267	18
2023-09-16T18:00	14056	147	-56.2	-80.1	267	18
2023-09-16T18:00	14083	147	-56.0	-80.4	268	18
2023-09-16T18:00	14105	146	-56.1	-80.7	269	18
2023-09-16T18:00	14129	146	-56.2	-80.8	271	18
2023-09-16T18:00	14150	145	-56.3	-80.8	272	18
2023-09-16T18:00	14173	145	-56.4	-80.9	273	17
2023-09-16T18:00	14194	144	-56.4	-80.9	274	17
2023-09-16T18:00	14216	144	-56.4	-80.9	273	17
2023-09-16T18:00	14238	143	-56.5	-81.0	273	16
2023-09-16T18:00	14263	143	-56.7	-81.2	271	16
2023-09-16T18:00	14285	142	-56.6	-81.1	269	15
2023-09-16T18:00	14309	142	-56.5	-81.0	266	15
2023-09-16T18:00	14334	141	-56.6	-81.1	264	15
2023-09-16T18:00	14354	141	-56.6	-81.1	261	15
2023-09-16T18:00	14374	140	-56.6	-81.1	259	15
2023-09-16T18:00	14398	140	-56.7	-81.2	257	15
2023-09-16T18:00	14418	139	-56.7	-81.4	256	15
2023-09-16T18:00	14440	139	-56.8	-81.5	256	15
2023-09-16T18:00	14462	138	-56.8	-81.7	256	15
2023-09-16T18:00	14482	138	-56.8	-81.7	257	15
2023-09-16T18:00	14504	137	-56.8	-81.7	258	16
2023-09-16T18:00	14524	137	-56.9	-81.8	259	16
2023-09-16T18:00	14547	136	-57.0	-82.1	260	16
2023-09-16T18:00	14569	136	-57.1	-82.2	261	16
2023-09-16T18:00	14588	136	-57.1	-81.9	262	16
2023-09-16T18:00	14609	135	-57.2	-82.0	263	16
2023-09-16T18:00	14630	135	-57.3	-82.1	263	16
2023-09-16T18:00	14650	134	-57.4	-82.2	263	15
2023-09-16T18:00	14671	134	-57.4	-82.2	262	15
2023-09-16T18:00	14693	133	-57.2	-82.0	260	14
2023-09-16T18:00	14715	133	-57.2	-82.0	259	14
2023-09-16T18:00	14735	132	-57.2	-82.0	257	14
2023-09-16T18:00	14757	132	-57.3	-82.1	255	14
2023-09-16T18:00	14779	131	-57.4	-82.2	254	14
2023-09-16T18:00	14801	131	-57.5	-82.0	253	14
2023-09-16T18:00	14822	131	-57.6	-82.1	253	14
2023-09-16T18:00	14843	130	-57.7	-82.2	253	14
2023-09-16T18:00	14864	130	-57.7		254	14
2023-09-16T18:00	14888	129	-57.8	-82.0	255	14
2023-09-16T18:00	14911	129	-57.7		256	14
2023-09-16T18:00	14933	128	-57.7		257	13
2023-09-16T18:00	14953	128	-57.5	-81.8	258	13
2023-09-16T18:00	14975	127	-57.7		259	13
2023-09-16T18:00	14997	127	-57.8	-82.0	259	13
2023-09-16T18:00	15020	127	-57.7		259	12
2023-09-16T18:00	15040	126	-57.7		258	12
2023-09-16T18:00	15065	126	-57.7		257	12
2023-09-16T18:00	15087	125	-57.7		256	12
2023-09-16T18:00	15107	125	-57.7		255	12
2023-09-16T18:00	15130	124	-57.8	-82.0	255	12
2023-09-16T18:00	15154	124	-57.8	-82.0	256	12
2023-09-16T18:00	15176	123	-57.9	-82.1	257	13
2023-09-16T18:00	15197	123	-57.9	-82.1	257	13
2023-09-16T18:00	15220	123	-57.9	-82.1	258	13
2023-09-16T18:00	15244	122	-57.8	-82.0	258	12
2023-09-16T18:00	15268	122	-57.9	-82.1	257	12
2023-09-16T18:00	15292	121	-57.8	-82.0	257	12
2023-09-16T18:00	15313	121	-57.6	-81.9	257	11
2023-09-16T18:00	15337	120	-57.5	-82.0	256	11
2023-09-16T18:00	15361	120	-57.6	-82.1	255	11
2023-09-16T18:00	15382	119	-57.6	-82.1	254	11
2023-09-16T18:00	15404	119	-57.6	-82.1	252	11
2023-09-16T18:00	15429	119	-57.7		251	11
2023-09-16T18:00	15451	118	-57.9	-82.1	250	11
2023-09-16T18:00	15473	118	-57.9	-82.1	250	11
2023-09-16T18:00	15498	117	-58.0	-82.0	250	12
2023-09-16T18:00	15520	117	-58.2	-82.1	251	12
2023-09-16T18:00	15543	116	-58.2	-82.1	251	12
2023-09-16T18:00	15565	116	-58.1	-82.3	252	13
2023-09-16T18:00	15585	116	-58.2	-82.3	253	13
2023-09-16T18:00	15608	115	-58.1	-82.3	255	13
2023-09-16T18:00	15631	115	-58.1	-82.5	256	13
2023-09-16T18:00	15654	114	-57.9	-82.6	258	13
2023-09-16T18:00	15675	114	-57.9	-82.6	260	13
2023-09-16T18:00	15696	114	-57.7	-82.6	262	13
2023-09-16T18:00	15720	113	-57.7	-82.9	264	13
2023-09-16T18:00	15743	113	-57.7	-82.9	265	13
2023-09-16T18:00	15764	112	-57.8	-83.0	265	12
2023-09-16T18:00	15784	112	-57.9	-82.8	264	12
2023-09-16T18:00	15807	112	-58.0	-82.9	263	12
2023-09-16T18:00	15828	111	-57.9	-82.8	262	12
2023-09-16T18:00	15850	111	-58.0	-82.9	260	13
2023-09-16T18:00	15871	111	-58.0	-82.6	260	13
2023-09-16T18:00	15895	110	-58.1	-82.7	260	13
2023-09-16T18:00	15914	110	-58.2	-82.8	260	13
2023-09-16T18:00	15934	109	-58.0	-82.9	261	13
2023-09-16T18:00	15953	109	-57.7	-82.6	262	12
2023-09-16T18:00	15973	109	-57.8	-82.7	261	12
2023-09-16T18:00	15997	108	-57.7	-82.6	260	12
2023-09-16T18:00	16019	108	-57.6	-82.8	258	13
2023-09-16T18:00	16039	108	-57.7	-82.9	256	13
2023-09-16T18:00	16062	107	-57.8	-83.0	254	13
2023-09-16T18:00	16084	107	-57.9	-83.0	254	13
2023-09-16T18:00	16106	107	-58.1	-83.2	254	13
2023-09-16T18:00	16127	106	-58.2	-83.3	254	13
2023-09-16T18:00	16150	106	-58.2	-83.3	256	12
2023-09-16T18:00	16173	105	-58.0	-83.1	257	12
2023-09-16T18:00	16190	105	-58.1	-83.2	259	11
2023-09-16T18:00	16214	105	-58.2	-83.3	261	11
2023-09-16T18:00	16235	104	-58.1	-83.2	263	11
2023-09-16T18:00	16259	104	-58.1	-83.2	264	11
2023-09-16T18:00	16278	104	-58.2	-83.3	265	11
2023-09-16T18:00	16298	103	-58.3		265	11
2023-09-16T18:00	16322	103	-58.3		266	11
2023-09-16T18:00	16344	103	-58.4	-83.4	266	11
2023-09-16T18:00	16366	102	-58.4	-83.4	265	11
2023-09-16T18:00	16390	102	-58.5	-83.5	265	11
2023-09-16T18:00	16410	101	-58.6	-83.6	264	11
2023-09-16T18:00	16432	101	-58.8	-83.8	262	11
2023-09-16T18:00	16456	101	-58.8	-83.8	261	10
2023-09-16T18:00	16479	100	-58.9		259	10
2023-09-16T18:00	16502	100	-58.8	-83.8	258	10
2023-09-16T18:00	16526	100	-58.6	-83.6	258	9
2023-09-16T18:00	16549	99	-58.6	-83.6	259	9
2023-09-16T18:00	16572	99	-58.8	-83.8	260	9
2023-09-16T18:00	16596	99	-59.0	-83.9	261	9
2023-09-16T18:00	16620	98	-59.0	-83.9	262	9
2023-09-16T18:00	16645	98	-59.0	-83.9	262	9
2023-09-16T18:00	16664	97	-59.0	-83.9	263	9
2023-09-16T18:00	16691	97	-59.1	-84.0	263	9
2023-09-16T18:00	16717	97	-59.1	-84.0	262	9
2023-09-16T18:00	16738	96	-59.2	-84.1	261	9
2023-09-16T18:00	16762	96	-59.3	-84.1	260	10
2023-09-16T18:00	16785	96	-59.5	-84.1	259	10
2023-09-16T18:00	16812	95	-59.6	-84.1	259	11
2023-09-16T18:00	16837	95	-59.7	-84.2	260	11
2023-09-16T18:00	16862	94	-59.9	-84.4	261	12
2023-09-16T18:00	16888	94	-60.1	-84.5	263	12
2023-09-16T18:00	16909	94	-60.1	-84.5	265	13
2023-09-16T18:00	16937	93	-59.9	-84.6	267	13
2023-09-16T18:00	16957	93	-59.6	-84.6	268	13
2023-09-16T18:00	16982	93	-59.5	-84.6	270	13
2023-09-16T18:00	17004	92	-59.2	-84.6	270	12
2023-09-16T18:00	17031	92	-58.7	-84.5	270	12
2023-09-16T18:00	17056	92	-58.6	-84.7	270	11
2023-09-16T18:00	17080	91	-58.4	-84.6	268	10
2023-09-16T18:00	17103	91	-58.2	-84.4	267	10
2023-09-16T18:00	17129	91	-58.3	-84.5	266	10
2023-09-16T18:00	17151	90	-58.3	-84.5	264	9
2023-09-16T18:00	17173	90	-58.0	-84.6	263	9
2023-09-16T18:00	17198	90	-57.9	-84.5	262	10
2023-09-16T18:00	17221	89	-58.0	-84.6	260	10
2023-09-16T18:00	17239	89	-58.0	-84.6	259	10
2023-09-16T18:00	17264	89	-58.0	-84.6	257	10
2023-09-16T18:00	17287	88	-58.1	-84.6	256	11
2023-09-16T18:00	17306	88	-58.0	-84.6	255	11
2023-09-16T18:00	17328	88	-57.9	-84.5	253	11
2023-09-16T18:00	17353	87	-57.9	-84.5	251	11
2023-09-16T18:00	17375	87	-57.8	-84.4	248	11
2023-09-16T18:00	17395	87	-57.7	-84.3	245	12
2023-09-16T18:00	17419	86	-57.7	-84.7	241	12
2023-09-16T18:00	17442	86	-57.6	-84.6	239	12
2023-09-16T18:00	17461	86	-57.3	-84.4	238	12
2023-09-16T18:00	17485	86	-56.8	-84.3	238	13
2023-09-16T18:00	17506	85	-56.8	-84.3	240	13
2023-09-16T18:00	17529	85	-56.9	-84.4	243	13
2023-09-16T18:00	17552	85	-56.8	-84.3	246	14
2023-09-16T18:00	17575	84	-56.6	-84.2	249	14
2023-09-16T18:00	17595	84	-56.6	-84.2	252	14
2023-09-16T18:00	17615	84	-56.6	-84.2	255	15
2023-09-16T18:00	17636	84	-56.6	-84.2	258	15
2023-09-16T18:00	17658	83	-56.7	-84.2	260	15
2023-09-16T18:00	17679	83	-56.7	-84.2	262	16
2023-09-16T18:00	17699	83	-56.6	-84.2	264	16
2023-09-16T18:00	17721	82	-56.6	-84.5	264	15
2023-09-16T18:00	17743	82	-56.6	-84.5	264	15
2023-09-16T18:00	17764	82	-56.3	-84.3	263	15
2023-09-16T18:00	17783	82	-56.1	-84.2	262	15
2023-09-16T18:00	17810	81	-56.1	-84.2	261	15
2023-09-16T18:00	17830	81	-56.1	-84.2	260	15
2023-09-16T18:00	17855	81	-56.1	-84.2	260	15
2023-09-16T18:00	17878	80	-56.2	-84.2	260	15
2023-09-16T18:00	17903	80	-56.3	-84.3	262	15
2023-09-16T18:00	17926	80	-56.3	-84.3	264	16
2023-09-16T18:00	17948	80	-56.4	-84.4	266	16
2023-09-16T18:00	17971	79	-56.3	-84.3	268	16
2023-09-16T18:00	17993	79	-56.3	-84.3	270	16
2023-09-16T18:00	18018	79	-56.4	-84.4	271	16
2023-09-16T18:00	18042	78	-56.3	-84.3	272	16
2023-09-16T18:00	18065	78	-56.4	-84.4	273	16
2023-09-16T18:00	18090	78	-56.4	-84.4	274	16
2023-09-16T18:00	18116	77	-56.3	-84.3	274	16
2023-09-16T18:00	18142	77	-56.4	-84.4	273	15
2023-09-16T18:00	18168	77	-56.4	-84.4	273	15
2023-09-16T18:00	18194	77	-56.5	-84.5	272	15
2023-09-16T18:00	18220	76	-56.7	-84.6	270	14
2023-09-16T18:00	18239	76	-56.7	-84.6	269	14
2023-09-16T18:00	18267	76	-56.6	-84.5	268	14
2023-09-16T18:00	18293	75	-56.6	-84.5	268	14
2023-09-16T18:00	18321	75	-56.6	-84.5	268	14
2023-09-16T18:00	18343	75	-56.4	-84.4	269	14
2023-09-16T18:00	18372	74	-56.3	-84.3	270	15
2023-09-16T18:00	18400	74	-56.5	-84.5	270	15
2023-09-16T18:00	18424	74	-56.5	-84.5	270	15
2023-09-16T18:00	18450	73	-56.6	-84.5	270	16
2023-09-16T18:00	18477	73	-56.7	-84.6	270	16
2023-09-16T18:00	18504	73	-56.8	-84.3	271	16
2023-09-16T18:00	18532	73	-57.0	-84.5	272	15
2023-09-16T18:00	18557	72	-57.1	-84.6	273	15
2023-09-16T18:00	18582	72	-57.2	-84.6	276	15
2023-09-16T18:00	18608	72	-57.3	-84.7	278	15
2023-09-16T18:00	18634	71	-57.4	-84.8	280	15
2023-09-16T18:00	18656	71	-57.3	-84.7	281	15
2023-09-16T18:00	18683	71	-57.4	-84.8	283	16
2023-09-16T18:00	18706	71	-57.4	-84.8	284	16
2023-09-16T18:00	18730	70	-57.6	-84.9	285	16
2023-09-16T18:00	18756	70	-57.7	-85.0	286	15
2023-09-16T18:00	18776	70	-57.8	-85.1	287	15
2023-09-16T18:00	18803	69	-57.8	-85.1	288	14
2023-09-16T18:00	18822	69	-57.9	-85.2	288	14
2023-09-16T18:00	18850	69	-58.0	-85.2	289	13
2023-09-16T18:00	18872	69	-57.8	-85.1	289	12
2023-09-16T18:00	18899	68	-57.8	-85.1	289	11
2023-09-16T18:00	18921	68	-57.9	-85.2	288	10
2023-09-16T18:00	18949	68	-58.1	-85.3	287	10
2023-09-16T18:00	18971	68	-58.2	-85.4	285	9
2023-09-16T18:00	18994	67	-58.0	-85.2	282	9
2023-09-16T18:00	19021	67	-57.9	-85.2	279	9
2023-09-16T18:00	19043	67	-57.7	-85.0	276	10
2023-09-16T18:00	19067	67	-57.7	-85.4	275	10
2023-09-16T18:00	19088	66	-57.7	-85.4	274	10
2023-09-16T18:00	19112	66	-57.7	-85.4	273	11
2023-09-16T18:00	19132	66	-57.6	-85.3	273	11
2023-09-16T18:00	19157	66	-57.7	-85.4	273	11
2023-09-16T18:00	19179	65	-57.7	-85.4	274	11
2023-09-16T18:00	19202	65	-57.5	-85.2	275	11
2023-09-16T18:00	19226	65	-57.5	-85.2	275	11
2023-09-16T18:00	19249	65	-57.4	-85.2	275	12
2023-09-16T18:00	19273	64	-57.4	-85.2	276	12
2023-09-16T18:00	19297	64	-57.5	-85.2	276	12
2023-09-16T18:00	19318	64	-57.5	-85.2	277	12
2023-09-16T18:00	19342	64	-57.6	-85.3	277	12
2023-09-16T18:00	19368	64	-57.5	-85.2	278	12
2023-09-16T18:00	19391	63	-57.5	-85.2	279	12
2023-09-16T18:00	19414	63	-57.5	-85.2	279	12
2023-09-16T18:00	19439	63	-57.4	-85.2	279	12
2023-09-16T18:00	19463	63	-57.3	-85.1	279	12
2023-09-16T18:00	19486	62	-57.3	-85.1	280	12
2023-09-16T18:00	19512	62	-57.4	-85.2	281	12
2023-09-16T18:00	19535	62	-57.3	-85.5	282	12
2023-09-16T18:00	19563	62	-57.2	-85.4	282	12
2023-09-16T18:00	19583	61	-56.8	-85.1	282	12
2023-09-16T18:00	19611	61	-56.6	-84.9	283	11
2023-09-16T18:00	19636	61	-56.7	-85.0	283	11
2023-09-16T18:00	19660	61	-56.9	-85.2	285	11
2023-09-16T18:00	19685	60	-57.1	-85.3	288	11
2023-09-16T18:00	19712	60	-56.7	-85.0	292	11
2023-09-16T18:00	19738	60	-56.9	-85.2	297	11
2023-09-16T18:00	19763	60	-56.7	-85.0	302	11
2023-09-16T18:00	19789	59	-56.5	-84.9	307	11
2023-09-16T18:00	19812	59	-56.6	-84.9	311	10
2023-09-16T18:00	19837	59	-56.6	-84.9	313	10
2023-09-16T18:00	19865	59	-56.6	-84.9	315	9
2023-09-16T18:00	19891	59	-56.4	-84.8	314	9
2023-09-16T18:00	19918	58	-56.3	-84.7	313	8
2023-09-16T18:00	19938	58	-56.4	-84.8	311	7
2023-09-16T18:00	19967	58	-56.7	-85.0	308	7
2023-09-16T18:00	19991	58	-56.8	-84.7	305	6
2023-09-16T18:00	20017	57	-56.9	-84.8	302	6
2023-09-16T18:00	20040	57	-56.9	-84.8	299	5
2023-09-16T18:00	20064	57	-57.1	-84.9	296	5
2023-09-16T18:00	20092	57	-57.2	-85.0	296	5
2023-09-16T18:00	20114	56	-57.2	-85.0	297	5
2023-09-16T18:00	20139	56	-57.1	-84.9	299	5
2023-09-16T18:00	20160	56	-57.1	-84.9	302	5
2023-09-16T18:00	20189	56	-57.3	-85.1	306	5
2023-09-16T18:00	20213	56	-57.4	-85.2	309	6
2023-09-16T18:00	20239	55	-57.5	-85.2	311	6
2023-09-16T18:00	20260	55	-57.6	-84.9	312	6
2023-09-16T18:00	20287	55	-57.8	-85.5	313	6
2023-09-16T18:00	20311	55	-57.9	-85.5	314	7
2023-09-16T18:00	20335	55	-57.9	-85.5	315	6
2023-09-16T18:00	20364	54	-57.7	-85.4	316	6
2023-09-16T18:00	20389	54	-57.5	-85.2	318	6
2023-09-16T18:00	20415	54	-57.6	-85.3	319	5
2023-09-16T18:00	20439	54	-57.3	-85.5	320	4
2023-09-16T18:00	20461	53	-57.2	-85.4	318	3
2023-09-16T18:00	20490	53	-57.2	-85.0	315	3
2023-09-16T18:00	20515	53	-57.3	-85.1	309	2
2023-09-16T18:00	20540	53	-57.4	-85.2	299	2
2023-09-16T18:00	20565	53	-57.5	-85.2	282	1
2023-09-16T18:00	20589	52	-57.6	-85.3	257	1
2023-09-16T18:00	20617	52	-57.7	-85.4	237	1
2023-09-16T18:00	20640	52	-57.9	-85.5	229	2
2023-09-16T18:00	20667	52	-58.0	-85.6	227	3
2023-09-16T18:00	20693	52	-58.0	-85.6	226	3
2023-09-16T18:00	20721	51	-57.7	-85.4	225	4
2023-09-16T18:00	20744	51	-57.5	-85.2	224	5
2023-09-16T18:00	20770	51	-57.4	-85.2	223	5
2023-09-16T18:00	20791	51	-57.5	-85.2	224	5
2023-09-16T18:00	20816	51	-57.6	-85.3	226	6
2023-09-16T18:00	20843	50	-57.8	-85.1	228	6
2023-09-16T18:00	20869	50	-57.9	-85.2	232	7
2023-09-16T18:00	20893	50	-58.0	-85.2	236	7
2023-09-16T18:00	20921	50	-58.1	-85.3	240	8
2023-09-16T18:00	20946	49	-58.2	-85.4	246	8
2023-09-16T18:00	20973	49	-58.1	-85.7	252	8
2023-09-16T18:00	20997	49	-58.0	-85.6	258	8
2023-09-16T18:00	21025	49	-57.8	-85.5	264	8
2023-09-16T18:00	21049	49	-57.4	-85.6	268	9
2023-09-16T18:00	21074	49	-57.2	-85.4	271	9
2023-09-16T18:00	21097	48	-56.8	-85.5	274	9
2023-09-16T18:00	21123	48	-56.7	-85.4	278	9
2023-09-16T18:00	21148	48	-56.5	-85.3	283	8
2023-09-16T18:00	21173	48	-56.3	-85.1	289	8
2023-09-16T18:00	21194	48	-56.0	-84.9	294	8
2023-09-16T18:00	21223	47	-56.0	-84.9	300	7
2023-09-16T18:00	21248	47	-56.1	-84.6	304	7
2023-09-16T18:00	21276	47	-56.3	-84.7	308	7
2023-09-16T18:00	21299	47	-56.5	-84.9	311	6
2023-09-16T18:00	21326	47	-56.6	-84.5	314	6
2023-09-16T18:00	21349	46	-56.8	-84.7	317	5
2023-09-16T18:00	21375	46	-56.9	-84.8	318	4
2023-09-16T18:00	21399	46	-56.9	-85.2	318	4
2023-09-16T18:00	21424	46	-56.7	-85.0	314	3
2023-09-16T18:00	21445	46	-56.7	-85.0	305	3
2023-09-16T18:00	21475	46	-56.7	-85.0	291	3
2023-09-16T18:00	21499	45	-56.6	-84.9	275	3
2023-09-16T18:00	21527	45	-56.7	-85.0	263	3
2023-09-16T18:00	21551	45	-56.4	-84.8	257	4
2023-09-16T18:00	21577	45	-56.3	-84.7	253	5
2023-09-16T18:00	21600	45	-56.4	-84.8	252	6
2023-09-16T18:00	21623	44	-56.5	-84.9	251	7
2023-09-16T18:00	21650	44	-56.6	-84.9	253	7
2023-09-16T18:00	21673	44	-56.7	-85.0	256	8
2023-09-16T18:00	21700	44	-56.6	-84.9	261	8
2023-09-16T18:00	21727	44	-56.5	-84.9	267	8
2023-09-16T18:00	21752	44	-56.2	-84.6	273	8
2023-09-16T18:00	21774	43	-56.2	-85.1	278	8
2023-09-16T18:00	21803	43	-56.1	-85.0	283	8
2023-09-16T18:00	21827	43	-56.0	-84.9	286	8
2023-09-16T18:00	21850	43	-55.9	-84.8	288	8
2023-09-16T18:00	21882	43	-55.7	-84.7	289	8
2023-09-16T18:00	21899	43	-55.7	-84.7	290	8
2023-09-16T18:00	21923	42	-55.9	-84.8	292	8
2023-09-16T18:00	21947	42	-56.0	-84.5	293	7
2023-09-16T18:00	21975	42	-56.1	-84.6	295	6
2023-09-16T18:00	22004	42	-56.1	-84.6	296	5
2023-09-16T18:00	22030	42	-56.2	-84.6	296	5
2023-09-16T18:00	22054	42	-56.2	-84.6	293	4
2023-09-16T18:00	22080	41	-56.1	-84.6	288	4
2023-09-16T18:00	22106	41	-56.1	-85.0	281	3
2023-09-16T18:00	22131	41	-56.0	-84.9	275	4
2023-09-16T18:00	22154	41	-56.0	-84.9	273	4
2023-09-16T18:00	22182	41	-55.9	-84.8	274	5
2023-09-16T18:00	22205	41	-55.8	-84.8	277	6
2023-09-16T18:00	22233	40	-55.9	-84.8	281	7
2023-09-16T18:00	22259	40	-55.8	-84.8	285	7
2023-09-16T18:00	22281	40	-55.9	-84.8	289	8
2023-09-16T18:00	22308	40	-55.7	-84.7	294	8
2023-09-16T18:00	22337	40	-55.6	-84.6	298	8
2023-09-16T18:00	22356	40	-55.6	-84.6	301	8
2023-09-16T18:00	22382	39	-55.5	-84.5	303	8
2023-09-16T18:00	22404	39	-55.5	-84.5	303	7
2023-09-16T18:00	22435	39	-55.4	-84.5	302	7
2023-09-16T18:00	22461	39	-55.3	-84.4	298	6
2023-09-16T18:00	22490	39	-55.2	-84.3	292	5
2023-09-16T18:00	22518	39	-55.1	-84.2	283	4
2023-09-16T18:00	22550	38	-55.3	-84.4	273	4
2023-09-16T18:00	22571	38	-55.4	-84.5	264	4
2023-09-16T18:00	22595	38	-55.0	-84.2	259	4
2023-09-16T18:00	22624	38	-54.9	-84.1	258	5
2023-09-16T18:00	22645	38	-55.1	-84.2	260	5
2023-09-16T18:00	22674	38	-55.3	-84.4	263	6
2023-09-16T18:00	22700	38	-55.4	-84.5	266	6
2023-09-16T18:00	22727	37	-55.4	-84.5	270	7
2023-09-16T18:00	22752	37	-55.3	-84.4	273	7
2023-09-16T18:00	22778	37	-55.1	-84.2	277	7
2023-09-16T18:00	22809	37	-55.0	-84.2	282	7
2023-09-16T18:00	22834	37	-55.0	-84.6	288	7
2023-09-16T18:00	22856	37	-54.9	-84.6	295	7
2023-09-16T18:00	22878	37	-55.0	-84.6	302	7
2023-09-16T18:00	22910	36	-54.7	-84.4	309	7
2023-09-16T18:00	22934	36	-54.7	-84.4	315	7
2023-09-16T18:00	22956	36	-54.5	-84.3	320	7
2023-09-16T18:00	22988	36	-54.4	-84.2	323	7
2023-09-16T18:00	23009	36	-54.3	-84.1	325	7
2023-09-16T18:00	23033	36	-54.4	-84.2	326	6
2023-09-16T18:00	23063	36	-54.4	-84.2	324	6
2023-09-16T18:00	23089	35	-54.2	-84.0	320	5
2023-09-16T18:00	23113	35	-54.4	-84.2	313	5
2023-09-16T18:00	23140	35	-54.5	-84.3	303	5
2023-09-16T18:00	23166	35	-54.5	-84.3	292	4
2023-09-16T18:00	23191	35	-54.3	-84.1	281	4
2023-09-16T18:00	23214	35	-54.3	-84.1	273	4
2023-09-16T18:00	23245	35	-54.4	-84.2	269	5
2023-09-16T18:00	23269	34	-54.3	-84.1	268	5
2023-09-16T18:00	23296	34	-54.4	-84.2	271	4
2023-09-16T18:00	23321	34	-54.5	-84.3	276	5
2023-09-16T18:00	23353	34	-54.6	-84.3	281	5
2023-09-16T18:00	23379	34	-54.7	-84.4	285	5
2023-09-16T18:00	23404	34	-54.5	-84.3	285	5
2023-09-16T18:00	23428	34	-54.5	-84.3	283	5
2023-09-16T18:00	23456	33	-54.5	-84.3	278	5
2023-09-16T18:00	23478	33	-54.6	-84.3	273	5
2023-09-16T18:00	23509	33	-54.6	-83.9	267	5
2023-09-16T18:00	23540	33	-54.7	-83.9	263	5
2023-09-16T18:00	23565	33	-54.9	-84.1	260	6
2023-09-16T18:00	23591	33	-55.0	-84.2	259	6
2023-09-16T18:00	23619	33	-55.1	-84.2	260	7
2023-09-16T18:00	23647	32	-55.1	-84.2	261	7
2023-09-16T18:00	23678	32	-55.2	-84.3	264	7
2023-09-16T18:00	23701	32	-55.2	-84.3	267	7
2023-09-16T18:00	23729	32	-54.9	-84.6	269	8
2023-09-16T18:00	23753	32	-54.8	-84.5	270	8
2023-09-16T18:00	23783	32	-54.9	-84.6	271	8
2023-09-16T18:00	23810	32	-54.9	-84.6	271	8
2023-09-16T18:00	23837	31	-54.7	-84.4	271	8
2023-09-16T18:00	23868	31	-54.8	-84.5	273	8
2023-09-16T18:00	23894	31	-54.7	-84.4	275	9
2023-09-16T18:00	23917	31	-54.5	-84.3	279	9
2023-09-16T18:00	23945	31	-54.3	-84.1	283	9
2023-09-16T18:00	23971	31	-54.2	-84.0	287	9
2023-09-16T18:00	23994	31	-54.2	-84.0	289	9
2023-09-16T18:00	24021	31	-54.2	-84.0	290	9
2023-09-16T18:00	24042	30	-54.1	-84.0	290	9
2023-09-16T18:00	24072	30	-54.1	-84.0	290	9
2023-09-16T18:00	24097	30	-54.1	-84.0	290	8
2023-09-16T18:00	24128	30	-54.1	-84.0	291	8
2023-09-16T18:00	24161	30	-54.1	-84.0	292	8
2023-09-16T18:00	24180	30	-53.8	-83.7	295	8
2023-09-16T18:00	24205	30	-53.8	-84.2	297	7
2023-09-16T18:00	24236	30	-53.8	-84.2	299	7
2023-09-16T18:00	24264	29	-53.6	-84.1	299	6
2023-09-16T18:00	24288	29	-53.5	-84.0	298	5
2023-09-16T18:00	24314	29	-53.3	-83.9	295	4
2023-09-16T18:00	24339	29	-53.3	-83.9	289	4
2023-09-16T18:00	24365	29	-53.4	-83.9	276	3
2023-09-16T18:00	24398	29	-53.5	-84.0	257	2
2023-09-16T18:00	24421	29	-53.5	-83.5	235	2
2023-09-16T18:00	24445	29	-53.5	-83.5	219	3
2023-09-16T18:00	24474	28	-53.5	-83.5	211	3
2023-09-16T18:00	24501	28	-53.5	-83.5	207	4
2023-09-16T18:00	24528	28	-53.6	-83.6	206	5
2023-09-16T18:00	24554	28	-53.7	-83.7	206	5
2023-09-16T18:00	24582	28	-53.9	-83.8	208	6
2023-09-16T18:00	24605	28	-53.8	-83.7	209	7
2023-09-16T18:00	24629	28	-53.6	-83.6	211	7
2023-09-16T18:00	24663	28	-53.6	-83.6	214	7
2023-09-16T18:00	24695	28	-53.6	-84.1	217	7
2023-09-16T18:00	24710	27	-53.4	-83.9	220	7
2023-09-16T18:00	24737	27	-53.5	-83.5	223	8
2023-09-16T18:00	24770	27	-53.6	-83.6	226	8
2023-09-16T18:00	24790	27	-53.6	-83.6	229	8
2023-09-16T18:00	24825	27	-53.8	-83.7	233	8
2023-09-16T18:00	24855	27	-53.9	-83.8	236	8
2023-09-16T18:00	24878	27	-54.0	-83.9	239	8
2023-09-16T18:00	24908	27	-54.2	-84.0	242	8
2023-09-16T18:00	24940	27	-54.4	-83.7	245	8
2023-09-16T18:00	24965	26	-54.6	-83.9	247	9
2023-09-16T18:00	24988	26	-54.7	-83.9	249	9
2023-09-16T18:00	25024	26	-54.8	-84.0	250	9
2023-09-16T18:00	25048	26	-54.6	-84.3	250	9
2023-09-16T18:00	25078	26	-54.5	-84.3	250	9
2023-09-16T18:00	25104	26	-54.6	-84.3	248	9
2023-09-16T18:00	25137	26	-54.7	-84.4	245	9
2023-09-16T18:00	25157	26	-54.7	-84.4	241	9
2023-09-16T18:00	25188	25	-54.7	-84.4	237	9
2023-09-16T18:00	25225	25	-54.9	-84.6	235	9
2023-09-16T18:00	25244	25	-55.0	-84.6	234	9
2023-09-16T18:00	25267	25	-54.9	-84.6	235	9
2023-09-16T18:00	25301	25	-54.8	-84.5	238	10
2023-09-16T18:00	25330	25	-54.7	-84.4	243	10
2023-09-16T18:00	25356	25	-54.7	-84.4	248	10
2023-09-16T18:00	25389	25	-54.7	-84.4	252	11
2023-09-16T18:00	25409	25	-54.4	-84.2	256	11
2023-09-16T18:00	25441	25	-54.3	-84.1	259	12
2023-09-16T18:00	25470	24	-54.3	-84.6	262	12
2023-09-16T18:00	25495	24	-54.3	-84.6	265	12
2023-09-16T18:00	25524	24	-54.4	-84.7	269	12
2023-09-16T18:00	25553	24	-54.2	-84.5	273	12
2023-09-16T18:00	25569	24	-54.2	-84.5	277	12
2023-09-16T18:00	25600	24	-54.0	-84.4	281	12
2023-09-16T18:00	25626	24	-53.9	-84.3	285	11
2023-09-16T18:00	25659	24	-53.9	-84.3	287	11
2023-09-16T18:00	25684	24	-53.8	-84.2	289	10
2023-09-16T18:00	25705	24	-53.6	-84.1	289	9
2023-09-16T18:00	25731	23	-53.6	-84.1	288	9
2023-09-16T18:00	25760	23	-53.6	-84.1	287	8
2023-09-16T18:00	25786	23	-53.7	-83.7	286	8
2023-09-16T18:00	25824	23	-53.9	-83.8	285	8
2023-09-16T18:00	25838	23	-54.0	-83.9	284	8
2023-09-16T18:00	25869	23	-54.2	-84.0	283	9
2023-09-16T18:00	25896	23	-54.3	-84.1	283	9
2023-09-16T18:00	25925	23	-54.3	-84.1	283	9
2023-09-16T18:00	25950	23	-54.3	-84.1	283	10
2023-09-16T18:00	25977	23	-54.4	-84.2	284	10
2023-09-16T18:00	25991	22	-54.4	-84.2	285	10
2023-09-16T18:00	26029	22	-54.2	-84.0	287	9
2023-09-16T18:00	26057	22	-54.0	-83.9	288	9
2023-09-16T18:00	26086	22	-54.0	-84.4	289	9
2023-09-16T18:00	26112	22	-54.0	-84.4	290	9
2023-09-16T18:00	26136	22	-53.9	-84.3	289	9
2023-09-16T18:00	26163	22	-53.7	-84.2	288	9
2023-09-16T18:00	26191	22	-53.7	-84.2	287	9
2023-09-16T18:00	26215	22	-53.6	-84.1	285	10
2023-09-16T18:00	26237	22	-53.6	-84.1	284	10
2023-09-16T18:00	26272	22	-53.7	-84.2	284	10
2023-09-16T18:00	26295	21	-53.7	-84.2	284	10
2023-09-16T18:00	26323	21	-53.6	-84.1	285	10
2023-09-16T18:00	26354	21	-53.4	-83.9	286	10
2023-09-16T18:00	26382	21	-53.2	-83.8	288	10
2023-09-16T18:00	26412	21	-53.2	-83.8	289	10
2023-09-16T18:00	26436	21	-53.2	-83.8	290	10
2023-09-16T18:00	26462	21	-53.1	-83.7	290	9
2023-09-16T18:00	26488	21	-53.1	-83.7	289	9
2023-09-16T18:00	26521	21	-53.2	-83.8	288	9
2023-09-16T18:00	26545	21	-53.3	-83.9	287	9
2023-09-16T18:00	26577	21	-53.4	-83.9	286	9
2023-09-16T18:00	26605	20	-53.4	-83.9	285	9
2023-09-16T18:00	26632	20	-53.5	-84.0	283	9
2023-09-16T18:00	26656	20	-53.5	-84.0	281	9
2023-09-16T18:00	26679	20	-53.6	-84.1	280	9
2023-09-16T18:00	26711	20	-53.6	-84.1	279	9
2023-09-16T18:00	26741	20	-53.5	-84.0	279	10
2023-09-16T18:00	26769	20	-53.5	-84.0	280	10
2023-09-16T18:00	26795	20	-53.5	-84.0	281	10
2023-09-16T18:00	26823	20	-53.4	-83.9	282	10
2023-09-16T18:00	26851	20	-53.4	-83.9	282	10
2023-09-16T18:00	26883	20	-53.3	-83.9	282	10
2023-09-16T18:00	26906	20	-53.3	-83.9	280	10
2023-09-16T18:00	26933	19	-53.3	-83.9	279	10
2023-09-16T18:00	26966	19	-53.0	-83.6	277	10
2023-09-16T18:00	26991	19	-52.9	-84.1	276	10
2023-09-16T18:00	27020	19	-52.8	-84.1	276	9
2023-09-16T18:00	27051	19	-52.6	-83.9	278	9
2023-09-16T18:00	27076	19	-52.4	-83.8	281	9
2023-09-16T18:00	27103	19	-52.1	-83.5	284	9
2023-09-16T18:00	27130	19	-51.8	-83.9	287	9
2023-09-16T18:00	27155	19	-51.5	-83.7	289	10
2023-09-16T18:00	27183	19	-51.2	-83.5	289	10
2023-09-16T18:00	27216	19	-51.1	-83.4	289	10
2023-09-16T18:00	27248	19	-51.0	-83.3	288	11
2023-09-16T18:00	27266	18	-50.6	-83.1	287	12
2023-09-16T18:00	27299	18	-50.3	-82.8	287	12
2023-09-16T18:00	27329	18	-50.3	-82.8	287	12
2023-09-16T18:00	27357	18	-50.2	-82.8	287	12
2023-09-16T18:00	27381	18	-50.1	-82.7	288	11
2023-09-16T18:00	27411	18	-49.7	-82.4	289	11
2023-09-16T18:00	27434	18	-49.8	-82.5	290	10
2023-09-16T18:00	27464	18	-49.8	-82.5	289	10
2023-09-16T18:00	27492	18	-49.8	-82.5	288	10
2023-09-16T18:00	27520	18	-49.6	-82.3	287	10
2023-09-16T18:00	27550	18	-49.3	-82.1	286	10
2023-09-16T18:00	27572	18	-49.0	-81.9	286	10
2023-09-16T18:00	27597	18	-48.8	-82.4	285	10
2023-09-16T18:00	27625	17	-48.4	-82.2	286	11
2023-09-16T18:00	27663	17	-48.2	-82.0	286	11
2023-09-16T18:00	27688	17	-48.1	-81.9	286	11
2023-09-16T18:00	27705	17	-47.9	-81.8	287	11
2023-09-16T18:00	27738	17	-47.9	-81.8	287	12
2023-09-16T18:00	27765	17	-47.7	-81.6	288	12
2023-09-16T18:00	27795	17	-47.6	-81.6	287	12
2023-09-16T18:00	27822	17	-47.6	-81.6	287	12
2023-09-16T18:00	27842	17	-47.5	-81.5	286	12
2023-09-16T18:00	27881	17	-47.5	-81.5	285	12
2023-09-16T18:00	27907	17	-47.3	-81.4	285	12
2023-09-16T18:00	27929	17	-47.1	-81.2	286	12
2023-09-16T18:00	27969	17	-47.0	-81.1	287	12
2023-09-16T18:00	27995	17	-46.8	-81.0	288	12
2023-09-16T18:00	28014	16	-46.8	-81.0	290	11
2023-09-16T18:00	28048	16	-46.7	-80.9	292	11
2023-09-16T18:00	28086	16	-46.6	-80.9	293	11
2023-09-16T18:00	28104	16	-46.7	-80.9	294	11
2023-09-16T18:00	28147	16	-46.8	-81.0	295	11
2023-09-16T18:00	28168	16	-46.9	-81.1	295	11
2023-09-16T18:00	28207	16	-46.9	-81.1	295	11
2023-09-16T18:00	28239	16	-47.1	-80.5	294	11
2023-09-16T18:00	28263	16	-47.2	-80.6	294	11
2023-09-16T18:00	28295	16	-47.2	-80.6	293	11
2023-09-16T18:00	28326	16	-47.3	-80.6	293	12
2023-09-16T18:00	28365	16	-47.3	-80.6	293	12
2023-09-16T18:00	28385	16	-47.2	-81.3	293	12
2023-09-16T18:00	28417	16	-47.2	-81.3	293	12
2023-09-16T18:00	28444	15	-47.3	-81.4	292	12
2023-09-16T18:00	28480	15	-47.4	-81.4	291	11
2023-09-16T18:00	28515	15	-47.3	-81.4	291	11
2023-09-16T18:00	28534	15	-47.2	-81.3	289	10
2023-09-16T18:00	28582	15	-47.2	-81.3	286	10
2023-09-16T18:00	28609	15	-47.3	-81.4	283	10
2023-09-16T18:00	28630	15	-47.2	-81.3	279	10
2023-09-16T18:00	28674	15	-47.2	-81.3	276	10
2023-09-16T18:00	28689	15	-47.1	-81.2	274	10
2023-09-16T18:00	28724	15	-46.9	-81.1	273	11
2023-09-16T18:00	28760	15	-47.0	-81.1	272	11
2023-09-16T18:00	28781	15	-47.0	-81.1	272	11
2023-09-16T18:00	28819	15	-47.2	-81.3	272	11
2023-09-16T18:00	28847	15	-47.2	-81.3	272	12
2023-09-16T18:00	28879	14	-47.1	-81.2	273	12
2023-09-16T18:00	28904	14	-47.0	-81.1	274	12
2023-09-16T18:00	28950	14	-46.9	-81.1	276	11
2023-09-16T18:00	28968	14	-46.6	-80.9	279	11
2023-09-16T18:00	28997	14	-46.5	-80.8	282	11
2023-09-16T18:00	29029	14	-46.4	-80.7	286	11
2023-09-16T18:00	29065	14	-46.2	-80.6	289	11
2023-09-16T18:00	29082	14	-46.1	-81.3	291	11
2023-09-16T18:00	29131	14	-45.7	-81.0	291	11
2023-09-16T18:00	29142	14	-45.6	-80.9	290	11
2023-09-16T18:00	29175	14	-45.6	-80.9	287	11
2023-09-16T18:00	29199	14	-45.4	-80.8	283	11
2023-09-16T18:00	29232	14	-45.2	-80.7	279	11
2023-09-16T18:00	29263	14	-45.1	-80.6	277	11
2023-09-16T18:00	29292	14	-45.1	-80.6	277	12
2023-09-16T18:00	29333	14	-44.8	-80.4	278	12
2023-09-16T18:00	29351	13	-44.5	-80.1	280	13
2023-09-16T18:00	29387	13	-44.5	-80.1	283	13
2023-09-16T18:00	29418	13	-44.5	-80.1	285	13
2023-09-16T18:00	29441	13	-44.5	-80.1	287	13
2023-09-16T18:00	29478	13	-44.5	-80.1	289	13
2023-09-16T18:00	29502	13	-44.5	-80.1	290	13
2023-09-16T18:00	29527	13	-44.7	-80.3	290	13
2023-09-16T18:00	29570	13	-44.7	-80.3	291	13
2023-09-16T18:00	29599	13	-44.6	-80.2	291	13
2023-09-16T18:00	29624	13	-44.5	-80.1	291	13
2023-09-16T18:00	29669	13	-44.5	-80.1	291	12
2023-09-16T18:00	29692	13	-44.5	-80.1	290	12
2023-09-16T18:00	29729	13	-44.4	-80.1	290	12
2023-09-16T18:00	29768	13	-44.4	-80.1	289	12
2023-09-16T18:00	29777	13	-44.2	-79.9	288	11
2023-09-16T18:00	29821	13	-43.9	-79.7	286	11
2023-09-16T18:00	29849	13	-43.9	-79.7	285	11
2023-09-16T18:00	29875	12	-43.9	-79.7	284	11
2023-09-16T18:00	29913	12	-43.7	-79.6	283	11
2023-09-16T18:00	29937	12	-43.5	-79.4	282	11
2023-09-16T18:00	29968	12	-43.5	-79.4	281	11
2023-09-16T18:00	30008	12	-43.4	-79.4	279	11
2023-09-16T18:00	30042	12	-43.4	-79.4	277	11
2023-09-16T18:00	30070	12	-43.3	-79.3	275	11
2023-09-16T18:00	30102	12	-43.3	-79.3	274	12
2023-09-16T18:00	30133	12	-43.1		273	12
2023-09-16T18:00	30157	12	-42.9	-79.0	274	12
2023-09-16T18:00	30208	12	-42.8	-79.9	274	12
2023-09-16T18:00	30275	12	-42.7	-78.9	277	12
2023-09-16T18:00	30293	12	-42.7	-78.9	278	12
2023-09-16T18:00	30302	12	-42.8	-78.9	278	12
2023-09-16T18:00	30342	12	-43.0	-79.1	277	11
2023-09-16T18:00	30385	12	-42.9	-79.0	275	11
2023-09-16T18:00	30401	12	-42.7	-78.9	273	11
2023-09-16T18:00	30450	11	-42.7	-79.8	272	11
2023-09-16T18:00	30478	11	-42.4	-79.6	270	11
2023-09-16T18:00	30504	11	-42.4	-79.6	269	11
2023-09-16T18:00	30528	11	-42.2	-79.5	267	10
2023-09-16T18:00	30575	11	-42.1	-79.4	266	10
2023-09-16T18:00	30598	11	-42.0	-79.3	265	9
2023-09-16T18:00	30612	11	-42.0	-79.3	263	9
2023-09-16T18:00	30656	11	-42.0	-79.3	261	9
2023-09-16T18:00	30677	11	-41.8	-79.2	259	9
2023-09-16T18:00	30694	11	-41.5	-79.0	259	9
2023-09-16T18:00	30739	11	-41.3	-78.8	258	10
2023-09-16T18:00	30776	11	-41.2	-78.8	258	10
2023-09-16T18:00	30803	11	-41.2	-78.8	258	11
2023-09-16T18:00	30850	11	-41.0	-78.6	257	12
2023-09-16T18:00	30865	11	-41.0	-78.6	257	13
2023-09-16T18:00	30884	11	-40.9		256	13
2023-09-16T18:00	30923	11	-41.0	-78.6	255	14
2023-09-16T18:00	30955	11	-41.2	-78.8	255	14
2023-09-16T18:00	30974	11	-41.5	-79.0	256	14
2023-09-16T18:00	31006	11	-41.8	-79.2	257	15
2023-09-16T18:00	31034	11	-41.9	-79.2	259	15
2023-09-16T18:00	31061	10	-41.8	-79.2	261	15
2023-09-16T18:00	31098	10	-41.7	-79.1	263	15
2023-09-16T18:00	31117	10	-41.7	-79.1	264	16
2023-09-16T18:00	31162	10	-41.7	-79.1	265	16
2023-09-16T18:00	31175	10	-41.6	-79.0	265	16
2023-09-16T18:00	31223	10	-41.5	-79.0	264	16
2023-09-16T18:00	31247	10	-41.5	-79.0	264	15
2023-09-16T18:00	31285	10	-41.5	-79.0	265	15
2023-09-16T18:00	31311	10	-41.6	-79.0	266	14
2023-09-16T18:00	31345	10	-41.6	-79.0	267	14
2023-09-16T18:00	31372	10	-41.4	-78.9	269	14
2023-09-16T18:00	31407	10	-41.6	-79.0	271	14
2023-09-16T18:00	31428	10	-41.6	-79.0	272	14
2023-09-16T18:00	31464	10	-41.4	-78.9	273	15
2023-09-16T18:00	31478	10	-41.4	-78.9	274	15
2023-09-16T18:00	31531	10	-41.3	-78.8	274	15
2023-09-16T18:00	31551	10	-41.3	-78.8	275	15
2023-09-16T18:00	31575	10	-41.3	-78.8	276	15
2023-09-16T18:00	31605	10	-41.3	-78.8	277	15
2023-09-16T18:00	31660	10	-41.4	-78.9	277	16
2023-09-16T18:00	31703	10	-41.4	-78.9	278	16
2023-09-16T18:00	31734	10	-41.2	-78.8	279	17
2023-09-16T18:00	31791	9	-40.7	-78.4	283	17
2023-09-16T18:00	31803	9	-40.7	-78.4	285	17
2023-09-16T18:00	31833	9	-40.7	-78.4	287	17
2023-09-16T18:00	31880	9	-40.7	-78.4	288	17
2023-09-16T18:00	31910	9	-40.6	-78.3	290	17
2023-09-16T18:00	31930	9	-40.8	-78.5	291	17
2023-09-16T18:00	31961	9	-41.0	-78.6	292	17
2023-09-16T18:00	32010	9	-41.1	-78.7	293	16
2023-09-16T18:00	32028	9	-41.1	-78.7	294	16
2023-09-16T18:00	32068	9	-41.1	-78.7	295	16
2023-09-16T18:00	32102	9	-40.9		296	15
2023-09-16T18:00	32115	9	-40.9		297	15
2023-09-16T18:00	32161	9	-40.9		297	14
2023-09-16T18:00	32189	9	-40.8	-78.5	297	13
2023-09-16T18:00	32223	9	-40.9		296	12
2023-09-16T18:00	32254	9	-40.8	-78.5	293	11
2023-09-16T18:00	32271	9	-40.5	-78.3	290	11
2023-09-16T18:00	32315	9	-40.2	-79.2	286	11
2023-09-16T18:00	32354	9	-40.1	-79.1	283	11
2023-09-16T18:00	32392	9	-40.1	-79.1	281	11
2023-09-16T18:00	32414	9	-40.1	-79.1	279	12
2023-09-16T18:00	32439	9	-40.2	-79.2	279	13
2023-09-16T18:00	32477	9	-40.0	-79.0	279	13
2023-09-16T18:00	32489	8	-39.7	-78.8	279	14
2023-09-16T18:00	32518	8	-39.7	-78.8	281	14
2023-09-16T18:00	32554	8	-39.5	-78.7	283	15
2023-09-16T18:00	32600	8	-39.3	-78.5	285	15
2023-09-16T18:00	32627	8	-39.0	-78.3	287	15
2023-09-16T18:00	32643	8	-38.7	-78.1	289	16
2023-09-16T18:00	32684	8	-38.3	-77.9	291	16
2023-09-16T18:00	32703	8	-37.7	-77.4	292	16
2023-09-16T18:00	32756	8	-37.5	-77.3	294	15
2023-09-16T18:00	32771	8	-37.7	-77.4	296	15
2023-09-16T18:00	32787	8	-37.9	-77.6	297	15
2023-09-16T18:00	32821	8	-37.8	-77.5	299	15
2023-09-16T18:00	32867	8	-38.0	-77.6	301	15
2023-09-16T18:00	32875	8	-38.2	-77.8	303	15
2023-09-16T18:00	32922	8	-38.5	-78.0	306	15
2023-09-16T18:00	32943	8	-38.5	-78.0	308	15
2023-09-16T18:00	32975	8	-38.6	-78.1	310	15
2023-09-16T18:00	32992	8	-38.5	-78.0	311	15
2023-09-16T18:00	33037	8	-38.5	-78.0	311	15
2023-09-16T18:00	33073	8	-38.5	-78.0	312	15
2023-09-16T18:00	33091	8	-38.4	-77.9	311	15
2023-09-16T18:00	33103	8	-38.2	-77.8	310	15
2023-09-16T18:00	33133	8	-38.2	-77.8	308	15
2023-09-16T18:00	33166	8	-38.4	-77.9	306	14
2023-09-16T18:00	33187	8	-38.4	-77.9	303	14
2023-09-16T18:00	33223	8	-38.3	-77.9	299	14
2023-09-16T18:00	33253	8	-38.3	-77.9	296	14
2023-09-16T18:00	33268	8	-38.3	-77.9	293	14
2023-09-16T18:00	33325	8	-38.1	-77.7	291	15
2023-09-16T18:00	33340	8	-38.0	-77.6	290	15
2023-09-16T18:00	33371	7	-38.0	-77.6	289	15
2023-09-16T18:00	33405	7	-37.8	-77.5	288	15
2023-09-16T18:00	33438	7	-37.7	-77.4	288	15
2023-09-16T18:00	33468	7	-37.6	-77.4	289	15
2023-09-16T18:00	33484	7	-37.6	-77.4	289	16
2023-09-16T18:00	33513	7	-37.6	-77.4	289	16
2023-09-16T18:00	33550	7	-37.2	-77.1	290	16
2023-09-16T18:00	33570	7	-37.1	-77.0	290	16
2023-09-16T18:00	33589	7	-37.1	-77.0	289	16
2023-09-16T18:00	33659	7	-37.3	-77.2	288	15
2023-09-16T18:00	33690	7	-37.3	-77.2	288	15
2023-09-16T18:00	33739	7	-37.2	-77.1	285	14
2023-09-16T18:00	33770	7	-37.2	-77.1	283	14
2023-09-16T18:00	33800	7	-37.5	-77.3	280	13
2023-09-16T18:00	33812	7	-37.7	-77.4	277	13
2023-09-16T18:00	33854	7	-37.9	-77.6	273	12
2023-09-16T18:00	33899	7	-38.1	-77.7	270	12
2023-09-16T18:00	33922	7	-38.2	-77.8	266	11
2023-09-16T18:00	33942	7	-38.3	-77.9	263	11
2023-09-16T18:00	34000	7	-38.4	-77.9	260	11
2023-09-16T18:00	34004	7	-38.5	-78.0	257	11
2023-09-16T18:00	34051	7	-38.6	-78.1	256	11
2023-09-16T18:00	34086	7	-38.5	-78.0	257	10
2023-09-16T18:00	34087	7	-38.6	-78.1	259	10
2023-09-16T18:00	34134	7	-38.8	-78.2	262	10
2023-09-16T18:00	34193	7	-38.3	-77.9	265	10
2023-09-16T18:00	34225	7	-38.4	-77.9	269	10
2023-09-16T18:00	34275	7	-38.4	-77.9	274	10
2023-09-16T18:00	34297	7	-38.5	-78.0	276	10
2023-09-16T18:00	34301	7	-38.4	-77.9	277	11
2023-09-16T18:00	34355	6	-38.5	-78.0	278	11
2023-09-16T18:00	34377	6	-38.6	-78.1	279	12
2023-09-16T18:00	34405	6	-38.7	-78.1	280	12
2023-09-16T18:00	34447	6	-38.9	-78.3	281	12
2023-09-16T18:00	34479	6	-39.0	-78.3	283	13
2023-09-16T18:00	34496	6	-39.2	-78.5	284	13
2023-09-16T18:00	34543	6	-39.3	-78.5	286	13
2023-09-16T18:00	34606	6	-39.2	-78.5	287	13
2023-09-16T18:00	34607	6	-39.0	-78.3	287	13
2023-09-16T18:00	34621	6	-38.7	-78.1	286	13
2023-09-16T18:00	34662	6	-38.6	-78.1	285	13
2023-09-16T18:00	34678	6	-38.7	-78.1	285	13
2023-09-16T18:00	34687	6	-38.6	-78.1	284	13
2023-09-16T18:00	34733	6	-38.5	-78.0	283	13
2023-09-16T18:00	34781	6	-38.5	-78.0	281	12
2023-09-16T18:00	34796	6	-38.5	-78.0	280	12
2023-09-16T18:00	34860	6	-38.4	-77.9	278	12
2023-09-16T18:00	34914	6	-38.3	-77.9	272	11
2023-09-16T18:00	34917	6	-38.4	-77.9	269	10
2023-09-16T18:00	34969	6	-38.5	-78.0	263	10
2023-09-16T18:00	35006	6	-38.6	-78.1	259	10
2023-09-16T18:00	35041	6	-38.8	-78.2	255	9
2023-09-16T18:00	35072	6	-38.8	-78.2	246	9
2023-09-16T18:00	35108	6	-38.6	-78.1	243	9
2023-09-16T18:00	35152	6	-38.5	-78.0	241	9
2023-09-16T18:00	35183	6	-38.4	-77.9	242	9
2023-09-16T18:00	35188	6	-38.1	-77.7	244	9
2023-09-16T18:00	35213	6	-38.0	-77.6	249	9
2023-09-16T18:00	35257	6	-37.9	-77.6	254	9
2023-09-16T18:00	35287	6	-37.8	-77.5	259	10
2023-09-16T18:00	35313	6	-37.9	-77.6	264	11
2023-09-16T18:00	35327	6	-37.9	-77.6	267	11
2023-09-16T18:00	35348	6	-38.0	-77.6	268	12
2023-09-16T18:00	35386	6	-38.0	-77.6	268	12
2023-09-16T18:00	35449	6	-37.9	-77.6	266	12
2023-09-16T18:00	35454	6	-36.8	-76.8	259	11
2023-09-16T18:00	35498	6	-36.5	-76.6	255	11
2023-09-16T18:00	35551	5	-36.4	-76.5	252	12
2023-09-16T18:00	35584	5	-36.1	-76.3	249	13
2023-09-16T18:00	35617	5	-35.8	-76.1	249	14
2023-09-16T18:00	35624	5	-35.8	-76.1	250	14
2023-09-16T18:00	35678	5	-35.8	-76.1	251	15
2023-09-16T18:00	35706	5	-34.6	-75.3	254	16
2023-09-16T18:00	35752	5	-34.4	-75.2	255	16
2023-09-16T18:00	35792	5	-34.4	-75.2	257	16
2023-09-16T18:00	35803	5	-34.6	-75.3	259	16
2023-09-16T18:00	35844	5	-34.7	-75.4	261	16
2023-09-17T00:00	112	1002	18.3	13.6	120	3
2023-09-17T00:00	135	999	19.0	14.0	165	3
2023-09-17T00:00	158	997	19.2	13.9	166	4
2023-09-17T00:00	182	994	19.3	13.9	168	6
2023-09-17T00:00	205	992	19.6	13.9	171	6
2023-09-17T00:00	223	989	20.1	13.7	174	7
2023-09-17T00:00	247	987	20.5	13.4	177	6
2023-09-17T00:00	263	985	21.4	13.0	181	6
2023-09-17T00:00	287	982	21.7	13.4	184	5
2023-09-17T00:00	312	979	21.7	13.3	187	4
2023-09-17T00:00	336	976	21.8	13.2	190	4
2023-09-17T00:00	368	973	21.9	12.5	195	3
2023-09-17T00:00	388	971	21.8	12.4	205	2
2023-09-17T00:00	412	968	21.7	12.3	224	2
2023-09-17T00:00	436	965	21.5	12.2	242	2
2023-09-17T00:00	462	963	21.3	12.1	252	3
2023-09-17T00:00	484	960	21.1	12.0	255	3
2023-09-17T00:00	509	957	20.9	12.0	255	3
2023-09-17T00:00	540	954	20.7	12.1	253	3
2023-09-17T00:00	566	951	20.4	11.9	249	3
2023-09-17T00:00	590	948	20.2		242	2
2023-09-17T00:00	614	946	20.0	11.8	234	2
2023-09-17T00:00	639	943	19.8	11.7	224	2
2023-09-17T00:00	664	940	19.6	11.7	214	2
2023-09-17T00:00	692	937	19.3	11.6	208	3
2023-09-17T00:00	717	934	19.1	11.4	205	3
2023-09-17T00:00	743	932	18.9	11.3	206	3
2023-09-17T00:00	765	929	18.7	11.4	208	4
2023-09-17T00:00	793	926	18.4	11.3	211	4
2023-09-17T00:00	818	924	18.3	11.3	213	4
2023-09-17T00:00	841	921	18.1	11.3	215	5
2023-09-17T00:00	868	918	17.9	11.1	217	5
2023-09-17T00:00	898	915	17.7	10.9	219	5
2023-09-17T00:00	927	912	17.5	11.0	220	5
2023-09-17T00:00	949	910	17.3	10.9	221	4
2023-09-17T00:00	974	907	17.0	10.7	221	4
2023-09-17T00:00	993	905	16.8	10.8	218	4
2023-09-17T00:00	1019	902	16.6	10.9	213	4
2023-09-17T00:00	1042	900	16.4	10.8	208	4
2023-09-17T00:00	1071	897	16.1	10.4	205	5
2023-09-17T00:00	1098	894	15.9	10.4	203	5
2023-09-17T00:00	1118	892	15.6	10.3	204	5
2023-09-17T00:00	1142	889	15.4	10.4	207	5
2023-09-17T00:00	1171	886	15.1	10.5	210	5
2023-09-17T00:00	1198	883	14.9	10.4	213	5
2023-09-17T00:00	1223	881	14.6	10.3	216	5
2023-09-17T00:00	1249	878	14.4	10.2	218	5
2023-09-17T00:00	1272	876	14.1		219	5
2023-09-17T00:00	1301	873	13.9	10.1	219	6
2023-09-17T00:00	1323	870	13.6	9.9	219	6
2023-09-17T00:00	1346	868	13.4	9.7	218	6
2023-09-17T00:00	1368	866	13.2	9.9	217	6
2023-09-17T00:00	1392	863	13.0	9.7	216	6
2023-09-17T00:00	1417	861	12.8	9.5	216	6
2023-09-17T00:00	1443	858	12.5	8.9	216	6
2023-09-17T00:00	1468	855	12.4	8.0	217	6
2023-09-17T00:00	1490	853	12.3	7.4	219	6
2023-09-17T00:00	1514	851	12.2	6.2	221	5
2023-09-17T00:00	1535	849	12.1	5.3	222	4
2023-09-17T00:00	1556	847	12.0	5.3	221	4
2023-09-17T00:00	1578	844	11.9	4.7	217	3
2023-09-17T00:00	1599	842	11.7	4.4	212	3
2023-09-17T00:00	1620	840	11.6		209	3
2023-09-17T00:00	1648	837	11.4		208	4
2023-09-17T00:00	1671	835	11.1	4.8	210	4
2023-09-17T00:00	1695	833	10.9	4.7	212	4
2023-09-17T00:00	1721	830	10.7	4.7	216	3
2023-09-17T00:00	1742	828	10.5	4.8	219	3
2023-09-17T00:00	1763	826	10.3	4.7	220	2
2023-09-17T00:00	1792	823	10.1	4.3	217	2
2023-09-17T00:00	1815	821	9.9	3.9	207	2
2023-09-17T00:00	1837	818	9.9	2.7	196	2
2023-09-17T00:00	1860	816	9.9	1.3	186	2
2023-09-17T00:00	1884	814	10.1	-1.3	180	2
2023-09-17T00:00	1915	811	9.9	-1.7	176	2
2023-09-17T00:00	1939	809	9.9	-3.0	175	1
2023-09-17T00:00	1960	806	9.9	-3.8	182	1
2023-09-17T00:00	1981	804	10.1	-5.1	199	1
2023-09-17T00:00	2002	802	10.3	-8.0	210	1
2023-09-17T00:00	2026	800	10.3	-8.8	212	1
2023-09-17T00:00	2050	798	10.2	-9.3	207	1
2023-09-17T00:00	2074	796	10.4	-11.8	201	1
2023-09-17T00:00	2099	793	10.7	-14.8	196	1
2023-09-17T00:00	2128	791	10.8	-15.8	196	1
2023-09-17T00:00	2149	788	10.6	-14.8	206	1
2023-09-17T00:00	2172	786	10.6	-15.1	263	0
2023-09-17T00:00	2194	784	10.4	-15.7	340	1
2023-09-17T00:00	2215	782	10.3	-17.3	4	1
2023-09-17T00:00	2235	780	10.2	-20.5	41	0
2023-09-17T00:00	2256	778	10.0	-21.8	133	1
2023-09-17T00:00	2276	776	9.8	-23.8	164	2
2023-09-17T00:00	2298	774	9.8	-25.8	177	3
2023-09-17T00:00	2319	772	9.9	-20.6	185	4
2023-09-17T00:00	2339	771	9.7	-13.9	191	4
2023-09-17T00:00	2360	769	9.6	-10.2	197	5
2023-09-17T00:00	2386	766	9.5	-6.4	203	5
2023-09-17T00:00	2408	764	9.4	-5.4	209	5
2023-09-17T00:00	2430	762	9.1	-4.6	213	5
2023-09-17T00:00	2451	760	9.0	-4.3	215	5
2023-09-17T00:00	2472	758	8.8	-3.8	213	4
2023-09-17T00:00	2500	756	8.4	-2.6	208	4
2023-09-17T00:00	2524	753	8.2	-2.0	202	4
2023-09-17T00:00	2556	751	7.9	-2.1	197	4
2023-09-17T00:00	2575	749	7.8	-1.9	197	4
2023-09-17T00:00	2598	747	7.5	-2.1	198	4
2023-09-17T00:00	2621	745	7.4	-2.2	201	3
2023-09-17T00:00	2646	742	7.1	-2.5	203	3
2023-09-17T00:00	2667	740	7.0	-2.6	203	3
2023-09-17T00:00	2688	739	6.8	-2.9	203	3
2023-09-17T00:00	2712	737	6.6	-3.0	203	3
2023-09-17T00:00	2737	734	6.4	-2.9	203	3
2023-09-17T00:00	2763	732	6.1	-3.1	204	3
2023-09-17T00:00	2788	730	5.9	-3.1	204	3
2023-09-17T00:00	2807	728	5.7	-3.2	204	2
2023-09-17T00:00	2833	726	5.5	-3.7	204	2
2023-09-17T00:00	2861	723	5.6	-8.8	209	2
2023-09-17T00:00	2890	721	5.9	-12.0	217	3
2023-09-17T00:00	2910	719	5.8	-11.5	226	3
2023-09-17T00:00	2937	717	5.6	-11.8	232	4
2023-09-17T00:00	2957	715	5.5	-11.8	236	4
2023-09-17T00:00	2983	713	5.4	-13.4	238	5
2023-09-17T00:00	3003	711	5.2	-13.8	240	5
2023-09-17T00:00	3029	709	5.1	-15.6	242	5
2023-09-17T00:00	3055	706	4.9	-17.3	245	5
2023-09-17T00:00	3079	704	4.8	-18.2	247	4
2023-09-17T00:00	3112	701	4.6	-18.7	250	4
2023-09-17T00:00	3132	700	4.5	-17.5	251	3
2023-09-17T00:00	3151	698	4.5	-22.7	250	2
2023-09-17T00:00	3170	696	4.6	-28.6	247	1
2023-09-17T00:00	3200	694	4.5	-29.0	244	1
2023-09-17T00:00	3221	692	4.4	-27.1	261	0
2023-09-17T00:00	3242	690	4.3	-27.9	271	1
2023-09-17T00:00	3268	688	4.2	-27.3	270	2
2023-09-17T00:00	3288	686	4.0	-27.1	267	2
2023-09-17T00:00	3313	684	4.0	-26.9	265	3
2023-09-17T00:00	3335	682	3.9	-27.0	266	3
2023-09-17T00:00	3361	680	3.7	-26.3	268	3
2023-09-17T00:00	3384	678	3.6	-26.8	272	4
2023-09-17T00:00	3409	676	3.4	-25.1	277	4
2023-09-17T00:00	3435	674	3.2	-25.5	279	4
2023-09-17T00:00	3459	672	3.0	-25.2	279	3
2023-09-17T00:00	3485	670	2.7	-24.8	278	3
2023-09-17T00:00	3519	667	2.5	-26.2	275	3
2023-09-17T00:00	3554	664	2.3	-25.2	273	3
2023-09-17T00:00	3590	661	2.0	-25.3	273	2
2023-09-17T00:00	3620	659	1.8	-23.9	276	2
2023-09-17T00:00	3646	657	1.6	-20.2	280	2
2023-09-17T00:00	3670	655	1.5	-19.6	282	2
2023-09-17T00:00	3696	653	1.3	-19.3	279	2
2023-09-17T00:00	3723	650	1.2	-19.0	270	2
2023-09-17T00:00	3742	649	1.2	-19.7	262	2
2023-09-17T00:00	3769	646	1.1	-22.9	257	2
2023-09-17T00:00	3800	644	0.9	-25.3	253	3
2023-09-17T00:00	3827	642	0.7	-26.3	249	3
2023-09-17T00:00	3846	640	0.5	-28.9	245	3
2023-09-17T00:00	3868	639	0.4	-29.9	241	4
2023-09-17T00:00	3890	637	0.6	-31.1	237	4
2023-09-17T00:00	3921	634	0.4	-31.4	234	4
2023-09-17T00:00	3952	632	0.2	-31.8	233	5
2023-09-17T00:00	3982	630	0.1	-32.4	233	5
2023-09-17T00:00	4012	627	-0.1	-32.0	233	5
2023-09-17T00:00	4034	625	-0.2	-31.5	233	5
2023-09-17T00:00	4073	623	-0.4	-31.2	232	4
2023-09-17T00:00	4090	621	-0.6	-29.5	231	4
2023-09-17T00:00	4122	619	-0.8	-28.3	229	3
2023-09-17T00:00	4148	617	-1.0	-28.2	227	3
2023-09-17T00:00	4169	615	-1.2	-27.9	227	3
2023-09-17T00:00	4189	613	-1.3	-27.0	227	3
2023-09-17T00:00	4213	612	-1.5	-27.4	228	3
2023-09-17T00:00	4243	609	-1.8		229	4
2023-09-17T00:00	4267	607	-1.9	-27.8	229	4
2023-09-17T00:00	4296	605	-2.1	-27.9	227	4
2023-09-17T00:00	4323	603	-2.4	-27.7	224	5
2023-09-17T00:00	4345	601	-2.5	-27.9	221	5
2023-09-17T00:00	4372	600	-2.7	-28.1	218	5
2023-09-17T00:00	4394	598	-2.9	-28.2	218	5
2023-09-17T00:00	4418	596	-3.1		218	5
2023-09-17T00:00	4453	593	-3.3	-28.0	220	6
2023-09-17T00:00	4479	591	-3.4	-27.5	219	6
2023-09-17T00:00	4501	590	-3.6	-27.7	216	5
2023-09-17T00:00	4528	588	-3.8	-28.1	210	5
2023-09-17T00:00	4556	586	-4.1	-28.9	203	4
2023-09-17T00:00	4586	583	-4.2	-28.7	195	4
2023-09-17T00:00	4617	581	-4.1	-30.2	191	4
2023-09-17T00:00	4635	580	-4.2	-30.7	190	4
2023-09-17T00:00	4657	578	-4.3	-32.0	191	3
2023-09-17T00:00	4681	576	-4.5	-33.9	193	3
2023-09-17T00:00	4715	574	-4.7	-35.2	197	3
2023-09-17T00:00	4735	573	-4.9	-34.5	202	4
2023-09-17T00:00	4753	571	-5.1	-33.6	207	3
2023-09-17T00:00	4780	569	-5.3	-34.2	212	3
2023-09-17T00:00	4809	567	-5.5	-33.1	218	3
2023-09-17T00:00	4838	565	-5.7	-32.2	223	3
2023-09-17T00:00	4862	563	-5.7	-32.8	228	3
2023-09-17T00:00	4880	562	-5.8	-33.2	229	4
2023-09-17T00:00	4898	561	-5.9	-33.9	229	4
2023-09-17T00:00	4919	559	-5.9	-34.9	227	5
2023-09-17T00:00	4950	557	-6.1	-34.6	224	5
2023-09-17T00:00	4983	555	-6.2	-34.5	220	6
2023-09-17T00:00	5013	553	-6.4	-34.3	216	6
2023-09-17T00:00	5036	551	-6.6	-29.0	214	6
2023-09-17T00:00	5061	549	-6.8	-24.9	213	6
2023-09-17T00:00	5090	547	-7.0	-24.0	214	6
2023-09-17T00:00	5121	545	-7.1	-26.3	216	5
2023-09-17T00:00	5146	543	-7.3	-28.3	220	5
2023-09-17T00:00	5163	542	-7.4	-33.3	223	5
2023-09-17T00:00	5188	540	-7.4	-36.4	224	5
2023-09-17T00:00	5219	538	-7.6	-36.1	223	6
2023-09-17T00:00	5245	536	-7.8	-36.2	221	6
2023-09-17T00:00	5267	535	-7.8	-36.5	218	6
2023-09-17T00:00	5294	533	-8.0	-35.4	217	6
2023-09-17T00:00	5322	531	-8.3	-33.6	217	6
2023-09-17T00:00	5342	530	-8.4	-32.8	218	6
2023-09-17T00:00	5371	528	-8.6	-31.5	220	6
2023-09-17T00:00	5401	526	-8.9	-28.8	221	5
2023-09-17T00:00	5430	524	-9.2	-29.4	222	5
2023-09-17T00:00	5462	522	-9.4	-29.0	222	5
2023-09-17T00:00	5482	520	-9.7	-29.0	222	5
2023-09-17T00:00	5501	519	-9.8	-28.8	222	5
2023-09-17T00:00	5525	517	-10.0	-28.6	223	6
2023-09-17T00:00	5556	515	-10.3	-29.2	224	7
2023-09-17T00:00	5585	513	-10.5	-30.1	225	7
2023-09-17T00:00	5603	512	-10.6	-30.7	226	7
2023-09-17T00:00	5631	510	-10.8	-31.8	227	7
2023-09-17T00:00	5664	508	-11.0	-32.7	228	7
2023-09-17T00:00	5697	506	-11.2	-35.9	229	6
2023-09-17T00:00	5729	504	-11.5	-35.7	229	6
2023-09-17T00:00	5762	502	-11.8	-35.2	228	7
2023-09-17T00:00	5792	500	-12.1	-34.6	226	7
2023-09-17T00:00	5818	498	-12.3	-34.8	226	7
2023-09-17T00:00	5834	497	-12.5	-34.5	226	7
2023-09-17T00:00	5860	495	-12.7	-34.3	226	7
2023-09-17T00:00	5893	493	-12.9	-35.6	226	7
2023-09-17T00:00	5926	491	-13.0	-37.7	226	7
2023-09-17T00:00	5946	490	-13.2	-39.7	226	6
2023-09-17T00:00	5975	488	-13.3	-41.7	228	6
2023-09-17T00:00	6002	486	-13.5	-42.5	233	5
2023-09-17T00:00	6032	484	-13.8	-42.7	240	5
2023-09-17T00:00	6060	482	-14.1	-42.8	247	5
2023-09-17T00:00	6085	481	-14.3	-42.8	251	5
2023-09-17T00:00	6106	479	-14.5	-42.6	252	5
2023-09-17T00:00	6126	478	-14.7	-42.6	249	5
2023-09-17T00:00	6149	477	-14.9	-42.2	245	5
2023-09-17T00:00	6185	474	-15.2	-42.6	240	5
2023-09-17T00:00	6222	472	-15.5	-41.7	235	5
2023-09-17T00:00	6243	471	-15.7	-41.4	231	6
2023-09-17T00:00	6261	470	-15.8	-41.6	229	6
2023-09-17T00:00	6284	468	-16.0	-41.9	227	6
2023-09-17T00:00	6313	466	-16.2	-42.5	225	5
2023-09-17T00:00	6341	465	-16.4	-42.7	224	5
2023-09-17T00:00	6371	463	-16.7	-42.8	223	4
2023-09-17T00:00	6398	461	-16.9	-42.7	224	4
2023-09-17T00:00	6428	459	-17.2	-43.0	229	4
2023-09-17T00:00	6449	458	-17.4	-43.5	236	4
2023-09-17T00:00	6467	457	-17.5	-43.7	243	4
2023-09-17T00:00	6488	456	-17.6	-43.8	248	4
2023-09-17T00:00	6519	454	-17.8	-44.4	254	4
2023-09-17T00:00	6548	452	-18.0	-44.8	263	4
2023-09-17T00:00	6585	450	-18.0	-45.9	276	3
2023-09-17T00:00	6619	448	-18.1	-46.1	290	3
2023-09-17T00:00	6634	447	-18.3	-46.3	299	4
2023-09-17T00:00	6666	445	-18.5	-46.3	301	4
2023-09-17T00:00	6691	443	-18.7	-46.6	300	4
2023-09-17T00:00	6720	442	-18.9	-46.9	298	5
2023-09-17T00:00	6743	440	-19.1	-47.1	296	5
2023-09-17T00:00	6765	439	-19.3	-47.4	294	5
2023-09-17T00:00	6790	438	-19.5	-47.6	292	5
2023-09-17T00:00	6819	436	-19.6	-48.2	287	5
2023-09-17T00:00	6855	434	-19.8	-48.5	281	6
2023-09-17T00:00	6886	432	-20.0	-48.7	276	6
2023-09-17T00:00	6912	431	-20.1	-48.7	273	6
2023-09-17T00:00	6930	429	-20.2	-48.5	272	7
2023-09-17T00:00	6947	428	-20.3	-48.2	273	8
2023-09-17T00:00	6967	427	-20.4	-48.3	276	8
2023-09-17T00:00	6987	426	-20.6	-48.4	277	8
2023-09-17T00:00	7006	425	-20.7	-48.5	278	9
2023-09-17T00:00	7023	424	-20.9	-48.5	278	9
2023-09-17T00:00	7042	423	-21.0	-48.6	278	9
2023-09-17T00:00	7063	422	-21.2	-48.6	278	10
2023-09-17T00:00	7092	420	-21.4	-48.7	279	10
2023-09-17T00:00	7121	418	-21.7	-48.8	280	10
2023-09-17T00:00	7154	417	-21.9	-48.7	281	10
2023-09-17T00:00	7184	415	-22.1	-49.5	283	10
2023-09-17T00:00	7218	413	-22.3	-49.8	284	10
2023-09-17T00:00	7253	411	-22.6	-49.9	284	10
2023-09-17T00:00	7282	409	-22.8	-49.7	283	10
2023-09-17T00:00	7306	408	-22.9	-49.6	281	10
2023-09-17T00:00	7331	407	-23.1	-49.5	278	11
2023-09-17T00:00	7367	405	-23.3	-49.3	276	11
2023-09-17T00:00	7402	403	-23.6	-47.3	274	11
2023-09-17T00:00	7423	402	-23.8	-45.3	273	11
2023-09-17T00:00	7443	400	-23.9	-45.0	273	11
2023-09-17T00:00	7463	399	-24.1	-44.9	273	11
2023-09-17T00:00	7485	398	-24.3	-45.1	274	10
2023-09-17T00:00	7505	397	-24.5	-45.3	274	10
2023-09-17T00:00	7530	396	-24.7	-45.4	276	10
2023-09-17T00:00	7563	394	-25.0	-45.6	278	9
2023-09-17T00:00	7595	392	-25.3	-46.1	282	9
2023-09-17T00:00	7627	390	-25.6	-46.4	287	9
2023-09-17T00:00	7660	389	-25.8	-46.2	291	9
2023-09-17T00:00	7686	387	-26.0	-45.9	293	9
2023-09-17T00:00	7710	386	-26.2	-45.9	294	9
2023-09-17T00:00	7733	385	-26.4	-46.0	293	9
2023-09-17T00:00	7761	383	-26.6	-45.8	292	9
2023-09-17T00:00	7791	382	-26.8	-45.9	292	10
2023-09-17T00:00	7816	380	-27.0	-45.8	291	10
2023-09-17T00:00	7844	379	-27.2	-45.3	291	10
2023-09-17T00:00	7874	377	-27.4	-44.9	292	11
2023-09-17T00:00	7908	376	-27.6	-44.6	291	11
2023-09-17T00:00	7942	374	-27.8	-45.1	291	11
2023-09-17T00:00	7969	372	-28.1	-45.6	291	10
2023-09-17T00:00	8004	371	-28.4	-45.5	291	10
2023-09-17T00:00	8039	369	-28.6	-44.7	291	10
2023-09-17T00:00	8077	367	-28.9	-45.1	291	10
2023-09-17T00:00	8109	365	-29.2	-45.4	291	10
2023-09-17T00:00	8133	364	-29.4	-45.5	290	10
2023-09-17T00:00	8160	363	-29.6	-41.5	290	11
2023-09-17T00:00	8192	361	-29.9	-37.7	289	11
2023-09-17T00:00	8225	359	-30.3	-37.3	287	11
2023-09-17T00:00	8259	358	-30.6	-37.7	285	11
2023-09-17T00:00	8293	356	-30.9	-37.7	284	11
2023-09-17T00:00	8317	355	-31.2	-37.7	282	11
2023-09-17T00:00	8341	353	-31.4	-37.6	281	11
2023-09-17T00:00	8367	352	-31.7	-37.4	281	10
2023-09-17T00:00	8401	350	-32.0	-37.6	281	10
2023-09-17T00:00	8433	349	-32.3	-37.8	281	10
2023-09-17T00:00	8465	347	-32.6	-37.8	281	10
2023-09-17T00:00	8494	346	-32.8	-37.9	282	10
2023-09-17T00:00	8524	344	-33.1	-37.9	282	10
2023-09-17T00:00	8550	343	-33.4	-38.2	283	10
2023-09-17T00:00	8577	342	-33.6	-38.2	284	10
2023-09-17T00:00	8600	341	-33.9	-38.3	283	10
2023-09-17T00:00	8625	339	-34.1	-38.2	282	10
2023-09-17T00:00	8655	338	-34.3	-37.9	281	10
2023-09-17T00:00	8689	336	-34.6	-38.3	279	10
2023-09-17T00:00	8721	335	-34.8	-38.5	278	10
2023-09-17T00:00	8749	333	-35.1	-38.6	277	10
2023-09-17T00:00	8779	332	-35.3	-38.7	278	10
2023-09-17T00:00	8806	331	-35.6	-38.9	279	10
2023-09-17T00:00	8837	329	-35.9	-39.4	280	11
2023-09-17T00:00	8866	328	-36.1	-40.4	282	11
2023-09-17T00:00	8893	327	-36.2	-41.0	283	11
2023-09-17T00:00	8922	325	-36.4	-41.1	284	11
2023-09-17T00:00	8954	324	-36.7	-42.1	283	11
2023-09-17T00:00	8980	323	-36.9	-42.4	282	11
2023-09-17T00:00	9004	321	-37.1	-42.5	280	10
2023-09-17T00:00	9028	320	-37.3	-42.6	278	10
2023-09-17T00:00	9055	319	-37.6	-42.9	275	10
2023-09-17T00:00	9080	318	-37.8	-43.5	273	10
2023-09-17T00:00	9107	317	-38.0	-44.1	270	10
2023-09-17T00:00	9134	315	-38.2	-44.2	268	10
2023-09-17T00:00	9161	314	-38.5	-44.5	266	10
2023-09-17T00:00	9188	313	-38.7	-44.7	266	10
2023-09-17T00:00	9214	312	-38.9	-45.4	266	10
2023-09-17T00:00	9239	311	-39.0	-46.2	266	10
2023-09-17T00:00	9267	309	-39.2	-46.6	267	10
2023-09-17T00:00	9293	308	-39.5	-47.0	269	10
2023-09-17T00:00	9317	307	-39.7	-47.1	272	10
2023-09-17T00:00	9343	306	-39.8	-47.6	275	10
2023-09-17T00:00	9375	305	-40.1	-47.8	279	10
2023-09-17T00:00	9405	303	-40.3	-49.0	281	11
2023-09-17T00:00	9433	302	-40.4	-50.3	283	11
2023-09-17T00:00	9459	301	-40.6	-50.9	283	11
2023-09-17T00:00	9488	300	-40.8	-50.4	282	11
2023-09-17T00:00	9514	298	-41.0	-49.6	282	11
2023-09-17T00:00	9543	297	-41.3	-48.6	283	10
2023-09-17T00:00	9573	296	-41.6	-48.0	284	10
2023-09-17T00:00	9600	295	-41.7	-48.3	287	10
2023-09-17T00:00	9630	293	-42.0	-49.6	289	10
2023-09-17T00:00	9659	292	-42.2	-50.3	290	10
2023-09-17T00:00	9688	291	-42.5	-51.0	291	10
2023-09-17T00:00	9709	290	-42.7	-51.7	291	10
2023-09-17T00:00	9735	289	-42.8	-51.9	290	10
2023-09-17T00:00	9762	288	-43.1	-51.8	290	10
2023-09-17T00:00	9789	287	-43.3	-51.3	289	10
2023-09-17T00:00	9816	285	-43.5	-51.2	288	10
2023-09-17T00:00	9845	284	-43.8	-51.4	288	10
2023-09-17T00:00	9871	283	-44.0	-51.3	288	10
2023-09-17T00:00	9898	282	-44.3	-51.1	287	10
2023-09-17T00:00	9923	281	-44.6	-50.9	287	10
2023-09-17T00:00	9948	280	-44.8	-50.7	287	10
2023-09-17T00:00	9969	279	-45.0	-50.2	286	10
2023-09-17T00:00	9990	278	-45.2	-49.7	286	10
2023-09-17T00:00	10013	277	-45.4	-49.4	286	10
2023-09-17T00:00	10036	276	-45.6	-49.5	287	10
2023-09-17T00:00	10064	275	-45.8	-50.5	288	10
2023-09-17T00:00	10091	274	-46.0	-52.0	289	10
2023-09-17T00:00	10116	273	-46.2	-52.4	290	10
2023-09-17T00:00	10142	272	-46.4	-52.1	290	10
2023-09-17T00:00	10164	271	-46.7	-52.1	290	10
2023-09-17T00:00	10186	270	-46.9	-51.8	290	10
2023-09-17T00:00	10207	269	-47.1	-51.6	291	10
2023-09-17T00:00	10230	268	-47.2	-51.4	291	11
2023-09-17T00:00	10253	267	-47.4	-51.6	291	11
2023-09-17T00:00	10278	266	-47.6	-52.2	291	11
2023-09-17T00:00	10303	265	-47.9	-53.1	291	11
2023-09-17T00:00	10331	264	-48.1	-53.8	290	11
2023-09-17T00:00	10356	263	-48.3	-53.6	290	11
2023-09-17T00:00	10383	262	-48.6	-52.5	289	11
2023-09-17T00:00	10406	261	-48.8	-51.9	289	11
2023-09-17T00:00	10432	260	-48.9	-51.8	289	11
2023-09-17T00:00	10454	259	-49.1	-52.3	289	12
2023-09-17T00:00	10477	258	-49.2	-52.4	288	12
2023-09-17T00:00	10501	257	-49.3	-52.5	288	13
2023-09-17T00:00	10524	256	-49.5	-52.8	288	13
2023-09-17T00:00	10548	256	-49.7	-53.1	287	13
2023-09-17T00:00	10574	255	-49.9	-53.5	287	14
2023-09-17T00:00	10598	254	-50.1	-53.9	286	14
2023-09-17T00:00	10618	253	-50.3	-54.1	285	14
2023-09-17T00:00	10640	252	-50.5	-54.1	284	13
2023-09-17T00:00	10660	251	-50.7	-54.1	284	13
2023-09-17T00:00	10683	250	-51.0	-54.1	284	13
2023-09-17T00:00	10705	249	-51.2	-54.2	284	13
2023-09-17T00:00	10729	249	-51.4	-54.5	284	13
2023-09-17T00:00	10754	248	-51.6	-54.9	284	13
2023-09-17T00:00	10774	247	-51.8	-55.5	285	14
2023-09-17T00:00	10798	246	-51.9	-56.1	285	14
2023-09-17T00:00	10823	245	-52.1	-56.5	286	14
2023-09-17T00:00	10847	244	-52.3	-56.5	286	14
2023-09-17T00:00	10871	243	-52.5	-56.7	287	14
2023-09-17T00:00	10896	242	-52.7	-57.1	288	14
2023-09-17T00:00	10922	241	-52.9	-57.6	289	14
2023-09-17T00:00	10950	240	-53.1	-58.0	291	14
2023-09-17T00:00	10971	239	-53.2	-58.2	293	14
2023-09-17T00:00	10996	238	-53.4	-58.4	295	14
2023-09-17T00:00	11018	238	-53.5	-58.5	297	14
2023-09-17T00:00	11037	237	-53.4	-58.5	299	14
2023-09-17T00:00	11057	236	-53.5	-58.8	301	14
2023-09-17T00:00	11078	235	-53.7	-59.2	302	15
2023-09-17T00:00	11102	235	-53.9	-59.4	302	15
2023-09-17T00:00	11124	234	-54.1	-59.5	302	15
2023-09-17T00:00	11144	233	-54.3	-59.5	303	15
2023-09-17T00:00	11165	232	-54.5	-59.5	303	15
2023-09-17T00:00	11186	232	-54.6	-59.6	303	15
2023-09-17T00:00	11206	231	-54.8	-59.8	303	15
2023-09-17T00:00	11226	230	-54.9	-59.9	303	15
2023-09-17T00:00	11244	229	-55.0	-60.0	303	15
2023-09-17T00:00	11266	229	-55.2	-60.1	303	15
2023-09-17T00:00	11284	228	-55.4	-60.3	303	15
2023-09-17T00:00	11306	227	-55.5	-60.5	303	15
2023-09-17T00:00	11326	227	-55.6	-60.5	302	16
2023-09-17T00:00	11344	226	-55.8	-60.6	302	16
2023-09-17T00:00	11362	225	-55.9	-61.0	301	16
2023-09-17T00:00	11382	225	-56.0	-61.5	300	16
2023-09-17T00:00	11401	224	-56.1	-61.6	300	16
2023-09-17T00:00	11421	223	-56.3	-61.7	299	16
2023-09-17T00:00	11440	222	-56.5	-61.7	299	16
2023-09-17T00:00	11458	222	-56.6	-61.6	298	16
2023-09-17T00:00	11478	221	-56.8	-61.7	298	16
2023-09-17T00:00	11497	220	-57.0	-61.9	298	16
2023-09-17T00:00	11515	220	-57.1	-62.2	298	16
2023-09-17T00:00	11534	219	-57.2	-62.7	297	16
2023-09-17T00:00	11552	219	-57.2	-63.1	296	16
2023-09-17T00:00	11570	218	-57.2	-63.3	294	16
2023-09-17T00:00	11596	217	-57.3	-63.3	293	17
2023-09-17T00:00	11619	216	-57.5	-63.3	291	17
2023-09-17T00:00	11642	215	-57.6	-63.4	289	17
2023-09-17T00:00	11664	215	-57.7	-63.7	289	17
2023-09-17T00:00	11683	214	-57.6	-63.9	289	17
2023-09-17T00:00	11705	213	-57.7	-64.2	289	17
2023-09-17T00:00	11727	213	-57.8	-64.2	291	16
2023-09-17T00:00	11748	212	-57.8	-64.0	292	16
2023-09-17T00:00	11769	211	-57.9	-63.8	293	16
2023-09-17T00:00	11787	211	-58.1	-63.8	294	16
2023-09-17T00:00	11807	210	-58.2	-63.7	295	16
2023-09-17T00:00	11827	209	-58.3	-63.7	295	16
2023-09-17T00:00	11847	209	-58.4	-63.9	294	16
2023-09-17T00:00	11866	208	-58.6	-64.3	294	16
2023-09-17T00:00	11885	207	-58.7	-64.5	293	16
2023-09-17T00:00	11907	207	-58.7	-64.5	293	16
2023-09-17T00:00	11926	206	-58.8	-64.4	293	16
2023-09-17T00:00	11946	205	-58.9	-64.2	292	16
2023-09-17T00:00	11966	205	-59.0	-64.1	293	16
2023-09-17T00:00	11985	204	-59.1	-64.2	293	16
2023-09-17T00:00	12005	203	-59.2	-64.4	293	15
2023-09-17T00:00	12025	203	-59.0	-64.3	292	15
2023-09-17T00:00	12046	202	-59.1	-64.5	291	14
2023-09-17T00:00	12067	201	-59.3	-65.1	288	13
2023-09-17T00:00	12088	201	-59.3	-65.9	286	12
2023-09-17T00:00	12111	200	-59.1	-67.3	282	11
2023-09-17T00:00	12136	199	-58.7	-68.8	278	11
2023-09-17T00:00	12159	198	-58.3	-70.3	274	11
2023-09-17T00:00	12182	198	-58.0	-71.1	269	11
2023-09-17T00:00	12204	197	-58.1	-71.4	265	12
2023-09-17T00:00	12228	196	-58.3	-71.3	262	12
2023-09-17T00:00	12262	195	-58.4	-71.1	260	13
2023-09-17T00:00	12283	195	-58.4	-71.0	259	13
2023-09-17T00:00	12301	194	-58.4	-71.1	258	13
2023-09-17T00:00	12321	193	-58.3	-71.1	257	13
2023-09-17T00:00	12342	193	-58.2	-71.1	256	14
2023-09-17T00:00	12361	192	-58.2	-71.3	254	14
2023-09-17T00:00	12381	192	-58.1	-71.5	253	14
2023-09-17T00:00	12401	191	-57.9	-71.6	252	15
2023-09-17T00:00	12420	190	-57.8	-71.9	250	16
2023-09-17T00:00	12442	190	-57.7	-72.1	249	16
2023-09-17T00:00	12461	189	-57.7	-72.4	248	17
2023-09-17T00:00	12482	189	-57.7	-72.5	247	17
2023-09-17T00:00	12502	188	-57.5	-72.6	247	17
2023-09-17T00:00	12522	187	-56.7	-72.3	246	18
2023-09-17T00:00	12544	187	-56.3	-72.3	246	18
2023-09-17T00:00	12565	186	-56.3	-72.5	247	18
2023-09-17T00:00	12586	185	-56.1	-72.6	247	19
2023-09-17T00:00	12604	185	-55.9	-72.9	248	19
2023-09-17T00:00	12625	184	-55.8	-73.2	249	19
2023-09-17T00:00	12648	184	-55.9	-73.6	250	20
2023-09-17T00:00	12667	183	-55.9	-73.7	251	20
2023-09-17T00:00	12684	183	-55.8	-73.9	252	20
2023-09-17T00:00	12705	182	-55.7	-74.1	253	21
2023-09-17T00:00	12729	181	-55.7	-74.2	253	21
2023-09-17T00:00	12750	181	-55.6	-74.3	253	22
2023-09-17T00:00	12769	180	-55.5	-74.3	253	22
2023-09-17T00:00	12789	180	-55.5	-74.4	252	22
2023-09-17T00:00	12810	179	-55.6	-74.6	252	22
2023-09-17T00:00	12829	179	-55.6	-74.7	252	23
2023-09-17T00:00	12849	178	-55.5	-74.8	252	23
2023-09-17T00:00	12869	177	-55.4	-74.9	253	23
2023-09-17T00:00	12887	177	-55.4	-75.2	254	23
2023-09-17T00:00	12907	176	-55.4	-75.4	255	23
2023-09-17T00:00	12924	176	-55.1	-75.2	256	23
2023-09-17T00:00	12945	175	-55.0	-75.3	258	23
2023-09-17T00:00	12964	175	-54.9	-75.2	258	23
2023-09-17T00:00	12984	174	-54.9	-75.2	259	22
2023-09-17T00:00	13001	174	-54.9	-75.4	259	22
2023-09-17T00:00	13021	173	-54.6	-75.5	259	22
2023-09-17T00:00	13039	173	-54.4	-75.9	259	21
2023-09-17T00:00	13059	172	-54.3	-76.2	260	21
2023-09-17T00:00	13079	172	-54.2	-76.3	260	20
2023-09-17T00:00	13099	171	-54.1	-76.2	261	20
2023-09-17T00:00	13116	171	-54.1	-76.2	262	20
2023-09-17T00:00	13135	170	-54.1	-76.2	262	20
2023-09-17T00:00	13152	170	-54.2	-76.4	262	20
2023-09-17T00:00	13171	169	-54.3	-76.5	262	20
2023-09-17T00:00	13189	169	-54.3	-76.7	262	20
2023-09-17T00:00	13209	168	-54.5	-76.8	262	21
2023-09-17T00:00	13229	168	-54.4	-76.9	262	21
2023-09-17T00:00	13247	167	-54.5	-77.0	263	21
2023-09-17T00:00	13266	167	-54.6	-77.1	263	21
2023-09-17T00:00	13285	166	-54.7	-77.1	263	21
2023-09-17T00:00	13304	166	-54.7	-77.1	263	21
2023-09-17T00:00	13322	165	-54.7	-77.3	263	21
2023-09-17T00:00	13343	165	-54.6	-77.6	262	21
2023-09-17T00:00	13359	164	-54.4	-77.6	261	21
2023-09-17T00:00	13380	164	-54.4	-77.7	261	20
2023-09-17T00:00	13398	163	-54.5	-77.8	260	20
2023-09-17T00:00	13419	163	-54.5	-77.8	260	19
2023-09-17T00:00	13440	162	-54.6	-78.1	260	19
2023-09-17T00:00	13457	162	-54.5	-78.0	260	18
2023-09-17T00:00	13480	161	-54.5	-78.0	260	18
2023-09-17T00:00	13498	161	-54.5	-78.0	260	18
2023-09-17T00:00	13517	160	-54.5	-78.2	261	19
2023-09-17T00:00	13537	160	-54.1	-78.1	261	19
2023-09-17T00:00	13558	159	-53.8	-78.0	261	20
2023-09-17T00:00	13579	159	-53.7	-78.1	262	20
2023-09-17T00:00	13599	158	-53.8	-78.4	262	21
2023-09-17T00:00	13617	158	-53.8	-78.4	263	21
2023-09-17T00:00	13638	157	-53.9	-78.7	263	21
2023-09-17T00:00	13658	157	-53.9	-78.7	264	21
2023-09-17T00:00	13679	156	-53.8	-78.6	265	21
2023-09-17T00:00	13699	156	-54.0	-78.8	266	21
2023-09-17T00:00	13718	155	-54.0	-79.0	266	20
2023-09-17T00:00	13741	155	-54.1	-79.1	266	20
2023-09-17T00:00	13761	154	-54.2	-79.2	266	19
2023-09-17T00:00	13785	154	-54.3	-79.3	266	19
2023-09-17T00:00	13806	153	-54.2	-79.4	266	18
2023-09-17T00:00	13830	153	-54.3	-79.5	266	18
2023-09-17T00:00	13850	152	-54.5	-79.6	266	17
2023-09-17T00:00	13871	152	-54.6	-79.7	267	16
2023-09-17T00:00	13892	151	-54.6	-79.7	267	16
2023-09-17T00:00	13913	151	-54.7	-79.6	267	16
2023-09-17T00:00	13931	150	-54.8	-79.7	267	15
2023-09-17T00:00	13951	150	-54.9	-79.7	266	15
2023-09-17T00:00	13971	149	-55.0	-79.8	266	15
2023-09-17T00:00	13992	149	-54.9	-79.7	265	15
2023-09-17T00:00	14012	148	-54.9	-79.7	263	15
2023-09-17T00:00	14033	148	-55.0	-80.0	262	14
2023-09-17T00:00	14056	147	-55.2	-80.2	261	14
2023-09-17T00:00	14075	147	-55.4	-80.4	259	14
2023-09-17T00:00	14096	146	-55.4	-80.4	258	14
2023-09-17T00:00	14116	146	-55.4	-80.4	258	14
2023-09-17T00:00	14138	146	-55.3	-80.5	258	14
2023-09-17T00:00	14156	145	-55.2	-80.7	257	15
2023-09-17T00:00	14175	145	-55.2	-80.9	257	15
2023-09-17T00:00	14197	144	-55.3	-81.0	256	15
2023-09-17T00:00	14217	144	-55.4	-81.1	256	15
2023-09-17T00:00	14234	143	-55.5	-81.2	256	15
2023-09-17T00:00	14256	143	-55.6	-81.3	258	15
2023-09-17T00:00	14278	142	-55.6	-81.5	259	15
2023-09-17T00:00	14298	142	-55.6	-81.5	261	15
2023-09-17T00:00	14318	141	-55.7	-81.6	262	15
2023-09-17T00:00	14339	141	-55.7	-81.6	264	15
2023-09-17T00:00	14359	141	-55.8	-81.7	265	15
2023-09-17T00:00	14380	140	-55.9	-81.8	265	15
2023-09-17T00:00	14400	140	-56.0	-81.8	266	16
2023-09-17T00:00	14419	139	-56.2	-82.0	266	16
2023-09-17T00:00	14442	139	-56.3	-81.8	266	16
2023-09-17T00:00	14462	138	-56.4	-81.9	265	16
2023-09-17T00:00	14482	138	-56.5	-82.0	265	15
2023-09-17T00:00	14504	137	-56.6	-82.0	264	15
2023-09-17T00:00	14522	137	-56.7	-82.1	264	15
2023-09-17T00:00	14542	137	-56.8	-82.2	264	15
2023-09-17T00:00	14561	136	-56.8	-81.9	263	15
2023-09-17T00:00	14581	136	-56.8	-82.2	263	14
2023-09-17T00:00	14603	135	-56.9	-82.3	263	14
2023-09-17T00:00	14621	135	-56.8	-82.2	262	14
2023-09-17T00:00	14643	134	-56.7	-81.9	262	14
2023-09-17T00:00	14663	134	-56.8	-81.9	263	14
2023-09-17T00:00	14687	133	-56.9	-82.0	264	14
2023-09-17T00:00	14705	133	-56.8	-81.7	265	14
2023-09-17T00:00	14726	133	-56.9	-81.8	267	14
2023-09-17T00:00	14749	132	-57.1	-81.9	269	14
2023-09-17T00:00	14770	132	-57.3	-82.1	272	14
2023-09-17T00:00	14789	131	-57.5	-82.0	274	14
2023-09-17T00:00	14811	131	-57.6	-82.1	277	14
2023-09-17T00:00	14830	130	-57.7	-82.2	279	14
2023-09-17T00:00	14850	130	-57.7		282	14
2023-09-17T00:00	14871	130	-57.9	-82.1	283	14
2023-09-17T00:00	14893	129	-57.9	-82.1	285	13
2023-09-17T00:00	14913	129	-58.0	-82.0	286	13
2023-09-17T00:00	14935	128	-58.0	-82.0	287	12
2023-09-17T00:00	14954	128	-58.1	-82.0	288	12
2023-09-17T00:00	14973	128	-58.1	-82.0	288	12
2023-09-17T00:00	14994	127	-58.2		288	11
2023-09-17T00:00	15012	127	-58.3	-82.0	289	11
2023-09-17T00:00	15031	126	-58.5	-82.1	289	11
2023-09-17T00:00	15054	126	-58.6	-82.0	288	10
2023-09-17T00:00	15075	126	-58.8	-82.2	287	10
2023-09-17T00:00	15097	125	-58.9	-82.3	286	10
2023-09-17T00:00	15119	125	-59.0	-82.1	283	9
2023-09-17T00:00	15140	124	-59.0	-82.1	279	9
2023-09-17T00:00	15160	124	-59.1	-82.2	275	9
2023-09-17T00:00	15182	123	-59.3	-82.2	271	9
2023-09-17T00:00	15203	123	-59.4	-82.3	267	9
2023-09-17T00:00	15224	123	-59.4	-82.3	264	9
2023-09-17T00:00	15244	122	-59.3	-82.2	262	10
2023-09-17T00:00	15267	122	-59.4	-82.3	261	10
2023-09-17T00:00	15286	121	-59.6	-82.4	260	11
2023-09-17T00:00	15307	121	-59.6	-82.4	260	11
2023-09-17T00:00	15328	121	-59.6	-82.4	260	12
2023-09-17T00:00	15346	120	-59.6	-82.4	259	12
2023-09-17T00:00	15368	120	-59.6	-82.4	259	13
2023-09-17T00:00	15387	119	-59.7	-82.5	260	13
2023-09-17T00:00	15408	119	-59.8	-82.6	260	14
2023-09-17T00:00	15429	119	-59.9	-82.5	261	14
2023-09-17T00:00	15449	118	-60.0	-82.6	262	14
2023-09-17T00:00	15469	118	-60.0	-82.8	263	14
2023-09-17T00:00	15489	117	-59.9	-82.9	264	14
2023-09-17T00:00	15510	117	-59.4	-82.5	265	13
2023-09-17T00:00	15534	117	-59.3	-82.6	266	13
2023-09-17T00:00	15554	116	-59.1	-82.6	265	12
2023-09-17T00:00	15576	116	-59.2	-82.7	264	12
2023-09-17T00:00	15595	116	-59.2	-82.7	262	11
2023-09-17T00:00	15616	115	-59.1	-82.6	260	11
2023-09-17T00:00	15633	115	-59.2	-82.7	258	10
2023-09-17T00:00	15658	114	-59.2	-82.7	257	10
2023-09-17T00:00	15681	114	-59.4	-82.9	256	10
2023-09-17T00:00	15702	114	-59.5	-82.9	256	10
2023-09-17T00:00	15725	113	-59.6	-83.0	256	10
2023-09-17T00:00	15747	113	-59.3	-82.8	256	10
2023-09-17T00:00	15768	112	-59.4		256	9
2023-09-17T00:00	15789	112	-59.2	-83.1	255	9
2023-09-17T00:00	15809	112	-58.9	-83.1	254	9
2023-09-17T00:00	15830	111	-58.9	-83.1	253	9
2023-09-17T00:00	15852	111	-59.0	-83.4	252	9
2023-09-17T00:00	15873	111	-59.0	-83.4	252	9
2023-09-17T00:00	15891	110	-58.9	-83.3	251	9
2023-09-17T00:00	15915	110	-58.9	-83.3	251	9
2023-09-17T00:00	15936	109	-59.0	-83.4	249	10
2023-09-17T00:00	15956	109	-59.1	-83.7	247	10
2023-09-17T00:00	15978	109	-59.0	-83.7	244	10
2023-09-17T00:00	16001	108	-58.8	-83.5	241	10
2023-09-17T00:00	16025	108	-58.7	-83.4	239	11
2023-09-17T00:00	16043	108	-58.8	-83.5	238	11
2023-09-17T00:00	16065	107	-58.8	-83.5	237	12
2023-09-17T00:00	16084	107	-58.7	-83.2	238	12
2023-09-17T00:00	16104	106	-58.7	-83.2	238	12
2023-09-17T00:00	16125	106	-58.7	-83.2	239	12
2023-09-17T00:00	16145	106	-58.9	-83.3	240	12
2023-09-17T00:00	16169	105	-59.0	-83.4	240	12
2023-09-17T00:00	16191	105	-59.0	-83.4	241	12
2023-09-17T00:00	16213	105	-58.9	-83.3	241	12
2023-09-17T00:00	16234	104	-59.0	-83.4	241	12
2023-09-17T00:00	16254	104	-59.0	-83.7	242	13
2023-09-17T00:00	16277	104	-58.9		243	13
2023-09-17T00:00	16297	103	-58.5	-83.5	244	13
2023-09-17T00:00	16319	103	-58.4	-83.7	245	13
2023-09-17T00:00	16340	103	-58.3	-83.6	246	13
2023-09-17T00:00	16362	102	-58.4	-83.7	246	13
2023-09-17T00:00	16383	102	-58.5	-83.8	246	13
2023-09-17T00:00	16404	102	-58.5	-83.5	247	14
2023-09-17T00:00	16422	101	-58.6	-83.6	247	14
2023-09-17T00:00	16446	101	-58.7	-83.7	247	14
2023-09-17T00:00	16466	101	-58.7	-83.7	247	14
2023-09-17T00:00	16488	100	-58.8	-83.8	247	13
2023-09-17T00:00	16512	100	-58.7	-83.7	247	13
2023-09-17T00:00	16535	99	-58.7	-83.9	248	13
2023-09-17T00:00	16554	99	-58.7	-83.9	249	13
2023-09-17T00:00	16576	99	-58.7	-83.9	250	14
2023-09-17T00:00	16600	98	-58.8	-84.0	252	14
2023-09-17T00:00	16620	98	-58.7	-83.9	255	14
2023-09-17T00:00	16641	98	-58.6	-83.9	257	15
2023-09-17T00:00	16665	97	-58.6	-83.9	259	15
2023-09-17T00:00	16685	97	-58.7	-83.9	261	15
2023-09-17T00:00	16709	97	-58.7	-84.2	262	15
2023-09-17T00:00	16730	96	-58.3	-83.9	263	15
2023-09-17T00:00	16755	96	-58.1	-83.7	264	14
2023-09-17T00:00	16776	96	-58.2	-84.1	264	14
2023-09-17T00:00	16801	95	-58.2	-84.1	265	14
2023-09-17T00:00	16823	95	-58.1	-84.0	267	14
2023-09-17T00:00	16846	95	-58.1	-84.0	267	14
2023-09-17T00:00	16870	94	-58.1	-84.0	267	14
2023-09-17T00:00	16890	94	-58.3	-84.2	267	14
2023-09-17T00:00	16914	94	-58.4	-84.3	266	14
2023-09-17T00:00	16936	93	-58.4	-84.3	264	13
2023-09-17T00:00	16958	93	-58.4	-84.3	262	13
2023-09-17T00:00	16984	93	-58.1	-84.3	261	13
2023-09-17T00:00	17006	92	-58.0	-84.2	260	14
2023-09-17T00:00	17028	92	-58.0	-84.2	260	14
2023-09-17T00:00	17050	92	-57.9	-84.5	260	14
2023-09-17T00:00	17075	91	-57.5	-84.2	261	13
2023-09-17T00:00	17096	91	-57.3	-84.0	263	13
2023-09-17T00:00	17121	91	-57.3	-84.4	264	13
2023-09-17T00:00	17141	90	-57.3	-84.0	266	13
2023-09-17T00:00	17162	90	-57.4	-84.1	267	13
2023-09-17T00:00	17186	90	-57.5	-84.2	268	13
2023-09-17T00:00	17207	89	-57.4	-84.1	269	12
2023-09-17T00:00	17232	89	-57.3	-84.0	270	12
2023-09-17T00:00	17252	89	-57.3	-84.4	270	12
2023-09-17T00:00	17274	88	-57.3	-84.4	270	12
2023-09-17T00:00	17296	88	-57.2	-84.3	269	12
2023-09-17T00:00	17321	88	-57.2	-84.3	267	12
2023-09-17T00:00	17343	87	-57.1	-84.2	265	12
2023-09-17T00:00	17366	87	-57.2	-84.3	263	12
2023-09-17T00:00	17389	87	-57.3	-84.4	263	12
2023-09-17T00:00	17414	87	-57.4	-84.4	264	12
2023-09-17T00:00	17433	86	-57.5	-84.5	266	12
2023-09-17T00:00	17457	86	-57.2	-84.3	269	12
2023-09-17T00:00	17479	86	-57.2	-84.3	272	12
2023-09-17T00:00	17499	85	-57.3	-84.4	274	12
2023-09-17T00:00	17522	85	-57.4	-84.4	275	12
2023-09-17T00:00	17543	85	-57.5	-84.5	276	12
2023-09-17T00:00	17564	84	-57.4	-84.4	276	12
2023-09-17T00:00	17589	84	-57.4	-84.4	276	12
2023-09-17T00:00	17609	84	-57.3	-84.4	276	12
2023-09-17T00:00	17631	84	-57.2	-84.3	277	12
2023-09-17T00:00	17655	83	-57.2	-84.6	277	12
2023-09-17T00:00	17673	83	-57.2	-84.6	276	11
2023-09-17T00:00	17695	83	-57.2	-84.6	275	11
2023-09-17T00:00	17717	82	-57.4	-84.8	273	11
2023-09-17T00:00	17739	82	-57.3	-84.7	271	10
2023-09-17T00:00	17759	82	-57.0	-84.5	268	10
2023-09-17T00:00	17780	82	-56.9	-84.4	266	10
2023-09-17T00:00	17801	81	-56.8	-84.7	265	10
2023-09-17T00:00	17823	81	-56.4	-84.4	264	10
2023-09-17T00:00	17845	81	-56.5	-84.5	265	10
2023-09-17T00:00	17867	81	-56.4	-84.4	266	10
2023-09-17T00:00	17889	80	-56.2	-84.2	267	10
2023-09-17T00:00	17911	80	-56.4	-84.4	267	10
2023-09-17T00:00	17932	80	-56.3	-84.3	267	11
2023-09-17T00:00	17955	79	-56.3	-84.3	266	11
2023-09-17T00:00	17976	79	-56.3	-84.3	265	11
2023-09-17T00:00	17998	79	-56.1	-84.6	264	11
2023-09-17T00:00	18022	79	-55.9	-84.4	263	11
2023-09-17T00:00	18045	78	-55.6	-84.2	262	12
2023-09-17T00:00	18063	78	-55.6	-84.2	261	12
2023-09-17T00:00	18086	78	-55.6	-84.2	260	12
2023-09-17T00:00	18109	78	-55.8	-84.3	259	12
2023-09-17T00:00	18128	77	-55.9	-84.0	258	13
2023-09-17T00:00	18149	77	-55.9	-84.0	258	13
2023-09-17T00:00	18175	77	-55.8	-83.9	259	13
2023-09-17T00:00	18199	76	-55.8	-83.9	260	13
2023-09-17T00:00	18218	76	-55.8	-84.3	261	13
2023-09-17T00:00	18240	76	-55.7	-84.3	262	13
2023-09-17T00:00	18262	76	-55.6	-84.2	263	13
2023-09-17T00:00	18283	75	-55.6	-84.2	263	13
2023-09-17T00:00	18306	75	-55.7	-84.3	264	13
2023-09-17T00:00	18328	75	-55.7	-84.3	265	12
2023-09-17T00:00	18347	75	-55.7	-84.3	266	12
2023-09-17T00:00	18370	74	-55.8	-84.3	267	12
2023-09-17T00:00	18391	74	-55.7	-84.3	268	12
2023-09-17T00:00	18414	74	-55.7	-84.3	269	12
2023-09-17T00:00	18435	74	-55.7	-84.3	270	12
2023-09-17T00:00	18458	73	-55.8	-84.3	271	12
2023-09-17T00:00	18480	73	-55.9	-84.4	271	12
2023-09-17T00:00	18502	73	-55.6	-84.2	272	12
2023-09-17T00:00	18522	73	-55.6	-84.2	272	12
2023-09-17T00:00	18548	72	-55.7	-84.3	272	11
2023-09-17T00:00	18568	72	-55.7	-84.3	272	11
2023-09-17T00:00	18592	72	-55.7	-84.3	273	11
2023-09-17T00:00	18614	72	-55.8	-84.3	274	10
2023-09-17T00:00	18636	71	-55.8	-84.3	276	10
2023-09-17T00:00	18661	71	-55.7	-84.3	277	10
2023-09-17T00:00	18682	71	-55.7	-84.3	277	10
2023-09-17T00:00	18706	71	-55.8	-84.3	276	10
2023-09-17T00:00	18728	70	-55.6	-84.2	274	10
2023-09-17T00:00	18751	70	-55.5	-84.1	271	9
2023-09-17T00:00	18773	70	-55.6	-84.2	268	9
2023-09-17T00:00	18800	70	-55.7	-84.3	264	9
2023-09-17T00:00	18825	69	-55.7	-84.3	262	10
2023-09-17T00:00	18849	69	-55.9	-84.4	261	10
2023-09-17T00:00	18874	69	-56.0	-84.5	261	10
2023-09-17T00:00	18894	69	-55.9	-84.0	262	10
2023-09-17T00:00	18919	68	-56.0	-84.1	263	10
2023-09-17T00:00	18943	68	-56.1	-84.2	264	10
2023-09-17T00:00	18969	68	-56.2	-84.2	265	10
2023-09-17T00:00	18994	67	-56.3	-84.3	267	10
2023-09-17T00:00	19018	67	-56.1	-84.2	267	10
2023-09-17T00:00	19040	67	-56.1	-84.6	268	9
2023-09-17T00:00	19064	67	-56.1	-84.6	268	9
2023-09-17T00:00	19091	66	-56.2	-84.6	267	8
2023-09-17T00:00	19113	66	-56.1	-84.6	265	7
2023-09-17T00:00	19140	66	-56.1	-84.6	264	7
2023-09-17T00:00	19164	66	-56.3	-84.3	262	6
2023-09-17T00:00	19187	65	-56.4	-84.4	261	6
2023-09-17T00:00	19212	65	-56.6	-84.5	260	6
2023-09-17T00:00	19237	65	-56.6	-84.5	260	6
2023-09-17T00:00	19260	65	-56.7	-84.6	260	7
2023-09-17T00:00	19289	64	-56.9	-84.4	260	7
2023-09-17T00:00	19308	64	-57.1	-84.6	260	8
2023-09-17T00:00	19331	64	-57.3	-84.7	259	8
2023-09-17T00:00	19356	64	-57.5	-84.5	257	8
2023-09-17T00:00	19383	63	-57.7	-84.7	256	9
2023-09-17T00:00	19405	63	-57.9	-84.8	256	9
2023-09-17T00:00	19430	63	-58.0	-85.2	256	9
2023-09-17T00:00	19456	63	-58.2	-85.4	257	9
2023-09-17T00:00	19478	62	-58.1	-85.3	258	9
2023-09-17T00:00	19502	62	-57.9	-85.2	260	9
2023-09-17T00:00	19528	62	-57.9	-85.2	262	8
2023-09-17T00:00	19546	62	-58.0	-85.2	263	8
2023-09-17T00:00	19570	62	-58.2	-85.4	263	8
2023-09-17T00:00	19590	61	-58.3	-85.5	262	8
2023-09-17T00:00	19616	61	-58.5	-85.6	260	7
2023-09-17T00:00	19639	61	-58.5	-85.6	256	7
2023-09-17T00:00	19659	61	-58.3	-85.5	253	8
2023-09-17T00:00	19683	60	-57.8	-85.5	250	8
2023-09-17T00:00	19704	60	-57.6	-85.3	248	8
2023-09-17T00:00	19729	60	-57.7	-85.4	247	9
2023-09-17T00:00	19752	60	-57.7	-85.4	246	9
2023-09-17T00:00	19773	60	-57.7	-85.4	245	9
2023-09-17T00:00	19794	59	-57.8	-85.5	245	10
2023-09-17T00:00	19821	59	-57.6	-85.3	245	10
2023-09-17T00:00	19843	59	-57.6	-85.3	245	10
2023-09-17T00:00	19863	59	-57.7	-85.4	245	10
2023-09-17T00:00	19887	59	-57.7	-85.4	246	11
2023-09-17T00:00	19909	58	-57.6	-85.3	246	11
2023-09-17T00:00	19931	58	-57.4	-85.2	246	12
2023-09-17T00:00	19956	58	-57.3	-85.1	247	12
2023-09-17T00:00	19979	58	-57.2	-85.4	248	12
2023-09-17T00:00	20003	58	-57.2	-85.4	251	12
2023-09-17T00:00	20025	57	-57.2	-85.4	254	12
2023-09-17T00:00	20050	57	-57.1	-85.3	257	12
2023-09-17T00:00	20072	57	-57.0	-85.2	260	12
2023-09-17T00:00	20093	57	-57.0	-85.2	263	12
2023-09-17T00:00	20118	56	-57.1	-85.3	265	11
2023-09-17T00:00	20139	56	-57.0	-85.2	266	11
2023-09-17T00:00	20162	56	-57.0	-84.8	267	11
2023-09-17T00:00	20184	56	-57.1	-84.9	266	10
2023-09-17T00:00	20204	56	-57.0	-84.8	264	10
2023-09-17T00:00	20229	55	-57.0	-84.8	262	10
2023-09-17T00:00	20248	55	-57.0	-84.8	260	10
2023-09-17T00:00	20275	55	-57.1	-85.3	258	10
2023-09-17T00:00	20298	55	-57.0	-85.2	257	10
2023-09-17T00:00	20322	55	-56.9	-85.2	258	11
2023-09-17T00:00	20347	54	-57.0	-85.2	259	11
2023-09-17T00:00	20368	54	-56.9	-85.2	261	11
2023-09-17T00:00	20398	54	-56.8	-85.1	263	11
2023-09-17T00:00	20420	54	-56.9	-85.2	264	11
2023-09-17T00:00	20444	54	-56.9	-85.2	265	11
2023-09-17T00:00	20470	53	-57.0	-85.2	264	11
2023-09-17T00:00	20497	53	-57.1	-84.9	263	12
2023-09-17T00:00	20519	53	-57.0	-84.8	262	12
2023-09-17T00:00	20547	53	-57.0	-84.8	261	13
2023-09-17T00:00	20570	53	-57.1	-84.9	261	13
2023-09-17T00:00	20599	52	-57.2	-85.0	262	13
2023-09-17T00:00	20623	52	-57.1	-84.9	264	13
2023-09-17T00:00	20646	52	-56.9	-85.2	267	13
2023-09-17T00:00	20674	52	-56.9	-85.2	270	13
2023-09-17T00:00	20703	52	-57.0	-85.2	273	13
2023-09-17T00:00	20725	51	-57.1	-84.9	276	13
2023-09-17T00:00	20755	51	-57.2	-85.0	279	13
2023-09-17T00:00	20779	51	-57.3	-85.1	282	13
2023-09-17T00:00	20805	51	-57.2	-85.0	285	13
2023-09-17T00:00	20832	50	-57.1	-84.9	288	12
2023-09-17T00:00	20855	50	-57.1	-84.9	289	12
2023-09-17T00:00	20879	50	-57.1	-84.9	291	11
2023-09-17T00:00	20906	50	-57.0	-84.8	293	10
2023-09-17T00:00	20935	50	-57.0	-84.8	294	10
2023-09-17T00:00	20962	49	-57.1	-84.9	296	9
2023-09-17T00:00	20984	49	-57.1	-85.3	298	8
2023-09-17T00:00	21009	49	-57.1	-85.3	299	8
2023-09-17T00:00	21034	49	-57.1	-85.3	299	7
2023-09-17T00:00	21059	49	-56.8	-85.1	299	6
2023-09-17T00:00	21080	48	-56.8	-85.1	297	6
2023-09-17T00:00	21107	48	-56.8	-85.1	294	5
2023-09-17T00:00	21130	48	-56.9	-85.2	289	4
2023-09-17T00:00	21158	48	-56.9	-85.2	281	4
2023-09-17T00:00	21179	48	-56.9	-85.2	272	4
2023-09-17T00:00	21203	48	-56.8	-85.1	264	4
2023-09-17T00:00	21226	47	-56.9	-85.2	258	4
2023-09-17T00:00	21245	47	-56.9	-85.2	255	5
2023-09-17T00:00	21269	47	-56.7	-85.0	254	6
2023-09-17T00:00	21293	47	-56.7	-85.0	253	7
2023-09-17T00:00	21313	47	-56.4	-85.2	253	8
2023-09-17T00:00	21337	47	-56.2	-85.1	254	8
2023-09-17T00:00	21356	46	-56.2	-85.1	255	9
2023-09-17T00:00	21382	46	-56.3	-84.7	257	9
2023-09-17T00:00	21404	46	-56.2	-84.6	260	9
2023-09-17T00:00	21430	46	-56.1	-84.6	263	10
2023-09-17T00:00	21450	46	-56.1	-84.6	267	10
2023-09-17T00:00	21471	46	-55.9	-84.4	271	10
2023-09-17T00:00	21498	45	-55.9	-84.4	275	10
2023-09-17T00:00	21520	45	-56.0	-84.9	279	10
2023-09-17T00:00	21542	45	-56.0	-84.5	284	10
2023-09-17T00:00	21568	45	-56.0	-84.5	288	10
2023-09-17T00:00	21590	45	-56.0	-84.5	292	10
2023-09-17T00:00	21614	45	-56.1	-84.6	295	10
2023-09-17T00:00	21640	44	-56.2	-84.6	297	10
2023-09-17T00:00	21666	44	-56.3	-84.7	299	9
2023-09-17T00:00	21689	44	-56.3	-84.7	300	9
2023-09-17T00:00	21712	44	-56.2	-84.6	301	8
2023-09-17T00:00	21738	44	-56.2	-84.6	301	7
2023-09-17T00:00	21761	44	-56.3	-84.7	302	7
2023-09-17T00:00	21784	43	-56.3	-84.7	302	7
2023-09-17T00:00	21812	43	-56.3	-84.7	300	6
2023-09-17T00:00	21835	43	-56.2	-85.1	297	6
2023-09-17T00:00	21860	43	-56.1	-85.0	292	6
2023-09-17T00:00	21887	43	-56.0	-84.9	287	6
2023-09-17T00:00	21911	43	-55.9	-84.8	282	6
2023-09-17T00:00	21934	42	-55.8	-84.8	278	7
2023-09-17T00:00	21957	42	-55.8	-84.3	276	7
2023-09-17T00:00	21984	42	-55.9	-84.4	276	7
2023-09-17T00:00	22014	42	-56.0	-84.5	277	7
2023-09-17T00:00	22035	42	-55.9	-84.4	280	8
2023-09-17T00:00	22065	42	-55.9	-84.8	284	8
2023-09-17T00:00	22090	41	-55.8	-84.8	287	8
2023-09-17T00:00	22113	41	-55.6	-84.6	290	9
2023-09-17T00:00	22142	41	-55.6	-84.6	293	9
2023-09-17T00:00	22164	41	-55.6	-84.6	294	10
2023-09-17T00:00	22190	41	-55.8	-84.3	296	10
2023-09-17T00:00	22218	41	-55.9	-84.4	297	10
2023-09-17T00:00	22244	40	-56.0	-84.5	298	10
2023-09-17T00:00	22267	40	-56.1	-84.6	299	10
2023-09-17T00:00	22295	40	-56.2	-84.6	300	9
2023-09-17T00:00	22320	40	-56.3	-84.7	302	9
2023-09-17T00:00	22347	40	-56.4	-84.8	302	9
2023-09-17T00:00	22371	40	-56.4	-84.8	302	8
2023-09-17T00:00	22397	39	-56.5	-84.9	301	8
2023-09-17T00:00	22424	39	-56.5	-84.9	300	7
2023-09-17T00:00	22450	39	-56.3	-84.7	297	7
2023-09-17T00:00	22477	39	-56.4	-84.8	294	6
2023-09-17T00:00	22505	39	-56.6	-84.9	291	6
2023-09-17T00:00	22534	39	-56.8	-85.1	289	6
2023-09-17T00:00	22556	38	-56.9	-85.2	286	6
2023-09-17T00:00	22577	38	-57.0	-85.2	283	6
2023-09-17T00:00	22607	38	-56.7	-85.0	279	6
2023-09-17T00:00	22633	38	-56.6	-84.9	273	6
2023-09-17T00:00	22655	38	-56.5	-84.9	267	6
2023-09-17T00:00	22684	38	-56.6	-84.9	262	6
2023-09-17T00:00	22703	38	-56.8	-85.1	260	6
2023-09-17T00:00	22724	37	-56.9	-85.2	262	6
2023-09-17T00:00	22752	37	-57.0	-85.2	268	6
2023-09-17T00:00	22778	37	-56.7	-85.0	276	7
2023-09-17T00:00	22803	37	-56.6	-84.9	284	7
2023-09-17T00:00	22822	37	-56.5	-84.9	291	7
2023-09-17T00:00	22850	37	-56.6	-85.4	297	8
2023-09-17T00:00	22877	37	-56.5	-85.3	301	8
2023-09-17T00:00	22899	36	-56.3	-85.1	305	7
2023-09-17T00:00	22927	36	-56.0	-84.9	306	7
2023-09-17T00:00	22949	36	-56.0	-84.9	305	6
2023-09-17T00:00	22975	36	-55.9	-84.8	303	5
2023-09-17T00:00	22998	36	-55.6	-84.6	298	5
2023-09-17T00:00	23020	36	-55.5	-84.5	291	4
2023-09-17T00:00	23045	36	-55.6	-84.6	283	4
2023-09-17T00:00	23069	35	-55.7	-84.7	278	3
2023-09-17T00:00	23092	35	-55.8	-84.8	275	3
2023-09-17T00:00	23114	35	-55.9	-84.8	275	4
2023-09-17T00:00	23139	35	-56.0	-84.9	277	4
2023-09-17T00:00	23162	35	-56.0	-84.9	278	4
2023-09-17T00:00	23184	35	-55.9	-84.8	279	4
2023-09-17T00:00	23206	35	-55.9	-84.8	279	3
2023-09-17T00:00	23233	35	-55.9	-84.8	278	3
2023-09-17T00:00	23256	34	-55.9	-84.8	277	3
2023-09-17T00:00	23276	34	-55.9	-84.8	276	3
2023-09-17T00:00	23302	34	-55.9	-84.4	275	4
2023-09-17T00:00	23329	34	-56.1	-84.6	275	4
2023-09-17T00:00	23351	34	-56.3	-84.7	277	4
2023-09-17T00:00	23379	34	-56.4	-84.8	280	4
2023-09-17T00:00	23403	34	-56.5	-84.9	283	5
2023-09-17T00:00	23424	34	-56.4	-84.8	285	5
2023-09-17T00:00	23452	33	-56.4	-84.8	286	5
2023-09-17T00:00	23473	33	-56.5	-84.9	286	5
2023-09-17T00:00	23499	33	-56.5	-84.9	284	6
2023-09-17T00:00	23525	33	-56.4	-85.2	280	6
2023-09-17T00:00	23549	33	-56.3	-85.1	277	6
2023-09-17T00:00	23575	33	-56.1	-85.0	274	6
2023-09-17T00:00	23603	33	-56.0	-84.9	272	6
2023-09-17T00:00	23624	32	-56.0	-84.9	271	6
2023-09-17T00:00	23655	32	-56.0	-84.9	271	6
2023-09-17T00:00	23687	32	-56.0	-84.9	271	6
2023-09-17T00:00	23708	32	-56.1	-85.0	273	6
2023-09-17T00:00	23729	32	-56.2	-85.1	275	5
2023-09-17T00:00	23757	32	-56.2	-85.1	278	5
2023-09-17T00:00	23781	32	-56.3	-85.1	282	5
2023-09-17T00:00	23809	32	-56.4	-85.2	285	6
2023-09-17T00:00	23834	31	-56.4	-85.2	287	6
2023-09-17T00:00	23866	31	-56.2	-85.1	289	7
2023-09-17T00:00	23893	31	-56.1	-85.0	290	7
2023-09-17T00:00	23914	31	-56.0	-84.9	291	8
2023-09-17T00:00	23945	31	-55.8	-84.8	291	7
2023-09-17T00:00	23969	31	-55.5	-85.0	293	7
2023-09-17T00:00	23994	31	-55.6	-85.1	294	7
2023-09-17T00:00	24018	31	-55.5	-85.0	295	7
2023-09-17T00:00	24050	30	-55.6	-84.6	297	6
2023-09-17T00:00	24072	30	-55.6	-84.6	298	6
2023-09-17T00:00	24100	30	-55.5	-84.5	299	6
2023-09-17T00:00	24125	30	-55.3	-84.9	299	6
2023-09-17T00:00	24148	30	-55.3	-84.4	299	6
2023-09-17T00:00	24168	30	-55.2	-84.3	298	6
2023-09-17T00:00	24200	30	-55.2	-84.3	296	6
2023-09-17T00:00	24220	30	-55.3	-84.4	294	5
2023-09-17T00:00	24255	29	-55.3	-84.4	291	5
2023-09-17T00:00	24269	29	-55.3	-84.4	288	4
2023-09-17T00:00	24293	29	-55.4	-84.5	284	4
2023-09-17T00:00	24325	29	-55.5	-84.5	280	4
2023-09-17T00:00	24352	29	-55.5	-84.5	278	5
2023-09-17T00:00	24373	29	-55.4	-84.5	275	5
2023-09-17T00:00	24397	29	-55.3	-84.4	274	5
2023-09-17T00:00	24425	29	-55.3	-84.4	272	6
2023-09-17T00:00	24452	29	-55.3	-84.4	270	6
2023-09-17T00:00	24474	28	-55.3	-84.4	269	7
2023-09-17T00:00	24502	28	-55.4	-84.5	269	7
2023-09-17T00:00	24523	28	-55.3	-84.9	270	8
2023-09-17T00:00	24546	28	-55.2	-84.8	271	8
2023-09-17T00:00	24572	28	-55.2	-84.8	274	8
2023-09-17T00:00	24599	28	-54.9	-84.6	278	8
2023-09-17T00:00	24619	28	-54.5	-84.3	281	8
2023-09-17T00:00	24637	28	-54.2	-84.5	284	8
2023-09-17T00:00	24662	28	-54.2	-84.5	287	8
2023-09-17T00:00	24694	28	-54.2	-84.5	287	8
2023-09-17T00:00	24709	27	-54.4	-84.2	286	8
2023-09-17T00:00	24734	27	-54.2	-84.0	285	8
2023-09-17T00:00	24757	27	-54.2	-84.0	282	8
2023-09-17T00:00	24787	27	-54.1	-84.0	280	7
2023-09-17T00:00	24815	27	-54.2	-84.0	278	7
2023-09-17T00:00	24834	27	-54.3	-84.1	275	6
2023-09-17T00:00	24860	27	-54.4	-84.2	273	6
2023-09-17T00:00	24887	27	-54.5	-84.3	269	6
2023-09-17T00:00	24921	27	-54.5	-84.3	266	7
2023-09-17T00:00	24939	26	-54.6	-84.3	264	7
2023-09-17T00:00	24970	26	-54.6	-84.3	264	7
2023-09-17T00:00	24993	26	-54.7	-84.4	266	8
2023-09-17T00:00	25021	26	-54.6	-84.3	269	8
2023-09-17T00:00	25052	26	-54.4	-84.2	273	9
2023-09-17T00:00	25083	26	-54.2	-84.5	279	9
2023-09-17T00:00	25103	26	-54.0	-84.4	285	9
2023-09-17T00:00	25138	26	-53.7	-84.2	290	10
2023-09-17T00:00	25159	26	-53.3	-83.9	296	10
2023-09-17T00:00	25195	25	-53.1	-83.7	300	10
2023-09-17T00:00	25217	25	-53.0	-83.6	304	9
2023-09-17T00:00	25239	25	-52.7	-83.4	307	9
2023-09-17T00:00	25275	25	-52.7	-83.4	309	8
2023-09-17T00:00	25304	25	-52.9	-83.6	312	7
2023-09-17T00:00	25330	25	-53.0	-83.6	315	6
2023-09-17T00:00	25356	25	-53.1	-83.2	319	6
2023-09-17T00:00	25388	25	-53.2	-83.3	324	5
2023-09-17T00:00	25414	25	-53.4	-83.4	328	4
2023-09-17T00:00	25443	24	-53.5	-83.5	330	4
2023-09-17T00:00	25464	24	-53.5	-83.5	329	3
2023-09-17T00:00	25500	24	-53.5	-83.5	324	3
2023-09-17T00:00	25524	24	-53.7	-83.7	316	3
2023-09-17T00:00	25545	24	-53.8	-83.7	307	3
2023-09-17T00:00	25583	24	-53.7	-83.7	302	3
2023-09-17T00:00	25607	24	-53.7	-83.7	301	4
2023-09-17T00:00	25633	24	-53.5	-83.5	303	4
2023-09-17T00:00	25667	24	-53.4	-83.9	306	4
2023-09-17T00:00	25693	24	-53.4	-83.9	309	4
2023-09-17T00:00	25717	23	-53.6	-84.1	311	4
2023-09-17T00:00	25739	23	-53.6	-84.1	311	4
2023-09-17T00:00	25774	23	-53.6	-84.1	310	4
2023-09-17T00:00	25802	23	-53.4	-83.9	307	4
2023-09-17T00:00	25824	23	-53.2	-83.8	302	4
2023-09-17T00:00	25858	23	-52.9	-83.6	296	4
2023-09-17T00:00	25878	23	-52.8	-83.5	291	5
2023-09-17T00:00	25910	23	-52.6	-83.9	287	5
2023-09-17T00:00	25928	23	-52.6	-83.9	286	6
2023-09-17T00:00	25961	23	-52.5	-83.8	285	6
2023-09-17T00:00	25989	22	-52.2	-83.6	286	7
2023-09-17T00:00	26019	22	-51.9	-83.4	289	7
2023-09-17T00:00	26046	22	-51.7	-83.2	291	7
2023-09-17T00:00	26065	22	-51.5	-83.1	294	7
2023-09-17T00:00	26095	22	-51.4	-83.0	295	7
2023-09-17T00:00	26124	22	-51.4	-83.0	296	7
2023-09-17T00:00	26162	22	-51.4	-83.0	295	8
2023-09-17T00:00	26182	22	-51.1	-82.8	295	8
2023-09-17T00:00	26203	22	-51.1	-82.8	296	9
2023-09-17T00:00	26223	22	-51.2	-82.9	297	9
2023-09-17T00:00	26269	22	-51.2	-82.9	299	9
2023-09-17T00:00	26290	21	-51.2	-82.9	302	9
2023-09-17T00:00	26314	21	-51.2	-82.9	304	9
2023-09-17T00:00	26346	21	-51.2	-82.9	307	9
2023-09-17T00:00	26382	21	-51.2	-82.9	310	9
2023-09-17T00:00	26406	21	-51.3	-82.4	312	9
2023-09-17T00:00	26434	21	-51.3	-82.4	314	8
2023-09-17T00:00	26459	21	-51.3	-82.4	315	8
2023-09-17T00:00	26496	21	-51.4	-82.5	317	8
2023-09-17T00:00	26524	21	-51.5	-82.5	317	7
2023-09-17T00:00	26550	21	-51.5	-82.5	317	7
2023-09-17T00:00	26574	21	-51.4	-83.0	317	8
2023-09-17T00:00	26602	20	-51.3	-82.9	317	7
2023-09-17T00:00	26626	20	-51.3	-82.9	317	7
2023-09-17T00:00	26658	20	-51.4	-83.0	318	7
2023-09-17T00:00	26697	20	-51.3	-82.9	318	6
2023-09-17T00:00	26721	20	-51.4	-83.0	318	6
2023-09-17T00:00	26744	20	-51.3	-82.9	316	6
2023-09-17T00:00	26780	20	-51.3	-82.9	314	6
2023-09-17T00:00	26818	20	-51.3	-82.9	311	7
2023-09-17T00:00	26845	20	-51.3	-82.9	309	7
2023-09-17T00:00	26873	20	-51.4	-83.0	307	7
2023-09-17T00:00	26902	20	-51.3	-82.9	306	6
2023-09-17T00:00	26934	19	-51.2	-82.9	303	5
2023-09-17T00:00	26969	19	-51.2	-82.9	299	4
2023-09-17T00:00	26997	19	-51.3	-82.9	291	3
2023-09-17T00:00	27025	19	-51.3	-82.9	280	3
2023-09-17T00:00	27053	19	-51.3	-82.9	271	3
2023-09-17T00:00	27082	19	-51.4	-83.0	269	3
2023-09-17T00:00	27097	19	-51.3	-82.9	271	4
2023-09-17T00:00	27145	19	-50.9	-82.7	274	4
2023-09-17T00:00	27168	19	-50.8	-82.6	276	4
2023-09-17T00:00	27206	19	-50.9	-82.7	277	5
2023-09-17T00:00	27225	19	-50.9	-82.7	277	5
2023-09-17T00:00	27249	18	-50.7	-82.5	278	6
2023-09-17T00:00	27285	18	-50.8	-82.6	279	6
2023-09-17T00:00	27310	18	-50.6	-82.4	282	7
2023-09-17T00:00	27345	18	-50.7	-82.5	284	7
2023-09-17T00:00	27362	18	-50.8	-82.6	286	8
2023-09-17T00:00	27395	18	-50.9	-82.7	288	8
2023-09-17T00:00	27421	18	-50.8	-82.6	291	7
2023-09-17T00:00	27451	18	-50.7	-82.5	293	7
2023-09-17T00:00	27472	18	-50.7	-82.5	296	7
2023-09-17T00:00	27507	18	-50.5		297	7
2023-09-17T00:00	27530	18	-50.5		298	8
2023-09-17T00:00	27562	18	-50.5		298	8
2023-09-17T00:00	27591	18	-50.3	-82.8	296	7
2023-09-17T00:00	27619	18	-50.1	-82.7	292	7
2023-09-17T00:00	27641	17	-50.0	-82.6	287	7
2023-09-17T00:00	27668	17	-49.9	-82.5	281	6
2023-09-17T00:00	27698	17	-49.8	-82.5	277	6
2023-09-17T00:00	27724	17	-49.7	-82.4	275	6
2023-09-17T00:00	27748	17	-49.7	-82.4	273	6
2023-09-17T00:00	27779	17	-49.5	-82.3	270	5
2023-09-17T00:00	27790	17	-49.5	-82.3	267	5
2023-09-17T00:00	27815	17	-49.3	-82.1	263	5
2023-09-17T00:00	27835	17	-49.4	-82.2	259	6
2023-09-17T00:00	27872	17	-49.4	-82.2	257	6
2023-09-17T00:00	27910	17	-49.4	-82.2	256	6
2023-09-17T00:00	27921	17	-49.2	-82.0	256	6
2023-09-17T00:00	27957	17	-48.9	-81.8	256	6
2023-09-17T00:00	27985	17	-48.6	-81.6	255	7
2023-09-17T00:00	28009	16	-48.6	-81.6	253	7
2023-09-17T00:00	28039	16	-48.4	-82.2	249	7
2023-09-17T00:00	28057	16	-48.1	-81.9	246	8
2023-09-17T00:00	28084	16	-48.0	-81.9	245	8
2023-09-17T00:00	28119	16	-47.9	-81.8	245	9
2023-09-17T00:00	28153	16	-47.8	-81.7	247	9
2023-09-17T00:00	28180	16	-47.6	-81.6	249	9
2023-09-17T00:00	28208	16	-47.4	-81.4	251	9
2023-09-17T00:00	28247	16	-47.2	-81.3	252	9
2023-09-17T00:00	28273	16	-47.2	-81.3	252	9
2023-09-17T00:00	28305	16	-47.1	-81.2	253	9
2023-09-17T00:00	28330	16	-46.8	-81.0	253	10
2023-09-17T00:00	28358	16	-46.8	-81.0	253	10
2023-09-17T00:00	28395	16	-46.7	-80.9	253	10
2023-09-17T00:00	28418	16	-46.3	-80.6	253	10
2023-09-17T00:00	28450	15	-46.0	-80.4	254	10
2023-09-17T00:00	28483	15	-45.9	-80.3	254	10
2023-09-17T00:00	28489	15	-45.9	-80.3	254	10
2023-09-17T00:00	28529	15	-46.0	-80.4	254	11
2023-09-17T00:00	28566	15	-46.2	-80.6	254	11
2023-09-17T00:00	28605	15	-46.3	-80.6	254	12
2023-09-17T00:00	28623	15	-46.4	-80.7	254	12
2023-09-17T00:00	28660	15	-46.5	-80.8	255	12
2023-09-17T00:00	28692	15	-46.5	-80.8	257	12
2023-09-17T00:00	28726	15	-46.5	-80.1	258	12
2023-09-17T00:00	28743	15	-46.6	-80.1	260	12
2023-09-17T00:00	28780	15	-46.6	-80.1	262	13
2023-09-17T00:00	28823	15	-46.7	-80.2	263	13
2023-09-17T00:00	28844	15	-46.8	-80.3	264	14
2023-09-17T00:00	28872	14	-46.9	-80.4	265	14
2023-09-17T00:00	28901	14	-47.1	-80.5	265	15
2023-09-17T00:00	28927	14	-47.1	-80.5	265	15
2023-09-17T00:00	28966	14	-47.3	-80.6	265	15
2023-09-17T00:00	29005	14	-47.3	-80.6	265	15
2023-09-17T00:00	29035	14	-47.3	-80.6	265	15
2023-09-17T00:00	29057	14	-47.3	-80.6	265	15
2023-09-17T00:00	29081	14	-47.3	-80.6	266	15
2023-09-17T00:00	29113	14	-47.3	-80.6	266	16
2023-09-17T00:00	29141	14	-47.4	-80.7	266	16
2023-09-17T00:00	29179	14	-47.4	-80.7	265	17
2023-09-17T00:00	29202	14	-47.4	-80.7	264	17
2023-09-17T00:00	29230	14	-47.4	-80.7	263	17
2023-09-17T00:00	29269	14	-47.5	-80.8	262	18
2023-09-17T00:00	29277	14	-47.5	-80.8	261	18
2023-09-17T00:00	29311	14	-47.6	-80.9	260	18
2023-09-17T00:00	29346	13	-47.7	-80.9	259	18
2023-09-17T00:00	29365	13	-47.8	-81.0	259	17
2023-09-17T00:00	29391	13	-47.9	-81.1	259	17
2023-09-17T00:00	29425	13	-48.2	-81.3	259	17
2023-09-17T00:00	29454	13	-48.2	-81.3	260	17
2023-09-17T00:00	29469	13	-48.3	-81.4	260	18
2023-09-17T00:00	29510	13	-48.1	-81.2	261	18
2023-09-17T00:00	29536	13	-48.1	-81.2	261	18
2023-09-17T00:00	29548	13	-48.3	-81.4	261	18
2023-09-17T00:00	29574	13	-48.5	-81.5	262	18
2023-09-17T00:00	29607	13	-48.5	-81.5	263	18
2023-09-17T00:00	29633	13	-48.6	-81.6	265	18
2023-09-17T00:00	29671	13	-48.6	-81.6	267	18
2023-09-17T00:00	29687	13	-48.6	-81.6	270	18
2023-09-17T00:00	29715	13	-48.6	-81.6	272	17
2023-09-17T00:00	29749	13	-48.3	-81.4	273	17
2023-09-17T00:00	29782	13	-48.2	-81.3	274	17
2023-09-17T00:00	29798	13	-48.1	-81.9	275	16
2023-09-17T00:00	29820	13	-47.9	-81.8	276	16
2023-09-17T00:00	29857	12	-47.7	-81.6	276	16
2023-09-17T00:00	29884	12	-47.5	-81.5	277	16
2023-09-17T00:00	29906	12	-47.2	-81.3	277	16
2023-09-17T00:00	29929	12	-47.2	-81.3	277	15
2023-09-17T00:00	29970	12	-47.3	-81.4	278	15
2023-09-17T00:00	29991	12	-47.2	-81.3	280	15
2023-09-17T00:00	30013	12	-47.2	-81.3	281	15
2023-09-17T00:00	30046	12	-47.1	-81.2	282	15
2023-09-17T00:00	30078	12	-47.0	-81.1	284	15
2023-09-17T00:00	30110	12	-47.1	-81.2	285	14
2023-09-17T00:00	30130	12	-47.2	-81.3	285	15
2023-09-17T00:00	30155	12	-47.3	-81.4	285	15
2023-09-17T00:00	30185	12	-47.3	-80.6	285	15
2023-09-17T00:00	30220	12	-47.5	-80.8	284	15
2023-09-17T00:00	30248	12	-47.7	-80.9	283	15
2023-09-17T00:00	30261	12	-47.8	-81.0	282	16
2023-09-17T00:00	30292	12	-48.0	-81.2	281	16
2023-09-17T00:00	30317	12	-48.1	-81.2	279	16
2023-09-17T00:00	30355	12	-48.1	-81.2	278	16
2023-09-17T00:00	30390	12	-48.0	-81.2	278	16
2023-09-17T00:00	30413	11	-47.9	-81.1	277	16
2023-09-17T00:00	30448	11	-47.9	-81.1	276	15
2023-09-17T00:00	30464	11	-48.0	-81.2	276	15
2023-09-17T00:00	30504	11	-48.3	-81.4	277	14
2023-09-17T00:00	30530	11	-48.4	-81.4	277	14
2023-09-17T00:00	30572	11	-48.6	-81.6	277	14
2023-09-17T00:00	30599	11	-48.7	-81.7	278	13
2023-09-17T00:00	30634	11	-48.8	-81.7	278	13
2023-09-17T00:00	30661	11	-49.0	-81.9	277	12
2023-09-17T00:00	30688	11	-49.1	-82.0	276	12
2023-09-17T00:00	30712	11	-49.0	-81.9	275	12
2023-09-17T00:00	30753	11	-49.0	-81.9	275	12
2023-09-17T00:00	30797	11	-48.9	-81.8	274	12
2023-09-17T00:00	30818	11	-48.8	-81.7	272	12
2023-09-17T00:00	30866	11	-48.7	-81.7	271	12
2023-09-17T00:00	30871	11	-48.6	-81.6	270	12
2023-09-17T00:00	30904	11	-48.7	-81.7	270	13
2023-09-17T00:00	30928	11	-48.7	-81.7	271	13
2023-09-17T00:00	30976	11	-48.7	-81.7	272	13
2023-09-17T00:00	31005	10	-48.7	-81.7	273	13
2023-09-17T00:00	31033	10	-48.7	-81.7	274	13
2023-09-17T00:00	31063	10	-48.8	-81.7	276	13
2023-09-17T00:00	31100	10	-48.8	-81.7	277	14
2023-09-17T00:00	31105	10	-49.0	-81.9	278	14
2023-09-17T00:00	31149	10	-48.8	-82.4	280	14
2023-09-17T00:00	31180	10	-48.1	-81.9	281	15
2023-09-17T00:00	31203	10	-47.9	-81.8	282	15
2023-09-17T00:00	31226	10	-47.9	-81.8	283	15
2023-09-17T00:00	31253	10	-47.7	-81.6	285	15
2023-09-17T00:00	31285	10	-47.6	-81.6	287	15
2023-09-17T00:00	31323	10	-47.7	-81.6	289	14
2023-09-17T00:00	31339	10	-47.4	-81.4	291	14
2023-09-17T00:00	31361	10	-46.9	-81.1	293	14
2023-09-17T00:00	31401	10	-46.9	-81.1	295	14
2023-09-17T00:00	31411	10	-47.0	-81.1	297	13
2023-09-17T00:00	31461	10	-47.2	-81.3	298	13
2023-09-17T00:00	31484	10	-47.1	-81.2	298	13
2023-09-17T00:00	31517	10	-47.1	-81.2	297	13
2023-09-17T00:00	31537	10	-47.0	-81.1	296	14
2023-09-17T00:00	31561	10	-46.8	-81.0	295	14
2023-09-17T00:00	31596	10	-46.8	-81.0	294	14
2023-09-17T00:00	31614	10	-46.8	-81.0	294	14
2023-09-17T00:00	31646	10	-46.9	-81.1	295	13
2023-09-17T00:00	31671	10	-46.6	-80.9	296	12
2023-09-17T00:00	31696	9	-46.4	-80.7	297	11
2023-09-17T00:00	31715	9	-46.3	-80.6	297	10
2023-09-17T00:00	31749	9	-46.3	-81.4	297	10
2023-09-17T00:00	31787	9	-46.2	-81.4	296	9
2023-09-17T00:00	31816	9	-46.1	-81.3	294	9
2023-09-17T00:00	31835	9	-46.0	-81.2	291	9
2023-09-17T00:00	31858	9	-45.7	-81.0	289	10
2023-09-17T00:00	31899	9	-44.9	-80.4	289	10
2023-09-17T00:00	31915	9	-44.7	-80.3	291	10
2023-09-17T00:00	31959	9	-44.5	-80.1	295	11
2023-09-17T00:00	31988	9	-44.0	-80.7	300	11
2023-09-17T00:00	32009	9	-43.9	-80.7	305	12
2023-09-17T00:00	32031	9	-43.8	-80.6	308	12
2023-09-17T00:00	32071	9	-43.7	-80.5	310	12
2023-09-17T00:00	32110	9	-43.4	-80.3	311	12
2023-09-17T00:00	32115	9	-43.1	-80.1	311	12
2023-09-17T00:00	32141	9	-43.2	-79.2	311	12
2023-09-17T00:00	32180	9	-43.2	-79.2	311	12
2023-09-17T00:00	32200	9	-43.2	-79.2	310	11
2023-09-17T00:00	32225	9	-43.3	-79.3	309	11
2023-09-17T00:00	32268	9	-43.3	-79.3	306	11
2023-09-17T00:00	32294	9	-43.3	-79.3	303	10
2023-09-17T00:00	32301	9	-43.2	-79.2	299	9
2023-09-17T00:00	32336	9	-43.0	-79.1	297	9
2023-09-17T00:00	32378	9	-42.9	-80.0	296	9
2023-09-17T00:00	32415	8	-42.5	-79.7	298	8
2023-09-17T00:00	32445	8	-42.2	-79.5	299	7
2023-09-17T00:00	32475	8	-42.1	-79.4	299	7
2023-09-17T00:00	32513	8	-42.0	-79.3	297	7
2023-09-17T00:00	32567	8	-41.7	-79.1	288	7
2023-09-17T00:00	32589	8	-41.6	-79.0	283	8
2023-09-17T00:00	32625	8	-41.5	-79.0	280	8
2023-09-17T00:00	32661	8	-41.4	-78.9	278	9
2023-09-17T00:00	32680	8	-41.5	-79.0	276	11
2023-09-17T00:00	32713	8	-41.3	-78.8	275	11
2023-09-17T00:00	32746	8	-41.1	-78.7	274	12
2023-09-17T00:00	32780	8	-41.1	-78.7	274	12
2023-09-17T00:00	32819	8	-41.2	-78.8	273	13
2023-09-17T00:00	32835	8	-41.3	-78.8	273	13
2023-09-17T00:00	32854	8	-41.2	-78.8	272	13
2023-09-17T00:00	32877	8	-41.1	-78.7	271	12
2023-09-17T00:00	32903	8	-40.9		269	12
2023-09-17T00:00	32931	8	-40.8	-78.5	267	11
2023-09-17T00:00	32969	8	-40.6	-78.3	265	10
2023-09-17T00:00	32987	8	-40.4	-78.2	263	9
2023-09-17T00:00	33018	8	-40.3	-78.1	260	9
2023-09-17T00:00	33074	8	-40.4	-78.2	257	8
2023-09-17T00:00	33086	8	-40.5	-78.3	252	8
2023-09-17T00:00	33115	8	-40.6	-78.3	248	8
2023-09-17T00:00	33138	8	-40.8	-78.5	244	9
2023-09-17T00:00	33148	8	-40.8	-78.5	241	9
2023-09-17T00:00	33201	8	-40.5	-78.3	239	9
2023-09-17T00:00	33253	8	-40.5	-78.3	239	9
2023-09-17T00:00	33260	8	-40.5	-78.3	239	9
2023-09-17T00:00	33267	7	-40.2	-78.0	240	9
2023-09-17T00:00	33296	7	-40.1	-78.0	242	9
2023-09-17T00:00	33342	7	-40.1	-78.0	243	9
2023-09-17T00:00	33376	7	-40.2	-78.0	245	9
2023-09-17T00:00	33401	7	-40.1	-78.0	246	10
2023-09-17T00:00	33422	7	-40.2	-78.0	248	11
2023-09-17T00:00	33444	7	-40.2	-78.0	251	12
2023-09-17T00:00	33480	7	-40.2	-78.0	254	13
2023-09-17T00:00	33492	7	-40.2	-78.0	257	13
2023-09-17T00:00	33520	7	-39.6	-78.8	259	14
2023-09-17T00:00	33562	7	-39.3	-78.5	260	15
2023-09-17T00:00	33588	7	-38.8	-78.2	259	15
2023-09-17T00:00	33609	7	-38.5	-78.0	258	15
2023-09-17T00:00	33629	7	-38.4	-77.9	255	15
2023-09-17T00:00	33669	7	-38.3	-77.9	254	15
2023-09-17T00:00	33702	7	-38.3	-77.9	253	16
2023-09-17T00:00	33737	7	-38.3	-77.9	254	16
2023-09-17T00:00	33746	7	-38.2	-77.8	256	16
2023-09-17T00:00	33786	7	-38.1	-77.7	258	16
2023-09-17T00:00	33829	7	-38.1	-77.7	259	16
2023-09-17T00:00	33830	7	-38.0	-77.6	260	16
2023-09-17T00:00	33853	7	-38.0	-77.6	260	16
2023-09-17T00:00	33884	7	-38.0	-77.6	261	16
2023-09-17T00:00	33901	7	-38.1	-77.7	261	16
2023-09-17T00:00	33943	7	-38.2	-77.8	261	17
2023-09-17T00:00	33954	7	-38.3	-77.9	261	16
2023-09-17T00:00	33997	7	-38.3	-77.9	261	16
2023-09-17T00:00	34015	7	-38.4	-77.9	262	16
2023-09-17T00:00	34038	7	-38.5	-78.0	264	16
2023-09-17T00:00	34105	7	-38.5	-78.0	266	16
2023-09-17T00:00	34109	7	-38.6	-78.1	268	16
2023-09-17T00:00	34121	7	-38.7	-78.1	272	16
2023-09-17T00:00	34164	7	-38.8	-78.2	275	17
2023-09-17T00:00	34184	7	-38.7	-78.1	278	17
2023-09-17T00:00	34201	7	-38.7	-78.1	281	17
2023-09-17T00:00	34219	7	-38.3	-77.9	283	17
2023-09-17T00:00	34257	7	-38.1	-77.7	284	16
2023-09-17T00:00	34280	6	-38.0	-77.6	284	16
2023-09-17T00:00	34331	6	-38.0	-77.6	283	15
2023-09-17T00:00	34344	6	-37.9	-77.6	282	14
2023-09-17T00:00	34350	6	-37.8	-77.5	280	14
2023-09-17T00:00	34372	6	-37.6	-77.4	278	14
2023-09-17T00:00	34386	6	-37.4	-77.2	276	13
2023-09-17T00:00	34421	6	-37.4	-77.2	274	13
2023-09-17T00:00	34444	6	-37.5	-77.3	272	13
2023-09-17T00:00	34461	6	-37.5	-77.3	270	13
2023-09-17T00:00	34503	6	-37.5	-77.3	269	13
2023-09-17T00:00	34558	6	-37.4	-77.2	271	14
2023-09-17T00:00	34582	6	-37.2	-77.1	276	15
2023-09-17T00:00	34634	6	-37.1	-77.0	278	16
2023-09-17T00:00	34647	6	-37.0	-77.0	280	17
2023-09-17T00:00	34672	6	-36.9	-76.9	281	17
2023-09-17T00:00	34743	6	-36.4	-76.5	279	18
2023-09-17T00:00	34744	6	-36.3	-76.5	278	18
2023-09-17T00:00	34782	6	-36.3	-76.5	276	19
2023-09-17T00:00	34830	6	-36.4	-76.5	274	19
2023-09-17T00:00	34856	6	-36.7	-76.7	271	20
2023-09-17T00:00	34887	6	-36.9	-76.9	270	20
2023-09-17T00:00	34910	6	-37.1	-77.0	269	21
2023-09-17T00:00	34930	6	-37.3	-77.2	269	21
2023-09-17T00:00	34964	6	-37.2	-77.1	269	22
2023-09-17T00:00	35013	6	-36.9	-76.9	270	22
2023-09-17T00:00	35042	6	-36.8	-76.8	270	21
2023-09-17T00:00	35077	6	-36.9	-76.9	273	21
2023-09-17T00:00	35098	6	-37.1	-77.0	274	21
2023-09-17T06:00	-999					
2023-09-17T06:00	128	1000	15.0	13.9	269	2
2023-09-17T06:00	155	997	16.8	12.9	262	2
2023-09-17T06:00	180	994	18.6	12.5	260	2
2023-09-17T06:00	201	992	19.8	12.4	257	3
2023-09-17T06:00	221	990	20.2	12.5	254	3
2023-09-17T06:00	246	987	20.6	12.4	251	3
2023-09-17T06:00	277	983	20.8	12.2	249	3
2023-09-17T06:00	297	981	20.8	12.5	250	2
2023-09-17T06:00	320	978	20.8	12.5	255	2
2023-09-17T06:00	341	976	20.7	12.4	262	2
2023-09-17T06:00	368	973	20.7	12.2	271	2
2023-09-17T06:00	391	970	20.7	11.9	279	1
2023-09-17T06:00	414	968	20.6	11.9	282	1
2023-09-17T06:00	435	965	20.4	11.7	274	1
2023-09-17T06:00	457	963	20.2	11.5	247	0
2023-09-17T06:00	481	960	20.2	11.2	219	1
2023-09-17T06:00	506	958	20.0	11.0	207	1
2023-09-17T06:00	529	955	19.9	11.1	203	1
2023-09-17T06:00	551	953	19.7	11.5	203	1
2023-09-17T06:00	571	950	19.5	11.9	202	1
2023-09-17T06:00	594	948	19.3	11.4	199	1
2023-09-17T06:00	619	945	19.2	11.1	192	1
2023-09-17T06:00	643	942	19.0	11.6	187	1
2023-09-17T06:00	668	940	18.8	11.2	184	1
2023-09-17T06:00	691	937	18.7	10.7	187	0
2023-09-17T06:00	714	935	18.6	9.9	199	0
2023-09-17T06:00	736	932	18.5	9.1	264	0
2023-09-17T06:00	759	930	18.4	9.0	303	0
2023-09-17T06:00	785	927	18.1	9.2	305	1
2023-09-17T06:00	809	924	17.9	9.1	298	1
2023-09-17T06:00	831	922	17.7	9.2	290	2
2023-09-17T06:00	849	920	17.5	9.2	283	2
2023-09-17T06:00	874	917	17.2	9.3	278	2
2023-09-17T06:00	898	915	17.0	9.4	276	2
2023-09-17T06:00	919	912	16.9	9.3	276	2
2023-09-17T06:00	942	910	16.7	9.0	280	2
2023-09-17T06:00	971	907	16.6	8.5	290	1
2023-09-17T06:00	994	905	16.4	8.8	314	1
2023-09-17T06:00	1013	903	16.2	8.7	334	1
2023-09-17T06:00	1031	900	16.0	8.7	332	1
2023-09-17T06:00	1053	898	15.8	8.9	322	2
2023-09-17T06:00	1083	895	15.6	8.8	313	2
2023-09-17T06:00	1110	892	15.3	8.5	307	2
2023-09-17T06:00	1138	889	15.1	8.9	305	2
2023-09-17T06:00	1169	886	14.8	8.9	307	2
2023-09-17T06:00	1195	883	14.5	8.8	314	1
2023-09-17T06:00	1219	881	14.3	8.7	325	1
2023-09-17T06:00	1241	879	14.1	8.7	333	1
2023-09-17T06:00	1263	876	13.9	8.7	334	2
2023-09-17T06:00	1288	874	13.6	8.8	333	2
2023-09-17T06:00	1311	871	13.4	8.6	331	3
2023-09-17T06:00	1331	869	13.3	8.4	328	3
2023-09-17T06:00	1351	867	13.1	8.4	326	3
2023-09-17T06:00	1374	865	12.9	8.6	325	2
2023-09-17T06:00	1399	862	12.7	8.5	325	2
2023-09-17T06:00	1420	860	12.5	8.0	327	2
2023-09-17T06:00	1445	858	12.3	7.6	334	2
2023-09-17T06:00	1470	855	12.1	7.2	344	1
2023-09-17T06:00	1494	852	12.1	6.2	354	1
2023-09-17T06:00	1518	850	12.1	4.5	359	1
2023-09-17T06:00	1540	848	12.6	-0.8	357	1
2023-09-17T06:00	1565	845	12.7	-2.2	352	1
2023-09-17T06:00	1592	843	13.1	-4.6	344	1
2023-09-17T06:00	1616	840	13.0	-1.3	334	1
2023-09-17T06:00	1640	838	12.6	2.3	319	1
2023-09-17T06:00	1668	835	12.2	5.2	306	2
2023-09-17T06:00	1694	833	12.0	5.0	298	2
2023-09-17T06:00	1715	830	11.9	5.3	294	2
2023-09-17T06:00	1735	828	11.7	5.3	291	2
2023-09-17T06:00	1766	825	11.5	5.2	287	2
2023-09-17T06:00	1796	823	11.3	5.3	281	2
2023-09-17T06:00	1822	820	11.1	4.8	277	2
2023-09-17T06:00	1850	817	11.0	4.1	277	2
2023-09-17T06:00	1873	815	10.8	4.9	281	2
2023-09-17T06:00	1897	813	10.6	4.9	284	2
2023-09-17T06:00	1916	811	10.4	4.7	283	2
2023-09-17T06:00	1936	808	10.3	4.7	278	3
2023-09-17T06:00	1965	806	10.0	4.5	270	3
2023-09-17T06:00	1995	803	9.8	4.4	262	3
2023-09-17T06:00	2024	800	9.6	4.3	257	3
2023-09-17T06:00	2050	798	9.4	4.3	255	2
2023-09-17T06:00	2075	795	9.2	3.9	257	2
2023-09-17T06:00	2100	793	9.0	3.8	260	2
2023-09-17T06:00	2122	791	8.9	3.9	262	2
2023-09-17T06:00	2142	789	8.8	3.9	260	3
2023-09-17T06:00	2170	786	8.6	3.7	256	3
2023-09-17T06:00	2198	784	8.6	2.3	251	4
2023-09-17T06:00	2214	782	8.6	0.7	248	4
2023-09-17T06:00	2237	780	8.5	2.0	247	4
2023-09-17T06:00	2260	778	8.3	2.8	248	4
2023-09-17T06:00	2283	776	8.1	2.2	251	4
2023-09-17T06:00	2306	773	8.2	0.1	255	4
2023-09-17T06:00	2328	771	8.2	0.0	259	4
2023-09-17T06:00	2358	769	8.1	-0.7	263	4
2023-09-17T06:00	2386	766	7.9	-1.3	268	4
2023-09-17T06:00	2414	763	7.7	-2.1	271	4
2023-09-17T06:00	2439	761	7.6	-3.2	272	4
2023-09-17T06:00	2467	759	7.5	-5.1	269	5
2023-09-17T06:00	2490	756	7.5	-6.5	264	5
2023-09-17T06:00	2514	754	7.6	-8.4	257	5
2023-09-17T06:00	2536	752	7.5	-6.3	251	5
2023-09-17T06:00	2556	750	7.3	-4.6	246	5
2023-09-17T06:00	2574	749	7.2	-4.7	243	5
2023-09-17T06:00	2597	746	7.1	-5.2	243	5
2023-09-17T06:00	2622	744	7.0	-5.3	245	5
2023-09-17T06:00	2647	742	6.8	-5.3	250	5
2023-09-17T06:00	2671	740	6.6	-5.2	255	5
2023-09-17T06:00	2698	738	6.4	-4.5	260	5
2023-09-17T06:00	2721	735	6.3	-3.6	265	5
2023-09-17T06:00	2741	733	6.2	-3.5	267	5
2023-09-17T06:00	2762	732	6.1	-3.8	269	5
2023-09-17T06:00	2789	729	5.9	-4.3	272	5
2023-09-17T06:00	2816	727	5.6	-4.8	274	4
2023-09-17T06:00	2839	725	5.6	-7.7	277	4
2023-09-17T06:00	2861	723	5.5	-9.2	279	4
2023-09-17T06:00	2882	721	5.3	-10.1	279	4
2023-09-17T06:00	2906	719	5.2	-10.9	278	4
2023-09-17T06:00	2932	717	5.1	-11.7	276	4
2023-09-17T06:00	2954	715	4.9	-12.2	276	5
2023-09-17T06:00	2976	713	4.8	-12.5	277	5
2023-09-17T06:00	2997	711	4.8	-13.4	280	5
2023-09-17T06:00	3022	709	4.6	-6.2	284	5
2023-09-17T06:00	3047	707	4.3	-6.7	288	5
2023-09-17T06:00	3070	705	4.2	-7.8	293	5
2023-09-17T06:00	3094	703	4.0	-7.2	296	4
2023-09-17T06:00	3120	700	3.9	-8.0	297	4
2023-09-17T06:00	3145	698	3.8	-8.8	297	4
2023-09-17T06:00	3167	696	3.6	-8.9	297	4
2023-09-17T06:00	3193	694	3.5	-9.0	296	4
2023-09-17T06:00	3217	692	3.3	-9.2	297	4
2023-09-17T06:00	3240	690	3.1	-9.3	298	4
2023-09-17T06:00	3262	688	2.9	-9.1	299	4
2023-09-17T06:00	3289	686	2.7	-9.0	300	4
2023-09-17T06:00	3312	684	2.5	-8.9	299	4
2023-09-17T06:00	3336	682	2.3	-8.9	297	4
2023-09-17T06:00	3359	680	2.1	-8.7	295	4
2023-09-17T06:00	3383	678	1.8	-9.1	294	4
2023-09-17T06:00	3402	676	1.7	-9.8	294	5
2023-09-17T06:00	3422	675	1.5	-9.9	295	5
2023-09-17T06:00	3446	672	1.3	-10.5	295	5
2023-09-17T06:00	3473	670	1.1	-10.7	295	5
2023-09-17T06:00	3496	668	0.9	-10.0	294	5
2023-09-17T06:00	3524	666	0.7	-9.1	294	5
2023-09-17T06:00	3544	664	0.6	-9.1	294	6
2023-09-17T06:00	3567	663	0.5	-9.1	294	6
2023-09-17T06:00	3589	661	0.4	-9.3	294	6
2023-09-17T06:00	3611	659	0.3	-9.9	293	6
2023-09-17T06:00	3638	657	0.1	-10.6	292	6
2023-09-17T06:00	3661	655	0.1	-10.9	290	6
2023-09-17T06:00	3680	653	0.0	-11.1	287	6
2023-09-17T06:00	3699	652	0.2	-12.8	285	6
2023-09-17T06:00	3730	649	0.1	-14.0	284	6
2023-09-17T06:00	3751	648	0.0	-14.3	283	6
2023-09-17T06:00	3771	646	-0.2	-14.8	283	6
2023-09-17T06:00	3792	644	-0.3	-14.9	283	7
2023-09-17T06:00	3819	642	-0.5	-15.6	283	7
2023-09-17T06:00	3840	640	-0.6	-16.3	283	7
2023-09-17T06:00	3864	638	-0.8	-15.7	284	7
2023-09-17T06:00	3893	636	-1.0	-15.6	284	7
2023-09-17T06:00	3916	634	-1.2	-15.6	284	7
2023-09-17T06:00	3936	633	-1.4	-15.0	281	7
2023-09-17T06:00	3963	631	-1.6	-15.1	277	7
2023-09-17T06:00	3987	629	-1.8	-15.5	272	7
2023-09-17T06:00	4010	627	-1.9	-15.5	268	7
2023-09-17T06:00	4025	626	-2.0		265	7
2023-09-17T06:00	4044	624	-2.1	-14.8	264	7
2023-09-17T06:00	4062	623	-2.3	-14.8	264	6
2023-09-17T06:00	4082	621	-2.5	-14.8	263	6
2023-09-17T06:00	4102	620	-2.6	-15.2	261	6
2023-09-17T06:00	4126	618	-2.7	-15.2	259	6
2023-09-17T06:00	4145	616	-2.8	-13.3	257	6
2023-09-17T06:00	4171	614	-3.0	-13.8	254	6
2023-09-17T06:00	4199	612	-3.2	-14.4	251	6
2023-09-17T06:00	4224	610	-3.3	-14.1	248	6
2023-09-17T06:00	4246	608	-3.4	-13.0	244	6
2023-09-17T06:00	4264	607	-3.5	-12.6	241	6
2023-09-17T06:00	4283	606	-3.6	-13.0	239	6
2023-09-17T06:00	4304	604	-3.7	-13.7	237	6
2023-09-17T06:00	4324	602	-3.7	-14.3	237	6
2023-09-17T06:00	4345	601	-3.8	-14.6	236	6
2023-09-17T06:00	4367	599	-4.0	-14.9	234	6
2023-09-17T06:00	4394	597	-4.1	-15.3	231	6
2023-09-17T06:00	4420	595	-4.3	-18.4	228	6
2023-09-17T06:00	4440	593	-4.2	-25.8	226	7
2023-09-17T06:00	4467	592	-4.2	-26.9	225	7
2023-09-17T06:00	4493	590	-4.4	-26.9	225	7
2023-09-17T06:00	4512	588	-4.6	-26.7	225	7
2023-09-17T06:00	4531	587	-4.6	-26.5	225	6
2023-09-17T06:00	4551	585	-4.8	-27.0	225	7
2023-09-17T06:00	4580	583	-4.9	-28.8	224	7
2023-09-17T06:00	4607	581	-5.2	-28.9	223	7
2023-09-17T06:00	4635	579	-5.3	-27.5	222	6
2023-09-17T06:00	4659	577	-5.3	-26.8	220	6
2023-09-17T06:00	4676	576	-5.4	-26.8	219	6
2023-09-17T06:00	4697	575	-5.6		219	6
2023-09-17T06:00	4717	573	-5.7	-25.6	221	6
2023-09-17T06:00	4743	571	-6.0	-25.5	224	6
2023-09-17T06:00	4764	570	-6.1	-24.2	227	6
2023-09-17T06:00	4784	568	-6.3	-24.0	229	6
2023-09-17T06:00	4802	567	-6.4	-24.4	229	6
2023-09-17T06:00	4824	565	-6.5	-24.2	229	6
2023-09-17T06:00	4854	563	-6.7	-22.9	227	6
2023-09-17T06:00	4884	561	-6.6	-26.7	226	6
2023-09-17T06:00	4902	560	-6.7	-27.4	226	6
2023-09-17T06:00	4920	558	-6.7	-28.0	226	5
2023-09-17T06:00	4940	557	-6.6	-30.4	226	5
2023-09-17T06:00	4964	555	-6.6	-29.9	225	5
2023-09-17T06:00	4987	554	-6.7	-30.5	224	4
2023-09-17T06:00	5017	552	-6.9	-28.7	224	4
2023-09-17T06:00	5041	550	-7.1	-27.8	225	4
2023-09-17T06:00	5069	548	-7.3	-28.0	226	4
2023-09-17T06:00	5090	546	-7.4	-28.4	228	5
2023-09-17T06:00	5110	545	-7.6	-28.5	228	5
2023-09-17T06:00	5136	543	-7.6	-29.7	228	5
2023-09-17T06:00	5165	541	-7.8	-30.5	227	6
2023-09-17T06:00	5190	539	-8.0	-30.6	226	6
2023-09-17T06:00	5212	538	-8.1	-31.4	227	6
2023-09-17T06:00	5230	537	-8.2	-31.3	227	6
2023-09-17T06:00	5251	535	-8.3	-31.5	226	6
2023-09-17T06:00	5271	534	-8.5	-31.8	226	6
2023-09-17T06:00	5297	532	-8.7	-32.7	225	6
2023-09-17T06:00	5325	530	-8.9	-32.9	224	6
2023-09-17T06:00	5347	529	-9.1		225	6
2023-09-17T06:00	5369	527	-9.3	-33.2	226	6
2023-09-17T06:00	5391	526	-9.5	-33.3	229	6
2023-09-17T06:00	5411	524	-9.7	-33.7	232	6
2023-09-17T06:00	5431	523	-9.9	-33.7	235	5
2023-09-17T06:00	5455	521	-10.1	-33.7	240	5
2023-09-17T06:00	5480	520	-10.3	-33.7	245	5
2023-09-17T06:00	5506	518	-10.5	-35.2	249	5
2023-09-17T06:00	5537	516	-10.6	-39.4	252	5
2023-09-17T06:00	5563	514	-10.5	-39.9	252	5
2023-09-17T06:00	5587	512	-10.7	-39.3	248	5
2023-09-17T06:00	5612	511	-10.9	-36.4	241	5
2023-09-17T06:00	5645	509	-11.0	-36.8	235	4
2023-09-17T06:00	5675	507	-11.2	-37.0	230	4
2023-09-17T06:00	5694	505	-11.3	-37.4	230	5
2023-09-17T06:00	5720	503	-11.6	-37.6	232	5
2023-09-17T06:00	5754	501	-11.8	-38.2	237	5
2023-09-17T06:00	5779	500	-12.0	-38.2	240	6
2023-09-17T06:00	5802	498	-12.1	-39.1	243	6
2023-09-17T06:00	5827	497	-12.3	-39.8	244	6
2023-09-17T06:00	5854	495	-12.5	-40.6	243	7
2023-09-17T06:00	5882	493	-12.7	-41.0	242	7
2023-09-17T06:00	5909	491	-12.9		241	7
2023-09-17T06:00	5939	489	-13.2	-41.6	241	7
2023-09-17T06:00	5964	488	-13.4	-41.7	241	7
2023-09-17T06:00	5989	486	-13.6	-41.7	242	7
2023-09-17T06:00	6020	484	-13.9	-42.0	244	7
2023-09-17T06:00	6042	483	-14.1	-42.0	245	7
2023-09-17T06:00	6066	481	-14.3	-42.2	247	7
2023-09-17T06:00	6091	480	-14.5	-42.2	247	8
2023-09-17T06:00	6117	478	-14.6	-42.2	247	8
2023-09-17T06:00	6145	476	-14.9	-42.6	247	8
2023-09-17T06:00	6176	474	-15.2	-42.7	246	9
2023-09-17T06:00	6204	473	-15.4	-43.0	244	8
2023-09-17T06:00	6225	471	-15.6	-43.2	241	8
2023-09-17T06:00	6245	470	-15.7	-43.3	238	8
2023-09-17T06:00	6265	469	-15.9	-43.3	235	7
2023-09-17T06:00	6286	467	-16.1	-43.4	232	7
2023-09-17T06:00	6316	466	-16.4		229	7
2023-09-17T06:00	6345	464	-16.6		227	6
2023-09-17T06:00	6365	462	-16.8	-43.6	226	7
2023-09-17T06:00	6388	461	-17.0	-43.9	225	7
2023-09-17T06:00	6408	460	-17.1	-43.5	225	7
2023-09-17T06:00	6438	458	-17.4	-43.6	225	7
2023-09-17T06:00	6466	456	-17.6	-43.3	225	7
2023-09-17T06:00	6492	455	-17.7	-43.6	223	6
2023-09-17T06:00	6528	453	-17.8	-44.7	221	6
2023-09-17T06:00	6557	451	-17.9	-45.3	218	5
2023-09-17T06:00	6584	449	-17.9	-46.5	214	5
2023-09-17T06:00	6604	448	-18.0	-46.9	210	5
2023-09-17T06:00	6626	447	-18.0	-46.9	207	5
2023-09-17T06:00	6647	445	-18.2	-47.1	205	5
2023-09-17T06:00	6669	444	-18.4	-47.0	205	4
2023-09-17T06:00	6689	443	-18.5	-47.3	206	4
2023-09-17T06:00	6715	441	-18.6	-47.6	209	4
2023-09-17T06:00	6739	440	-18.8	-47.9	212	4
2023-09-17T06:00	6767	438	-18.9	-48.2	214	4
2023-09-17T06:00	6797	437	-19.0	-48.2	215	5
2023-09-17T06:00	6828	435	-19.3	-48.5	215	5
2023-09-17T06:00	6854	433	-19.5	-48.4	216	5
2023-09-17T06:00	6876	432	-19.7	-48.6	217	5
2023-09-17T06:00	6899	430	-19.9	-48.6	218	5
2023-09-17T06:00	6927	429	-20.1	-48.6	220	5
2023-09-17T06:00	6951	428	-20.3	-48.7	221	5
2023-09-17T06:00	6977	426	-20.5	-48.9	223	5
2023-09-17T06:00	7010	424	-20.8	-48.9	224	5
2023-09-17T06:00	7046	422	-21.1	-49.0	225	5
2023-09-17T06:00	7069	421	-21.3	-49.2	225	5
2023-09-17T06:00	7094	419	-21.5	-49.0	224	5
2023-09-17T06:00	7121	418	-21.7	-49.0	223	5
2023-09-17T06:00	7152	416	-22.0	-49.2	223	4
2023-09-17T06:00	7179	414	-22.2	-49.2	225	4
2023-09-17T06:00	7206	413	-22.4	-49.4	228	4
2023-09-17T06:00	7240	411	-22.6	-48.4	234	4
2023-09-17T06:00	7272	409	-22.7	-42.1	241	4
2023-09-17T06:00	7302	408	-22.9	-40.4	250	4
2023-09-17T06:00	7322	407	-23.0	-39.2	257	4
2023-09-17T06:00	7341	405	-23.2	-36.6	263	4
2023-09-17T06:00	7362	404	-23.4	-34.9	265	4
2023-09-17T06:00	7382	403	-23.6	-34.3	266	4
2023-09-17T06:00	7405	402	-23.8	-33.5	265	4
2023-09-17T06:00	7426	401	-24.0	-32.9	264	4
2023-09-17T06:00	7448	400	-24.2	-32.7	264	4
2023-09-17T06:00	7470	398	-24.4	-32.8	265	4
2023-09-17T06:00	7492	397	-24.6	-32.7	267	4
2023-09-17T06:00	7513	396	-24.8	-32.8	269	3
2023-09-17T06:00	7535	395	-25.0	-32.6	270	3
2023-09-17T06:00	7558	394	-25.3	-32.8	271	3
2023-09-17T06:00	7580	392	-25.5	-32.9	271	4
2023-09-17T06:00	7604	391	-25.7	-32.4	270	4
2023-09-17T06:00	7634	390	-25.9	-31.0	269	5
2023-09-17T06:00	7656	388	-26.1	-30.8	267	5
2023-09-17T06:00	7676	387	-26.3	-30.7	265	5
2023-09-17T06:00	7698	386	-26.4	-30.5	263	5
2023-09-17T06:00	7716	385	-26.6	-30.2	261	5
2023-09-17T06:00	7738	384	-26.7	-30.3	260	5
2023-09-17T06:00	7759	383	-26.9	-30.4	259	5
2023-09-17T06:00	7780	382	-27.1	-30.5	258	5
2023-09-17T06:00	7802	380	-27.3	-30.8	258	5
2023-09-17T06:00	7824	379	-27.5	-30.9	258	5
2023-09-17T06:00	7847	378	-27.7	-30.9	259	5
2023-09-17T06:00	7873	377	-27.9	-31.0	260	5
2023-09-17T06:00	7905	375	-28.2	-31.7	261	5
2023-09-17T06:00	7927	374	-28.3		261	5
2023-09-17T06:00	7955	373	-28.5	-32.7	260	5
2023-09-17T06:00	7977	371	-28.7	-33.0	259	5
2023-09-17T06:00	7999	370	-28.9	-33.6	259	5
2023-09-17T06:00	8021	369	-29.0	-34.3	259	5
2023-09-17T06:00	8042	368	-29.2	-33.8	260	5
2023-09-17T06:00	8064	367	-29.4	-33.5	260	6
2023-09-17T06:00	8088	366	-29.5	-34.2	259	6
2023-09-17T06:00	8110	364	-29.7	-34.4	257	6
2023-09-17T06:00	8138	363	-29.9	-34.8	255	6
2023-09-17T06:00	8169	361	-30.2	-34.9	253	7
2023-09-17T06:00	8199	360	-30.4	-35.2	252	7
2023-09-17T06:00	8219	359	-30.6	-35.2	251	7
2023-09-17T06:00	8240	358	-30.8	-35.8	249	8
2023-09-17T06:00	8263	357	-30.9	-36.3	247	8
2023-09-17T06:00	8282	356	-31.0	-36.3	245	8
2023-09-17T06:00	8305	355	-31.2	-36.4	243	9
2023-09-17T06:00	8324	354	-31.3	-36.3	242	9
2023-09-17T06:00	8345	353	-31.5	-36.4	240	9
2023-09-17T06:00	8366	352	-31.7	-36.4	240	9
2023-09-17T06:00	8386	351	-31.9	-36.2	240	9
2023-09-17T06:00	8406	350	-32.1	-36.2	240	9
2023-09-17T06:00	8432	348	-32.3	-36.7	241	9
2023-09-17T06:00	8455	347	-32.5	-37.1	242	9
2023-09-17T06:00	8480	346	-32.7	-37.3	243	9
2023-09-17T06:00	8507	345	-32.9	-37.8	244	9
2023-09-17T06:00	8533	343	-33.1	-38.1	245	8
2023-09-17T06:00	8552	342	-33.3	-38.0	246	8
2023-09-17T06:00	8574	341	-33.5	-38.1	247	8
2023-09-17T06:00	8597	340	-33.7	-37.9	247	7
2023-09-17T06:00	8619	339	-33.9	-37.8	246	7
2023-09-17T06:00	8643	338	-34.1	-38.0	245	7
2023-09-17T06:00	8666	337	-34.2	-38.2	244	8
2023-09-17T06:00	8689	336	-34.4	-38.3	244	8
2023-09-17T06:00	8714	335	-34.6	-38.9	245	9
2023-09-17T06:00	8732	334	-34.7	-39.8	246	9
2023-09-17T06:00	8752	333	-34.9	-40.3	247	9
2023-09-17T06:00	8770	332	-35.0	-40.4	248	9
2023-09-17T06:00	8792	331	-35.2	-40.5	248	9
2023-09-17T06:00	8811	330	-35.3	-40.6	248	10
2023-09-17T06:00	8831	329	-35.5	-40.8	249	10
2023-09-17T06:00	8851	328	-35.6	-41.0	249	10
2023-09-17T06:00	8872	327	-35.8	-40.6	249	10
2023-09-17T06:00	8891	326	-36.0	-40.7	250	10
2023-09-17T06:00	8911	325	-36.2	-41.0	250	10
2023-09-17T06:00	8929	324	-36.3	-41.2	249	10
2023-09-17T06:00	8950	323	-36.4	-40.9	249	10
2023-09-17T06:00	8970	323	-36.6	-40.9	249	10
2023-09-17T06:00	8992	322	-36.8	-41.3	248	10
2023-09-17T06:00	9012	321	-36.9	-41.3	248	10
2023-09-17T06:00	9034	320	-37.1	-41.2	248	10
2023-09-17T06:00	9057	318	-37.3	-41.0	248	9
2023-09-17T06:00	9079	317	-37.5	-40.8	249	9
2023-09-17T06:00	9102	316	-37.7	-40.8	249	8
2023-09-17T06:00	9123	315	-37.8	-41.4	250	8
2023-09-17T06:00	9141	315	-38.0	-41.5	250	8
2023-09-17T06:00	9164	314	-38.2	-41.7	251	8
2023-09-17T06:00	9189	312	-38.4	-42.1	251	8
2023-09-17T06:00	9214	311	-38.6	-43.1	251	8
2023-09-17T06:00	9236	310	-38.8	-43.3	250	8
2023-09-17T06:00	9264	309	-39.0	-43.4	249	8
2023-09-17T06:00	9290	308	-39.2	-43.2	247	8
2023-09-17T06:00	9313	307	-39.5	-43.1	245	8
2023-09-17T06:00	9335	306	-39.7	-43.1	244	8
2023-09-17T06:00	9356	305	-39.9	-43.1	243	8
2023-09-17T06:00	9378	304	-40.1	-43.2	242	8
2023-09-17T06:00	9398	303	-40.3	-43.4	241	8
2023-09-17T06:00	9419	302	-40.4	-43.6	240	8
2023-09-17T06:00	9438	301	-40.6	-43.8	240	7
2023-09-17T06:00	9456	300	-40.7	-43.9	240	7
2023-09-17T06:00	9476	300	-41.0	-44.0	242	7
2023-09-17T06:00	9497	299	-41.1	-44.1	244	7
2023-09-17T06:00	9518	298	-41.3	-44.2	245	7
2023-09-17T06:00	9538	297	-41.5	-44.4	246	7
2023-09-17T06:00	9557	296	-41.7	-44.6	247	7
2023-09-17T06:00	9578	295	-41.9	-45.5	246	7
2023-09-17T06:00	9599	294	-42.1	-45.9	245	7
2023-09-17T06:00	9618	293	-42.2	-45.6	244	7
2023-09-17T06:00	9636	293	-42.4	-45.5	244	7
2023-09-17T06:00	9656	292	-42.6	-45.5	243	8
2023-09-17T06:00	9677	291	-42.8	-45.8	243	8
2023-09-17T06:00	9695	290	-42.9	-46.2	242	8
2023-09-17T06:00	9715	289	-43.1	-46.1	242	8
2023-09-17T06:00	9733	288	-43.2	-46.1	241	8
2023-09-17T06:00	9751	288	-43.4	-46.4	241	8
2023-09-17T06:00	9770	287	-43.5	-46.8	241	8
2023-09-17T06:00	9791	286	-43.7		241	8
2023-09-17T06:00	9810	285	-43.9	-47.6	241	8
2023-09-17T06:00	9828	284	-44.0	-47.7	241	8
2023-09-17T06:00	9850	283	-44.2	-47.8	240	8
2023-09-17T06:00	9869	283	-44.4	-47.9	240	8
2023-09-17T06:00	9888	282	-44.5	-48.0	240	8
2023-09-17T06:00	9908	281	-44.7	-48.2	240	7
2023-09-17T06:00	9926	280	-44.9	-48.4	241	7
2023-09-17T06:00	9945	279	-45.0	-48.7	241	7
2023-09-17T06:00	9964	279	-45.2	-49.4	241	8
2023-09-17T06:00	9985	278	-45.3	-49.7	241	8
2023-09-17T06:00	10005	277	-45.5	-49.8	241	8
2023-09-17T06:00	10024	276	-45.6	-50.1	242	8
2023-09-17T06:00	10043	275	-45.8	-50.3	242	8
2023-09-17T06:00	10063	275	-45.9	-50.3	242	9
2023-09-17T06:00	10084	274	-46.1	-50.6	241	9
2023-09-17T06:00	10102	273	-46.2	-50.7	241	9
2023-09-17T06:00	10123	272	-46.4	-50.9	240	9
2023-09-17T06:00	10143	271	-46.5	-50.9	239	9
2023-09-17T06:00	10161	270	-46.7	-51.1	239	9
2023-09-17T06:00	10182	270	-46.8	-51.6	239	9
2023-09-17T06:00	10201	269	-46.9	-52.3	239	9
2023-09-17T06:00	10219	268	-47.1	-52.3	239	9
2023-09-17T06:00	10238	267	-47.2	-52.3	240	9
2023-09-17T06:00	10258	267	-47.4	-53.2	240	9
2023-09-17T06:00	10277	266	-47.5	-53.7	241	9
2023-09-17T06:00	10298	265	-47.7	-53.4	242	9
2023-09-17T06:00	10318	264	-47.8	-52.8	243	9
2023-09-17T06:00	10338	263	-48.0	-52.1	243	9
2023-09-17T06:00	10359	263	-48.2	-51.9	244	9
2023-09-17T06:00	10379	262	-48.4	-52.0	244	9
2023-09-17T06:00	10400	261	-48.5	-52.1	245	9
2023-09-17T06:00	10421	260	-48.7	-52.4	247	9
2023-09-17T06:00	10441	259	-48.9	-52.6	248	9
2023-09-17T06:00	10462	258	-49.1	-52.8	248	9
2023-09-17T06:00	10480	258	-49.2	-53.1	249	9
2023-09-17T06:00	10503	257	-49.3	-53.5	249	9
2023-09-17T06:00	10524	256	-49.5	-53.8	249	9
2023-09-17T06:00	10544	255	-49.7	-53.9	248	9
2023-09-17T06:00	10564	254	-49.9	-53.7	248	9
2023-09-17T06:00	10587	254	-50.1	-53.6	248	9
2023-09-17T06:00	10605	253	-50.2	-53.7	248	9
2023-09-17T06:00	10626	252	-50.4	-54.0	247	9
2023-09-17T06:00	10648	251	-50.6	-54.1	246	9
2023-09-17T06:00	10670	250	-50.8	-54.1	245	9
2023-09-17T06:00	10690	250	-50.9	-54.1	244	9
2023-09-17T06:00	10711	249	-51.1	-54.3	243	9
2023-09-17T06:00	10734	248	-51.3	-54.5	243	9
2023-09-17T06:00	10755	247	-51.5	-54.8	243	9
2023-09-17T06:00	10778	246	-51.7	-55.1	244	9
2023-09-17T06:00	10797	245	-51.9	-55.1	244	9
2023-09-17T06:00	10821	245	-52.0	-55.3	244	9
2023-09-17T06:00	10841	244	-52.2	-55.7	243	9
2023-09-17T06:00	10862	243	-52.4	-56.3	243	9
2023-09-17T06:00	10885	242	-52.5	-56.9	242	8
2023-09-17T06:00	10906	241	-52.6	-57.7	242	8
2023-09-17T06:00	10926	241	-52.7	-58.4	242	8
2023-09-17T06:00	10946	240	-52.8	-58.3	243	8
2023-09-17T06:00	10966	239	-53.0	-58.0	244	8
2023-09-17T06:00	10989	238	-53.2	-57.6	245	8
2023-09-17T06:00	11008	238	-53.3	-57.4	246	8
2023-09-17T06:00	11028	237	-53.5	-57.5	246	8
2023-09-17T06:00	11048	236	-53.7	-57.7	246	8
2023-09-17T06:00	11070	235	-53.9	-58.0	246	8
2023-09-17T06:00	11089	235	-54.0	-58.2	246	7
2023-09-17T06:00	11108	234	-54.2	-58.5	247	7
2023-09-17T06:00	11129	233	-54.3	-58.8	247	7
2023-09-17T06:00	11148	232	-54.4	-58.8	246	8
2023-09-17T06:00	11170	232	-54.6	-59.0	246	8
2023-09-17T06:00	11189	231	-54.7	-59.6	246	8
2023-09-17T06:00	11211	230	-54.8	-60.2	245	8
2023-09-17T06:00	11231	230	-55.0	-60.2	245	8
2023-09-17T06:00	11252	229	-55.1	-60.1	244	8
2023-09-17T06:00	11273	228	-55.3	-60.1	243	8
2023-09-17T06:00	11293	227	-55.5	-60.1	243	8
2023-09-17T06:00	11314	227	-55.7	-60.1	244	8
2023-09-17T06:00	11333	226	-55.8	-60.2	245	8
2023-09-17T06:00	11355	225	-56.0	-60.5	246	8
2023-09-17T06:00	11377	224	-56.2	-60.7	246	9
2023-09-17T06:00	11396	224	-56.3	-60.8	245	9
2023-09-17T06:00	11417	223	-56.5	-60.8	244	9
2023-09-17T06:00	11439	222	-56.7	-60.8	244	9
2023-09-17T06:00	11460	221	-56.9	-60.8	243	9
2023-09-17T06:00	11482	221	-57.1	-60.9	242	9
2023-09-17T06:00	11504	220	-57.3	-61.0	242	9
2023-09-17T06:00	11527	219	-57.4	-61.1	241	9
2023-09-17T06:00	11549	218	-57.6	-61.4	241	10
2023-09-17T06:00	11572	218	-57.8	-61.6	240	10
2023-09-17T06:00	11592	217	-58.0	-61.8	240	10
2023-09-17T06:00	11615	216	-58.0	-61.8	239	10
2023-09-17T06:00	11636	215	-58.2	-61.9	239	10
2023-09-17T06:00	11659	215	-58.4	-62.0	239	10
2023-09-17T06:00	11680	214	-58.5	-62.0	238	10
2023-09-17T06:00	11703	213	-58.7	-62.1	238	9
2023-09-17T06:00	11724	212	-58.9	-62.1	238	9
2023-09-17T06:00	11745	212	-59.0	-62.2	238	9
2023-09-17T06:00	11767	211	-59.2		239	9
2023-09-17T06:00	11788	210	-59.4	-62.4	240	9
2023-09-17T06:00	11810	209	-59.5	-62.4	241	9
2023-09-17T06:00	11832	209	-59.7	-62.6	241	9
2023-09-17T06:00	11852	208	-59.9	-62.6	241	9
2023-09-17T06:00	11871	207	-60.0	-62.7	241	10
2023-09-17T06:00	11893	207	-60.1	-62.7	240	10
2023-09-17T06:00	11914	206	-60.3	-62.8	239	10
2023-09-17T06:00	11934	205	-60.4	-62.7	238	10
2023-09-17T06:00	11955	205	-60.6	-62.5	238	10
2023-09-17T06:00	11974	204	-60.8	-62.3	240	10
2023-09-17T06:00	11996	203	-60.9	-62.3	242	10
2023-09-17T06:00	12016	203	-61.1	-62.8	244	10
2023-09-17T06:00	12040	202	-61.1	-63.5	245	10
2023-09-17T06:00	12058	201	-60.4	-63.8	245	10
2023-09-17T06:00	12081	200	-60.2	-64.8	243	11
2023-09-17T06:00	12113	199	-59.8	-65.6	242	12
2023-09-17T06:00	12158	198	-59.2	-65.9	240	13
2023-09-17T06:00	12188	197	-59.2	-66.4	240	13
2023-09-17T06:00	12209	196	-59.2	-66.7	239	14
2023-09-17T06:00	12229	196	-59.3	-66.7	239	14
2023-09-17T06:00	12250	195	-59.5	-66.5	240	14
2023-09-17T06:00	12271	194	-59.7	-66.3	240	14
2023-09-17T06:00	12293	194	-59.9	-66.2	240	14
2023-09-17T06:00	12313	193	-60.0	-66.1	240	14
2023-09-17T06:00	12337	192	-60.2	-66.0	240	14
2023-09-17T06:00	12358	192	-60.4	-66.1	240	14
2023-09-17T06:00	12377	191	-60.6	-66.1	240	14
2023-09-17T06:00	12396	191	-60.7	-66.1	241	14
2023-09-17T06:00	12419	190	-60.8	-66.2	242	13
2023-09-17T06:00	12439	189	-61.0	-66.4	243	13
2023-09-17T06:00	12460	189	-61.1	-66.6	246	13
2023-09-17T06:00	12482	188	-61.2	-66.8	248	13
2023-09-17T06:00	12503	187	-61.2	-66.9	252	13
2023-09-17T06:00	12523	187	-61.1	-66.8	255	13
2023-09-17T06:00	12546	186	-61.0	-66.8	258	13
2023-09-17T06:00	12566	186	-60.9	-67.0	259	13
2023-09-17T06:00	12585	185	-60.7	-67.3	258	14
2023-09-17T06:00	12608	184	-60.5	-68.0	256	14
2023-09-17T06:00	12630	184	-60.3	-68.9	254	15
2023-09-17T06:00	12651	183	-59.8	-69.5	251	15
2023-09-17T06:00	12671	182	-59.8	-70.4	250	16
2023-09-17T06:00	12692	182	-59.6	-71.0	250	16
2023-09-17T06:00	12712	181	-59.4	-71.4	249	17
2023-09-17T06:00	12732	181	-59.2	-71.5	249	17
2023-09-17T06:00	12755	180	-59.2	-71.4	249	17
2023-09-17T06:00	12775	179	-59.0	-71.0	249	17
2023-09-17T06:00	12797	179	-59.0	-70.8	248	16
2023-09-17T06:00	12816	178	-59.1	-70.7	248	16
2023-09-17T06:00	12836	178	-58.9	-70.5	247	16
2023-09-17T06:00	12856	177	-58.4	-70.3	246	17
2023-09-17T06:00	12877	177	-57.8	-70.1	245	17
2023-09-17T06:00	12897	176	-57.7	-70.2	245	17
2023-09-17T06:00	12917	175	-57.8	-70.2	246	17
2023-09-17T06:00	12941	175	-57.7	-70.1	247	18
2023-09-17T06:00	12960	174	-57.6	-70.4	249	18
2023-09-17T06:00	12982	174	-57.4	-71.2	251	18
2023-09-17T06:00	13003	173	-57.1	-72.7	253	18
2023-09-17T06:00	13023	172	-56.8	-74.7	254	18
2023-09-17T06:00	13043	172	-56.0	-76.3	254	19
2023-09-17T06:00	13064	171	-55.3	-77.5	254	19
2023-09-17T06:00	13086	171	-55.2	-78.2	254	19
2023-09-17T06:00	13107	170	-55.1	-78.3	255	19
2023-09-17T06:00	13127	170	-55.0	-78.2	255	18
2023-09-17T06:00	13149	169	-54.8	-78.2	256	18
2023-09-17T06:00	13169	169	-54.5	-78.2	256	18
2023-09-17T06:00	13191	168	-54.4	-77.9	257	18
2023-09-17T06:00	13213	167	-54.4	-77.9	258	17
2023-09-17T06:00	13233	167	-54.5	-78.0	258	17
2023-09-17T06:00	13255	166	-54.6	-77.9	259	17
2023-09-17T06:00	13276	166	-54.5	-77.8	260	17
2023-09-17T06:00	13295	165	-54.4	-77.7	262	16
2023-09-17T06:00	13317	165	-54.1	-77.9	264	16
2023-09-17T06:00	13337	164	-53.6	-77.7	265	16
2023-09-17T06:00	13359	164	-53.4	-77.9	267	16
2023-09-17T06:00	13378	163	-53.3	-77.8	268	16
2023-09-17T06:00	13400	163	-53.4	-77.9	269	17
2023-09-17T06:00	13419	162	-53.5	-78.0	269	17
2023-09-17T06:00	13441	162	-53.5	-78.0	269	17
2023-09-17T06:00	13459	161	-53.5	-78.2	270	17
2023-09-17T06:00	13480	161	-53.6	-78.3	270	17
2023-09-17T06:00	13501	160	-53.6	-78.3	270	17
2023-09-17T06:00	13523	160	-53.5	-78.4	271	17
2023-09-17T06:00	13544	159	-53.6	-78.7	271	17
2023-09-17T06:00	13567	158	-53.2	-78.6	272	17
2023-09-17T06:00	13586	158	-53.2	-78.6	273	17
2023-09-17T06:00	13610	157	-53.3	-78.7	273	16
2023-09-17T06:00	13630	157	-53.5	-78.9	274	16
2023-09-17T06:00	13652	156	-53.6	-78.9	275	16
2023-09-17T06:00	13673	156	-53.6	-78.9	275	16
2023-09-17T06:00	13695	155	-53.7	-79.0	276	16
2023-09-17T06:00	13713	155	-53.9	-78.9	276	15
2023-09-17T06:00	13739	154	-54.1	-79.1	277	15
2023-09-17T06:00	13760	154	-54.3	-79.3	277	14
2023-09-17T06:00	13781	153	-54.4	-79.3	277	14
2023-09-17T06:00	13807	153	-54.6	-79.3	277	13
2023-09-17T06:00	13827	152	-54.6	-79.3	278	13
2023-09-17T06:00	13850	152	-54.6	-79.3	278	13
2023-09-17T06:00	13872	151	-54.7	-79.4	278	13
2023-09-17T06:00	13891	151	-54.7	-79.4	279	13
2023-09-17T06:00	13913	150	-54.8	-79.4	280	13
2023-09-17T06:00	13933	150	-54.9	-79.5	280	13
2023-09-17T06:00	13957	149	-54.9	-79.7	280	13
2023-09-17T06:00	13978	149	-55.0	-79.8	280	13
2023-09-17T06:00	14000	148	-55.0	-79.8	279	12
2023-09-17T06:00	14022	148	-54.8	-79.7	277	12
2023-09-17T06:00	14046	147	-54.9	-80.0	274	12
2023-09-17T06:00	14068	146	-54.9	-80.0	271	11
2023-09-17T06:00	14090	146	-55.0	-79.8	269	11
2023-09-17T06:00	14114	146	-55.1		266	11
2023-09-17T06:00	14136	145	-55.3	-80.0	262	10
2023-09-17T06:00	14159	144	-55.5	-80.2	259	10
2023-09-17T06:00	14179	144	-55.5	-80.0	256	10
2023-09-17T06:00	14201	143	-55.6	-80.1	252	10
2023-09-17T06:00	14224	143	-55.6	-80.1	250	10
2023-09-17T06:00	14244	142	-55.7	-80.1	247	10
2023-09-17T06:00	14266	142	-55.7	-80.1	245	10
2023-09-17T06:00	14287	142	-55.7	-80.4	244	10
2023-09-17T06:00	14310	141	-55.8	-80.4	243	9
2023-09-17T06:00	14334	141	-55.9	-80.5	241	10
2023-09-17T06:00	14354	140	-56.0	-80.4	240	10
2023-09-17T06:00	14376	140	-56.1	-80.5	239	10
2023-09-17T06:00	14396	139	-56.2	-80.5	239	10
2023-09-17T06:00	14418	139	-56.3	-80.6	238	10
2023-09-17T06:00	14439	138	-56.5	-80.6	239	10
2023-09-17T06:00	14460	138	-56.6	-80.6	239	10
2023-09-17T06:00	14481	137	-56.6	-80.6	239	10
2023-09-17T06:00	14502	137	-56.6	-80.6	239	10
2023-09-17T06:00	14524	136	-56.7	-80.7	239	10
2023-09-17T06:00	14544	136	-56.8	-80.8	239	10
2023-09-17T06:00	14566	135	-56.9	-81.1	239	10
2023-09-17T06:00	14587	135	-56.9	-81.1	240	10
2023-09-17T06:00	14610	135	-56.8	-81.0	240	10
2023-09-17T06:00	14632	134	-56.6	-81.1	240	10
2023-09-17T06:00	14657	134	-56.6	-81.1	240	10
2023-09-17T06:00	14674	133	-56.7	-81.4	239	10
2023-09-17T06:00	14696	133	-56.8	-81.5	237	10
2023-09-17T06:00	14718	132	-56.8	-81.5	234	11
2023-09-17T06:00	14740	132	-57.0	-81.4	230	11
2023-09-17T06:00	14759	131	-57.1	-81.5	227	11
2023-09-17T06:00	14783	131	-57.3	-81.6	224	12
2023-09-17T06:00	14807	130	-57.4	-81.7	222	12
2023-09-17T06:00	14828	130	-57.6	-81.9	221	12
2023-09-17T06:00	14849	130	-57.7	-81.7	222	12
2023-09-17T06:00	14870	129	-57.8	-81.8	224	12
2023-09-17T06:00	14893	129	-57.9	-81.9	226	12
2023-09-17T06:00	14913	128	-57.8	-81.8	228	13
2023-09-17T06:00	14937	128	-57.8	-81.8	230	13
2023-09-17T06:00	14961	127	-57.9	-81.7	231	14
2023-09-17T06:00	14984	127	-58.1	-81.8	232	14
2023-09-17T06:00	15005	126	-58.3	-81.8	232	14
2023-09-17T06:00	15028	126	-58.4	-81.9	232	15
2023-09-17T06:00	15051	125	-58.6	-82.0	232	15
2023-09-17T06:00	15071	125	-58.7	-82.1	232	15
2023-09-17T06:00	15093	125	-58.5	-81.9	233	15
2023-09-17T06:00	15115	124	-58.5	-81.9	234	15
2023-09-17T06:00	15138	124	-58.5	-81.9	235	15
2023-09-17T06:00	15161	123	-58.6	-82.0	236	15
2023-09-17T06:00	15182	123	-58.7		237	15
2023-09-17T06:00	15202	122	-58.8	-82.0	238	16
2023-09-17T06:00	15224	122	-58.7		238	16
2023-09-17T06:00	15246	122	-58.7		238	16
2023-09-17T06:00	15268	121	-58.9	-82.3	239	16
2023-09-17T06:00	15291	121	-58.8	-82.2	239	16
2023-09-17T06:00	15312	120	-58.6	-82.0	239	15
2023-09-17T06:00	15334	120	-58.7	-82.1	239	15
2023-09-17T06:00	15355	119	-58.8	-82.2	239	15
2023-09-17T06:00	15379	119	-58.8	-82.2	240	15
2023-09-17T06:00	15403	119	-58.6	-82.2	241	15
2023-09-17T06:00	15430	118	-58.7	-82.3	242	16
2023-09-17T06:00	15452	118	-58.7	-82.3	243	16
2023-09-17T06:00	15477	117	-58.6	-82.4	244	16
2023-09-17T06:00	15499	117	-58.5	-82.4	246	17
2023-09-17T06:00	15523	116	-58.3	-82.2	247	17
2023-09-17T06:00	15547	116	-58.4	-82.5	248	18
2023-09-17T06:00	15570	116	-58.5	-82.6	250	18
2023-09-17T06:00	15592	115	-58.5	-82.8	251	18
2023-09-17T06:00	15612	115	-58.1	-82.7	251	18
2023-09-17T06:00	15636	114	-57.8	-82.7	251	17
2023-09-17T06:00	15660	114	-57.6	-82.6	251	17
2023-09-17T06:00	15683	113	-57.7	-82.6	252	17
2023-09-17T06:00	15706	113	-57.6	-82.6	253	17
2023-09-17T06:00	15730	113	-57.5	-82.7	254	17
2023-09-17T06:00	15753	112	-57.2	-82.5	257	17
2023-09-17T06:00	15780	112	-57.0	-82.3	260	17
2023-09-17T06:00	15804	111	-56.8	-82.2	263	17
2023-09-17T06:00	15827	111	-56.9	-82.3	266	17
2023-09-17T06:00	15852	110	-57.0	-82.3	268	17
2023-09-17T06:00	15875	110	-56.9	-82.3	269	18
2023-09-17T06:00	15899	110	-56.8	-82.2	269	18
2023-09-17T06:00	15924	109	-56.7	-82.1	268	18
2023-09-17T06:00	15944	109	-56.7	-82.1	268	18
2023-09-17T06:00	15966	108	-56.7	-82.1	267	18
2023-09-17T06:00	15987	108	-56.8	-82.2	267	19
2023-09-17T06:00	16012	108	-56.9	-82.5	268	19
2023-09-17T06:00	16037	107	-57.0	-82.6	269	19
2023-09-17T06:00	16059	107	-56.9	-82.5	270	19
2023-09-17T06:00	16080	107	-56.9	-82.5	271	19
2023-09-17T06:00	16103	106	-57.1	-82.7	272	19
2023-09-17T06:00	16129	106	-57.1	-82.7	273	19
2023-09-17T06:00	16151	105	-57.1	-82.7	274	18
2023-09-17T06:00	16174	105	-57.2	-82.8	275	18
2023-09-17T06:00	16198	105	-57.3	-82.8	276	17
2023-09-17T06:00	16223	104	-57.5	-83.0	277	17
2023-09-17T06:00	16246	104	-57.5	-83.0	278	17
2023-09-17T06:00	16269	103	-57.5	-83.0	278	16
2023-09-17T06:00	16294	103	-57.6	-83.1	279	16
2023-09-17T06:00	16318	103	-57.6	-83.1	279	15
2023-09-17T06:00	16342	102	-57.5	-83.0	278	14
2023-09-17T06:00	16367	102	-57.4	-83.2	278	13
2023-09-17T06:00	16390	101	-57.5	-83.3	276	13
2023-09-17T06:00	16415	101	-57.5	-83.3	275	12
2023-09-17T06:00	16440	101	-57.5	-83.3	273	12
2023-09-17T06:00	16461	100	-57.4	-83.2	272	12
2023-09-17T06:00	16483	100	-57.2	-83.3	271	11
2023-09-17T06:00	16508	100	-57.2	-83.3	270	11
2023-09-17T06:00	16531	99	-57.2	-83.3	269	11
2023-09-17T06:00	16559	99	-57.2	-83.3	268	10
2023-09-17T06:00	16578	98	-57.3	-83.4	267	10
2023-09-17T06:00	16600	98	-57.3	-83.4	267	10
2023-09-17T06:00	16625	98	-57.4	-83.5	266	10
2023-09-17T06:00	16646	97	-57.5	-83.6	266	10
2023-09-17T06:00	16668	97	-57.4	-83.5	265	10
2023-09-17T06:00	16694	97	-57.4	-83.5	264	9
2023-09-17T06:00	16716	96	-57.4	-83.5	262	9
2023-09-17T06:00	16739	96	-57.3	-83.7	261	9
2023-09-17T06:00	16762	96	-57.0	-83.5	259	8
2023-09-17T06:00	16785	95	-56.7	-83.2	259	8
2023-09-17T06:00	16808	95	-56.5	-83.4	259	9
2023-09-17T06:00	16831	95	-56.6	-83.5	259	9
2023-09-17T06:00	16855	94	-56.6	-83.5	260	9
2023-09-17T06:00	16878	94	-56.5	-83.4	260	10
2023-09-17T06:00	16898	94	-56.5	-83.4	261	10
2023-09-17T06:00	16923	93	-56.5	-83.4	261	10
2023-09-17T06:00	16944	93	-56.4	-83.3	261	10
2023-09-17T06:00	16968	93	-56.4	-83.3	261	10
2023-09-17T06:00	16991	92	-56.4	-83.3	261	10
2023-09-17T06:00	17013	92	-56.4	-83.3	261	9
2023-09-17T06:00	17035	92	-56.5	-83.4	260	9
2023-09-17T06:00	17055	91	-56.7	-83.6	259	9
2023-09-17T06:00	17076	91	-56.8	-83.6	258	10
2023-09-17T06:00	17098	91	-56.8	-83.6	257	10
2023-09-17T06:00	17125	90	-56.9	-83.7	256	11
2023-09-17T06:00	17146	90	-57.0	-83.8	256	12
2023-09-17T06:00	17165	90	-57.0	-83.8	256	12
2023-09-17T06:00	17191	89	-57.1	-83.9	257	13
2023-09-17T06:00	17211	89	-57.2	-83.9	258	14
2023-09-17T06:00	17233	89	-57.2	-84.3	259	14
2023-09-17T06:00	17252	89	-57.2	-84.3	260	15
2023-09-17T06:00	17275	88	-57.1	-84.2	262	15
2023-09-17T06:00	17295	88	-57.1	-84.2	264	16
2023-09-17T06:00	17318	88	-57.1	-84.2	266	16
2023-09-17T06:00	17340	87	-57.2	-83.9	268	17
2023-09-17T06:00	17364	87	-57.2	-84.3	270	17
2023-09-17T06:00	17387	87	-57.2	-84.3	271	17
2023-09-17T06:00	17410	86	-57.1	-84.2	271	17
2023-09-17T06:00	17435	86	-56.8	-84.0	272	17
2023-09-17T06:00	17456	86	-56.8	-84.3	274	17
2023-09-17T06:00	17483	85	-56.7	-84.2	275	16
2023-09-17T06:00	17503	85	-56.7	-84.2	276	16
2023-09-17T06:00	17528	85	-56.8	-84.0	278	16
2023-09-17T06:00	17554	84	-57.0	-84.1	279	16
2023-09-17T06:00	17577	84	-57.2	-84.3	280	16
2023-09-17T06:00	17600	84	-57.3	-84.0	281	15
2023-09-17T06:00	17625	83	-57.5	-84.2	282	15
2023-09-17T06:00	17649	83	-57.7	-84.3	283	15
2023-09-17T06:00	17674	83	-57.8	-84.4	283	15
2023-09-17T06:00	17697	83	-57.7	-84.3	283	15
2023-09-17T06:00	17721	82	-57.5	-84.5	282	15
2023-09-17T06:00	17751	82	-57.6	-84.6	280	15
2023-09-17T06:00	17774	82	-57.6	-84.6	279	15
2023-09-17T06:00	17798	81	-57.6	-84.6	278	15
2023-09-17T06:00	17823	81	-57.6	-84.6	278	15
2023-09-17T06:00	17851	81	-57.4	-84.8	279	14
2023-09-17T06:00	17873	80	-57.2	-84.6	280	14
2023-09-17T06:00	17899	80	-57.2	-84.6	282	14
2023-09-17T06:00	17920	80	-57.0	-84.5	283	13
2023-09-17T06:00	17944	79	-57.0	-84.5	283	13
2023-09-17T06:00	17972	79	-57.1	-84.6	283	13
2023-09-17T06:00	17996	79	-57.2	-84.6	283	13
2023-09-17T06:00	18016	78	-57.1	-84.6	283	13
2023-09-17T06:00	18043	78	-57.1	-84.6	283	13
2023-09-17T06:00	18062	78	-57.1	-84.6	284	13
2023-09-17T06:00	18089	78	-57.0	-84.5	285	13
2023-09-17T06:00	18114	77	-57.0	-84.5	286	13
2023-09-17T06:00	18136	77	-56.9	-84.4	286	13
2023-09-17T06:00	18162	77	-56.9	-84.4	287	13
2023-09-17T06:00	18183	76	-57.0	-84.5	287	12
2023-09-17T06:00	18208	76	-57.1	-84.6	288	12
2023-09-17T06:00	18232	76	-57.2	-84.6	289	12
2023-09-17T06:00	18257	76	-57.3	-84.7	290	12
2023-09-17T06:00	18280	75	-57.4	-84.8	291	12
2023-09-17T06:00	18302	75	-57.4	-84.8	292	12
2023-09-17T06:00	18328	75	-57.5	-84.9	293	12
2023-09-17T06:00	18350	74	-57.6	-84.9	293	12
2023-09-17T06:00	18375	74	-57.7	-85.0	293	12
2023-09-17T06:00	18395	74	-57.8	-85.1	293	12
2023-09-17T06:00	18425	74	-57.8	-85.1	293	12
2023-09-17T06:00	18448	73	-57.8	-85.1	292	11
2023-09-17T06:00	18467	73	-57.9	-85.2	292	11
2023-09-17T06:00	18496	73	-57.9	-85.2	292	11
2023-09-17T06:00	18520	72	-57.8	-85.1	292	11
2023-09-17T06:00	18541	72	-57.9	-85.2	291	11
2023-09-17T06:00	18564	72	-57.9	-85.2	290	10
2023-09-17T06:00	18587	72	-57.9	-85.2	288	10
2023-09-17T06:00	18612	71	-58.0	-85.2	286	10
2023-09-17T06:00	18635	71	-58.0	-85.2	285	10
2023-09-17T06:00	18657	71	-58.0	-85.2	284	10
2023-09-17T06:00	18686	71	-58.0	-85.2	283	10
2023-09-17T06:00	18706	70	-58.1	-85.3	282	10
2023-09-17T06:00	18732	70	-58.0	-85.2	281	10
2023-09-17T06:00	18755	70	-57.9	-85.2	278	10
2023-09-17T06:00	18778	70	-57.9	-85.2	274	10
2023-09-17T06:00	18805	69	-57.9	-85.2	270	10
2023-09-17T06:00	18828	69	-58.0	-85.2	265	10
2023-09-17T06:00	18848	69	-57.9	-85.2	261	10
2023-09-17T06:00	18881	68	-57.8	-85.1	258	11
2023-09-17T06:00	18900	68	-57.8	-85.5	257	11
2023-09-17T06:00	18924	68	-57.8	-85.5	257	12
2023-09-17T06:00	18952	68	-57.8	-85.5	257	12
2023-09-17T06:00	18974	67	-57.9	-85.5	259	12
2023-09-17T06:00	19002	67	-58.0	-85.2	262	12
2023-09-17T06:00	19023	67	-58.0	-85.2	264	12
2023-09-17T06:00	19045	67	-57.9	-85.2	265	12
2023-09-17T06:00	19077	66	-58.1	-85.3	266	12
2023-09-17T06:00	19097	66	-58.1	-85.3	265	12
2023-09-17T06:00	19119	66	-58.1	-85.3	263	12
2023-09-17T06:00	19145	66	-57.9	-85.5	261	11
2023-09-17T06:00	19172	65	-57.9	-85.5	259	11
2023-09-17T06:00	19194	65	-57.9	-85.5	258	11
2023-09-17T06:00	19217	65	-58.1	-85.7	258	12
2023-09-17T06:00	19242	65	-58.0	-85.6	259	12
2023-09-17T06:00	19266	64	-57.7	-85.4	260	12
2023-09-17T06:00	19288	64	-57.5	-85.2	262	12
2023-09-17T06:00	19317	64	-57.5	-85.2	264	12
2023-09-17T06:00	19338	64	-57.6	-85.3	265	12
2023-09-17T06:00	19365	63	-57.6	-85.3	267	13
2023-09-17T06:00	19389	63	-57.6	-85.3	269	13
2023-09-17T06:00	19410	63	-57.6	-85.7	272	14
2023-09-17T06:00	19438	63	-57.5	-85.6	274	14
2023-09-17T06:00	19457	62	-57.4	-85.6	276	14
2023-09-17T06:00	19483	62	-57.1	-85.3	278	14
2023-09-17T06:00	19510	62	-56.8	-85.1	279	14
2023-09-17T06:00	19538	62	-56.8	-85.1	281	14
2023-09-17T06:00	19559	61	-56.9	-85.2	282	14
2023-09-17T06:00	19585	61	-57.1	-85.3	284	14
2023-09-17T06:00	19609	61	-57.3	-85.1	286	14
2023-09-17T06:00	19631	61	-57.3	-85.1	288	13
2023-09-17T06:00	19656	61	-57.2	-85.0	289	13
2023-09-17T06:00	19678	60	-57.3	-85.1	291	13
2023-09-17T06:00	19702	60	-57.5	-85.2	292	13
2023-09-17T06:00	19733	60	-57.6	-85.3	293	12
2023-09-17T06:00	19755	60	-57.7	-85.4	292	12
2023-09-17T06:00	19773	59	-57.8	-85.1	291	12
2023-09-17T06:00	19800	59	-57.9	-85.2	290	12
2023-09-17T06:00	19830	59	-58.1	-85.3	288	12
2023-09-17T06:00	19852	59	-58.2	-85.4	286	11
2023-09-17T06:00	19878	58	-58.1	-85.7	285	11
2023-09-17T06:00	19902	58	-57.9	-85.5	285	11
2023-09-17T06:00	19927	58	-57.8	-85.5	286	10
2023-09-17T06:00	19946	58	-57.8	-85.5	289	10
2023-09-17T06:00	19972	58	-57.7	-85.8	292	10
2023-09-17T06:00	19997	57	-57.7	-85.8	295	11
2023-09-17T06:00	20020	57	-57.5	-85.2	296	11
2023-09-17T06:00	20045	57	-57.6	-85.3	297	11
2023-09-17T06:00	20072	57	-57.8	-85.9	297	11
2023-09-17T06:00	20099	56	-57.6	-85.7	297	11
2023-09-17T06:00	20123	56	-57.1	-85.3	296	11
2023-09-17T06:00	20149	56	-56.7	-85.4	295	11
2023-09-17T06:00	20177	56	-56.4	-85.2	294	11
2023-09-17T06:00	20196	56	-56.3	-85.1	292	10
2023-09-17T06:00	20228	55	-56.3	-85.1	290	10
2023-09-17T06:00	20243	55	-56.4	-84.8	288	10
2023-09-17T06:00	20274	55	-56.6	-84.9	286	10
2023-09-17T06:00	20298	55	-56.5	-84.9	286	10
2023-09-17T06:00	20328	54	-56.4	-84.8	287	10
2023-09-17T06:00	20350	54	-56.3	-84.7	289	10
2023-09-17T06:00	20373	54	-56.2	-84.6	291	10
2023-09-17T06:00	20399	54	-56.2	-85.1	294	10
2023-09-17T06:00	20418	54	-56.1	-85.0	297	10
2023-09-17T06:00	20445	53	-56.1	-85.0	300	10
2023-09-17T06:00	20470	53	-56.0	-84.9	303	9
2023-09-17T06:00	20499	53	-55.7	-84.7	307	9
2023-09-17T06:00	20522	53	-55.7	-84.7	311	9
2023-09-17T06:00	20548	53	-55.7	-84.7	314	9
2023-09-17T06:00	20572	52	-55.7	-84.7	317	9
2023-09-17T06:00	20590	52	-55.4	-84.5	318	9
2023-09-17T06:00	20621	52	-55.2	-84.8	319	8
2023-09-17T06:00	20649	52	-54.8	-84.5	319	7
2023-09-17T06:00	20678	52	-54.9	-84.1	318	6
2023-09-17T06:00	20704	51	-55.0	-84.2	315	5
2023-09-17T06:00	20730	51	-55.1	-84.2	310	4
2023-09-17T06:00	20754	51	-55.3	-84.4	304	4
2023-09-17T06:00	20783	51	-55.5	-84.1	297	3
2023-09-17T06:00	20804	50	-55.7	-84.3	289	3
2023-09-17T06:00	20834	50	-55.5	-84.1	281	2
2023-09-17T06:00	20863	50	-55.6	-84.2	275	2
2023-09-17T06:00	20888	50	-55.6	-84.2	272	2
2023-09-17T06:00	20919	50	-55.7	-84.3	271	2
2023-09-17T06:00	20951	49	-55.9	-84.4	272	2
2023-09-17T06:00	20973	49	-56.2	-84.6	273	3
2023-09-17T06:00	21000	49	-56.3	-84.3	274	3
2023-09-17T06:00	21024	49	-56.6	-84.5	275	3
2023-09-17T06:00	21053	49	-56.8	-84.7	274	4
2023-09-17T06:00	21077	48	-57.0	-84.8	273	4
2023-09-17T06:00	21109	48	-57.1	-84.9	272	5
2023-09-17T06:00	21133	48	-57.3	-85.1	272	5
2023-09-17T06:00	21160	48	-57.4	-85.2	272	6
2023-09-17T06:00	21188	48	-57.5	-84.9	273	6
2023-09-17T06:00	21212	47	-57.7	-85.0	275	7
2023-09-17T06:00	21244	47	-57.8	-85.1	279	7
2023-09-17T06:00	21271	47	-57.9	-85.2	282	8
2023-09-17T06:00	21292	47	-57.9	-85.2	285	8
2023-09-17T06:00	21317	47	-57.8	-85.5	288	8
2023-09-17T06:00	21339	46	-57.8	-85.5	291	8
2023-09-17T06:00	21371	46	-57.9	-85.5	294	8
2023-09-17T06:00	21397	46	-58.0	-85.6	297	8
2023-09-17T06:00	21421	46	-58.1	-85.7	300	7
2023-09-17T06:00	21451	46	-58.1	-85.7	304	7
2023-09-17T06:00	21474	45	-57.9	-85.5	308	6
2023-09-17T06:00	21501	45	-57.9	-85.5	312	5
2023-09-17T06:00	21531	45	-58.1	-85.7	316	4
2023-09-17T06:00	21556	45	-58.2	-85.8	320	3
2023-09-17T06:00	21578	45	-58.2	-85.4	324	2
2023-09-17T06:00	21607	44	-58.2	-85.4	330	2
2023-09-17T06:00	21635	44	-58.3	-85.5	337	2
2023-09-17T06:00	21660	44	-58.5	-85.6	346	2
2023-09-17T06:00	21686	44	-58.4	-85.5	354	1
2023-09-17T06:00	21705	44	-58.3	-85.8	359	1
2023-09-17T06:00	21738	44	-58.4	-85.9	353	1
2023-09-17T06:00	21765	43	-58.2	-85.8	308	1
2023-09-17T06:00	21788	43	-58.2	-85.8	265	1
2023-09-17T06:00	21815	43	-58.2	-85.8	258	2
2023-09-17T06:00	21839	43	-58.2	-85.8	259	3
2023-09-17T06:00	21868	43	-58.2	-85.8	261	3
2023-09-17T06:00	21888	43	-58.1	-85.7	263	4
2023-09-17T06:00	21919	42	-57.9		264	5
2023-09-17T06:00	21944	42	-57.7	-85.8	265	5
2023-09-17T06:00	21972	42	-57.7	-85.8	265	5
2023-09-17T06:00	21997	42	-57.6	-85.7	266	5
2023-09-17T06:00	22023	42	-57.5	-85.6	268	5
2023-09-17T06:00	22050	41	-57.5	-85.6	271	5
2023-09-17T06:00	22080	41	-57.6	-85.7	274	5
2023-09-17T06:00	22108	41	-57.7	-85.8	277	5
2023-09-17T06:00	22128	41	-57.6	-85.7	281	5
2023-09-17T06:00	22158	41	-57.5	-85.6	285	5
2023-09-17T06:00	22184	41	-57.3	-85.5	288	5
2023-09-17T06:00	22210	40	-57.1	-85.3	290	5
2023-09-17T06:00	22240	40	-56.9	-85.2	290	5
2023-09-17T06:00	22264	40	-56.9	-85.2	289	5
2023-09-17T06:00	22291	40	-57.0	-85.2	287	5
2023-09-17T06:00	22319	40	-57.0	-85.2	285	5
2023-09-17T06:00	22342	40	-57.0	-85.2	285	5
2023-09-17T06:00	22368	39	-57.0	-85.2	287	5
2023-09-17T06:00	22402	39	-57.1	-85.3	289	5
2023-09-17T06:00	22429	39	-57.1	-85.3	291	5
2023-09-17T06:00	22451	39	-57.2	-85.0	290	5
2023-09-17T06:00	22479	39	-57.3	-85.1	288	6
2023-09-17T06:00	22511	39	-57.3	-85.1	286	6
2023-09-17T06:00	22531	38	-57.3	-85.1	285	7
2023-09-17T06:00	22556	38	-57.4	-85.2	286	7
2023-09-17T06:00	22585	38	-57.4	-85.2	287	7
2023-09-17T06:00	22611	38	-57.4	-85.2	288	7
2023-09-17T06:00	22641	38	-57.4	-85.6	290	8
2023-09-17T06:00	22663	38	-57.5	-85.6	291	8
2023-09-17T06:00	22684	38	-57.4	-85.6	291	8
2023-09-17T06:00	22710	37	-57.3	-85.5	291	8
2023-09-17T06:00	22744	37	-57.3	-85.5	292	8
2023-09-17T06:00	22765	37	-57.3	-85.5	292	8
2023-09-17T06:00	22787	37	-57.2	-85.4	293	7
2023-09-17T06:00	22816	37	-57.2	-85.4	294	7
2023-09-17T06:00	22841	37	-57.3	-85.5	296	6
2023-09-17T06:00	22866	36	-57.4	-85.6	296	6
2023-09-17T06:00	22894	36	-57.4	-85.6	296	5
2023-09-17T06:00	22915	36	-57.3	-85.5	294	4
2023-09-17T06:00	22941	36	-57.1	-85.3	290	4
2023-09-17T06:00	22970	36	-57.1	-85.3	284	4
2023-09-17T06:00	22988	36	-56.9	-85.2	277	4
2023-09-17T06:00	23020	36	-56.8	-85.5	271	4
2023-09-17T06:00	23050	35	-56.8	-85.5	265	5
2023-09-17T06:00	23067	35	-56.7	-85.4	261	5
2023-09-17T06:00	23097	35	-56.6	-85.4	258	5
2023-09-17T06:00	23125	35	-56.5	-85.3	255	6
2023-09-17T06:00	23142	35	-56.4	-85.2	254	6
2023-09-17T06:00	23169	35	-56.4	-85.2	255	7
2023-09-17T06:00	23197	35	-56.4	-85.2	257	7
2023-09-17T06:00	23222	34	-56.4	-85.2	261	7
2023-09-17T06:00	23247	34	-56.4	-85.2	267	7
2023-09-17T06:00	23278	34	-56.3	-85.1	274	7
2023-09-17T06:00	23299	34	-56.2	-85.1	281	8
2023-09-17T06:00	23321	34	-56.0	-84.9	288	8
2023-09-17T06:00	23348	34	-55.8	-84.8	293	7
2023-09-17T06:00	23374	34	-55.7	-85.2	297	7
2023-09-17T06:00	23399	34	-55.6	-85.1	299	7
2023-09-17T06:00	23423	33	-55.5	-85.0	301	7
2023-09-17T06:00	23455	33	-55.4	-84.9	301	6
2023-09-17T06:00	23479	33	-55.3	-84.9	299	6
2023-09-17T06:00	23503	33	-55.2	-84.8	298	6
2023-09-17T06:00	23534	33	-55.2	-84.8	297	6
2023-09-17T06:00	23559	33	-55.1	-84.7	296	6
2023-09-17T06:00	23594	33	-55.0	-84.6	297	6
2023-09-17T06:00	23612	32	-54.9	-84.6	299	6
2023-09-17T06:00	23645	32	-55.0	-84.6	300	6
2023-09-17T06:00	23671	32	-55.0	-84.6	299	7
2023-09-17T06:00	23699	32	-55.0	-84.6	297	6
2023-09-17T06:00	23730	32	-54.9	-84.6	294	6
2023-09-17T06:00	23758	32	-54.9	-84.6	289	6
2023-09-17T06:00	23781	32	-54.9	-84.1	285	6
2023-09-17T06:00	23813	31	-55.0	-84.2	281	5
2023-09-17T06:00	23843	31	-54.9	-84.1	276	5
2023-09-17T06:00	23870	31	-55.0	-84.2	270	5
2023-09-17T06:00	23901	31	-55.0	-84.2	263	4
2023-09-17T06:00	23926	31	-55.0	-84.2	257	4
2023-09-17T06:00	23954	31	-55.1	-84.7	253	4
2023-09-17T06:00	23983	31	-55.0	-84.6	254	4
2023-09-17T06:00	24013	30	-54.9	-84.6	259	4
2023-09-17T06:00	24045	30	-54.8	-84.5	266	4
2023-09-17T06:00	24066	30	-54.8	-84.5	272	5
2023-09-17T06:00	24093	30	-54.6	-84.3	277	5
2023-09-17T06:00	24131	30	-54.6	-84.3	281	5
2023-09-17T06:00	24152	30	-54.6	-84.3	285	6
2023-09-17T06:00	24178	30	-54.6	-84.3	289	6
2023-09-17T06:00	24217	29	-54.7	-84.4	294	6
2023-09-17T06:00	24243	29	-54.7	-84.4	301	6
2023-09-17T06:00	24265	29	-54.7	-84.4	309	6
2023-09-17T06:00	24295	29	-54.8	-84.5	318	6
2023-09-17T06:00	24323	29	-54.8	-84.5	326	6
2023-09-17T06:00	24349	29	-54.8	-84.0	333	6
2023-09-17T06:00	24377	29	-54.9	-84.1	339	6
2023-09-17T06:00	24406	29	-55.0	-84.2	342	6
2023-09-17T06:00	24440	29	-55.0	-84.2	345	6
2023-09-17T06:00	24461	28	-55.2	-84.3	347	5
2023-09-17T06:00	24489	28	-55.2	-84.3	350	5
2023-09-17T06:00	24517	28	-55.3	-84.4	354	4
2023-09-17T06:00	24543	28	-55.4	-84.5	0	4
2023-09-17T06:00	24572	28	-55.5	-84.5	8	3
2023-09-17T06:00	24601	28	-55.4	-84.5	16	3
2023-09-17T06:00	24629	28	-55.7	-84.7	23	2
2023-09-17T06:00	24657	28	-55.8	-84.8	27	2
2023-09-17T06:00	24688	27	-55.8	-84.3	26	2
2023-09-17T06:00	24718	27	-56.1	-84.6	19	1
2023-09-17T06:00	24747	27	-56.3	-84.7	357	1
2023-09-17T06:00	24771	27	-56.4	-84.8	320	1
2023-09-17T06:00	24803	27	-56.4	-84.8	294	1
2023-09-17T06:00	24830	27	-56.4	-84.8	282	2
2023-09-17T06:00	24854	27	-56.4	-84.8	276	2
2023-09-17T06:00	24889	27	-56.4	-84.8	271	2
2023-09-17T06:00	24915	26	-56.4	-84.8	267	3
2023-09-17T06:00	24938	26	-56.5	-84.9	265	3
2023-09-17T06:00	24975	26	-56.7	-85.0	265	4
2023-09-17T06:00	25007	26	-56.8	-85.1	266	5
2023-09-17T06:00	25032	26	-56.9	-85.2	268	5
2023-09-17T06:00	25057	26	-56.9	-85.2	271	6
2023-09-17T06:00	25089	26	-56.9	-85.2	276	7
2023-09-17T06:00	25123	26	-56.9	-85.2	280	7
2023-09-17T06:00	25143	25	-56.8	-85.5	285	7
2023-09-17T06:00	25174	25	-56.7	-85.4	291	7
2023-09-17T06:00	25212	25	-56.6	-85.4	296	7
2023-09-17T06:00	25232	25	-56.6	-85.4	300	6
2023-09-17T06:00	25264	25	-56.7	-85.4	302	6
2023-09-17T06:00	25287	25	-56.7	-85.4	302	6
2023-09-17T06:00	25324	25	-56.8	-85.5	299	6
2023-09-17T06:00	25344	25	-56.6	-85.4	295	6
2023-09-17T06:00	25377	25	-56.4	-85.2	292	6
2023-09-17T06:00	25401	24	-56.3	-85.1	291	6
2023-09-17T06:00	25426	24	-56.2	-85.1	291	6
2023-09-17T06:00	25449	24	-56.0	-84.9	293	5
2023-09-17T06:00	25478	24	-56.1	-85.0	296	5
2023-09-17T06:00	25506	24	-56.2	-85.1	297	5
2023-09-17T06:00	25542	24	-56.2	-85.1	297	5
2023-09-17T06:00	25564	24	-56.3	-85.1	294	4
2023-09-17T06:00	25592	24	-56.4	-85.2	289	4
2023-09-17T06:00	25631	24	-56.3	-85.1	282	4
2023-09-17T06:00	25658	24	-56.3	-85.1	274	4
2023-09-17T06:00	25689	23	-56.2	-85.1	267	5
2023-09-17T06:00	25719	23	-56.1	-85.0	262	5
2023-09-17T06:00	25744	23	-56.0		259	6
2023-09-17T06:00	25774	23	-56.0		257	7
2023-09-17T06:00	25805	23	-55.9	-85.3	258	7
2023-09-17T06:00	25833	23	-55.5	-85.0	261	8
2023-09-17T06:00	25868	23	-55.1	-85.2	264	8
2023-09-17T06:00	25892	23	-54.8	-85.0	268	8
2023-09-17T06:00	25925	23	-54.7	-84.9	272	8
2023-09-17T06:00	25951	22	-54.6	-84.8	274	8
2023-09-17T06:00	25979	22	-54.5	-84.8	275	7
2023-09-17T06:00	26004	22	-54.4	-84.7	275	7
2023-09-17T06:00	26041	22	-54.1	-84.5	276	7
2023-09-17T06:00	26067	22	-53.9	-84.3	277	7
2023-09-17T06:00	26097	22	-53.6	-84.6	278	7
2023-09-17T06:00	26127	22	-53.3	-84.4	279	7
2023-09-17T06:00	26152	22	-53.2	-84.4	279	7
2023-09-17T06:00	26191	22	-53.0	-84.2	277	7
2023-09-17T06:00	26206	22	-52.9	-84.1	274	7
2023-09-17T06:00	26231	21	-52.8	-84.1	270	8
2023-09-17T06:00	26267	21	-52.6	-83.9	266	8
2023-09-17T06:00	26291	21	-52.5	-83.8	264	8
2023-09-17T06:00	26321	21	-52.4	-83.8	262	9
2023-09-17T06:00	26349	21	-52.3	-83.7	263	9
2023-09-17T06:00	26379	21	-52.2	-83.6	264	9
2023-09-17T06:00	26397	21	-52.0	-83.5	267	9
2023-09-17T06:00	26424	21	-51.7	-83.2	270	9
2023-09-17T06:00	26454	21	-51.4	-83.0	274	9
2023-09-17T06:00	26485	21	-51.3	-82.9	277	9
2023-09-17T06:00	26516	21	-51.3	-82.9	279	10
2023-09-17T06:00	26536	21	-51.2	-82.9	281	10
2023-09-17T06:00	26566	20	-51.2	-82.9	282	10
2023-09-17T06:00	26589	20	-51.3	-82.9	283	10
2023-09-17T06:00	26623	20	-51.3	-82.9	283	11
2023-09-17T06:00	26646	20	-51.3	-82.9	285	11
2023-09-17T06:00	26681	20	-51.3	-82.9	286	11
2023-09-17T06:00	26708	20	-51.4	-83.0	288	11
2023-09-17T06:00	26726	20	-51.3	-82.9	289	11
2023-09-17T06:00	26755	20	-51.1	-82.8	291	12
2023-09-17T06:00	26793	20	-51.0	-82.7	293	11
2023-09-17T06:00	26822	20	-51.0	-82.7	296	11
2023-09-17T06:00	26843	20	-51.0	-82.7	299	11
2023-09-17T06:00	26867	19	-51.0	-82.7	304	10
2023-09-17T06:00	26896	19	-51.2	-82.9	309	9
2023-09-17T06:00	26947	19	-51.2	-82.9	312	9
2023-09-17T06:00	26964	19	-51.1	-82.8	314	9
2023-09-17T06:00	27000	19	-51.1	-82.8	312	8
2023-09-17T06:00	27024	19	-51.1	-82.8	308	8
2023-09-17T06:00	27058	19	-51.2	-82.9	302	8
2023-09-17T06:00	27090	19	-51.2	-82.9	297	8
2023-09-17T06:00	27112	19	-51.2	-82.9	293	8
2023-09-17T06:00	27146	19	-51.2	-82.9	289	8
2023-09-17T06:00	27175	19	-51.1	-82.8	286	8
2023-09-17T06:00	27204	19	-51.0	-82.7	283	8
2023-09-17T06:00	27245	18	-50.9	-82.7	280	8
2023-09-17T06:00	27259	18	-50.9	-82.7	277	8
2023-09-17T06:00	27298	18	-50.7	-82.5	275	8
2023-09-17T06:00	27332	18	-50.5	-83.0	273	7
2023-09-17T06:00	27356	18	-50.3	-82.8	271	7
2023-09-17T06:00	27394	18	-50.2	-82.8	268	7
2023-09-17T06:00	27427	18	-50.1	-82.7	266	8
2023-09-17T06:00	27455	18	-50.1	-82.7	265	8
2023-09-17T06:00	27485	18	-50.1	-82.7	264	8
2023-09-17T06:00	27523	18	-50.0	-82.6	264	9
2023-09-17T06:00	27538	18	-50.0	-82.6	265	9
2023-09-17T06:00	27578	17	-50.0	-82.6	267	10
2023-09-17T06:00	27607	17	-49.8	-82.5	269	11
2023-09-17T06:00	27640	17	-49.8	-82.5	271	11
2023-09-17T06:00	27676	17	-49.7	-82.4	273	11
2023-09-17T06:00	27701	17	-49.7	-82.4	275	12
2023-09-17T06:00	27727	17	-49.6	-82.3	275	12
2023-09-17T06:00	27771	17	-49.6	-82.3	275	12
2023-09-17T06:00	27793	17	-49.5	-82.3	274	12
2023-09-17T06:00	27823	17	-49.6	-82.3	273	12
2023-09-17T06:00	27849	17	-49.6	-82.3	272	12
2023-09-17T06:00	27882	17	-49.7	-81.8	272	12
2023-09-17T06:00	27916	17	-49.8	-81.8	271	12
2023-09-17T06:00	27933	17	-49.9	-81.9	271	11
2023-09-17T06:00	27960	16	-50.0	-82.0	271	11
2023-09-17T06:00	28005	16	-50.0	-82.0	271	10
2023-09-17T06:00	28019	16	-49.9	-81.9	271	10
2023-09-17T06:00	28061	16	-49.8	-82.5	272	10
2023-09-17T06:00	28081	16	-49.8	-82.5	273	10
2023-09-17T06:00	28121	16	-49.7	-82.4	273	11
2023-09-17T06:00	28150	16	-49.6	-82.3	274	11
2023-09-17T06:00	28165	16	-49.5	-82.3	274	11
2023-09-17T06:00	28207	16	-49.4	-82.2	274	11
2023-09-17T06:00	28234	16	-49.5	-82.3	274	11
2023-09-17T06:00	28263	16	-49.5	-82.3	275	11
2023-09-17T06:00	28294	16	-49.4	-82.2	276	12
2023-09-17T06:00	28312	16	-49.5	-82.3	279	12
2023-09-17T06:00	28353	16	-49.5	-82.3	282	12
2023-09-17T06:00	28380	15	-49.4	-82.2	285	12
2023-09-17T06:00	28397	15	-49.5	-82.3	287	13
2023-09-17T06:00	28439	15	-49.5	-82.3	288	13
2023-09-17T06:00	28467	15	-49.4	-82.2	288	12
2023-09-17T06:00	28495	15	-49.0	-81.9	286	12
2023-09-17T06:00	28525	15	-48.7	-81.7	284	11
2023-09-17T06:00	28565	15	-48.5	-81.5	282	11
2023-09-17T06:00	28595	15	-48.5	-82.2	281	10
2023-09-17T06:00	28614	15	-48.4	-82.2	280	10
2023-09-17T06:00	28648	15	-48.4	-82.2	279	10
2023-09-17T06:00	28681	15	-48.3	-82.1	278	10
2023-09-17T06:00	28686	15	-48.3	-82.1	278	10
2023-09-17T06:00	28725	15	-48.2	-82.0	277	10
2023-09-17T06:00	28749	15	-47.9	-81.8	277	10
2023-09-17T06:00	28791	15	-47.7	-81.6	278	10
2023-09-17T06:00	28830	14	-47.6	-81.6	281	10
2023-09-17T06:00	28842	14	-47.6	-81.6	284	11
2023-09-17T06:00	28887	14	-47.4	-81.4	288	11
2023-09-17T06:00	28913	14	-47.2	-81.3	290	11
2023-09-17T06:00	28940	14	-47.3	-81.4	292	12
2023-09-17T06:00	28967	14	-47.3	-81.4	294	12
2023-09-17T06:00	28983	14	-47.2	-81.3	296	12
2023-09-17T06:00	29024	14	-47.2	-81.3	299	13
2023-09-17T06:00	29057	14	-47.2	-81.3	302	13
2023-09-17T06:00	29083	14	-47.1	-81.2	304	13
2023-09-17T06:00	29109	14	-47.0	-81.1	307	13
2023-09-17T06:00	29139	14	-47.0	-81.1	308	13
2023-09-17T06:00	29170	14	-47.0	-81.1	310	12
2023-09-17T06:00	29201	14	-47.1	-81.2	312	12
2023-09-17T06:00	29238	14	-47.1	-81.2	313	12
2023-09-17T06:00	29264	14	-47.1	-81.2	315	11
2023-09-17T06:00	29300	13	-47.2	-81.3	317	11
2023-09-17T06:00	29320	13	-47.3	-81.4	318	11
2023-09-17T06:00	29354	13	-47.2	-81.3	319	11
2023-09-17T06:00	29382	13	-47.2	-81.3	320	11
2023-09-17T06:00	29409	13	-47.2	-81.3	321	11
2023-09-17T06:00	29432	13	-47.0	-81.1	322	11
2023-09-17T06:00	29457	13	-46.7	-80.9	323	11
2023-09-17T06:00	29484	13	-46.3	-81.4	323	10
2023-09-17T06:00	29527	13	-46.0	-81.2	322	10
2023-09-17T06:00	29548	13	-45.9	-81.2	319	9
2023-09-17T06:00	29578	13	-45.8	-81.1	315	8
2023-09-17T06:00	29613	13	-45.6	-80.9	309	8
2023-09-17T06:00	29637	13	-45.6	-80.9	302	7
2023-09-17T06:00	29681	13	-45.6	-80.9	296	7
2023-09-17T06:00	29712	13	-45.4	-80.8	291	7
2023-09-17T06:00	29730	13	-45.2	-80.7	288	8
2023-09-17T06:00	29771	13	-45.1	-80.6	287	8
2023-09-17T06:00	29804	13	-45.2	-80.7	287	9
2023-09-17T06:00	29831	12	-45.2	-80.7	288	9
2023-09-17T06:00	29871	12	-45.3	-80.7	291	9
2023-09-17T06:00	29896	12	-45.2	-80.7	294	9
2023-09-17T06:00	29931	12	-45.1	-80.6	298	9
2023-09-17T06:00	29955	12	-45.0	-80.5	302	10
2023-09-17T06:00	29983	12	-45.0	-80.5	306	10
2023-09-17T06:00	30002	12	-44.9	-80.4	309	10
2023-09-17T06:00	30055	12	-44.9	-80.4	312	10
2023-09-17T06:00	30077	12	-44.9	-80.4	314	11
2023-09-17T06:00	30106	12	-45.0	-80.5	314	11
2023-09-17T06:00	30146	12	-45.1	-80.6	313	11
2023-09-17T06:00	30177	12	-45.3	-79.9	310	11
2023-09-17T06:00	30200	12	-45.4	-80.0	307	11
2023-09-17T06:00	30232	12	-45.5	-80.1	304	11
2023-09-17T06:00	30258	12	-45.6	-80.1	300	10
2023-09-17T06:00	30303	12	-45.7	-80.2	297	10
2023-09-17T06:00	30334	12	-45.9	-80.3	295	10
2023-09-17T06:00	30364	11	-45.9	-80.3	294	10
2023-09-17T06:00	30381	11	-45.9	-80.3	293	10
2023-09-17T06:00	30417	11	-45.9	-80.3	292	11
2023-09-17T06:00	30445	11	-45.9	-80.3	291	11
2023-09-17T06:00	30504	11	-45.9	-80.3	290	12
2023-09-17T06:00	30540	11	-46.0	-80.4	287	13
2023-09-17T06:00	30581	11	-46.0	-80.4	286	13
2023-09-17T06:00	30610	11	-46.0	-81.2	285	13
2023-09-17T06:00	30639	11	-45.9	-81.2	285	12
2023-09-17T06:00	30661	11	-45.6	-80.9	285	12
2023-09-17T06:00	30700	11	-45.3	-80.7	285	12
2023-09-17T06:00	30712	11	-45.1	-80.6	286	13
2023-09-17T06:00	30762	11	-44.9	-80.4	287	13
2023-09-17T06:00	30775	11	-44.9	-80.4	288	13
2023-09-17T06:00	30801	11	-44.8	-80.4	288	14
2023-09-17T06:00	30824	11	-44.7	-80.3	288	14
2023-09-17T06:00	30874	11	-44.6	-80.2	288	14
2023-09-17T06:00	30879	11	-44.7	-80.3	288	14
2023-09-17T06:00	30920	11	-44.6	-80.2	288	14
2023-09-17T06:00	30947	11	-44.4	-80.1	288	13
2023-09-17T06:00	30952	10	-44.1	-79.9	288	13
2023-09-17T06:00	31034	10	-43.6	-80.4	287	12
2023-09-17T06:00	31047	10	-43.4	-80.3	285	12
2023-09-17T06:00	31088	10	-43.2	-80.2	284	12
2023-09-17T06:00	31099	10	-43.1	-80.1	283	13
2023-09-17T06:00	31133	10	-43.0	-80.0	282	13
2023-09-17T06:00	31154	10	-43.1	-80.1	280	13
2023-09-17T06:00	31199	10	-43.1	-80.1	279	13
2023-09-17T06:00	31240	10	-43.0	-80.0	278	12
2023-09-17T06:00	31265	10	-42.9	-80.0	278	12
2023-09-17T06:00	31306	10	-42.9	-80.0	278	12
2023-09-17T06:00	31331	10	-42.9	-80.0	279	11
2023-09-17T06:00	31340	10	-42.9	-80.0	279	11
2023-09-17T06:00	31384	10	-42.8	-79.9	280	10
2023-09-17T06:00	31421	10	-42.7	-79.8	279	10
2023-09-17T06:00	31461	10	-42.6	-79.7	277	10
2023-09-17T06:00	31483	10	-42.6	-79.7	274	9
2023-09-17T06:00	31512	10	-42.5	-79.7	269	9
2023-09-17T06:00	31532	10	-42.4	-79.6	264	9
2023-09-17T06:00	31560	10	-42.3	-79.5	259	9
2023-09-17T06:00	31612	10	-42.2	-79.5	255	9
2023-09-17T06:00	31640	10	-42.2	-79.5	252	10
2023-09-17T06:00	31651	9	-42.3	-79.5	249	10
2023-09-17T06:00	31724	9	-42.4	-79.6	247	11
2023-09-17T06:00	31725	9	-42.4	-79.6	246	12
2023-09-17T06:00	31753	9	-42.4	-79.6	245	12
2023-09-17T06:00	31784	9	-42.3	-79.5	246	13
2023-09-17T06:00	31835	9	-42.3	-79.5	247	12
2023-09-17T06:00	31843	9	-42.4	-79.6	249	12
2023-09-17T06:00	31881	9	-42.5	-79.7	252	12
2023-09-17T06:00	31930	9	-42.5	-79.7	255	12
2023-09-17T06:00	31959	9	-42.6	-79.7	259	13
2023-09-17T06:00	31996	9	-42.5	-79.7	263	13
2023-09-17T06:00	32016	9	-42.4	-79.6	265	13
2023-09-17T06:00	32052	9	-42.4	-79.6	267	13
2023-09-17T06:00	32084	9	-42.4	-79.6	267	14
2023-09-17T06:00	32126	9	-42.2	-79.5	266	14
2023-09-17T06:00	32159	9	-42.0	-79.3	266	14
2023-09-17T06:00	32169	9	-42.0	-79.3	265	14
2023-09-17T06:00	32214	9	-42.1	-79.4	265	14
2023-09-17T06:00	32263	9	-42.2	-79.5	265	14
2023-09-17T06:00	32273	9	-42.3	-79.5	266	14
2023-09-17T06:00	32295	9	-42.2	-79.5	266	14
2023-09-17T06:00	32342	9	-42.2	-79.5	266	14
2023-09-17T06:00	32382	9	-42.3	-79.5	265	14
2023-09-17T06:00	32398	9	-42.4	-79.6	263	13
2023-09-17T06:00	32457	8	-42.6	-79.7	262	13
2023-09-17T06:00	32469	8	-42.7	-79.8	261	13
2023-09-17T06:00	32492	8	-42.7	-79.8	262	12
2023-09-17T06:00	32529	8	-42.8	-79.9	264	11
2023-09-17T06:00	32575	8	-42.9	-80.0	267	10
2023-09-17T06:00	32580	8	-43.0	-80.0	271	10
2023-09-17T06:00	32620	8	-42.9	-80.0	276	10
2023-09-17T06:00	32674	8	-42.6	-79.7	278	10
2023-09-17T06:00	32729	8	-41.9	-79.2	277	11
2023-09-17T06:00	32737	8	-41.5	-79.0	275	12
2023-09-17T06:00	32781	8	-41.2	-79.9	273	13
2023-09-17T06:00	32801	8	-41.0	-79.7	272	14
2023-09-17T06:00	32827	8	-40.8	-79.6	272	15
2023-09-17T06:00	32868	8	-40.5	-79.4	272	16
2023-09-17T06:00	32883	8	-40.1	-79.1	271	17
2023-09-17T06:00	32921	8	-39.6	-78.8	271	18
2023-09-17T06:00	32964	8	-39.4	-78.6	270	19
2023-09-17T06:00	32992	8	-39.5	-78.7	271	21
2023-09-17T06:00	33017	8	-39.4	-78.6	272	21
2023-09-17T06:00	33030	8	-39.1	-78.4	274	21
2023-09-17T06:00	33084	8	-38.7	-78.1	277	21
2023-09-17T06:00	33112	8	-38.4	-77.9	279	21
2023-09-17T06:00	33115	8	-38.4	-77.9	281	20
2023-09-17T06:00	33181	8	-38.5	-78.0	283	20
2023-09-17T06:00	33195	8	-38.7	-78.1	286	19
2023-09-17T06:00	33239	8	-38.9	-78.3	289	19
2023-09-17T06:00	33264	7	-39.0	-78.3	293	19
2023-09-17T06:00	33295	7	-39.0	-78.3	297	19
2023-09-17T06:00	33341	7	-38.9	-78.3	301	19
2023-09-17T06:00	33382	7	-38.9	-78.3	308	18
2023-09-17T06:00	33439	7	-38.9	-78.3	311	18
2023-09-17T06:00	33462	7	-38.8	-78.2	314	18
2023-09-17T06:00	33477	7	-38.7	-78.1	316	18
2023-09-17T06:00	33490	7	-38.7	-78.1	318	18
2023-09-17T06:00	33552	7	-38.7	-78.1	320	18
2023-09-17T06:00	33568	7	-38.9	-78.3	321	18
2023-09-17T06:00	33609	7	-39.2	-78.5	322	18
2023-09-17T06:00	33633	7	-39.4	-78.6	322	17
2023-09-17T06:00	33674	7	-39.6	-78.8	322	17
2023-09-17T06:00	33703	7	-39.7	-78.8	321	16
2023-09-17T06:00	33729	7	-39.7	-78.8	319	16
2023-09-17T06:00	33773	7	-39.6	-78.8	316	15
2023-09-17T06:00	33784	7	-39.7	-78.8	314	15
2023-09-17T06:00	33817	7	-39.8	-78.9	311	15
2023-09-17T06:00	33854	7	-39.9	-79.0	309	15
2023-09-17T06:00	33888	7	-40.0	-79.0	307	14
2023-09-17T06:00	33934	7	-40.3	-78.1	304	13
2023-09-17T06:00	33963	7	-40.6	-78.3	302	12
2023-09-17T06:00	33982	7	-40.7	-78.4	300	12
2023-09-17T06:00	34013	7	-40.6	-78.3	298	11
2023-09-17T06:00	34047	7	-40.5	-78.3	297	10
2023-09-17T06:00	34066	7	-40.6	-78.3	295	9
2023-09-17T06:00	34119	7	-40.7	-79.5	292	9
2023-09-17T06:00	34162	7	-40.7	-79.5	289	8
2023-09-17T06:00	34200	7	-40.4	-79.3	281	9
2023-09-17T06:00	34228	7	-40.1	-79.1	278	10
2023-09-17T06:00	34289	6	-39.7	-78.8	277	11
2023-09-17T06:00	34334	6	-39.4	-78.6	276	12
2023-09-17T06:00	34353	6	-39.0	-78.3	277	14
2023-09-17T06:00	34394	6	-38.8	-78.2	277	15
2023-09-17T06:00	34421	6	-38.6	-78.1	277	16
2023-09-17T06:00	34445	6	-38.6	-78.1	278	17
2023-09-17T06:00	34473	6	-38.7	-78.1	278	18
2023-09-17T06:00	34527	6	-38.8	-78.2	279	18
2023-09-17T06:00	34558	6	-38.9	-78.3	280	18
2023-09-17T06:00	34601	6	-38.8	-78.2	280	18
2023-09-17T06:00	34649	6	-38.6	-78.1	280	17
2023-09-17T06:00	34684	6	-38.7	-78.1	280	16
2023-09-17T12:00	112	1003	24.9	14.4	110	2
2023-09-17T12:00	144	1000	23.5	14.5	161	0
2023-09-17T12:00	172	996	23.3	14.2	164	1
2023-09-17T12:00	196	993	22.7	14.1	170	1
2023-09-17T12:00	229	990	22.7	14.3	179	1
2023-09-17T12:00	269	986	22.3	14.2	189	2
2023-09-17T12:00	306	981	21.9	14.0	197	2
2023-09-17T12:00	334	978	21.5	14.0	200	2
2023-09-17T12:00	361	975	21.1	13.8	197	2
2023-09-17T12:00	388	972	20.7	13.8	189	2
2023-09-17T12:00	416	969	20.4	13.8	177	1
2023-09-17T12:00	445	966	20.2	13.7	165	2
2023-09-17T12:00	476	962	19.9	13.6	160	2
2023-09-17T12:00	497	960	19.9	13.6	162	2
2023-09-17T12:00	526	956	19.6	13.7	166	3
2023-09-17T12:00	561	953	19.3	13.4	169	3
2023-09-17T12:00	591	949	18.9	13.2	172	4
2023-09-17T12:00	619	946	18.6	12.9	175	4
2023-09-17T12:00	641	944	18.4	12.9	177	4
2023-09-17T12:00	670	941	18.2	12.8	179	4
2023-09-17T12:00	694	938	17.9	12.8	182	4
2023-09-17T12:00	721	935	17.7	12.9	186	4
2023-09-17T12:00	744	932	17.5	12.4	193	4
2023-09-17T12:00	774	929	17.2	12.7	202	4
2023-09-17T12:00	801	926	16.9	12.5	214	3
2023-09-17T12:00	827	924	16.7	12.3	228	3
2023-09-17T12:00	850	921	16.7	10.9	242	2
2023-09-17T12:00	876	918	16.7	10.5	255	2
2023-09-17T12:00	899	916	16.7	9.6	262	2
2023-09-17T12:00	921	914	16.7	9.1	261	2
2023-09-17T12:00	947	911	16.6	9.4	254	2
2023-09-17T12:00	970	908	16.3	9.5	247	2
2023-09-17T12:00	994	906	16.2	9.9	245	2
2023-09-17T12:00	1019	903	15.9	10.1	247	2
2023-09-17T12:00	1046	900	15.7	10.2	251	2
2023-09-17T12:00	1071	898	15.5	9.9	257	2
2023-09-17T12:00	1091	895	15.3	9.8	261	2
2023-09-17T12:00	1116	893	15.1	9.4	261	2
2023-09-17T12:00	1136	890	15.0	9.2	259	2
2023-09-17T12:00	1162	888	14.8	9.7	257	2
2023-09-17T12:00	1185	886	14.5	9.9	257	2
2023-09-17T12:00	1208	883	14.3	10.0	260	2
2023-09-17T12:00	1234	880	14.1	9.9	265	2
2023-09-17T12:00	1260	878	13.9	9.7	268	2
2023-09-17T12:00	1285	875	13.8	9.8	266	2
2023-09-17T12:00	1309	873	13.6	9.0	260	2
2023-09-17T12:00	1335	870	13.6	7.9	252	2
2023-09-17T12:00	1359	867	13.5	7.3	246	2
2023-09-17T12:00	1385	865	13.4	7.0	239	2
2023-09-17T12:00	1409	862	13.4	6.8	228	2
2023-09-17T12:00	1438	859	13.4	6.6	204	1
2023-09-17T12:00	1460	857	13.3	6.6	169	1
2023-09-17T12:00	1479	855	13.2	6.7	148	2
2023-09-17T12:00	1497	853	13.1	6.6	142	2
2023-09-17T12:00	1521	851	13.0	6.8	141	2
2023-09-17T12:00	1543	849	13.0	6.6	143	2
2023-09-17T12:00	1566	846	12.9	6.4	144	2
2023-09-17T12:00	1590	844	12.8	6.2	145	2
2023-09-17T12:00	1613	842	12.7	6.0	149	1
2023-09-17T12:00	1635	840	12.6	5.5	158	1
2023-09-17T12:00	1659	837	12.5	5.3	174	1
2023-09-17T12:00	1694	834	12.3	4.3	198	1
2023-09-17T12:00	1722	831	12.1	4.0	227	1
2023-09-17T12:00	1748	828	12.0	3.7	251	1
2023-09-17T12:00	1776	826	11.9	3.1	267	2
2023-09-17T12:00	1799	823	11.9	1.4	273	2
2023-09-17T12:00	1823	821	11.9	-0.4	273	2
2023-09-17T12:00	1849	818	11.9	-1.9	266	2
2023-09-17T12:00	1874	816	12.0	-4.5	249	1
2023-09-17T12:00	1900	813	11.9	-3.8	223	1
2023-09-17T12:00	1927	811	11.7	-4.0	203	1
2023-09-17T12:00	1950	808	11.5	-4.2	195	2
2023-09-17T12:00	1979	806	11.3	-5.4	195	2
2023-09-17T12:00	2000	804	11.3	-6.3	199	2
2023-09-17T12:00	2021	802	11.2	-6.4	206	2
2023-09-17T12:00	2047	799	11.0	-6.5	218	1
2023-09-17T12:00	2075	796	10.8	-6.5	243	1
2023-09-17T12:00	2105	794	10.6	-6.6	271	1
2023-09-17T12:00	2131	791	10.3	-6.6	286	2
2023-09-17T12:00	2156	789	10.1	-6.6	290	2
2023-09-17T12:00	2183	786	9.9	-7.1	290	3
2023-09-17T12:00	2213	784	10.1	-10.9	288	3
2023-09-17T12:00	2235	781	10.1	-12.9	284	3
2023-09-17T12:00	2260	779	10.1	-12.8	276	2
2023-09-17T12:00	2288	776	10.0	-12.2	264	2
2023-09-17T12:00	2312	774	10.0	-9.8	253	2
2023-09-17T12:00	2334	772	9.9	-6.6	249	2
2023-09-17T12:00	2360	770	9.8	-5.4	256	2
2023-09-17T12:00	2388	767	9.6	-4.7	267	2
2023-09-17T12:00	2411	765	9.4	-4.7	275	3
2023-09-17T12:00	2440	762	9.2	-5.7	277	4
2023-09-17T12:00	2463	760	9.1	-5.3	275	4
2023-09-17T12:00	2485	758	8.9	-5.4	270	4
2023-09-17T12:00	2511	756	8.6	-5.5	264	4
2023-09-17T12:00	2537	753	8.4	-5.6	257	4
2023-09-17T12:00	2557	751	8.2	-5.6	249	3
2023-09-17T12:00	2583	749	8.0	-5.7	242	3
2023-09-17T12:00	2606	747	7.8	-5.8	239	3
2023-09-17T12:00	2626	745	7.6	-5.7	242	3
2023-09-17T12:00	2645	744	7.4	-5.8	251	3
2023-09-17T12:00	2667	742	7.2	-5.8	262	3
2023-09-17T12:00	2689	739	7.0	-6.8	270	3
2023-09-17T12:00	2718	737	6.9	-8.9	275	3
2023-09-17T12:00	2753	734	6.7	-8.2	277	3
2023-09-17T12:00	2780	731	6.5	-8.3	277	3
2023-09-17T12:00	2801	729	6.3	-8.4	273	3
2023-09-17T12:00	2827	727	6.1	-8.3	267	3
2023-09-17T12:00	2849	725	5.9	-8.8	261	4
2023-09-17T12:00	2869	723	5.7	-9.3	257	4
2023-09-17T12:00	2890	722	5.5	-9.2	257	4
2023-09-17T12:00	2909	720	5.3	-9.2	262	4
2023-09-17T12:00	2939	717	5.1	-9.8	272	4
2023-09-17T12:00	2962	715	4.9	-10.0	284	4
2023-09-17T12:00	2981	713	4.7	-9.4	292	4
2023-09-17T12:00	3011	711	4.4	-8.2	296	5
2023-09-17T12:00	3035	709	4.1	-6.8	295	5
2023-09-17T12:00	3060	707	3.9	-5.2	293	5
2023-09-17T12:00	3080	705	3.7	-4.6	291	5
2023-09-17T12:00	3102	703	3.5	-4.6	291	5
2023-09-17T12:00	3123	701	3.3	-3.2	293	5
2023-09-17T12:00	3146	699	3.1	-2.3	299	5
2023-09-17T12:00	3164	698	2.9	-1.8	307	5
2023-09-17T12:00	3188	696	2.8	-1.9	315	4
2023-09-17T12:00	3212	694	2.5	-2.0	320	4
2023-09-17T12:00	3233	692	2.4	-2.7	321	5
2023-09-17T12:00	3257	690	2.2	-2.9	318	5
2023-09-17T12:00	3281	688	2.0	-3.3	313	6
2023-09-17T12:00	3307	686	1.9	-5.4	307	7
2023-09-17T12:00	3328	684	1.8	-7.1	303	7
2023-09-17T12:00	3349	682	1.7	-8.1	299	8
2023-09-17T12:00	3370	680	1.6	-8.0	297	8
2023-09-17T12:00	3395	678	1.3	-5.9	296	7
2023-09-17T12:00	3424	676	1.1	-7.2	297	7
2023-09-17T12:00	3446	674	0.9	-6.3	298	7
2023-09-17T12:00	3471	672	0.7	-4.3	299	7
2023-09-17T12:00	3490	670	0.4	-3.4	298	7
2023-09-17T12:00	3518	668	0.4	-7.7	296	7
2023-09-17T12:00	3544	666	0.4	-10.7	293	7
2023-09-17T12:00	3568	664	0.3	-12.5	290	8
2023-09-17T12:00	3585	662	0.2	-12.5	288	8
2023-09-17T12:00	3603	661	0.0	-12.7	285	7
2023-09-17T12:00	3629	659	-0.1	-14.5	280	7
2023-09-17T12:00	3654	657	-0.1	-17.9	275	7
2023-09-17T12:00	3678	655	0.1	-21.0	271	6
2023-09-17T12:00	3707	652	0.1	-20.7	268	6
2023-09-17T12:00	3737	650	0.0	-19.4	269	6
2023-09-17T12:00	3762	648	-0.2	-20.8	271	6
2023-09-17T12:00	3782	646	-0.3	-21.6	276	6
2023-09-17T12:00	3815	644	-0.6	-21.9	280	6
2023-09-17T12:00	3843	641	-0.7	-22.0	283	7
2023-09-17T12:00	3865	639	-0.7	-22.9	285	7
2023-09-17T12:00	3894	637	-0.9	-23.9	285	8
2023-09-17T12:00	3931	634	-1.1	-24.7	284	8
2023-09-17T12:00	3953	632	-1.2	-25.3	282	8
2023-09-17T12:00	3977	631	-1.3	-25.5	280	8
2023-09-17T12:00	4001	629	-1.5	-25.7	277	8
2023-09-17T12:00	4025	627	-1.7	-24.9	275	9
2023-09-17T12:00	4047	625	-1.7	-25.1	275	9
2023-09-17T12:00	4070	623	-1.8	-25.5	275	9
2023-09-17T12:00	4094	621	-2.0	-26.0	276	9
2023-09-17T12:00	4125	619	-2.1	-25.9	277	9
2023-09-17T12:00	4148	617	-2.2	-26.2	276	9
2023-09-17T12:00	4168	615	-2.3	-27.4	274	9
2023-09-17T12:00	4194	613	-2.4	-24.5	271	9
2023-09-17T12:00	4221	611	-2.6	-17.9	269	9
2023-09-17T12:00	4249	609	-2.8	-17.2	269	9
2023-09-17T12:00	4273	607	-2.9	-17.6	271	9
2023-09-17T12:00	4297	606	-3.0	-18.3	274	9
2023-09-17T12:00	4318	604	-3.1	-18.2	276	9
2023-09-17T12:00	4346	602	-3.3	-18.3	276	9
2023-09-17T12:00	4377	600	-3.5	-18.9	275	9
2023-09-17T12:00	4395	598	-3.6	-18.0	274	9
2023-09-17T12:00	4416	597	-3.8	-17.1	273	9
2023-09-17T12:00	4437	595	-3.9	-17.5	273	9
2023-09-17T12:00	4465	593	-4.0	-21.1	273	9
2023-09-17T12:00	4487	591	-4.0	-28.2	273	8
2023-09-17T12:00	4506	590	-4.1	-30.4	271	8
2023-09-17T12:00	4532	588	-4.3	-30.1	266	7
2023-09-17T12:00	4556	586	-4.6	-30.5	260	6
2023-09-17T12:00	4578	584	-4.8	-30.9	254	6
2023-09-17T12:00	4603	582	-5.0	-31.1	249	5
2023-09-17T12:00	4639	580	-5.2	-32.3	248	5
2023-09-17T12:00	4661	578	-5.3	-32.5	251	4
2023-09-17T12:00	4678	577	-5.4	-32.8	258	4
2023-09-17T12:00	4697	576	-5.6	-33.0	266	4
2023-09-17T12:00	4717	574	-5.7	-33.0	272	4
2023-09-17T12:00	4744	572	-5.8	-32.9	276	4
2023-09-17T12:00	4771	570	-6.0	-32.8	276	3
2023-09-17T12:00	4788	569	-6.1	-32.7	272	3
2023-09-17T12:00	4807	567	-6.3	-32.8	266	3
2023-09-17T12:00	4840	565	-6.5	-32.9	263	3
2023-09-17T12:00	4873	563	-6.7	-33.6	264	4
2023-09-17T12:00	4901	561	-6.8	-34.2	267	4
2023-09-17T12:00	4915	560	-6.9	-33.9	271	4
2023-09-17T12:00	4934	558	-7.1	-33.7	274	4
2023-09-17T12:00	4959	557	-7.3	-33.7	277	4
2023-09-17T12:00	4984	555	-7.4	-34.5	278	4
2023-09-17T12:00	5006	553	-7.5	-34.5	277	4
2023-09-17T12:00	5030	552	-7.7	-34.6	273	4
2023-09-17T12:00	5050	550	-7.7	-34.6	268	4
2023-09-17T12:00	5069	549	-7.9	-34.9	263	4
2023-09-17T12:00	5095	547	-8.0	-35.3	260	5
2023-09-17T12:00	5124	545	-8.1	-34.7	259	5
2023-09-17T12:00	5149	543	-8.2	-34.6	260	5
2023-09-17T12:00	5172	542	-8.4	-34.4	263	5
2023-09-17T12:00	5191	540	-8.4	-34.1	265	5
2023-09-17T12:00	5208	539	-8.5	-33.8	268	4
2023-09-17T12:00	5228	538	-8.5	-35.9	271	4
2023-09-17T12:00	5246	536	-8.5	-38.0	274	4
2023-09-17T12:00	5274	535	-8.5	-37.4	275	4
2023-09-17T12:00	5298	533	-8.7	-37.1	274	5
2023-09-17T12:00	5321	531	-8.9	-37.1	272	5
2023-09-17T12:00	5347	529	-9.0	-36.3	270	5
2023-09-17T12:00	5376	528	-9.2	-32.7	269	6
2023-09-17T12:00	5398	526	-9.4	-31.8	269	6
2023-09-17T12:00	5418	525	-9.5	-31.5	270	6
2023-09-17T12:00	5443	523	-9.7	-30.6	272	6
2023-09-17T12:00	5470	521	-10.0	-24.9	272	6
2023-09-17T12:00	5493	520	-10.1	-21.3	271	6
2023-09-17T12:00	5519	518	-10.2	-24.1	267	6
2023-09-17T12:00	5552	515	-10.5	-22.8	265	6
2023-09-17T12:00	5586	513	-10.8	-23.3	264	6
2023-09-17T12:00	5607	512	-10.9	-24.1	267	6
2023-09-17T12:00	5635	510	-11.2	-24.7	270	6
2023-09-17T12:00	5670	508	-11.5	-25.8	271	7
2023-09-17T12:00	5699	506	-11.7	-25.9	271	7
2023-09-17T12:00	5718	505	-11.8	-25.4	269	7
2023-09-17T12:00	5737	503	-12.0	-21.8	266	7
2023-09-17T12:00	5757	502	-12.2	-19.0	263	7
2023-09-17T12:00	5778	501	-12.3	-21.1	261	7
2023-09-17T12:00	5805	499	-12.5	-20.6	261	7
2023-09-17T12:00	5834	497	-12.7	-18.9	262	7
2023-09-17T12:00	5864	495	-12.8	-19.3	263	8
2023-09-17T12:00	5892	493	-12.9	-19.0	263	8
2023-09-17T12:00	5912	492	-12.9	-18.1	262	8
2023-09-17T12:00	5937	490	-13.1	-18.1	261	7
2023-09-17T12:00	5959	489	-13.3	-18.2	259	7
2023-09-17T12:00	5982	487	-13.5	-18.2	257	6
2023-09-17T12:00	6013	485	-13.7	-18.1	255	6
2023-09-17T12:00	6049	483	-14.1	-18.2	254	6
2023-09-17T12:00	6077	481	-14.3	-17.8	254	6
2023-09-17T12:00	6098	480	-14.5	-18.1	254	6
2023-09-17T12:00	6124	478	-14.8	-18.0	254	6
2023-09-17T12:00	6156	476	-15.1	-18.3	254	6
2023-09-17T12:00	6189	474	-15.4	-18.5	253	5
2023-09-17T12:00	6217	472	-15.6	-18.4	252	5
2023-09-17T12:00	6246	471	-15.9	-18.7	252	5
2023-09-17T12:00	6273	469	-16.2	-18.6	253	6
2023-09-17T12:00	6310	467	-16.5	-18.8	254	6
2023-09-17T12:00	6341	465	-16.8	-19.0	256	6
2023-09-17T12:00	6364	463	-17.0	-19.1	257	6
2023-09-17T12:00	6380	462	-17.2	-19.2	257	6
2023-09-17T12:00	6400	461	-17.4	-19.3	257	5
2023-09-17T12:00	6420	460	-17.6	-19.3	256	5
2023-09-17T12:00	6442	458	-17.7	-19.6	254	5
2023-09-17T12:00	6471	457	-18.0	-20.2	252	5
2023-09-17T12:00	6503	455	-18.2	-20.1	250	5
2023-09-17T12:00	6533	453	-18.4	-21.1	249	5
2023-09-17T12:00	6554	452	-18.4	-24.1	249	5
2023-09-17T12:00	6581	450	-18.5	-28.5	249	4
2023-09-17T12:00	6611	448	-18.6	-29.5	250	4
2023-09-17T12:00	6641	447	-18.7	-29.1	249	5
2023-09-17T12:00	6670	445	-19.0	-28.7	248	5
2023-09-17T12:00	6696	443	-19.2	-28.6	245	6
2023-09-17T12:00	6729	441	-19.5	-28.4	243	6
2023-09-17T12:00	6747	440	-19.7	-28.3	239	7
2023-09-17T12:00	6773	439	-19.9	-28.8	236	7
2023-09-17T12:00	6800	437	-20.1	-29.3	232	7
2023-09-17T12:00	6828	435	-20.3	-28.8	229	8
2023-09-17T12:00	6855	434	-20.5	-28.2	226	8
2023-09-17T12:00	6884	432	-20.7	-27.3	224	9
2023-09-17T12:00	6910	431	-20.9	-27.3	224	9
2023-09-17T12:00	6940	429	-21.0	-27.8	224	10
2023-09-17T12:00	6971	427	-21.2	-28.9	225	10
2023-09-17T12:00	6995	426	-21.2	-29.4	226	10
2023-09-17T12:00	7022	424	-21.4	-29.6	226	10
2023-09-17T12:00	7054	422	-21.7	-29.4	226	10
2023-09-17T12:00	7084	421	-21.9	-28.7	224	9
2023-09-17T12:00	7116	419	-22.1	-30.7	220	9
2023-09-17T12:00	7142	417	-22.3	-31.8	216	9
2023-09-17T12:00	7166	416	-22.5	-32.0	211	9
2023-09-17T12:00	7200	414	-22.7	-32.4	207	9
2023-09-17T12:00	7234	412	-22.9	-31.5	204	9
2023-09-17T12:00	7257	411	-23.1	-30.7	202	9
2023-09-17T12:00	7283	409	-23.3	-30.5	201	9
2023-09-17T12:00	7314	408	-23.6	-30.4	200	9
2023-09-17T12:00	7349	406	-23.8	-31.7	200	8
2023-09-17T12:00	7383	404	-24.0	-32.2	199	9
2023-09-17T12:00	7412	402	-24.2	-34.1	199	9
2023-09-17T12:00	7441	401	-24.3	-35.8	199	9
2023-09-17T12:00	7467	399	-24.5	-38.9	199	9
2023-09-17T12:00	7500	397	-24.8	-39.0	199	9
2023-09-17T12:00	7531	396	-25.1	-38.7	198	9
2023-09-17T12:00	7560	394	-25.3	-39.1	197	9
2023-09-17T12:00	7582	393	-25.5	-39.5	195	9
2023-09-17T12:00	7605	392	-25.7	-39.8	193	9
2023-09-17T12:00	7630	390	-25.9	-39.8	191	9
2023-09-17T12:00	7657	389	-26.1	-38.9	189	9
2023-09-17T12:00	7683	387	-26.3	-37.9	188	8
2023-09-17T12:00	7712	386	-26.6	-37.1	187	8
2023-09-17T12:00	7736	384	-26.8	-37.2	187	8
2023-09-17T12:00	7766	383	-27.1	-36.9	188	8
2023-09-17T12:00	7803	381	-27.4	-36.3	190	8
2023-09-17T12:00	7825	380	-27.6	-36.2	191	8
2023-09-17T12:00	7845	379	-27.8	-36.0	192	8
2023-09-17T12:00	7864	378	-28.0	-35.9	191	8
2023-09-17T12:00	7890	376	-28.3	-36.0	190	9
2023-09-17T12:00	7918	375	-28.5	-35.5	188	9
2023-09-17T12:00	7949	373	-28.8	-34.7	187	9
2023-09-17T12:00	7982	372	-29.1	-34.9	185	10
2023-09-17T12:00	8017	370	-29.4	-34.2	183	10
2023-09-17T12:00	8050	368	-29.5	-33.4	181	10
2023-09-17T12:00	8078	367	-29.8	-34.4	180	10
2023-09-17T12:00	8110	365	-30.1	-34.5	179	10
2023-09-17T12:00	8142	363	-30.4	-34.7	179	10
2023-09-17T12:00	8176	362	-30.7	-34.5	180	9
2023-09-17T12:00	8200	360	-30.9	-34.3	182	9
2023-09-17T12:00	8231	359	-31.2	-34.6	184	9
2023-09-17T12:00	8261	357	-31.4	-34.5	186	9
2023-09-17T12:00	8288	356	-31.6	-34.6	188	9
2023-09-17T12:00	8314	355	-31.9	-34.7	190	9
2023-09-17T12:00	8340	353	-32.1	-34.9	192	8
2023-09-17T12:00	8367	352	-32.3	-35.4	194	8
2023-09-17T12:00	8398	351	-32.6	-35.7	193	7
2023-09-17T12:00	8420	349	-32.8	-35.7	192	6
2023-09-17T12:00	8451	348	-33.0	-35.8	190	6
2023-09-17T12:00	8475	347	-33.3	-35.9	188	6
2023-09-17T12:00	8497	346	-33.5		188	6
2023-09-17T12:00	8520	344	-33.7	-36.0	189	6
2023-09-17T12:00	8547	343	-34.0	-35.8	189	7
2023-09-17T12:00	8577	342	-34.3	-36.0	188	7
2023-09-17T12:00	8601	340	-34.5	-36.3	187	7
2023-09-17T12:00	8632	339	-34.8	-36.5	185	7
2023-09-17T12:00	8658	338	-35.0	-36.9	184	7
2023-09-17T12:00	8686	336	-35.2	-37.1	184	7
2023-09-17T12:00	8718	335	-35.5	-37.2	185	7
2023-09-17T12:00	8751	333	-35.8	-37.3	187	7
2023-09-17T12:00	8782	332	-36.1	-37.4	188	8
2023-09-17T12:00	8814	330	-36.4	-37.7	190	8
2023-09-17T12:00	8844	329	-36.7	-38.1	190	8
2023-09-17T12:00	8875	327	-36.9	-38.2	190	8
2023-09-17T12:00	8900	326	-37.1	-38.6	190	9
2023-09-17T12:00	8930	325	-37.4	-38.8	190	9
2023-09-17T12:00	8958	323	-37.6	-38.8	191	9
2023-09-17T12:00	8986	322	-37.9	-39.0	191	10
2023-09-17T12:00	9013	321	-38.1	-39.4	193	10
2023-09-17T12:00	9043	320	-38.4	-39.8	194	11
2023-09-17T12:00	9065	318	-38.4	-40.7	197	11
2023-09-17T12:00	9089	317	-38.6	-41.7	200	10
2023-09-17T12:00	9121	316	-38.8	-43.2	203	9
2023-09-17T12:00	9141	315	-39.0	-44.3	206	8
2023-09-17T12:00	9161	314	-39.1	-45.7	206	7
2023-09-17T12:00	9184	313	-39.3	-49.4	205	7
2023-09-17T12:00	9208	312	-39.4	-52.1	201	7
2023-09-17T12:00	9233	311	-39.6	-48.6	199	7
2023-09-17T12:00	9259	310	-39.9	-47.4	197	7
2023-09-17T12:00	9286	308	-40.1	-46.0	197	7
2023-09-17T12:00	9310	307	-40.3	-46.6	198	7
2023-09-17T12:00	9331	306	-40.5	-47.1	200	7
2023-09-17T12:00	9349	305	-40.7	-47.2	201	7
2023-09-17T12:00	9375	304	-41.0	-47.3	201	7
2023-09-17T12:00	9404	303	-41.2	-47.4	201	7
2023-09-17T12:00	9433	302	-41.5	-47.5	201	7
2023-09-17T12:00	9456	301	-41.7	-47.1	202	7
2023-09-17T12:00	9483	300	-42.0	-47.0	202	7
2023-09-17T12:00	9511	298	-42.2	-47.1	201	7
2023-09-17T12:00	9535	297	-42.5	-47.1	201	7
2023-09-17T12:00	9563	296	-42.7	-47.0	200	7
2023-09-17T12:00	9588	295	-43.0	-46.7	199	7
2023-09-17T12:00	9616	294	-43.2	-46.4	200	8
2023-09-17T12:00	9639	293	-43.4	-46.8	200	8
2023-09-17T12:00	9666	292	-43.6	-47.0	200	8
2023-09-17T12:00	9693	290	-43.8	-47.4	199	8
2023-09-17T12:00	9715	289	-44.0	-47.7	198	8
2023-09-17T12:00	9741	288	-44.2	-48.2	196	7
2023-09-17T12:00	9768	287	-44.4	-48.6	194	7
2023-09-17T12:00	9795	286	-44.6	-48.7	190	7
2023-09-17T12:00	9820	285	-44.9	-48.7	185	7
2023-09-17T12:00	9854	284	-45.1	-48.7	179	6
2023-09-17T12:00	9878	282	-45.3	-49.1	173	6
2023-09-17T12:00	9901	281	-45.4	-50.0	168	6
2023-09-17T12:00	9924	281	-45.5	-50.6	165	7
2023-09-17T12:00	9943	280	-45.6	-51.1	164	7
2023-09-17T12:00	9962	279	-45.7	-51.3	164	8
2023-09-17T12:00	9982	278	-45.9	-51.3	166	8
2023-09-17T12:00	10003	277	-46.0	-50.9	167	8
2023-09-17T12:00	10021	276	-46.2	-50.8	168	8
2023-09-17T12:00	10043	275	-46.4	-51.3	169	8
2023-09-17T12:00	10069	274	-46.6	-52.3	168	8
2023-09-17T12:00	10100	273	-46.8	-53.1	166	8
2023-09-17T12:00	10126	272	-47.0	-53.0	163	7
2023-09-17T12:00	10152	271	-47.2	-52.8	161	7
2023-09-17T12:00	10173	270	-47.4	-52.7	161	7
2023-09-17T12:00	10199	269	-47.7	-52.6	164	7
2023-09-17T12:00	10222	268	-47.9	-52.6	169	7
2023-09-17T12:00	10244	267	-48.0	-52.4	175	7
2023-09-17T12:00	10265	266	-48.3	-52.4	180	7
2023-09-17T12:00	10287	265	-48.4	-52.2	182	7
2023-09-17T12:00	10313	264	-48.7	-52.3	181	7
2023-09-17T12:00	10340	263	-48.9	-52.4	179	7
2023-09-17T12:00	10368	262	-49.0	-52.7	177	7
2023-09-17T12:00	10395	261	-49.2	-53.3	175	7
2023-09-17T12:00	10416	260	-49.4	-53.8	173	7
2023-09-17T12:00	10436	260	-49.7	-54.2	173	7
2023-09-17T12:00	10457	259	-49.9	-54.3	173	7
2023-09-17T12:00	10479	258	-50.1	-54.7	173	7
2023-09-17T12:00	10500	257	-50.3	-55.3	173	7
2023-09-17T12:00	10522	256	-50.4	-55.6	174	7
2023-09-17T12:00	10541	255	-50.6	-55.8	175	7
2023-09-17T12:00	10562	255	-50.7	-55.9	177	7
2023-09-17T12:00	10584	254	-50.8	-55.8	180	7
2023-09-17T12:00	10609	253	-51.0	-55.6	183	7
2023-09-17T12:00	10630	252	-51.0	-55.4	187	7
2023-09-17T12:00	10653	251	-51.1	-55.7	191	7
2023-09-17T12:00	10671	250	-51.2	-56.2	194	7
2023-09-17T12:00	10692	250	-51.1	-56.9	195	8
2023-09-17T12:00	10711	249	-51.1	-57.7	196	8
2023-09-17T12:00	10732	248	-51.3	-58.5	197	8
2023-09-17T12:00	10753	247	-51.2	-59.0	197	8
2023-09-17T12:00	10773	246	-51.2	-59.7	197	8
2023-09-17T12:00	10799	246	-51.4	-60.3	197	7
2023-09-17T12:00	10820	245	-51.4	-60.5	197	7
2023-09-17T12:00	10842	244	-51.6	-60.7	197	7
2023-09-17T12:00	10867	243	-51.7	-60.7	198	6
2023-09-17T12:00	10891	242	-51.9	-60.9	199	6
2023-09-17T12:00	10914	241	-52.1	-61.0	200	6
2023-09-17T12:00	10936	240	-52.2	-61.0	201	6
2023-09-17T12:00	10958	240	-52.4	-61.2	202	6
2023-09-17T12:00	10979	239	-52.5	-61.2	204	6
2023-09-17T12:00	11004	238	-52.6	-61.4	205	6
2023-09-17T12:00	11026	237	-52.8	-61.7	207	6
2023-09-17T12:00	11047	236	-52.8	-61.8	209	7
2023-09-17T12:00	11076	235	-53.0	-61.9	211	7
2023-09-17T12:00	11100	234	-53.2	-62.0	213	7
2023-09-17T12:00	11128	233	-53.2	-61.8	215	7
2023-09-17T12:00	11157	232	-53.5	-61.9	217	6
2023-09-17T12:00	11185	231	-53.7	-61.8	219	6
2023-09-17T12:00	11212	230	-54.0	-61.7	221	6
2023-09-17T12:00	11241	229	-54.3	-61.5	223	6
2023-09-17T12:00	11270	228	-54.6	-61.5	224	6
2023-09-17T12:00	11297	227	-54.7	-61.6	225	7
2023-09-17T12:00	11319	226	-54.8	-61.8	226	7
2023-09-17T12:00	11345	226	-55.0	-62.1	226	7
2023-09-17T12:00	11367	225	-55.2	-62.2	226	7
2023-09-17T12:00	11389	224	-55.4	-62.3	226	7
2023-09-17T12:00	11408	223	-55.5	-62.2	227	7
2023-09-17T12:00	11431	223	-55.7	-62.3	227	7
2023-09-17T12:00	11451	222	-55.8	-62.3	228	7
2023-09-17T12:00	11473	221	-56.0	-62.3	228	7
2023-09-17T12:00	11494	220	-56.1	-62.3	227	7
2023-09-17T12:00	11513	220	-56.1	-62.3	226	7
2023-09-17T12:00	11536	219	-56.3	-62.5	226	7
2023-09-17T12:00	11556	218	-56.4	-62.5	225	7
2023-09-17T12:00	11575	217	-56.5	-62.6	226	8
2023-09-17T12:00	11599	217	-56.5	-62.6	226	8
2023-09-17T12:00	11618	216	-56.6	-62.7	226	8
2023-09-17T12:00	11641	215	-56.6	-62.6	225	8
2023-09-17T12:00	11662	215	-56.8	-62.8	225	8
2023-09-17T12:00	11683	214	-56.9	-63.1	225	8
2023-09-17T12:00	11705	213	-56.9	-63.2	224	9
2023-09-17T12:00	11727	212	-56.9		224	9
2023-09-17T12:00	11746	212	-57.0	-63.3	224	9
2023-09-17T12:00	11768	211	-57.1	-63.2	224	9
2023-09-17T12:00	11787	210	-57.3	-63.1	224	9
2023-09-17T12:00	11808	210	-57.5	-63.2	226	9
2023-09-17T12:00	11829	209	-57.6	-63.2	227	9
2023-09-17T12:00	11850	208	-57.6	-63.1	230	9
2023-09-17T12:00	11873	208	-57.7	-63.3	232	10
2023-09-17T12:00	11891	207	-57.8	-63.6	234	10
2023-09-17T12:00	11911	206	-57.9	-64.3	235	11
2023-09-17T12:00	11932	206	-57.8	-64.8	236	11
2023-09-17T12:00	11953	205	-57.8	-65.1	237	11
2023-09-17T12:00	11972	204	-57.9	-65.2	238	11
2023-09-17T12:00	11993	204	-58.1	-65.2	239	12
2023-09-17T12:00	12013	203	-58.3	-65.2	240	12
2023-09-17T12:00	12033	202	-58.5	-65.3	241	12
2023-09-17T12:00	12053	202	-58.7	-65.4	242	11
2023-09-17T12:00	12072	201	-58.8	-65.4	243	11
2023-09-17T12:00	12094	200	-59.0	-65.6	243	11
2023-09-17T12:00	12112	200	-59.1	-65.7	244	11
2023-09-17T12:00	12134	199	-59.0	-65.9	244	10
2023-09-17T12:00	12154	198	-58.7	-66.1	245	10
2023-09-17T12:00	12173	198	-58.5	-66.6	246	10
2023-09-17T12:00	12194	197	-58.5	-67.4	248	10
2023-09-17T12:00	12219	196	-58.7	-68.1	249	10
2023-09-17T12:00	12237	196	-58.8	-68.5	251	10
2023-09-17T12:00	12256	195	-58.8	-68.6	251	10
2023-09-17T12:00	12277	195	-58.6	-68.8	251	10
2023-09-17T12:00	12298	194	-58.5	-69.4	251	11
2023-09-17T12:00	12321	193	-58.2	-70.2	251	11
2023-09-17T12:00	12341	193	-58.0	-70.8	252	11
2023-09-17T12:00	12363	192	-58.0	-71.3	252	11
2023-09-17T12:00	12384	191	-58.0	-71.6	253	12
2023-09-17T12:00	12405	191	-58.0	-71.7	254	12
2023-09-17T12:00	12428	190	-58.1	-71.8	254	12
2023-09-17T12:00	12450	189	-58.3	-71.9	255	12
2023-09-17T12:00	12472	189	-58.3	-72.0	254	13
2023-09-17T12:00	12494	188	-58.4	-72.3	254	13
2023-09-17T12:00	12515	187	-58.3	-72.6	253	13
2023-09-17T12:00	12539	187	-58.2	-72.9	251	14
2023-09-17T12:00	12564	186	-58.2	-73.3	250	14
2023-09-17T12:00	12584	185	-58.3	-73.6	249	14
2023-09-17T12:00	12607	185	-58.2	-74.0	248	14
2023-09-17T12:00	12629	184	-57.8	-74.3	249	14
2023-09-17T12:00	12653	183	-57.2	-74.5	251	13
2023-09-17T12:00	12673	183	-57.3	-75.1	254	13
2023-09-17T12:00	12698	182	-57.3	-75.5	258	12
2023-09-17T12:00	12719	181	-57.0	-75.7	262	12
2023-09-17T12:00	12739	181	-56.8	-76.1	265	12
2023-09-17T12:00	12760	180	-56.7	-76.6	267	12
2023-09-17T12:00	12781	180	-56.3	-76.7	269	13
2023-09-17T12:00	12802	179	-56.3	-76.9	270	13
2023-09-17T12:00	12823	178	-56.5	-77.1	271	13
2023-09-17T12:00	12844	178	-56.6	-77.2	273	14
2023-09-17T12:00	12865	177	-56.6	-77.2	275	14
2023-09-17T12:00	12885	177	-56.6	-77.3	278	14
2023-09-17T12:00	12907	176	-56.7	-77.5	280	14
2023-09-17T12:00	12928	176	-56.7	-77.8	282	13
2023-09-17T12:00	12948	175	-56.8	-78.3	283	13
2023-09-17T12:00	12974	174	-56.5	-78.6	283	13
2023-09-17T12:00	12994	174	-56.1	-78.9	282	12
2023-09-17T12:00	13014	173	-55.8	-79.0	281	12
2023-09-17T12:00	13035	173	-55.8	-79.4	279	12
2023-09-17T12:00	13059	172	-55.9	-79.5	277	12
2023-09-17T12:00	13078	171	-56.0	-79.8	274	13
2023-09-17T12:00	13100	171	-56.1	-79.8	272	13
2023-09-17T12:00	13121	170	-56.2	-79.9	269	13
2023-09-17T12:00	13139	170	-56.2	-80.1	268	14
2023-09-17T12:00	13163	169	-56.2	-80.3	266	15
2023-09-17T12:00	13186	169	-56.1	-80.2	266	16
2023-09-17T12:00	13204	168	-56.0	-80.4	265	16
2023-09-17T12:00	13226	167	-56.0	-80.6	263	17
2023-09-17T12:00	13249	167	-56.1	-80.7	262	17
2023-09-17T12:00	13268	166	-55.9	-80.7	260	17
2023-09-17T12:00	13289	166	-55.6	-80.8	258	17
2023-09-17T12:00	13310	165	-55.3	-80.8	258	16
2023-09-17T12:00	13329	165	-55.3	-80.8	258	16
2023-09-17T12:00	13352	164	-55.3	-80.8	259	16
2023-09-17T12:00	13372	164	-55.4	-80.8	260	15
2023-09-17T12:00	13393	163	-55.4	-80.8	261	15
2023-09-17T12:00	13415	163	-55.5	-80.9	261	15
2023-09-17T12:00	13435	162	-55.6	-81.0	262	14
2023-09-17T12:00	13455	162	-55.7	-81.1	262	14
2023-09-17T12:00	13476	161	-55.6	-81.0	262	14
2023-09-17T12:00	13498	161	-55.7	-81.1	262	14
2023-09-17T12:00	13519	160	-55.8	-81.2	262	14
2023-09-17T12:00	13538	159	-55.9	-81.2	262	14
2023-09-17T12:00	13560	159	-56.0	-81.3	262	14
2023-09-17T12:00	13578	158	-56.0	-81.3	263	14
2023-09-17T12:00	13600	158	-56.0	-81.3	263	13
2023-09-17T12:00	13623	157	-56.1	-81.4	264	13
2023-09-17T12:00	13641	157	-56.3	-81.3	264	13
2023-09-17T12:00	13664	156	-56.5	-81.5	264	13
2023-09-17T12:00	13686	156	-56.6	-81.5	263	13
2023-09-17T12:00	13708	155	-56.7	-81.6	262	13
2023-09-17T12:00	13729	155	-56.8	-81.7	261	14
2023-09-17T12:00	13750	154	-56.7	-81.6	260	14
2023-09-17T12:00	13771	154	-56.5	-81.5	260	14
2023-09-17T12:00	13791	153	-56.5	-81.5	259	14
2023-09-17T12:00	13814	153	-56.5	-81.5	258	13
2023-09-17T12:00	13834	152	-56.5	-81.5	257	13
2023-09-17T12:00	13855	152	-56.6	-81.5	256	13
2023-09-17T12:00	13879	151	-56.7	-81.6	253	12
2023-09-17T12:00	13903	151	-56.7	-81.6	250	12
2023-09-17T12:00	13920	150	-56.7	-81.6	247	12
2023-09-17T12:00	13942	150	-56.4	-81.6	243	12
2023-09-17T12:00	13961	149	-56.0	-81.6	240	12
2023-09-17T12:00	13979	149	-55.4	-81.4	238	13
2023-09-17T12:00	14005	148	-55.1	-81.4	237	13
2023-09-17T12:00	14027	148	-54.8	-81.2	235	14
2023-09-17T12:00	14047	147	-54.8	-81.5	234	14
2023-09-17T12:00	14068	147	-54.9	-81.5	232	14
2023-09-17T12:00	14090	146	-54.9	-81.3	231	14
2023-09-17T12:00	14109	146	-55.0	-81.3	230	15
2023-09-17T12:00	14132	145	-55.0	-81.3	229	15
2023-09-17T12:00	14153	145	-55.1	-81.4	230	15
2023-09-17T12:00	14175	144	-55.3	-81.6	230	16
2023-09-17T12:00	14196	144	-55.4	-81.6	231	16
2023-09-17T12:00	14217	143	-55.4	-81.6	233	16
2023-09-17T12:00	14241	143	-55.2	-81.5	234	16
2023-09-17T12:00	14262	142	-55.2	-81.5	235	17
2023-09-17T12:00	14283	142	-55.4	-81.6	236	17
2023-09-17T12:00	14301	141	-55.6	-81.8	237	17
2023-09-17T12:00	14322	141	-55.7	-81.9	238	17
2023-09-17T12:00	14344	141	-55.8	-82.0	239	17
2023-09-17T12:00	14365	140	-55.8	-82.0	240	17
2023-09-17T12:00	14387	140	-55.8	-82.0	242	17
2023-09-17T12:00	14409	139	-55.8	-82.0	244	17
2023-09-17T12:00	14433	139	-55.7	-81.9	245	17
2023-09-17T12:00	14455	138	-55.8	-82.0	246	16
2023-09-17T12:00	14478	138	-55.7	-81.9	247	16
2023-09-17T12:00	14499	137	-55.7	-81.9	247	16
2023-09-17T12:00	14520	137	-55.8	-82.0	247	15
2023-09-17T12:00	14541	136	-55.9	-82.0	247	15
2023-09-17T12:00	14567	136	-55.9	-82.0	248	15
2023-09-17T12:00	14587	135	-55.9	-81.8	248	15
2023-09-17T12:00	14611	135	-55.9	-81.8	249	14
2023-09-17T12:00	14633	134	-56.1	-81.9	250	14
2023-09-17T12:00	14656	134	-56.2	-82.0	250	15
2023-09-17T12:00	14676	133	-56.3	-82.1	250	15
2023-09-17T12:00	14702	133	-56.4	-82.1	250	15
2023-09-17T12:00	14720	132	-56.5	-82.2	250	15
2023-09-17T12:00	14745	132	-56.4	-82.1	250	15
2023-09-17T12:00	14768	131	-56.6	-82.0	251	16
2023-09-17T12:00	14793	131	-56.7	-82.1	251	16
2023-09-17T12:00	14815	130	-56.9	-82.3	252	16
2023-09-17T12:00	14838	130	-57.0	-82.3	252	17
2023-09-17T12:00	14859	130	-57.2	-82.2	253	17
2023-09-17T12:00	14882	129	-57.3	-82.3	253	18
2023-09-17T12:00	14901	129	-57.4	-82.4	254	18
2023-09-17T12:00	14923	128	-57.5	-82.5	255	18
2023-09-17T12:00	14944	128	-57.5	-82.5	255	19
2023-09-17T12:00	14965	127	-57.6	-82.6	256	19
2023-09-17T12:00	14985	127	-57.6	-82.6	257	19
2023-09-17T12:00	15006	127	-57.7	-82.6	257	19
2023-09-17T12:00	15028	126	-57.7	-82.9	258	19
2023-09-17T12:00	15049	126	-57.7	-82.9	259	19
2023-09-17T12:00	15069	125	-57.6	-82.8	260	19
2023-09-17T12:00	15090	125	-57.7	-82.9	260	18
2023-09-17T12:00	15112	124	-57.7	-82.9	260	18
2023-09-17T12:00	15132	124	-57.6	-83.1	260	18
2023-09-17T12:00	15155	124	-57.5	-83.0	260	17
2023-09-17T12:00	15177	123	-57.6	-83.1	261	17
2023-09-17T12:00	15198	123	-57.7	-83.2	261	16
2023-09-17T12:00	15220	122	-57.6	-83.1	262	16
2023-09-17T12:00	15240	122	-57.6	-83.1	263	16
2023-09-17T12:00	15260	122	-57.6	-83.1	264	16
2023-09-17T12:00	15283	121	-57.5	-83.0	263	16
2023-09-17T12:00	15303	121	-57.5	-83.0	263	16
2023-09-17T12:00	15324	120	-57.6	-83.1	261	16
2023-09-17T12:00	15343	120	-57.8	-83.2	260	16
2023-09-17T12:00	15364	120	-57.9	-83.3	259	17
2023-09-17T12:00	15385	119	-57.9	-83.3	259	17
2023-09-17T12:00	15407	119	-57.9	-83.3	260	17
2023-09-17T12:00	15428	118	-57.9	-83.6	261	17
2023-09-17T12:00	15449	118	-57.8	-83.5	263	18
2023-09-17T12:00	15471	118	-57.6	-83.3	265	18
2023-09-17T12:00	15488	117	-57.5	-83.6	266	18
2023-09-17T12:00	15508	117	-57.5	-83.6	268	18
2023-09-17T12:00	15530	117	-57.5	-83.6	269	18
2023-09-17T12:00	15548	116	-57.6	-83.6	269	18
2023-09-17T12:00	15568	116	-57.6	-83.6	269	18
2023-09-17T12:00	15591	115	-57.4	-83.5	269	17
2023-09-17T12:00	15612	115	-57.4	-83.8	268	17
2023-09-17T12:00	15632	115	-57.3	-83.7	268	16
2023-09-17T12:00	15651	114	-57.3	-83.7	269	16
2023-09-17T12:00	15675	114	-57.3	-83.7	269	15
2023-09-17T12:00	15696	113	-57.3	-83.7	270	15
2023-09-17T12:00	15714	113	-57.2	-83.9	271	15
2023-09-17T12:00	15737	113	-57.1	-83.9	272	15
2023-09-17T12:00	15760	112	-57.3	-84.0	273	14
2023-09-17T12:00	15780	112	-57.4	-83.8	274	14
2023-09-17T12:00	15799	112	-57.6	-83.9	275	14
2023-09-17T12:00	15821	111	-57.8	-84.1	276	14
2023-09-17T12:00	15844	111	-57.9	-84.2	278	14
2023-09-17T12:00	15865	110	-58.0	-83.9	279	13
2023-09-17T12:00	15887	110	-58.0	-84.2	280	13
2023-09-17T12:00	15909	110	-58.1	-84.3	280	13
2023-09-17T12:00	15927	109	-58.1	-84.3	280	12
2023-09-17T12:00	15954	109	-57.9	-84.2	278	12
2023-09-17T12:00	15974	109	-57.9	-84.2	277	12
2023-09-17T12:00	15997	108	-57.9	-84.2	276	13
2023-09-17T12:00	16021	108	-57.8	-84.1	276	13
2023-09-17T12:00	16040	107	-57.8	-84.4	275	13
2023-09-17T12:00	16063	107	-57.8	-84.4	275	13
2023-09-17T12:00	16082	107	-57.8	-84.4	275	12
2023-09-17T12:00	16104	106	-57.8	-84.4	275	12
2023-09-17T12:00	16127	106	-57.9	-84.5	275	12
2023-09-17T12:00	16147	106	-58.0	-84.6	275	12
2023-09-17T12:00	16172	105	-58.1	-84.3	275	11
2023-09-17T12:00	16191	105	-58.2	-84.4	274	11
2023-09-17T12:00	16216	104	-58.3	-84.5	273	11
2023-09-17T12:00	16238	104	-58.4	-84.6	272	11
2023-09-17T12:00	16260	104	-58.6	-84.7	269	10
2023-09-17T12:00	16284	103	-58.7	-84.8	265	10
2023-09-17T12:00	16305	103	-58.5	-84.6	262	10
2023-09-17T12:00	16327	103	-58.4	-84.6	259	10
2023-09-17T12:00	16347	102	-58.5	-84.6	257	10
2023-09-17T12:00	16369	102	-58.6	-84.7	256	10
2023-09-17T12:00	16390	102	-58.7	-84.8	256	11
2023-09-17T12:00	16413	101	-58.7	-84.8	256	11
2023-09-17T12:00	16435	101	-58.8	-85.2	258	12
2023-09-17T12:00	16454	101	-58.7	-85.1	259	12
2023-09-17T12:00	16478	100	-58.6	-85.0	261	13
2023-09-17T12:00	16501	100	-58.5	-84.9	262	14
2023-09-17T12:00	16522	100	-58.6	-85.0	263	15
2023-09-17T12:00	16547	99	-58.7	-85.1	264	15
2023-09-17T12:00	16568	99	-58.8	-85.2	265	16
2023-09-17T12:00	16590	98	-58.5	-85.3	265	16
2023-09-17T12:00	16609	98	-58.3	-85.1	266	15
2023-09-17T12:00	16633	98	-58.1	-85.3	267	15
2023-09-17T12:00	16656	97	-58.1	-85.3	268	14
2023-09-17T12:00	16681	97	-58.1	-85.3	268	14
2023-09-17T12:00	16701	97	-58.0	-85.2	269	14
2023-09-17T12:00	16725	96	-58.1	-85.3	269	13
2023-09-17T12:00	16743	96	-58.1	-85.3	268	13
2023-09-17T12:00	16765	96	-58.0	-85.6	267	13
2023-09-17T12:00	16789	95	-57.7	-85.4	265	13
2023-09-17T12:00	16814	95	-57.5	-85.2	263	12
2023-09-17T12:00	16834	95	-57.6	-85.3	261	12
2023-09-17T12:00	16858	94	-57.7	-85.4	260	12
2023-09-17T12:00	16877	94	-57.8	-85.5	259	12
2023-09-17T12:00	16901	94	-57.9	-85.5	259	12
2023-09-17T12:00	16921	93	-57.9	-85.5	260	12
2023-09-17T12:00	16946	93	-57.9	-85.5	262	13
2023-09-17T12:00	16965	93	-57.8	-85.5	264	13
2023-09-17T12:00	16986	92	-57.7	-85.8	266	14
2023-09-17T12:00	17009	92	-57.6	-85.7	267	14
2023-09-17T12:00	17032	92	-57.8	-85.9	267	14
2023-09-17T12:00	17054	91	-57.9		267	14
2023-09-17T12:00	17075	91	-57.7	-85.8	267	14
2023-09-17T12:00	17097	91	-57.6	-85.7	266	13
2023-09-17T12:00	17120	91	-57.5	-85.6	265	14
2023-09-17T12:00	17146	90	-57.4	-86.0	265	14
2023-09-17T12:00	17167	90	-57.4	-86.0	266	14
2023-09-17T12:00	17189	90	-57.3	-85.9	268	15
2023-09-17T12:00	17212	89	-57.3	-85.9	270	15
2023-09-17T12:00	17234	89	-57.2	-85.8	273	15
2023-09-17T12:00	17259	89	-57.0	-86.1	276	14
2023-09-17T12:00	17282	88	-56.7	-85.9	279	14
2023-09-17T12:00	17306	88	-56.6	-85.8	282	13
2023-09-17T12:00	17333	88	-56.5	-85.8	285	13
2023-09-17T12:00	17357	87	-56.5	-86.3	288	12
2023-09-17T12:00	17380	87	-56.5	-85.8	290	11
2023-09-17T12:00	17401	87	-56.4	-85.7	293	11
2023-09-17T12:00	17425	86	-56.4	-85.7	294	10
2023-09-17T12:00	17448	86	-56.5	-85.8	296	10
2023-09-17T12:00	17473	86	-56.4	-85.7	297	9
2023-09-17T12:00	17496	85	-56.5	-85.8	298	9
2023-09-17T12:00	17518	85	-56.6	-85.8	297	9
2023-09-17T12:00	17544	85	-56.6	-85.8	295	9
2023-09-17T12:00	17567	84	-56.8	-86.0	292	9
2023-09-17T12:00	17588	84	-56.9	-86.1	288	9
2023-09-17T12:00	17613	84	-57.1	-86.2	285	9
2023-09-17T12:00	17635	83	-57.0	-86.1	282	9
2023-09-17T12:00	17657	83	-56.9	-86.1	281	9
2023-09-17T12:00	17681	83	-56.9	-86.1	281	10
2023-09-17T12:00	17704	83	-56.9	-86.1	281	10
2023-09-17T12:00	17727	82	-56.9	-86.6	282	10
2023-09-17T12:00	17745	82	-56.8	-86.5	282	10
2023-09-17T12:00	17770	82	-56.8	-86.5	282	10
2023-09-17T12:00	17791	81	-56.8	-86.5	280	10
2023-09-17T12:00	17814	81	-56.9	-86.6	277	10
2023-09-17T12:00	17837	81	-57.0	-86.6	274	10
2023-09-17T12:00	17859	81	-56.8	-86.5	271	10
2023-09-17T12:00	17876	80	-56.7	-86.4	268	11
2023-09-17T12:00	17898	80	-56.8	-86.5	267	11
2023-09-17T12:00	17921	80	-57.0	-86.6	266	11
2023-09-17T12:00	17942	79	-57.0	-86.6	266	11
2023-09-17T12:00	17967	79	-57.1	-86.7	266	11
2023-09-17T12:00	17990	79	-57.1	-86.7	266	11
2023-09-17T12:00	18012	79	-57.0	-86.6	267	12
2023-09-17T12:00	18036	78	-57.0	-86.6	268	12
2023-09-17T12:00	18057	78	-57.0	-86.6	269	12
2023-09-17T12:00	18078	78	-56.8	-86.5	270	12
2023-09-17T12:00	18101	78	-56.7	-86.4	271	12
2023-09-17T12:00	18124	77	-56.6	-86.9	272	12
2023-09-17T12:00	18146	77	-56.5	-86.8	273	12
2023-09-17T12:00	18169	77	-56.3	-86.6	274	12
2023-09-17T12:00	18196	76	-56.2	-86.6	275	12
2023-09-17T12:00	18217	76	-56.1	-86.5	275	12
2023-09-17T12:00	18240	76	-56.0	-86.4	276	12
2023-09-17T12:00	18265	76	-56.0	-86.4	277	11
2023-09-17T12:00	18287	75	-55.9	-86.3	276	11
2023-09-17T12:00	18307	75	-56.0	-86.4	275	11
2023-09-17T12:00	18330	75	-56.1	-86.5	273	10
2023-09-17T12:00	18357	74	-56.2	-86.6	270	10
2023-09-17T12:00	18384	74	-56.3	-86.6	266	10
2023-09-17T12:00	18403	74	-56.4		262	10
2023-09-17T12:00	18429	74	-56.3	-86.6	258	10
2023-09-17T12:00	18447	73	-56.2	-86.6	255	10
2023-09-17T12:00	18469	73	-56.2	-86.6	253	10
2023-09-17T12:00	18497	73	-56.2	-86.6	252	10
2023-09-17T12:00	18519	73	-56.1	-86.5	251	10
2023-09-17T12:00	18547	72	-56.2	-86.6	251	11
2023-09-17T12:00	18567	72	-56.4		251	11
2023-09-17T12:00	18594	72	-56.5	-86.8	251	12
2023-09-17T12:00	18614	72	-56.6	-86.3	252	13
2023-09-17T12:00	18640	71	-56.8	-86.5	251	13
2023-09-17T12:00	18667	71	-57.0	-86.6	251	14
2023-09-17T12:00	18690	71	-57.2	-86.8	251	14
2023-09-17T12:00	18712	70	-57.2	-86.8	251	15
2023-09-17T12:00	18739	70	-57.3	-86.9	252	15
2023-09-17T12:00	18757	70	-57.2	-86.8	254	15
2023-09-17T12:00	18785	70	-57.0	-86.6	256	15
2023-09-17T12:00	18809	69	-57.1	-86.7	257	15
2023-09-17T12:00	18832	69	-57.2	-86.8	259	16
2023-09-17T12:00	18855	69	-57.3	-86.9	261	16
2023-09-17T12:00	18877	69	-57.5	-87.0	263	16
2023-09-17T12:00	18901	68	-57.5	-87.0	264	16
2023-09-17T12:00	18924	68	-57.5	-87.0	266	15
2023-09-17T12:00	18950	68	-57.6	-87.1	266	15
2023-09-17T12:00	18974	68	-57.5	-87.0	266	15
2023-09-17T12:00	18998	67	-57.5	-87.0	265	15
2023-09-17T12:00	19019	67	-57.3	-87.4	264	14
2023-09-17T12:00	19041	67	-57.2	-87.3	263	14
2023-09-17T12:00	19067	67	-57.2	-87.3	263	14
2023-09-17T12:00	19090	66	-57.2	-87.3	264	14
2023-09-17T12:00	19114	66	-57.1	-87.2	265	14
2023-09-17T12:00	19139	66	-56.9	-87.1	267	14
2023-09-17T12:00	19163	66	-56.7	-86.9	268	14
2023-09-17T12:00	19187	65	-56.8	-87.0	269	13
2023-09-17T12:00	19208	65	-56.9	-87.1	270	13
2023-09-17T12:00	19234	65	-56.9	-87.1	271	13
2023-09-17T12:00	19262	65	-56.9	-87.1	273	13
2023-09-17T12:00	19278	64	-56.9	-87.1	274	12
2023-09-17T12:00	19304	64	-56.9	-87.1	276	12
2023-09-17T12:00	19334	64	-56.9	-87.1	278	12
2023-09-17T12:00	19357	64	-56.8	-87.0	280	12
2023-09-17T12:00	19380	63	-56.8	-87.0	281	11
2023-09-17T12:00	19400	63	-56.8	-87.0	282	11
2023-09-17T12:00	19425	63	-56.9	-87.1	282	11
2023-09-17T12:00	19448	63	-56.9	-87.1	281	11
2023-09-17T12:00	19474	62	-56.7	-86.9	280	11
2023-09-17T12:00	19493	62	-56.4	-87.3	279	10
2023-09-17T12:00	19516	62	-56.4	-87.3	278	10
2023-09-17T12:00	19545	62	-56.4	-87.3	277	10
2023-09-17T12:00	19564	62	-56.3	-87.2	276	10
2023-09-17T12:00	19590	61	-56.3	-87.2	275	10
2023-09-17T12:00	19616	61	-56.2	-87.2	274	9
2023-09-17T12:00	19638	61	-56.2	-87.2	272	9
2023-09-17T12:00	19656	61	-56.4		271	9
2023-09-17T12:00	19685	60	-56.6	-86.9	270	9
2023-09-17T12:00	19706	60	-56.4		270	8
2023-09-17T12:00	19729	60	-56.2	-86.6	270	8
2023-09-17T12:00	19754	60	-56.1	-87.1	270	8
2023-09-17T12:00	19774	60	-56.2	-86.6	271	9
2023-09-17T12:00	19795	59	-56.4		271	9
2023-09-17T12:00	19821	59	-56.5	-86.8	271	9
2023-09-17T12:00	19844	59	-56.7	-86.9	271	8
2023-09-17T12:00	19868	59	-56.8	-87.0	271	8
2023-09-17T12:00	19887	58	-56.8	-87.0	270	7
2023-09-17T12:00	19911	58	-56.8	-87.0	268	7
2023-09-17T12:00	19936	58	-56.8	-87.0	264	6
2023-09-17T12:00	19957	58	-56.7	-86.9	259	6
2023-09-17T12:00	19980	58	-56.7	-86.9	254	6
2023-09-17T12:00	20006	57	-56.8	-87.0	249	6
2023-09-17T12:00	20025	57	-56.9	-87.1	246	5
2023-09-17T12:00	20046	57	-56.8	-87.0	245	5
2023-09-17T12:00	20073	57	-56.8	-87.0	245	5
2023-09-17T12:00	20095	57	-56.8	-87.6	246	5
2023-09-17T12:00	20114	56	-56.5	-87.4	246	5
2023-09-17T12:00	20141	56	-56.1	-87.1	245	6
2023-09-17T12:00	20164	56	-55.9	-86.9	243	6
2023-09-17T12:00	20187	56	-56.1	-87.1	240	6
2023-09-17T12:00	20210	56	-56.3	-87.2	238	6
2023-09-17T12:00	20241	55	-56.3	-87.2	236	6
2023-09-17T12:00	20260	55	-56.3	-87.2	235	7
2023-09-17T12:00	20285	55	-56.3	-87.2	235	7
2023-09-17T12:00	20312	55	-56.3	-86.6	236	7
2023-09-17T12:00	20336	55	-56.4		240	7
2023-09-17T12:00	20359	54	-56.4		244	8
2023-09-17T12:00	20383	54	-56.6	-86.9	250	8
2023-09-17T12:00	20412	54	-56.8	-87.0	255	9
2023-09-17T12:00	20431	54	-56.8	-87.0	260	9
2023-09-17T12:00	20459	53	-56.8	-87.0	263	9
2023-09-17T12:00	20485	53	-56.9	-87.1	264	10
2023-09-17T12:00	20506	53	-56.9	-87.1	265	10
2023-09-17T12:00	20528	53	-56.7	-86.9	264	10
2023-09-17T12:00	20559	53	-56.6	-87.5	264	9
2023-09-17T12:00	20579	52	-56.5	-87.4	263	9
2023-09-17T12:00	20603	52	-56.6	-87.5	261	8
2023-09-17T12:00	20630	52	-56.7	-87.5	260	8
2023-09-17T12:00	20655	52	-56.6	-86.9	258	8
2023-09-17T12:00	20678	52	-56.7	-86.9	255	7
2023-09-17T12:00	20700	51	-56.8	-87.0	252	7
2023-09-17T12:00	20728	51	-57.0	-87.2	248	7
2023-09-17T12:00	20751	51	-57.1	-87.2	244	8
2023-09-17T12:00	20774	51	-57.2	-86.8	241	8
2023-09-17T12:00	20799	51	-57.3	-86.9	237	8
2023-09-17T12:00	20824	50	-57.4	-86.9	234	8
2023-09-17T12:00	20849	50	-57.6	-87.1	231	9
2023-09-17T12:00	20871	50	-57.8	-87.2	229	9
2023-09-17T12:00	20899	50	-57.9	-87.3	229	10
2023-09-17T12:00	20924	50	-58.0	-87.4	230	10
2023-09-17T12:00	20946	50	-58.0	-87.4	232	10
2023-09-17T12:00	20971	49	-57.8	-87.8	234	10
2023-09-17T12:00	20997	49	-57.7	-87.7	237	10
2023-09-17T12:00	21021	49	-57.7	-87.7	241	10
2023-09-17T12:00	21049	49	-57.9	-87.8	245	11
2023-09-17T12:00	21071	49	-58.0	-87.9	249	11
2023-09-17T12:00	21093	48	-57.9	-87.8	253	11
2023-09-17T12:00	21116	48	-57.9	-87.3	257	11
2023-09-17T12:00	21143	48	-57.9	-87.3	261	12
2023-09-17T12:00	21169	48	-58.1	-88.0	264	12
2023-09-17T12:00	21191	48	-58.2	-88.1	268	12
2023-09-17T12:00	21217	47	-58.0	-87.9	270	12
2023-09-17T12:00	21242	47	-57.8	-87.8	273	12
2023-09-17T12:00	21265	47	-57.7	-87.7	275	11
2023-09-17T12:00	21289	47	-57.5	-88.1	277	11
2023-09-17T12:00	21313	47	-57.2	-87.9	277	10
2023-09-17T12:00	21340	47	-56.8	-87.6	276	10
2023-09-17T12:00	21361	46	-56.8	-87.6	274	9
2023-09-17T12:00	21386	46	-56.9	-87.7	271	9
2023-09-17T12:00	21413	46	-57.0	-87.8	267	10
2023-09-17T12:00	21435	46	-56.9	-87.7	262	10
2023-09-17T12:00	21456	46	-56.8	-87.6	259	10
2023-09-17T12:00	21482	45	-56.6	-87.5	256	11
2023-09-17T12:00	21505	45	-56.3	-87.2	255	11
2023-09-17T12:00	21533	45	-56.1	-87.8	255	11
2023-09-17T12:00	21553	45	-55.9	-87.6	256	12
2023-09-17T12:00	21576	45	-55.7	-87.5	257	12
2023-09-17T12:00	21602	45	-55.7	-87.5	260	12
2023-09-17T12:00	21629	44	-55.7	-87.5	263	12
2023-09-17T12:00	21653	44	-55.7	-86.8	265	12
2023-09-17T12:00	21680	44	-55.7	-86.8	268	12
2023-09-17T12:00	21702	44	-55.8	-86.9	270	12
2023-09-17T12:00	21729	44	-55.7	-86.8	271	12
2023-09-17T12:00	21752	44	-55.8	-86.9	272	12
2023-09-17T12:00	21773	43	-56.0	-87.0	272	12
2023-09-17T12:00	21805	43	-55.8	-86.9	273	12
2023-09-17T12:00	21831	43	-55.7	-86.8	274	12
2023-09-17T12:00	21854	43	-55.9	-86.9	275	12
2023-09-17T12:00	21881	43	-55.7	-86.8	276	12
2023-09-17T12:00	21899	43	-55.5	-87.3	278	11
2023-09-17T12:00	21930	42	-55.5	-87.3	280	11
2023-09-17T12:00	21955	42	-55.6	-86.7	281	10
2023-09-17T12:00	21979	42	-55.7	-86.8	283	10
2023-09-17T12:00	22001	42	-55.7	-86.8	284	9
2023-09-17T12:00	22031	42	-55.8	-86.9	286	8
2023-09-17T12:00	22049	42	-55.9	-86.9	289	8
2023-09-17T12:00	22077	41	-55.9	-86.9	294	7
2023-09-17T12:00	22109	41	-56.0	-87.0	299	7
2023-09-17T12:00	22132	41	-56.0	-87.0	304	6
2023-09-17T12:00	22157	41	-56.1	-87.1	308	6
2023-09-17T12:00	22183	41	-56.1	-87.1	311	6
2023-09-17T12:00	22209	41	-56.1	-87.1	311	5
2023-09-17T12:00	22230	40	-56.1	-87.1	308	5
2023-09-17T12:00	22260	40	-56.2	-87.2	303	5
2023-09-17T12:00	22289	40	-56.3	-87.2	296	5
2023-09-17T12:00	22314	40	-56.5	-86.8	289	5
2023-09-17T12:00	22338	40	-56.7	-86.9	283	6
2023-09-17T12:00	22370	40	-56.9	-87.1	278	6
2023-09-17T12:00	22397	39	-56.9	-87.1	276	6
2023-09-17T12:00	22414	39	-56.8	-87.6	275	7
2023-09-17T12:00	22441	39	-56.9	-87.7	275	7
2023-09-17T12:00	22471	39	-56.9	-87.7	276	7
2023-09-17T12:00	22488	39	-56.8	-87.6	277	6
2023-09-17T12:00	22519	39	-56.6	-87.5	278	6
2023-09-17T12:00	22546	38	-56.6	-87.5	279	6
2023-09-17T12:00	22575	38	-56.5	-87.4	278	5
2023-09-17T12:00	22599	38	-56.5	-87.4	277	5
2023-09-17T12:00	22628	38	-56.6	-87.5	275	5
2023-09-17T12:00	22649	38	-56.7	-87.5	273	5
2023-09-17T12:00	22677	38	-56.8	-87.6	272	5
2023-09-17T12:00	22702	38	-56.8	-87.6	273	5
2023-09-17T12:00	22731	37	-56.8	-87.6	275	5
2023-09-17T12:00	22756	37	-56.8	-87.6	276	6
2023-09-17T12:00	22780	37	-56.8	-87.6	278	6
2023-09-17T12:00	22811	37	-56.8	-87.6	280	6
2023-09-17T12:00	22834	37	-56.9	-87.1	281	7
2023-09-17T12:00	22860	37	-57.0	-87.2	281	7
2023-09-17T12:00	22891	36	-57.2	-87.3	280	7
2023-09-17T12:00	22915	36	-57.3	-87.4	278	7
2023-09-17T12:00	22942	36	-57.4	-87.5	275	7
2023-09-17T12:00	22973	36	-57.5	-87.5	271	7
2023-09-17T12:00	22994	36	-57.5	-87.5	267	7
2023-09-17T12:00	23022	36	-57.5	-87.5	264	7
2023-09-17T12:00	23049	36	-57.5	-87.5	264	7
2023-09-17T12:00	23073	35	-57.6	-87.6	265	7
2023-09-17T12:00	23107	35	-57.4	-88.1	268	7
2023-09-17T12:00	23131	35	-57.3	-88.0	272	7
2023-09-17T12:00	23156	35	-57.3	-88.0	276	7
2023-09-17T12:00	23185	35	-57.4	-88.1	280	7
2023-09-17T12:00	23214	35	-57.4	-88.1	283	7
2023-09-17T12:00	23235	34	-57.4	-88.1	287	7
2023-09-17T12:00	23267	34	-57.5	-88.1	290	7
2023-09-17T12:00	23292	34	-57.4	-87.5	293	7
2023-09-17T12:00	23316	34	-57.5	-87.5	296	8
2023-09-17T12:00	23342	34	-57.6	-87.6	298	8
2023-09-17T12:00	23371	34	-57.5	-87.5	299	8
2023-09-17T12:00	23391	34	-57.5	-87.5	299	7
2023-09-17T12:00	23421	33	-57.6	-87.6	298	7
2023-09-17T12:00	23451	33	-57.7	-87.7	295	7
2023-09-17T12:00	23483	33	-57.7	-87.7	290	6
2023-09-17T12:00	23508	33	-57.5	-88.1	282	6
2023-09-17T12:00	23533	33	-57.5	-88.1	273	5
2023-09-17T12:00	23561	33	-57.5	-88.1	264	5
2023-09-17T12:00	23587	33	-57.4	-88.1	258	5
2023-09-17T12:00	23616	32	-56.9	-87.7	256	6
2023-09-17T12:00	23641	32	-56.6	-88.1	256	6
2023-09-17T12:00	23667	32	-56.5	-88.1	257	6
2023-09-17T12:00	23708	32	-56.5	-88.1	259	7
2023-09-17T12:00	23726	32	-56.5	-88.1	260	7
2023-09-17T12:00	23751	32	-56.5	-87.4	261	7
2023-09-17T12:00	23776	32	-56.5	-87.4	262	7
2023-09-17T12:00	23801	32	-56.5	-87.4	263	7
2023-09-17T12:00	23830	31	-56.5	-87.4	264	7
2023-09-17T12:00	23855	31	-56.7	-87.5	266	7
2023-09-17T12:00	23881	31	-56.7	-87.5	267	7
2023-09-17T12:00	23904	31	-56.7	-87.5	268	7
2023-09-17T12:00	23933	31	-56.7	-87.5	268	7
2023-09-17T12:00	23959	31	-56.7	-87.5	268	7
2023-09-17T12:00	23991	31	-56.7	-87.5	267	7
2023-09-17T12:00	24018	31	-56.8	-87.6	265	7
2023-09-17T12:00	24043	30	-56.7	-87.5	261	7
2023-09-17T12:00	24067	30	-56.5	-88.1	258	7
2023-09-17T12:00	24089	30	-56.1	-87.8	255	7
2023-09-17T12:00	24125	30	-56.0	-87.7	254	7
2023-09-17T12:00	24152	30	-55.9	-87.6	255	7
2023-09-17T12:00	24173	30	-55.8	-87.5	258	7
2023-09-17T12:00	24200	30	-55.7	-87.5	262	8
2023-09-17T12:00	24231	29	-55.6	-87.4	265	8
2023-09-17T12:00	24261	29	-55.6	-87.4	266	8
2023-09-17T12:00	24294	29	-55.5	-87.3	266	8
2023-09-17T12:00	24307	29	-55.5	-87.3	265	9
2023-09-17T12:00	24338	29	-55.5	-87.3	262	9
2023-09-17T12:00	24370	29	-55.6	-87.4	259	9
2023-09-17T12:00	24393	29	-55.6	-87.4	255	9
2023-09-17T12:00	24428	29	-55.3	-87.2	252	10
2023-09-17T12:00	24453	28	-55.0	-87.7	250	10
2023-09-17T12:00	24474	28	-54.9	-87.6	250	10
2023-09-17T12:00	24512	28	-54.8	-87.6	252	10
2023-09-17T12:00	24535	28	-54.5	-87.3	255	10
2023-09-17T12:00	24561	28	-54.5	-87.3	260	10
2023-09-17T12:00	24596	28	-54.4	-87.3	265	10
2023-09-17T12:00	24629	28	-54.4	-87.3	271	10
2023-09-17T12:00	24655	28	-54.5	-87.3	276	10
2023-09-17T12:00	24687	27	-54.4	-87.3	282	10
2023-09-17T12:00	24711	27	-54.4	-87.3	286	10
2023-09-17T12:00	24737	27	-54.4	-87.3	290	10
2023-09-17T12:00	24767	27	-54.3	-87.2	293	10
2023-09-17T12:00	24791	27	-54.3	-87.2	295	10
2023-09-17T12:00	24821	27	-54.3	-87.2	297	9
2023-09-17T12:00	24845	27	-54.3	-87.2	298	9
2023-09-17T12:00	24871	27	-54.3	-87.2	298	9
2023-09-17T12:00	24896	27	-54.4	-87.3	298	9
2023-09-17T12:00	24931	26	-54.2	-87.1	296	9
2023-09-17T12:00	24961	26	-54.0	-87.0	295	9
2023-09-17T12:00	24976	26	-54.0	-87.0	295	9
2023-09-17T12:00	25018	26	-54.0	-87.0	296	9
2023-09-17T12:00	25045	26	-54.0	-87.0	297	9
2023-09-17T12:00	25064	26	-54.0	-87.0	299	9
2023-09-17T12:00	25089	26	-54.0	-87.0	301	9
2023-09-17T12:00	25124	26	-54.0	-87.0	302	8
2023-09-17T12:00	25152	26	-54.0	-87.0	302	8
2023-09-17T12:00	25179	25	-54.1	-87.1	299	8
2023-09-17T12:00	25202	25	-54.1	-87.1	294	7
2023-09-17T12:00	25233	25	-54.1	-87.1	288	7
2023-09-17T12:00	25258	25	-54.2	-87.1	281	7
2023-09-17T12:00	25290	25	-54.3	-87.2	277	7
2023-09-17T12:00	25310	25	-54.2	-87.1	274	8
2023-09-17T12:00	25332	25	-54.1	-87.1	274	9
2023-09-17T12:00	25359	25	-54.0	-87.0	276	9
2023-09-17T12:00	25392	25	-53.8	-86.8	278	10
2023-09-17T12:00	25425	24	-53.7	-86.8	281	10
2023-09-17T12:00	25444	24	-53.6	-86.7	283	10
2023-09-17T12:00	25472	24	-53.5	-86.6	286	10
2023-09-17T12:00	25496	24	-53.4	-86.5	289	10
2023-09-17T12:00	25528	24	-53.5	-86.6	292	11
2023-09-17T12:00	25559	24	-53.6	-86.7	296	11
2023-09-17T12:00	25593	24	-53.9	-86.9	299	11
2023-09-17T12:00	25613	24	-54.0	-86.2	303	11
2023-09-17T12:00	25648	24	-54.2	-86.4	306	11
2023-09-17T12:00	25674	24	-54.4	-86.5	308	11
2023-09-17T12:00	25695	23	-54.6	-86.7	310	11
2023-09-17T12:00	25726	23	-54.8	-86.8	311	10
2023-09-17T12:00	25764	23	-55.1	-87.0	312	10
2023-09-17T12:00	25790	23	-55.2	-87.1	312	9
2023-09-17T12:00	25815	23	-55.4	-87.2	311	9
2023-09-17T12:00	25833	23	-55.4	-87.2	309	8
2023-09-17T12:00	25870	23	-55.3	-87.2	307	8
2023-09-17T12:00	25891	23	-55.2	-87.1	304	8
2023-09-17T12:00	25930	23	-55.1	-87.0	301	7
2023-09-17T12:00	25961	23	-55.1	-87.0	299	7
2023-09-17T12:00	25983	22	-55.1	-87.0	297	6
2023-09-17T12:00	26011	22	-55.1	-87.8	295	6
2023-09-17T12:00	26045	22	-55.0	-87.7	292	5
2023-09-17T12:00	26065	22	-54.8	-87.6	289	5
2023-09-17T12:00	26095	22	-54.6	-87.4	286	5
2023-09-17T12:00	26128	22	-54.4	-87.3	283	5
2023-09-17T12:00	26147	22	-54.2	-87.1	282	5
2023-09-17T12:00	26179	22	-53.9	-87.8	282	6
2023-09-17T12:00	26215	22	-53.7	-87.6	284	6
2023-09-17T12:00	26236	22	-53.5	-87.5	286	6
2023-09-17T12:00	26276	21	-53.3	-87.3	288	6
2023-09-17T12:00	26304	21	-53.2	-87.3	290	6
2023-09-17T12:00	26328	21	-53.0	-87.1	292	6
2023-09-17T12:00	26352	21	-52.8	-87.0	293	6
2023-09-17T12:00	26381	21	-52.7	-86.9	294	6
2023-09-17T12:00	26416	21	-52.7	-86.9	294	6
2023-09-17T12:00	26442	21	-52.8	-87.0	294	6
2023-09-17T12:00	26474	21	-52.7	-86.9	294	6
2023-09-17T12:00	26501	21	-52.7	-86.9	295	6
2023-09-17T12:00	26526	21	-52.7	-86.9	296	6
2023-09-17T12:00	26559	21	-52.6		298	6
2023-09-17T12:00	26585	20	-52.6		298	6
2023-09-17T12:00	26623	20	-52.7	-86.0	298	5
2023-09-17T12:00	26649	20	-52.9	-86.2	296	5
2023-09-17T12:00	26673	20	-53.1	-86.3	291	5
2023-09-17T12:00	26706	20	-53.1	-86.3	286	5
2023-09-17T12:00	26740	20	-52.8	-87.0	283	5
2023-09-17T12:00	26765	20	-52.3	-86.6	281	6
2023-09-17T12:00	26778	20	-52.1	-86.5	282	6
2023-09-17T12:00	26814	20	-52.0	-86.4	282	6
2023-09-17T12:00	26840	20	-51.7	-86.2	283	6
2023-09-17T12:00	26870	20	-51.5	-86.1	282	6
2023-09-17T12:00	26900	19	-51.4	-86.0	282	5
2023-09-17T12:00	26936	19	-51.3	-85.9	281	5
2023-09-17T12:00	26965	19	-51.4	-86.0	281	5
2023-09-17T12:00	26989	19	-51.3	-85.9	282	4
2023-09-17T12:00	27019	19	-51.2	-85.8	285	4
2023-09-17T12:00	27051	19	-51.0	-85.7	287	4
2023-09-17T12:00	27081	19	-50.9	-85.6	290	5
2023-09-17T12:00	27107	19	-51.0	-85.7	292	5
2023-09-17T12:00	27142	19	-51.0	-85.7	294	6
2023-09-17T12:00	27157	19	-51.0	-85.7	296	6
2023-09-17T12:00	27191	19	-50.9	-85.6	297	6
2023-09-17T12:00	27211	19	-50.8	-85.6	297	6
2023-09-17T12:00	27239	18	-50.7	-85.5	298	6
2023-09-17T12:00	27268	18	-50.6	-85.4	298	6
2023-09-17T12:00	27310	18	-50.6	-85.4	298	6
2023-09-17T12:00	27327	18	-50.6	-85.4	299	7
2023-09-17T12:00	27350	18	-50.6	-85.4	300	7
2023-09-17T12:00	27386	18	-50.6	-85.4	301	7
2023-09-17T12:00	27397	18	-50.7	-85.5	303	7
2023-09-17T12:00	27433	18	-50.7	-85.5	305	6
2023-09-17T12:00	27463	18	-50.8	-85.6	308	6
2023-09-17T12:00	27500	18	-50.9	-85.6	311	5
2023-09-17T12:00	27530	18	-51.0	-85.7	314	5
2023-09-17T12:00	27548	18	-51.2	-85.8	316	5
2023-09-17T12:00	27576	18	-51.1	-85.8	316	5
2023-09-17T12:00	27597	17	-50.9	-85.6	316	5
2023-09-17T12:00	27630	17	-50.6	-85.4	314	5
2023-09-17T12:00	27651	17	-50.3	-86.2	314	6
2023-09-17T12:00	27669	17	-50.2	-86.2	315	6
2023-09-17T12:00	27713	17	-50.1	-86.1	317	6
2023-09-17T12:00	27742	17	-50.0	-86.0	321	6
2023-09-17T12:00	27765	17	-50.0	-86.0	325	7
2023-09-17T12:00	27798	17	-50.0	-86.0	329	7
2023-09-17T12:00	27834	17	-50.0	-85.0	332	8
2023-09-17T12:00	27854	17	-50.1	-85.1	335	9
2023-09-17T12:00	27891	17	-50.2	-85.1	337	9
2023-09-17T12:00	27909	17	-50.4	-85.3	338	9
2023-09-17T12:00	27931	17	-50.5	-85.3	339	9
2023-09-17T12:00	27978	17	-50.5	-85.3	340	8
2023-09-17T12:00	28011	16	-50.5	-85.3	341	7
2023-09-17T12:00	28025	16	-50.4	-85.3	342	6
2023-09-17T12:00	28067	16	-50.3	-85.2	343	6
2023-09-17T12:00	28080	16	-50.2	-85.1	345	5
2023-09-17T12:00	28118	16	-50.2	-85.1	345	4
2023-09-17T12:00	28133	16	-50.2	-85.1	344	4
2023-09-17T12:00	28167	16	-50.2	-85.1	341	3
2023-09-17T12:00	28190	16	-50.3	-85.2	335	2
2023-09-17T12:00	28225	16	-50.4	-85.3	322	2
2023-09-17T12:00	28260	16	-50.6	-85.4	301	2
2023-09-17T12:00	28290	16	-50.6	-86.5	284	2
2023-09-17T12:00	28316	16	-50.2	-86.2	275	3
2023-09-17T12:00	28350	16	-49.6	-85.8	271	3
2023-09-17T12:00	28370	16	-49.1	-85.4	270	4
2023-09-17T12:00	28410	15	-48.8	-85.2	269	4
2023-09-17T12:00	28426	15	-48.7	-85.1	269	5
2023-09-17T12:00	28459	15	-48.6	-85.0	269	5
2023-09-17T12:00	28487	15	-48.6	-85.0	271	6
2023-09-17T12:00	28505	15	-48.7	-85.1	273	7
2023-09-17T12:00	28530	15	-48.7	-85.1	277	7
2023-09-17T12:00	28557	15	-48.4	-84.9	280	8
2023-09-17T12:00	28591	15	-48.3	-84.8	282	8
2023-09-17T12:00	28627	15	-48.3	-84.8	283	8
2023-09-17T12:00	28662	15	-48.3	-84.8	282	8
2023-09-17T12:00	28677	15	-48.3	-84.8	279	8
2023-09-17T12:00	28709	15	-48.3	-84.8	276	8
2023-09-17T12:00	28736	15	-48.3	-84.8	273	8
2023-09-17T12:00	28748	15	-48.2	-84.8	269	8
2023-09-17T12:00	28798	15	-48.1	-84.7	266	8
2023-09-17T12:00	28816	15	-48.1	-84.7	262	9
2023-09-17T12:00	28857	14	-48.0	-84.6	259	9
2023-09-17T12:00	28885	14	-48.0	-84.6	257	10
2023-09-17T12:00	28888	14	-47.8	-84.5	256	11
2023-09-17T12:00	28936	14	-47.6	-84.3	256	12
2023-09-17T12:00	28961	14	-47.5	-84.3	257	12
2023-09-17T12:00	28990	14	-47.4	-84.2	259	13
2023-09-17T12:00	29028	14	-47.2	-84.1	262	14
2023-09-17T12:00	29032	14	-47.1	-84.0	264	14
2023-09-17T12:00	29088	14	-47.0	-83.9	265	14
2023-09-17T12:00	29109	14	-47.0	-83.9	265	14
2023-09-17T12:00	29137	14	-47.0	-83.9	265	14
2023-09-17T12:00	29167	14	-46.8	-83.8	263	14
2023-09-17T12:00	29192	14	-46.7	-83.7	261	13
2023-09-17T12:00	29219	14	-46.5	-83.6	260	13
2023-09-17T12:00	29253	14	-46.5	-83.6	260	13
2023-09-17T12:00	29275	14	-46.4	-83.5	260	13
2023-09-17T12:00	29305	14	-46.4	-83.5	260	12
2023-09-17T12:00	29329	13	-46.4	-83.5	261	12
2023-09-17T12:00	29338	13	-46.4	-83.5	261	12
2023-09-17T12:00	29371	13	-46.3	-83.4	261	12
2023-09-17T12:00	29421	13	-46.1	-83.3	261	12
2023-09-17T12:00	29440	13	-46.0	-83.2	260	12
2023-09-17T12:00	29452	13	-45.8	-83.1	260	12
2023-09-17T12:00	29501	13	-45.8	-83.1	262	12
2023-09-17T12:00	29532	13	-45.7	-83.0	264	12
2023-09-17T12:00	29548	13	-45.6	-82.9	268	12
2023-09-17T12:00	29578	13	-45.5	-82.9	271	13
2023-09-17T12:00	29635	13	-45.6	-82.9	274	13
2023-09-17T12:00	29656	13	-45.6	-82.9	277	14
2023-09-17T12:00	29671	13	-45.6	-82.9	278	15
2023-09-17T12:00	29700	13	-45.6	-82.9	280	15
2023-09-17T12:00	29728	13	-45.7	-83.0	281	16
2023-09-17T12:00	29764	13	-45.8	-83.1	281	16
2023-09-17T12:00	29792	13	-45.9	-83.2	282	15
2023-09-17T12:00	29830	12	-45.8	-83.1	282	15
2023-09-17T12:00	29865	12	-45.7	-83.0	281	15
2023-09-17T12:00	29894	12	-45.7	-83.0	280	14
2023-09-17T12:00	29924	12	-45.7	-83.0	280	14
2023-09-17T12:00	29970	12	-45.6	-82.9	279	13
2023-09-17T12:00	29987	12	-45.4	-82.8	279	13
2023-09-17T12:00	30015	12	-45.3	-82.7	279	12
2023-09-17T12:00	30047	12	-45.3	-82.7	279	12
2023-09-17T12:00	30078	12	-45.5	-82.9	279	11
2023-09-17T12:00	30105	12	-45.7	-83.0	280	11
2023-09-17T12:00	30147	12	-45.8	-83.1	281	11
2023-09-17T12:00	30189	12	-45.9	-83.2	281	10
2023-09-17T12:00	30227	12	-46.2	-83.4	281	9
2023-09-17T12:00	30253	12	-46.2	-83.4	282	9
2023-09-17T12:00	30270	12	-46.3	-83.4	282	8
2023-09-17T12:00	30297	12	-46.4	-83.5	283	7
2023-09-17T12:00	30328	12	-46.6	-83.6	282	7
2023-09-17T12:00	30376	12	-46.7	-83.7	281	7
2023-09-17T12:00	30399	11	-46.8	-83.8	278	7
2023-09-17T12:00	30435	11	-46.7	-83.7	275	7
2023-09-17T12:00	30464	11	-46.6	-83.6	272	7
2023-09-17T12:00	30491	11	-46.6	-83.6	270	8
2023-09-17T12:00	30523	11	-46.3	-83.4	268	8
2023-09-17T12:00	30532	11	-46.0	-83.2	266	8
2023-09-17T12:00	30585	11	-45.9	-83.2	265	8
2023-09-17T12:00	30614	11	-46.0	-83.2	264	9
2023-09-17T12:00	30646	11	-46.0	-83.2	264	9
2023-09-17T12:00	30672	11	-46.0	-83.2	263	9
2023-09-17T12:00	30700	11	-45.8	-83.1	263	9
2023-09-17T12:00	30750	11	-45.5	-82.9	263	10
2023-09-17T12:00	30786	11	-45.2	-82.7	263	10
2023-09-17T12:00	30793	11	-44.8	-82.4	264	9
2023-09-17T12:00	30829	11	-44.8	-82.4	263	9
2023-09-17T12:00	30860	11	-44.8	-82.4	262	9
2023-09-17T12:00	30883	11	-44.7	-82.3	261	9
2023-09-17T12:00	30916	11	-44.6	-82.2	259	10
2023-09-17T12:00	30931	11	-44.4	-82.1	258	10
2023-09-17T12:00	30959	11	-44.3	-82.0	258	11
2023-09-17T12:00	30989	10	-44.2	-82.0	258	12
2023-09-17T12:00	30998	10	-44.0	-81.8	258	12
2023-09-17T12:00	31058	10	-43.7	-81.6	260	13
2023-09-17T12:00	31063	10	-43.6	-81.5	261	14
2023-09-17T12:00	31099	10	-43.5	-81.5	262	14
2023-09-17T12:00	31119	10	-43.3	-81.3	264	14
2023-09-17T12:00	31146	10	-43.2	-81.3	265	14
2023-09-17T12:00	31180	10	-43.0	-81.1	266	13
2023-09-17T12:00	31200	10	-42.8	-81.0	267	13
2023-09-17T12:00	31235	10	-42.7	-80.9	268	12
2023-09-17T12:00	31258	10	-42.5	-80.8	269	12
2023-09-17T12:00	31280	10	-42.3	-80.6	270	11
2023-09-17T12:00	31321	10	-42.1	-80.5	271	11
2023-09-17T12:00	31342	10	-42.0	-80.4	270	11
2023-09-17T12:00	31364	10	-41.9	-80.4	270	11
2023-09-17T12:00	31393	10	-41.8	-80.3	269	11
2023-09-17T12:00	31430	10	-41.8	-80.3	268	11
2023-09-17T12:00	31450	10	-41.7	-80.2	267	12
2023-09-17T12:00	31467	10	-41.7	-80.2	267	13
2023-09-17T12:00	31495	10	-41.7	-80.2	267	13
2023-09-17T12:00	31537	10	-41.6	-80.1	268	14
2023-09-17T12:00	31577	10	-41.6	-80.1	268	15
2023-09-17T12:00	31578	10	-41.6	-80.1	269	16
2023-09-17T12:00	31629	10	-41.6	-80.1	270	17
2023-09-17T12:00	31650	10	-41.7	-80.2	271	18
2023-09-17T12:00	31703	9	-41.7	-80.2	271	18
2023-09-17T12:00	31714	9	-41.7	-80.2	271	18
2023-09-17T12:00	31733	9	-41.7	-80.2	271	18
2023-09-17T12:00	31795	9	-41.6	-80.1	271	18
2023-09-17T12:00	31816	9	-41.4	-80.0	271	17
2023-09-17T12:00	31826	9	-41.3	-79.9	272	16
2023-09-17T12:00	31878	9	-41.4	-80.0	273	16
2023-09-17T12:00	31898	9	-41.4	-80.0	273	15
2023-09-17T12:00	31953	9	-41.4	-80.0	274	15
2023-09-17T12:00	31961	9	-41.3	-79.9	274	14
2023-09-17T12:00	32013	9	-41.3	-79.9	272	14
2023-09-17T12:00	32039	9	-41.3	-79.9	270	15
2023-09-17T12:00	32064	9	-41.2	-79.9	268	15
2023-09-17T12:00	32092	9	-41.1	-79.8	268	16
2023-09-17T12:00	32120	9	-41.1	-79.8	269	16
2023-09-17T12:00	32161	9	-41.1	-79.8	272	16
2023-09-17T12:00	32178	9	-41.1	-79.8	275	16
2023-09-17T12:00	32218	9	-41.1	-79.8	278	17
2023-09-17T12:00	32236	9	-41.2	-79.9	280	17
2023-09-17T12:00	32255	9	-41.2	-79.9	282	18
2023-09-17T12:00	32324	9	-41.2	-79.9	283	19
2023-09-17T12:00	32336	9	-41.3	-79.9	283	19
2023-09-17T12:00	32366	9	-41.4	-80.0	284	20
2023-09-17T12:00	32391	9	-41.5	-80.1	284	20
2023-09-17T12:00	32419	9	-41.4	-80.0	284	20
2023-09-17T12:00	32432	8	-41.3	-79.9	285	19
2023-09-17T12:00	32483	8	-41.1	-79.8	285	19
2023-09-17T12:00	32509	8	-41.0	-79.7	284	18
2023-09-17T12:00	32541	8	-41.0	-79.7	283	17
2023-09-17T12:00	32553	8	-40.9	-79.7	283	16
2023-09-17T12:00	32597	8	-40.8	-79.6	282	15
2023-09-17T12:00	32617	8	-40.7	-79.5	283	15
2023-09-17T12:00	32647	8	-40.6	-79.5	283	15
2023-09-17T12:00	32664	8	-40.6	-79.5	284	15
2023-09-17T12:00	32693	8	-40.5	-79.4	284	15
2023-09-17T12:00	32756	8	-40.4	-79.3	284	15
2023-09-17T12:00	32788	8	-40.3	-79.2	283	15
2023-09-17T12:00	32811	8	-40.1	-79.1	283	15
2023-09-17T12:00	32816	8	-39.8	-78.9	284	15
2023-09-17T12:00	32841	8	-39.7	-78.8	286	16
2023-09-17T12:00	32916	8	-39.5	-78.7	288	17
2023-09-17T12:00	32942	8	-39.4	-78.6	289	17
2023-09-17T12:00	32954	8	-39.4	-78.6	290	17
2023-09-17T12:00	32971	8	-39.2	-78.5	290	17
2023-09-17T12:00	32974	8	-38.9	-78.3	289	17
2023-09-17T12:00	33022	8	-38.5	-78.0	287	17
2023-09-17T12:00	33051	8	-38.4	-77.9	285	16
2023-09-17T12:00	33110	8	-38.3	-77.9	284	15
2023-09-17T12:00	33129	8	-38.0	-77.6	283	14
2023-09-17T12:00	33145	8	-37.7	-77.4	283	14
2023-09-17T12:00	33201	8	-37.5	-77.3	283	13
2023-09-17T12:00	33205	8	-37.2	-77.1	283	12
2023-09-17T12:00	33238	8	-37.0	-77.0	282	12
2023-09-17T12:00	33289	8	-37.2	-77.1	280	11
2023-09-17T12:00	33295	7	-37.4	-77.2	278	11
2023-09-17T12:00	33319	7	-37.6	-77.4	276	10
2023-09-17T12:00	33365	7	-37.8	-77.5	273	10
2023-09-17T12:00	33371	7	-37.8	-77.5	270	9
2023-09-17T12:00	33432	7	-37.8	-77.5	267	9
2023-09-17T12:00	33452	7	-37.8	-77.5	263	9
2023-09-17T12:00	33498	7	-37.8	-77.5	259	9
2023-09-17T12:00	33502	7	-37.8	-77.5	254	9
2023-09-17T12:00	33520	7	-37.7	-77.4	251	9
2023-09-17T12:00	33547	7	-37.7	-77.4	249	10
2023-09-17T12:00	33588	7	-37.8	-77.5	249	10
2023-09-17T12:00	33629	7	-37.8	-77.5	251	10
2023-09-17T12:00	33664	7	-37.8	-77.5	254	11
2023-09-17T12:00	33700	7	-37.8	-77.5	256	11
2023-09-17T12:00	33740	7	-37.8	-77.5	259	12
2023-09-17T12:00	33764	7	-37.7	-77.4	263	13
2023-09-17T12:00	33818	7	-37.6	-77.4	265	13
2023-09-17T12:00	33851	7	-37.6	-77.4	271	14
2023-09-17T12:00	33910	7	-37.6	-77.4	273	14
2023-09-17T12:00	33934	7	-37.6	-77.4	274	15
2023-09-17T12:00	33940	7	-37.6	-77.4	274	15
2023-09-17T12:00	33975	7	-37.6	-77.4	273	15
2023-09-17T12:00	33994	7	-37.7	-77.4	272	15
2023-09-17T12:00	34022	7	-37.8	-77.5	271	15
2023-09-17T12:00	34060	7	-37.9	-77.6	269	15
2023-09-17T12:00	34102	7	-37.9	-77.6	268	15
2023-09-17T12:00	34117	7	-37.8	-77.5	268	15
2023-09-17T12:00	34135	7	-37.7	-77.4	267	15
2023-09-17T12:00	34192	7	-37.6	-77.4	267	15
2023-09-17T12:00	34218	7	-37.6	-77.4	267	14
2023-09-17T12:00	34219	7	-37.6	-77.4	267	14
2023-09-17T12:00	34279	7	-37.6	-77.4	266	13
2023-09-17T12:00	34317	6	-37.6	-77.4	266	13
2023-09-17T12:00	34326	6	-37.7	-77.4	266	13
2023-09-17T12:00	34363	6	-37.7	-77.4	267	12
2023-09-17T12:00	34382	6	-37.6	-77.4	267	11
2023-09-17T12:00	34414	6	-37.5	-77.3	268	11
2023-09-17T12:00	34441	6	-37.5	-77.3	268	10
2023-09-17T12:00	34479	6	-37.6	-77.4	268	10
2023-09-17T12:00	34491	6	-37.7	-77.4	267	10
2023-09-17T12:00	34529	6	-37.7	-77.4	265	9
2023-09-17T12:00	34555	6	-37.6	-77.4	262	9
2023-09-17T12:00	34568	6	-37.4	-77.2	258	9
2023-09-17T12:00	34587	6	-37.1	-77.0	254	10
2023-09-17T12:00	34612	6	-36.8	-76.8	252	10
2023-09-17T12:00	34629	6	-36.7	-76.7	250	11
2023-09-17T12:00	34641	6	-36.5	-76.6	249	11
2023-09-17T12:00	34670	6	-36.6	-76.7	248	12
2023-09-17T12:00	34698	6	-36.7	-76.7	246	12
2023-09-17T12:00	34732	6	-36.7	-76.7	245	13
2023-09-17T12:00	34758	6	-36.7	-76.7	244	13
2023-09-17T18:00	114	1002	24.1	14.3	65	1
2023-09-17T18:00	147	999	24.8	13.6	63	1
2023-09-17T18:00	168	996	24.8	13.4	68	2
2023-09-17T18:00	193	994	24.6		69	2
2023-09-17T18:00	215	991	24.4		70	2
2023-09-17T18:00	236	988	24.2	13.4	71	2
2023-09-17T18:00	263	986	24.0	13.4	73	2
2023-09-17T18:00	287	983	23.8	13.3	77	2
2023-09-17T18:00	311	980	23.6		83	2
2023-09-17T18:00	339	977	23.3	13.3	89	3
2023-09-17T18:00	365	974	23.0	13.3	94	3
2023-09-17T18:00	395	971	22.8	13.2	99	3
2023-09-17T18:00	418	968	22.5	13.1	104	3
2023-09-17T18:00	444	965	22.3	13.0	108	3
2023-09-17T18:00	467	963	22.1	12.9	112	3
2023-09-17T18:00	492	960	21.9	12.7	116	3
2023-09-17T18:00	515	957	21.7	12.8	121	3
2023-09-17T18:00	541	955	21.4	12.7	125	3
2023-09-17T18:00	566	952	21.2	12.7	129	4
2023-09-17T18:00	589	949	21.0	12.5	132	4
2023-09-17T18:00	612	947	20.8	12.6	133	4
2023-09-17T18:00	637	944	20.6	12.5	134	4
2023-09-17T18:00	663	941	20.4	11.9	135	4
2023-09-17T18:00	689	938	20.1	12.0	136	4
2023-09-17T18:00	713	936	19.9	11.9	138	4
2023-09-17T18:00	739	933	19.7	11.5	142	4
2023-09-17T18:00	766	930	19.5	11.7	145	4
2023-09-17T18:00	794	927	19.2	11.6	147	4
2023-09-17T18:00	820	924	18.9	11.4	148	5
2023-09-17T18:00	845	922	18.7	11.2	148	5
2023-09-17T18:00	871	919	18.5	10.9	148	5
2023-09-17T18:00	897	916	18.3	10.8	148	5
2023-09-17T18:00	924	913	18.0	10.6	148	5
2023-09-17T18:00	951	910	17.8	10.6	148	5
2023-09-17T18:00	980	907	17.5	10.6	148	5
2023-09-17T18:00	1005	904	17.3	10.6	146	5
2023-09-17T18:00	1031	902	17.0	10.4	143	5
2023-09-17T18:00	1057	899	16.8	10.7	140	5
2023-09-17T18:00	1086	896	16.5	11.1	138	5
2023-09-17T18:00	1114	893	16.2	11.3	138	5
2023-09-17T18:00	1144	890	16.0	11.2	140	4
2023-09-17T18:00	1169	887	16.1	7.6	144	3
2023-09-17T18:00	1198	884	16.6	2.4	151	3
2023-09-17T18:00	1225	881	16.7	1.0	162	2
2023-09-17T18:00	1252	878	16.6	-1.0	177	2
2023-09-17T18:00	1283	875	16.8	-4.4	196	1
2023-09-17T18:00	1317	872	16.7	-5.5	219	1
2023-09-17T18:00	1344	869	16.7	-7.3	243	1
2023-09-17T18:00	1370	867	16.5	-7.5	263	2
2023-09-17T18:00	1397	864	16.3	-5.3	275	2
2023-09-17T18:00	1427	861	15.8	1.5	281	3
2023-09-17T18:00	1455	858	15.5	3.6	283	3
2023-09-17T18:00	1486	855	15.2	6.5	284	4
2023-09-17T18:00	1511	852	15.1	7.6	284	4
2023-09-17T18:00	1536	850	14.9	7.6	283	4
2023-09-17T18:00	1559	847	14.7	7.3	282	4
2023-09-17T18:00	1583	845	14.7	7.1	280	5
2023-09-17T18:00	1609	842	14.6	7.0	279	5
2023-09-17T18:00	1636	840	14.5	6.7	278	5
2023-09-17T18:00	1665	837	14.3	6.0	277	5
2023-09-17T18:00	1690	834	14.2	5.9	277	5
2023-09-17T18:00	1715	832	14.0	6.0	278	5
2023-09-17T18:00	1744	829	13.8	6.0	279	5
2023-09-17T18:00	1771	826	13.6	6.0	280	5
2023-09-17T18:00	1800	824	13.3	6.0	280	5
2023-09-17T18:00	1827	821	13.1	6.0	281	4
2023-09-17T18:00	1854	818	12.9	5.9	280	4
2023-09-17T18:00	1883	816	12.6	5.6	280	4
2023-09-17T18:00	1908	813	12.4	5.6	280	5
2023-09-17T18:00	1937	810	12.2	5.5	280	5
2023-09-17T18:00	1963	808	12.0	5.4	281	5
2023-09-17T18:00	1992	805	11.7	5.2	282	5
2023-09-17T18:00	2027	802	11.4	5.0	282	5
2023-09-17T18:00	2054	799	11.2	5.2	283	5
2023-09-17T18:00	2081	796	10.9	5.1	283	5
2023-09-17T18:00	2107	794	10.7	5.0	284	5
2023-09-17T18:00	2136	791	10.4	5.1	284	6
2023-09-17T18:00	2162	789	10.2	5.2	284	6
2023-09-17T18:00	2186	786	10.1	5.2	284	7
2023-09-17T18:00	2212	784	10.0	5.1	284	7
2023-09-17T18:00	2239	781	9.9	4.1	283	7
2023-09-17T18:00	2268	779	9.6	4.2	282	7
2023-09-17T18:00	2295	776	9.4	4.1	280	7
2023-09-17T18:00	2321	774	9.2	4.0	277	7
2023-09-17T18:00	2348	771	8.9	3.8	276	8
2023-09-17T18:00	2373	769	8.7	3.4	275	8
2023-09-17T18:00	2400	767	8.6	2.8	275	8
2023-09-17T18:00	2425	764	8.4	2.9	276	8
2023-09-17T18:00	2451	762	8.1	2.4	277	8
2023-09-17T18:00	2478	759	7.9	2.3	278	8
2023-09-17T18:00	2510	756	7.6	1.4	278	8
2023-09-17T18:00	2539	754	7.4	0.7	277	8
2023-09-17T18:00	2567	751	7.3	0.1	276	8
2023-09-17T18:00	2595	749	7.1	0.1	276	8
2023-09-17T18:00	2622	746	6.9	-0.1	275	8
2023-09-17T18:00	2651	744	6.6	0.4	276	8
2023-09-17T18:00	2671	741	6.4	1.0	276	8
2023-09-17T18:00	2698	739	6.1	0.9	276	8
2023-09-17T18:00	2724	737	5.9	0.9	277	8
2023-09-17T18:00	2754	734	5.6	0.8	278	8
2023-09-17T18:00	2782	732	5.3	0.6	279	8
2023-09-17T18:00	2811	729	5.0	0.7	280	8
2023-09-17T18:00	2835	727	4.8	0.8	279	7
2023-09-17T18:00	2854	725	4.6	1.5	277	7
2023-09-17T18:00	2880	723	4.4	1.9	272	7
2023-09-17T18:00	2907	721	4.2	1.9	267	7
2023-09-17T18:00	2933	718	4.0	1.8	263	7
2023-09-17T18:00	2962	716	3.8	1.8	261	8
2023-09-17T18:00	2994	713	3.6	1.4	261	8
2023-09-17T18:00	3020	711	3.4	1.3	261	8
2023-09-17T18:00	3047	708	3.4	0.7	261	8
2023-09-17T18:00	3074	706	3.3	0.1	261	8
2023-09-17T18:00	3099	704	3.1	0.1	261	7
2023-09-17T18:00	3123	702	3.0	0.3	260	7
2023-09-17T18:00	3158	699	2.8	0.5	258	7
2023-09-17T18:00	3187	696	2.6	0.1	255	7
2023-09-17T18:00	3216	694	2.4	0.1	252	7
2023-09-17T18:00	3243	691	2.1	-0.1	249	7
2023-09-17T18:00	3265	690	2.0	0.0	248	7
2023-09-17T18:00	3285	688	1.9	0.0	247	6
2023-09-17T18:00	3312	686	1.7	0.2	247	6
2023-09-17T18:00	3333	684	1.7	-0.3	249	6
2023-09-17T18:00	3359	682	1.5	-0.5	250	6
2023-09-17T18:00	3385	679	1.3	-0.8	253	6
2023-09-17T18:00	3411	677	1.1	-1.5	257	6
2023-09-17T18:00	3433	675	1.0	-1.7	260	6
2023-09-17T18:00	3455	673	0.9	-2.0	263	7
2023-09-17T18:00	3480	671	0.8	-2.3	264	7
2023-09-17T18:00	3502	669	0.7	-3.0	264	8
2023-09-17T18:00	3529	667	0.6	-3.8	264	8
2023-09-17T18:00	3554	665	0.5	-2.6	264	9
2023-09-17T18:00	3574	663	0.3	-2.5	265	9
2023-09-17T18:00	3599	662	0.1	-2.3	267	8
2023-09-17T18:00	3621	660	-0.1	-2.7	269	8
2023-09-17T18:00	3642	658	-0.2	-2.9	272	8
2023-09-17T18:00	3662	656	-0.4		273	8
2023-09-17T18:00	3688	654	-0.5	-3.4	273	7
2023-09-17T18:00	3709	652	-0.6	-3.6	272	7
2023-09-17T18:00	3737	650	-0.8	-4.4	270	7
2023-09-17T18:00	3758	648	-0.7	-4.8	269	7
2023-09-17T18:00	3784	646	-0.7	-5.1	268	7
2023-09-17T18:00	3810	644	-0.9	-4.7	268	7
2023-09-17T18:00	3832	642	-1.0	-4.7	268	7
2023-09-17T18:00	3861	640	-1.2	-5.0	268	7
2023-09-17T18:00	3885	638	-1.3	-4.8	268	7
2023-09-17T18:00	3911	636	-1.5	-5.0	268	7
2023-09-17T18:00	3939	634	-1.6	-5.6	267	8
2023-09-17T18:00	3969	632	-1.8	-5.7	266	8
2023-09-17T18:00	3991	630	-1.8	-6.0	264	8
2023-09-17T18:00	4021	627	-2.0	-6.2	262	8
2023-09-17T18:00	4049	625	-2.2	-6.5	260	7
2023-09-17T18:00	4069	624	-2.4	-6.6	258	7
2023-09-17T18:00	4095	622	-2.6	-6.3	258	7
2023-09-17T18:00	4121	620	-2.9	-6.1	258	7
2023-09-17T18:00	4146	618	-3.1	-6.1	258	7
2023-09-17T18:00	4177	615	-3.4	-6.0	257	7
2023-09-17T18:00	4207	613	-3.7	-6.1	256	7
2023-09-17T18:00	4235	611	-3.8	-6.7	256	7
2023-09-17T18:00	4254	609	-4.0	-6.9	258	8
2023-09-17T18:00	4280	607	-4.1	-7.0	261	8
2023-09-17T18:00	4307	605	-4.2	-7.3	264	8
2023-09-17T18:00	4335	603	-4.1	-7.7	266	8
2023-09-17T18:00	4366	601	-4.2	-7.5	266	8
2023-09-17T18:00	4396	599	-4.5	-7.7	265	8
2023-09-17T18:00	4419	597	-4.7	-7.6	262	7
2023-09-17T18:00	4448	595	-4.8	-8.2	259	7
2023-09-17T18:00	4472	592	-5.0	-7.9	257	7
2023-09-17T18:00	4505	590	-5.2	-8.1	256	6
2023-09-17T18:00	4527	588	-5.4	-8.2	255	6
2023-09-17T18:00	4549	587	-5.6	-8.2	254	6
2023-09-17T18:00	4581	584	-5.8	-8.4	252	6
2023-09-17T18:00	4610	582	-5.9	-8.5	249	6
2023-09-17T18:00	4635	580	-6.0	-8.5	246	6
2023-09-17T18:00	4664	578	-6.2	-8.9	244	6
2023-09-17T18:00	4685	577	-6.3	-8.8	242	6
2023-09-17T18:00	4706	575	-6.5	-8.9	240	6
2023-09-17T18:00	4734	573	-6.7	-9.0	237	7
2023-09-17T18:00	4765	571	-7.0	-9.0	234	7
2023-09-17T18:00	4795	569	-7.2	-9.1	230	6
2023-09-17T18:00	4817	567	-7.4	-9.2	226	6
2023-09-17T18:00	4845	565	-7.4	-9.4	223	6
2023-09-17T18:00	4877	563	-7.6	-9.6	219	6
2023-09-17T18:00	4909	560	-7.7	-9.6	217	6
2023-09-17T18:00	4940	558	-8.0	-9.7	216	6
2023-09-17T18:00	4961	557	-8.1	-9.9	215	6
2023-09-17T18:00	4985	555	-8.2	-10.2	216	7
2023-09-17T18:00	5018	553	-8.4	-10.6	217	7
2023-09-17T18:00	5047	551	-8.6	-10.8	218	7
2023-09-17T18:00	5073	549	-8.9	-10.9	219	7
2023-09-17T18:00	5104	547	-9.1	-11.0	219	7
2023-09-17T18:00	5133	544	-9.4	-11.1	219	8
2023-09-17T18:00	5158	543	-9.6	-11.2	220	8
2023-09-17T18:00	5184	541	-9.9	-11.4	221	8
2023-09-17T18:00	5211	539	-10.1	-11.6	222	8
2023-09-17T18:00	5246	537	-10.3	-11.9	224	8
2023-09-17T18:00	5278	534	-10.4	-12.7	226	7
2023-09-17T18:00	5309	532	-10.6	-12.9	228	6
2023-09-17T18:00	5341	530	-10.8	-13.1	232	5
2023-09-17T18:00	5370	528	-10.9	-13.3	236	4
2023-09-17T18:00	5395	526	-11.2	-13.4	242	3
2023-09-17T18:00	5421	525	-11.2	-14.2	250	3
2023-09-17T18:00	5449	523	-11.3	-14.9	258	2
2023-09-17T18:00	5471	521	-11.4	-15.4	267	2
2023-09-17T18:00	5493	519	-11.3	-16.1	273	2
2023-09-17T18:00	5524	518	-11.5	-16.5	275	2
2023-09-17T18:00	5553	516	-11.5	-17.1	275	2
2023-09-17T18:00	5580	514	-11.7	-17.2	272	2
2023-09-17T18:00	5603	512	-11.8	-16.7	268	2
2023-09-17T18:00	5628	511	-12.0	-15.4	265	2
2023-09-17T18:00	5652	509	-12.2	-15.7	264	2
2023-09-17T18:00	5680	507	-12.4	-15.5	265	2
2023-09-17T18:00	5706	505	-12.6	-15.6	265	3
2023-09-17T18:00	5728	504	-12.8	-15.9	264	3
2023-09-17T18:00	5753	502	-13.0	-15.6	260	3
2023-09-17T18:00	5777	501	-13.2	-16.0	254	3
2023-09-17T18:00	5803	499	-13.3	-16.0	248	3
2023-09-17T18:00	5833	497	-13.3	-16.4	243	3
2023-09-17T18:00	5858	495	-13.5	-16.5	240	3
2023-09-17T18:00	5878	494	-13.7	-16.5	238	3
2023-09-17T18:00	5907	492	-13.9	-16.6	238	3
2023-09-17T18:00	5926	491	-14.1	-16.8	237	4
2023-09-17T18:00	5948	490	-14.2	-17.1	237	4
2023-09-17T18:00	5974	488	-14.4	-17.5	237	5
2023-09-17T18:00	5992	487	-14.5	-17.5	236	5
2023-09-17T18:00	6021	485	-14.7	-18.2	234	6
2023-09-17T18:00	6045	483	-14.9	-18.4	232	6
2023-09-17T18:00	6066	482	-15.0	-18.7	230	6
2023-09-17T18:00	6093	480	-15.2	-18.9	229	5
2023-09-17T18:00	6116	479	-15.4	-19.4	228	5
2023-09-17T18:00	6139	477	-15.5		227	5
2023-09-17T18:00	6167	476	-15.8	-19.7	226	5
2023-09-17T18:00	6197	474	-16.1	-19.8	225	5
2023-09-17T18:00	6220	472	-16.3	-20.0	224	5
2023-09-17T18:00	6236	471	-16.5	-20.0	223	5
2023-09-17T18:00	6262	470	-16.7	-20.0	222	5
2023-09-17T18:00	6289	468	-16.9	-20.1	221	4
2023-09-17T18:00	6315	466	-17.1	-19.8	219	4
2023-09-17T18:00	6334	465	-17.3	-19.8	217	4
2023-09-17T18:00	6361	464	-17.5	-19.8	216	4
2023-09-17T18:00	6381	462	-17.7	-20.0	216	4
2023-09-17T18:00	6404	461	-17.9	-20.4	217	4
2023-09-17T18:00	6425	459	-18.1	-20.6	219	4
2023-09-17T18:00	6459	458	-18.3	-21.6	222	4
2023-09-17T18:00	6480	456	-18.3	-22.2	226	4
2023-09-17T18:00	6505	455	-18.4	-22.5	230	5
2023-09-17T18:00	6536	453	-18.7	-22.7	235	5
2023-09-17T18:00	6558	451	-18.9	-22.8	238	6
2023-09-17T18:00	6585	450	-19.1	-23.1	240	6
2023-09-17T18:00	6606	448	-19.3	-23.2	241	7
2023-09-17T18:00	6632	447	-19.5	-23.5	243	7
2023-09-17T18:00	6658	445	-19.6	-23.6	245	7
2023-09-17T18:00	6680	444	-19.8	-23.5	247	7
2023-09-17T18:00	6703	443	-20.0	-23.2	249	7
2023-09-17T18:00	6728	441	-20.1	-23.2	250	7
2023-09-17T18:00	6752	440	-20.3	-23.8	252	7
2023-09-17T18:00	6777	438	-20.5	-23.9	254	6
2023-09-17T18:00	6808	437	-20.7	-24.7	256	6
2023-09-17T18:00	6832	435	-20.8	-25.6	258	6
2023-09-17T18:00	6861	433	-21.0	-26.0	258	6
2023-09-17T18:00	6889	432	-21.2	-27.0	258	6
2023-09-17T18:00	6919	430	-21.3	-27.8	257	7
2023-09-17T18:00	6942	429	-21.5	-28.3	256	7
2023-09-17T18:00	6963	427	-21.6	-28.0	255	7
2023-09-17T18:00	6986	426	-21.8	-28.9	253	7
2023-09-17T18:00	7007	425	-21.9	-29.2	252	7
2023-09-17T18:00	7031	423	-22.0	-30.5	251	7
2023-09-17T18:00	7063	422	-22.3	-30.9	250	7
2023-09-17T18:00	7089	420	-22.5	-30.9	249	7
2023-09-17T18:00	7112	419	-22.6	-32.6	248	7
2023-09-17T18:00	7133	418	-22.7	-32.7	248	8
2023-09-17T18:00	7157	416	-22.9	-32.6	247	8
2023-09-17T18:00	7189	415	-23.1	-33.2	247	8
2023-09-17T18:00	7214	413	-23.2	-32.8	247	8
2023-09-17T18:00	7240	412	-23.4	-33.1	248	8
2023-09-17T18:00	7262	410	-23.6	-32.0	249	8
2023-09-17T18:00	7290	409	-23.7		251	8
2023-09-17T18:00	7318	407	-24.0	-29.8	252	8
2023-09-17T18:00	7352	405	-24.3	-29.9	254	8
2023-09-17T18:00	7381	404	-24.5	-30.1	256	9
2023-09-17T18:00	7410	402	-24.8		257	9
2023-09-17T18:00	7436	401	-25.0	-32.1	258	9
2023-09-17T18:00	7466	399	-25.3	-32.7	258	9
2023-09-17T18:00	7493	397	-25.5	-33.8	258	8
2023-09-17T18:00	7526	396	-25.8	-31.3	257	8
2023-09-17T18:00	7551	394	-26.1	-31.0	258	9
2023-09-17T18:00	7575	393	-26.3	-31.3	259	9
2023-09-17T18:00	7601	392	-26.5	-31.8	260	9
2023-09-17T18:00	7623	390	-26.7	-32.0	261	9
2023-09-17T18:00	7646	389	-26.9	-32.0	262	9
2023-09-17T18:00	7669	388	-27.2	-32.1	263	9
2023-09-17T18:00	7693	387	-27.4	-31.6	264	9
2023-09-17T18:00	7722	385	-27.6	-31.4	265	9
2023-09-17T18:00	7756	383	-27.9	-31.6	267	9
2023-09-17T18:00	7785	382	-28.1	-33.5	269	9
2023-09-17T18:00	7809	381	-28.3		271	9
2023-09-17T18:00	7831	379	-28.4	-37.1	272	9
2023-09-17T18:00	7857	378	-28.6	-37.6	273	9
2023-09-17T18:00	7884	377	-28.8	-40.0	273	9
2023-09-17T18:00	7907	375	-28.9	-41.2	273	9
2023-09-17T18:00	7930	374	-29.1	-42.0	273	9
2023-09-17T18:00	7954	373	-29.2	-42.4	273	9
2023-09-17T18:00	7975	372	-29.4	-42.7	273	9
2023-09-17T18:00	7996	371	-29.6	-42.8	273	9
2023-09-17T18:00	8021	369	-29.8	-43.0	273	9
2023-09-17T18:00	8051	368	-30.1	-43.2	272	9
2023-09-17T18:00	8076	367	-30.3	-43.2	272	9
2023-09-17T18:00	8101	365	-30.4	-43.6	271	9
2023-09-17T18:00	8124	364	-30.6	-43.7	270	9
2023-09-17T18:00	8148	363	-30.8	-42.9	271	8
2023-09-17T18:00	8172	362	-30.9	-42.9	271	8
2023-09-17T18:00	8203	360	-31.2	-42.9	272	8
2023-09-17T18:00	8236	358	-31.5	-43.0	273	8
2023-09-17T18:00	8261	357	-31.8	-43.1	274	8
2023-09-17T18:00	8287	356	-32.0	-43.0	274	8
2023-09-17T18:00	8309	355	-32.2	-43.1	274	9
2023-09-17T18:00	8335	353	-32.5	-43.2	274	9
2023-09-17T18:00	8361	352	-32.7	-43.1	274	9
2023-09-17T18:00	8392	351	-32.9	-43.0	274	9
2023-09-17T18:00	8416	349	-33.0	-42.7	274	10
2023-09-17T18:00	8446	348	-33.2	-42.3	275	10
2023-09-17T18:00	8471	347	-33.4	-42.3	276	10
2023-09-17T18:00	8495	345	-33.6	-42.3	276	10
2023-09-17T18:00	8519	344	-33.8	-42.2	277	10
2023-09-17T18:00	8544	343	-34.0	-42.1	278	10
2023-09-17T18:00	8568	342	-34.1	-43.2	279	10
2023-09-17T18:00	8589	341	-34.2	-44.9	281	11
2023-09-17T18:00	8614	340	-34.4	-45.0	282	11
2023-09-17T18:00	8641	338	-34.6	-44.2	283	11
2023-09-17T18:00	8666	337	-34.9	-44.3	284	11
2023-09-17T18:00	8696	336	-35.1	-44.2	283	11
2023-09-17T18:00	8720	334	-35.3	-45.2	283	11
2023-09-17T18:00	8749	333	-35.4	-47.6	282	11
2023-09-17T18:00	8771	332	-35.6	-48.7	282	12
2023-09-17T18:00	8793	331	-35.8	-49.2	282	12
2023-09-17T18:00	8812	330	-36.0	-48.2	282	12
2023-09-17T18:00	8832	329	-36.1	-45.5	281	12
2023-09-17T18:00	8853	328	-36.3	-45.5	280	11
2023-09-17T18:00	8873	327	-36.5	-45.1	279	11
2023-09-17T18:00	8897	326	-36.7	-45.5	278	11
2023-09-17T18:00	8921	325	-36.9	-46.8	277	11
2023-09-17T18:00	8941	324	-37.1	-47.3	276	12
2023-09-17T18:00	8962	323	-37.2	-47.3	276	12
2023-09-17T18:00	8983	322	-37.4	-46.8	276	12
2023-09-17T18:00	9008	321	-37.6	-46.6	276	12
2023-09-17T18:00	9034	320	-37.8	-47.5	275	12
2023-09-17T18:00	9054	319	-37.9	-48.0	274	13
2023-09-17T18:00	9082	317	-38.2	-48.0	274	13
2023-09-17T18:00	9106	316	-38.4		273	14
2023-09-17T18:00	9136	315	-38.6	-48.1	272	14
2023-09-17T18:00	9159	314	-38.9	-48.5	271	15
2023-09-17T18:00	9187	313	-39.1	-48.7	270	15
2023-09-17T18:00	9213	311	-39.2	-48.8	270	15
2023-09-17T18:00	9242	310	-39.4	-49.0	270	14
2023-09-17T18:00	9269	309	-39.6	-49.1	270	14
2023-09-17T18:00	9297	308	-39.9	-49.1	271	14
2023-09-17T18:00	9321	307	-40.1	-49.2	272	14
2023-09-17T18:00	9344	305	-40.3	-49.3	273	15
2023-09-17T18:00	9368	304	-40.4	-49.3	274	15
2023-09-17T18:00	9393	303	-40.5	-49.3	275	15
2023-09-17T18:00	9415	302	-40.6	-49.8	275	15
2023-09-17T18:00	9435	301	-40.8	-50.3	276	14
2023-09-17T18:00	9456	301	-41.0	-50.9	276	14
2023-09-17T18:00	9476	300	-41.1	-53.6	276	14
2023-09-17T18:00	9496	299	-41.3	-54.4	276	14
2023-09-17T18:00	9515	298	-41.4	-55.1	276	14
2023-09-17T18:00	9535	297	-41.5	-56.2	276	13
2023-09-17T18:00	9555	296	-41.6	-56.1	276	13
2023-09-17T18:00	9574	295	-41.8	-56.4	276	13
2023-09-17T18:00	9593	294	-42.0	-56.6	276	13
2023-09-17T18:00	9617	293	-42.1	-57.4	276	13
2023-09-17T18:00	9638	293	-42.3	-57.7	275	13
2023-09-17T18:00	9659	292	-42.4	-58.2	275	13
2023-09-17T18:00	9680	291	-42.6	-58.8	275	13
2023-09-17T18:00	9702	290	-42.8	-58.7	275	13
2023-09-17T18:00	9724	289	-43.0	-58.9	274	13
2023-09-17T18:00	9743	288	-43.1	-59.0	274	13
2023-09-17T18:00	9764	287	-43.3	-59.2	273	13
2023-09-17T18:00	9786	286	-43.5	-59.3	273	13
2023-09-17T18:00	9806	285	-43.6	-59.3	272	13
2023-09-17T18:00	9828	284	-43.8	-59.4	272	13
2023-09-17T18:00	9848	284	-44.0	-59.5	271	13
2023-09-17T18:00	9869	283	-44.2	-59.6	271	13
2023-09-17T18:00	9890	282	-44.4	-59.6	270	13
2023-09-17T18:00	9912	281	-44.6	-59.7	269	13
2023-09-17T18:00	9933	280	-44.8	-59.8	269	13
2023-09-17T18:00	9956	279	-45.0	-59.8	268	13
2023-09-17T18:00	9980	278	-45.2	-59.9	267	13
2023-09-17T18:00	10007	277	-45.4	-59.9	267	13
2023-09-17T18:00	10034	276	-45.6	-59.3	267	13
2023-09-17T18:00	10060	275	-45.9	-57.7	266	13
2023-09-17T18:00	10085	274	-46.1	-55.8	266	13
2023-09-17T18:00	10111	273	-46.3	-54.9	266	13
2023-09-17T18:00	10136	272	-46.5	-54.9	266	13
2023-09-17T18:00	10160	271	-46.7	-55.1	266	13
2023-09-17T18:00	10185	270	-46.7	-56.1	266	12
2023-09-17T18:00	10211	269	-46.5	-56.5	266	12
2023-09-17T18:00	10239	267	-46.7	-56.4	266	12
2023-09-17T18:00	10264	266	-46.8	-56.5	265	12
2023-09-17T18:00	10288	265	-47.1	-56.9	265	12
2023-09-17T18:00	10312	264	-47.3	-56.9	264	12
2023-09-17T18:00	10336	264	-47.5	-56.9	264	12
2023-09-17T18:00	10358	263	-47.7	-57.0	264	12
2023-09-17T18:00	10378	262	-47.9	-57.3	264	12
2023-09-17T18:00	10400	261	-48.1	-57.4	264	12
2023-09-17T18:00	10422	260	-48.3	-57.5	264	11
2023-09-17T18:00	10445	259	-48.4	-57.6	263	11
2023-09-17T18:00	10469	258	-48.6	-57.9	262	11
2023-09-17T18:00	10494	257	-48.7	-58.3	261	11
2023-09-17T18:00	10518	256	-48.9	-58.8	260	11
2023-09-17T18:00	10542	255	-49.0	-58.8	259	12
2023-09-17T18:00	10566	254	-49.2	-59.0	258	12
2023-09-17T18:00	10597	253	-49.5	-59.4	258	12
2023-09-17T18:00	10623	252	-49.6	-59.7	258	12
2023-09-17T18:00	10649	251	-49.8	-60.5	258	13
2023-09-17T18:00	10673	250	-49.9	-61.0	259	13
2023-09-17T18:00	10698	249	-50.1	-61.3	261	13
2023-09-17T18:00	10720	249	-50.3	-61.9	262	13
2023-09-17T18:00	10745	248	-50.4	-62.4	263	14
2023-09-17T18:00	10770	247	-50.6	-63.5	264	14
2023-09-17T18:00	10795	246	-50.7	-64.6	266	14
2023-09-17T18:00	10822	245	-50.8	-65.2	267	15
2023-09-17T18:00	10850	244	-50.8	-65.4	269	15
2023-09-17T18:00	10876	243	-50.9	-65.6	270	15
2023-09-17T18:00	10905	242	-51.1	-65.7	272	16
2023-09-17T18:00	10934	241	-51.1	-65.7	273	16
2023-09-17T18:00	10957	240	-51.1	-65.9	274	16
2023-09-17T18:00	10980	239	-51.0	-66.0	275	16
2023-09-17T18:00	11008	238	-51.2	-66.1	276	17
2023-09-17T18:00	11037	237	-51.4	-66.1	276	17
2023-09-17T18:00	11065	236	-51.7	-66.3	277	18
2023-09-17T18:00	11093	235	-51.9	-66.3	278	18
2023-09-17T18:00	11117	234	-52.1	-66.4	278	19
2023-09-17T18:00	11138	233	-52.3	-66.5	279	19
2023-09-17T18:00	11165	232	-52.6	-66.6	279	19
2023-09-17T18:00	11188	231	-52.8	-66.7	280	20
2023-09-17T18:00	11210	230	-52.9	-67.0	280	20
2023-09-17T18:00	11234	230	-52.8	-67.3	281	21
2023-09-17T18:00	11253	229	-52.8	-67.6	281	22
2023-09-17T18:00	11278	228	-52.8	-67.9	282	22
2023-09-17T18:00	11302	227	-52.8	-68.3	283	23
2023-09-17T18:00	11325	226	-52.8	-68.5	283	23
2023-09-17T18:00	11345	226	-52.9	-68.6	284	23
2023-09-17T18:00	11368	225	-53.1	-68.7	284	23
2023-09-17T18:00	11392	224	-53.3	-68.8	284	23
2023-09-17T18:00	11416	223	-53.4	-68.8	284	23
2023-09-17T18:00	11440	222	-53.5	-69.0	285	23
2023-09-17T18:00	11462	222	-53.6	-69.1	286	24
2023-09-17T18:00	11486	221	-53.7	-69.3	287	24
2023-09-17T18:00	11506	220	-53.8	-69.3	288	24
2023-09-17T18:00	11529	219	-54.0	-69.4	288	24
2023-09-17T18:00	11549	219	-54.2	-69.4	289	25
2023-09-17T18:00	11572	218	-54.3	-69.4	289	25
2023-09-17T18:00	11594	217	-54.5	-69.5	290	25
2023-09-17T18:00	11616	216	-54.7	-69.4	290	25
2023-09-17T18:00	11636	216	-54.9	-69.4	291	25
2023-09-17T18:00	11657	215	-55.0	-69.2	291	25
2023-09-17T18:00	11678	214	-55.2	-69.2	292	26
2023-09-17T18:00	11700	214	-55.4	-69.2	293	26
2023-09-17T18:00	11723	213	-55.5	-69.0	294	26
2023-09-17T18:00	11743	212	-55.5	-68.8	294	26
2023-09-17T18:00	11766	211	-55.6	-68.7	295	26
2023-09-17T18:00	11787	211	-55.8	-68.9	296	26
2023-09-17T18:00	11809	210	-56.0	-69.0	296	26
2023-09-17T18:00	11827	209	-56.1	-69.1	297	26
2023-09-17T18:00	11849	209	-56.3	-69.1	297	26
2023-09-17T18:00	11871	208	-56.5	-69.2	298	26
2023-09-17T18:00	11890	207	-56.6	-69.2	299	25
2023-09-17T18:00	11912	207	-56.8	-69.3	299	25
2023-09-17T18:00	11932	206	-56.9	-69.3	299	25
2023-09-17T18:00	11953	205	-57.1	-69.4	300	25
2023-09-17T18:00	11976	205	-57.1	-69.5	300	25
2023-09-17T18:00	11997	204	-57.2	-69.7	300	25
2023-09-17T18:00	12017	203	-57.2	-69.8	300	24
2023-09-17T18:00	12040	202	-57.2	-70.0	298	24
2023-09-17T18:00	12062	202	-57.1	-70.2	297	24
2023-09-17T18:00	12082	201	-57.1	-70.4	294	23
2023-09-17T18:00	12110	200	-57.1	-70.5	292	23
2023-09-17T18:00	12132	200	-57.1	-70.7	289	23
2023-09-17T18:00	12155	199	-57.0	-70.8	288	23
2023-09-17T18:00	12177	198	-57.0	-71.1	286	24
2023-09-17T18:00	12196	197	-56.7	-71.2	286	24
2023-09-17T18:00	12219	197	-56.2	-71.2	286	24
2023-09-17T18:00	12240	196	-56.3	-71.6	287	24
2023-09-17T18:00	12264	195	-56.2	-71.7	287	24
2023-09-17T18:00	12287	195	-56.3	-71.9	287	24
2023-09-17T18:00	12311	194	-56.5	-72.0	287	25
2023-09-17T18:00	12333	193	-56.7	-72.2	287	25
2023-09-17T18:00	12353	193	-56.9	-72.4	286	25
2023-09-17T18:00	12375	192	-57.0	-72.6	285	26
2023-09-17T18:00	12398	191	-57.1	-72.7	285	26
2023-09-17T18:00	12417	191	-57.2	-72.8	284	26
2023-09-17T18:00	12442	190	-57.4	-73.2	283	26
2023-09-17T18:00	12464	189	-57.2	-73.4	283	25
2023-09-17T18:00	12487	189	-57.0	-73.7	283	25
2023-09-17T18:00	12513	188	-56.8	-73.7	284	25
2023-09-17T18:00	12537	187	-57.0	-73.8	284	24
2023-09-17T18:00	12563	186	-57.2	-73.7	285	24
2023-09-17T18:00	12585	186	-57.4	-73.6	285	23
2023-09-17T18:00	12607	185	-57.6	-73.7	285	23
2023-09-17T18:00	12627	184	-57.7	-73.6	285	22
2023-09-17T18:00	12651	184	-57.9	-73.9	286	22
2023-09-17T18:00	12677	183	-58.0	-74.3	286	21
2023-09-17T18:00	12700	182	-58.0	-74.6	286	21
2023-09-17T18:00	12721	182	-58.2	-75.1	285	20
2023-09-17T18:00	12744	181	-58.2	-75.5	285	19
2023-09-17T18:00	12765	180	-58.1	-75.7	283	19
2023-09-17T18:00	12785	180	-58.1	-76.0	282	19
2023-09-17T18:00	12807	179	-58.1	-76.2	280	19
2023-09-17T18:00	12829	179	-58.1	-76.4	278	18
2023-09-17T18:00	12850	178	-58.2	-76.8	277	18
2023-09-17T18:00	12869	178	-58.0	-77.0	276	18
2023-09-17T18:00	12891	177	-57.7	-77.3	276	17
2023-09-17T18:00	12915	176	-57.5	-77.6	276	17
2023-09-17T18:00	12938	176	-57.3	-77.6	276	16
2023-09-17T18:00	12960	175	-57.2	-77.8	276	16
2023-09-17T18:00	12980	174	-57.4	-78.1	276	16
2023-09-17T18:00	13002	174	-57.4	-78.2	276	16
2023-09-17T18:00	13025	173	-57.3	-78.3	275	17
2023-09-17T18:00	13048	173	-57.4	-78.5	275	17
2023-09-17T18:00	13070	172	-57.5	-78.5	275	18
2023-09-17T18:00	13094	171	-57.6	-78.6	275	18
2023-09-17T18:00	13117	171	-57.7	-78.6	275	18
2023-09-17T18:00	13147	170	-57.9	-78.7	275	18
2023-09-17T18:00	13177	169	-58.2	-78.9	275	19
2023-09-17T18:00	13203	168	-58.4	-78.9	275	19
2023-09-17T18:00	13229	168	-58.7	-79.0	275	20
2023-09-17T18:00	13254	167	-58.9	-79.1	275	20
2023-09-17T18:00	13276	166	-59.1	-79.2	274	21
2023-09-17T18:00	13300	166	-59.3	-79.6	275	22
2023-09-17T18:00	13320	165	-59.0	-79.8	275	22
2023-09-17T18:00	13340	165	-58.2	-79.7	276	22
2023-09-17T18:00	13361	164	-57.9	-80.0	276	22
2023-09-17T18:00	13384	164	-57.4		277	21
2023-09-17T18:00	13404	163	-57.1	-80.3	277	21
2023-09-17T18:00	13427	162	-56.9	-80.3	278	21
2023-09-17T18:00	13448	162	-56.9	-80.3	277	20
2023-09-17T18:00	13471	161	-56.9	-80.3	277	19
2023-09-17T18:00	13491	161	-57.0	-80.6	277	19
2023-09-17T18:00	13513	160	-56.7	-80.3	278	18
2023-09-17T18:00	13534	160	-56.6	-80.4	278	18
2023-09-17T18:00	13556	159	-56.5	-80.4	279	17
2023-09-17T18:00	13575	159	-56.5	-80.6	279	17
2023-09-17T18:00	13596	158	-56.6	-80.6	279	17
2023-09-17T18:00	13618	158	-56.7	-80.7	278	16
2023-09-17T18:00	13637	157	-56.7	-80.7	277	16
2023-09-17T18:00	13660	157	-56.8	-80.8	276	15
2023-09-17T18:00	13681	156	-56.8	-80.8	274	15
2023-09-17T18:00	13702	156	-56.9	-81.1	273	15
2023-09-17T18:00	13723	155	-57.0	-81.2	273	15
2023-09-17T18:00	13743	155	-57.1	-81.2	274	15
2023-09-17T18:00	13766	154	-56.9	-81.3	275	15
2023-09-17T18:00	13787	154	-56.7	-81.2	277	15
2023-09-17T18:00	13805	153	-56.8	-81.5	278	15
2023-09-17T18:00	13827	153	-56.9	-81.5	280	16
2023-09-17T18:00	13848	152	-56.9	-81.5	281	16
2023-09-17T18:00	13868	152	-56.8	-81.7	282	16
2023-09-17T18:00	13888	151	-56.9	-81.8	282	16
2023-09-17T18:00	13912	151	-56.6	-81.5	282	16
2023-09-17T18:00	13929	150	-56.5	-81.7	281	16
2023-09-17T18:00	13949	150	-56.5	-81.7	281	15
2023-09-17T18:00	13969	149	-56.5	-81.7	280	15
2023-09-17T18:00	13991	149	-56.5	-81.7	280	15
2023-09-17T18:00	14010	148	-56.5	-81.7	279	15
2023-09-17T18:00	14032	148	-56.4	-81.6	278	15
2023-09-17T18:00	14051	147	-56.4	-81.6	276	14
2023-09-17T18:00	14073	147	-56.5	-81.7	273	14
2023-09-17T18:00	14095	146	-56.5	-81.7	270	14
2023-09-17T18:00	14121	146	-56.4	-81.6	266	15
2023-09-17T18:00	14142	145	-56.5	-81.7	263	15
2023-09-17T18:00	14163	145	-56.5	-82.0	261	16
2023-09-17T18:00	14190	144	-56.2	-82.0	260	16
2023-09-17T18:00	14208	144	-55.8	-81.7	260	16
2023-09-17T18:00	14232	143	-55.8	-82.0	261	16
2023-09-17T18:00	14253	143	-55.4	-81.9	262	16
2023-09-17T18:00	14276	142	-55.3	-81.9	264	16
2023-09-17T18:00	14294	142	-55.1	-82.0	265	16
2023-09-17T18:00	14317	141	-55.0	-81.9	266	16
2023-09-17T18:00	14341	141	-54.9	-81.9	267	17
2023-09-17T18:00	14364	140	-54.9	-81.9	267	17
2023-09-17T18:00	14387	140	-54.6	-81.9	267	17
2023-09-17T18:00	14411	139	-54.7	-81.7	268	17
2023-09-17T18:00	14436	139	-54.9	-81.9	268	17
2023-09-17T18:00	14458	138	-55.0	-81.9	268	16
2023-09-17T18:00	14479	138	-55.2	-82.1	269	16
2023-09-17T18:00	14503	137	-55.4	-82.2	269	16
2023-09-17T18:00	14526	137	-55.6	-82.1	269	15
2023-09-17T18:00	14549	136	-55.7	-82.2	268	15
2023-09-17T18:00	14574	136	-55.7	-82.2	268	14
2023-09-17T18:00	14597	135	-55.7	-82.2	269	14
2023-09-17T18:00	14621	135	-55.8	-82.2	269	14
2023-09-17T18:00	14644	134	-56.0	-82.4	271	14
2023-09-17T18:00	14668	134	-56.1	-82.5	272	14
2023-09-17T18:00	14689	133	-56.2	-82.6	273	14
2023-09-17T18:00	14716	133	-56.3	-82.6	273	14
2023-09-17T18:00	14736	132	-56.4	-82.7	273	14
2023-09-17T18:00	14760	132	-56.5	-82.8	273	14
2023-09-17T18:00	14783	131	-56.4	-82.7	272	14
2023-09-17T18:00	14807	131	-56.3	-82.6	271	13
2023-09-17T18:00	14828	130	-56.1	-82.5	270	13
2023-09-17T18:00	14854	130	-56.2	-82.6	268	13
2023-09-17T18:00	14876	129	-56.3	-82.6	265	13
2023-09-17T18:00	14899	129	-56.4	-82.7	263	13
2023-09-17T18:00	14922	128	-56.4	-82.7	260	14
2023-09-17T18:00	14946	128	-56.3	-82.6	258	14
2023-09-17T18:00	14969	127	-56.4	-82.7	257	14
2023-09-17T18:00	14991	127	-56.4	-82.7	256	15
2023-09-17T18:00	15013	127	-56.4	-83.0	256	15
2023-09-17T18:00	15037	126	-56.0	-82.7	256	15
2023-09-17T18:00	15059	126	-55.5	-82.3	257	15
2023-09-17T18:00	15081	125	-55.7	-82.5	258	15
2023-09-17T18:00	15103	125	-55.8	-82.5	259	15
2023-09-17T18:00	15128	124	-56.0	-82.7	260	15
2023-09-17T18:00	15153	124	-56.1	-82.8	262	15
2023-09-17T18:00	15173	123	-55.9	-82.6	263	15
2023-09-17T18:00	15197	123	-55.7	-82.5	264	15
2023-09-17T18:00	15219	123	-55.5	-82.3	264	15
2023-09-17T18:00	15241	122	-55.6	-82.7	264	16
2023-09-17T18:00	15264	122	-55.5	-82.3	263	16
2023-09-17T18:00	15286	121	-55.6	-82.4	262	16
2023-09-17T18:00	15308	121	-55.7	-82.5	262	16
2023-09-17T18:00	15330	120	-55.8	-82.5	262	16
2023-09-17T18:00	15352	120	-55.8	-82.5	262	16
2023-09-17T18:00	15375	120	-56.0	-82.7	262	16
2023-09-17T18:00	15398	119	-56.2	-82.6	263	17
2023-09-17T18:00	15424	119	-56.2	-82.6	263	17
2023-09-17T18:00	15448	118	-56.3	-82.6	263	17
2023-09-17T18:00	15472	118	-56.4	-82.7	264	17
2023-09-17T18:00	15497	117	-56.5	-82.8	264	17
2023-09-17T18:00	15521	117	-56.4	-82.4	265	17
2023-09-17T18:00	15544	116	-56.6	-82.6	266	17
2023-09-17T18:00	15563	116	-56.7	-82.7	267	17
2023-09-17T18:00	15586	116	-56.8	-82.7	268	17
2023-09-17T18:00	15608	115	-56.9	-82.8	269	16
2023-09-17T18:00	15631	115	-56.9	-82.8	269	16
2023-09-17T18:00	15653	114	-57.0	-82.9	269	16
2023-09-17T18:00	15674	114	-57.1	-83.0	269	16
2023-09-17T18:00	15695	114	-57.2	-83.0	268	15
2023-09-17T18:00	15715	113	-57.4	-83.2	267	15
2023-09-17T18:00	15739	113	-57.4	-83.2	266	14
2023-09-17T18:00	15762	112	-57.2	-83.0	264	14
2023-09-17T18:00	15786	112	-57.3	-83.1	262	13
2023-09-17T18:00	15809	112	-57.4	-83.2	260	13
2023-09-17T18:00	15831	111	-57.6	-83.3	258	12
2023-09-17T18:00	15853	111	-57.8	-83.5	257	12
2023-09-17T18:00	15875	111	-57.9	-83.6	256	12
2023-09-17T18:00	15899	110	-57.9	-83.6	255	12
2023-09-17T18:00	15918	110	-57.9	-83.6	255	13
2023-09-17T18:00	15943	109	-57.9	-83.6	256	13
2023-09-17T18:00	15967	109	-57.5	-83.3	256	13
2023-09-17T18:00	15989	109	-57.5	-83.6	257	14
2023-09-17T18:00	16012	108	-57.3	-83.4	258	14
2023-09-17T18:00	16033	108	-57.5	-83.6	259	14
2023-09-17T18:00	16058	107	-57.6	-83.9	260	14
2023-09-17T18:00	16079	107	-57.4	-83.8	261	14
2023-09-17T18:00	16101	107	-57.3	-83.7	262	14
2023-09-17T18:00	16124	106	-57.3	-83.7	263	14
2023-09-17T18:00	16146	106	-57.3	-83.7	263	14
2023-09-17T18:00	16169	106	-57.3	-83.7	264	14
2023-09-17T18:00	16191	105	-57.2	-83.6	265	14
2023-09-17T18:00	16213	105	-57.2	-83.6	267	14
2023-09-17T18:00	16236	104	-57.0	-83.8	269	14
2023-09-17T18:00	16257	104	-56.9	-83.7	271	14
2023-09-17T18:00	16281	104	-57.0	-83.8	274	13
2023-09-17T18:00	16304	103	-57.1	-83.9	276	13
2023-09-17T18:00	16327	103	-57.1	-83.9	278	13
2023-09-17T18:00	16350	103	-57.2	-83.9	279	13
2023-09-17T18:00	16372	102	-57.2	-84.3	280	13
2023-09-17T18:00	16393	102	-57.2	-84.3	280	13
2023-09-17T18:00	16419	101	-57.0	-84.1	279	13
2023-09-17T18:00	16441	101	-57.1	-83.9	278	12
2023-09-17T18:00	16463	101	-57.2	-83.9	277	12
2023-09-17T18:00	16487	100	-57.2	-83.9	277	12
2023-09-17T18:00	16509	100	-57.3	-84.0	277	11
2023-09-17T18:00	16534	100	-57.4	-84.1	276	11
2023-09-17T18:00	16557	99	-57.4	-84.1	275	11
2023-09-17T18:00	16583	99	-57.5	-84.2	274	11
2023-09-17T18:00	16604	98	-57.5	-84.2	273	12
2023-09-17T18:00	16627	98	-57.6	-84.3	271	12
2023-09-17T18:00	16650	98	-57.6	-84.3	270	12
2023-09-17T18:00	16672	97	-57.6	-84.6	269	13
2023-09-17T18:00	16694	97	-57.5	-84.5	269	13
2023-09-17T18:00	16717	97	-57.6	-84.6	268	14
2023-09-17T18:00	16740	96	-57.5	-84.9	269	14
2023-09-17T18:00	16763	96	-57.3	-84.7	270	14
2023-09-17T18:00	16783	96	-57.2	-84.6	271	15
2023-09-17T18:00	16805	95	-57.3	-84.7	272	15
2023-09-17T18:00	16828	95	-57.3	-84.7	273	15
2023-09-17T18:00	16853	95	-57.3	-84.7	275	16
2023-09-17T18:00	16873	94	-57.4	-84.8	276	16
2023-09-17T18:00	16896	94	-57.5	-84.9	277	16
2023-09-17T18:00	16920	94	-57.5	-85.2	278	16
2023-09-17T18:00	16944	93	-56.8	-85.1	280	16
2023-09-17T18:00	16965	93	-56.5	-84.9	281	15
2023-09-17T18:00	16990	93	-56.3	-84.7	282	14
2023-09-17T18:00	17015	92	-56.4	-84.8	283	14
2023-09-17T18:00	17036	92	-56.4	-84.8	284	13
2023-09-17T18:00	17061	92	-56.6	-84.9	284	12
2023-09-17T18:00	17082	91	-56.8	-85.1	284	12
2023-09-17T18:00	17106	91	-56.8	-85.1	284	11
2023-09-17T18:00	17132	91	-56.9	-85.2	283	11
2023-09-17T18:00	17155	90	-56.9	-85.2	282	11
2023-09-17T18:00	17178	90	-57.0	-85.2	280	11
2023-09-17T18:00	17197	90	-57.0	-85.2	279	11
2023-09-17T18:00	17222	89	-57.1	-84.9	277	12
2023-09-17T18:00	17245	89	-57.2	-85.0	277	12
2023-09-17T18:00	17272	89	-57.3	-85.1	277	12
2023-09-17T18:00	17294	88	-57.4	-85.6	277	12
2023-09-17T18:00	17319	88	-57.3	-85.5	277	12
2023-09-17T18:00	17340	88	-57.3	-85.5	277	12
2023-09-17T18:00	17365	87	-57.3	-85.5	277	12
2023-09-17T18:00	17387	87	-57.3	-85.5	277	12
2023-09-17T18:00	17410	87	-57.3	-85.5	275	12
2023-09-17T18:00	17438	86	-57.3	-85.5	274	12
2023-09-17T18:00	17458	86	-57.2	-85.4	271	11
2023-09-17T18:00	17483	86	-57.1	-85.3	268	11
2023-09-17T18:00	17506	85	-57.3	-85.5	265	11
2023-09-17T18:00	17536	85	-57.5	-85.6	263	11
2023-09-17T18:00	17554	85	-57.7	-85.8	260	11
2023-09-17T18:00	17580	84	-57.8	-85.9	258	11
2023-09-17T18:00	17602	84	-58.0	-86.0	256	11
2023-09-17T18:00	17627	84	-58.1	-85.7	255	12
2023-09-17T18:00	17650	83	-58.2	-85.8	255	12
2023-09-17T18:00	17674	83	-58.4	-85.9	255	12
2023-09-17T18:00	17696	83	-58.5	-86.0	257	13
2023-09-17T18:00	17722	83	-58.7	-86.1	258	13
2023-09-17T18:00	17745	82	-58.8	-86.2	260	14
2023-09-17T18:00	17767	82	-58.7	-86.1	261	14
2023-09-17T18:00	17790	82	-58.7	-86.1	263	15
2023-09-17T18:00	17813	81	-58.7	-86.1	265	15
2023-09-17T18:00	17839	81	-58.7	-86.5	267	15
2023-09-17T18:00	17859	81	-58.6	-86.5	269	15
2023-09-17T18:00	17885	80	-58.3	-86.2	270	15
2023-09-17T18:00	17905	80	-58.3	-86.7	271	14
2023-09-17T18:00	17930	80	-58.2	-86.6	270	14
2023-09-17T18:00	17953	80	-58.1	-86.5	269	14
2023-09-17T18:00	17977	79	-57.9	-86.4	268	14
2023-09-17T18:00	17998	79	-57.8	-86.7	266	14
2023-09-17T18:00	18024	79	-57.3	-86.4	264	14
2023-09-17T18:00	18049	78	-57.3	-86.4	263	15
2023-09-17T18:00	18072	78	-57.1	-86.7	262	15
2023-09-17T18:00	18093	78	-56.6	-86.3	261	16
2023-09-17T18:00	18115	78	-56.4	-86.2	260	16
2023-09-17T18:00	18139	77	-56.3	-86.1	260	16
2023-09-17T18:00	18158	77	-56.4	-86.2	260	17
2023-09-17T18:00	18181	77	-56.6	-85.8	261	17
2023-09-17T18:00	18204	76	-56.7	-85.9	261	17
2023-09-17T18:00	18228	76	-56.8	-86.0	263	17
2023-09-17T18:00	18249	76	-56.9	-86.1	265	17
2023-09-17T18:00	18273	76	-57.1	-86.2	266	17
2023-09-17T18:00	18293	75	-57.1	-86.2	268	17
2023-09-17T18:00	18313	75	-56.9	-86.1	270	17
2023-09-17T18:00	18336	75	-56.6	-86.3	271	17
2023-09-17T18:00	18362	75	-56.6	-86.3	271	16
2023-09-17T18:00	18380	74	-56.6	-86.3	271	16
2023-09-17T18:00	18406	74	-56.6	-86.3	271	16
2023-09-17T18:00	18433	74	-56.5	-86.3	270	15
2023-09-17T18:00	18452	74	-56.6	-86.3	270	15
2023-09-17T18:00	18473	73	-56.7	-86.4	270	15
2023-09-17T18:00	18495	73	-56.4	-86.2	271	15
2023-09-17T18:00	18515	73	-56.4	-86.2	271	15
2023-09-17T18:00	18540	73	-56.5	-86.3	272	15
2023-09-17T18:00	18564	72	-56.7	-85.9	272	15
2023-09-17T18:00	18585	72	-56.9	-86.1	271	15
2023-09-17T18:00	18609	72	-56.9	-86.6	270	15
2023-09-17T18:00	18635	71	-56.6	-86.3	269	15
2023-09-17T18:00	18655	71	-56.6	-86.3	267	15
2023-09-17T18:00	18678	71	-56.7	-86.4	267	15
2023-09-17T18:00	18699	71	-56.7	-86.4	268	15
2023-09-17T18:00	18721	70	-56.5	-86.3	270	15
2023-09-17T18:00	18744	70	-56.5	-86.3	273	16
2023-09-17T18:00	18766	70	-56.3	-86.1	277	16
2023-09-17T18:00	18792	70	-55.8	-86.3	281	16
2023-09-17T18:00	18817	69	-55.7	-86.2	285	16
2023-09-17T18:00	18838	69	-55.6	-86.1	289	16
2023-09-17T18:00	18867	69	-55.6	-86.1	293	16
2023-09-17T18:00	18891	69	-55.6	-86.1	296	15
2023-09-17T18:00	18915	68	-55.7	-86.2	299	15
2023-09-17T18:00	18940	68	-55.7	-86.2	303	15
2023-09-17T18:00	18965	68	-55.6	-86.1	306	15
2023-09-17T18:00	18988	68	-55.6	-86.1	309	15
2023-09-17T18:00	19010	67	-55.4	-86.0	311	15
2023-09-17T18:00	19035	67	-55.1	-85.8	313	14
2023-09-17T18:00	19057	67	-55.1	-85.8	313	14
2023-09-17T18:00	19083	67	-55.2	-85.8	314	14
2023-09-17T18:00	19105	66	-55.3	-85.9	314	14
2023-09-17T18:00	19129	66	-55.5	-86.1	314	13
2023-09-17T18:00	19152	66	-55.7	-85.7	314	13
2023-09-17T18:00	19179	66	-55.8	-85.7	315	12
2023-09-17T18:00	19206	65	-55.9	-85.8	316	12
2023-09-17T18:00	19228	65	-56.0	-85.9	318	11
2023-09-17T18:00	19257	65	-56.1	-86.0	319	10
2023-09-17T18:00	19280	65	-56.0	-85.9	320	9
2023-09-17T18:00	19306	64	-56.1	-86.0	320	9
2023-09-17T18:00	19330	64	-56.1	-86.0	319	8
2023-09-17T18:00	19353	64	-56.2	-86.0	318	8
2023-09-17T18:00	19378	64	-56.3	-86.1	317	8
2023-09-17T18:00	19403	63	-56.5	-86.3	317	7
2023-09-17T18:00	19426	63	-56.7	-86.4	316	7
2023-09-17T18:00	19448	63	-56.9	-86.1	314	7
2023-09-17T18:00	19470	63	-57.0	-86.1	312	6
2023-09-17T18:00	19496	62	-57.2	-86.3	308	6
2023-09-17T18:00	19524	62	-57.3	-86.4	301	6
2023-09-17T18:00	19549	62	-57.3	-86.4	293	6
2023-09-17T18:00	19574	62	-57.3	-86.4	283	6
2023-09-17T18:00	19599	61	-57.4	-86.4	274	6
2023-09-17T18:00	19622	61	-57.5	-86.5	267	6
2023-09-17T18:00	19645	61	-57.5	-87.0	262	7
2023-09-17T18:00	19675	61	-57.1	-86.7	259	8
2023-09-17T18:00	19696	60	-57.2	-86.3	258	8
2023-09-17T18:00	19721	60	-57.4	-86.4	258	9
2023-09-17T18:00	19743	60	-57.5	-86.5	259	10
2023-09-17T18:00	19768	60	-57.7	-86.7	259	10
2023-09-17T18:00	19796	60	-57.8	-86.7	259	11
2023-09-17T18:00	19818	59	-57.7	-86.7	259	11
2023-09-17T18:00	19839	59	-57.7	-86.7	258	11
2023-09-17T18:00	19863	59	-57.8	-86.7	257	10
2023-09-17T18:00	19888	59	-57.7	-87.2	255	10
2023-09-17T18:00	19911	58	-57.4	-86.4	252	9
2023-09-17T18:00	19935	58	-57.5	-86.5	250	9
2023-09-17T18:00	19959	58	-57.7	-86.7	249	9
2023-09-17T18:00	19986	58	-57.8	-86.7	250	9
2023-09-17T18:00	20008	58	-58.0	-86.9	251	9
2023-09-17T18:00	20030	57	-57.9	-86.8	252	10
2023-09-17T18:00	20054	57	-58.0	-86.9	253	10
2023-09-17T18:00	20081	57	-58.1	-87.0	253	11
2023-09-17T18:00	20104	57	-58.2	-87.0	253	11
2023-09-17T18:00	20129	56	-58.0	-86.9	252	12
2023-09-17T18:00	20151	56	-57.7	-87.2	251	12
2023-09-17T18:00	20171	56	-57.5	-87.0	251	13
2023-09-17T18:00	20200	56	-57.2	-86.8	252	13
2023-09-17T18:00	20225	56	-57.3	-86.9	253	13
2023-09-17T18:00	20247	55	-57.5	-87.0	255	14
2023-09-17T18:00	20274	55	-57.6	-87.1	257	14
2023-09-17T18:00	20300	55	-57.5	-86.5	259	14
2023-09-17T18:00	20321	55	-57.6	-86.6	261	15
2023-09-17T18:00	20345	55	-57.8	-86.7	263	15
2023-09-17T18:00	20371	54	-58.0	-86.9	264	15
2023-09-17T18:00	20396	54	-58.1	-87.0	266	15
2023-09-17T18:00	20414	54	-58.3	-86.7	267	16
2023-09-17T18:00	20443	54	-58.5	-86.8	269	16
2023-09-17T18:00	20465	53	-58.4	-87.2	270	15
2023-09-17T18:00	20490	53	-58.4	-87.2	271	15
2023-09-17T18:00	20516	53	-58.3	-87.1	272	15
2023-09-17T18:00	20542	53	-58.3	-87.1	272	14
2023-09-17T18:00	20563	53	-58.2	-87.0	272	13
2023-09-17T18:00	20585	52	-58.0	-86.9	272	13
2023-09-17T18:00	20611	52	-58.0	-86.9	271	12
2023-09-17T18:00	20641	52	-58.2	-87.5	271	11
2023-09-17T18:00	20662	52	-58.2	-87.5	270	11
2023-09-17T18:00	20683	52	-57.9	-87.3	270	11
2023-09-17T18:00	20711	51	-57.8	-87.2	270	11
2023-09-17T18:00	20730	51	-57.5	-87.0	271	12
2023-09-17T18:00	20757	51	-57.2	-87.3	273	12
2023-09-17T18:00	20781	51	-56.9	-87.1	275	13
2023-09-17T18:00	20806	51	-56.9	-87.1	278	13
2023-09-17T18:00	20835	50	-56.4		280	14
2023-09-17T18:00	20852	50	-56.4		283	13
2023-09-17T18:00	20883	50	-56.3	-86.6	286	13
2023-09-17T18:00	20906	50	-56.3	-86.6	289	13
2023-09-17T18:00	20930	50	-56.2	-86.6	292	12
2023-09-17T18:00	20952	50	-55.9	-86.3	296	12
2023-09-17T18:00	20979	49	-55.9	-86.3	299	12
2023-09-17T18:00	21005	49	-55.8	-86.3	301	11
2023-09-17T18:00	21026	49	-55.8	-86.3	304	11
2023-09-17T18:00	21049	49	-55.8	-86.3	306	11
2023-09-17T18:00	21076	49	-55.9	-86.3	308	10
2023-09-17T18:00	21100	48	-56.0	-86.4	310	10
2023-09-17T18:00	21129	48	-56.1	-86.5	311	10
2023-09-17T18:00	21155	48	-56.3	-86.1	312	10
2023-09-17T18:00	21177	48	-56.4	-86.2	312	10
2023-09-17T18:00	21202	48	-56.4	-86.2	310	10
2023-09-17T18:00	21226	47	-56.4	-86.2	308	10
2023-09-17T18:00	21251	47	-56.6	-86.3	306	9
2023-09-17T18:00	21273	47	-56.7	-86.4	304	9
2023-09-17T18:00	21295	47	-56.7	-86.4	302	9
2023-09-17T18:00	21320	47	-56.6	-86.3	301	9
2023-09-17T18:00	21342	47	-56.6	-86.3	300	8
2023-09-17T18:00	21368	46	-56.7	-86.4	298	8
2023-09-17T18:00	21391	46	-56.7	-86.4	295	8
2023-09-17T18:00	21417	46	-56.7	-86.9	293	8
2023-09-17T18:00	21437	46	-56.7	-86.9	291	9
2023-09-17T18:00	21466	46	-56.8	-87.0	289	9
2023-09-17T18:00	21489	46	-56.7	-86.9	290	9
2023-09-17T18:00	21509	45	-56.7	-86.9	291	9
2023-09-17T18:00	21534	45	-56.5	-86.8	294	9
2023-09-17T18:00	21561	45	-56.5	-86.8	297	9
2023-09-17T18:00	21583	45	-56.6	-86.9	301	9
2023-09-17T18:00	21605	45	-56.7	-86.4	305	9
2023-09-17T18:00	21634	45	-56.7	-86.4	310	9
2023-09-17T18:00	21656	44	-56.8	-86.5	314	9
2023-09-17T18:00	21680	44	-56.9	-86.6	318	8
2023-09-17T18:00	21699	44	-56.9	-86.6	321	8
2023-09-17T18:00	21723	44	-57.0	-86.6	325	8
2023-09-17T18:00	21751	44	-57.0	-86.6	328	7
2023-09-17T18:00	21778	43	-56.9	-86.6	330	7
2023-09-17T18:00	21801	43	-57.0	-86.6	332	7
2023-09-17T18:00	21833	43	-57.0	-86.6	333	7
2023-09-17T18:00	21852	43	-57.1	-86.7	333	7
2023-09-17T18:00	21878	43	-57.0	-86.6	333	7
2023-09-17T18:00	21901	43	-57.0	-86.6	332	7
2023-09-17T18:00	21923	42	-57.0	-86.6	331	6
2023-09-17T18:00	21954	42	-57.1	-86.7	330	6
2023-09-17T18:00	21976	42	-57.2	-86.8	328	5
2023-09-17T18:00	22005	42	-57.4	-86.9	327	5
2023-09-17T18:00	22030	42	-57.5	-87.0	324	5
2023-09-17T18:00	22059	42	-57.6	-87.1	321	4
2023-09-17T18:00	22081	41	-57.6	-87.1	317	4
2023-09-17T18:00	22108	41	-57.7	-87.2	312	4
2023-09-17T18:00	22133	41	-57.6	-87.1	306	4
2023-09-17T18:00	22163	41	-57.7	-87.2	300	4
2023-09-17T18:00	22185	41	-57.7	-87.2	294	5
2023-09-17T18:00	22209	41	-57.7	-87.2	290	5
2023-09-17T18:00	22240	40	-57.8	-87.2	287	6
2023-09-17T18:00	22263	40	-57.8	-87.2	284	6
2023-09-17T18:00	22289	40	-57.8	-87.2	281	6
2023-09-17T18:00	22318	40	-57.7	-87.2	278	6
2023-09-17T18:00	22339	40	-57.7	-87.2	274	6
2023-09-17T18:00	22359	40	-57.7	-87.2	272	6
2023-09-17T18:00	22394	39	-57.7	-87.2	270	6
2023-09-17T18:00	22414	39	-57.8	-87.2	271	6
2023-09-17T18:00	22444	39	-57.8	-87.2	273	7
2023-09-17T18:00	22470	39	-57.7	-87.2	277	7
2023-09-17T18:00	22497	39	-57.7	-87.2	282	7
2023-09-17T18:00	22518	39	-57.7	-87.2	286	7
2023-09-17T18:00	22551	38	-57.7	-87.2	289	7
2023-09-17T18:00	22570	38	-57.6	-87.6	290	7
2023-09-17T18:00	22597	38	-57.3	-87.4	290	7
2023-09-17T18:00	22625	38	-57.2	-87.3	288	7
2023-09-17T18:00	22649	38	-57.2	-87.3	287	7
2023-09-17T18:00	22672	38	-57.2	-87.3	286	8
2023-09-17T18:00	22701	38	-57.0	-87.2	286	8
2023-09-17T18:00	22724	37	-56.9	-87.1	288	8
2023-09-17T18:00	22753	37	-56.7	-86.9	290	8
2023-09-17T18:00	22771	37	-56.6	-86.9	292	8
2023-09-17T18:00	22805	37	-56.4		294	8
2023-09-17T18:00	22829	37	-56.5	-86.8	295	8
2023-09-17T18:00	22852	37	-56.5	-86.8	296	8
2023-09-17T18:00	22882	37	-56.7	-86.9	298	7
2023-09-17T18:00	22905	36	-56.8	-87.0	299	7
2023-09-17T18:00	22930	36	-56.7	-86.9	301	7
2023-09-17T18:00	22961	36	-56.7	-86.9	303	7
2023-09-17T18:00	22992	36	-56.8	-86.5	304	7
2023-09-17T18:00	23018	36	-56.8	-86.5	304	7
2023-09-17T18:00	23041	36	-56.9	-87.1	303	7
2023-09-17T18:00	23068	35	-56.9	-87.1	302	7
2023-09-17T18:00	23089	35	-56.8	-87.0	300	7
2023-09-17T18:00	23120	35	-56.8	-87.0	297	6
2023-09-17T18:00	23150	35	-56.7	-86.9	294	6
2023-09-17T18:00	23168	35	-56.6	-86.9	291	6
2023-09-17T18:00	23197	35	-56.4		289	6
2023-09-17T18:00	23226	35	-56.4		288	6
2023-09-17T18:00	23257	34	-56.3	-86.6	288	6
2023-09-17T18:00	23281	34	-56.3	-86.6	289	6
2023-09-17T18:00	23310	34	-56.4		291	6
2023-09-17T18:00	23335	34	-56.4		294	6
2023-09-17T18:00	23362	34	-56.3	-86.6	298	5
2023-09-17T18:00	23388	34	-56.1	-86.5	302	5
2023-09-17T18:00	23419	34	-56.1	-86.5	306	4
2023-09-17T18:00	23439	33	-56.2	-86.6	308	4
2023-09-17T18:00	23475	33	-56.4		308	3
2023-09-17T18:00	23496	33	-56.5	-86.8	304	3
2023-09-17T18:00	23525	33	-56.4		298	3
2023-09-17T18:00	23549	33	-56.6	-86.9	291	3
2023-09-17T18:00	23577	33	-56.6	-86.9	287	4
2023-09-17T18:00	23601	33	-56.5	-86.8	284	4
2023-09-17T18:00	23630	32	-56.5	-86.8	283	5
2023-09-17T18:00	23659	32	-56.6	-86.9	282	5
2023-09-17T18:00	23684	32	-56.7	-86.9	281	5
2023-09-17T18:00	23710	32	-56.6	-86.9	279	5
2023-09-17T18:00	23737	32	-56.4		278	5
2023-09-17T18:00	23762	32	-56.5	-86.8	277	4
2023-09-17T18:00	23789	32	-56.4	-87.3	277	4
2023-09-17T18:00	23812	32	-56.2	-87.2	277	5
2023-09-17T18:00	23835	31	-56.0	-87.0	278	5
2023-09-17T18:00	23862	31	-55.7	-86.8	280	6
2023-09-17T18:00	23895	31	-55.5	-86.7	282	6
2023-09-17T18:00	23915	31	-55.5	-86.7	285	7
2023-09-17T18:00	23947	31	-55.6	-86.7	288	8
2023-09-17T18:00	23974	31	-55.7	-86.8	291	9
2023-09-17T18:00	24002	31	-55.8	-86.9	294	10
2023-09-17T18:00	24027	30	-55.8	-86.9	298	11
2023-09-17T18:00	24048	30	-55.5	-86.7	301	11
2023-09-17T18:00	24077	30	-55.1	-86.4	304	10
2023-09-17T18:00	24101	30	-55.0	-86.3	306	10
2023-09-17T18:00	24131	30	-55.0	-86.3	307	10
2023-09-17T18:00	24159	30	-55.0	-86.3	307	9
2023-09-17T18:00	24188	30	-55.1	-86.4	306	9
2023-09-17T18:00	24209	30	-55.1	-86.4	305	8
2023-09-17T18:00	24240	30	-55.0	-86.3	304	8
2023-09-17T18:00	24263	29	-55.0	-86.3	303	7
2023-09-17T18:00	24292	29	-55.0	-86.3	301	7
2023-09-17T18:00	24323	29	-54.9	-86.2	300	6
2023-09-17T18:00	24344	29	-54.9	-86.2	299	6
2023-09-17T18:00	24363	29	-54.8	-86.1	300	7
2023-09-17T18:00	24396	29	-54.7	-86.1	302	7
2023-09-17T18:00	24423	29	-54.5	-86.6	305	8
2023-09-17T18:00	24443	29	-54.5	-86.6	309	8
2023-09-17T18:00	24469	28	-54.5	-86.6	313	9
2023-09-17T18:00	24500	28	-54.3	-86.4	318	10
2023-09-17T18:00	24521	28	-54.1	-86.3	323	10
2023-09-17T18:00	24556	28	-54.1	-86.3	327	10
2023-09-17T18:00	24575	28	-53.9	-86.2	329	11
2023-09-17T18:00	24610	28	-53.8	-86.1	331	10
2023-09-17T18:00	24631	28	-53.8	-86.1	332	10
2023-09-17T18:00	24648	28	-53.9	-86.2	332	10
2023-09-17T18:00	24679	28	-54.1	-85.6	333	9
2023-09-17T18:00	24711	27	-54.1	-85.6	333	9
2023-09-17T18:00	24735	27	-54.1	-85.6	334	8
2023-09-17T18:00	24761	27	-54.2	-85.7	334	8
2023-09-17T18:00	24782	27	-54.3	-85.8	335	8
2023-09-17T18:00	24809	27	-54.3	-85.8	334	7
2023-09-17T18:00	24848	27	-54.4	-85.8	334	7
2023-09-17T18:00	24866	27	-54.4	-85.8	333	7
2023-09-17T18:00	24898	27	-54.4	-85.8	333	6
2023-09-17T18:00	24922	27	-54.4	-85.8	333	6
2023-09-17T18:00	24948	26	-54.5	-85.9	335	6
2023-09-17T18:00	24968	26	-54.6	-86.0	338	6
2023-09-17T18:00	24998	26	-54.4	-85.8	341	6
2023-09-17T18:00	25027	26	-54.4	-85.8	342	6
2023-09-17T18:00	25050	26	-54.5	-85.9	343	5
2023-09-17T18:00	25079	26	-54.7	-86.1	342	5
2023-09-17T18:00	25100	26	-54.9	-86.2	340	4
2023-09-17T18:00	25138	26	-54.9	-86.2	337	4
2023-09-17T18:00	25164	26	-55.0	-86.3	337	3
2023-09-17T18:00	25185	25	-55.0	-86.3	337	3
2023-09-17T18:00	25207	25	-55.0	-86.3	338	3
2023-09-17T18:00	25238	25	-55.1	-86.4	339	3
2023-09-17T18:00	25268	25	-55.0	-86.3	337	3
2023-09-17T18:00	25297	25	-55.0	-86.3	332	3
2023-09-17T18:00	25322	25	-54.7	-86.1	323	2
2023-09-17T18:00	25352	25	-54.6	-86.0	311	2
2023-09-17T18:00	25374	25	-54.7	-86.1	296	2
2023-09-17T18:00	25395	25	-54.8	-86.1	282	3
2023-09-17T18:00	25430	25	-54.9	-86.2	273	3
2023-09-17T18:00	25454	24	-54.9	-86.2	267	4
2023-09-17T18:00	25478	24	-54.9	-86.2	264	5
2023-09-17T18:00	25514	24	-54.7	-86.1	263	5
2023-09-17T18:00	25536	24	-54.6	-86.0	263	6
2023-09-17T18:00	25567	24	-54.7	-86.7	264	6
2023-09-17T18:00	25595	24	-54.8	-86.8	267	6
2023-09-17T18:00	25621	24	-54.5	-86.6	270	6
2023-09-17T18:00	25647	24	-54.2	-86.4	275	6
2023-09-17T18:00	25673	24	-54.0	-86.2	280	6
2023-09-17T18:00	25702	23	-53.9	-86.2	284	6
2023-09-17T18:00	25737	23	-54.0	-86.2	287	6
2023-09-17T18:00	25754	23	-54.1	-86.3	288	6
2023-09-17T18:00	25786	23	-54.2	-86.4	289	6
2023-09-17T18:00	25812	23	-54.2	-86.4	289	7
2023-09-17T18:00	25839	23	-54.2	-86.4	291	7
2023-09-17T18:00	25871	23	-54.1	-85.6	293	8
2023-09-17T18:00	25903	23	-54.3	-85.8	294	8
2023-09-17T18:00	25924	23	-54.4	-85.8	294	9
2023-09-17T18:00	25957	23	-54.3	-85.8	294	9
2023-09-17T18:00	25978	22	-54.3	-86.4	293	9
2023-09-17T18:00	26012	22	-54.3	-86.4	291	9
2023-09-17T18:00	26038	22	-54.3	-86.4	291	9
2023-09-17T18:00	26064	22	-54.3	-86.4	290	9
2023-09-17T18:00	26096	22	-54.4	-86.5	291	9
2023-09-17T18:00	26115	22	-54.3	-86.4	291	9
2023-09-17T18:00	26157	22	-54.3	-86.4	292	9
2023-09-17T18:00	26178	22	-54.4	-86.5	292	9
2023-09-17T18:00	26211	22	-54.4	-86.5	293	9
2023-09-17T18:00	26230	22	-54.5	-85.9	294	8
2023-09-17T18:00	26265	22	-54.4	-85.8	296	8
2023-09-17T18:00	26289	21	-54.4	-85.8	297	8
2023-09-17T18:00	26323	21	-54.5	-86.6	297	8
2023-09-17T18:00	26341	21	-54.6	-86.7	297	8
2023-09-17T18:00	26370	21	-54.5	-86.6	296	8
2023-09-17T18:00	26397	21	-54.3	-86.4	294	9
2023-09-17T18:00	26422	21	-54.1	-86.3	292	8
2023-09-17T18:00	26459	21	-53.9	-86.2	290	8
2023-09-17T18:00	26480	21	-53.8	-86.1	288	8
2023-09-17T18:00	26517	21	-53.7	-86.0	287	8
2023-09-17T18:00	26543	21	-53.7	-86.0	287	8
2023-09-17T18:00	26577	21	-53.5	-85.9	288	8
2023-09-17T18:00	26592	20	-53.3	-85.7	290	8
2023-09-17T18:00	26624	20	-53.3	-85.7	291	8
2023-09-17T18:00	26651	20	-53.3	-85.7	292	9
2023-09-17T18:00	26677	20	-53.5	-85.9	292	9
2023-09-17T18:00	26706	20	-53.5	-85.9	292	10
2023-09-17T18:00	26733	20	-53.4	-85.8	294	10
2023-09-17T18:00	26770	20	-53.3	-85.7	296	10
2023-09-17T18:00	26797	20	-53.3	-85.7	299	10
2023-09-17T18:00	26824	20	-53.3	-85.7	303	9
2023-09-17T18:00	26851	20	-53.2	-85.6	305	9
2023-09-17T18:00	26882	20	-53.1	-86.3	306	9
2023-09-17T18:00	26904	19	-53.0	-86.3	305	8
2023-09-17T18:00	26928	19	-52.4	-85.8	303	8
2023-09-17T18:00	26971	19	-52.2	-85.7	299	8
2023-09-17T18:00	26983	19	-52.0	-85.5	295	8
2023-09-17T18:00	27022	19	-51.8	-85.4	291	8
2023-09-17T18:00	27047	19	-51.7	-85.3	288	8
2023-09-17T18:00	27071	19	-51.9	-85.5	287	8
2023-09-17T18:00	27102	19	-52.0	-85.5	287	8
2023-09-17T18:00	27125	19	-52.0	-85.5	288	8
2023-09-17T18:00	27152	19	-51.9	-85.5	290	8
2023-09-17T18:00	27187	19	-51.3	-85.0	292	8
2023-09-17T18:00	27217	19	-51.0	-85.7	294	8
2023-09-17T18:00	27241	18	-50.9	-85.6	296	8
2023-09-17T18:00	27264	18	-50.8	-85.6	296	9
2023-09-17T18:00	27300	18	-50.7	-85.5	294	9
2023-09-17T18:00	27330	18	-50.5	-85.3	292	9
2023-09-17T18:00	27354	18	-50.5	-85.3	289	10
2023-09-17T18:00	27385	18	-50.4	-85.3	287	10
2023-09-17T18:00	27415	18	-50.0	-85.0	286	10
2023-09-17T18:00	27442	18	-49.8	-84.8	286	10
2023-09-17T18:00	27471	18	-49.7	-84.8	288	10
2023-09-17T18:00	27492	18	-49.7	-84.8	290	10
2023-09-17T18:00	27519	18	-49.6	-84.7	291	10
2023-09-17T18:00	27557	18	-49.6	-84.7	293	10
2023-09-17T18:00	27578	18	-49.6	-84.7	293	9
2023-09-17T18:00	27613	17	-49.4	-84.6	293	9
2023-09-17T18:00	27642	17	-49.4	-84.6	292	9
2023-09-17T18:00	27669	17	-49.5	-84.6	291	8
2023-09-17T18:00	27689	17	-49.5	-84.6	289	8
2023-09-17T18:00	27734	17	-49.6	-84.7	287	8
2023-09-17T18:00	27743	17	-49.5	-83.7	284	8
2023-09-17T18:00	27785	17	-49.5	-83.7	281	8
2023-09-17T18:00	27811	17	-49.6	-83.8	280	8
2023-09-17T18:00	27845	17	-49.7	-83.9	278	8
2023-09-17T18:00	27881	17	-49.7	-83.9	277	9
2023-09-17T18:00	27903	17	-49.8	-84.0	276	9
2023-09-17T18:00	27936	17	-49.7	-83.9	275	9
2023-09-17T18:00	27972	17	-49.7	-83.9	274	10
2023-09-17T18:00	27984	17	-49.8	-84.0	274	10
2023-09-17T18:00	28016	16	-49.8	-84.0	276	10
2023-09-17T18:00	28043	16	-49.8	-84.8	279	10
2023-09-17T18:00	28073	16	-49.7	-84.8	282	11
2023-09-17T18:00	28111	16	-49.8	-84.8	284	11
2023-09-17T18:00	28142	16	-49.9	-84.9	286	12
2023-09-17T18:00	28168	16	-49.7	-84.8	286	13
2023-09-17T18:00	28201	16	-49.3	-84.5	286	13
2023-09-17T18:00	28218	16	-49.3	-84.5	286	14
2023-09-17T18:00	28250	16	-49.3	-84.5	285	13
2023-09-17T18:00	28280	16	-49.1	-84.3	285	13
2023-09-17T18:00	28317	16	-49.1	-84.3	285	12
2023-09-17T18:00	28339	16	-49.1	-84.3	285	11
2023-09-17T18:00	28367	16	-49.2	-84.4	285	10
2023-09-17T18:00	28393	16	-49.2	-84.4	284	10
2023-09-17T18:00	28419	15	-49.3	-84.5	283	10
2023-09-17T18:00	28460	15	-49.4	-84.6	282	10
2023-09-17T18:00	28487	15	-49.3	-84.5	281	10
2023-09-17T18:00	28507	15	-49.1	-84.3	281	11
2023-09-17T18:00	28540	15	-49.1	-84.3	281	11
2023-09-17T18:00	28560	15	-48.9	-84.2	282	12
2023-09-17T18:00	28599	15	-49.1	-84.3	283	13
2023-09-17T18:00	28627	15	-49.1	-84.3	284	13
2023-09-17T18:00	28645	15	-49.2	-84.4	285	13
2023-09-17T18:00	28661	15	-48.6		286	13
2023-09-17T18:00	28711	15	-48.4	-83.8	288	14
2023-09-17T18:00	28739	15	-48.3	-83.8	289	14
2023-09-17T18:00	28752	15	-48.1	-83.6	291	14
2023-09-17T18:00	28780	15	-47.9	-83.5	292	14
2023-09-17T18:00	28820	15	-47.8	-83.4	294	15
2023-09-17T18:00	28839	15	-47.8	-83.4	295	15
2023-09-17T18:00	28877	14	-47.9	-83.5	296	15
2023-09-17T18:00	28904	14	-48.0	-83.6	297	15
2023-09-17T18:00	28931	14	-48.1	-83.6	298	15
2023-09-17T18:00	28955	14	-48.2	-83.7	299	15
2023-09-17T18:00	28984	14	-48.3	-83.8	302	15
2023-09-17T18:00	29017	14	-48.3	-83.8	304	14
2023-09-17T18:00	29029	14	-48.2	-83.7	306	14
2023-09-17T18:00	29071	14	-48.2	-83.7	307	14
2023-09-17T18:00	29106	14	-48.2	-83.7	307	14
2023-09-17T18:00	29130	14	-47.9	-83.5	308	14
2023-09-17T18:00	29157	14	-47.8	-83.4	309	14
2023-09-17T18:00	29177	14	-47.9	-83.5	310	14
2023-09-17T18:00	29216	14	-47.7	-83.4	312	14
2023-09-17T18:00	29245	14	-47.7	-84.4	314	14
2023-09-17T18:00	29271	14	-47.6	-84.3	315	15
2023-09-17T18:00	29306	14	-47.3	-84.1	316	15
2023-09-17T18:00	29330	13	-47.1	-84.0	317	15
2023-09-17T18:00	29370	13	-47.0	-83.9	317	16
2023-09-17T18:00	29392	13	-47.1	-84.0	317	16
2023-09-17T18:00	29433	13	-47.2	-84.1	318	17
2023-09-17T18:00	29456	13	-47.2	-84.1	318	17
2023-09-17T18:00	29491	13	-47.1	-84.0	319	16
2023-09-17T18:00	29507	13	-46.5	-83.6	319	15
2023-09-17T18:00	29554	13	-46.3	-83.4	319	15
2023-09-17T18:00	29586	13	-46.2	-83.4	319	14
2023-09-17T18:00	29606	13	-46.3	-83.4	319	14
2023-09-17T18:00	29637	13	-46.3	-83.4	320	14
2023-09-17T18:00	29673	13	-46.4	-83.5	320	13
2023-09-17T18:00	29712	13	-46.5	-83.6	320	13
2023-09-17T18:00	29732	13	-46.6	-83.6	320	13
2023-09-17T18:00	29754	13	-46.6	-83.6	318	13
2023-09-17T18:00	29782	13	-46.5	-83.6	315	12
2023-09-17T18:00	29817	13	-46.3	-83.4	311	12
2023-09-17T18:00	29852	12	-46.1	-83.3	307	12
2023-09-17T18:00	29876	12	-46.0	-83.2	303	11
2023-09-17T18:00	29910	12	-45.9	-83.2	300	11
2023-09-17T18:00	29935	12	-45.9	-83.2	297	11
2023-09-17T18:00	29969	12	-45.8	-83.1	296	12
2023-09-17T18:00	30010	12	-45.5	-82.9	295	12
2023-09-17T18:00	30041	12	-45.4	-82.8	294	12
2023-09-17T18:00	30071	12	-45.5	-82.9	293	13
2023-09-17T18:00	30088	12	-45.5	-82.9	292	13
2023-09-17T18:00	30118	12	-45.5	-82.9	291	13
2023-09-17T18:00	30147	12	-45.3	-82.7	289	13
2023-09-17T18:00	30181	12	-45.3	-82.7	289	13
2023-09-17T18:00	30197	12	-45.0	-82.5	288	13
2023-09-17T18:00	30224	12	-45.1	-82.6	288	13
2023-09-17T18:00	30267	12	-45.1	-82.6	289	14
2023-09-17T18:00	30296	12	-45.1	-82.6	290	14
2023-09-17T18:00	30312	12	-45.3	-82.7	291	14
2023-09-17T18:00	30341	12	-45.4	-82.8	293	14
2023-09-17T18:00	30372	12	-45.4	-82.8	295	15
2023-09-17T18:00	30406	11	-45.6	-82.9	298	15
2023-09-17T18:00	30424	11	-45.7	-83.0	301	15
2023-09-17T18:00	30455	11	-45.6	-82.9	303	16
2023-09-17T18:00	30481	11	-45.4	-82.8	306	15
2023-09-17T18:00	30515	11	-45.2	-82.7	308	15
2023-09-17T18:00	30521	11	-45.1	-82.6	309	15
2023-09-17T18:00	30560	11	-44.8	-82.4	310	14
2023-09-17T18:00	30598	11	-44.8	-82.4	311	14
2023-09-17T18:00	30625	11	-44.9	-82.5	311	14
2023-09-17T18:00	30668	11	-44.7	-82.3	311	14
2023-09-17T18:00	30676	11	-44.8	-82.4	311	15
2023-09-17T18:00	30712	11	-45.0	-82.5	311	15
2023-09-17T18:00	30740	11	-44.8	-82.4	311	15
2023-09-17T18:00	30773	11	-44.5	-82.2	312	15
2023-09-17T18:00	30794	11	-44.2	-82.0	313	16
2023-09-17T18:00	30823	11	-44.0	-81.8	315	16
2023-09-17T18:00	30862	11	-44.1	-81.9	317	16
2023-09-17T18:00	30884	11	-44.0	-81.8	319	16
2023-09-17T18:00	30901	11	-43.6	-81.5	322	16
2023-09-17T18:00	30947	11	-43.5	-81.5	325	17
2023-09-17T18:00	30970	11	-43.6	-81.5	328	17
2023-09-17T18:00	31020	10	-43.6	-81.5	331	17
2023-09-17T18:00	31069	10	-43.9	-81.8	335	16
2023-09-17T18:00	31091	10	-43.6	-81.5	335	16
2023-09-17T18:00	31131	10	-43.5	-81.5	335	15
2023-09-17T18:00	31148	10	-43.5	-81.5	334	14
2023-09-17T18:00	31207	10	-43.5	-81.5	332	13
2023-09-17T18:00	31233	10	-43.8	-81.7	329	12
2023-09-17T18:00	31276	10	-43.9	-81.8	328	12
2023-09-17T18:00	31320	10	-43.9	-81.8	327	11
2023-09-17T18:00	31343	10	-43.9	-81.8	327	11
2023-09-17T18:00	31364	10	-43.8	-81.7	328	11
2023-09-17T18:00	31374	10	-43.6	-81.5	328	11
2023-09-17T18:00	31421	10	-43.6	-81.5	328	11
2023-09-17T18:00	31434	10	-43.5	-81.5	327	11
2023-09-17T18:00	31484	10	-43.5	-81.5	326	11
2023-09-17T18:00	31516	10	-43.4	-81.4	325	11
2023-09-17T18:00	31534	10	-43.4	-81.4	324	11
2023-09-17T18:00	31555	10	-43.5	-81.5	323	11
2023-09-17T18:00	31617	10	-43.4	-81.4	322	10
2023-09-17T18:00	31619	10	-43.4	-81.4	322	10
2023-09-17T18:00	31646	10	-43.4	-81.4	323	10
2023-09-17T18:00	31690	9	-43.2	-81.3	325	9
2023-09-17T18:00	31719	9	-42.8	-81.0	328	9
2023-09-17T18:00	31759	9	-42.6	-80.8	331	9
2023-09-17T18:00	31773	9	-42.6	-80.8	335	9
2023-09-17T18:00	31798	9	-42.5	-80.8	339	10
2023-09-17T18:00	31830	9	-42.6	-80.8	341	10
2023-09-17T18:00	31856	9	-42.5	-80.8	341	10
2023-09-17T18:00	31900	9	-42.5	-80.8	340	10
2023-09-17T18:00	31908	9	-42.4	-80.7	336	9
2023-09-17T18:00	31927	9	-42.2	-80.6	331	8
2023-09-17T18:00	31975	9	-42.0	-80.4	324	8
2023-09-17T18:00	31979	9	-41.8	-80.3	317	7
2023-09-17T18:00	32038	9	-41.6	-80.1	311	7
2023-09-17T18:00	32049	9	-41.3	-79.9	306	7
2023-09-17T18:00	32098	9	-41.0	-79.7	302	7
2023-09-17T18:00	32124	9	-41.0	-79.7	300	7
2023-09-17T18:00	32142	9	-40.9	-79.7	299	7
2023-09-17T18:00	32185	9	-41.0	-79.7	301	7
2023-09-17T18:00	32235	9	-40.9	-79.7	304	8
2023-09-17T18:00	32255	9	-40.1	-79.1	312	9
2023-09-17T18:00	32302	9	-40.0	-79.0	314	10
2023-09-17T18:00	32315	9	-40.1	-79.1	316	11
2023-09-17T18:00	32342	9	-40.2	-79.2	316	12
2023-09-17T18:00	32406	9	-40.2	-79.2	316	13
2023-09-17T18:00	32438	9	-40.0	-79.0	315	13
2023-09-17T18:00	32463	8	-40.0	-79.0	314	14
2023-09-17T18:00	32493	8	-40.1	-79.1	313	13
2023-09-17T18:00	32523	8	-40.1	-79.1	312	13
2023-09-17T18:00	32551	8	-40.2	-79.2	311	12
2023-09-17T18:00	32610	8	-40.3	-79.2	310	12
2023-09-17T18:00	32639	8	-40.4	-79.3	308	11
2023-09-17T18:00	32686	8	-40.3	-79.2	306	11
2023-09-17T18:00	32698	8	-40.4	-79.3	304	11
2023-09-17T18:00	32738	8	-40.4	-79.3	302	11
2023-09-17T18:00	32769	8	-40.6	-79.5	300	11
2023-09-17T18:00	32789	8	-40.8	-79.6	299	11
2023-09-17T18:00	32843	8	-40.9	-79.7	298	11
2023-09-17T18:00	32867	8	-41.0	-79.7	297	11
2023-09-17T18:00	32884	8	-41.1	-79.8	297	12
2023-09-17T18:00	32950	8	-41.0	-79.7	298	13
2023-09-17T18:00	32977	8	-40.9	-79.7	299	13
2023-09-17T18:00	33003	8	-41.1	-79.8	300	14
2023-09-17T18:00	33030	8	-41.0	-79.7	301	14
2023-09-17T18:00	33058	8	-40.7	-79.5	302	14
2023-09-17T18:00	33101	8	-40.5	-79.4	303	14
2023-09-17T18:00	33149	8	-40.2	-79.2	303	13
2023-09-17T18:00	33182	8	-40.2	-79.2	303	12
2023-09-17T18:00	33219	8	-40.3	-79.2	303	11
2023-09-17T18:00	33269	8	-40.5	-79.4	303	10
2023-09-17T18:00	33287	7	-40.6	-79.5	304	9
2023-09-17T18:00	33321	7	-40.8	-79.6	305	8
2023-09-17T18:00	33353	7	-40.9	-79.7	306	7
2023-09-17T18:00	33380	7	-41.1	-79.8	305	7
2023-09-17T18:00	33419	7	-41.3	-79.9	303	7
2023-09-17T18:00	33441	7	-41.5	-80.1	298	7
2023-09-17T18:00	33468	7	-41.3	-79.9	293	7
2023-09-17T18:00	33504	7	-41.0	-79.7	287	8
2023-09-17T18:00	33514	7	-40.9	-79.7	283	9
2023-09-17T18:00	33567	7	-40.8	-79.6	280	10
2023-09-17T18:00	33591	7	-40.7	-79.5	279	11
2023-09-17T18:00	33602	7	-40.7	-79.5	278	12
2023-09-17T18:00	33629	7	-40.8	-79.6	278	13
2023-09-17T18:00	33691	7	-40.5	-79.4	278	14
2023-09-17T18:00	33701	7	-40.4	-79.3	278	14
2023-09-17T18:00	33711	7	-40.2	-79.2	278	15
2023-09-17T18:00	33759	7	-39.5	-78.7	278	16
2023-09-17T18:00	33791	7	-39.0	-78.3	278	16
2023-09-17T18:00	33814	7	-38.9	-78.3	278	16
2023-09-17T18:00	33833	7	-38.9	-78.3	278	16
2023-09-17T18:00	33851	7	-38.8	-78.2	278	16
2023-09-17T18:00	33888	7	-38.8	-78.2	279	16
2023-09-17T18:00	33914	7	-39.0	-78.3	280	16
2023-09-17T18:00	33946	7	-39.0	-78.3	281	15
2023-09-17T18:00	33984	7	-38.9	-78.3	283	15
2023-09-17T18:00	34022	7	-38.9	-78.3	285	15
2023-09-17T18:00	34029	7	-39.0	-78.3	287	15
2023-09-17T18:00	34064	7	-39.0	-78.3	289	14
2023-09-17T18:00	34096	7	-38.9	-78.3	289	14
2023-09-17T18:00	34101	7	-38.7	-78.1	288	14
2023-09-17T18:00	34149	7	-38.6	-78.1	287	14
2023-09-17T18:00	34177	7	-38.5	-78.0	285	14
2023-09-17T18:00	34212	7	-38.5	-78.0	283	14
2023-09-17T18:00	34227	7	-38.4	-77.9	282	14
2023-09-17T18:00	34288	7	-38.2	-77.8	282	14
2023-09-17T18:00	34323	6	-37.6	-77.4	282	13
2023-09-17T18:00	34349	6	-37.5	-77.3	283	13
2023-09-17T18:00	34393	6	-37.4	-77.2	283	13
2023-09-17T18:00	34399	6	-37.4	-77.2	284	13
2023-09-17T18:00	34431	6	-37.3	-77.2	284	13
2023-09-17T18:00	34457	6	-37.3	-77.2	283	13
2023-09-17T18:00	34482	6	-37.2	-77.1	283	13
2023-09-17T18:00	34512	6	-36.8	-76.8	282	13
2023-09-17T18:00	34519	6	-36.4	-76.5	281	13
2023-09-17T18:00	34561	6	-36.1	-76.3	279	13
2023-09-17T18:00	34613	6	-36.0	-76.3	278	13
2023-09-17T18:00	34625	6	-35.9	-76.2	277	13
2023-09-17T18:00	34642	6	-35.9	-76.2	275	13
2023-09-17T18:00	34707	6	-36.0	-76.3	273	14
2023-09-17T18:00	34728	6	-36.1	-76.3	271	14
2023-09-17T18:00	34736	6	-36.2	-76.4	270	15
2023-09-17T18:00	34813	6	-36.2	-76.4	269	15
2023-09-17T18:00	34851	6	-36.5	-76.6	271	15
2023-09-17T18:00	34890	6	-36.5	-76.6	272	15
2023-09-17T18:00	34948	6	-36.2	-76.4	277	14
2023-09-17T18:00	34960	6	-35.7	-76.1	280	13
2023-09-17T18:00	34983	6	-35.6	-76.0	282	12
2023-09-17T18:00	35007	6	-35.8	-76.1	283	12
2023-09-17T18:00	35050	6	-36.0	-76.3	284	11
2023-09-17T18:00	35067	6	-35.7	-76.1	283	11
2023-09-17T18:00	35130	6	-35.6	-76.0	282	12
2023-09-17T18:00	35195	6	-35.8	-76.1	280	13
2023-09-17T18:00	35267	6	-35.3	-75.8	279	17
2023-09-17T18:00	35295	6	-35.1	-75.6	282	18
2023-09-17T18:00	35338	6	-34.5	-75.2	283	19
2023-09-17T18:00	35364	6	-34.2	-75.0	285	19
2023-09-17T18:00	35408	6	-34.1	-75.0	287	19
2023-09-17T18:00	35421	6	-34.1	-75.0	289	20
2023-09-17T18:00	35447	5	-34.1	-75.0	291	20
2023-09-17T18:00	35515	5	-34.1	-75.0	293	20
2023-09-17T18:00	35533	5	-34.0	-74.9	294	21
2023-09-17T18:00	35545	5	-34.0	-74.9	296	21
2023-09-17T18:00	35584	5	-34.0	-74.9	297	21
2023-09-17T18:00	35611	5	-34.0	-74.9	298	21
2023-09-17T18:00	35652	5	-34.0	-74.9	298	22
2023-09-17T18:00	35709	5	-33.6	-74.6	298	21
2023-09-17T18:00	35768	5	-33.0	-74.2	298	20
2023-09-17T18:00	35784	5	-32.9	-74.1	298	19
2023-09-17T18:00	35817	5	-32.7	-74.0	298	19
2023-09-18T00:00	112	1001	19.0	13.4	110	3
2023-09-18T00:00	138	998	19.8	13.1	153	4
2023-09-18T00:00	167	995	21.1	13.1	157	5
2023-09-18T00:00	197	992	21.7	13.0	162	7
2023-09-18T00:00	220	989	22.4	12.8	167	8
2023-09-18T00:00	241	986	22.9	12.9	171	9
2023-09-18T00:00	270	983	23.3	12.5	175	10
2023-09-18T00:00	292	981	23.1	12.4	177	10
2023-09-18T00:00	315	978	23.1	12.3	179	10
2023-09-18T00:00	345	975	23.5	11.9	180	10
2023-09-18T00:00	370	972	23.3	11.9	179	10
2023-09-18T00:00	390	970	23.1	12.0	179	10
2023-09-18T00:00	411	967	23.0	12.1	178	10
2023-09-18T00:00	435	965	22.8	11.9	176	9
2023-09-18T00:00	458	962	22.7	12.0	175	9
2023-09-18T00:00	482	960	22.5	12.0	173	9
2023-09-18T00:00	507	957	22.3	11.8	171	9
2023-09-18T00:00	531	954	22.2	11.9	169	9
2023-09-18T00:00	556	951	22.0	11.7	168	9
2023-09-18T00:00	583	949	21.9	11.0	166	9
2023-09-18T00:00	608	946	21.7	11.0	166	9
2023-09-18T00:00	630	943	21.5	10.7	165	9
2023-09-18T00:00	658	940	21.3	10.5	164	9
2023-09-18T00:00	686	937	21.0	10.6	164	8
2023-09-18T00:00	712	934	20.8	11.1	163	8
2023-09-18T00:00	739	931	20.6	10.4	163	8
2023-09-18T00:00	765	929	20.4	10.2	163	8
2023-09-18T00:00	793	926	20.1	10.0	163	8
2023-09-18T00:00	818	923	19.9	10.1	163	7
2023-09-18T00:00	843	920	19.7	10.1	164	7
2023-09-18T00:00	872	917	19.6	10.1	166	6
2023-09-18T00:00	898	915	19.5	9.9	168	5
2023-09-18T00:00	918	912	19.4	9.4	171	4
2023-09-18T00:00	941	910	19.4	9.2	172	4
2023-09-18T00:00	967	907	19.3	8.7	172	3
2023-09-18T00:00	990	905	19.5	7.9	171	3
2023-09-18T00:00	1013	902	19.4	7.7	172	3
2023-09-18T00:00	1037	900	19.3	7.6	175	3
2023-09-18T00:00	1062	897	19.1	7.4	182	3
2023-09-18T00:00	1089	894	19.0	7.0	189	3
2023-09-18T00:00	1130	890	18.8	6.6	195	3
2023-09-18T00:00	1159	887	18.7	6.1	201	4
2023-09-18T00:00	1186	884	18.5	6.0	206	4
2023-09-18T00:00	1211	882	18.4	6.0	208	4
2023-09-18T00:00	1232	880	18.2	6.1	209	5
2023-09-18T00:00	1250	878	18.1	5.8	209	5
2023-09-18T00:00	1269	876	17.9	5.9	206	4
2023-09-18T00:00	1295	873	17.8	5.8	203	4
2023-09-18T00:00	1328	870	17.5	5.6	199	4
2023-09-18T00:00	1359	867	17.3	5.5	197	3
2023-09-18T00:00	1389	864	17.1	5.0	195	3
2023-09-18T00:00	1419	861	16.8	4.7	194	3
2023-09-18T00:00	1448	858	16.6	4.7	193	3
2023-09-18T00:00	1471	855	16.3	4.6	192	4
2023-09-18T00:00	1499	853	16.1	4.6	192	4
2023-09-18T00:00	1530	850	15.8	4.5	193	4
2023-09-18T00:00	1548	848	15.7	4.8	199	3
2023-09-18T00:00	1570	845	15.5	4.9	208	3
2023-09-18T00:00	1595	843	15.2	5.1	217	3
2023-09-18T00:00	1620	840	15.0	5.2	223	3
2023-09-18T00:00	1648	838	14.7	5.1	223	3
2023-09-18T00:00	1675	835	14.5	4.9	221	4
2023-09-18T00:00	1701	833	14.3	5.0	218	4
2023-09-18T00:00	1722	830	14.1	5.0	218	4
2023-09-18T00:00	1742	829	13.9	5.0	221	5
2023-09-18T00:00	1763	826	13.7	5.5	226	5
2023-09-18T00:00	1787	824	13.3	6.6	231	5
2023-09-18T00:00	1815	821	13.1	6.6	234	5
2023-09-18T00:00	1843	819	12.8	6.7	234	5
2023-09-18T00:00	1866	816	12.6	6.6	232	4
2023-09-18T00:00	1892	814	12.3	6.7	228	4
2023-09-18T00:00	1917	812	12.1	6.6	225	4
2023-09-18T00:00	1942	809	11.9	6.5	224	4
2023-09-18T00:00	1965	807	11.7	6.2	225	4
2023-09-18T00:00	1988	805	11.5	5.7	229	4
2023-09-18T00:00	2007	803	11.4	5.1	232	4
2023-09-18T00:00	2028	801	11.2	5.0	235	4
2023-09-18T00:00	2048	799	11.0	4.6	237	3
2023-09-18T00:00	2071	797	10.8	4.6	239	3
2023-09-18T00:00	2098	794	10.6	4.5	242	4
2023-09-18T00:00	2126	791	10.4	3.7	243	4
2023-09-18T00:00	2154	789	10.2	3.4	243	5
2023-09-18T00:00	2182	786	10.0	3.4	241	5
2023-09-18T00:00	2205	784	9.8	3.4	238	5
2023-09-18T00:00	2232	781	9.7	2.8	233	5
2023-09-18T00:00	2256	779	9.5	2.2	225	5
2023-09-18T00:00	2282	777	9.4	1.2	216	5
2023-09-18T00:00	2305	775	9.3		206	4
2023-09-18T00:00	2325	773	9.2	0.9	199	5
2023-09-18T00:00	2351	770	9.0	1.4	194	5
2023-09-18T00:00	2381	768	8.9	1.0	191	5
2023-09-18T00:00	2403	766	8.7	1.3	191	5
2023-09-18T00:00	2420	764	8.6	1.2	193	5
2023-09-18T00:00	2445	762	8.4	1.3	196	4
2023-09-18T00:00	2472	759	8.2	1.0	200	4
2023-09-18T00:00	2496	757	8.0	0.8	205	4
2023-09-18T00:00	2514	755	7.9	0.9	208	4
2023-09-18T00:00	2545	752	7.6	0.7	209	4
2023-09-18T00:00	2569	750	7.5	0.6	209	4
2023-09-18T00:00	2593	748	7.3	0.4	209	4
2023-09-18T00:00	2610	746	7.1	0.1	211	4
2023-09-18T00:00	2636	744	7.0	0.2	216	3
2023-09-18T00:00	2657	742	6.9	0.6	223	3
2023-09-18T00:00	2686	740	6.6	1.8	227	3
2023-09-18T00:00	2709	738	6.4	2.6	226	3
2023-09-18T00:00	2730	736	6.2	2.6	222	4
2023-09-18T00:00	2758	733	6.0	2.0	219	5
2023-09-18T00:00	2784	731	5.8	2.0	217	5
2023-09-18T00:00	2810	729	5.6	1.9	217	5
2023-09-18T00:00	2830	727	5.5	1.5	217	5
2023-09-18T00:00	2854	725	5.4	1.0	217	5
2023-09-18T00:00	2871	723	5.3	0.2	217	5
2023-09-18T00:00	2902	720	5.2	-0.3	217	5
2023-09-18T00:00	2933	718	5.0	-0.6	215	5
2023-09-18T00:00	2951	716	4.8	-0.7	214	5
2023-09-18T00:00	2978	714	4.6	-0.9	212	6
2023-09-18T00:00	2996	712	4.5	-1.1	211	6
2023-09-18T00:00	3022	710	4.3	-1.4	211	6
2023-09-18T00:00	3044	708	4.2	-1.4	211	5
2023-09-18T00:00	3071	706	4.0	-1.2	211	6
2023-09-18T00:00	3093	704	3.8	-1.0	212	6
2023-09-18T00:00	3119	701	3.6	-1.1	213	6
2023-09-18T00:00	3146	699	3.5	-1.0	214	7
2023-09-18T00:00	3169	697	3.3	-1.1	214	7
2023-09-18T00:00	3197	695	3.0	-1.1	213	7
2023-09-18T00:00	3233	692	2.7	-1.1	212	7
2023-09-18T00:00	3260	689	2.5	-1.1	211	6
2023-09-18T00:00	3285	687	2.3	-1.1	210	7
2023-09-18T00:00	3305	685	2.1	-1.1	210	7
2023-09-18T00:00	3326	684	1.9	-1.0	210	7
2023-09-18T00:00	3355	681	1.7	-1.0	210	7
2023-09-18T00:00	3383	679	1.5	-1.3	209	6
2023-09-18T00:00	3412	677	1.3	-1.5	207	6
2023-09-18T00:00	3437	674	1.1	-1.4	204	5
2023-09-18T00:00	3466	672	0.8	-1.5	200	5
2023-09-18T00:00	3496	670	0.5	-1.7	197	5
2023-09-18T00:00	3521	667	0.4	-2.0	198	5
2023-09-18T00:00	3550	665	0.3	-2.5	202	5
2023-09-18T00:00	3570	663	0.1	-2.9	208	6
2023-09-18T00:00	3592	661	0.0	-3.2	214	6
2023-09-18T00:00	3629	659	-0.1	-3.2	220	7
2023-09-18T00:00	3653	657	-0.3	-3.2	224	8
2023-09-18T00:00	3675	655	-0.5	-3.2	226	8
2023-09-18T00:00	3706	652	-0.7	-3.5	227	7
2023-09-18T00:00	3730	650	-0.9	-3.5	227	7
2023-09-18T00:00	3752	648	-1.1	-3.5	226	6
2023-09-18T00:00	3781	646	-1.3	-3.7	225	6
2023-09-18T00:00	3799	645	-1.4	-3.7	225	6
2023-09-18T00:00	3826	642	-1.7	-3.9	226	7
2023-09-18T00:00	3854	640	-1.9	-4.0	228	7
2023-09-18T00:00	3874	638	-2.1	-4.1	229	7
2023-09-18T00:00	3904	636	-2.3	-4.4	230	7
2023-09-18T00:00	3924	635	-2.4	-4.4	230	7
2023-09-18T00:00	3944	633	-2.6	-4.5	231	7
2023-09-18T00:00	3969	631	-2.8	-4.5	232	7
2023-09-18T00:00	3998	629	-3.1	-4.7	234	7
2023-09-18T00:00	4022	627	-3.0	-5.3	237	8
2023-09-18T00:00	4051	625	-3.1	-5.7	240	8
2023-09-18T00:00	4070	623	-3.1	-5.6	243	8
2023-09-18T00:00	4094	621	-3.2	-5.9	245	9
2023-09-18T00:00	4121	619	-3.3	-6.1	247	9
2023-09-18T00:00	4148	617	-3.3	-7.0	248	9
2023-09-18T00:00	4174	615	-3.3	-7.7	247	10
2023-09-18T00:00	4196	613	-3.2	-7.7	246	10
2023-09-18T00:00	4225	611	-3.2	-7.5	244	10
2023-09-18T00:00	4251	609	-3.3	-7.2	241	10
2023-09-18T00:00	4280	607	-3.6	-7.3	239	10
2023-09-18T00:00	4304	605	-3.8	-7.4	238	9
2023-09-18T00:00	4325	603	-4.0	-7.4	238	8
2023-09-18T00:00	4354	601	-4.2	-7.5	240	7
2023-09-18T00:00	4375	599	-4.3	-7.6	244	6
2023-09-18T00:00	4404	597	-4.5	-7.9	250	6
2023-09-18T00:00	4425	596	-4.6	-7.9	255	5
2023-09-18T00:00	4452	593	-4.8	-8.0	258	5
2023-09-18T00:00	4482	591	-5.0	-8.2	257	5
2023-09-18T00:00	4500	590	-5.1		256	5
2023-09-18T00:00	4519	588	-5.2	-8.2	256	6
2023-09-18T00:00	4546	586	-5.4	-8.6	256	6
2023-09-18T00:00	4578	584	-5.6	-8.9	257	6
2023-09-18T00:00	4598	583	-5.7	-9.0	257	6
2023-09-18T00:00	4624	581	-5.9	-9.1	256	6
2023-09-18T00:00	4650	579	-6.1	-9.3	255	6
2023-09-18T00:00	4683	577	-6.2	-9.2	256	7
2023-09-18T00:00	4712	574	-6.5	-9.4	258	7
2023-09-18T00:00	4745	572	-6.7	-9.5	263	7
2023-09-18T00:00	4769	570	-6.7	-10.0	268	7
2023-09-18T00:00	4797	568	-6.5	-10.7	275	7
2023-09-18T00:00	4825	566	-6.5	-12.3	281	7
2023-09-18T00:00	4845	564	-6.4	-13.8	286	7
2023-09-18T00:00	4875	562	-6.4	-15.6	289	7
2023-09-18T00:00	4907	560	-6.7	-15.5	290	7
2023-09-18T00:00	4927	559	-6.8	-15.0	289	7
2023-09-18T00:00	4953	557	-6.9	-15.3	286	8
2023-09-18T00:00	4976	555	-7.0	-15.5	282	8
2023-09-18T00:00	4998	554	-7.1	-16.1	279	8
2023-09-18T00:00	5024	552	-7.3	-16.6	277	8
2023-09-18T00:00	5053	550	-7.4	-17.1	275	8
2023-09-18T00:00	5077	548	-7.6	-17.5	274	8
2023-09-18T00:00	5111	546	-7.8	-15.8	273	8
2023-09-18T00:00	5136	544	-8.0	-16.6	272	8
2023-09-18T00:00	5158	542	-8.0	-18.7	270	8
2023-09-18T00:00	5191	540	-7.9	-21.0	268	8
2023-09-18T00:00	5222	538	-8.1	-19.9	265	7
2023-09-18T00:00	5251	536	-8.4	-19.4	262	7
2023-09-18T00:00	5270	535	-8.6	-19.0	260	7
2023-09-18T00:00	5292	533	-8.7	-19.0	258	6
2023-09-18T00:00	5322	531	-9.0	-19.0	258	6
2023-09-18T00:00	5352	529	-9.2	-19.0	260	6
2023-09-18T00:00	5370	528	-9.3	-18.1	265	6
2023-09-18T00:00	5394	526	-9.6	-17.8	270	6
2023-09-18T00:00	5422	524	-9.8	-17.1	274	7
2023-09-18T00:00	5442	523	-10.0	-16.7	275	8
2023-09-18T00:00	5471	521	-10.2	-17.3	275	8
2023-09-18T00:00	5503	519	-10.4	-17.1	273	9
2023-09-18T00:00	5532	517	-10.5	-17.0	272	9
2023-09-18T00:00	5556	515	-10.7	-17.5	270	8
2023-09-18T00:00	5577	514	-10.8	-17.6	268	8
2023-09-18T00:00	5601	512	-10.9	-18.1	265	8
2023-09-18T00:00	5628	510	-11.1	-18.1	262	8
2023-09-18T00:00	5659	508	-11.4	-18.1	260	8
2023-09-18T00:00	5681	507	-11.5	-18.0	258	8
2023-09-18T00:00	5703	505	-11.7	-18.3	257	8
2023-09-18T00:00	5733	503	-11.9	-18.9	258	8
2023-09-18T00:00	5764	501	-12.0	-20.8	259	8
2023-09-18T00:00	5785	500	-12.1	-21.1	259	8
2023-09-18T00:00	5807	498	-12.3	-21.2	260	8
2023-09-18T00:00	5836	497	-12.5	-21.7	259	7
2023-09-18T00:00	5866	495	-12.7	-21.8	257	7
2023-09-18T00:00	5890	493	-13.0	-22.0	254	6
2023-09-18T00:00	5919	491	-13.2	-21.8	253	6
2023-09-18T00:00	5956	489	-13.5	-20.9	253	6
2023-09-18T00:00	5978	487	-13.7	-21.6	255	6
2023-09-18T00:00	6004	486	-13.8	-22.6	256	6
2023-09-18T00:00	6030	484	-14.1	-22.6	256	6
2023-09-18T00:00	6057	482	-14.3	-22.7	253	6
2023-09-18T00:00	6088	480	-14.6		249	6
2023-09-18T00:00	6125	478	-15.0	-22.4	244	5
2023-09-18T00:00	6144	477	-15.0	-23.2	241	5
2023-09-18T00:00	6166	475	-14.9	-24.5	239	5
2023-09-18T00:00	6196	474	-14.7	-27.0	240	5
2023-09-18T00:00	6232	471	-14.9	-27.8	240	5
2023-09-18T00:00	6264	470	-15.0	-28.4	241	5
2023-09-18T00:00	6280	468	-15.1	-28.7	241	6
2023-09-18T00:00	6303	467	-15.3	-28.8	241	6
2023-09-18T00:00	6331	465	-15.5	-28.5	241	6
2023-09-18T00:00	6362	464	-15.8	-28.7	240	7
2023-09-18T00:00	6381	462	-16.0	-28.7	239	7
2023-09-18T00:00	6405	461	-16.2	-28.4	240	7
2023-09-18T00:00	6434	459	-16.5	-28.6	242	6
2023-09-18T00:00	6457	458	-16.7	-29.0	246	6
2023-09-18T00:00	6482	456	-16.9	-29.2	251	7
2023-09-18T00:00	6515	454	-17.2	-29.8	256	7
2023-09-18T00:00	6539	453	-17.3	-30.3	259	7
2023-09-18T00:00	6559	451	-17.5	-30.3	261	7
2023-09-18T00:00	6579	450	-17.6	-30.5	261	7
2023-09-18T00:00	6609	448	-17.8	-31.2	260	7
2023-09-18T00:00	6638	447	-17.9	-31.5	258	7
2023-09-18T00:00	6670	445	-18.2	-31.6	257	7
2023-09-18T00:00	6689	444	-18.3	-31.5	257	7
2023-09-18T00:00	6710	442	-18.5	-31.4	257	7
2023-09-18T00:00	6732	441	-18.6	-31.0	258	8
2023-09-18T00:00	6754	440	-18.8	-30.6	259	8
2023-09-18T00:00	6776	438	-18.9	-29.3	260	8
2023-09-18T00:00	6801	437	-19.0	-29.1	260	9
2023-09-18T00:00	6829	435	-19.3	-29.2	260	9
2023-09-18T00:00	6860	434	-19.6	-29.2	260	9
2023-09-18T00:00	6890	432	-19.8	-28.8	262	9
2023-09-18T00:00	6918	430	-20.0	-28.4	264	8
2023-09-18T00:00	6954	428	-20.3	-28.4	267	8
2023-09-18T00:00	6976	427	-20.4	-28.2	269	8
2023-09-18T00:00	6993	426	-20.5	-28.4	270	9
2023-09-18T00:00	7014	425	-20.7	-28.4	269	9
2023-09-18T00:00	7036	423	-20.9	-28.5	268	9
2023-09-18T00:00	7061	422	-21.0	-28.6	267	10
2023-09-18T00:00	7089	420	-21.3	-28.7	268	10
2023-09-18T00:00	7123	418	-21.5	-28.8	269	10
2023-09-18T00:00	7153	417	-21.7	-29.2	270	10
2023-09-18T00:00	7175	415	-21.8	-29.1	271	10
2023-09-18T00:00	7199	414	-21.9	-29.6	270	10
2023-09-18T00:00	7228	412	-22.0	-30.2	270	10
2023-09-18T00:00	7264	410	-22.2	-30.5	269	10
2023-09-18T00:00	7297	409	-22.4	-31.1	269	10
2023-09-18T00:00	7331	407	-22.5	-32.3	269	10
2023-09-18T00:00	7349	406	-22.5	-32.7	270	10
2023-09-18T00:00	7368	405	-22.6	-32.8	271	10
2023-09-18T00:00	7390	403	-22.9	-33.0	272	11
2023-09-18T00:00	7412	402	-23.0	-33.1	274	11
2023-09-18T00:00	7436	401	-23.2	-33.2	275	11
2023-09-18T00:00	7457	400	-23.4	-33.5	276	10
2023-09-18T00:00	7483	398	-23.6	-33.7	278	10
2023-09-18T00:00	7514	397	-23.8	-33.7	279	10
2023-09-18T00:00	7546	395	-24.1	-33.7	281	10
2023-09-18T00:00	7577	393	-24.4	-33.8	281	11
2023-09-18T00:00	7601	392	-24.6	-33.8	281	11
2023-09-18T00:00	7626	391	-24.9	-33.9	281	11
2023-09-18T00:00	7657	389	-25.1	-33.5	281	11
2023-09-18T00:00	7693	387	-25.5	-33.7	282	12
2023-09-18T00:00	7719	386	-25.7	-33.7	282	12
2023-09-18T00:00	7746	384	-26.0	-33.7	282	12
2023-09-18T00:00	7783	382	-26.4	-33.8	281	12
2023-09-18T00:00	7809	381	-26.6	-33.9	280	13
2023-09-18T00:00	7833	380	-26.9	-34.0	278	13
2023-09-18T00:00	7858	378	-27.1	-34.0	278	13
2023-09-18T00:00	7877	377	-27.3	-33.8	278	13
2023-09-18T00:00	7901	376	-27.5	-32.7	280	13
2023-09-18T00:00	7928	375	-27.7	-31.1	281	13
2023-09-18T00:00	7955	373	-27.8	-29.9	282	13
2023-09-18T00:00	7987	372	-27.9	-30.0	283	14
2023-09-18T00:00	8016	370	-28.0	-30.0	283	15
2023-09-18T00:00	8050	368	-28.2	-30.2	283	16
2023-09-18T00:00	8081	367	-28.3	-30.4	284	17
2023-09-18T00:00	8114	365	-28.6	-30.6	285	17
2023-09-18T00:00	8132	364	-28.8	-30.8	286	18
2023-09-18T00:00	8155	363	-29.0	-30.8	286	18
2023-09-18T00:00	8181	362	-29.2	-31.2	286	18
2023-09-18T00:00	8205	360	-29.4	-31.8	285	18
2023-09-18T00:00	8231	359	-29.6	-32.3	284	18
2023-09-18T00:00	8259	358	-29.8	-32.3	283	18
2023-09-18T00:00	8289	356	-30.1	-32.5	282	18
2023-09-18T00:00	8320	355	-30.4	-32.6	281	18
2023-09-18T00:00	8352	353	-30.5	-32.9	280	18
2023-09-18T00:00	8381	352	-30.8	-33.4	280	18
2023-09-18T00:00	8406	350	-31.0	-33.4	280	18
2023-09-18T00:00	8433	349	-31.2	-33.7	280	18
2023-09-18T00:00	8463	348	-31.5	-33.8	281	19
2023-09-18T00:00	8493	346	-31.7	-34.1	281	19
2023-09-18T00:00	8523	345	-32.0	-34.4	281	19
2023-09-18T00:00	8548	343	-32.2	-34.6	280	19
2023-09-18T00:00	8575	342	-32.4	-34.7	280	19
2023-09-18T00:00	8603	341	-32.7	-34.9	279	19
2023-09-18T00:00	8630	339	-33.0	-35.1	278	18
2023-09-18T00:00	8660	338	-33.2	-35.3	278	18
2023-09-18T00:00	8684	337	-33.4	-36.0	278	18
2023-09-18T00:00	8709	336	-33.5	-36.3	278	18
2023-09-18T00:00	8737	334	-33.8	-36.5	279	18
2023-09-18T00:00	8765	333	-34.0	-37.0	279	18
2023-09-18T00:00	8800	331	-34.3	-37.4	279	17
2023-09-18T00:00	8833	330	-34.6	-37.8	280	17
2023-09-18T00:00	8862	328	-34.8	-38.1	280	17
2023-09-18T00:00	8894	327	-35.1	-38.3	279	17
2023-09-18T00:00	8922	326	-35.4	-38.5	279	18
2023-09-18T00:00	8954	324	-35.7	-38.7	279	18
2023-09-18T00:00	8987	323	-36.0	-39.4	278	18
2023-09-18T00:00	9016	321	-36.2	-39.7	278	18
2023-09-18T00:00	9043	320	-36.4	-39.8	277	18
2023-09-18T00:00	9074	319	-36.7	-40.4	277	18
2023-09-18T00:00	9105	317	-36.9	-41.2	278	17
2023-09-18T00:00	9134	316	-37.1	-42.2	278	17
2023-09-18T00:00	9164	314	-37.3	-41.5	279	17
2023-09-18T00:00	9192	313	-37.5	-40.8	279	17
2023-09-18T00:00	9219	312	-37.7	-40.6	280	17
2023-09-18T00:00	9249	311	-37.9	-40.9	280	17
2023-09-18T00:00	9278	309	-38.1	-41.5	279	17
2023-09-18T00:00	9307	308	-38.3	-41.9	279	17
2023-09-18T00:00	9334	307	-38.5	-41.9	278	17
2023-09-18T00:00	9365	305	-38.8	-42.5	276	17
2023-09-18T00:00	9397	304	-39.0	-42.5	275	18
2023-09-18T00:00	9426	303	-39.2	-42.6	273	18
2023-09-18T00:00	9453	301	-39.4	-43.1	272	18
2023-09-18T00:00	9481	300	-39.6	-43.8	272	19
2023-09-18T00:00	9514	299	-39.9	-44.1	272	19
2023-09-18T00:00	9539	298	-40.1	-43.9	273	19
2023-09-18T00:00	9561	297	-40.3	-43.9	272	19
2023-09-18T00:00	9584	296	-40.4	-44.0	272	20
2023-09-18T00:00	9603	295	-40.5	-44.6	271	20
2023-09-18T00:00	9622	294	-40.6	-44.5	272	20
2023-09-18T00:00	9649	293	-40.9	-44.6	272	20
2023-09-18T00:00	9671	292	-41.1	-44.6	274	20
2023-09-18T00:00	9692	291	-41.2	-44.1	275	20
2023-09-18T00:00	9717	290	-41.4	-44.0	276	20
2023-09-18T00:00	9739	289	-41.6	-44.0	277	20
2023-09-18T00:00	9762	288	-41.8	-44.2	277	20
2023-09-18T00:00	9786	287	-42.0	-44.5	278	20
2023-09-18T00:00	9810	286	-42.2	-45.1	278	20
2023-09-18T00:00	9832	285	-42.4	-45.4	278	20
2023-09-18T00:00	9858	284	-42.5	-46.8	278	20
2023-09-18T00:00	9883	283	-42.6	-47.9	278	20
2023-09-18T00:00	9909	282	-42.7	-48.2	279	20
2023-09-18T00:00	9936	281	-42.9	-48.3	280	20
2023-09-18T00:00	9967	280	-43.1	-48.5	282	20
2023-09-18T00:00	9988	279	-43.3	-48.5	284	20
2023-09-18T00:00	10010	278	-43.5	-48.5	285	20
2023-09-18T00:00	10041	276	-43.7	-48.8	287	20
2023-09-18T00:00	10062	276	-43.9	-49.3	288	20
2023-09-18T00:00	10087	275	-44.1	-50.2	288	21
2023-09-18T00:00	10115	273	-44.2	-50.9	289	21
2023-09-18T00:00	10146	272	-44.5	-51.9	290	21
2023-09-18T00:00	10176	271	-44.7	-52.4	290	21
2023-09-18T00:00	10205	270	-44.9	-52.5	291	21
2023-09-18T00:00	10231	269	-45.2	-52.8	291	21
2023-09-18T00:00	10255	268	-45.3	-53.0	292	21
2023-09-18T00:00	10289	266	-45.6	-53.6	293	22
2023-09-18T00:00	10318	265	-45.8	-54.3	294	22
2023-09-18T00:00	10347	264	-46.0	-54.7	295	22
2023-09-18T00:00	10369	263	-46.2	-54.5	295	22
2023-09-18T00:00	10394	262	-46.4	-54.4	295	23
2023-09-18T00:00	10422	261	-46.7	-55.0	296	23
2023-09-18T00:00	10448	260	-46.9	-55.3	296	24
2023-09-18T00:00	10479	259	-47.1	-55.2	296	24
2023-09-18T00:00	10508	258	-47.2	-54.8	297	24
2023-09-18T00:00	10536	257	-47.3	-54.0	297	25
2023-09-18T00:00	10569	255	-47.5	-53.4	298	25
2023-09-18T00:00	10592	254	-47.6	-53.3	298	26
2023-09-18T00:00	10621	253	-47.7	-53.2	298	27
2023-09-18T00:00	10652	252	-47.9	-53.2	299	28
2023-09-18T00:00	10683	251	-48.0	-53.2	298	28
2023-09-18T00:00	10710	250	-48.1	-53.2	297	29
2023-09-18T00:00	10740	249	-48.3	-53.3	296	29
2023-09-18T00:00	10782	247	-48.5	-53.3	293	30
2023-09-18T00:00	10829	246	-48.9	-53.7	291	30
2023-09-18T00:00	10864	244	-49.2	-54.1	289	30
2023-09-18T00:00	10888	243	-49.2	-54.2	289	31
2023-09-18T00:00	10916	242	-49.5	-54.4	288	31
2023-09-18T00:00	10945	241	-49.7	-54.5	288	31
2023-09-18T00:00	10972	240	-49.9	-54.6	288	31
2023-09-18T00:00	11003	239	-50.2	-54.8	287	31
2023-09-18T00:00	11031	238	-50.5	-55.0	286	31
2023-09-18T00:00	11055	237	-50.6	-55.2	285	31
2023-09-18T00:00	11077	236	-50.8	-55.5	285	32
2023-09-18T00:00	11105	235	-51.0	-55.8	285	32
2023-09-18T00:00	11135	234	-51.2	-56.1	285	32
2023-09-18T00:00	11161	233	-51.5	-56.4	284	32
2023-09-18T00:00	11188	232	-51.7	-56.5	284	32
2023-09-18T00:00	11215	231	-52.0	-56.7	283	32
2023-09-18T00:00	11241	231	-52.2	-56.8	283	33
2023-09-18T00:00	11266	230	-52.4	-57.0	283	33
2023-09-18T00:00	11290	229	-52.6	-57.2	282	33
2023-09-18T00:00	11312	228	-52.8	-57.5	283	34
2023-09-18T00:00	11336	227	-53.0	-57.8	283	34
2023-09-18T00:00	11361	226	-53.1	-57.9	283	34
2023-09-18T00:00	11386	225	-53.3	-58.0	284	35
2023-09-18T00:00	11409	225	-53.5	-58.1	284	35
2023-09-18T00:00	11435	224	-53.7		285	35
2023-09-18T00:00	11457	223	-53.9	-58.5	286	35
2023-09-18T00:00	11483	222	-54.0	-58.7	286	35
2023-09-18T00:00	11505	221	-54.2	-59.0	287	35
2023-09-18T00:00	11526	220	-54.4	-59.2	287	35
2023-09-18T00:00	11550	220	-54.6	-59.2	288	36
2023-09-18T00:00	11574	219	-54.8	-59.3	288	36
2023-09-18T00:00	11604	218	-55.1	-59.7	288	37
2023-09-18T00:00	11638	217	-55.1	-59.8	289	37
2023-09-18T00:00	11663	216	-55.3	-60.1	289	38
2023-09-18T00:00	11695	215	-55.6	-60.4	289	39
2023-09-18T00:00	11723	214	-55.8	-60.5	289	39
2023-09-18T00:00	11748	213	-55.9	-60.6	288	39
2023-09-18T00:00	11771	212	-56.1	-60.8	288	39
2023-09-18T00:00	11792	211	-56.2	-60.9	288	39
2023-09-18T00:00	11812	211	-56.2	-60.8	288	39
2023-09-18T00:00	11834	210	-56.4	-60.9	288	39
2023-09-18T00:00	11859	209	-56.6	-61.0	288	39
2023-09-18T00:00	11881	209	-56.8	-61.1	287	39
2023-09-18T00:00	11902	208	-57.0	-61.2	287	38
2023-09-18T00:00	11922	207	-57.2	-61.3	287	38
2023-09-18T00:00	11945	206	-57.4	-61.4	287	38
2023-09-18T00:00	11969	206	-57.4	-61.4	287	38
2023-09-18T00:00	11991	205	-57.2	-61.3	287	38
2023-09-18T00:00	12014	204	-57.4	-61.6	287	38
2023-09-18T00:00	12044	203	-57.6	-61.8	287	38
2023-09-18T00:00	12068	202	-57.8	-62.1	286	39
2023-09-18T00:00	12094	202	-57.9	-62.4	285	39
2023-09-18T00:00	12119	201	-58.0	-62.8	283	39
2023-09-18T00:00	12141	200	-58.1	-63.1	282	39
2023-09-18T00:00	12162	199	-58.0	-63.3	282	39
2023-09-18T00:00	12183	199	-58.0	-63.5	281	39
2023-09-18T00:00	12204	198	-58.0	-63.7	281	39
2023-09-18T00:00	12226	197	-58.0	-63.9	281	38
2023-09-18T00:00	12246	197	-58.1	-64.1	281	38
2023-09-18T00:00	12269	196	-58.3	-64.2	282	37
2023-09-18T00:00	12293	195	-58.3	-64.2	283	37
2023-09-18T00:00	12315	195	-58.2	-63.9	283	36
2023-09-18T00:00	12343	194	-58.3	-63.6	284	35
2023-09-18T00:00	12377	193	-58.5	-63.6	284	35
2023-09-18T00:00	12406	192	-58.7	-63.6	284	34
2023-09-18T00:00	12428	191	-58.9	-63.8	284	34
2023-09-18T00:00	12453	190	-59.1	-64.0	283	33
2023-09-18T00:00	12486	189	-59.4	-64.2	283	33
2023-09-18T00:00	12515	189	-59.5	-64.2	282	33
2023-09-18T00:00	12541	188	-59.3	-64.1	281	33
2023-09-18T00:00	12570	187	-59.3		281	33
2023-09-18T00:00	12598	186	-59.5	-64.8	282	32
2023-09-18T00:00	12630	185	-59.5	-65.1	282	32
2023-09-18T00:00	12664	184	-59.6	-65.6	282	31
2023-09-18T00:00	12690	183	-59.8	-66.3	283	31
2023-09-18T00:00	12721	182	-60.0	-66.9	284	30
2023-09-18T00:00	12754	181	-60.2	-67.3	285	29
2023-09-18T00:00	12786	181	-60.3	-67.6	285	28
2023-09-18T00:00	12814	180	-60.5	-68.1	286	27
2023-09-18T00:00	12841	179	-60.6	-68.5	286	26
2023-09-18T00:00	12876	178	-60.8	-69.1	286	25
2023-09-18T00:00	12900	177	-60.9	-69.6	285	24
2023-09-18T00:00	12932	176	-61.1	-70.3	285	24
2023-09-18T00:00	12964	175	-61.2	-70.9	285	23
2023-09-18T00:00	12996	175	-61.4	-71.9	284	22
2023-09-18T00:00	13025	174	-61.5	-72.8	283	21
2023-09-18T00:00	13055	173	-61.4	-73.5	281	21
2023-09-18T00:00	13088	172	-61.4	-74.0	279	21
2023-09-18T00:00	13118	171	-61.5	-74.2	277	21
2023-09-18T00:00	13149	170	-61.6	-74.3	276	21
2023-09-18T00:00	13180	169	-61.7	-74.3	274	22
2023-09-18T00:00	13211	169	-61.8	-74.5	273	23
2023-09-18T00:00	13233	168	-61.8	-74.7	272	23
2023-09-18T00:00	13256	167	-61.7	-74.8	271	24
2023-09-18T00:00	13277	167	-61.7	-75.1	271	24
2023-09-18T00:00	13300	166	-61.7	-75.3	272	25
2023-09-18T00:00	13322	166	-61.8	-75.9	272	25
2023-09-18T00:00	13342	165	-61.4	-76.3	273	25
2023-09-18T00:00	13364	165	-61.4	-77.0	273	24
2023-09-18T00:00	13381	164	-61.4	-77.6	273	24
2023-09-18T00:00	13406	163	-61.5	-78.2	273	24
2023-09-18T00:00	13427	163	-61.5	-78.4	273	24
2023-09-18T00:00	13447	162	-61.6	-78.6	273	24
2023-09-18T00:00	13470	162	-61.5	-78.5	272	24
2023-09-18T00:00	13492	161	-61.5	-78.5	272	25
2023-09-18T00:00	13515	161	-61.7	-78.6	272	25
2023-09-18T00:00	13535	160	-61.8	-78.7	271	25
2023-09-18T00:00	13556	159	-61.9	-78.8	271	25
2023-09-18T00:00	13579	159	-62.0	-79.0	270	26
2023-09-18T00:00	13598	158	-62.0	-79.0	270	26
2023-09-18T00:00	13622	158	-62.0	-79.0	270	26
2023-09-18T00:00	13646	157	-62.1	-79.2	271	26
2023-09-18T00:00	13667	157	-62.2	-79.7	272	26
2023-09-18T00:00	13691	156	-61.4	-79.8	273	26
2023-09-18T00:00	13713	155	-61.1	-80.5	275	26
2023-09-18T00:00	13735	155	-60.4	-80.9	277	25
2023-09-18T00:00	13758	154	-59.6	-81.1	279	24
2023-09-18T00:00	13781	154	-59.0	-81.1	281	22
2023-09-18T00:00	13806	153	-58.3	-81.0	283	21
2023-09-18T00:00	13830	153	-57.6	-81.0	284	20
2023-09-18T00:00	13854	152	-57.4	-81.3	285	19
2023-09-18T00:00	13875	151	-57.4	-81.5	285	19
2023-09-18T00:00	13899	151	-57.2	-81.5	284	18
2023-09-18T00:00	13921	150	-57.0	-81.4	282	17
2023-09-18T00:00	13945	150	-56.9	-81.3	281	17
2023-09-18T00:00	13967	149	-57.0	-81.4	279	16
2023-09-18T00:00	13987	149	-56.9	-81.5	278	16
2023-09-18T00:00	14010	148	-56.7	-81.4	277	15
2023-09-18T00:00	14030	148	-56.6	-81.3	275	14
2023-09-18T00:00	14051	147	-56.7	-81.4	274	14
2023-09-18T00:00	14076	147	-56.8	-81.5	272	13
2023-09-18T00:00	14100	146	-56.9	-81.5	270	13
2023-09-18T00:00	14124	146	-57.1	-81.5	267	13
2023-09-18T00:00	14146	145	-57.2	-81.5	265	13
2023-09-18T00:00	14166	145	-57.2	-81.5	263	13
2023-09-18T00:00	14185	144	-57.3	-81.6	261	13
2023-09-18T00:00	14209	144	-57.5	-81.8	260	14
2023-09-18T00:00	14235	143	-57.5	-81.8	258	14
2023-09-18T00:00	14253	143	-57.5	-81.8	257	15
2023-09-18T00:00	14275	142	-57.6	-81.9	255	15
2023-09-18T00:00	14296	142	-57.8	-82.0	254	15
2023-09-18T00:00	14316	141	-57.9	-82.1	253	16
2023-09-18T00:00	14338	141	-57.7	-82.2	252	16
2023-09-18T00:00	14357	140	-57.7	-82.2	252	17
2023-09-18T00:00	14375	140	-57.6	-82.1	252	17
2023-09-18T00:00	14395	140	-57.5	-82.2	253	18
2023-09-18T00:00	14415	139	-57.4	-82.2	253	18
2023-09-18T00:00	14434	139	-57.3	-82.3	254	19
2023-09-18T00:00	14452	138	-57.2	-82.2	256	19
2023-09-18T00:00	14471	138	-57.1	-82.4	258	19
2023-09-18T00:00	14489	137	-56.9	-82.3	260	19
2023-09-18T00:00	14507	137	-56.5	-82.2	263	19
2023-09-18T00:00	14527	137	-56.0	-82.1	265	19
2023-09-18T00:00	14547	136	-55.9	-82.0	267	19
2023-09-18T00:00	14567	136	-55.8	-82.0	268	19
2023-09-18T00:00	14587	135	-55.7	-82.2	269	19
2023-09-18T00:00	14607	135	-55.8	-82.0	271	19
2023-09-18T00:00	14629	135	-55.9	-82.0	272	18
2023-09-18T00:00	14648	134	-56.0	-82.1	274	18
2023-09-18T00:00	14667	134	-56.1	-82.2	276	18
2023-09-18T00:00	14689	133	-56.2	-82.0	277	18
2023-09-18T00:00	14711	133	-56.3	-82.1	279	17
2023-09-18T00:00	14734	132	-56.4	-82.1	280	16
2023-09-18T00:00	14758	132	-56.4	-82.1	281	15
2023-09-18T00:00	14783	131	-56.4	-82.1	281	14
2023-09-18T00:00	14804	131	-56.4	-82.1	280	14
2023-09-18T00:00	14828	130	-56.4	-82.1	279	13
2023-09-18T00:00	14848	130	-56.4	-82.1	277	13
2023-09-18T00:00	14875	129	-56.5	-82.2	275	12
2023-09-18T00:00	14899	129	-56.6	-82.3	273	12
2023-09-18T00:00	14918	128	-56.7	-82.1	270	12
2023-09-18T00:00	14942	128	-56.9	-82.3	269	12
2023-09-18T00:00	14964	128	-57.1	-82.4	268	12
2023-09-18T00:00	14990	127	-57.3	-82.3	267	12
2023-09-18T00:00	15011	127	-57.4	-82.4	266	12
2023-09-18T00:00	15035	126	-57.6	-82.3	265	12
2023-09-18T00:00	15056	126	-57.8	-82.5	263	12
2023-09-18T00:00	15080	125	-57.9	-82.6	261	13
2023-09-18T00:00	15101	125	-58.1	-82.7	260	13
2023-09-18T00:00	15123	124	-58.2	-82.8	259	13
2023-09-18T00:00	15146	124	-58.1	-82.7	259	13
2023-09-18T00:00	15167	124	-58.0	-82.6	259	14
2023-09-18T00:00	15189	123	-58.2	-82.8	260	14
2023-09-18T00:00	15214	123	-58.2	-82.8	261	14
2023-09-18T00:00	15234	122	-58.3	-82.9	262	15
2023-09-18T00:00	15256	122	-58.1	-83.0	263	15
2023-09-18T00:00	15278	121	-58.1	-83.0	263	15
2023-09-18T00:00	15300	121	-57.9	-82.8	264	15
2023-09-18T00:00	15323	121	-58.0	-82.9	264	16
2023-09-18T00:00	15345	120	-57.7	-82.9	264	16
2023-09-18T00:00	15368	120	-57.6	-82.8	264	16
2023-09-18T00:00	15391	119	-57.4	-82.7	264	17
2023-09-18T00:00	15414	119	-57.5	-83.0	265	17
2023-09-18T00:00	15436	118	-57.6	-83.1	266	18
2023-09-18T00:00	15457	118	-57.5	-83.0	266	18
2023-09-18T00:00	15479	118	-57.5	-83.0	267	18
2023-09-18T00:00	15502	117	-57.5	-83.0	268	19
2023-09-18T00:00	15523	117	-57.4	-82.9	269	19
2023-09-18T00:00	15544	116	-57.5	-83.0	269	19
2023-09-18T00:00	15566	116	-57.5	-83.0	270	20
2023-09-18T00:00	15588	116	-57.2	-83.0	272	20
2023-09-18T00:00	15608	115	-56.9	-82.8	273	19
2023-09-18T00:00	15627	115	-56.8	-83.0	275	19
2023-09-18T00:00	15649	114	-56.9	-83.1	276	19
2023-09-18T00:00	15668	114	-56.8	-83.0	277	18
2023-09-18T00:00	15692	114	-56.8	-83.0	278	18
2023-09-18T00:00	15712	113	-56.9	-82.8	278	18
2023-09-18T00:00	15732	113	-57.0	-82.9	278	17
2023-09-18T00:00	15751	113	-57.1	-83.0	277	17
2023-09-18T00:00	15772	112	-57.2	-83.0	277	17
2023-09-18T00:00	15795	112	-57.4	-83.2	276	17
2023-09-18T00:00	15818	111	-57.6	-83.3	275	17
2023-09-18T00:00	15840	111	-57.8	-83.5	275	17
2023-09-18T00:00	15860	111	-58.0	-83.7	274	17
2023-09-18T00:00	15882	110	-58.1	-83.7	274	17
2023-09-18T00:00	15904	110	-58.1	-83.7	274	17
2023-09-18T00:00	15924	110	-57.9	-83.9	274	17
2023-09-18T00:00	15946	109	-57.7	-83.7	274	16
2023-09-18T00:00	15969	109	-57.4	-83.5	275	16
2023-09-18T00:00	15990	108	-57.4	-83.5	276	16
2023-09-18T00:00	16016	108	-57.5	-83.6	277	15
2023-09-18T00:00	16039	108	-57.5	-83.6	277	15
2023-09-18T00:00	16061	107	-57.3	-83.4	277	14
2023-09-18T00:00	16084	107	-57.3	-83.4	276	14
2023-09-18T00:00	16109	106	-57.4	-83.5	275	14
2023-09-18T00:00	16130	106	-57.6	-83.6	274	13
2023-09-18T00:00	16155	106	-57.8	-83.8	273	13
2023-09-18T00:00	16182	105	-58.0	-83.9	273	12
2023-09-18T00:00	16207	105	-57.9	-83.6	272	12
2023-09-18T00:00	16236	104	-58.1	-83.7	271	11
2023-09-18T00:00	16258	104	-58.2	-83.8	270	11
2023-09-18T00:00	16283	104	-58.4	-84.0	267	10
2023-09-18T00:00	16306	103	-58.6	-84.1	264	10
2023-09-18T00:00	16331	103	-58.6	-84.1	261	10
2023-09-18T00:00	16354	102	-58.6	-84.1	258	10
2023-09-18T00:00	16377	102	-58.6	-84.1	255	11
2023-09-18T00:00	16400	102	-58.7	-84.2	253	11
2023-09-18T00:00	16423	101	-58.7	-84.5	252	11
2023-09-18T00:00	16444	101	-58.8	-84.6	251	12
2023-09-18T00:00	16463	101	-58.9	-84.6	250	13
2023-09-18T00:00	16488	100	-58.9	-84.6	250	13
2023-09-18T00:00	16508	100	-59.0	-84.7	250	14
2023-09-18T00:00	16532	100	-58.8	-84.6	250	15
2023-09-18T00:00	16553	99	-58.8	-84.9	250	16
2023-09-18T00:00	16575	99	-58.3	-84.5	250	17
2023-09-18T00:00	16600	98	-58.0	-84.6	251	18
2023-09-18T00:00	16621	98	-57.9	-84.5	252	19
2023-09-18T00:00	16642	98	-57.6	-84.6	252	19
2023-09-18T00:00	16664	97	-57.6	-84.6	253	19
2023-09-18T00:00	16686	97	-57.7	-85.0	254	19
2023-09-18T00:00	16710	97	-57.8	-84.7	255	19
2023-09-18T00:00	16729	96	-57.9	-84.8	256	19
2023-09-18T00:00	16748	96	-58.1	-85.0	258	19
2023-09-18T00:00	16769	96	-58.1	-85.0	259	20
2023-09-18T00:00	16791	96	-58.1	-85.0	260	20
2023-09-18T00:00	16810	95	-58.1	-85.0	262	20
2023-09-18T00:00	16829	95	-58.1	-85.0	264	21
2023-09-18T00:00	16850	95	-58.1	-85.0	266	21
2023-09-18T00:00	16869	94	-58.0	-85.2	268	21
2023-09-18T00:00	16889	94	-57.3	-85.1	270	21
2023-09-18T00:00	16909	94	-57.0	-84.8	272	21
2023-09-18T00:00	16928	93	-56.9	-84.8	274	21
2023-09-18T00:00	16953	93	-56.8	-85.1	275	21
2023-09-18T00:00	16971	93	-56.6	-84.9	275	21
2023-09-18T00:00	16990	93	-56.6	-85.4	275	21
2023-09-18T00:00	17013	92	-56.4	-85.2	276	21
2023-09-18T00:00	17032	92	-56.1	-85.0	277	21
2023-09-18T00:00	17055	92	-56.2	-85.5	278	20
2023-09-18T00:00	17077	91	-55.8	-85.2	279	20
2023-09-18T00:00	17099	91	-55.6	-85.1	281	20
2023-09-18T00:00	17120	91	-55.4	-84.9	282	19
2023-09-18T00:00	17141	90	-55.1	-84.7	283	19
2023-09-18T00:00	17163	90	-55.0	-84.6	283	18
2023-09-18T00:00	17185	90	-55.0	-84.6	284	18
2023-09-18T00:00	17208	89	-55.2	-84.8	285	17
2023-09-18T00:00	17229	89	-55.4	-84.9	285	17
2023-09-18T00:00	17252	89	-55.5	-85.0	286	17
2023-09-18T00:00	17271	89	-55.2	-84.8	287	17
2023-09-18T00:00	17296	88	-55.3	-84.9	287	17
2023-09-18T00:00	17321	88	-55.3	-84.9	287	17
2023-09-18T00:00	17343	88	-55.5	-85.0	287	17
2023-09-18T00:00	17362	87	-55.7	-85.2	287	17
2023-09-18T00:00	17385	87	-55.8	-85.2	288	17
2023-09-18T00:00	17406	87	-55.8	-85.2	289	18
2023-09-18T00:00	17429	86	-56.0	-84.9	291	18
2023-09-18T00:00	17450	86	-56.2	-85.1	292	18
2023-09-18T00:00	17473	86	-56.3	-85.1	293	18
2023-09-18T00:00	17493	85	-56.4	-85.2	295	18
2023-09-18T00:00	17518	85	-56.3	-85.1	296	18
2023-09-18T00:00	17536	85	-56.4	-85.2	297	17
2023-09-18T00:00	17555	85	-56.4	-85.7	298	17
2023-09-18T00:00	17580	84	-56.3	-85.6	300	17
2023-09-18T00:00	17602	84	-56.1	-85.5	300	17
2023-09-18T00:00	17625	84	-55.8	-85.2	301	16
2023-09-18T00:00	17647	83	-55.8	-85.2	301	16
2023-09-18T00:00	17667	83	-55.9	-85.3	301	16
2023-09-18T00:00	17687	83	-56.0		301	16
2023-09-18T00:00	17710	83	-56.0		301	16
2023-09-18T00:00	17733	82	-56.0		300	15
2023-09-18T00:00	17756	82	-56.1	-85.5	300	15
2023-09-18T00:00	17776	82	-56.2	-85.5	299	14
2023-09-18T00:00	17798	81	-56.2	-85.5	298	14
2023-09-18T00:00	17819	81	-56.2	-85.5	297	13
2023-09-18T00:00	17840	81	-56.1	-85.5	295	13
2023-09-18T00:00	17862	81	-56.1	-85.5	293	13
2023-09-18T00:00	17885	80	-56.1	-85.5	292	13
2023-09-18T00:00	17910	80	-56.2	-85.5	290	13
2023-09-18T00:00	17931	80	-56.4	-85.2	288	12
2023-09-18T00:00	17957	80	-56.5	-85.3	287	12
2023-09-18T00:00	17975	79	-56.5	-85.3	285	12
2023-09-18T00:00	18000	79	-56.6	-85.4	284	12
2023-09-18T00:00	18022	79	-56.8	-85.5	284	12
2023-09-18T00:00	18048	78	-56.9	-85.6	283	13
2023-09-18T00:00	18075	78	-57.0	-85.7	283	13
2023-09-18T00:00	18099	78	-57.2	-85.8	284	13
2023-09-18T00:00	18124	77	-57.1	-85.7	285	13
2023-09-18T00:00	18148	77	-57.1	-85.7	286	12
2023-09-18T00:00	18173	77	-57.1	-85.7	288	12
2023-09-18T00:00	18197	77	-57.4	-86.0	289	11
2023-09-18T00:00	18222	76	-57.6	-85.7	291	11
2023-09-18T00:00	18248	76	-57.8	-85.9	291	10
2023-09-18T00:00	18274	76	-57.9		292	10
2023-09-18T00:00	18301	75	-58.0	-86.0	291	10
2023-09-18T00:00	18324	75	-58.1		290	9
2023-09-18T00:00	18345	75	-58.3	-86.2	289	9
2023-09-18T00:00	18375	74	-58.2	-86.2	287	9
2023-09-18T00:00	18399	74	-58.1		285	8
2023-09-18T00:00	18427	74	-58.0	-86.4	283	8
2023-09-18T00:00	18449	74	-57.9	-86.4	281	8
2023-09-18T00:00	18472	73	-58.0	-86.4	280	8
2023-09-18T00:00	18502	73	-58.0	-86.4	279	8
2023-09-18T00:00	18524	73	-58.0	-86.4	279	8
2023-09-18T00:00	18548	72	-58.1		279	8
2023-09-18T00:00	18574	72	-58.2	-86.2	280	8
2023-09-18T00:00	18601	72	-58.5	-86.4	281	9
2023-09-18T00:00	18629	71	-58.6	-86.5	281	9
2023-09-18T00:00	18651	71	-58.6	-86.5	281	10
2023-09-18T00:00	18676	71	-58.7	-86.5	281	10
2023-09-18T00:00	18703	71	-58.9	-86.7	282	11
2023-09-18T00:00	18726	70	-59.1	-86.8	282	11
2023-09-18T00:00	18750	70	-59.0	-86.8	282	11
2023-09-18T00:00	18776	70	-59.0	-86.8	283	10
2023-09-18T00:00	18802	70	-59.0	-86.4	283	10
2023-09-18T00:00	18820	69	-59.1	-86.5	283	10
2023-09-18T00:00	18844	69	-59.2	-86.9	283	9
2023-09-18T00:00	18872	69	-59.4	-87.1	283	9
2023-09-18T00:00	18895	69	-59.5	-87.1	284	9
2023-09-18T00:00	18919	68	-59.3	-87.4	284	9
2023-09-18T00:00	18941	68	-58.7	-87.0	284	9
2023-09-18T00:00	18962	68	-58.2	-87.0	282	8
2023-09-18T00:00	18988	67	-57.8	-86.7	279	8
2023-09-18T00:00	19016	67	-57.8	-86.7	273	7
2023-09-18T00:00	19038	67	-57.8	-86.7	265	7
2023-09-18T00:00	19062	67	-57.7	-86.7	258	7
2023-09-18T00:00	19090	66	-57.7	-86.7	251	8
2023-09-18T00:00	19116	66	-57.7	-86.7	245	8
2023-09-18T00:00	19140	66	-57.5	-86.5	242	9
2023-09-18T00:00	19165	66	-57.6	-86.6	240	9
2023-09-18T00:00	19192	65	-57.6	-86.6	239	10
2023-09-18T00:00	19218	65	-57.6	-86.6	240	10
2023-09-18T00:00	19240	65	-57.6	-86.6	241	10
2023-09-18T00:00	19265	65	-57.6	-86.6	243	10
2023-09-18T00:00	19294	64	-57.6	-86.6	244	10
2023-09-18T00:00	19317	64	-57.6	-86.6	245	10
2023-09-18T00:00	19339	64	-57.5	-86.5	247	11
2023-09-18T00:00	19365	64	-57.6	-86.6	248	11
2023-09-18T00:00	19390	63	-57.7	-86.7	249	11
2023-09-18T00:00	19414	63	-58.0	-86.4	250	12
2023-09-18T00:00	19438	63	-58.1	-86.5	252	12
2023-09-18T00:00	19469	63	-58.1	-86.5	253	12
2023-09-18T00:00	19492	62	-58.1	-86.5	255	13
2023-09-18T00:00	19517	62	-58.1	-86.5	256	13
2023-09-18T00:00	19544	62	-58.1	-86.5	257	13
2023-09-18T00:00	19568	62	-58.1	-86.5	259	13
2023-09-18T00:00	19592	61	-58.3	-86.7	261	13
2023-09-18T00:00	19618	61	-58.4	-86.7	263	13
2023-09-18T00:00	19645	61	-58.5	-86.8	264	12
2023-09-18T00:00	19670	61	-58.3	-86.7	265	12
2023-09-18T00:00	19692	60	-58.3	-86.7	266	12
2023-09-18T00:00	19720	60	-58.3	-86.7	267	11
2023-09-18T00:00	19741	60	-58.3	-86.7	267	11
2023-09-18T00:00	19771	60	-58.5	-86.8	268	11
2023-09-18T00:00	19792	59	-58.5	-86.8	270	11
2023-09-18T00:00	19823	59	-58.4	-86.7	271	11
2023-09-18T00:00	19845	59	-58.5	-86.8	272	11
2023-09-18T00:00	19868	59	-58.4	-86.7	274	12
2023-09-18T00:00	19890	58	-58.5	-86.8	276	13
2023-09-18T00:00	19917	58	-58.5	-86.8	278	13
2023-09-18T00:00	19943	58	-58.6	-87.3	279	14
2023-09-18T00:00	19966	58	-58.6	-87.3	281	14
2023-09-18T00:00	19987	58	-58.4	-87.2	282	15
2023-09-18T00:00	20009	57	-58.0	-86.9	283	15
2023-09-18T00:00	20033	57	-58.0	-86.9	283	16
2023-09-18T00:00	20057	57	-58.1	-87.0	283	16
2023-09-18T00:00	20078	57	-58.0	-86.9	283	16
2023-09-18T00:00	20104	57	-58.0	-86.9	284	16
2023-09-18T00:00	20127	56	-57.8	-86.7	286	16
2023-09-18T00:00	20150	56	-57.7	-86.7	289	16
2023-09-18T00:00	20169	56	-57.8	-86.7	293	16
2023-09-18T00:00	20198	56	-57.8	-86.7	296	16
2023-09-18T00:00	20215	56	-57.8	-86.7	300	16
2023-09-18T00:00	20241	55	-57.7	-86.7	303	16
2023-09-18T00:00	20263	55	-57.6	-86.6	306	16
2023-09-18T00:00	20285	55	-57.6	-86.6	309	15
2023-09-18T00:00	20314	55	-57.4	-86.9	311	14
2023-09-18T00:00	20335	54	-57.3	-86.9	313	13
2023-09-18T00:00	20359	54	-57.1	-86.7	314	13
2023-09-18T00:00	20383	54	-57.0	-86.6	314	12
2023-09-18T00:00	20409	54	-57.0	-86.1	312	11
2023-09-18T00:00	20435	54	-57.1	-86.2	310	10
2023-09-18T00:00	20462	53	-57.3	-86.4	308	10
2023-09-18T00:00	20483	53	-57.5	-86.5	307	9
2023-09-18T00:00	20507	53	-57.7	-86.7	307	9
2023-09-18T00:00	20536	53	-57.9	-86.8	309	9
2023-09-18T00:00	20562	53	-57.8	-86.7	311	9
2023-09-18T00:00	20585	52	-57.8	-86.7	312	9
2023-09-18T00:00	20615	52	-57.8	-86.7	312	9
2023-09-18T00:00	20638	52	-57.7	-86.7	312	9
2023-09-18T00:00	20664	52	-57.7	-86.7	312	10
2023-09-18T00:00	20689	52	-57.8	-86.7	312	9
2023-09-18T00:00	20717	51	-57.9	-86.8	312	9
2023-09-18T00:00	20745	51	-57.9	-86.8	313	9
2023-09-18T00:00	20770	51	-57.9	-86.8	313	8
2023-09-18T00:00	20799	51	-57.8	-86.7	313	8
2023-09-18T00:00	20825	50	-57.9	-86.8	312	7
2023-09-18T00:00	20845	50	-57.9	-86.8	311	6
2023-09-18T00:00	20874	50	-57.8	-86.7	308	5
2023-09-18T00:00	20901	50	-57.7	-86.7	305	5
2023-09-18T00:00	20930	50	-57.8	-86.7	300	4
2023-09-18T00:00	20954	49	-57.8	-86.7	295	4
2023-09-18T00:00	20980	49	-57.9	-86.8	288	4
2023-09-18T00:00	21005	49	-57.9	-86.8	281	3
2023-09-18T00:00	21030	49	-57.8	-86.7	274	3
2023-09-18T00:00	21057	49	-57.7	-86.7	267	3
2023-09-18T00:00	21083	48	-57.8	-86.7	261	3
2023-09-18T00:00	21103	48	-57.9	-86.8	256	4
2023-09-18T00:00	21126	48	-58.0	-86.4	252	4
2023-09-18T00:00	21159	48	-58.2	-86.6	248	4
2023-09-18T00:00	21182	48	-58.4	-86.7	244	5
2023-09-18T00:00	21202	48	-58.5	-86.8	242	5
2023-09-18T00:00	21229	47	-58.7	-87.0	241	6
2023-09-18T00:00	21247	47	-58.8	-87.0	241	6
2023-09-18T00:00	21274	47	-58.8	-87.0	241	7
2023-09-18T00:00	21299	47	-58.8	-87.0	242	7
2023-09-18T00:00	21325	47	-58.8	-87.0	244	7
2023-09-18T00:00	21352	46	-58.6	-87.3	247	7
2023-09-18T00:00	21372	46	-58.6	-87.3	250	7
2023-09-18T00:00	21399	46	-58.1	-87.0	254	7
2023-09-18T00:00	21423	46	-57.9	-86.8	259	7
2023-09-18T00:00	21448	46	-58.0	-86.9	264	7
2023-09-18T00:00	21470	46	-58.1	-87.0	268	7
2023-09-18T00:00	21494	45	-58.2	-87.0	271	7
2023-09-18T00:00	21518	45	-58.1	-87.0	271	6
2023-09-18T00:00	21542	45	-58.2	-87.0	269	6
2023-09-18T00:00	21567	45	-58.0	-86.9	265	5
2023-09-18T00:00	21590	45	-58.1	-87.0	260	5
2023-09-18T00:00	21614	44	-58.1	-87.0	255	5
2023-09-18T00:00	21640	44	-58.1	-87.0	252	5
2023-09-18T00:00	21662	44	-58.2	-87.0	252	5
2023-09-18T00:00	21690	44	-58.2	-87.0	252	5
2023-09-18T00:00	21713	44	-58.0	-86.9	254	5
2023-09-18T00:00	21740	44	-58.1	-87.0	255	5
2023-09-18T00:00	21762	43	-58.1	-87.0	256	5
2023-09-18T00:00	21786	43	-57.8	-86.7	255	5
2023-09-18T00:00	21811	43	-57.8	-86.7	254	5
2023-09-18T00:00	21835	43	-57.9	-86.8	254	5
2023-09-18T00:00	21859	43	-57.8	-86.7	254	6
2023-09-18T00:00	21884	43	-57.7	-86.7	255	6
2023-09-18T00:00	21911	42	-57.8	-86.7	257	7
2023-09-18T00:00	21935	42	-57.8	-86.7	259	8
2023-09-18T00:00	21961	42	-57.7	-86.7	261	8
2023-09-18T00:00	21984	42	-57.8	-86.7	264	9
2023-09-18T00:00	22013	42	-57.9	-86.8	266	9
2023-09-18T00:00	22033	42	-57.8	-86.7	268	9
2023-09-18T00:00	22062	41	-57.6	-87.1	271	9
2023-09-18T00:00	22086	41	-57.6	-87.1	273	9
2023-09-18T00:00	22108	41	-57.5	-87.0	275	9
2023-09-18T00:00	22137	41	-57.5	-87.0	276	8
2023-09-18T00:00	22162	41	-57.4	-86.9	277	8
2023-09-18T00:00	22189	41	-57.6	-87.1	278	8
2023-09-18T00:00	22216	40	-57.6	-87.1	279	8
2023-09-18T00:00	22241	40	-57.6	-87.1	280	8
2023-09-18T00:00	22266	40	-57.5	-87.0	283	8
2023-09-18T00:00	22286	40	-57.3	-86.9	287	9
2023-09-18T00:00	22322	40	-57.3	-86.9	291	9
2023-09-18T00:00	22344	40	-57.0	-87.2	295	10
2023-09-18T00:00	22374	39	-56.6	-86.9	299	10
2023-09-18T00:00	22398	39	-56.5	-86.8	300	10
2023-09-18T00:00	22424	39	-56.4		300	10
2023-09-18T00:00	22454	39	-56.4		299	10
2023-09-18T00:00	22481	39	-56.2	-86.6	297	11
2023-09-18T00:00	22503	39	-56.1	-86.5	295	11
2023-09-18T00:00	22525	39	-56.2	-86.6	294	12
2023-09-18T00:00	22551	38	-56.2	-86.6	294	12
2023-09-18T00:00	22584	38	-56.2	-86.6	295	12
2023-09-18T00:00	22607	38	-56.1	-86.5	297	11
2023-09-18T00:00	22630	38	-56.1	-86.5	299	11
2023-09-18T00:00	22663	38	-56.2	-86.0	301	10
2023-09-18T00:00	22680	38	-56.3	-86.1	302	10
2023-09-18T00:00	22708	37	-56.4	-86.2	302	10
2023-09-18T00:00	22732	37	-56.5	-86.8	301	10
2023-09-18T00:00	22758	37	-56.3	-86.6	299	10
2023-09-18T00:00	22787	37	-56.3	-86.6	298	10
2023-09-18T00:00	22816	37	-56.2	-86.6	298	10
2023-09-18T00:00	22837	37	-56.2	-86.6	299	10
2023-09-18T00:00	22863	37	-56.1	-86.5	301	10
2023-09-18T00:00	22891	36	-56.0	-86.4	303	10
2023-09-18T00:00	22911	36	-56.2	-86.6	306	9
2023-09-18T00:00	22939	36	-56.2	-86.6	310	9
2023-09-18T00:00	22964	36	-56.3	-86.6	313	9
2023-09-18T00:00	22995	36	-56.3	-86.1	315	9
2023-09-18T00:00	23017	36	-56.4	-86.2	317	9
2023-09-18T00:00	23042	36	-56.4	-86.2	318	9
2023-09-18T00:00	23074	35	-56.5	-86.3	319	9
2023-09-18T00:00	23095	35	-56.5	-86.8	320	8
2023-09-18T00:00	23126	35	-56.4		321	8
2023-09-18T00:00	23156	35	-56.4		321	7
2023-09-18T00:00	23172	35	-56.4		321	7
2023-09-18T00:00	23208	35	-56.3	-86.6	321	7
2023-09-18T00:00	23237	34	-56.3	-86.6	321	6
2023-09-18T00:00	23261	34	-56.3	-86.6	321	6
2023-09-18T00:00	23287	34	-56.4		320	6
2023-09-18T00:00	23315	34	-56.5	-86.8	320	6
2023-09-18T00:00	23343	34	-56.6	-86.3	319	6
2023-09-18T00:00	23363	34	-56.5	-86.3	317	5
2023-09-18T00:00	23387	34	-56.5	-86.3	314	5
2023-09-18T00:00	23420	33	-56.6	-86.3	312	6
2023-09-18T00:00	23445	33	-56.6	-86.3	310	6
2023-09-18T00:00	23472	33	-56.7	-86.4	309	6
2023-09-18T00:00	23496	33	-56.9	-86.6	308	6
2023-09-18T00:00	23521	33	-56.8	-86.5	307	7
2023-09-18T00:00	23544	33	-56.7	-86.4	306	7
2023-09-18T00:00	23576	33	-56.7	-86.4	305	8
2023-09-18T00:00	23603	33	-56.8	-86.5	304	8
2023-09-18T00:00	23633	32	-57.0	-86.6	303	9
2023-09-18T00:00	23649	32	-57.0	-86.6	303	9
2023-09-18T00:00	23676	32	-57.0	-87.2	304	9
2023-09-18T00:00	23704	32	-56.8	-87.0	305	9
2023-09-18T00:00	23731	32	-56.6	-86.9	306	9
2023-09-18T00:00	23752	32	-56.6	-86.9	308	9
2023-09-18T00:00	23779	32	-56.7	-86.9	309	9
2023-09-18T00:00	23800	32	-56.7	-86.9	311	9
2023-09-18T00:00	23827	31	-56.6	-86.9	314	9
2023-09-18T00:00	23849	31	-56.6	-86.9	316	8
2023-09-18T00:00	23881	31	-56.5	-86.8	319	7
2023-09-18T00:00	23917	31	-56.1	-86.5	323	6
2023-09-18T00:00	23938	31	-56.0	-86.4	326	5
2023-09-18T00:00	23965	31	-56.1	-86.5	330	4
2023-09-18T00:00	23991	31	-56.1	-86.5	336	3
2023-09-18T00:00	24012	30	-56.2	-86.6	344	3
2023-09-18T00:00	24046	30	-56.4		353	3
2023-09-18T00:00	24064	30	-56.5	-86.8	1	3
2023-09-18T00:00	24097	30	-56.5	-86.8	9	2
2023-09-18T00:00	24114	30	-55.9	-86.3	17	2
2023-09-18T00:00	24147	30	-55.9	-86.3	28	2
2023-09-18T00:00	24165	30	-55.6	-86.1	46	1
2023-09-18T00:00	24187	30	-55.7	-86.2	72	1
2023-09-18T00:00	24217	30	-55.8	-86.3	105	1
2023-09-18T00:00	24241	29	-56.0	-86.4	137	1
2023-09-18T00:00	24265	29	-56.2	-86.6	172	1
2023-09-18T00:00	24301	29	-56.3	-86.6	210	1
2023-09-18T00:00	24326	29	-56.3	-86.6	240	2
2023-09-18T00:00	24350	29	-56.3	-86.6	259	2
2023-09-18T00:00	24378	29	-56.1	-86.5	271	3
2023-09-18T00:00	24404	29	-56.2	-86.6	279	4
2023-09-18T00:00	24430	29	-56.2	-86.6	285	4
2023-09-18T00:00	24457	28	-56.1	-86.5	288	4
2023-09-18T00:00	24476	28	-56.0	-86.4	290	4
2023-09-18T00:00	24505	28	-55.9	-86.3	291	4
2023-09-18T00:00	24537	28	-56.0	-86.4	291	4
2023-09-18T00:00	24562	28	-56.0	-86.4	291	4
2023-09-18T00:00	24590	28	-56.0	-86.4	291	4
2023-09-18T00:00	24614	28	-55.8	-86.3	289	4
2023-09-18T00:00	24644	28	-55.7	-86.2	286	4
2023-09-18T00:00	24672	27	-55.9	-86.3	283	4
2023-09-18T00:00	24697	27	-55.9	-86.3	279	5
2023-09-18T00:00	24721	27	-55.9	-86.3	276	5
2023-09-18T00:00	24753	27	-55.9	-86.3	272	5
2023-09-18T00:00	24777	27	-55.8	-86.3	267	5
2023-09-18T00:00	24801	27	-55.7	-86.8	263	5
2023-09-18T00:00	24829	27	-55.8	-86.9	260	5
2023-09-18T00:00	24855	27	-55.8	-86.3	259	5
2023-09-18T00:00	24884	27	-55.8	-86.3	261	5
2023-09-18T00:00	24911	26	-55.9	-86.9	263	5
2023-09-18T00:00	24942	26	-55.7	-86.8	267	6
2023-09-18T00:00	24975	26	-55.5	-86.7	270	6
2023-09-18T00:00	24995	26	-55.5	-86.7	274	7
2023-09-18T00:00	25022	26	-55.5	-86.7	278	7
2023-09-18T00:00	25043	26	-55.4	-86.6	280	8
2023-09-18T00:00	25069	26	-55.1	-86.4	281	8
2023-09-18T00:00	25100	26	-54.9	-86.2	280	9
2023-09-18T00:00	25143	26	-54.7	-86.1	279	9
2023-09-18T00:00	25166	25	-54.8	-86.1	278	10
2023-09-18T00:00	25176	25	-54.9	-86.9	278	10
2023-09-18T00:00	25209	25	-54.7	-86.7	280	10
2023-09-18T00:00	25242	25	-54.5	-86.6	284	11
2023-09-18T00:00	25270	25	-54.3	-86.4	288	11
2023-09-18T00:00	25292	25	-54.3	-86.4	293	11
2023-09-18T00:00	25317	25	-54.2	-86.4	298	11
2023-09-18T00:00	25349	25	-54.3	-86.4	303	11
2023-09-18T00:00	25377	25	-54.3	-86.4	308	11
2023-09-18T00:00	25409	24	-53.9	-86.2	311	11
2023-09-18T00:00	25434	24	-53.7	-86.0	313	11
2023-09-18T00:00	25468	24	-53.7	-86.0	314	11
2023-09-18T00:00	25494	24	-53.5	-85.9	313	11
2023-09-18T00:00	25520	24	-53.6		312	11
2023-09-18T00:00	25558	24	-53.6		311	10
2023-09-18T00:00	25582	24	-53.5	-85.9	311	10
2023-09-18T00:00	25612	24	-53.4	-85.8	311	10
2023-09-18T00:00	25646	24	-53.5	-85.9	313	9
2023-09-18T00:00	25671	24	-53.5	-85.9	316	9
2023-09-18T00:00	25705	23	-53.7	-85.3	320	9
2023-09-18T00:00	25730	23	-53.8	-85.4	323	9
2023-09-18T00:00	25755	23	-53.9	-85.5	327	10
2023-09-18T00:00	25789	23	-53.9	-85.5	329	10
2023-09-18T00:00	25815	23	-54.1	-85.6	331	10
2023-09-18T00:00	25849	23	-54.1	-85.6	332	10
2023-09-18T00:00	25882	23	-54.2	-85.7	332	11
2023-09-18T00:00	25908	23	-54.1	-85.6	332	11
2023-09-18T00:00	25939	23	-54.0	-85.5	332	11
2023-09-18T00:00	25975	22	-53.9	-86.2	333	11
2023-09-18T00:00	26002	22	-53.7	-86.0	335	11
2023-09-18T00:00	26034	22	-53.9	-86.2	338	10
2023-09-18T00:00	26066	22	-54.0	-86.2	342	10
2023-09-18T00:00	26097	22	-53.9	-86.2	345	9
2023-09-18T00:00	26118	22	-53.9	-86.2	348	8
2023-09-18T00:00	26154	22	-53.9	-86.2	350	8
2023-09-18T00:00	26172	22	-54.0	-86.2	350	8
2023-09-18T00:00	26206	22	-53.8	-86.1	350	8
2023-09-18T00:00	26236	22	-53.7	-86.0	349	8
2023-09-18T00:00	26272	21	-53.7	-86.0	348	8
2023-09-18T00:00	26300	21	-53.7	-86.0	348	7
2023-09-18T00:00	26324	21	-53.6		349	7
2023-09-18T00:00	26360	21	-53.7	-86.0	350	6
2023-09-18T00:00	26391	21	-53.8	-86.1	349	6
2023-09-18T00:00	26409	21	-53.9	-86.2	347	6
2023-09-18T00:00	26437	21	-53.9	-86.2	343	6
2023-09-18T00:00	26476	21	-53.9	-86.2	341	6
2023-09-18T00:00	26504	21	-54.0	-86.2	339	7
2023-09-18T00:00	26527	21	-53.9	-86.2	340	7
2023-09-18T00:00	26552	20	-53.7	-86.0	341	7
2023-09-18T00:00	26581	20	-53.6		343	7
2023-09-18T00:00	26606	20	-53.4	-85.8	344	7
2023-09-18T00:00	26640	20	-53.4	-85.8	343	7
2023-09-18T00:00	26658	20	-53.3	-85.7	342	7
2023-09-18T00:00	26685	20	-53.2	-85.6	341	7
2023-09-18T00:00	26708	20	-53.2	-85.6	341	7
2023-09-18T00:00	26741	20	-53.2	-85.6	342	8
2023-09-18T00:00	26762	20	-53.1	-85.6	343	8
2023-09-18T00:00	26792	20	-52.8	-86.1	344	8
2023-09-18T00:00	26817	20	-52.7	-86.0	344	8
2023-09-18T00:00	26839	20	-52.4	-85.8	343	8
2023-09-18T00:00	26867	20	-52.2	-85.7	343	8
2023-09-18T00:00	26899	19	-52.1	-85.6	343	8
2023-09-18T00:00	26914	19	-52.1	-85.6	344	8
2023-09-18T00:00	26947	19	-51.9	-85.5	346	8
2023-09-18T00:00	26972	19	-51.8	-85.4	347	9
2023-09-18T00:00	26999	19	-51.7	-85.3	347	9
2023-09-18T00:00	27028	19	-51.9	-85.5	346	9
2023-09-18T00:00	27050	19	-52.0	-85.5	343	8
2023-09-18T00:00	27071	19	-51.8	-85.4	341	8
2023-09-18T00:00	27102	19	-51.9	-85.5	339	8
2023-09-18T00:00	27129	19	-51.6	-85.2	340	8
2023-09-18T00:00	27155	19	-51.4	-85.1	342	8
2023-09-18T00:00	27177	19	-51.3	-85.0	347	8
2023-09-18T00:00	27206	19	-51.3	-85.0	351	8
2023-09-18T00:00	27236	18	-51.4	-85.1	356	9
2023-09-18T00:00	27258	18	-51.2	-85.0	359	9
2023-09-18T00:00	27297	18	-51.2	-85.0	2	9
2023-09-18T00:00	27312	18	-51.3	-85.0	3	9
2023-09-18T00:00	27340	18	-51.4	-85.1	3	9
2023-09-18T00:00	27360	18	-51.5	-85.2	3	9
2023-09-18T00:00	27398	18	-51.4	-85.1	3	9
2023-09-18T00:00	27426	18	-51.4	-85.1	2	9
2023-09-18T00:00	27450	18	-51.6	-85.2	2	9
2023-09-18T00:00	27470	18	-51.6	-85.2	2	8
2023-09-18T00:00	27501	18	-51.4	-85.1	2	8
2023-09-18T00:00	27538	18	-51.3	-85.0	1	8
2023-09-18T00:00	27563	18	-51.3	-85.0	0	7
2023-09-18T00:00	27597	17	-51.4	-85.1	360	7
2023-09-18T00:00	27616	17	-51.3	-85.0	359	7
2023-09-18T00:00	27654	17	-51.5	-85.2	358	7
2023-09-18T00:00	27677	17	-51.4	-85.1	356	7
2023-09-18T00:00	27712	17	-51.4	-85.1	353	7
2023-09-18T00:00	27738	17	-51.5	-85.2	349	7
2023-09-18T00:00	27771	17	-51.2	-85.0	343	7
2023-09-18T00:00	27793	17	-50.8	-84.7	336	7
2023-09-18T00:00	27824	17	-50.9	-84.7	329	7
2023-09-18T00:00	27863	17	-50.9	-84.7	324	7
2023-09-18T00:00	27884	17	-50.9	-84.7	320	7
2023-09-18T00:00	27923	17	-50.9	-84.7	319	7
2023-09-18T00:00	27945	17	-50.9	-84.7	319	7
2023-09-18T00:00	27967	16	-50.8	-85.6	321	8
2023-09-18T00:00	28013	16	-50.5	-85.3	325	8
2023-09-18T00:00	28036	16	-50.0	-85.0	329	9
2023-09-18T00:00	28054	16	-49.8	-84.8	333	9
2023-09-18T00:00	28080	16	-49.7	-84.8	336	9
2023-09-18T00:00	28109	16	-49.7	-84.8	337	10
2023-09-18T00:00	28155	16	-49.8	-84.8	337	10
2023-09-18T00:00	28181	16	-49.6	-84.7	337	9
2023-09-18T00:00	28200	16	-49.4	-84.6	336	9
2023-09-18T00:00	28214	16	-49.4	-84.6	334	8
2023-09-18T00:00	28256	16	-49.3	-84.5	333	8
2023-09-18T00:00	28277	16	-49.4	-84.6	332	8
2023-09-18T00:00	28307	16	-49.4	-84.6	331	9
2023-09-18T00:00	28339	16	-49.3	-84.5	330	9
2023-09-18T00:00	28375	16	-49.1	-84.3	329	10
2023-09-18T00:00	28391	15	-48.9	-84.2	329	10
2023-09-18T00:00	28422	15	-48.6		330	11
2023-09-18T00:00	28443	15	-48.5	-83.9	332	11
2023-09-18T00:00	28478	15	-48.4	-83.8	335	11
2023-09-18T00:00	28506	15	-48.3	-83.8	338	11
2023-09-18T00:00	28537	15	-48.2	-84.8	342	10
2023-09-18T00:00	28555	15	-48.0	-84.6	346	10
2023-09-18T00:00	28593	15	-47.8	-84.5	350	9
2023-09-18T00:00	28621	15	-47.8	-83.4	354	8
2023-09-18T00:00	28640	15	-47.9	-83.5	357	7
2023-09-18T00:00	28664	15	-47.8	-83.4	360	6
2023-09-18T00:00	28701	15	-47.9	-83.5	2	5
2023-09-18T00:00	28737	15	-48.0	-83.6	3	4
2023-09-18T00:00	28755	15	-48.0	-83.6	3	3
2023-09-18T00:00	28790	15	-48.1	-83.6	3	2
2023-09-18T00:00	28806	14	-48.2	-83.7	1	2
2023-09-18T00:00	28851	14	-48.1	-83.6	358	1
2023-09-18T00:00	28879	14	-48.1	-83.6	197	0
2023-09-18T00:00	28914	14	-48.1	-83.6	185	1
2023-09-18T00:00	28934	14	-48.0	-83.6	186	2
2023-09-18T00:00	28961	14	-48.1	-83.6	189	3
2023-09-18T00:00	28985	14	-48.1	-83.6	194	3
2023-09-18T00:00	29016	14	-47.8	-84.5	201	4
2023-09-18T00:00	29044	14	-47.5	-84.3	211	4
2023-09-18T00:00	29069	14	-47.5	-84.3	224	4
2023-09-18T00:00	29101	14	-47.4	-84.2	236	4
2023-09-18T00:00	29132	14	-46.9	-83.9	245	4
2023-09-18T00:00	29158	14	-46.6	-83.6	249	4
2023-09-18T00:00	29197	14	-46.4	-83.5	248	5
2023-09-18T00:00	29211	14	-46.4	-83.5	244	5
2023-09-18T00:00	29242	14	-46.3	-83.4	240	5
2023-09-18T00:00	29287	14	-46.4	-83.5	237	6
2023-09-18T00:00	29326	13	-46.4	-83.5	237	6
2023-09-18T00:00	29342	13	-46.4	-83.5	237	7
2023-09-18T00:00	29377	13	-46.0	-83.2	240	7
2023-09-18T00:00	29412	13	-45.9	-83.2	243	7
2023-09-18T00:00	29442	13	-45.5	-82.9	247	8
2023-09-18T00:00	29466	13	-45.5	-82.9	251	8
2023-09-18T00:00	29492	13	-45.3	-82.7	254	9
2023-09-18T00:00	29525	13	-45.4	-82.8	257	9
2023-09-18T00:00	29559	13	-45.6	-82.9	259	10
2023-09-18T00:00	29587	13	-45.6	-82.9	261	10
2023-09-18T00:00	29612	13	-45.3	-82.7	262	10
2023-09-18T00:00	29628	13	-45.0	-82.5	262	10
2023-09-18T00:00	29663	13	-45.0	-82.5	262	10
2023-09-18T00:00	29694	13	-45.1	-82.6	262	10
2023-09-18T00:00	29714	13	-45.2	-82.7	262	9
2023-09-18T00:00	29756	13	-45.4	-82.8	262	9
2023-09-18T00:00	29783	13	-45.6	-82.9	263	9
2023-09-18T00:00	29823	12	-45.8	-83.1	264	9
2023-09-18T00:00	29852	12	-46.0	-83.2	265	9
2023-09-18T00:00	29873	12	-46.0	-83.2	265	9
2023-09-18T00:00	29900	12	-46.2	-83.4	267	9
2023-09-18T00:00	29942	12	-46.4	-83.5	268	9
2023-09-18T00:00	29972	12	-46.6	-83.6	269	9
2023-09-18T00:00	29996	12	-46.8	-83.8	271	9
2023-09-18T00:00	30033	12	-47.0	-83.9	273	8
2023-09-18T00:00	30064	12	-47.2	-84.1	275	8
2023-09-18T00:00	30084	12	-47.3	-84.1	279	7
2023-09-18T00:00	30123	12	-46.9	-83.9	284	6
2023-09-18T00:00	30153	12	-47.1	-84.0	289	6
2023-09-18T00:00	30179	12	-47.1	-84.0	292	6
2023-09-18T00:00	30210	12	-46.9	-83.9	293	6
2023-09-18T00:00	30230	12	-46.8	-83.8	291	7
2023-09-18T00:00	30268	12	-46.9	-83.9	288	7
2023-09-18T00:00	30309	12	-47.0	-83.9	285	7
2023-09-18T00:00	30334	12	-47.0	-83.9	283	8
2023-09-18T00:00	30364	11	-47.1	-84.0	281	8
2023-09-18T00:00	30401	11	-46.9	-83.9	279	8
2023-09-18T00:00	30430	11	-46.8	-83.8	278	9
2023-09-18T00:00	30449	11	-46.5	-83.6	278	9
2023-09-18T00:00	30492	11	-46.5	-83.6	279	9
2023-09-18T00:00	30503	11	-46.5	-83.6	279	10
2023-09-18T00:00	30538	11	-46.5	-83.6	279	11
2023-09-18T00:00	30579	11	-46.5	-83.6	279	11
2023-09-18T00:00	30607	11	-46.4	-83.5	278	11
2023-09-18T00:00	30627	11	-46.5	-83.6	276	12
2023-09-18T00:00	30662	11	-46.6	-83.6	275	12
2023-09-18T00:00	30695	11	-46.6	-83.6	273	12
2023-09-18T00:00	30722	11	-46.5	-83.6	272	11
2023-09-18T00:00	30763	11	-46.6	-83.6	271	11
2023-09-18T00:00	30796	11	-46.5	-83.6	270	10
2023-09-18T00:00	30822	11	-46.4	-83.5	269	10
2023-09-18T00:00	30850	11	-46.4	-83.5	267	10
2023-09-18T00:00	30866	11	-46.3	-83.4	264	9
2023-09-18T00:00	30917	11	-46.2	-83.4	261	9
2023-09-18T00:00	30957	11	-46.3	-83.4	258	9
2023-09-18T00:00	30986	10	-46.3	-83.4	258	9
2023-09-18T00:00	31021	10	-46.3	-83.4	258	9
2023-09-18T00:00	31055	10	-46.1	-83.3	259	9
2023-09-18T00:00	31089	10	-46.2	-83.4	260	9
2023-09-18T00:00	31111	10	-46.2	-83.4	261	9
2023-09-18T00:00	31139	10	-46.1	-83.3	260	9
2023-09-18T00:00	31190	10	-46.1	-83.3	260	9
2023-09-18T00:00	31210	10	-45.9	-83.2	258	9
2023-09-18T00:00	31226	10	-45.9	-83.2	257	10
2023-09-18T00:00	31274	10	-46.0	-83.2	256	10
2023-09-18T00:00	31296	10	-46.0	-83.2	256	10
2023-09-18T00:00	31323	10	-46.0	-83.2	256	10
2023-09-18T00:00	31358	10	-46.0	-83.2	256	10
2023-09-18T00:00	31380	10	-46.0	-83.2	257	10
2023-09-18T00:00	31415	10	-46.0	-83.2	258	9
2023-09-18T00:00	31449	10	-46.1	-83.3	260	9
2023-09-18T00:00	31453	10	-46.3	-83.4	263	9
2023-09-18T00:00	31507	10	-46.4	-83.5	265	9
2023-09-18T00:00	31541	10	-46.4	-83.5	267	10
2023-09-18T00:00	31572	10	-46.3	-83.4	269	10
2023-09-18T00:00	31595	10	-46.3	-83.4	271	11
2023-09-18T00:00	31609	10	-46.3	-83.4	273	11
2023-09-18T00:00	31656	9	-46.3	-83.4	274	11
2023-09-18T00:00	31688	9	-46.2	-83.4	275	12
2023-09-18T00:00	31727	9	-46.1	-83.3	275	12
2023-09-18T00:00	31742	9	-46.3	-83.4	275	12
2023-09-18T00:00	31780	9	-46.4	-83.5	275	12
2023-09-18T00:00	31788	9	-46.4	-83.5	275	13
2023-09-18T00:00	31843	9	-46.4	-83.5	275	13
2023-09-18T00:00	31884	9	-46.4	-83.5	275	14
2023-09-18T00:00	31927	9	-46.3	-83.4	275	14
2023-09-18T00:00	31937	9	-46.1	-83.3	275	14
2023-09-18T00:00	31958	9	-46.0	-83.2	275	14
2023-09-18T00:00	32007	9	-45.8	-83.1	275	14
2023-09-18T00:00	32038	9	-45.6	-82.9	275	15
2023-09-18T00:00	32068	9	-45.5	-82.9	277	15
2023-09-18T00:00	32091	9	-45.0	-82.5	278	15
2023-09-18T00:00	32119	9	-44.9	-82.5	280	16
2023-09-18T00:00	32163	9	-45.0	-82.5	282	16
2023-09-18T00:00	32185	9	-44.9	-82.5	283	17
2023-09-18T00:00	32204	9	-45.0	-82.5	285	18
2023-09-18T00:00	32231	9	-44.5	-82.2	286	18
2023-09-18T00:00	32271	9	-44.6	-82.2	287	19
2023-09-18T00:00	32304	9	-44.8	-82.4	287	19
2023-09-18T00:00	32323	9	-45.0	-82.5	287	20
2023-09-18T00:00	32347	9	-45.2	-82.7	287	20
2023-09-18T00:00	32396	8	-45.3	-82.7	287	19
2023-09-18T00:00	32429	8	-45.3	-82.7	287	19
2023-09-18T00:00	32438	8	-45.4	-82.8	288	18
2023-09-18T00:00	32478	8	-45.5	-82.9	287	17
2023-09-18T00:00	32499	8	-45.3	-82.7	287	17
2023-09-18T00:00	32537	8	-45.1	-82.6	286	16
2023-09-18T00:00	32560	8	-45.2	-82.7	285	15
2023-09-18T00:00	32593	8	-45.2	-82.7	283	14
2023-09-18T00:00	32616	8	-45.2	-82.7	282	13
2023-09-18T00:00	32644	8	-45.0	-82.5	281	13
2023-09-18T00:00	32684	8	-44.8	-82.4	280	13
2023-09-18T00:00	32722	8	-44.6	-82.2	280	13
2023-09-18T00:00	32755	8	-44.4	-82.1	281	13
2023-09-18T00:00	32795	8	-44.4	-82.1	282	14
2023-09-18T00:00	32817	8	-44.3	-82.0	284	14
2023-09-18T00:00	32847	8	-43.9	-81.8	287	15
2023-09-18T00:00	32892	8	-43.7	-81.6	289	15
2023-09-18T00:00	32909	8	-43.9	-81.8	292	16
2023-09-18T00:00	32943	8	-44.0	-81.8	295	16
2023-09-18T00:00	33005	8	-44.1	-81.9	297	16
2023-09-18T00:00	33025	8	-44.1	-81.9	299	16
2023-09-18T00:00	33063	8	-44.1	-81.9	299	16
2023-09-18T00:00	33127	8	-43.9	-81.8	297	16
2023-09-18T00:00	33133	8	-43.7	-81.6	295	16
2023-09-18T00:00	33175	8	-43.4	-81.4	293	16
2023-09-18T00:00	33190	8	-43.5	-81.5	291	16
2023-09-18T00:00	33263	7	-43.6	-81.5	290	17
2023-09-18T00:00	33273	7	-43.6	-81.5	288	17
2023-09-18T00:00	33305	7	-43.5	-81.5	288	18
2023-09-18T00:00	33322	7	-43.2	-81.3	288	19
2023-09-18T00:00	33358	7	-43.0	-81.1	289	20
2023-09-18T00:00	33418	7	-42.9	-81.1	290	21
2023-09-18T00:00	33437	7	-43.0	-81.1	291	21
2023-09-18T00:00	33496	7	-42.8	-81.0	295	21
2023-09-18T00:00	33504	7	-42.7	-80.9	297	21
2023-09-18T00:00	33539	7	-42.9	-81.1	299	21
2023-09-18T00:00	33570	7	-42.9	-81.1	302	21
2023-09-18T00:00	33659	7	-42.9	-81.1	306	21
2023-09-18T00:00	33690	7	-42.6	-80.8	311	21
2023-09-18T00:00	33751	7	-42.3	-80.6	315	21
2023-09-18T00:00	33788	7	-42.0	-80.4	317	21
2023-09-18T00:00	33794	7	-41.8	-80.3	319	21
2023-09-18T00:00	33889	7	-41.9	-80.4	319	21
2023-09-18T00:00	33912	7	-42.2	-80.6	318	21
2023-09-18T00:00	33958	7	-42.3	-80.6	318	20
2023-09-18T00:00	33987	7	-42.4	-80.7	318	20
2023-09-18T00:00	34045	7	-42.3	-80.6	319	20
2023-09-18T00:00	34074	7	-41.9	-80.4	321	19
2023-09-18T00:00	34114	7	-41.5	-80.1	322	19
2023-09-18T00:00	34139	7	-41.3	-79.9	322	18
2023-09-18T00:00	34150	7	-41.2	-79.9	322	18
2023-09-18T00:00	34204	7	-41.0	-79.7	322	17
2023-09-18T00:00	34232	6	-40.8	-79.6	322	17
2023-09-18T00:00	34248	6	-40.7	-79.5	322	17
2023-09-18T00:00	34254	6	-40.7	-79.5	322	17
2023-09-18T00:00	34297	6	-40.6	-79.5	322	16
2023-09-18T00:00	34330	6	-40.2	-79.2	323	16
2023-09-18T00:00	34339	6	-39.9	-79.0	323	15
2023-09-18T00:00	34423	6	-39.8	-78.9	324	14
2023-09-18T00:00	34466	6	-39.8	-78.9	326	12
2023-09-18T00:00	34484	6	-39.4	-78.6	325	10
2023-09-18T00:00	34523	6	-39.2	-78.5	324	9
2023-09-18T00:00	34564	6	-39.1	-78.4	322	9
2023-09-18T00:00	34594	6	-38.0	-77.6	315	12
2023-09-18T00:00	34663	6	-37.7	-77.4	314	13
2023-09-18T00:00	34669	6	-37.5	-77.3	313	14
2023-09-18T00:00	34708	6	-37.5	-77.3	312	16
2023-09-18T00:00	34729	6	-37.3	-77.2	312	17
2023-09-18T00:00	34750	6	-36.8	-76.8	312	18
2023-09-18T00:00	34798	6	-36.7	-76.7	312	18
2023-09-18T00:00	34840	6	-36.6	-76.7	313	18
2023-09-18T00:00	34852	6	-36.1	-76.3	313	17
2023-09-18T00:00	34873	6	-36.0	-76.3	314	17
2023-09-18T00:00	34929	6	-35.9	-76.2	314	17
2023-09-18T00:00	34968	6	-35.8	-76.1	315	17
2023-09-18T00:00	34997	6	-35.0	-75.6	317	17
2023-09-18T00:00	35048	6	-34.9	-75.5	317	17
2023-09-18T00:00	35062	6	-34.4	-75.2	317	16
2023-09-18T00:00	35103	6	-34.1	-75.0	317	15
2023-09-18T00:00	35124	6	-34.0	-74.9	314	14
2023-09-18T00:00	35140	6	-33.8	-74.7	312	14
2023-09-18T00:00	35169	6	-33.7	-74.7	310	13
2023-09-18T00:00	35242	6	-33.4	-74.5	309	13
2023-09-18T00:00	35245	6	-33.2	-74.3	309	13
2023-09-18T00:00	35253	6	-33.2	-74.3	309	13
2023-09-18T00:00	35295	6	-33.3	-74.4	309	13
2023-09-18T00:00	35329	6	-33.2	-74.3	310	13
2023-09-18T00:00	35346	6	-33.2	-74.3	310	12
2023-09-18T00:00	35390	5	-33.2	-74.3	311	12
2023-09-18T00:00	35400	5	-33.2	-74.3	313	12
2023-09-18T00:00	35429	5	-33.3	-74.4	315	13
2023-09-18T00:00	35462	5	-33.3	-74.4	316	13
2023-09-18T00:00	35475	5	-33.5	-74.5	317	13
2023-09-18T00:00	35507	5	-33.8	-74.7	318	13
2023-09-18T00:00	35585	5	-33.7	-74.7	318	12
2023-09-18T00:00	35615	5	-33.3	-74.4	318	11
2023-09-18T00:00	35635	5	-33.0	-74.2	316	11
2023-09-18T00:00	35662	5	-32.8	-74.1	315	10
2023-09-18T00:00	35694	5	-32.8	-74.1	313	10
2023-09-18T00:00	35708	5	-32.9	-74.1	311	9
2023-09-18T00:00	35716	5	-32.9	-74.1	310	9
2023-09-18T00:00	35786	5	-32.9	-74.1	308	9
2023-09-18T00:00	35804	5	-32.8	-74.1	307	9
2023-09-18T00:00	35836	5	-32.9	-74.1	305	9
2023-09-18T00:00	35875	5	-33.0	-74.2	301	9
2023-09-18T00:00	35913	5	-33.1	-74.3	297	9
2023-09-18T00:00	35920	5	-33.2	-74.3	293	9
2023-09-18T00:00	35965	5	-33.2	-74.3	287	9
2023-09-18T00:00	35979	5	-33.2	-74.3	276	10
2023-09-18T00:00	36017	5	-33.4	-74.5	272	10
2023-09-18T00:00	36064	5	-33.4	-74.5	267	11
2023-09-18T00:00	36108	5	-33.6	-74.6	266	11
2023-09-18T00:00	36119	5	-33.7	-74.7	265	11
2023-09-18T00:00	36165	5	-33.7	-74.7	266	11
2023-09-18T00:00	36176	5	-33.7	-74.7	267	11
2023-09-18T00:00	36212	5	-33.6	-74.6	270	11
2023-09-18T00:00	36254	5	-33.5	-74.5	274	10
2023-09-18T00:00	36272	5	-33.4	-74.5	279	10
2023-09-18T00:00	36277	5	-33.2	-74.3	284	9
2023-09-18T00:00	36336	5	-33.3	-74.4	291	9
2023-09-18T00:00	36358	5	-33.5	-74.5	298	9
2023-09-18T06:00	112	998	17.5	13.4	110	5
2023-09-18T06:00	134	996	17.6	13.6	136	3
2023-09-18T06:00	159	993	18.5	13.4	141	5
2023-09-18T06:00	181	990	19.1	13.5	145	7
2023-09-18T06:00	208	987	19.8	13.6	149	8
2023-09-18T06:00	232	985	20.1	13.6	151	9
2023-09-18T06:00	253	982	20.7	13.7	153	10
2023-09-18T06:00	274	980	20.8	13.7	154	10
2023-09-18T06:00	298	977	21.2	13.2	156	10
2023-09-18T06:00	320	975	21.3	13.1	159	9
2023-09-18T06:00	344	972	21.4	12.7	163	9
2023-09-18T06:00	367	969	21.7	12.4	169	8
2023-09-18T06:00	391	967	22.5	11.2	174	8
2023-09-18T06:00	414	964	22.8	10.9	178	8
2023-09-18T06:00	444	961	23.3	10.2	180	9
2023-09-18T06:00	468	958	23.3	10.0	181	9
2023-09-18T06:00	497	955	23.2	10.2	180	9
2023-09-18T06:00	524	952	23.0	10.0	179	9
2023-09-18T06:00	550	949	22.8	9.8	178	8
2023-09-18T06:00	573	947	22.8	9.6	176	8
2023-09-18T06:00	601	944	22.6	9.5	173	7
2023-09-18T06:00	632	941	22.4	9.4	171	7
2023-09-18T06:00	657	938	22.1	9.4	168	7
2023-09-18T06:00	682	935	21.8	9.3	167	7
2023-09-18T06:00	708	932	21.6	9.3	166	7
2023-09-18T06:00	736	929	21.4	9.3	167	8
2023-09-18T06:00	761	926	21.1	9.1	167	8
2023-09-18T06:00	792	923	20.8	9.1	169	8
2023-09-18T06:00	820	920	20.6	9.0	170	8
2023-09-18T06:00	849	917	20.3	8.9	172	8
2023-09-18T06:00	876	914	20.1	9.0	173	8
2023-09-18T06:00	905	911	19.8	8.9	173	8
2023-09-18T06:00	933	908	19.6	8.8	173	8
2023-09-18T06:00	963	905	19.3	8.8	172	8
2023-09-18T06:00	990	902	19.0	8.7	171	8
2023-09-18T06:00	1020	899	18.7	8.6	169	7
2023-09-18T06:00	1052	896	18.4	8.6	168	7
2023-09-18T06:00	1081	893	18.2	8.6	167	7
2023-09-18T06:00	1114	889	17.9	8.6	166	7
2023-09-18T06:00	1144	886	17.8	8.7	165	7
2023-09-18T06:00	1175	883	17.6	8.7	164	7
2023-09-18T06:00	1205	880	17.3	8.5	163	7
2023-09-18T06:00	1235	877	17.1	8.2	162	7
2023-09-18T06:00	1264	874	16.9	7.2	162	7
2023-09-18T06:00	1296	870	16.8	7.3	162	7
2023-09-18T06:00	1327	867	16.7	6.8	162	7
2023-09-18T06:00	1359	864	16.4	6.6	162	7
2023-09-18T06:00	1389	861	16.3	6.4	162	7
2023-09-18T06:00	1419	858	16.1	6.1	162	7
2023-09-18T06:00	1450	855	15.9	6.0	162	7
2023-09-18T06:00	1481	852	15.7	5.9	162	7
2023-09-18T06:00	1509	849	15.4	5.6	163	7
2023-09-18T06:00	1538	846	15.2	5.6	164	7
2023-09-18T06:00	1568	843	14.9	5.4	166	8
2023-09-18T06:00	1600	840	14.7	5.4	167	8
2023-09-18T06:00	1629	837	14.5	5.2	168	8
2023-09-18T06:00	1658	834	14.3	4.7	168	8
2023-09-18T06:00	1690	831	14.1	4.8	169	8
2023-09-18T06:00	1723	828	13.8	4.7	169	8
2023-09-18T06:00	1754	825	13.6	4.5	170	9
2023-09-18T06:00	1785	822	13.3	4.6	170	9
2023-09-18T06:00	1816	819	13.1	4.1	171	9
2023-09-18T06:00	1848	816	12.9	4.0	171	9
2023-09-18T06:00	1878	813	12.7	3.9	172	9
2023-09-18T06:00	1910	810	12.4	3.3	172	10
2023-09-18T06:00	1942	807	12.2	3.4	173	10
2023-09-18T06:00	1972	804	11.9	3.2	174	10
2023-09-18T06:00	2002	801	11.6	3.1	175	10
2023-09-18T06:00	2036	798	11.3	2.9	176	10
2023-09-18T06:00	2064	795	11.0	2.7	177	9
2023-09-18T06:00	2097	792	10.7	2.6	178	9
2023-09-18T06:00	2128	789	10.5	2.4	179	9
2023-09-18T06:00	2160	786	10.2	2.3	181	9
2023-09-18T06:00	2193	783	9.9	2.1	182	9
2023-09-18T06:00	2223	780	9.7	1.9	184	9
2023-09-18T06:00	2253	777	9.4	1.5	186	9
2023-09-18T06:00	2285	774	9.4	0.3	188	9
2023-09-18T06:00	2317	771	9.4	-0.3	190	9
2023-09-18T06:00	2349	768	9.3	-0.6	193	9
2023-09-18T06:00	2381	765	9.1	-0.6	195	9
2023-09-18T06:00	2412	762	8.9	0.0	196	9
2023-09-18T06:00	2444	759	8.6	0.5	196	8
2023-09-18T06:00	2474	756	8.3	1.2	195	8
2023-09-18T06:00	2505	754	8.1	0.5	194	9
2023-09-18T06:00	2537	751	7.9	-0.2	193	9
2023-09-18T06:00	2569	748	7.6	-0.2	192	8
2023-09-18T06:00	2601	745	7.3	-0.1	191	8
2023-09-18T06:00	2633	742	7.1	0.5	191	8
2023-09-18T06:00	2667	739	6.8	1.2	191	8
2023-09-18T06:00	2696	736	6.5	1.5	192	7
2023-09-18T06:00	2724	734	6.2	2.0	193	7
2023-09-18T06:00	2755	731	5.9	2.5	194	7
2023-09-18T06:00	2786	728	5.6	2.6	196	7
2023-09-18T06:00	2815	726	5.4	2.7	198	7
2023-09-18T06:00	2846	723	5.1	2.7	200	7
2023-09-18T06:00	2878	720	4.8	2.5	201	7
2023-09-18T06:00	2908	718	4.5	2.2	201	7
2023-09-18T06:00	2939	715	4.3	1.7	200	7
2023-09-18T06:00	2968	712	4.2	1.0	200	7
2023-09-18T06:00	2998	710	4.0	0.8	200	7
2023-09-18T06:00	3028	707	3.7	0.8	200	7
2023-09-18T06:00	3057	705	3.5	1.3	201	7
2023-09-18T06:00	3089	702	3.3	1.4	202	7
2023-09-18T06:00	3118	699	3.1	1.1	204	8
2023-09-18T06:00	3150	697	2.9	1.0	206	8
2023-09-18T06:00	3182	694	2.7	0.5	208	8
2023-09-18T06:00	3214	691	2.6	0.3	209	8
2023-09-18T06:00	3245	688	2.4		209	8
2023-09-18T06:00	3278	686	2.1	0.2	209	9
2023-09-18T06:00	3307	683	1.9	0.1	209	9
2023-09-18T06:00	3339	680	1.7	-0.1	209	9
2023-09-18T06:00	3370	678	1.6	-0.6	209	10
2023-09-18T06:00	3400	675	1.5	-1.0	209	10
2023-09-18T06:00	3430	673	1.3	-1.1	209	10
2023-09-18T06:00	3460	670	1.1		209	10
2023-09-18T06:00	3489	668	0.8	-1.6	210	10
2023-09-18T06:00	3517	666	0.6	-1.7	210	10
2023-09-18T06:00	3545	663	0.4	-1.8	211	11
2023-09-18T06:00	3573	661	0.1	-1.7	211	11
2023-09-18T06:00	3603	659	0.0	-2.1	212	11
2023-09-18T06:00	3632	656	-0.2	-2.4	212	11
2023-09-18T06:00	3663	654	-0.4	-1.9	212	11
2023-09-18T06:00	3695	651	-0.6	-2.4	212	11
2023-09-18T06:00	3725	649	-0.7	-3.0	211	11
2023-09-18T06:00	3753	646	-0.8	-3.5	210	11
2023-09-18T06:00	3786	644	-1.0	-3.6	210	11
2023-09-18T06:00	3816	641	-1.3	-4.0	209	11
2023-09-18T06:00	3844	639	-1.2	-4.6	209	10
2023-09-18T06:00	3874	637	-1.4	-4.7	209	10
2023-09-18T06:00	3903	634	-1.6	-4.7	209	10
2023-09-18T06:00	3932	632	-1.8	-5.1	209	9
2023-09-18T06:00	3961	630	-1.7	-6.0	209	9
2023-09-18T06:00	3990	627	-1.7	-6.3	208	9
2023-09-18T06:00	4022	625	-1.9	-6.4	207	8
2023-09-18T06:00	4050	623	-2.0	-6.6	206	8
2023-09-18T06:00	4077	620	-2.0	-7.4	204	8
2023-09-18T06:00	4108	618	-1.9	-8.2	202	8
2023-09-18T06:00	4137	616	-2.0	-8.4	201	8
2023-09-18T06:00	4164	614	-2.1	-8.8	201	8
2023-09-18T06:00	4193	612	-2.2	-9.2	202	8
2023-09-18T06:00	4225	609	-2.5	-9.3	205	8
2023-09-18T06:00	4254	607	-2.6	-10.0	206	8
2023-09-18T06:00	4283	605	-2.5	-10.8	207	8
2023-09-18T06:00	4313	602	-2.5	-10.9	207	8
2023-09-18T06:00	4345	600	-2.7	-10.7	206	8
2023-09-18T06:00	4373	598	-2.9	-10.7	206	7
2023-09-18T06:00	4400	596	-3.2	-10.9	206	7
2023-09-18T06:00	4430	594	-3.4	-11.0	206	7
2023-09-18T06:00	4462	591	-3.3	-11.8	208	7
2023-09-18T06:00	4492	589	-3.4	-10.8	209	7
2023-09-18T06:00	4521	587	-3.6	-11.0	210	7
2023-09-18T06:00	4551	584	-3.8	-11.1	211	7
2023-09-18T06:00	4582	582	-4.0	-11.5	213	6
2023-09-18T06:00	4612	580	-4.2	-11.2	215	6
2023-09-18T06:00	4645	578	-4.5	-10.7	215	6
2023-09-18T06:00	4676	575	-4.8	-10.2	216	6
2023-09-18T06:00	4708	573	-5.1		215	6
2023-09-18T06:00	4741	571	-5.4	-10.3	214	6
2023-09-18T06:00	4774	568	-5.7	-10.0	213	6
2023-09-18T06:00	4805	566	-5.9	-10.3	214	7
2023-09-18T06:00	4834	564	-6.1	-11.0	215	7
2023-09-18T06:00	4863	562	-6.2	-12.7	216	7
2023-09-18T06:00	4895	560	-6.4	-12.9	218	7
2023-09-18T06:00	4925	557	-6.6	-13.5	220	7
2023-09-18T06:00	4954	555	-6.9	-13.5	222	7
2023-09-18T06:00	4984	553	-7.1	-13.8	225	7
2023-09-18T06:00	5014	551	-7.3	-14.0	226	7
2023-09-18T06:00	5045	549	-7.6	-14.1	228	7
2023-09-18T06:00	5077	547	-7.9	-14.5	228	7
2023-09-18T06:00	5109	544	-8.1	-14.7	228	7
2023-09-18T06:00	5139	542	-8.3	-15.1	227	7
2023-09-18T06:00	5170	540	-8.4	-15.4	225	7
2023-09-18T06:00	5202	538	-8.6	-15.7	224	7
2023-09-18T06:00	5233	536	-8.8	-15.9	224	7
2023-09-18T06:00	5257	534	-9.0	-16.2	225	7
2023-09-18T06:00	5286	532	-9.2	-16.8	225	7
2023-09-18T06:00	5317	530	-9.5	-16.7	224	7
2023-09-18T06:00	5348	528	-9.7	-16.6	223	7
2023-09-18T06:00	5377	526	-9.9	-16.8	221	8
2023-09-18T06:00	5410	524	-10.2	-17.8	219	8
2023-09-18T06:00	5440	522	-10.4	-16.9	218	8
2023-09-18T06:00	5469	520	-10.6	-16.9	217	9
2023-09-18T06:00	5502	517	-10.9	-16.8	217	9
2023-09-18T06:00	5529	516	-11.0	-16.9	217	9
2023-09-18T06:00	5557	514	-11.0	-17.4	218	10
2023-09-18T06:00	5588	512	-11.1	-17.8	220	10
2023-09-18T06:00	5621	509	-11.3	-17.4	223	10
2023-09-18T06:00	5652	507	-11.5	-17.9	226	10
2023-09-18T06:00	5684	505	-11.7	-17.1	230	11
2023-09-18T06:00	5718	503	-12.0	-16.2	233	11
2023-09-18T06:00	5749	501	-12.1	-15.6	235	11
2023-09-18T06:00	5774	499	-12.1	-15.7	236	11
2023-09-18T06:00	5806	497	-12.1	-16.5	237	10
2023-09-18T06:00	5836	495	-12.0	-16.9	236	10
2023-09-18T06:00	5867	493	-12.1	-17.1	235	9
2023-09-18T06:00	5898	491	-12.2	-17.3	234	9
2023-09-18T06:00	5930	489	-12.3	-17.7	232	9
2023-09-18T06:00	5961	487	-12.4	-18.1	229	9
2023-09-18T06:00	5994	485	-12.5	-18.5	227	10
2023-09-18T06:00	6024	483	-12.6	-18.8	226	10
2023-09-18T06:00	6056	481	-12.8	-18.9	226	10
2023-09-18T06:00	6087	479	-13.0	-19.1	226	11
2023-09-18T06:00	6115	478	-13.3	-19.3	226	11
2023-09-18T06:00	6147	476	-13.5	-19.5	227	11
2023-09-18T06:00	6176	474	-13.7	-19.8	227	10
2023-09-18T06:00	6196	472	-13.8	-20.3	227	10
2023-09-18T06:00	6223	471	-13.8	-20.6	228	10
2023-09-18T06:00	6252	469	-14.0	-20.8	228	10
2023-09-18T06:00	6279	467	-14.1	-21.3	228	10
2023-09-18T06:00	6308	466	-14.2	-21.4	227	10
2023-09-18T06:00	6341	464	-14.4	-21.8	227	10
2023-09-18T06:00	6371	462	-14.6	-21.9	227	11
2023-09-18T06:00	6399	460	-14.8	-21.9	227	10
2023-09-18T06:00	6421	459	-15.1	-22.0	226	10
2023-09-18T06:00	6444	457	-15.2	-22.3	226	10
2023-09-18T06:00	6466	456	-15.4	-23.2	226	9
2023-09-18T06:00	6487	455	-15.5	-23.4	226	9
2023-09-18T06:00	6509	453	-15.7	-22.6	226	9
2023-09-18T06:00	6534	452	-16.0	-22.1	226	8
2023-09-18T06:00	6566	450	-16.2	-22.0	226	8
2023-09-18T06:00	6600	448	-16.5	-21.7	226	7
2023-09-18T06:00	6628	446	-16.7	-21.6	226	7
2023-09-18T06:00	6656	445	-16.8	-21.8	225	6
2023-09-18T06:00	6678	443	-17.0	-22.5	224	6
2023-09-18T06:00	6709	441	-17.3	-22.6	222	6
2023-09-18T06:00	6742	440	-17.6	-22.7	219	6
2023-09-18T06:00	6773	438	-17.8	-23.0	217	6
2023-09-18T06:00	6798	436	-18.1	-23.4	216	6
2023-09-18T06:00	6821	435	-18.3	-23.5	216	6
2023-09-18T06:00	6841	434	-18.5	-23.6	217	6
2023-09-18T06:00	6862	432	-18.6	-24.0	220	5
2023-09-18T06:00	6886	431	-18.9	-24.1	225	5
2023-09-18T06:00	6915	429	-19.0	-24.4	230	6
2023-09-18T06:00	6945	428	-18.9	-25.1	234	6
2023-09-18T06:00	6975	426	-19.1	-24.9	237	6
2023-09-18T06:00	7002	424	-19.3	-24.8	240	6
2023-09-18T06:00	7027	423	-19.5	-24.8	242	6
2023-09-18T06:00	7052	422	-19.8	-24.8	245	6
2023-09-18T06:00	7074	420	-20.0	-24.9	248	6
2023-09-18T06:00	7097	419	-20.2	-24.8	251	7
2023-09-18T06:00	7125	418	-20.4	-24.8	253	7
2023-09-18T06:00	7150	416	-20.7	-24.9	254	7
2023-09-18T06:00	7177	415	-20.9	-24.8	256	7
2023-09-18T06:00	7210	413	-21.2	-25.0	257	7
2023-09-18T06:00	7239	411	-21.5	-25.1	258	7
2023-09-18T06:00	7261	410	-21.7	-25.1	259	7
2023-09-18T06:00	7283	409	-21.7	-25.8	259	8
2023-09-18T06:00	7314	407	-21.6	-27.1	259	8
2023-09-18T06:00	7342	405	-21.6	-27.8	259	8
2023-09-18T06:00	7371	404	-21.9	-27.9	260	9
2023-09-18T06:00	7399	402	-22.1	-27.9	260	9
2023-09-18T06:00	7429	401	-22.4	-28.1	261	10
2023-09-18T06:00	7459	399	-22.6		262	11
2023-09-18T06:00	7489	397	-22.8	-28.8	263	11
2023-09-18T06:00	7516	396	-22.8	-29.7	262	12
2023-09-18T06:00	7537	395	-22.9	-30.3	262	12
2023-09-18T06:00	7560	393	-22.9	-31.2	260	12
2023-09-18T06:00	7591	392	-23.1	-31.4	259	13
2023-09-18T06:00	7624	390	-23.4	-31.7	259	13
2023-09-18T06:00	7655	389	-23.7	-31.8	259	12
2023-09-18T06:00	7676	387	-23.9	-32.0	261	12
2023-09-18T06:00	7707	386	-24.1	-32.0	263	12
2023-09-18T06:00	7728	385	-24.3	-32.4	265	12
2023-09-18T06:00	7750	383	-24.5	-32.7	266	12
2023-09-18T06:00	7773	382	-24.7	-32.9	266	11
2023-09-18T06:00	7796	381	-24.8	-34.1	265	11
2023-09-18T06:00	7821	380	-24.9	-34.9	264	11
2023-09-18T06:00	7846	378	-25.1	-33.9	263	11
2023-09-18T06:00	7872	377	-25.4	-32.0	263	11
2023-09-18T06:00	7895	376	-25.6	-32.2	263	11
2023-09-18T06:00	7913	375	-25.8	-31.7	264	11
2023-09-18T06:00	7937	374	-26.0	-32.2	264	12
2023-09-18T06:00	7957	373	-26.2	-32.6	264	12
2023-09-18T06:00	7979	372	-26.4	-32.5	264	12
2023-09-18T06:00	8000	370	-26.6	-33.6	264	12
2023-09-18T06:00	8022	369	-26.7	-34.3	265	12
2023-09-18T06:00	8046	368	-26.9	-34.4	265	12
2023-09-18T06:00	8070	367	-27.2	-34.6	266	12
2023-09-18T06:00	8094	366	-27.4	-34.6	268	12
2023-09-18T06:00	8115	365	-27.6	-34.9	269	12
2023-09-18T06:00	8138	363	-27.8	-35.4	271	12
2023-09-18T06:00	8161	362	-27.9	-35.5	271	12
2023-09-18T06:00	8184	361	-28.1	-35.5	271	12
2023-09-18T06:00	8208	360	-28.3	-36.2	271	12
2023-09-18T06:00	8233	359	-28.4	-36.3	270	11
2023-09-18T06:00	8260	357	-28.6	-35.6	269	11
2023-09-18T06:00	8286	356	-28.8	-35.0	269	11
2023-09-18T06:00	8318	354	-29.0	-35.6	268	11
2023-09-18T06:00	8342	353	-29.3	-36.1	268	11
2023-09-18T06:00	8368	352	-29.5	-36.5	267	11
2023-09-18T06:00	8394	351	-29.7	-37.4	267	12
2023-09-18T06:00	8419	349	-29.9	-37.1	266	12
2023-09-18T06:00	8440	348	-30.0	-36.4	266	12
2023-09-18T06:00	8461	347	-30.2	-35.9	266	12
2023-09-18T06:00	8486	346	-30.4	-36.0	267	12
2023-09-18T06:00	8511	345	-30.7	-36.3	268	11
2023-09-18T06:00	8533	344	-30.9	-36.6	270	11
2023-09-18T06:00	8559	343	-31.1	-37.0	271	11
2023-09-18T06:00	8582	341	-31.3	-37.7	273	11
2023-09-18T06:00	8606	340	-31.4	-39.4	273	11
2023-09-18T06:00	8631	339	-31.6	-41.1	273	10
2023-09-18T06:00	8655	338	-31.8	-40.7	272	10
2023-09-18T06:00	8677	337	-31.9	-37.5	270	10
2023-09-18T06:00	8701	336	-32.0	-38.7	268	10
2023-09-18T06:00	8733	334	-32.3	-39.0	266	11
2023-09-18T06:00	8763	333	-32.6	-39.1	265	11
2023-09-18T06:00	8793	331	-32.9	-39.1	264	11
2023-09-18T06:00	8823	330	-33.2	-39.2	263	12
2023-09-18T06:00	8846	329	-33.4	-39.2	263	12
2023-09-18T06:00	8870	328	-33.7	-39.2	263	12
2023-09-18T06:00	8893	327	-33.9	-39.3	264	11
2023-09-18T06:00	8918	326	-34.1	-39.3	264	11
2023-09-18T06:00	8941	324	-34.3	-39.3	264	11
2023-09-18T06:00	8964	323	-34.6	-39.4	265	11
2023-09-18T06:00	8991	322	-34.8	-39.4	266	11
2023-09-18T06:00	9013	321	-34.9	-39.9	267	11
2023-09-18T06:00	9038	320	-35.1	-40.3	269	10
2023-09-18T06:00	9063	319	-35.3	-40.8	271	10
2023-09-18T06:00	9086	318	-35.4	-41.0	272	10
2023-09-18T06:00	9109	317	-35.7	-41.4	273	10
2023-09-18T06:00	9132	316	-35.8	-42.1	273	10
2023-09-18T06:00	9157	315	-36.0		273	10
2023-09-18T06:00	9181	314	-36.2		273	10
2023-09-18T06:00	9203	312	-36.4	-42.9	274	10
2023-09-18T06:00	9231	311	-36.6	-42.9	275	10
2023-09-18T06:00	9261	310	-36.9	-43.2	276	9
2023-09-18T06:00	9284	309	-37.1	-43.4	276	9
2023-09-18T06:00	9308	308	-37.4	-44.0	275	9
2023-09-18T06:00	9332	307	-37.6	-44.1	274	9
2023-09-18T06:00	9360	306	-37.9	-44.2	273	9
2023-09-18T06:00	9387	304	-38.1	-44.2	273	9
2023-09-18T06:00	9416	303	-38.4	-44.4	274	9
2023-09-18T06:00	9440	302	-38.6	-44.4	274	9
2023-09-18T06:00	9466	301	-38.9	-44.5	275	8
2023-09-18T06:00	9490	300	-39.1	-44.5	275	8
2023-09-18T06:00	9517	299	-39.4	-44.6	276	8
2023-09-18T06:00	9541	298	-39.6	-44.9	277	8
2023-09-18T06:00	9564	297	-39.8	-45.8	279	8
2023-09-18T06:00	9590	295	-40.0	-46.8	281	8
2023-09-18T06:00	9613	295	-40.2	-47.5	283	8
2023-09-18T06:00	9636	293	-40.4	-47.7	285	8
2023-09-18T06:00	9658	293	-40.6	-47.8	287	8
2023-09-18T06:00	9680	292	-40.8	-48.3	289	8
2023-09-18T06:00	9708	290	-41.0	-48.7	291	8
2023-09-18T06:00	9735	289	-41.2	-48.9	293	8
2023-09-18T06:00	9758	288	-41.4	-49.3	295	8
2023-09-18T06:00	9791	287	-41.5	-51.1	297	8
2023-09-18T06:00	9817	286	-41.7	-51.8	298	9
2023-09-18T06:00	9841	285	-41.8	-52.0	298	9
2023-09-18T06:00	9865	284	-41.9	-51.6	299	9
2023-09-18T06:00	9893	283	-42.2	-51.4	299	9
2023-09-18T06:00	9917	282	-42.3	-51.8	299	10
2023-09-18T06:00	9945	280	-42.5	-52.2	298	10
2023-09-18T06:00	9969	279	-42.6	-52.3	298	10
2023-09-18T06:00	10002	278	-42.9	-52.2	298	10
2023-09-18T06:00	10030	277	-43.2	-52.4	297	11
2023-09-18T06:00	10061	276	-43.5	-52.7	296	11
2023-09-18T06:00	10089	274	-43.6	-52.9	295	12
2023-09-18T06:00	10117	273	-43.9	-53.1	294	13
2023-09-18T06:00	10145	272	-44.1	-53.2	294	13
2023-09-18T06:00	10181	271	-44.4	-53.2	295	14
2023-09-18T06:00	10211	269	-44.7	-53.3	295	14
2023-09-18T06:00	10247	268	-45.0	-53.3	295	14
2023-09-18T06:00	10284	267	-45.4	-53.5	294	15
2023-09-18T06:00	10318	265	-45.6	-53.5	292	15
2023-09-18T06:00	10349	264	-45.8	-53.6	291	15
2023-09-18T06:00	10377	263	-46.1	-53.6	290	16
2023-09-18T06:00	10404	262	-46.3		290	16
2023-09-18T06:00	10434	261	-46.6	-53.4	289	17
2023-09-18T06:00	10467	259	-46.9	-53.4	288	17
2023-09-18T06:00	10498	258	-47.2	-53.4	286	17
2023-09-18T06:00	10530	257	-47.4	-53.2	283	17
2023-09-18T06:00	10556	256	-47.6	-53.2	280	17
2023-09-18T06:00	10592	255	-47.9	-53.3	277	18
2023-09-18T06:00	10620	253	-48.1	-53.1	274	18
2023-09-18T06:00	10656	252	-48.4	-53.1	273	19
2023-09-18T06:00	10681	251	-48.5	-53.1	271	19
2023-09-18T06:00	10705	250	-48.7	-53.1	270	20
2023-09-18T06:00	10737	249	-49.0	-53.1	269	20
2023-09-18T06:00	10762	248	-49.2	-53.1	268	20
2023-09-18T06:00	10789	247	-49.3	-53.1	267	20
2023-09-18T06:00	10814	246	-49.3	-53.1	266	20
2023-09-18T06:00	10839	245	-49.4	-53.1	265	20
2023-09-18T06:00	10861	244	-49.5	-53.2	264	20
2023-09-18T06:00	10886	243	-49.7	-53.6	264	20
2023-09-18T06:00	10912	242	-49.9	-53.9	264	20
2023-09-18T06:00	10934	242	-50.1	-54.1	263	21
2023-09-18T06:00	10959	241	-50.2	-54.2	263	21
2023-09-18T06:00	10999	239	-50.5	-54.7	263	21
2023-09-18T06:00	11033	238	-50.8	-55.1	263	22
2023-09-18T06:00	11065	237	-51.1	-55.4	263	22
2023-09-18T06:00	11090	236	-51.3	-55.4	264	23
2023-09-18T06:00	11119	235	-51.6	-55.6	264	23
2023-09-18T06:00	11146	234	-51.8	-55.6	264	23
2023-09-18T06:00	11174	233	-52.1	-55.6	264	23
2023-09-18T06:00	11200	232	-52.4	-55.9	264	23
2023-09-18T06:00	11224	231	-52.6	-56.1	264	22
2023-09-18T06:00	11251	230	-52.8	-56.3	264	22
2023-09-18T06:00	11276	229	-53.1	-56.6	265	22
2023-09-18T06:00	11309	228	-53.4	-56.9	265	22
2023-09-18T06:00	11342	227	-53.6	-57.2	265	22
2023-09-18T06:00	11366	226	-53.8	-57.4	265	21
2023-09-18T06:00	11391	225	-54.1	-57.6	266	21
2023-09-18T06:00	11419	224	-54.3	-57.7	266	21
2023-09-18T06:00	11444	223	-54.6	-58.2	266	21
2023-09-18T06:00	11469	222	-54.8	-58.5	266	21
2023-09-18T06:00	11495	221	-55.1	-58.8	266	22
2023-09-18T06:00	11522	221	-55.3	-58.8	266	22
2023-09-18T06:00	11548	220	-55.5	-58.9	266	22
2023-09-18T06:00	11573	219	-55.7	-59.1	266	22
2023-09-18T06:00	11597	218	-56.0	-59.5	266	22
2023-09-18T06:00	11632	217	-56.3	-59.8	266	22
2023-09-18T06:00	11661	216	-56.6	-60.1	266	22
2023-09-18T06:00	11687	215	-56.9	-60.5	266	22
2023-09-18T06:00	11715	214	-57.1	-61.0	265	22
2023-09-18T06:00	11740	213	-57.3	-61.4	265	22
2023-09-18T06:00	11764	212	-57.4	-61.5	264	22
2023-09-18T06:00	11791	211	-57.5	-61.3	263	22
2023-09-18T06:00	11824	210	-57.8	-61.2	262	23
2023-09-18T06:00	11850	209	-58.0	-61.4	262	23
2023-09-18T06:00	11875	209	-58.1	-61.7	262	23
2023-09-18T06:00	11898	208	-58.2	-62.0	263	23
2023-09-18T06:00	11922	207	-58.5	-62.3	263	23
2023-09-18T06:00	11945	206	-58.6	-62.3	264	23
2023-09-18T06:00	11972	205	-58.9	-62.6	265	24
2023-09-18T06:00	12006	204	-59.1	-62.9	267	24
2023-09-18T06:00	12031	203	-59.3	-63.4	269	24
2023-09-18T06:00	12063	202	-59.5	-64.1	271	24
2023-09-18T06:00	12088	202	-59.7	-64.9	273	24
2023-09-18T06:00	12110	201	-59.8	-65.6	274	24
2023-09-18T06:00	12132	200	-59.9	-66.3	274	24
2023-09-18T06:00	12154	199	-60.0	-66.8	273	24
2023-09-18T06:00	12180	199	-60.1	-66.8	273	24
2023-09-18T06:00	12205	198	-60.2	-66.5	273	24
2023-09-18T06:00	12228	197	-60.3	-66.4	273	24
2023-09-18T06:00	12255	196	-60.6	-66.5	273	23
2023-09-18T06:00	12281	195	-60.8	-66.6	274	23
2023-09-18T06:00	12314	195	-61.2	-66.9	274	22
2023-09-18T06:00	12339	194	-61.3	-66.8	275	21
2023-09-18T06:00	12367	193	-61.2	-66.5	276	20
2023-09-18T06:00	12411	192	-61.2	-66.3	277	19
2023-09-18T06:00	12446	190	-60.7	-65.7	278	17
2023-09-18T06:00	12486	189	-60.6	-65.5	279	16
2023-09-18T06:00	12521	188	-60.6	-65.6	279	15
2023-09-18T06:00	12548	187	-60.8	-65.8	279	14
2023-09-18T06:00	12571	186	-60.9	-65.8	277	14
2023-09-18T06:00	12602	186	-61.1	-65.9	275	13
2023-09-18T06:00	12628	185	-61.3	-65.9	271	14
2023-09-18T06:00	12656	184	-61.5	-66.0	268	14
2023-09-18T06:00	12690	183	-61.3	-66.1	265	16
2023-09-18T06:00	12733	182	-61.0	-66.3	263	17
2023-09-18T06:00	12773	181	-61.0	-66.9	262	19
2023-09-18T06:00	12800	180	-60.8	-67.3	261	20
2023-09-18T06:00	12837	179	-61.1	-67.8	261	21
2023-09-18T06:00	12871	178	-61.3	-67.7	261	22
2023-09-18T06:00	12902	177	-61.6	-67.5	262	23
2023-09-18T06:00	12929	176	-61.8	-67.3	262	23
2023-09-18T06:00	12952	175	-62.0	-67.2	262	23
2023-09-18T06:00	12974	175	-62.2	-67.2	263	23
2023-09-18T06:00	12998	174	-62.3	-67.3	263	24
2023-09-18T06:00	13022	173	-62.4	-67.6	263	25
2023-09-18T06:00	13045	173	-62.5	-67.9	263	25
2023-09-18T06:00	13069	172	-62.6	-68.3	263	26
2023-09-18T06:00	13093	171	-62.8	-68.6	263	26
2023-09-18T06:00	13117	171	-62.9	-68.7	263	26
2023-09-18T06:00	13141	170	-63.0	-68.8	263	26
2023-09-18T06:00	13164	170	-62.9	-68.6	262	25
2023-09-18T06:00	13189	169	-62.6	-68.2	261	24
2023-09-18T06:00	13216	168	-62.5	-67.8	261	23
2023-09-18T06:00	13240	167	-62.6	-67.8	260	22
2023-09-18T06:00	13264	167	-62.5	-67.9	259	21
2023-09-18T06:00	13286	166	-62.4	-68.3	259	21
2023-09-18T06:00	13310	166	-62.3	-68.8	260	21
2023-09-18T06:00	13332	165	-62.4	-69.3	260	21
2023-09-18T06:00	13356	164	-62.5	-69.5	261	21
2023-09-18T06:00	13380	164	-62.6	-69.6	262	22
2023-09-18T06:00	13402	163	-62.8	-69.8	263	22
2023-09-18T06:00	13431	162	-63.0	-70.0	263	23
2023-09-18T06:00	13459	162	-63.1	-70.2	264	23
2023-09-18T06:00	13484	161	-63.3	-70.5	264	23
2023-09-18T06:00	13506	160	-63.5	-70.8	265	24
2023-09-18T06:00	13529	160	-63.5	-71.0	265	23
2023-09-18T06:00	13553	159	-63.6	-71.2	266	23
2023-09-18T06:00	13577	159	-63.8	-71.7	266	23
2023-09-18T06:00	13598	158	-63.9	-72.4	266	22
2023-09-18T06:00	13622	157	-63.2	-72.7	265	22
2023-09-18T06:00	13647	157	-62.7	-73.4	263	22
2023-09-18T06:00	13668	156	-62.3	-74.1	261	22
2023-09-18T06:00	13690	156	-61.9	-74.6	260	23
2023-09-18T06:00	13711	155	-61.9	-75.4	259	24
2023-09-18T06:00	13730	155	-61.3	-75.7	259	24
2023-09-18T06:00	13752	154	-60.8	-76.5	260	25
2023-09-18T06:00	13772	154	-60.0	-77.2	260	25
2023-09-18T06:00	13794	153	-59.2	-77.9	261	25
2023-09-18T06:00	13814	153	-58.7	-78.8	262	25
2023-09-18T06:00	13836	152	-58.4	-79.4	264	24
2023-09-18T06:00	13857	151	-58.2	-79.8	265	23
2023-09-18T06:00	13885	151	-58.0	-80.1	267	22
2023-09-18T06:00	13908	150	-57.6	-80.1	269	21
2023-09-18T06:00	13929	150	-56.7	-79.8	270	20
2023-09-18T06:00	13953	149	-56.5	-80.0	271	20
2023-09-18T06:00	13978	149	-56.6	-80.0	271	19
2023-09-18T06:00	14001	148	-56.8	-80.2	272	19
2023-09-18T06:00	14025	148	-57.0	-80.4	272	19
2023-09-18T06:00	14048	147	-57.2	-80.3	272	18
2023-09-18T06:00	14074	146	-57.4	-80.5	272	18
2023-09-18T06:00	14096	146	-57.6	-80.7	272	18
2023-09-18T06:00	14119	145	-57.8	-80.6	272	18
2023-09-18T06:00	14140	145	-58.0	-80.8	271	17
2023-09-18T06:00	14161	144	-58.2	-81.0	269	17
2023-09-18T06:00	14186	144	-58.4	-81.1	266	17
2023-09-18T06:00	14222	143	-58.7	-81.5	262	17
2023-09-18T06:00	14249	142	-58.4	-81.5	259	17
2023-09-18T06:00	14272	142	-58.3	-81.6	256	17
2023-09-18T06:00	14293	141	-57.8		254	17
2023-09-18T06:00	14312	141	-57.6	-81.6	253	17
2023-09-18T06:00	14333	141	-57.7	-81.7	253	17
2023-09-18T06:00	14354	140	-57.8	-82.0	254	18
2023-09-18T06:00	14374	140	-57.6	-81.9	255	18
2023-09-18T06:00	14396	139	-57.6	-82.1	256	19
2023-09-18T06:00	14416	139	-57.4	-81.9	258	19
2023-09-18T06:00	14438	138	-57.4	-82.2	258	20
2023-09-18T06:00	14462	138	-57.5	-82.2	259	20
2023-09-18T06:00	14484	137	-57.5	-82.2	260	20
2023-09-18T06:00	14506	137	-57.5	-82.2	261	21
2023-09-18T06:00	14526	136	-57.6	-82.3	262	20
2023-09-18T06:00	14552	136	-57.7	-82.6	264	20
2023-09-18T06:00	14575	135	-57.7	-82.6	266	20
2023-09-18T06:00	14599	135	-57.5	-82.5	269	19
2023-09-18T06:00	14624	134	-57.3	-82.6	270	19
2023-09-18T06:00	14647	134	-57.3	-82.6	272	18
2023-09-18T06:00	14669	133	-57.0	-82.6	272	18
2023-09-18T06:00	14693	133	-57.0	-82.6	272	19
2023-09-18T06:00	14714	132	-57.1	-82.7	271	19
2023-09-18T06:00	14740	132	-57.2	-82.8	270	19
2023-09-18T06:00	14765	131	-57.3	-82.6	269	20
2023-09-18T06:00	14784	131	-57.5	-82.7	268	20
2023-09-18T06:00	14805	130	-57.6	-82.8	267	20
2023-09-18T06:00	14828	130	-57.7	-82.9	267	19
2023-09-18T06:00	14853	129	-57.6	-83.1	266	19
2023-09-18T06:00	14877	129	-57.1	-82.7	267	18
2023-09-18T06:00	14898	128	-57.2	-82.8	267	17
2023-09-18T06:00	14922	128	-57.3	-82.8	268	17
2023-09-18T06:00	14945	128	-57.4	-82.7	268	16
2023-09-18T06:00	14967	127	-57.6	-82.8	268	15
2023-09-18T06:00	14991	127	-57.7	-82.9	267	14
2023-09-18T06:00	15016	126	-57.8	-83.0	267	13
2023-09-18T06:00	15037	126	-57.9	-83.0	266	12
2023-09-18T06:00	15061	125	-57.9	-83.0	265	12
2023-09-18T06:00	15084	125	-57.9	-83.0	264	11
2023-09-18T06:00	15106	124	-57.8	-83.0	262	11
2023-09-18T06:00	15127	124	-57.8	-83.0	260	11
2023-09-18T06:00	15149	123	-57.8	-83.0	257	11
2023-09-18T06:00	15172	123	-57.8	-83.0	255	11
2023-09-18T06:00	15194	123	-57.8	-83.0	253	11
2023-09-18T06:00	15215	122	-57.8	-83.0	252	11
2023-09-18T06:00	15239	122	-57.9	-83.0	252	11
2023-09-18T06:00	15262	121	-57.9	-83.0	253	12
2023-09-18T06:00	15285	121	-57.7	-83.2	254	12
2023-09-18T06:00	15308	120	-57.4	-82.9	256	12
2023-09-18T06:00	15331	120	-57.2	-82.8	258	12
2023-09-18T06:00	15354	120	-57.2	-82.8	260	12
2023-09-18T06:00	15375	119	-57.4	-82.9	262	12
2023-09-18T06:00	15397	119	-57.4	-82.9	264	12
2023-09-18T06:00	15417	118	-57.3	-82.8	265	12
2023-09-18T06:00	15440	118	-57.3	-82.8	265	12
2023-09-18T06:00	15462	118	-57.5	-82.7	265	13
2023-09-18T06:00	15485	117	-57.7	-82.9	264	14
2023-09-18T06:00	15510	117	-57.9	-83.0	263	15
2023-09-18T06:00	15531	116	-58.0	-83.1	263	15
2023-09-18T06:00	15554	116	-58.1	-83.2	264	16
2023-09-18T06:00	15576	115	-58.1	-83.2	265	16
2023-09-18T06:00	15597	115	-58.0	-83.4	267	16
2023-09-18T06:00	15621	115	-57.7	-83.4	270	15
2023-09-18T06:00	15646	114	-57.5	-83.6	272	14
2023-09-18T06:00	15670	114	-56.9	-83.4	274	14
2023-09-18T06:00	15690	113	-56.1	-82.8	275	13
2023-09-18T06:00	15713	113	-56.1	-83.1	275	13
2023-09-18T06:00	15735	113	-56.2	-82.9	274	13
2023-09-18T06:00	15758	112	-56.4	-83.0	272	12
2023-09-18T06:00	15782	112	-56.7	-83.2	270	12
2023-09-18T06:00	15805	111	-56.9	-83.1	269	12
2023-09-18T06:00	15828	111	-57.0	-83.2	267	12
2023-09-18T06:00	15850	111	-57.2	-83.3	266	12
2023-09-18T06:00	15875	110	-57.3	-83.1	264	11
2023-09-18T06:00	15895	110	-57.5	-83.3	262	11
2023-09-18T06:00	15917	109	-57.6	-83.3	259	12
2023-09-18T06:00	15941	109	-57.8	-83.5	256	12
2023-09-18T06:00	15963	109	-58.0	-83.7	253	13
2023-09-18T06:00	15984	108	-58.0	-83.7	251	14
2023-09-18T06:00	16007	108	-58.0	-83.9	250	15
2023-09-18T06:00	16028	107	-57.8	-84.1	250	16
2023-09-18T06:00	16050	107	-57.2	-83.6	251	16
2023-09-18T06:00	16073	107	-56.9	-83.7	252	17
2023-09-18T06:00	16095	106	-56.8	-83.6	254	18
2023-09-18T06:00	16118	106	-56.8	-84.0	256	18
2023-09-18T06:00	16143	106	-56.8	-84.0	259	18
2023-09-18T06:00	16163	105	-56.6	-83.8	261	18
2023-09-18T06:00	16188	105	-56.6	-83.8	264	18
2023-09-18T06:00	16216	104	-56.6	-83.8	266	18
2023-09-18T06:00	16238	104	-56.6	-83.8	268	18
2023-09-18T06:00	16261	104	-56.8	-84.0	270	19
2023-09-18T06:00	16288	103	-57.0	-83.8	272	19
2023-09-18T06:00	16312	103	-57.1	-83.9	274	18
2023-09-18T06:00	16335	102	-57.3	-84.0	276	18
2023-09-18T06:00	16359	102	-57.4	-84.1	278	18
2023-09-18T06:00	16381	102	-57.4	-84.1	280	18
2023-09-18T06:00	16407	101	-57.5	-84.2	281	18
2023-09-18T06:00	16429	101	-57.6	-84.3	283	17
2023-09-18T06:00	16452	100	-57.7	-84.3	285	17
2023-09-18T06:00	16476	100	-57.8	-84.4	287	17
2023-09-18T06:00	16498	100	-58.0	-84.2	289	17
2023-09-18T06:00	16523	99	-58.1	-84.3	290	17
2023-09-18T06:00	16547	99	-58.2	-84.4	292	16
2023-09-18T06:00	16571	99	-58.3	-84.8	293	16
2023-09-18T06:00	16595	98	-58.3	-84.8	292	15
2023-09-18T06:00	16618	98	-58.1	-85.0	291	15
2023-09-18T06:00	16640	98	-57.5	-84.5	289	14
2023-09-18T06:00	16667	97	-57.5	-84.9	287	15
2023-09-18T06:00	16688	97	-57.5	-84.9	285	15
2023-09-18T06:00	16712	96	-57.3	-84.7	284	15
2023-09-18T06:00	16733	96	-57.4	-84.8	284	15
2023-09-18T06:00	16755	96	-57.4	-85.2	285	15
2023-09-18T06:00	16782	95	-57.1	-84.9	287	15
2023-09-18T06:00	16808	95	-56.6	-84.9	289	15
2023-09-18T06:00	16831	95	-55.8	-84.8	291	14
2023-09-18T06:00	16854	94	-55.8	-84.8	293	14
2023-09-18T06:00	16880	94	-55.8	-84.8	294	13
2023-09-18T06:00	16905	94	-55.9	-84.8	294	12
2023-09-18T06:00	16930	93	-55.9	-84.4	293	12
2023-09-18T06:00	16956	93	-56.0	-84.5	293	12
2023-09-18T06:00	16979	92	-56.1	-84.6	293	11
2023-09-18T06:00	17004	92	-56.3	-84.7	292	11
2023-09-18T06:00	17029	92	-56.3	-84.7	291	11
2023-09-18T06:00	17052	91	-56.4	-84.8	290	10
2023-09-18T06:00	17080	91	-56.6	-84.9	288	10
2023-09-18T06:00	17103	91	-56.8	-85.1	286	10
2023-09-18T06:00	17124	90	-57.0	-84.8	284	10
2023-09-18T06:00	17151	90	-57.2	-85.0	281	10
2023-09-18T06:00	17174	90	-57.4	-85.2	279	10
2023-09-18T06:00	17199	89	-57.6	-85.3	277	11
2023-09-18T06:00	17222	89	-57.7	-85.4	276	11
2023-09-18T06:00	17245	89	-57.9	-85.5	275	10
2023-09-18T06:00	17273	88	-58.0	-85.6	275	10
2023-09-18T06:00	17298	88	-57.9	-85.5	275	9
2023-09-18T06:00	17318	88	-57.9	-85.5	274	8
2023-09-18T06:00	17344	87	-58.0	-86.0	273	8
2023-09-18T06:00	17364	87	-57.9		270	8
2023-09-18T06:00	17388	87	-57.7	-85.8	267	9
2023-09-18T06:00	17413	86	-57.3	-85.5	263	9
2023-09-18T06:00	17435	86	-57.3	-85.5	261	10
2023-09-18T06:00	17458	86	-57.4	-85.6	259	10
2023-09-18T06:00	17481	85	-57.5	-85.6	257	10
2023-09-18T06:00	17504	85	-57.5	-85.6	256	10
2023-09-18T06:00	17529	85	-57.5	-85.6	256	10
2023-09-18T06:00	17554	84	-57.5	-85.6	254	10
2023-09-18T06:00	17577	84	-57.7	-85.8	253	10
2023-09-18T06:00	17604	84	-57.9		252	10
2023-09-18T06:00	17624	83	-57.9		251	10
2023-09-18T06:00	17649	83	-58.0	-86.0	251	10
2023-09-18T06:00	17673	83	-58.2	-86.2	251	11
2023-09-18T06:00	17697	83	-58.2	-86.2	252	11
2023-09-18T06:00	17718	82	-58.2	-86.2	254	11
2023-09-18T06:00	17743	82	-58.0	-86.0	256	11
2023-09-18T06:00	17765	82	-58.1		258	11
2023-09-18T06:00	17787	81	-58.2	-86.2	260	11
2023-09-18T06:00	17813	81	-58.3	-86.2	262	11
2023-09-18T06:00	17836	81	-58.3	-85.8	263	11
2023-09-18T06:00	17858	80	-58.3	-85.8	264	11
2023-09-18T06:00	17881	80	-58.3	-85.8	265	11
2023-09-18T06:00	17903	80	-58.3	-85.8	266	11
2023-09-18T06:00	17928	80	-58.4	-85.9	266	11
2023-09-18T06:00	17951	79	-58.5	-86.0	265	10
2023-09-18T06:00	17975	79	-58.7	-86.1	265	10
2023-09-18T06:00	17998	79	-58.7	-86.1	264	10
2023-09-18T06:00	18021	78	-58.6	-86.5	264	9
2023-09-18T06:00	18044	78	-58.5	-86.4	264	9
2023-09-18T06:00	18069	78	-58.5	-86.4	264	8
2023-09-18T06:00	18093	77	-58.5	-86.4	263	8
2023-09-18T06:00	18117	77	-58.4	-86.3	261	8
2023-09-18T06:00	18137	77	-58.3	-86.2	258	8
2023-09-18T06:00	18160	77	-58.4	-86.3	255	8
2023-09-18T06:00	18184	76	-58.3	-86.2	253	9
2023-09-18T06:00	18207	76	-58.2	-86.2	252	10
2023-09-18T06:00	18230	76	-58.1	-86.5	251	10
2023-09-18T06:00	18255	76	-58.1	-86.5	251	11
2023-09-18T06:00	18282	75	-58.1	-86.5	251	12
2023-09-18T06:00	18305	75	-57.7	-86.2	251	12
2023-09-18T06:00	18327	75	-57.4	-86.0	250	13
2023-09-18T06:00	18354	74	-57.6	-86.1	250	13
2023-09-18T06:00	18380	74	-57.7	-86.2	251	13
2023-09-18T06:00	18401	74	-57.8	-86.3	251	13
2023-09-18T06:00	18427	73	-58.0	-86.4	252	13
2023-09-18T06:00	18456	73	-58.1		253	13
2023-09-18T06:00	18479	73	-58.3	-86.2	254	14
2023-09-18T06:00	18502	73	-58.4	-86.3	256	14
2023-09-18T06:00	18530	72	-58.6	-86.5	257	14
2023-09-18T06:00	18551	72	-58.6	-86.5	259	15
2023-09-18T06:00	18579	72	-58.6	-86.5	260	15
2023-09-18T06:00	18601	71	-58.6	-86.9	261	15
2023-09-18T06:00	18628	71	-58.4	-86.7	261	15
2023-09-18T06:00	18655	71	-58.2	-86.6	261	15
2023-09-18T06:00	18675	71	-58.3	-86.7	261	15
2023-09-18T06:00	18702	70	-58.4	-86.7	261	15
2023-09-18T06:00	18724	70	-58.5	-86.8	260	15
2023-09-18T06:00	18752	70	-58.6	-86.9	260	14
2023-09-18T06:00	18775	70	-58.6	-86.9	260	14
2023-09-18T06:00	18800	69	-58.6	-86.9	261	14
2023-09-18T06:00	18825	69	-58.5	-86.8	263	14
2023-09-18T06:00	18856	69	-58.3	-86.7	266	13
2023-09-18T06:00	18873	68	-58.3	-87.1	269	13
2023-09-18T06:00	18902	68	-58.3	-87.1	272	13
2023-09-18T06:00	18926	68	-58.1	-87.0	275	13
2023-09-18T06:00	18949	68	-58.1	-87.0	279	13
2023-09-18T06:00	18975	67	-58.0	-86.9	282	13
2023-09-18T06:00	18998	67	-58.1	-87.0	285	13
2023-09-18T06:00	19022	67	-58.0	-86.9	287	13
2023-09-18T06:00	19046	67	-57.7	-86.7	287	13
2023-09-18T06:00	19070	66	-57.4	-86.9	287	12
2023-09-18T06:00	19089	66	-57.4	-86.9	286	11
2023-09-18T06:00	19118	66	-57.5	-87.0	285	11
2023-09-18T06:00	19140	66	-57.6	-87.1	283	10
2023-09-18T06:00	19164	65	-57.6	-87.1	282	9
2023-09-18T06:00	19186	65	-57.5	-87.0	281	9
2023-09-18T06:00	19211	65	-57.2	-86.8	281	8
2023-09-18T06:00	19237	65	-57.1	-86.7	282	8
2023-09-18T06:00	19260	64	-57.0	-87.2	282	8
2023-09-18T06:00	19283	64	-56.6	-86.9	282	8
2023-09-18T06:00	19304	64	-56.4		282	8
2023-09-18T06:00	19330	64	-56.6	-86.3	281	9
2023-09-18T06:00	19354	63	-56.7	-86.4	280	9
2023-09-18T06:00	19374	63	-56.9	-86.6	279	10
2023-09-18T06:00	19398	63	-57.1	-86.7	278	10
2023-09-18T06:00	19424	63	-57.2	-86.3	278	11
2023-09-18T06:00	19446	63	-57.4	-86.4	277	11
2023-09-18T06:00	19470	62	-57.5	-86.5	277	12
2023-09-18T06:00	19494	62	-57.7	-86.7	277	13
2023-09-18T06:00	19515	62	-57.7	-86.7	277	13
2023-09-18T06:00	19543	62	-57.6	-86.6	277	14
2023-09-18T06:00	19564	61	-57.7	-86.7	277	14
2023-09-18T06:00	19589	61	-57.7	-87.2	278	14
2023-09-18T06:00	19615	61	-57.7	-87.2	280	14
2023-09-18T06:00	19637	61	-57.7	-87.2	283	14
2023-09-18T06:00	19658	60	-57.6	-87.1	286	14
2023-09-18T06:00	19687	60	-57.4	-86.9	289	14
2023-09-18T06:00	19710	60	-57.2	-86.8	293	13
2023-09-18T06:00	19737	60	-57.2	-86.8	297	13
2023-09-18T06:00	19762	59	-57.4	-86.9	301	12
2023-09-18T06:00	19791	59	-57.5	-87.0	305	12
2023-09-18T06:00	19817	59	-57.7	-87.2	308	12
2023-09-18T06:00	19838	59	-57.7	-86.7	310	11
2023-09-18T06:00	19866	59	-57.8	-86.7	311	11
2023-09-18T06:00	19892	58	-58.0	-86.9	311	11
2023-09-18T06:00	19917	58	-58.2	-87.0	310	10
2023-09-18T06:00	19938	58	-58.3	-86.7	309	10
2023-09-18T06:00	19965	58	-58.5	-86.8	308	9
2023-09-18T06:00	19987	57	-58.7	-87.0	307	9
2023-09-18T06:00	20017	57	-58.9	-87.1	307	8
2023-09-18T06:00	20041	57	-59.0	-87.2	306	8
2023-09-18T06:00	20069	57	-59.1	-87.3	305	7
2023-09-18T06:00	20092	56	-59.1	-87.3	305	7
2023-09-18T06:00	20118	56	-59.1	-87.3	303	6
2023-09-18T06:00	20141	56	-59.1	-87.3	300	6
2023-09-18T06:00	20164	56	-59.2	-87.3	295	5
2023-09-18T06:00	20188	56	-59.3	-87.9	289	5
2023-09-18T06:00	20217	55	-59.3	-87.9	283	5
2023-09-18T06:00	20239	55	-59.0	-87.6	278	5
2023-09-18T06:00	20261	55	-58.7	-87.4	273	5
2023-09-18T06:00	20285	55	-58.6	-87.8	268	6
2023-09-18T06:00	20308	55	-58.3	-87.6	262	6
2023-09-18T06:00	20332	54	-57.9	-87.8	256	6
2023-09-18T06:00	20356	54	-57.7	-87.7	250	7
2023-09-18T06:00	20383	54	-57.7	-87.7	246	7
2023-09-18T06:00	20407	54	-57.4	-87.5	246	7
2023-09-18T06:00	20427	53	-57.1	-87.2	248	7
2023-09-18T06:00	20453	53	-56.9	-87.1	253	7
2023-09-18T06:00	20479	53	-56.9	-87.1	260	7
2023-09-18T06:00	20501	53	-56.6	-86.9	266	7
2023-09-18T06:00	20525	53	-56.4		270	7
2023-09-18T06:00	20550	52	-56.5	-86.8	271	6
2023-09-18T06:00	20574	52	-56.5	-86.8	269	6
2023-09-18T06:00	20597	52	-56.5	-86.8	265	6
2023-09-18T06:00	20619	52	-56.6	-86.3	259	5
2023-09-18T06:00	20642	52	-56.6	-86.3	252	5
2023-09-18T06:00	20666	52	-56.7	-86.4	246	5
2023-09-18T06:00	20688	51	-56.7	-86.4	242	6
2023-09-18T06:00	20712	51	-56.6	-86.9	239	6
2023-09-18T06:00	20735	51	-56.5	-86.8	239	6
2023-09-18T06:00	20760	51	-56.6	-86.9	240	6
2023-09-18T06:00	20780	51	-56.6	-86.3	244	6
2023-09-18T06:00	20808	50	-56.6	-86.3	249	7
2023-09-18T06:00	20832	50	-56.7	-86.4	254	7
2023-09-18T06:00	20854	50	-56.8	-87.0	259	7
2023-09-18T06:00	20883	50	-56.7	-86.9	263	8
2023-09-18T06:00	20906	50	-56.5	-86.8	267	8
2023-09-18T06:00	20926	49	-56.5	-86.8	271	8
2023-09-18T06:00	20955	49	-56.4		274	9
2023-09-18T06:00	20981	49	-56.5	-86.8	276	9
2023-09-18T06:00	21008	49	-56.6	-86.3	278	9
2023-09-18T06:00	21031	49	-56.6	-86.3	279	9
2023-09-18T06:00	21058	48	-56.7	-86.4	280	9
2023-09-18T06:00	21085	48	-56.8	-86.5	282	10
2023-09-18T06:00	21111	48	-57.0	-86.6	284	10
2023-09-18T06:00	21136	48	-57.2	-86.8	286	10
2023-09-18T06:00	21157	48	-57.4	-86.4	288	10
2023-09-18T06:00	21186	47	-57.6	-86.6	289	10
2023-09-18T06:00	21211	47	-57.8	-86.7	290	10
2023-09-18T06:00	21238	47	-58.0	-87.4	290	10
2023-09-18T06:00	21269	47	-57.7	-87.2	289	10
2023-09-18T06:00	21291	47	-57.6	-87.1	287	10
2023-09-18T06:00	21321	46	-57.6	-87.1	284	9
2023-09-18T06:00	21347	46	-57.6	-87.1	281	9
2023-09-18T06:00	21372	46	-57.7	-87.2	279	10
2023-09-18T06:00	21398	46	-57.8	-87.2	277	10
2023-09-18T06:00	21425	46	-57.7	-87.2	276	11
2023-09-18T06:00	21450	46	-57.4	-86.9	277	11
2023-09-18T06:00	21481	45	-57.5	-87.0	278	12
2023-09-18T06:00	21506	45	-57.6	-87.1	281	12
2023-09-18T06:00	21533	45	-57.6	-87.1	283	12
2023-09-18T06:00	21561	45	-57.6	-87.1	285	12
2023-09-18T06:00	21590	45	-57.5	-87.0	287	12
2023-09-18T06:00	21614	44	-57.5	-87.0	288	11
2023-09-18T06:00	21645	44	-57.4	-87.5	289	11
2023-09-18T06:00	21673	44	-57.3	-87.4	289	10
2023-09-18T06:00	21698	44	-57.0	-87.2	290	10
2023-09-18T06:00	21726	44	-56.8	-87.0	290	10
2023-09-18T06:00	21753	43	-56.7	-86.9	290	10
2023-09-18T06:00	21781	43	-56.8	-87.0	290	10
2023-09-18T06:00	21804	43	-56.7	-86.9	291	10
2023-09-18T06:00	21827	43	-56.9	-87.1	292	10
2023-09-18T06:00	21851	43	-57.0	-86.6	293	10
2023-09-18T06:00	21886	43	-57.2	-86.8	295	10
2023-09-18T06:00	21911	42	-57.3	-86.9	296	11
2023-09-18T06:00	21935	42	-57.4	-86.9	297	11
2023-09-18T06:00	21963	42	-57.4	-86.9	297	10
2023-09-18T06:00	21990	42	-57.4	-86.9	296	10
2023-09-18T06:00	22020	42	-57.4	-86.9	294	10
2023-09-18T06:00	22044	41	-57.5	-87.0	293	9
2023-09-18T06:00	22063	41	-57.6	-87.1	292	9
2023-09-18T06:00	22091	41	-57.6	-87.1	293	9
2023-09-18T06:00	22118	41	-57.7	-87.2	295	9
2023-09-18T06:00	22142	41	-57.5	-87.0	298	9
2023-09-18T06:00	22170	41	-57.5	-87.0	302	9
2023-09-18T06:00	22195	40	-57.4	-86.9	307	9
2023-09-18T06:00	22222	40	-57.3	-87.4	312	8
2023-09-18T06:00	22245	40	-57.2	-87.3	318	8
2023-09-18T06:00	22273	40	-57.2	-87.3	323	7
2023-09-18T06:00	22295	40	-57.1	-87.2	329	7
2023-09-18T06:00	22321	40	-57.1	-87.2	335	7
2023-09-18T06:00	22345	40	-57.1	-87.2	339	6
2023-09-18T06:00	22372	39	-57.0	-87.2	344	6
2023-09-18T06:00	22396	39	-57.0	-87.2	347	6
2023-09-18T06:00	22421	39	-57.1	-87.2	350	5
2023-09-18T06:00	22447	39	-57.0	-87.2	352	5
2023-09-18T06:00	22470	39	-56.9	-87.1	354	4
2023-09-18T06:00	22493	39	-57.0	-86.6	354	4
2023-09-18T06:00	22521	38	-57.2	-86.8	351	3
2023-09-18T06:00	22549	38	-57.4	-86.9	346	3
2023-09-18T06:00	22577	38	-57.6	-87.1	336	3
2023-09-18T06:00	22593	38	-57.7	-87.2	325	3
2023-09-18T06:00	22626	38	-57.7	-87.2	314	3
2023-09-18T06:00	22657	38	-57.8	-87.2	307	4
2023-09-18T06:00	22680	37	-57.8	-87.2	303	5
2023-09-18T06:00	22706	37	-57.7	-87.2	300	5
2023-09-18T06:00	22727	37	-57.5	-87.0	298	6
2023-09-18T06:00	22757	37	-57.5	-87.5	297	6
2023-09-18T06:00	22779	37	-57.5	-87.5	298	7
2023-09-18T06:00	22809	37	-57.5	-87.5	299	7
2023-09-18T06:00	22832	37	-57.5	-87.5	300	7
2023-09-18T06:00	22859	36	-57.4	-87.5	299	6
2023-09-18T06:00	22886	36	-57.4	-87.5	297	6
2023-09-18T06:00	22911	36	-57.4	-87.5	292	5
2023-09-18T06:00	22937	36	-57.2	-87.3	285	4
2023-09-18T06:00	22968	36	-57.1	-87.2	275	4
2023-09-18T06:00	22993	36	-56.8	-87.6	262	3
2023-09-18T06:00	23021	36	-56.4	-87.3	251	3
2023-09-18T06:00	23045	35	-56.4	-87.3	244	3
2023-09-18T06:00	23078	35	-56.5	-87.4	242	3
2023-09-18T06:00	23097	35	-56.6	-86.9	243	4
2023-09-18T06:00	23126	35	-56.6	-86.9	246	4
2023-09-18T06:00	23155	35	-56.7	-86.9	248	5
2023-09-18T06:00	23181	35	-56.7	-86.9	249	5
2023-09-18T06:00	23207	34	-56.7	-86.9	251	6
2023-09-18T06:00	23233	34	-56.8	-87.0	253	7
2023-09-18T06:00	23257	34	-56.9	-87.1	256	7
2023-09-18T06:00	23285	34	-56.9	-87.1	258	8
2023-09-18T06:00	23307	34	-57.0	-87.2	260	8
2023-09-18T06:00	23340	34	-57.0	-87.2	261	9
2023-09-18T06:00	23355	34	-57.1	-87.2	262	9
2023-09-18T06:00	23393	34	-57.2	-87.3	264	9
2023-09-18T06:00	23416	33	-57.0	-87.2	267	9
2023-09-18T06:00	23442	33	-57.0	-87.2	271	9
2023-09-18T06:00	23466	33	-57.1	-87.2	277	8
2023-09-18T06:00	23496	33	-57.1	-87.2	283	8
2023-09-18T06:00	23525	33	-57.0	-87.2	289	9
2023-09-18T06:00	23550	33	-56.9	-87.7	295	9
2023-09-18T06:00	23579	33	-56.7	-87.5	300	9
2023-09-18T06:00	23602	32	-56.5	-87.4	303	9
2023-09-18T06:00	23627	32	-56.2	-87.2	306	9
2023-09-18T06:00	23655	32	-56.1	-87.1	307	9
2023-09-18T06:00	23682	32	-55.9	-86.9	308	9
2023-09-18T06:00	23703	32	-55.8	-86.9	309	8
2023-09-18T06:00	23727	32	-55.8	-86.9	308	7
2023-09-18T06:00	23757	32	-55.7	-86.8	306	6
2023-09-18T06:00	23779	31	-55.7	-86.8	302	6
2023-09-18T06:00	23807	31	-55.8	-86.9	295	5
2023-09-18T06:00	23832	31	-55.9	-86.9	288	5
2023-09-18T06:00	23867	31	-55.8	-86.9	281	5
2023-09-18T06:00	23889	31	-55.7	-86.8	277	5
2023-09-18T06:00	23919	31	-55.7	-86.8	276	6
2023-09-18T06:00	23942	31	-55.9	-86.9	276	6
2023-09-18T06:00	23974	31	-55.7	-86.8	277	6
2023-09-18T06:00	24000	30	-55.7	-86.8	278	7
2023-09-18T06:00	24029	30	-55.8	-86.9	279	7
2023-09-18T06:00	24052	30	-56.0	-86.4	281	7
2023-09-18T06:00	24074	30	-56.3	-86.6	282	7
2023-09-18T06:00	24113	30	-56.4		284	7
2023-09-18T06:00	24139	30	-56.5	-86.8	285	7
2023-09-18T06:00	24166	30	-56.6	-86.9	287	7
2023-09-18T06:00	24193	30	-56.7	-86.9	287	6
2023-09-18T06:00	24225	29	-56.8	-87.0	285	6
2023-09-18T06:00	24256	29	-57.0	-87.2	283	5
2023-09-18T06:00	24289	29	-57.3	-86.9	280	5
2023-09-18T06:00	24317	29	-57.4	-86.9	279	5
2023-09-18T06:00	24338	29	-57.5	-87.0	280	5
2023-09-18T06:00	24373	29	-57.5	-87.0	284	6
2023-09-18T06:00	24394	29	-57.4	-86.9	288	6
2023-09-18T06:00	24424	28	-57.5	-87.5	293	7
2023-09-18T06:00	24461	28	-57.6	-87.6	297	7
2023-09-18T06:00	24487	28	-57.6	-87.6	300	7
2023-09-18T06:00	24516	28	-57.7	-87.7	302	7
2023-09-18T06:00	24548	28	-57.8	-87.8	303	6
2023-09-18T06:00	24574	28	-57.8	-87.8	304	6
2023-09-18T06:00	24599	28	-57.8	-87.8	303	5
2023-09-18T06:00	24637	28	-57.7	-87.7	303	5
2023-09-18T06:00	24664	27	-57.5	-87.5	303	5
2023-09-18T06:00	24686	27	-57.4	-87.5	304	5
2023-09-18T06:00	24719	27	-57.4	-88.1	304	4
2023-09-18T06:00	24736	27	-57.3	-88.0	304	4
2023-09-18T06:00	24771	27	-57.2	-87.9	302	5
2023-09-18T06:00	24803	27	-56.8	-87.6	300	5
2023-09-18T06:00	24828	27	-56.7	-87.5	297	5
2023-09-18T06:00	24856	27	-56.6	-87.5	296	5
2023-09-18T06:00	24883	26	-56.5	-87.4	296	5
2023-09-18T06:00	24900	26	-56.4	-87.3	298	6
2023-09-18T06:00	24939	26	-56.4	-87.3	302	6
2023-09-18T06:00	24964	26	-56.5	-87.4	306	6
2023-09-18T06:00	24992	26	-56.4	-87.3	309	6
2023-09-18T06:00	25019	26	-56.2	-87.2	312	6
2023-09-18T06:00	25038	26	-56.1	-87.1	312	6
2023-09-18T06:00	25077	26	-56.2	-87.2	312	5
2023-09-18T06:00	25097	26	-56.1	-87.1	312	5
2023-09-18T06:00	25130	25	-56.1	-87.1	312	5
2023-09-18T06:00	25145	25	-56.1	-87.1	313	5
2023-09-18T06:00	25177	25	-56.0	-87.0	315	6
2023-09-18T06:00	25198	25	-55.9	-86.9	318	6
2023-09-18T06:00	25228	25	-55.7	-87.5	321	7
2023-09-18T06:00	25245	25	-55.6	-87.4	323	7
2023-09-18T06:00	25277	25	-55.5	-87.3	326	8
2023-09-18T06:00	25297	25	-55.4	-87.2	329	9
2023-09-18T06:00	25327	25	-55.4	-87.2	332	9
2023-09-18T06:00	25350	25	-55.3	-87.2	335	9
2023-09-18T06:00	25378	24	-55.2	-87.1	339	9
2023-09-18T06:00	25411	24	-55.0	-87.0	344	9
2023-09-18T06:00	25430	24	-54.8	-86.8	349	8
2023-09-18T06:00	25466	24	-54.7	-86.7	355	7
2023-09-18T06:00	25487	24	-54.8	-86.8	360	7
2023-09-18T06:00	25519	24	-54.9	-86.9	4	6
2023-09-18T06:00	25543	24	-55.1	-86.4	7	5
2023-09-18T06:00	25569	24	-55.0	-86.3	9	5
2023-09-18T06:00	25599	24	-55.0	-86.3	8	4
2023-09-18T06:00	25623	24	-55.1	-86.4	4	3
2023-09-18T06:00	25657	23	-55.1	-86.4	355	2
2023-09-18T06:00	25689	23	-55.2	-86.4	337	2
2023-09-18T06:00	25724	23	-55.2	-86.4	310	2
2023-09-18T06:00	25749	23	-55.3	-86.5	287	2
2023-09-18T06:00	25770	23	-55.4	-86.6	277	3
2023-09-18T06:00	25806	23	-55.3	-86.5	275	3
2023-09-18T06:00	25833	23	-55.1	-87.0	279	3
2023-09-18T06:00	25862	23	-55.1	-87.0	287	3
2023-09-18T06:00	25892	23	-55.2	-87.1	298	3
2023-09-18T06:00	25919	23	-55.2	-87.1	309	3
2023-09-18T06:00	25951	22	-55.1	-87.0	314	3
2023-09-18T06:00	25984	22	-55.0	-87.0	313	3
2023-09-18T06:00	26010	22	-54.9	-86.9	309	4
2023-09-18T06:00	26045	22	-54.9	-86.9	304	4
2023-09-18T06:00	26075	22	-55.0	-87.0	300	5
2023-09-18T06:00	26095	22	-55.1	-87.0	298	5
2023-09-18T06:00	26124	22	-55.1	-87.0	298	6
2023-09-18T06:00	26150	22	-55.1	-87.0	298	6
2023-09-18T06:00	26192	22	-55.1	-87.0	300	7
2023-09-18T06:00	26220	21	-54.8	-86.8	302	7
2023-09-18T06:00	26244	21	-54.3	-86.4	305	8
2023-09-18T06:00	26276	21	-54.2	-87.1	308	8
2023-09-18T06:00	26318	21	-54.1	-87.1	310	8
2023-09-18T06:00	26344	21	-54.0	-87.0	312	9
2023-09-18T06:00	26372	21	-54.0	-86.2	313	9
2023-09-18T06:00	26396	21	-54.0	-86.2	314	9
2023-09-18T06:00	26433	21	-54.1	-86.3	314	9
2023-09-18T06:00	26455	21	-54.0	-86.2	314	9
2023-09-18T06:00	26481	21	-53.8	-86.1	314	9
2023-09-18T06:00	26520	21	-53.7	-86.0	316	9
2023-09-18T06:00	26541	20	-53.7	-86.0	318	9
2023-09-18T06:00	26567	20	-53.9	-86.2	319	10
2023-09-18T06:00	26595	20	-53.9	-86.2	319	10
2023-09-18T06:00	26631	20	-53.9	-86.2	319	10
2023-09-18T06:00	26647	20	-53.9	-86.2	319	10
2023-09-18T06:00	26688	20	-53.8	-86.1	318	9
2023-09-18T06:00	26713	20	-53.7	-86.8	319	9
2023-09-18T06:00	26736	20	-53.6	-86.7	320	8
2023-09-18T06:00	26760	20	-53.4	-86.5	321	8
2023-09-18T06:00	26786	20	-53.3	-86.5	322	7
2023-09-18T06:00	26822	20	-53.4	-86.5	322	7
2023-09-18T06:00	26843	20	-53.4	-86.5	321	7
2023-09-18T06:00	26870	19	-53.5	-85.9	320	7
2023-09-18T06:00	26891	19	-53.6		317	6
2023-09-18T06:00	26920	19	-53.5	-85.9	316	6
2023-09-18T06:00	26951	19	-53.5	-85.9	316	6
2023-09-18T06:00	26976	19	-53.5	-85.9	316	7
2023-09-18T06:00	27008	19	-53.5	-86.6	318	7
2023-09-18T06:00	27028	19	-53.3	-86.5	319	7
2023-09-18T06:00	27059	19	-53.2	-86.4	321	8
2023-09-18T06:00	27093	19	-53.1	-86.3	321	8
2023-09-18T06:00	27119	19	-53.0	-86.3	321	9
2023-09-18T06:00	27144	19	-52.9	-86.2	321	9
2023-09-18T06:00	27160	19	-52.8	-86.1	320	9
2023-09-18T06:00	27191	18	-52.7	-86.0	318	9
2023-09-18T06:00	27222	18	-52.7	-86.0	316	9
2023-09-18T06:00	27244	18	-52.7	-86.0	314	9
2023-09-18T06:00	27280	18	-52.8	-86.1	312	9
2023-09-18T06:00	27306	18	-52.9	-86.2	309	8
2023-09-18T06:00	27330	18	-52.9	-86.2	306	8
2023-09-18T06:00	27357	18	-53.0	-86.3	302	8
2023-09-18T06:00	27380	18	-53.0	-86.3	299	8
2023-09-18T06:00	27418	18	-52.8	-86.1	297	8
2023-09-18T06:00	27432	18	-52.5	-85.9	296	9
2023-09-18T06:00	27477	18	-52.4	-85.8	295	9
2023-09-18T06:00	27507	18	-52.3	-85.8	296	9
2023-09-18T06:00	27528	18	-52.3	-85.8	297	9
2023-09-18T06:00	27566	17	-52.3	-85.8	299	8
2023-09-18T06:00	27593	17	-52.1	-86.5	302	8
2023-09-18T06:00	27628	17	-51.8	-86.3	305	8
2023-09-18T06:00	27657	17	-51.5	-86.1	308	8
2023-09-18T06:00	27684	17	-51.3	-85.9	312	8
2023-09-18T06:00	27731	17	-51.1	-85.8	316	9
2023-09-18T06:00	27758	17	-50.8	-85.6	320	9
2023-09-18T06:00	27781	17	-50.6	-85.4	324	9
2023-09-18T06:00	27808	17	-50.4	-85.3	329	9
2023-09-18T06:00	27835	17	-50.3	-85.2	334	9
2023-09-18T06:00	27862	17	-50.2	-85.1	339	9
2023-09-18T06:00	27906	17	-50.1	-85.1	343	8
2023-09-18T06:00	27931	16	-50.0	-85.0	347	8
2023-09-18T06:00	27966	16	-50.1	-85.1	349	7
2023-09-18T06:00	27996	16	-50.1	-85.1	350	7
2023-09-18T06:00	28015	16	-50.1	-85.1	351	7
2023-09-18T06:00	28051	16	-50.2	-85.1	352	7
2023-09-18T06:00	28074	16	-50.1	-85.1	352	7
2023-09-18T06:00	28103	16	-50.0	-85.0	351	6
2023-09-18T06:00	28138	16	-50.0	-85.0	348	6
2023-09-18T06:00	28175	16	-50.0	-85.0	342	6
2023-09-18T06:00	28189	16	-49.9	-84.9	335	5
2023-09-18T06:00	28236	16	-49.9	-84.9	326	5
2023-09-18T06:00	28249	16	-50.0	-85.0	317	5
2023-09-18T06:00	28275	16	-50.1	-85.1	308	6
2023-09-18T06:00	28320	16	-50.1	-85.1	301	6
2023-09-18T06:00	28332	15	-50.2	-85.1	295	6
2023-09-18T06:00	28366	15	-50.3	-85.2	291	7
2023-09-18T06:00	28385	15	-50.3	-85.2	287	7
2023-09-18T06:00	28424	15	-50.3	-85.2	285	8
2023-09-18T06:00	28451	15	-50.2	-85.1	283	8
2023-09-18T06:00	28473	15	-50.1	-85.1	282	8
2023-09-18T06:00	28503	15	-50.0	-85.0	281	9
2023-09-18T06:00	28544	15	-49.9	-84.9	280	9
2023-09-18T06:00	28561	15	-49.8	-84.8	279	9
2023-09-18T06:00	28585	15	-49.7	-84.8	278	9
2023-09-18T06:00	28616	15	-49.6	-84.7	277	10
2023-09-18T06:00	28636	15	-49.6	-84.7	276	10
2023-09-18T06:00	28671	15	-49.5	-84.6	276	10
2023-09-18T06:00	28718	15	-49.6	-84.7	277	11
2023-09-18T06:00	28737	15	-49.6	-84.7	277	11
2023-09-18T06:00	28766	15	-49.6	-84.7	278	12
2023-09-18T06:00	28779	14	-49.5	-84.6	279	13
2023-09-18T06:00	28811	14	-49.5	-84.6	280	13
2023-09-18T06:00	28855	14	-49.5	-84.6	281	14
2023-09-18T06:00	28880	14	-49.6	-84.7	283	14
2023-09-18T06:00	28914	14	-49.6	-84.7	285	15
2023-09-18T06:00	28941	14	-49.7	-84.8	286	15
2023-09-18T06:00	28965	14	-49.6	-84.7	288	15
2023-09-18T06:00	29000	14	-49.3	-84.5	289	15
2023-09-18T06:00	29043	14	-48.9	-84.2	291	15
2023-09-18T06:00	29070	14	-48.8	-85.2	293	15
2023-09-18T06:00	29103	14	-48.8	-84.1	296	14
2023-09-18T06:00	29136	14	-48.8	-84.1	298	13
2023-09-18T06:00	29155	14	-49.0	-84.3	301	13
2023-09-18T06:00	29201	14	-49.3	-84.5	305	12
2023-09-18T06:00	29231	14	-49.4	-84.6	308	11
2023-09-18T06:00	29241	13	-49.5	-84.6	312	11
2023-09-18T06:00	29285	13	-49.6	-84.7	316	10
2023-09-18T06:00	29315	13	-49.7	-84.8	319	10
2023-09-18T06:00	29347	13	-49.7	-84.8	321	10
2023-09-18T06:00	29385	13	-49.8	-84.8	322	11
2023-09-18T06:00	29427	13	-49.7	-84.8	322	11
2023-09-18T06:00	29444	13	-49.7	-84.8	321	11
2023-09-18T06:00	29462	13	-49.9	-84.9	319	11
2023-09-18T06:00	29518	13	-50.1	-85.1	318	11
2023-09-18T06:00	29531	13	-50.2	-85.1	316	11
2023-09-18T06:00	29586	13	-50.3	-85.2	315	12
2023-09-18T06:00	29617	13	-50.3	-85.2	315	12
2023-09-18T06:00	29642	13	-50.5	-84.5	314	12
2023-09-18T06:00	29694	13	-50.7	-84.6	314	12
2023-09-18T06:00	29727	13	-50.8	-84.7	314	13
2023-09-18T06:00	29771	12	-50.9	-84.7	314	13
2023-09-18T06:00	29791	12	-50.9	-85.6	314	13
2023-09-18T06:00	29826	12	-50.9	-85.6	315	12
2023-09-18T06:00	29854	12	-50.9	-85.6	315	12
2023-09-18T06:00	29884	12	-50.7	-85.5	317	11
2023-09-18T06:00	29917	12	-50.5	-85.3	319	10
2023-09-18T06:00	29937	12	-50.3	-85.2	322	10
2023-09-18T06:00	29960	12	-50.2	-85.1	325	9
2023-09-18T06:00	29986	12	-50.1	-85.1	329	8
2023-09-18T06:00	30026	12	-50.2	-85.1	332	8
2023-09-18T06:00	30049	12	-50.1	-85.1	335	7
2023-09-18T06:00	30083	12	-49.9	-84.9	336	7
2023-09-18T06:00	30097	12	-49.8	-84.8	335	6
2023-09-18T06:00	30131	12	-49.8	-85.9	332	6
2023-09-18T06:00	30159	12	-49.6	-85.8	327	6
2023-09-18T06:00	30169	12	-49.4	-85.6	322	6
2023-09-18T06:00	30201	12	-49.2	-85.5	316	6
2023-09-18T06:00	30236	12	-49.0	-85.3	310	7
2023-09-18T06:00	30252	12	-48.8	-85.2	306	7
2023-09-18T06:00	30278	12	-48.7	-85.1	303	8
2023-09-18T06:00	30303	11	-48.6	-85.0	301	9
2023-09-18T06:00	30324	11	-48.6	-85.0	300	10
2023-09-18T06:00	30351	11	-48.4	-84.9	300	11
2023-09-18T06:00	30387	11	-48.1	-84.7	300	11
2023-09-18T06:00	30405	11	-47.8	-84.5	301	12
2023-09-18T06:00	30444	11	-47.4	-84.2	302	12
2023-09-18T06:00	30457	11	-47.1	-84.0	304	13
2023-09-18T06:00	30497	11	-47.0	-83.9	306	13
2023-09-18T06:00	30524	11	-47.1	-84.0	308	13
2023-09-18T06:00	30567	11	-47.0	-83.9	310	12
2023-09-18T06:00	30578	11	-46.9	-83.9	312	12
2023-09-18T06:00	30611	11	-46.8	-83.8	313	12
2023-09-18T06:00	30646	11	-46.9	-83.9	314	12
2023-09-18T06:00	30657	11	-47.0	-83.9	315	12
2023-09-18T06:00	30677	11	-47.0	-83.9	315	12
2023-09-18T06:00	30733	11	-47.0	-83.9	316	12
2023-09-18T06:00	30760	11	-46.9	-83.9	318	12
2023-09-18T06:00	30798	11	-46.8	-83.8	319	11
2023-09-18T06:00	30826	11	-46.8	-83.8	320	11
2023-09-18T06:00	30849	11	-46.9	-83.9	321	11
2023-09-18T06:00	30870	11	-46.9	-83.9	322	10
2023-09-18T06:00	30902	10	-47.0	-83.9	322	10
2023-09-18T06:00	30944	10	-46.9	-83.9	323	10
2023-09-18T06:00	30958	10	-46.8	-83.8	323	11
2023-09-18T06:00	31001	10	-46.7	-83.7	323	11
2023-09-18T06:00	31031	10	-46.6	-83.6	324	12
2023-09-18T06:00	31080	10	-46.5	-83.6	324	12
2023-09-18T06:00	31096	10	-46.5	-83.6	325	13
2023-09-18T06:00	31112	10	-46.4	-83.5	326	13
2023-09-18T06:00	31155	10	-46.4	-83.5	327	13
2023-09-18T06:00	31188	10	-46.3	-83.4	328	13
2023-09-18T06:00	31207	10	-45.9	-83.2	327	13
2023-09-18T06:00	31244	10	-45.6	-82.9	325	12
2023-09-18T06:00	31296	10	-45.4	-82.8	322	11
2023-09-18T06:00	31310	10	-45.3	-82.7	319	10
2023-09-18T06:00	31353	10	-45.2	-82.7	315	10
2023-09-18T06:00	31377	10	-45.1	-82.6	312	9
2023-09-18T06:00	31399	10	-45.1	-82.6	310	9
2023-09-18T06:00	31423	10	-45.0	-82.5	310	10
2023-09-18T06:00	31461	10	-44.8	-82.4	310	10
2023-09-18T06:00	31475	10	-44.8	-82.4	311	11
2023-09-18T06:00	31514	10	-44.7	-82.3	313	12
2023-09-18T06:00	31555	10	-44.6	-82.2	315	13
2023-09-18T06:00	31567	9	-44.4	-82.1	316	13
2023-09-18T06:00	31599	9	-44.4	-82.1	318	14
2023-09-18T06:00	31617	9	-44.3	-82.0	320	14
2023-09-18T06:00	31664	9	-44.2	-82.0	321	14
2023-09-18T06:00	31684	9	-44.0	-81.8	322	14
2023-09-18T06:00	31690	9	-43.9	-81.8	323	14
2023-09-18T06:00	31726	9	-43.7	-81.6	323	14
2023-09-18T06:00	31769	9	-43.5	-81.5	324	14
2023-09-18T06:00	31785	9	-43.3	-81.3	325	14
2023-09-18T06:00	31812	9	-43.1	-81.2	326	14
2023-09-18T06:00	31839	9	-42.9	-81.1	327	13
2023-09-18T06:00	31864	9	-42.7	-80.9	327	13
2023-09-18T06:00	31885	9	-42.8	-81.0	327	13
2023-09-18T06:00	31938	9	-42.8	-81.0	326	13
2023-09-18T06:00	31944	9	-42.9	-81.1	325	12
2023-09-18T06:00	31972	9	-42.8	-81.0	324	12
2023-09-18T06:00	31999	9	-42.8	-81.0	323	11
2023-09-18T06:00	32045	9	-42.8	-81.0	323	11
2023-09-18T06:00	32066	9	-42.9	-81.1	323	11
2023-09-18T06:00	32100	9	-42.9	-81.1	323	11
2023-09-18T06:00	32111	9	-42.8	-81.0	324	11
2023-09-18T06:00	32142	9	-42.7	-80.9	325	12
2023-09-18T06:00	32186	9	-42.7	-80.9	326	12
2023-09-18T06:00	32222	9	-42.7	-80.9	326	12
2023-09-18T06:00	32243	9	-42.8	-81.0	325	12
2023-09-18T06:00	32295	9	-42.8	-81.0	323	11
2023-09-18T06:00	32314	9	-42.7	-80.9	321	11
2023-09-18T06:00	32348	8	-42.6	-80.8	319	11
2023-09-18T06:00	32365	8	-42.6	-80.8	317	10
2023-09-18T06:00	32419	8	-42.7	-80.9	316	10
2023-09-18T06:00	32453	8	-42.8	-81.0	315	11
2023-09-18T06:00	32458	8	-42.9	-81.1	315	11
2023-09-18T06:00	32510	8	-43.0	-81.1	315	11
2023-09-18T06:00	32556	8	-43.1	-81.2	316	11
2023-09-18T06:00	32596	8	-43.3	-81.3	317	10
2023-09-18T06:00	32617	8	-43.4	-81.4	319	10
2023-09-18T06:00	32648	8	-43.5	-81.5	321	9
2023-09-18T06:00	32677	8	-43.5	-81.5	322	8
2023-09-18T06:00	32717	8	-43.6	-81.5	323	7
2023-09-18T06:00	32747	8	-43.8	-81.7	322	7
2023-09-18T06:00	32758	8	-43.8	-81.7	319	7
2023-09-18T06:00	32819	8	-43.7	-81.6	316	7
2023-09-18T06:00	32830	8	-43.6	-81.5	313	7
2023-09-18T06:00	32867	8	-43.4	-81.4	311	8
2023-09-18T06:00	32912	8	-43.4	-81.4	310	9
2023-09-18T06:00	32953	8	-43.4	-81.4	311	9
2023-09-18T06:00	32966	8	-43.3	-81.3	312	9
2023-09-18T06:00	33002	8	-43.3	-81.3	313	10
2023-09-18T06:00	33028	8	-43.4	-81.4	314	10
2023-09-18T06:00	33051	8	-43.4	-81.4	314	9
2023-09-18T06:00	33109	8	-43.4	-81.4	314	9
2023-09-18T06:00	33120	8	-43.4	-81.4	312	9
2023-09-18T06:00	33195	8	-43.3	-81.3	309	8
2023-09-18T06:00	33211	7	-43.0	-81.1	300	8
2023-09-18T06:00	33213	7	-42.9	-81.1	297	8
2023-09-18T06:00	33276	7	-42.8	-81.0	295	9
2023-09-18T06:00	33302	7	-42.6	-80.8	294	9
2023-09-18T06:00	33341	7	-42.3	-80.6	294	9
2023-09-18T06:00	33357	7	-42.0	-80.4	294	9
2023-09-18T06:00	33399	7	-41.7	-80.2	296	8
2023-09-18T06:00	33406	7	-41.5	-80.1	299	8
2023-09-18T06:00	33437	7	-41.4	-80.0	302	8
2023-09-18T06:00	33469	7	-41.3	-79.9	306	8
2023-09-18T06:00	33484	7	-41.1	-79.8	309	9
2023-09-18T06:00	33499	7	-40.9	-79.7	312	9
2023-09-18T06:00	33544	7	-40.7	-79.5	314	9
2023-09-18T06:00	33581	7	-40.6	-79.5	316	10
2023-09-18T06:00	33588	7	-40.5	-79.4	319	10
2023-09-18T06:00	33638	7	-40.5	-79.4	322	10
2023-09-18T06:00	33662	7	-40.5	-79.4	325	11
2023-09-18T06:00	33688	7	-40.4	-79.3	329	11
2023-09-18T06:00	33702	7	-40.4	-79.3	332	11
2023-09-18T06:00	33721	7	-40.4	-79.3	335	11
2023-09-18T06:00	33772	7	-40.3	-79.2	336	11
2023-09-18T06:00	33775	7	-40.3	-79.2	336	10
2023-09-18T06:00	33798	7	-40.2	-79.2	336	9
2023-09-18T06:00	33852	7	-40.0	-79.0	335	8
2023-09-18T06:00	33924	7	-39.9	-79.0	332	6
2023-09-18T06:00	33943	7	-39.7	-78.8	329	5
2023-09-18T06:00	33988	7	-39.4	-78.6	323	5
2023-09-18T06:00	33999	7	-39.2	-78.5	315	5
2023-09-18T06:00	34030	7	-39.1	-78.4	307	5
2023-09-18T06:00	34069	7	-39.1	-78.4	300	6
2023-09-18T06:00	34085	7	-39.0	-78.3	295	6
2023-09-18T06:00	34142	7	-38.9	-78.3	292	6
2023-09-18T12:00	112	995	26.4	14.5	150	5
2023-09-18T12:00	137	993	26.0	14.2	170	3
2023-09-18T12:00	163	990	25.7	13.7	165	5
2023-09-18T12:00	191	986	25.3	13.5	162	6
2023-09-18T12:00	226	983	24.9	13.3	161	7
2023-09-18T12:00	258	979	24.4	13.3	160	8
2023-09-18T12:00	286	976	24.2	13.3	160	8
2023-09-18T12:00	311	973	23.9	13.2	160	8
2023-09-18T12:00	349	969	23.7	13.2	162	8
2023-09-18T12:00	381	966	23.2	13.1	164	8
2023-09-18T12:00	409	962	22.9	13.1	167	8
2023-09-18T12:00	440	959	22.7	13.0	168	8
2023-09-18T12:00	464	956	22.5	13.1	169	8
2023-09-18T12:00	492	953	22.2	13.0	168	8
2023-09-18T12:00	525	950	21.9	13.0	166	8
2023-09-18T12:00	557	946	21.5	12.8	164	8
2023-09-18T12:00	590	942	21.2	12.7	162	7
2023-09-18T12:00	623	939	21.0	12.4	161	7
2023-09-18T12:00	653	936	20.7	12.4	161	8
2023-09-18T12:00	688	932	20.3	12.1	162	8
2023-09-18T12:00	723	928	20.0	12.4	163	9
2023-09-18T12:00	753	925	19.7	12.4	165	9
2023-09-18T12:00	787	921	19.4	12.2	169	10
2023-09-18T12:00	811	919	19.3	11.3	174	11
2023-09-18T12:00	836	916	19.2	10.8	179	12
2023-09-18T12:00	867	913	19.1	10.1	184	12
2023-09-18T12:00	895	910	19.4	9.7	188	13
2023-09-18T12:00	926	906	19.3	9.4	192	13
2023-09-18T12:00	957	903	19.2	9.0	195	13
2023-09-18T12:00	985	900	19.0	9.0	199	12
2023-09-18T12:00	1016	897	18.8	8.8	203	12
2023-09-18T12:00	1045	894	18.7	8.4	207	12
2023-09-18T12:00	1073	891	18.6	8.3	210	12
2023-09-18T12:00	1109	887	18.4	8.0	212	12
2023-09-18T12:00	1139	884	18.3	7.9	213	12
2023-09-18T12:00	1166	881	18.0	7.6	213	12
2023-09-18T12:00	1195	878	17.9	7.3	212	11
2023-09-18T12:00	1228	875	17.8	7.1	212	11
2023-09-18T12:00	1254	872	17.7	6.8	212	11
2023-09-18T12:00	1283	869	17.6	6.7	211	11
2023-09-18T12:00	1311	866	17.4	6.6	210	11
2023-09-18T12:00	1342	863	17.2	6.5	208	11
2023-09-18T12:00	1371	861	16.9	6.5	206	11
2023-09-18T12:00	1395	858	16.8	6.5	204	10
2023-09-18T12:00	1421	856	16.6	6.5	203	10
2023-09-18T12:00	1446	853	16.5	6.4	203	11
2023-09-18T12:00	1476	850	16.3	6.2	204	11
2023-09-18T12:00	1504	847	16.1	6.0	204	11
2023-09-18T12:00	1532	845	16.0	5.5	204	11
2023-09-18T12:00	1554	842	16.0	5.3	202	11
2023-09-18T12:00	1578	840	15.9	5.2	198	11
2023-09-18T12:00	1608	837	15.7	5.0	194	11
2023-09-18T12:00	1629	835	15.5	4.8	190	11
2023-09-18T12:00	1649	833	15.3	4.8	188	11
2023-09-18T12:00	1671	831	15.1	4.7	188	11
2023-09-18T12:00	1697	828	14.9	4.6	190	11
2023-09-18T12:00	1731	825	14.6	4.5	193	11
2023-09-18T12:00	1760	822	14.4	4.4	195	11
2023-09-18T12:00	1787	820	14.1	4.2	197	12
2023-09-18T12:00	1812	817	14.1	3.9	198	12
2023-09-18T12:00	1838	814	14.1	3.5	199	12
2023-09-18T12:00	1868	812	13.9	3.6	201	12
2023-09-18T12:00	1897	809	13.6	3.5	202	12
2023-09-18T12:00	1926	806	13.3	3.5	204	12
2023-09-18T12:00	1955	803	13.0	3.6	205	13
2023-09-18T12:00	1981	801	12.8	3.6	207	13
2023-09-18T12:00	2005	799	12.5	3.5	207	13
2023-09-18T12:00	2025	797	12.3	3.7	208	14
2023-09-18T12:00	2047	794	12.1	3.8	208	14
2023-09-18T12:00	2071	792	11.9	3.7	208	13
2023-09-18T12:00	2098	790	11.7	3.7	207	13
2023-09-18T12:00	2124	787	11.5	3.8	206	13
2023-09-18T12:00	2147	785	11.2	3.7	205	12
2023-09-18T12:00	2168	783	11.0	3.6	203	12
2023-09-18T12:00	2192	781	10.8	3.5	202	12
2023-09-18T12:00	2223	778	10.6	3.3	202	12
2023-09-18T12:00	2254	775	10.4	3.1	203	12
2023-09-18T12:00	2284	772	10.2	2.9	204	12
2023-09-18T12:00	2307	770	10.0	2.7	206	12
2023-09-18T12:00	2331	768	9.8	2.6	207	12
2023-09-18T12:00	2359	765	9.6	2.5	209	13
2023-09-18T12:00	2381	763	9.5	2.3	211	13
2023-09-18T12:00	2410	761	9.3	1.9	212	13
2023-09-18T12:00	2436	758	9.1	1.8	213	13
2023-09-18T12:00	2461	756	8.9	1.6	213	13
2023-09-18T12:00	2480	754	8.8	1.6	213	13
2023-09-18T12:00	2507	752	8.5	1.4	213	13
2023-09-18T12:00	2542	749	8.2	1.3	212	13
2023-09-18T12:00	2568	746	8.1	1.0	212	13
2023-09-18T12:00	2597	744	8.0	0.8	212	13
2023-09-18T12:00	2622	741	7.8	0.7	212	13
2023-09-18T12:00	2654	739	7.6	0.7	213	13
2023-09-18T12:00	2679	736	7.5	0.4	214	13
2023-09-18T12:00	2702	734	7.4	-0.3	216	13
2023-09-18T12:00	2731	732	7.2	-0.7	218	13
2023-09-18T12:00	2760	729	7.2	-1.7	221	13
2023-09-18T12:00	2793	726	6.8	-1.7	224	14
2023-09-18T12:00	2822	724	6.6	-2.1	227	14
2023-09-18T12:00	2849	721	6.3	-2.1	229	14
2023-09-18T12:00	2876	719	6.3	-3.7	230	15
2023-09-18T12:00	2895	717	6.3	-5.3	231	15
2023-09-18T12:00	2921	715	6.1	-5.4	230	14
2023-09-18T12:00	2951	712	5.9	-5.1	229	14
2023-09-18T12:00	2977	710	5.7	-3.8	229	13
2023-09-18T12:00	3002	708	5.6	-4.5	229	13
2023-09-18T12:00	3031	705	5.4	-5.8	229	13
2023-09-18T12:00	3064	703	5.3	-3.8	228	13
2023-09-18T12:00	3088	700	5.0	-2.5	228	13
2023-09-18T12:00	3113	698	4.8	-1.6	228	13
2023-09-18T12:00	3144	696	4.5	-0.9	229	12
2023-09-18T12:00	3174	693	4.3	-0.7	231	11
2023-09-18T12:00	3204	691	4.1	-0.6	234	11
2023-09-18T12:00	3227	689	3.8	-0.6	235	11
2023-09-18T12:00	3253	686	3.6	-0.7	236	10
2023-09-18T12:00	3278	684	3.5	-1.0	236	10
2023-09-18T12:00	3300	682	3.3	-1.0	235	11
2023-09-18T12:00	3327	680	3.1	-1.2	234	12
2023-09-18T12:00	3348	678	2.9	-1.2	234	12
2023-09-18T12:00	3375	676	2.7	-1.5	233	13
2023-09-18T12:00	3398	674	2.5	-1.5	233	13
2023-09-18T12:00	3429	672	2.3	-1.5	233	13
2023-09-18T12:00	3469	668	1.9	-1.9	233	13
2023-09-18T12:00	3504	665	1.6	-2.1	234	13
2023-09-18T12:00	3538	663	1.5	-2.0	235	13
2023-09-18T12:00	3567	660	1.2	-1.8	236	13
2023-09-18T12:00	3593	658	1.0	-1.6	237	13
2023-09-18T12:00	3618	656	0.7	-1.7	237	13
2023-09-18T12:00	3640	654	0.5	-1.6	237	13
2023-09-18T12:00	3668	652	0.4	-1.1	237	13
2023-09-18T12:00	3698	650	0.2	-1.3	237	13
2023-09-18T12:00	3725	647	0.1	-1.0	238	14
2023-09-18T12:00	3758	645	-0.2	-1.1	238	14
2023-09-18T12:00	3787	642	0.0	-1.5	239	14
2023-09-18T12:00	3821	640	-0.1	-1.8	239	14
2023-09-18T12:00	3845	638	-0.2	-2.0	238	13
2023-09-18T12:00	3865	636	-0.3	-2.2	236	13
2023-09-18T12:00	3888	634	-0.2	-2.4	234	12
2023-09-18T12:00	3915	632	-0.4	-2.5	234	12
2023-09-18T12:00	3937	631	-0.5	-2.6	234	12
2023-09-18T12:00	3954	629	-0.4	-3.2	235	12
2023-09-18T12:00	3984	627	-0.5	-5.9	235	12
2023-09-18T12:00	4017	624	-0.7	-6.8	235	11
2023-09-18T12:00	4043	622	-0.9	-7.6	234	11
2023-09-18T12:00	4068	620	-1.0	-8.0	234	11
2023-09-18T12:00	4090	619	-1.0	-8.0	234	12
2023-09-18T12:00	4115	617	-1.2	-7.4	235	12
2023-09-18T12:00	4140	615	-1.4	-6.8	236	12
2023-09-18T12:00	4168	613	-1.7	-7.0	236	11
2023-09-18T12:00	4191	611	-1.9	-6.4	235	11
2023-09-18T12:00	4216	609	-2.2	-4.8	233	11
2023-09-18T12:00	4245	607	-2.5	-4.8	232	11
2023-09-18T12:00	4271	605	-2.7	-4.7	231	11
2023-09-18T12:00	4294	603	-2.8	-4.8	232	11
2023-09-18T12:00	4319	601	-3.1	-5.0	235	11
2023-09-18T12:00	4348	599	-3.2	-5.1	237	11
2023-09-18T12:00	4373	597	-3.3	-5.2	238	10
2023-09-18T12:00	4408	594	-3.6	-5.3	238	10
2023-09-18T12:00	4439	592	-3.7	-5.0	236	10
2023-09-18T12:00	4469	590	-3.7	-5.1	235	10
2023-09-18T12:00	4493	588	-3.7	-5.4	233	11
2023-09-18T12:00	4517	586	-3.7	-6.1	232	11
2023-09-18T12:00	4550	584	-3.9	-6.6	231	11
2023-09-18T12:00	4575	582	-4.0	-7.2	229	10
2023-09-18T12:00	4600	580	-4.1	-8.4	227	10
2023-09-18T12:00	4630	578	-4.3	-9.3	225	10
2023-09-18T12:00	4651	576	-4.4	-9.7	224	10
2023-09-18T12:00	4679	574	-4.6	-10.0	224	10
2023-09-18T12:00	4702	572	-4.9	-10.0	226	10
2023-09-18T12:00	4734	570	-5.1	-10.1	228	10
2023-09-18T12:00	4756	569	-5.3	-9.9	229	10
2023-09-18T12:00	4782	567	-5.5	-10.0	229	10
2023-09-18T12:00	4805	565	-5.7	-9.9	227	9
2023-09-18T12:00	4830	563	-5.8	-9.5	225	9
2023-09-18T12:00	4869	561	-6.1	-9.4	223	9
2023-09-18T12:00	4894	559	-6.2	-9.9	222	9
2023-09-18T12:00	4916	557	-6.4	-9.9	221	9
2023-09-18T12:00	4941	555	-6.6	-10.1	222	9
2023-09-18T12:00	4971	553	-6.9	-10.1	222	9
2023-09-18T12:00	4994	552	-7.1	-10.3	222	9
2023-09-18T12:00	5018	550	-7.3	-10.3	222	9
2023-09-18T12:00	5038	549	-7.5	-10.3	222	9
2023-09-18T12:00	5058	547	-7.7	-10.5	221	9
2023-09-18T12:00	5090	545	-8.0	-10.8	221	9
2023-09-18T12:00	5126	543	-8.2	-10.9	220	9
2023-09-18T12:00	5149	541	-8.4	-11.1	220	9
2023-09-18T12:00	5178	539	-8.6	-11.4	220	9
2023-09-18T12:00	5207	537	-8.9	-11.4	221	10
2023-09-18T12:00	5240	535	-9.1	-11.5	222	10
2023-09-18T12:00	5271	532	-9.3	-11.8	224	11
2023-09-18T12:00	5295	531	-9.3	-11.9	224	11
2023-09-18T12:00	5317	529	-9.4	-12.2	224	11
2023-09-18T12:00	5339	528	-9.4	-12.5	223	11
2023-09-18T12:00	5358	526	-9.5	-12.6	221	11
2023-09-18T12:00	5384	525	-9.7	-12.6	219	11
2023-09-18T12:00	5412	523	-9.9	-13.1	220	11
2023-09-18T12:00	5432	521	-9.9	-12.7	222	11
2023-09-18T12:00	5459	520	-9.9	-11.5	226	11
2023-09-18T12:00	5478	518	-10.1	-11.6	230	12
2023-09-18T12:00	5499	517	-10.2	-11.5	233	12
2023-09-18T12:00	5528	515	-10.5	-11.6	234	12
2023-09-18T12:00	5558	513	-10.5	-11.6	234	12
2023-09-18T12:00	5578	512	-10.6	-11.7	233	12
2023-09-18T12:00	5601	510	-10.7	-12.0	233	12
2023-09-18T12:00	5629	508	-10.9	-12.3	235	12
2023-09-18T12:00	5651	507	-11.1	-12.3	237	12
2023-09-18T12:00	5680	505	-11.3	-12.7	239	12
2023-09-18T12:00	5707	503	-11.5	-12.8	239	12
2023-09-18T12:00	5730	502	-11.7	-12.8	239	12
2023-09-18T12:00	5751	500	-11.9	-12.9	238	12
2023-09-18T12:00	5775	499	-12.0	-13.2	236	13
2023-09-18T12:00	5794	497	-12.1	-13.3	235	13
2023-09-18T12:00	5823	496	-12.3	-13.5	233	13
2023-09-18T12:00	5850	494	-12.6	-13.5	232	13
2023-09-18T12:00	5878	492	-12.8	-13.6	231	13
2023-09-18T12:00	5906	490	-13.1	-13.8	230	12
2023-09-18T12:00	5931	488	-13.3	-14.0	230	11
2023-09-18T12:00	5960	487	-13.5	-14.1	229	10
2023-09-18T12:00	5981	485	-13.7	-14.4	228	9
2023-09-18T12:00	6003	484	-13.6	-15.3	226	8
2023-09-18T12:00	6029	482	-13.6	-16.1	224	8
2023-09-18T12:00	6058	480	-13.8	-16.2	224	8
2023-09-18T12:00	6090	479	-14.0	-16.6	226	8
2023-09-18T12:00	6115	477	-14.1	-16.7	229	8
2023-09-18T12:00	6145	475	-14.3	-17.0	232	8
2023-09-18T12:00	6174	473	-14.5	-17.5	234	8
2023-09-18T12:00	6197	472	-14.5	-17.5	235	8
2023-09-18T12:00	6218	470	-14.6	-18.3	236	8
2023-09-18T12:00	6251	468	-14.5	-19.1	237	9
2023-09-18T12:00	6277	467	-14.5	-19.4	237	9
2023-09-18T12:00	6296	466	-14.6	-19.8	235	10
2023-09-18T12:00	6318	464	-14.5	-20.2	233	10
2023-09-18T12:00	6337	463	-14.4		230	10
2023-09-18T12:00	6361	462	-14.6	-20.3	227	10
2023-09-18T12:00	6386	460	-14.8	-20.3	225	9
2023-09-18T12:00	6420	458	-15.1	-20.5	223	9
2023-09-18T12:00	6452	456	-15.3	-20.7	221	9
2023-09-18T12:00	6481	454	-15.6		218	9
2023-09-18T12:00	6514	452	-15.9	-20.8	217	9
2023-09-18T12:00	6542	451	-16.0	-21.1	215	8
2023-09-18T12:00	6565	449	-16.1	-21.6	215	8
2023-09-18T12:00	6593	448	-16.3	-21.9	214	9
2023-09-18T12:00	6620	446	-16.5	-22.4	214	9
2023-09-18T12:00	6651	444	-16.6	-22.1	213	10
2023-09-18T12:00	6679	442	-16.7	-21.6	213	10
2023-09-18T12:00	6712	441	-17.0	-21.9	213	11
2023-09-18T12:00	6743	439	-17.0	-22.9	214	11
2023-09-18T12:00	6771	437	-17.1	-23.2	215	10
2023-09-18T12:00	6805	435	-17.3	-23.8	217	10
2023-09-18T12:00	6838	433	-17.5	-24.1	218	10
2023-09-18T12:00	6868	432	-17.7	-23.9	219	10
2023-09-18T12:00	6896	430	-18.0	-24.1	219	10
2023-09-18T12:00	6920	429	-18.2	-24.1	217	10
2023-09-18T12:00	6954	427	-18.3	-24.5	213	10
2023-09-18T12:00	6979	425	-18.5	-24.5	210	10
2023-09-18T12:00	7003	424	-18.7	-24.5	208	10
2023-09-18T12:00	7031	422	-18.9	-25.0	207	10
2023-09-18T12:00	7054	421	-19.0	-25.1	208	11
2023-09-18T12:00	7076	420	-19.2	-25.4	208	11
2023-09-18T12:00	7096	418	-19.2	-25.9	208	11
2023-09-18T12:00	7135	416	-19.4	-26.4	207	11
2023-09-18T12:00	7164	415	-19.6	-26.7	205	11
2023-09-18T12:00	7189	413	-19.9	-26.7	205	11
2023-09-18T12:00	7215	412	-20.1	-27.0	205	10
2023-09-18T12:00	7237	411	-20.3	-27.4	206	10
2023-09-18T12:00	7268	409	-20.6	-27.8	208	9
2023-09-18T12:00	7299	407	-20.9	-28.0	210	9
2023-09-18T12:00	7333	405	-21.2	-27.9	212	9
2023-09-18T12:00	7369	404	-21.5	-27.9	214	9
2023-09-18T12:00	7396	402	-21.8	-28.1	216	10
2023-09-18T12:00	7424	401	-22.0	-28.6	219	11
2023-09-18T12:00	7447	399	-22.2	-29.2	222	11
2023-09-18T12:00	7489	397	-22.5	-29.7	224	11
2023-09-18T12:00	7507	396	-22.7	-29.8	225	11
2023-09-18T12:00	7530	395	-22.6	-32.2	226	11
2023-09-18T12:00	7550	394	-22.5	-34.1	225	11
2023-09-18T12:00	7571	393	-22.5	-33.4	224	11
2023-09-18T12:00	7595	391	-22.6	-32.6	222	11
2023-09-18T12:00	7621	390	-22.8	-32.8	221	12
2023-09-18T12:00	7653	388	-23.0	-33.6	220	12
2023-09-18T12:00	7691	386	-23.1	-33.7	219	13
2023-09-18T12:00	7723	384	-23.3	-33.4	219	13
2023-09-18T12:00	7756	383	-23.5	-33.3	219	13
2023-09-18T12:00	7783	381	-23.7	-33.0	219	14
2023-09-18T12:00	7807	380	-23.9	-33.2	220	14
2023-09-18T12:00	7842	378	-24.1	-34.1	221	14
2023-09-18T12:00	7879	376	-24.4	-34.5	221	14
2023-09-18T12:00	7911	375	-24.7	-34.6	221	14
2023-09-18T12:00	7942	373	-24.9	-34.8	220	14
2023-09-18T12:00	7976	371	-25.1	-35.1	218	14
2023-09-18T12:00	8004	370	-25.4	-35.1	217	14
2023-09-18T12:00	8027	369	-25.6	-35.1	216	14
2023-09-18T12:00	8055	367	-25.8	-35.0	216	14
2023-09-18T12:00	8084	366	-26.2	-35.2	217	13
2023-09-18T12:00	8118	364	-26.5	-35.3	218	13
2023-09-18T12:00	8156	362	-26.8	-35.3	218	13
2023-09-18T12:00	8187	361	-27.1	-35.4	219	13
2023-09-18T12:00	8213	359	-27.4	-35.3	219	13
2023-09-18T12:00	8249	358	-27.7	-35.5	219	13
2023-09-18T12:00	8283	356	-28.1	-35.6	220	13
2023-09-18T12:00	8322	354	-28.4	-35.8	221	13
2023-09-18T12:00	8352	353	-28.6	-36.2	223	13
2023-09-18T12:00	8373	351	-28.8	-36.4	224	13
2023-09-18T12:00	8400	350	-29.0	-36.4	225	13
2023-09-18T12:00	8427	349	-29.3	-36.6	225	14
2023-09-18T12:00	8456	347	-29.5	-36.8	225	14
2023-09-18T12:00	8482	346	-29.7	-37.0	224	14
2023-09-18T12:00	8511	345	-30.0	-37.1	223	14
2023-09-18T12:00	8542	343	-30.3	-37.3	223	14
2023-09-18T12:00	8577	341	-30.6	-37.2	224	14
2023-09-18T12:00	8611	340	-30.9	-37.4	225	14
2023-09-18T12:00	8646	338	-31.2	-37.4	227	14
2023-09-18T12:00	8681	337	-31.4	-37.7	228	14
2023-09-18T12:00	8713	335	-31.7	-37.9	229	14
2023-09-18T12:00	8745	334	-31.9	-38.2	229	14
2023-09-18T12:00	8775	332	-32.2	-38.1	229	14
2023-09-18T12:00	8802	331	-32.4	-38.4	229	14
2023-09-18T12:00	8826	330	-32.6	-38.4	230	14
2023-09-18T12:00	8854	328	-32.9	-38.5	230	14
2023-09-18T12:00	8887	327	-33.2	-38.6	231	14
2023-09-18T12:00	8919	325	-33.5	-38.8	232	14
2023-09-18T12:00	8943	324	-33.7	-38.8	232	14
2023-09-18T12:00	8971	323	-34.0	-38.9	232	14
2023-09-18T12:00	9004	321	-34.3	-39.1	232	14
2023-09-18T12:00	9042	320	-34.7	-39.6	232	13
2023-09-18T12:00	9074	318	-34.9	-39.7	232	13
2023-09-18T12:00	9107	317	-35.2	-39.8	233	13
2023-09-18T12:00	9142	315	-35.5		233	13
2023-09-18T12:00	9169	314	-35.7	-40.3	234	13
2023-09-18T12:00	9200	312	-36.0	-40.7	234	13
2023-09-18T12:00	9238	311	-36.3	-41.5	234	13
2023-09-18T12:00	9281	309	-36.5	-41.7	234	13
2023-09-18T12:00	9306	308	-36.8	-41.7	235	14
2023-09-18T12:00	9330	307	-37.0	-41.8	237	14
2023-09-18T12:00	9365	305	-37.3	-42.3	239	14
2023-09-18T12:00	9394	304	-37.3	-43.0	241	14
2023-09-18T12:00	9420	303	-37.4	-43.0	243	15
2023-09-18T12:00	9450	301	-37.4	-41.1	244	15
2023-09-18T12:00	9482	300	-37.6	-38.1	244	15
2023-09-18T12:00	9507	299	-37.7	-39.2	244	16
2023-09-18T12:00	9531	298	-37.9	-41.6	243	16
2023-09-18T12:00	9558	297	-38.1	-43.7	242	16
2023-09-18T12:00	9592	295	-38.4	-44.4	241	16
2023-09-18T12:00	9627	294	-38.6	-44.4	241	17
2023-09-18T12:00	9659	292	-38.9	-44.7	241	17
2023-09-18T12:00	9693	291	-39.3	-46.1	241	17
2023-09-18T12:00	9725	290	-39.5	-45.9	240	16
2023-09-18T12:00	9767	288	-39.9	-45.9	240	16
2023-09-18T12:00	9800	286	-40.2	-46.0	239	16
2023-09-18T12:00	9831	285	-40.5	-46.1	238	16
2023-09-18T12:00	9866	284	-40.9	-45.9	238	16
2023-09-18T12:00	9899	282	-41.2	-45.7	237	17
2023-09-18T12:00	9936	281	-41.5	-45.4	238	17
2023-09-18T12:00	9961	280	-41.8	-45.6	238	17
2023-09-18T12:00	9991	279	-42.0	-45.4	240	17
2023-09-18T12:00	10025	277	-42.2	-45.1	241	17
2023-09-18T12:00	10059	276	-42.5	-45.6	243	16
2023-09-18T12:00	10086	275	-42.7	-46.0	244	16
2023-09-18T12:00	10116	273	-42.9	-46.3	246	15
2023-09-18T12:00	10147	272	-43.2	-46.5	246	15
2023-09-18T12:00	10184	271	-43.6	-46.9	245	15
2023-09-18T12:00	10215	269	-43.8	-47.0	244	15
2023-09-18T12:00	10249	268	-44.1	-47.4	242	16
2023-09-18T12:00	10285	267	-44.5	-47.9	241	16
2023-09-18T12:00	10317	265	-44.7	-48.4	240	17
2023-09-18T12:00	10348	264	-45.0	-48.6	240	17
2023-09-18T12:00	10379	263	-45.3	-48.9	240	17
2023-09-18T12:00	10416	261	-45.6	-49.1	240	17
2023-09-18T12:00	10449	260	-45.9	-49.2	239	16
2023-09-18T12:00	10490	259	-46.3	-49.7	239	16
2023-09-18T12:00	10523	257	-46.6	-49.9	238	16
2023-09-18T12:00	10545	256	-46.8	-49.9	238	15
2023-09-18T12:00	10586	255	-47.2	-50.0	240	15
2023-09-18T12:00	10617	254	-47.5		242	15
2023-09-18T12:00	10653	252	-47.8	-50.3	244	14
2023-09-18T12:00	10671	252	-48.0	-50.6	245	14
2023-09-18T12:00	10693	251	-48.1	-50.9	245	14
2023-09-18T12:00	10719	250	-48.4	-51.1	245	14
2023-09-18T12:00	10747	249	-48.7	-51.2	244	14
2023-09-18T12:00	10779	247	-48.9	-51.4	244	15
2023-09-18T12:00	10812	246	-49.2	-52.0	245	15
2023-09-18T12:00	10846	245	-49.5	-52.6	246	15
2023-09-18T12:00	10880	244	-49.9	-52.9	248	15
2023-09-18T12:00	10904	243	-50.1	-53.1	249	15
2023-09-18T12:00	10929	242	-50.3	-53.8	250	14
2023-09-18T12:00	10955	241	-50.6	-54.2	250	14
2023-09-18T12:00	10981	240	-50.8	-54.2	250	14
2023-09-18T12:00	11009	239	-51.1	-54.5	249	14
2023-09-18T12:00	11035	238	-51.3	-54.9	248	14
2023-09-18T12:00	11066	237	-51.6	-55.3	247	14
2023-09-18T12:00	11093	236	-51.8	-55.7	246	14
2023-09-18T12:00	11120	235	-52.0	-56.2	244	14
2023-09-18T12:00	11145	234	-52.3	-57.0	242	13
2023-09-18T12:00	11176	233	-52.5	-57.6	240	13
2023-09-18T12:00	11204	232	-52.8	-59.2	239	13
2023-09-18T12:00	11242	231	-53.0	-61.5	239	13
2023-09-18T12:00	11270	229	-53.3	-62.9	240	13
2023-09-18T12:00	11303	228	-53.5	-63.5	240	13
2023-09-18T12:00	11334	227	-53.8	-64.1	241	13
2023-09-18T12:00	11367	226	-54.1	-64.3	241	13
2023-09-18T12:00	11391	225	-54.3	-64.3	240	13
2023-09-18T12:00	11413	224	-54.5	-64.4	240	13
2023-09-18T12:00	11440	223	-54.8	-64.7	239	13
2023-09-18T12:00	11469	222	-55.0	-64.7	240	13
2023-09-18T12:00	11499	221	-55.3	-64.6	240	13
2023-09-18T12:00	11526	220	-55.6	-64.6	241	13
2023-09-18T12:00	11561	219	-55.9	-64.6	241	14
2023-09-18T12:00	11587	218	-56.2	-64.7	240	14
2023-09-18T12:00	11618	217	-56.5	-64.7	240	14
2023-09-18T12:00	11649	216	-56.8	-64.7	240	14
2023-09-18T12:00	11678	215	-57.1	-64.8	239	14
2023-09-18T12:00	11709	214	-57.4	-64.7	239	13
2023-09-18T12:00	11741	213	-57.7	-64.5	238	13
2023-09-18T12:00	11775	212	-58.1	-64.1	238	13
2023-09-18T12:00	11806	211	-58.4	-63.7	238	13
2023-09-18T12:00	11832	210	-58.6	-63.5	238	12
2023-09-18T12:00	11863	209	-58.8	-63.5	239	12
2023-09-18T12:00	11890	208	-59.1	-63.6	240	12
2023-09-18T12:00	11918	207	-59.4	-63.6	241	12
2023-09-18T12:00	11946	206	-59.6	-63.6	241	12
2023-09-18T12:00	11974	205	-59.9	-63.9	241	12
2023-09-18T12:00	12003	204	-60.1	-64.1	241	12
2023-09-18T12:00	12028	204	-60.4	-64.4	241	12
2023-09-18T12:00	12053	203	-60.6	-64.7	240	11
2023-09-18T12:00	12083	202	-60.9	-65.1	240	11
2023-09-18T12:00	12117	201	-61.1	-65.4	239	11
2023-09-18T12:00	12147	200	-61.4	-65.8	238	11
2023-09-18T12:00	12177	199	-61.6	-66.0	237	11
2023-09-18T12:00	12203	198	-61.9	-66.4	237	11
2023-09-18T12:00	12226	197	-62.1	-66.6	238	11
2023-09-18T12:00	12250	196	-62.3	-66.9	238	11
2023-09-18T12:00	12274	196	-62.5	-67.2	238	12
2023-09-18T12:00	12305	195	-62.7	-67.5	238	12
2023-09-18T12:00	12334	194	-62.8	-67.9	238	12
2023-09-18T12:00	12359	193	-62.8	-68.1	237	13
2023-09-18T12:00	12380	192	-62.2	-67.6	237	13
2023-09-18T12:00	12408	191	-61.8	-67.4	237	13
2023-09-18T12:00	12440	190	-61.9	-67.9	237	12
2023-09-18T12:00	12469	190	-61.5	-67.9	236	13
2023-09-18T12:00	12505	189	-60.7	-67.7	236	13
2023-09-18T12:00	12530	188	-60.6	-68.1	235	15
2023-09-18T12:00	12563	187	-60.3	-68.3	233	16
2023-09-18T12:00	12591	186	-60.4	-68.6	232	18
2023-09-18T12:00	12616	185	-60.7	-68.7	230	19
2023-09-18T12:00	12645	184	-60.9	-68.8	228	21
2023-09-18T12:00	12677	183	-61.1	-68.8	226	21
2023-09-18T12:00	12705	183	-61.4	-68.7	225	22
2023-09-18T12:00	12734	182	-61.6	-68.6	224	23
2023-09-18T12:00	12764	181	-61.8	-68.5	225	24
2023-09-18T12:00	12795	180	-62.0	-68.4	226	24
2023-09-18T12:00	12824	179	-62.2	-68.3	227	25
2023-09-18T12:00	12849	178	-62.4	-68.2	227	25
2023-09-18T12:00	12884	177	-62.6	-68.0	228	26
2023-09-18T12:00	12911	177	-62.7	-67.8	228	26
2023-09-18T12:00	12939	176	-63.0	-67.8	228	26
2023-09-18T12:00	12971	175	-63.2	-67.8	229	26
2023-09-18T12:00	13000	174	-63.4	-67.8	230	27
2023-09-18T12:00	13027	173	-63.7	-67.9	232	27
2023-09-18T12:00	13066	172	-64.0	-68.1	234	28
2023-09-18T12:00	13093	171	-64.2	-68.2	236	29
2023-09-18T12:00	13118	171	-64.4	-68.4	237	30
2023-09-18T12:00	13146	170	-64.5	-68.6	238	30
2023-09-18T12:00	13171	169	-64.4	-68.6	239	30
2023-09-18T12:00	13194	169	-64.4	-68.8	240	30
2023-09-18T12:00	13214	168	-64.3	-69.0	241	30
2023-09-18T12:00	13237	167	-64.3	-69.3	243	29
2023-09-18T12:00	13262	167	-64.4		244	29
2023-09-18T12:00	13289	166	-64.4	-70.2	246	29
2023-09-18T12:00	13318	165	-64.2	-70.7	247	30
2023-09-18T12:00	13349	164	-64.2	-71.7	248	31
2023-09-18T12:00	13385	163	-63.7	-72.5	250	31
2023-09-18T12:00	13416	163	-63.0		251	32
2023-09-18T12:00	13449	162	-62.5	-74.2	252	31
2023-09-18T12:00	13479	161	-61.9	-75.2	253	31
2023-09-18T12:00	13513	160	-61.5	-76.0	253	29
2023-09-18T12:00	13541	159	-61.2	-76.6	254	28
2023-09-18T12:00	13572	159	-61.2	-77.2	253	27
2023-09-18T12:00	13599	158	-61.3	-77.6	253	26
2023-09-18T12:00	13625	157	-61.3	-77.8	252	25
2023-09-18T12:00	13648	157	-61.3	-77.9	250	24
2023-09-18T12:00	13673	156	-61.5	-78.2	249	24
2023-09-18T12:00	13694	155	-61.6	-78.3	247	24
2023-09-18T12:00	13713	155	-61.7	-78.4	246	24
2023-09-18T12:00	13736	154	-61.7	-78.5	245	23
2023-09-18T12:00	13756	154	-61.7	-78.7	245	23
2023-09-18T12:00	13779	153	-61.4	-78.6	245	23
2023-09-18T12:00	13802	153	-61.4	-78.8	245	23
2023-09-18T12:00	13824	152	-61.1	-78.6	245	23
2023-09-18T12:00	13847	152	-60.9	-78.5	245	23
2023-09-18T12:00	13865	151	-60.9	-78.7	244	23
2023-09-18T12:00	13887	151	-60.9	-79.0	244	23
2023-09-18T12:00	13908	150	-60.6	-79.0	244	23
2023-09-18T12:00	13928	150	-60.6	-79.3	245	23
2023-09-18T12:00	13948	149	-60.6	-79.6	247	23
2023-09-18T12:00	13967	149	-60.1	-79.5	249	23
2023-09-18T12:00	13989	148	-59.9	-79.8	250	22
2023-09-18T12:00	14009	148	-59.4	-79.8	252	22
2023-09-18T12:00	14027	147	-59.2	-80.3	254	22
2023-09-18T12:00	14046	147	-58.7	-80.5	256	21
2023-09-18T12:00	14066	146	-58.3	-80.9	258	21
2023-09-18T12:00	14084	146	-58.0	-81.0	261	21
2023-09-18T12:00	14106	145	-57.7	-81.3	263	20
2023-09-18T12:00	14126	145	-57.3	-81.2	265	19
2023-09-18T12:00	14150	144	-57.0	-81.2	266	18
2023-09-18T12:00	14171	144	-56.4	-80.9	267	17
2023-09-18T12:00	14192	144	-56.3	-80.6	267	16
2023-09-18T12:00	14214	143	-56.2	-80.3	266	15
2023-09-18T12:00	14237	143	-56.1		264	14
2023-09-18T12:00	14257	142	-55.7	-79.3	261	13
2023-09-18T12:00	14280	142	-55.5	-79.2	258	12
2023-09-18T12:00	14303	141	-55.6	-79.4	255	12
2023-09-18T12:00	14327	141	-55.7	-80.1	252	11
2023-09-18T12:00	14349	140	-55.7	-80.6	250	11
2023-09-18T12:00	14370	140	-55.5	-80.9	247	11
2023-09-18T12:00	14392	139	-55.5	-81.2	245	11
2023-09-18T12:00	14412	139	-55.4	-81.1	243	12
2023-09-18T12:00	14438	138	-55.3	-81.0	241	12
2023-09-18T12:00	14455	138	-55.3	-81.0	240	12
2023-09-18T12:00	14480	137	-55.4	-81.1	239	13
2023-09-18T12:00	14500	137	-55.3	-81.0	239	13
2023-09-18T12:00	14523	136	-55.1	-80.6	240	13
2023-09-18T12:00	14546	136	-55.1	-80.6	240	13
2023-09-18T12:00	14572	135	-55.3	-80.8	241	14
2023-09-18T12:00	14592	135	-55.5	-80.9	241	14
2023-09-18T12:00	14615	134	-55.6	-81.0	241	14
2023-09-18T12:00	14636	134	-55.7	-81.1	242	15
2023-09-18T12:00	14660	133	-55.5	-81.2	243	15
2023-09-18T12:00	14683	133	-55.4	-81.1	244	15
2023-09-18T12:00	14707	132	-55.5	-81.4	245	15
2023-09-18T12:00	14728	132	-55.6	-81.5	245	15
2023-09-18T12:00	14753	131	-55.7	-81.3	246	15
2023-09-18T12:00	14777	131	-55.9	-81.5	246	15
2023-09-18T12:00	14799	130	-56.1	-81.4	246	15
2023-09-18T12:00	14824	130	-56.3	-81.5	247	14
2023-09-18T12:00	14848	130	-56.5	-81.7	248	14
2023-09-18T12:00	14871	129	-56.7	-81.6	249	14
2023-09-18T12:00	14895	129	-56.9	-81.8	249	14
2023-09-18T12:00	14916	128	-57.1	-81.7	250	14
2023-09-18T12:00	14939	128	-57.3	-81.8	249	14
2023-09-18T12:00	14961	127	-57.5	-82.0	249	14
2023-09-18T12:00	14986	127	-57.5	-82.2	247	14
2023-09-18T12:00	15007	126	-57.3	-82.1	246	15
2023-09-18T12:00	15030	126	-57.1	-82.2	245	15
2023-09-18T12:00	15051	125	-57.2	-82.2	244	15
2023-09-18T12:00	15073	125	-57.3	-82.1	243	15
2023-09-18T12:00	15097	124	-57.4	-82.2	243	16
2023-09-18T12:00	15117	124	-57.6	-82.3	243	16
2023-09-18T12:00	15141	124	-57.8	-82.5	243	16
2023-09-18T12:00	15161	123	-57.9	-82.3	244	17
2023-09-18T12:00	15184	123	-58.0	-82.4	245	18
2023-09-18T12:00	15204	122	-58.1	-82.5	246	18
2023-09-18T12:00	15226	122	-58.0	-82.6	246	18
2023-09-18T12:00	15248	122	-57.9	-82.6	247	19
2023-09-18T12:00	15267	121	-57.7	-82.4	248	19
2023-09-18T12:00	15288	121	-57.6	-82.6	248	19
2023-09-18T12:00	15311	120	-57.6	-82.6	248	18
2023-09-18T12:00	15333	120	-57.3	-82.6	249	18
2023-09-18T12:00	15350	120	-56.8	-82.5	250	18
2023-09-18T12:00	15371	119	-56.6	-82.6	251	17
2023-09-18T12:00	15393	119	-56.5	-82.5	252	17
2023-09-18T12:00	15415	118	-56.5	-82.5	253	16
2023-09-18T12:00	15439	118	-56.5	-82.5	254	15
2023-09-18T12:00	15463	117	-56.4	-82.4	254	15
2023-09-18T12:00	15484	117	-56.6	-82.6	255	14
2023-09-18T12:00	15506	117	-56.6	-82.3	255	14
2023-09-18T12:00	15528	116	-56.7	-82.4	256	13
2023-09-18T12:00	15551	116	-56.8	-82.5	256	13
2023-09-18T12:00	15572	115	-57.0	-82.6	256	13
2023-09-18T12:00	15595	115	-57.1	-82.7	256	12
2023-09-18T12:00	15616	115	-57.3	-82.6	256	11
2023-09-18T12:00	15640	114	-57.4	-82.7	255	11
2023-09-18T12:00	15666	114	-57.5	-82.7	253	10
2023-09-18T12:00	15690	113	-57.6	-82.8	250	10
2023-09-18T12:00	15712	113	-57.8	-83.0	248	10
2023-09-18T12:00	15732	113	-57.8	-82.7	245	10
2023-09-18T12:00	15755	112	-58.0	-82.9	244	11
2023-09-18T12:00	15775	112	-58.0	-82.9	242	11
2023-09-18T12:00	15800	111	-58.1	-83.0	242	12
2023-09-18T12:00	15823	111	-58.3	-83.1	241	12
2023-09-18T12:00	15848	111	-58.4	-83.2	241	12
2023-09-18T12:00	15870	110	-58.5	-83.0	240	12
2023-09-18T12:00	15893	110	-58.7	-83.2	240	13
2023-09-18T12:00	15915	109	-58.8	-83.3	240	13
2023-09-18T12:00	15936	109	-58.9	-83.1	240	13
2023-09-18T12:00	15959	109	-59.1	-83.3	239	14
2023-09-18T12:00	15984	108	-59.2	-83.3	239	14
2023-09-18T12:00	16007	108	-59.3	-83.7	239	14
2023-09-18T12:00	16028	107	-59.3	-83.7	239	15
2023-09-18T12:00	16052	107	-59.1	-83.7	240	14
2023-09-18T12:00	16074	107	-58.8	-83.8	240	14
2023-09-18T12:00	16097	106	-58.5	-83.8	242	13
2023-09-18T12:00	16124	106	-58.0	-83.7	243	12
2023-09-18T12:00	16143	105	-57.7	-83.7	243	11
2023-09-18T12:00	16164	105	-57.0	-83.5	244	11
2023-09-18T12:00	16190	105	-56.9	-83.4	244	10
2023-09-18T12:00	16212	104	-56.9	-83.4	244	9
2023-09-18T12:00	16234	104	-56.9	-83.4	243	9
2023-09-18T12:00	16257	104	-56.9	-83.4	242	9
2023-09-18T12:00	16282	103	-57.0	-83.5	240	8
2023-09-18T12:00	16303	103	-57.0	-83.5	238	8
2023-09-18T12:00	16323	102	-57.2	-83.6	236	8
2023-09-18T12:00	16348	102	-57.3	-83.7	232	7
2023-09-18T12:00	16370	102	-57.4	-83.8	227	7
2023-09-18T12:00	16395	101	-57.5	-83.9	223	7
2023-09-18T12:00	16418	101	-57.4	-83.8	220	7
2023-09-18T12:00	16443	101	-57.4	-83.8	218	7
2023-09-18T12:00	16465	100	-57.5	-83.9	217	8
2023-09-18T12:00	16488	100	-57.5	-83.9	218	8
2023-09-18T12:00	16513	99	-57.6	-83.9	219	8
2023-09-18T12:00	16536	99	-57.7	-84.0	221	8
2023-09-18T12:00	16558	99	-57.9	-83.9	223	9
2023-09-18T12:00	16580	98	-58.1	-84.0	225	9
2023-09-18T12:00	16602	98	-58.2	-84.1	227	9
2023-09-18T12:00	16623	98	-58.3	-84.2	228	10
2023-09-18T12:00	16644	97	-58.3	-84.2	229	10
2023-09-18T12:00	16669	97	-58.3	-84.5	231	10
2023-09-18T12:00	16692	97	-58.3	-84.5	232	11
2023-09-18T12:00	16714	96	-58.1	-84.3	233	11
2023-09-18T12:00	16737	96	-58.0	-84.6	235	11
2023-09-18T12:00	16759	96	-58.0	-84.6	237	11
2023-09-18T12:00	16779	95	-57.8	-84.4	239	11
2023-09-18T12:00	16802	95	-57.6	-84.6	241	11
2023-09-18T12:00	16821	95	-57.5	-84.5	242	11
2023-09-18T12:00	16845	94	-57.4	-84.4	243	11
2023-09-18T12:00	16868	94	-57.4	-84.4	244	11
2023-09-18T12:00	16890	94	-57.3	-84.7	246	11
2023-09-18T12:00	16913	93	-57.2	-84.6	247	10
2023-09-18T12:00	16935	93	-57.0	-84.8	249	10
2023-09-18T12:00	16961	93	-56.6	-84.5	251	9
2023-09-18T12:00	16989	92	-56.5	-84.5	251	8
2023-09-18T12:00	17013	92	-56.2	-84.2	249	8
2023-09-18T12:00	17036	92	-56.1	-84.6	246	7
2023-09-18T12:00	17060	91	-56.0	-84.5	242	7
2023-09-18T12:00	17086	91	-56.1	-84.2	238	7
2023-09-18T12:00	17107	91	-56.3	-84.3	235	8
2023-09-18T12:00	17131	90	-56.4	-84.4	233	9
2023-09-18T12:00	17151	90	-56.4	-84.4	231	9
2023-09-18T12:00	17174	90	-56.4	-84.4	231	10
2023-09-18T12:00	17197	89	-56.2	-84.2	231	11
2023-09-18T12:00	17223	89	-56.1	-84.2	231	11
2023-09-18T12:00	17243	89	-56.1	-84.6	233	12
2023-09-18T12:00	17269	88	-56.2	-84.6	235	12
2023-09-18T12:00	17292	88	-56.1	-84.6	238	12
2023-09-18T12:00	17323	88	-56.0	-84.5	242	12
2023-09-18T12:00	17347	87	-56.0	-84.5	245	12
2023-09-18T12:00	17374	87	-56.2	-84.2	248	13
2023-09-18T12:00	17399	86	-56.4	-84.4	249	13
2023-09-18T12:00	17424	86	-56.5	-84.5	250	13
2023-09-18T12:00	17448	86	-56.7	-84.6	250	13
2023-09-18T12:00	17473	85	-56.8	-84.7	249	13
2023-09-18T12:00	17496	85	-56.8	-84.7	247	14
2023-09-18T12:00	17522	85	-57.0	-84.8	245	14
2023-09-18T12:00	17543	85	-57.1	-84.9	243	15
2023-09-18T12:00	17564	84	-56.9	-84.8	242	15
2023-09-18T12:00	17587	84	-56.8	-84.7	241	16
2023-09-18T12:00	17610	84	-56.8	-84.7	240	16
2023-09-18T12:00	17631	83	-56.9	-84.8	240	16
2023-09-18T12:00	17652	83	-57.0	-84.8	240	17
2023-09-18T12:00	17678	83	-57.2	-85.0	240	17
2023-09-18T12:00	17698	82	-57.3	-85.1	240	17
2023-09-18T12:00	17723	82	-57.3	-85.1	241	16
2023-09-18T12:00	17746	82	-57.1	-84.9	241	16
2023-09-18T12:00	17767	82	-57.0	-84.8	241	16
2023-09-18T12:00	17789	81	-57.0	-84.8	242	16
2023-09-18T12:00	17811	81	-57.0	-84.8	242	16
2023-09-18T12:00	17837	81	-57.0	-84.8	243	16
2023-09-18T12:00	17857	80	-57.1	-84.9	243	17
2023-09-18T12:00	17879	80	-57.1	-84.9	244	17
2023-09-18T12:00	17901	80	-57.2	-85.0	244	18
2023-09-18T12:00	17924	80	-57.2	-85.4	245	18
2023-09-18T12:00	17947	79	-57.0	-85.2	246	18
2023-09-18T12:00	17967	79	-56.7	-85.0	248	18
2023-09-18T12:00	17996	79	-56.7	-85.0	250	18
2023-09-18T12:00	18019	78	-56.7	-85.0	253	17
2023-09-18T12:00	18042	78	-56.8	-85.1	255	17
2023-09-18T12:00	18067	78	-56.9	-85.2	258	17
2023-09-18T12:00	18094	78	-57.1	-85.3	261	17
2023-09-18T12:00	18116	77	-56.9	-85.2	264	16
2023-09-18T12:00	18141	77	-56.6	-85.4	266	16
2023-09-18T12:00	18163	77	-56.4	-85.2	268	15
2023-09-18T12:00	18185	76	-56.3	-85.1	270	15
2023-09-18T12:00	18213	76	-56.3	-85.1	272	14
2023-09-18T12:00	18235	76	-56.3	-85.1	273	13
2023-09-18T12:00	18262	75	-56.3	-85.1	274	13
2023-09-18T12:00	18285	75	-56.4	-85.2	274	12
2023-09-18T12:00	18313	75	-56.6	-84.9	274	11
2023-09-18T12:00	18338	75	-56.8	-85.1	274	10
2023-09-18T12:00	18367	74	-56.9	-85.2	274	10
2023-09-18T12:00	18387	74	-57.0	-85.2	276	9
2023-09-18T12:00	18413	74	-57.2	-85.4	279	9
2023-09-18T12:00	18438	73	-57.4	-85.6	283	9
2023-09-18T12:00	18463	73	-57.4	-85.6	288	9
2023-09-18T12:00	18491	73	-57.4	-85.6	293	8
2023-09-18T12:00	18515	73	-57.2	-85.4	296	8
2023-09-18T12:00	18537	72	-57.0	-85.2	297	8
2023-09-18T12:00	18562	72	-57.1	-85.3	297	8
2023-09-18T12:00	18585	72	-57.2	-85.4	294	8
2023-09-18T12:00	18610	71	-57.3	-85.5	290	7
2023-09-18T12:00	18633	71	-57.5	-85.6	284	7
2023-09-18T12:00	18655	71	-57.6	-85.7	279	7
2023-09-18T12:00	18679	71	-57.6	-85.7	274	7
2023-09-18T12:00	18704	70	-57.5	-85.6	271	7
2023-09-18T12:00	18732	70	-57.4	-86.0	269	7
2023-09-18T12:00	18753	70	-57.2	-85.8	269	7
2023-09-18T12:00	18778	70	-56.9	-85.6	269	7
2023-09-18T12:00	18802	69	-56.7	-85.4	270	6
2023-09-18T12:00	18823	69	-56.7	-85.4	272	6
2023-09-18T12:00	18847	69	-56.9	-85.6	272	6
2023-09-18T12:00	18873	69	-57.0	-85.7	272	6
2023-09-18T12:00	18895	68	-57.0	-85.7	272	6
2023-09-18T12:00	18915	68	-56.8	-85.5	271	7
2023-09-18T12:00	18941	68	-56.9	-85.6	271	8
2023-09-18T12:00	18963	68	-57.0	-85.7	270	8
2023-09-18T12:00	18990	67	-57.1	-85.7	269	9
2023-09-18T12:00	19012	67	-57.1	-85.7	268	10
2023-09-18T12:00	19036	67	-57.2	-85.8	267	10
2023-09-18T12:00	19058	67	-57.2	-85.8	266	10
2023-09-18T12:00	19084	66	-57.2	-85.8	266	10
2023-09-18T12:00	19110	66	-57.4	-86.0	267	10
2023-09-18T12:00	19134	66	-57.4	-86.0	267	9
2023-09-18T12:00	19159	65	-57.4	-86.0	266	9
2023-09-18T12:00	19183	65	-57.4	-86.0	266	8
2023-09-18T12:00	19205	65	-57.4	-86.0	264	7
2023-09-18T12:00	19232	65	-57.5	-86.1	264	7
2023-09-18T12:00	19256	64	-57.6	-86.1	264	7
2023-09-18T12:00	19277	64	-57.6	-86.1	266	7
2023-09-18T12:00	19302	64	-57.7	-86.2	267	7
2023-09-18T12:00	19320	64	-57.7	-86.2	269	8
2023-09-18T12:00	19346	64	-57.5	-86.1	269	8
2023-09-18T12:00	19367	63	-57.4	-86.4	270	8
2023-09-18T12:00	19391	63	-57.2	-86.3	271	9
2023-09-18T12:00	19417	63	-56.9	-86.1	272	8
2023-09-18T12:00	19436	63	-56.8	-86.0	275	8
2023-09-18T12:00	19459	62	-56.8	-86.0	278	8
2023-09-18T12:00	19483	62	-56.7	-85.9	282	7
2023-09-18T12:00	19508	62	-56.5	-85.8	287	6
2023-09-18T12:00	19534	62	-56.5	-85.8	293	5
2023-09-18T12:00	19558	61	-56.6	-85.8	299	5
2023-09-18T12:00	19580	61	-56.7	-85.9	304	4
2023-09-18T12:00	19605	61	-56.8	-86.0	307	4
2023-09-18T12:00	19627	61	-56.9	-85.6	307	4
2023-09-18T12:00	19655	61	-57.0	-85.7	302	4
2023-09-18T12:00	19676	60	-57.3	-85.9	293	4
2023-09-18T12:00	19705	60	-57.4	-86.0	281	4
2023-09-18T12:00	19728	60	-57.3	-85.9	269	4
2023-09-18T12:00	19752	60	-57.4	-86.0	260	4
2023-09-18T12:00	19777	59	-57.4	-86.0	255	5
2023-09-18T12:00	19802	59	-57.5	-86.1	253	5
2023-09-18T12:00	19825	59	-57.7	-86.2	255	5
2023-09-18T12:00	19856	59	-57.8	-86.3	258	6
2023-09-18T12:00	19879	58	-57.8	-85.9	261	6
2023-09-18T12:00	19906	58	-58.0	-86.0	264	7
2023-09-18T12:00	19927	58	-58.1		265	8
2023-09-18T12:00	19952	58	-58.3	-86.2	264	8
2023-09-18T12:00	19979	58	-58.3	-86.7	262	8
2023-09-18T12:00	20005	57	-58.1	-86.5	259	8
2023-09-18T12:00	20031	57	-57.9	-86.4	257	8
2023-09-18T12:00	20056	57	-57.8	-86.3	255	8
2023-09-18T12:00	20076	57	-57.6	-86.1	254	8
2023-09-18T12:00	20103	56	-57.6	-86.1	252	8
2023-09-18T12:00	20125	56	-57.7	-86.2	251	8
2023-09-18T12:00	20155	56	-57.8	-86.3	249	9
2023-09-18T12:00	20176	56	-57.9	-86.4	248	10
2023-09-18T12:00	20204	56	-57.9	-86.4	247	10
2023-09-18T12:00	20230	55	-57.9	-86.4	247	11
2023-09-18T12:00	20250	55	-58.0	-86.4	248	11
2023-09-18T12:00	20278	55	-57.9	-86.4	250	12
2023-09-18T12:00	20305	55	-57.7	-86.2	252	12
2023-09-18T12:00	20331	54	-57.6	-86.1	253	12
2023-09-18T12:00	20353	54	-57.7	-86.2	255	13
2023-09-18T12:00	20378	54	-57.8	-86.3	256	13
2023-09-18T12:00	20404	54	-57.8	-86.3	257	13
2023-09-18T12:00	20425	54	-57.9	-86.4	258	14
2023-09-18T12:00	20453	53	-57.9	-86.4	259	14
2023-09-18T12:00	20474	53	-58.0	-86.4	260	14
2023-09-18T12:00	20503	53	-58.1	-86.5	262	14
2023-09-18T12:00	20527	53	-58.1	-86.5	264	13
2023-09-18T12:00	20547	53	-57.9	-86.4	267	13
2023-09-18T12:00	20573	52	-57.8	-86.3	269	12
2023-09-18T12:00	20596	52	-57.8	-86.3	272	12
2023-09-18T12:00	20620	52	-57.8	-86.3	273	11
2023-09-18T12:00	20645	52	-57.8	-86.3	275	10
2023-09-18T12:00	20671	52	-57.9	-86.4	275	10
2023-09-18T12:00	20690	51	-58.1	-86.5	275	9
2023-09-18T12:00	20718	51	-58.2	-86.6	275	9
2023-09-18T12:00	20740	51	-58.1	-86.5	274	8
2023-09-18T12:00	20769	51	-57.9	-86.4	272	8
2023-09-18T12:00	20794	51	-57.7	-86.7	271	8
2023-09-18T12:00	20817	50	-57.5	-86.5	269	9
2023-09-18T12:00	20839	50	-57.4	-86.4	268	9
2023-09-18T12:00	20868	50	-57.5	-86.5	269	10
2023-09-18T12:00	20886	50	-57.5	-86.5	269	11
2023-09-18T12:00	20909	50	-57.3	-86.4	271	11
2023-09-18T12:00	20937	49	-57.3	-86.4	272	12
2023-09-18T12:00	20960	49	-57.3	-85.9	273	12
2023-09-18T12:00	20983	49	-57.5	-86.1	273	12
2023-09-18T12:00	21007	49	-57.6	-86.1	274	12
2023-09-18T12:00	21035	49	-57.5	-86.1	274	11
2023-09-18T12:00	21058	48	-57.4	-86.0	274	11
2023-09-18T12:00	21084	48	-57.5	-86.1	275	10
2023-09-18T12:00	21107	48	-57.6	-86.1	275	9
2023-09-18T12:00	21128	48	-57.7	-86.2	275	9
2023-09-18T12:00	21155	48	-57.8	-86.3	276	8
2023-09-18T12:00	21187	48	-57.9	-86.4	275	7
2023-09-18T12:00	21209	47	-58.0	-86.4	274	6
2023-09-18T12:00	21229	47	-57.9		272	6
2023-09-18T12:00	21257	47	-58.1		269	5
2023-09-18T12:00	21285	47	-58.2	-86.2	266	5
2023-09-18T12:00	21314	47	-58.4	-86.3	264	5
2023-09-18T12:00	21341	46	-58.6	-86.5	265	6
2023-09-18T12:00	21370	46	-58.6	-86.5	266	7
2023-09-18T12:00	21393	46	-58.3	-86.7	268	7
2023-09-18T12:00	21419	46	-58.1	-86.5	272	8
2023-09-18T12:00	21445	46	-58.1	-86.5	277	8
2023-09-18T12:00	21469	45	-57.9	-86.4	283	8
2023-09-18T12:00	21499	45	-57.8	-86.7	289	8
2023-09-18T12:00	21524	45	-57.7	-86.7	295	8
2023-09-18T12:00	21550	45	-57.6	-86.6	300	8
2023-09-18T12:00	21576	45	-57.4	-86.4	302	8
2023-09-18T12:00	21601	44	-57.2	-86.3	303	7
2023-09-18T12:00	21627	44	-57.1	-86.2	303	6
2023-09-18T12:00	21650	44	-57.2	-86.3	300	6
2023-09-18T12:00	21679	44	-57.3	-86.4	296	5
2023-09-18T12:00	21702	44	-57.5	-86.1	289	5
2023-09-18T12:00	21731	44	-57.6	-86.1	280	4
2023-09-18T12:00	21758	43	-57.7	-86.2	270	4
2023-09-18T12:00	21781	43	-57.9	-86.4	261	4
2023-09-18T12:00	21804	43	-58.1	-86.5	254	5
2023-09-18T12:00	21830	43	-58.2	-86.2	248	5
2023-09-18T12:00	21860	43	-58.3	-86.2	244	6
2023-09-18T12:00	21880	43	-58.4	-86.3	243	6
2023-09-18T12:00	21906	42	-58.4	-86.7	244	6
2023-09-18T12:00	21932	42	-58.4	-86.7	247	6
2023-09-18T12:00	21959	42	-58.0	-86.9	253	6
2023-09-18T12:00	21983	42	-57.6	-86.6	259	6
2023-09-18T12:00	22009	42	-57.6	-86.6	265	6
2023-09-18T12:00	22033	42	-57.5	-86.5	271	7
2023-09-18T12:00	22062	41	-57.4	-86.4	275	7
2023-09-18T12:00	22081	41	-57.3	-86.4	279	7
2023-09-18T12:00	22116	41	-57.2	-86.3	282	7
2023-09-18T12:00	22142	41	-57.2	-86.3	286	7
2023-09-18T12:00	22158	41	-57.2	-86.3	289	7
2023-09-18T12:00	22190	41	-57.2	-86.3	292	7
2023-09-18T12:00	22215	40	-57.3	-86.4	293	6
2023-09-18T12:00	22243	40	-57.3	-86.4	292	6
2023-09-18T12:00	22266	40	-57.4	-86.4	288	6
2023-09-18T12:00	22297	40	-57.4	-86.0	284	6
2023-09-18T12:00	22316	40	-57.5	-86.1	280	6
2023-09-18T12:00	22344	40	-57.6	-86.1	276	6
2023-09-18T12:00	22370	39	-57.9	-86.4	273	7
2023-09-18T12:00	22395	39	-58.1	-86.5	270	7
2023-09-18T12:00	22421	39	-58.1	-86.5	267	7
2023-09-18T12:00	22446	39	-58.1	-86.5	264	7
2023-09-18T12:00	22473	39	-58.1	-86.5	261	8
2023-09-18T12:00	22497	39	-58.1	-86.5	260	8
2023-09-18T12:00	22525	38	-58.2	-86.6	259	8
2023-09-18T12:00	22554	38	-58.1	-86.5	260	9
2023-09-18T12:00	22576	38	-58.1	-86.5	262	9
2023-09-18T12:00	22601	38	-58.1	-86.5	265	9
2023-09-18T12:00	22625	38	-58.1	-86.5	269	9
2023-09-18T12:00	22653	38	-58.0	-86.4	273	9
2023-09-18T12:00	22674	38	-58.0	-86.4	278	9
2023-09-18T12:00	22705	37	-57.9	-86.4	282	8
2023-09-18T12:00	22737	37	-58.0	-86.4	284	8
2023-09-18T12:00	22760	37	-58.1	-86.5	283	7
2023-09-18T12:00	22791	37	-58.1	-87.0	282	7
2023-09-18T12:00	22819	37	-57.8	-86.7	280	7
2023-09-18T12:00	22844	37	-57.4	-86.4	280	6
2023-09-18T12:00	22871	36	-57.3	-86.4	283	6
2023-09-18T12:00	22898	36	-57.2	-86.8	289	6
2023-09-18T12:00	22922	36	-56.9	-86.6	295	6
2023-09-18T12:00	22951	36	-56.6	-86.3	299	6
2023-09-18T12:00	22976	36	-56.2	-86.0	301	7
2023-09-18T12:00	23004	36	-56.0	-85.9	300	7
2023-09-18T12:00	23026	35	-56.1	-86.0	298	7
2023-09-18T12:00	23059	35	-56.2	-85.5	295	7
2023-09-18T12:00	23085	35	-56.4	-85.7	294	7
2023-09-18T12:00	23111	35	-56.5	-85.8	292	7
2023-09-18T12:00	23141	35	-56.7	-85.9	292	7
2023-09-18T12:00	23165	35	-56.8	-86.0	293	7
2023-09-18T12:00	23195	35	-56.9	-86.1	294	7
2023-09-18T12:00	23226	34	-56.9	-86.1	297	8
2023-09-18T12:00	23256	34	-56.8	-86.0	301	8
2023-09-18T12:00	23283	34	-56.7	-85.9	305	9
2023-09-18T12:00	23302	34	-56.5	-86.3	310	9
2023-09-18T12:00	23331	34	-56.4	-86.2	316	9
2023-09-18T12:00	23369	34	-56.4	-86.2	321	10
2023-09-18T12:00	23392	34	-56.3	-86.1	326	10
2023-09-18T12:00	23417	33	-56.3	-86.1	331	10
2023-09-18T12:00	23447	33	-56.3	-86.1	335	9
2023-09-18T12:00	23471	33	-56.3	-86.1	339	9
2023-09-18T12:00	23500	33	-56.4	-86.2	343	8
2023-09-18T12:00	23528	33	-56.5	-86.3	348	7
2023-09-18T12:00	23557	33	-56.4	-86.2	353	6
2023-09-18T12:00	23586	32	-56.1	-86.0	358	5
2023-09-18T12:00	23614	32	-55.9	-86.3	4	4
2023-09-18T12:00	23640	32	-55.8	-86.3	10	3
2023-09-18T12:00	23670	32	-55.8	-85.7	15	2
2023-09-18T12:00	23695	32	-55.8	-85.7	19	2
2023-09-18T12:00	23718	32	-55.8	-85.7	17	1
2023-09-18T12:00	23745	32	-55.9	-85.8	5	1
2023-09-18T12:00	23777	32	-56.1	-86.0	328	1
2023-09-18T12:00	23802	31	-56.2	-85.5	280	1
2023-09-18T12:00	23831	31	-56.4	-85.7	260	1
2023-09-18T12:00	23857	31	-56.5	-85.8	255	2
2023-09-18T12:00	23887	31	-56.5	-85.8	254	3
2023-09-18T12:00	23912	31	-56.5	-85.8	256	3
2023-09-18T12:00	23936	31	-56.6	-85.8	257	4
2023-09-18T12:00	23963	31	-56.6	-86.3	258	4
2023-09-18T12:00	23987	30	-56.6	-86.3	259	4
2023-09-18T12:00	24020	30	-56.7	-86.4	261	5
2023-09-18T12:00	24047	30	-56.7	-86.4	265	5
2023-09-18T12:00	24077	30	-56.7	-86.4	269	5
2023-09-18T12:00	24100	30	-56.6	-86.3	274	6
2023-09-18T12:00	24129	30	-56.5	-86.3	278	6
2023-09-18T12:00	24155	30	-56.4	-86.2	280	7
2023-09-18T12:00	24185	30	-56.3	-86.1	281	7
2023-09-18T12:00	24213	29	-56.1	-86.0	281	7
2023-09-18T12:00	24239	29	-55.9	-86.3	281	7
2023-09-18T12:00	24265	29	-55.8	-86.3	281	6
2023-09-18T12:00	24295	29	-55.7	-86.2	282	6
2023-09-18T12:00	24316	29	-55.5	-86.1	284	6
2023-09-18T12:00	24341	29	-55.4	-86.0	287	6
2023-09-18T12:00	24377	29	-55.2	-86.4	290	7
2023-09-18T12:00	24400	29	-55.0	-86.3	292	7
2023-09-18T12:00	24432	28	-55.0	-85.7	293	7
2023-09-18T12:00	24457	28	-55.0	-85.7	294	6
2023-09-18T12:00	24490	28	-54.7	-85.5	296	6
2023-09-18T12:00	24507	28	-54.5	-85.3	297	5
2023-09-18T12:00	24540	28	-54.5	-85.3	298	4
2023-09-18T12:00	24568	28	-54.5	-85.3	298	4
2023-09-18T12:00	24599	28	-54.4	-85.8	296	4
2023-09-18T12:00	24625	28	-54.3	-85.8	293	4
2023-09-18T12:00	24653	27	-54.2	-85.7	290	5
2023-09-18T12:00	24685	27	-54.2	-85.7	287	5
2023-09-18T12:00	24709	27	-54.1	-85.6	285	5
2023-09-18T12:00	24734	27	-54.1	-85.6	281	5
2023-09-18T12:00	24766	27	-54.1	-85.6	276	5
2023-09-18T12:00	24796	27	-54.1	-85.6	270	4
2023-09-18T12:00	24829	27	-54.1	-85.0	264	4
2023-09-18T12:00	24857	27	-54.2	-85.1	258	4
2023-09-18T12:00	24882	27	-54.2	-85.1	255	3
2023-09-18T12:00	24917	26	-54.3	-85.2	254	3
2023-09-18T12:00	24936	26	-54.3	-85.2	257	3
2023-09-18T12:00	24975	26	-54.2	-85.1	263	3
2023-09-18T12:00	25006	26	-54.2	-85.1	271	4
2023-09-18T12:00	25033	26	-54.3	-85.2	279	4
2023-09-18T12:00	25054	26	-54.4	-85.2	286	4
2023-09-18T12:00	25090	26	-54.5	-85.9	292	5
2023-09-18T12:00	25123	26	-54.5	-85.9	296	5
2023-09-18T12:00	25143	25	-54.3	-85.8	297	5
2023-09-18T12:00	25177	25	-54.0	-85.5	296	5
2023-09-18T12:00	25213	25	-53.9	-85.5	293	4
2023-09-18T12:00	25231	25	-53.9	-85.5	289	4
2023-09-18T12:00	25266	25	-54.0	-85.5	285	3
2023-09-18T12:00	25287	25	-54.0	-85.5	280	3
2023-09-18T12:00	25320	25	-54.0	-85.5	274	3
2023-09-18T12:00	25349	25	-54.3	-85.8	269	3
2023-09-18T12:00	25375	25	-54.4	-85.8	263	4
2023-09-18T12:00	25399	24	-54.6	-86.0	259	4
2023-09-18T12:00	25431	24	-54.6	-86.0	256	5
2023-09-18T12:00	25454	24	-54.5	-85.9	253	5
2023-09-18T12:00	25484	24	-54.4	-85.8	251	6
2023-09-18T12:00	25514	24	-54.3	-85.8	250	7
2023-09-18T12:00	25542	24	-54.3	-85.8	250	7
2023-09-18T12:00	25581	24	-54.4	-85.8	250	8
2023-09-18T12:00	25598	24	-54.6	-85.4	251	8
2023-09-18T12:00	25627	24	-54.8	-85.5	254	8
2023-09-18T12:00	25664	24	-55.0	-85.7	257	8
2023-09-18T12:00	25687	23	-55.0	-85.7	262	8
2023-09-18T12:00	25719	23	-55.2	-85.8	267	8
2023-09-18T12:00	25745	23	-55.3	-85.9	272	7
2023-09-18T12:00	25769	23	-55.3	-85.9	277	7
2023-09-18T12:00	25793	23	-55.2	-85.8	280	7
2023-09-18T12:00	25829	23	-55.1	-86.4	283	6
2023-09-18T12:00	25846	23	-55.0	-86.3	283	6
2023-09-18T12:00	25876	23	-55.0	-86.3	283	6
2023-09-18T12:00	25911	23	-55.0	-86.3	282	6
2023-09-18T12:00	25931	23	-54.9	-86.2	283	7
2023-09-18T12:00	25966	22	-54.8	-86.1	284	7
2023-09-18T12:00	25991	22	-54.8	-86.1	287	7
2023-09-18T12:00	26028	22	-54.7	-86.1	291	7
2023-09-18T12:00	26057	22	-54.5	-85.9	294	7
2023-09-18T12:00	26090	22	-54.3	-85.8	298	7
2023-09-18T12:00	26109	22	-54.2	-85.7	301	7
2023-09-18T12:00	26140	22	-54.0	-85.5	305	7
2023-09-18T12:00	26165	22	-53.9	-85.5	308	7
2023-09-18T12:00	26191	22	-53.8	-85.4	311	6
2023-09-18T12:00	26222	22	-53.8	-85.4	313	6
2023-09-18T12:00	26249	21	-53.7	-86.0	315	5
2023-09-18T12:00	26279	21	-53.5	-85.9	315	5
2023-09-18T12:00	26311	21	-53.4	-85.8	315	4
2023-09-18T12:00	26338	21	-53.5	-85.9	314	3
2023-09-18T12:00	26362	21	-53.4	-85.8	310	3
2023-09-18T12:00	26394	21	-53.3	-85.7	304	3
2023-09-18T12:00	26424	21	-53.3	-85.7	298	3
2023-09-18T12:00	26452	21	-53.3	-85.7	296	4
2023-09-18T12:00	26486	21	-53.3	-85.7	297	4
2023-09-18T12:00	26517	21	-53.2	-85.6	300	5
2023-09-18T12:00	26546	20	-52.9	-85.4	303	6
2023-09-18T12:00	26575	20	-52.8	-85.3	307	7
2023-09-18T12:00	26596	20	-52.8	-85.3	310	8
2023-09-18T12:00	26630	20	-52.6		313	9
2023-09-18T12:00	26658	20	-52.4	-85.8	316	9
2023-09-18T12:00	26693	20	-52.4	-85.8	318	10
2023-09-18T12:00	26721	20	-52.4	-85.1	321	10
2023-09-18T12:00	26747	20	-52.4	-85.1	323	10
2023-09-18T12:00	26783	20	-52.4	-85.1	325	10
2023-09-18T12:00	26806	20	-52.4	-85.1	326	10
2023-09-18T12:00	26843	20	-52.6	-85.2	328	10
2023-09-18T12:00	26869	19	-52.7	-85.3	329	11
2023-09-18T12:00	26897	19	-52.7	-85.3	330	10
2023-09-18T12:00	26932	19	-52.7	-85.3	332	10
2023-09-18T12:00	26954	19	-52.6	-85.2	335	10
2023-09-18T12:00	26983	19	-52.5	-85.1	338	9
2023-09-18T12:00	27019	19	-52.4	-85.1	341	9
2023-09-18T12:00	27042	19	-52.5	-85.1	343	9
2023-09-18T12:00	27073	19	-52.6	-85.2	347	9
2023-09-18T12:00	27093	19	-52.6	-85.2	350	9
2023-09-18T12:00	27130	19	-52.6	-85.2	353	8
2023-09-18T12:00	27159	19	-52.7	-85.3	357	8
2023-09-18T12:00	27175	19	-52.7	-85.3	0	8
2023-09-18T12:00	27210	18	-52.7	-85.3	3	7
2023-09-18T12:00	27240	18	-52.7	-85.3	4	7
2023-09-18T12:00	27274	18	-52.6	-85.2	4	7
2023-09-18T12:00	27290	18	-52.5	-85.1	2	7
2023-09-18T12:00	27325	18	-52.4	-85.1	360	7
2023-09-18T12:00	27353	18	-52.5	-85.1	356	6
2023-09-18T12:00	27376	18	-52.4	-85.1	350	6
2023-09-18T12:00	27408	18	-52.3	-85.8	343	6
2023-09-18T12:00	27430	18	-52.2	-85.7	336	6
2023-09-18T12:00	27468	18	-51.9	-85.5	331	7
2023-09-18T12:00	27490	18	-51.4	-85.1	328	7
2023-09-18T12:00	27517	18	-51.1	-85.8	328	8
2023-09-18T12:00	27543	18	-50.9	-85.6	329	8
2023-09-18T12:00	27553	17	-50.8	-85.6	332	8
2023-09-18T12:00	27593	17	-50.5	-85.3	335	7
2023-09-18T12:00	27615	17	-50.3	-85.2	339	6
2023-09-18T12:00	27653	17	-50.1	-85.1	341	5
2023-09-18T12:00	27679	17	-49.9	-84.9	340	4
2023-09-18T12:00	27710	17	-49.8	-84.8	334	3
2023-09-18T12:00	27743	17	-49.7	-83.9	319	2
2023-09-18T12:00	27766	17	-49.7	-83.9	292	2
2023-09-18T12:00	27790	17	-49.7	-83.9	267	2
2023-09-18T12:00	27826	17	-49.8	-84.0	257	2
2023-09-18T12:00	27850	17	-49.9	-84.0	257	3
2023-09-18T12:00	27886	17	-49.9	-84.0	262	3
2023-09-18T12:00	27915	17	-49.9	-84.0	268	4
2023-09-18T12:00	27933	17	-49.8	-84.0	273	5
2023-09-18T12:00	27962	16	-49.7	-83.9	275	5
2023-09-18T12:00	27996	16	-49.7	-83.9	274	5
2023-09-18T12:00	28026	16	-49.7	-84.8	270	6
2023-09-18T12:00	28060	16	-49.7	-84.8	264	6
2023-09-18T12:00	28090	16	-49.7	-84.8	260	7
2023-09-18T12:00	28125	16	-49.8	-84.8	257	7
2023-09-18T12:00	28152	16	-49.9	-84.0	256	8
2023-09-18T12:00	28175	16	-49.9	-84.0	258	8
2023-09-18T12:00	28211	16	-49.6	-83.8	261	8
2023-09-18T12:00	28251	16	-49.4	-84.6	267	8
2023-09-18T12:00	28285	16	-49.4	-84.6	273	8
2023-09-18T12:00	28317	16	-49.3	-84.5	280	8
2023-09-18T12:00	28325	16	-49.2	-84.4	288	8
2023-09-18T12:00	28369	15	-49.1	-84.3	296	8
2023-09-18T12:00	28400	15	-49.1	-84.3	303	8
2023-09-18T12:00	28440	15	-49.1	-84.3	309	8
2023-09-18T12:00	28469	15	-49.2	-84.4	315	8
2023-09-18T12:00	28502	15	-49.3	-84.5	319	8
2023-09-18T12:00	28526	15	-49.1	-84.3	323	7
2023-09-18T12:00	28550	15	-48.9	-84.2	327	7
2023-09-18T12:00	28598	15	-48.8	-84.1	330	6
2023-09-18T12:00	28608	15	-48.8	-84.1	334	6
2023-09-18T12:00	28646	15	-48.8	-84.1	338	5
2023-09-18T12:00	28683	15	-48.6		343	5
2023-09-18T12:00	28713	15	-48.6		347	5
2023-09-18T12:00	28754	15	-48.6		350	5
2023-09-18T12:00	28788	15	-48.7	-84.1	352	5
2023-09-18T12:00	28806	14	-48.7	-84.1	352	5
2023-09-18T12:00	28838	14	-48.8	-84.1	352	5
2023-09-18T12:00	28873	14	-48.7	-84.1	352	5
2023-09-18T12:00	28907	14	-48.8	-84.1	352	4
2023-09-18T12:00	28926	14	-48.8	-84.1	350	4
2023-09-18T12:00	28967	14	-49.0	-84.3	346	3
2023-09-18T12:00	28999	14	-49.3	-84.5	335	3
2023-09-18T12:00	29022	14	-49.4	-84.6	315	2
2023-09-18T12:00	29061	14	-49.4	-84.6	292	3
2023-09-18T12:00	29076	14	-49.3	-84.5	276	3
2023-09-18T12:00	29109	14	-49.4	-84.6	268	4
2023-09-18T12:00	29152	14	-49.4	-84.6	265	5
2023-09-18T12:00	29186	14	-49.3	-84.5	264	6
2023-09-18T12:00	29207	14	-49.3	-84.5	265	6
2023-09-18T12:00	29229	14	-49.4	-84.6	267	7
2023-09-18T12:00	29263	13	-49.5	-84.6	268	7
2023-09-18T12:00	29306	13	-49.5	-84.6	268	7
2023-09-18T12:00	29317	13	-49.5	-84.6	268	7
2023-09-18T12:00	29356	13	-49.6	-84.7	266	8
2023-09-18T12:00	29399	13	-49.7	-84.8	265	8
2023-09-18T12:00	29410	13	-49.6	-84.7	263	8
2023-09-18T12:00	29444	13	-49.4	-84.6	262	8
2023-09-18T12:00	29473	13	-49.4	-84.6	261	8
2023-09-18T12:00	29487	13	-49.4	-84.6	261	8
2023-09-18T12:00	29531	13	-49.4	-84.6	261	7
2023-09-18T12:00	29570	13	-49.3	-84.5	260	7
2023-09-18T12:00	29599	13	-49.3	-83.6	259	7
2023-09-18T12:00	29611	13	-49.3	-83.6	258	7
2023-09-18T12:00	29652	13	-49.3	-84.5	255	7
2023-09-18T12:00	29690	13	-49.3	-84.5	253	7
2023-09-18T12:00	29697	13	-49.1	-84.3	250	8
2023-09-18T12:00	29742	13	-48.9	-84.2	247	8
2023-09-18T12:00	29762	13	-48.8	-84.1	245	8
2023-09-18T12:00	29812	12	-48.6		243	9
2023-09-18T12:00	29818	12	-48.4	-84.9	243	10
2023-09-18T12:00	29851	12	-48.2	-83.7	243	10
2023-09-18T12:00	29906	12	-48.1	-83.6	245	11
2023-09-18T12:00	29932	12	-48.1	-83.6	247	11
2023-09-18T12:00	29945	12	-48.0	-83.6	249	11
2023-09-18T12:00	29980	12	-48.0	-83.6	251	12
2023-09-18T12:00	30010	12	-48.0	-83.6	253	12
2023-09-18T12:00	30047	12	-48.0	-83.6	253	12
2023-09-18T12:00	30069	12	-47.9	-83.5	253	13
2023-09-18T12:00	30102	12	-47.7	-83.4	253	13
2023-09-18T12:00	30131	12	-47.6	-83.3	253	12
2023-09-18T12:00	30151	12	-47.6	-83.3	254	12
2023-09-18T12:00	30190	12	-47.5	-83.2	255	12
2023-09-18T12:00	30221	12	-47.5	-83.2	256	12
2023-09-18T12:00	30275	12	-47.5	-84.3	258	12
2023-09-18T12:00	30292	12	-47.5	-84.3	261	11
2023-09-18T12:00	30301	12	-47.3	-84.1	263	11
2023-09-18T12:00	30339	11	-47.1	-84.0	265	10
2023-09-18T12:00	30371	11	-46.8	-83.8	267	10
2023-09-18T12:00	30401	11	-46.5	-83.6	267	9
2023-09-18T12:00	30443	11	-46.3	-83.4	266	9
2023-09-18T12:00	30469	11	-46.1	-83.3	264	9
2023-09-18T12:00	30499	11	-45.9	-83.2	261	9
2023-09-18T12:00	30533	11	-45.6	-82.9	258	9
2023-09-18T12:00	30552	11	-45.4	-82.8	255	10
2023-09-18T12:00	30564	11	-45.3	-82.7	254	10
2023-09-18T12:00	30621	11	-45.2	-82.7	253	11
2023-09-18T12:00	30643	11	-45.1	-82.6	254	11
2023-09-18T12:00	30675	11	-45.1	-82.6	255	12
2023-09-18T12:00	30701	11	-45.1	-82.6	257	12
2023-09-18T12:00	30728	11	-45.2	-82.7	259	12
2023-09-18T12:00	30754	11	-45.2	-82.7	260	12
2023-09-18T12:00	30787	11	-45.2	-82.7	261	12
2023-09-18T12:00	30821	11	-45.2	-82.7	262	12
2023-09-18T12:00	30847	11	-45.3	-82.7	263	11
2023-09-18T12:00	30882	11	-45.3	-82.7	264	10
2023-09-18T12:00	30914	11	-45.3	-82.7	266	10
2023-09-18T12:00	30962	10	-45.3	-82.7	269	9
2023-09-18T12:00	30976	10	-45.3	-82.7	272	9
2023-09-18T12:00	30990	10	-45.3	-82.7	275	9
2023-09-18T12:00	31048	10	-45.4	-82.8	277	9
2023-09-18T12:00	31083	10	-45.5	-82.9	279	9
2023-09-18T12:00	31109	10	-45.5	-82.9	279	9
2023-09-18T12:00	31124	10	-45.6	-82.9	277	8
2023-09-18T12:00	31157	10	-45.6	-82.9	274	8
2023-09-18T12:00	31194	10	-45.6	-82.9	270	8
2023-09-18T12:00	31217	10	-45.6	-82.9	264	7
2023-09-18T12:00	31256	10	-45.7	-83.0	259	7
2023-09-18T12:00	31296	10	-45.9	-83.2	254	7
2023-09-18T12:00	31306	10	-46.0	-83.2	250	8
2023-09-18T12:00	31362	10	-46.0	-83.2	248	8
2023-09-18T12:00	31374	10	-46.1	-83.3	248	9
2023-09-18T12:00	31415	10	-46.2	-83.4	249	9
2023-09-18T12:00	31437	10	-46.1	-83.3	251	10
2023-09-18T12:00	31462	10	-46.1	-83.3	253	11
2023-09-18T12:00	31491	10	-46.0	-83.2	255	11
2023-09-18T12:00	31537	10	-46.0	-83.2	257	11
2023-09-18T12:00	31548	10	-46.0	-83.2	260	11
2023-09-18T12:00	31580	10	-45.9	-83.2	264	11
2023-09-18T12:00	31617	9	-45.9	-83.2	269	11
2023-09-18T12:00	31642	9	-45.8	-83.1	275	10
2023-09-18T12:00	31669	9	-45.7	-83.0	280	10
2023-09-18T12:00	31701	9	-45.7	-83.0	285	9
2023-09-18T12:00	31739	9	-45.6	-82.9	290	8
2023-09-18T12:00	31752	9	-45.5	-82.9	293	8
2023-09-18T12:00	31790	9	-45.5	-82.9	297	7
2023-09-18T12:00	31832	9	-45.5	-82.9	300	7
2023-09-18T12:00	31852	9	-45.5	-82.9	302	6
2023-09-18T12:00	31890	9	-45.5	-82.9	302	6
2023-09-18T12:00	31898	9	-45.5	-82.9	299	6
2023-09-18T12:00	31942	9	-45.4	-82.8	294	6
2023-09-18T12:00	31965	9	-45.3	-82.7	288	7
2023-09-18T12:00	31998	9	-45.1	-82.6	281	7
2023-09-18T12:00	32037	9	-45.1	-82.6	274	7
2023-09-18T12:00	32051	9	-45.3	-82.7	268	8
2023-09-18T12:00	32106	9	-45.4	-82.8	264	9
2023-09-18T12:00	32134	9	-45.6	-82.9	262	10
2023-09-18T12:00	32137	9	-45.7	-83.0	261	10
2023-09-18T12:00	32182	9	-45.7	-83.0	261	11
2023-09-18T12:00	32232	9	-45.5	-82.9	262	12
2023-09-18T12:00	32243	9	-45.2	-82.7	264	12
2023-09-18T12:00	32267	9	-44.8	-82.4	267	12
2023-09-18T12:00	32301	9	-44.5	-82.2	269	12
2023-09-18T12:00	32322	9	-44.2	-82.0	271	12
2023-09-18T12:00	32371	8	-43.8	-81.7	272	12
2023-09-18T12:00	32391	8	-43.5	-81.5	272	12
2023-09-18T12:00	32425	8	-43.3	-81.3	272	13
2023-09-18T12:00	32461	8	-43.0	-81.1	272	14
2023-09-18T12:00	32496	8	-42.9	-81.1	271	15
2023-09-18T12:00	32515	8	-42.8	-81.0	272	15
2023-09-18T12:00	32545	8	-42.6	-80.8	272	15
2023-09-18T12:00	32569	8	-42.6	-80.8	273	15
2023-09-18T12:00	32593	8	-42.5	-80.8	274	15
2023-09-18T12:00	32611	8	-42.3	-80.6	275	15
2023-09-18T12:00	32645	8	-42.0	-80.4	276	15
2023-09-18T12:00	32688	8	-41.8	-80.3	278	15
2023-09-18T12:00	32698	8	-41.7	-80.2	280	15
2023-09-18T12:00	32743	8	-41.6	-80.1	282	14
2023-09-18T12:00	32791	8	-41.6	-80.1	283	14
2023-09-18T12:00	32799	8	-41.7	-80.2	284	14
2023-09-18T12:00	32825	8	-41.8	-80.3	285	14
2023-09-18T12:00	32871	8	-41.9	-80.4	284	13
2023-09-18T12:00	32908	8	-42.0	-80.4	284	13
2023-09-18T12:00	32935	8	-42.1	-80.5	283	13
2023-09-18T12:00	32985	8	-42.2	-80.6	282	13
2023-09-18T12:00	32996	8	-42.3	-80.6	281	13
2023-09-18T12:00	33041	8	-42.4	-80.7	280	13
2023-09-18T12:00	33084	8	-42.4	-80.7	280	13
2023-09-18T12:00	33095	8	-42.5	-80.8	280	14
2023-09-18T12:00	33164	8	-42.6	-80.8	280	14
2023-09-18T12:00	33172	8	-42.6	-80.8	280	14
2023-09-18T12:00	33209	7	-42.4	-80.7	280	15
2023-09-18T12:00	33242	7	-42.0	-80.4	280	14
2023-09-18T12:00	33255	7	-41.7	-80.2	281	14
2023-09-18T12:00	33299	7	-41.4	-80.0	280	13
2023-09-18T12:00	33329	7	-41.2	-79.9	280	13
2023-09-18T12:00	33338	7	-41.0	-79.7	279	12
2023-09-18T18:00	-999					
2023-09-18T18:00	128	993	23.3	15.4	227	5
2023-09-18T18:00	155	990	23.2	15.0	225	7
2023-09-18T18:00	180	987	23.0	14.9	224	9
2023-09-18T18:00	203	985	22.9	14.9	225	10
2023-09-18T18:00	225	982	22.9	14.8	227	10
2023-09-18T18:00	249	980	22.7	14.6	229	11
2023-09-18T18:00	274	977	22.5	14.6	231	11
2023-09-18T18:00	298	974	22.2	14.5	233	11
2023-09-18T18:00	325	971	22.0	14.5	234	11
2023-09-18T18:00	351	968	21.7	14.4	235	11
2023-09-18T18:00	380	965	21.4	14.3	237	12
2023-09-18T18:00	409	962	21.2	14.2	238	12
2023-09-18T18:00	435	959	20.9	14.2	239	12
2023-09-18T18:00	460	956	20.7	14.3	240	13
2023-09-18T18:00	487	953	20.4	14.1	241	13
2023-09-18T18:00	515	950	20.1	14.0	241	13
2023-09-18T18:00	541	947	19.9	14.0	240	13
2023-09-18T18:00	571	944	19.6	13.5	239	13
2023-09-18T18:00	600	941	19.4	13.4	239	14
2023-09-18T18:00	624	938	19.1	13.4	238	14
2023-09-18T18:00	648	935	18.9	13.4	238	14
2023-09-18T18:00	673	933	18.7	13.2	238	14
2023-09-18T18:00	696	930	18.5	13.2	238	14
2023-09-18T18:00	721	928	18.3	12.7	238	14
2023-09-18T18:00	745	925	18.1	12.6	238	14
2023-09-18T18:00	770	922	18.0	12.8	237	14
2023-09-18T18:00	795	920	17.8	12.8	237	13
2023-09-18T18:00	821	917	17.6	12.8	236	13
2023-09-18T18:00	849	914	17.3	12.8	236	13
2023-09-18T18:00	875	911	17.1	12.7	236	12
2023-09-18T18:00	903	908	17.0	12.5	235	12
2023-09-18T18:00	932	905	16.7	12.4	234	11
2023-09-18T18:00	961	902	16.5	12.4	232	11
2023-09-18T18:00	989	899	16.3	12.4	230	11
2023-09-18T18:00	1019	896	16.1	12.3	229	11
2023-09-18T18:00	1049	893	15.9	12.0	227	10
2023-09-18T18:00	1079	890	15.7	12.0	226	10
2023-09-18T18:00	1109	886	15.5	11.9	226	10
2023-09-18T18:00	1142	883	15.2	11.9	227	10
2023-09-18T18:00	1175	880	15.0	11.8	228	10
2023-09-18T18:00	1207	876	14.8	11.3	229	10
2023-09-18T18:00	1238	873	14.6	11.1	231	10
2023-09-18T18:00	1266	870	14.4	11.1	234	10
2023-09-18T18:00	1297	867	14.3	10.2	236	10
2023-09-18T18:00	1326	864	14.0	9.7	238	10
2023-09-18T18:00	1356	861	13.9	9.1	239	10
2023-09-18T18:00	1386	858	13.9	7.7	239	10
2023-09-18T18:00	1416	855	13.9	7.1	238	10
2023-09-18T18:00	1444	852	13.7	7.2	237	10
2023-09-18T18:00	1471	849	13.5	7.1	237	10
2023-09-18T18:00	1500	846	13.2	7.0	236	10
2023-09-18T18:00	1529	843	13.0	6.9	235	9
2023-09-18T18:00	1558	841	12.7	6.8	234	9
2023-09-18T18:00	1587	838	12.6	6.6	232	8
2023-09-18T18:00	1615	835	12.5	6.5	229	8
2023-09-18T18:00	1644	832	12.5	6.2	226	7
2023-09-18T18:00	1671	829	12.4	6.0	221	7
2023-09-18T18:00	1700	826	12.4	5.4	217	7
2023-09-18T18:00	1726	824	12.3	5.6	214	7
2023-09-18T18:00	1758	821	12.1	5.2	212	6
2023-09-18T18:00	1787	818	11.8	5.2	211	6
2023-09-18T18:00	1815	815	11.6	5.2	210	6
2023-09-18T18:00	1845	812	11.3	5.0	210	6
2023-09-18T18:00	1875	809	11.1	5.0	210	6
2023-09-18T18:00	1907	806	10.8	4.8	209	6
2023-09-18T18:00	1936	803	10.5	4.6	210	7
2023-09-18T18:00	1971	800	10.3	4.6	211	7
2023-09-18T18:00	2002	797	10.5	5.6	212	8
2023-09-18T18:00	2032	794	10.5	5.9	212	8
2023-09-18T18:00	2063	791	10.3	6.1	212	9
2023-09-18T18:00	2093	788	10.1	6.1	211	9
2023-09-18T18:00	2123	786	9.9	6.5	210	9
2023-09-18T18:00	2154	783	9.7	6.8	209	9
2023-09-18T18:00	2186	780	9.4	6.8	208	10
2023-09-18T18:00	2216	777	9.1	6.7	207	10
2023-09-18T18:00	2246	774	8.9	6.7	207	10
2023-09-18T18:00	2278	771	8.7	6.5	207	10
2023-09-18T18:00	2308	768	8.4	6.5	207	10
2023-09-18T18:00	2339	766	8.3	6.4	207	11
2023-09-18T18:00	2367	763	8.2	6.1	208	11
2023-09-18T18:00	2400	760	8.0	6.0	209	11
2023-09-18T18:00	2432	757	7.8	5.8	210	12
2023-09-18T18:00	2461	754	7.6	5.6	211	12
2023-09-18T18:00	2492	751	7.4	5.6	212	13
2023-09-18T18:00	2521	749	7.2	5.5	212	13
2023-09-18T18:00	2552	746	7.1	5.3	213	14
2023-09-18T18:00	2580	743	7.2	5.0	213	14
2023-09-18T18:00	2608	741	7.2	4.7	214	15
2023-09-18T18:00	2638	738	7.1	4.4	214	15
2023-09-18T18:00	2668	736	6.9	4.3	215	16
2023-09-18T18:00	2697	733	6.7	4.2	216	17
2023-09-18T18:00	2726	730	6.5	4.0	216	17
2023-09-18T18:00	2757	728	6.3	3.8	217	17
2023-09-18T18:00	2787	725	6.1	3.8	217	18
2023-09-18T18:00	2816	722	5.8	3.8	218	18
2023-09-18T18:00	2846	720	5.5	3.6	218	19
2023-09-18T18:00	2874	717	5.3	3.5	219	19
2023-09-18T18:00	2906	715	5.1	2.8	219	20
2023-09-18T18:00	2935	712	4.9	2.3	219	20
2023-09-18T18:00	2965	709	4.7	2.3	219	20
2023-09-18T18:00	2992	707	4.5	2.1	219	20
2023-09-18T18:00	3022	704	4.3	1.9	219	20
2023-09-18T18:00	3052	702	4.0	1.9	218	20
2023-09-18T18:00	3085	699	3.7	1.9	218	20
2023-09-18T18:00	3115	696	3.4	1.9	217	20
2023-09-18T18:00	3145	694	3.3	1.7	217	20
2023-09-18T18:00	3175	691	3.1	2.0	216	19
2023-09-18T18:00	3203	689	2.9	1.9	216	19
2023-09-18T18:00	3235	686	2.6	2.1	216	19
2023-09-18T18:00	3265	684	2.4	1.7	215	19
2023-09-18T18:00	3293	681	2.2	1.4	214	19
2023-09-18T18:00	3324	679	1.9		213	19
2023-09-18T18:00	3355	676	1.8	1.5	211	18
2023-09-18T18:00	3384	674	1.6	1.5	210	18
2023-09-18T18:00	3413	671	1.5	1.3	208	18
2023-09-18T18:00	3442	669	1.3	1.3	207	18
2023-09-18T18:00	3469	666	1.2	1.2	206	19
2023-09-18T18:00	3502	664	1.0	0.9	206	19
2023-09-18T18:00	3533	661	0.8	0.8	205	19
2023-09-18T18:00	3564	659	0.6	0.6	205	19
2023-09-18T18:00	3593	656	0.4	0.4	205	19
2023-09-18T18:00	3627	654	0.3	0.2	205	19
2023-09-18T18:00	3660	651	0.0	-0.1	205	19
2023-09-18T18:00	3690	649	-0.1	-0.4	206	20
2023-09-18T18:00	3721	646	-0.2	-0.7	206	20
2023-09-18T18:00	3750	644	-0.4	-0.9	206	20
2023-09-18T18:00	3781	641	-0.5	-1.0	206	20
2023-09-18T18:00	3813	639	-0.8	-1.3	206	20
2023-09-18T18:00	3840	636	-0.9	-1.4	205	20
2023-09-18T18:00	3873	634	-1.1	-1.7	205	20
2023-09-18T18:00	3905	631	-1.3	-2.0	205	20
2023-09-18T18:00	3937	629	-1.5	-2.2	205	20
2023-09-18T18:00	3965	627	-1.6	-2.6	204	19
2023-09-18T18:00	3997	624	-1.8	-2.7	204	19
2023-09-18T18:00	4027	622	-2.1	-2.8	204	19
2023-09-18T18:00	4058	619	-2.3	-2.9	204	19
2023-09-18T18:00	4090	617	-2.5	-3.1	204	19
2023-09-18T18:00	4122	614	-2.6	-3.2	203	19
2023-09-18T18:00	4155	612	-2.8	-3.5	202	18
2023-09-18T18:00	4184	610	-2.7	-4.0	201	18
2023-09-18T18:00	4216	607	-3.0	-4.2	200	18
2023-09-18T18:00	4247	605	-3.2	-4.4	200	18
2023-09-18T18:00	4279	602	-3.3	-4.2	200	17
2023-09-18T18:00	4311	600	-3.4	-4.4	200	17
2023-09-18T18:00	4342	598	-3.6	-4.5	201	17
2023-09-18T18:00	4370	595	-3.8	-4.6	201	17
2023-09-18T18:00	4402	593	-4.0	-4.6	202	16
2023-09-18T18:00	4432	591	-4.3	-4.8	202	16
2023-09-18T18:00	4462	588	-4.3	-5.2	201	16
2023-09-18T18:00	4496	586	-4.4	-5.5	201	15
2023-09-18T18:00	4525	584	-4.5	-5.9	200	15
2023-09-18T18:00	4559	581	-4.7	-5.9	200	15
2023-09-18T18:00	4591	579	-5.1	-6.1	199	15
2023-09-18T18:00	4623	577	-5.3	-6.4	199	15
2023-09-18T18:00	4654	574	-5.5	-6.9	199	15
2023-09-18T18:00	4686	572	-5.8	-6.8	199	15
2023-09-18T18:00	4717	570	-6.1	-7.0	199	15
2023-09-18T18:00	4751	567	-6.4	-7.1	199	15
2023-09-18T18:00	4783	565	-6.5	-7.6	199	15
2023-09-18T18:00	4816	563	-6.6	-8.3	199	15
2023-09-18T18:00	4849	560	-6.8	-8.2	199	15
2023-09-18T18:00	4878	558	-6.9	-8.7	199	15
2023-09-18T18:00	4912	556	-7.0	-9.0	200	14
2023-09-18T18:00	4944	553	-7.1	-9.0	200	14
2023-09-18T18:00	4976	551	-7.4	-8.9	201	14
2023-09-18T18:00	5007	549	-7.6	-8.8	202	13
2023-09-18T18:00	5038	547	-7.8	-8.6	203	13
2023-09-18T18:00	5072	544	-8.0	-8.6	204	13
2023-09-18T18:00	5108	542	-8.2	-8.6	204	13
2023-09-18T18:00	5138	540	-8.3	-9.1	205	13
2023-09-18T18:00	5169	538	-8.6	-9.1	206	13
2023-09-18T18:00	5198	536	-8.8	-9.3	207	13
2023-09-18T18:00	5230	534	-9.0	-9.4	208	13
2023-09-18T18:00	5261	531	-9.3	-9.6	209	13
2023-09-18T18:00	5291	529	-9.6	-9.8	211	13
2023-09-18T18:00	5321	527	-9.7	-10.1	212	13
2023-09-18T18:00	5352	525	-9.9	-10.4	212	13
2023-09-18T18:00	5384	523	-10.1	-10.6	213	13
2023-09-18T18:00	5415	521	-10.4	-10.8	213	14
2023-09-18T18:00	5447	519	-10.5	-10.9	213	14
2023-09-18T18:00	5479	517	-10.8	-11.3	213	14
2023-09-18T18:00	5510	514	-11.0	-11.5	213	14
2023-09-18T18:00	5543	512	-11.2	-11.6	212	14
2023-09-18T18:00	5573	510	-11.4	-12.1	211	14
2023-09-18T18:00	5605	508	-11.5	-12.7	210	14
2023-09-18T18:00	5636	506	-11.5	-13.2	209	14
2023-09-18T18:00	5667	504	-11.6	-13.2	208	14
2023-09-18T18:00	5701	502	-11.5	-13.6	208	13
2023-09-18T18:00	5734	500	-11.6	-14.0	208	13
2023-09-18T18:00	5765	498	-11.8	-14.2	208	13
2023-09-18T18:00	5797	496	-12.0	-14.6	208	13
2023-09-18T18:00	5831	493	-12.2	-14.6	209	13
2023-09-18T18:00	5861	491	-12.4	-14.7	210	12
2023-09-18T18:00	5894	489	-12.5	-14.9	211	12
2023-09-18T18:00	5923	488	-12.5	-15.3	213	12
2023-09-18T18:00	5954	486	-12.6	-15.7	215	12
2023-09-18T18:00	5983	484	-12.7	-15.7	216	11
2023-09-18T18:00	6014	482	-12.9	-15.9	217	11
2023-09-18T18:00	6046	480	-13.2	-16.0	217	12
2023-09-18T18:00	6076	478	-13.4	-16.2	218	12
2023-09-18T18:00	6109	476	-13.7	-16.3	218	12
2023-09-18T18:00	6142	474	-14.0	-16.4	219	13
2023-09-18T18:00	6175	472	-14.2	-16.3	220	13
2023-09-18T18:00	6203	470	-14.5	-16.4	221	14
2023-09-18T18:00	6240	468	-14.7	-16.4	222	14
2023-09-18T18:00	6272	466	-14.9	-16.6	223	14
2023-09-18T18:00	6304	464	-15.1	-16.7	224	14
2023-09-18T18:00	6333	462	-15.4	-16.8	224	14
2023-09-18T18:00	6364	460	-15.6	-17.3	225	14
2023-09-18T18:00	6396	458	-15.8	-17.7	226	14
2023-09-18T18:00	6426	456	-16.1	-17.9	226	14
2023-09-18T18:00	6458	454	-16.3	-18.0	226	14
2023-09-18T18:00	6489	452	-16.6	-18.2	226	14
2023-09-18T18:00	6520	451	-16.8	-18.3	226	14
2023-09-18T18:00	6552	449	-17.1	-18.5	226	14
2023-09-18T18:00	6583	447	-17.3	-18.7	225	14
2023-09-18T18:00	6614	445	-17.6	-18.8	225	14
2023-09-18T18:00	6642	443	-17.8	-18.8	225	14
2023-09-18T18:00	6676	441	-18.0	-19.0	224	14
2023-09-18T18:00	6703	440	-18.3	-19.3	224	14
2023-09-18T18:00	6735	438	-18.5	-19.5	223	14
2023-09-18T18:00	6767	436	-18.7	-19.8	223	14
2023-09-18T18:00	6799	434	-18.8	-20.0	223	14
2023-09-18T18:00	6832	432	-19.1	-20.2	223	14
2023-09-18T18:00	6867	430	-19.4	-20.3	223	14
2023-09-18T18:00	6901	428	-19.7	-20.3	223	14
2023-09-18T18:00	6935	426	-20.0	-20.6	223	14
2023-09-18T18:00	6966	424	-20.2	-20.6	223	14
2023-09-18T18:00	6999	423	-20.4	-20.7	224	14
2023-09-18T18:00	7034	421	-20.6	-21.0	224	14
2023-09-18T18:00	7070	419	-20.9	-21.4	224	14
2023-09-18T18:00	7102	417	-21.1	-21.5	224	13
2023-09-18T18:00	7134	415	-21.3	-21.8	223	13
2023-09-18T18:00	7167	413	-21.5	-23.1	222	13
2023-09-18T18:00	7200	411	-21.7	-23.3	220	13
2023-09-18T18:00	7235	409	-21.9	-23.6	220	13
2023-09-18T18:00	7271	407	-22.3	-24.2	220	13
2023-09-18T18:00	7304	405	-22.5	-24.4	221	13
2023-09-18T18:00	7337	404	-22.8	-24.7	222	13
2023-09-18T18:00	7370	402	-23.1	-25.1	222	13
2023-09-18T18:00	7404	400	-23.3	-25.2	222	13
2023-09-18T18:00	7434	398	-23.5	-25.4	222	13
2023-09-18T18:00	7467	397	-23.8	-25.6	222	13
2023-09-18T18:00	7500	395	-24.0	-25.8	222	13
2023-09-18T18:00	7534	393	-24.2	-26.1	222	13
2023-09-18T18:00	7565	391	-24.5	-26.4	222	13
2023-09-18T18:00	7600	389	-24.8	-27.0	223	13
2023-09-18T18:00	7632	388	-25.0	-27.2	224	14
2023-09-18T18:00	7662	386	-25.3	-27.4	224	14
2023-09-18T18:00	7694	384	-25.5	-27.6	225	14
2023-09-18T18:00	7725	383	-25.7	-27.5	226	14
2023-09-18T18:00	7756	381	-25.9	-27.7	227	14
2023-09-18T18:00	7791	379	-26.1	-28.0	228	15
2023-09-18T18:00	7824	377	-26.4	-28.4	229	15
2023-09-18T18:00	7858	376	-26.7	-28.7	230	16
2023-09-18T18:00	7890	374	-26.8	-28.6	231	16
2023-09-18T18:00	7921	372	-27.0	-28.7	232	17
2023-09-18T18:00	7955	371	-27.2	-28.9	233	17
2023-09-18T18:00	7987	369	-27.5	-29.1	233	17
2023-09-18T18:00	8021	367	-27.8	-29.4	233	18
2023-09-18T18:00	8056	366	-28.0	-29.6	233	18
2023-09-18T18:00	8091	364	-28.2	-29.8	233	17
2023-09-18T18:00	8124	362	-28.4	-30.0	232	17
2023-09-18T18:00	8157	360	-28.7	-30.4	230	17
2023-09-18T18:00	8193	359	-28.9	-30.7	229	17
2023-09-18T18:00	8226	357	-29.1	-30.9	227	17
2023-09-18T18:00	8254	356	-29.4	-31.1	225	17
2023-09-18T18:00	8278	354	-29.6	-31.3	224	16
2023-09-18T18:00	8315	353	-29.8	-31.6	223	16
2023-09-18T18:00	8349	351	-30.0	-32.5	222	16
2023-09-18T18:00	8386	349	-30.2	-32.8	221	15
2023-09-18T18:00	8420	347	-30.5	-32.7	218	15
2023-09-18T18:00	8451	346	-30.8	-32.9	216	15
2023-09-18T18:00	8478	345	-31.1	-33.0	214	15
2023-09-18T18:00	8505	343	-31.0	-33.5	213	15
2023-09-18T18:00	8532	342	-31.2	-33.5	212	15
2023-09-18T18:00	8564	340	-31.3	-34.1	211	14
2023-09-18T18:00	8593	339	-31.5	-35.6	211	14
2023-09-18T18:00	8617	338	-31.7	-35.8	211	14
2023-09-18T18:00	8640	337	-31.9	-35.4	210	14
2023-09-18T18:00	8664	336	-32.1	-35.8	210	14
2023-09-18T18:00	8693	334	-32.3	-36.1	208	14
2023-09-18T18:00	8718	333	-32.5	-36.4	207	14
2023-09-18T18:00	8747	332	-32.8	-36.7	206	14
2023-09-18T18:00	8775	330	-33.1	-37.0	205	13
2023-09-18T18:00	8800	329	-33.2	-37.2	205	13
2023-09-18T18:00	8823	328	-33.4	-37.4	204	13
2023-09-18T18:00	8849	327	-33.7	-37.5	203	13
2023-09-18T18:00	8881	325	-34.0	-37.7	202	13
2023-09-18T18:00	8913	324	-34.2	-37.8	201	13
2023-09-18T18:00	8946	322	-34.6	-38.1	200	13
2023-09-18T18:00	8973	321	-34.8	-38.3	198	13
2023-09-18T18:00	9005	320	-35.1	-38.9	197	13
2023-09-18T18:00	9033	318	-35.4	-39.3	196	12
2023-09-18T18:00	9061	317	-35.6	-39.6	194	12
2023-09-18T18:00	9083	316	-35.8	-39.8	193	11
2023-09-18T18:00	9111	315	-36.1	-40.0	192	11
2023-09-18T18:00	9134	314	-36.3	-40.0	192	11
2023-09-18T18:00	9163	313	-36.5	-40.3	194	11
2023-09-18T18:00	9189	311	-36.8	-40.5	196	11
2023-09-18T18:00	9213	310	-37.0	-40.7	198	11
2023-09-18T18:00	9240	309	-37.2	-40.8	200	11
2023-09-18T18:00	9266	308	-37.5	-41.4	201	11
2023-09-18T18:00	9287	307	-37.7	-41.7	202	11
2023-09-18T18:00	9309	306	-37.9	-42.3	201	12
2023-09-18T18:00	9340	305	-38.1	-42.2	201	12
2023-09-18T18:00	9366	303	-38.4	-42.4	200	12
2023-09-18T18:00	9386	303	-38.5	-42.6	201	12
2023-09-18T18:00	9415	301	-38.7	-42.8	201	13
2023-09-18T18:00	9444	300	-39.0	-43.1	202	13
2023-09-18T18:00	9479	299	-39.3	-43.7	203	13
2023-09-18T18:00	9507	297	-39.6	-44.0	203	14
2023-09-18T18:00	9541	296	-39.9	-43.8	204	14
2023-09-18T18:00	9571	295	-40.2	-44.0	204	14
2023-09-18T18:00	9598	293	-40.5	-44.6	204	15
2023-09-18T18:00	9618	292	-40.7	-44.6	205	15
2023-09-18T18:00	9638	292	-40.9	-44.7	204	15
2023-09-18T18:00	9663	291	-41.1	-44.8	204	16
2023-09-18T18:00	9686	290	-41.3	-45.1	203	16
2023-09-18T18:00	9716	288	-41.6	-45.5	204	15
2023-09-18T18:00	9741	287	-41.8	-45.7	204	15
2023-09-18T18:00	9762	286	-42.0	-45.8	205	15
2023-09-18T18:00	9785	285	-42.3	-46.0	205	15
2023-09-18T18:00	9812	284	-42.5	-46.0	205	15
2023-09-18T18:00	9839	283	-42.8	-46.4	205	15
2023-09-18T18:00	9867	282	-43.0	-46.8	206	15
2023-09-18T18:00	9893	281	-43.2	-47.1	206	15
2023-09-18T18:00	9921	280	-43.5	-47.3	206	15
2023-09-18T18:00	9948	279	-43.7	-47.5	206	15
2023-09-18T18:00	9977	277	-44.0	-47.7	206	15
2023-09-18T18:00	10004	276	-44.2	-47.9	205	16
2023-09-18T18:00	10035	275	-44.5	-48.2	204	16
2023-09-18T18:00	10070	274	-44.8	-48.6	203	16
2023-09-18T18:00	10104	272	-45.1	-48.8	202	16
2023-09-18T18:00	10137	271	-45.3	-49.0	200	17
2023-09-18T18:00	10173	269	-45.7	-49.1	198	17
2023-09-18T18:00	10206	268	-46.0	-49.2	197	18
2023-09-18T18:00	10234	267	-46.2	-49.2	195	18
2023-09-18T18:00	10261	266	-46.3	-49.2	194	18
2023-09-18T18:00	10291	265	-46.4		194	18
2023-09-18T18:00	10321	263	-46.6	-49.6	195	18
2023-09-18T18:00	10353	262	-46.8	-49.7	196	18
2023-09-18T18:00	10383	261	-47.1	-50.1	197	19
2023-09-18T18:00	10409	260	-47.3	-50.5	197	19
2023-09-18T18:00	10440	259	-47.6	-50.8	198	19
2023-09-18T18:00	10467	258	-47.8	-51.3	199	19
2023-09-18T18:00	10494	257	-48.1	-51.9	199	20
2023-09-18T18:00	10523	255	-48.3	-52.1	200	20
2023-09-18T18:00	10551	254	-48.6	-52.3	200	20
2023-09-18T18:00	10580	253	-48.7	-52.3	201	20
2023-09-18T18:00	10609	252	-48.8	-52.5	200	19
2023-09-18T18:00	10638	251	-49.0	-53.0	200	19
2023-09-18T18:00	10670	250	-49.2	-53.2	199	18
2023-09-18T18:00	10708	248	-49.5	-53.2	199	18
2023-09-18T18:00	10735	247	-49.8		198	17
2023-09-18T18:00	10757	246	-49.9	-53.2	197	17
2023-09-18T18:00	10786	245	-50.2	-53.3	197	17
2023-09-18T18:00	10812	244	-50.5	-53.6	196	18
2023-09-18T18:00	10841	243	-50.7	-53.9	196	18
2023-09-18T18:00	10869	242	-51.0	-54.2	196	18
2023-09-18T18:00	10899	241	-51.3	-54.5	196	18
2023-09-18T18:00	10926	240	-51.5	-54.7	196	18
2023-09-18T18:00	10953	239	-51.7	-55.1	196	18
2023-09-18T18:00	10977	238	-51.9	-55.4	196	18
2023-09-18T18:00	11004	237	-52.2	-55.7	196	18
2023-09-18T18:00	11032	236	-52.4	-55.8	196	18
2023-09-18T18:00	11059	235	-52.7	-56.1	196	18
2023-09-18T18:00	11090	234	-53.0	-56.3	196	18
2023-09-18T18:00	11114	233	-53.2	-56.4	195	18
2023-09-18T18:00	11141	232	-53.5	-56.3	195	18
2023-09-18T18:00	11173	231	-53.7	-56.2	196	18
2023-09-18T18:00	11200	230	-54.0	-56.6	197	18
2023-09-18T18:00	11231	229	-54.3	-57.1	199	18
2023-09-18T18:00	11264	228	-54.6	-57.5	200	18
2023-09-18T18:00	11288	227	-54.9	-57.8	201	18
2023-09-18T18:00	11311	226	-55.1	-58.1	202	18
2023-09-18T18:00	11335	225	-55.2	-58.3	202	18
2023-09-18T18:00	11363	224	-55.4	-58.7	202	18
2023-09-18T18:00	11393	223	-55.6	-59.2	202	17
2023-09-18T18:00	11423	222	-55.8	-59.7	201	17
2023-09-18T18:00	11452	221	-56.1	-60.2	200	16
2023-09-18T18:00	11480	220	-56.3	-60.3	200	15
2023-09-18T18:00	11501	220	-56.5	-60.0	199	15
2023-09-18T18:00	11525	219	-56.6	-59.6	199	15
2023-09-18T18:00	11552	218	-56.8	-59.4	199	15
2023-09-18T18:00	11584	217	-57.1	-59.7	199	15
2023-09-18T18:00	11614	216	-57.4	-60.1	199	15
2023-09-18T18:00	11644	215	-57.7	-60.5	198	15
2023-09-18T18:00	11676	214	-58.0	-60.7	198	14
2023-09-18T18:00	11708	213	-58.3	-61.0	198	14
2023-09-18T18:00	11739	212	-58.5	-61.4	198	14
2023-09-18T18:00	11763	211	-58.8	-61.9	198	14
2023-09-18T18:00	11791	210	-59.0	-62.3	199	13
2023-09-18T18:00	11826	209	-59.3	-62.7	199	13
2023-09-18T18:00	11853	208	-59.6	-62.9	200	13
2023-09-18T18:00	11882	207	-59.8	-63.0	201	13
2023-09-18T18:00	11911	206	-60.1	-63.3	203	14
2023-09-18T18:00	11944	205	-60.4	-63.6	204	14
2023-09-18T18:00	11980	204	-60.7	-63.7	206	14
2023-09-18T18:00	12019	202	-61.0	-64.0	207	14
2023-09-18T18:00	12055	201	-61.3	-64.4	207	14
2023-09-18T18:00	12100	200	-61.3	-64.7	207	15
2023-09-18T18:00	12139	198	-61.7	-65.2	208	16
2023-09-18T18:00	12161	198	-61.9	-65.3	208	16
2023-09-18T18:00	12190	197	-62.1	-65.4	210	17
2023-09-18T18:00	12219	196	-62.3	-65.6	212	18
2023-09-18T18:00	12258	195	-62.5	-66.1	215	19
2023-09-18T18:00	12297	193	-62.6	-66.8	217	19
2023-09-18T18:00	12324	193	-62.5	-67.7	218	20
2023-09-18T18:00	12348	192	-62.4	-68.9	219	21
2023-09-18T18:00	12372	191	-62.1	-69.7	219	21
2023-09-18T18:00	12393	190	-62.2	-70.5	218	21
2023-09-18T18:00	12419	190	-62.1	-70.7	218	21
2023-09-18T18:00	12443	189	-62.3	-70.8	218	21
2023-09-18T18:00	12470	188	-62.4	-70.8	218	22
2023-09-18T18:00	12494	187	-62.5	-70.8	218	22
2023-09-18T18:00	12515	187	-62.6	-70.9	218	22
2023-09-18T18:00	12538	186	-62.8	-71.2	218	22
2023-09-18T18:00	12562	185	-62.8	-71.4	218	22
2023-09-18T18:00	12586	184	-62.5	-71.4	217	22
2023-09-18T18:00	12612	184	-62.5		216	23
2023-09-18T18:00	12643	183	-62.6	-72.6	216	24
2023-09-18T18:00	12678	182	-62.1	-72.8	216	25
2023-09-18T18:00	12714	181	-61.6	-73.1	216	26
2023-09-18T18:00	12740	180	-61.7	-73.8	216	27
2023-09-18T18:00	12770	179	-61.4	-74.3	217	27
2023-09-18T18:00	12794	178	-60.9	-74.5	217	27
2023-09-18T18:00	12817	178	-60.8	-74.9	218	27
2023-09-18T18:00	12838	177	-60.5	-75.2	218	26
2023-09-18T18:00	12860	176	-60.1	-75.1	219	25
2023-09-18T18:00	12882	176	-60.0	-75.2	219	25
2023-09-18T18:00	12903	175	-59.8	-75.2	218	24
2023-09-18T18:00	12923	175	-59.4	-75.3	219	24
2023-09-18T18:00	12946	174	-58.7	-75.0	219	24
2023-09-18T18:00	12972	173	-58.6	-74.9	221	23
2023-09-18T18:00	13000	173	-58.5	-74.6	223	23
2023-09-18T18:00	13039	172	-58.7	-74.5	225	23
2023-09-18T18:00	13076	171	-59.0	-74.9	227	23
2023-09-18T18:00	13104	170	-59.2	-75.7	230	24
2023-09-18T18:00	13132	169	-58.9	-76.3	232	24
2023-09-18T18:00	13160	168	-58.8	-77.3	234	24
2023-09-18T18:00	13187	168	-58.9	-78.1	236	24
2023-09-18T18:00	13213	167	-58.9	-78.7	238	24
2023-09-18T18:00	13236	166	-58.9	-79.4	239	24
2023-09-18T18:00	13262	166	-59.0	-80.0	240	24
2023-09-18T18:00	13287	165	-59.0	-80.3	240	23
2023-09-18T18:00	13319	164	-59.0	-80.3	241	23
2023-09-18T18:00	13362	163	-58.4	-80.0	241	21
2023-09-18T18:00	13387	162	-56.8	-79.2	242	20
2023-09-18T18:00	13419	161	-56.1	-79.1	242	18
2023-09-18T18:00	13453	161	-56.0	-79.6	243	17
2023-09-18T18:00	13481	160	-55.9	-79.7	242	16
2023-09-18T18:00	13505	159	-56.1		242	15
2023-09-18T18:00	13528	159	-56.1		242	15
2023-09-18T18:00	13550	158	-56.2	-80.3	242	15
2023-09-18T18:00	13575	158	-55.9	-80.3	242	15
2023-09-18T18:00	13597	157	-56.0	-80.4	242	15
2023-09-18T18:00	13621	156	-56.1	-80.7	243	15
2023-09-18T18:00	13646	156	-56.2	-80.8	243	15
2023-09-18T18:00	13666	155	-56.1	-80.7	243	14
2023-09-18T18:00	13690	155	-56.2	-80.8	241	14
2023-09-18T18:00	13715	154	-56.3	-80.8	236	13
2023-09-18T18:00	13739	154	-56.3	-81.1	231	13
2023-09-18T18:00	13775	153	-55.7	-80.6	225	14
2023-09-18T18:00	13809	152	-55.3	-80.5	220	14
2023-09-18T18:00	13835	151	-55.4	-80.8	217	15
2023-09-18T18:00	13860	151	-55.5	-80.9	215	16
2023-09-18T18:00	13884	150	-55.6	-81.0	212	16
2023-09-18T18:00	13910	149	-55.7	-80.8	210	17
2023-09-18T18:00	13935	149	-55.7	-80.8	208	17
2023-09-18T18:00	13960	148	-55.8	-80.9	207	18
2023-09-18T18:00	13987	148	-55.5	-80.7	207	18
2023-09-18T18:00	14016	147	-55.5	-80.9	207	18
2023-09-18T18:00	14044	146	-55.5	-80.9	209	19
2023-09-18T18:00	14070	146	-55.6	-81.0	211	19
2023-09-18T18:00	14094	145	-55.6	-81.0	212	20
2023-09-18T18:00	14119	145	-55.6	-81.0	213	20
2023-09-18T18:00	14143	144	-55.7	-81.1	213	21
2023-09-18T18:00	14167	144	-55.6	-81.0	212	20
2023-09-18T18:00	14189	143	-55.4	-81.1	211	20
2023-09-18T18:00	14212	143	-55.3	-81.0	210	20
2023-09-18T18:00	14235	142	-55.2	-80.9	210	19
2023-09-18T18:00	14264	141	-55.3	-81.0	211	19
2023-09-18T18:00	14293	141	-55.3	-81.0	212	19
2023-09-18T18:00	14318	140	-55.2	-80.9	214	19
2023-09-18T18:00	14351	140	-55.3	-80.8	216	19
2023-09-18T18:00	14376	139	-55.5	-80.9	219	19
2023-09-18T18:00	14404	138	-55.7	-81.1	222	19
2023-09-18T18:00	14426	138	-55.9	-81.2	225	20
2023-09-18T18:00	14455	137	-56.2	-81.2	227	20
2023-09-18T18:00	14477	137	-56.1	-81.1	229	21
2023-09-18T18:00	14498	136	-56.1	-81.4	231	21
2023-09-18T18:00	14520	136	-56.1	-81.4	233	21
2023-09-18T18:00	14542	135	-56.1	-81.4	234	21
2023-09-18T18:00	14566	135	-56.2	-81.5	236	22
2023-09-18T18:00	14589	134	-56.4	-81.4	238	22
2023-09-18T18:00	14614	134	-56.5	-81.5	240	22
2023-09-18T18:00	14639	133	-56.5	-81.5	243	22
2023-09-18T18:00	14659	133	-56.5	-81.7	245	22
2023-09-18T18:00	14682	132	-56.4	-81.9	248	21
2023-09-18T18:00	14706	132	-55.8	-81.7	251	21
2023-09-18T18:00	14734	131	-54.8	-81.2	253	20
2023-09-18T18:00	14764	131	-54.4	-81.2	256	19
2023-09-18T18:00	14790	130	-54.4	-81.5	257	17
2023-09-18T18:00	14818	130	-54.2	-81.3	259	16
2023-09-18T18:00	14850	129	-54.2	-81.3	260	15
2023-09-18T18:00	14879	128	-54.1	-81.2	260	14
2023-09-18T18:00	14906	128	-54.2	-81.3	261	13
2023-09-18T18:00	14931	127	-54.3	-81.4	262	12
2023-09-18T18:00	14956	127	-54.5	-81.5	263	11
2023-09-18T18:00	14982	126	-54.6	-81.6	263	10
2023-09-18T18:00	15006	126	-54.5	-81.5	262	10
2023-09-18T18:00	15031	125	-54.3	-81.4	261	9
2023-09-18T18:00	15056	125	-54.3	-81.4	260	8
2023-09-18T18:00	15079	124	-54.3	-81.4	258	8
2023-09-18T18:00	15105	124	-54.4	-81.5	255	7
2023-09-18T18:00	15128	123	-54.4	-81.5	251	7
2023-09-18T18:00	15153	123	-54.5	-81.5	247	7
2023-09-18T18:00	15177	123	-54.5	-81.5	242	6
2023-09-18T18:00	15200	122	-54.6	-81.3	238	6
2023-09-18T18:00	15226	122	-54.6	-81.3	234	6
2023-09-18T18:00	15249	121	-54.8	-81.5	230	6
2023-09-18T18:00	15275	121	-55.0	-81.6	225	6
2023-09-18T18:00	15298	120	-55.1	-81.7	221	6
2023-09-18T18:00	15320	120	-55.2	-81.8	217	6
2023-09-18T18:00	15345	119	-55.4	-81.9	213	7
2023-09-18T18:00	15372	119	-55.5	-82.0	209	7
2023-09-18T18:00	15397	118	-55.7	-81.9	206	7
2023-09-18T18:00	15420	118	-55.9	-82.0	204	7
2023-09-18T18:00	15445	118	-56.1	-82.2	203	7
2023-09-18T18:00	15468	117	-56.2	-82.0	202	8
2023-09-18T18:00	15488	117	-56.4	-82.1	202	8
2023-09-18T18:00	15513	116	-56.6	-82.3	202	8
2023-09-18T18:00	15545	116	-56.8	-82.5	202	9
2023-09-18T18:00	15572	115	-57.0	-82.6	202	9
2023-09-18T18:00	15599	115	-57.2	-82.5	202	10
2023-09-18T18:00	15627	114	-57.4	-82.7	202	11
2023-09-18T18:00	15651	114	-57.4	-82.7	203	12
2023-09-18T18:00	15672	113	-57.6	-82.6	204	12
2023-09-18T18:00	15697	113	-57.8	-82.7	206	13
2023-09-18T18:00	15723	112	-57.9	-82.8	208	13
2023-09-18T18:00	15748	112	-57.9	-82.8	211	13
2023-09-18T18:00	15771	112	-58.0	-82.9	214	13
2023-09-18T18:00	15798	111	-58.0	-82.9	218	14
2023-09-18T18:00	15820	111	-58.1	-83.2	223	14
2023-09-18T18:00	15845	110	-58.2	-83.3	227	14
2023-09-18T18:00	15872	110	-58.0	-83.4	231	14
2023-09-18T18:00	15895	109	-57.7	-83.4	233	14
2023-09-18T18:00	15918	109	-57.1	-83.2	235	13
2023-09-18T18:00	15945	109	-56.2	-83.2	235	13
2023-09-18T18:00	15968	108	-55.7	-83.1	235	13
2023-09-18T18:00	15992	108	-55.6	-83.1	236	13
2023-09-18T18:00	16019	107	-55.6	-83.1	237	14
2023-09-18T18:00	16045	107	-55.8	-83.2	238	14
2023-09-18T18:00	16067	107	-55.7	-83.1	240	14
2023-09-18T18:00	16088	106	-55.6	-83.1	241	15
2023-09-18T18:00	16113	106	-55.6	-83.1	243	15
2023-09-18T18:00	16135	105	-55.6	-83.1	244	16
2023-09-18T18:00	16157	105	-55.4	-83.3	245	16
2023-09-18T18:00	16185	105	-55.3	-83.2	246	16
2023-09-18T18:00	16207	104	-55.2	-83.1	247	16
2023-09-18T18:00	16234	104	-55.3	-83.2	248	15
2023-09-18T18:00	16260	103	-55.4	-83.3	249	14
2023-09-18T18:00	16291	103	-55.5	-83.0	250	14
2023-09-18T18:00	16321	102	-55.7	-83.1	250	13
2023-09-18T18:00	16346	102	-55.9	-83.3	250	13
2023-09-18T18:00	16370	102	-56.0	-83.4	250	12
2023-09-18T18:00	16394	101	-55.9	-83.3	250	12
2023-09-18T18:00	16421	101	-56.1	-83.4	250	12
2023-09-18T18:00	16445	100	-56.3	-83.6	250	12
2023-09-18T18:00	16469	100	-56.4	-83.7	251	12
2023-09-18T18:00	16498	100	-56.4	-83.7	251	12
2023-09-18T18:00	16521	99	-56.4	-83.7	251	11
2023-09-18T18:00	16549	99	-56.5	-83.7	250	11
2023-09-18T18:00	16576	98	-56.6	-83.8	250	11
2023-09-18T18:00	16601	98	-56.8	-84.0	249	11
2023-09-18T18:00	16622	98	-56.9	-84.0	248	11
2023-09-18T18:00	16647	97	-57.0	-84.1	248	11
2023-09-18T18:00	16671	97	-57.1	-84.2	248	12
2023-09-18T18:00	16696	96	-57.2	-84.3	249	12
2023-09-18T18:00	16718	96	-57.0	-84.1	250	13
2023-09-18T18:00	16743	96	-56.7	-84.2	250	14
2023-09-18T18:00	16766	95	-56.6	-84.2	250	14
2023-09-18T18:00	16791	95	-56.7	-84.6	249	15
2023-09-18T18:00	16819	95	-56.7	-84.6	247	15
2023-09-18T18:00	16846	94	-56.2	-84.2	246	15
2023-09-18T18:00	16868	94	-56.4	-84.4	245	16
2023-09-18T18:00	16895	94	-56.6	-84.5	245	16
2023-09-18T18:00	16922	93	-56.8	-84.3	246	16
2023-09-18T18:00	16943	93	-57.0	-84.5	246	16
2023-09-18T18:00	16968	92	-56.9	-84.4	247	16
2023-09-18T18:00	16990	92	-57.0	-84.5	247	16
2023-09-18T18:00	17014	92	-56.9	-84.4	247	16
2023-09-18T18:00	17037	91	-57.0	-84.8	247	16
2023-09-18T18:00	17061	91	-57.1	-84.9	247	16
2023-09-18T18:00	17085	91	-56.8	-84.7	246	16
2023-09-18T18:00	17110	90	-56.7	-84.6	246	16
2023-09-18T18:00	17134	90	-56.4	-84.4	245	16
2023-09-18T18:00	17159	90	-56.4	-84.4	244	16
2023-09-18T18:00	17186	89	-56.5	-84.5	243	15
2023-09-18T18:00	17210	89	-56.7	-84.6	243	15
2023-09-18T18:00	17235	89	-56.7	-84.6	242	15
2023-09-18T18:00	17257	88	-56.8	-84.7	242	14
2023-09-18T18:00	17283	88	-56.8	-84.3	241	14
2023-09-18T18:00	17305	88	-56.9	-84.4	241	14
2023-09-18T18:00	17331	87	-56.9	-84.4	241	14
2023-09-18T18:00	17358	87	-57.0	-84.8	241	13
2023-09-18T18:00	17380	87	-57.0	-84.8	241	13
2023-09-18T18:00	17401	86	-57.2	-85.0	241	13
2023-09-18T18:00	17426	86	-57.2	-84.6	242	12
2023-09-18T18:00	17449	86	-57.3	-84.7	244	12
2023-09-18T18:00	17475	85	-57.5	-84.9	246	12
2023-09-18T18:00	17499	85	-57.6	-84.9	249	12
2023-09-18T18:00	17524	85	-57.7	-85.0	252	12
2023-09-18T18:00	17551	84	-57.9	-85.2	255	12
2023-09-18T18:00	17578	84	-57.9	-85.2	258	12
2023-09-18T18:00	17604	84	-57.8	-85.1	261	12
2023-09-18T18:00	17626	83	-57.9	-85.2	263	11
2023-09-18T18:00	17650	83	-58.0	-85.2	264	11
2023-09-18T18:00	17674	83	-58.3	-85.5	266	11
2023-09-18T18:00	17701	82	-58.5	-85.3	268	10
2023-09-18T18:00	17726	82	-58.7	-85.4	270	10
2023-09-18T18:00	17751	82	-58.6	-85.7	273	9
2023-09-18T18:00	17775	81	-58.2	-85.4	275	8
2023-09-18T18:00	17800	81	-58.1	-85.3	276	8
2023-09-18T18:00	17826	81	-58.2	-85.8	275	8
2023-09-18T18:00	17852	80	-58.2	-86.2	274	8
2023-09-18T18:00	17874	80	-57.8	-85.9	273	7
2023-09-18T18:00	17903	80	-57.6	-85.7	272	7
2023-09-18T18:00	17929	79	-57.6	-85.7	273	7
2023-09-18T18:00	17954	79	-57.3	-85.5	275	7
2023-09-18T18:00	17973	79	-57.3	-85.5	278	7
2023-09-18T18:00	18001	78	-57.4	-86.0	282	7
2023-09-18T18:00	18026	78	-57.5	-86.1	284	6
2023-09-18T18:00	18051	78	-57.4	-86.0	286	6
2023-09-18T18:00	18074	78	-57.1	-85.7	287	5
2023-09-18T18:00	18103	77	-56.6	-85.8	286	5
2023-09-18T18:00	18125	77	-56.3	-85.6	283	4
2023-09-18T18:00	18151	77	-56.4	-85.7	277	3
2023-09-18T18:00	18176	76	-56.4	-85.7	267	3
2023-09-18T18:00	18200	76	-56.6	-85.8	252	3
2023-09-18T18:00	18222	76	-56.7	-85.9	235	3
2023-09-18T18:00	18253	75	-56.8	-86.0	222	4
2023-09-18T18:00	18279	75	-56.7	-85.9	214	4
2023-09-18T18:00	18302	75	-55.5	-85.5	211	5
2023-09-18T18:00	18326	75	-55.5	-85.5	209	5
2023-09-18T18:00	18354	74	-55.6	-85.6	209	6
2023-09-18T18:00	18375	74	-55.8	-85.7	209	6
2023-09-18T18:00	18399	74	-55.9	-85.8	211	6
2023-09-18T18:00	18424	73	-55.8	-85.7	214	6
2023-09-18T18:00	18450	73	-55.9	-85.8	217	6
2023-09-18T18:00	18475	73	-55.7	-85.7	221	7
2023-09-18T18:00	18503	73	-55.5	-85.5	226	7
2023-09-18T18:00	18526	72	-55.7	-85.7	231	7
2023-09-18T18:00	18551	72	-55.7	-85.2	236	7
2023-09-18T18:00	18578	72	-55.8	-85.2	243	8
2023-09-18T18:00	18602	71	-56.0		250	8
2023-09-18T18:00	18630	71	-56.0	-85.9	257	8
2023-09-18T18:00	18654	71	-55.9	-85.8	265	8
2023-09-18T18:00	18679	71	-55.7	-85.7	273	7
2023-09-18T18:00	18705	70	-55.5	-85.5	280	7
2023-09-18T18:00	18730	70	-55.4	-85.4	287	7
2023-09-18T18:00	18755	70	-55.4	-85.4	293	7
2023-09-18T18:00	18784	69	-55.4	-85.4	298	7
2023-09-18T18:00	18809	69	-55.3	-85.4	303	7
2023-09-18T18:00	18834	69	-55.3	-85.4	307	7
2023-09-18T18:00	18856	69	-55.5	-85.5	309	7
2023-09-18T18:00	18886	68	-55.7	-85.7	310	6
2023-09-18T18:00	18908	68	-55.7	-85.7	310	6
2023-09-18T18:00	18937	68	-55.5	-85.5	309	6
2023-09-18T18:00	18963	67	-55.6	-85.6	308	6
2023-09-18T18:00	18986	67	-55.8	-85.7	307	6
2023-09-18T18:00	19012	67	-55.9	-85.8	305	5
2023-09-18T18:00	19036	67	-56.0	-85.9	301	5
2023-09-18T18:00	19064	66	-56.1	-86.0	295	5
2023-09-18T18:00	19087	66	-56.1	-86.0	287	5
2023-09-18T18:00	19113	66	-55.8	-85.7	279	5
2023-09-18T18:00	19139	66	-55.7	-85.7	272	5
2023-09-18T18:00	19168	65	-55.8	-85.7	266	6
2023-09-18T18:00	19194	65	-56.0	-85.9	262	6
2023-09-18T18:00	19217	65	-56.1	-86.0	260	7
2023-09-18T18:00	19245	65	-56.1	-86.0	258	7
2023-09-18T18:00	19272	64	-55.9	-85.8	257	8
2023-09-18T18:00	19299	64	-55.9	-85.8	256	8
2023-09-18T18:00	19328	64	-55.8	-85.7	255	9
2023-09-18T18:00	19356	63	-55.8	-85.7	253	9
2023-09-18T18:00	19384	63	-55.9	-85.8	252	10
2023-09-18T18:00	19411	63	-56.1	-86.0	251	10
2023-09-18T18:00	19435	63	-56.2	-86.0	250	10
2023-09-18T18:00	19460	62	-56.3	-85.6	249	10
2023-09-18T18:00	19489	62	-56.4	-85.7	249	10
2023-09-18T18:00	19517	62	-56.6	-85.8	248	10
2023-09-18T18:00	19541	62	-56.8	-86.0	247	10
2023-09-18T18:00	19572	61	-56.9	-86.1	247	9
2023-09-18T18:00	19597	61	-56.8	-86.0	248	9
2023-09-18T18:00	19621	61	-56.6	-86.3	249	9
2023-09-18T18:00	19648	61	-56.6	-86.3	252	9
2023-09-18T18:00	19674	60	-56.7	-86.4	254	8
2023-09-18T18:00	19701	60	-56.9	-86.6	255	8
2023-09-18T18:00	19724	60	-56.9	-86.6	255	8
2023-09-18T18:00	19750	60	-56.8	-86.5	253	8
2023-09-18T18:00	19774	59	-56.7	-86.4	251	9
2023-09-18T18:00	19801	59	-56.6	-86.3	250	9
2023-09-18T18:00	19825	59	-56.6	-86.3	249	9
2023-09-18T18:00	19851	59	-56.4	-86.2	250	9
2023-09-18T18:00	19876	58	-56.5	-86.3	251	10
2023-09-18T18:00	19901	58	-56.5	-86.3	252	10
2023-09-18T18:00	19926	58	-56.6	-86.3	253	11
2023-09-18T18:00	19957	58	-56.9	-86.1	255	11
2023-09-18T18:00	19977	57	-57.0	-86.1	257	11
2023-09-18T18:00	20008	57	-57.1	-86.2	258	12
2023-09-18T18:00	20029	57	-57.1	-86.7	259	12
2023-09-18T18:00	20058	57	-56.8	-86.5	260	12
2023-09-18T18:00	20082	57	-56.8	-86.5	262	12
2023-09-18T18:00	20111	56	-57.1	-86.2	264	12
2023-09-18T18:00	20138	56	-57.3	-86.4	267	12
2023-09-18T18:00	20164	56	-57.5	-86.5	272	12
2023-09-18T18:00	20188	56	-57.6	-86.6	277	12
2023-09-18T18:00	20215	55	-57.6	-86.6	281	12
2023-09-18T18:00	20241	55	-57.1	-86.2	285	12
2023-09-18T18:00	20266	55	-57.2	-86.3	289	12
2023-09-18T18:00	20294	55	-57.3	-86.4	292	12
2023-09-18T18:00	20317	54	-57.4	-86.4	294	11
2023-09-18T18:00	20344	54	-57.6	-86.6	297	11
2023-09-18T18:00	20375	54	-57.8	-86.7	300	11
2023-09-18T18:00	20393	54	-58.0	-86.9	303	10
2023-09-18T18:00	20425	54	-58.1	-87.0	305	10
2023-09-18T18:00	20449	53	-58.2	-87.0	305	10
2023-09-18T18:00	20474	53	-58.2	-87.0	304	10
2023-09-18T18:00	20501	53	-58.2	-87.0	303	10
2023-09-18T18:00	20527	53	-58.2	-87.0	301	10
2023-09-18T18:00	20557	52	-58.3	-87.1	299	9
2023-09-18T18:00	20584	52	-58.5	-87.3	297	9
2023-09-18T18:00	20609	52	-58.5	-87.3	295	9
2023-09-18T18:00	20635	52	-58.5	-87.3	292	9
2023-09-18T18:00	20663	52	-58.6	-86.9	289	9
2023-09-18T18:00	20690	51	-58.6	-86.9	285	9
2023-09-18T18:00	20719	51	-58.4	-86.7	281	9
2023-09-18T18:00	20745	51	-58.5	-86.8	278	9
2023-09-18T18:00	20772	51	-58.5	-87.3	276	10
2023-09-18T18:00	20793	51	-58.5	-87.3	275	10
2023-09-18T18:00	20824	50	-58.5	-87.3	277	10
2023-09-18T18:00	20854	50	-58.3	-87.1	279	10
2023-09-18T18:00	20876	50	-58.2	-87.0	282	10
2023-09-18T18:00	20899	50	-57.9	-86.8	285	9
2023-09-18T18:00	20931	49	-58.0	-86.9	287	9
2023-09-18T18:00	20954	49	-58.2	-87.0	289	8
2023-09-18T18:00	20981	49	-58.2	-87.0	290	8
2023-09-18T18:00	21007	49	-58.3	-87.1	291	7
2023-09-18T18:00	21035	49	-58.1	-87.0	292	7
2023-09-18T18:00	21063	48	-58.0	-86.9	294	6
2023-09-18T18:00	21083	48	-57.7	-87.2	296	6
2023-09-18T18:00	21114	48	-57.5	-87.0	297	5
2023-09-18T18:00	21138	48	-57.6	-87.1	295	6
2023-09-18T18:00	21163	48	-57.3	-86.9	292	6
2023-09-18T18:00	21193	47	-57.2	-86.8	289	6
2023-09-18T18:00	21220	47	-57.2	-86.8	287	6
2023-09-18T18:00	21246	47	-57.1	-86.7	288	7
2023-09-18T18:00	21273	47	-56.8	-86.5	291	7
2023-09-18T18:00	21297	47	-56.9	-86.6	295	6
2023-09-18T18:00	21325	46	-57.2	-86.8	299	6
2023-09-18T18:00	21353	46	-57.4	-86.4	301	6
2023-09-18T18:00	21381	46	-57.6	-86.6	302	6
2023-09-18T18:00	21405	46	-57.5	-86.5	301	5
2023-09-18T18:00	21435	46	-57.5	-86.5	297	5
2023-09-18T18:00	21455	46	-57.3	-86.4	293	4
2023-09-18T18:00	21483	45	-57.3	-86.4	287	4
2023-09-18T18:00	21503	45	-57.4	-86.4	281	3
2023-09-18T18:00	21530	45	-57.5	-86.5	273	3
2023-09-18T18:00	21559	45	-57.6	-86.6	262	3
2023-09-18T18:00	21588	45	-57.8	-86.7	248	3
2023-09-18T18:00	21611	44	-57.9	-86.8	234	3
2023-09-18T18:00	21637	44	-57.9	-86.8	226	3
2023-09-18T18:00	21670	44	-58.0	-86.9	224	4
2023-09-18T18:00	21692	44	-57.9	-86.8	225	4
2023-09-18T18:00	21719	44	-57.8	-86.7	228	5
2023-09-18T18:00	21748	43	-57.6	-87.1	232	5
2023-09-18T18:00	21768	43	-57.6	-87.1	237	6
2023-09-18T18:00	21791	43	-57.6	-87.1	242	6
2023-09-18T18:00	21823	43	-57.5	-87.0	249	6
2023-09-18T18:00	21848	43	-57.5	-87.0	255	7
2023-09-18T18:00	21873	43	-57.4	-86.9	261	7
2023-09-18T18:00	21900	42	-57.3	-86.9	266	8
2023-09-18T18:00	21928	42	-57.4	-86.9	271	8
2023-09-18T18:00	21946	42	-57.6	-86.6	275	9
2023-09-18T18:00	21980	42	-57.7	-86.7	278	9
2023-09-18T18:00	22003	42	-57.5	-87.0	281	10
2023-09-18T18:00	22030	42	-57.4	-86.9	283	10
2023-09-18T18:00	22054	41	-57.4	-86.9	284	10
2023-09-18T18:00	22083	41	-57.4	-86.9	284	11
2023-09-18T18:00	22109	41	-57.4	-86.9	284	10
2023-09-18T18:00	22142	41	-57.0	-86.6	284	10
2023-09-18T18:00	22166	41	-57.1	-86.7	283	9
2023-09-18T18:00	22195	40	-57.3	-86.9	281	9
2023-09-18T18:00	22223	40	-57.4	-86.9	279	8
2023-09-18T18:00	22253	40	-57.3	-86.9	277	9
2023-09-18T18:00	22279	40	-57.1	-86.7	278	9
2023-09-18T18:00	22310	40	-56.9	-87.1	279	10
2023-09-18T18:00	22339	40	-56.5	-86.8	281	10
2023-09-18T18:00	22366	39	-56.5	-86.8	283	11
2023-09-18T18:00	22393	39	-56.2	-86.6	285	11
2023-09-18T18:00	22425	39	-56.1	-86.5	285	11
2023-09-18T18:00	22454	39	-56.2	-86.6	284	10
2023-09-18T18:00	22481	39	-56.0	-86.4	282	10
2023-09-18T18:00	22508	39	-55.9	-86.3	280	9
2023-09-18T18:00	22535	38	-55.9	-86.3	279	9
2023-09-18T18:00	22565	38	-56.0	-86.4	280	9
2023-09-18T18:00	22595	38	-55.8	-86.3	283	8
2023-09-18T18:00	22624	38	-55.7	-86.2	287	8
2023-09-18T18:00	22656	38	-55.5	-86.1	291	8
2023-09-18T18:00	22682	37	-55.4	-86.0	295	8
2023-09-18T18:00	22718	37	-55.5	-86.1	298	8
2023-09-18T18:00	22745	37	-55.6	-86.1	299	8
2023-09-18T18:00	22772	37	-55.8	-86.3	299	8
2023-09-18T18:00	22801	37	-55.7	-86.2	297	8
2023-09-18T18:00	22833	37	-56.0	-85.9	295	8
2023-09-18T18:00	22857	36	-56.2	-86.0	294	8
2023-09-18T18:00	22888	36	-56.5	-86.3	294	8
2023-09-18T18:00	22917	36	-56.8	-86.5	295	8
2023-09-18T18:00	22949	36	-57.0	-86.1	297	8
2023-09-18T18:00	22971	36	-57.0	-86.1	299	8
2023-09-18T18:00	23001	36	-57.1	-86.2	300	8
2023-09-18T18:00	23027	36	-57.0	-86.6	299	8
2023-09-18T18:00	23059	35	-57.1	-86.7	298	8
2023-09-18T18:00	23087	35	-57.1	-86.7	297	8
2023-09-18T18:00	23111	35	-57.2	-86.8	295	8
2023-09-18T18:00	23139	35	-57.4	-86.9	294	7
2023-09-18T18:00	23164	35	-57.5	-87.0	292	7
2023-09-18T18:00	23189	35	-57.3	-86.9	291	7
2023-09-18T18:00	23222	34	-57.4	-86.9	290	7
2023-09-18T18:00	23248	34	-57.6	-87.1	290	7
2023-09-18T18:00	23270	34	-57.7	-87.2	291	7
2023-09-18T18:00	23302	34	-57.7	-87.2	293	7
2023-09-18T18:00	23333	34	-57.4	-86.9	296	7
2023-09-18T18:00	23357	34	-57.4	-86.9	298	7
2023-09-18T18:00	23385	34	-57.4	-86.9	299	6
2023-09-18T18:00	23408	33	-57.1	-87.2	299	6
2023-09-18T18:00	23440	33	-57.0	-87.2	297	5
2023-09-18T18:00	23467	33	-56.9	-87.1	291	5
2023-09-18T18:00	23498	33	-56.8	-87.0	280	4
2023-09-18T18:00	23518	33	-56.9	-87.1	267	4
2023-09-18T18:00	23546	33	-56.6	-86.9	254	5
2023-09-18T18:00	23576	33	-56.6	-86.9	244	5
2023-09-18T18:00	23610	32	-56.3	-86.6	237	6
2023-09-18T18:00	23638	32	-56.5	-86.8	234	7
2023-09-18T18:00	23658	32	-56.7	-86.4	232	7
2023-09-18T18:00	23690	32	-56.9	-86.6	233	8
2023-09-18T18:00	23726	32	-57.0	-86.6	235	9
2023-09-18T18:00	23751	32	-57.1	-86.7	237	9
2023-09-18T18:00	23781	32	-57.3	-86.9	240	10
2023-09-18T18:00	23808	31	-57.3	-86.9	243	10
2023-09-18T18:00	23832	31	-57.6	-86.6	247	10
2023-09-18T18:00	23865	31	-57.7	-87.2	251	10
2023-09-18T18:00	23889	31	-57.9	-87.3	257	10
2023-09-18T18:00	23921	31	-57.9	-87.3	263	10
2023-09-18T18:00	23951	31	-57.6	-87.1	270	9
2023-09-18T18:00	23977	31	-57.5	-87.0	276	9
2023-09-18T18:00	24007	30	-57.2	-86.8	283	9
2023-09-18T18:00	24042	30	-57.1	-86.7	288	9
2023-09-18T18:00	24072	30	-57.3	-86.9	293	9
2023-09-18T18:00	24099	30	-57.5	-87.0	297	9
2023-09-18T18:00	24123	30	-57.5	-87.5	299	9
2023-09-18T18:00	24158	30	-57.2	-87.3	299	9
2023-09-18T18:00	24186	30	-57.0	-87.2	300	9
2023-09-18T18:00	24218	29	-57.1	-87.2	300	9
2023-09-18T18:00	24246	29	-57.2	-87.3	302	9
2023-09-18T18:00	24278	29	-57.4	-87.5	306	9
2023-09-18T18:00	24310	29	-57.3	-87.4	310	9
2023-09-18T18:00	24337	29	-57.1	-87.2	315	9
2023-09-18T18:00	24368	29	-56.9	-87.1	320	9
2023-09-18T18:00	24407	29	-56.8	-87.0	325	9
2023-09-18T18:00	24435	28	-56.8	-87.0	329	9
2023-09-18T18:00	24464	28	-56.6	-86.9	332	9
2023-09-18T18:00	24483	28	-56.9	-87.1	334	9
2023-09-18T18:00	24514	28	-57.0	-87.2	336	8
2023-09-18T18:00	24545	28	-56.8	-87.0	336	8
2023-09-18T18:00	24580	28	-56.9	-87.1	335	7
2023-09-18T18:00	24607	28	-56.9	-87.1	334	7
2023-09-18T18:00	24634	28	-57.1	-87.2	332	6
2023-09-18T18:00	24657	27	-57.1	-86.7	329	6
2023-09-18T18:00	24694	27	-57.2	-86.8	326	6
2023-09-18T18:00	24720	27	-57.2	-86.8	322	5
2023-09-18T18:00	24746	27	-57.2	-87.3	316	5
2023-09-18T18:00	24780	27	-57.1	-87.2	310	5
2023-09-18T18:00	24809	27	-57.1	-87.2	303	5
2023-09-18T18:00	24836	27	-57.0	-87.2	298	5
2023-09-18T18:00	24863	27	-56.8	-87.0	296	6
2023-09-18T18:00	24889	26	-56.8	-87.0	296	6
2023-09-18T18:00	24922	26	-56.9	-87.1	298	6
2023-09-18T18:00	24950	26	-56.8	-87.0	302	6
2023-09-18T18:00	24978	26	-56.7	-86.9	306	6
2023-09-18T18:00	25002	26	-56.5	-87.4	308	6
2023-09-18T18:00	25025	26	-56.3	-87.2	308	6
2023-09-18T18:00	25048	26	-56.1	-87.1	307	6
2023-09-18T18:00	25083	26	-55.7	-86.8	304	6
2023-09-18T18:00	25108	26	-55.7	-86.8	302	6
2023-09-18T18:00	25134	25	-55.7	-86.8	300	6
2023-09-18T18:00	25171	25	-55.5	-86.7	299	7
2023-09-18T18:00	25191	25	-55.4	-86.6	299	7
2023-09-18T18:00	25211	25	-55.4	-86.6	300	7
2023-09-18T18:00	25240	25	-55.5	-86.7	300	6
2023-09-18T18:00	25275	25	-55.5	-86.7	301	6
2023-09-18T18:00	25299	25	-55.5	-86.7	301	5
2023-09-18T18:00	25326	25	-55.7	-86.8	301	5
2023-09-18T18:00	25358	25	-55.8	-86.9	300	5
2023-09-18T18:00	25391	24	-55.8	-86.9	299	5
2023-09-18T18:00	25417	24	-55.7	-86.8	298	5
2023-09-18T18:00	25444	24	-55.7	-86.8	298	5
2023-09-18T18:00	25475	24	-55.5	-86.7	298	5
2023-09-18T18:00	25492	24	-55.2	-86.4	299	5
2023-09-18T18:00	25532	24	-54.9	-86.2	299	6
2023-09-18T18:00	25547	24	-54.8	-86.8	299	6
2023-09-18T18:00	25578	24	-54.6	-86.7	298	7
2023-09-18T18:00	25612	24	-54.6	-86.7	298	8
2023-09-18T18:00	25638	24	-54.7	-86.7	298	8
2023-09-18T18:00	25674	23	-54.4	-86.5	300	8
2023-09-18T18:00	25697	23	-54.5	-86.6	302	8
2023-09-18T18:00	25732	23	-54.1	-86.3	306	7
2023-09-18T18:00	25763	23	-53.7	-86.0	311	7
2023-09-18T18:00	25788	23	-53.6		318	6
2023-09-18T18:00	25823	23	-53.6		327	5
2023-09-18T18:00	25853	23	-53.4	-86.5	333	5
2023-09-18T18:00	25881	23	-53.2	-86.4	335	5
2023-09-18T18:00	25915	23	-52.7	-86.0	331	5
2023-09-18T18:00	25944	22	-52.2	-85.7	325	5
2023-09-18T18:00	25983	22	-52.4	-85.8	318	5
2023-09-18T18:00	26010	22	-52.4	-85.8	314	6
2023-09-18T18:00	26038	22	-52.3	-85.8	312	6
2023-09-18T18:00	26064	22	-52.4	-85.8	312	6
2023-09-18T18:00	26098	22	-52.4	-85.1	314	6
2023-09-18T18:00	26128	22	-52.2	-84.9	316	6
2023-09-18T18:00	26155	22	-52.2	-84.9	319	5
2023-09-18T18:00	26185	22	-52.1	-84.8	321	5
2023-09-18T18:00	26210	22	-52.2	-84.9	322	5
2023-09-18T18:00	26243	21	-52.1	-85.6	322	5
2023-09-18T18:00	26273	21	-52.0	-85.5	321	6
2023-09-18T18:00	26302	21	-51.8	-85.4	320	6
2023-09-18T18:00	26332	21	-51.8	-85.4	318	6
2023-09-18T18:00	26358	21	-51.9	-85.5	316	7
2023-09-18T18:00	26388	21	-51.9	-85.5	316	7
2023-09-18T18:00	26417	21	-51.9	-85.5	315	7
2023-09-18T18:00	26443	21	-51.9	-85.5	316	7
2023-09-18T18:00	26473	21	-51.8	-85.4	318	7
2023-09-18T18:00	26502	21	-51.7	-85.3	321	6
2023-09-18T18:00	26534	20	-51.6	-85.2	326	5
2023-09-18T18:00	26564	20	-51.7	-85.3	332	5
2023-09-18T18:00	26591	20	-51.8	-84.6	341	4
2023-09-18T18:00	26617	20	-52.0	-84.8	351	4
2023-09-18T18:00	26649	20	-52.1	-84.8	3	3
2023-09-18T18:00	26685	20	-52.2	-84.9	13	3
2023-09-18T18:00	26719	20	-52.5	-85.1	21	3
2023-09-18T18:00	26744	20	-52.7	-85.3	25	3
2023-09-18T18:00	26772	20	-52.8	-85.3	25	3
2023-09-18T18:00	26807	20	-52.8	-85.3	20	3
2023-09-18T18:00	26829	20	-52.9	-85.4	9	2
2023-09-18T18:00	26857	19	-52.8	-85.3	350	2
2023-09-18T18:00	26897	19	-52.7	-85.3	324	2
2023-09-18T18:00	26924	19	-52.9	-85.4	302	2
2023-09-18T18:00	26948	19	-52.7	-85.3	287	3
2023-09-18T18:00	26979	19	-52.7	-85.3	279	3
2023-09-18T18:00	27013	19	-52.5	-85.9	275	4
2023-09-18T18:00	27035	19	-52.4	-85.8	274	5
2023-09-18T18:00	27061	19	-52.5	-85.9	275	6
2023-09-18T18:00	27103	19	-52.4	-85.8	276	7
2023-09-18T18:00	27124	19	-52.2	-85.7	277	8
2023-09-18T18:00	27157	19	-52.1	-85.6	277	9
2023-09-18T18:00	27188	19	-52.1	-85.6	277	10
2023-09-18T18:00	27218	18	-52.2	-85.7	278	11
2023-09-18T18:00	27264	18	-52.2	-85.7	281	11
2023-09-18T18:00	27282	18	-52.1	-85.6	285	11
2023-09-18T18:00	27305	18	-51.8	-85.4	289	12
2023-09-18T18:00	27336	18	-51.5	-85.2	295	12
2023-09-18T18:00	27367	18	-51.3	-85.0	300	11
2023-09-18T18:00	27404	18	-51.3	-85.0	305	11
2023-09-18T18:00	27424	18	-51.3	-85.0	309	11
2023-09-18T18:00	27463	18	-51.1	-84.9	311	11
2023-09-18T18:00	27486	18	-50.9	-84.7	313	11
2023-09-18T18:00	27507	18	-50.9	-84.7	312	11
2023-09-18T18:00	27538	18	-50.8	-84.7	311	11
2023-09-18T18:00	27567	17	-50.4	-85.3	310	11
2023-09-18T18:00	27602	17	-50.4	-85.3	310	12
2023-09-18T18:00	27635	17	-50.1	-85.1	310	12
2023-09-18T18:00	27661	17	-50.0	-85.0	310	12
2023-09-18T18:00	27685	17	-49.8	-84.8	311	12
2023-09-18T18:00	27712	17	-49.6	-84.7	312	12
2023-09-18T18:00	27744	17	-49.4	-84.6	313	13
2023-09-18T18:00	27777	17	-49.3	-84.5	313	13
2023-09-18T18:00	27801	17	-49.2	-84.4	313	13
2023-09-18T18:00	27834	17	-49.4	-84.6	312	13
2023-09-18T18:00	27861	17	-49.6	-83.8	311	13
2023-09-18T18:00	27900	17	-49.9	-84.0	310	13
2023-09-18T18:00	27923	17	-50.2	-84.2	310	13
2023-09-18T18:00	27959	16	-50.2	-84.2	309	13
2023-09-18T18:00	27976	16	-50.1	-84.2	309	13
2023-09-18T18:00	28006	16	-50.1	-84.2	309	14
2023-09-18T18:00	28049	16	-50.1	-84.2	309	14
2023-09-18T18:00	28068	16	-50.2	-84.2	310	14
2023-09-18T18:00	28096	16	-50.2	-84.2	310	14
2023-09-18T18:00	28127	16	-50.3	-84.3	311	14
2023-09-18T18:00	28151	16	-50.5	-84.5	311	14
2023-09-18T18:00	28195	16	-50.5	-84.5	311	14
2023-09-18T18:00	28220	16	-50.6	-84.5	312	14
2023-09-18T18:00	28241	16	-50.5	-84.5	312	13
2023-09-18T18:00	28278	16	-50.3	-85.2	313	12
2023-09-18T18:00	28308	16	-50.1	-85.1	314	12
2023-09-18T18:00	28338	16	-49.9	-84.9	314	11
2023-09-18T18:00	28368	15	-49.9	-84.9	314	10
2023-09-18T18:00	28391	15	-49.8	-84.8	314	9
2023-09-18T18:00	28422	15	-49.8	-84.8	312	8
2023-09-18T18:00	28457	15	-49.9	-84.9	309	8
2023-09-18T18:00	28494	15	-49.8	-84.8	305	7
2023-09-18T18:00	28516	15	-49.8	-84.8	301	7
2023-09-18T18:00	28547	15	-49.8	-84.8	298	8
2023-09-18T18:00	28581	15	-49.8	-84.8	296	8
2023-09-18T18:00	28607	15	-49.6	-84.7	295	9
2023-09-18T18:00	28633	15	-49.7	-84.8	295	9
2023-09-18T18:00	28676	15	-49.7	-84.8	296	10
2023-09-18T18:00	28694	15	-49.7	-84.8	295	11
2023-09-18T18:00	28738	15	-49.6	-84.7	294	11
2023-09-18T18:00	28777	15	-49.6	-84.7	292	11
2023-09-18T18:00	28793	14	-49.8	-84.8	291	11
2023-09-18T18:00	28827	14	-49.8	-84.8	290	12
2023-09-18T18:00	28853	14	-49.8	-84.8	291	12
2023-09-18T18:00	28894	14	-49.6	-84.7	293	12
2023-09-18T18:00	28913	14	-49.7	-84.8	296	12
2023-09-18T18:00	28935	14	-49.5	-84.6	299	12
2023-09-18T18:00	28977	14	-49.6	-84.7	300	12
2023-09-18T18:00	29011	14	-49.7	-84.8	301	12
2023-09-18T18:00	29031	14	-49.5	-84.6	301	12
2023-09-18T18:00	29067	14	-49.2	-84.4	301	12
2023-09-18T18:00	29093	14	-48.9	-84.2	300	11
2023-09-18T18:00	29123	14	-48.9	-84.2	299	11
2023-09-18T18:00	29169	14	-49.0	-84.3	298	11
2023-09-18T18:00	29191	14	-49.1	-84.3	296	11
2023-09-18T18:00	29212	14	-49.2	-84.4	295	11
2023-09-18T18:00	29243	14	-49.2	-84.4	294	11
2023-09-18T18:00	29278	13	-49.1	-84.3	293	12
2023-09-18T18:00	29296	13	-49.0	-84.3	294	12
2023-09-18T18:00	29320	13	-49.0	-84.3	295	12
2023-09-18T18:00	29368	13	-49.1	-84.3	296	12
2023-09-18T18:00	29403	13	-48.9	-84.2	298	12
2023-09-18T18:00	29415	13	-48.8	-84.1	299	13
2023-09-18T18:00	29446	13	-48.6		301	13
2023-09-18T18:00	29467	13	-48.6		302	13
2023-09-18T18:00	29505	13	-48.5	-85.0	304	13
2023-09-18T18:00	29534	13	-48.1	-84.7	306	13
2023-09-18T18:00	29564	13	-47.7	-84.4	308	13
2023-09-18T18:00	29589	13	-47.3	-84.1	311	13
2023-09-18T18:00	29612	13	-47.2	-84.1	314	13
2023-09-18T18:00	29647	13	-47.2	-84.1	317	13
2023-09-18T18:00	29667	13	-47.1	-84.0	319	13
2023-09-18T18:00	29709	13	-46.9	-83.9	320	13
2023-09-18T18:00	29723	13	-47.0	-83.9	320	13
2023-09-18T18:00	29768	13	-47.2	-84.1	320	12
2023-09-18T18:00	29790	12	-46.7	-83.7	320	12
2023-09-18T18:00	29821	12	-46.8	-83.8	320	12
2023-09-18T18:00	29844	12	-46.9	-83.9	322	11
2023-09-18T18:00	29873	12	-46.7	-83.7	324	12
2023-09-18T18:00	29915	12	-46.5	-83.6	326	12
2023-09-18T18:00	29938	12	-46.4	-83.5	327	12
2023-09-18T18:00	29961	12	-46.5	-83.6	327	12
2023-09-18T18:00	30008	12	-46.4	-83.5	326	12
2023-09-18T18:00	30025	12	-46.3	-83.4	326	13
2023-09-18T18:00	30061	12	-46.2	-83.4	326	13
2023-09-18T18:00	30081	12	-46.2	-83.4	327	13
2023-09-18T18:00	30134	12	-46.1	-83.3	328	14
2023-09-18T18:00	30151	12	-46.1	-83.3	329	14
2023-09-18T18:00	30186	12	-45.9	-83.2	330	14
2023-09-18T18:00	30223	12	-46.0	-83.2	332	14
2023-09-18T18:00	30235	12	-46.1	-83.3	333	14
2023-09-18T18:00	30269	12	-46.3	-83.4	333	13
2023-09-18T18:00	30315	12	-46.4	-83.5	334	12
2023-09-18T18:00	30332	11	-46.5	-83.6	334	12
2023-09-18T18:00	30388	11	-46.7	-83.7	335	11
2023-09-18T18:00	30411	11	-46.5	-83.6	336	11
2023-09-18T18:00	30425	11	-46.6	-83.6	337	10
2023-09-18T18:00	30468	11	-46.6	-83.6	337	10
2023-09-18T18:00	30504	11	-46.7	-83.7	336	9
2023-09-18T18:00	30510	11	-46.6	-83.6	335	9
2023-09-18T18:00	30560	11	-46.4	-83.5	333	9
2023-09-18T18:00	30588	11	-46.6	-83.6	331	8
2023-09-18T18:00	30622	11	-46.6	-83.6	330	9
2023-09-18T18:00	30634	11	-46.7	-83.7	329	9
2023-09-18T18:00	30674	11	-46.5	-83.6	329	10
2023-09-18T18:00	30707	11	-46.4	-83.5	331	10
2023-09-18T18:00	30750	11	-46.2	-83.4	333	11
2023-09-18T18:00	30768	11	-46.1	-83.3	335	11
2023-09-18T18:00	30774	11	-46.1	-83.3	337	12
2023-09-18T18:00	30833	11	-46.2	-83.4	338	12
2023-09-18T18:00	30862	11	-46.2	-83.4	338	12
2023-09-18T18:00	30877	11	-46.2	-83.4	338	12
2023-09-18T18:00	30923	11	-46.2	-83.4	336	11
2023-09-18T18:00	30963	10	-46.3	-83.4	334	11
2023-09-18T18:00	30982	10	-46.1	-83.3	330	10
2023-09-18T18:00	30991	10	-46.1	-83.3	326	10
2023-09-18T18:00	31060	10	-46.2	-83.4	321	9
2023-09-18T18:00	31085	10	-46.2	-83.4	317	9
2023-09-18T18:00	31117	10	-46.1	-83.3	313	9
2023-09-18T18:00	31131	10	-46.2	-83.4	310	8
2023-09-18T18:00	31165	10	-46.4	-83.5	309	8
2023-09-18T18:00	31196	10	-46.6	-83.6	309	8
2023-09-18T18:00	31238	10	-46.6	-83.6	311	8
2023-09-18T18:00	31275	10	-46.8	-83.8	314	9
2023-09-18T18:00	31305	10	-46.9	-83.9	316	9
2023-09-18T18:00	31323	10	-47.0	-83.9	317	9
2023-09-18T18:00	31338	10	-47.2	-84.1	318	9
2023-09-18T18:00	31403	10	-47.2	-84.1	318	9
2023-09-18T18:00	31414	10	-47.0	-83.9	318	9
2023-09-18T18:00	31438	10	-46.6	-83.6	318	9
2023-09-18T18:00	31488	10	-46.3	-83.4	317	9
2023-09-18T18:00	31533	10	-45.7	-83.0	315	9
2023-09-18T18:00	31575	10	-45.6	-82.9	313	9
2023-09-18T18:00	31599	10	-45.7	-83.0	309	9
2023-09-18T18:00	31634	9	-45.6	-82.9	305	9
2023-09-18T18:00	31650	9	-45.7	-83.0	301	9
2023-09-18T18:00	31688	9	-45.9	-83.2	296	9
2023-09-18T18:00	31725	9	-45.9	-83.2	292	9
2023-09-18T18:00	31737	9	-45.8	-83.1	289	9
2023-09-18T18:00	31786	9	-45.5	-82.9	287	10
2023-09-18T18:00	31817	9	-45.3	-82.7	286	10
2023-09-18T18:00	31838	9	-45.2	-82.7	286	11
2023-09-18T18:00	31871	9	-45.2	-82.7	287	12
2023-09-18T18:00	31912	9	-45.3	-82.7	287	12
2023-09-18T18:00	31930	9	-45.3	-82.7	288	13
2023-09-18T18:00	31974	9	-45.3	-82.7	290	13
2023-09-18T18:00	31993	9	-45.2	-82.7	292	14
2023-09-18T18:00	32002	9	-44.9	-82.5	294	14
2023-09-18T18:00	32041	9	-44.6	-82.2	297	13
2023-09-18T18:00	32078	9	-44.5	-82.2	300	13
2023-09-18T18:00	32118	9	-44.6	-82.2	303	12
2023-09-18T18:00	32148	9	-44.8	-82.4	306	12
2023-09-18T18:00	32169	9	-44.9	-82.5	310	11
2023-09-18T18:00	32216	9	-45.1	-82.6	313	11
2023-09-18T18:00	32248	9	-45.1	-82.6	316	11
2023-09-18T18:00	32273	9	-44.9	-82.5	317	11
2023-09-18T18:00	32309	9	-45.0	-82.5	318	11
2023-09-18T18:00	32320	9	-45.0	-82.5	316	10
2023-09-18T18:00	32377	8	-44.9	-82.5	314	10
2023-09-18T18:00	32429	8	-44.6	-82.2	309	11
2023-09-18T18:00	32441	8	-44.6	-82.2	308	11
2023-09-18T18:00	32505	8	-44.6	-82.2	308	11
2023-09-18T18:00	32516	8	-44.3	-82.0	310	11
2023-09-18T18:00	32537	8	-44.2	-82.0	312	11
2023-09-18T18:00	32553	8	-44.2	-82.0	313	11
2023-09-18T18:00	32605	8	-44.0	-81.8	313	11
2023-09-18T18:00	32629	8	-43.6	-81.5	311	11
2023-09-18T18:00	32660	8	-43.2	-81.3	310	11
2023-09-18T18:00	32698	8	-43.2	-81.3	309	11
2023-09-18T18:00	32742	8	-43.2	-81.3	309	11
2023-09-18T18:00	32762	8	-43.1	-81.2	310	11
2023-09-18T18:00	32805	8	-42.9	-81.1	312	11
2023-09-18T18:00	32842	8	-42.8	-81.0	314	11
2023-09-18T18:00	32843	8	-42.9	-81.1	316	11
2023-09-18T18:00	32886	8	-42.9	-81.1	317	11
2023-09-18T18:00	32911	8	-43.0	-81.1	318	11
2023-09-18T18:00	32930	8	-43.0	-81.1	317	11
2023-09-18T18:00	32989	8	-42.9	-81.1	316	11
2023-09-18T18:00	33017	8	-42.3	-80.6	314	11
2023-09-18T18:00	33038	8	-42.5	-80.8	311	11
2023-09-18T18:00	33073	8	-42.7	-80.9	309	11
2023-09-18T18:00	33111	8	-42.4	-80.7	307	11
2023-09-18T18:00	33150	8	-42.3	-80.6	307	10
2023-09-18T18:00	33170	8	-42.2	-80.6	307	10
2023-09-18T18:00	33203	7	-42.1	-80.5	309	9
2023-09-18T18:00	33251	7	-42.1	-80.5	311	9
2023-09-18T18:00	33271	7	-42.1	-80.5	313	9
2023-09-18T18:00	33283	7	-42.0	-80.4	316	9
2023-09-18T18:00	33331	7	-41.7	-80.2	317	8
2023-09-18T18:00	33357	7	-41.7	-80.2	318	8
2023-09-18T18:00	33370	7	-41.6	-80.1	317	8
2023-09-18T18:00	33410	7	-41.7	-80.2	315	8
2023-09-18T18:00	33429	7	-41.6	-80.1	312	8
2023-09-18T18:00	33441	7	-41.2	-79.9	308	8
2023-09-18T18:00	33507	7	-41.0	-79.7	304	8
2023-09-18T18:00	33520	7	-41.1	-79.8	299	8
2023-09-18T18:00	33544	7	-40.9	-79.7	295	8
2023-09-18T18:00	33577	7	-40.7	-79.5	292	8
2023-09-18T18:00	33591	7	-40.6	-79.5	290	8
2023-09-18T18:00	33656	7	-40.6	-79.5	289	8
2023-09-18T18:00	33675	7	-39.8	-78.9	288	8
2023-09-18T18:00	33710	7	-39.3	-78.5	288	9
2023-09-18T18:00	33733	7	-39.2	-78.5	288	9
2023-09-18T18:00	33762	7	-38.9	-78.3	288	9
2023-09-18T18:00	33789	7	-38.7	-78.1	288	9
2023-09-18T18:00	33811	7	-38.3	-77.9	289	9
2023-09-18T18:00	33858	7	-37.9	-77.6	291	9
2023-09-18T18:00	33889	7	-37.7	-77.4	293	9
2023-09-18T18:00	33914	7	-37.6	-77.4	294	9
2023-09-18T18:00	33945	7	-36.9	-76.9	292	9
2023-09-18T18:00	33993	7	-36.6	-76.7	290	9
2023-09-18T18:00	34043	7	-36.5	-76.6	288	9
2023-09-18T18:00	34059	7	-36.4	-76.5	286	8
2023-09-18T18:00	34072	7	-36.4	-76.5	284	8
2023-09-18T18:00	34103	7	-36.4	-76.5	283	8
2023-09-18T18:00	34125	7	-36.3	-76.5	281	7
2023-09-18T18:00	34174	7	-36.4	-76.5	281	7
2023-09-18T18:00	34177	6	-36.5	-76.6	280	6
2023-09-18T18:00	34215	6	-36.5	-76.6	281	6
2023-09-18T18:00	34266	6	-36.4	-76.5	282	6
2023-09-18T18:00	34271	6	-36.4	-76.5	283	5
2023-09-18T18:00	34314	6	-36.1	-76.3	284	6
2023-09-18T18:00	34345	6	-36.0	-76.3	286	6
2023-09-18T18:00	34375	6	-36.0	-76.3	289	6
2023-09-18T18:00	34405	6	-36.0	-76.3	293	7
2023-09-18T18:00	34465	6	-35.9	-76.2	297	7
2023-09-18T18:00	34492	6	-35.2	-75.7	302	9
2023-09-18T18:00	34581	6	-35.1	-75.6	301	9
2023-09-18T18:00	34599	6	-35.2	-75.7	294	9
2023-09-18T18:00	34621	6	-35.1	-75.6	290	9
2023-09-18T18:00	34681	6	-34.6	-75.3	285	9
2023-09-18T18:00	34699	6	-34.4	-75.2	282	8
2023-09-18T18:00	34720	6	-34.3	-75.1	278	8
2023-09-18T18:00	34760	6	-34.2	-75.0	275	7
2023-09-18T18:00	34810	6	-34.1	-75.0	271	7
2023-09-18T18:00	34841	6	-34.0	-74.9	267	7
2023-09-18T18:00	34890	6	-34.2	-75.0	262	6
2023-09-18T18:00	34915	6	-34.3	-75.1	257	6
2023-09-18T18:00	34941	6	-34.4	-75.2	249	6
2023-09-18T18:00	34973	6	-34.4	-75.2	245	6
2023-09-18T18:00	34992	6	-34.5	-75.2	241	7
2023-09-18T18:00	35033	6	-34.6	-75.3	237	7
2023-09-18T18:00	35063	6	-34.7	-75.4	234	7
2023-09-18T18:00	35095	6	-34.9	-75.5	231	7
2023-09-18T18:00	35118	6	-35.0	-75.6	231	7
2023-09-18T18:00	35158	6	-35.1	-75.6	232	7
2023-09-18T18:00	35217	6	-35.0	-75.6	235	8
2023-09-18T18:00	35230	6	-34.9	-75.5	239	8
2023-09-18T18:00	35262	6	-35.1	-75.6	247	9
2023-09-18T18:00	35313	6	-35.2	-75.7	251	9
2023-09-18T18:00	35330	6	-35.3	-75.8	255	9
2023-09-18T18:00	35376	5	-35.2	-75.7	259	9
2023-09-18T18:00	35396	5	-35.2	-75.7	263	9
2023-09-18T18:00	35405	5	-35.1	-75.6	266	9
2023-09-18T18:00	35421	5	-34.7	-75.4	269	9
2023-09-18T18:00	35435	5	-34.6	-75.3	271	9
2023-09-18T18:00	35493	5	-34.6	-75.3	272	9
2023-09-18T18:00	35515	5	-34.6	-75.3	272	9
2023-09-18T18:00	35538	5	-34.6	-75.3	271	9
2023-09-18T18:00	35589	5	-34.8	-75.4	269	10
2023-09-18T18:00	35596	5	-34.8	-75.4	268	11
2023-09-18T18:00	35607	5	-35.0	-75.6	268	11
2023-09-18T18:00	35664	5	-35.0	-75.6	268	11
2023-09-18T18:00	35704	5	-34.8	-75.4	270	11
2023-09-18T18:00	35740	5	-34.8	-75.4	271	10
2023-09-18T18:00	35762	5	-34.8	-75.4	272	10
2023-09-18T18:00	35821	5	-34.7	-75.4	272	10
2023-09-18T18:00	35825	5	-34.9	-75.5	273	10
2023-09-18T18:00	35844	5	-35.0	-75.6	272	10
2023-09-18T18:00	35867	5	-35.0	-75.6	271	10
2023-09-18T18:00	35886	5	-34.9	-75.5	270	10
2023-09-18T18:00	35902	5	-34.9	-75.5	268	10
2023-09-18T18:00	35961	5	-35.1	-75.6	268	10
2023-09-18T18:00	35963	5	-35.2	-75.7	268	10
2023-09-19T00:00	112	995	16.6	16.3	170	3
2023-09-19T00:00	138	992	16.9	16.6	186	4
2023-09-19T00:00	168	988	17.1	16.3	185	6
2023-09-19T00:00	203	984	17.1	16.2	187	8
2023-09-19T00:00	233	981	16.9	16.1	191	9
2023-09-19T00:00	263	977	16.7	16.0	197	9
2023-09-19T00:00	292	974	17.0	15.6	204	10
2023-09-19T00:00	327	970	16.9	15.4	211	10
2023-09-19T00:00	359	966	16.9	15.0	218	11
2023-09-19T00:00	387	963	16.8	14.9	223	11
2023-09-19T00:00	418	960	16.6	14.7	227	11
2023-09-19T00:00	449	956	16.6	14.4	231	12
2023-09-19T00:00	481	953	16.5	14.3	235	12
2023-09-19T00:00	506	950	16.5	14.2	240	12
2023-09-19T00:00	535	947	16.7	14.0	246	13
2023-09-19T00:00	563	944	16.6	13.6	252	14
2023-09-19T00:00	588	941	17.2	13.2	256	14
2023-09-19T00:00	609	938	17.4	13.1	259	15
2023-09-19T00:00	635	935	17.2	13.1	260	15
2023-09-19T00:00	673	932	16.9	12.8	260	14
2023-09-19T00:00	698	929	16.9	12.6	259	14
2023-09-19T00:00	722	926	16.8	12.6	259	13
2023-09-19T00:00	749	923	16.6	12.4	259	13
2023-09-19T00:00	778	920	16.4	12.1	259	13
2023-09-19T00:00	806	917	16.2	12.0	258	12
2023-09-19T00:00	837	914	16.0	11.7	258	12
2023-09-19T00:00	862	911	15.9	11.7	257	12
2023-09-19T00:00	891	908	15.7	11.6	256	12
2023-09-19T00:00	920	905	15.5	11.2	254	12
2023-09-19T00:00	947	902	15.3	10.7	253	12
2023-09-19T00:00	981	898	15.1	10.6	252	12
2023-09-19T00:00	1014	895	14.8	10.4	252	11
2023-09-19T00:00	1041	892	14.6	10.2	252	11
2023-09-19T00:00	1069	889	14.3	10.1	253	11
2023-09-19T00:00	1100	886	14.1	9.8	253	11
2023-09-19T00:00	1126	883	13.8	9.8	253	11
2023-09-19T00:00	1156	880	13.6	9.5	254	11
2023-09-19T00:00	1187	877	13.3	9.3	255	11
2023-09-19T00:00	1217	874	13.1	9.1	256	11
2023-09-19T00:00	1251	870	12.9	8.3	257	10
2023-09-19T00:00	1279	867	12.7	8.1	257	10
2023-09-19T00:00	1313	864	12.4	7.7	255	10
2023-09-19T00:00	1341	861	12.2	7.5	253	9
2023-09-19T00:00	1374	858	12.1	7.2	249	9
2023-09-19T00:00	1402	855	12.0	6.7	246	9
2023-09-19T00:00	1432	852	11.8	6.7	244	10
2023-09-19T00:00	1458	849	11.6	6.2	243	10
2023-09-19T00:00	1491	846	11.4	5.9	242	10
2023-09-19T00:00	1513	843	11.2	5.8	242	10
2023-09-19T00:00	1539	841	11.0	5.8	241	10
2023-09-19T00:00	1567	838	10.8	5.7	240	10
2023-09-19T00:00	1590	836	10.6	5.3	238	10
2023-09-19T00:00	1617	833	10.6	4.6	237	11
2023-09-19T00:00	1647	830	10.6	3.8	237	11
2023-09-19T00:00	1676	827	10.4	3.8	236	12
2023-09-19T00:00	1711	824	10.1	4.2	236	12
2023-09-19T00:00	1744	820	10.0	3.3	235	12
2023-09-19T00:00	1775	817	9.9	4.3	235	12
2023-09-19T00:00	1807	814	9.7	4.6	235	12
2023-09-19T00:00	1838	811	9.4	4.2	235	12
2023-09-19T00:00	1862	809	9.3	3.9	235	12
2023-09-19T00:00	1889	806	9.0	4.0	235	12
2023-09-19T00:00	1918	803	8.8	4.1	234	12
2023-09-19T00:00	1948	800	8.5	4.4	232	12
2023-09-19T00:00	1981	797	8.1	4.8	231	12
2023-09-19T00:00	2011	794	7.8	5.1	230	12
2023-09-19T00:00	2038	792	7.8	4.5	229	12
2023-09-19T00:00	2069	789	7.9	3.8	230	12
2023-09-19T00:00	2101	786	7.6	3.6	231	12
2023-09-19T00:00	2136	783	7.4	2.8	233	12
2023-09-19T00:00	2165	780	7.3	1.9	235	13
2023-09-19T00:00	2191	777	7.2	0.7	237	13
2023-09-19T00:00	2216	775	7.1	0.1	238	13
2023-09-19T00:00	2241	773	7.0	-0.4	238	13
2023-09-19T00:00	2264	770	7.1	-1.3	238	13
2023-09-19T00:00	2288	768	7.1	-2.5	237	13
2023-09-19T00:00	2314	766	7.1	-2.1	235	14
2023-09-19T00:00	2339	763	7.1	-2.4	234	14
2023-09-19T00:00	2367	761	7.1	-2.4	232	14
2023-09-19T00:00	2401	758	6.8	-2.5	231	14
2023-09-19T00:00	2435	754	6.7	-3.1	230	14
2023-09-19T00:00	2464	752	6.6	-3.6	229	14
2023-09-19T00:00	2497	749	6.4	-3.6	229	14
2023-09-19T00:00	2523	746	6.3	-4.9	229	14
2023-09-19T00:00	2555	744	6.1	-5.2	229	14
2023-09-19T00:00	2579	741	5.9	-5.2	228	15
2023-09-19T00:00	2604	739	5.7	-5.3	227	15
2023-09-19T00:00	2628	737	5.5	-5.4	227	15
2023-09-19T00:00	2653	735	5.2	-5.5	226	15
2023-09-19T00:00	2680	732	5.0	-5.4	225	15
2023-09-19T00:00	2711	729	4.7	-5.4	225	15
2023-09-19T00:00	2745	726	4.4	-5.5	224	15
2023-09-19T00:00	2781	723	4.1	-5.7	224	15
2023-09-19T00:00	2811	721	3.8	-5.0	224	15
2023-09-19T00:00	2840	718	3.6	-5.5	225	15
2023-09-19T00:00	2881	715	3.2	-5.9	225	15
2023-09-19T00:00	2910	712	3.0	-6.1	225	15
2023-09-19T00:00	2940	709	2.6	-5.0	225	15
2023-09-19T00:00	2964	707	2.6	-5.6	225	15
2023-09-19T00:00	2991	705	2.5	-5.9	225	15
2023-09-19T00:00	3021	702	2.8	-7.7	225	15
2023-09-19T00:00	3049	700	2.7	-6.7	225	14
2023-09-19T00:00	3080	697	2.6	-8.0	225	14
2023-09-19T00:00	3115	694	2.6	-14.2	224	14
2023-09-19T00:00	3147	691	2.5	-16.1	224	14
2023-09-19T00:00	3181	688	2.2	-16.3	222	14
2023-09-19T00:00	3210	686	2.1	-17.2	221	14
2023-09-19T00:00	3231	684	2.1	-18.0	220	14
2023-09-19T00:00	3262	682	2.0	-18.1	220	15
2023-09-19T00:00	3290	679	1.8	-18.2	220	15
2023-09-19T00:00	3316	677	1.7	-18.2	221	15
2023-09-19T00:00	3342	675	1.5	-18.3	222	15
2023-09-19T00:00	3370	672	1.3	-18.6	223	14
2023-09-19T00:00	3393	670	1.1	-19.2	223	14
2023-09-19T00:00	3421	668	0.9	-20.5	223	14
2023-09-19T00:00	3451	666	0.7	-21.5	222	14
2023-09-19T00:00	3479	663	0.5	-22.4	221	14
2023-09-19T00:00	3504	661	0.4	-23.7	220	13
2023-09-19T00:00	3539	658	0.2	-24.4	219	13
2023-09-19T00:00	3570	656	0.0	-25.7	218	13
2023-09-19T00:00	3591	654	-0.1	-25.9	218	13
2023-09-19T00:00	3614	652	-0.2	-25.4	219	13
2023-09-19T00:00	3644	650	-0.3	-25.0	220	14
2023-09-19T00:00	3676	647	-0.6	-25.0	222	14
2023-09-19T00:00	3707	645	-0.9	-25.1	223	14
2023-09-19T00:00	3743	642	-1.2	-25.2	223	15
2023-09-19T00:00	3780	639	-1.3	-24.4	222	15
2023-09-19T00:00	3806	637	-1.6	-24.4	222	15
2023-09-19T00:00	3836	634	-1.8	-23.9	222	15
2023-09-19T00:00	3863	632	-2.0	-24.1	222	15
2023-09-19T00:00	3890	630	-2.3	-22.7	223	16
2023-09-19T00:00	3918	628	-2.5	-21.1	223	16
2023-09-19T00:00	3951	625	-2.6	-20.5	224	16
2023-09-19T00:00	3978	623	-2.7	-21.3	223	17
2023-09-19T00:00	4010	621	-2.7	-21.6	223	17
2023-09-19T00:00	4036	619	-2.6	-20.5	223	17
2023-09-19T00:00	4062	616	-2.7	-17.4	222	17
2023-09-19T00:00	4093	614	-3.0	-16.1	222	16
2023-09-19T00:00	4119	612	-3.0	-17.8	221	16
2023-09-19T00:00	4152	610	-3.1	-16.2	221	16
2023-09-19T00:00	4183	607	-3.2	-16.4	221	16
2023-09-19T00:00	4212	605	-3.5	-16.7	221	16
2023-09-19T00:00	4240	603	-3.8	-16.6	220	16
2023-09-19T00:00	4275	600	-4.0	-17.9	219	16
2023-09-19T00:00	4310	598	-4.3	-18.9	219	15
2023-09-19T00:00	4341	595	-4.6		219	15
2023-09-19T00:00	4380	592	-4.9	-21.7	219	15
2023-09-19T00:00	4409	590	-5.1	-18.3	219	15
2023-09-19T00:00	4434	588	-5.4	-17.0	219	15
2023-09-19T00:00	4459	586	-5.6	-16.3	219	16
2023-09-19T00:00	4489	584	-5.8	-16.5	219	16
2023-09-19T00:00	4519	582	-6.1	-16.5	218	16
2023-09-19T00:00	4554	579	-6.4	-16.1	218	17
2023-09-19T00:00	4581	577	-6.6	-16.8	217	17
2023-09-19T00:00	4603	576	-6.7	-17.7	215	17
2023-09-19T00:00	4622	574	-6.8	-17.8	214	17
2023-09-19T00:00	4650	572	-7.0	-17.7	213	17
2023-09-19T00:00	4679	570	-7.2	-17.8	212	17
2023-09-19T00:00	4708	568	-7.3	-17.9	212	17
2023-09-19T00:00	4740	566	-7.4	-17.8	212	17
2023-09-19T00:00	4769	563	-7.4	-19.7	212	17
2023-09-19T00:00	4795	561	-7.5	-22.2	213	17
2023-09-19T00:00	4827	559	-7.5	-29.8	213	16
2023-09-19T00:00	4856	557	-7.4	-33.4	213	17
2023-09-19T00:00	4884	555	-7.2	-38.6	214	17
2023-09-19T00:00	4910	553	-7.3	-38.5	215	17
2023-09-19T00:00	4938	551	-7.2	-38.6	215	18
2023-09-19T00:00	4969	549	-7.2	-35.5	215	18
2023-09-19T00:00	4996	547	-7.1	-34.6	215	18
2023-09-19T00:00	5022	545	-6.8	-36.5	214	18
2023-09-19T00:00	5047	544	-6.9	-37.1	213	17
2023-09-19T00:00	5072	542	-7.0	-37.5	213	17
2023-09-19T00:00	5105	540	-7.1	-38.2	212	17
2023-09-19T00:00	5138	537	-7.4	-38.4	211	17
2023-09-19T00:00	5168	535	-7.7	-38.5	211	17
2023-09-19T00:00	5192	534	-7.8	-38.4	211	17
2023-09-19T00:00	5217	532	-8.0	-38.2	211	17
2023-09-19T00:00	5248	530	-8.2	-37.8	212	17
2023-09-19T00:00	5278	528	-8.5	-37.5	213	17
2023-09-19T00:00	5307	526	-8.8	-37.5	213	17
2023-09-19T00:00	5338	524	-9.1	-37.4	212	17
2023-09-19T00:00	5369	521	-9.4	-38.3	212	17
2023-09-19T00:00	5400	519	-9.7	-38.3	211	17
2023-09-19T00:00	5429	517	-10.0	-38.7	211	17
2023-09-19T00:00	5460	515	-10.3	-38.5	211	17
2023-09-19T00:00	5485	514	-10.5	-38.1	212	17
2023-09-19T00:00	5511	512	-10.7	-36.9	213	17
2023-09-19T00:00	5540	510	-11.0	-36.5	215	17
2023-09-19T00:00	5571	508	-11.2	-36.2	215	17
2023-09-19T00:00	5602	506	-11.5	-36.6	216	17
2023-09-19T00:00	5631	504	-11.7	-36.6	215	17
2023-09-19T00:00	5661	502	-11.9	-36.9	215	17
2023-09-19T00:00	5690	500	-12.0	-37.4	215	17
2023-09-19T00:00	5721	498	-12.2	-37.7	214	17
2023-09-19T00:00	5747	496	-12.5	-37.9	214	17
2023-09-19T00:00	5779	494	-12.6	-38.1	213	18
2023-09-19T00:00	5810	492	-12.8	-37.8	213	18
2023-09-19T00:00	5837	491	-13.0	-37.7	213	18
2023-09-19T00:00	5868	489	-13.0	-36.7	214	18
2023-09-19T00:00	5895	487	-13.1	-36.6	215	19
2023-09-19T00:00	5922	485	-13.3	-35.6	215	19
2023-09-19T00:00	5953	483	-13.2	-25.1	216	19
2023-09-19T00:00	5980	481	-13.4	-21.5	216	19
2023-09-19T00:00	6008	480	-13.6	-21.4	216	20
2023-09-19T00:00	6038	478	-13.9	-21.5	216	20
2023-09-19T00:00	6067	476	-14.2	-21.6	216	20
2023-09-19T00:00	6090	475	-14.4	-21.6	216	20
2023-09-19T00:00	6119	473	-14.7	-20.9	216	20
2023-09-19T00:00	6143	471	-14.9	-20.9	216	21
2023-09-19T00:00	6171	469	-15.1	-20.8	216	21
2023-09-19T00:00	6200	468	-15.2	-20.6	216	21
2023-09-19T00:00	6231	466	-15.3	-20.8	216	21
2023-09-19T00:00	6255	464	-15.5	-21.1	215	21
2023-09-19T00:00	6283	463	-15.6	-21.3	215	21
2023-09-19T00:00	6312	461	-15.8	-21.2	215	21
2023-09-19T00:00	6339	459	-16.1	-21.2	215	21
2023-09-19T00:00	6369	457	-16.3	-21.2	215	21
2023-09-19T00:00	6395	456	-16.5	-21.3	215	21
2023-09-19T00:00	6426	454	-16.8	-21.6	215	21
2023-09-19T00:00	6460	452	-17.0	-21.7	215	21
2023-09-19T00:00	6494	450	-17.3	-22.0	215	21
2023-09-19T00:00	6520	448	-17.5	-22.2	216	20
2023-09-19T00:00	6551	446	-17.7	-22.3	216	20
2023-09-19T00:00	6583	444	-17.9	-22.8	217	20
2023-09-19T00:00	6619	443	-18.2	-23.2	217	20
2023-09-19T00:00	6645	441	-18.4	-23.6	217	20
2023-09-19T00:00	6674	439	-18.5	-23.9	217	21
2023-09-19T00:00	6702	437	-18.7	-24.5	217	21
2023-09-19T00:00	6730	436	-18.9	-24.7	218	21
2023-09-19T00:00	6758	434	-19.2	-25.0	218	21
2023-09-19T00:00	6784	433	-19.4	-25.1	218	21
2023-09-19T00:00	6814	431	-19.6	-25.1	219	21
2023-09-19T00:00	6840	429	-19.9	-25.5	220	21
2023-09-19T00:00	6867	428	-20.1	-25.4	220	21
2023-09-19T00:00	6897	426	-20.4	-25.6	219	21
2023-09-19T00:00	6933	424	-20.7	-25.4	218	21
2023-09-19T00:00	6963	422	-20.9	-25.3	216	21
2023-09-19T00:00	6996	421	-21.1	-25.4	214	21
2023-09-19T00:00	7026	419	-21.2	-25.3	212	22
2023-09-19T00:00	7050	417	-21.4	-25.4	212	22
2023-09-19T00:00	7082	416	-21.6	-25.5	211	22
2023-09-19T00:00	7115	414	-21.8	-26.2	211	23
2023-09-19T00:00	7146	412	-22.0	-26.5	211	23
2023-09-19T00:00	7185	410	-22.2	-26.7	211	22
2023-09-19T00:00	7218	408	-22.5	-27.1	210	22
2023-09-19T00:00	7253	406	-22.7	-27.5	210	21
2023-09-19T00:00	7284	404	-23.0	-27.8	209	21
2023-09-19T00:00	7316	403	-23.3	-27.8	209	21
2023-09-19T00:00	7349	401	-23.7	-27.9	210	21
2023-09-19T00:00	7383	399	-24.0	-28.0	210	20
2023-09-19T00:00	7408	398	-24.2	-28.0	209	20
2023-09-19T00:00	7435	396	-24.5	-28.2	208	20
2023-09-19T00:00	7471	394	-24.8	-28.3	207	20
2023-09-19T00:00	7499	393	-25.1	-28.4	205	20
2023-09-19T00:00	7526	391	-25.3	-28.4	204	20
2023-09-19T00:00	7558	389	-25.6	-28.7	203	20
2023-09-19T00:00	7586	388	-25.9	-29.4	203	20
2023-09-19T00:00	7620	386	-25.8	-31.4	203	20
2023-09-19T00:00	7648	385	-25.8	-32.4	204	20
2023-09-19T00:00	7683	383	-25.8	-32.3	205	20
2023-09-19T00:00	7703	382	-25.9	-32.6	206	20
2023-09-19T00:00	7725	380	-26.1	-32.7	206	20
2023-09-19T00:00	7757	379	-26.4	-32.7	206	20
2023-09-19T00:00	7796	377	-26.6	-32.9	206	21
2023-09-19T00:00	7824	375	-26.9	-33.0	205	21
2023-09-19T00:00	7860	374	-27.2	-33.0	204	22
2023-09-19T00:00	7890	372	-27.5	-33.0	204	22
2023-09-19T00:00	7926	370	-27.9	-33.2	204	22
2023-09-19T00:00	7961	368	-28.2	-33.2	205	22
2023-09-19T00:00	8003	366	-28.6	-33.3	206	22
2023-09-19T00:00	8036	364	-28.9	-33.3	207	22
2023-09-19T00:00	8073	362	-29.3	-33.5	208	22
2023-09-19T00:00	8117	360	-29.7	-33.6	209	22
2023-09-19T00:00	8149	359	-30.0	-33.7	209	22
2023-09-19T00:00	8185	357	-30.4	-33.9	209	23
2023-09-19T00:00	8221	355	-30.7	-34.0	209	23
2023-09-19T00:00	8263	353	-31.1	-34.2	208	24
2023-09-19T00:00	8295	351	-31.3	-34.3	209	24
2023-09-19T00:00	8323	350	-31.6	-34.4	209	25
2023-09-19T00:00	8362	348	-31.9	-34.9	209	25
2023-09-19T00:00	8399	346	-32.2	-35.3	209	24
2023-09-19T00:00	8432	345	-32.4	-35.6	209	24
2023-09-19T00:00	8467	343	-32.6	-35.9	209	23
2023-09-19T00:00	8500	341	-32.8	-36.0	208	22
2023-09-19T00:00	8528	340	-33.1	-36.2	209	22
2023-09-19T00:00	8560	338	-33.3	-36.5	209	22
2023-09-19T00:00	8595	337	-33.6	-36.7	209	23
2023-09-19T00:00	8627	335	-33.9	-36.9	209	23
2023-09-19T00:00	8659	334	-34.2	-37.2	209	23
2023-09-19T00:00	8688	332	-34.4	-37.4	209	23
2023-09-19T00:00	8712	331	-34.6	-37.5	209	23
2023-09-19T00:00	8740	330	-34.9	-37.6	209	22
2023-09-19T00:00	8772	328	-35.1	-37.8	209	22
2023-09-19T00:00	8798	327	-35.3		209	22
2023-09-19T00:00	8829	326	-35.6	-38.2	208	22
2023-09-19T00:00	8861	324	-35.9	-38.4	208	22
2023-09-19T00:00	8896	323	-36.1	-38.7	208	22
2023-09-19T00:00	8928	321	-36.4	-39.0	207	22
2023-09-19T00:00	8964	319	-36.7	-39.4	206	22
2023-09-19T00:00	8994	318	-36.9	-39.7	205	21
2023-09-19T00:00	9027	317	-37.2	-40.1	204	21
2023-09-19T00:00	9056	315	-37.4	-40.4	204	21
2023-09-19T00:00	9084	314	-37.6	-41.0	204	21
2023-09-19T00:00	9117	312	-37.9	-41.4	205	21
2023-09-19T00:00	9153	311	-38.2	-41.7	206	21
2023-09-19T00:00	9189	309	-38.5	-41.9	206	21
2023-09-19T00:00	9218	308	-38.7	-41.9	206	21
2023-09-19T00:00	9252	306	-39.0	-42.2	206	21
2023-09-19T00:00	9280	305	-39.2	-42.9	205	21
2023-09-19T00:00	9304	304	-39.4	-43.3	204	21
2023-09-19T00:00	9337	303	-39.7	-43.8	204	20
2023-09-19T00:00	9368	301	-39.9	-44.4	203	20
2023-09-19T00:00	9393	300	-40.2	-45.0	203	20
2023-09-19T00:00	9423	299	-40.4	-44.9	203	20
2023-09-19T00:00	9449	298	-40.7	-44.9	202	21
2023-09-19T00:00	9485	296	-40.9	-45.1	202	21
2023-09-19T00:00	9518	295	-41.2	-45.4	202	21
2023-09-19T00:00	9552	293	-41.6	-45.8	201	20
2023-09-19T00:00	9589	292	-42.0	-45.8	201	20
2023-09-19T00:00	9611	291	-42.2	-45.9	200	20
2023-09-19T00:00	9639	289	-42.4	-46.1	200	20
2023-09-19T00:00	9669	288	-42.7	-46.1	200	20
2023-09-19T00:00	9696	287	-42.9	-46.2	201	20
2023-09-19T00:00	9724	286	-43.1	-46.7	201	19
2023-09-19T00:00	9753	285	-43.4	-47.0	202	20
2023-09-19T00:00	9779	283	-43.6	-47.1	202	20
2023-09-19T00:00	9807	282	-43.9	-47.3	202	20
2023-09-19T00:00	9842	281	-44.2	-47.5	202	21
2023-09-19T00:00	9865	280	-44.4	-47.7	202	21
2023-09-19T00:00	9889	279	-44.6	-47.7	201	21
2023-09-19T00:00	9914	278	-44.8	-47.9	201	21
2023-09-19T00:00	9941	277	-45.0	-48.2	201	21
2023-09-19T00:00	9971	275	-45.2	-48.5	201	21
2023-09-19T00:00	10001	274	-45.5	-48.8	201	22
2023-09-19T00:00	10025	273	-45.7	-49.1	201	22
2023-09-19T00:00	10050	272	-45.9	-49.5	201	22
2023-09-19T00:00	10074	271	-46.1	-49.8	201	22
2023-09-19T00:00	10100	270	-46.4	-50.1	200	22
2023-09-19T00:00	10126	269	-46.6	-50.3	200	23
2023-09-19T00:00	10153	268	-46.8	-50.7	200	23
2023-09-19T00:00	10176	267	-46.9	-51.0	199	23
2023-09-19T00:00	10198	266	-47.1	-51.2	199	23
2023-09-19T00:00	10222	265	-47.3	-51.4	199	23
2023-09-19T00:00	10248	264	-47.5	-51.6	199	23
2023-09-19T00:00	10274	263	-47.7	-51.8	199	23
2023-09-19T00:00	10296	262	-47.9	-52.1	199	23
2023-09-19T00:00	10320	261	-48.1	-52.4	199	23
2023-09-19T00:00	10346	260	-48.4	-52.6	199	23
2023-09-19T00:00	10376	259	-48.6	-52.8	199	23
2023-09-19T00:00	10399	258	-48.9	-53.1	198	23
2023-09-19T00:00	10424	257	-49.1	-53.3	198	23
2023-09-19T00:00	10449	256	-49.3	-53.4	198	23
2023-09-19T00:00	10476	255	-49.6	-53.7	199	23
2023-09-19T00:00	10505	254	-49.9	-53.9	199	23
2023-09-19T00:00	10543	253	-50.2	-54.2	200	23
2023-09-19T00:00	10578	251	-50.5	-54.9	201	23
2023-09-19T00:00	10618	250	-50.7	-55.6	202	23
2023-09-19T00:00	10655	248	-51.0	-55.8	204	23
2023-09-19T00:00	10700	247	-51.5	-56.0	204	23
2023-09-19T00:00	10743	245	-51.9	-56.3	205	24
2023-09-19T00:00	10775	244	-52.2	-56.5	205	24
2023-09-19T00:00	10816	242	-52.5	-56.7	205	24
2023-09-19T00:00	10845	241	-52.8	-57.1	204	25
2023-09-19T00:00	10872	240	-53.1	-57.4	204	25
2023-09-19T00:00	10906	239	-53.4	-57.6	203	25
2023-09-19T00:00	10930	238	-53.6	-57.9	203	26
2023-09-19T00:00	10957	237	-53.9	-58.2	203	26
2023-09-19T00:00	10981	236	-54.2	-58.5	202	26
2023-09-19T00:00	11014	235	-54.5	-58.7	202	26
2023-09-19T00:00	11051	234	-54.8	-59.0	202	26
2023-09-19T00:00	11072	233	-55.0	-59.2	202	26
2023-09-19T00:00	11107	231	-55.3	-59.4	203	26
2023-09-19T00:00	11136	230	-55.6	-59.7	204	26
2023-09-19T00:00	11158	230	-55.8	-59.9	205	26
2023-09-19T00:00	11188	229	-56.0	-60.1	207	26
2023-09-19T00:00	11225	227	-56.4	-60.4	208	26
2023-09-19T00:00	11253	226	-56.6	-60.6	209	26
2023-09-19T00:00	11274	225	-56.9	-60.9	209	27
2023-09-19T00:00	11298	225	-57.1	-61.3	209	27
2023-09-19T00:00	11324	224	-57.3	-61.6	209	27
2023-09-19T00:00	11349	223	-57.6	-61.9	209	27
2023-09-19T00:00	11373	222	-57.8	-62.2	210	27
2023-09-19T00:00	11405	221	-58.1	-62.5	211	27
2023-09-19T00:00	11437	220	-58.3	-62.7	212	27
2023-09-19T00:00	11468	219	-58.6	-63.0	213	27
2023-09-19T00:00	11498	218	-58.9	-63.2	213	27
2023-09-19T00:00	11529	216	-59.0	-63.3	213	27
2023-09-19T00:00	11564	215	-59.3	-63.5	213	28
2023-09-19T00:00	11594	214	-59.5	-63.8	213	28
2023-09-19T00:00	11626	213	-59.7	-64.0	213	29
2023-09-19T00:00	11663	212	-59.9	-64.3	214	30
2023-09-19T00:00	11703	211	-60.3	-64.6	214	31
2023-09-19T00:00	11723	210	-60.3	-64.6	215	31
2023-09-19T00:00	11746	209	-60.5	-64.8	216	31
2023-09-19T00:00	11773	208	-60.7	-64.9	217	32
2023-09-19T00:00	11799	207	-60.8	-64.8	218	32
2023-09-19T00:00	11824	206	-60.9	-64.7	219	32
2023-09-19T00:00	11854	206	-61.1	-64.7	219	32
2023-09-19T00:00	11884	204	-61.4	-64.8	220	32
2023-09-19T00:00	11917	203	-61.6	-64.9	220	32
2023-09-19T00:00	11951	202	-61.9	-65.1	221	32
2023-09-19T00:00	11984	201	-62.3	-65.4	221	32
2023-09-19T00:00	12020	200	-62.6	-65.6	221	32
2023-09-19T00:00	12057	199	-62.8	-65.8	220	32
2023-09-19T00:00	12094	198	-63.1	-66.2	220	31
2023-09-19T00:00	12128	197	-63.0	-66.3	219	31
2023-09-19T00:00	12157	196	-63.1	-66.7	219	30
2023-09-19T00:00	12191	195	-63.2		220	29
2023-09-19T00:00	12220	194	-62.6	-67.6	220	28
2023-09-19T00:00	12249	193	-61.0	-67.5	221	27
2023-09-19T00:00	12276	192	-60.6	-68.9	221	26
2023-09-19T00:00	12305	191	-60.2	-70.3	221	25
2023-09-19T00:00	12338	190	-59.9	-71.2	220	24
2023-09-19T00:00	12367	189	-59.7	-71.9	219	24
2023-09-19T00:00	12397	188	-59.6	-72.6	218	24
2023-09-19T00:00	12425	187	-59.1	-72.8	217	24
2023-09-19T00:00	12461	186	-59.1	-73.5	216	24
2023-09-19T00:00	12491	185	-58.9	-74.0	215	24
2023-09-19T00:00	12527	184	-58.1	-74.3	214	24
2023-09-19T00:00	12561	183	-57.8	-74.9	214	24
2023-09-19T00:00	12590	182	-57.6	-75.4	214	24
2023-09-19T00:00	12628	182	-57.2	-75.9	215	24
2023-09-19T00:00	12655	181	-56.9	-76.5	216	24
2023-09-19T00:00	12698	180	-55.3	-76.2	216	23
2023-09-19T00:00	12741	178	-55.5	-77.1	216	23
2023-09-19T00:00	12771	177	-55.7	-77.4	215	23
2023-09-19T00:00	12807	176	-56.1	-77.5	213	23
2023-09-19T00:00	12844	175	-56.4	-77.5	211	23
2023-09-19T00:00	12872	175	-56.6	-77.4	210	23
2023-09-19T00:00	12906	174	-57.0	-77.6	208	22
2023-09-19T00:00	12935	173	-57.2	-77.7	207	22
2023-09-19T00:00	12967	172	-57.5	-77.9	206	22
2023-09-19T00:00	12995	171	-57.8	-78.0	204	22
2023-09-19T00:00	13021	171	-58.0	-78.2	203	23
2023-09-19T00:00	13056	170	-58.3	-78.4	203	23
2023-09-19T00:00	13081	169	-58.2	-78.6	203	24
2023-09-19T00:00	13105	168	-57.0	-78.0	204	25
2023-09-19T00:00	13129	168	-56.7	-78.0	206	25
2023-09-19T00:00	13157	167	-56.9	-78.5	207	26
2023-09-19T00:00	13182	166	-57.0	-78.6	209	27
2023-09-19T00:00	13203	166	-57.0	-78.7	211	27
2023-09-19T00:00	13228	165	-57.1	-78.9	212	28
2023-09-19T00:00	13252	164	-56.8	-79.2	213	29
2023-09-19T00:00	13274	164	-56.4	-79.5	215	29
2023-09-19T00:00	13298	163	-56.1	-79.8	216	30
2023-09-19T00:00	13318	163	-55.9	-80.1	217	30
2023-09-19T00:00	13340	162	-56.0	-80.4	218	30
2023-09-19T00:00	13359	162	-55.9	-80.5	219	30
2023-09-19T00:00	13380	161	-55.8	-80.4	220	30
2023-09-19T00:00	13401	161	-55.8	-80.7	221	30
2023-09-19T00:00	13424	160	-55.8	-80.7	222	30
2023-09-19T00:00	13447	159	-55.6	-80.8	222	29
2023-09-19T00:00	13469	159	-55.4	-80.8	222	28
2023-09-19T00:00	13491	158	-55.0	-80.8	221	27
2023-09-19T00:00	13513	158	-54.6	-80.7	221	26
2023-09-19T00:00	13534	157	-54.3	-80.5	221	25
2023-09-19T00:00	13557	157	-53.9	-80.5	221	24
2023-09-19T00:00	13578	156	-53.8	-80.7	221	24
2023-09-19T00:00	13600	156	-53.8	-80.7	222	23
2023-09-19T00:00	13619	155	-53.7	-80.9	222	23
2023-09-19T00:00	13641	155	-53.6	-80.9	223	23
2023-09-19T00:00	13663	154	-53.4	-81.0	224	22
2023-09-19T00:00	13686	154	-53.4	-81.0	224	22
2023-09-19T00:00	13705	153	-53.5	-81.1	225	22
2023-09-19T00:00	13729	153	-53.4	-81.0	224	22
2023-09-19T00:00	13748	152	-53.1	-81.1	224	22
2023-09-19T00:00	13771	152	-52.8	-80.9	222	21
2023-09-19T00:00	13792	151	-52.9	-81.0	221	21
2023-09-19T00:00	13814	151	-53.1	-81.1	219	21
2023-09-19T00:00	13836	150	-53.2	-81.2	217	21
2023-09-19T00:00	13861	150	-53.3	-81.3	215	21
2023-09-19T00:00	13882	149	-53.3	-81.3	214	21
2023-09-19T00:00	13905	149	-53.4	-81.7	214	22
2023-09-19T00:00	13924	148	-53.4	-81.7	214	22
2023-09-19T00:00	13945	148	-53.2	-81.6	214	23
2023-09-19T00:00	13966	147	-53.2	-81.6	215	23
2023-09-19T00:00	13990	147	-53.2	-81.6	216	24
2023-09-19T00:00	14015	146	-53.3	-81.7	218	24
2023-09-19T00:00	14036	146	-53.4	-81.7	219	24
2023-09-19T00:00	14060	145	-53.5	-81.8	220	24
2023-09-19T00:00	14083	144	-53.7	-82.0	222	25
2023-09-19T00:00	14106	144	-53.8	-82.0	223	25
2023-09-19T00:00	14130	143	-53.8	-82.0	224	25
2023-09-19T00:00	14155	143	-53.9	-82.1	226	25
2023-09-19T00:00	14179	142	-54.0	-82.2	227	26
2023-09-19T00:00	14209	142	-54.2	-82.3	229	26
2023-09-19T00:00	14237	141	-54.1	-82.3	231	26
2023-09-19T00:00	14263	140	-54.2	-82.3	232	26
2023-09-19T00:00	14288	140	-54.1	-82.3	234	26
2023-09-19T00:00	14311	139	-54.0	-82.2	234	25
2023-09-19T00:00	14332	139	-53.9	-82.1	235	24
2023-09-19T00:00	14358	138	-53.8	-82.4	235	24
2023-09-19T00:00	14379	138	-53.5	-82.2	235	23
2023-09-19T00:00	14404	137	-53.4	-82.1	235	22
2023-09-19T00:00	14427	137	-53.5	-82.2	235	22
2023-09-19T00:00	14450	136	-53.4	-82.1	236	21
2023-09-19T00:00	14470	136	-53.3	-82.0	236	21
2023-09-19T00:00	14492	136	-53.5	-82.2	236	20
2023-09-19T00:00	14514	135	-53.6	-82.3	236	20
2023-09-19T00:00	14540	135	-53.8	-82.4	236	19
2023-09-19T00:00	14560	134	-53.8	-82.4	236	19
2023-09-19T00:00	14583	134	-53.9	-82.5	235	18
2023-09-19T00:00	14607	133	-53.8	-82.4	235	18
2023-09-19T00:00	14631	133	-53.7	-82.3	235	17
2023-09-19T00:00	14654	132	-53.2	-82.4	234	16
2023-09-19T00:00	14679	132	-52.6	-82.4	234	15
2023-09-19T00:00	14703	131	-52.4	-82.2	233	14
2023-09-19T00:00	14729	131	-52.5	-82.3	233	14
2023-09-19T00:00	14754	130	-52.7	-82.4	232	13
2023-09-19T00:00	14779	130	-52.9	-82.1	231	13
2023-09-19T00:00	14803	129	-53.0	-82.2	229	13
2023-09-19T00:00	14827	129	-53.1	-82.3	227	13
2023-09-19T00:00	14852	128	-53.3	-82.5	224	13
2023-09-19T00:00	14879	128	-53.4	-82.5	222	13
2023-09-19T00:00	14906	127	-53.3	-82.0	219	13
2023-09-19T00:00	14936	127	-53.5	-82.2	215	13
2023-09-19T00:00	14967	126	-53.6	-82.3	212	13
2023-09-19T00:00	14988	125	-53.8	-82.4	209	13
2023-09-19T00:00	15014	125	-53.9	-82.1	206	12
2023-09-19T00:00	15033	125	-54.1	-82.3	202	12
2023-09-19T00:00	15057	124	-54.2	-82.3	200	12
2023-09-19T00:00	15078	124	-54.4	-82.5	197	12
2023-09-19T00:00	15101	123	-54.5	-82.2	195	13
2023-09-19T00:00	15118	123	-54.6	-82.3	194	13
2023-09-19T00:00	15138	123	-54.7	-82.4	194	14
2023-09-19T00:00	15158	122	-54.7	-82.4	194	14
2023-09-19T00:00	15177	122	-54.8	-82.4	194	15
2023-09-19T00:00	15200	121	-54.7	-82.4	195	15
2023-09-19T00:00	15222	121	-54.7	-82.4	197	16
2023-09-19T00:00	15240	121	-54.8	-82.4	198	16
2023-09-19T00:00	15261	120	-54.6	-82.6	199	17
2023-09-19T00:00	15285	120	-54.7	-82.7	200	17
2023-09-19T00:00	15305	119	-54.8	-82.8	201	17
2023-09-19T00:00	15328	119	-54.8	-82.8	202	18
2023-09-19T00:00	15349	119	-54.8	-82.8	203	18
2023-09-19T00:00	15369	118	-54.7	-82.7	203	18
2023-09-19T00:00	15391	118	-54.8	-82.8	205	18
2023-09-19T00:00	15414	117	-54.9	-82.9	206	18
2023-09-19T00:00	15438	117	-55.0	-82.9	208	18
2023-09-19T00:00	15461	117	-55.1	-82.7	209	18
2023-09-19T00:00	15483	116	-55.1	-82.7	211	18
2023-09-19T00:00	15503	116	-55.2	-82.7	212	18
2023-09-19T00:00	15525	115	-55.3	-82.8	213	18
2023-09-19T00:00	15548	115	-55.4	-82.9	214	18
2023-09-19T00:00	15569	115	-55.5	-83.0	215	18
2023-09-19T00:00	15591	114	-55.6	-83.1	216	18
2023-09-19T00:00	15614	114	-55.8	-83.2	217	19
2023-09-19T00:00	15636	113	-55.8	-83.2	218	19
2023-09-19T00:00	15659	113	-55.9	-83.3	219	19
2023-09-19T00:00	15682	113	-56.0	-83.0	220	19
2023-09-19T00:00	15705	112	-56.1	-83.1	220	19
2023-09-19T00:00	15725	112	-56.2	-83.2	221	19
2023-09-19T00:00	15748	111	-56.4	-83.3	222	19
2023-09-19T00:00	15772	111	-56.4	-83.3	223	18
2023-09-19T00:00	15792	111	-56.4	-83.3	224	18
2023-09-19T00:00	15814	110	-56.4	-83.3	225	18
2023-09-19T00:00	15836	110	-56.5	-83.4	227	17
2023-09-19T00:00	15861	109	-56.6	-83.8	229	16
2023-09-19T00:00	15884	109	-56.5	-83.7	231	15
2023-09-19T00:00	15907	109	-56.0	-83.7	232	14
2023-09-19T00:00	15933	108	-55.6	-83.8	233	13
2023-09-19T00:00	15956	108	-54.6	-83.4	234	12
2023-09-19T00:00	15979	107	-54.4	-83.7	234	11
2023-09-19T00:00	15997	107	-54.1	-83.5	233	10
2023-09-19T00:00	16021	107	-53.9	-83.8	232	10
2023-09-19T00:00	16044	106	-53.5	-83.5	230	9
2023-09-19T00:00	16068	106	-53.5	-83.5	229	8
2023-09-19T00:00	16090	106	-53.1	-83.2	228	8
2023-09-19T00:00	16111	105	-53.0	-83.1	227	8
2023-09-19T00:00	16131	105	-53.1	-83.2	227	8
2023-09-19T00:00	16154	105	-53.0	-83.1	227	7
2023-09-19T00:00	16176	104	-53.1	-83.2	227	7
2023-09-19T00:00	16197	104	-53.0	-83.1	227	7
2023-09-19T00:00	16218	104	-53.1	-83.2	227	7
2023-09-19T00:00	16241	103	-53.1	-83.2	229	7
2023-09-19T00:00	16266	103	-53.1	-83.2	232	7
2023-09-19T00:00	16285	102	-53.3		236	7
2023-09-19T00:00	16310	102	-53.2	-83.8	240	8
2023-09-19T00:00	16330	102	-53.2	-83.8	244	8
2023-09-19T00:00	16352	101	-53.1	-83.7	247	9
2023-09-19T00:00	16377	101	-53.1	-83.7	250	9
2023-09-19T00:00	16400	101	-53.2	-83.8	252	10
2023-09-19T00:00	16424	100	-53.4	-83.9	253	10
2023-09-19T00:00	16445	100	-53.4	-83.9	253	10
2023-09-19T00:00	16468	100	-53.5	-84.0	252	10
2023-09-19T00:00	16496	99	-53.4	-83.9	249	9
2023-09-19T00:00	16525	99	-53.1	-83.7	245	9
2023-09-19T00:00	16549	98	-53.0	-83.6	241	8
2023-09-19T00:00	16571	98	-53.2	-83.8	236	8
2023-09-19T00:00	16594	98	-53.4	-83.9	232	8
2023-09-19T00:00	16614	97	-53.6	-84.1	228	7
2023-09-19T00:00	16634	97	-53.4	-83.9	226	8
2023-09-19T00:00	16658	97	-53.4	-83.9	225	8
2023-09-19T00:00	16674	96	-53.5	-84.0	224	8
2023-09-19T00:00	16698	96	-53.7	-84.2	224	9
2023-09-19T00:00	16720	96	-53.9	-84.3	225	9
2023-09-19T00:00	16743	95	-54.1	-84.5	226	10
2023-09-19T00:00	16765	95	-54.1	-84.5	227	11
2023-09-19T00:00	16789	95	-54.1	-84.5	229	11
2023-09-19T00:00	16808	94	-54.2	-84.0	230	12
2023-09-19T00:00	16833	94	-54.2	-84.0	232	12
2023-09-19T00:00	16852	94	-54.2	-84.0	234	13
2023-09-19T00:00	16875	93	-54.3	-84.6	235	13
2023-09-19T00:00	16899	93	-54.4	-84.2	237	13
2023-09-19T00:00	16922	93	-54.4	-84.2	238	13
2023-09-19T00:00	16943	92	-54.5	-84.3	240	14
2023-09-19T00:00	16967	92	-54.7	-84.4	242	14
2023-09-19T00:00	16988	92	-54.7	-84.4	243	14
2023-09-19T00:00	17014	91	-54.8	-84.5	245	15
2023-09-19T00:00	17036	91	-54.8	-84.5	247	15
2023-09-19T00:00	17058	91	-54.8	-84.5	249	15
2023-09-19T00:00	17079	91	-54.8	-84.5	250	15
2023-09-19T00:00	17102	90	-54.7	-84.4	251	14
2023-09-19T00:00	17126	90	-54.6	-84.3	251	14
2023-09-19T00:00	17149	90	-54.6	-84.3	252	13
2023-09-19T00:00	17170	89	-54.5	-84.3	253	13
2023-09-19T00:00	17192	89	-54.5	-84.3	253	12
2023-09-19T00:00	17215	89	-54.6	-84.3	253	12
2023-09-19T00:00	17239	88	-54.6	-84.3	253	12
2023-09-19T00:00	17259	88	-54.6	-84.3	251	11
2023-09-19T00:00	17280	88	-54.7	-84.4	249	11
2023-09-19T00:00	17306	87	-54.7	-84.4	246	10
2023-09-19T00:00	17330	87	-54.5	-84.3	242	10
2023-09-19T00:00	17351	87	-54.4	-84.7	239	10
2023-09-19T00:00	17376	86	-54.3	-84.6	237	11
2023-09-19T00:00	17396	86	-54.3	-84.6	235	11
2023-09-19T00:00	17420	86	-54.4	-84.7	234	11
2023-09-19T00:00	17442	86	-54.5	-84.3	233	12
2023-09-19T00:00	17463	85	-54.6	-84.3	232	12
2023-09-19T00:00	17485	85	-54.8	-84.5	232	13
2023-09-19T00:00	17504	85	-55.0	-84.6	232	13
2023-09-19T00:00	17526	84	-55.1	-84.7	233	13
2023-09-19T00:00	17549	84	-55.1	-84.7	235	13
2023-09-19T00:00	17569	84	-55.0	-84.6	237	13
2023-09-19T00:00	17591	84	-55.1	-84.7	238	13
2023-09-19T00:00	17614	83	-55.0	-84.6	240	13
2023-09-19T00:00	17637	83	-55.1	-84.7	242	13
2023-09-19T00:00	17661	83	-55.3	-84.9	243	12
2023-09-19T00:00	17684	82	-55.5	-85.0	245	12
2023-09-19T00:00	17705	82	-55.6	-84.6	246	12
2023-09-19T00:00	17726	82	-55.7	-84.7	248	11
2023-09-19T00:00	17748	82	-55.9	-84.8	249	11
2023-09-19T00:00	17768	81	-56.0	-84.9	249	10
2023-09-19T00:00	17793	81	-56.2	-85.1	250	10
2023-09-19T00:00	17815	81	-56.3	-85.1	250	10
2023-09-19T00:00	17839	80	-56.4	-85.2	249	9
2023-09-19T00:00	17862	80	-56.4	-85.2	248	9
2023-09-19T00:00	17881	80	-56.5	-85.3	246	9
2023-09-19T00:00	17907	80	-56.7	-85.4	244	9
2023-09-19T00:00	17928	79	-56.8	-85.5	242	9
2023-09-19T00:00	17952	79	-56.8	-85.5	240	9
2023-09-19T00:00	17978	79	-56.8	-85.5	237	9
2023-09-19T00:00	17998	78	-57.0	-85.7	234	9
2023-09-19T00:00	18023	78	-57.2	-85.4	231	9
2023-09-19T00:00	18044	78	-57.4	-85.6	227	8
2023-09-19T00:00	18071	78	-57.6	-85.7	222	8
2023-09-19T00:00	18095	77	-57.6	-86.1	217	8
2023-09-19T00:00	18118	77	-57.4	-86.0	213	8
2023-09-19T00:00	18143	77	-57.4	-86.0	212	7
2023-09-19T00:00	18165	76	-57.2	-86.3	213	7
2023-09-19T00:00	18188	76	-57.2	-86.3	217	7
2023-09-19T00:00	18215	76	-57.2	-86.3	222	7
2023-09-19T00:00	18239	75	-56.8	-86.0	227	8
2023-09-19T00:00	18259	75	-56.7	-85.9	231	8
2023-09-19T00:00	18284	75	-56.6	-85.8	234	8
2023-09-19T00:00	18310	75	-56.7	-85.9	237	8
2023-09-19T00:00	18333	74	-56.8	-86.0	240	8
2023-09-19T00:00	18358	74	-56.8	-86.0	242	8
2023-09-19T00:00	18382	74	-57.0	-86.1	244	7
2023-09-19T00:00	18405	74	-57.0	-86.1	246	7
2023-09-19T00:00	18432	73	-56.7	-85.9	248	6
2023-09-19T00:00	18454	73	-56.8	-86.0	249	6
2023-09-19T00:00	18479	73	-56.9	-86.1	251	6
2023-09-19T00:00	18499	72	-56.9	-86.1	251	6
2023-09-19T00:00	18526	72	-57.0	-86.1	252	5
2023-09-19T00:00	18547	72	-57.1	-86.2	251	5
2023-09-19T00:00	18572	72	-57.2	-86.3	250	5
2023-09-19T00:00	18592	71	-57.3	-86.4	248	5
2023-09-19T00:00	18614	71	-57.4	-86.4	245	5
2023-09-19T00:00	18642	71	-57.1	-86.2	241	5
2023-09-19T00:00	18665	71	-57.2	-86.3	237	5
2023-09-19T00:00	18687	70	-57.4	-86.4	233	5
2023-09-19T00:00	18712	70	-57.4	-86.4	230	6
2023-09-19T00:00	18732	70	-57.6	-86.6	227	6
2023-09-19T00:00	18758	70	-57.6	-86.6	226	6
2023-09-19T00:00	18780	69	-57.6	-86.6	225	7
2023-09-19T00:00	18802	69	-57.7	-86.7	225	7
2023-09-19T00:00	18823	69	-57.8	-86.7	225	8
2023-09-19T00:00	18848	69	-57.8	-86.7	225	8
2023-09-19T00:00	18872	68	-58.0	-86.9	225	8
2023-09-19T00:00	18893	68	-57.9	-86.8	224	8
2023-09-19T00:00	18913	68	-57.5	-86.5	223	9
2023-09-19T00:00	18940	68	-57.6	-86.6	223	9
2023-09-19T00:00	18961	67	-57.7	-86.7	223	9
2023-09-19T00:00	18983	67	-57.9	-86.8	224	9
2023-09-19T00:00	19013	67	-58.1	-86.5	225	9
2023-09-19T00:00	19036	67	-58.4	-87.2	227	9
2023-09-19T00:00	19058	66	-58.5	-87.3	229	9
2023-09-19T00:00	19080	66	-58.0	-86.9	231	9
2023-09-19T00:00	19107	66	-58.2	-87.0	233	9
2023-09-19T00:00	19126	66	-58.3	-87.1	236	9
2023-09-19T00:00	19147	65	-58.2	-87.0	239	9
2023-09-19T00:00	19171	65	-58.0	-86.9	243	9
2023-09-19T00:00	19195	65	-58.1	-87.0	246	9
2023-09-19T00:00	19217	65	-58.1	-87.4	250	9
2023-09-19T00:00	19240	64	-57.8	-87.2	252	9
2023-09-19T00:00	19263	64	-57.8	-87.2	253	9
2023-09-19T00:00	19282	64	-57.6	-87.1	253	10
2023-09-19T00:00	19307	64	-57.4	-86.9	252	10
2023-09-19T00:00	19331	63	-57.3	-86.9	251	10
2023-09-19T00:00	19354	63	-57.3	-86.9	250	10
2023-09-19T00:00	19379	63	-57.1	-87.2	250	10
2023-09-19T00:00	19397	63	-56.9	-87.1	250	10
2023-09-19T00:00	19421	63	-56.6	-87.5	250	10
2023-09-19T00:00	19446	62	-56.0	-87.0	252	10
2023-09-19T00:00	19467	62	-55.5	-86.7	253	10
2023-09-19T00:00	19493	62	-54.9	-86.9	255	10
2023-09-19T00:00	19517	62	-54.9	-86.9	256	10
2023-09-19T00:00	19539	61	-54.9	-86.2	258	10
2023-09-19T00:00	19565	61	-55.1	-86.4	259	10
2023-09-19T00:00	19588	61	-55.1	-86.4	261	10
2023-09-19T00:00	19609	61	-55.2	-85.8	263	10
2023-09-19T00:00	19632	61	-55.4	-86.0	265	9
2023-09-19T00:00	19657	60	-55.6	-86.1	267	9
2023-09-19T00:00	19679	60	-55.8	-86.3	270	9
2023-09-19T00:00	19703	60	-56.0	-86.4	272	9
2023-09-19T00:00	19728	60	-55.8	-86.3	274	8
2023-09-19T00:00	19752	59	-55.7	-86.2	275	8
2023-09-19T00:00	19776	59	-55.6	-86.1	276	8
2023-09-19T00:00	19797	59	-55.7	-86.2	277	7
2023-09-19T00:00	19820	59	-55.9	-86.3	278	7
2023-09-19T00:00	19843	59	-56.1	-86.5	278	7
2023-09-19T00:00	19864	58	-56.3	-86.6	278	7
2023-09-19T00:00	19890	58	-56.2	-86.6	277	6
2023-09-19T00:00	19918	58	-55.9	-86.3	276	6
2023-09-19T00:00	19936	58	-55.8	-86.3	275	6
2023-09-19T00:00	19959	58	-55.9	-86.3	273	6
2023-09-19T00:00	19985	57	-56.1	-86.5	270	5
2023-09-19T00:00	20007	57	-56.3	-86.6	267	5
2023-09-19T00:00	20033	57	-56.4		264	5
2023-09-19T00:00	20052	57	-56.4		261	6
2023-09-19T00:00	20079	56	-56.5	-86.8	258	6
2023-09-19T00:00	20103	56	-56.5	-86.8	255	6
2023-09-19T00:00	20124	56	-56.6	-86.9	252	6
2023-09-19T00:00	20149	56	-56.6	-86.9	248	6
2023-09-19T00:00	20172	56	-56.5	-86.8	243	6
2023-09-19T00:00	20196	55	-56.7	-86.9	238	7
2023-09-19T00:00	20221	55	-56.8	-87.0	234	7
2023-09-19T00:00	20243	55	-56.9	-86.6	230	7
2023-09-19T00:00	20270	55	-57.0	-87.2	229	8
2023-09-19T00:00	20289	55	-57.1	-87.2	228	8
2023-09-19T00:00	20314	54	-56.9	-87.1	230	8
2023-09-19T00:00	20340	54	-56.6	-86.9	233	8
2023-09-19T00:00	20362	54	-56.6	-86.9	236	8
2023-09-19T00:00	20387	54	-56.7	-86.9	239	7
2023-09-19T00:00	20408	54	-56.8	-87.0	242	7
2023-09-19T00:00	20430	53	-56.8	-87.0	245	7
2023-09-19T00:00	20452	53	-56.9	-87.1	247	8
2023-09-19T00:00	20476	53	-56.9	-87.1	250	8
2023-09-19T00:00	20500	53	-57.1	-87.2	253	8
2023-09-19T00:00	20523	53	-57.1	-87.2	256	8
2023-09-19T00:00	20552	52	-57.1	-87.2	258	8
2023-09-19T00:00	20580	52	-57.1	-87.2	261	9
2023-09-19T00:00	20605	52	-57.1	-86.7	263	9
2023-09-19T00:00	20626	52	-57.2	-86.8	265	9
2023-09-19T00:00	20654	52	-57.3	-86.9	267	9
2023-09-19T00:00	20681	51	-57.3	-86.9	268	9
2023-09-19T00:00	20703	51	-57.4	-86.9	269	9
2023-09-19T00:00	20726	51	-57.6	-87.1	269	9
2023-09-19T00:00	20754	51	-57.7	-87.2	269	8
2023-09-19T00:00	20778	51	-57.7	-87.2	267	8
2023-09-19T00:00	20805	50	-57.8	-87.2	265	8
2023-09-19T00:00	20831	50	-57.6	-87.1	263	8
2023-09-19T00:00	20854	50	-57.4	-86.9	261	8
2023-09-19T00:00	20881	50	-57.2	-86.8	259	8
2023-09-19T00:00	20903	50	-57.4	-86.9	257	8
2023-09-19T00:00	20928	49	-57.5	-87.0	255	8
2023-09-19T00:00	20952	49	-57.4	-86.9	253	8
2023-09-19T00:00	20976	49	-57.6	-87.1	251	9
2023-09-19T00:00	20999	49	-57.5	-87.0	250	9
2023-09-19T00:00	21023	49	-57.6	-87.1	248	9
2023-09-19T00:00	21051	48	-57.7	-87.2	247	10
2023-09-19T00:00	21072	48	-57.9	-87.3	247	10
2023-09-19T00:00	21097	48	-58.0	-87.4	247	11
2023-09-19T00:00	21122	48	-58.0	-87.4	249	11
2023-09-19T00:00	21147	48	-57.8	-87.2	251	11
2023-09-19T00:00	21167	48	-57.8	-87.2	254	11
2023-09-19T00:00	21193	47	-57.6	-87.1	258	10
2023-09-19T00:00	21214	47	-57.6	-87.1	262	10
2023-09-19T00:00	21243	47	-57.7	-87.2	265	10
2023-09-19T00:00	21270	47	-57.8	-87.2	268	9
2023-09-19T00:00	21292	47	-58.0	-87.4	270	9
2023-09-19T00:00	21318	46	-57.9	-87.3	269	8
2023-09-19T00:00	21342	46	-57.5	-87.0	268	8
2023-09-19T00:00	21367	46	-57.5	-87.0	265	8
2023-09-19T00:00	21388	46	-57.6	-87.1	262	8
2023-09-19T00:00	21412	46	-57.6	-87.1	260	8
2023-09-19T00:00	21440	46	-57.6	-87.1	260	8
2023-09-19T00:00	21461	45	-57.7	-87.2	261	8
2023-09-19T00:00	21490	45	-57.8	-87.2	262	9
2023-09-19T00:00	21512	45	-57.8	-87.2	264	9
2023-09-19T00:00	21539	45	-57.8	-87.2	266	9
2023-09-19T00:00	21568	45	-57.8	-87.2	269	9
2023-09-19T00:00	21592	44	-57.8	-87.2	272	10
2023-09-19T00:00	21615	44	-57.7	-87.2	275	10
2023-09-19T00:00	21643	44	-57.6	-87.1	278	10
2023-09-19T00:00	21664	44	-57.6	-87.1	280	11
2023-09-19T00:00	21693	44	-57.6	-87.1	281	11
2023-09-19T00:00	21712	44	-57.6	-87.1	281	11
2023-09-19T00:00	21740	43	-57.7	-87.2	282	12
2023-09-19T00:00	21768	43	-57.6	-87.1	282	12
2023-09-19T00:00	21792	43	-57.6	-87.1	283	12
2023-09-19T00:00	21816	43	-57.5	-87.0	285	12
2023-09-19T00:00	21849	43	-57.6	-87.1	287	12
2023-09-19T00:00	21875	43	-57.7	-87.2	289	12
2023-09-19T00:00	21894	42	-57.8	-87.2	291	12
2023-09-19T00:00	21921	42	-57.9	-87.3	293	12
2023-09-19T00:00	21947	42	-58.1	-87.4	295	12
2023-09-19T00:00	21971	42	-58.2	-87.5	298	12
2023-09-19T00:00	21999	42	-58.3	-87.6	300	12
2023-09-19T00:00	22025	41	-58.4	-87.7	302	12
2023-09-19T00:00	22047	41	-58.4	-87.7	304	11
2023-09-19T00:00	22079	41	-58.2	-87.5	306	11
2023-09-19T00:00	22101	41	-58.2	-87.5	308	10
2023-09-19T00:00	22129	41	-58.3	-87.6	309	9
2023-09-19T00:00	22153	41	-58.1	-87.4	309	9
2023-09-19T00:00	22177	41	-58.2	-87.5	308	8
2023-09-19T00:00	22205	40	-57.9	-87.3	305	8
2023-09-19T00:00	22232	40	-57.8	-87.2	301	7
2023-09-19T00:00	22254	40	-57.9	-87.3	297	7
2023-09-19T00:00	22280	40	-57.8	-87.2	294	7
2023-09-19T00:00	22305	40	-58.0	-87.4	292	7
2023-09-19T00:00	22325	40	-58.0	-87.4	292	8
2023-09-19T00:00	22357	39	-58.0	-87.4	294	8
2023-09-19T00:00	22379	39	-58.1	-87.4	297	8
2023-09-19T00:00	22407	39	-58.1	-87.4	300	8
2023-09-19T00:00	22432	39	-58.1	-87.4	303	8
2023-09-19T00:00	22448	39	-58.2	-87.5	305	8
2023-09-19T00:00	22482	39	-58.3	-87.1	307	8
2023-09-19T00:00	22505	38	-58.4	-87.2	309	7
2023-09-19T00:00	22528	38	-58.6	-87.3	311	7
2023-09-19T00:00	22554	38	-58.8	-87.5	314	6
2023-09-19T00:00	22585	38	-59.0	-87.6	316	5
2023-09-19T00:00	22606	38	-59.1	-87.7	319	5
2023-09-19T00:00	22632	38	-58.9	-87.6	322	4
2023-09-19T00:00	22659	38	-58.5	-87.7	324	4
2023-09-19T00:00	22685	37	-58.6	-87.8	325	3
2023-09-19T00:00	22710	37	-58.8	-88.0	325	3
2023-09-19T00:00	22736	37	-58.7	-87.9	326	3
2023-09-19T00:00	22760	37	-58.5	-87.7	325	2
2023-09-19T00:00	22783	37	-58.5	-87.7	320	1
2023-09-19T00:00	22805	37	-58.2	-87.5	296	1
2023-09-19T00:00	22834	36	-58.2	-87.5	258	1
2023-09-19T00:00	22856	36	-58.2	-87.5	241	2
2023-09-19T00:00	22884	36	-58.2	-88.1	238	2
2023-09-19T00:00	22907	36	-58.1	-88.0	240	3
2023-09-19T00:00	22928	36	-58.1	-88.0	244	4
2023-09-19T00:00	22954	36	-57.9	-87.8	248	4
2023-09-19T00:00	22980	36	-57.4	-87.5	252	5
2023-09-19T00:00	23004	36	-57.4	-87.5	256	6
2023-09-19T00:00	23032	35	-57.3	-87.4	260	6
2023-09-19T00:00	23057	35	-57.2	-87.9	265	6
2023-09-19T00:00	23082	35	-56.9	-87.7	268	6
2023-09-19T00:00	23106	35	-56.8	-87.6	270	6
2023-09-19T00:00	23132	35	-56.6	-87.5	270	7
2023-09-19T00:00	23160	35	-56.1	-87.1	268	7
2023-09-19T00:00	23187	35	-55.8	-87.5	263	7
2023-09-19T00:00	23211	34	-55.5	-87.3	257	7
2023-09-19T00:00	23235	34	-55.2	-87.1	253	8
2023-09-19T00:00	23270	34	-55.3	-87.2	251	8
2023-09-19T00:00	23289	34	-55.3	-87.2	251	8
2023-09-19T00:00	23319	34	-55.4	-86.6	253	9
2023-09-19T00:00	23342	34	-55.3	-86.5	256	9
2023-09-19T00:00	23371	34	-55.1	-86.4	260	9
2023-09-19T00:00	23394	33	-55.1	-86.4	265	9
2023-09-19T00:00	23425	33	-55.1	-86.4	269	10
2023-09-19T00:00	23450	33	-55.1	-86.4	274	10
2023-09-19T00:00	23475	33	-55.0	-86.3	278	10
2023-09-19T00:00	23499	33	-55.1	-86.4	282	10
2023-09-19T00:00	23527	33	-55.2	-86.4	287	10
2023-09-19T00:00	23551	33	-55.4	-86.6	292	10
2023-09-19T00:00	23587	32	-55.5	-86.7	297	10
2023-09-19T00:00	23604	32	-55.5	-86.7	303	10
2023-09-19T00:00	23629	32	-55.5	-86.7	308	10
2023-09-19T00:00	23658	32	-55.4	-86.6	311	10
2023-09-19T00:00	23687	32	-55.4	-86.6	312	9
2023-09-19T00:00	23714	32	-54.9	-86.2	311	9
2023-09-19T00:00	23739	32	-55.0	-86.3	309	9
2023-09-19T00:00	23762	32	-55.1	-86.4	305	8
2023-09-19T00:00	23789	31	-55.2	-86.4	301	8
2023-09-19T00:00	23820	31	-55.2	-86.4	297	8
2023-09-19T00:00	23852	31	-55.2	-86.4	293	8
2023-09-19T00:00	23877	31	-55.2	-86.4	290	8
2023-09-19T00:00	23902	31	-55.3	-86.5	287	7
2023-09-19T00:00	23926	31	-55.4	-86.6	286	7
2023-09-19T00:00	23954	31	-55.4	-86.6	286	6
2023-09-19T00:00	23981	30	-55.1	-86.4	287	5
2023-09-19T00:00	24010	30	-55.0	-86.3	290	5
2023-09-19T00:00	24032	30	-55.0	-87.0	294	4
2023-09-19T00:00	24062	30	-55.1	-86.4	295	3
2023-09-19T00:00	24093	30	-55.1	-86.4	293	3
2023-09-19T00:00	24114	30	-55.1	-86.4	287	3
2023-09-19T00:00	24143	30	-55.3	-86.5	277	2
2023-09-19T00:00	24175	30	-55.3	-86.5	266	3
2023-09-19T00:00	24202	29	-55.2	-86.4	258	3
2023-09-19T00:00	24222	29	-55.3	-86.5	253	4
2023-09-19T00:00	24247	29	-55.5	-86.7	249	4
2023-09-19T00:00	24275	29	-55.3	-86.5	248	5
2023-09-19T00:00	24302	29	-55.0	-86.3	248	5
2023-09-19T00:00	24332	29	-54.8	-86.8	250	6
2023-09-19T00:00	24355	29	-54.8	-86.8	253	6
2023-09-19T00:00	24387	29	-54.9	-86.9	258	6
2023-09-19T00:00	24407	29	-55.0	-87.0	264	7
2023-09-19T00:00	24434	28	-55.1	-87.0	269	7
2023-09-19T00:00	24463	28	-55.0	-87.0	275	7
2023-09-19T00:00	24484	28	-54.9	-86.9	280	7
2023-09-19T00:00	24507	28	-54.7	-86.7	285	7
2023-09-19T00:00	24535	28	-54.5	-86.6	290	7
2023-09-19T00:00	24568	28	-54.6	-86.7	294	8
2023-09-19T00:00	24590	28	-54.7	-86.7	298	8
2023-09-19T00:00	24619	28	-54.8	-86.8	301	8
2023-09-19T00:00	24647	27	-54.8	-86.8	304	9
2023-09-19T00:00	24669	27	-54.9	-86.9	307	10
2023-09-19T00:00	24700	27	-55.0	-87.0	310	10
2023-09-19T00:00	24725	27	-54.8	-86.8	312	11
2023-09-19T00:00	24748	27	-54.8	-86.8	314	11
2023-09-19T00:00	24774	27	-54.6	-86.7	316	11
2023-09-19T00:00	24803	27	-54.5	-86.6	316	11
2023-09-19T00:00	24840	27	-54.7	-86.7	316	11
2023-09-19T00:00	24856	27	-54.6	-86.7	316	10
2023-09-19T00:00	24877	26	-54.7	-86.7	315	10
2023-09-19T00:00	24909	26	-54.8	-86.1	314	9
2023-09-19T00:00	24943	26	-54.8	-86.1	315	9
2023-09-19T00:00	24961	26	-55.0	-86.3	316	8
2023-09-19T00:00	24994	26	-55.1	-86.4	318	8
2023-09-19T00:00	25022	26	-55.2	-86.4	321	7
2023-09-19T00:00	25049	26	-55.4	-86.6	325	7
2023-09-19T00:00	25073	26	-55.6	-86.7	328	6
2023-09-19T00:00	25096	26	-55.6	-86.7	331	6
2023-09-19T00:00	25133	25	-55.5	-86.7	334	6
2023-09-19T00:00	25158	25	-55.7	-86.8	335	6
2023-09-19T00:00	25182	25	-55.7	-86.8	335	6
2023-09-19T00:00	25212	25	-55.6	-86.7	335	6
2023-09-19T00:00	25244	25	-55.7	-86.8	335	6
2023-09-19T00:00	25265	25	-55.7	-86.8	335	6
2023-09-19T00:00	25293	25	-55.8	-86.9	335	7
2023-09-19T00:00	25317	25	-55.9	-86.9	334	7
2023-09-19T00:00	25353	25	-56.1	-87.1	332	7
2023-09-19T00:00	25376	25	-56.0	-87.0	329	7
2023-09-19T00:00	25397	24	-56.0	-87.0	326	8
2023-09-19T00:00	25426	24	-56.1	-87.1	324	8
2023-09-19T00:00	25457	24	-56.0	-87.0	322	9
2023-09-19T00:00	25488	24	-56.0	-87.0	321	9
2023-09-19T00:00	25519	24	-56.1	-87.1	322	9
2023-09-19T00:00	25536	24	-56.1	-87.1	323	9
2023-09-19T00:00	25565	24	-56.1	-87.1	325	9
2023-09-19T00:00	25584	24	-56.1	-87.1	328	8
2023-09-19T00:00	25610	24	-56.0	-87.0	331	8
2023-09-19T00:00	25642	23	-55.9	-86.9	333	7
2023-09-19T00:00	25669	23	-55.8	-86.9	336	7
2023-09-19T00:00	25695	23	-55.8	-86.9	338	7
2023-09-19T00:00	25725	23	-55.7	-86.8	339	6
2023-09-19T00:00	25751	23	-55.8	-87.5	339	6
2023-09-19T00:00	25775	23	-55.6	-87.4	337	5
2023-09-19T00:00	25808	23	-55.5	-87.3	336	5
2023-09-19T00:00	25824	23	-55.5	-87.3	334	5
2023-09-19T00:00	25855	23	-55.6	-87.4	334	4
2023-09-19T00:00	25871	23	-55.5	-86.7	336	4
2023-09-19T00:00	25903	23	-55.5	-86.7	338	4
2023-09-19T00:00	25946	22	-55.6	-86.7	341	3
2023-09-19T00:00	25968	22	-55.7	-86.8	345	3
2023-09-19T00:00	25993	22	-55.7	-86.8	349	2
2023-09-19T00:00	26016	22	-55.7	-86.8	354	2
2023-09-19T00:00	26046	22	-55.9	-86.9	1	1
2023-09-19T00:00	26072	22	-55.9	-86.9	10	1
2023-09-19T00:00	26102	22	-56.0	-87.0	22	1
2023-09-19T00:00	26129	22	-56.0	-87.0	69	0
2023-09-19T00:00	26151	22	-56.1	-87.1	167	1
2023-09-19T00:00	26177	22	-56.1	-87.1	184	1
2023-09-19T00:00	26217	21	-56.3	-87.2	193	2
2023-09-19T00:00	26237	21	-56.4	-87.3	202	2
2023-09-19T00:00	26275	21	-56.5	-87.4	213	2
2023-09-19T00:00	26293	21	-56.5	-87.4	227	3
2023-09-19T00:00	26323	21	-56.6	-87.5	242	3
2023-09-19T00:00	26350	21	-56.5	-87.4	256	4
2023-09-19T00:00	26376	21	-56.5	-87.4	266	4
2023-09-19T00:00	26403	21	-56.4	-88.0	272	5
2023-09-19T00:00	26434	21	-56.0	-87.7	275	5
2023-09-19T00:00	26462	21	-55.6	-87.4	276	6
2023-09-19T00:00	26488	21	-55.2	-87.1	276	6
2023-09-19T00:00	26521	20	-55.3	-87.2	275	6
2023-09-19T00:00	26544	20	-55.3	-87.2	275	7
2023-09-19T00:00	26572	20	-55.1	-87.8	276	7
2023-09-19T00:00	26595	20	-54.7	-87.5	277	7
2023-09-19T00:00	26630	20	-54.5	-87.3	278	7
2023-09-19T00:00	26654	20	-54.2	-87.1	279	7
2023-09-19T00:00	26685	20	-53.5	-86.6	279	7
2023-09-19T00:00	26719	20	-53.4	-86.5	278	7
2023-09-19T00:00	26743	20	-53.3	-86.5	276	7
2023-09-19T00:00	26777	20	-53.0	-86.3	275	8
2023-09-19T00:00	26791	20	-53.1	-86.3	273	8
2023-09-19T00:00	26821	20	-53.2	-86.4	273	8
2023-09-19T00:00	26847	19	-53.4	-85.8	275	8
2023-09-19T00:00	26882	19	-53.6		277	7
2023-09-19T00:00	26897	19	-53.8	-86.1	281	7
2023-09-19T00:00	26926	19	-54.0	-86.2	284	7
2023-09-19T00:00	26956	19	-54.2	-86.4	286	7
2023-09-19T00:00	26981	19	-54.4	-86.5	287	7
2023-09-19T00:00	27017	19	-54.5	-86.6	287	7
2023-09-19T00:00	27044	19	-54.4	-86.5	286	8
2023-09-19T00:00	27069	19	-54.4	-86.5	286	8
2023-09-19T00:00	27101	19	-54.4	-86.5	286	8
2023-09-19T00:00	27123	19	-54.3	-86.4	286	8
2023-09-19T00:00	27151	19	-54.4	-86.5	288	8
2023-09-19T00:00	27184	18	-54.3	-86.4	292	8
2023-09-19T00:00	27210	18	-54.3	-86.4	297	8
2023-09-19T00:00	27236	18	-54.3	-86.4	302	9
2023-09-19T00:00	27268	18	-54.3	-86.4	308	9
2023-09-19T00:00	27289	18	-54.2	-86.4	312	9
2023-09-19T00:00	27313	18	-54.1	-86.3	316	9
2023-09-19T00:00	27346	18	-54.2	-86.4	319	9
2023-09-19T00:00	27376	18	-54.3	-86.4	320	9
2023-09-19T00:00	27397	18	-54.4	-86.5	321	8
2023-09-19T00:00	27425	18	-54.2	-86.4	322	8
2023-09-19T00:00	27451	18	-54.0	-86.2	323	7
2023-09-19T00:00	27480	18	-54.0	-86.2	325	7
2023-09-19T00:00	27514	18	-54.1	-87.1	328	6
2023-09-19T00:00	27537	17	-54.0	-87.0	331	5
2023-09-19T00:00	27563	17	-53.7	-86.8	334	5
2023-09-19T00:00	27596	17	-53.4	-86.5	335	5
2023-09-19T00:00	27619	17	-53.2	-86.4	335	4
2023-09-19T00:00	27654	17	-53.1	-86.3	334	4
2023-09-19T00:00	27674	17	-52.8	-86.1	334	4
2023-09-19T00:00	27705	17	-52.6		335	3
2023-09-19T00:00	27733	17	-52.7	-86.0	336	3
2023-09-19T00:00	27775	17	-52.5	-85.9	338	3
2023-09-19T00:00	27794	17	-52.5	-85.9	339	2
2023-09-19T00:00	27815	17	-52.6		337	2
2023-09-19T00:00	27849	17	-52.7	-86.0	329	2
2023-09-19T00:00	27885	17	-52.9	-86.2	314	2
2023-09-19T00:00	27913	16	-52.9	-86.2	297	2
2023-09-19T00:00	27940	16	-53.0	-85.5	284	2
2023-09-19T00:00	27966	16	-53.2	-85.6	276	3
2023-09-19T00:00	28001	16	-53.2	-86.4	269	4
2023-09-19T00:00	28038	16	-53.2	-86.4	265	5
2023-09-19T00:00	28044	16	-53.1	-86.3	263	6
2023-09-19T00:00	28085	16	-53.0	-86.3	262	6
2023-09-19T00:00	28107	16	-52.7	-86.0	265	7
2023-09-19T00:00	28141	16	-52.8	-86.1	270	7
2023-09-19T00:00	28173	16	-52.8	-86.1	277	8
2023-09-19T00:00	28207	16	-52.5	-85.9	285	8
2023-09-19T00:00	28234	16	-52.3	-85.8	293	8
2023-09-19T00:00	28262	16	-52.2	-85.7	301	9
2023-09-19T00:00	28288	16	-52.3	-85.8	308	9
2023-09-19T00:00	28320	15	-52.3	-85.8	314	10
2023-09-19T00:00	28343	15	-52.3	-85.8	319	10
2023-09-19T00:00	28377	15	-52.3	-85.8	324	10
2023-09-19T00:00	28408	15	-52.3	-85.8	328	10
2023-09-19T00:00	28435	15	-52.4	-85.8	332	10
2023-09-19T00:00	28460	15	-52.5	-85.9	335	9
2023-09-19T00:00	28496	15	-52.4	-85.8	338	8
2023-09-19T00:00	28517	15	-52.3	-85.8	341	7
2023-09-19T00:00	28543	15	-52.4	-85.8	342	6
2023-09-19T00:00	28573	15	-52.4	-85.8	343	5
2023-09-19T00:00	28593	15	-52.2	-85.7	342	5
2023-09-19T00:00	28635	15	-51.6	-86.1	340	5
2023-09-19T00:00	28650	15	-51.3	-85.9	337	6
2023-09-19T00:00	28676	15	-51.4	-86.0	334	6
2023-09-19T00:00	28702	15	-51.5	-86.1	332	7
2023-09-19T00:00	28730	15	-51.5	-86.1	330	7
2023-09-19T00:00	28747	14	-51.3	-85.9	329	7
2023-09-19T00:00	28777	14	-51.2	-85.8	328	7
2023-09-19T00:00	28806	14	-51.1	-85.8	327	7
2023-09-19T00:00	28831	14	-51.2	-85.8	326	7
2023-09-19T00:00	28860	14	-51.2	-85.8	324	7
2023-09-19T00:00	28874	14	-51.2	-85.8	321	6
2023-09-19T00:00	28914	14	-51.2	-85.8	318	6
2023-09-19T00:00	28930	14	-51.0	-85.7	314	6
2023-09-19T00:00	28969	14	-50.8	-85.6	310	5
2023-09-19T00:00	28985	14	-50.8	-85.6	306	5
2023-09-19T00:00	29032	14	-50.8	-85.6	300	4
2023-09-19T00:00	29040	14	-50.8	-85.6	291	4
2023-09-19T00:00	29061	14	-50.9	-85.6	282	4
2023-09-19T00:00	29103	14	-51.0	-85.7	276	4
2023-09-19T00:00	29134	14	-50.2	-85.1	274	5
2023-09-19T00:00	29160	14	-49.5	-85.7	274	5
2023-09-19T00:00	29203	14	-49.1	-85.4	276	6
2023-09-19T00:00	29209	14	-49.1	-85.4	279	7
2023-09-19T00:00	29244	13	-49.1	-85.4	281	8
2023-09-19T00:00	29272	13	-49.1	-85.4	284	9
2023-09-19T00:00	29298	13	-49.2	-85.5	287	10
2023-09-19T00:00	29334	13	-49.1	-84.3	289	10
2023-09-19T00:00	29355	13	-48.9	-84.2	292	11
2023-09-19T00:00	29382	13	-48.7	-84.1	295	11
2023-09-19T00:00	29422	13	-48.8	-84.1	298	11
2023-09-19T00:00	29469	13	-48.8	-84.1	302	11
2023-09-19T00:00	29472	13	-48.9	-84.2	305	11
2023-09-19T00:00	29519	13	-48.9	-84.2	308	10
2023-09-19T00:00	29561	13	-48.8	-85.2	309	9
2023-09-19T00:00	29581	13	-48.3	-84.8	310	9
2023-09-19T00:00	29602	13	-48.3	-84.8	311	8
2023-09-19T00:00	29638	13	-48.3	-84.8	310	7
2023-09-19T00:00	29667	13	-48.3	-84.8	309	6
2023-09-19T00:00	29707	13	-48.3	-84.8	305	6
2023-09-19T00:00	29722	12	-48.4	-84.9	300	5
2023-09-19T00:00	29757	12	-48.3	-84.8	291	5
2023-09-19T00:00	29795	12	-48.2	-84.8	281	5
2023-09-19T00:00	29809	12	-48.0	-84.6	270	5
2023-09-19T00:00	29848	12	-48.0	-84.6	260	5
2023-09-19T00:00	29879	12	-48.2	-84.8	254	5
2023-09-19T00:00	29897	12	-48.2	-84.8	251	5
2023-09-19T00:00	29933	12	-48.4	-84.9	251	5
2023-09-19T00:00	29953	12	-48.3	-84.8	254	6
2023-09-19T00:00	29975	12	-48.0	-84.6	259	6
2023-09-19T00:00	30000	12	-48.0	-84.6	264	6
2023-09-19T00:00	30043	12	-48.0	-84.6	269	6
2023-09-19T00:00	30060	12	-47.9	-84.6	271	6
2023-09-19T00:00	30089	12	-47.8	-84.5	272	7
2023-09-19T00:00	30120	12	-47.5	-84.3	271	7
2023-09-19T00:00	30159	12	-47.5	-84.3	270	7
2023-09-19T00:00	30173	12	-47.3	-84.1	269	8
2023-09-19T00:00	30209	12	-47.3	-84.1	268	8
2023-09-19T00:00	30212	12	-47.3	-84.1	268	8
2023-09-19T00:00	30250	12	-47.3	-84.1	269	8
2023-09-19T00:00	30261	11	-47.2	-84.1	270	8
2023-09-19T00:00	30309	11	-47.0	-83.9	271	8
2023-09-19T00:00	30334	11	-46.9	-83.9	271	7
2023-09-19T00:00	30357	11	-46.6	-83.6	271	7
2023-09-19T00:00	30393	11	-46.5	-83.6	269	8
2023-09-19T00:00	30413	11	-46.5	-83.6	267	8
2023-09-19T00:00	30431	11	-46.3	-83.4	267	8
2023-09-19T00:00	30472	11	-46.4	-83.5	266	8
2023-09-19T00:00	30500	11	-46.1	-83.3	267	8
2023-09-19T00:00	30503	11	-46.0	-83.2	266	8
2023-09-19T00:00	30551	11	-45.9	-83.2	266	7
2023-09-19T00:00	30556	11	-45.8	-83.1	264	7
2023-09-19T00:00	30586	11	-45.5	-82.9	263	7
2023-09-19T00:00	30623	11	-45.4	-82.8	262	6
2023-09-19T00:00	30659	11	-45.5	-82.9	261	6
2023-09-19T00:00	30677	11	-45.6	-82.9	260	7
2023-09-19T00:00	30699	11	-45.7	-83.0	260	7
2023-09-19T00:00	30729	11	-45.8	-83.1	261	8
2023-09-19T00:00	30763	11	-45.8	-83.1	261	8
2023-09-19T00:00	30787	11	-45.9	-83.2	262	9
2023-09-19T00:00	30811	11	-45.8	-83.1	264	10
2023-09-19T00:00	30856	11	-45.7	-83.0	266	10
2023-09-19T00:00	30889	10	-45.5	-82.9	269	11
2023-09-19T00:00	30897	10	-45.4	-82.8	272	11
2023-09-19T00:00	30936	10	-45.3	-82.7	275	12
2023-09-19T00:00	30961	10	-45.3	-82.7	277	12
2023-09-19T00:00	31000	10	-45.4	-82.8	278	13
2023-09-19T00:00	31021	10	-45.5	-82.9	279	13
2023-09-19T00:00	31056	10	-45.6	-82.9	279	13
2023-09-19T00:00	31099	10	-45.5	-82.9	278	13
2023-09-19T00:00	31116	10	-45.7	-83.0	277	13
2023-09-19T00:00	31155	10	-45.7	-83.0	276	13
2023-09-19T00:00	31199	10	-45.6	-82.9	275	14
2023-09-19T00:00	31229	10	-45.6	-82.9	275	14
2023-09-19T00:00	31246	10	-45.3	-82.7	275	14
2023-09-19T00:00	31273	10	-45.3	-82.7	275	15
2023-09-19T00:00	31297	10	-45.3	-82.7	274	15
2023-09-19T00:00	31343	10	-45.3	-82.7	274	15
2023-09-19T00:00	31372	10	-45.2	-82.7	274	15
2023-09-19T00:00	31405	10	-45.3	-82.7	275	15
2023-09-19T00:00	31440	10	-45.1	-82.6	276	16
2023-09-19T00:00	31469	10	-44.9	-82.5	278	16
2023-09-19T00:00	31500	10	-44.9	-82.5	280	16
2023-09-19T00:00	31556	9	-45.1	-82.6	284	17
2023-09-19T00:00	31590	9	-45.1	-82.6	286	18
2023-09-19T00:00	31609	9	-45.2	-82.7	289	18
2023-09-19T00:00	31656	9	-45.3	-82.7	291	19
2023-09-19T00:00	31671	9	-45.4	-82.8	294	19
2023-09-19T00:00	31713	9	-45.6	-82.9	296	19
2023-09-19T00:00	31741	9	-45.5	-82.9	299	19
2023-09-19T00:00	31767	9	-45.3	-82.7	301	18
2023-09-19T00:00	31810	9	-45.2	-82.7	303	18
2023-09-19T00:00	31837	9	-45.1	-82.6	305	17
2023-09-19T00:00	31856	9	-44.9	-82.5	306	17
2023-09-19T00:00	31887	9	-44.8	-82.4	308	16
2023-09-19T00:00	31909	9	-44.9	-82.5	309	16
2023-09-19T00:00	31945	9	-44.8	-82.4	309	16
2023-09-19T00:00	31957	9	-44.7	-82.3	309	16
2023-09-19T00:00	31979	9	-44.5	-82.2	308	15
2023-09-19T00:00	32030	9	-44.5	-82.2	308	15
2023-09-19T00:00	32067	9	-44.3	-82.0	308	15
2023-09-19T00:00	32100	9	-44.2	-82.0	308	14
2023-09-19T00:00	32113	9	-43.9	-81.8	309	14
2023-09-19T00:00	32146	9	-43.8	-81.7	311	14
2023-09-19T00:00	32167	9	-43.6	-81.5	313	14
2023-09-19T00:00	32213	9	-43.6	-81.5	315	14
2023-09-19T00:00	32218	9	-43.6	-81.5	316	13
2023-09-19T00:00	32254	9	-43.8	-81.7	317	13
2023-09-19T00:00	32281	9	-44.0	-81.8	317	13
2023-09-19T00:00	32316	8	-44.1	-81.9	317	12
2023-09-19T00:00	32344	8	-43.8	-81.7	316	12
2023-09-19T00:00	32359	8	-43.7	-81.6	314	11
2023-09-19T00:00	32384	8	-43.6	-81.5	313	11
2023-09-19T00:00	32422	8	-43.4	-81.4	312	11
2023-09-19T00:00	32445	8	-43.3	-81.3	311	11
2023-09-19T00:00	32470	8	-43.1	-81.2	310	10
2023-09-19T00:00	32507	8	-43.3	-81.3	308	10
2023-09-19T00:00	32520	8	-43.5	-81.5	306	10
2023-09-19T00:00	32542	8	-43.6	-81.5	304	10
2023-09-19T00:00	32601	8	-43.5	-81.5	302	10
2023-09-19T00:00	32641	8	-43.1	-81.2	298	10
2023-09-19T00:00	32661	8	-42.9	-81.1	297	10
2023-09-19T00:00	32670	8	-42.9	-81.1	296	10
2023-09-19T00:00	32710	8	-43.1	-81.2	296	10
2023-09-19T00:00	32735	8	-43.2	-81.3	296	10
2023-09-19T00:00	32760	8	-43.2	-81.3	296	11
2023-09-19T00:00	32791	8	-43.2	-81.3	297	11
2023-09-19T00:00	32846	8	-43.1	-81.2	298	11
2023-09-19T00:00	32855	8	-43.1	-81.2	298	11
2023-09-19T00:00	32864	8	-43.1	-81.2	298	11
2023-09-19T00:00	32891	8	-43.1	-81.2	297	11
2023-09-19T00:00	32922	8	-43.1	-81.2	295	12
2023-09-19T00:00	32946	8	-43.0	-81.1	293	12
2023-09-19T00:00	33003	8	-42.9	-81.1	292	13
2023-09-19T00:00	33015	8	-42.7	-80.9	292	14
2023-09-19T00:00	33060	8	-42.7	-80.9	293	14
2023-09-19T00:00	33074	8	-42.6	-80.8	292	15
2023-09-19T00:00	33136	8	-42.4	-80.7	291	15
2023-09-19T00:00	33153	7	-42.2	-80.6	289	16
2023-09-19T00:00	33186	7	-42.2	-80.6	287	16
2023-09-19T00:00	33213	7	-42.2	-80.6	285	16
2023-09-19T00:00	33245	7	-42.2	-80.6	284	16
2023-09-19T00:00	33271	7	-42.2	-80.6	283	16
2023-09-19T00:00	33308	7	-42.0	-80.4	282	15
2023-09-19T00:00	33334	7	-41.9	-80.4	282	15
2023-09-19T00:00	33354	7	-41.8	-80.3	282	14
2023-09-19T00:00	33377	7	-41.9	-80.4	283	14
2023-09-19T00:00	33410	7	-42.1	-80.5	283	14
2023-09-19T00:00	33423	7	-42.2	-80.6	284	14
2023-09-19T00:00	33456	7	-42.3	-80.6	285	14
2023-09-19T00:00	33509	7	-42.2	-80.6	287	14
2023-09-19T00:00	33549	7	-42.0	-80.4	289	15
2023-09-19T00:00	33594	7	-42.1	-80.5	293	15
2023-09-19T00:00	33598	7	-42.1	-80.5	295	15
2023-09-19T00:00	33622	7	-41.9	-80.4	298	15
2023-09-19T00:00	33683	7	-41.8	-80.3	300	15
2023-09-19T00:00	33686	7	-41.7	-80.2	302	16
2023-09-19T00:00	33705	7	-41.7	-80.2	305	16
2023-09-19T00:00	33740	7	-41.8	-80.3	306	16
2023-09-19T00:00	33788	7	-41.7	-80.2	308	17
2023-09-19T00:00	33789	7	-41.5	-80.1	310	17
2023-09-19T00:00	33844	7	-41.2	-79.9	311	17
2023-09-19T00:00	33877	7	-41.0	-79.7	314	17
2023-09-19T00:00	33896	7	-41.1	-79.8	315	17
2023-09-19T00:00	33934	7	-41.1	-79.8	316	16
2023-09-19T00:00	33977	7	-41.1	-79.8	317	16
2023-09-19T00:00	33983	7	-40.6	-79.5	317	16
2023-09-19T00:00	34018	7	-40.4	-79.3	317	16
2023-09-19T00:00	34039	7	-40.4	-79.3	317	15
2023-09-19T00:00	34055	7	-40.6	-79.5	317	15
2023-09-19T00:00	34101	7	-40.6	-79.5	316	15
2023-09-19T00:00	34141	7	-40.7	-79.5	315	15
2023-09-19T00:00	34156	6	-40.7	-79.5	310	16
2023-09-19T00:00	34189	6	-40.5	-79.4	307	16
2023-09-19T00:00	34208	6	-40.2	-79.2	304	16
2023-09-19T00:00	34249	6	-39.8	-78.9	301	16
2023-09-19T00:00	34287	6	-39.5	-78.7	299	16
2023-09-19T00:00	34310	6	-39.4	-78.6	299	16
2023-09-19T00:00	34334	6	-39.1	-78.4	300	16
2023-09-19T00:00	34362	6	-38.5	-78.0	301	16
2023-09-19T00:00	34411	6	-38.4	-77.9	303	16
2023-09-19T00:00	34412	6	-38.6	-78.1	305	16
2023-09-19T00:00	34480	6	-39.0	-78.3	307	17
2023-09-19T00:00	34487	6	-39.2	-78.5	308	17
2023-09-19T00:00	34507	6	-39.4	-78.6	309	17
2023-09-19T00:00	34554	6	-39.7	-78.8	310	17
2023-09-19T00:00	34575	6	-39.9	-79.0	311	17
2023-09-19T00:00	34593	6	-40.2	-79.2	311	16
2023-09-19T00:00	34629	6	-40.4	-79.3	312	16
2023-09-19T00:00	34647	6	-40.4	-79.3	313	15
2023-09-19T00:00	34681	6	-40.5	-79.4	313	15
2023-09-19T00:00	34726	6	-40.6	-79.5	313	15
2023-09-19T00:00	34732	6	-40.5	-79.4	313	15
2023-09-19T00:00	34757	6	-40.5	-79.4	313	15
2023-09-19T00:00	34816	6	-40.5	-79.4	312	14
2023-09-19T00:00	34817	6	-40.4	-79.3	312	14
2023-09-19T00:00	34836	6	-40.6	-79.5	311	14
2023-09-19T00:00	34889	6	-40.7	-79.5	310	14
2023-09-19T00:00	34890	6	-40.8	-79.6	310	13
2023-09-19T00:00	34919	6	-40.9	-79.7	308	12
2023-09-19T00:00	34952	6	-40.8	-79.6	307	12
2023-09-19T00:00	34974	6	-40.6	-79.5	305	12
2023-09-19T00:00	35001	6	-40.5	-79.4	303	12
2023-09-19T00:00	35022	6	-40.3	-79.2	301	13
2023-09-19T00:00	35049	6	-40.1	-79.1	299	13
2023-09-19T00:00	35067	6	-39.9	-79.0	297	14
2023-09-19T00:00	35112	6	-39.8	-78.9	295	14
2023-09-19T00:00	35139	6	-39.7	-78.8	294	15
2023-09-19T00:00	35177	6	-39.4	-78.6	293	15
2023-09-19T00:00	35193	6	-39.4	-78.6	293	15
2023-09-19T00:00	35237	6	-39.4	-78.6	293	15
2023-09-19T00:00	35274	6	-39.4	-78.6	294	15
2023-09-19T00:00	35296	5	-39.4	-78.6	294	15
2023-09-19T00:00	35329	5	-39.5	-78.7	295	16
2023-09-19T00:00	35354	5	-39.6	-78.8	295	16
2023-09-19T00:00	35369	5	-39.7	-78.8	296	16
2023-09-19T00:00	35402	5	-39.9	-79.0	296	16
2023-09-19T00:00	35451	5	-39.9	-79.0	297	17
2023-09-19T00:00	35474	5	-40.0	-79.0	298	17
2023-09-19T00:00	35501	5	-40.0	-79.0	299	17
2023-09-19T00:00	35518	5	-39.9	-79.0	299	17
2023-09-19T00:00	35525	5	-39.7	-78.8	298	17
2023-09-19T00:00	35574	5	-39.4	-78.6	297	17
2023-09-19T00:00	35588	5	-38.7	-78.1	295	17
2023-09-19T00:00	35593	5	-38.3	-77.9	294	17
2023-09-19T00:00	35666	5	-38.3	-77.9	294	16
2023-09-19T00:00	35683	5	-37.9	-77.6	296	15
2023-09-19T00:00	35691	5	-37.9	-77.6	297	15
2023-09-19T00:00	35730	5	-37.9	-77.6	297	14
2023-09-19T00:00	35774	5	-38.1	-77.7	297	13
2023-09-19T00:00	35781	5	-38.2	-77.8	296	13
2023-09-19T00:00	35829	5	-38.3	-77.9	295	12
2023-09-19T06:00	-999					
2023-09-19T06:00	132	993	15.5	14.8	241	4
2023-09-19T06:00	157	990	15.5	14.5	240	5
2023-09-19T06:00	182	987	15.6	14.5	242	6
2023-09-19T06:00	203	985	15.4	14.4	245	7
2023-09-19T06:00	228	982	15.8	14.5	249	8
2023-09-19T06:00	249	979	15.6	14.5	253	9
2023-09-19T06:00	275	976	15.6	14.5	257	10
2023-09-19T06:00	298	973	15.6	14.5	260	11
2023-09-19T06:00	325	970	15.3	14.4	263	12
2023-09-19T06:00	348	968	15.2	14.3	266	13
2023-09-19T06:00	371	965	15.5	14.0	268	13
2023-09-19T06:00	395	962	15.4	13.9	270	14
2023-09-19T06:00	421	960	15.3	13.4	273	14
2023-09-19T06:00	446	957	15.1	13.6	274	14
2023-09-19T06:00	472	954	14.9	13.1	276	14
2023-09-19T06:00	497	951	14.6	13.1	276	15
2023-09-19T06:00	524	948	14.5	12.4	276	15
2023-09-19T06:00	549	945	14.3	12.5	276	16
2023-09-19T06:00	573	943	14.1	12.3	276	16
2023-09-19T06:00	591	940	13.9	11.9	277	16
2023-09-19T06:00	612	938	13.8	11.8	278	16
2023-09-19T06:00	635	935	13.5	11.7	279	16
2023-09-19T06:00	663	933	13.3	11.7	280	16
2023-09-19T06:00	683	930	13.1	11.6	280	16
2023-09-19T06:00	704	928	12.9	11.5	279	16
2023-09-19T06:00	729	925	12.7	11.3	278	16
2023-09-19T06:00	757	922	12.5	11.2	277	16
2023-09-19T06:00	781	919	12.4	10.8	275	16
2023-09-19T06:00	809	917	12.2	10.5	275	16
2023-09-19T06:00	830	914	12.1	10.6	274	16
2023-09-19T06:00	849	912	12.1	10.6	274	15
2023-09-19T06:00	877	909	11.9	10.5	274	15
2023-09-19T06:00	898	907	11.7	10.3	273	15
2023-09-19T06:00	919	905	11.6	10.4	271	14
2023-09-19T06:00	941	902	11.5	10.4	270	14
2023-09-19T06:00	964	900	11.3	10.3	268	14
2023-09-19T06:00	989	897	11.2	10.6	268	14
2023-09-19T06:00	1015	895	11.0	10.4	267	15
2023-09-19T06:00	1035	892	11.2	9.5	268	15
2023-09-19T06:00	1054	890	11.3	9.1	268	15
2023-09-19T06:00	1074	888	11.3	9.0	268	15
2023-09-19T06:00	1096	886	11.1	9.2	267	15
2023-09-19T06:00	1123	883	10.9	8.4	265	15
2023-09-19T06:00	1148	880	11.1	6.4	264	15
2023-09-19T06:00	1178	877	11.0	8.4	263	15
2023-09-19T06:00	1200	875	10.8	8.6	263	15
2023-09-19T06:00	1226	872	10.7	8.3	264	15
2023-09-19T06:00	1251	869	10.6	8.0	266	15
2023-09-19T06:00	1271	867	10.5	8.1	267	15
2023-09-19T06:00	1294	865	10.7	7.9	267	14
2023-09-19T06:00	1312	863	10.7	7.5	266	14
2023-09-19T06:00	1336	861	10.6	7.4	264	14
2023-09-19T06:00	1357	858	10.4	7.1	263	14
2023-09-19T06:00	1377	856	10.3	6.9	262	14
2023-09-19T06:00	1404	853	10.2	6.9	261	15
2023-09-19T06:00	1433	851	10.1	6.8	260	15
2023-09-19T06:00	1457	848	9.9	6.3	259	15
2023-09-19T06:00	1480	846	9.9	5.9	258	16
2023-09-19T06:00	1501	844	9.9	5.8	257	15
2023-09-19T06:00	1522	842	9.9	5.6	257	15
2023-09-19T06:00	1544	839	9.9	5.3	258	15
2023-09-19T06:00	1566	837	9.8	4.9	260	15
2023-09-19T06:00	1590	835	9.8	4.6	260	15
2023-09-19T06:00	1613	832	9.7	4.5	260	15
2023-09-19T06:00	1639	830	9.6	4.4	258	16
2023-09-19T06:00	1673	827	9.4	4.1	257	16
2023-09-19T06:00	1698	824	9.2	4.1	255	16
2023-09-19T06:00	1720	822	9.0	4.1	254	16
2023-09-19T06:00	1744	819	8.8	4.1	252	16
2023-09-19T06:00	1766	817	8.6	4.0	251	16
2023-09-19T06:00	1787	815	8.4	4.2	251	16
2023-09-19T06:00	1807	813	8.3	4.2	250	16
2023-09-19T06:00	1826	811	8.1	4.2	249	16
2023-09-19T06:00	1849	809	7.9	4.2	249	16
2023-09-19T06:00	1876	806	7.6	3.9	249	17
2023-09-19T06:00	1898	804	7.4	4.0	248	17
2023-09-19T06:00	1929	801	7.2	3.8	247	16
2023-09-19T06:00	1959	798	6.9	3.5	247	16
2023-09-19T06:00	1990	795	6.7	3.6	246	16
2023-09-19T06:00	2013	793	6.5	3.6	245	15
2023-09-19T06:00	2035	791	6.4	3.5	245	15
2023-09-19T06:00	2063	788	6.2	3.0	245	15
2023-09-19T06:00	2091	786	6.1		245	15
2023-09-19T06:00	2114	783	5.9	2.5	245	15
2023-09-19T06:00	2141	781	5.7	2.1	246	16
2023-09-19T06:00	2168	778	5.5	2.1	247	16
2023-09-19T06:00	2194	776	5.3	2.1	249	16
2023-09-19T06:00	2214	774	5.1	2.1	249	16
2023-09-19T06:00	2242	771	4.8	2.1	249	16
2023-09-19T06:00	2266	769	4.7	2.0	248	16
2023-09-19T06:00	2287	767	4.6	2.0	247	16
2023-09-19T06:00	2309	765	4.5	1.5	247	16
2023-09-19T06:00	2333	763	4.4	1.2	247	16
2023-09-19T06:00	2353	761	4.5	1.4	246	15
2023-09-19T06:00	2370	759	4.5	1.4	246	15
2023-09-19T06:00	2387	757	4.5	1.1	244	16
2023-09-19T06:00	2411	755	4.5	1.0	243	16
2023-09-19T06:00	2432	753	4.4	0.4	242	16
2023-09-19T06:00	2461	751	4.4	-0.3	242	16
2023-09-19T06:00	2478	749	4.3	-0.1	242	17
2023-09-19T06:00	2499	747	4.2	0.6	243	16
2023-09-19T06:00	2527	745	4.0	0.5	243	16
2023-09-19T06:00	2551	742	3.9	0.5	242	16
2023-09-19T06:00	2578	740	3.6	0.3	242	15
2023-09-19T06:00	2604	738	3.4	0.4	242	15
2023-09-19T06:00	2626	736	3.2	0.4	242	15
2023-09-19T06:00	2650	734	3.0	0.3	242	16
2023-09-19T06:00	2673	731	2.8	0.2	243	16
2023-09-19T06:00	2695	729	2.6	0.0	243	17
2023-09-19T06:00	2718	727	2.4	0.0	242	17
2023-09-19T06:00	2738	726	2.2	0.0	242	17
2023-09-19T06:00	2763	723	2.0	-0.1	241	17
2023-09-19T06:00	2783	721	1.9	-1.0	241	17
2023-09-19T06:00	2811	719	1.8	-1.6	242	17
2023-09-19T06:00	2834	717	1.6	-1.5	243	17
2023-09-19T06:00	2857	715	1.5	-1.6	245	17
2023-09-19T06:00	2875	713	1.3	-1.2	246	17
2023-09-19T06:00	2898	711	1.2	-0.8	247	17
2023-09-19T06:00	2925	709	1.1	-1.1	246	17
2023-09-19T06:00	2948	707	1.0	-1.3	246	17
2023-09-19T06:00	2975	705	1.1	-1.7	246	16
2023-09-19T06:00	2998	703	1.0	-2.7	247	16
2023-09-19T06:00	3023	700	0.9	-2.8	248	17
2023-09-19T06:00	3051	698	0.9	-4.6	248	17
2023-09-19T06:00	3076	696	0.8	-4.8	248	17
2023-09-19T06:00	3102	694	0.7	-6.9	248	17
2023-09-19T06:00	3130	691	0.5	-4.7	248	18
2023-09-19T06:00	3150	689	0.2	-3.2	248	18
2023-09-19T06:00	3173	687	0.0	-2.9	248	18
2023-09-19T06:00	3196	686	-0.3	-2.6	249	18
2023-09-19T06:00	3219	684	-0.4	-2.6	249	19
2023-09-19T06:00	3237	682	-0.5	-3.0	250	19
2023-09-19T06:00	3262	680	-0.5	-3.6	250	20
2023-09-19T06:00	3289	678	-0.7	-3.5	250	20
2023-09-19T06:00	3312	676	-0.8	-3.5	250	20
2023-09-19T06:00	3337	674	-0.9	-4.1	250	19
2023-09-19T06:00	3355	672	-1.0	-4.1	251	18
2023-09-19T06:00	3375	670	-1.1	-4.1	253	18
2023-09-19T06:00	3400	668	-1.0	-4.4	255	17
2023-09-19T06:00	3427	666	-1.1	-4.7	257	17
2023-09-19T06:00	3453	664	-1.3	-4.9	258	17
2023-09-19T06:00	3478	662	-1.5	-5.2	258	17
2023-09-19T06:00	3503	660	-1.7	-5.3	257	17
2023-09-19T06:00	3528	658	-1.9	-5.4	255	16
2023-09-19T06:00	3547	656	-2.0	-5.5	254	16
2023-09-19T06:00	3569	654	-2.1	-6.0	253	16
2023-09-19T06:00	3596	652	-2.2	-5.9	253	15
2023-09-19T06:00	3620	650	-2.3	-6.0	252	15
2023-09-19T06:00	3644	648	-2.3	-6.6	252	15
2023-09-19T06:00	3660	647	-2.4	-6.9	251	14
2023-09-19T06:00	3681	645	-2.5	-7.3	251	14
2023-09-19T06:00	3704	643	-2.7	-7.1	250	14
2023-09-19T06:00	3732	641	-2.9	-7.0	249	14
2023-09-19T06:00	3751	639	-3.0	-6.9	249	14
2023-09-19T06:00	3780	637	-3.3	-7.0	250	14
2023-09-19T06:00	3803	635	-3.5	-7.1	250	14
2023-09-19T06:00	3823	634	-3.5	-7.2	251	14
2023-09-19T06:00	3847	632	-3.6	-7.5	251	14
2023-09-19T06:00	3869	630	-3.8	-7.4	250	14
2023-09-19T06:00	3892	628	-4.1	-7.6	250	13
2023-09-19T06:00	3916	626	-4.3	-7.4	249	13
2023-09-19T06:00	3938	624	-4.3	-7.0	249	13
2023-09-19T06:00	3961	623	-4.4	-8.1	249	14
2023-09-19T06:00	3985	621	-4.5	-8.3	249	14
2023-09-19T06:00	4010	619	-4.8	-8.5	249	15
2023-09-19T06:00	4029	617	-5.0	-8.7	249	16
2023-09-19T06:00	4051	616	-5.2	-8.7	249	16
2023-09-19T06:00	4070	614	-5.1	-9.3	250	17
2023-09-19T06:00	4095	612	-5.3	-9.3	250	17
2023-09-19T06:00	4116	610	-5.5	-9.2	250	16
2023-09-19T06:00	4140	609	-5.7	-9.1	249	16
2023-09-19T06:00	4165	607	-5.9	-9.3	248	16
2023-09-19T06:00	4189	605	-6.0	-9.3	247	16
2023-09-19T06:00	4219	602	-6.2	-9.4	245	16
2023-09-19T06:00	4247	600	-6.4	-9.5	243	16
2023-09-19T06:00	4267	599	-6.5	-8.8	242	16
2023-09-19T06:00	4292	597	-6.7	-8.5	241	16
2023-09-19T06:00	4318	595	-6.8	-8.7	241	17
2023-09-19T06:00	4341	593	-6.7	-9.2	242	17
2023-09-19T06:00	4365	591	-6.8	-9.4	243	18
2023-09-19T06:00	4394	589	-7.0	-9.7	244	18
2023-09-19T06:00	4415	588	-7.2	-9.9	245	18
2023-09-19T06:00	4433	586	-7.3	-10.0	246	17
2023-09-19T06:00	4451	585	-7.4	-10.0	247	17
2023-09-19T06:00	4475	583	-7.6	-10.3	247	16
2023-09-19T06:00	4497	581	-7.8	-10.4	247	16
2023-09-19T06:00	4520	580	-8.0	-10.5	247	17
2023-09-19T06:00	4541	578	-8.2	-10.6	246	17
2023-09-19T06:00	4563	576	-8.4	-10.6	246	17
2023-09-19T06:00	4583	575	-8.6	-10.7	246	17
2023-09-19T06:00	4600	574	-8.8	-10.8	245	17
2023-09-19T06:00	4621	572	-8.9	-10.8	245	17
2023-09-19T06:00	4639	571	-8.9	-11.3	245	17
2023-09-19T06:00	4657	569	-8.9	-11.4	244	16
2023-09-19T06:00	4678	568	-8.8	-12.0	243	16
2023-09-19T06:00	4701	566	-8.8	-12.2	243	16
2023-09-19T06:00	4732	564	-9.0	-12.2	243	16
2023-09-19T06:00	4758	562	-9.1	-13.2	243	16
2023-09-19T06:00	4778	561	-9.0	-15.9	243	16
2023-09-19T06:00	4796	559	-8.9	-16.8	244	17
2023-09-19T06:00	4817	558	-8.6	-18.4	245	17
2023-09-19T06:00	4844	556	-8.5	-17.4	247	17
2023-09-19T06:00	4871	554	-8.6	-17.2	248	17
2023-09-19T06:00	4890	553	-8.8	-17.0	249	17
2023-09-19T06:00	4911	551	-8.9	-17.0	250	17
2023-09-19T06:00	4934	549	-9.1	-17.0	250	17
2023-09-19T06:00	4963	548	-9.4	-17.1	249	17
2023-09-19T06:00	4989	546	-9.6	-17.0	249	18
2023-09-19T06:00	5014	544	-9.7	-17.0	248	18
2023-09-19T06:00	5043	542	-9.9	-17.2	247	18
2023-09-19T06:00	5070	540	-10.0	-17.3	246	18
2023-09-19T06:00	5093	538	-10.1	-17.4	245	18
2023-09-19T06:00	5115	537	-10.3	-17.5	244	18
2023-09-19T06:00	5137	535	-10.4	-17.6	244	18
2023-09-19T06:00	5157	534	-10.6	-17.7	244	19
2023-09-19T06:00	5181	532	-10.8	-17.8	244	19
2023-09-19T06:00	5202	531	-10.9	-18.1	245	19
2023-09-19T06:00	5225	529	-11.1	-18.6	245	19
2023-09-19T06:00	5255	527	-11.3	-18.7	245	19
2023-09-19T06:00	5287	525	-11.5	-19.2	245	19
2023-09-19T06:00	5311	523	-11.7	-19.5	244	19
2023-09-19T06:00	5331	522	-11.9	-20.3	244	19
2023-09-19T06:00	5352	520	-11.9	-22.3	243	19
2023-09-19T06:00	5373	519	-11.7	-23.0	242	20
2023-09-19T06:00	5398	517	-11.7	-23.3	241	20
2023-09-19T06:00	5429	515	-11.9	-23.3	240	20
2023-09-19T06:00	5460	513	-12.2	-23.7	239	19
2023-09-19T06:00	5488	511	-12.4	-23.9	238	19
2023-09-19T06:00	5514	510	-12.6	-24.2	238	19
2023-09-19T06:00	5538	508	-12.7	-24.6	237	19
2023-09-19T06:00	5562	506	-12.9	-24.5	237	19
2023-09-19T06:00	5591	505	-13.1	-24.6	237	20
2023-09-19T06:00	5620	503	-13.3	-25.3	238	19
2023-09-19T06:00	5643	501	-13.4	-26.3	238	19
2023-09-19T06:00	5665	500	-13.6	-27.1	239	18
2023-09-19T06:00	5690	498	-13.6	-28.6	240	18
2023-09-19T06:00	5718	496	-13.8	-27.9	241	18
2023-09-19T06:00	5742	494	-14.1	-28.1	241	18
2023-09-19T06:00	5767	493	-14.3	-27.9	240	19
2023-09-19T06:00	5792	491	-14.5	-27.8	239	19
2023-09-19T06:00	5819	490	-14.7	-28.1	238	20
2023-09-19T06:00	5843	488	-14.9	-28.3	237	21
2023-09-19T06:00	5869	486	-15.1	-28.4	236	22
2023-09-19T06:00	5902	484	-15.3	-29.0	235	22
2023-09-19T06:00	5931	482	-15.4	-28.8	234	22
2023-09-19T06:00	5956	481	-15.6	-25.3	233	22
2023-09-19T06:00	5984	479	-15.8	-25.3	232	22
2023-09-19T06:00	6015	477	-16.0	-25.2	231	22
2023-09-19T06:00	6046	475	-16.1	-25.6	231	22
2023-09-19T06:00	6073	473	-16.3	-26.0	231	22
2023-09-19T06:00	6100	472	-16.5	-26.2	231	21
2023-09-19T06:00	6127	470	-16.7	-26.3	231	21
2023-09-19T06:00	6156	468	-16.9	-26.5	231	21
2023-09-19T06:00	6181	467	-17.2	-26.9	231	21
2023-09-19T06:00	6212	465	-17.2	-29.2	230	21
2023-09-19T06:00	6239	463	-17.1	-31.9	230	21
2023-09-19T06:00	6270	461	-17.2	-31.8	230	21
2023-09-19T06:00	6292	460	-17.4	-31.8	230	21
2023-09-19T06:00	6314	458	-17.6	-31.6	230	21
2023-09-19T06:00	6338	457	-17.8	-31.7	230	21
2023-09-19T06:00	6361	455	-18.0	-31.8	230	21
2023-09-19T06:00	6392	454	-18.3	-31.6	230	21
2023-09-19T06:00	6417	452	-18.5	-31.7	230	21
2023-09-19T06:00	6445	450	-18.8	-31.6	229	21
2023-09-19T06:00	6466	449	-19.0	-31.7	228	21
2023-09-19T06:00	6490	448	-19.3	-31.8	227	21
2023-09-19T06:00	6522	446	-19.5	-32.0	227	22
2023-09-19T06:00	6545	444	-19.7	-31.7	227	21
2023-09-19T06:00	6570	443	-19.9	-31.2	228	21
2023-09-19T06:00	6599	441	-20.0	-31.1	228	21
2023-09-19T06:00	6624	440	-20.2	-31.8	229	21
2023-09-19T06:00	6656	438	-20.4	-32.0	230	21
2023-09-19T06:00	6690	436	-20.7	-32.0	230	21
2023-09-19T06:00	6719	434	-21.0	-32.2	229	21
2023-09-19T06:00	6748	432	-21.3	-32.3	229	21
2023-09-19T06:00	6774	431	-21.6	-32.3	229	21
2023-09-19T06:00	6802	429	-21.8	-32.5	229	22
2023-09-19T06:00	6824	428	-22.0	-32.8	229	22
2023-09-19T06:00	6846	427	-22.2	-33.6	229	22
2023-09-19T06:00	6869	425	-22.1	-35.6	230	22
2023-09-19T06:00	6902	423	-22.2	-34.7	231	23
2023-09-19T06:00	6934	422	-22.5	-35.6	232	23
2023-09-19T06:00	6964	420	-22.7	-36.8	233	23
2023-09-19T06:00	6989	418	-22.9		233	23
2023-09-19T06:00	7017	417	-23.2	-39.9	233	22
2023-09-19T06:00	7051	415	-23.5	-40.5	232	22
2023-09-19T06:00	7073	414	-23.6	-42.0	232	22
2023-09-19T06:00	7097	412	-23.7	-43.5	232	21
2023-09-19T06:00	7120	411	-23.8	-43.1	233	21
2023-09-19T06:00	7144	410	-23.9	-44.2	234	21
2023-09-19T06:00	7165	408	-24.0	-44.6	234	21
2023-09-19T06:00	7189	407	-24.2	-44.7	234	21
2023-09-19T06:00	7214	406	-24.4	-44.7	234	21
2023-09-19T06:00	7242	404	-24.6	-44.7	234	21
2023-09-19T06:00	7274	402	-24.8	-44.6	233	21
2023-09-19T06:00	7309	400	-25.0	-44.8	233	22
2023-09-19T06:00	7345	399	-25.3	-44.6	234	22
2023-09-19T06:00	7379	397	-25.6	-44.1	235	22
2023-09-19T06:00	7411	395	-25.9	-43.8	235	22
2023-09-19T06:00	7437	393	-26.1	-43.9	235	22
2023-09-19T06:00	7460	392	-26.3	-43.8	234	22
2023-09-19T06:00	7487	391	-26.4	-45.1	233	22
2023-09-19T06:00	7516	389	-26.7	-45.1	233	22
2023-09-19T06:00	7541	388	-26.9	-45.3	232	22
2023-09-19T06:00	7564	387	-27.1	-45.8	232	22
2023-09-19T06:00	7589	385	-27.3	-45.6	232	22
2023-09-19T06:00	7620	384	-27.6	-45.3	232	22
2023-09-19T06:00	7657	382	-27.9	-45.5	232	22
2023-09-19T06:00	7684	380	-28.2	-45.6	232	22
2023-09-19T06:00	7709	379	-28.4	-45.5	232	22
2023-09-19T06:00	7735	377	-28.6	-45.4	232	22
2023-09-19T06:00	7763	376	-28.8	-45.5	232	22
2023-09-19T06:00	7792	374	-29.1	-45.7	232	22
2023-09-19T06:00	7824	373	-29.4	-45.8	232	22
2023-09-19T06:00	7857	371	-29.7	-45.9	232	22
2023-09-19T06:00	7893	369	-30.0	-45.6	232	22
2023-09-19T06:00	7923	368	-30.4		232	22
2023-09-19T06:00	7950	366	-30.6	-46.0	233	22
2023-09-19T06:00	7975	365	-30.9	-46.1	232	22
2023-09-19T06:00	7999	364	-31.1	-46.1	232	22
2023-09-19T06:00	8026	362	-31.3	-46.0	232	22
2023-09-19T06:00	8060	361	-31.7	-46.2	231	22
2023-09-19T06:00	8097	359	-32.0	-46.7	230	22
2023-09-19T06:00	8122	357	-32.2	-46.8	230	21
2023-09-19T06:00	8148	356	-32.5	-47.0	230	21
2023-09-19T06:00	8175	355	-32.7	-47.1	229	22
2023-09-19T06:00	8204	353	-33.0	-47.2	229	22
2023-09-19T06:00	8232	352	-33.3	-47.5	229	22
2023-09-19T06:00	8263	350	-33.5	-47.5	228	23
2023-09-19T06:00	8292	349	-33.8	-47.6	228	23
2023-09-19T06:00	8321	348	-34.0	-47.7	227	23
2023-09-19T06:00	8349	346	-34.2	-47.9	227	24
2023-09-19T06:00	8373	345	-34.5	-47.9	227	24
2023-09-19T06:00	8404	343	-34.7	-48.2	227	24
2023-09-19T06:00	8429	342	-34.9	-48.1	227	25
2023-09-19T06:00	8453	341	-35.2	-48.3	227	26
2023-09-19T06:00	8481	340	-35.3	-48.2	227	26
2023-09-19T06:00	8509	338	-35.6	-48.2	227	27
2023-09-19T06:00	8534	337	-35.8	-47.5	226	27
2023-09-19T06:00	8559	336	-35.9	-47.0	226	27
2023-09-19T06:00	8591	334	-36.1	-46.7	226	27
2023-09-19T06:00	8615	333	-36.3	-46.6	225	27
2023-09-19T06:00	8638	332	-36.5	-46.3	225	27
2023-09-19T06:00	8662	331	-36.7	-46.2	224	27
2023-09-19T06:00	8685	330	-36.9	-46.1	224	28
2023-09-19T06:00	8708	329	-37.1	-46.0	223	28
2023-09-19T06:00	8732	328	-37.3	-46.0	223	28
2023-09-19T06:00	8758	326	-37.4	-45.3	223	29
2023-09-19T06:00	8782	325	-37.6	-44.5	223	30
2023-09-19T06:00	8813	324	-37.7	-44.7	223	30
2023-09-19T06:00	8840	322	-37.8	-45.7	223	31
2023-09-19T06:00	8866	321	-38.0	-45.6	223	31
2023-09-19T06:00	8900	320	-38.2	-45.8	223	32
2023-09-19T06:00	8929	318	-38.4	-46.0	223	32
2023-09-19T06:00	8961	317	-38.6	-46.1	223	33
2023-09-19T06:00	8989	316	-38.9	-46.2	224	33
2023-09-19T06:00	9019	314	-39.1	-47.1	224	33
2023-09-19T06:00	9049	313	-39.4	-47.0	224	33
2023-09-19T06:00	9079	311	-39.7	-47.3	223	33
2023-09-19T06:00	9110	310	-39.9	-48.0	223	34
2023-09-19T06:00	9136	309	-40.1	-48.1	223	34
2023-09-19T06:00	9163	308	-40.3	-48.1	223	34
2023-09-19T06:00	9192	306	-40.6	-48.3	223	34
2023-09-19T06:00	9219	305	-40.8	-47.9	222	35
2023-09-19T06:00	9246	304	-41.1	-48.1	221	35
2023-09-19T06:00	9277	303	-41.4	-47.2	220	35
2023-09-19T06:00	9308	301	-41.6	-47.5	220	35
2023-09-19T06:00	9338	300	-41.8	-48.2	219	35
2023-09-19T06:00	9364	299	-42.0	-48.2	219	35
2023-09-19T06:00	9391	297	-42.2	-47.9	219	35
2023-09-19T06:00	9421	296	-42.5	-47.9	218	35
2023-09-19T06:00	9448	295	-42.7	-48.0	218	35
2023-09-19T06:00	9471	294	-42.9	-47.6	217	35
2023-09-19T06:00	9503	293	-43.2	-47.0	217	35
2023-09-19T06:00	9534	291	-43.5	-47.0	217	35
2023-09-19T06:00	9563	290	-43.8	-47.3	217	35
2023-09-19T06:00	9591	289	-44.0	-46.8	217	35
2023-09-19T06:00	9614	288	-44.2	-46.6	216	35
2023-09-19T06:00	9646	286	-44.4	-46.7	215	35
2023-09-19T06:00	9676	285	-44.5	-47.1	214	35
2023-09-19T06:00	9708	284	-44.7	-47.3	213	35
2023-09-19T06:00	9736	283	-44.9	-47.5	212	35
2023-09-19T06:00	9764	281	-45.2	-47.6	212	36
2023-09-19T06:00	9797	280	-45.3	-47.8	211	36
2023-09-19T06:00	9825	279	-45.5	-48.0	211	37
2023-09-19T06:00	9846	278	-45.7	-48.2	211	37
2023-09-19T06:00	9871	277	-45.9	-48.3	210	37
2023-09-19T06:00	9895	276	-46.1	-48.3	210	36
2023-09-19T06:00	9925	275	-46.4	-48.6	209	36
2023-09-19T06:00	9950	274	-46.6	-49.1	209	36
2023-09-19T06:00	9982	272	-46.8	-49.4	209	35
2023-09-19T06:00	10010	271	-47.1	-49.9	209	36
2023-09-19T06:00	10038	270	-47.3	-50.3	209	36
2023-09-19T06:00	10067	269	-47.6	-50.3	209	36
2023-09-19T06:00	10095	268	-47.9	-50.1	208	37
2023-09-19T06:00	10126	266	-48.2	-50.6	208	37
2023-09-19T06:00	10154	265	-48.4	-51.3	207	36
2023-09-19T06:00	10182	264	-48.7	-52.5	206	36
2023-09-19T06:00	10213	263	-49.0	-54.4	206	36
2023-09-19T06:00	10240	262	-49.2	-55.9	205	36
2023-09-19T06:00	10269	261	-49.5	-55.6	204	36
2023-09-19T06:00	10293	260	-49.7	-55.4	204	36
2023-09-19T06:00	10320	259	-50.0	-55.1	204	36
2023-09-19T06:00	10349	258	-50.3	-55.3	204	36
2023-09-19T06:00	10384	256	-50.6	-54.7	204	37
2023-09-19T06:00	10408	255	-50.8	-53.8	204	37
2023-09-19T06:00	10440	254	-51.1	-54.4	205	38
2023-09-19T06:00	10467	253	-51.3	-54.9	205	38
2023-09-19T06:00	10493	252	-51.6	-55.2	205	39
2023-09-19T06:00	10522	251	-51.9	-55.6	205	39
2023-09-19T06:00	10546	250	-52.1	-55.8	205	39
2023-09-19T06:00	10578	249	-52.4	-56.1	205	39
2023-09-19T06:00	10603	248	-52.7	-56.8	204	39
2023-09-19T06:00	10633	247	-53.0	-58.1	204	38
2023-09-19T06:00	10658	246	-53.3	-59.3	204	38
2023-09-19T06:00	10686	245	-53.5	-59.5	204	38
2023-09-19T06:00	10707	244	-53.8	-59.2	204	38
2023-09-19T06:00	10729	243	-54.0	-58.9	204	38
2023-09-19T06:00	10757	242	-54.2	-58.7	204	38
2023-09-19T06:00	10787	241	-54.5	-58.9	204	39
2023-09-19T06:00	10815	240	-54.8	-59.7	203	39
2023-09-19T06:00	10840	239	-55.0	-60.2	203	40
2023-09-19T06:00	10865	238	-55.3	-60.2	203	40
2023-09-19T06:00	10891	237	-55.5	-59.9	203	40
2023-09-19T06:00	10923	236	-55.8	-59.8	203	39
2023-09-19T06:00	10947	235	-56.1	-59.9	203	38
2023-09-19T06:00	10974	234	-56.3	-60.0	203	38
2023-09-19T06:00	10995	233	-56.5	-60.2	203	38
2023-09-19T06:00	11022	232	-56.8	-60.6	204	38
2023-09-19T06:00	11046	231	-57.0	-60.8	204	38
2023-09-19T06:00	11073	230	-57.3	-61.1	205	38
2023-09-19T06:00	11099	229	-57.5	-61.4	206	38
2023-09-19T06:00	11129	228	-57.8	-61.9	206	38
2023-09-19T06:00	11157	227	-58.1	-62.3	207	38
2023-09-19T06:00	11184	226	-58.4	-62.3	207	37
2023-09-19T06:00	11211	225	-58.6	-62.4	208	37
2023-09-19T06:00	11243	224	-58.9	-62.7	210	37
2023-09-19T06:00	11274	223	-59.0	-63.0	211	37
2023-09-19T06:00	11300	222	-59.0	-63.3	213	38
2023-09-19T06:00	11342	221	-59.2	-63.8	214	38
2023-09-19T06:00	11369	219	-59.2	-63.7	215	39
2023-09-19T06:00	11401	218	-59.4	-63.9	216	39
2023-09-19T06:00	11437	217	-59.5	-63.9	217	39
2023-09-19T06:00	11468	216	-59.6	-64.0	218	39
2023-09-19T06:00	11495	215	-59.8	-64.2	219	39
2023-09-19T06:00	11524	214	-59.8	-64.2	220	38
2023-09-19T06:00	11550	213	-60.0	-64.4	220	38
2023-09-19T06:00	11578	212	-60.2	-64.6	220	38
2023-09-19T06:00	11599	212	-60.3	-64.6	221	38
2023-09-19T06:00	11620	211	-60.4	-64.8	221	38
2023-09-19T06:00	11641	210	-60.5	-64.9	222	37
2023-09-19T06:00	11664	209	-60.7	-65.0	223	37
2023-09-19T06:00	11687	209	-60.9	-65.2	224	36
2023-09-19T06:00	11711	208	-60.9	-65.3	225	35
2023-09-19T06:00	11733	207	-60.7	-65.6	226	35
2023-09-19T06:00	11754	206	-60.6	-66.6	226	34
2023-09-19T06:00	11780	205	-60.5	-67.9	227	33
2023-09-19T06:00	11809	205	-60.3	-69.0	227	32
2023-09-19T06:00	11830	204	-60.1	-69.6	227	31
2023-09-19T06:00	11855	203	-60.1	-70.0	226	31
2023-09-19T06:00	11878	202	-60.1	-70.3	226	31
2023-09-19T06:00	11901	202	-60.0	-70.2	225	31
2023-09-19T06:00	11924	201	-60.1	-70.4	225	31
2023-09-19T06:00	11944	200	-60.1	-70.8	225	31
2023-09-19T06:00	11966	199	-59.8	-71.5	225	30
2023-09-19T06:00	11984	199	-59.4	-72.7	226	30
2023-09-19T06:00	12007	198	-58.5	-73.8	226	29
2023-09-19T06:00	12026	198	-58.1	-75.0	228	29
2023-09-19T06:00	12047	197	-57.8	-76.2	229	28
2023-09-19T06:00	12066	196	-57.4	-77.1	230	28
2023-09-19T06:00	12087	196	-56.9	-77.9	232	28
2023-09-19T06:00	12109	195	-56.1	-78.1	233	27
2023-09-19T06:00	12128	194	-55.7	-77.8	235	27
2023-09-19T06:00	12149	194	-55.7	-77.4	236	27
2023-09-19T06:00	12169	193	-55.7	-76.6	237	26
2023-09-19T06:00	12188	193	-55.4	-75.7	237	26
2023-09-19T06:00	12209	192	-55.5	-75.5	237	26
2023-09-19T06:00	12228	191	-55.6	-75.4	237	25
2023-09-19T06:00	12249	191	-55.5	-75.5	236	25
2023-09-19T06:00	12269	190	-55.4	-75.7	236	25
2023-09-19T06:00	12289	190	-55.3	-76.1	236	26
2023-09-19T06:00	12311	189	-55.3	-76.5	236	26
2023-09-19T06:00	12333	188	-55.1	-76.9	237	26
2023-09-19T06:00	12354	188	-54.9	-77.3	236	25
2023-09-19T06:00	12376	187	-54.5	-77.6	236	25
2023-09-19T06:00	12394	186	-54.1	-77.9	236	25
2023-09-19T06:00	12413	186	-54.0	-77.8	235	24
2023-09-19T06:00	12435	185	-53.9	-77.7	235	24
2023-09-19T06:00	12456	185	-54.0	-77.8	234	23
2023-09-19T06:00	12476	184	-54.0	-77.6	233	23
2023-09-19T06:00	12497	183	-54.0	-77.8	232	22
2023-09-19T06:00	12521	183	-53.7	-77.5	231	21
2023-09-19T06:00	12544	182	-53.6	-77.7	230	21
2023-09-19T06:00	12570	181	-53.5	-77.8	230	20
2023-09-19T06:00	12592	181	-53.4	-78.1	229	20
2023-09-19T06:00	12614	180	-53.0	-78.0	229	20
2023-09-19T06:00	12638	180	-52.7	-78.0	229	20
2023-09-19T06:00	12657	179	-52.6	-78.2	229	21
2023-09-19T06:00	12678	178	-52.6	-78.7	228	21
2023-09-19T06:00	12699	178	-52.4	-78.8	227	21
2023-09-19T06:00	12726	177	-52.5	-79.1	226	21
2023-09-19T06:00	12752	176	-52.8	-79.3	225	20
2023-09-19T06:00	12782	176	-53.1	-79.3	223	20
2023-09-19T06:00	12806	175	-53.3	-79.5	221	20
2023-09-19T06:00	12840	174	-53.5	-79.4	219	20
2023-09-19T06:00	12863	173	-53.7	-79.5	218	20
2023-09-19T06:00	12885	173	-53.8	-79.6	217	20
2023-09-19T06:00	12906	172	-53.9	-79.7	217	20
2023-09-19T06:00	12928	172	-53.9	-79.7	217	20
2023-09-19T06:00	12947	171	-53.9	-79.7	217	21
2023-09-19T06:00	12968	171	-53.6	-79.7	216	21
2023-09-19T06:00	12988	170	-53.4	-79.5	216	21
2023-09-19T06:00	13009	169	-53.5	-79.9	215	21
2023-09-19T06:00	13031	169	-53.5	-79.9	215	21
2023-09-19T06:00	13050	168	-53.5	-79.9	214	21
2023-09-19T06:00	13070	168	-53.5	-79.6	214	22
2023-09-19T06:00	13093	167	-53.6	-79.7	214	22
2023-09-19T06:00	13114	167	-53.8	-79.8	214	22
2023-09-19T06:00	13134	166	-54.0	-79.7	214	22
2023-09-19T06:00	13154	166	-54.2	-79.9	214	23
2023-09-19T06:00	13175	165	-54.4	-80.1	215	23
2023-09-19T06:00	13193	165	-54.5	-79.9	215	23
2023-09-19T06:00	13213	164	-54.7	-80.0	216	24
2023-09-19T06:00	13231	164	-54.8	-80.1	216	24
2023-09-19T06:00	13251	163	-54.9	-80.2	216	24
2023-09-19T06:00	13269	163	-54.9	-80.2	215	25
2023-09-19T06:00	13289	162	-55.0	-80.3	214	25
2023-09-19T06:00	13310	162	-55.1	-80.4	214	25
2023-09-19T06:00	13327	161	-55.2	-80.4	213	26
2023-09-19T06:00	13345	161	-55.3	-80.5	213	26
2023-09-19T06:00	13367	160	-55.5	-80.7	213	26
2023-09-19T06:00	13385	160	-55.5	-80.7	214	26
2023-09-19T06:00	13403	159	-55.5	-80.7	215	26
2023-09-19T06:00	13424	159	-55.4	-80.8	216	26
2023-09-19T06:00	13441	158	-55.1	-80.6	217	25
2023-09-19T06:00	13464	158	-55.1	-80.6	218	25
2023-09-19T06:00	13484	157	-55.2	-80.9	219	24
2023-09-19T06:00	13502	157	-55.1	-80.9	221	23
2023-09-19T06:00	13525	156	-55.1	-80.9	222	22
2023-09-19T06:00	13545	156	-55.2	-80.9	225	22
2023-09-19T06:00	13566	155	-55.4	-81.1	227	21
2023-09-19T06:00	13588	155	-55.4	-80.8	229	21
2023-09-19T06:00	13606	154	-55.5	-81.2	232	21
2023-09-19T06:00	13625	154	-55.4	-81.1	234	20
2023-09-19T06:00	13645	153	-54.9	-81.0	235	20
2023-09-19T06:00	13664	153	-54.7	-80.8	237	20
2023-09-19T06:00	13680	153	-54.7	-81.1	238	20
2023-09-19T06:00	13700	152	-54.7	-81.1	239	20
2023-09-19T06:00	13720	152	-54.6	-81.0	240	20
2023-09-19T06:00	13739	151	-54.4	-81.2	240	20
2023-09-19T06:00	13761	151	-54.1	-80.9	241	20
2023-09-19T06:00	13778	150	-54.0	-81.2	240	20
2023-09-19T06:00	13800	150	-53.8	-81.0	239	20
2023-09-19T06:00	13820	149	-53.8	-81.0	238	20
2023-09-19T06:00	13840	149	-53.9	-81.1	237	20
2023-09-19T06:00	13860	148	-54.1	-81.2	236	19
2023-09-19T06:00	13880	148	-54.2	-81.3	235	19
2023-09-19T06:00	13902	147	-54.3	-81.1	234	19
2023-09-19T06:00	13923	147	-54.5	-81.2	233	19
2023-09-19T06:00	13944	146	-54.5	-81.2	232	19
2023-09-19T06:00	13965	146	-54.3	-81.4	231	20
2023-09-19T06:00	13988	145	-54.2	-81.3	231	20
2023-09-19T06:00	14011	145	-54.2	-81.3	231	20
2023-09-19T06:00	14031	144	-54.2	-81.3	231	21
2023-09-19T06:00	14054	144	-54.3	-81.4	231	21
2023-09-19T06:00	14076	143	-54.3	-81.4	231	21
2023-09-19T06:00	14098	143	-54.4	-81.5	232	22
2023-09-19T06:00	14120	142	-54.5	-81.5	233	23
2023-09-19T06:00	14139	142	-54.6	-81.6	234	23
2023-09-19T06:00	14162	142	-54.7	-81.7	235	23
2023-09-19T06:00	14185	141	-54.7	-81.7	237	23
2023-09-19T06:00	14205	141	-54.6	-81.9	238	23
2023-09-19T06:00	14224	140	-53.7	-81.6	239	23
2023-09-19T06:00	14245	140	-52.8	-81.3	240	22
2023-09-19T06:00	14269	139	-52.2	-81.2	241	22
2023-09-19T06:00	14290	139	-52.1	-81.1	242	21
2023-09-19T06:00	14312	138	-52.3	-81.3	242	20
2023-09-19T06:00	14334	138	-52.4	-81.4	242	20
2023-09-19T06:00	14354	137	-52.5	-81.0	242	19
2023-09-19T06:00	14377	137	-52.7	-81.2	242	19
2023-09-19T06:00	14400	136	-52.9	-81.4	242	19
2023-09-19T06:00	14423	136	-53.0	-81.1	243	18
2023-09-19T06:00	14446	135	-53.1	-81.1	243	18
2023-09-19T06:00	14468	135	-53.3	-81.3	243	17
2023-09-19T06:00	14489	135	-53.4	-81.4	243	16
2023-09-19T06:00	14511	134	-53.5	-81.4	242	15
2023-09-19T06:00	14532	134	-53.6	-81.5	241	15
2023-09-19T06:00	14555	133	-53.8	-81.7	239	14
2023-09-19T06:00	14574	133	-53.8	-81.7	237	14
2023-09-19T06:00	14595	132	-53.6	-81.5	235	14
2023-09-19T06:00	14619	132	-53.5	-81.4	232	14
2023-09-19T06:00	14639	131	-53.4	-81.7	230	14
2023-09-19T06:00	14660	131	-53.3	-81.7	228	15
2023-09-19T06:00	14680	131	-53.1	-81.9	227	15
2023-09-19T06:00	14700	130	-52.8	-81.7	225	16
2023-09-19T06:00	14722	130	-52.4	-81.4	223	16
2023-09-19T06:00	14741	129	-52.1	-81.5	221	16
2023-09-19T06:00	14765	129	-51.7	-81.2	218	16
2023-09-19T06:00	14786	128	-51.7	-81.2	217	17
2023-09-19T06:00	14809	128	-51.7	-81.2	216	17
2023-09-19T06:00	14830	128	-51.9	-81.4	215	17
2023-09-19T06:00	14849	127	-52.0	-81.1	215	18
2023-09-19T06:00	14870	127	-52.0	-81.1	216	18
2023-09-19T06:00	14895	126	-52.1	-81.5	216	19
2023-09-19T06:00	14915	126	-52.0	-81.5	217	19
2023-09-19T06:00	14936	126	-51.8	-81.3	218	19
2023-09-19T06:00	14956	125	-51.8	-80.9	219	18
2023-09-19T06:00	14977	125	-51.9	-81.0	220	18
2023-09-19T06:00	14999	124	-52.1	-81.1	221	18
2023-09-19T06:00	15019	124	-52.2	-81.2	222	18
2023-09-19T06:00	15041	123	-52.4	-81.4	223	18
2023-09-19T06:00	15065	123	-52.6	-81.5	225	18
2023-09-19T06:00	15084	123	-52.7	-81.2	226	18
2023-09-19T06:00	15107	122	-52.9	-81.4	228	18
2023-09-19T06:00	15129	122	-53.0	-81.4	229	18
2023-09-19T06:00	15151	121	-53.2	-81.6	230	18
2023-09-19T06:00	15174	121	-53.3	-81.7	231	18
2023-09-19T06:00	15194	121	-53.4	-81.7	231	18
2023-09-19T06:00	15218	120	-53.5	-81.8	232	18
2023-09-19T06:00	15239	120	-53.7	-81.6	232	19
2023-09-19T06:00	15261	119	-53.9	-81.7	233	19
2023-09-19T06:00	15284	119	-54.1	-81.9	234	19
2023-09-19T06:00	15307	118	-54.3	-82.1	235	19
2023-09-19T06:00	15332	118	-54.5	-81.9	236	19
2023-09-19T06:00	15356	118	-54.6	-81.9	237	19
2023-09-19T06:00	15377	117	-54.8	-82.1	238	20
2023-09-19T06:00	15398	117	-55.0	-82.3	240	20
2023-09-19T06:00	15423	116	-55.1	-82.3	242	20
2023-09-19T06:00	15444	116	-55.2	-82.4	244	21
2023-09-19T06:00	15469	116	-55.0	-82.3	246	21
2023-09-19T06:00	15489	115	-54.9	-82.5	249	21
2023-09-19T06:00	15511	115	-54.6	-82.3	251	21
2023-09-19T06:00	15534	114	-54.0	-82.2	253	20
2023-09-19T06:00	15554	114	-53.9	-82.1	255	20
2023-09-19T06:00	15578	114	-53.7	-82.0	256	19
2023-09-19T06:00	15602	113	-53.5	-82.2	258	19
2023-09-19T06:00	15622	113	-53.5	-82.2	259	18
2023-09-19T06:00	15646	112	-53.4	-82.1	260	17
2023-09-19T06:00	15669	112	-53.2	-82.0	260	16
2023-09-19T06:00	15691	112	-53.2	-82.0	261	16
2023-09-19T06:00	15710	111	-53.1	-81.9	261	15
2023-09-19T06:00	15733	111	-53.1	-81.9	261	15
2023-09-19T06:00	15755	111	-53.3	-82.0	261	14
2023-09-19T06:00	15776	110	-53.3	-82.0	261	14
2023-09-19T06:00	15796	110	-53.4	-82.1	260	14
2023-09-19T06:00	15816	109	-53.2	-82.0	259	14
2023-09-19T06:00	15839	109	-53.2	-82.0	257	14
2023-09-19T06:00	15860	109	-53.4	-82.1	254	14
2023-09-19T06:00	15881	108	-53.5	-82.2	252	13
2023-09-19T06:00	15902	108	-53.5	-82.2	249	13
2023-09-19T06:00	15921	108	-53.5	-82.2	246	13
2023-09-19T06:00	15944	107	-53.6	-82.3	243	12
2023-09-19T06:00	15966	107	-53.6	-82.3	241	13
2023-09-19T06:00	15991	107	-53.7	-82.3	239	13
2023-09-19T06:00	16014	106	-53.7	-82.3	237	13
2023-09-19T06:00	16036	106	-53.8	-82.4	236	13
2023-09-19T06:00	16061	105	-53.9	-82.5	235	14
2023-09-19T06:00	16083	105	-53.9	-82.5	235	14
2023-09-19T06:00	16106	105	-53.9	-82.5	235	14
2023-09-19T06:00	16129	104	-54.0	-82.6	236	14
2023-09-19T06:00	16153	104	-54.1	-82.6	236	14
2023-09-19T06:00	16178	103	-54.0	-82.6	237	14
2023-09-19T06:00	16205	103	-54.1	-82.6	239	13
2023-09-19T06:00	16227	103	-54.1	-82.6	240	13
2023-09-19T06:00	16252	102	-54.1	-82.6	242	13
2023-09-19T06:00	16275	102	-53.8	-82.8	245	12
2023-09-19T06:00	16301	102	-53.6	-82.7	247	11
2023-09-19T06:00	16326	101	-53.5	-83.0	249	11
2023-09-19T06:00	16351	101	-53.3	-82.9	251	10
2023-09-19T06:00	16373	100	-53.0	-82.7	252	10
2023-09-19T06:00	16400	100	-53.1	-82.7	251	9
2023-09-19T06:00	16424	100	-53.1	-82.7	249	9
2023-09-19T06:00	16444	99	-53.0	-82.7	247	9
2023-09-19T06:00	16467	99	-52.6	-82.4	244	9
2023-09-19T06:00	16490	99	-52.6	-82.4	242	9
2023-09-19T06:00	16515	98	-52.7	-82.4	241	9
2023-09-19T06:00	16538	98	-52.8	-82.5	240	10
2023-09-19T06:00	16560	98	-52.9	-82.6	240	10
2023-09-19T06:00	16581	97	-53.0	-82.7	239	11
2023-09-19T06:00	16606	97	-53.1	-82.7	239	11
2023-09-19T06:00	16627	97	-53.2	-82.4	239	11
2023-09-19T06:00	16652	96	-53.4	-82.5	240	12
2023-09-19T06:00	16672	96	-53.6	-82.7	240	12
2023-09-19T06:00	16695	95	-53.8	-82.8	241	12
2023-09-19T06:00	16716	95	-54.0	-83.0	242	13
2023-09-19T06:00	16738	95	-54.1	-83.1	242	13
2023-09-19T06:00	16762	95	-54.2	-82.7	242	13
2023-09-19T06:00	16782	94	-54.3	-82.8	241	14
2023-09-19T06:00	16805	94	-54.5	-82.9	241	14
2023-09-19T06:00	16826	94	-54.7	-83.1	242	14
2023-09-19T06:00	16849	93	-54.8	-83.6	243	15
2023-09-19T06:00	16871	93	-54.7	-83.5	245	15
2023-09-19T06:00	16892	93	-54.4	-83.3	246	15
2023-09-19T06:00	16912	92	-54.5	-83.4	248	15
2023-09-19T06:00	16932	92	-54.3	-83.2	249	16
2023-09-19T06:00	16952	92	-54.0	-83.4	249	16
2023-09-19T06:00	16972	91	-54.0	-83.4	250	16
2023-09-19T06:00	16992	91	-54.1	-83.5	250	16
2023-09-19T06:00	17009	91	-54.2	-83.6	251	16
2023-09-19T06:00	17029	91	-54.3	-83.6	253	15
2023-09-19T06:00	17048	90	-54.3	-83.2	254	15
2023-09-19T06:00	17071	90	-54.3	-83.2	256	14
2023-09-19T06:00	17088	90	-54.3	-83.2	259	14
2023-09-19T06:00	17108	90	-54.2	-83.1	261	13
2023-09-19T06:00	17128	89	-54.3	-83.6	263	13
2023-09-19T06:00	17149	89	-54.1	-83.5	265	12
2023-09-19T06:00	17169	89	-53.8	-83.3	266	12
2023-09-19T06:00	17187	88	-53.9	-83.3	267	11
2023-09-19T06:00	17209	88	-54.0	-83.4	268	10
2023-09-19T06:00	17230	88	-54.1	-83.5	269	10
2023-09-19T06:00	17251	88	-54.2	-83.6	270	9
2023-09-19T06:00	17272	87	-54.1	-83.5	270	9
2023-09-19T06:00	17291	87	-53.8	-83.3	270	9
2023-09-19T06:00	17312	87	-53.8	-83.3	269	8
2023-09-19T06:00	17332	86	-53.8	-83.3	268	8
2023-09-19T06:00	17354	86	-53.7	-83.2	266	8
2023-09-19T06:00	17378	86	-53.5	-83.0	263	7
2023-09-19T06:00	17398	86	-53.4	-83.4	261	7
2023-09-19T06:00	17421	85	-53.3		259	7
2023-09-19T06:00	17444	85	-53.5	-83.0	257	7
2023-09-19T06:00	17467	85	-53.7	-83.2	255	7
2023-09-19T06:00	17490	84	-53.9	-83.3	253	6
2023-09-19T06:00	17511	84	-54.1	-83.1	252	6
2023-09-19T06:00	17536	84	-54.3	-83.2	250	6
2023-09-19T06:00	17560	83	-54.5	-83.4	249	6
2023-09-19T06:00	17584	83	-54.6	-83.4	248	6
2023-09-19T06:00	17608	83	-54.8	-83.6	247	6
2023-09-19T06:00	17631	83	-54.8	-83.6	246	7
2023-09-19T06:00	17657	82	-54.8	-83.6	244	7
2023-09-19T06:00	17681	82	-54.8	-83.6	242	7
2023-09-19T06:00	17704	82	-54.6	-83.9	239	7
2023-09-19T06:00	17729	81	-54.5	-83.8	237	8
2023-09-19T06:00	17756	81	-54.6	-83.9	235	8
2023-09-19T06:00	17778	81	-54.7	-83.9	233	8
2023-09-19T06:00	17801	80	-54.9	-83.7	232	9
2023-09-19T06:00	17827	80	-55.1	-83.8	231	9
2023-09-19T06:00	17852	80	-55.3	-84.0	231	9
2023-09-19T06:00	17877	79	-55.4	-84.0	231	10
2023-09-19T06:00	17900	79	-55.4	-84.0	231	10
2023-09-19T06:00	17923	79	-55.4	-84.0	231	11
2023-09-19T06:00	17947	79	-55.4	-84.0	231	11
2023-09-19T06:00	17973	78	-55.4	-84.0	232	12
2023-09-19T06:00	17998	78	-55.4	-84.0	232	12
2023-09-19T06:00	18027	78	-55.5	-84.5	233	13
2023-09-19T06:00	18049	77	-55.2	-84.3	235	14
2023-09-19T06:00	18073	77	-55.1	-84.2	236	14
2023-09-19T06:00	18097	77	-55.1	-84.2	237	15
2023-09-19T06:00	18118	76	-55.1	-84.2	239	15
2023-09-19T06:00	18142	76	-55.1	-84.2	241	15
2023-09-19T06:00	18164	76	-55.2	-84.3	242	15
2023-09-19T06:00	18188	76	-55.2	-84.3	244	15
2023-09-19T06:00	18211	75	-55.3	-84.4	245	16
2023-09-19T06:00	18231	75	-55.5	-84.1	247	16
2023-09-19T06:00	18255	75	-55.6	-84.2	249	16
2023-09-19T06:00	18279	75	-55.7	-84.3	251	16
2023-09-19T06:00	18302	74	-55.7	-84.3	253	16
2023-09-19T06:00	18320	74	-55.8	-84.3	254	16
2023-09-19T06:00	18337	74	-55.9	-84.4	256	16
2023-09-19T06:00	18362	74	-56.0	-84.5	257	16
2023-09-19T06:00	18383	73	-56.0	-84.5	258	16
2023-09-19T06:00	18404	73	-56.1	-84.6	259	16
2023-09-19T06:00	18422	73	-56.2	-84.6	261	16
2023-09-19T06:00	18442	73	-56.3	-84.7	262	16
2023-09-19T06:00	18464	72	-56.4	-84.8	264	16
2023-09-19T06:00	18483	72	-56.4	-84.8	266	15
2023-09-19T06:00	18503	72	-56.4	-84.8	269	15
2023-09-19T06:00	18526	72	-56.3	-85.1	272	14
2023-09-19T06:00	18546	71	-56.1	-85.0	275	13
2023-09-19T06:00	18567	71	-55.7	-85.2	278	13
2023-09-19T06:00	18589	71	-55.4	-84.9	281	12
2023-09-19T06:00	18607	71	-55.2	-84.8	284	12
2023-09-19T06:00	18629	71	-55.2	-84.8	287	11
2023-09-19T06:00	18653	70	-55.2	-84.8	291	11
2023-09-19T06:00	18673	70	-55.1	-84.7	296	11
2023-09-19T06:00	18697	70	-55.1	-84.7	300	10
2023-09-19T06:00	18718	70	-55.1	-84.7	303	10
2023-09-19T06:00	18741	69	-55.0	-84.6	306	10
2023-09-19T06:00	18765	69	-55.1	-84.7	308	10
2023-09-19T06:00	18787	69	-55.3	-84.4	310	9
2023-09-19T06:00	18807	69	-55.5	-84.5	312	9
2023-09-19T06:00	18832	68	-55.6	-84.6	313	9
2023-09-19T06:00	18853	68	-55.8	-84.8	315	8
2023-09-19T06:00	18878	68	-56.0	-84.9	315	8
2023-09-19T06:00	18897	68	-56.2	-85.1	314	7
2023-09-19T06:00	18922	67	-56.1	-85.0	311	6
2023-09-19T06:00	18947	67	-56.1	-85.0	305	5
2023-09-19T06:00	18970	67	-55.9	-84.8	296	5
2023-09-19T06:00	18992	67	-55.5	-85.0	286	4
2023-09-19T06:00	19019	66	-55.4	-84.9	277	4
2023-09-19T06:00	19042	66	-55.6	-84.6	269	5
2023-09-19T06:00	19070	66	-55.8	-84.8	261	5
2023-09-19T06:00	19094	66	-56.0	-84.9	254	5
2023-09-19T06:00	19118	65	-56.0	-84.9	248	6
2023-09-19T06:00	19143	65	-56.2	-85.1	243	6
2023-09-19T06:00	19169	65	-56.3	-85.1	239	7
2023-09-19T06:00	19192	65	-56.2	-85.1	237	7
2023-09-19T06:00	19214	64	-56.2	-85.1	236	8
2023-09-19T06:00	19239	64	-56.2	-85.1	235	8
2023-09-19T06:00	19262	64	-56.3	-85.1	236	8
2023-09-19T06:00	19287	64	-56.4	-85.2	238	8
2023-09-19T06:00	19312	63	-56.4	-85.2	241	8
2023-09-19T06:00	19336	63	-56.4	-85.2	244	8
2023-09-19T06:00	19360	63	-56.5	-85.3	248	8
2023-09-19T06:00	19386	63	-56.5	-85.3	252	8
2023-09-19T06:00	19411	62	-56.5	-85.3	256	8
2023-09-19T06:00	19437	62	-56.6	-85.4	260	7
2023-09-19T06:00	19458	62	-56.7	-85.4	265	7
2023-09-19T06:00	19486	62	-56.7	-85.4	269	7
2023-09-19T06:00	19511	61	-56.7	-85.4	273	7
2023-09-19T06:00	19535	61	-56.8	-85.1	276	7
2023-09-19T06:00	19563	61	-57.0	-85.2	279	7
2023-09-19T06:00	19586	61	-56.9	-85.6	282	7
2023-09-19T06:00	19610	60	-57.0	-85.7	284	6
2023-09-19T06:00	19634	60	-57.0	-85.7	286	6
2023-09-19T06:00	19658	60	-57.0	-85.7	287	5
2023-09-19T06:00	19685	60	-57.1	-85.7	288	4
2023-09-19T06:00	19707	60	-57.1	-85.3	287	4
2023-09-19T06:00	19730	59	-57.3	-85.5	285	3
2023-09-19T06:00	19756	59	-57.4	-85.6	281	3
2023-09-19T06:00	19779	59	-57.6	-85.7	274	3
2023-09-19T06:00	19806	59	-57.8	-85.9	264	3
2023-09-19T06:00	19832	58	-58.0	-85.6	250	2
2023-09-19T06:00	19851	58	-58.1	-85.7	235	2
2023-09-19T06:00	19877	58	-58.1	-85.7	221	2
2023-09-19T06:00	19903	58	-58.3	-85.8	208	3
2023-09-19T06:00	19926	58	-58.5	-86.0	199	3
2023-09-19T06:00	19948	57	-58.6	-86.1	194	3
2023-09-19T06:00	19974	57	-58.6	-86.1	193	4
2023-09-19T06:00	19999	57	-58.6	-86.1	196	4
2023-09-19T06:00	20023	57	-58.8	-86.2	201	5
2023-09-19T06:00	20049	56	-58.8	-86.2	208	5
2023-09-19T06:00	20074	56	-58.5	-86.4	215	5
2023-09-19T06:00	20097	56	-58.4	-86.3	222	5
2023-09-19T06:00	20122	56	-58.5	-86.4	228	6
2023-09-19T06:00	20144	56	-58.3	-86.7	232	6
2023-09-19T06:00	20170	55	-57.8	-86.3	235	7
2023-09-19T06:00	20194	55	-57.8	-86.3	237	7
2023-09-19T06:00	20217	55	-58.0	-86.4	239	8
2023-09-19T06:00	20243	55	-58.2	-86.2	240	8
2023-09-19T06:00	20268	54	-58.2	-86.2	241	9
2023-09-19T06:00	20293	54	-58.1		242	9
2023-09-19T06:00	20318	54	-58.0	-86.0	243	10
2023-09-19T06:00	20343	54	-58.0	-86.4	244	10
2023-09-19T06:00	20368	54	-57.8	-86.3	244	10
2023-09-19T06:00	20394	53	-57.7	-86.2	244	10
2023-09-19T06:00	20418	53	-57.7	-86.2	244	10
2023-09-19T06:00	20446	53	-57.7	-86.2	244	10
2023-09-19T06:00	20468	53	-57.9	-86.4	243	10
2023-09-19T06:00	20495	53	-58.0	-86.0	242	9
2023-09-19T06:00	20519	52	-58.0	-86.0	242	9
2023-09-19T06:00	20546	52	-57.9	-86.4	242	8
2023-09-19T06:00	20568	52	-57.9	-86.4	243	8
2023-09-19T06:00	20590	52	-57.6	-86.1	245	8
2023-09-19T06:00	20618	52	-57.6	-86.1	248	8
2023-09-19T06:00	20638	51	-57.6	-86.1	252	8
2023-09-19T06:00	20661	51	-57.7	-86.2	256	8
2023-09-19T06:00	20680	51	-57.8	-86.3	259	8
2023-09-19T06:00	20703	51	-57.5	-86.1	263	9
2023-09-19T06:00	20729	51	-57.3	-85.9	267	9
2023-09-19T06:00	20755	50	-57.4	-86.0	270	9
2023-09-19T06:00	20777	50	-57.4	-86.0	274	10
2023-09-19T06:00	20801	50	-57.4	-86.0	278	10
2023-09-19T06:00	20821	50	-57.5	-86.1	282	10
2023-09-19T06:00	20848	50	-57.7	-86.2	285	10
2023-09-19T06:00	20870	50	-57.7	-85.8	288	11
2023-09-19T06:00	20894	49	-57.8	-85.9	290	11
2023-09-19T06:00	20919	49	-57.8	-85.9	292	11
2023-09-19T06:00	20945	49	-58.0	-86.0	293	11
2023-09-19T06:00	20964	49	-58.2	-86.2	294	10
2023-09-19T06:00	20993	49	-58.4	-86.3	295	10
2023-09-19T06:00	21014	48	-58.6	-86.5	294	10
2023-09-19T06:00	21041	48	-58.5	-86.4	292	9
2023-09-19T06:00	21062	48	-58.3	-86.2	289	9
2023-09-19T06:00	21088	48	-58.4	-86.3	286	9
2023-09-19T06:00	21115	48	-58.5	-86.4	283	9
2023-09-19T06:00	21136	47	-58.4	-86.3	282	8
2023-09-19T06:00	21160	47	-58.4	-86.3	281	8
2023-09-19T06:00	21184	47	-58.5	-86.4	282	8
2023-09-19T06:00	21208	47	-58.3	-86.7	282	7
2023-09-19T06:00	21231	47	-58.1	-86.5	281	7
2023-09-19T06:00	21251	47	-57.9	-86.4	279	7
2023-09-19T06:00	21282	46	-57.7	-86.2	277	7
2023-09-19T06:00	21303	46	-57.6	-86.1	274	8
2023-09-19T06:00	21327	46	-57.4	-86.0	272	8
2023-09-19T06:00	21354	46	-57.2	-85.8	271	8
2023-09-19T06:00	21373	46	-57.3	-85.9	271	9
2023-09-19T06:00	21402	46	-57.3	-85.9	272	9
2023-09-19T06:00	21424	45	-57.5	-86.1	275	9
2023-09-19T06:00	21449	45	-57.5	-86.1	278	9
2023-09-19T06:00	21476	45	-57.2	-85.8	283	9
2023-09-19T06:00	21501	45	-57.1	-85.7	287	9
2023-09-19T06:00	21527	45	-57.0	-85.7	290	8
2023-09-19T06:00	21552	44	-57.0	-85.7	292	8
2023-09-19T06:00	21575	44	-57.0	-85.7	292	7
2023-09-19T06:00	21601	44	-56.9	-85.6	291	6
2023-09-19T06:00	21626	44	-57.0	-85.7	288	6
2023-09-19T06:00	21652	44	-57.0	-85.7	282	5
2023-09-19T06:00	21675	44	-57.0	-85.7	273	4
2023-09-19T06:00	21702	43	-57.0	-86.1	257	3
2023-09-19T06:00	21726	43	-56.6	-85.8	239	3
2023-09-19T06:00	21750	43	-56.5	-85.8	223	3
2023-09-19T06:00	21774	43	-56.6	-85.8	213	3
2023-09-19T06:00	21805	43	-56.4	-85.7	207	4
2023-09-19T06:00	21826	43	-56.3	-85.6	203	4
2023-09-19T06:00	21849	42	-56.5	-85.8	202	4
2023-09-19T06:00	21874	42	-56.6	-85.8	204	3
2023-09-19T06:00	21904	42	-56.6	-85.4	210	3
2023-09-19T06:00	21927	42	-56.7	-85.4	218	3
2023-09-19T06:00	21949	42	-56.7	-85.4	227	4
2023-09-19T06:00	21980	42	-56.7	-85.4	235	4
2023-09-19T06:00	22001	41	-56.6	-85.4	239	4
2023-09-19T06:00	22025	41	-56.6	-85.8	242	4
2023-09-19T06:00	22053	41	-56.6	-85.4	243	5
2023-09-19T06:00	22077	41	-56.6	-85.4	243	5
2023-09-19T06:00	22104	41	-56.7	-85.4	243	5
2023-09-19T06:00	22132	41	-56.8	-85.5	242	5
2023-09-19T06:00	22156	40	-56.9	-85.6	242	4
2023-09-19T06:00	22178	40	-57.1	-85.7	242	4
2023-09-19T06:00	22210	40	-57.3	-85.5	241	4
2023-09-19T06:00	22230	40	-57.5	-85.6	241	4
2023-09-19T06:00	22257	40	-57.6	-85.7	241	5
2023-09-19T06:00	22283	40	-57.7	-85.8	242	5
2023-09-19T06:00	22313	39	-57.8	-85.9	243	5
2023-09-19T06:00	22337	39	-58.0	-86.0	245	6
2023-09-19T06:00	22364	39	-57.9		248	6
2023-09-19T06:00	22385	39	-57.8	-86.3	250	6
2023-09-19T06:00	22417	39	-57.6	-86.1	252	7
2023-09-19T06:00	22437	39	-57.5	-86.1	253	7
2023-09-19T06:00	22466	38	-57.4	-86.0	254	8
2023-09-19T06:00	22488	38	-57.4	-86.0	253	8
2023-09-19T06:00	22512	38	-57.5	-86.1	253	8
2023-09-19T06:00	22545	38	-57.8	-85.9	252	9
2023-09-19T06:00	22569	38	-57.9		251	9
2023-09-19T06:00	22594	38	-57.8	-86.3	250	10
2023-09-19T06:00	22621	38	-57.5	-86.1	250	10
2023-09-19T06:00	22642	37	-57.5	-86.1	250	11
2023-09-19T06:00	22673	37	-57.5	-86.1	251	11
2023-09-19T06:00	22693	37	-57.7	-86.2	252	11
2023-09-19T06:00	22720	37	-57.8	-85.9	254	11
2023-09-19T06:00	22746	37	-57.9		257	11
2023-09-19T06:00	22774	37	-58.0	-86.0	260	11
2023-09-19T06:00	22797	37	-58.0	-86.0	265	10
2023-09-19T06:00	22827	36	-58.0	-86.0	270	10
2023-09-19T06:00	22852	36	-58.0	-86.0	277	9
2023-09-19T06:00	22877	36	-58.0	-86.0	284	9
2023-09-19T06:00	22904	36	-58.1		292	9
2023-09-19T06:00	22934	36	-58.0	-86.4	298	10
2023-09-19T06:00	22953	36	-57.7	-86.2	304	10
2023-09-19T06:00	22980	35	-57.7	-86.2	308	10
2023-09-19T06:00	23005	35	-57.8	-86.3	312	11
2023-09-19T06:00	23033	35	-57.6	-86.1	315	11
2023-09-19T06:00	23057	35	-57.6	-86.1	317	11
2023-09-19T06:00	23085	35	-57.5	-86.1	319	10
2023-09-19T06:00	23112	35	-57.3	-85.9	320	10
2023-09-19T06:00	23135	35	-57.3	-85.9	320	9
2023-09-19T06:00	23161	34	-57.3	-85.9	320	8
2023-09-19T06:00	23188	34	-57.3	-85.9	320	8
2023-09-19T06:00	23214	34	-57.4	-86.0	319	7
2023-09-19T06:00	23239	34	-57.6	-86.1	317	6
2023-09-19T06:00	23259	34	-57.7	-86.2	315	5
2023-09-19T06:00	23289	34	-57.7	-86.2	312	4
2023-09-19T06:00	23315	34	-57.6	-86.1	307	3
2023-09-19T06:00	23337	34	-57.8	-85.9	300	3
2023-09-19T06:00	23366	33	-57.9		291	2
2023-09-19T06:00	23387	33	-58.0	-86.0	285	2
2023-09-19T06:00	23416	33	-58.0	-86.0	283	2
2023-09-19T06:00	23441	33	-57.9	-86.4	287	2
2023-09-19T06:00	23465	33	-57.9	-86.4	295	2
2023-09-19T06:00	23490	33	-58.0	-86.4	303	2
2023-09-19T06:00	23517	33	-58.1		310	3
2023-09-19T06:00	23543	32	-58.1		315	3
2023-09-19T06:00	23568	32	-58.2	-86.6	319	4
2023-09-19T06:00	23594	32	-58.2	-86.6	320	4
2023-09-19T06:00	23618	32	-58.0	-86.4	320	4
2023-09-19T06:00	23641	32	-57.8	-86.3	317	5
2023-09-19T06:00	23665	32	-57.7	-86.7	312	4
2023-09-19T06:00	23692	32	-57.3	-86.4	304	4
2023-09-19T06:00	23719	32	-57.2	-86.3	292	4
2023-09-19T06:00	23742	31	-57.1	-86.2	279	3
2023-09-19T06:00	23772	31	-57.3	-86.4	267	4
2023-09-19T06:00	23796	31	-57.5	-86.1	260	4
2023-09-19T06:00	23822	31	-57.5	-86.1	257	4
2023-09-19T06:00	23844	31	-57.5	-86.1	256	5
2023-09-19T06:00	23871	31	-57.4	-86.0	257	5
2023-09-19T06:00	23899	31	-57.5	-86.1	260	5
2023-09-19T06:00	23916	31	-57.5	-86.1	264	5
2023-09-19T06:00	23946	30	-57.4	-86.0	269	5
2023-09-19T06:00	23970	30	-57.3	-86.4	274	5
2023-09-19T06:00	23995	30	-57.3	-86.4	278	5
2023-09-19T06:00	24020	30	-57.2	-86.3	280	5
2023-09-19T06:00	24039	30	-57.1	-86.2	279	5
2023-09-19T06:00	24069	30	-56.8	-86.5	276	5
2023-09-19T06:00	24091	30	-56.5	-86.3	271	5
2023-09-19T06:00	24122	30	-56.4	-86.2	268	6
2023-09-19T06:00	24147	30	-56.4	-86.2	266	6
2023-09-19T06:00	24174	29	-56.4	-86.2	266	7
2023-09-19T06:00	24199	29	-56.4	-85.7	267	7
2023-09-19T06:00	24225	29	-56.4	-85.7	270	8
2023-09-19T06:00	24254	29	-56.3	-85.6	272	8
2023-09-19T06:00	24280	29	-56.3	-86.1	275	9
2023-09-19T06:00	24304	29	-56.1	-86.0	277	9
2023-09-19T06:00	24331	29	-56.0	-85.9	278	8
2023-09-19T06:00	24351	29	-55.9	-85.8	280	8
2023-09-19T06:00	24381	28	-55.9	-85.8	282	7
2023-09-19T06:00	24403	28	-56.0	-85.9	287	7
2023-09-19T06:00	24436	28	-56.1	-86.0	293	6
2023-09-19T06:00	24460	28	-55.8	-85.7	301	6
2023-09-19T06:00	24490	28	-55.4	-85.4	308	6
2023-09-19T06:00	24521	28	-55.5	-85.5	314	6
2023-09-19T06:00	24544	28	-55.7	-85.7	318	6
2023-09-19T06:00	24577	28	-55.7	-85.7	322	5
2023-09-19T06:00	24605	27	-55.7	-85.7	323	4
2023-09-19T06:00	24631	27	-55.5	-85.5	320	4
2023-09-19T06:00	24654	27	-55.4	-85.4	313	3
2023-09-19T06:00	24688	27	-55.4	-85.4	301	3
2023-09-19T06:00	24721	27	-55.5	-85.5	286	2
2023-09-19T06:00	24756	27	-55.7	-85.2	272	3
2023-09-19T06:00	24776	27	-55.9	-85.3	261	3
2023-09-19T06:00	24796	27	-56.0		256	3
2023-09-19T06:00	24823	27	-55.9	-85.8	252	4
2023-09-19T06:00	24863	26	-55.7	-85.7	250	4
2023-09-19T06:00	24890	26	-55.7	-85.7	247	4
2023-09-19T06:00	24918	26	-55.7	-85.7	245	5
2023-09-19T06:00	24949	26	-55.8	-85.7	244	5
2023-09-19T06:00	24974	26	-55.9	-85.3	245	6
2023-09-19T06:00	25004	26	-56.1	-85.5	248	6
2023-09-19T06:00	25031	26	-56.2	-85.5	252	7
2023-09-19T06:00	25062	26	-56.2	-85.5	256	8
2023-09-19T06:00	25088	25	-56.2	-85.5	257	8
2023-09-19T06:00	25111	25	-56.2	-85.5	258	8
2023-09-19T06:00	25138	25	-56.1	-85.5	259	8
2023-09-19T06:00	25172	25	-56.1	-86.0	260	8
2023-09-19T06:00	25198	25	-56.1	-86.0	263	8
2023-09-19T06:00	25223	25	-56.0	-85.9	265	8
2023-09-19T06:00	25248	25	-55.7	-85.7	268	8
2023-09-19T06:00	25281	25	-55.4	-86.0	270	7
2023-09-19T06:00	25308	25	-55.2	-85.8	270	7
2023-09-19T06:00	25334	24	-55.3	-85.9	270	7
2023-09-19T06:00	25360	24	-55.2	-85.8	270	6
2023-09-19T06:00	25388	24	-55.0	-85.7	271	6
2023-09-19T06:00	25409	24	-54.9	-85.6	272	6
2023-09-19T06:00	25444	24	-54.8	-85.5	275	6
2023-09-19T06:00	25473	24	-54.7	-85.5	277	5
2023-09-19T06:00	25495	24	-54.8	-85.0	281	5
2023-09-19T06:00	25518	24	-55.0	-85.1	284	4
2023-09-19T06:00	25552	24	-55.0	-85.1	286	4
2023-09-19T06:00	25572	24	-55.1	-85.2	288	3
2023-09-19T06:00	25606	23	-55.1	-85.2	287	3
2023-09-19T06:00	25632	23	-55.0	-85.1	285	3
2023-09-19T06:00	25652	23	-54.9	-85.1	283	3
2023-09-19T06:00	25679	23	-54.8	-85.0	281	3
2023-09-19T06:00	25704	23	-54.9	-85.1	279	3
2023-09-19T06:00	25736	23	-55.2	-85.3	278	4
2023-09-19T06:00	25757	23	-55.3	-85.4	276	4
2023-09-19T06:00	25783	23	-55.3	-85.4	274	5
2023-09-19T06:00	25810	23	-55.3	-85.4	272	5
2023-09-19T06:00	25829	23	-55.3	-85.4	272	6
2023-09-19T06:00	25859	23	-55.3	-85.4	272	6
2023-09-19T06:00	25892	22	-55.3	-85.4	274	6
2023-09-19T06:00	25913	22	-55.4	-85.4	276	7
2023-09-19T06:00	25944	22	-55.5	-85.5	278	7
2023-09-19T06:00	25970	22	-55.4	-85.4	281	8
2023-09-19T06:00	25991	22	-55.3	-85.4	284	8
2023-09-19T06:00	26018	22	-55.2	-85.3	287	8
2023-09-19T06:00	26046	22	-55.2	-85.3	290	9
2023-09-19T06:00	26070	22	-55.2	-85.3	293	9
2023-09-19T06:00	26102	22	-55.2	-85.3	296	9
2023-09-19T06:00	26134	22	-55.2	-85.3	300	9
2023-09-19T06:00	26164	22	-55.2	-85.3	303	9
2023-09-19T06:00	26186	21	-55.2	-85.3	306	9
2023-09-19T06:00	26215	21	-55.2	-85.3	308	9
2023-09-19T06:00	26242	21	-55.1	-85.8	308	9
2023-09-19T06:00	26267	21	-54.7	-85.5	308	8
2023-09-19T06:00	26297	21	-54.5	-85.3	307	8
2023-09-19T06:00	26328	21	-54.4	-85.2	306	8
2023-09-19T06:00	26364	21	-54.3	-85.2	305	7
2023-09-19T06:00	26382	21	-54.2	-85.1	305	7
2023-09-19T06:00	26404	21	-54.1	-85.0	306	7
2023-09-19T06:00	26443	21	-54.0	-84.9	308	6
2023-09-19T06:00	26474	21	-54.0	-84.9	310	6
2023-09-19T06:00	26494	20	-53.9	-84.9	312	6
2023-09-19T06:00	26525	20	-53.8	-84.8	313	6
2023-09-19T06:00	26555	20	-53.8	-84.8	313	6
2023-09-19T06:00	26581	20	-53.8	-84.8	313	6
2023-09-19T06:00	26608	20	-53.9	-84.9	313	7
2023-09-19T06:00	26637	20	-53.9	-84.9	313	7
2023-09-19T06:00	26673	20	-54.0	-84.9	313	8
2023-09-19T06:00	26696	20	-54.0	-84.9	313	8
2023-09-19T06:00	26722	20	-54.0	-84.9	313	8
2023-09-19T06:00	26755	20	-54.1	-85.0	312	8
2023-09-19T06:00	26783	20	-53.9	-84.9	309	8
2023-09-19T06:00	26803	19	-53.7	-84.7	306	7
2023-09-19T06:00	26837	19	-53.6	-84.6	301	7
2023-09-19T06:00	26863	19	-53.6	-84.6	296	7
2023-09-19T06:00	26897	19	-53.5	-85.2	292	7
2023-09-19T06:00	26930	19	-53.5	-85.2	289	7
2023-09-19T06:00	26948	19	-53.4	-85.1	287	7
2023-09-19T06:00	26986	19	-53.3	-85.0	287	7
2023-09-19T06:00	27003	19	-53.3	-85.0	287	8
2023-09-19T06:00	27039	19	-53.2	-85.0	288	8
2023-09-19T06:00	27062	19	-53.0	-84.8	290	8
2023-09-19T06:00	27089	19	-52.8	-84.7	293	8
2023-09-19T06:00	27120	19	-52.8	-84.7	297	9
2023-09-19T06:00	27147	18	-52.9	-84.7	301	9
2023-09-19T06:00	27171	18	-52.9	-84.7	304	10
2023-09-19T06:00	27201	18	-52.9	-84.7	305	10
2023-09-19T06:00	27226	18	-53.0	-84.8	307	10
2023-09-19T06:00	27255	18	-53.0	-84.8	307	10
2023-09-19T06:00	27280	18	-53.0	-84.8	307	10
2023-09-19T06:00	27314	18	-53.0	-84.8	307	10
2023-09-19T06:00	27327	18	-53.0	-84.8	305	10
2023-09-19T06:00	27369	18	-52.9	-84.7	302	9
2023-09-19T06:00	27391	18	-52.8	-84.7	298	9
2023-09-19T06:00	27427	18	-52.8	-84.7	296	9
2023-09-19T06:00	27450	18	-52.8	-84.7	295	9
2023-09-19T06:00	27475	18	-52.7	-84.6	296	10
2023-09-19T06:00	27507	17	-52.5	-84.4	298	10
2023-09-19T06:00	27535	17	-52.4	-84.4	301	11
2023-09-19T06:00	27567	17	-52.4	-84.4	303	11
2023-09-19T06:00	27593	17	-52.4	-84.4	304	11
2023-09-19T06:00	27623	17	-52.4	-84.4	304	11
2023-09-19T06:00	27656	17	-52.3	-84.3	303	11
2023-09-19T06:00	27689	17	-52.3	-84.3	302	11
2023-09-19T06:00	27712	17	-52.3	-84.3	301	10
2023-09-19T06:00	27741	17	-52.4	-84.4	300	10
2023-09-19T06:00	27770	17	-52.4	-84.4	299	10
2023-09-19T06:00	27787	17	-52.5	-84.4	298	10
2023-09-19T06:00	27824	17	-52.7	-84.6	297	10
2023-09-19T06:00	27858	17	-52.7	-84.6	296	10
2023-09-19T06:00	27886	16	-52.6	-84.5	295	10
2023-09-19T06:00	27917	16	-52.6	-84.5	294	9
2023-09-19T06:00	27937	16	-52.7	-84.6	294	9
2023-09-19T06:00	27966	16	-52.8	-84.7	295	9
2023-09-19T06:00	27998	16	-52.9	-84.7	294	9
2023-09-19T06:00	28031	16	-52.8	-84.7	294	9
2023-09-19T06:00	28051	16	-52.7	-84.6	294	10
2023-09-19T06:00	28085	16	-52.5	-84.4	293	10
2023-09-19T06:00	28115	16	-52.3	-84.3	293	11
2023-09-19T06:00	28137	16	-52.2	-84.2	293	12
2023-09-19T06:00	28169	16	-52.2	-84.2	293	12
2023-09-19T06:00	28202	16	-52.3	-84.3	293	12
2023-09-19T06:00	28228	16	-52.4	-84.4	294	12
2023-09-19T06:00	28256	16	-52.4	-84.4	294	12
2023-09-19T06:00	28288	15	-52.4	-84.4	296	12
2023-09-19T06:00	28317	15	-52.3	-84.3	297	12
2023-09-19T06:00	28344	15	-52.2	-84.2	298	11
2023-09-19T06:00	28359	15	-52.0	-84.1	298	11
2023-09-19T06:00	28397	15	-52.1	-84.2	297	10
2023-09-19T06:00	28419	15	-52.1	-84.2	296	10
2023-09-19T06:00	28456	15	-52.1	-84.2	293	10
2023-09-19T06:00	28489	15	-52.2	-84.2	290	9
2023-09-19T06:00	28514	15	-52.3	-84.3	288	9
2023-09-19T06:00	28542	15	-52.3	-84.3	285	9
2023-09-19T06:00	28566	15	-52.3	-84.3	283	9
2023-09-19T06:00	28598	15	-52.3	-84.3	282	9
2023-09-19T06:00	28628	15	-52.3	-84.3	282	10
2023-09-19T06:00	28652	15	-52.4	-84.4	283	10
2023-09-19T06:00	28679	15	-52.3	-84.3	284	10
2023-09-19T06:00	28708	15	-52.2	-84.2	286	10
2023-09-19T06:00	28739	14	-52.3	-84.3	288	10
2023-09-19T06:00	28761	14	-52.4	-84.4	289	10
2023-09-19T06:00	28789	14	-52.4	-84.4	291	10
2023-09-19T06:00	28810	14	-52.5	-84.4	293	9
2023-09-19T06:00	28840	14	-52.5	-84.4	294	9
2023-09-19T06:00	28877	14	-52.5	-84.4	294	9
2023-09-19T06:00	28909	14	-52.5	-84.4	294	9
2023-09-19T06:00	28928	14	-52.4	-84.4	293	10
2023-09-19T06:00	28954	14	-52.2	-84.9	293	10
2023-09-19T06:00	28994	14	-52.1	-84.8	293	11
2023-09-19T06:00	29023	14	-51.9	-84.7	294	12
2023-09-19T06:00	29044	14	-51.8	-84.6	295	13
2023-09-19T06:00	29082	14	-51.6	-84.5	295	14
2023-09-19T06:00	29104	14	-51.3	-84.3	295	14
2023-09-19T06:00	29131	14	-51.0	-84.0	295	15
2023-09-19T06:00	29174	14	-51.0	-84.0	296	15
2023-09-19T06:00	29198	13	-51.1	-84.1	297	15
2023-09-19T06:00	29221	13	-51.2	-84.2	300	15
2023-09-19T06:00	29261	13	-51.1	-84.1	302	15
2023-09-19T06:00	29297	13	-50.9	-84.0	305	14
2023-09-19T06:00	29316	13	-50.8	-83.9	308	14
2023-09-19T06:00	29360	13	-50.7	-83.8	310	13
2023-09-19T06:00	29379	13	-50.7	-83.8	312	13
2023-09-19T06:00	29407	13	-50.6	-83.7	313	12
2023-09-19T06:00	29448	13	-50.3	-83.5	313	12
2023-09-19T06:00	29478	13	-50.1	-84.2	313	11
2023-09-19T06:00	29518	13	-49.9	-84.0	313	11
2023-09-19T06:00	29548	13	-49.8	-84.0	312	10
2023-09-19T06:00	29576	13	-49.9	-84.0	312	10
2023-09-19T06:00	29613	13	-49.9	-84.0	312	10
2023-09-19T06:00	29654	13	-49.8	-84.0	313	9
2023-09-19T06:00	29674	13	-49.8	-84.0	314	10
2023-09-19T06:00	29712	12	-49.8	-84.0	315	10
2023-09-19T06:00	29727	12	-49.7	-83.9	316	10
2023-09-19T06:00	29765	12	-49.7	-83.9	317	9
2023-09-19T06:00	29805	12	-49.5	-83.7	316	9
2023-09-19T06:00	29842	12	-49.4	-83.7	314	9
2023-09-19T06:00	29868	12	-49.2	-83.5	311	8
2023-09-19T06:00	29894	12	-49.0	-83.4	307	8
2023-09-19T06:00	29941	12	-49.0	-83.4	304	8
2023-09-19T06:00	29980	12	-49.1	-83.4	302	9
2023-09-19T06:00	30005	12	-49.1	-83.4	301	9
2023-09-19T06:00	30032	12	-49.1	-83.4	301	9
2023-09-19T06:00	30052	12	-49.1	-83.4	301	9
2023-09-19T06:00	30089	12	-49.2	-83.5	302	9
2023-09-19T06:00	30118	12	-49.2	-83.5	303	9
2023-09-19T06:00	30146	12	-49.2	-83.5	304	9
2023-09-19T06:00	30171	12	-49.0	-83.4	305	10
2023-09-19T06:00	30197	12	-48.9	-83.3	306	10
2023-09-19T06:00	30235	11	-48.9	-83.3	308	11
2023-09-19T06:00	30272	11	-48.7	-83.2	310	12
2023-09-19T06:00	30299	11	-48.6	-83.1	313	13
2023-09-19T06:00	30334	11	-48.5	-83.0	316	13
2023-09-19T06:00	30342	11	-48.5	-83.0	318	14
2023-09-19T06:00	30375	11	-48.7	-83.2	320	14
2023-09-19T06:00	30414	11	-48.8	-83.2	321	14
2023-09-19T06:00	30454	11	-48.7	-83.2	322	14
2023-09-19T06:00	30463	11	-48.6	-83.1	321	13
2023-09-19T06:00	30503	11	-48.5	-83.0	321	13
2023-09-19T06:00	30533	11	-48.5	-83.0	320	13
2023-09-19T06:00	30561	11	-48.6	-83.1	321	13
2023-09-19T06:00	30599	11	-48.7	-83.2	322	13
2023-09-19T06:00	30620	11	-48.8	-83.2	324	13
2023-09-19T06:00	30646	11	-48.7	-83.2	325	13
2023-09-19T06:00	30699	11	-48.9	-83.3	326	13
2023-09-19T06:00	30707	11	-49.0	-83.4	326	12
2023-09-19T06:00	30760	11	-49.1	-83.4	325	12
2023-09-19T06:00	30789	11	-49.0	-83.4	323	11
2023-09-19T06:00	30799	11	-49.0	-83.4	321	11
2023-09-19T06:00	30849	10	-48.9	-83.3	319	10
2023-09-19T06:00	30875	10	-48.9	-83.3	317	10
2023-09-19T06:00	30891	10	-48.9	-83.3	317	10
2023-09-19T06:00	30945	10	-48.9	-83.3	317	10
2023-09-19T06:00	30954	10	-48.8	-83.2	317	10
2023-09-19T06:00	31002	10	-48.6	-83.1	318	10
2023-09-19T06:00	31033	10	-48.4	-82.9	319	11
2023-09-19T06:00	31056	10	-48.3	-82.9	320	11
2023-09-19T06:00	31080	10	-48.4	-82.9	320	11
2023-09-19T06:00	31111	10	-48.5	-83.0	319	11
2023-09-19T06:00	31162	10	-48.5	-83.0	319	11
2023-09-19T06:00	31185	10	-48.5	-83.0	319	11
2023-09-19T06:00	31216	10	-48.4	-82.9	319	11
2023-09-19T06:00	31251	10	-48.3	-82.9	320	11
2023-09-19T06:00	31273	10	-48.2	-82.8	321	10
2023-09-19T06:00	31315	10	-48.1	-82.7	322	10
2023-09-19T06:00	31342	10	-48.1	-82.7	323	10
2023-09-19T06:00	31382	10	-48.1	-83.6	325	9
2023-09-19T06:00	31399	10	-47.9	-83.5	328	9
2023-09-19T06:00	31430	10	-47.7	-83.4	330	9
2023-09-19T06:00	31471	10	-47.4	-83.1	331	8
2023-09-19T06:00	31498	9	-47.1	-82.9	330	8
2023-09-19T06:00	31521	9	-46.9	-82.8	326	8
2023-09-19T06:00	31544	9	-46.7	-82.6	320	7
2023-09-19T06:00	31585	9	-46.6	-82.6	313	7
2023-09-19T06:00	31621	9	-46.4	-82.4	308	7
2023-09-19T06:00	31642	9	-46.2	-82.3	305	7
2023-09-19T06:00	31663	9	-46.1	-82.2	305	7
2023-09-19T06:00	31704	9	-46.0	-82.1	308	7
2023-09-19T06:00	31742	9	-45.9	-82.1	310	7
2023-09-19T06:00	31758	9	-45.8	-82.0	312	7
2023-09-19T06:00	31792	9	-45.7	-81.9	310	6
2023-09-19T06:00	31814	9	-45.6	-81.9	306	6
2023-09-19T06:00	31849	9	-45.5	-81.8	302	6
2023-09-19T06:00	31870	9	-45.3	-81.6	297	6
2023-09-19T06:00	31896	9	-45.2	-82.7	294	6
2023-09-19T06:00	31946	9	-45.1	-82.6	294	6
2023-09-19T06:00	31961	9	-45.0	-82.5	296	6
2023-09-19T06:00	31989	9	-44.8	-82.4	300	6
2023-09-19T06:00	32014	9	-44.6	-82.2	304	6
2023-09-19T06:00	32041	9	-44.4	-82.1	309	6
2023-09-19T06:00	32085	9	-44.2	-82.0	314	6
2023-09-19T06:00	32122	9	-44.0	-81.8	318	7
2023-09-19T06:00	32142	9	-44.1	-81.9	322	7
2023-09-19T06:00	32157	9	-44.0	-81.8	324	7
2023-09-19T06:00	32183	9	-43.9	-81.8	326	7
2023-09-19T06:00	32226	9	-43.9	-81.8	325	7
2023-09-19T06:00	32258	8	-43.9	-81.8	324	7
2023-09-19T06:00	32293	8	-44.1	-81.9	322	7
2023-09-19T06:00	32327	8	-44.3	-80.9	320	7
2023-09-19T06:00	32341	8	-44.5	-81.1	317	7
2023-09-19T06:00	32374	8	-44.7	-81.2	315	7
2023-09-19T06:00	32408	8	-44.8	-81.3	313	7
2023-09-19T06:00	32450	8	-45.0	-81.4	311	7
2023-09-19T06:00	32469	8	-45.2	-81.6	310	7
2023-09-19T06:00	32496	8	-45.3	-81.6	308	6
2023-09-19T06:00	32546	8	-45.5	-81.8	307	6
2023-09-19T06:00	32554	8	-45.4	-81.7	305	6
2023-09-19T06:00	32578	8	-45.0	-82.5	302	5
2023-09-19T06:00	32630	8	-44.6	-82.2	297	5
2023-09-19T06:00	32667	8	-44.2	-82.0	293	4
2023-09-19T06:00	32693	8	-44.1	-81.9	289	4
2023-09-19T06:00	32734	8	-44.0	-81.8	288	4
2023-09-19T06:00	32752	8	-43.8	-81.7	290	4
2023-09-19T06:00	32780	8	-43.6	-81.5	295	4
2023-09-19T06:00	32808	8	-43.5	-81.5	301	3
2023-09-19T06:00	32849	8	-43.6	-81.5	308	3
2023-09-19T06:00	32881	8	-43.8	-81.7	310	3
2023-09-19T06:00	32907	8	-43.9	-81.8	308	4
2023-09-19T06:00	32936	8	-43.6	-81.5	302	4
2023-09-19T06:00	33002	8	-43.3	-81.3	291	6
2023-09-19T06:00	33052	8	-43.4	-81.4	289	6
2023-09-19T06:00	33072	8	-43.4	-81.4	288	7
2023-09-19T06:00	33098	7	-43.3	-81.3	287	8
2023-09-19T06:00	33127	7	-43.1	-81.2	287	8
2023-09-19T06:00	33174	7	-43.0	-81.1	285	8
2023-09-19T06:00	33185	7	-43.0	-81.1	283	7
2023-09-19T06:00	33219	7	-42.8	-81.0	279	7
2023-09-19T06:00	33256	7	-42.5	-80.8	274	6
2023-09-19T06:00	33285	7	-42.0	-80.4	269	5
2023-09-19T06:00	33320	7	-41.5	-80.1	262	5
2023-09-19T06:00	33334	7	-41.3	-79.9	256	4
2023-09-19T06:00	33393	7	-41.4	-80.0	249	4
2023-09-19T06:00	33409	7	-41.5	-80.1	242	4
2023-09-19T06:00	33442	7	-41.6	-80.1	235	3
2023-09-19T06:00	33465	7	-41.6	-80.1	229	4
2023-09-19T06:00	33502	7	-41.6	-80.1	224	4
2023-09-19T06:00	33553	7	-41.5	-80.1	222	4
2023-09-19T06:00	33593	7	-41.4	-80.0	220	5
2023-09-19T06:00	33625	7	-41.2	-79.9	219	5
2023-09-19T06:00	33635	7	-41.2	-79.9	217	6
2023-09-19T06:00	33689	7	-41.1	-79.8	214	6
2023-09-19T06:00	33719	7	-41.1	-79.8	211	6
2023-09-19T06:00	33763	7	-40.6	-79.5	211	8
2023-09-19T06:00	33784	7	-40.3	-79.2	213	9
2023-09-19T06:00	33795	7	-40.1	-79.1	216	10
2023-09-19T06:00	33834	7	-40.0	-79.0	219	11
2023-09-19T06:00	33878	7	-39.7	-78.8	223	11
2023-09-19T06:00	33890	7	-39.5	-78.7	226	12
2023-09-19T06:00	33915	7	-39.5	-78.7	229	12
2023-09-19T06:00	33965	7	-39.4	-78.6	232	12
2023-09-19T06:00	33992	7	-39.3	-78.5	233	13
2023-09-19T06:00	33994	7	-39.0	-78.3	235	13
2023-09-19T06:00	34011	7	-38.8	-78.2	236	14
2023-09-19T06:00	34075	6	-38.6	-78.1	238	14
2023-09-19T06:00	34102	6	-38.4	-77.9	241	14
2023-09-19T06:00	34146	6	-38.1	-77.7	244	14
2023-09-19T06:00	34163	6	-37.8	-77.5	248	14
2023-09-19T06:00	34204	6	-37.3	-77.2	256	14
2023-09-19T06:00	34221	6	-36.8	-76.8	259	14
2023-09-19T06:00	34269	6	-36.3	-76.5	261	14
2023-09-19T06:00	34303	6	-35.7	-76.1	262	14
2023-09-19T06:00	34316	6	-35.3	-75.8	263	14
2023-09-19T06:00	34335	6	-35.1	-75.6	265	14
2023-09-19T06:00	34378	6	-35.1	-75.6	266	14
2023-09-19T06:00	34417	6	-35.2	-75.7	267	13
2023-09-19T06:00	34432	6	-35.3	-75.8	269	13
2023-09-19T06:00	34494	6	-35.4	-75.8	270	13
2023-09-19T06:00	34539	6	-35.7	-76.1	274	12
2023-09-19T06:00	34587	6	-35.9	-76.2	276	12
2023-09-19T06:00	34619	6	-36.0	-76.3	278	12
2023-09-19T06:00	34622	6	-36.2	-76.4	279	12
2023-09-19T06:00	34668	6	-36.4	-76.5	281	12
2023-09-19T06:00	34698	6	-36.6	-76.7	282	12
2023-09-19T06:00	34731	6	-36.8	-76.8	282	12
2023-09-19T06:00	34761	6	-37.0	-77.0	282	12
2023-09-19T06:00	34775	6	-37.2	-77.1	281	13
2023-09-19T06:00	34839	6	-37.4	-77.2	281	13
2023-09-19T06:00	34854	6	-37.6	-77.4	280	14
2023-09-19T06:00	34893	6	-37.9	-77.6	280	14
2023-09-19T06:00	34897	6	-38.1	-77.7	280	15
2023-09-19T06:00	34920	6	-38.3	-77.9	279	15
2023-09-19T06:00	34956	6	-38.5	-78.0	279	16
2023-09-19T06:00	34999	6	-38.6	-78.1	279	17
2023-09-19T06:00	35033	6	-38.6	-78.1	279	17
2023-09-19T06:00	35052	6	-38.5	-78.0	280	18
2023-09-19T06:00	35083	6	-38.4	-77.9	281	18
2023-09-19T06:00	35115	6	-38.4	-77.9	283	18
2023-09-19T06:00	35158	6	-38.3	-77.9	286	19
2023-09-19T06:00	35201	6	-38.2	-77.8	288	19
2023-09-19T06:00	35209	6	-38.2	-77.8	290	19
2023-09-19T06:00	35237	5	-38.2	-77.8	291	19
2023-09-19T06:00	35248	5	-37.9	-77.6	292	19
2023-09-19T06:00	35296	5	-37.6	-77.4	292	18
2023-09-19T06:00	35343	5	-37.2	-77.1	292	18
2023-09-19T06:00	35395	5	-36.7	-76.7	291	18
2023-09-19T06:00	35404	5	-36.7	-76.7	291	18
2023-09-19T06:00	35444	5	-36.8	-76.8	290	18
2023-09-19T06:00	35468	5	-36.8	-76.8	290	19
2023-09-19T06:00	35511	5	-37.1	-77.0	290	20
2023-09-19T06:00	35549	5	-37.2	-77.1	290	21
2023-09-19T06:00	35572	5	-37.1	-77.0	290	21
2023-09-19T06:00	35602	5	-37.1	-77.0	290	20
2023-09-19T06:00	35644	5	-37.0	-77.0	291	20
2023-09-19T06:00	35664	5	-36.8	-76.8	292	19
2023-09-19T06:00	35695	5	-36.6	-76.7	293	18
2023-09-19T06:00	35718	5	-36.4	-76.5	294	17
2023-09-19T06:00	35746	5	-36.4	-76.5	295	16
2023-09-19T12:00	-999					
2023-09-19T12:00	141	995	19.5	6.4	245	6
2023-09-19T12:00	168	991	18.6	5.7	245	8
2023-09-19T12:00	208	987	18.2	5.5	247	10
2023-09-19T12:00	242	983	17.8	5.5	249	11
2023-09-19T12:00	279	979	17.2	4.8	251	11
2023-09-19T12:00	317	975	16.9	5.0	253	11
2023-09-19T12:00	349	971	16.6	5.0	255	11
2023-09-19T12:00	385	967	16.1	4.8	257	11
2023-09-19T12:00	417	963	15.9	5.0	259	11
2023-09-19T12:00	456	959	15.4	4.7	261	11
2023-09-19T12:00	492	955	15.0	4.4	263	11
2023-09-19T12:00	519	952	14.7	4.3	264	11
2023-09-19T12:00	554	948	14.4	4.2	263	12
2023-09-19T12:00	583	945	14.0	4.1	262	12
2023-09-19T12:00	608	942	13.8	3.9	261	12
2023-09-19T12:00	633	939	13.5	3.9	261	12
2023-09-19T12:00	659	936	13.2	3.8	261	12
2023-09-19T12:00	692	933	13.0	3.7	261	13
2023-09-19T12:00	719	929	12.7	3.7	262	13
2023-09-19T12:00	751	926	12.4	3.7	262	13
2023-09-19T12:00	780	923	12.1	3.5	263	13
2023-09-19T12:00	810	919	11.8	3.3	263	13
2023-09-19T12:00	844	916	11.5	2.8	263	13
2023-09-19T12:00	876	912	11.2	3.6	263	13
2023-09-19T12:00	905	909	10.9	3.4	263	13
2023-09-19T12:00	940	905	10.6	3.4	262	13
2023-09-19T12:00	971	902	10.2	3.5	262	12
2023-09-19T12:00	997	899	9.9	3.6	262	11
2023-09-19T12:00	1020	896	9.7	3.5	261	11
2023-09-19T12:00	1047	893	9.5	3.6	260	10
2023-09-19T12:00	1077	890	9.2	3.6	259	9
2023-09-19T12:00	1101	888	9.0	3.6	259	9
2023-09-19T12:00	1128	885	8.8		258	9
2023-09-19T12:00	1153	882	8.5	3.4	259	9
2023-09-19T12:00	1190	878	8.2	3.2	259	9
2023-09-19T12:00	1220	875	7.9	3.3	260	10
2023-09-19T12:00	1257	871	7.5	3.3	260	10
2023-09-19T12:00	1288	868	7.2	3.3	259	10
2023-09-19T12:00	1322	864	6.9	3.2	258	10
2023-09-19T12:00	1358	861	6.5	3.0	256	10
2023-09-19T12:00	1390	857	6.2	3.0	255	9
2023-09-19T12:00	1426	853	5.8	3.0	254	9
2023-09-19T12:00	1462	850	5.5	2.9	253	9
2023-09-19T12:00	1493	847	5.2	2.7	253	9
2023-09-19T12:00	1520	844	4.9	2.9	252	10
2023-09-19T12:00	1546	841	4.7	2.6	252	10
2023-09-19T12:00	1574	838	4.5	2.5	251	11
2023-09-19T12:00	1604	835	4.3	2.1	251	11
2023-09-19T12:00	1634	832	4.1	1.3	251	12
2023-09-19T12:00	1672	828	3.6	2.3	252	12
2023-09-19T12:00	1703	825	3.5	1.2	253	13
2023-09-19T12:00	1729	822	3.4	0.3	255	14
2023-09-19T12:00	1757	819	3.3	-1.2	258	15
2023-09-19T12:00	1789	816	3.8	-6.8	260	15
2023-09-19T12:00	1813	814	4.8	-11.9	261	15
2023-09-19T12:00	1834	812	4.7	-11.8	262	15
2023-09-19T12:00	1854	810	4.6	-11.7	263	15
2023-09-19T12:00	1880	807	4.5	-11.1	263	15
2023-09-19T12:00	1906	805	4.4	-10.8	262	15
2023-09-19T12:00	1934	802	4.1	-10.3	262	15
2023-09-19T12:00	1961	799	4.0	-10.6	260	16
2023-09-19T12:00	1987	797	4.5	-14.3	258	16
2023-09-19T12:00	2009	795	4.3	-14.5	256	16
2023-09-19T12:00	2028	793	4.3	-14.3	255	15
2023-09-19T12:00	2050	790	4.2	-14.1	255	15
2023-09-19T12:00	2075	788	4.0	-14.3	255	15
2023-09-19T12:00	2104	785	4.1	-17.6	257	15
2023-09-19T12:00	2134	782	4.2	-19.4	260	15
2023-09-19T12:00	2157	780	4.7	-23.2	263	15
2023-09-19T12:00	2178	778	5.2	-25.4	265	15
2023-09-19T12:00	2208	775	5.2	-25.7	268	16
2023-09-19T12:00	2239	772	5.0	-25.6	271	16
2023-09-19T12:00	2273	769	4.8	-25.6	273	17
2023-09-19T12:00	2291	767	4.6	-25.5	275	17
2023-09-19T12:00	2322	765	4.5	-25.4	277	17
2023-09-19T12:00	2350	762	4.2	-25.6	279	18
2023-09-19T12:00	2373	760	4.1	-25.8	279	18
2023-09-19T12:00	2395	758	4.3	-26.4	280	19
2023-09-19T12:00	2424	755	4.0	-26.8	279	20
2023-09-19T12:00	2447	753	4.2	-28.7	278	20
2023-09-19T12:00	2473	750	4.6	-32.6	276	21
2023-09-19T12:00	2495	748	4.8	-32.8	273	22
2023-09-19T12:00	2521	746	5.0	-32.9	272	22
2023-09-19T12:00	2539	744	5.2	-32.0	271	23
2023-09-19T12:00	2558	742	5.4	-30.3	270	22
2023-09-19T12:00	2588	740	5.5	-27.6	270	22
2023-09-19T12:00	2610	738	5.6	-24.8	270	21
2023-09-19T12:00	2633	736	5.6	-23.2	269	21
2023-09-19T12:00	2655	734	5.5	-23.1	267	20
2023-09-19T12:00	2678	732	5.4	-21.9	264	20
2023-09-19T12:00	2700	730	5.4	-21.2	262	20
2023-09-19T12:00	2716	728	5.3	-21.1	260	19
2023-09-19T12:00	2738	726	5.2	-21.1	259	19
2023-09-19T12:00	2768	724	5.0	-21.1	258	19
2023-09-19T12:00	2789	722	4.8	-21.2	258	18
2023-09-19T12:00	2806	720	4.8	-21.1	258	18
2023-09-19T12:00	2837	718	4.9	-20.1	259	19
2023-09-19T12:00	2861	716	4.7	-20.1	259	19
2023-09-19T12:00	2887	713	4.5	-20.8	260	19
2023-09-19T12:00	2919	711	4.3	-21.6	259	19
2023-09-19T12:00	2947	708	4.1	-21.7	259	19
2023-09-19T12:00	2972	706	3.9	-21.7	258	19
2023-09-19T12:00	2996	704	3.7	-21.8	258	19
2023-09-19T12:00	3012	702	3.6	-21.8	258	19
2023-09-19T12:00	3041	700	3.4	-21.7	259	19
2023-09-19T12:00	3077	697	3.1	-21.9	260	18
2023-09-19T12:00	3097	695	3.1	-21.5	261	18
2023-09-19T12:00	3115	693	3.0	-21.6	262	18
2023-09-19T12:00	3135	692	2.9	-21.7	263	18
2023-09-19T12:00	3154	690	2.7	-21.5	263	18
2023-09-19T12:00	3184	688	2.4	-21.7	263	18
2023-09-19T12:00	3204	686	2.3	-22.0	261	18
2023-09-19T12:00	3224	684	2.2	-22.0	259	18
2023-09-19T12:00	3258	681	1.9	-21.8	257	17
2023-09-19T12:00	3286	679	1.7	-21.8	255	17
2023-09-19T12:00	3314	677	1.5	-22.4	255	17
2023-09-19T12:00	3340	674	1.3	-22.6	255	17
2023-09-19T12:00	3369	672	1.1	-22.2	256	17
2023-09-19T12:00	3394	670	0.9	-21.7	257	17
2023-09-19T12:00	3424	668	0.6	-23.7	257	17
2023-09-19T12:00	3445	666	0.5	-23.0	256	18
2023-09-19T12:00	3469	664	0.3	-19.8	254	18
2023-09-19T12:00	3491	662	0.1	-18.5	253	18
2023-09-19T12:00	3511	660	-0.1	-19.5	253	18
2023-09-19T12:00	3533	658	-0.2	-19.9	254	18
2023-09-19T12:00	3559	656	-0.4	-20.8	256	18
2023-09-19T12:00	3583	654	-0.6	-20.5	258	17
2023-09-19T12:00	3608	652	-0.8	-18.6	260	17
2023-09-19T12:00	3638	650	-1.1	-18.7	261	18
2023-09-19T12:00	3663	648	-1.3	-18.4	261	18
2023-09-19T12:00	3693	645	-1.5	-17.7	260	18
2023-09-19T12:00	3715	643	-1.7	-17.4	259	18
2023-09-19T12:00	3740	641	-1.8	-17.2	258	18
2023-09-19T12:00	3768	639	-2.0	-17.3	257	18
2023-09-19T12:00	3787	637	-2.2	-17.9	257	18
2023-09-19T12:00	3813	636	-2.4	-18.3	257	18
2023-09-19T12:00	3836	634	-2.6	-18.4	256	17
2023-09-19T12:00	3862	632	-2.8	-18.6	255	17
2023-09-19T12:00	3891	629	-3.0	-18.9	252	17
2023-09-19T12:00	3921	627	-3.2	-19.4	249	17
2023-09-19T12:00	3953	625	-3.4	-19.4	247	16
2023-09-19T12:00	3978	622	-3.6	-19.3	247	16
2023-09-19T12:00	4004	620	-3.8	-19.3	247	16
2023-09-19T12:00	4033	618	-4.0	-19.0	248	16
2023-09-19T12:00	4061	616	-4.3	-18.7	249	16
2023-09-19T12:00	4093	614	-4.6	-18.7	251	16
2023-09-19T12:00	4119	611	-4.8	-18.3	252	16
2023-09-19T12:00	4147	609	-5.1	-18.2	253	16
2023-09-19T12:00	4172	607	-5.3	-18.0	254	17
2023-09-19T12:00	4194	606	-5.4	-17.8	254	17
2023-09-19T12:00	4215	604	-5.6	-17.9	255	17
2023-09-19T12:00	4241	602	-5.8	-17.9	257	18
2023-09-19T12:00	4271	600	-6.0	-17.9	259	18
2023-09-19T12:00	4300	598	-6.2	-17.8	261	17
2023-09-19T12:00	4324	596	-6.4	-17.8	264	17
2023-09-19T12:00	4349	594	-6.6	-17.5	267	18
2023-09-19T12:00	4378	592	-6.8	-18.0	269	18
2023-09-19T12:00	4401	590	-7.0	-18.7	271	19
2023-09-19T12:00	4423	588	-7.1	-21.0	272	19
2023-09-19T12:00	4448	586	-7.3	-22.7	273	20
2023-09-19T12:00	4479	584	-7.4	-17.4	273	20
2023-09-19T12:00	4501	582	-7.6	-15.3	274	19
2023-09-19T12:00	4531	580	-7.9	-15.5	274	19
2023-09-19T12:00	4554	578	-8.1	-15.9	274	19
2023-09-19T12:00	4579	577	-8.3	-16.0	274	20
2023-09-19T12:00	4599	575	-8.5	-16.2	273	20
2023-09-19T12:00	4631	573	-8.8	-16.2	272	20
2023-09-19T12:00	4660	571	-9.0	-15.9	271	20
2023-09-19T12:00	4682	569	-9.1	-16.1	270	20
2023-09-19T12:00	4709	567	-9.1	-18.5	268	20
2023-09-19T12:00	4734	565	-8.9	-22.9	267	19
2023-09-19T12:00	4758	563	-9.0	-24.5	264	18
2023-09-19T12:00	4780	562	-8.6	-36.7	262	18
2023-09-19T12:00	4803	560	-8.1	-38.2	260	17
2023-09-19T12:00	4828	558	-8.3	-38.2	258	17
2023-09-19T12:00	4845	557	-8.4	-38.3	256	17
2023-09-19T12:00	4874	555	-8.7	-38.5	254	17
2023-09-19T12:00	4906	553	-8.9	-38.5	252	17
2023-09-19T12:00	4929	551	-9.0	-38.4	251	17
2023-09-19T12:00	4948	550	-8.8	-37.8	250	16
2023-09-19T12:00	4972	548	-8.8	-34.9	251	16
2023-09-19T12:00	4994	546	-8.7	-32.3	253	16
2023-09-19T12:00	5026	544	-8.9	-32.1	255	15
2023-09-19T12:00	5047	543	-9.0	-32.1	255	15
2023-09-19T12:00	5065	541	-9.0	-31.1	253	15
2023-09-19T12:00	5081	540	-9.1	-30.5	251	15
2023-09-19T12:00	5101	539	-9.2	-29.9	249	15
2023-09-19T12:00	5129	537	-9.5	-29.3	249	15
2023-09-19T12:00	5160	535	-9.7	-29.2	249	16
2023-09-19T12:00	5177	534	-9.8	-29.1	249	16
2023-09-19T12:00	5194	532	-10.0	-29.0	250	16
2023-09-19T12:00	5220	531	-10.2	-29.0	249	16
2023-09-19T12:00	5237	530	-10.3	-29.0	250	16
2023-09-19T12:00	5255	528	-10.5	-29.1	250	16
2023-09-19T12:00	5278	527	-10.7	-28.9	252	16
2023-09-19T12:00	5298	525	-10.9	-29.0	253	16
2023-09-19T12:00	5321	524	-11.1		253	16
2023-09-19T12:00	5341	522	-11.1	-28.0	252	15
2023-09-19T12:00	5365	521	-11.3	-27.3	250	15
2023-09-19T12:00	5389	519	-11.4	-27.0	249	14
2023-09-19T12:00	5412	517	-11.7	-27.1	248	13
2023-09-19T12:00	5441	516	-11.7	-27.2	249	13
2023-09-19T12:00	5464	514	-11.8	-27.2	250	12
2023-09-19T12:00	5485	513	-12.0	-27.3	252	12
2023-09-19T12:00	5512	511	-12.3	-27.4	253	12
2023-09-19T12:00	5535	509	-12.5	-27.5	254	12
2023-09-19T12:00	5552	508	-12.7	-27.5	255	11
2023-09-19T12:00	5586	506	-12.9	-27.4	256	11
2023-09-19T12:00	5610	504	-13.1	-27.8	258	11
2023-09-19T12:00	5639	502	-13.4	-27.9	259	11
2023-09-19T12:00	5660	501	-13.6	-28.1	260	10
2023-09-19T12:00	5685	499	-13.8	-28.4	261	10
2023-09-19T12:00	5709	498	-14.0	-30.6	260	11
2023-09-19T12:00	5737	496	-14.2	-32.1	259	11
2023-09-19T12:00	5759	494	-14.4	-33.4	258	12
2023-09-19T12:00	5786	493	-14.6	-33.9	257	12
2023-09-19T12:00	5807	491	-14.7	-33.9	257	13
2023-09-19T12:00	5832	490	-14.9	-33.6	258	13
2023-09-19T12:00	5864	488	-15.2	-33.9	260	12
2023-09-19T12:00	5887	486	-15.3	-34.1	263	12
2023-09-19T12:00	5914	484	-15.6	-34.3	265	12
2023-09-19T12:00	5942	483	-15.8	-34.7	267	12
2023-09-19T12:00	5970	481	-16.0	-35.0	268	13
2023-09-19T12:00	6000	479	-16.3	-35.5	268	13
2023-09-19T12:00	6033	477	-16.5	-37.1	267	13
2023-09-19T12:00	6058	475	-16.6	-37.4	268	13
2023-09-19T12:00	6086	474	-16.8	-37.6	269	13
2023-09-19T12:00	6118	472	-17.1	-37.9	271	13
2023-09-19T12:00	6148	470	-17.4	-38.0	272	13
2023-09-19T12:00	6184	468	-17.7	-38.8	272	13
2023-09-19T12:00	6212	466	-18.0	-39.0	272	13
2023-09-19T12:00	6228	465	-18.1	-38.9	271	13
2023-09-19T12:00	6255	463	-18.4	-38.9	271	14
2023-09-19T12:00	6280	461	-18.6	-39.1	273	15
2023-09-19T12:00	6321	459	-18.8	-39.2	275	15
2023-09-19T12:00	6360	457	-19.2	-39.4	277	16
2023-09-19T12:00	6393	454	-19.4	-39.4	280	17
2023-09-19T12:00	6427	452	-19.7	-39.3	281	17
2023-09-19T12:00	6459	450	-19.9	-39.4	281	18
2023-09-19T12:00	6499	448	-20.3	-39.5	281	18
2023-09-19T12:00	6534	446	-20.6	-39.5	281	19
2023-09-19T12:00	6568	444	-20.6	-39.2	280	19
2023-09-19T12:00	6606	442	-20.9	-39.4	280	19
2023-09-19T12:00	6630	440	-20.5	-39.5	280	19
2023-09-19T12:00	6659	438	-20.7	-39.7	280	19
2023-09-19T12:00	6693	436	-20.8	-40.0	279	18
2023-09-19T12:00	6733	434	-20.9	-40.5	278	18
2023-09-19T12:00	6764	432	-20.9	-40.7	277	18
2023-09-19T12:00	6793	431	-21.2	-41.2	276	19
2023-09-19T12:00	6819	429	-21.3	-41.1	275	20
2023-09-19T12:00	6851	427	-21.5	-41.2	274	21
2023-09-19T12:00	6889	425	-21.7	-41.3	273	21
2023-09-19T12:00	6926	423	-21.9	-41.8	272	21
2023-09-19T12:00	6962	421	-22.1	-41.9	271	21
2023-09-19T12:00	6988	419	-22.3	-41.8	270	20
2023-09-19T12:00	7019	418	-22.6	-41.9	270	19
2023-09-19T12:00	7048	416	-22.9	-42.0	271	19
2023-09-19T12:00	7080	414	-23.1	-41.9	274	18
2023-09-19T12:00	7109	412	-23.4	-42.0	276	18
2023-09-19T12:00	7145	410	-23.7	-42.1	279	18
2023-09-19T12:00	7177	409	-24.0	-42.1	280	18
2023-09-19T12:00	7205	407	-24.3	-42.2	280	19
2023-09-19T12:00	7232	406	-24.5	-42.2	279	19
2023-09-19T12:00	7261	404	-24.8	-42.2	278	19
2023-09-19T12:00	7304	402	-25.1	-42.3	278	19
2023-09-19T12:00	7325	400	-25.2	-42.5	278	19
2023-09-19T12:00	7346	399	-25.2	-42.0	280	19
2023-09-19T12:00	7369	398	-25.4	-42.2	282	19
2023-09-19T12:00	7394	396	-25.6	-42.8	283	19
2023-09-19T12:00	7427	395	-25.8	-44.0	283	18
2023-09-19T12:00	7447	394	-25.9	-44.1	282	18
2023-09-19T12:00	7480	392	-26.2	-44.3	281	18
2023-09-19T12:00	7502	391	-26.4	-44.4	280	18
2023-09-19T12:00	7536	389	-26.6	-44.1	280	18
2023-09-19T12:00	7564	387	-26.8	-43.6	281	18
2023-09-19T12:00	7589	386	-27.0	-43.9	283	17
2023-09-19T12:00	7607	385	-27.2	-43.9	284	17
2023-09-19T12:00	7637	383	-27.5	-43.8	284	17
2023-09-19T12:00	7669	382	-27.8	-44.4	284	18
2023-09-19T12:00	7696	380	-28.0	-44.5	283	18
2023-09-19T12:00	7729	379	-28.3	-44.8	282	19
2023-09-19T12:00	7756	377	-28.6	-45.2	282	19
2023-09-19T12:00	7785	376	-28.8	-45.3	281	20
2023-09-19T12:00	7812	374	-29.1	-45.9	281	20
2023-09-19T12:00	7851	372	-29.4	-46.5	280	20
2023-09-19T12:00	7877	371	-29.7	-46.5	280	20
2023-09-19T12:00	7912	369	-30.0	-46.4	278	20
2023-09-19T12:00	7936	368	-30.3	-47.2	277	20
2023-09-19T12:00	7959	366	-30.5	-47.3	277	20
2023-09-19T12:00	7989	365	-30.7	-47.7	277	19
2023-09-19T12:00	8016	364	-31.0	-48.2	276	20
2023-09-19T12:00	8039	362	-31.2	-48.2	276	20
2023-09-19T12:00	8067	361	-31.5	-48.2	275	20
2023-09-19T12:00	8094	360	-31.7	-48.3	274	21
2023-09-19T12:00	8126	358	-32.0	-48.5	273	21
2023-09-19T12:00	8159	356	-32.3	-48.9	272	21
2023-09-19T12:00	8195	355	-32.6	-49.5	271	21
2023-09-19T12:00	8225	353	-32.9	-49.6	271	21
2023-09-19T12:00	8248	352	-33.1	-50.1	270	21
2023-09-19T12:00	8287	350	-33.4	-50.8	269	21
2023-09-19T12:00	8324	348	-33.8	-51.1	268	21
2023-09-19T12:00	8350	347	-34.0	-51.8	266	21
2023-09-19T12:00	8385	345	-34.3	-51.5	266	21
2023-09-19T12:00	8415	344	-34.6	-51.6	265	21
2023-09-19T12:00	8448	342	-34.9	-51.7	264	21
2023-09-19T12:00	8479	340	-35.2	-51.9	264	21
2023-09-19T12:00	8508	339	-35.4	-52.0	265	22
2023-09-19T12:00	8536	338	-35.7	-52.5	265	21
2023-09-19T12:00	8566	336	-36.0	-52.4	264	21
2023-09-19T12:00	8597	335	-36.3	-52.8	264	21
2023-09-19T12:00	8629	333	-36.5	-52.8	264	21
2023-09-19T12:00	8661	332	-36.8	-52.8	264	21
2023-09-19T12:00	8690	330	-37.1	-53.0	265	21
2023-09-19T12:00	8709	329	-37.3	-53.1	265	22
2023-09-19T12:00	8729	328	-37.5	-53.2	266	21
2023-09-19T12:00	8758	327	-37.7	-53.5	266	21
2023-09-19T12:00	8790	326	-37.8	-54.2	266	21
2023-09-19T12:00	8820	324	-38.1	-54.3	266	20
2023-09-19T12:00	8847	323	-38.4	-54.5	267	20
2023-09-19T12:00	8864	322	-38.5	-54.7	268	19
2023-09-19T12:00	8883	321	-38.6	-54.6	269	19
2023-09-19T12:00	8915	320	-39.0	-54.6	271	19
2023-09-19T12:00	8942	318	-39.1	-54.9	271	19
2023-09-19T12:00	8972	317	-39.4	-55.0	271	19
2023-09-19T12:00	8997	316	-39.6	-55.1	270	19
2023-09-19T12:00	9024	315	-39.9	-55.1	269	18
2023-09-19T12:00	9049	313	-39.9		267	19
2023-09-19T12:00	9072	312	-40.1	-56.6	267	19
2023-09-19T12:00	9106	311	-40.3	-57.2	268	19
2023-09-19T12:00	9126	310	-40.5	-57.1	269	19
2023-09-19T12:00	9153	309	-40.7	-57.0	270	19
2023-09-19T12:00	9173	308	-40.9	-57.2	271	19
2023-09-19T12:00	9200	307	-41.1	-57.5	271	18
2023-09-19T12:00	9219	306	-41.3	-57.6	272	18
2023-09-19T12:00	9239	305	-41.5	-57.7	273	18
2023-09-19T12:00	9265	304	-41.7	-57.5	273	18
2023-09-19T12:00	9289	303	-42.0	-57.6	272	18
2023-09-19T12:00	9315	301	-42.2	-57.6	269	18
2023-09-19T12:00	9339	300	-42.5	-57.5	265	18
2023-09-19T12:00	9369	299	-42.7	-57.5	261	18
2023-09-19T12:00	9388	298	-42.9	-57.6	259	19
2023-09-19T12:00	9423	297	-43.2	-57.6	258	19
2023-09-19T12:00	9457	295	-43.5	-57.8	259	19
2023-09-19T12:00	9485	294	-43.7	-58.6	261	19
2023-09-19T12:00	9507	293	-43.9	-58.5	263	18
2023-09-19T12:00	9528	292	-44.2	-58.4	265	18
2023-09-19T12:00	9559	291	-44.4	-58.5	266	18
2023-09-19T12:00	9591	289	-44.7	-58.7	268	18
2023-09-19T12:00	9618	288	-44.9	-58.9	270	18
2023-09-19T12:00	9651	287	-45.2	-58.7	272	19
2023-09-19T12:00	9687	285	-45.5	-58.0	272	19
2023-09-19T12:00	9721	284	-45.9	-57.6	272	20
2023-09-19T12:00	9746	283	-46.1	-57.8	272	20
2023-09-19T12:00	9775	281	-46.4	-57.7	271	21
2023-09-19T12:00	9795	280	-46.6	-57.8	271	21
2023-09-19T12:00	9818	279	-46.8	-57.4	272	21
2023-09-19T12:00	9848	278	-47.0	-56.6	274	21
2023-09-19T12:00	9893	277	-47.3	-57.8	275	21
2023-09-19T12:00	9922	275	-47.4	-59.5	275	21
2023-09-19T12:00	9941	274	-47.6	-59.8	275	21
2023-09-19T12:00	9963	274	-47.8	-59.5	275	22
2023-09-19T12:00	9983	273	-47.9	-58.9	276	22
2023-09-19T12:00	10003	272	-48.1	-58.4	277	22
2023-09-19T12:00	10027	271	-48.3	-58.0	279	22
2023-09-19T12:00	10056	270	-48.6	-57.5	280	22
2023-09-19T12:00	10082	269	-48.8	-57.0	280	22
2023-09-19T12:00	10113	267	-48.9	-56.0	279	22
2023-09-19T12:00	10151	266	-49.3	-55.2	278	22
2023-09-19T12:00	10175	265	-49.5	-54.4	277	22
2023-09-19T12:00	10196	264	-49.6	-53.6	277	23
2023-09-19T12:00	10215	263	-49.8	-53.7	278	23
2023-09-19T12:00	10250	262	-49.9	-54.2	279	23
2023-09-19T12:00	10287	260	-49.9	-55.0	280	23
2023-09-19T12:00	10316	259	-50.1	-55.7	282	24
2023-09-19T12:00	10346	258	-50.4	-55.8	284	25
2023-09-19T12:00	10378	257	-50.6	-55.9	285	26
2023-09-19T12:00	10405	256	-50.6	-55.9	286	28
2023-09-19T12:00	10435	254	-50.8	-55.7	286	29
2023-09-19T12:00	10465	253	-51.0		286	30
2023-09-19T12:00	10482	253	-51.1	-55.0	286	30
2023-09-19T12:00	10503	252	-51.2	-54.7	285	31
2023-09-19T12:00	10534	251	-51.1	-54.5	285	30
2023-09-19T12:00	10562	250	-51.2	-54.7	285	30
2023-09-19T12:00	10593	248	-51.5	-55.2	285	29
2023-09-19T12:00	10619	247	-51.7	-55.5	285	29
2023-09-19T12:00	10648	246	-51.9	-56.0	285	28
2023-09-19T12:00	10679	245	-52.2	-57.0	286	27
2023-09-19T12:00	10712	244	-52.3	-57.8	286	27
2023-09-19T12:00	10739	243	-52.6	-58.5	286	27
2023-09-19T12:00	10771	242	-52.8	-59.0	286	26
2023-09-19T12:00	10799	241	-53.1	-59.5	285	26
2023-09-19T12:00	10822	240	-53.2	-59.7	283	25
2023-09-19T12:00	10847	239	-53.5	-60.2	281	25
2023-09-19T12:00	10887	237	-53.8	-60.8	279	24
2023-09-19T12:00	10917	236	-54.0	-61.9	277	24
2023-09-19T12:00	10946	235	-53.9	-63.8	275	24
2023-09-19T12:00	10970	234	-53.6	-65.4	274	24
2023-09-19T12:00	10996	233	-53.6	-65.9	274	25
2023-09-19T12:00	11030	232	-53.9	-65.6	274	25
2023-09-19T12:00	11065	231	-54.3	-65.3	274	26
2023-09-19T12:00	11089	230	-54.5	-65.1	275	26
2023-09-19T12:00	11114	229	-54.6	-65.1	276	26
2023-09-19T12:00	11137	228	-54.9	-65.0	277	27
2023-09-19T12:00	11162	227	-55.1	-64.4	278	27
2023-09-19T12:00	11187	226	-55.3	-63.8	279	28
2023-09-19T12:00	11213	226	-55.5	-63.7	279	28
2023-09-19T12:00	11239	225	-55.7	-64.2	279	28
2023-09-19T12:00	11264	224	-55.9	-64.7	280	29
2023-09-19T12:00	11289	223	-56.0	-64.2	280	29
2023-09-19T12:00	11316	222	-56.1	-63.3	281	29
2023-09-19T12:00	11342	221	-56.3	-62.5	281	29
2023-09-19T12:00	11366	220	-56.5	-61.8	282	29
2023-09-19T12:00	11391	219	-56.7	-61.4	283	29
2023-09-19T12:00	11414	219	-56.8	-61.4	285	29
2023-09-19T12:00	11437	218	-56.9	-62.1	286	29
2023-09-19T12:00	11459	217	-56.9	-63.4	286	30
2023-09-19T12:00	11481	216	-56.9	-65.3	287	30
2023-09-19T12:00	11503	216	-56.9	-67.0	287	30
2023-09-19T12:00	11523	215	-56.9	-68.1	287	30
2023-09-19T12:00	11545	214	-56.9	-68.6	286	29
2023-09-19T12:00	11577	213	-57.1	-68.9	285	29
2023-09-19T12:00	11598	212	-57.0	-68.7	285	29
2023-09-19T12:00	11616	212	-57.2	-68.8	284	28
2023-09-19T12:00	11636	211	-57.3	-69.0	283	28
2023-09-19T12:00	11664	210	-57.4	-69.8	283	26
2023-09-19T12:00	11704	209	-55.8	-70.0	283	25
2023-09-19T12:00	11742	208	-55.3	-71.4	283	23
2023-09-19T12:00	11767	207	-55.0	-72.4	283	22
2023-09-19T12:00	11795	206	-54.9	-72.9	283	21
2023-09-19T12:00	11832	205	-54.8	-73.3	283	20
2023-09-19T12:00	11875	203	-54.7	-73.7	282	20
2023-09-19T12:00	11906	202	-54.7	-73.7	281	19
2023-09-19T12:00	11951	201	-55.2	-73.8	281	19
2023-09-19T12:00	11971	200	-55.6	-73.9	280	19
2023-09-19T12:00	11992	199	-55.5	-73.8	280	18
2023-09-19T12:00	12025	199	-55.4	-74.0	280	18
2023-09-19T12:00	12049	198	-55.6	-74.1	279	17
2023-09-19T12:00	12075	197	-55.8	-74.1	277	17
2023-09-19T12:00	12104	196	-56.2	-74.3	276	17
2023-09-19T12:00	12131	195	-56.4	-74.4	275	17
2023-09-19T12:00	12156	194	-56.5	-74.5	274	16
2023-09-19T12:00	12182	194	-56.7	-74.6	274	16
2023-09-19T12:00	12216	193	-57.0	-74.8	275	16
2023-09-19T12:00	12249	192	-57.2	-74.9	276	16
2023-09-19T12:00	12281	191	-57.5	-75.1	276	16
2023-09-19T12:00	12318	190	-57.8	-75.2	275	16
2023-09-19T12:00	12346	189	-58.1	-75.5	274	16
2023-09-19T12:00	12365	188	-58.1	-75.6	273	16
2023-09-19T12:00	12394	187	-58.3	-75.8	271	16
2023-09-19T12:00	12431	186	-58.5	-76.2	269	17
2023-09-19T12:00	12478	185	-58.6	-76.2	267	17
2023-09-19T12:00	12510	184	-58.8	-76.5	264	17
2023-09-19T12:00	12548	183	-58.9	-76.7	262	17
2023-09-19T12:00	12566	182	-59.1		260	17
2023-09-19T12:00	12587	182	-59.3	-76.9	258	17
2023-09-19T12:00	12613	181	-59.5	-77.1	257	17
2023-09-19T12:00	12639	180	-59.6	-77.2	257	17
2023-09-19T12:00	12663	179	-59.7	-77.3	257	18
2023-09-19T12:00	12692	179	-59.7	-77.3	257	18
2023-09-19T12:00	12716	178	-60.0	-77.6	257	18
2023-09-19T12:00	12739	177	-60.1	-77.6	258	18
2023-09-19T12:00	12768	176	-60.4	-77.8	258	19
2023-09-19T12:00	12790	176	-60.6	-77.9	258	20
2023-09-19T12:00	12822	175	-60.8	-78.2	258	21
2023-09-19T12:00	12844	174	-60.8	-78.4	257	22
2023-09-19T12:00	12868	174	-60.5	-78.8	257	23
2023-09-19T12:00	12889	173	-59.9	-79.2	256	24
2023-09-19T12:00	12912	172	-59.0	-79.4	256	25
2023-09-19T12:00	12935	172	-58.6	-79.7	256	25
2023-09-19T12:00	12956	171	-58.7	-80.1	257	26
2023-09-19T12:00	12977	171	-58.5	-80.1	258	26
2023-09-19T12:00	12997	170	-58.4	-80.3	259	27
2023-09-19T12:00	13015	170	-58.4	-80.6	260	27
2023-09-19T12:00	13038	169	-57.7	-80.6	261	27
2023-09-19T12:00	13057	168	-57.1	-80.4	262	26
2023-09-19T12:00	13077	168	-56.6	-80.4	263	26
2023-09-19T12:00	13097	167	-56.6	-80.9	265	25
2023-09-19T12:00	13115	167	-56.1	-80.9	267	24
2023-09-19T12:00	13132	166	-55.3	-80.5	268	24
2023-09-19T12:00	13152	166	-54.8	-80.4	270	24
2023-09-19T12:00	13170	165	-54.7	-80.6	270	23
2023-09-19T12:00	13189	165	-54.4	-80.6	271	22
2023-09-19T12:00	13216	164	-53.6	-80.2	271	21
2023-09-19T12:00	13238	164	-52.9	-80.0	270	20
2023-09-19T12:00	13265	163	-52.8	-80.2	270	19
2023-09-19T12:00	13299	162	-52.6	-80.1	268	18
2023-09-19T12:00	13320	162	-52.4	-79.9	266	17
2023-09-19T12:00	13337	161	-52.5	-80.3	263	17
2023-09-19T12:00	13355	161	-52.5	-80.0	261	16
2023-09-19T12:00	13375	160	-52.6	-80.1	260	16
2023-09-19T12:00	13393	160	-52.6	-80.4	260	16
2023-09-19T12:00	13415	159	-52.7	-80.5	260	16
2023-09-19T12:00	13436	159	-52.7	-80.5	261	16
2023-09-19T12:00	13456	158	-52.6	-80.4	261	16
2023-09-19T12:00	13475	158	-52.7	-80.5	261	16
2023-09-19T12:00	13495	157	-52.8	-80.6	260	15
2023-09-19T12:00	13517	157	-52.9	-80.6	258	15
2023-09-19T12:00	13540	156	-53.0	-80.7	256	15
2023-09-19T12:00	13561	156	-53.2	-80.9	254	15
2023-09-19T12:00	13580	155	-53.3	-80.6	253	15
2023-09-19T12:00	13600	155	-53.4	-80.7	252	15
2023-09-19T12:00	13618	154	-53.6	-80.9	251	15
2023-09-19T12:00	13641	154	-53.7	-80.9	250	15
2023-09-19T12:00	13663	153	-53.9	-81.1	250	15
2023-09-19T12:00	13680	153	-54.0	-80.9	250	15
2023-09-19T12:00	13702	152	-54.1	-80.9	250	16
2023-09-19T12:00	13717	152	-54.2	-81.0	251	16
2023-09-19T12:00	13740	151	-54.4	-81.2	253	15
2023-09-19T12:00	13777	151	-54.6	-81.0	254	15
2023-09-19T12:00	13804	150	-54.7	-81.1	255	15
2023-09-19T12:00	13828	149	-54.9	-81.3	255	15
2023-09-19T12:00	13860	149	-55.2	-81.2	253	15
2023-09-19T12:00	13885	148	-55.5	-81.4	251	16
2023-09-19T12:00	13916	147	-55.7	-81.6	250	16
2023-09-19T12:00	13948	147	-55.9	-81.5	249	17
2023-09-19T12:00	13972	146	-55.9	-81.5	248	17
2023-09-19T12:00	13994	146	-56.0	-81.6	249	16
2023-09-19T12:00	14015	145	-56.2	-81.7	251	16
2023-09-19T12:00	14038	145	-56.1	-81.6	252	16
2023-09-19T12:00	14057	144	-56.1	-81.6	253	16
2023-09-19T12:00	14078	144	-56.2	-81.7	254	17
2023-09-19T12:00	14099	143	-56.1	-81.6	255	17
2023-09-19T12:00	14121	143	-56.1	-81.6	255	17
2023-09-19T12:00	14144	142	-56.1	-81.6	256	17
2023-09-19T12:00	14163	142	-56.0	-81.6	256	18
2023-09-19T12:00	14183	141	-56.1	-81.9	256	18
2023-09-19T12:00	14207	141	-55.8	-81.7	256	18
2023-09-19T12:00	14227	140	-55.7	-81.6	255	18
2023-09-19T12:00	14253	140	-55.6	-81.5	255	19
2023-09-19T12:00	14273	139	-55.6	-81.5	255	19
2023-09-19T12:00	14296	139	-55.8	-81.7	255	20
2023-09-19T12:00	14317	138	-55.9	-81.8	256	20
2023-09-19T12:00	14338	138	-56.0	-81.8	257	20
2023-09-19T12:00	14361	137	-56.1	-81.9	258	20
2023-09-19T12:00	14384	137	-56.0	-82.1	260	19
2023-09-19T12:00	14404	136	-55.4	-81.9	262	19
2023-09-19T12:00	14426	136	-54.9	-81.9	263	18
2023-09-19T12:00	14449	136	-54.7	-82.0	265	18
2023-09-19T12:00	14469	135	-54.5	-82.2	266	17
2023-09-19T12:00	14491	135	-54.4	-82.1	266	17
2023-09-19T12:00	14513	134	-54.0	-82.2	266	16
2023-09-19T12:00	14536	134	-53.8	-82.0	265	16
2023-09-19T12:00	14555	133	-53.9	-82.1	264	16
2023-09-19T12:00	14574	133	-53.9	-82.1	263	15
2023-09-19T12:00	14594	132	-53.9	-82.1	262	15
2023-09-19T12:00	14615	132	-53.7	-82.0	261	15
2023-09-19T12:00	14639	132	-53.5	-82.2	260	14
2023-09-19T12:00	14666	131	-53.5	-82.2	259	14
2023-09-19T12:00	14689	131	-53.1	-81.9	258	13
2023-09-19T12:00	14717	130	-53.1	-81.9	257	13
2023-09-19T12:00	14741	130	-53.3	-82.0	257	13
2023-09-19T12:00	14763	129	-53.4	-82.1	256	13
2023-09-19T12:00	14787	129	-53.7	-82.0	256	13
2023-09-19T12:00	14811	128	-53.9	-82.1	257	13
2023-09-19T12:00	14833	128	-54.1	-82.3	257	13
2023-09-19T12:00	14859	127	-54.2	-82.3	258	14
2023-09-19T12:00	14880	127	-54.3	-82.4	258	14
2023-09-19T12:00	14906	126	-54.3	-82.4	258	14
2023-09-19T12:00	14930	126	-54.4	-82.5	258	14
2023-09-19T12:00	14955	125	-54.5	-82.2	258	14
2023-09-19T12:00	14981	125	-54.6	-82.3	258	15
2023-09-19T12:00	15005	124	-54.8	-82.4	258	15
2023-09-19T12:00	15030	124	-54.9	-82.5	258	16
2023-09-19T12:00	15058	123	-54.7	-82.4	259	16
2023-09-19T12:00	15080	123	-54.8	-82.4	259	16
2023-09-19T12:00	15108	122	-54.9	-82.5	260	16
2023-09-19T12:00	15134	122	-55.0	-82.6	260	16
2023-09-19T12:00	15161	121	-55.0	-82.6	259	16
2023-09-19T12:00	15192	121	-54.9	-82.5	258	15
2023-09-19T12:00	15221	120	-54.6	-82.3	257	15
2023-09-19T12:00	15249	120	-54.8	-82.4	255	14
2023-09-19T12:00	15278	119	-55.0	-82.6	255	14
2023-09-19T12:00	15302	119	-55.1	-82.7	254	13
2023-09-19T12:00	15326	118	-55.2	-82.7	254	13
2023-09-19T12:00	15352	118	-55.3	-82.8	254	13
2023-09-19T12:00	15376	117	-55.4	-82.9	254	13
2023-09-19T12:00	15400	117	-55.4	-82.9	254	13
2023-09-19T12:00	15424	116	-55.4	-82.9	254	13
2023-09-19T12:00	15448	116	-55.4	-83.3	254	13
2023-09-19T12:00	15475	115	-55.1	-83.0	254	13
2023-09-19T12:00	15498	115	-55.0	-82.9	253	13
2023-09-19T12:00	15521	115	-55.1	-83.0	252	13
2023-09-19T12:00	15545	114	-55.2	-83.1	251	13
2023-09-19T12:00	15566	114	-55.4	-83.3	250	14
2023-09-19T12:00	15590	113	-55.5		250	14
2023-09-19T12:00	15612	113	-55.7	-83.1	250	14
2023-09-19T12:00	15632	113	-55.7	-83.5	251	15
2023-09-19T12:00	15654	112	-55.7	-83.5	252	15
2023-09-19T12:00	15675	112	-55.7	-83.5	252	16
2023-09-19T12:00	15695	112	-55.7	-83.5	251	16
2023-09-19T12:00	15713	111	-55.7	-83.5	250	16
2023-09-19T12:00	15735	111	-55.5	-83.7	249	16
2023-09-19T12:00	15754	111	-54.8	-83.6	247	16
2023-09-19T12:00	15773	110	-54.3	-83.2	246	15
2023-09-19T12:00	15793	110	-54.2	-83.1	244	15
2023-09-19T12:00	15815	109	-54.2	-83.6	243	14
2023-09-19T12:00	15833	109	-54.2	-83.6	241	14
2023-09-19T12:00	15856	109	-54.0	-83.4	238	14
2023-09-19T12:00	15875	108	-53.9	-83.3	235	14
2023-09-19T12:00	15898	108	-53.9	-83.3	232	15
2023-09-19T12:00	15921	108	-53.7	-83.2	229	15
2023-09-19T12:00	15943	107	-53.3	-82.9	226	15
2023-09-19T12:00	15966	107	-52.9	-83.1	224	15
2023-09-19T12:00	15985	107	-52.7	-82.9	223	15
2023-09-19T12:00	16008	106	-52.8	-83.0	222	15
2023-09-19T12:00	16031	106	-53.0	-82.7	221	15
2023-09-19T12:00	16051	106	-53.2	-82.8	220	16
2023-09-19T12:00	16073	105	-53.3	-82.9	219	16
2023-09-19T12:00	16099	105	-53.5	-82.6	218	16
2023-09-19T12:00	16124	104	-53.7	-82.8	218	16
2023-09-19T12:00	16145	104	-53.9	-82.9	218	16
2023-09-19T12:00	16169	104	-54.1	-83.1	218	16
2023-09-19T12:00	16192	103	-54.3	-83.2	219	17
2023-09-19T12:00	16220	103	-54.5	-82.9	220	17
2023-09-19T12:00	16246	102	-54.7	-83.1	221	18
2023-09-19T12:00	16273	102	-54.8	-83.2	223	18
2023-09-19T12:00	16300	101	-54.9	-83.3	226	18
2023-09-19T12:00	16331	101	-55.0		230	19
2023-09-19T12:00	16374	100	-54.5	-83.4	234	19
2023-09-19T12:00	16413	100	-54.5	-83.4	237	19
2023-09-19T12:00	16444	99	-54.8	-83.6	239	19
2023-09-19T12:00	16472	99	-54.7	-83.5	241	19
2023-09-19T12:00	16502	98	-54.7	-83.5	243	19
2023-09-19T12:00	16530	98	-54.9	-83.7	244	19
2023-09-19T12:00	16557	98	-55.1	-83.4	244	19
2023-09-19T12:00	16577	97	-55.3	-83.6	245	19
2023-09-19T12:00	16606	97	-55.5	-83.7	246	19
2023-09-19T12:00	16632	96	-55.7	-83.9	247	19
2023-09-19T12:00	16659	96	-55.7	-83.9	248	19
2023-09-19T12:00	16682	96	-55.9	-84.0	249	19
2023-09-19T12:00	16706	95	-55.9	-84.0	250	19
2023-09-19T12:00	16732	95	-56.0	-84.1	250	19
2023-09-19T12:00	16760	94	-56.1	-84.6	251	19
2023-09-19T12:00	16784	94	-55.8	-84.3	251	19
2023-09-19T12:00	16810	94	-55.6	-84.2	251	19
2023-09-19T12:00	16834	93	-54.9	-84.1	252	19
2023-09-19T12:00	16859	93	-54.7	-83.9	253	18
2023-09-19T12:00	16884	93	-54.4	-84.2	254	18
2023-09-19T12:00	16910	92	-54.0	-83.9	256	17
2023-09-19T12:00	16935	92	-54.0	-83.9	257	17
2023-09-19T12:00	16958	92	-54.1	-84.0	258	16
2023-09-19T12:00	16980	91	-54.1	-84.0	259	16
2023-09-19T12:00	17004	91	-53.9	-83.8	259	16
2023-09-19T12:00	17026	91	-53.7	-83.7	260	15
2023-09-19T12:00	17050	90	-53.7	-83.7	260	15
2023-09-19T12:00	17074	90	-53.8	-83.7	260	15
2023-09-19T12:00	17097	90	-53.6	-83.6	260	15
2023-09-19T12:00	17119	89	-53.1	-83.2	261	15
2023-09-19T12:00	17144	89	-53.3		261	14
2023-09-19T12:00	17163	89	-53.4	-83.4	262	14
2023-09-19T12:00	17187	88	-53.6	-83.6	263	14
2023-09-19T12:00	17212	88	-53.8	-83.7	264	13
2023-09-19T12:00	17233	88	-53.9	-83.3	264	13
2023-09-19T12:00	17255	87	-53.9	-83.3	263	12
2023-09-19T12:00	17279	87	-53.9	-83.3	261	12
2023-09-19T12:00	17305	87	-54.0	-83.4	259	11
2023-09-19T12:00	17329	86	-54.0	-83.4	256	11
2023-09-19T12:00	17356	86	-54.1	-83.5	253	10
2023-09-19T12:00	17373	86	-54.1	-83.5	250	10
2023-09-19T12:00	17403	85	-54.3	-83.6	246	10
2023-09-19T12:00	17429	85	-54.4	-83.7	244	10
2023-09-19T12:00	17453	85	-54.6	-83.9	241	10
2023-09-19T12:00	17473	85	-54.8	-84.0	239	10
2023-09-19T12:00	17498	84	-55.0	-83.7	238	11
2023-09-19T12:00	17522	84	-55.2	-83.9	237	11
2023-09-19T12:00	17546	84	-55.4	-84.0	238	11
2023-09-19T12:00	17568	83	-55.6	-84.2	239	11
2023-09-19T12:00	17592	83	-55.7	-84.3	240	11
2023-09-19T12:00	17614	83	-55.8	-84.3	241	11
2023-09-19T12:00	17641	82	-55.9	-84.4	243	11
2023-09-19T12:00	17666	82	-56.0	-84.5	245	11
2023-09-19T12:00	17686	82	-56.1	-84.6	246	11
2023-09-19T12:00	17709	81	-56.2	-84.2	246	12
2023-09-19T12:00	17731	81	-56.3	-84.7	246	12
2023-09-19T12:00	17754	81	-56.3	-84.7	246	13
2023-09-19T12:00	17779	81	-56.1	-84.6	246	13
2023-09-19T12:00	17800	80	-56.1	-84.6	246	14
2023-09-19T12:00	17827	80	-56.0	-84.5	245	14
2023-09-19T12:00	17851	80	-55.8	-84.8	245	14
2023-09-19T12:00	17877	79	-55.8	-84.8	245	14
2023-09-19T12:00	17908	79	-55.7	-84.7	245	13
2023-09-19T12:00	17931	79	-55.2	-84.3	244	12
2023-09-19T12:00	17956	78	-54.8	-84.5	243	12
2023-09-19T12:00	17979	78	-54.8	-84.5	241	11
2023-09-19T12:00	18006	78	-55.0	-84.2	239	10
2023-09-19T12:00	18037	77	-55.2	-84.3	237	10
2023-09-19T12:00	18060	77	-55.4	-84.5	235	9
2023-09-19T12:00	18086	77	-55.5	-84.1	234	9
2023-09-19T12:00	18109	76	-55.7	-84.3	234	9
2023-09-19T12:00	18134	76	-55.8	-84.3	235	9
2023-09-19T12:00	18159	76	-55.9	-84.4	236	9
2023-09-19T12:00	18182	76	-56.0	-84.5	236	10
2023-09-19T12:00	18208	75	-56.1	-84.6	236	10
2023-09-19T12:00	18232	75	-56.1	-84.6	235	10
2023-09-19T12:00	18256	75	-56.1	-84.6	234	11
2023-09-19T12:00	18278	74	-56.1	-84.6	234	11
2023-09-19T12:00	18304	74	-56.2	-85.1	236	11
2023-09-19T12:00	18329	74	-56.2	-85.1	239	12
2023-09-19T12:00	18352	74	-55.5	-85.0	242	12
2023-09-19T12:00	18381	73	-54.9	-84.6	245	12
2023-09-19T12:00	18404	73	-54.8	-84.5	248	12
2023-09-19T12:00	18429	73	-54.8	-84.5	250	12
2023-09-19T12:00	18451	72	-55.0	-84.6	252	11
2023-09-19T12:00	18476	72	-55.2	-84.8	254	11
2023-09-19T12:00	18498	72	-55.3	-84.9	255	10
2023-09-19T12:00	18523	72	-55.3	-84.9	257	10
2023-09-19T12:00	18547	71	-55.1	-84.7	257	9
2023-09-19T12:00	18575	71	-55.1	-84.7	257	8
2023-09-19T12:00	18599	71	-55.1	-84.7	257	8
2023-09-19T12:00	18626	71	-55.0	-84.6	257	7
2023-09-19T12:00	18649	70	-55.1	-84.7	256	7
2023-09-19T12:00	18675	70	-55.2	-84.8	254	6
2023-09-19T12:00	18700	70	-55.4	-84.5	252	6
2023-09-19T12:00	18724	69	-55.5	-84.5	250	6
2023-09-19T12:00	18752	69	-55.6	-84.6	246	6
2023-09-19T12:00	18774	69	-55.6	-84.6	242	6
2023-09-19T12:00	18800	69	-55.7	-84.7	238	6
2023-09-19T12:00	18830	68	-55.9	-84.8	233	6
2023-09-19T12:00	18852	68	-56.0	-84.9	229	6
2023-09-19T12:00	18878	68	-56.2	-85.1	226	7
2023-09-19T12:00	18903	68	-56.3	-84.7	222	7
2023-09-19T12:00	18930	67	-56.4	-84.8	219	8
2023-09-19T12:00	18958	67	-56.6	-84.9	217	8
2023-09-19T12:00	18982	67	-56.7	-85.0	216	9
2023-09-19T12:00	19010	66	-56.7	-85.4	217	10
2023-09-19T12:00	19031	66	-56.7	-85.4	219	10
2023-09-19T12:00	19058	66	-56.7	-85.4	221	10
2023-09-19T12:00	19085	66	-56.7	-85.4	224	10
2023-09-19T12:00	19108	65	-56.7	-85.4	227	11
2023-09-19T12:00	19134	65	-56.7	-85.4	230	11
2023-09-19T12:00	19162	65	-56.8	-85.5	233	11
2023-09-19T12:00	19184	65	-57.0	-85.7	236	11
2023-09-19T12:00	19213	64	-57.1	-85.7	239	11
2023-09-19T12:00	19237	64	-57.0	-85.7	242	11
2023-09-19T12:00	19260	64	-56.8	-85.5	245	10
2023-09-19T12:00	19286	64	-56.4	-85.2	247	10
2023-09-19T12:00	19308	63	-56.4	-85.7	249	9
2023-09-19T12:00	19333	63	-56.4	-85.2	252	9
2023-09-19T12:00	19364	63	-56.6	-85.4	254	10
2023-09-19T12:00	19389	63	-56.8	-85.5	256	10
2023-09-19T12:00	19413	62	-57.0	-85.7	258	11
2023-09-19T12:00	19440	62	-57.1	-85.7	259	11
2023-09-19T12:00	19467	62	-57.2	-85.8	259	11
2023-09-19T12:00	19488	62	-57.1	-85.7	258	10
2023-09-19T12:00	19514	61	-56.8	-85.5	256	10
2023-09-19T12:00	19538	61	-56.7	-85.4	253	10
2023-09-19T12:00	19561	61	-56.9	-85.6	249	10
2023-09-19T12:00	19589	61	-56.9	-85.6	246	10
2023-09-19T12:00	19612	60	-57.1	-85.7	243	10
2023-09-19T12:00	19637	60	-57.2	-85.8	241	10
2023-09-19T12:00	19662	60	-57.2	-85.8	240	10
2023-09-19T12:00	19684	60	-57.2	-85.8	239	11
2023-09-19T12:00	19706	59	-57.3	-85.9	238	11
2023-09-19T12:00	19733	59	-57.5	-86.1	239	12
2023-09-19T12:00	19756	59	-57.7	-86.2	239	12
2023-09-19T12:00	19777	59	-57.5	-86.1	241	12
2023-09-19T12:00	19800	59	-56.6	-85.8	243	12
2023-09-19T12:00	19826	58	-56.2	-85.5	246	12
2023-09-19T12:00	19849	58	-56.3	-85.6	250	12
2023-09-19T12:00	19874	58	-56.4	-85.7	253	12
2023-09-19T12:00	19898	58	-56.4	-85.7	255	12
2023-09-19T12:00	19919	58	-56.4	-85.7	257	12
2023-09-19T12:00	19943	57	-56.6	-85.4	258	12
2023-09-19T12:00	19969	57	-56.7	-85.4	260	12
2023-09-19T12:00	19993	57	-56.9	-85.6	261	12
2023-09-19T12:00	20021	57	-57.1	-85.7	264	12
2023-09-19T12:00	20042	56	-57.2	-85.8	267	12
2023-09-19T12:00	20065	56	-57.2	-85.8	270	12
2023-09-19T12:00	20091	56	-57.2	-85.8	274	12
2023-09-19T12:00	20116	56	-57.1	-85.7	276	12
2023-09-19T12:00	20141	56	-56.8	-86.0	279	12
2023-09-19T12:00	20168	55	-56.6	-85.8	281	11
2023-09-19T12:00	20194	55	-56.5	-85.8	284	11
2023-09-19T12:00	20217	55	-56.3	-86.1	286	10
2023-09-19T12:00	20246	55	-56.1	-86.0	289	9
2023-09-19T12:00	20272	54	-55.9	-85.8	292	8
2023-09-19T12:00	20297	54	-55.8	-85.2	294	8
2023-09-19T12:00	20326	54	-56.0		295	7
2023-09-19T12:00	20344	54	-56.2	-85.5	296	7
2023-09-19T12:00	20371	54	-56.3	-85.6	295	6
2023-09-19T12:00	20397	53	-56.3	-85.1	292	6
2023-09-19T12:00	20423	53	-56.5	-85.3	287	5
2023-09-19T12:00	20446	53	-56.6	-85.4	279	5
2023-09-19T12:00	20468	53	-56.8	-85.5	271	5
2023-09-19T12:00	20492	53	-56.9	-85.6	264	5
2023-09-19T12:00	20512	52	-56.7	-85.9	256	5
2023-09-19T12:00	20540	52	-56.3	-85.6	250	5
2023-09-19T12:00	20565	52	-56.0		243	5
2023-09-19T12:00	20586	52	-55.9	-85.8	237	5
2023-09-19T12:00	20612	52	-56.0	-85.9	230	5
2023-09-19T12:00	20634	51	-55.9	-85.8	223	5
2023-09-19T12:00	20658	51	-55.8	-85.2	216	5
2023-09-19T12:00	20685	51	-55.9	-85.3	210	5
2023-09-19T12:00	20710	51	-56.0		205	5
2023-09-19T12:00	20735	51	-56.1	-85.5	201	5
2023-09-19T12:00	20760	50	-56.2	-85.5	198	5
2023-09-19T12:00	20785	50	-56.4	-85.2	196	5
2023-09-19T12:00	20814	50	-56.5	-85.3	194	5
2023-09-19T12:00	20840	50	-56.6	-85.4	193	6
2023-09-19T12:00	20864	50	-56.7	-85.4	194	6
2023-09-19T12:00	20887	49	-56.8	-85.5	197	6
2023-09-19T12:00	20914	49	-56.8	-85.5	202	7
2023-09-19T12:00	20943	49	-56.8	-85.5	208	7
2023-09-19T12:00	20967	49	-56.7	-85.4	216	7
2023-09-19T12:00	20990	49	-56.7	-85.4	223	7
2023-09-19T12:00	21015	48	-56.7	-85.4	229	8
2023-09-19T12:00	21045	48	-56.8	-85.5	235	8
2023-09-19T12:00	21073	48	-57.0	-85.7	240	9
2023-09-19T12:00	21098	48	-57.1	-85.7	244	9
2023-09-19T12:00	21124	48	-57.0	-85.7	248	10
2023-09-19T12:00	21150	47	-57.0	-85.7	251	10
2023-09-19T12:00	21177	47	-57.1	-85.7	253	11
2023-09-19T12:00	21201	47	-57.0	-85.7	255	11
2023-09-19T12:00	21229	47	-56.9	-86.1	256	11
2023-09-19T12:00	21256	47	-56.7	-85.9	257	11
2023-09-19T12:00	21279	46	-56.7	-85.9	258	11
2023-09-19T12:00	21312	46	-56.6	-85.8	258	10
2023-09-19T12:00	21336	46	-56.6	-85.8	260	10
2023-09-19T12:00	21365	46	-56.6	-85.8	261	10
2023-09-19T12:00	21390	46	-56.5	-85.8	262	10
2023-09-19T12:00	21416	45	-56.4	-85.7	262	10
2023-09-19T12:00	21443	45	-56.5	-85.8	261	10
2023-09-19T12:00	21468	45	-56.6	-85.8	259	10
2023-09-19T12:00	21499	45	-56.7	-85.4	256	10
2023-09-19T12:00	21522	45	-56.8	-85.5	254	10
2023-09-19T12:00	21553	44	-56.9	-85.6	252	10
2023-09-19T12:00	21576	44	-56.9	-85.6	252	10
2023-09-19T12:00	21602	44	-56.9	-85.6	254	9
2023-09-19T12:00	21628	44	-56.8	-85.5	256	9
2023-09-19T12:00	21652	44	-56.7	-85.9	257	9
2023-09-19T12:00	21678	44	-56.7	-85.9	258	9
2023-09-19T12:00	21706	43	-56.7	-85.9	258	8
2023-09-19T12:00	21732	43	-56.7	-85.4	258	8
2023-09-19T12:00	21762	43	-56.8	-85.5	259	8
2023-09-19T12:00	21792	43	-56.9	-85.6	259	9
2023-09-19T12:00	21819	43	-57.0	-85.7	261	9
2023-09-19T12:00	21842	42	-57.2	-85.4	262	9
2023-09-19T12:00	21870	42	-57.5	-85.6	264	9
2023-09-19T12:00	21890	42	-57.7	-85.8	265	9
2023-09-19T12:00	21921	42	-57.9		267	9
2023-09-19T12:00	21949	42	-58.1	-85.7	268	9
2023-09-19T12:00	21971	42	-58.2	-85.8	269	10
2023-09-19T12:00	21999	41	-58.4	-85.9	270	10
2023-09-19T12:00	22026	41	-58.6	-86.1	271	10
2023-09-19T12:00	22055	41	-58.7	-86.1	273	10
2023-09-19T12:00	22078	41	-58.9	-86.3	275	10
2023-09-19T12:00	22103	41	-59.1	-86.5	277	10
2023-09-19T12:00	22133	41	-59.2	-86.5	279	10
2023-09-19T12:00	22157	40	-59.3	-86.6	279	10
2023-09-19T12:00	22184	40	-59.4	-86.7	280	9
2023-09-19T12:00	22208	40	-59.5	-86.8	280	9
2023-09-19T12:00	22236	40	-59.2	-86.5	280	8
2023-09-19T12:00	22267	40	-58.9	-86.7	281	8
2023-09-19T12:00	22288	40	-59.0	-86.8	281	7
2023-09-19T12:00	22320	39	-59.1	-86.8	281	7
2023-09-19T12:00	22342	39	-59.2	-86.9	282	7
2023-09-19T12:00	22372	39	-59.2	-86.9	282	8
2023-09-19T12:00	22398	39	-59.2	-86.9	282	8
2023-09-19T12:00	22426	39	-59.0	-86.8	283	8
2023-09-19T12:00	22449	39	-58.8	-87.0	284	8
2023-09-19T12:00	22471	38	-58.5	-86.8	285	8
2023-09-19T12:00	22499	38	-58.0	-86.9	287	7
2023-09-19T12:00	22524	38	-57.8	-86.7	291	7
2023-09-19T12:00	22556	38	-57.8	-86.7	295	7
2023-09-19T12:00	22579	38	-57.9	-86.4	300	7
2023-09-19T12:00	22606	38	-57.9	-86.4	306	7
2023-09-19T12:00	22634	37	-57.9	-86.4	311	7
2023-09-19T12:00	22657	37	-57.9	-86.4	316	7
2023-09-19T12:00	22685	37	-57.9	-86.4	319	8
2023-09-19T12:00	22703	37	-57.9	-86.4	323	8
2023-09-19T12:00	22732	37	-57.9	-86.4	325	8
2023-09-19T12:00	22767	37	-57.8	-86.3	327	8
2023-09-19T12:00	22791	37	-57.6	-86.1	328	7
2023-09-19T12:00	22818	36	-57.6	-86.1	328	7
2023-09-19T12:00	22846	36	-57.6	-86.1	326	6
2023-09-19T12:00	22878	36	-57.8	-86.3	322	5
2023-09-19T12:00	22907	36	-57.9	-86.4	318	4
2023-09-19T12:00	22928	36	-58.1		314	4
2023-09-19T12:00	22958	36	-58.1		313	3
2023-09-19T12:00	22992	35	-58.1		312	3
2023-09-19T12:00	23014	35	-58.0	-86.0	313	2
2023-09-19T12:00	23043	35	-58.2	-86.2	312	2
2023-09-19T12:00	23075	35	-58.4	-86.3	302	1
2023-09-19T12:00	23105	35	-58.5	-86.4	268	1
2023-09-19T12:00	23129	35	-58.6	-86.5	225	1
2023-09-19T12:00	23157	34	-58.7	-86.5	211	2
2023-09-19T12:00	23188	34	-58.6	-86.5	210	2
2023-09-19T12:00	23217	34	-58.5	-86.4	215	3
2023-09-19T12:00	23247	34	-58.4	-86.3	223	3
2023-09-19T12:00	23276	34	-58.4	-86.7	232	4
2023-09-19T12:00	23307	34	-58.4	-86.7	239	5
2023-09-19T12:00	23335	34	-58.5	-86.8	243	5
2023-09-19T12:00	23352	33	-58.5	-86.8	245	6
2023-09-19T12:00	23389	33	-58.3	-86.7	244	7
2023-09-19T12:00	23420	33	-58.0	-86.4	244	7
2023-09-19T12:00	23450	33	-58.0	-86.4	243	7
2023-09-19T12:00	23474	33	-58.1	-86.5	242	7
2023-09-19T12:00	23507	33	-58.0	-86.4	242	7
2023-09-19T12:00	23529	32	-58.0	-86.4	242	7
2023-09-19T12:00	23559	32	-57.8	-86.3	243	7
2023-09-19T12:00	23582	32	-57.7	-86.2	245	7
2023-09-19T12:00	23617	32	-57.6	-86.6	249	7
2023-09-19T12:00	23641	32	-57.5	-86.5	254	7
2023-09-19T12:00	23672	32	-57.5	-86.5	258	8
2023-09-19T12:00	23699	32	-57.4	-86.4	263	8
2023-09-19T12:00	23727	31	-57.4	-86.4	267	9
2023-09-19T12:00	23753	31	-57.4	-86.4	271	9
2023-09-19T12:00	23781	31	-57.3	-86.4	275	9
2023-09-19T12:00	23810	31	-57.2	-86.3	279	10
2023-09-19T12:00	23842	31	-57.2	-86.3	284	9
2023-09-19T12:00	23860	31	-57.2	-86.3	289	9
2023-09-19T12:00	23880	31	-57.2	-86.3	293	9
2023-09-19T12:00	23919	31	-57.2	-86.3	296	8
2023-09-19T12:00	23938	30	-57.2	-86.3	299	8
2023-09-19T12:00	23969	30	-57.1	-86.2	300	7
2023-09-19T12:00	23995	30	-56.9	-86.1	302	6
2023-09-19T12:00	24029	30	-56.6	-86.3	303	6
2023-09-19T12:00	24051	30	-56.3	-86.1	306	6
2023-09-19T12:00	24079	30	-56.0	-85.9	309	6
2023-09-19T12:00	24108	30	-55.7	-85.7	312	6
2023-09-19T12:00	24136	30	-55.5	-86.1	315	6
2023-09-19T12:00	24163	29	-55.5	-86.1	319	6
2023-09-19T12:00	24194	29	-55.4	-85.4	324	6
2023-09-19T12:00	24217	29	-55.2	-85.3	329	6
2023-09-19T12:00	24246	29	-55.2	-85.3	335	6
2023-09-19T12:00	24273	29	-55.1	-85.2	340	5
2023-09-19T12:00	24306	29	-55.1	-85.2	344	5
2023-09-19T12:00	24327	29	-55.2	-85.3	347	5
2023-09-19T12:00	24360	29	-55.1	-85.2	348	4
2023-09-19T12:00	24387	28	-55.0	-85.1	346	4
2023-09-19T12:00	24414	28	-54.9	-85.1	340	3
2023-09-19T12:00	24444	28	-55.0	-85.1	326	2
2023-09-19T12:00	24476	28	-55.1	-85.2	297	1
2023-09-19T12:00	24502	28	-55.1	-85.2	266	2
2023-09-19T12:00	24533	28	-55.2	-85.3	253	2
2023-09-19T12:00	24553	28	-55.3	-85.4	252	3
2023-09-19T12:00	24595	28	-55.4	-85.4	255	4
2023-09-19T12:00	24609	27	-55.3	-85.4	260	4
2023-09-19T12:00	24643	27	-54.9	-85.1	266	5
2023-09-19T12:00	24677	27	-54.7	-84.9	271	6
2023-09-19T12:00	24704	27	-54.6	-85.4	277	6
2023-09-19T12:00	24732	27	-54.7	-85.5	283	6
2023-09-19T12:00	24770	27	-54.6	-84.8	287	7
2023-09-19T12:00	24801	27	-54.6	-84.8	290	7
2023-09-19T12:00	24823	27	-54.6	-84.8	292	7
2023-09-19T12:00	24864	26	-54.7	-84.9	294	7
2023-09-19T12:00	24887	26	-54.7	-84.9	295	6
2023-09-19T12:00	24919	26	-54.7	-84.9	297	6
2023-09-19T12:00	24945	26	-54.6	-85.4	299	6
2023-09-19T12:00	24984	26	-54.5	-85.3	300	7
2023-09-19T12:00	25014	26	-54.3	-85.2	301	7
2023-09-19T12:00	25038	26	-54.2	-85.1	302	7
2023-09-19T12:00	25068	26	-54.1	-85.0	302	7
2023-09-19T12:00	25097	25	-54.0	-84.9	302	7
2023-09-19T12:00	25121	25	-54.0	-84.9	303	8
2023-09-19T12:00	25151	25	-54.0	-84.9	305	8
2023-09-19T12:00	25183	25	-54.2	-84.5	308	8
2023-09-19T12:00	25210	25	-54.3	-84.6	312	8
2023-09-19T12:00	25242	25	-54.3	-84.6	316	8
2023-09-19T12:00	25272	25	-54.4	-84.7	319	8
2023-09-19T12:00	25298	25	-54.4	-84.7	321	9
2023-09-19T12:00	25336	25	-54.3	-84.6	323	9
2023-09-19T12:00	25357	24	-54.2	-84.5	324	9
2023-09-19T12:00	25382	24	-54.2	-84.5	326	9
2023-09-19T12:00	25415	24	-54.3	-84.6	326	8
2023-09-19T12:00	25440	24	-54.4	-84.7	325	8
2023-09-19T12:00	25478	24	-54.4	-84.7	321	8
2023-09-19T12:00	25494	24	-54.5	-84.8	316	8
2023-09-19T12:00	25526	24	-54.6	-84.8	309	8
2023-09-19T12:00	25551	24	-54.8	-85.0	302	8
2023-09-19T12:00	25584	24	-55.0	-85.1	297	8
2023-09-19T12:00	25612	23	-55.1	-84.7	293	9
2023-09-19T12:00	25642	23	-55.2	-84.8	290	9
2023-09-19T12:00	25666	23	-55.2	-84.8	289	9
2023-09-19T12:00	25689	23	-55.2	-84.8	288	9
2023-09-19T12:00	25722	23	-55.3	-84.9	288	10
2023-09-19T12:00	25746	23	-55.4	-84.9	289	10
2023-09-19T12:00	25776	23	-55.5	-85.0	289	10
2023-09-19T12:00	25806	23	-55.6	-85.1	290	10
2023-09-19T12:00	25827	23	-55.7	-85.2	292	10
2023-09-19T12:00	25859	23	-55.6	-85.1	293	10
2023-09-19T12:00	25882	22	-55.6	-85.6	295	10
2023-09-19T12:00	25913	22	-55.6	-85.6	297	9
2023-09-19T12:00	25947	22	-55.5	-85.5	299	9
2023-09-19T12:00	25969	22	-55.5	-85.5	301	8
2023-09-19T12:00	26003	22	-55.4	-85.4	302	8
2023-09-19T12:00	26025	22	-55.3	-85.4	304	8
2023-09-19T12:00	26051	22	-55.2	-85.3	306	8
2023-09-19T12:00	26082	22	-55.2	-85.3	308	8
2023-09-19T12:00	26107	22	-55.1	-85.2	311	7
2023-09-19T12:00	26140	22	-55.1	-85.8	314	7
2023-09-19T12:00	26168	21	-54.9	-85.6	318	6
2023-09-19T12:00	26203	21	-54.7	-85.5	322	5
2023-09-19T12:00	26228	21	-54.5	-85.3	324	5
2023-09-19T12:00	26263	21	-54.4	-85.2	325	4
2023-09-19T12:00	26292	21	-54.4	-85.2	323	4
2023-09-19T12:00	26318	21	-54.4	-84.7	317	3
2023-09-19T12:00	26353	21	-54.6	-84.8	305	3
2023-09-19T12:00	26381	21	-54.7	-84.9	288	2
2023-09-19T12:00	26416	21	-54.7	-84.9	270	2
2023-09-19T12:00	26446	21	-54.7	-84.9	257	3
2023-09-19T12:00	26474	20	-54.6	-85.4	251	3
2023-09-19T12:00	26521	20	-54.4	-85.2	249	4
2023-09-19T12:00	26547	20	-54.3	-85.2	249	5
2023-09-19T12:00	26574	20	-54.3	-85.2	249	5
2023-09-19T12:00	26603	20	-54.2	-85.1	248	5
2023-09-19T12:00	26633	20	-54.1	-85.0	246	5
2023-09-19T12:00	26665	20	-54.2	-85.1	242	5
2023-09-19T12:00	26695	20	-54.3	-85.2	238	5
2023-09-19T12:00	26723	20	-54.2	-85.1	236	5
2023-09-19T12:00	26762	20	-54.1	-85.0	235	5
2023-09-19T12:00	26791	20	-53.9	-84.9	238	5
2023-09-19T12:00	26830	19	-53.7	-84.7	243	6
2023-09-19T12:00	26847	19	-53.6	-84.6	248	6
2023-09-19T12:00	26881	19	-53.6	-84.6	253	6
2023-09-19T12:00	26915	19	-53.6	-84.6	258	6
2023-09-19T12:00	26934	19	-53.6	-84.6	262	7
2023-09-19T12:00	26971	19	-53.7	-84.7	266	7
2023-09-19T12:00	27010	19	-53.8	-84.8	271	7
2023-09-19T12:00	27035	19	-53.9	-84.3	277	7
2023-09-19T12:00	27071	19	-53.9	-84.3	282	7
2023-09-19T12:00	27093	19	-53.9	-84.9	288	7
2023-09-19T12:00	27117	19	-54.0	-84.9	292	6
2023-09-19T12:00	27148	18	-54.1	-85.0	295	6
2023-09-19T12:00	27174	18	-54.2	-85.1	296	5
2023-09-19T12:00	27200	18	-54.2	-85.1	295	5
2023-09-19T12:00	27237	18	-54.2	-85.1	293	4
2023-09-19T12:00	27255	18	-54.1	-85.0	291	3
2023-09-19T12:00	27283	18	-54.2	-85.1	291	3
2023-09-19T12:00	27318	18	-54.1	-85.0	291	2
2023-09-19T12:00	27338	18	-54.0	-84.9	291	2
2023-09-19T12:00	27372	18	-53.9	-84.9	289	2
2023-09-19T12:00	27385	18	-53.7	-84.7	286	2
2023-09-19T12:00	27415	18	-53.5	-85.2	282	3
2023-09-19T12:00	27451	18	-53.3	-85.0	279	3
2023-09-19T12:00	27480	18	-53.2	-85.0	276	3
2023-09-19T12:00	27495	17	-53.1	-84.9	274	3
2023-09-19T12:00	27523	17	-53.1	-84.9	273	3
2023-09-19T12:00	27558	17	-53.0	-84.8	272	3
2023-09-19T12:00	27584	17	-52.9	-84.7	272	4
2023-09-19T12:00	27610	17	-52.7	-84.6	273	4
2023-09-19T12:00	27633	17	-52.6	-84.5	274	4
2023-09-19T12:00	27665	17	-52.4	-84.4	274	5
2023-09-19T12:00	27688	17	-52.4	-84.4	275	5
2023-09-19T12:00	27712	17	-52.4	-84.4	277	6
2023-09-19T12:00	27743	17	-52.3	-84.3	278	7
2023-09-19T12:00	27774	17	-52.2	-84.2	280	7
2023-09-19T12:00	27793	17	-52.1	-84.2	282	7
2023-09-19T12:00	27829	17	-52.0	-84.1	283	8
2023-09-19T12:00	27852	17	-51.9	-84.7	284	8
2023-09-19T12:00	27888	16	-51.9	-84.7	285	8
2023-09-19T12:00	27906	16	-51.8	-84.6	286	8
2023-09-19T12:00	27946	16	-51.6	-84.5	289	8
2023-09-19T12:00	27957	16	-51.4	-84.3	293	7
2023-09-19T12:00	28004	16	-51.1	-84.1	298	7
2023-09-19T12:00	28029	16	-51.0	-84.0	303	6
2023-09-19T12:00	28062	16	-50.9	-84.0	306	6
2023-09-19T12:00	28091	16	-50.8	-83.9	308	6
2023-09-19T12:00	28115	16	-50.7	-83.8	307	6
2023-09-19T12:00	28148	16	-50.6	-83.7	304	6
2023-09-19T12:00	28178	16	-50.4	-83.6	301	6
2023-09-19T12:00	28201	16	-50.3	-83.5	297	6
2023-09-19T12:00	28245	16	-50.2	-83.5	293	6
2023-09-19T12:00	28266	16	-50.2	-83.5	289	7
2023-09-19T12:00	28302	15	-50.1	-83.4	286	7
2023-09-19T12:00	28329	15	-50.0	-83.3	284	8
2023-09-19T12:00	28350	15	-49.9	-83.2	284	8
2023-09-19T12:00	28396	15	-49.7	-83.9	286	8
2023-09-19T12:00	28421	15	-49.4	-83.7	288	8
2023-09-19T12:00	28442	15	-49.1	-83.4	289	8
2023-09-19T12:00	28490	15	-49.1	-83.4	290	8
2023-09-19T12:00	28523	15	-49.1	-83.4	290	8
2023-09-19T12:00	28551	15	-49.1	-83.4	289	8
2023-09-19T12:00	28573	15	-49.0	-83.4	289	8
2023-09-19T12:00	28602	15	-49.0	-83.4	290	8
2023-09-19T12:00	28640	15	-48.9	-82.5	291	8
2023-09-19T12:00	28686	15	-48.8	-82.4	292	8
2023-09-19T12:00	28693	15	-48.9	-82.5	292	8
2023-09-19T12:00	28734	14	-49.0	-82.6	291	8
2023-09-19T12:00	28763	14	-49.1	-82.7	289	7
2023-09-19T12:00	28789	14	-49.2	-82.7	287	7
2023-09-19T12:00	28816	14	-49.3	-82.8	285	7
2023-09-19T12:00	28849	14	-49.3	-82.8	285	7
2023-09-19T12:00	28865	14	-49.3	-82.8	285	7
2023-09-19T12:00	28911	14	-49.3	-82.8	285	7
2023-09-19T12:00	28946	14	-49.3	-82.8	285	6
2023-09-19T12:00	28972	14	-49.3	-82.8	284	6
2023-09-19T12:00	29004	14	-49.3	-82.8	283	6
2023-09-19T12:00	29028	14	-49.4	-82.9	281	6
2023-09-19T12:00	29061	14	-49.4	-82.9	280	7
2023-09-19T12:00	29086	14	-49.5	-82.9	279	7
2023-09-19T12:00	29121	14	-49.6	-83.0	279	7
2023-09-19T12:00	29147	14	-49.6	-83.0	277	7
2023-09-19T12:00	29179	14	-49.7	-83.1	276	8
2023-09-19T12:00	29202	13	-49.6	-83.0	274	8
2023-09-19T12:00	29229	13	-49.6	-83.0	273	8
2023-09-19T12:00	29260	13	-49.5	-82.9	273	8
2023-09-19T12:00	29304	13	-49.5	-82.9	273	8
2023-09-19T12:00	29325	13	-49.4	-82.9	273	8
2023-09-19T12:00	29336	13	-49.3	-82.8	273	8
2023-09-19T12:00	29377	13	-49.2	-82.7	272	7
2023-09-19T12:00	29405	13	-49.3	-82.8	271	7
2023-09-19T12:00	29441	13	-49.3	-82.8	268	6
2023-09-19T12:00	29466	13	-49.5	-82.9	263	6
2023-09-19T12:00	29505	13	-49.6	-83.0	257	5
2023-09-19T12:00	29524	13	-49.7	-83.1	251	5
2023-09-19T12:00	29560	13	-49.7	-83.1	247	5
2023-09-19T12:00	29586	13	-49.7	-83.1	245	6
2023-09-19T12:00	29619	13	-49.7	-83.1	246	6
2023-09-19T12:00	29645	13	-49.8	-83.2	247	7
2023-09-19T12:00	29675	13	-49.9	-83.2	249	7
2023-09-19T12:00	29707	12	-50.0	-83.3	251	7
2023-09-19T12:00	29746	12	-50.1	-83.4	254	7
2023-09-19T12:00	29761	12	-50.1	-83.4	258	7
2023-09-19T12:00	29810	12	-50.1	-83.4	262	7
2023-09-19T12:00	29834	12	-50.0	-83.3	265	8
2023-09-19T12:00	29848	12	-50.0	-83.3	268	8
2023-09-19T12:00	29889	12	-49.9	-83.2	269	8
2023-09-19T12:00	29900	12	-49.8	-83.2	269	8
2023-09-19T12:00	29951	12	-49.8	-83.2	269	8
2023-09-19T12:00	29978	12	-49.8	-83.2	271	8
2023-09-19T12:00	30005	12	-49.8	-83.2	273	9
2023-09-19T12:00	30054	12	-49.8	-83.2	276	9
2023-09-19T12:00	30073	12	-49.9	-83.2	279	9
2023-09-19T12:00	30101	12	-50.0	-83.3	282	9
2023-09-19T12:00	30132	12	-50.1	-83.4	284	10
2023-09-19T12:00	30154	12	-50.0	-83.3	285	10
2023-09-19T12:00	30185	12	-50.0	-83.3	286	10
2023-09-19T12:00	30227	12	-49.9	-83.2	287	10
2023-09-19T12:00	30248	11	-49.9	-83.2	287	10
2023-09-19T12:00	30280	11	-49.8	-83.2	285	10
2023-09-19T12:00	30296	11	-49.9	-83.2	282	9
2023-09-19T12:00	30327	11	-49.8	-83.2	278	9
2023-09-19T12:00	30370	11	-49.7	-83.1	271	8
2023-09-19T12:00	30383	11	-49.7	-83.1	263	8
2023-09-19T12:00	30428	11	-49.8	-84.0	256	8
2023-09-19T12:00	30446	11	-49.8	-84.0	249	8
2023-09-19T12:00	30480	11	-49.7	-83.9	245	9
2023-09-19T12:00	30504	11	-49.5	-83.7	243	9
2023-09-19T12:00	30531	11	-49.3	-83.6	243	10
2023-09-19T12:00	30558	11	-49.0	-83.4	245	11
2023-09-19T12:00	30603	11	-48.8	-83.2	249	11
2023-09-19T12:00	30606	11	-48.5	-83.0	253	11
2023-09-19T12:00	30643	11	-48.2	-82.8	256	12
2023-09-19T12:00	30673	11	-48.0	-82.7	260	12
2023-09-19T12:00	30691	11	-48.0	-82.7	263	12
2023-09-19T12:00	30729	11	-48.0	-82.7	265	12
2023-09-19T12:00	30757	11	-48.0	-83.6	267	12
2023-09-19T12:00	30778	11	-47.9	-83.5	268	12
2023-09-19T12:00	30813	11	-47.7	-83.4	267	12
2023-09-19T12:00	30828	10	-47.6	-83.3	267	12
2023-09-19T12:00	30863	10	-47.4	-83.1	267	12
2023-09-19T12:00	30887	10	-47.1	-82.9	267	12
2023-09-19T12:00	30911	10	-46.9	-82.8	267	12
2023-09-19T12:00	30971	10	-46.5	-82.5	269	12
2023-09-19T12:00	30997	10	-46.2	-82.3	273	12
2023-09-19T12:00	31023	10	-46.2	-82.3	274	12
2023-09-19T12:00	31057	10	-46.4	-82.4	274	12
2023-09-19T12:00	31094	10	-46.5	-82.5	273	12
2023-09-19T12:00	31118	10	-46.5	-82.5	272	12
2023-09-19T12:00	31151	10	-46.4	-82.4	271	12
2023-09-19T12:00	31160	10	-46.4	-82.4	272	12
2023-09-19T12:00	31207	10	-46.5	-82.5	274	12
2023-09-19T12:00	31231	10	-46.6	-82.6	276	12
2023-09-19T12:00	31253	10	-46.5	-81.6	278	12
2023-09-19T12:00	31297	10	-46.6	-81.7	279	12
2023-09-19T12:00	31332	10	-46.7	-81.7	278	13
2023-09-19T12:00	31345	10	-46.7	-81.7	276	13
2023-09-19T12:00	31378	10	-46.7	-81.7	273	13
2023-09-19T12:00	31412	10	-46.7	-81.7	270	14
2023-09-19T12:00	31428	10	-46.7	-81.7	267	15
2023-09-19T12:00	31477	10	-46.7	-81.7	266	16
2023-09-19T12:00	31514	10	-46.7	-81.7	264	16
2023-09-19T12:00	31515	9	-46.7	-81.7	264	17
2023-09-19T12:00	31554	9	-46.8	-81.8	264	17
2023-09-19T12:00	31570	9	-46.9	-81.9	264	18
2023-09-19T12:00	31627	9	-47.0	-81.9	265	18
2023-09-19T12:00	31646	9	-47.1	-82.0	267	18
2023-09-19T12:00	31683	9	-47.1	-82.0	269	18
2023-09-19T12:00	31719	9	-47.1	-82.0	271	18
2023-09-19T12:00	31739	9	-47.1	-82.0	272	18
2023-09-19T12:00	31764	9	-47.0	-82.9	273	18
2023-09-19T12:00	31789	9	-47.0	-82.9	274	18
2023-09-19T12:00	31821	9	-46.8	-82.7	274	18
2023-09-19T12:00	31859	9	-46.7	-82.6	273	18
2023-09-19T12:00	31907	9	-46.6	-82.6	273	19
2023-09-19T12:00	31922	9	-46.5	-82.5	273	19
2023-09-19T12:00	31952	9	-46.3	-82.4	273	19
2023-09-19T12:00	31997	9	-46.1	-82.2	273	19
2023-09-19T12:00	32019	9	-45.7	-81.9	273	19
2023-09-19T12:00	32048	9	-45.4	-82.8	274	19
2023-09-19T12:00	32072	9	-45.4	-82.8	274	19
2023-09-19T12:00	32082	9	-45.4	-81.7	275	19
2023-09-19T12:00	32136	9	-45.6	-81.9	275	19
2023-09-19T12:00	32147	9	-45.7	-81.9	275	19
2023-09-19T12:00	32191	9	-45.8	-82.0	274	19
2023-09-19T12:00	32220	9	-45.9	-82.1	272	19
2023-09-19T12:00	32269	8	-45.9	-82.1	270	19
2023-09-19T12:00	32272	8	-46.0	-82.1	267	19
2023-09-19T12:00	32322	8	-46.0	-82.1	265	18
2023-09-19T12:00	32342	8	-46.0	-82.1	262	18
2023-09-19T12:00	32354	8	-45.8	-82.0	260	18
2023-09-19T12:00	32400	8	-45.5	-81.8	259	18
2023-09-19T12:00	32428	8	-45.0	-82.5	258	17
2023-09-19T12:00	32456	8	-44.6	-82.2	258	17
2023-09-19T12:00	32487	8	-44.4	-82.1	259	18
2023-09-19T12:00	32507	8	-44.3	-82.0	261	18
2023-09-19T12:00	32550	8	-44.1	-81.9	263	18
2023-09-19T12:00	32565	8	-44.0	-81.8	265	19
2023-09-19T12:00	32602	8	-43.8	-81.7	266	19
2023-09-19T12:00	32621	8	-43.7	-81.6	267	20
2023-09-19T12:00	32663	8	-43.6	-81.5	267	20
2023-09-19T12:00	32683	8	-43.7	-81.6	266	21
2023-09-19T12:00	32725	8	-43.7	-81.6	266	21
2023-09-19T12:00	32734	8	-43.6	-81.5	266	21
2023-09-19T12:00	32783	8	-43.5	-81.5	265	21
2023-09-19T12:00	32808	8	-43.4	-81.4	265	20
2023-09-19T12:00	32834	8	-43.3	-81.3	264	19
2023-09-19T12:00	32866	8	-43.2	-81.3	264	18
2023-09-19T12:00	32889	8	-43.1	-81.2	263	18
2023-09-19T12:00	32930	8	-43.1	-81.2	263	17
2023-09-19T12:00	32934	8	-43.0	-81.1	264	16
2023-09-19T12:00	32975	8	-42.9	-81.1	265	16
2023-09-19T12:00	32989	8	-42.8	-81.0	266	16
2023-09-19T12:00	33025	8	-42.6	-80.8	268	16
2023-09-19T12:00	33051	8	-42.5	-80.8	270	17
2023-09-19T12:00	33059	8	-42.3	-80.6	272	17
2023-09-19T12:00	33098	8	-42.1	-80.5	274	17
2023-09-19T12:00	33110	7	-42.0	-80.4	275	17
2023-09-19T12:00	33162	7	-41.8	-80.3	276	18
2023-09-19T12:00	33198	7	-41.4	-80.0	278	18
2023-09-19T12:00	33249	7	-41.1	-79.8	279	19
2023-09-19T12:00	33258	7	-40.8	-79.6	280	20
2023-09-19T12:00	33275	7	-40.7	-79.5	281	21
2023-09-19T12:00	33324	7	-40.6	-79.5	282	22
2023-09-19T12:00	33355	7	-40.5	-79.4	282	23
2023-09-19T12:00	33383	7	-40.4	-79.3	281	23
2023-09-19T12:00	33422	7	-40.3	-79.2	281	24
2023-09-19T12:00	33460	7	-40.3	-79.2	281	24
2023-09-19T12:00	33488	7	-40.2	-79.2	281	24
2023-09-19T12:00	33549	7	-40.0	-79.0	281	25
2023-09-19T12:00	33579	7	-40.1	-79.1	281	25
2023-09-19T12:00	33594	7	-40.1	-79.1	282	25
2023-09-19T12:00	33660	7	-40.2	-79.2	282	25
2023-09-19T12:00	33670	7	-40.4	-79.3	284	25
2023-09-19T12:00	33721	7	-40.5	-79.4	285	25
2023-09-19T12:00	33737	7	-40.6	-79.5	286	26
2023-09-19T18:00	113	998	18.5	7.2	247	4
2023-09-19T18:00	138	995	19.2	6.2	248	5
2023-09-19T18:00	167	992	18.9	6.1	246	6
2023-09-19T18:00	193	989	18.8	5.9	246	7
2023-09-19T18:00	211	987	18.6	5.9	247	7
2023-09-19T18:00	230	984	18.5	5.8	248	7
2023-09-19T18:00	257	981	18.1	5.7	250	7
2023-09-19T18:00	279	979	18.0	5.7	250	8
2023-09-19T18:00	306	976	17.8	5.7	249	9
2023-09-19T18:00	331	973	17.5	5.6	247	9
2023-09-19T18:00	366	969	17.2	5.6	247	10
2023-09-19T18:00	387	967	17.0		247	11
2023-09-19T18:00	407	964	16.8	5.4	249	12
2023-09-19T18:00	436	961	16.6	5.4	251	12
2023-09-19T18:00	455	959	16.5	5.1	252	12
2023-09-19T18:00	477	956	16.3	5.1	251	12
2023-09-19T18:00	499	954	16.1	5.0	250	12
2023-09-19T18:00	522	951	15.9	4.9	248	12
2023-09-19T18:00	546	948	15.7	4.9	247	12
2023-09-19T18:00	572	946	15.4	4.8	246	13
2023-09-19T18:00	600	943	15.2	4.8	246	13
2023-09-19T18:00	627	939	14.9	4.8	247	13
2023-09-19T18:00	652	937	14.7	4.7	247	13
2023-09-19T18:00	677	934	14.5	4.7	247	13
2023-09-19T18:00	701	931	14.2	4.6	246	13
2023-09-19T18:00	730	928	14.0	4.5	246	13
2023-09-19T18:00	754	925	13.8	4.5	245	13
2023-09-19T18:00	780	923	13.5	4.3	245	13
2023-09-19T18:00	807	920	13.3	4.4	244	14
2023-09-19T18:00	835	917	13.0	4.3	243	14
2023-09-19T18:00	858	914	12.8	4.3	243	14
2023-09-19T18:00	884	911	12.6	4.3	242	14
2023-09-19T18:00	907	909	12.3	4.2	242	14
2023-09-19T18:00	932	906	12.1	4.2	241	14
2023-09-19T18:00	959	903	11.8	4.1	241	14
2023-09-19T18:00	983	901	11.6	4.0	242	15
2023-09-19T18:00	1006	898	11.4	4.1	242	15
2023-09-19T18:00	1030	896	11.2	4.0	242	15
2023-09-19T18:00	1054	893	10.9	4.0	243	15
2023-09-19T18:00	1078	890	10.7	3.9	243	15
2023-09-19T18:00	1101	888	10.5	3.9	243	15
2023-09-19T18:00	1124	886	10.3	3.9	243	15
2023-09-19T18:00	1148	883	10.1	3.8	243	16
2023-09-19T18:00	1169	881	9.8	3.7	243	16
2023-09-19T18:00	1195	878	9.6	3.7	243	16
2023-09-19T18:00	1219	875	9.4	3.8	244	16
2023-09-19T18:00	1241	873	9.2	3.7	244	16
2023-09-19T18:00	1261	871	9.0	3.5	244	16
2023-09-19T18:00	1280	869	8.8	3.5	243	16
2023-09-19T18:00	1303	867	8.7	3.5	243	17
2023-09-19T18:00	1325	864	8.5	3.5	242	17
2023-09-19T18:00	1346	862	8.3	3.4	242	17
2023-09-19T18:00	1366	860	8.2	3.5	242	17
2023-09-19T18:00	1389	858	8.0	3.3	243	17
2023-09-19T18:00	1414	855	7.8	3.0	243	17
2023-09-19T18:00	1437	853	7.8	2.0	244	17
2023-09-19T18:00	1451	851	7.7	1.5	245	17
2023-09-19T18:00	1466	850	7.7	0.8	245	16
2023-09-19T18:00	1484	848	7.7	-0.1	246	16
2023-09-19T18:00	1504	846	7.6	-0.6	245	16
2023-09-19T18:00	1523	844	7.5	-1.5	245	16
2023-09-19T18:00	1542	842	7.5	-2.8	245	16
2023-09-19T18:00	1563	840	7.5		245	16
2023-09-19T18:00	1583	838	7.4	-3.8	246	15
2023-09-19T18:00	1605	835	7.2	-4.5	246	15
2023-09-19T18:00	1629	833	7.3	-5.9	247	14
2023-09-19T18:00	1650	831	7.2	-6.0	248	14
2023-09-19T18:00	1674	829	7.1	-6.4	249	13
2023-09-19T18:00	1697	826	6.9	-6.8	253	13
2023-09-19T18:00	1720	824	6.9	-8.2	257	12
2023-09-19T18:00	1743	822	7.2	-10.8	262	12
2023-09-19T18:00	1767	819	7.2	-11.8	266	13
2023-09-19T18:00	1786	817	7.4	-15.2	269	13
2023-09-19T18:00	1804	815	8.0	-22.4	270	13
2023-09-19T18:00	1825	813	8.2	-24.2	270	14
2023-09-19T18:00	1852	811	8.2	-25.0	269	14
2023-09-19T18:00	1879	808	8.2	-26.9	268	15
2023-09-19T18:00	1901	806	8.3	-27.5	268	15
2023-09-19T18:00	1922	804	8.2	-28.0	268	15
2023-09-19T18:00	1939	802	8.3	-28.4	267	15
2023-09-19T18:00	1957	800	8.3	-28.6	267	15
2023-09-19T18:00	1982	798	8.2	-29.5	266	14
2023-09-19T18:00	2006	796	8.1	-30.6	265	14
2023-09-19T18:00	2029	794	7.9	-30.8	265	13
2023-09-19T18:00	2050	791	7.8	-31.4	265	13
2023-09-19T18:00	2075	789	7.8	-32.4	267	12
2023-09-19T18:00	2095	787	7.9	-28.2	268	12
2023-09-19T18:00	2117	785	7.7	-22.9	270	13
2023-09-19T18:00	2138	783	7.5	-17.5	270	13
2023-09-19T18:00	2159	781	7.5	-16.2	270	13
2023-09-19T18:00	2183	779	7.3	-15.1	269	13
2023-09-19T18:00	2208	776	7.2	-13.8	268	13
2023-09-19T18:00	2233	774	7.0	-13.4	268	13
2023-09-19T18:00	2255	772	6.9	-13.3	267	13
2023-09-19T18:00	2277	770	6.8	-13.9	267	12
2023-09-19T18:00	2294	768	6.6	-14.1	267	12
2023-09-19T18:00	2316	766	6.5	-14.4	265	12
2023-09-19T18:00	2336	764	6.4	-16.6	264	12
2023-09-19T18:00	2354	763	6.4	-16.6	263	11
2023-09-19T18:00	2381	760	6.3	-16.2	264	11
2023-09-19T18:00	2411	758	6.2	-11.5	266	11
2023-09-19T18:00	2436	755	6.2	-10.3	268	11
2023-09-19T18:00	2457	753	6.2	-11.3	270	11
2023-09-19T18:00	2477	751	6.2	-11.8	270	11
2023-09-19T18:00	2501	749	6.0	-11.9	269	10
2023-09-19T18:00	2527	747	5.9	-13.2	268	10
2023-09-19T18:00	2551	745	5.8	-13.0	266	10
2023-09-19T18:00	2573	742	5.8	-7.9	265	10
2023-09-19T18:00	2598	740	5.9	-5.6	264	10
2023-09-19T18:00	2620	738	6.0	-5.6	264	10
2023-09-19T18:00	2641	736	5.8	-4.5	264	11
2023-09-19T18:00	2664	734	5.7	-4.3	264	11
2023-09-19T18:00	2690	732	5.5	-4.6	265	11
2023-09-19T18:00	2713	730	5.4	-4.4	267	11
2023-09-19T18:00	2735	728	5.2	-4.5	269	11
2023-09-19T18:00	2762	726	4.9	-4.6	271	12
2023-09-19T18:00	2780	724	4.8	-4.4	273	12
2023-09-19T18:00	2809	722	4.6	-4.5	274	12
2023-09-19T18:00	2838	719	4.4	-4.5	275	12
2023-09-19T18:00	2867	716	4.1	-4.7	275	12
2023-09-19T18:00	2889	714	4.0	-4.6	274	12
2023-09-19T18:00	2912	713	3.8	-4.7	273	12
2023-09-19T18:00	2930	711	3.6	-4.7	272	13
2023-09-19T18:00	2953	709	3.4	-4.7	272	13
2023-09-19T18:00	2974	707	3.2	-4.9	273	13
2023-09-19T18:00	2993	705	3.1	-4.9	275	13
2023-09-19T18:00	3018	703	2.9	-5.0	276	13
2023-09-19T18:00	3036	702	2.8	-5.1	278	13
2023-09-19T18:00	3054	700	2.6	-5.1	278	13
2023-09-19T18:00	3084	697	2.6	-5.3	278	13
2023-09-19T18:00	3114	695	2.5	-5.6	277	13
2023-09-19T18:00	3144	692	2.3	-6.0	275	13
2023-09-19T18:00	3167	690	2.2	-6.1	274	13
2023-09-19T18:00	3186	689	2.0	-6.3	273	13
2023-09-19T18:00	3212	686	1.9	-6.3	273	14
2023-09-19T18:00	3240	684	1.7	-6.4	272	14
2023-09-19T18:00	3262	682	1.5	-6.4	271	14
2023-09-19T18:00	3289	680	1.3	-6.6	270	14
2023-09-19T18:00	3312	678	1.1	-7.0	269	14
2023-09-19T18:00	3333	676	1.0	-7.1	268	14
2023-09-19T18:00	3356	674	0.8	-7.3	268	14
2023-09-19T18:00	3381	672	0.7	-7.3	268	14
2023-09-19T18:00	3406	670	0.6	-6.9	269	15
2023-09-19T18:00	3437	668	0.3	-6.7	269	15
2023-09-19T18:00	3462	665	0.1	-6.7	269	15
2023-09-19T18:00	3492	663	-0.1	-7.2	269	14
2023-09-19T18:00	3515	661	-0.3	-7.0	268	14
2023-09-19T18:00	3541	659	-0.6	-7.0	268	14
2023-09-19T18:00	3558	657	-0.7	-6.7	267	14
2023-09-19T18:00	3577	656	-0.8	-6.6	268	14
2023-09-19T18:00	3600	654	-0.8	-7.4	268	15
2023-09-19T18:00	3624	652	-0.8	-7.5	268	16
2023-09-19T18:00	3652	650	-1.0	-7.9	268	16
2023-09-19T18:00	3681	647	-1.0		268	16
2023-09-19T18:00	3710	645	-1.2	-9.4	268	16
2023-09-19T18:00	3737	643	-1.4	-9.8	268	16
2023-09-19T18:00	3761	641	-1.5	-8.9	268	16
2023-09-19T18:00	3781	639	-1.6	-9.3	267	15
2023-09-19T18:00	3812	637	-1.7	-11.4	267	15
2023-09-19T18:00	3839	635	-1.9	-12.0	266	15
2023-09-19T18:00	3867	633	-2.2	-12.2	266	15
2023-09-19T18:00	3892	630	-2.4	-12.3	266	14
2023-09-19T18:00	3918	628	-2.6	-13.1	266	14
2023-09-19T18:00	3945	626	-2.7	-12.5	267	15
2023-09-19T18:00	3970	624	-2.7	-13.0	268	15
2023-09-19T18:00	3989	623	-2.7	-13.8	269	16
2023-09-19T18:00	4017	621	-2.8	-13.5	270	17
2023-09-19T18:00	4039	619	-2.8	-13.4	270	17
2023-09-19T18:00	4060	617	-2.9	-13.6	270	17
2023-09-19T18:00	4088	615	-3.0	-13.8	270	17
2023-09-19T18:00	4119	613	-3.2	-13.9	269	17
2023-09-19T18:00	4144	611	-3.4	-13.9	268	17
2023-09-19T18:00	4171	609	-3.5	-14.1	267	17
2023-09-19T18:00	4190	607	-3.6	-14.3	266	17
2023-09-19T18:00	4219	605	-3.6	-14.6	267	16
2023-09-19T18:00	4245	603	-3.1	-16.2	267	16
2023-09-19T18:00	4273	601	-3.0	-16.4	268	15
2023-09-19T18:00	4299	599	-3.1	-16.2	268	15
2023-09-19T18:00	4325	597	-3.3	-16.6	267	15
2023-09-19T18:00	4346	595	-3.5	-16.4	265	15
2023-09-19T18:00	4366	594	-3.7	-16.5	262	15
2023-09-19T18:00	4387	592	-3.8	-16.7	260	15
2023-09-19T18:00	4410	591	-4.0	-16.9	260	14
2023-09-19T18:00	4436	589	-4.2	-17.0	260	14
2023-09-19T18:00	4462	587	-4.4	-17.0	262	14
2023-09-19T18:00	4491	585	-4.7	-17.1	264	14
2023-09-19T18:00	4515	583	-4.8	-16.7	265	14
2023-09-19T18:00	4545	581	-5.1	-16.7	265	14
2023-09-19T18:00	4565	579	-5.3	-16.6	264	14
2023-09-19T18:00	4586	577	-5.5	-16.6	263	14
2023-09-19T18:00	4613	576	-5.7	-16.9	261	14
2023-09-19T18:00	4640	573	-5.8	-17.6	260	15
2023-09-19T18:00	4671	571	-5.9	-17.9	259	15
2023-09-19T18:00	4696	569	-6.0		258	15
2023-09-19T18:00	4723	568	-6.2	-18.3	257	15
2023-09-19T18:00	4740	566	-6.4	-18.4	256	15
2023-09-19T18:00	4759	565	-6.5	-18.6	255	15
2023-09-19T18:00	4780	563	-6.6	-18.8	253	15
2023-09-19T18:00	4799	562	-6.8	-18.9	252	14
2023-09-19T18:00	4822	560	-6.9	-19.0	250	14
2023-09-19T18:00	4850	558	-7.0	-18.9	249	14
2023-09-19T18:00	4877	556	-7.1	-19.0	249	14
2023-09-19T18:00	4907	554	-7.3	-19.1	249	15
2023-09-19T18:00	4934	552	-7.4		249	15
2023-09-19T18:00	4967	550	-7.7	-18.9	249	16
2023-09-19T18:00	4998	548	-8.0	-18.8	250	16
2023-09-19T18:00	5023	546	-8.2	-18.9	251	16
2023-09-19T18:00	5050	544	-8.4	-19.3	253	16
2023-09-19T18:00	5071	543	-8.5	-19.4	254	16
2023-09-19T18:00	5096	541	-8.6	-19.7	255	15
2023-09-19T18:00	5130	539	-8.7	-20.3	256	15
2023-09-19T18:00	5158	537	-8.8	-20.8	257	14
2023-09-19T18:00	5191	534	-9.1	-20.8	257	14
2023-09-19T18:00	5218	532	-9.4	-20.8	258	14
2023-09-19T18:00	5247	530	-9.6	-20.6	260	14
2023-09-19T18:00	5277	528	-9.9	-20.5	261	14
2023-09-19T18:00	5310	526	-10.2	-20.4	263	14
2023-09-19T18:00	5333	525	-10.4	-20.3	264	14
2023-09-19T18:00	5355	523	-10.6	-20.3	263	14
2023-09-19T18:00	5382	521	-10.9	-20.3	262	14
2023-09-19T18:00	5410	519	-11.1	-20.4	260	14
2023-09-19T18:00	5438	517	-11.4	-20.8	258	15
2023-09-19T18:00	5469	515	-11.6	-20.8	257	15
2023-09-19T18:00	5502	513	-11.9	-20.9	257	16
2023-09-19T18:00	5530	511	-12.2	-21.2	257	16
2023-09-19T18:00	5553	510	-12.3	-21.2	258	16
2023-09-19T18:00	5577	508	-12.5		259	16
2023-09-19T18:00	5602	507	-12.5	-21.5	260	16
2023-09-19T18:00	5629	505	-12.6	-21.9	261	16
2023-09-19T18:00	5656	503	-12.8	-22.0	261	16
2023-09-19T18:00	5688	501	-13.0	-21.7	261	16
2023-09-19T18:00	5718	499	-13.2	-21.7	261	16
2023-09-19T18:00	5747	497	-13.4	-22.1	260	17
2023-09-19T18:00	5773	495	-13.4	-23.2	260	17
2023-09-19T18:00	5807	493	-13.5	-23.8	260	17
2023-09-19T18:00	5833	491	-13.5	-22.9	260	17
2023-09-19T18:00	5856	490	-13.7	-22.9	261	17
2023-09-19T18:00	5878	488	-13.7	-21.1	261	16
2023-09-19T18:00	5908	486	-13.8	-22.1	261	16
2023-09-19T18:00	5939	485	-14.0	-22.6	260	16
2023-09-19T18:00	5970	483	-14.2	-22.2	259	17
2023-09-19T18:00	6003	481	-14.3	-22.7	258	17
2023-09-19T18:00	6032	479	-14.5	-23.4	257	18
2023-09-19T18:00	6061	477	-14.7	-23.9	257	18
2023-09-19T18:00	6081	476	-14.9	-24.1	258	18
2023-09-19T18:00	6103	474	-15.1	-24.2	258	18
2023-09-19T18:00	6128	473	-15.3	-24.4	259	18
2023-09-19T18:00	6151	471	-15.5	-24.1	260	18
2023-09-19T18:00	6185	469	-15.7	-24.1	260	18
2023-09-19T18:00	6213	467	-15.8	-24.7	260	18
2023-09-19T18:00	6233	466	-15.8	-24.3	259	18
2023-09-19T18:00	6251	465	-15.9	-24.9	259	18
2023-09-19T18:00	6272	464	-15.9	-25.2	258	18
2023-09-19T18:00	6290	463	-16.1	-24.7	258	18
2023-09-19T18:00	6310	461	-16.2	-24.2	258	18
2023-09-19T18:00	6332	460	-16.4	-24.2	257	18
2023-09-19T18:00	6353	459	-16.6	-24.2	256	18
2023-09-19T18:00	6381	457	-16.8	-24.7	256	18
2023-09-19T18:00	6410	455	-17.1	-24.7	255	18
2023-09-19T18:00	6427	454	-17.2	-24.9	254	18
2023-09-19T18:00	6446	453	-17.3	-24.6	254	17
2023-09-19T18:00	6465	452	-17.4	-24.6	253	17
2023-09-19T18:00	6484	451	-17.6	-24.8	253	17
2023-09-19T18:00	6514	449	-17.8	-25.3	253	17
2023-09-19T18:00	6546	447	-18.0	-25.2	253	16
2023-09-19T18:00	6569	446	-18.2	-25.4	254	16
2023-09-19T18:00	6595	444	-18.5	-25.2	254	16
2023-09-19T18:00	6621	443	-18.7	-25.0	255	16
2023-09-19T18:00	6650	441	-18.9	-25.1	255	16
2023-09-19T18:00	6674	439	-19.1	-25.3	256	16
2023-09-19T18:00	6700	438	-19.3	-25.3	256	16
2023-09-19T18:00	6727	436	-19.4	-25.2	256	15
2023-09-19T18:00	6753	435	-19.7	-25.3	255	15
2023-09-19T18:00	6777	433	-19.9	-25.4	254	15
2023-09-19T18:00	6803	432	-20.0	-25.8	252	15
2023-09-19T18:00	6826	431	-20.2		250	15
2023-09-19T18:00	6855	429	-20.4	-26.5	248	15
2023-09-19T18:00	6877	428	-20.6	-26.7	246	15
2023-09-19T18:00	6906	426	-20.8	-26.8	244	15
2023-09-19T18:00	6932	424	-21.0	-26.9	244	15
2023-09-19T18:00	6951	423	-21.2	-26.8	243	15
2023-09-19T18:00	6969	422	-21.4	-26.4	244	15
2023-09-19T18:00	6986	421	-21.5	-26.2	245	15
2023-09-19T18:00	7006	420	-21.7	-26.3	246	14
2023-09-19T18:00	7027	419	-21.9	-26.3	246	14
2023-09-19T18:00	7053	417	-22.1	-26.3	246	15
2023-09-19T18:00	7086	416	-22.4	-26.5	246	15
2023-09-19T18:00	7120	414	-22.6	-26.4	246	15
2023-09-19T18:00	7145	412	-22.7	-26.9	246	16
2023-09-19T18:00	7163	411	-22.8	-27.2	246	16
2023-09-19T18:00	7178	410	-22.9	-27.3	247	16
2023-09-19T18:00	7194	410	-23.1	-27.7	248	16
2023-09-19T18:00	7212	409	-23.2	-27.7	249	16
2023-09-19T18:00	7227	408	-23.4	-27.8	250	16
2023-09-19T18:00	7245	407	-23.5	-27.8	250	16
2023-09-19T18:00	7262	406	-23.6	-28.1	250	16
2023-09-19T18:00	7281	405	-23.8	-28.5	251	16
2023-09-19T18:00	7298	404	-23.9	-28.5	251	16
2023-09-19T18:00	7314	403	-24.1	-28.6	252	16
2023-09-19T18:00	7332	402	-24.2	-28.6	252	17
2023-09-19T18:00	7354	401	-24.4	-28.8	253	17
2023-09-19T18:00	7383	399	-24.6	-29.0	253	17
2023-09-19T18:00	7411	398	-24.9	-29.2	253	17
2023-09-19T18:00	7439	396	-25.2	-29.3	253	17
2023-09-19T18:00	7466	395	-25.4	-29.2	254	17
2023-09-19T18:00	7487	393	-25.6	-29.3	254	17
2023-09-19T18:00	7511	392	-25.9	-29.5	254	17
2023-09-19T18:00	7534	391	-26.1	-29.6	254	17
2023-09-19T18:00	7560	389	-26.3	-29.8	254	17
2023-09-19T18:00	7594	388	-26.6	-29.9	253	17
2023-09-19T18:00	7619	386	-26.8	-30.0	254	17
2023-09-19T18:00	7642	385	-27.0	-30.1	254	16
2023-09-19T18:00	7670	384	-27.2	-30.2	255	16
2023-09-19T18:00	7695	382	-27.3	-30.4	255	16
2023-09-19T18:00	7723	381	-27.5	-30.5	256	16
2023-09-19T18:00	7748	379	-27.7	-30.7	256	16
2023-09-19T18:00	7776	378	-27.9	-30.8	256	16
2023-09-19T18:00	7806	377	-28.1	-31.0	256	16
2023-09-19T18:00	7829	375	-28.3	-31.1	257	16
2023-09-19T18:00	7850	374	-28.4	-31.3	257	15
2023-09-19T18:00	7874	373	-28.6	-31.5	257	15
2023-09-19T18:00	7904	371	-28.8	-31.8	257	15
2023-09-19T18:00	7932	370	-29.0	-32.1	256	15
2023-09-19T18:00	7959	368	-29.2	-32.2	256	15
2023-09-19T18:00	7993	367	-29.5	-32.5	256	15
2023-09-19T18:00	8020	365	-29.7	-32.7	258	15
2023-09-19T18:00	8049	364	-29.9	-32.9	259	15
2023-09-19T18:00	8076	362	-30.1	-33.1	261	15
2023-09-19T18:00	8103	361	-30.4	-33.4	262	14
2023-09-19T18:00	8124	360	-30.6	-33.6	263	14
2023-09-19T18:00	8146	359	-30.7	-33.7	264	15
2023-09-19T18:00	8173	358	-30.9	-33.8	265	15
2023-09-19T18:00	8205	356	-31.2	-34.1	265	15
2023-09-19T18:00	8233	355	-31.4	-34.2	265	15
2023-09-19T18:00	8266	353	-31.7	-34.3	265	15
2023-09-19T18:00	8293	351	-32.0	-34.8	265	15
2023-09-19T18:00	8317	350	-32.1	-34.8	265	15
2023-09-19T18:00	8343	349	-32.3	-34.8	266	15
2023-09-19T18:00	8370	348	-32.6	-35.1	267	15
2023-09-19T18:00	8398	346	-32.8	-35.3	268	14
2023-09-19T18:00	8428	345	-33.0	-35.5	269	14
2023-09-19T18:00	8454	344	-33.1	-35.6	271	14
2023-09-19T18:00	8490	342	-33.4	-35.9	272	14
2023-09-19T18:00	8525	340	-33.8	-36.2	272	15
2023-09-19T18:00	8548	339	-34.0	-36.4	272	15
2023-09-19T18:00	8572	338	-34.2	-36.5	271	15
2023-09-19T18:00	8597	337	-34.5	-36.4	270	15
2023-09-19T18:00	8627	335	-34.8	-36.7	268	15
2023-09-19T18:00	8661	334	-35.1	-37.1	267	15
2023-09-19T18:00	8687	332	-35.3	-37.2	265	16
2023-09-19T18:00	8721	331	-35.6	-37.3	264	16
2023-09-19T18:00	8749	329	-35.8	-37.7	264	16
2023-09-19T18:00	8774	328	-36.0	-37.9	264	16
2023-09-19T18:00	8799	327	-36.2	-38.3	264	16
2023-09-19T18:00	8825	326	-36.4	-38.4	264	16
2023-09-19T18:00	8854	324	-36.6	-38.6	264	16
2023-09-19T18:00	8881	323	-36.8	-39.1	264	16
2023-09-19T18:00	8910	322	-37.0	-39.4	264	17
2023-09-19T18:00	8945	320	-37.3	-39.7	264	17
2023-09-19T18:00	8966	319	-37.4	-39.7	265	17
2023-09-19T18:00	8991	318	-37.6	-39.9	266	17
2023-09-19T18:00	9024	317	-37.8	-40.3	267	17
2023-09-19T18:00	9049	315	-38.1	-40.7	268	17
2023-09-19T18:00	9069	315	-38.2	-40.7	268	17
2023-09-19T18:00	9088	314	-38.4	-40.6	268	17
2023-09-19T18:00	9110	313	-38.6	-40.7	268	17
2023-09-19T18:00	9136	311	-38.8	-41.5	269	17
2023-09-19T18:00	9159	310	-39.0	-41.5	269	17
2023-09-19T18:00	9180	309	-39.2	-41.4	270	17
2023-09-19T18:00	9201	308	-39.4	-42.8	270	17
2023-09-19T18:00	9223	307	-39.7	-44.7	271	17
2023-09-19T18:00	9246	306	-39.8	-43.8	271	17
2023-09-19T18:00	9271	305	-40.1	-44.3	272	17
2023-09-19T18:00	9298	304	-40.4	-44.4	272	17
2023-09-19T18:00	9324	303	-40.6	-44.8	272	18
2023-09-19T18:00	9350	302	-40.8	-45.0	272	18
2023-09-19T18:00	9381	300	-41.1	-45.3	272	18
2023-09-19T18:00	9411	299	-41.4	-45.7	272	18
2023-09-19T18:00	9437	298	-41.6	-45.8	272	18
2023-09-19T18:00	9464	297	-41.9	-45.9	272	18
2023-09-19T18:00	9489	296	-42.0	-45.8	272	18
2023-09-19T18:00	9513	295	-42.1	-45.2	272	18
2023-09-19T18:00	9537	294	-42.4	-45.4	272	17
2023-09-19T18:00	9560	293	-42.6	-45.5	272	17
2023-09-19T18:00	9581	292	-42.8	-45.6	272	17
2023-09-19T18:00	9602	291	-43.0	-45.8	272	17
2023-09-19T18:00	9622	290	-43.1	-46.1	272	18
2023-09-19T18:00	9641	289	-43.3	-46.4	272	18
2023-09-19T18:00	9665	288	-43.5	-46.5	273	18
2023-09-19T18:00	9686	287	-43.7	-46.6	273	18
2023-09-19T18:00	9705	286	-43.9		273	18
2023-09-19T18:00	9727	285	-44.1	-47.2	273	18
2023-09-19T18:00	9747	285	-44.2	-47.4	273	18
2023-09-19T18:00	9767	284	-44.4	-47.4	273	18
2023-09-19T18:00	9789	283	-44.6	-47.7	274	18
2023-09-19T18:00	9810	282	-44.8	-48.1	274	18
2023-09-19T18:00	9831	281	-45.0	-48.5	274	18
2023-09-19T18:00	9851	280	-45.1	-48.9	274	18
2023-09-19T18:00	9872	279	-45.3	-49.1	274	18
2023-09-19T18:00	9896	278	-45.5	-49.4	274	18
2023-09-19T18:00	9916	277	-45.7	-49.7	274	18
2023-09-19T18:00	9938	277	-45.8	-50.0	274	18
2023-09-19T18:00	9962	276	-46.0	-50.2	274	18
2023-09-19T18:00	9985	275	-46.2	-50.4	274	18
2023-09-19T18:00	10007	274	-46.4	-50.8	275	18
2023-09-19T18:00	10026	273	-46.6	-51.0	275	19
2023-09-19T18:00	10045	272	-46.8	-51.2	275	19
2023-09-19T18:00	10065	271	-46.9	-51.3	274	19
2023-09-19T18:00	10086	271	-47.1	-51.4	274	19
2023-09-19T18:00	10104	270	-47.3	-51.6	275	19
2023-09-19T18:00	10127	269	-47.4	-51.9	275	19
2023-09-19T18:00	10147	268	-47.6	-52.2	275	19
2023-09-19T18:00	10167	267	-47.8	-52.4	274	19
2023-09-19T18:00	10189	266	-47.9	-52.3	274	19
2023-09-19T18:00	10208	266	-48.1	-52.5	273	20
2023-09-19T18:00	10231	265	-48.3		273	20
2023-09-19T18:00	10264	263	-48.6	-53.2	273	21
2023-09-19T18:00	10290	262	-48.7	-53.4	274	21
2023-09-19T18:00	10318	261	-48.9		275	21
2023-09-19T18:00	10341	260	-49.1	-53.3	275	21
2023-09-19T18:00	10364	259	-49.3	-53.3	276	21
2023-09-19T18:00	10391	258	-49.5	-53.3	276	22
2023-09-19T18:00	10414	257	-49.7	-53.3	277	22
2023-09-19T18:00	10439	256	-50.0	-53.4	277	22
2023-09-19T18:00	10461	255	-50.2	-53.4	278	22
2023-09-19T18:00	10483	255	-50.4	-53.3	278	23
2023-09-19T18:00	10502	254	-50.6	-53.3	278	23
2023-09-19T18:00	10520	253	-50.7	-53.2	278	24
2023-09-19T18:00	10537	253	-50.8	-53.3	278	24
2023-09-19T18:00	10553	252	-50.9	-53.5	278	24
2023-09-19T18:00	10567	251	-51.0	-54.0	278	25
2023-09-19T18:00	10582	251	-51.0	-54.5	279	25
2023-09-19T18:00	10598	250	-51.0	-55.0	279	25
2023-09-19T18:00	10615	250	-51.1	-55.5	279	25
2023-09-19T18:00	10628	249	-51.2	-55.8	279	25
2023-09-19T18:00	10642	248	-51.3	-56.0	280	25
2023-09-19T18:00	10657	248	-51.4	-56.2	280	26
2023-09-19T18:00	10671	247	-51.4	-56.5	280	26
2023-09-19T18:00	10686	247	-51.3		280	26
2023-09-19T18:00	10703	246	-51.4	-56.9	281	26
2023-09-19T18:00	10718	246	-51.5	-56.9	281	26
2023-09-19T18:00	10736	245	-51.7	-57.0	282	25
2023-09-19T18:00	10763	244	-51.9	-57.2	283	24
2023-09-19T18:00	10794	243	-52.1	-57.6	283	23
2023-09-19T18:00	10825	242	-52.1	-58.1	282	22
2023-09-19T18:00	10850	240	-51.9	-58.8	281	21
2023-09-19T18:00	10892	239	-51.8	-59.2	279	21
2023-09-19T18:00	10927	238	-52.2		278	20
2023-09-19T18:00	10958	237	-52.5	-59.0	278	19
2023-09-19T18:00	10999	235	-52.9	-59.0	279	18
2023-09-19T18:00	11024	234	-53.2	-59.0	281	18
2023-09-19T18:00	11062	233	-53.5	-59.1	283	17
2023-09-19T18:00	11092	232	-53.7	-59.0	282	17
2023-09-19T18:00	11130	230	-54.1	-59.1	278	16
2023-09-19T18:00	11171	229	-54.5	-59.1	272	16
2023-09-19T18:00	11200	228	-54.8	-59.2	265	15
2023-09-19T18:00	11213	227	-54.9	-59.5	258	15
2023-09-19T18:00	11226	227	-54.6	-59.8	255	15
2023-09-19T18:00	11239	227	-54.5	-60.3	253	15
2023-09-19T18:00	11251	226	-54.4	-60.5	253	15
2023-09-19T18:00	11263	226	-54.3	-60.6	254	15
2023-09-19T18:00	11276	225	-54.1	-60.8	254	15
2023-09-19T18:00	11289	225	-54.0	-60.8	255	15
2023-09-19T18:00	11301	224	-53.9	-60.6	255	15
2023-09-19T18:00	11316	224	-54.0	-60.5	256	15
2023-09-19T18:00	11332	223	-53.7	-60.0	257	16
2023-09-19T18:00	11349	223	-53.3	-59.4	257	16
2023-09-19T18:00	11365	222	-53.2	-59.4	258	16
2023-09-19T18:00	11383	221	-53.2	-59.5	258	16
2023-09-19T18:00	11401	221	-53.4	-59.6	259	16
2023-09-19T18:00	11418	220	-53.5	-59.6	259	16
2023-09-19T18:00	11433	220	-53.6	-59.7	259	16
2023-09-19T18:00	11451	219	-53.7	-59.8	259	16
2023-09-19T18:00	11469	219	-53.9	-59.9	259	16
2023-09-19T18:00	11489	218	-54.0	-59.9	257	16
2023-09-19T18:00	11513	217	-54.2	-60.1	256	16
2023-09-19T18:00	11533	216	-54.4	-60.3	254	16
2023-09-19T18:00	11552	216	-54.5	-60.7	252	16
2023-09-19T18:00	11572	215	-54.5	-61.1	251	16
2023-09-19T18:00	11592	214	-54.6	-61.5	250	16
2023-09-19T18:00	11612	214	-54.8	-61.6	250	16
2023-09-19T18:00	11633	213	-54.8	-61.5	250	16
2023-09-19T18:00	11653	212	-55.0	-61.7	250	16
2023-09-19T18:00	11673	212	-55.2	-61.9	250	17
2023-09-19T18:00	11694	211	-55.4	-62.0	251	17
2023-09-19T18:00	11715	210	-55.5	-62.0	251	18
2023-09-19T18:00	11736	210	-55.7	-62.3	250	18
2023-09-19T18:00	11757	209	-55.8	-62.6	250	19
2023-09-19T18:00	11780	208	-55.9	-62.7	249	19
2023-09-19T18:00	11800	207	-56.1	-62.9	249	19
2023-09-19T18:00	11825	207	-56.3	-63.1	249	19
2023-09-19T18:00	11848	206	-56.5	-63.4	249	20
2023-09-19T18:00	11873	205	-56.7	-63.7	250	20
2023-09-19T18:00	11893	204	-56.9	-63.7	251	20
2023-09-19T18:00	11921	204	-57.1	-63.5	252	20
2023-09-19T18:00	11941	203	-57.2	-63.3	253	20
2023-09-19T18:00	11960	202	-57.4	-63.3	253	21
2023-09-19T18:00	11981	202	-57.5	-63.2	254	21
2023-09-19T18:00	12001	201	-57.6	-63.0	254	21
2023-09-19T18:00	12020	200	-57.8	-62.7	254	21
2023-09-19T18:00	12040	200	-58.0	-62.7	255	21
2023-09-19T18:00	12060	199	-58.1	-62.8	256	22
2023-09-19T18:00	12081	198	-58.2	-63.0	257	22
2023-09-19T18:00	12104	198	-58.4	-63.3	258	22
2023-09-19T18:00	12127	197	-58.5	-63.2	259	23
2023-09-19T18:00	12150	196	-58.7	-63.1	260	24
2023-09-19T18:00	12182	195	-58.8	-63.0	262	24
2023-09-19T18:00	12209	194	-58.9	-62.9	263	25
2023-09-19T18:00	12238	194	-59.0	-63.1	266	25
2023-09-19T18:00	12271	193	-59.1	-63.4	269	26
2023-09-19T18:00	12301	192	-59.1	-63.7	272	26
2023-09-19T18:00	12325	191	-59.0		276	26
2023-09-19T18:00	12361	190	-59.0	-65.0	279	26
2023-09-19T18:00	12389	189	-59.1	-66.1	281	26
2023-09-19T18:00	12412	188	-58.7	-67.1	283	26
2023-09-19T18:00	12437	188	-58.5	-68.4	285	25
2023-09-19T18:00	12463	187	-58.5	-69.8	286	25
2023-09-19T18:00	12483	186	-58.5	-70.7	287	24
2023-09-19T18:00	12507	185	-58.5	-71.3	288	24
2023-09-19T18:00	12530	185	-58.6	-72.0	288	24
2023-09-19T18:00	12550	184	-58.7	-72.5	288	23
2023-09-19T18:00	12574	184	-58.8	-72.7	288	23
2023-09-19T18:00	12596	183	-59.0	-73.0	288	23
2023-09-19T18:00	12618	182	-59.1	-73.3	287	23
2023-09-19T18:00	12639	182	-59.3	-73.6	288	22
2023-09-19T18:00	12662	181	-59.3	-73.7	288	22
2023-09-19T18:00	12683	180	-59.4	-73.9	288	22
2023-09-19T18:00	12706	180	-59.4	-73.8	289	22
2023-09-19T18:00	12725	179	-59.4	-73.8	290	22
2023-09-19T18:00	12748	179	-59.4	-73.8	291	21
2023-09-19T18:00	12767	178	-59.5	-74.0	293	21
2023-09-19T18:00	12791	177	-59.6	-74.2	295	20
2023-09-19T18:00	12812	177	-59.6	-74.5	297	20
2023-09-19T18:00	12832	176	-59.2	-74.6	298	19
2023-09-19T18:00	12853	175	-58.9	-74.8	299	19
2023-09-19T18:00	12876	175	-58.9	-75.2	298	18
2023-09-19T18:00	12899	174	-59.1	-75.7	297	18
2023-09-19T18:00	12918	174	-58.4	-75.6	296	18
2023-09-19T18:00	12939	173	-58.4	-76.2	294	18
2023-09-19T18:00	12958	173	-58.5	-76.6	292	18
2023-09-19T18:00	12978	172	-58.6	-76.8	290	18
2023-09-19T18:00	12996	172	-58.7	-77.0	289	18
2023-09-19T18:00	13015	171	-58.8	-77.3	288	18
2023-09-19T18:00	13034	170	-58.8	-77.6	287	19
2023-09-19T18:00	13054	170	-58.8	-78.1	286	19
2023-09-19T18:00	13073	169	-58.6	-78.5	286	19
2023-09-19T18:00	13094	169	-58.5	-79.0	285	19
2023-09-19T18:00	13114	168	-58.5	-79.5	285	19
2023-09-19T18:00	13134	168	-58.4	-79.8	284	19
2023-09-19T18:00	13154	167	-58.2	-80.0	284	19
2023-09-19T18:00	13171	167	-58.2	-80.3	283	18
2023-09-19T18:00	13193	166	-57.9	-80.4	283	18
2023-09-19T18:00	13212	166	-57.7	-80.4	283	18
2023-09-19T18:00	13232	165	-57.7	-80.4	283	18
2023-09-19T18:00	13251	165	-57.7	-80.2	284	18
2023-09-19T18:00	13269	164	-57.8	-80.1	284	17
2023-09-19T18:00	13290	164	-57.8	-79.8	284	17
2023-09-19T18:00	13308	163	-57.8	-79.6	284	17
2023-09-19T18:00	13327	163	-57.8	-79.5	283	17
2023-09-19T18:00	13344	162	-57.8	-79.4	281	17
2023-09-19T18:00	13363	162	-57.7	-79.3	280	17
2023-09-19T18:00	13385	161	-57.7	-79.3	278	18
2023-09-19T18:00	13402	161	-57.8	-79.4	277	18
2023-09-19T18:00	13421	160	-57.8	-79.4	276	18
2023-09-19T18:00	13440	160	-57.8	-79.5	275	19
2023-09-19T18:00	13461	159	-57.9	-79.7	275	19
2023-09-19T18:00	13479	159	-58.1	-80.0	274	20
2023-09-19T18:00	13496	158	-58.0	-80.5	274	20
2023-09-19T18:00	13516	158	-57.8	-80.6	274	21
2023-09-19T18:00	13536	157	-57.7	-80.7	274	21
2023-09-19T18:00	13556	157	-57.6	-81.0	275	22
2023-09-19T18:00	13575	156	-57.6	-81.2	275	22
2023-09-19T18:00	13596	156	-57.4	-81.3	277	22
2023-09-19T18:00	13616	155	-57.3	-81.4	278	22
2023-09-19T18:00	13636	155	-57.3	-81.4	280	22
2023-09-19T18:00	13655	155	-57.3	-81.4	282	22
2023-09-19T18:00	13677	154	-57.2	-81.3	283	22
2023-09-19T18:00	13696	154	-57.0	-81.2	285	22
2023-09-19T18:00	13715	153	-56.9	-81.1	286	22
2023-09-19T18:00	13736	153	-56.9	-81.1	286	22
2023-09-19T18:00	13754	152	-57.0	-81.2	286	22
2023-09-19T18:00	13776	152	-57.0	-81.2	286	22
2023-09-19T18:00	13795	151	-57.0	-81.2	286	22
2023-09-19T18:00	13816	151	-57.0	-81.2	286	22
2023-09-19T18:00	13836	150	-57.1	-81.0	286	22
2023-09-19T18:00	13854	150	-57.2	-81.3	286	21
2023-09-19T18:00	13877	149	-57.3	-81.4	287	21
2023-09-19T18:00	13896	149	-56.9	-81.3	287	21
2023-09-19T18:00	13917	148	-56.9	-81.3	288	20
2023-09-19T18:00	13939	148	-56.9	-81.3	290	20
2023-09-19T18:00	13961	147	-56.9	-81.3	291	20
2023-09-19T18:00	13982	147	-57.1	-81.5	292	19
2023-09-19T18:00	14004	146	-57.2	-81.5	293	19
2023-09-19T18:00	14024	146	-57.2	-81.5	294	19
2023-09-19T18:00	14047	145	-57.3	-81.6	294	18
2023-09-19T18:00	14067	145	-57.3	-81.6	293	18
2023-09-19T18:00	14089	144	-57.1	-81.5	292	17
2023-09-19T18:00	14110	144	-57.2	-81.5	290	17
2023-09-19T18:00	14130	143	-57.3	-81.6	289	17
2023-09-19T18:00	14150	143	-57.3	-81.6	288	17
2023-09-19T18:00	14175	142	-57.3	-81.6	286	17
2023-09-19T18:00	14195	142	-57.2	-81.8	285	17
2023-09-19T18:00	14215	141	-57.2	-81.8	284	17
2023-09-19T18:00	14236	141	-57.1	-81.9	283	17
2023-09-19T18:00	14256	141	-57.1	-81.9	282	17
2023-09-19T18:00	14275	140	-57.1	-81.9	282	17
2023-09-19T18:00	14296	140	-57.1	-82.2	281	17
2023-09-19T18:00	14318	139	-57.0	-82.1	281	17
2023-09-19T18:00	14336	139	-57.0	-82.1	281	17
2023-09-19T18:00	14359	138	-56.9	-82.3	280	17
2023-09-19T18:00	14377	138	-56.7	-82.1	279	18
2023-09-19T18:00	14398	137	-56.7	-82.4	278	18
2023-09-19T18:00	14419	137	-56.7	-82.4	277	19
2023-09-19T18:00	14440	136	-56.5	-82.5	277	19
2023-09-19T18:00	14459	136	-56.2	-82.3	277	19
2023-09-19T18:00	14478	136	-56.3	-82.3	277	19
2023-09-19T18:00	14500	135	-56.3	-82.6	277	19
2023-09-19T18:00	14520	135	-56.1	-82.5	277	19
2023-09-19T18:00	14539	134	-55.8	-82.2	276	19
2023-09-19T18:00	14561	134	-55.6	-82.1	276	19
2023-09-19T18:00	14583	133	-55.8	-82.0	276	19
2023-09-19T18:00	14605	133	-55.8	-82.0	277	19
2023-09-19T18:00	14624	133	-55.5	-81.7	278	18
2023-09-19T18:00	14644	132	-55.6	-81.8	278	18
2023-09-19T18:00	14667	132	-55.6	-81.8	279	18
2023-09-19T18:00	14688	131	-55.4	-81.6	279	17
2023-09-19T18:00	14711	131	-55.5	-81.7	280	17
2023-09-19T18:00	14730	130	-55.6	-81.8	281	17
2023-09-19T18:00	14752	130	-55.8	-82.0	281	17
2023-09-19T18:00	14774	130	-55.9	-82.0	282	17
2023-09-19T18:00	14796	129	-55.9	-82.0	283	17
2023-09-19T18:00	14819	129	-56.1	-82.2	284	17
2023-09-19T18:00	14840	128	-56.3	-82.1	284	18
2023-09-19T18:00	14864	128	-56.4	-82.1	285	18
2023-09-19T18:00	14884	127	-56.5	-82.2	285	18
2023-09-19T18:00	14907	127	-56.6	-82.3	285	17
2023-09-19T18:00	14930	126	-56.6	-82.3	285	17
2023-09-19T18:00	14952	126	-56.7	-82.4	285	17
2023-09-19T18:00	14978	125	-56.7	-82.7	285	17
2023-09-19T18:00	14998	125	-56.7	-82.7	285	17
2023-09-19T18:00	15024	125	-56.7	-82.7	286	16
2023-09-19T18:00	15049	124	-56.7	-82.7	287	16
2023-09-19T18:00	15079	123	-56.4	-82.4	287	15
2023-09-19T18:00	15107	123	-56.3	-82.6	288	14
2023-09-19T18:00	15135	122	-56.3	-82.6	289	13
2023-09-19T18:00	15168	122	-56.3	-82.6	289	12
2023-09-19T18:00	15195	121	-56.5	-82.8	287	12
2023-09-19T18:00	15228	121	-56.7	-82.9	285	12
2023-09-19T18:00	15262	120	-57.0	-82.9	282	11
2023-09-19T18:00	15293	119	-57.3	-82.8	279	11
2023-09-19T18:00	15327	119	-57.5	-82.7	275	11
2023-09-19T18:00	15352	118	-57.7	-82.9	271	10
2023-09-19T18:00	15380	118	-57.9	-83.0	266	10
2023-09-19T18:00	15402	117	-58.1	-83.2	260	10
2023-09-19T18:00	15425	117	-58.2	-83.3	256	10
2023-09-19T18:00	15446	116	-58.1	-83.2	253	10
2023-09-19T18:00	15468	116	-58.2	-83.3	251	11
2023-09-19T18:00	15489	116	-58.2	-83.5	250	12
2023-09-19T18:00	15509	115	-58.0	-83.4	250	12
2023-09-19T18:00	15534	115	-58.0	-83.4	249	13
2023-09-19T18:00	15553	115	-57.9	-83.6	249	13
2023-09-19T18:00	15576	114	-58.0	-83.7	249	14
2023-09-19T18:00	15600	114	-58.0	-83.9	250	15
2023-09-19T18:00	15626	113	-58.1	-84.0	251	16
2023-09-19T18:00	15650	113	-58.2	-84.4	252	17
2023-09-19T18:00	15672	112	-58.1	-84.3	254	17
2023-09-19T18:00	15694	112	-57.8	-84.4	256	17
2023-09-19T18:00	15717	112	-57.6	-84.3	258	18
2023-09-19T18:00	15740	111	-57.7	-84.3	260	18
2023-09-19T18:00	15762	111	-57.6	-84.3	262	17
2023-09-19T18:00	15784	110	-57.6	-84.3	264	17
2023-09-19T18:00	15807	110	-57.5	-84.5	266	17
2023-09-19T18:00	15830	110	-57.4	-84.4	268	17
2023-09-19T18:00	15851	109	-57.3	-84.4	270	17
2023-09-19T18:00	15873	109	-57.4	-84.4	272	17
2023-09-19T18:00	15893	109	-57.4	-84.8	273	17
2023-09-19T18:00	15913	108	-57.4	-84.8	274	16
2023-09-19T18:00	15938	108	-57.0	-84.5	275	16
2023-09-19T18:00	15957	107	-56.5	-84.5	275	15
2023-09-19T18:00	15978	107	-56.1	-84.2	274	15
2023-09-19T18:00	16000	107	-56.0	-84.5	274	15
2023-09-19T18:00	16024	106	-56.0	-84.5	273	15
2023-09-19T18:00	16045	106	-56.1	-84.6	272	16
2023-09-19T18:00	16069	106	-56.2	-84.6	271	16
2023-09-19T18:00	16087	105	-56.4	-84.4	270	16
2023-09-19T18:00	16110	105	-56.2	-84.2	269	17
2023-09-19T18:00	16131	105	-56.3	-84.3	267	17
2023-09-19T18:00	16150	104	-56.1	-84.6	266	17
2023-09-19T18:00	16175	104	-56.0	-84.5	265	18
2023-09-19T18:00	16192	103	-56.0	-84.5	264	18
2023-09-19T18:00	16213	103	-56.1	-84.6	264	18
2023-09-19T18:00	16234	103	-55.5	-84.1	264	17
2023-09-19T18:00	16254	103	-55.3	-84.4	264	17
2023-09-19T18:00	16273	102	-55.2	-84.3	264	17
2023-09-19T18:00	16293	102	-54.9	-84.6	264	17
2023-09-19T18:00	16317	102	-54.7	-84.4	263	16
2023-09-19T18:00	16338	101	-54.6	-84.3	261	16
2023-09-19T18:00	16358	101	-54.4	-84.2	260	16
2023-09-19T18:00	16378	101	-54.4	-84.2	258	17
2023-09-19T18:00	16399	100	-54.4	-84.2	258	17
2023-09-19T18:00	16420	100	-54.5	-84.3	257	17
2023-09-19T18:00	16441	100	-54.6	-83.9	258	17
2023-09-19T18:00	16462	99	-54.7	-83.9	259	17
2023-09-19T18:00	16482	99	-54.7	-83.9	260	17
2023-09-19T18:00	16502	99	-54.7	-84.4	261	17
2023-09-19T18:00	16524	98	-54.7	-84.4	262	17
2023-09-19T18:00	16547	98	-54.7	-84.4	262	17
2023-09-19T18:00	16565	98	-54.6	-84.3	263	17
2023-09-19T18:00	16590	97	-54.4	-84.2	263	17
2023-09-19T18:00	16610	97	-54.4	-84.2	264	17
2023-09-19T18:00	16631	97	-54.4	-84.2	265	17
2023-09-19T18:00	16654	96	-54.1	-84.0	267	17
2023-09-19T18:00	16678	96	-53.9	-84.3	268	16
2023-09-19T18:00	16700	96	-53.9	-84.3	268	16
2023-09-19T18:00	16722	95	-53.9	-84.3	269	15
2023-09-19T18:00	16744	95	-54.1	-84.5	269	15
2023-09-19T18:00	16768	95	-53.9	-84.3	270	14
2023-09-19T18:00	16790	94	-53.8	-84.2	270	13
2023-09-19T18:00	16812	94	-53.8	-84.2	271	13
2023-09-19T18:00	16835	94	-53.7	-84.2	272	12
2023-09-19T18:00	16858	93	-53.8	-84.2	274	12
2023-09-19T18:00	16880	93	-53.9	-83.8	276	12
2023-09-19T18:00	16905	93	-54.0	-83.9	278	11
2023-09-19T18:00	16928	92	-54.0	-83.9	280	11
2023-09-19T18:00	16951	92	-54.0	-83.9	281	11
2023-09-19T18:00	16972	92	-53.8	-83.7	281	11
2023-09-19T18:00	17000	91	-54.0	-83.9	280	10
2023-09-19T18:00	17021	91	-54.2	-84.5	279	9
2023-09-19T18:00	17047	91	-54.0	-84.4	277	9
2023-09-19T18:00	17071	90	-54.0	-84.4	275	8
2023-09-19T18:00	17094	90	-54.2	-84.5	274	8
2023-09-19T18:00	17118	90	-54.3	-84.1	273	7
2023-09-19T18:00	17141	89	-54.3	-84.1	272	7
2023-09-19T18:00	17166	89	-54.4	-84.2	271	7
2023-09-19T18:00	17190	89	-54.5	-84.3	271	7
2023-09-19T18:00	17211	88	-54.6	-84.3	269	7
2023-09-19T18:00	17235	88	-54.6	-84.3	266	7
2023-09-19T18:00	17254	88	-54.6	-84.3	261	7
2023-09-19T18:00	17276	87	-54.4	-84.7	255	7
2023-09-19T18:00	17301	87	-54.3	-84.6	249	7
2023-09-19T18:00	17324	87	-54.3	-84.6	242	7
2023-09-19T18:00	17349	86	-54.2	-85.1	235	7
2023-09-19T18:00	17370	86	-53.6	-84.6	229	7
2023-09-19T18:00	17392	86	-53.2	-84.4	224	8
2023-09-19T18:00	17415	86	-53.3	-84.4	221	8
2023-09-19T18:00	17438	85	-53.4	-84.5	220	9
2023-09-19T18:00	17461	85	-53.6	-84.1	219	9
2023-09-19T18:00	17483	85	-53.6	-84.1	218	10
2023-09-19T18:00	17508	84	-53.7	-84.2	218	10
2023-09-19T18:00	17531	84	-53.8	-84.2	217	11
2023-09-19T18:00	17556	84	-54.0	-84.4	216	11
2023-09-19T18:00	17577	83	-54.2	-84.0	214	12
2023-09-19T18:00	17601	83	-54.4	-84.2	213	13
2023-09-19T18:00	17624	83	-54.5	-84.3	212	13
2023-09-19T18:00	17646	83	-54.7	-84.4	212	14
2023-09-19T18:00	17670	82	-55.0	-84.6	213	14
2023-09-19T18:00	17692	82	-55.2	-84.8	214	15
2023-09-19T18:00	17714	82	-55.3	-84.9	215	15
2023-09-19T18:00	17736	81	-55.4	-84.9	217	16
2023-09-19T18:00	17756	81	-55.4	-84.9	218	16
2023-09-19T18:00	17781	81	-55.5	-85.0	219	16
2023-09-19T18:00	17805	80	-55.5	-85.0	220	17
2023-09-19T18:00	17827	80	-55.6	-85.1	220	17
2023-09-19T18:00	17849	80	-55.7	-85.2	221	17
2023-09-19T18:00	17871	80	-55.8	-85.2	222	17
2023-09-19T18:00	17893	79	-55.9	-85.3	224	16
2023-09-19T18:00	17912	79	-56.1	-85.0	226	16
2023-09-19T18:00	17934	79	-56.2	-85.1	229	17
2023-09-19T18:00	17956	79	-56.2	-85.1	232	17
2023-09-19T18:00	17978	78	-56.2	-85.1	234	17
2023-09-19T18:00	18002	78	-56.2	-85.1	236	17
2023-09-19T18:00	18021	78	-56.4	-85.2	238	17
2023-09-19T18:00	18042	78	-56.4	-85.2	240	17
2023-09-19T18:00	18067	77	-56.5	-85.3	242	17
2023-09-19T18:00	18086	77	-56.4	-85.2	243	18
2023-09-19T18:00	18111	77	-56.4	-85.2	245	18
2023-09-19T18:00	18131	76	-56.5	-85.3	247	18
2023-09-19T18:00	18153	76	-56.7	-85.4	249	19
2023-09-19T18:00	18174	76	-56.8	-85.5	251	19
2023-09-19T18:00	18196	76	-56.9	-85.6	253	20
2023-09-19T18:00	18216	75	-56.8	-85.5	255	21
2023-09-19T18:00	18239	75	-56.8	-85.5	257	21
2023-09-19T18:00	18263	75	-56.7	-85.9	259	21
2023-09-19T18:00	18281	75	-56.5	-85.8	260	21
2023-09-19T18:00	18303	74	-56.4	-85.7	262	21
2023-09-19T18:00	18328	74	-56.3	-85.6	263	21
2023-09-19T18:00	18351	74	-56.1	-86.0	265	20
2023-09-19T18:00	18372	74	-55.9	-85.8	266	20
2023-09-19T18:00	18394	73	-55.7	-85.7	267	19
2023-09-19T18:00	18417	73	-55.7	-85.7	268	19
2023-09-19T18:00	18436	73	-55.8	-85.7	270	18
2023-09-19T18:00	18461	73	-55.6	-85.6	270	18
2023-09-19T18:00	18485	72	-55.6	-85.6	271	17
2023-09-19T18:00	18508	72	-55.6	-85.6	271	16
2023-09-19T18:00	18530	72	-55.3	-85.4	271	15
2023-09-19T18:00	18552	72	-55.2	-85.3	270	14
2023-09-19T18:00	18577	71	-55.3	-85.4	268	14
2023-09-19T18:00	18601	71	-55.4	-85.4	266	13
2023-09-19T18:00	18623	71	-55.5	-85.5	264	12
2023-09-19T18:00	18643	71	-55.6	-85.1	263	12
2023-09-19T18:00	18669	70	-55.7	-85.2	262	12
2023-09-19T18:00	18697	70	-55.9	-85.3	261	11
2023-09-19T18:00	18716	70	-56.0	-85.9	260	11
2023-09-19T18:00	18742	69	-55.7	-85.7	260	11
2023-09-19T18:00	18763	69	-55.7	-85.7	258	11
2023-09-19T18:00	18788	69	-55.4	-85.4	256	11
2023-09-19T18:00	18808	69	-55.3	-85.4	253	10
2023-09-19T18:00	18834	68	-55.4	-85.4	251	10
2023-09-19T18:00	18860	68	-55.6	-85.6	249	10
2023-09-19T18:00	18887	68	-55.6	-85.6	248	10
2023-09-19T18:00	18906	68	-55.4	-85.4	247	10
2023-09-19T18:00	18933	67	-55.4	-85.4	247	11
2023-09-19T18:00	18956	67	-55.6	-85.6	247	11
2023-09-19T18:00	18980	67	-55.8	-85.2	246	11
2023-09-19T18:00	19003	67	-56.0		246	11
2023-09-19T18:00	19024	66	-56.2	-85.5	246	11
2023-09-19T18:00	19049	66	-56.4	-85.7	247	11
2023-09-19T18:00	19070	66	-56.6	-85.8	248	12
2023-09-19T18:00	19093	66	-56.8	-86.0	250	12
2023-09-19T18:00	19117	65	-56.8	-86.0	253	11
2023-09-19T18:00	19141	65	-56.9	-86.1	255	11
2023-09-19T18:00	19167	65	-57.0	-86.1	257	11
2023-09-19T18:00	19191	65	-56.9	-86.1	259	11
2023-09-19T18:00	19213	64	-57.0	-86.1	260	11
2023-09-19T18:00	19239	64	-57.1	-86.2	260	12
2023-09-19T18:00	19262	64	-57.2	-86.3	260	12
2023-09-19T18:00	19283	64	-57.3	-86.4	259	12
2023-09-19T18:00	19305	64	-57.1	-86.2	259	12
2023-09-19T18:00	19328	63	-57.1	-86.2	260	12
2023-09-19T18:00	19353	63	-56.9	-86.1	260	11
2023-09-19T18:00	19376	63	-56.7	-85.9	261	11
2023-09-19T18:00	19397	63	-56.8	-86.5	262	10
2023-09-19T18:00	19418	62	-57.0	-86.6	263	9
2023-09-19T18:00	19442	62	-56.7	-86.4	262	9
2023-09-19T18:00	19468	62	-56.7	-86.4	261	8
2023-09-19T18:00	19490	62	-56.7	-86.4	259	8
2023-09-19T18:00	19513	62	-56.6	-86.3	258	7
2023-09-19T18:00	19538	61	-56.6	-86.3	258	7
2023-09-19T18:00	19560	61	-56.6	-86.3	258	7
2023-09-19T18:00	19582	61	-56.5	-86.3	259	7
2023-09-19T18:00	19607	61	-56.3	-86.1	261	7
2023-09-19T18:00	19631	60	-56.1	-86.0	262	8
2023-09-19T18:00	19651	60	-56.1	-86.0	262	8
2023-09-19T18:00	19680	60	-56.2	-86.0	263	9
2023-09-19T18:00	19700	60	-56.3	-86.1	264	9
2023-09-19T18:00	19720	60	-56.3	-86.1	264	10
2023-09-19T18:00	19745	59	-56.4	-86.2	264	11
2023-09-19T18:00	19768	59	-56.5	-86.3	265	11
2023-09-19T18:00	19793	59	-56.7	-86.4	265	11
2023-09-19T18:00	19817	59	-56.7	-86.4	266	11
2023-09-19T18:00	19843	58	-56.6	-86.3	267	11
2023-09-19T18:00	19865	58	-56.0	-86.4	269	10
2023-09-19T18:00	19891	58	-55.6	-86.1	271	9
2023-09-19T18:00	19918	58	-55.6	-86.1	272	8
2023-09-19T18:00	19939	58	-55.4	-86.0	273	7
2023-09-19T18:00	19960	57	-55.4	-86.0	272	6
2023-09-19T18:00	19983	57	-55.2	-85.8	270	6
2023-09-19T18:00	20008	57	-55.3	-85.9	268	5
2023-09-19T18:00	20031	57	-55.4	-86.0	265	5
2023-09-19T18:00	20055	56	-55.5	-86.1	262	5
2023-09-19T18:00	20078	56	-55.4	-86.0	261	5
2023-09-19T18:00	20105	56	-55.4	-86.0	260	5
2023-09-19T18:00	20129	56	-55.5	-85.5	260	5
2023-09-19T18:00	20150	56	-55.7	-85.7	261	5
2023-09-19T18:00	20176	55	-55.8	-85.7	262	4
2023-09-19T18:00	20199	55	-55.9	-85.8	264	4
2023-09-19T18:00	20227	55	-56.1	-86.0	265	4
2023-09-19T18:00	20252	55	-56.3	-86.1	265	3
2023-09-19T18:00	20276	55	-56.5	-86.3	261	3
2023-09-19T18:00	20308	54	-56.5	-86.3	254	3
2023-09-19T18:00	20328	54	-56.6	-85.8	242	3
2023-09-19T18:00	20353	54	-56.7	-85.9	226	3
2023-09-19T18:00	20375	54	-56.9	-86.1	211	3
2023-09-19T18:00	20406	53	-57.0	-86.1	201	3
2023-09-19T18:00	20431	53	-57.1	-86.2	196	4
2023-09-19T18:00	20455	53	-57.2	-86.3	194	4
2023-09-19T18:00	20484	53	-57.4	-86.4	195	5
2023-09-19T18:00	20505	53	-57.4	-86.4	197	5
2023-09-19T18:00	20533	52	-57.4	-86.4	201	6
2023-09-19T18:00	20557	52	-57.4	-86.4	207	6
2023-09-19T18:00	20581	52	-57.5	-86.5	214	6
2023-09-19T18:00	20610	52	-57.6	-86.6	221	6
2023-09-19T18:00	20634	52	-57.7	-86.7	228	7
2023-09-19T18:00	20655	51	-57.8	-86.7	235	7
2023-09-19T18:00	20684	51	-57.9	-86.8	241	8
2023-09-19T18:00	20706	51	-57.8	-86.7	245	8
2023-09-19T18:00	20734	51	-57.9	-86.8	249	8
2023-09-19T18:00	20758	51	-58.0	-86.9	253	9
2023-09-19T18:00	20784	50	-58.0	-86.9	255	9
2023-09-19T18:00	20805	50	-58.2	-87.0	257	9
2023-09-19T18:00	20835	50	-58.4	-87.2	259	9
2023-09-19T18:00	20860	50	-58.5	-87.3	259	9
2023-09-19T18:00	20886	50	-58.4	-87.2	260	9
2023-09-19T18:00	20910	49	-58.4	-87.2	259	10
2023-09-19T18:00	20933	49	-57.9	-87.3	259	10
2023-09-19T18:00	20959	49	-57.4	-86.9	259	10
2023-09-19T18:00	20982	49	-57.6	-87.1	259	10
2023-09-19T18:00	21008	49	-57.7	-87.2	258	10
2023-09-19T18:00	21033	48	-57.6	-87.1	258	10
2023-09-19T18:00	21059	48	-57.0	-86.6	258	10
2023-09-19T18:00	21082	48	-56.9	-86.6	259	9
2023-09-19T18:00	21108	48	-57.0	-86.6	260	9
2023-09-19T18:00	21128	48	-57.0	-86.6	262	9
2023-09-19T18:00	21154	47	-57.1	-86.7	264	8
2023-09-19T18:00	21174	47	-57.1	-86.7	266	8
2023-09-19T18:00	21199	47	-57.2	-86.8	268	9
2023-09-19T18:00	21228	47	-57.3	-86.4	271	9
2023-09-19T18:00	21246	47	-57.3	-86.4	274	9
2023-09-19T18:00	21271	47	-57.5	-86.5	277	9
2023-09-19T18:00	21297	46	-57.6	-86.6	280	9
2023-09-19T18:00	21319	46	-57.7	-86.7	282	9
2023-09-19T18:00	21342	46	-57.8	-86.7	284	9
2023-09-19T18:00	21364	46	-58.0	-86.9	284	8
2023-09-19T18:00	21391	46	-58.1	-87.0	283	8
2023-09-19T18:00	21411	46	-57.9	-86.8	281	8
2023-09-19T18:00	21438	45	-58.0	-86.9	278	8
2023-09-19T18:00	21460	45	-57.9	-86.8	274	8
2023-09-19T18:00	21488	45	-57.7	-86.7	270	7
2023-09-19T18:00	21513	45	-57.9	-86.8	266	7
2023-09-19T18:00	21537	45	-57.9	-86.8	263	7
2023-09-19T18:00	21562	45	-57.8	-86.7	261	7
2023-09-19T18:00	21583	44	-57.9	-86.8	260	7
2023-09-19T18:00	21610	44	-57.9	-86.8	259	7
2023-09-19T18:00	21631	44	-57.8	-86.7	260	7
2023-09-19T18:00	21660	44	-57.9	-86.8	260	7
2023-09-19T18:00	21687	44	-57.9	-86.8	261	6
2023-09-19T18:00	21707	43	-57.8	-86.7	262	6
2023-09-19T18:00	21734	43	-57.8	-87.2	263	7
2023-09-19T18:00	21760	43	-57.7	-87.2	263	7
2023-09-19T18:00	21780	43	-57.5	-87.0	264	7
2023-09-19T18:00	21810	43	-57.4	-86.9	265	7
2023-09-19T18:00	21833	43	-57.5	-87.0	266	7
2023-09-19T18:00	21854	42	-57.6	-87.1	267	7
2023-09-19T18:00	21880	42	-57.5	-87.0	268	7
2023-09-19T18:00	21902	42	-57.2	-86.8	269	7
2023-09-19T18:00	21930	42	-57.3	-86.9	270	7
2023-09-19T18:00	21954	42	-57.4	-86.9	271	7
2023-09-19T18:00	21974	42	-57.5	-87.0	271	6
2023-09-19T18:00	22005	42	-57.5	-86.5	271	6
2023-09-19T18:00	22026	41	-57.5	-86.5	268	6
2023-09-19T18:00	22050	41	-57.7	-86.7	264	6
2023-09-19T18:00	22077	41	-57.8	-86.7	259	5
2023-09-19T18:00	22099	41	-57.8	-86.7	254	5
2023-09-19T18:00	22127	41	-57.9	-86.8	249	5
2023-09-19T18:00	22151	41	-57.9	-86.8	247	5
2023-09-19T18:00	22174	40	-58.0	-86.9	248	4
2023-09-19T18:00	22200	40	-58.0	-86.9	252	4
2023-09-19T18:00	22226	40	-58.0	-87.4	258	4
2023-09-19T18:00	22252	40	-57.6	-87.1	263	4
2023-09-19T18:00	22278	40	-57.4	-86.9	266	4
2023-09-19T18:00	22299	40	-57.4	-86.9	268	5
2023-09-19T18:00	22319	39	-57.2	-86.8	268	5
2023-09-19T18:00	22347	39	-57.2	-86.8	268	5
2023-09-19T18:00	22376	39	-56.9	-86.6	267	6
2023-09-19T18:00	22398	39	-57.1	-87.2	266	5
2023-09-19T18:00	22422	39	-57.1	-87.2	265	5
2023-09-19T18:00	22439	39	-56.7	-86.9	264	5
2023-09-19T18:00	22470	39	-56.1	-86.5	262	5
2023-09-19T18:00	22493	38	-56.1	-86.5	259	5
2023-09-19T18:00	22523	38	-56.0	-86.4	257	5
2023-09-19T18:00	22540	38	-56.0	-86.4	255	5
2023-09-19T18:00	22563	38	-56.1	-86.0	252	5
2023-09-19T18:00	22594	38	-56.4	-86.2	249	5
2023-09-19T18:00	22615	38	-56.6	-86.3	246	5
2023-09-19T18:00	22641	38	-56.8	-86.5	243	5
2023-09-19T18:00	22669	37	-57.0	-86.1	240	5
2023-09-19T18:00	22689	37	-57.1	-86.2	238	5
2023-09-19T18:00	22719	37	-57.2	-86.3	236	6
2023-09-19T18:00	22740	37	-57.4	-86.4	234	6
2023-09-19T18:00	22768	37	-57.6	-86.6	232	6
2023-09-19T18:00	22791	37	-57.8	-86.7	230	7
2023-09-19T18:00	22817	37	-57.8	-86.7	228	7
2023-09-19T18:00	22842	36	-57.7	-86.7	227	8
2023-09-19T18:00	22872	36	-57.9	-86.8	227	8
2023-09-19T18:00	22892	36	-58.1	-87.0	229	9
2023-09-19T18:00	22921	36	-57.8	-87.2	233	9
2023-09-19T18:00	22951	36	-57.8	-87.2	238	9
2023-09-19T18:00	22976	36	-57.4	-86.9	244	9
2023-09-19T18:00	23002	35	-57.2	-86.8	251	9
2023-09-19T18:00	23026	35	-57.3	-86.9	257	10
2023-09-19T18:00	23056	35	-57.3	-86.9	263	10
2023-09-19T18:00	23080	35	-57.3	-86.9	268	10
2023-09-19T18:00	23103	35	-56.9	-87.1	272	11
2023-09-19T18:00	23134	35	-56.8	-86.5	276	11
2023-09-19T18:00	23156	35	-56.7	-86.4	280	11
2023-09-19T18:00	23187	34	-56.8	-86.5	283	11
2023-09-19T18:00	23212	34	-57.0	-86.6	287	11
2023-09-19T18:00	23240	34	-57.1	-86.7	290	11
2023-09-19T18:00	23260	34	-57.2	-86.8	292	11
2023-09-19T18:00	23291	34	-57.2	-86.8	295	11
2023-09-19T18:00	23317	34	-57.2	-86.8	297	11
2023-09-19T18:00	23341	34	-57.3	-86.9	299	11
2023-09-19T18:00	23374	33	-57.3	-86.9	301	11
2023-09-19T18:00	23398	33	-57.4	-86.9	303	11
2023-09-19T18:00	23424	33	-57.2	-86.8	305	11
2023-09-19T18:00	23455	33	-56.8	-86.5	307	10
2023-09-19T18:00	23478	33	-57.0	-86.6	308	10
2023-09-19T18:00	23505	33	-57.1	-86.7	310	9
2023-09-19T18:00	23529	33	-57.2	-86.8	311	9
2023-09-19T18:00	23559	32	-57.3	-86.9	313	8
2023-09-19T18:00	23586	32	-57.4	-86.4	315	8
2023-09-19T18:00	23610	32	-57.6	-86.6	317	8
2023-09-19T18:00	23635	32	-57.8	-86.7	319	8
2023-09-19T18:00	23661	32	-58.0	-86.9	321	8
2023-09-19T18:00	23691	32	-58.0	-86.9	324	8
2023-09-19T18:00	23717	32	-58.0	-87.4	328	7
2023-09-19T18:00	23746	32	-57.6	-87.1	333	7
2023-09-19T18:00	23768	31	-57.2	-86.8	339	7
2023-09-19T18:00	23791	31	-57.2	-86.8	346	6
2023-09-19T18:00	23824	31	-57.2	-86.8	354	6
2023-09-19T18:00	23850	31	-57.3	-86.9	1	6
2023-09-19T18:00	23876	31	-57.2	-86.8	7	6
2023-09-19T18:00	23901	31	-57.3	-86.9	13	5
2023-09-19T18:00	23933	31	-57.5	-86.5	17	5
2023-09-19T18:00	23958	30	-57.8	-86.7	20	5
2023-09-19T18:00	23987	30	-58.0	-86.9	22	5
2023-09-19T18:00	24015	30	-58.2	-87.0	23	4
2023-09-19T18:00	24037	30	-58.1	-87.4	22	4
2023-09-19T18:00	24069	30	-57.6	-87.1	20	3
2023-09-19T18:00	24091	30	-57.5	-87.0	16	3
2023-09-19T18:00	24115	30	-57.4	-86.9	8	2
2023-09-19T18:00	24143	30	-57.4	-87.5	353	2
2023-09-19T18:00	24170	29	-57.4	-87.5	332	2
2023-09-19T18:00	24198	29	-57.2	-87.3	315	2
2023-09-19T18:00	24225	29	-57.3	-86.9	304	2
2023-09-19T18:00	24246	29	-57.3	-86.9	297	3
2023-09-19T18:00	24275	29	-57.3	-86.9	291	4
2023-09-19T18:00	24295	29	-57.4	-86.9	286	4
2023-09-19T18:00	24319	29	-57.4	-86.9	283	5
2023-09-19T18:00	24351	29	-57.4	-86.9	280	5
2023-09-19T18:00	24379	29	-57.5	-87.0	278	5
2023-09-19T18:00	24404	28	-57.6	-87.1	277	6
2023-09-19T18:00	24427	28	-57.7	-87.2	275	6
2023-09-19T18:00	24453	28	-57.8	-87.2	271	6
2023-09-19T18:00	24478	28	-57.9	-87.3	267	6
2023-09-19T18:00	24500	28	-57.8	-87.2	261	6
2023-09-19T18:00	24531	28	-57.9	-87.3	255	6
2023-09-19T18:00	24554	28	-57.8	-87.2	251	7
2023-09-19T18:00	24583	28	-57.6	-87.6	250	7
2023-09-19T18:00	24608	28	-57.3	-87.4	251	7
2023-09-19T18:00	24627	27	-57.0	-87.2	255	7
2023-09-19T18:00	24654	27	-56.6	-86.9	261	7
2023-09-19T18:00	24685	27	-56.5	-87.4	266	7
2023-09-19T18:00	24706	27	-56.4	-87.3	271	7
2023-09-19T18:00	24736	27	-56.4		274	7
2023-09-19T18:00	24761	27	-56.5	-86.8	276	7
2023-09-19T18:00	24786	27	-56.6	-86.9	275	6
2023-09-19T18:00	24815	27	-56.4		273	6
2023-09-19T18:00	24843	26	-56.4		270	6
2023-09-19T18:00	24869	26	-56.3	-86.6	267	6
2023-09-19T18:00	24899	26	-56.2	-87.2	265	6
2023-09-19T18:00	24917	26	-55.9	-86.9	266	6
2023-09-19T18:00	24951	26	-55.5	-86.7	269	5
2023-09-19T18:00	24979	26	-55.7	-86.8	273	5
2023-09-19T18:00	25007	26	-55.7	-86.8	277	5
2023-09-19T18:00	25034	26	-55.7	-86.8	283	5
2023-09-19T18:00	25069	26	-55.6	-86.7	288	5
2023-09-19T18:00	25085	26	-55.6	-86.1	293	5
2023-09-19T18:00	25117	25	-55.6	-86.1	297	5
2023-09-19T18:00	25143	25	-55.6	-86.1	300	4
2023-09-19T18:00	25166	25	-55.7	-86.2	303	4
2023-09-19T18:00	25201	25	-55.6	-86.1	304	3
2023-09-19T18:00	25218	25	-55.7	-86.2	302	3
2023-09-19T18:00	25255	25	-55.6	-86.1	297	2
2023-09-19T18:00	25279	25	-55.6	-86.1	287	2
2023-09-19T18:00	25312	25	-55.5	-86.1	275	2
2023-09-19T18:00	25339	25	-55.6	-86.1	262	2
2023-09-19T18:00	25365	24	-55.8	-86.3	249	3
2023-09-19T18:00	25391	24	-55.8	-86.3	238	3
2023-09-19T18:00	25424	24	-55.9	-86.3	231	4
2023-09-19T18:00	25448	24	-55.9	-86.3	228	4
2023-09-19T18:00	25473	24	-55.9	-86.3	227	5
2023-09-19T18:00	25503	24	-55.9	-86.3	228	6
2023-09-19T18:00	25530	24	-55.8	-86.3	229	6
2023-09-19T18:00	25551	24	-55.9	-86.9	232	7
2023-09-19T18:00	25582	24	-55.7	-86.8	235	7
2023-09-19T18:00	25613	23	-55.7	-86.8	240	8
2023-09-19T18:00	25639	23	-55.8	-86.9	246	8
2023-09-19T18:00	25660	23	-55.3	-86.5	252	8
2023-09-19T18:00	25682	23	-55.1	-86.4	258	8
2023-09-19T18:00	25717	23	-55.0	-86.3	264	8
2023-09-19T18:00	25744	23	-55.0	-86.3	269	9
2023-09-19T18:00	25778	23	-55.2	-86.4	275	9
2023-09-19T18:00	25790	23	-55.4	-86.6	281	9
2023-09-19T18:00	25823	23	-55.1	-86.4	286	10
2023-09-19T18:00	25848	23	-54.8	-86.1	289	10
2023-09-19T18:00	25876	23	-54.9	-86.2	291	10
2023-09-19T18:00	25897	22	-54.9	-86.9	291	10
2023-09-19T18:00	25932	22	-54.6	-86.7	289	9
2023-09-19T18:00	25959	22	-54.1	-86.3	284	9
2023-09-19T18:00	25985	22	-53.8	-86.1	276	8
2023-09-19T18:00	26004	22	-53.5	-85.9	268	8
2023-09-19T18:00	26035	22	-53.5	-85.9	260	7
2023-09-19T18:00	26062	22	-53.3	-85.7	254	8
2023-09-19T18:00	26090	22	-53.4	-85.8	250	8
2023-09-19T18:00	26109	22	-53.5	-85.9	248	8
2023-09-19T18:00	26148	22	-53.6	-85.3	249	8
2023-09-19T18:00	26176	22	-53.7	-85.3	250	9
2023-09-19T18:00	26191	21	-53.8	-85.4	251	9
2023-09-19T18:00	26215	21	-53.8	-85.4	253	10
2023-09-19T18:00	26236	21	-53.8	-85.4	254	10
2023-09-19T18:00	26273	21	-53.7	-85.3	256	10
2023-09-19T18:00	26306	21	-53.8	-85.4	258	10
2023-09-19T18:00	26322	21	-53.6	-85.3	261	10
2023-09-19T18:00	26348	21	-53.6		265	10
2023-09-19T18:00	26379	21	-53.7	-86.0	268	11
2023-09-19T18:00	26399	21	-53.8	-86.1	272	11
2023-09-19T18:00	26432	21	-53.8	-86.1	276	11
2023-09-19T18:00	26468	21	-53.6		280	12
2023-09-19T18:00	26496	20	-53.3	-85.7	284	12
2023-09-19T18:00	26522	20	-53.1	-85.6	287	13
2023-09-19T18:00	26547	20	-53.1	-85.6	290	13
2023-09-19T18:00	26585	20	-53.1	-85.6	293	13
2023-09-19T18:00	26605	20	-53.3	-85.7	295	13
2023-09-19T18:00	26637	20	-53.5	-85.9	297	13
2023-09-19T18:00	26662	20	-53.4	-85.1	298	12
2023-09-19T18:00	26691	20	-53.3	-85.0	297	12
2023-09-19T18:00	26725	20	-53.4	-85.1	296	12
2023-09-19T18:00	26752	20	-53.5	-85.2	296	11
2023-09-19T18:00	26774	20	-53.6	-85.3	295	11
2023-09-19T18:00	26812	19	-53.8	-85.4	295	11
2023-09-19T18:00	26835	19	-53.9	-85.5	296	10
2023-09-19T18:00	26866	19	-53.9	-85.5	297	10
2023-09-19T18:00	26898	19	-53.9	-85.5	297	10
2023-09-19T18:00	26923	19	-54.0	-85.5	298	10
2023-09-19T18:00	26952	19	-54.0	-85.5	298	10
2023-09-19T18:00	26988	19	-54.0	-85.5	298	10
2023-09-19T18:00	27010	19	-54.0	-85.5	298	11
2023-09-19T18:00	27034	19	-54.1	-85.6	298	11
2023-09-19T18:00	27057	19	-53.9	-86.2	298	11
2023-09-19T18:00	27088	19	-53.8	-86.1	297	11
2023-09-19T18:00	27113	19	-53.7	-86.0	297	12
2023-09-19T18:00	27148	18	-53.6		295	11
2023-09-19T18:00	27186	18	-53.5	-85.9	294	11
2023-09-19T18:00	27208	18	-53.5	-85.9	291	11
2023-09-19T18:00	27233	18	-53.6		287	10
2023-09-19T18:00	27263	18	-53.5	-85.9	282	10
2023-09-19T18:00	27286	18	-53.6		277	10
2023-09-19T18:00	27321	18	-53.6		274	10
2023-09-19T18:00	27344	18	-53.4	-85.8	272	11
2023-09-19T18:00	27369	18	-53.1	-85.6	272	12
2023-09-19T18:00	27407	18	-53.1	-85.6	273	12
2023-09-19T18:00	27428	18	-52.9	-86.2	275	13
2023-09-19T18:00	27453	18	-52.7	-86.0	278	13
2023-09-19T18:00	27477	18	-52.5	-85.9	281	13
2023-09-19T18:00	27513	17	-52.2	-85.7	284	13
2023-09-19T18:00	27537	17	-51.8	-85.4	288	13
2023-09-19T18:00	27561	17	-51.8	-85.4	291	12
2023-09-19T18:00	27586	17	-51.6	-85.2	294	12
2023-09-19T18:00	27618	17	-51.7	-85.3	297	12
2023-09-19T18:00	27644	17	-51.8	-85.4	298	11
2023-09-19T18:00	27673	17	-51.9	-85.5	299	11
2023-09-19T18:00	27700	17	-51.9	-84.7	299	11
2023-09-19T18:00	27737	17	-52.0	-84.8	300	10
2023-09-19T18:00	27766	17	-51.8	-85.4	301	10
2023-09-19T18:00	27787	17	-51.5	-85.2	302	9
2023-09-19T18:00	27821	17	-51.6	-85.2	303	9
2023-09-19T18:00	27850	17	-51.6	-85.2	302	8
2023-09-19T18:00	27878	17	-51.6	-85.2	301	8
2023-09-19T18:00	27926	16	-51.5	-85.2	300	8
2023-09-19T18:00	27956	16	-51.6	-85.2	298	8
2023-09-19T18:00	27976	16	-51.6	-85.2	296	8
2023-09-19T18:00	28002	16	-51.6	-85.2	295	8
2023-09-19T18:00	28028	16	-51.7	-84.5	294	8
2023-09-19T18:00	28060	16	-51.7	-85.3	293	8
2023-09-19T18:00	28097	16	-51.7	-85.3	293	8
2023-09-19T18:00	28131	16	-51.6	-85.2	293	8
2023-09-19T18:00	28163	16	-51.6	-85.2	294	8
2023-09-19T18:00	28179	16	-51.7	-85.3	295	8
2023-09-19T18:00	28232	16	-51.7	-85.3	297	9
2023-09-19T18:00	28255	16	-51.6	-85.2	298	9
2023-09-19T18:00	28284	16	-51.4	-85.1	300	10
2023-09-19T18:00	28321	15	-51.3	-85.0	302	10
2023-09-19T18:00	28339	15	-51.2	-85.0	304	10
2023-09-19T18:00	28378	15	-51.1	-84.9	305	10
2023-09-19T18:00	28406	15	-50.9	-84.7	305	10
2023-09-19T18:00	28428	15	-51.0	-84.8	305	10
2023-09-19T18:00	28468	15	-51.2	-85.0	304	9
2023-09-19T18:00	28495	15	-51.1	-84.9	303	9
2023-09-19T18:00	28530	15	-51.1	-84.9	301	8
2023-09-19T18:00	28560	15	-51.0	-84.8	298	7
2023-09-19T18:00	28586	15	-50.8	-84.7	293	7
2023-09-19T18:00	28625	15	-50.9	-84.7	287	6
2023-09-19T18:00	28659	15	-50.5	-84.5	280	6
2023-09-19T18:00	28687	15	-50.4	-84.4	275	6
2023-09-19T18:00	28703	15	-50.3	-84.3	273	6
2023-09-19T18:00	28737	14	-50.4	-84.4	274	6
2023-09-19T18:00	28773	14	-50.2	-84.2	277	6
2023-09-19T18:00	28784	14	-50.2	-84.2	279	6
2023-09-19T18:00	28831	14	-50.1	-84.2	280	6
2023-09-19T18:00	28849	14	-50.1	-84.2	281	7
2023-09-19T18:00	28890	14	-50.1	-84.2	282	7
2023-09-19T18:00	28919	14	-50.1	-84.2	284	8
2023-09-19T18:00	28946	14	-50.1	-84.2	286	8
2023-09-19T18:00	28976	14	-50.1	-84.2	288	9
2023-09-19T18:00	29000	14	-50.1	-84.2	291	9
2023-09-19T18:00	29026	14	-49.9	-84.0	293	9
2023-09-19T18:00	29065	14	-49.8	-84.0	296	9
2023-09-19T18:00	29087	14	-49.8	-84.0	298	9
2023-09-19T18:00	29110	14	-49.9	-84.0	299	9
2023-09-19T18:00	29137	14	-50.1	-84.2	301	9
2023-09-19T18:00	29164	14	-50.2	-84.2	303	9
2023-09-19T18:00	29192	14	-50.3	-84.3	305	9
2023-09-19T18:00	29217	13	-50.4	-84.4	306	9
2023-09-19T18:00	29245	13	-50.4	-84.4	307	9
2023-09-19T18:00	29273	13	-50.4	-84.4	307	9
2023-09-19T18:00	29301	13	-50.6	-84.5	307	9
2023-09-19T18:00	29331	13	-50.7	-84.6	307	9
2023-09-19T18:00	29359	13	-50.6	-84.5	306	10
2023-09-19T18:00	29383	13	-50.5	-84.5	306	10
2023-09-19T18:00	29403	13	-50.3	-84.3	304	10
2023-09-19T18:00	29443	13	-50.3	-84.3	302	10
2023-09-19T18:00	29464	13	-50.1	-85.1	299	10
2023-09-19T18:00	29500	13	-50.0	-85.0	296	11
2023-09-19T18:00	29532	13	-49.7	-84.8	293	11
2023-09-19T18:00	29569	13	-49.6	-84.7	292	11
2023-09-19T18:00	29590	13	-49.7	-84.8	291	12
2023-09-19T18:00	29615	13	-49.6	-84.7	292	12
2023-09-19T18:00	29643	13	-49.5	-84.6	295	12
2023-09-19T18:00	29670	13	-49.4	-84.6	298	12
2023-09-19T18:00	29701	13	-49.5	-84.6	301	12
2023-09-19T18:00	29729	12	-49.6	-84.7	303	12
2023-09-19T18:00	29755	12	-49.7	-84.8	305	12
2023-09-19T18:00	29787	12	-49.7	-84.8	304	12
2023-09-19T18:00	29807	12	-49.6	-84.7	303	12
2023-09-19T18:00	29821	12	-49.5	-84.6	300	12
2023-09-19T18:00	29875	12	-49.5	-84.6	298	12
2023-09-19T18:00	29904	12	-49.4	-84.6	295	12
2023-09-19T18:00	29939	12	-49.5	-84.6	293	12
2023-09-19T18:00	29959	12	-49.6	-84.7	291	13
2023-09-19T18:00	30017	12	-49.6	-84.7	290	13
2023-09-19T18:00	30037	12	-49.6	-84.7	290	13
2023-09-19T18:00	30053	12	-49.6	-84.7	290	13
2023-09-19T18:00	30095	12	-49.4	-84.6	291	13
2023-09-19T18:00	30112	12	-49.5	-84.6	291	13
2023-09-19T18:00	30156	12	-49.2	-84.4	291	13
2023-09-19T18:00	30172	12	-48.9	-84.2	290	13
2023-09-19T18:00	30184	12	-48.6		289	13
2023-09-19T18:00	30241	12	-48.3	-84.8	289	13
2023-09-19T18:00	30263	11	-47.9	-84.6	290	13
2023-09-19T18:00	30293	11	-47.7	-84.4	292	13
2023-09-19T18:00	30325	11	-47.6	-84.3	294	13
2023-09-19T18:00	30341	11	-47.6	-84.3	297	13
2023-09-19T18:00	30371	11	-47.5	-84.3	299	13
2023-09-19T18:00	30409	11	-47.6	-84.3	302	13
2023-09-19T18:00	30424	11	-47.5	-84.3	304	13
2023-09-19T18:00	30462	11	-47.5	-84.3	306	12
2023-09-19T18:00	30502	11	-47.3	-84.1	308	12
2023-09-19T18:00	30514	11	-47.2	-84.1	310	12
2023-09-19T18:00	30545	11	-47.1	-84.0	312	12
2023-09-19T18:00	30583	11	-47.2	-84.1	313	13
2023-09-19T18:00	30625	11	-47.2	-84.1	314	13
2023-09-19T18:00	30651	11	-47.1	-84.0	315	12
2023-09-19T18:00	30658	11	-47.0	-83.9	316	12
2023-09-19T18:00	30723	11	-47.0	-83.9	317	12
2023-09-19T18:00	30763	11	-46.9	-83.9	318	12
2023-09-19T18:00	30783	11	-46.9	-83.9	318	13
2023-09-19T18:00	30806	11	-47.0	-83.9	318	13
2023-09-19T18:00	30852	11	-47.0	-83.9	317	13
2023-09-19T18:00	30871	10	-46.5	-83.6	315	13
2023-09-19T18:00	30891	10	-46.2	-83.4	313	13
2023-09-19T18:00	30926	10	-46.1	-83.3	311	13
2023-09-19T18:00	30941	10	-45.9	-83.2	309	13
2023-09-19T18:00	30983	10	-45.9	-83.2	307	12
2023-09-19T18:00	31018	10	-45.9	-83.2	304	12
2023-09-19T18:00	31027	10	-46.0	-83.2	301	11
2023-09-19T18:00	31062	10	-46.0	-83.2	298	11
2023-09-19T18:00	31084	10	-46.2	-83.4	296	11
2023-09-19T18:00	31112	10	-46.4	-83.5	293	11
2023-09-19T18:00	31174	10	-46.3	-83.4	292	11
2023-09-19T18:00	31190	10	-46.5	-83.6	292	11
2023-09-19T18:00	31225	10	-46.6	-83.6	292	11
2023-09-19T18:00	31249	10	-46.6	-83.6	291	12
2023-09-19T18:00	31274	10	-46.6	-83.6	291	12
2023-09-19T18:00	31315	10	-46.7	-83.7	290	12
2023-09-19T18:00	31355	10	-46.7	-83.7	289	13
2023-09-19T18:00	31386	10	-46.7	-83.7	290	13
2023-09-19T18:00	31437	10	-46.7	-83.7	292	12
2023-09-19T18:00	31456	10	-46.6	-83.6	295	12
2023-09-19T18:00	31480	10	-46.7	-83.7	298	12
2023-09-19T18:00	31513	10	-46.8	-83.8	303	11
2023-09-19T18:00	31561	9	-47.0	-83.9	307	11
2023-09-19T18:00	31588	9	-47.1	-82.9	310	11
2023-09-19T18:00	31616	9	-47.3	-83.1	313	11
2023-09-19T18:00	31660	9	-47.4	-84.2	315	11
2023-09-19T18:00	31681	9	-47.2	-84.1	316	11
2023-09-19T18:00	31719	9	-46.6	-83.6	318	11
2023-09-19T18:00	31752	9	-46.3	-83.4	320	10
2023-09-19T18:00	31795	9	-45.9	-83.2	323	11
2023-09-19T18:00	31797	9	-45.5	-82.9	326	11
2023-09-19T18:00	31835	9	-45.4	-82.8	328	11
2023-09-19T18:00	31875	9	-45.3	-82.7	328	12
2023-09-19T18:00	31897	9	-45.4	-82.8	328	12
2023-09-19T18:00	31931	9	-45.1	-82.6	328	11
2023-09-19T18:00	31962	9	-44.5	-82.2	328	11
2023-09-19T18:00	32010	9	-44.2	-82.0	329	11
2023-09-19T18:00	32037	9	-44.0	-81.8	331	11
2023-09-19T18:00	32053	9	-44.0	-81.8	333	12
2023-09-19T18:00	32100	9	-44.2	-82.0	334	12
2023-09-19T18:00	32121	9	-44.4	-82.1	335	12
2023-09-19T18:00	32165	9	-44.7	-82.3	336	12
2023-09-19T18:00	32188	9	-44.9	-82.5	335	12
2023-09-19T18:00	32212	9	-45.1	-82.6	334	11
2023-09-19T18:00	32249	9	-45.0	-82.5	332	10
2023-09-19T18:00	32281	8	-44.9	-82.5	329	10
2023-09-19T18:00	32312	8	-45.0	-82.5	325	9
2023-09-19T18:00	32322	8	-44.8	-82.4	321	9
2023-09-19T18:00	32382	8	-44.5	-82.2	318	9
2023-09-19T18:00	32389	8	-44.6	-82.2	315	10
2023-09-19T18:00	32429	8	-44.7	-82.3	314	11
2023-09-19T18:00	32452	8	-44.5	-82.2	312	11
2023-09-19T18:00	32476	8	-44.6	-82.2	310	12
2023-09-19T18:00	32511	8	-44.5	-82.2	309	13
2023-09-19T18:00	32535	8	-44.4	-82.1	307	13
2023-09-19T18:00	32581	8	-44.4	-82.1	304	13
2023-09-19T18:00	32597	8	-44.4	-82.1	302	13
2023-09-19T18:00	32629	8	-44.3	-82.0	299	13
2023-09-19T18:00	32656	8	-44.2	-82.0	296	12
2023-09-19T18:00	32666	8	-44.2	-82.0	295	12
2023-09-19T18:00	32744	8	-44.4	-82.1	295	11
2023-09-19T18:00	32751	8	-44.6	-82.2	296	11
2023-09-19T18:00	32791	8	-44.4	-82.1	298	11
2023-09-19T18:00	32811	8	-44.2	-82.0	300	12
2023-09-19T18:00	32843	8	-44.0	-81.8	303	12
2023-09-19T18:00	32871	8	-43.9	-81.8	306	12
2023-09-19T18:00	32917	8	-44.0	-81.8	309	12
2023-09-19T18:00	32962	8	-44.2	-82.0	312	13
2023-09-19T18:00	32989	8	-44.1	-81.9	315	13
2023-09-19T18:00	33035	8	-44.0	-81.8	316	13
2023-09-19T18:00	33042	8	-43.8	-81.7	317	13
2023-09-19T18:00	33086	8	-43.5	-81.5	318	13
2023-09-19T18:00	33114	7	-43.3	-81.3	320	13
2023-09-19T18:00	33171	7	-43.2	-81.3	321	13
2023-09-19T18:00	33204	7	-43.6	-81.5	323	13
2023-09-19T18:00	33262	7	-43.6	-81.5	321	13
2023-09-19T18:00	33265	7	-43.2	-81.3	319	13
2023-09-19T18:00	33293	7	-43.0	-81.1	317	13
2023-09-19T18:00	33333	7	-42.9	-81.1	316	13
2023-09-19T18:00	33375	7	-42.8	-81.0	315	12
2023-09-19T18:00	33380	7	-42.7	-80.9	316	12
2023-09-19T18:00	33420	7	-42.6	-80.8	318	12
2023-09-19T18:00	33463	7	-42.4	-80.7	322	11
2023-09-19T18:00	33518	7	-42.3	-80.6	329	11
2023-09-19T18:00	33533	7	-42.4	-80.7	331	11
2023-09-19T18:00	33567	7	-42.3	-80.6	332	12
2023-09-19T18:00	33619	7	-42.2	-80.6	331	12
2023-09-19T18:00	33651	7	-42.1	-80.5	329	12
2023-09-19T18:00	33670	7	-41.9	-80.4	326	12
2023-09-19T18:00	33681	7	-41.6	-80.1	323	12
2023-09-19T18:00	33725	7	-41.5	-80.1	319	12
2023-09-19T18:00	33728	7	-41.5	-80.1	314	11
2023-09-19T18:00	33818	7	-41.6	-80.1	310	11
2023-09-19T18:00	33820	7	-41.5	-80.1	302	11
2023-09-19T18:00	33843	7	-41.6	-80.1	299	10
2023-09-19T18:00	33906	7	-41.7	-80.2	297	10
2023-09-19T18:00	33909	7	-41.8	-80.3	297	10
2023-09-19T18:00	33918	7	-41.6	-80.1	298	11
2023-09-19T18:00	33980	7	-41.0	-79.7	301	11
2023-09-19T18:00	34007	7	-40.9	-79.7	306	11
2023-09-19T18:00	34035	7	-40.8	-79.6	306	11
2023-09-19T18:00	34066	7	-40.9	-79.7	303	11
2023-09-19T18:00	34100	6	-40.8	-79.6	300	11
2023-09-19T18:00	34140	6	-40.4	-79.3	295	12
2023-09-19T18:00	34147	6	-40.2	-79.2	291	12
2023-09-19T18:00	34160	6	-40.0	-79.0	289	12
2023-09-19T18:00	34201	6	-39.8	-78.9	288	12
2023-09-19T18:00	34240	6	-39.5	-78.7	288	13
2023-09-19T18:00	34270	6	-39.3	-78.5	289	13
2023-09-19T18:00	34295	6	-38.9	-78.3	293	13
2023-09-19T18:00	34317	6	-39.0	-78.3	293	13
2023-09-19T18:00	34353	6	-39.2	-78.5	292	12
2023-09-19T18:00	34396	6	-39.2	-78.5	290	12
2023-09-19T18:00	34416	6	-39.1	-78.4	288	12
2023-09-19T18:00	34443	6	-38.7	-78.1	288	11
2023-09-19T18:00	34475	6	-38.0	-77.6	289	11
2023-09-19T18:00	34495	6	-37.2	-77.1	292	11
2023-09-19T18:00	34510	6	-36.0	-76.3	296	10
2023-09-19T18:00	34530	6	-35.6	-76.0	300	10
2023-09-19T18:00	34581	6	-35.6	-76.0	303	10
2023-09-20T00:00	-999					
2023-09-20T00:00	132	996	14.5	7.8	238	5
2023-09-20T00:00	157	993	15.4	7.2	241	7
2023-09-20T00:00	183	990	16.1	7.0	244	9
2023-09-20T00:00	210	987	16.3	7.0	246	11
2023-09-20T00:00	236	984	16.9	6.9	247	12
2023-09-20T00:00	260	982	16.9	6.9	248	14
2023-09-20T00:00	280	979	17.0	6.9	249	15
2023-09-20T00:00	302	977	17.2	6.9	250	16
2023-09-20T00:00	325	974	17.1	6.9	252	17
2023-09-20T00:00	349	971	16.9	6.8	255	17
2023-09-20T00:00	372	969	16.8	6.7	257	17
2023-09-20T00:00	392	966	16.7	6.8	258	17
2023-09-20T00:00	420	963	16.5	6.8	259	17
2023-09-20T00:00	447	960	16.3	6.7	260	17
2023-09-20T00:00	469	958	16.2	6.5	261	17
2023-09-20T00:00	494	955	16.0	6.2	262	17
2023-09-20T00:00	518	952	15.8	6.1	263	17
2023-09-20T00:00	545	949	15.6	6.0	265	17
2023-09-20T00:00	568	947	15.4	6.0	266	18
2023-09-20T00:00	597	944	15.1	5.8	267	18
2023-09-20T00:00	620	941	14.9	5.9	266	18
2023-09-20T00:00	643	938	14.7	6.0	266	18
2023-09-20T00:00	666	936	14.5	5.9	265	18
2023-09-20T00:00	689	933	14.3	6.0	264	17
2023-09-20T00:00	718	930	14.1	5.9	264	17
2023-09-20T00:00	738	928	13.9	5.9	265	16
2023-09-20T00:00	761	925	13.7	5.8	265	16
2023-09-20T00:00	787	922	13.4	5.8	265	16
2023-09-20T00:00	814	920	13.2	5.8	266	16
2023-09-20T00:00	840	917	13.0	5.9	266	16
2023-09-20T00:00	870	913	12.7	5.7	266	16
2023-09-20T00:00	900	910	12.5	5.6	267	16
2023-09-20T00:00	922	908	12.3	5.6	267	17
2023-09-20T00:00	940	906	12.1	5.6	268	17
2023-09-20T00:00	959	904	12.0	5.6	268	16
2023-09-20T00:00	982	901	11.8	5.6	267	15
2023-09-20T00:00	1011	898	11.5	5.4	267	15
2023-09-20T00:00	1043	895	11.2	5.1	267	14
2023-09-20T00:00	1069	892	11.0	5.1	267	14
2023-09-20T00:00	1096	889	10.8	5.1	268	14
2023-09-20T00:00	1125	886	10.6	4.7	268	14
2023-09-20T00:00	1149	883	10.4	4.7	268	14
2023-09-20T00:00	1172	881	10.2	4.8	267	14
2023-09-20T00:00	1197	878	10.0	4.5	267	14
2023-09-20T00:00	1221	876	9.8	4.4	266	14
2023-09-20T00:00	1245	873	9.7	4.3	265	13
2023-09-20T00:00	1267	871	9.6	4.4	265	13
2023-09-20T00:00	1293	868	9.4	4.0	264	13
2023-09-20T00:00	1321	865	9.3	3.8	263	13
2023-09-20T00:00	1343	863	9.1	3.6	263	13
2023-09-20T00:00	1365	861	9.0	3.5	261	13
2023-09-20T00:00	1390	858	8.9	3.2	260	12
2023-09-20T00:00	1422	855	8.7	3.0	258	12
2023-09-20T00:00	1447	852	8.5	3.0	256	11
2023-09-20T00:00	1469	850	8.3	2.5	254	11
2023-09-20T00:00	1493	848	8.4	2.4	253	11
2023-09-20T00:00	1515	845	8.2	2.2	252	10
2023-09-20T00:00	1537	843	8.1	1.9	252	10
2023-09-20T00:00	1557	841	8.1	1.6	250	10
2023-09-20T00:00	1583	838	8.1	1.5	248	10
2023-09-20T00:00	1610	835	7.9	1.4	245	10
2023-09-20T00:00	1641	833	7.7	0.9	243	10
2023-09-20T00:00	1665	830	7.5	0.8	240	11
2023-09-20T00:00	1688	828	7.4	0.5	239	11
2023-09-20T00:00	1709	826	7.3	0.4	237	12
2023-09-20T00:00	1733	823	7.5	0.0	236	12
2023-09-20T00:00	1767	820	7.7	-0.8	235	12
2023-09-20T00:00	1786	818	7.7	-1.5	235	12
2023-09-20T00:00	1804	816	7.7	-1.4	235	13
2023-09-20T00:00	1823	814	7.8	-1.8	235	13
2023-09-20T00:00	1844	812	7.8	-1.4	236	14
2023-09-20T00:00	1859	811	7.8	-1.1	236	14
2023-09-20T00:00	1881	809	7.7	-0.3	236	14
2023-09-20T00:00	1901	807	7.6	0.0	234	14
2023-09-20T00:00	1918	805	7.5	-0.1	232	13
2023-09-20T00:00	1943	803	7.3	-0.1	230	13
2023-09-20T00:00	1966	800	7.1	-0.1	229	13
2023-09-20T00:00	1990	798	7.0	-0.1	228	13
2023-09-20T00:00	2012	796	6.9	-0.3	228	14
2023-09-20T00:00	2035	793	6.9	-0.6	228	14
2023-09-20T00:00	2058	791	6.8	-1.1	228	14
2023-09-20T00:00	2075	789	6.7	-1.2	229	15
2023-09-20T00:00	2098	788	6.8	-1.3	230	15
2023-09-20T00:00	2118	786	6.9	-1.3	231	15
2023-09-20T00:00	2137	784	6.9	-0.8	232	15
2023-09-20T00:00	2167	781	7.2	1.6	232	14
2023-09-20T00:00	2187	779	7.3	1.4	231	13
2023-09-20T00:00	2204	778	7.2	1.6	230	12
2023-09-20T00:00	2223	776	7.1	1.6	230	12
2023-09-20T00:00	2238	774	6.9	1.7	231	12
2023-09-20T00:00	2264	772	6.7	1.5	233	12
2023-09-20T00:00	2284	770	6.6		235	12
2023-09-20T00:00	2312	767	6.4	1.7	237	12
2023-09-20T00:00	2336	765	6.2	1.7	239	13
2023-09-20T00:00	2359	763	6.0	1.6	241	13
2023-09-20T00:00	2388	760	5.8	1.3	243	13
2023-09-20T00:00	2418	757	5.5	1.7	244	13
2023-09-20T00:00	2446	755	5.3	1.7	245	13
2023-09-20T00:00	2466	753	5.2	1.7	246	14
2023-09-20T00:00	2486	751	5.0	1.6	247	14
2023-09-20T00:00	2515	749	4.8	1.4	248	15
2023-09-20T00:00	2531	747	4.7	1.5	249	15
2023-09-20T00:00	2558	745	4.5	1.5	250	15
2023-09-20T00:00	2580	743	4.3	1.6	250	15
2023-09-20T00:00	2599	741	4.3	1.2	249	15
2023-09-20T00:00	2621	739	4.2	1.3	249	14
2023-09-20T00:00	2650	736	4.0	1.2	250	14
2023-09-20T00:00	2670	734	3.9	0.9	252	13
2023-09-20T00:00	2695	732	3.8	0.5	254	12
2023-09-20T00:00	2716	730	3.9	0.4	256	12
2023-09-20T00:00	2744	728	4.1	0.0	256	12
2023-09-20T00:00	2771	725	4.0	-0.3	254	12
2023-09-20T00:00	2793	723	3.9	-0.4	251	12
2023-09-20T00:00	2809	722	4.1	-0.6	249	12
2023-09-20T00:00	2835	720	4.1	-0.9	248	13
2023-09-20T00:00	2859	718	4.0	-1.1	249	13
2023-09-20T00:00	2881	715	4.0	-1.2	251	13
2023-09-20T00:00	2908	713	4.0	-1.2	253	13
2023-09-20T00:00	2926	711	3.9	-1.2	255	12
2023-09-20T00:00	2950	710	3.8	-1.3	256	12
2023-09-20T00:00	2973	708	3.7	-1.4	256	12
2023-09-20T00:00	2997	705	3.6	-1.8	257	12
2023-09-20T00:00	3023	703	3.5	-2.1	257	12
2023-09-20T00:00	3050	701	3.5	-2.2	257	13
2023-09-20T00:00	3080	698	3.4	-2.0	256	13
2023-09-20T00:00	3106	696	3.3	-2.4	255	14
2023-09-20T00:00	3126	694	3.3	-2.6	254	14
2023-09-20T00:00	3156	692	3.3	-4.5	253	13
2023-09-20T00:00	3181	690	3.2	-5.3	252	13
2023-09-20T00:00	3200	688	3.0	-5.7	252	13
2023-09-20T00:00	3219	686	2.9	-5.6	252	13
2023-09-20T00:00	3242	684	2.8	-6.0	252	13
2023-09-20T00:00	3270	682	2.7	-6.4	253	13
2023-09-20T00:00	3294	680	2.5	-6.5	254	13
2023-09-20T00:00	3321	678	2.4	-7.0	254	12
2023-09-20T00:00	3348	676	2.3	-6.0	253	12
2023-09-20T00:00	3374	674	2.2	-5.8	252	12
2023-09-20T00:00	3395	672	2.1	-6.1	252	12
2023-09-20T00:00	3420	670	2.0	-6.7	252	13
2023-09-20T00:00	3447	667	1.8	-6.8	253	13
2023-09-20T00:00	3483	665	1.8	-5.8	254	14
2023-09-20T00:00	3508	662	1.8	-6.8	255	15
2023-09-20T00:00	3534	660	1.8	-6.7	255	16
2023-09-20T00:00	3555	658	1.7	-7.0	256	17
2023-09-20T00:00	3585	656	1.4	-7.1	257	16
2023-09-20T00:00	3614	654	1.2	-7.2	259	16
2023-09-20T00:00	3638	652	1.0	-7.3	261	16
2023-09-20T00:00	3657	650	0.8	-7.2	263	15
2023-09-20T00:00	3688	648	0.6	-7.2	263	15
2023-09-20T00:00	3715	646	0.4	-7.4	263	14
2023-09-20T00:00	3735	644	0.2	-7.4	261	14
2023-09-20T00:00	3766	642	-0.1	-7.4	259	14
2023-09-20T00:00	3789	640	-0.2	-7.6	258	14
2023-09-20T00:00	3814	638	-0.4	-7.6	258	14
2023-09-20T00:00	3842	635	-0.7	-7.8	258	14
2023-09-20T00:00	3865	634	-0.9	-7.9	257	13
2023-09-20T00:00	3886	632	-1.1	-8.0	255	13
2023-09-20T00:00	3909	630	-1.2	-8.1	252	13
2023-09-20T00:00	3931	628	-1.4	-8.2	250	13
2023-09-20T00:00	3958	626	-1.6	-8.2	248	13
2023-09-20T00:00	3985	624	-1.9	-8.4	248	13
2023-09-20T00:00	4007	622	-2.0	-8.3	249	14
2023-09-20T00:00	4032	620	-2.2	-8.5	250	14
2023-09-20T00:00	4056	619	-2.4	-8.5	251	14
2023-09-20T00:00	4077	617	-2.6	-8.6	252	14
2023-09-20T00:00	4103	615	-2.9	-8.6	251	14
2023-09-20T00:00	4132	613	-3.1	-8.5	250	14
2023-09-20T00:00	4152	611	-3.3	-8.1	249	15
2023-09-20T00:00	4176	609	-3.4	-7.9	248	15
2023-09-20T00:00	4210	607	-3.6	-9.2	247	15
2023-09-20T00:00	4233	605	-3.7	-8.1	248	15
2023-09-20T00:00	4258	603	-3.9	-7.0	249	15
2023-09-20T00:00	4286	601	-4.0	-7.4	251	15
2023-09-20T00:00	4318	598	-4.1	-6.8	254	15
2023-09-20T00:00	4346	596	-4.1	-7.3	256	15
2023-09-20T00:00	4370	595	-4.0	-9.3	257	16
2023-09-20T00:00	4386	593	-4.1	-10.3	258	16
2023-09-20T00:00	4405	592	-4.2	-10.4	258	15
2023-09-20T00:00	4425	590	-4.4	-10.9	259	15
2023-09-20T00:00	4452	588	-4.3	-12.1	260	15
2023-09-20T00:00	4485	586	-4.4	-13.2	262	14
2023-09-20T00:00	4503	584	-4.4	-13.4	262	14
2023-09-20T00:00	4520	583	-4.4	-12.2	261	15
2023-09-20T00:00	4538	582	-4.6	-12.5	259	15
2023-09-20T00:00	4555	581	-4.7	-12.3	257	15
2023-09-20T00:00	4579	579	-4.8		255	16
2023-09-20T00:00	4609	577	-5.0	-13.4	254	16
2023-09-20T00:00	4630	575	-5.1	-13.9	254	16
2023-09-20T00:00	4649	574	-5.3	-14.5	254	16
2023-09-20T00:00	4668	572	-5.4	-14.5	255	16
2023-09-20T00:00	4686	571	-5.5	-15.4	256	15
2023-09-20T00:00	4707	569	-5.6	-15.7	258	15
2023-09-20T00:00	4732	568	-5.7	-16.9	259	15
2023-09-20T00:00	4761	566	-5.9	-17.9	260	14
2023-09-20T00:00	4782	564	-6.0	-17.6	260	14
2023-09-20T00:00	4808	562	-6.3	-17.4	259	14
2023-09-20T00:00	4841	560	-6.5	-16.9	258	14
2023-09-20T00:00	4858	559	-6.7	-16.9	257	14
2023-09-20T00:00	4878	557	-6.9	-16.9	256	13
2023-09-20T00:00	4907	555	-7.2	-17.0	256	13
2023-09-20T00:00	4936	553	-7.4	-16.3	257	13
2023-09-20T00:00	4953	552	-7.6	-16.4	257	14
2023-09-20T00:00	4972	551	-7.7	-15.9	256	14
2023-09-20T00:00	4990	549	-7.9	-15.6	254	14
2023-09-20T00:00	5007	548	-8.1	-15.7	251	15
2023-09-20T00:00	5031	546	-8.3	-15.5	249	15
2023-09-20T00:00	5058	544	-8.4	-15.7	247	16
2023-09-20T00:00	5086	542	-8.6	-14.1	247	16
2023-09-20T00:00	5113	541	-8.8	-13.1	247	16
2023-09-20T00:00	5140	539	-8.9	-13.0	248	17
2023-09-20T00:00	5161	537	-9.0	-13.2	249	16
2023-09-20T00:00	5181	536	-9.1	-13.0	251	16
2023-09-20T00:00	5205	534	-9.3	-13.0	253	16
2023-09-20T00:00	5238	532	-9.4	-13.8	255	16
2023-09-20T00:00	5260	531	-9.5	-14.2	256	15
2023-09-20T00:00	5276	529	-9.6	-14.3	257	15
2023-09-20T00:00	5298	528	-9.7	-14.4	258	14
2023-09-20T00:00	5325	526	-9.9	-14.7	260	14
2023-09-20T00:00	5364	524	-10.1	-14.9	260	13
2023-09-20T00:00	5382	522	-10.2	-15.1	260	13
2023-09-20T00:00	5401	521	-10.3	-15.2	259	13
2023-09-20T00:00	5420	520	-10.4	-15.2	258	13
2023-09-20T00:00	5441	518	-10.6	-15.4	256	13
2023-09-20T00:00	5467	516	-10.8		253	13
2023-09-20T00:00	5497	514	-11.1	-15.7	252	13
2023-09-20T00:00	5523	513	-11.3	-15.7	251	13
2023-09-20T00:00	5549	511	-11.6	-15.9	252	13
2023-09-20T00:00	5567	510	-11.7	-16.0	255	13
2023-09-20T00:00	5591	508	-11.9	-16.1	259	13
2023-09-20T00:00	5622	506	-12.1	-16.3	263	13
2023-09-20T00:00	5654	504	-12.2	-16.8	266	13
2023-09-20T00:00	5684	502	-12.3	-17.0	267	13
2023-09-20T00:00	5710	500	-12.4	-17.0	267	13
2023-09-20T00:00	5735	499	-12.6	-17.0	264	13
2023-09-20T00:00	5760	497	-12.9	-17.0	262	13
2023-09-20T00:00	5786	495	-13.1	-16.8	260	13
2023-09-20T00:00	5805	494	-13.2	-16.7	260	13
2023-09-20T00:00	5824	493	-13.2	-17.5	260	13
2023-09-20T00:00	5844	492	-13.3	-17.8	262	13
2023-09-20T00:00	5862	490	-13.5	-18.0	263	13
2023-09-20T00:00	5885	489	-13.5	-18.4	263	13
2023-09-20T00:00	5916	487	-13.7	-18.4	264	13
2023-09-20T00:00	5947	485	-13.9	-18.4	264	13
2023-09-20T00:00	5971	483	-14.2	-18.4	264	13
2023-09-20T00:00	5997	482	-14.4	-18.3	265	12
2023-09-20T00:00	6029	480	-14.6	-18.3	265	11
2023-09-20T00:00	6050	478	-14.8	-18.4	266	11
2023-09-20T00:00	6069	477	-15.0	-18.4	266	10
2023-09-20T00:00	6089	476	-15.2	-18.5	266	10
2023-09-20T00:00	6109	475	-15.4	-18.6	265	10
2023-09-20T00:00	6137	473	-15.4	-19.1	265	11
2023-09-20T00:00	6167	471	-15.6	-19.5	265	11
2023-09-20T00:00	6189	470	-15.8	-19.6	266	11
2023-09-20T00:00	6205	469	-15.9	-19.6	267	10
2023-09-20T00:00	6223	468	-16.0	-19.8	268	10
2023-09-20T00:00	6241	466	-16.1	-20.0	269	10
2023-09-20T00:00	6261	465	-16.3	-20.2	269	10
2023-09-20T00:00	6280	464	-16.4	-20.2	269	10
2023-09-20T00:00	6300	463	-16.5	-20.6	269	10
2023-09-20T00:00	6319	462	-16.5	-21.0	269	10
2023-09-20T00:00	6334	461	-16.7	-21.1	269	10
2023-09-20T00:00	6353	460	-16.8	-21.0	269	10
2023-09-20T00:00	6371	458	-17.0	-21.1	269	10
2023-09-20T00:00	6391	457	-17.1	-21.2	270	10
2023-09-20T00:00	6409	456	-17.3	-21.3	270	10
2023-09-20T00:00	6426	455	-17.4	-21.4	271	10
2023-09-20T00:00	6445	454	-17.5	-21.6	271	10
2023-09-20T00:00	6461	453	-17.6	-21.8	271	10
2023-09-20T00:00	6479	452	-17.6	-22.2	271	11
2023-09-20T00:00	6499	451	-17.7	-22.4	271	11
2023-09-20T00:00	6520	449	-17.9	-22.7	271	11
2023-09-20T00:00	6541	448	-18.0	-22.7	271	12
2023-09-20T00:00	6569	447	-18.2	-23.1	272	12
2023-09-20T00:00	6597	445	-18.4	-23.0	272	13
2023-09-20T00:00	6624	443	-18.6	-23.2	272	13
2023-09-20T00:00	6651	442	-18.8	-23.7	272	14
2023-09-20T00:00	6683	440	-18.9	-23.8	273	14
2023-09-20T00:00	6716	438	-19.1	-23.8	273	14
2023-09-20T00:00	6745	436	-19.4	-24.2	272	14
2023-09-20T00:00	6768	435	-19.6	-24.2	271	14
2023-09-20T00:00	6801	433	-19.8	-24.5	270	14
2023-09-20T00:00	6836	431	-20.0	-24.6	268	14
2023-09-20T00:00	6860	429	-20.2	-24.9	266	15
2023-09-20T00:00	6879	428	-20.4	-25.0	265	15
2023-09-20T00:00	6898	427	-20.5	-24.8	264	15
2023-09-20T00:00	6925	426	-20.7	-25.0	262	15
2023-09-20T00:00	6955	424	-20.8	-25.4	259	15
2023-09-20T00:00	6989	422	-21.0	-25.6	257	16
2023-09-20T00:00	7011	421	-21.2	-25.7	255	16
2023-09-20T00:00	7036	419	-21.4	-25.9	254	17
2023-09-20T00:00	7071	417	-21.6		254	17
2023-09-20T00:00	7098	416	-21.8	-26.4	255	17
2023-09-20T00:00	7125	414	-22.0	-26.6	256	17
2023-09-20T00:00	7155	413	-22.3	-26.8	257	17
2023-09-20T00:00	7185	411	-22.5	-27.2	258	16
2023-09-20T00:00	7212	409	-22.7	-27.5	259	16
2023-09-20T00:00	7242	408	-23.0	-27.8	260	16
2023-09-20T00:00	7273	406	-23.2	-28.0	260	15
2023-09-20T00:00	7306	404	-23.4	-28.5	260	15
2023-09-20T00:00	7324	403	-23.6	-28.7	259	15
2023-09-20T00:00	7344	402	-23.8	-28.8	259	15
2023-09-20T00:00	7361	401	-23.9	-28.9	259	15
2023-09-20T00:00	7379	400	-24.1	-29.0	259	16
2023-09-20T00:00	7396	399	-24.3	-29.2	259	16
2023-09-20T00:00	7411	398	-24.4	-29.3	259	16
2023-09-20T00:00	7428	397	-24.5	-29.3	259	16
2023-09-20T00:00	7447	396	-24.7	-29.6	259	16
2023-09-20T00:00	7464	395	-24.8	-29.6	259	16
2023-09-20T00:00	7481	395	-25.0	-29.9	259	15
2023-09-20T00:00	7499	394	-25.0	-30.4	259	15
2023-09-20T00:00	7517	393	-25.1	-30.7	259	15
2023-09-20T00:00	7534	392	-25.2	-31.5	259	15
2023-09-20T00:00	7549	391	-25.3	-31.7	260	15
2023-09-20T00:00	7569	390	-25.4	-32.1	260	15
2023-09-20T00:00	7587	389	-25.5	-32.5	261	15
2023-09-20T00:00	7605	388	-25.6	-32.9	261	16
2023-09-20T00:00	7625	387	-25.8	-32.9	261	16
2023-09-20T00:00	7649	385	-26.0	-32.9	260	16
2023-09-20T00:00	7687	384	-26.3	-33.1	259	16
2023-09-20T00:00	7715	382	-26.6	-33.3	259	16
2023-09-20T00:00	7732	381	-26.7	-33.2	258	16
2023-09-20T00:00	7751	380	-26.9	-33.1	259	15
2023-09-20T00:00	7770	379	-27.1	-33.3	259	15
2023-09-20T00:00	7788	378	-27.3	-33.5	260	15
2023-09-20T00:00	7802	377	-27.4	-33.5	260	15
2023-09-20T00:00	7824	376	-27.6	-34.0	260	15
2023-09-20T00:00	7843	375	-27.7	-34.5	260	15
2023-09-20T00:00	7861	374	-27.8	-34.6	260	15
2023-09-20T00:00	7879	373	-28.0	-34.9	260	15
2023-09-20T00:00	7896	373	-28.1	-35.0	260	15
2023-09-20T00:00	7915	372	-28.3	-35.1	261	15
2023-09-20T00:00	7935	370	-28.4	-35.1	261	15
2023-09-20T00:00	7955	369	-28.6	-35.2	262	14
2023-09-20T00:00	7974	368	-28.8	-35.3	263	14
2023-09-20T00:00	7994	368	-28.9	-35.2	263	14
2023-09-20T00:00	8011	367	-29.1	-35.3	264	14
2023-09-20T00:00	8032	366	-29.2	-35.5	264	14
2023-09-20T00:00	8056	364	-29.4	-35.6	265	13
2023-09-20T00:00	8085	363	-29.6	-35.4	265	13
2023-09-20T00:00	8117	361	-29.8	-35.6	265	13
2023-09-20T00:00	8142	360	-30.1	-35.6	265	13
2023-09-20T00:00	8165	359	-30.3	-35.6	265	13
2023-09-20T00:00	8190	358	-30.5	-35.5	265	14
2023-09-20T00:00	8215	356	-30.7	-35.4	265	14
2023-09-20T00:00	8241	355	-31.0	-35.6	265	14
2023-09-20T00:00	8269	354	-31.2	-35.9	266	15
2023-09-20T00:00	8298	352	-31.4	-36.5	266	15
2023-09-20T00:00	8327	351	-31.6	-36.7	267	15
2023-09-20T00:00	8357	349	-31.9	-36.8	268	16
2023-09-20T00:00	8382	348	-32.1	-37.1	268	15
2023-09-20T00:00	8407	347	-32.3	-37.1	267	15
2023-09-20T00:00	8433	345	-32.5	-37.3	267	15
2023-09-20T00:00	8465	344	-32.8	-37.5	267	14
2023-09-20T00:00	8493	343	-33.1	-38.2	266	14
2023-09-20T00:00	8520	341	-33.3	-39.4	265	14
2023-09-20T00:00	8546	340	-33.5	-39.8	264	14
2023-09-20T00:00	8573	339	-33.8	-40.3	263	15
2023-09-20T00:00	8601	337	-34.0	-40.1	262	15
2023-09-20T00:00	8630	336	-34.3	-40.5	262	15
2023-09-20T00:00	8657	335	-34.5	-40.9	263	14
2023-09-20T00:00	8686	333	-34.8	-41.2	265	14
2023-09-20T00:00	8717	332	-35.1	-41.3	267	14
2023-09-20T00:00	8748	330	-35.3	-41.1	268	13
2023-09-20T00:00	8776	329	-35.6	-40.7	268	13
2023-09-20T00:00	8803	328	-35.8	-40.7	268	13
2023-09-20T00:00	8829	326	-36.1	-40.8	268	13
2023-09-20T00:00	8858	325	-36.3	-40.6	267	13
2023-09-20T00:00	8886	324	-36.6	-41.0	268	13
2023-09-20T00:00	8913	322	-36.7	-41.5	269	13
2023-09-20T00:00	8937	321	-36.9	-41.5	270	13
2023-09-20T00:00	8965	320	-37.0	-43.3	271	13
2023-09-20T00:00	8991	319	-37.2		271	13
2023-09-20T00:00	9019	318	-37.3	-45.8	271	13
2023-09-20T00:00	9041	317	-37.4	-46.8	270	13
2023-09-20T00:00	9065	315	-37.5	-47.2	268	12
2023-09-20T00:00	9088	314	-37.6	-47.8	267	12
2023-09-20T00:00	9111	313	-37.7	-46.6	267	13
2023-09-20T00:00	9137	312	-38.0	-46.1	268	13
2023-09-20T00:00	9164	311	-38.2	-46.1	268	13
2023-09-20T00:00	9191	310	-38.5	-46.3	269	13
2023-09-20T00:00	9217	309	-38.7	-46.4	270	13
2023-09-20T00:00	9241	307	-39.0	-46.7	270	13
2023-09-20T00:00	9266	306	-39.2	-46.6	271	13
2023-09-20T00:00	9294	305	-39.4	-46.7	272	13
2023-09-20T00:00	9319	304	-39.6	-47.1	273	13
2023-09-20T00:00	9348	303	-39.9	-47.3	274	13
2023-09-20T00:00	9377	301	-40.2	-47.5	275	13
2023-09-20T00:00	9409	300	-40.4	-47.7	275	14
2023-09-20T00:00	9440	299	-40.7	-48.1	275	14
2023-09-20T00:00	9471	297	-41.0	-48.5	276	14
2023-09-20T00:00	9499	296	-41.3	-48.3	276	15
2023-09-20T00:00	9529	295	-41.6	-48.4	277	15
2023-09-20T00:00	9558	294	-41.9	-48.6	278	15
2023-09-20T00:00	9585	292	-42.1	-49.1	279	15
2023-09-20T00:00	9611	291	-42.3	-49.5	281	15
2023-09-20T00:00	9639	290	-42.5	-49.5	281	15
2023-09-20T00:00	9663	289	-42.8	-49.6	282	15
2023-09-20T00:00	9687	288	-43.0	-49.6	282	15
2023-09-20T00:00	9711	287	-43.2	-49.8	283	15
2023-09-20T00:00	9731	286	-43.4	-49.9	284	15
2023-09-20T00:00	9754	285	-43.6	-50.1	284	15
2023-09-20T00:00	9776	284	-43.8	-50.4	285	15
2023-09-20T00:00	9800	283	-43.9	-50.6	286	15
2023-09-20T00:00	9820	282	-44.1	-50.9	286	15
2023-09-20T00:00	9840	281	-44.3	-51.2	286	16
2023-09-20T00:00	9862	281	-44.5	-51.4	286	16
2023-09-20T00:00	9882	280	-44.6	-51.6	285	16
2023-09-20T00:00	9903	279	-44.8	-51.7	285	16
2023-09-20T00:00	9920	278	-45.0	-51.9	285	16
2023-09-20T00:00	9941	277	-45.1	-52.0	286	16
2023-09-20T00:00	9960	276	-45.3	-52.2	286	16
2023-09-20T00:00	9979	276	-45.5	-52.3	287	15
2023-09-20T00:00	9998	275	-45.7	-52.3	287	15
2023-09-20T00:00	10015	274	-45.9	-52.3	288	15
2023-09-20T00:00	10035	273	-46.0	-52.3	288	15
2023-09-20T00:00	10052	273	-46.2	-52.4	288	15
2023-09-20T00:00	10070	272	-46.4	-52.5	288	15
2023-09-20T00:00	10090	271	-46.6	-52.6	289	15
2023-09-20T00:00	10109	270	-46.7	-52.7	289	15
2023-09-20T00:00	10126	270	-46.9	-52.9	289	16
2023-09-20T00:00	10144	269	-47.1	-53.1	289	15
2023-09-20T00:00	10160	268	-47.2	-53.3	289	15
2023-09-20T00:00	10180	267	-47.4	-53.4	290	15
2023-09-20T00:00	10198	267	-47.5	-53.4	290	15
2023-09-20T00:00	10215	266	-47.7	-53.8	291	15
2023-09-20T00:00	10234	265	-47.8	-54.0	291	15
2023-09-20T00:00	10253	265	-48.0	-54.1	292	15
2023-09-20T00:00	10273	264	-48.2	-54.2	292	15
2023-09-20T00:00	10291	263	-48.4	-54.2	293	15
2023-09-20T00:00	10307	262	-48.5	-54.2	293	15
2023-09-20T00:00	10325	262	-48.7	-54.2	293	15
2023-09-20T00:00	10345	261	-48.9	-54.4	293	15
2023-09-20T00:00	10362	260	-49.1	-54.7	294	15
2023-09-20T00:00	10382	259	-49.2	-55.0	294	15
2023-09-20T00:00	10400	259	-49.4	-55.5	294	15
2023-09-20T00:00	10420	258	-49.6	-55.8	293	15
2023-09-20T00:00	10437	257	-49.7	-55.8	293	15
2023-09-20T00:00	10455	257	-49.9	-55.9	293	15
2023-09-20T00:00	10475	256	-50.1	-56.1	293	15
2023-09-20T00:00	10493	255	-50.2	-56.3	294	15
2023-09-20T00:00	10509	254	-50.4	-56.6	294	15
2023-09-20T00:00	10528	254	-50.5	-56.7	294	15
2023-09-20T00:00	10545	253	-50.7	-56.8	295	15
2023-09-20T00:00	10564	252	-50.9	-57.1	295	15
2023-09-20T00:00	10583	252	-51.0	-57.4	295	15
2023-09-20T00:00	10601	251	-51.2	-57.7	296	16
2023-09-20T00:00	10621	250	-51.4	-57.7	296	16
2023-09-20T00:00	10640	249	-51.5	-57.3	297	16
2023-09-20T00:00	10663	249	-51.7	-57.2	297	16
2023-09-20T00:00	10680	248	-51.9	-57.4	297	16
2023-09-20T00:00	10700	247	-52.1	-57.6	297	16
2023-09-20T00:00	10720	246	-52.3	-57.6	297	16
2023-09-20T00:00	10741	245	-52.5	-57.8	297	17
2023-09-20T00:00	10761	245	-52.6	-58.0	297	17
2023-09-20T00:00	10782	244	-52.8	-58.3	297	17
2023-09-20T00:00	10803	243	-53.0	-58.3	297	17
2023-09-20T00:00	10824	242	-53.1	-58.0	298	17
2023-09-20T00:00	10845	242	-53.3	-57.8	298	18
2023-09-20T00:00	10867	241	-53.5	-57.6	298	18
2023-09-20T00:00	10889	240	-53.7	-57.2	299	18
2023-09-20T00:00	10908	239	-53.8	-56.9	299	17
2023-09-20T00:00	10930	238	-54.0	-56.9	299	17
2023-09-20T00:00	10951	238	-54.1	-57.0	300	16
2023-09-20T00:00	10970	237	-54.2	-57.7	301	16
2023-09-20T00:00	10989	236	-53.9	-59.3	302	15
2023-09-20T00:00	11012	235	-53.5	-62.3	303	15
2023-09-20T00:00	11037	235	-52.9	-65.4	303	14
2023-09-20T00:00	11058	234	-52.9	-66.5	304	14
2023-09-20T00:00	11081	233	-52.9	-66.0	305	13
2023-09-20T00:00	11102	232	-53.0	-65.3	305	13
2023-09-20T00:00	11120	231	-53.0	-64.7	305	12
2023-09-20T00:00	11143	231	-52.6	-64.3	305	12
2023-09-20T00:00	11162	230	-52.7	-64.7	305	12
2023-09-20T00:00	11184	229	-52.8	-64.8	304	12
2023-09-20T00:00	11207	228	-53.0	-65.1	303	12
2023-09-20T00:00	11226	228	-53.1	-65.5	302	12
2023-09-20T00:00	11248	227	-53.2	-66.0	300	11
2023-09-20T00:00	11269	226	-53.4	-66.5	299	11
2023-09-20T00:00	11290	225	-53.5	-66.8	298	11
2023-09-20T00:00	11316	225	-53.6	-67.0	297	11
2023-09-20T00:00	11339	224	-53.8	-67.1	295	10
2023-09-20T00:00	11365	223	-54.1	-67.1	293	10
2023-09-20T00:00	11387	222	-54.2	-67.0	292	11
2023-09-20T00:00	11410	221	-54.4	-67.0	290	11
2023-09-20T00:00	11431	220	-54.6	-67.1	290	11
2023-09-20T00:00	11452	220	-54.7	-67.3	290	12
2023-09-20T00:00	11473	219	-54.7	-67.7	289	12
2023-09-20T00:00	11493	218	-54.8	-68.2	288	13
2023-09-20T00:00	11513	218	-54.9	-68.6	286	13
2023-09-20T00:00	11533	217	-54.8	-68.6	284	13
2023-09-20T00:00	11551	216	-54.7	-68.6	282	14
2023-09-20T00:00	11574	216	-54.8	-68.5	281	14
2023-09-20T00:00	11593	215	-55.0	-68.5	279	14
2023-09-20T00:00	11611	214	-55.2	-68.6	278	15
2023-09-20T00:00	11631	214	-55.3	-68.6	276	15
2023-09-20T00:00	11649	213	-55.4	-68.7	274	15
2023-09-20T00:00	11670	212	-55.6	-68.8	273	15
2023-09-20T00:00	11688	212	-55.7	-68.8	271	15
2023-09-20T00:00	11707	211	-55.7	-68.8	271	15
2023-09-20T00:00	11725	211	-55.7	-68.7	271	15
2023-09-20T00:00	11744	210	-55.8	-68.7	272	15
2023-09-20T00:00	11767	209	-55.9	-68.6	273	15
2023-09-20T00:00	11786	209	-56.0	-68.5	275	15
2023-09-20T00:00	11803	208	-55.8	-68.2	276	15
2023-09-20T00:00	11823	207	-55.8	-68.2	278	15
2023-09-20T00:00	11842	207	-55.9	-68.4	279	15
2023-09-20T00:00	11862	206	-55.9	-68.4	279	15
2023-09-20T00:00	11883	205	-56.0	-68.5	280	15
2023-09-20T00:00	11902	205	-56.2	-68.6	279	15
2023-09-20T00:00	11923	204	-56.4	-68.6	279	16
2023-09-20T00:00	11941	204	-56.4	-68.6	279	16
2023-09-20T00:00	11962	203	-56.5	-68.6	278	17
2023-09-20T00:00	11981	202	-56.6	-68.8	278	17
2023-09-20T00:00	12001	202	-56.7	-68.9	278	17
2023-09-20T00:00	12021	201	-56.8	-69.1	278	17
2023-09-20T00:00	12041	200	-56.8	-69.1	279	18
2023-09-20T00:00	12060	200	-56.7	-69.2	279	18
2023-09-20T00:00	12081	199	-56.7	-69.2	279	18
2023-09-20T00:00	12102	198	-56.8	-69.4	279	19
2023-09-20T00:00	12125	198	-57.0	-69.4	279	19
2023-09-20T00:00	12145	197	-57.2	-69.5	279	20
2023-09-20T00:00	12166	196	-57.3	-69.5	279	20
2023-09-20T00:00	12187	196	-57.4	-69.7	278	21
2023-09-20T00:00	12207	195	-57.5	-70.2	279	21
2023-09-20T00:00	12226	195	-57.4	-70.7	279	21
2023-09-20T00:00	12249	194	-57.0	-70.9	279	21
2023-09-20T00:00	12267	193	-56.7	-71.2	280	21
2023-09-20T00:00	12287	193	-56.9	-71.7	280	21
2023-09-20T00:00	12307	192	-56.8	-71.9	281	22
2023-09-20T00:00	12328	191	-56.7	-72.3	282	22
2023-09-20T00:00	12350	191	-56.4	-72.6	283	23
2023-09-20T00:00	12368	190	-56.2	-73.0	285	23
2023-09-20T00:00	12390	190	-55.9	-73.3	287	24
2023-09-20T00:00	12412	189	-55.8	-73.6	288	24
2023-09-20T00:00	12432	188	-55.9	-73.7	289	25
2023-09-20T00:00	12453	188	-55.7	-73.6	290	25
2023-09-20T00:00	12473	187	-55.7	-73.6	291	25
2023-09-20T00:00	12492	187	-55.7	-73.7	292	25
2023-09-20T00:00	12513	186	-55.8	-73.9	292	25
2023-09-20T00:00	12530	185	-55.8	-74.1	293	24
2023-09-20T00:00	12552	185	-55.5	-74.3	294	24
2023-09-20T00:00	12575	184	-55.4	-74.7	295	23
2023-09-20T00:00	12597	184	-55.4	-75.0	295	23
2023-09-20T00:00	12622	183	-55.3	-74.9	296	22
2023-09-20T00:00	12645	182	-55.4	-74.7	297	22
2023-09-20T00:00	12668	182	-55.6	-74.6	298	22
2023-09-20T00:00	12686	181	-55.6	-74.4	299	21
2023-09-20T00:00	12706	180	-55.6	-74.4	300	21
2023-09-20T00:00	12726	180	-55.3	-74.5	300	21
2023-09-20T00:00	12744	179	-55.1	-74.7	301	20
2023-09-20T00:00	12766	179	-55.0	-75.0	300	20
2023-09-20T00:00	12788	178	-55.1		300	20
2023-09-20T00:00	12805	178	-55.3		299	19
2023-09-20T00:00	12825	177	-55.3	-76.2	299	19
2023-09-20T00:00	12842	177	-55.4	-76.6	298	19
2023-09-20T00:00	12861	176	-55.5	-76.9	297	19
2023-09-20T00:00	12882	176	-55.4	-76.8	295	19
2023-09-20T00:00	12899	175	-55.5	-76.9	294	18
2023-09-20T00:00	12918	175	-55.5	-77.1	294	18
2023-09-20T00:00	12938	174	-55.2	-76.8	293	18
2023-09-20T00:00	12957	173	-55.1	-76.9	294	18
2023-09-20T00:00	12977	173	-55.0	-76.9	294	17
2023-09-20T00:00	12997	172	-55.1	-77.0	295	17
2023-09-20T00:00	13015	172	-55.2	-77.2	296	17
2023-09-20T00:00	13037	171	-55.3	-77.3	297	17
2023-09-20T00:00	13055	171	-55.4	-77.3	297	17
2023-09-20T00:00	13076	170	-55.5	-77.3	297	17
2023-09-20T00:00	13095	170	-55.6	-77.4	296	17
2023-09-20T00:00	13116	169	-55.7	-77.5	296	17
2023-09-20T00:00	13135	169	-55.8	-77.6	295	17
2023-09-20T00:00	13155	168	-56.0	-77.7	295	17
2023-09-20T00:00	13174	168	-56.2	-77.8	295	17
2023-09-20T00:00	13194	167	-56.3	-77.8	295	18
2023-09-20T00:00	13215	167	-56.5	-78.0	296	18
2023-09-20T00:00	13236	166	-56.6	-78.2	297	18
2023-09-20T00:00	13260	165	-56.4	-78.1	298	18
2023-09-20T00:00	13280	165	-56.5	-78.3	299	18
2023-09-20T00:00	13304	164	-56.6	-78.4	300	18
2023-09-20T00:00	13323	164	-56.8		300	18
2023-09-20T00:00	13343	163	-56.8		300	18
2023-09-20T00:00	13364	163	-57.0	-78.6	299	19
2023-09-20T00:00	13385	162	-57.1	-78.6	298	19
2023-09-20T00:00	13403	162	-57.2	-78.7	298	19
2023-09-20T00:00	13423	161	-57.3	-78.8	297	19
2023-09-20T00:00	13443	161	-57.3	-78.9	297	19
2023-09-20T00:00	13462	160	-57.4	-79.0	297	19
2023-09-20T00:00	13485	160	-57.4	-79.2	297	19
2023-09-20T00:00	13504	159	-57.2	-79.2	298	19
2023-09-20T00:00	13526	159	-57.2	-79.2	299	18
2023-09-20T00:00	13545	158	-57.4	-79.5	300	18
2023-09-20T00:00	13569	158	-57.5	-79.6	302	18
2023-09-20T00:00	13589	157	-57.6	-79.6	303	18
2023-09-20T00:00	13610	157	-57.5	-79.6	304	17
2023-09-20T00:00	13630	156	-57.5	-79.7	304	17
2023-09-20T00:00	13650	156	-57.5	-79.7	305	17
2023-09-20T00:00	13669	155	-57.5	-79.7	305	17
2023-09-20T00:00	13691	155	-57.6	-79.8	305	16
2023-09-20T00:00	13712	154	-57.6	-79.8	304	16
2023-09-20T00:00	13731	153	-57.7	-79.9	303	16
2023-09-20T00:00	13754	153	-57.9	-80.0	302	16
2023-09-20T00:00	13775	152	-58.0	-80.1	301	16
2023-09-20T00:00	13795	152	-57.9	-80.2	300	16
2023-09-20T00:00	13815	152	-57.9	-80.4	299	16
2023-09-20T00:00	13835	151	-58.0	-80.6	299	16
2023-09-20T00:00	13857	151	-58.1	-80.9	298	16
2023-09-20T00:00	13878	150	-58.3	-81.0	298	16
2023-09-20T00:00	13896	150	-58.2	-81.1	298	16
2023-09-20T00:00	13917	149	-58.1	-81.1	298	16
2023-09-20T00:00	13937	149	-57.9	-81.1	298	16
2023-09-20T00:00	13959	148	-57.9	-81.1	297	16
2023-09-20T00:00	13980	148	-57.9	-81.1	297	16
2023-09-20T00:00	14002	147	-57.8	-81.0	296	16
2023-09-20T00:00	14023	147	-57.8	-81.2	296	16
2023-09-20T00:00	14044	146	-57.8	-81.2	296	16
2023-09-20T00:00	14062	146	-57.9	-81.5	296	16
2023-09-20T00:00	14083	145	-57.4	-81.1	298	16
2023-09-20T00:00	14103	145	-57.4	-81.1	299	17
2023-09-20T00:00	14124	144	-57.6	-81.2	300	17
2023-09-20T00:00	14143	144	-57.7	-81.3	302	17
2023-09-20T00:00	14162	143	-57.8		303	17
2023-09-20T00:00	14184	143	-57.9	-81.5	304	17
2023-09-20T00:00	14204	142	-58.0	-81.5	305	17
2023-09-20T00:00	14226	142	-58.1	-81.4	306	17
2023-09-20T00:00	14244	142	-58.2	-81.5	306	16
2023-09-20T00:00	14262	141	-58.2	-81.5	307	16
2023-09-20T00:00	14283	141	-58.3	-81.6	308	16
2023-09-20T00:00	14302	140	-58.4	-81.7	309	16
2023-09-20T00:00	14320	140	-58.5	-81.8	310	16
2023-09-20T00:00	14340	139	-58.6	-81.8	311	15
2023-09-20T00:00	14361	139	-58.6	-82.0	311	15
2023-09-20T00:00	14383	138	-58.4	-81.9	311	15
2023-09-20T00:00	14403	138	-58.3	-82.0	311	14
2023-09-20T00:00	14425	138	-58.5	-82.1	310	14
2023-09-20T00:00	14445	137	-58.6	-82.4	308	14
2023-09-20T00:00	14464	137	-58.7	-82.5	305	13
2023-09-20T00:00	14487	136	-58.2	-82.1	303	13
2023-09-20T00:00	14507	136	-58.3	-82.2	301	13
2023-09-20T00:00	14528	135	-58.4	-82.5	299	13
2023-09-20T00:00	14545	135	-58.5	-82.6	298	13
2023-09-20T00:00	14566	135	-58.7	-82.7	298	13
2023-09-20T00:00	14586	134	-58.6	-82.7	299	13
2023-09-20T00:00	14607	134	-58.6	-82.7	300	13
2023-09-20T00:00	14626	133	-58.7	-82.7	301	13
2023-09-20T00:00	14648	133	-58.8	-82.8	302	13
2023-09-20T00:00	14667	132	-58.8	-82.8	304	13
2023-09-20T00:00	14689	132	-58.6	-82.7	306	13
2023-09-20T00:00	14707	131	-58.7	-82.7	307	13
2023-09-20T00:00	14728	131	-58.8	-82.8	308	13
2023-09-20T00:00	14752	131	-59.0	-82.8	308	13
2023-09-20T00:00	14774	130	-59.2	-82.9	308	12
2023-09-20T00:00	14794	130	-59.3	-83.0	306	12
2023-09-20T00:00	14817	129	-59.5	-82.9	304	12
2023-09-20T00:00	14838	129	-59.5	-82.9	301	12
2023-09-20T00:00	14859	128	-59.6	-83.0	299	12
2023-09-20T00:00	14881	128	-59.7	-83.1	297	12
2023-09-20T00:00	14905	127	-59.8	-83.2	295	11
2023-09-20T00:00	14925	127	-59.9	-83.3	294	11
2023-09-20T00:00	14945	127	-59.9	-83.3	293	11
2023-09-20T00:00	14970	126	-59.7	-83.1	292	11
2023-09-20T00:00	14990	126	-59.8	-83.0	291	11
2023-09-20T00:00	15011	125	-59.9	-83.1	290	11
2023-09-20T00:00	15032	125	-60.1	-83.2	290	11
2023-09-20T00:00	15054	124	-60.2	-83.5	290	11
2023-09-20T00:00	15075	124	-59.7	-83.3	290	11
2023-09-20T00:00	15095	124	-59.7	-83.5	290	10
2023-09-20T00:00	15113	123	-59.3	-83.4	290	10
2023-09-20T00:00	15132	123	-59.1	-83.7	290	11
2023-09-20T00:00	15153	122	-58.5	-83.5	289	11
2023-09-20T00:00	15171	122	-58.3		287	11
2023-09-20T00:00	15191	122	-58.3		285	12
2023-09-20T00:00	15212	121	-58.4	-83.4	284	12
2023-09-20T00:00	15233	121	-58.6	-83.6	282	12
2023-09-20T00:00	15251	121	-58.4	-83.4	280	12
2023-09-20T00:00	15271	120	-58.3		280	13
2023-09-20T00:00	15292	120	-58.1	-83.5	279	13
2023-09-20T00:00	15309	119	-58.2	-83.5	279	13
2023-09-20T00:00	15330	119	-58.3	-83.6	280	13
2023-09-20T00:00	15349	119	-58.3	-83.6	280	13
2023-09-20T00:00	15371	118	-58.2	-83.5	281	13
2023-09-20T00:00	15394	118	-58.0	-83.4	281	12
2023-09-20T00:00	15413	117	-57.9	-83.3	281	12
2023-09-20T00:00	15434	117	-58.0	-83.4	281	12
2023-09-20T00:00	15456	117	-58.1	-83.5	280	12
2023-09-20T00:00	15478	116	-58.0	-83.7	279	12
2023-09-20T00:00	15497	116	-57.9	-83.6	278	12
2023-09-20T00:00	15520	115	-57.8	-83.5	277	13
2023-09-20T00:00	15542	115	-58.0	-83.7	277	14
2023-09-20T00:00	15569	115	-58.1	-83.5	277	14
2023-09-20T00:00	15587	114	-58.1	-83.5	279	15
2023-09-20T00:00	15613	114	-57.9	-83.6	280	15
2023-09-20T00:00	15636	113	-57.8	-83.5	282	15
2023-09-20T00:00	15654	113	-57.9	-83.6	283	16
2023-09-20T00:00	15680	113	-58.1	-83.7	284	16
2023-09-20T00:00	15702	112	-58.2	-83.8	284	16
2023-09-20T00:00	15726	112	-58.2	-83.8	283	16
2023-09-20T00:00	15748	111	-58.1	-83.7	282	15
2023-09-20T00:00	15769	111	-58.0	-83.7	281	15
2023-09-20T00:00	15792	111	-58.2	-83.8	279	15
2023-09-20T00:00	15815	110	-58.3	-84.2	278	15
2023-09-20T00:00	15836	110	-58.3	-84.2	276	15
2023-09-20T00:00	15859	109	-58.4	-84.3	275	15
2023-09-20T00:00	15881	109	-58.4	-84.3	274	15
2023-09-20T00:00	15905	109	-58.4	-84.3	274	15
2023-09-20T00:00	15927	108	-58.4	-84.3	274	15
2023-09-20T00:00	15952	108	-58.4	-84.3	275	16
2023-09-20T00:00	15973	108	-58.6	-84.4	276	16
2023-09-20T00:00	15994	107	-58.6	-84.4	278	16
2023-09-20T00:00	16020	107	-58.6	-84.7	280	16
2023-09-20T00:00	16043	106	-58.6	-84.7	283	17
2023-09-20T00:00	16065	106	-58.7	-84.8	284	17
2023-09-20T00:00	16086	106	-58.6	-84.7	286	17
2023-09-20T00:00	16109	105	-58.1	-84.6	287	16
2023-09-20T00:00	16129	105	-58.1	-84.6	287	16
2023-09-20T00:00	16152	104	-58.2	-84.7	287	16
2023-09-20T00:00	16173	104	-58.2	-84.7	287	16
2023-09-20T00:00	16193	104	-58.4	-84.9	287	15
2023-09-20T00:00	16215	103	-58.5	-84.9	286	15
2023-09-20T00:00	16237	103	-58.7	-85.1	286	15
2023-09-20T00:00	16258	103	-58.9	-84.9	286	15
2023-09-20T00:00	16280	102	-58.7	-85.1	285	14
2023-09-20T00:00	16300	102	-58.9	-85.3	284	14
2023-09-20T00:00	16322	102	-58.6	-85.0	282	14
2023-09-20T00:00	16341	101	-58.5	-84.9	280	13
2023-09-20T00:00	16361	101	-58.5	-85.3	277	13
2023-09-20T00:00	16383	101	-58.5	-85.3	274	13
2023-09-20T00:00	16406	100	-58.6	-85.4	271	13
2023-09-20T00:00	16425	100	-58.7	-85.4	268	12
2023-09-20T00:00	16449	100	-58.3	-85.5	265	12
2023-09-20T00:00	16474	99	-57.9	-85.2	262	12
2023-09-20T00:00	16495	99	-57.7	-85.0	260	11
2023-09-20T00:00	16518	99	-57.7	-85.0	259	11
2023-09-20T00:00	16540	98	-57.8	-85.1	258	11
2023-09-20T00:00	16562	98	-58.0	-85.2	258	11
2023-09-20T00:00	16583	98	-58.2	-85.4	260	11
2023-09-20T00:00	16605	97	-58.1	-85.3	261	11
2023-09-20T00:00	16628	97	-58.0	-85.2	263	11
2023-09-20T00:00	16649	97	-58.0	-85.2	266	11
2023-09-20T00:00	16670	96	-58.0	-85.2	268	11
2023-09-20T00:00	16694	96	-58.0	-85.2	270	12
2023-09-20T00:00	16715	96	-58.1	-85.3	273	12
2023-09-20T00:00	16736	95	-58.2	-85.4	275	12
2023-09-20T00:00	16760	95	-58.2	-85.4	276	12
2023-09-20T00:00	16783	95	-58.1	-85.3	277	12
2023-09-20T00:00	16804	94	-58.0	-85.2	278	12
2023-09-20T00:00	16828	94	-58.0	-85.2	279	12
2023-09-20T00:00	16851	94	-58.1	-85.7	280	12
2023-09-20T00:00	16872	93	-58.0	-85.6	280	12
2023-09-20T00:00	16894	93	-57.8	-85.5	281	12
2023-09-20T00:00	16916	93	-57.8	-85.5	282	11
2023-09-20T00:00	16941	92	-57.9	-85.5	282	11
2023-09-20T00:00	16959	92	-57.8	-85.5	282	10
2023-09-20T00:00	16981	92	-57.6	-85.7	282	10
2023-09-20T00:00	17003	91	-57.4	-85.6	281	9
2023-09-20T00:00	17025	91	-57.4	-85.6	280	9
2023-09-20T00:00	17049	91	-57.4	-85.6	280	9
2023-09-20T00:00	17071	90	-57.5	-85.6	279	9
2023-09-20T00:00	17097	90	-57.5	-85.6	277	9
2023-09-20T00:00	17119	90	-57.5	-85.6	275	9
2023-09-20T00:00	17143	89	-57.4	-85.6	273	10
2023-09-20T00:00	17166	89	-57.5	-85.6	269	10
2023-09-20T00:00	17187	89	-57.7	-85.8	265	10
2023-09-20T00:00	17212	88	-57.6	-85.7	261	10
2023-09-20T00:00	17234	88	-57.7	-85.8	258	10
2023-09-20T00:00	17257	88	-57.6	-85.7	256	9
2023-09-20T00:00	17280	87	-57.7	-85.8	255	9
2023-09-20T00:00	17302	87	-57.7	-85.8	255	9
2023-09-20T00:00	17327	87	-57.7	-85.8	255	8
2023-09-20T00:00	17347	86	-57.9		254	8
2023-09-20T00:00	17370	86	-58.0	-86.0	252	8
2023-09-20T00:00	17393	86	-58.0	-86.0	249	8
2023-09-20T00:00	17415	85	-57.8	-85.9	245	9
2023-09-20T00:00	17437	85	-57.8	-85.9	242	10
2023-09-20T00:00	17457	85	-57.9		239	10
2023-09-20T00:00	17482	85	-57.9		237	11
2023-09-20T00:00	17506	84	-57.7	-85.8	235	12
2023-09-20T00:00	17527	84	-57.6	-86.1	233	13
2023-09-20T00:00	17548	84	-57.3	-85.9	231	13
2023-09-20T00:00	17569	83	-57.3	-85.9	230	14
2023-09-20T00:00	17592	83	-57.3	-85.9	228	14
2023-09-20T00:00	17613	83	-57.3	-85.9	227	15
2023-09-20T00:00	17636	83	-57.4	-86.4	226	16
2023-09-20T00:00	17659	82	-57.3	-86.4	225	16
2023-09-20T00:00	17680	82	-57.1	-86.2	225	17
2023-09-20T00:00	17703	82	-57.0	-85.7	225	17
2023-09-20T00:00	17726	81	-57.2	-85.8	226	18
2023-09-20T00:00	17747	81	-57.3	-85.9	227	18
2023-09-20T00:00	17767	81	-57.4	-86.0	229	18
2023-09-20T00:00	17791	81	-57.4	-86.0	231	17
2023-09-20T00:00	17813	80	-57.3	-85.9	233	17
2023-09-20T00:00	17834	80	-57.4	-86.0	235	17
2023-09-20T00:00	17855	80	-57.4	-86.0	237	17
2023-09-20T00:00	17878	79	-57.3	-85.9	240	17
2023-09-20T00:00	17904	79	-57.5	-86.1	242	17
2023-09-20T00:00	17922	79	-57.6	-86.1	245	17
2023-09-20T00:00	17946	79	-57.7	-86.2	247	17
2023-09-20T00:00	17970	78	-57.7	-86.2	250	18
2023-09-20T00:00	17992	78	-57.7	-86.2	252	18
2023-09-20T00:00	18013	78	-57.4	-86.4	254	19
2023-09-20T00:00	18036	77	-57.4	-86.4	256	20
2023-09-20T00:00	18058	77	-57.4	-86.4	258	20
2023-09-20T00:00	18078	77	-57.4	-86.0	259	20
2023-09-20T00:00	18101	77	-57.3	-86.4	261	20
2023-09-20T00:00	18120	76	-57.2	-86.3	263	20
2023-09-20T00:00	18146	76	-57.2	-86.3	264	20
2023-09-20T00:00	18170	76	-56.9	-86.6	266	20
2023-09-20T00:00	18189	76	-56.5	-86.3	267	19
2023-09-20T00:00	18214	75	-56.4	-86.2	268	19
2023-09-20T00:00	18234	75	-56.4	-86.2	269	18
2023-09-20T00:00	18260	75	-56.4	-86.2	270	18
2023-09-20T00:00	18282	75	-56.4	-86.2	271	17
2023-09-20T00:00	18305	74	-56.3	-86.1	272	16
2023-09-20T00:00	18328	74	-56.5	-86.3	273	16
2023-09-20T00:00	18350	74	-56.6	-86.3	274	15
2023-09-20T00:00	18375	73	-56.5	-86.3	276	14
2023-09-20T00:00	18401	73	-56.3	-86.1	277	13
2023-09-20T00:00	18424	73	-56.1	-86.0	278	12
2023-09-20T00:00	18448	73	-55.9	-85.8	279	11
2023-09-20T00:00	18469	72	-55.7	-85.7	279	10
2023-09-20T00:00	18493	72	-55.7	-86.2	277	9
2023-09-20T00:00	18517	72	-55.7	-86.2	273	9
2023-09-20T00:00	18541	72	-55.4	-86.0	268	8
2023-09-20T00:00	18562	71	-55.1	-85.8	263	8
2023-09-20T00:00	18584	71	-54.9	-85.6	258	8
2023-09-20T00:00	18608	71	-54.9	-85.6	253	8
2023-09-20T00:00	18632	71	-54.8	-85.5	250	8
2023-09-20T00:00	18655	70	-54.6	-85.4	248	8
2023-09-20T00:00	18676	70	-54.7	-85.5	246	8
2023-09-20T00:00	18700	70	-54.7	-85.5	244	8
2023-09-20T00:00	18722	70	-54.7	-85.5	241	8
2023-09-20T00:00	18749	69	-54.9	-85.6	239	9
2023-09-20T00:00	18770	69	-55.0	-85.1	237	9
2023-09-20T00:00	18793	69	-55.1	-85.2	235	9
2023-09-20T00:00	18815	69	-55.2	-85.3	234	10
2023-09-20T00:00	18835	68	-55.3	-85.4	233	10
2023-09-20T00:00	18859	68	-55.4	-85.4	233	10
2023-09-20T00:00	18880	68	-55.6	-85.6	232	10
2023-09-20T00:00	18900	68	-55.7	-85.7	231	10
2023-09-20T00:00	18924	67	-55.6	-85.6	231	11
2023-09-20T00:00	18947	67	-55.6	-85.6	231	11
2023-09-20T00:00	18970	67	-55.7	-85.7	231	11
2023-09-20T00:00	18993	67	-55.7	-85.7	232	11
2023-09-20T00:00	19017	66	-55.7	-85.7	233	12
2023-09-20T00:00	19036	66	-55.9	-85.8	234	12
2023-09-20T00:00	19060	66	-56.0	-85.9	235	12
2023-09-20T00:00	19083	66	-56.1	-86.0	237	13
2023-09-20T00:00	19104	66	-56.2	-86.0	238	13
2023-09-20T00:00	19124	65	-56.3	-86.1	239	13
2023-09-20T00:00	19148	65	-56.4	-86.2	240	13
2023-09-20T00:00	19172	65	-56.5	-86.3	241	13
2023-09-20T00:00	19194	65	-56.5	-86.3	241	13
2023-09-20T00:00	19219	64	-56.5	-86.3	240	12
2023-09-20T00:00	19240	64	-56.4	-86.2	239	12
2023-09-20T00:00	19265	64	-56.1	-86.0	237	11
2023-09-20T00:00	19288	64	-56.2	-86.0	237	11
2023-09-20T00:00	19310	63	-56.3	-86.1	238	11
2023-09-20T00:00	19335	63	-56.3	-86.1	240	12
2023-09-20T00:00	19359	63	-56.3	-86.1	242	12
2023-09-20T00:00	19382	63	-56.3	-86.1	245	12
2023-09-20T00:00	19405	62	-56.2	-86.0	247	12
2023-09-20T00:00	19432	62	-56.0	-86.4	247	12
2023-09-20T00:00	19452	62	-56.1	-86.5	247	12
2023-09-20T00:00	19475	62	-56.1	-86.5	246	11
2023-09-20T00:00	19500	62	-55.9	-86.3	245	11
2023-09-20T00:00	19521	61	-55.7	-86.2	245	10
2023-09-20T00:00	19544	61	-55.6	-86.1	245	10
2023-09-20T00:00	19569	61	-55.5	-86.1	247	9
2023-09-20T00:00	19590	61	-55.5	-86.1	249	9
2023-09-20T00:00	19615	60	-55.6	-86.1	252	9
2023-09-20T00:00	19640	60	-55.6	-86.1	255	9
2023-09-20T00:00	19659	60	-55.8	-86.3	258	9
2023-09-20T00:00	19683	60	-55.7	-86.2	260	9
2023-09-20T00:00	19704	60	-55.6	-86.1	262	9
2023-09-20T00:00	19724	59	-55.7	-86.2	264	8
2023-09-20T00:00	19746	59	-55.9	-85.8	265	8
2023-09-20T00:00	19770	59	-56.0	-85.9	265	8
2023-09-20T00:00	19795	59	-56.1	-86.0	264	8
2023-09-20T00:00	19820	59	-56.2	-86.0	261	8
2023-09-20T00:00	19842	58	-56.2	-86.0	259	8
2023-09-20T00:00	19862	58	-56.3	-86.1	256	8
2023-09-20T00:00	19884	58	-56.4	-86.2	254	8
2023-09-20T00:00	19907	58	-56.5	-86.3	253	8
2023-09-20T00:00	19928	58	-56.4	-86.2	253	9
2023-09-20T00:00	19951	57	-56.5	-86.8	252	9
2023-09-20T00:00	19971	57	-56.4		252	9
2023-09-20T00:00	19998	57	-56.3	-86.6	251	9
2023-09-20T00:00	20020	57	-56.3	-86.6	249	9
2023-09-20T00:00	20041	57	-56.4	-86.2	247	9
2023-09-20T00:00	20068	56	-56.5	-86.3	243	10
2023-09-20T00:00	20092	56	-56.6	-86.3	239	10
2023-09-20T00:00	20116	56	-56.8	-86.5	234	10
2023-09-20T00:00	20133	56	-56.9	-86.6	229	10
2023-09-20T00:00	20160	56	-57.1	-86.7	225	11
2023-09-20T00:00	20182	55	-57.2	-86.8	223	11
2023-09-20T00:00	20203	55	-56.9	-86.6	222	12
2023-09-20T00:00	20225	55	-56.8	-86.5	222	12
2023-09-20T00:00	20248	55	-56.8	-86.5	223	13
2023-09-20T00:00	20271	55	-56.9	-86.6	225	13
2023-09-20T00:00	20299	54	-57.0	-86.6	228	14
2023-09-20T00:00	20318	54	-57.1	-86.7	231	14
2023-09-20T00:00	20343	54	-57.1	-86.7	235	14
2023-09-20T00:00	20365	54	-57.2	-86.8	239	14
2023-09-20T00:00	20387	54	-57.3	-86.9	243	14
2023-09-20T00:00	20410	53	-57.2	-86.8	247	14
2023-09-20T00:00	20430	53	-57.2	-86.8	250	14
2023-09-20T00:00	20453	53	-57.1	-86.7	252	14
2023-09-20T00:00	20473	53	-57.1	-86.7	255	14
2023-09-20T00:00	20497	53	-57.2	-86.8	257	14
2023-09-20T00:00	20516	52	-57.3	-86.9	259	14
2023-09-20T00:00	20539	52	-57.3	-86.9	261	14
2023-09-20T00:00	20562	52	-57.4	-86.9	263	13
2023-09-20T00:00	20583	52	-57.4	-86.9	264	13
2023-09-20T00:00	20610	52	-57.4	-86.9	264	12
2023-09-20T00:00	20632	52	-57.1	-86.7	265	11
2023-09-20T00:00	20654	51	-56.9	-87.1	265	11
2023-09-20T00:00	20674	51	-56.9	-87.1	266	10
2023-09-20T00:00	20699	51	-56.9	-87.1	268	10
2023-09-20T00:00	20718	51	-56.9	-87.1	270	9
2023-09-20T00:00	20748	51	-56.7	-86.9	274	9
2023-09-20T00:00	20768	50	-56.8	-87.0	278	9
2023-09-20T00:00	20793	50	-56.7	-86.9	281	9
2023-09-20T00:00	20816	50	-56.9	-87.1	284	9
2023-09-20T00:00	20839	50	-56.8	-87.0	287	9
2023-09-20T00:00	20867	50	-56.8	-87.0	288	9
2023-09-20T00:00	20890	49	-56.6	-86.9	288	8
2023-09-20T00:00	20914	49	-56.5	-86.8	287	8
2023-09-20T00:00	20940	49	-56.3	-86.6	285	7
2023-09-20T00:00	20959	49	-56.4		282	7
2023-09-20T00:00	20989	49	-56.5	-86.8	280	6
2023-09-20T00:00	21012	49	-56.6	-86.9	278	6
2023-09-20T00:00	21035	48	-56.6	-86.3	275	6
2023-09-20T00:00	21061	48	-56.8	-86.5	272	7
2023-09-20T00:00	21084	48	-57.0	-86.6	267	7
2023-09-20T00:00	21109	48	-57.1	-86.7	260	7
2023-09-20T00:00	21135	48	-57.1	-86.7	252	6
2023-09-20T00:00	21158	47	-57.1	-86.7	243	6
2023-09-20T00:00	21183	47	-57.1	-87.2	236	6
2023-09-20T00:00	21207	47	-56.8	-87.0	230	6
2023-09-20T00:00	21229	47	-56.6	-86.9	226	6
2023-09-20T00:00	21255	47	-56.7	-86.9	224	6
2023-09-20T00:00	21279	47	-56.7	-86.9	225	6
2023-09-20T00:00	21304	46	-56.7	-86.9	227	6
2023-09-20T00:00	21326	46	-56.7	-86.9	230	6
2023-09-20T00:00	21350	46	-56.8	-87.0	235	7
2023-09-20T00:00	21375	46	-56.9	-87.1	239	7
2023-09-20T00:00	21401	46	-56.6	-86.9	242	8
2023-09-20T00:00	21425	45	-56.7	-86.9	244	8
2023-09-20T00:00	21452	45	-56.7	-86.9	246	9
2023-09-20T00:00	21470	45	-56.6	-86.9	246	9
2023-09-20T00:00	21497	45	-56.6	-86.9	247	9
2023-09-20T00:00	21518	45	-56.8	-86.5	247	10
2023-09-20T00:00	21543	45	-57.0	-86.6	248	10
2023-09-20T00:00	21568	44	-57.2	-86.8	249	10
2023-09-20T00:00	21596	44	-57.4	-86.9	250	11
2023-09-20T00:00	21620	44	-57.5	-87.0	251	11
2023-09-20T00:00	21644	44	-57.4	-86.9	253	11
2023-09-20T00:00	21671	44	-57.2	-86.8	254	11
2023-09-20T00:00	21689	44	-57.0	-87.2	255	10
2023-09-20T00:00	21718	43	-57.0	-87.2	255	10
2023-09-20T00:00	21739	43	-57.0	-87.2	255	10
2023-09-20T00:00	21765	43	-57.0	-87.2	256	10
2023-09-20T00:00	21788	43	-56.9	-87.1	257	9
2023-09-20T00:00	21810	43	-56.8	-87.0	258	9
2023-09-20T00:00	21837	43	-56.8	-87.0	260	9
2023-09-20T00:00	21859	42	-56.8	-87.0	262	9
2023-09-20T00:00	21882	42	-56.8	-87.0	263	9
2023-09-20T00:00	21905	42	-56.6	-86.9	264	9
2023-09-20T00:00	21925	42	-56.5	-86.8	264	10
2023-09-20T00:00	21949	42	-56.6	-86.9	263	10
2023-09-20T00:00	21978	42	-56.7	-86.9	263	10
2023-09-20T00:00	21996	42	-56.8	-87.0	263	10
2023-09-20T00:00	22024	41	-56.8	-87.0	263	10
2023-09-20T00:00	22048	41	-56.9	-86.6	264	10
2023-09-20T00:00	22063	41	-57.0	-86.6	264	10
2023-09-20T00:00	22091	41	-57.1	-86.7	264	9
2023-09-20T00:00	22113	41	-57.2	-86.8	263	9
2023-09-20T00:00	22135	41	-57.1	-86.7	261	8
2023-09-20T00:00	22159	40	-57.1	-86.7	259	8
2023-09-20T00:00	22179	40	-57.2	-86.8	259	8
2023-09-20T00:00	22203	40	-57.3	-86.9	259	8
2023-09-20T00:00	22223	40	-57.2	-86.8	261	8
2023-09-20T00:00	22253	40	-57.2	-86.8	264	8
2023-09-20T00:00	22274	40	-57.2	-86.8	267	9
2023-09-20T00:00	22299	40	-57.3	-86.9	269	9
2023-09-20T00:00	22318	39	-57.4	-86.9	270	9
2023-09-20T00:00	22343	39	-57.5	-87.0	269	9
2023-09-20T00:00	22366	39	-57.4	-86.9	267	9
2023-09-20T00:00	22392	39	-57.5	-87.0	266	9
2023-09-20T00:00	22411	39	-57.6	-87.1	264	10
2023-09-20T00:00	22441	39	-57.7	-87.2	263	10
2023-09-20T00:00	22466	39	-58.0	-86.9	262	10
2023-09-20T00:00	22486	38	-58.1	-87.0	261	10
2023-09-20T00:00	22508	38	-58.4	-87.2	258	10
2023-09-20T00:00	22535	38	-58.5	-87.3	255	9
2023-09-20T00:00	22560	38	-58.2	-87.0	252	9
2023-09-20T00:00	22586	38	-58.2	-87.5	249	9
2023-09-20T00:00	22614	38	-58.3	-87.6	249	9
2023-09-20T00:00	22640	38	-58.4	-87.7	250	9
2023-09-20T00:00	22659	37	-58.2	-87.5	253	9
2023-09-20T00:00	22683	37	-57.8	-87.8	257	9
2023-09-20T00:00	22711	37	-57.3	-87.4	261	10
2023-09-20T00:00	22735	37	-57.2	-87.3	266	10
2023-09-20T00:00	22762	37	-57.3	-87.4	270	11
2023-09-20T00:00	22786	37	-57.3	-87.4	274	11
2023-09-20T00:00	22806	37	-57.3	-87.4	278	11
2023-09-20T00:00	22839	36	-57.1	-87.2	281	11
2023-09-20T00:00	22865	36	-57.3	-87.4	285	11
2023-09-20T00:00	22892	36	-57.2	-87.3	288	11
2023-09-20T00:00	22912	36	-57.0	-87.2	290	10
2023-09-20T00:00	22944	36	-57.0	-87.2	292	10
2023-09-20T00:00	22969	36	-57.0	-87.2	294	10
2023-09-20T00:00	22995	35	-57.2	-86.8	296	9
2023-09-20T00:00	23017	35	-57.3	-86.9	298	9
2023-09-20T00:00	23047	35	-57.4	-86.9	301	9
2023-09-20T00:00	23064	35	-57.5	-87.0	304	8
2023-09-20T00:00	23095	35	-57.6	-87.1	308	8
2023-09-20T00:00	23119	35	-57.7	-87.2	311	8
2023-09-20T00:00	23146	35	-57.8	-87.2	315	8
2023-09-20T00:00	23171	34	-57.9	-87.3	318	7
2023-09-20T00:00	23195	34	-57.8	-87.2	322	7
2023-09-20T00:00	23221	34	-57.9	-87.3	325	6
2023-09-20T00:00	23245	34	-58.0	-87.4	328	5
2023-09-20T00:00	23267	34	-58.1	-87.4	332	5
2023-09-20T00:00	23298	34	-58.0	-87.4	335	4
2023-09-20T00:00	23324	34	-57.9	-87.3	337	3
2023-09-20T00:00	23349	34	-57.9	-87.3	338	3
2023-09-20T00:00	23370	33	-58.1	-87.4	339	3
2023-09-20T00:00	23396	33	-58.1	-87.4	337	2
2023-09-20T00:00	23418	33	-57.9	-87.3	334	2
2023-09-20T00:00	23444	33	-57.7	-87.7	326	2
2023-09-20T00:00	23471	33	-57.6	-87.6	313	2
2023-09-20T00:00	23497	33	-57.6	-87.6	296	2
2023-09-20T00:00	23520	33	-57.7	-87.7	280	2
2023-09-20T00:00	23543	33	-57.8	-87.8	269	2
2023-09-20T00:00	23567	32	-57.6	-87.6	262	3
2023-09-20T00:00	23594	32	-57.3	-87.4	256	3
2023-09-20T00:00	23617	32	-57.3	-87.4	251	4
2023-09-20T00:00	23645	32	-57.4	-87.5	246	4
2023-09-20T00:00	23670	32	-57.5	-87.5	242	5
2023-09-20T00:00	23698	32	-57.6	-87.1	240	5
2023-09-20T00:00	23720	32	-57.6	-87.1	238	5
2023-09-20T00:00	23751	31	-57.7	-87.2	237	6
2023-09-20T00:00	23776	31	-57.8	-87.2	237	6
2023-09-20T00:00	23804	31	-57.9	-87.3	237	7
2023-09-20T00:00	23827	31	-58.0	-87.4	237	7
2023-09-20T00:00	23857	31	-58.0	-87.4	238	8
2023-09-20T00:00	23876	31	-58.1	-87.4	240	8
2023-09-20T00:00	23909	31	-58.3	-87.6	241	9
2023-09-20T00:00	23935	31	-58.2	-87.5	243	9
2023-09-20T00:00	23960	30	-58.0	-87.4	244	10
2023-09-20T00:00	23988	30	-58.1	-87.4	245	11
2023-09-20T00:00	24016	30	-58.2	-87.5	246	11
2023-09-20T00:00	24035	30	-58.4	-87.7	247	11
2023-09-20T00:00	24064	30	-58.6	-87.8	249	11
2023-09-20T00:00	24089	30	-58.5	-87.7	251	11
2023-09-20T00:00	24120	30	-58.4	-87.7	254	10
2023-09-20T00:00	24147	30	-58.5	-87.7	257	9
2023-09-20T00:00	24169	29	-58.6	-87.8	262	9
2023-09-20T00:00	24198	29	-58.3	-87.6	268	8
2023-09-20T00:00	24223	29	-58.3	-87.6	275	8
2023-09-20T00:00	24251	29	-58.2	-88.1	282	7
2023-09-20T00:00	24277	29	-58.0	-87.9	288	7
2023-09-20T00:00	24303	29	-58.0	-87.9	294	7
2023-09-20T00:00	24331	29	-57.8	-87.8	298	6
2023-09-20T00:00	24357	29	-57.7	-87.7	303	6
2023-09-20T00:00	24389	28	-57.6	-87.6	307	6
2023-09-20T00:00	24415	28	-57.6	-87.6	310	6
2023-09-20T00:00	24440	28	-57.8	-87.8	313	6
2023-09-20T00:00	24463	28	-57.8	-87.8	314	6
2023-09-20T00:00	24491	28	-57.7	-87.7	314	6
2023-09-20T00:00	24525	28	-57.8	-87.8	314	7
2023-09-20T00:00	24552	28	-57.8	-87.8	315	7
2023-09-20T00:00	24570	28	-57.7	-87.7	316	8
2023-09-20T00:00	24599	28	-57.5	-87.5	317	8
2023-09-20T00:00	24623	27	-57.5	-87.5	319	8
2023-09-20T00:00	24656	27	-57.3	-87.4	320	8
2023-09-20T00:00	24674	27	-57.3	-87.4	321	8
2023-09-20T00:00	24703	27	-57.4	-88.1	322	8
2023-09-20T00:00	24735	27	-56.9	-87.7	323	8
2023-09-20T00:00	24757	27	-56.7	-87.5	323	8
2023-09-20T00:00	24784	27	-56.5	-87.4	322	8
2023-09-20T00:00	24811	27	-56.2	-87.2	321	7
2023-09-20T00:00	24839	26	-55.9	-87.6	319	7
2023-09-20T00:00	24867	26	-55.8	-87.5	317	6
2023-09-20T00:00	24886	26	-55.7	-87.5	314	5
2023-09-20T00:00	24918	26	-55.6	-87.4	312	5
2023-09-20T00:00	24939	26	-55.5	-86.7	310	4
2023-09-20T00:00	24968	26	-55.6	-86.7	309	4
2023-09-20T00:00	24994	26	-55.7	-86.8	309	3
2023-09-20T00:00	25015	26	-55.7	-86.8	310	3
2023-09-20T00:00	25035	26	-55.7	-86.8	311	3
2023-09-20T00:00	25069	26	-55.7	-86.8	309	2
2023-09-20T00:00	25093	25	-55.8	-86.9	305	2
2023-09-20T00:00	25120	25	-55.9	-86.9	296	1
2023-09-20T00:00	25149	25	-56.1	-87.1	279	1
2023-09-20T00:00	25171	25	-55.9	-86.9	261	1
2023-09-20T00:00	25194	25	-55.8	-86.9	251	2
2023-09-20T00:00	25227	25	-55.9	-86.9	246	2
2023-09-20T00:00	25248	25	-56.1	-87.1	245	3
2023-09-20T00:00	25270	25	-56.2	-86.6	244	3
2023-09-20T00:00	25300	25	-56.1	-86.5	242	4
2023-09-20T00:00	25326	25	-56.3	-86.6	242	4
2023-09-20T00:00	25344	24	-56.3	-86.6	244	5
2023-09-20T00:00	25380	24	-56.3	-87.2	247	5
2023-09-20T00:00	25407	24	-56.4	-87.3	252	6
2023-09-20T00:00	25429	24	-56.3	-87.2	257	6
2023-09-20T00:00	25458	24	-56.3	-87.2	262	7
2023-09-20T00:00	25488	24	-56.2	-87.2	266	7
2023-09-20T00:00	25504	24	-56.2	-87.2	268	8
2023-09-20T00:00	25528	24	-56.1	-87.1	270	8
2023-09-20T00:00	25556	24	-55.9	-86.9	272	8
2023-09-20T00:00	25581	24	-55.9	-86.9	275	8
2023-09-20T00:00	25612	23	-55.9	-87.6	280	8
2023-09-20T00:00	25642	23	-55.5	-87.3	286	8
2023-09-20T00:00	25665	23	-55.0	-87.0	292	8
2023-09-20T00:00	25693	23	-54.8	-86.8	298	7
2023-09-20T00:00	25723	23	-54.7	-86.7	302	7
2023-09-20T00:00	25745	23	-54.5	-86.6	306	7
2023-09-20T00:00	25772	23	-54.5	-86.6	308	6
2023-09-20T00:00	25793	23	-54.5	-86.6	311	5
2023-09-20T00:00	25822	23	-54.5	-86.6	314	5
2023-09-20T00:00	25849	23	-54.5	-86.6	317	4
2023-09-20T00:00	25881	23	-54.7	-86.7	320	4
2023-09-20T00:00	25901	22	-54.8	-86.8	321	3
2023-09-20T00:00	25929	22	-54.6	-86.7	319	3
2023-09-20T00:00	25956	22	-54.5	-86.6	312	3
2023-09-20T00:00	25988	22	-54.6	-86.7	303	3
2023-09-20T00:00	26014	22	-54.7	-86.7	294	3
2023-09-20T00:00	26038	22	-54.6	-86.7	287	3
2023-09-20T00:00	26057	22	-54.6	-86.7	283	3
2023-09-20T00:00	26087	22	-54.7	-86.1	281	4
2023-09-20T00:00	26124	22	-54.6	-86.0	280	4
2023-09-20T00:00	26154	22	-54.8	-86.1	279	4
2023-09-20T00:00	26178	21	-55.0	-86.3	280	4
2023-09-20T00:00	26203	21	-55.2	-86.4	282	4
2023-09-20T00:00	26230	21	-55.3	-86.5	285	5
2023-09-20T00:00	26259	21	-55.4	-86.6	287	5
2023-09-20T00:00	26287	21	-55.5	-86.7	290	5
2023-09-20T00:00	26303	21	-55.5	-86.7	294	4
2023-09-20T00:00	26332	21	-55.5	-86.7	299	4
2023-09-20T00:00	26362	21	-55.7	-86.8	305	4
2023-09-20T00:00	26391	21	-55.9	-86.9	310	4
2023-09-20T00:00	26412	21	-55.8	-86.9	313	3
2023-09-20T00:00	26446	21	-55.8	-86.9	314	3
2023-09-20T00:00	26464	21	-55.8	-86.9	313	3
2023-09-20T00:00	26499	20	-55.8	-86.9	308	2
2023-09-20T00:00	26523	20	-55.8	-86.9	299	1
2023-09-20T00:00	26539	20	-55.7	-87.5	282	1
2023-09-20T00:00	26575	20	-55.6	-87.4	256	1
2023-09-20T00:00	26600	20	-55.4	-87.2	234	1
2023-09-20T00:00	26640	20	-55.1	-87.0	225	2
2023-09-20T00:00	26657	20	-55.1	-87.0	225	2
2023-09-20T00:00	26679	20	-55.1	-87.0	228	3
2023-09-20T00:00	26698	20	-54.8	-86.8	231	3
2023-09-20T00:00	26730	20	-54.5	-86.6	234	4
2023-09-20T00:00	26760	20	-54.4	-86.5	238	5
2023-09-20T00:00	26791	20	-54.5	-86.6	242	5
2023-09-20T00:00	26807	19	-54.6	-86.7	247	5
2023-09-20T00:00	26835	19	-54.7	-86.7	252	6
2023-09-20T00:00	26861	19	-54.8	-86.8	257	6
2023-09-20T00:00	26893	19	-54.8	-86.8	263	6
2023-09-20T00:00	26919	19	-54.7	-86.7	270	6
2023-09-20T00:00	26942	19	-54.5	-86.6	278	7
2023-09-20T00:00	26967	19	-54.0	-87.0	287	7
2023-09-20T00:00	26994	19	-53.5	-86.6	296	7
2023-09-20T00:00	27019	19	-53.3	-86.5	303	7
2023-09-20T00:00	27051	19	-53.3	-86.5	308	8
2023-09-20T00:00	27075	19	-53.3	-86.5	311	8
2023-09-20T00:00	27111	19	-53.1	-86.3	313	8
2023-09-20T00:00	27128	18	-53.0	-86.3	315	8
2023-09-20T00:00	27165	18	-53.0	-86.3	316	7
2023-09-20T00:00	27191	18	-53.1	-86.3	319	7
2023-09-20T00:00	27214	18	-52.9	-86.2	322	6
2023-09-20T00:00	27245	18	-52.8	-86.1	326	5
2023-09-20T00:00	27268	18	-52.9	-86.2	331	5
2023-09-20T00:00	27290	18	-53.0	-86.3	335	4
2023-09-20T00:00	27332	18	-53.1	-85.6	336	4
2023-09-20T00:00	27356	18	-53.3	-85.7	333	4
2023-09-20T00:00	27388	18	-53.3	-85.7	327	3
2023-09-20T00:00	27422	18	-53.3	-85.7	320	4
2023-09-20T00:00	27433	18	-53.3	-85.7	312	4
2023-09-20T00:00	27468	18	-53.4	-85.8	306	4
2023-09-20T00:00	27496	17	-53.3	-86.5	300	5
2023-09-20T00:00	27526	17	-53.2	-86.4	295	5
2023-09-20T00:00	27557	17	-53.0	-86.3	291	6
2023-09-20T00:00	27585	17	-52.7	-86.0	290	7
2023-09-20T00:00	27612	17	-52.7	-86.0	290	7
2023-09-20T00:00	27635	17	-52.7	-86.0	293	7
2023-09-20T00:00	27662	17	-52.5	-85.9	296	8
2023-09-20T00:00	27693	17	-52.6		300	8
2023-09-20T00:00	27714	17	-52.6		302	8
2023-09-20T00:00	27756	17	-52.5	-85.9	303	8
2023-09-20T00:00	27773	17	-52.4	-85.8	301	8
2023-09-20T00:00	27797	17	-52.3	-85.8	298	8
2023-09-20T00:00	27827	17	-52.0	-86.4	295	8
2023-09-20T00:00	27854	17	-51.7	-86.2	293	8
2023-09-20T00:00	27875	16	-51.4	-86.0	292	8
2023-09-20T00:00	27907	16	-51.5	-86.1	293	8
2023-09-20T00:00	27922	16	-51.5	-86.1	295	8
2023-09-20T00:00	27957	16	-51.4	-86.0	298	8
2023-09-20T00:00	27989	16	-51.5	-86.1	302	7
2023-09-20T00:00	28016	16	-51.3	-85.9	307	7
2023-09-20T00:00	28031	16	-51.2	-85.0	311	6
2023-09-20T00:00	28062	16	-51.1	-84.9	314	6
2023-09-20T00:00	28086	16	-51.1	-84.9	317	5
2023-09-20T00:00	28114	16	-51.2	-85.0	317	5
2023-09-20T00:00	28142	16	-51.3	-85.0	314	4
2023-09-20T00:00	28167	16	-51.4	-85.1	306	3
2023-09-20T00:00	28197	16	-51.6	-85.2	290	2
2023-09-20T00:00	28231	16	-51.4	-85.1	263	2
2023-09-20T00:00	28259	16	-51.3	-85.0	237	2
2023-09-20T00:00	28281	15	-51.2	-85.0	224	3
2023-09-20T00:00	28321	15	-51.1	-84.9	221	3
2023-09-20T00:00	28341	15	-51.2	-85.8	224	4
2023-09-20T00:00	28368	15	-51.2	-85.8	231	4
2023-09-20T00:00	28390	15	-51.0	-85.7	239	5
2023-09-20T00:00	28424	15	-50.9	-85.6	247	6
2023-09-20T00:00	28462	15	-51.1	-85.8	254	7
2023-09-20T00:00	28480	15	-51.2	-85.8	259	8
2023-09-20T00:00	28509	15	-51.0	-85.7	264	9
2023-09-20T00:00	28532	15	-50.7	-85.5	268	10
2023-09-20T00:00	28566	15	-50.7	-85.5	271	11
2023-09-20T00:00	28590	15	-50.7	-85.5	275	11
2023-09-20T00:00	28622	15	-50.7	-85.5	277	11
2023-09-20T00:00	28659	15	-50.8	-85.6	278	11
2023-09-20T00:00	28678	15	-51.0	-84.8	279	11
2023-09-20T00:00	28719	15	-51.2	-85.0	278	11
2023-09-20T00:00	28740	14	-51.3	-85.0	277	11
2023-09-20T00:00	28772	14	-51.3	-85.0	275	10
2023-09-20T00:00	28793	14	-51.4	-85.1	274	10
2023-09-20T00:00	28837	14	-51.6	-85.2	273	9
2023-09-20T00:00	28866	14	-51.8	-85.4	272	9
2023-09-20T00:00	28900	14	-52.0	-85.5	271	8
2023-09-20T00:00	28922	14	-51.9	-85.5	268	8
2023-09-20T00:00	28946	14	-51.8	-85.4	264	7
2023-09-20T00:00	28995	14	-51.8	-85.4	260	7
2023-09-20T00:00	29005	14	-51.8	-85.4	257	7
2023-09-20T00:00	29037	14	-51.8	-85.4	256	7
2023-09-20T00:00	29074	14	-51.8	-85.4	257	8
2023-09-20T00:00	29108	14	-51.8	-86.3	258	8
2023-09-20T00:00	29142	14	-51.7	-86.2	260	8
2023-09-20T00:00	29172	14	-51.6	-86.1	260	8
2023-09-20T00:00	29190	13	-51.3	-85.9	261	8
2023-09-20T00:00	29221	13	-51.2	-85.8	262	8
2023-09-20T00:00	29247	13	-51.1	-85.8	264	8
2023-09-20T00:00	29273	13	-50.9	-85.6	266	8
2023-09-20T00:00	29310	13	-51.0	-85.7	270	8
2023-09-20T00:00	29330	13	-51.2	-85.8	273	8
2023-09-20T00:00	29370	13	-51.3	-85.9	277	8
2023-09-20T00:00	29393	13	-51.1	-85.8	279	8
2023-09-20T00:00	29415	13	-51.1	-85.8	279	8
2023-09-20T00:00	29439	13	-51.2	-85.8	277	8
2023-09-20T00:00	29477	13	-51.1	-85.8	275	7
2023-09-20T00:00	29485	13	-51.1	-85.8	271	7
2023-09-20T00:00	29523	13	-51.1	-85.8	267	7
2023-09-20T00:00	29543	13	-51.3	-85.9	264	7
2023-09-20T00:00	29585	13	-51.4	-86.0	263	7
2023-09-20T00:00	29594	13	-51.5	-86.1	262	8
2023-09-20T00:00	29637	13	-51.4	-86.0	263	8
2023-09-20T00:00	29647	13	-51.4	-86.0	264	8
2023-09-20T00:00	29676	13	-51.1	-85.8	267	8
2023-09-20T00:00	29696	12	-51.2	-85.8	270	8
2023-09-20T00:00	29725	12	-51.1	-85.8	274	8
2023-09-20T00:00	29762	12	-50.8	-85.6	277	9
2023-09-20T00:00	29779	12	-50.8	-85.6	279	9
2023-09-20T00:00	29801	12	-50.9	-85.6	282	9
2023-09-20T00:00	29831	12	-50.8	-85.6	284	9
2023-09-20T00:00	29858	12	-50.8	-85.6	287	10
2023-09-20T00:00	29889	12	-51.0	-85.7	290	10
2023-09-20T00:00	29898	12	-50.7	-85.5	293	10
2023-09-20T00:00	29933	12	-50.3	-85.2	296	10
2023-09-20T00:00	29952	12	-50.3	-85.2	299	11
2023-09-20T00:00	29980	12	-50.4	-85.3	302	10
2023-09-20T00:00	30002	12	-50.3	-85.2	303	10
2023-09-20T00:00	30051	12	-50.2	-86.2	303	10
2023-09-20T00:00	30064	12	-49.9	-86.0	301	9
2023-09-20T00:00	30099	12	-49.7	-85.8	298	8
2023-09-20T00:00	30117	12	-49.5	-85.7	294	8
2023-09-20T00:00	30146	12	-49.6	-85.8	289	7
2023-09-20T00:00	30172	12	-49.5	-85.7	283	7
2023-09-20T00:00	30199	12	-49.4	-85.6	278	7
2023-09-20T00:00	30240	11	-49.4	-85.6	273	6
2023-09-20T00:00	30241	11	-49.2	-85.5	269	7
2023-09-20T00:00	30286	11	-49.1	-85.4	267	7
2023-09-20T00:00	30320	11	-49.2	-85.5	266	7
2023-09-20T00:00	30348	11	-49.1	-85.4	265	7
2023-09-20T00:00	30379	11	-48.9	-85.3	264	8
2023-09-20T00:00	30386	11	-48.6	-85.0	263	8
2023-09-20T00:00	30426	11	-48.4	-84.9	263	8
2023-09-20T00:00	30459	11	-48.3	-84.8	263	7
2023-09-20T00:00	30495	11	-48.3	-84.8	264	7
2023-09-20T00:00	30508	11	-48.2	-84.8	265	7
2023-09-20T00:00	30547	11	-48.1	-84.7	268	6
2023-09-20T00:00	30583	11	-47.9	-84.6	270	6
2023-09-20T00:00	30598	11	-48.0	-84.6	272	5
2023-09-20T00:00	30633	11	-48.2	-84.8	273	5
2023-09-20T00:00	30645	11	-48.3	-84.8	271	5
2023-09-20T00:00	30689	11	-48.2	-84.8	269	6
2023-09-20T00:00	30726	11	-48.1	-84.7	267	6
2023-09-20T00:00	30744	11	-48.1	-84.7	265	7
2023-09-20T00:00	30787	11	-48.1	-84.7	263	7
2023-09-20T00:00	30810	11	-48.1	-84.7	264	8
2023-09-20T00:00	30840	10	-48.2	-84.8	265	9
2023-09-20T00:00	30866	10	-48.3	-84.8	266	10
2023-09-20T00:00	30872	10	-48.2	-84.8	268	10
2023-09-20T00:00	30924	10	-47.9	-84.6	270	11
2023-09-20T00:00	30949	10	-47.7	-84.4	271	11
2023-09-20T00:00	30978	10	-47.2	-84.1	272	11
2023-09-20T00:00	30989	10	-46.8	-83.8	272	11
2023-09-20T00:00	31015	10	-46.7	-83.7	273	11
2023-09-20T00:00	31055	10	-46.8	-83.8	272	10
2023-09-20T00:00	31090	10	-46.7	-83.7	272	10
2023-09-20T00:00	31114	10	-46.6	-83.6	272	11
2023-09-20T00:00	31117	10	-46.4	-83.5	272	11
2023-09-20T00:00	31165	10	-46.1	-83.3	273	11
2023-09-20T00:00	31193	10	-46.0	-83.2	274	12
2023-09-20T00:00	31209	10	-46.0	-83.2	275	13
2023-09-20T00:00	31227	10	-46.1	-83.3	277	13
2023-09-20T00:00	31251	10	-45.9	-83.2	279	14
2023-09-20T00:00	31296	10	-45.9	-83.2	281	14
2023-09-20T00:00	31311	10	-45.9	-83.2	283	15
2023-09-20T00:00	31349	10	-45.9	-83.2	284	15
2023-09-20T00:00	31368	10	-45.9	-83.2	284	15
2023-09-20T00:00	31399	10	-45.9	-83.2	284	14
2023-09-20T00:00	31415	10	-45.7	-83.0	283	14
2023-09-20T00:00	31461	10	-45.6	-82.9	281	13
2023-09-20T00:00	31477	10	-45.6	-82.9	279	12
2023-09-20T00:00	31492	10	-45.6	-82.9	278	12
2023-09-20T00:00	31531	9	-45.6	-82.9	276	11
2023-09-20T00:00	31547	9	-45.7	-83.0	275	11
2023-09-20T00:00	31565	9	-45.8	-83.1	273	11
2023-09-20T00:00	31614	9	-45.9	-83.2	270	10
2023-09-20T00:00	31635	9	-46.1	-83.3	266	10
2023-09-20T00:00	31653	9	-46.1	-83.3	261	10
2023-09-20T00:00	31700	9	-46.2	-83.4	257	10
2023-09-20T00:00	31717	9	-46.3	-83.4	254	10
2023-09-20T00:00	31734	9	-46.4	-83.5	252	10
2023-09-20T00:00	31767	9	-46.5	-83.6	251	10
2023-09-20T00:00	31790	9	-46.5	-83.6	250	11
2023-09-20T00:00	31826	9	-46.4	-83.5	251	12
2023-09-20T00:00	31861	9	-46.5	-83.6	252	12
2023-09-20T00:00	31879	9	-46.4	-83.5	254	13
2023-09-20T00:00	31902	9	-46.4	-83.5	257	14
2023-09-20T00:00	31928	9	-46.2	-83.4	260	14
2023-09-20T00:00	31952	9	-46.1	-83.3	262	15
2023-09-20T00:00	31987	9	-45.9	-83.2	265	15
2023-09-20T00:00	32014	9	-45.9	-83.2	266	15
2023-09-20T00:00	32044	9	-45.8	-83.1	267	16
2023-09-20T00:00	32065	9	-45.8	-83.1	268	16
2023-09-20T00:00	32084	9	-45.8	-83.1	268	16
2023-09-20T00:00	32128	9	-45.8	-83.1	268	15
2023-09-20T00:00	32130	9	-45.9	-83.2	269	15
2023-09-20T00:00	32174	9	-46.0	-83.2	270	15
2023-09-20T00:00	32203	9	-46.1	-83.3	272	15
2023-09-20T00:00	32219	9	-46.1	-83.3	273	15
2023-09-20T00:00	32237	8	-45.9	-83.2	273	15
2023-09-20T00:00	32282	8	-45.9	-83.2	274	16
2023-09-20T00:00	32313	8	-45.9	-83.2	275	16
2023-09-20T00:00	32333	8	-45.8	-83.1	275	16
2023-09-20T00:00	32356	8	-45.7	-83.0	275	16
2023-09-20T00:00	32369	8	-45.6	-82.9	275	16
2023-09-20T00:00	32430	8	-45.4	-82.8	275	16
2023-09-20T00:00	32449	8	-45.3	-82.7	275	16
2023-09-20T00:00	32478	8	-45.3	-82.7	274	16
2023-09-20T00:00	32490	8	-45.1	-82.6	274	16
2023-09-20T00:00	32515	8	-44.9	-82.5	275	16
2023-09-20T00:00	32551	8	-44.5	-82.2	275	16
2023-09-20T00:00	32570	8	-44.4	-82.1	275	16
2023-09-20T00:00	32616	8	-44.3	-82.0	274	16
2023-09-20T00:00	32640	8	-44.1	-81.9	274	16
2023-09-20T00:00	32661	8	-44.0	-81.8	273	16
2023-09-20T00:00	32693	8	-44.0	-81.8	273	16
2023-09-20T00:00	32722	8	-44.2	-82.0	273	17
2023-09-20T00:00	32740	8	-44.2	-82.0	273	18
2023-09-20T00:00	32766	8	-44.1	-81.9	274	19
2023-09-20T00:00	32786	8	-43.9	-81.8	274	20
2023-09-20T00:00	32830	8	-43.8	-81.7	275	21
2023-09-20T00:00	32856	8	-43.6	-81.5	275	22
2023-09-20T00:00	32876	8	-43.6	-81.5	276	23
2023-09-20T00:00	32907	8	-43.5	-81.5	275	24
2023-09-20T00:00	32919	8	-43.6	-81.5	275	24
2023-09-20T00:00	32939	8	-43.5	-81.5	275	24
2023-09-20T00:00	32978	8	-43.4	-81.4	275	24
2023-09-20T00:00	33004	8	-43.1	-81.2	276	23
2023-09-20T00:00	33061	8	-42.7	-80.9	277	23
2023-09-20T00:00	33080	8	-42.7	-80.9	279	22
2023-09-20T00:00	33102	7	-42.8	-81.0	281	22
2023-09-20T00:00	33128	7	-42.9	-81.1	283	23
2023-09-20T00:00	33159	7	-42.7	-80.9	285	23
2023-09-20T00:00	33185	7	-42.4	-80.7	286	23
2023-09-20T00:00	33204	7	-42.3	-80.6	288	23
2023-09-20T00:00	33236	7	-42.3	-80.6	290	23
2023-09-20T00:00	33277	7	-42.1	-80.5	291	23
2023-09-20T00:00	33333	7	-41.9	-80.4	291	22
2023-09-20T00:00	33336	7	-41.8	-80.3	290	22
2023-09-20T00:00	33352	7	-41.6	-80.1	289	21
2023-09-20T00:00	33379	7	-41.4	-80.0	288	20
2023-09-20T00:00	33415	7	-41.5	-80.1	286	20
2023-09-20T00:00	33447	7	-41.7	-80.2	284	19
2023-09-20T00:00	33504	7	-41.6	-80.1	281	18
2023-09-20T00:00	33538	7	-41.5	-80.1	280	18
2023-09-20T00:00	33560	7	-41.2	-79.9	279	18
2023-09-20T00:00	33605	7	-40.8	-79.6	279	18
2023-09-20T00:00	33607	7	-40.4	-79.3	280	18
2023-09-20T00:00	33641	7	-40.1	-79.1	280	19
2023-09-20T00:00	33667	7	-39.9	-79.0	280	20
2023-09-20T00:00	33711	7	-39.8	-78.9	280	20
2023-09-20T00:00	33736	7	-39.8	-78.9	280	20
2023-09-20T00:00	33784	7	-39.9	-79.0	281	21
2023-09-20T00:00	33786	7	-40.0	-79.0	282	21
2023-09-20T00:00	33795	7	-40.0	-79.0	284	21
2023-09-20T00:00	33871	7	-40.0	-79.0	286	22
2023-09-20T00:00	33907	7	-40.2	-79.2	290	22
2023-09-20T00:00	33930	7	-40.3	-79.2	291	22
2023-09-20T00:00	33974	7	-40.4	-79.3	293	23
2023-09-20T00:00	33996	7	-40.5	-79.4	293	24
2023-09-20T00:00	34021	7	-40.5	-79.4	293	24
2023-09-20T00:00	34058	7	-40.6	-79.5	294	25
2023-09-20T00:00	34064	6	-40.6	-79.5	294	26
2023-09-20T00:00	34111	6	-40.4	-79.3	294	26
2023-09-20T00:00	34130	6	-40.2	-79.2	295	27
2023-09-20T00:00	34162	6	-40.0	-79.0	296	27
2023-09-20T00:00	34179	6	-39.9	-79.0	296	26
2023-09-20T00:00	34209	6	-40.0	-79.0	297	26
2023-09-20T00:00	34244	6	-40.2	-79.2	297	26
2023-09-20T00:00	34271	6	-40.4	-79.3	298	25
2023-09-20T00:00	34297	6	-40.6	-79.5	298	24
2023-09-20T00:00	34328	6	-40.7	-79.5	299	24
2023-09-20T00:00	34356	6	-40.7	-79.5	300	23
2023-09-20T00:00	34395	6	-40.4	-79.3	301	22
2023-09-20T00:00	34403	6	-40.4	-79.3	302	22
2023-09-20T00:00	34442	6	-40.5	-79.4	303	21
2023-09-20T00:00	34454	6	-40.7	-79.5	304	21
2023-09-20T00:00	34480	6	-40.8	-79.6	303	20
2023-09-20T00:00	34491	6	-40.9	-79.7	302	20
2023-09-20T00:00	34540	6	-40.8	-79.6	300	20
2023-09-20T00:00	34561	6	-40.5	-79.4	298	20
2023-09-20T00:00	34584	6	-40.2	-79.2	295	19
2023-09-20T00:00	34635	6	-40.0	-79.0	293	19
2023-09-20T00:00	34665	6	-39.8	-78.9	290	19
2023-09-20T00:00	34678	6	-39.5	-78.7	287	19
2023-09-20T00:00	34711	6	-39.5	-78.7	285	19
2023-09-20T00:00	34745	6	-39.4	-78.6	282	19
2023-09-20T00:00	34760	6	-39.4	-78.6	280	19
2023-09-20T00:00	34806	6	-39.3	-78.5	279	20
2023-09-20T00:00	34838	6	-39.2	-78.5	279	20
2023-09-20T00:00	34890	6	-39.0	-78.3	280	21
2023-09-20T00:00	34897	6	-38.8	-78.2	281	21
2023-09-20T00:00	34932	6	-38.6	-78.1	282	22
2023-09-20T00:00	34945	6	-38.3	-77.9	283	22
2023-09-20T00:00	34983	6	-38.3	-77.9	285	22
2023-09-20T00:00	35005	6	-38.2	-77.8	286	22
2023-09-20T00:00	35073	6	-38.4	-77.9	287	21
2023-09-20T00:00	35103	6	-38.4	-77.9	288	20
2023-09-20T00:00	35105	6	-38.3	-77.9	288	19
2023-09-20T00:00	35150	6	-38.2	-77.8	288	19
2023-09-20T00:00	35186	6	-38.0	-77.6	287	18
2023-09-20T00:00	35189	6	-37.9	-77.6	288	18
2023-09-20T00:00	35225	5	-37.7	-77.4	289	18
2023-09-20T00:00	35234	5	-37.5	-77.3	289	19
2023-09-20T00:00	35256	5	-37.6	-77.4	289	19
2023-09-20T00:00	35287	5	-37.4	-77.2	289	19
2023-09-20T00:00	35309	5	-37.3	-77.2	288	19
2023-09-20T00:00	35345	5	-37.1	-77.0	286	19
2023-09-20T00:00	35368	5	-37.0	-77.0	284	18
2023-09-20T00:00	35385	5	-36.9	-76.9	283	18
2023-09-20T00:00	35423	5	-36.7	-76.7	282	18
2023-09-20T00:00	35456	5	-36.5	-76.6	281	19
2023-09-20T00:00	35458	5	-36.4	-76.5	280	19
2023-09-20T00:00	35483	5	-36.2	-76.4	278	19
2023-09-20T00:00	35522	5	-36.1	-76.3	277	20
2023-09-20T00:00	35526	5	-36.1	-76.3	276	20
2023-09-20T00:00	35529	5	-36.2	-76.4	275	20
2023-09-20T00:00	35543	5	-36.2	-76.4	275	20
2023-09-20T00:00	35596	5	-36.2	-76.4	275	20
2023-09-20T00:00	35653	5	-36.1	-76.3	275	19
2023-09-20T00:00	35699	5	-35.9	-76.2	278	19
2023-09-20T00:00	35701	5	-35.7	-76.1	279	19
2023-09-20T00:00	35748	5	-35.5	-75.9	280	19
2023-09-20T00:00	35750	5	-35.5	-75.9	281	19
2023-09-20T00:00	35786	5	-35.7	-76.1	282	19
2023-09-20T00:00	35814	5	-35.9	-76.2	282	19
2023-09-20T00:00	35825	5	-36.0	-76.3	283	19
2023-09-20T00:00	35866	5	-36.1	-76.3	284	19
2023-09-20T00:00	35885	5	-36.1	-76.3	285	19
2023-09-20T00:00	35894	5	-36.2	-76.4	287	19
2023-09-20T00:00	35925	5	-36.3	-76.5	288	19
2023-09-20T00:00	35929	5	-36.3	-76.5	289	18
2023-09-20T00:00	35988	5	-36.4	-76.5	289	18
2023-09-20T00:00	36011	5	-36.5	-76.6	291	18
2023-09-20T00:00	36044	5	-36.5	-76.6	293	17
2023-09-20T00:00	36055	5	-36.4	-76.5	296	17
2023-09-20T00:00	36094	5	-36.5	-76.6	298	17
2023-09-20T06:00	-999					
2023-09-20T06:00	132	996	14.5	9.6	228	4
2023-09-20T06:00	160	993	14.1	9.3	227	6
2023-09-20T06:00	188	990	14.3	9.3	228	8
2023-09-20T06:00	216	986	14.4	9.3	231	9
2023-09-20T06:00	241	983	14.5	9.3	235	11
2023-09-20T06:00	268	980	14.8	9.4	240	12
2023-09-20T06:00	293	977	14.8	9.5	244	13
2023-09-20T06:00	319	974	15.1	9.4	249	13
2023-09-20T06:00	347	971	15.1	9.3	252	14
2023-09-20T06:00	374	968	15.8	9.3	255	13
2023-09-20T06:00	404	965	15.8	9.5	258	13
2023-09-20T06:00	429	962	15.6	9.4	260	13
2023-09-20T06:00	458	959	15.5	9.6	262	13
2023-09-20T06:00	482	956	15.2	9.6	264	13
2023-09-20T06:00	510	953	15.0	9.6	266	13
2023-09-20T06:00	537	950	14.8	9.7	269	13
2023-09-20T06:00	565	947	14.6	9.7	271	13
2023-09-20T06:00	588	944	14.4	9.8	273	13
2023-09-20T06:00	614	941	14.1	9.7	275	13
2023-09-20T06:00	643	938	13.9	9.8	276	13
2023-09-20T06:00	668	935	13.7	9.9	277	12
2023-09-20T06:00	697	932	13.5	10.0	278	12
2023-09-20T06:00	724	929	13.2	9.9	279	12
2023-09-20T06:00	755	926	13.0	10.0	279	11
2023-09-20T06:00	782	923	12.8	10.1	280	11
2023-09-20T06:00	810	919	12.6	10.2	281	11
2023-09-20T06:00	839	916	12.4	10.3	282	11
2023-09-20T06:00	866	913	12.1	10.1	282	11
2023-09-20T06:00	898	910	11.8	10.1	281	11
2023-09-20T06:00	923	907	11.7	10.2	279	10
2023-09-20T06:00	954	904	11.5	10.1	276	10
2023-09-20T06:00	982	901	11.4	9.8	272	10
2023-09-20T06:00	1011	898	11.5	9.6	269	9
2023-09-20T06:00	1040	895	11.4	9.4	266	9
2023-09-20T06:00	1069	892	11.3	9.3	265	9
2023-09-20T06:00	1095	889	11.5	9.1	265	9
2023-09-20T06:00	1124	886	11.3	9.0	265	9
2023-09-20T06:00	1154	883	11.1	8.9	266	10
2023-09-20T06:00	1176	880	10.9	8.8	265	10
2023-09-20T06:00	1205	877	10.8	8.7	264	10
2023-09-20T06:00	1233	874	10.7	8.6	263	10
2023-09-20T06:00	1262	871	10.5	8.6	262	11
2023-09-20T06:00	1287	868	10.2	8.4	261	11
2023-09-20T06:00	1316	865	10.0	8.3	260	11
2023-09-20T06:00	1345	862	9.8	8.2	260	12
2023-09-20T06:00	1377	859	9.9	7.8	260	12
2023-09-20T06:00	1405	856	9.9	7.5	260	13
2023-09-20T06:00	1438	853	9.9	7.4	260	13
2023-09-20T06:00	1468	850	9.7	7.3	260	13
2023-09-20T06:00	1499	847	9.6	7.4	260	13
2023-09-20T06:00	1524	844	9.7	7.0	259	13
2023-09-20T06:00	1553	841	9.8	7.2	259	13
2023-09-20T06:00	1580	838	9.6	7.1	258	13
2023-09-20T06:00	1608	836	9.5	6.9	258	13
2023-09-20T06:00	1636	833	9.3	6.7	258	13
2023-09-20T06:00	1667	830	9.0	6.5	259	13
2023-09-20T06:00	1698	827	8.8	6.3	260	14
2023-09-20T06:00	1725	824	8.7	6.0	262	14
2023-09-20T06:00	1755	821	8.5	6.0	263	14
2023-09-20T06:00	1785	818	8.4	6.3	264	14
2023-09-20T06:00	1814	815	8.3	5.9	264	14
2023-09-20T06:00	1844	812	8.3	5.7	265	14
2023-09-20T06:00	1874	809	8.3	5.3	265	14
2023-09-20T06:00	1902	807	8.2	5.2	266	14
2023-09-20T06:00	1933	804	8.1	5.0	268	14
2023-09-20T06:00	1962	801	8.1	4.9	269	14
2023-09-20T06:00	1993	798	7.9	4.8	269	14
2023-09-20T06:00	2021	795	7.8	4.7	269	14
2023-09-20T06:00	2054	792	7.6	4.5	269	14
2023-09-20T06:00	2086	789	7.4	4.2	268	14
2023-09-20T06:00	2118	786	7.3	4.1	268	14
2023-09-20T06:00	2144	783	7.2	3.9	268	14
2023-09-20T06:00	2176	780	7.1	3.5	269	14
2023-09-20T06:00	2209	777	6.9	3.5	271	14
2023-09-20T06:00	2241	774	6.7	3.4	274	14
2023-09-20T06:00	2270	771	6.7	3.1	276	13
2023-09-20T06:00	2301	769	6.6	3.0	277	13
2023-09-20T06:00	2327	766	6.4	2.9	277	13
2023-09-20T06:00	2358	763	6.2	2.8	278	12
2023-09-20T06:00	2387	760	5.9	2.7	277	12
2023-09-20T06:00	2418	758	5.7	2.6	277	11
2023-09-20T06:00	2447	755	5.4	2.6	277	11
2023-09-20T06:00	2476	752	5.2	2.5	277	11
2023-09-20T06:00	2504	750	5.0	2.2	278	11
2023-09-20T06:00	2534	747	4.8	1.5	279	11
2023-09-20T06:00	2563	744	4.6	1.1	281	11
2023-09-20T06:00	2593	741	4.4	0.0	282	11
2023-09-20T06:00	2623	739	4.3	-0.8	284	11
2023-09-20T06:00	2655	736	4.2	-1.2	285	11
2023-09-20T06:00	2687	733	3.9	-0.3	285	11
2023-09-20T06:00	2719	730	3.7	-0.6	285	11
2023-09-20T06:00	2749	727	3.8	-0.1	285	11
2023-09-20T06:00	2781	725	3.9	-2.0	284	11
2023-09-20T06:00	2811	722	3.8	-3.5	284	12
2023-09-20T06:00	2841	719	3.5	-3.8	285	12
2023-09-20T06:00	2871	717	3.3	-3.9	285	12
2023-09-20T06:00	2900	714	3.1	-3.6	286	12
2023-09-20T06:00	2931	711	3.0	-3.3	286	11
2023-09-20T06:00	2961	709	2.9	-2.9	287	11
2023-09-20T06:00	2994	706	2.9	-3.4	287	11
2023-09-20T06:00	3021	703	2.7	-3.0	288	11
2023-09-20T06:00	3049	701	2.4	-2.1	288	10
2023-09-20T06:00	3078	699	2.1	-1.9	289	10
2023-09-20T06:00	3106	696	1.9	-1.9	289	10
2023-09-20T06:00	3133	694	1.7	-2.2	289	11
2023-09-20T06:00	3161	691	1.6	-3.1	290	11
2023-09-20T06:00	3193	689	1.4	-3.1	291	11
2023-09-20T06:00	3224	686	1.2	-3.2	292	12
2023-09-20T06:00	3252	684	1.1	-3.2	292	12
2023-09-20T06:00	3280	681	1.0	-3.4	292	13
2023-09-20T06:00	3307	679	0.9	-3.4	292	13
2023-09-20T06:00	3336	677	0.8	-3.5	292	13
2023-09-20T06:00	3363	674	0.6	-3.6	292	13
2023-09-20T06:00	3392	672	0.5	-4.0	293	13
2023-09-20T06:00	3420	669	0.4	-4.5	293	13
2023-09-20T06:00	3448	667	0.3	-4.7	293	13
2023-09-20T06:00	3475	665	0.1	-4.9	293	13
2023-09-20T06:00	3503	663	0.0	-5.1	292	13
2023-09-20T06:00	3533	660	-0.2	-5.2	292	13
2023-09-20T06:00	3560	658	-0.4	-5.3	292	14
2023-09-20T06:00	3588	656	-0.6	-5.4	292	13
2023-09-20T06:00	3618	653	-0.9	-5.5	292	13
2023-09-20T06:00	3646	651	-1.2	-5.6	291	13
2023-09-20T06:00	3676	648	-1.5	-5.8	289	13
2023-09-20T06:00	3702	646	-1.7		287	13
2023-09-20T06:00	3731	644	-1.8	-5.1	285	13
2023-09-20T06:00	3761	642	-2.0	-5.1	283	13
2023-09-20T06:00	3790	639	-2.2	-5.2	281	13
2023-09-20T06:00	3816	637	-2.3	-5.6	279	13
2023-09-20T06:00	3846	635	-2.5	-5.7	277	13
2023-09-20T06:00	3876	632	-2.8	-5.7	276	13
2023-09-20T06:00	3906	630	-3.1	-5.6	275	13
2023-09-20T06:00	3936	628	-3.3	-5.3	275	14
2023-09-20T06:00	3963	625	-3.6	-4.9	275	14
2023-09-20T06:00	3995	623	-3.8	-5.0	275	14
2023-09-20T06:00	4024	621	-3.9	-5.1	275	14
2023-09-20T06:00	4052	618	-3.9	-5.9	275	14
2023-09-20T06:00	4082	616	-3.8	-6.5	273	14
2023-09-20T06:00	4111	614	-3.9	-6.7	272	14
2023-09-20T06:00	4140	612	-4.0	-6.5	270	14
2023-09-20T06:00	4169	609	-4.2	-6.5	268	15
2023-09-20T06:00	4200	607	-4.5	-6.6	267	15
2023-09-20T06:00	4227	605	-4.7	-6.5	266	15
2023-09-20T06:00	4255	603	-4.9	-6.4	266	15
2023-09-20T06:00	4283	600	-5.2	-6.6	265	15
2023-09-20T06:00	4312	598	-5.4	-6.6	265	16
2023-09-20T06:00	4339	596	-5.5	-6.6	264	16
2023-09-20T06:00	4369	594	-5.8	-6.9	263	16
2023-09-20T06:00	4399	592	-6.0	-7.0	262	16
2023-09-20T06:00	4430	590	-6.2	-7.3	261	17
2023-09-20T06:00	4456	587	-6.4	-7.6	260	17
2023-09-20T06:00	4484	585	-6.5	-7.8	259	17
2023-09-20T06:00	4514	583	-6.6	-7.8	257	17
2023-09-20T06:00	4543	581	-6.8	-7.8	255	17
2023-09-20T06:00	4572	579	-6.9	-7.6	253	17
2023-09-20T06:00	4600	577	-6.8	-8.7	251	17
2023-09-20T06:00	4628	575	-6.8	-9.3	249	17
2023-09-20T06:00	4658	573	-6.9	-8.8	247	17
2023-09-20T06:00	4687	570	-6.8	-9.2	246	17
2023-09-20T06:00	4714	568	-7.0	-9.1	246	18
2023-09-20T06:00	4744	566	-7.2	-8.9	245	17
2023-09-20T06:00	4770	564	-7.4	-9.0	244	17
2023-09-20T06:00	4801	562	-7.6	-9.1	243	17
2023-09-20T06:00	4828	560	-7.8	-9.1	242	17
2023-09-20T06:00	4855	558	-8.0	-8.8	241	17
2023-09-20T06:00	4885	556	-8.2	-8.7	240	17
2023-09-20T06:00	4914	554	-8.5	-8.6	240	17
2023-09-20T06:00	4942	552	-8.6	-8.6	239	18
2023-09-20T06:00	4971	550	-8.8	-8.8	239	18
2023-09-20T06:00	5003	548	-9.1	-9.2	238	18
2023-09-20T06:00	5032	546	-9.2	-9.2	238	18
2023-09-20T06:00	5059	544	-9.4	-9.4	239	18
2023-09-20T06:00	5088	542	-9.7	-9.7	239	18
2023-09-20T06:00	5116	540	-9.7	-10.2	240	18
2023-09-20T06:00	5145	538	-10.1	-10.3	241	18
2023-09-20T06:00	5173	536	-10.1	-10.8	241	19
2023-09-20T06:00	5201	534	-10.2	-11.2	242	19
2023-09-20T06:00	5229	532	-10.3	-11.8	242	19
2023-09-20T06:00	5258	530	-10.4	-12.0	241	19
2023-09-20T06:00	5287	528	-10.4	-12.6	241	19
2023-09-20T06:00	5318	526	-10.3	-13.5	241	19
2023-09-20T06:00	5348	524	-10.4	-13.6	242	20
2023-09-20T06:00	5375	522	-10.6	-13.9	242	20
2023-09-20T06:00	5403	520	-10.8	-14.0	243	20
2023-09-20T06:00	5432	518	-10.9	-14.2	243	20
2023-09-20T06:00	5460	516	-10.9	-14.4	244	19
2023-09-20T06:00	5490	514	-11.0	-14.5	245	19
2023-09-20T06:00	5519	512	-10.8	-14.7	247	20
2023-09-20T06:00	5547	510	-10.8	-15.0	247	20
2023-09-20T06:00	5572	509	-10.9	-15.3	248	20
2023-09-20T06:00	5599	507	-11.1	-15.4	248	20
2023-09-20T06:00	5629	505	-11.3	-15.5	248	20
2023-09-20T06:00	5660	503	-11.4	-15.9	247	21
2023-09-20T06:00	5690	501	-11.4	-16.2	246	21
2023-09-20T06:00	5718	499	-11.5	-16.5	245	21
2023-09-20T06:00	5746	497	-11.6	-16.8	244	22
2023-09-20T06:00	5772	496	-11.9	-17.1	244	22
2023-09-20T06:00	5801	494	-12.1	-17.2	243	22
2023-09-20T06:00	5828	492	-12.3	-17.4	243	21
2023-09-20T06:00	5858	490	-12.6	-17.6	242	21
2023-09-20T06:00	5886	488	-12.8	-17.8	241	21
2023-09-20T06:00	5915	486	-13.1	-18.1	240	21
2023-09-20T06:00	5946	484	-13.3	-18.2	239	21
2023-09-20T06:00	5975	482	-13.6	-18.4	239	21
2023-09-20T06:00	6005	481	-13.8	-18.4	239	21
2023-09-20T06:00	6033	479	-14.1	-18.5	239	21
2023-09-20T06:00	6064	477	-14.4	-18.6	240	21
2023-09-20T06:00	6093	475	-14.6	-19.1	241	21
2023-09-20T06:00	6123	473	-14.8	-19.2	241	21
2023-09-20T06:00	6156	471	-15.1	-19.4	241	21
2023-09-20T06:00	6186	469	-15.3	-19.7	242	21
2023-09-20T06:00	6218	467	-15.7	-19.9	242	21
2023-09-20T06:00	6250	465	-15.9	-20.0	242	21
2023-09-20T06:00	6280	464	-16.1	-20.1	243	21
2023-09-20T06:00	6308	462	-16.3	-20.1	244	21
2023-09-20T06:00	6342	460	-16.6	-20.3	245	20
2023-09-20T06:00	6370	458	-16.8	-20.2	247	20
2023-09-20T06:00	6404	456	-17.1	-20.2	248	20
2023-09-20T06:00	6442	454	-17.3	-20.3	249	19
2023-09-20T06:00	6476	452	-17.6	-20.4	249	19
2023-09-20T06:00	6505	450	-17.8	-20.5	248	19
2023-09-20T06:00	6536	448	-18.0	-21.0	248	18
2023-09-20T06:00	6572	446	-17.9	-21.5	247	18
2023-09-20T06:00	6604	444	-18.1	-21.2	246	18
2023-09-20T06:00	6634	442	-18.3	-21.0	246	18
2023-09-20T06:00	6660	441	-18.6	-21.1	246	18
2023-09-20T06:00	6690	439	-18.8	-21.0	247	18
2023-09-20T06:00	6724	437	-19.2	-21.3	248	18
2023-09-20T06:00	6760	435	-19.5	-21.2	249	18
2023-09-20T06:00	6791	433	-19.8	-21.2	251	19
2023-09-20T06:00	6822	431	-20.1	-21.3	252	19
2023-09-20T06:00	6854	429	-20.3	-21.1	253	19
2023-09-20T06:00	6888	427	-20.6	-21.2	253	19
2023-09-20T06:00	6921	425	-20.9	-21.2	254	19
2023-09-20T06:00	6952	424	-21.1	-21.5	255	19
2023-09-20T06:00	6983	422	-21.2	-21.9	255	19
2023-09-20T06:00	7016	420	-21.5	-21.8	256	19
2023-09-20T06:00	7044	418	-21.7	-22.2	258	18
2023-09-20T06:00	7073	417	-21.9	-22.5	258	18
2023-09-20T06:00	7107	415	-22.1	-23.2	259	18
2023-09-20T06:00	7141	413	-22.2	-23.6	258	18
2023-09-20T06:00	7173	411	-22.4	-23.8	256	18
2023-09-20T06:00	7205	409	-22.6	-23.8	254	18
2023-09-20T06:00	7233	408	-22.9	-23.9	252	18
2023-09-20T06:00	7266	406	-23.2	-24.0	250	18
2023-09-20T06:00	7296	404	-23.5	-24.1	248	18
2023-09-20T06:00	7328	402	-23.8	-24.2	247	18
2023-09-20T06:00	7360	401	-23.9	-24.5	246	18
2023-09-20T06:00	7388	399	-24.1	-24.9	246	19
2023-09-20T06:00	7417	398	-24.2	-25.4	246	19
2023-09-20T06:00	7450	396	-24.5	-25.7	246	19
2023-09-20T06:00	7480	394	-24.7	-26.4	247	19
2023-09-20T06:00	7508	393	-24.9	-26.5	248	19
2023-09-20T06:00	7537	391	-25.0	-27.0	249	20
2023-09-20T06:00	7563	390	-25.0	-27.3	250	20
2023-09-20T06:00	7591	388	-25.1	-27.9	250	21
2023-09-20T06:00	7615	387	-25.3	-27.9	250	21
2023-09-20T06:00	7639	386	-25.5	-28.0	250	21
2023-09-20T06:00	7667	384	-25.8	-28.3	249	22
2023-09-20T06:00	7694	383	-26.0	-28.9	249	22
2023-09-20T06:00	7719	381	-26.2	-29.6	249	22
2023-09-20T06:00	7744	380	-26.3	-30.0	250	22
2023-09-20T06:00	7769	379	-26.5	-29.6	250	21
2023-09-20T06:00	7804	377	-26.7	-30.7	251	21
2023-09-20T06:00	7838	375	-27.0	-30.9	252	21
2023-09-20T06:00	7857	374	-27.2	-30.8	253	21
2023-09-20T06:00	7886	373	-27.5	-30.8	253	22
2023-09-20T06:00	7914	371	-27.7	-30.8	253	22
2023-09-20T06:00	7942	370	-27.9	-30.9	252	22
2023-09-20T06:00	7969	368	-28.1	-31.6	251	22
2023-09-20T06:00	7997	367	-28.3	-31.9	251	22
2023-09-20T06:00	8027	365	-28.4	-32.0	252	22
2023-09-20T06:00	8058	364	-28.7		252	22
2023-09-20T06:00	8087	362	-28.9	-32.5	253	22
2023-09-20T06:00	8112	361	-29.1	-32.7	254	22
2023-09-20T06:00	8141	360	-29.3	-32.7	254	22
2023-09-20T06:00	8170	358	-29.6	-33.0	253	22
2023-09-20T06:00	8199	357	-29.8	-33.1	253	22
2023-09-20T06:00	8225	355	-30.0	-33.5	253	22
2023-09-20T06:00	8251	354	-30.2	-33.5	253	22
2023-09-20T06:00	8279	353	-30.4	-33.6	254	22
2023-09-20T06:00	8310	351	-30.6	-33.7	255	22
2023-09-20T06:00	8341	350	-30.8		255	22
2023-09-20T06:00	8375	348	-31.1	-34.1	256	22
2023-09-20T06:00	8407	346	-31.3	-34.3	256	22
2023-09-20T06:00	8436	345	-31.5	-34.7	257	22
2023-09-20T06:00	8467	344	-31.8	-34.9	257	22
2023-09-20T06:00	8495	342	-32.0	-35.1	257	22
2023-09-20T06:00	8522	341	-32.2	-35.4	257	22
2023-09-20T06:00	8550	339	-32.5	-35.7	257	22
2023-09-20T06:00	8583	338	-32.7	-35.8	258	22
2023-09-20T06:00	8613	337	-33.0	-36.1	258	22
2023-09-20T06:00	8640	335	-33.1	-35.9	258	22
2023-09-20T06:00	8670	334	-33.4	-36.5	258	22
2023-09-20T06:00	8706	332	-33.7	-37.0	258	21
2023-09-20T06:00	8739	331	-33.9	-37.2	258	21
2023-09-20T06:00	8766	329	-34.2	-37.4	259	21
2023-09-20T06:00	8794	328	-34.4	-37.8	260	21
2023-09-20T06:00	8819	327	-34.6	-37.8	260	21
2023-09-20T06:00	8843	326	-34.8	-38.1	261	22
2023-09-20T06:00	8868	324	-35.0	-38.5	261	22
2023-09-20T06:00	8892	323	-35.2	-38.7	262	22
2023-09-20T06:00	8918	322	-35.4	-38.8	262	22
2023-09-20T06:00	8952	321	-35.6	-39.1	263	21
2023-09-20T06:00	8983	319	-35.9	-39.5	263	21
2023-09-20T06:00	9012	318	-36.1	-39.7	264	20
2023-09-20T06:00	9036	317	-36.3	-39.9	264	20
2023-09-20T06:00	9069	315	-36.6	-40.0	264	20
2023-09-20T06:00	9101	314	-36.9	-40.3	263	20
2023-09-20T06:00	9132	312	-37.2	-40.6	262	20
2023-09-20T06:00	9161	311	-37.5	-40.8	261	21
2023-09-20T06:00	9192	310	-37.7	-40.8	260	21
2023-09-20T06:00	9224	308	-38.1	-41.2	259	21
2023-09-20T06:00	9248	307	-38.3	-41.4	259	20
2023-09-20T06:00	9280	306	-38.5	-41.5	259	20
2023-09-20T06:00	9312	304	-38.8	-41.7	259	20
2023-09-20T06:00	9348	303	-39.1	-42.1	260	20
2023-09-20T06:00	9383	301	-39.3	-42.7	260	20
2023-09-20T06:00	9413	300	-39.5		261	20
2023-09-20T06:00	9440	299	-39.8	-42.9	262	20
2023-09-20T06:00	9472	297	-40.0	-43.2	262	20
2023-09-20T06:00	9505	296	-40.2	-43.5	262	20
2023-09-20T06:00	9539	294	-40.5	-43.8	261	20
2023-09-20T06:00	9571	293	-40.9	-44.3	262	20
2023-09-20T06:00	9604	292	-41.2	-44.6	262	20
2023-09-20T06:00	9639	290	-41.5	-44.9	263	20
2023-09-20T06:00	9673	289	-41.9	-45.1	263	20
2023-09-20T06:00	9707	287	-42.2	-45.5	264	19
2023-09-20T06:00	9733	286	-42.4	-46.3	266	19
2023-09-20T06:00	9763	285	-42.7	-46.6	267	19
2023-09-20T06:00	9792	284	-43.0	-46.8	268	20
2023-09-20T06:00	9822	282	-43.2	-46.8	269	20
2023-09-20T06:00	9853	281	-43.6	-47.1	269	20
2023-09-20T06:00	9886	280	-43.8	-47.4	269	21
2023-09-20T06:00	9912	279	-44.1	-47.8	269	21
2023-09-20T06:00	9941	277	-44.4	-48.0	268	21
2023-09-20T06:00	9966	276	-44.7	-48.4	268	21
2023-09-20T06:00	9996	275	-44.7	-49.3	267	20
2023-09-20T06:00	10023	274	-44.7	-49.5	267	20
2023-09-20T06:00	10053	273	-44.8	-49.8	267	20
2023-09-20T06:00	10077	272	-44.9	-50.2	268	19
2023-09-20T06:00	10099	271	-45.1	-50.4	268	19
2023-09-20T06:00	10125	270	-45.3	-50.5	268	19
2023-09-20T06:00	10157	269	-45.6	-50.7	268	19
2023-09-20T06:00	10183	267	-45.9	-51.0	267	19
2023-09-20T06:00	10210	266	-46.1	-51.0	267	19
2023-09-20T06:00	10235	265	-46.4	-51.2	267	19
2023-09-20T06:00	10267	264	-46.7	-51.4	267	19
2023-09-20T06:00	10299	263	-46.9	-51.6	268	19
2023-09-20T06:00	10321	262	-47.1	-51.7	268	19
2023-09-20T06:00	10349	261	-47.4	-51.9	270	19
2023-09-20T06:00	10373	260	-47.6	-52.2	271	19
2023-09-20T06:00	10396	259	-47.8	-52.5	272	19
2023-09-20T06:00	10419	258	-47.9	-52.6	273	19
2023-09-20T06:00	10440	257	-48.1	-52.8	274	18
2023-09-20T06:00	10462	256	-48.3	-52.9	275	18
2023-09-20T06:00	10488	255	-48.5	-52.9	275	18
2023-09-20T06:00	10515	254	-48.7	-53.0	275	18
2023-09-20T06:00	10540	253	-49.0	-53.3	274	18
2023-09-20T06:00	10565	253	-49.2	-53.6	274	18
2023-09-20T06:00	10586	252	-49.4	-53.8	274	18
2023-09-20T06:00	10615	251	-49.6		274	18
2023-09-20T06:00	10642	249	-49.9	-54.3	274	18
2023-09-20T06:00	10672	248	-50.1	-54.5	274	18
2023-09-20T06:00	10698	247	-50.3	-54.4	275	18
2023-09-20T06:00	10721	246	-50.6	-54.0	276	18
2023-09-20T06:00	10748	245	-50.8	-53.7	276	18
2023-09-20T06:00	10779	244	-51.1	-54.2	277	19
2023-09-20T06:00	10803	243	-51.3	-54.9	277	19
2023-09-20T06:00	10827	243	-51.5	-55.3	278	19
2023-09-20T06:00	10853	242	-51.7	-55.7	278	19
2023-09-20T06:00	10878	241	-51.9	-56.1	278	19
2023-09-20T06:00	10901	240	-52.1	-56.5	279	19
2023-09-20T06:00	10928	239	-52.3	-56.8	279	19
2023-09-20T06:00	10950	238	-52.5	-57.2	280	19
2023-09-20T06:00	10975	237	-52.7	-57.7	280	19
2023-09-20T06:00	11000	236	-52.8	-57.8	280	20
2023-09-20T06:00	11027	235	-53.0	-58.0	281	20
2023-09-20T06:00	11053	234	-53.2	-58.2	281	20
2023-09-20T06:00	11079	233	-53.4	-58.5	282	20
2023-09-20T06:00	11106	232	-53.6	-58.7	283	20
2023-09-20T06:00	11128	231	-53.7	-58.5	283	20
2023-09-20T06:00	11151	231	-53.9	-58.4	283	20
2023-09-20T06:00	11178	230	-54.0	-58.5	284	20
2023-09-20T06:00	11209	229	-54.3	-59.0	284	20
2023-09-20T06:00	11238	228	-54.5	-59.3	285	20
2023-09-20T06:00	11265	227	-54.8	-59.6	285	20
2023-09-20T06:00	11293	226	-55.0	-59.5	285	20
2023-09-20T06:00	11324	225	-55.3	-59.4	285	20
2023-09-20T06:00	11352	224	-55.5	-59.2	284	19
2023-09-20T06:00	11382	222	-55.7	-58.8	283	19
2023-09-20T06:00	11410	221	-55.8	-59.1	283	19
2023-09-20T06:00	11441	220	-55.5	-60.9	283	19
2023-09-20T06:00	11472	219	-54.4	-64.3	284	19
2023-09-20T06:00	11497	218	-54.3	-69.3	285	18
2023-09-20T06:00	11522	218	-54.1	-71.3	287	18
2023-09-20T06:00	11549	217	-54.0	-71.1	287	17
2023-09-20T06:00	11577	216	-54.1	-70.4	288	16
2023-09-20T06:00	11600	215	-54.1	-69.7	287	16
2023-09-20T06:00	11632	214	-54.1	-69.3	287	15
2023-09-20T06:00	11656	213	-54.0	-68.7	287	15
2023-09-20T06:00	11682	212	-54.2	-68.5	287	15
2023-09-20T06:00	11707	211	-54.4	-68.4	286	14
2023-09-20T06:00	11731	211	-54.5	-68.3	286	14
2023-09-20T06:00	11756	210	-54.6	-68.3	285	14
2023-09-20T06:00	11779	209	-54.8	-68.3	284	14
2023-09-20T06:00	11802	208	-55.0	-68.4	283	14
2023-09-20T06:00	11825	208	-55.1	-68.5	283	14
2023-09-20T06:00	11849	207	-55.3	-68.8	282	14
2023-09-20T06:00	11871	206	-55.3	-68.8	281	14
2023-09-20T06:00	11896	205	-55.3	-68.8	280	14
2023-09-20T06:00	11917	205	-55.3	-68.9	279	14
2023-09-20T06:00	11943	204	-55.2	-69.2	279	15
2023-09-20T06:00	11968	203	-55.0	-69.5	279	15
2023-09-20T06:00	11991	202	-55.1	-69.9	280	15
2023-09-20T06:00	12016	201	-55.1	-70.1	281	15
2023-09-20T06:00	12037	201	-55.3	-70.4	282	15
2023-09-20T06:00	12060	200	-55.4	-70.5	283	15
2023-09-20T06:00	12080	199	-55.5	-70.5	285	15
2023-09-20T06:00	12105	199	-55.6	-70.7	286	15
2023-09-20T06:00	12127	198	-55.6	-70.8	287	14
2023-09-20T06:00	12152	197	-55.6	-71.0	288	14
2023-09-20T06:00	12177	196	-55.7	-71.1	288	14
2023-09-20T06:00	12200	196	-55.8	-71.0	289	14
2023-09-20T06:00	12221	195	-55.9	-71.0	288	14
2023-09-20T06:00	12245	194	-56.2	-71.2	287	14
2023-09-20T06:00	12269	194	-56.4	-71.2	285	14
2023-09-20T06:00	12294	193	-56.5	-71.3	283	14
2023-09-20T06:00	12319	192	-56.5	-71.5	281	14
2023-09-20T06:00	12342	191	-56.3	-71.6	279	15
2023-09-20T06:00	12369	191	-56.4	-71.9	279	15
2023-09-20T06:00	12393	190	-56.5	-72.2	279	16
2023-09-20T06:00	12416	189	-56.7	-72.5	281	16
2023-09-20T06:00	12445	188	-56.7	-72.6	282	17
2023-09-20T06:00	12469	188	-56.7	-72.9	284	17
2023-09-20T06:00	12493	187	-56.5	-73.1	286	18
2023-09-20T06:00	12518	186	-56.4	-73.3	288	18
2023-09-20T06:00	12547	185	-56.5	-73.5	289	19
2023-09-20T06:00	12580	184	-56.6	-73.7	290	19
2023-09-20T06:00	12605	184	-56.4	-73.6	291	20
2023-09-20T06:00	12629	183	-56.3	-73.7	292	20
2023-09-20T06:00	12653	182	-56.4	-74.1	293	21
2023-09-20T06:00	12675	182	-56.6	-74.5	293	21
2023-09-20T06:00	12697	181	-56.7	-75.0	294	21
2023-09-20T06:00	12721	180	-56.8	-75.4	295	21
2023-09-20T06:00	12742	180	-56.7	-75.5	295	20
2023-09-20T06:00	12765	179	-56.6	-75.4	296	20
2023-09-20T06:00	12787	178	-56.5	-75.1	297	19
2023-09-20T06:00	12814	178	-56.5	-75.1	298	19
2023-09-20T06:00	12833	177	-56.5	-75.3	298	18
2023-09-20T06:00	12856	176	-56.6	-75.6	299	18
2023-09-20T06:00	12879	176	-56.3		299	19
2023-09-20T06:00	12902	175	-56.0	-75.8	299	19
2023-09-20T06:00	12926	175	-56.0	-76.1	299	20
2023-09-20T06:00	12948	174	-56.0	-76.2	299	20
2023-09-20T06:00	12973	173	-56.2	-76.5	300	21
2023-09-20T06:00	12996	173	-56.3	-76.6	300	21
2023-09-20T06:00	13020	172	-56.3	-76.7	301	21
2023-09-20T06:00	13044	171	-56.3	-76.7	301	20
2023-09-20T06:00	13068	171	-56.3	-76.8	301	20
2023-09-20T06:00	13093	170	-56.0	-76.6	300	19
2023-09-20T06:00	13114	169	-56.1	-76.8	300	19
2023-09-20T06:00	13140	169	-56.1	-77.0	300	18
2023-09-20T06:00	13162	168	-56.1	-77.1	300	18
2023-09-20T06:00	13188	168	-56.0	-77.2	300	18
2023-09-20T06:00	13209	167	-56.1	-77.4	301	19
2023-09-20T06:00	13236	166	-56.1	-77.5	302	19
2023-09-20T06:00	13258	166	-56.1	-77.7	303	19
2023-09-20T06:00	13281	165	-56.2	-77.9	304	19
2023-09-20T06:00	13305	164	-56.1	-78.0	305	19
2023-09-20T06:00	13329	164	-56.1	-78.1	305	19
2023-09-20T06:00	13355	163	-56.0	-78.2	305	18
2023-09-20T06:00	13381	163	-55.8	-78.0	305	18
2023-09-20T06:00	13406	162	-55.4	-77.9	305	17
2023-09-20T06:00	13428	161	-55.4	-78.0	304	17
2023-09-20T06:00	13454	161	-55.5	-78.3	304	17
2023-09-20T06:00	13475	160	-55.7	-78.6	303	16
2023-09-20T06:00	13501	159	-55.7	-78.8	301	16
2023-09-20T06:00	13541	159	-55.4	-78.7	299	16
2023-09-20T06:00	13571	158	-55.5	-78.8	297	15
2023-09-20T06:00	13596	157	-55.8	-79.0	294	15
2023-09-20T06:00	13623	156	-55.9	-79.1	291	15
2023-09-20T06:00	13649	156	-56.1	-79.1	288	15
2023-09-20T06:00	13674	155	-56.3	-79.3	285	15
2023-09-20T06:00	13702	155	-56.4	-79.3	282	16
2023-09-20T06:00	13732	154	-56.5	-79.2	280	16
2023-09-20T06:00	13764	153	-56.6	-79.3	279	17
2023-09-20T06:00	13790	152	-56.6	-79.3	279	17
2023-09-20T06:00	13819	152	-56.7	-79.4	281	17
2023-09-20T06:00	13844	151	-56.5	-79.4	283	17
2023-09-20T06:00	13870	150	-56.3	-79.3	286	16
2023-09-20T06:00	13895	150	-56.3	-79.4	289	16
2023-09-20T06:00	13918	149	-56.4	-79.5	293	16
2023-09-20T06:00	13945	149	-56.6	-79.7	297	15
2023-09-20T06:00	13983	148	-56.9	-79.9	302	15
2023-09-20T06:00	14011	147	-56.9	-79.9	307	15
2023-09-20T06:00	14043	146	-56.9	-80.1	311	15
2023-09-20T06:00	14076	146	-57.1	-80.3	314	14
2023-09-20T06:00	14098	145	-56.7	-80.1	315	13
2023-09-20T06:00	14121	145	-56.6	-80.2	315	12
2023-09-20T06:00	14141	144	-56.4	-80.3	312	12
2023-09-20T06:00	14170	144	-56.4	-80.3	307	11
2023-09-20T06:00	14197	143	-56.6	-80.4	301	11
2023-09-20T06:00	14229	142	-56.7	-80.5	294	11
2023-09-20T06:00	14261	141	-56.9	-80.7	288	10
2023-09-20T06:00	14296	141	-57.1	-80.8	283	10
2023-09-20T06:00	14320	140	-57.4	-81.1	279	10
2023-09-20T06:00	14349	140	-57.2	-81.1	275	9
2023-09-20T06:00	14370	139	-56.7	-80.7	271	9
2023-09-20T06:00	14394	139	-56.6	-80.9	268	9
2023-09-20T06:00	14420	138	-56.7	-80.9	265	9
2023-09-20T06:00	14443	137	-56.9	-81.1	261	9
2023-09-20T06:00	14474	137	-57.1	-81.2	258	9
2023-09-20T06:00	14502	136	-57.3	-81.2	254	9
2023-09-20T06:00	14525	136	-57.4	-81.3	251	9
2023-09-20T06:00	14550	135	-57.6	-81.2	250	9
2023-09-20T06:00	14575	135	-57.8	-81.2	250	9
2023-09-20T06:00	14598	134	-58.0	-81.4	251	10
2023-09-20T06:00	14624	134	-58.3	-81.4	252	10
2023-09-20T06:00	14650	133	-58.4	-81.5	253	10
2023-09-20T06:00	14675	132	-58.5	-81.6	255	10
2023-09-20T06:00	14703	132	-58.8	-81.6	257	10
2023-09-20T06:00	14726	131	-59.0	-81.8	259	11
2023-09-20T06:00	14752	131	-59.2	-81.8	261	11
2023-09-20T06:00	14780	130	-59.4	-81.9	263	11
2023-09-20T06:00	14805	130	-59.5	-82.0	265	12
2023-09-20T06:00	14831	129	-59.6	-81.9	266	12
2023-09-20T06:00	14856	129	-59.7	-82.0	267	12
2023-09-20T06:00	14884	128	-59.8	-82.1	268	12
2023-09-20T06:00	14910	128	-59.9	-82.1	269	12
2023-09-20T06:00	14934	127	-60.0	-82.2	271	12
2023-09-20T06:00	14959	127	-60.2	-82.4	272	12
2023-09-20T06:00	14984	126	-60.2	-82.4	273	11
2023-09-20T06:00	15008	126	-60.2	-82.4	273	11
2023-09-20T06:00	15033	125	-60.2	-82.4	272	10
2023-09-20T06:00	15057	125	-60.3	-82.5	272	10
2023-09-20T06:00	15083	124	-60.4	-82.5	271	9
2023-09-20T06:00	15111	124	-60.5	-82.5	269	9
2023-09-20T06:00	15138	123	-60.7	-82.6	268	9
2023-09-20T06:00	15164	123	-60.8	-82.5	266	8
2023-09-20T06:00	15189	122	-61.0	-82.7	264	8
2023-09-20T06:00	15213	122	-61.2	-82.7	262	8
2023-09-20T06:00	15239	121	-61.4	-82.9	261	8
2023-09-20T06:00	15262	121	-61.6	-83.0	260	9
2023-09-20T06:00	15289	120	-61.7	-83.1	260	9
2023-09-20T06:00	15311	120	-61.8	-83.0	261	9
2023-09-20T06:00	15334	119	-61.9	-83.1	263	9
2023-09-20T06:00	15359	119	-62.1	-83.3	265	10
2023-09-20T06:00	15380	118	-62.1	-83.3	267	10
2023-09-20T06:00	15404	118	-62.2	-83.4	270	10
2023-09-20T06:00	15431	117	-62.4	-83.5	274	11
2023-09-20T06:00	15451	117	-62.5	-83.8	278	11
2023-09-20T06:00	15475	117	-62.5	-83.9	281	12
2023-09-20T06:00	15501	116	-62.3	-83.9	284	13
2023-09-20T06:00	15522	116	-62.0	-83.8	287	14
2023-09-20T06:00	15545	115	-61.6	-83.7	291	15
2023-09-20T06:00	15568	115	-61.5	-83.8	294	16
2023-09-20T06:00	15591	114	-61.3	-83.8	296	16
2023-09-20T06:00	15613	114	-61.0	-83.7	299	17
2023-09-20T06:00	15637	114	-60.8	-83.8	300	17
2023-09-20T06:00	15658	113	-60.5	-83.5	301	16
2023-09-20T06:00	15677	113	-60.5	-83.7	301	16
2023-09-20T06:00	15699	112	-60.4	-83.7	301	15
2023-09-20T06:00	15721	112	-60.3	-83.6	300	14
2023-09-20T06:00	15743	112	-60.4	-83.7	300	14
2023-09-20T06:00	15767	111	-60.3	-83.8	301	14
2023-09-20T06:00	15788	111	-60.2	-83.7	301	14
2023-09-20T06:00	15808	110	-59.9	-83.5	303	14
2023-09-20T06:00	15830	110	-59.9	-83.7	304	13
2023-09-20T06:00	15851	110	-59.9	-83.7	305	13
2023-09-20T06:00	15872	109	-59.9	-83.7	307	13
2023-09-20T06:00	15895	109	-59.9	-83.7	308	12
2023-09-20T06:00	15917	109	-60.0	-83.8	308	12
2023-09-20T06:00	15939	108	-60.1	-83.8	308	11
2023-09-20T06:00	15964	108	-59.8	-83.8	307	10
2023-09-20T06:00	15988	107	-59.4	-83.5	303	9
2023-09-20T06:00	16013	107	-59.5	-83.6	298	9
2023-09-20T06:00	16047	106	-59.7	-83.7	292	8
2023-09-20T06:00	16086	106	-59.9	-83.7	284	8
2023-09-20T06:00	16118	105	-60.1	-83.8	277	8
2023-09-20T06:00	16153	105	-60.3	-84.0	269	8
2023-09-20T06:00	16186	104	-60.6	-84.0	263	8
2023-09-20T06:00	16215	103	-60.7	-84.1	258	8
2023-09-20T06:00	16243	103	-60.8	-84.2	254	9
2023-09-20T06:00	16273	103	-60.9	-84.5	252	9
2023-09-20T06:00	16294	102	-60.9	-84.5	252	9
2023-09-20T06:00	16321	102	-60.9	-84.5	253	9
2023-09-20T06:00	16345	101	-61.0	-84.5	256	9
2023-09-20T06:00	16369	101	-61.0	-84.5	260	9
2023-09-20T06:00	16392	101	-61.0	-84.5	264	10
2023-09-20T06:00	16416	100	-61.2	-84.7	268	10
2023-09-20T06:00	16439	100	-61.3	-84.8	271	10
2023-09-20T06:00	16467	99	-61.4	-84.9	274	11
2023-09-20T06:00	16492	99	-61.5	-85.2	276	11
2023-09-20T06:00	16514	99	-61.4	-85.3	278	11
2023-09-20T06:00	16537	98	-60.9	-85.2	279	11
2023-09-20T06:00	16561	98	-60.7	-85.2	280	11
2023-09-20T06:00	16586	97	-60.3	-85.2	280	12
2023-09-20T06:00	16611	97	-60.2	-85.1	280	12
2023-09-20T06:00	16637	97	-60.3	-85.2	281	12
2023-09-20T06:00	16658	96	-60.4	-85.3	282	13
2023-09-20T06:00	16682	96	-60.6	-85.2	283	13
2023-09-20T06:00	16710	96	-60.8	-85.3	285	13
2023-09-20T06:00	16734	95	-60.8	-85.3	287	13
2023-09-20T06:00	16756	95	-60.7	-85.2	288	13
2023-09-20T06:00	16782	94	-60.9	-85.4	289	13
2023-09-20T06:00	16805	94	-60.9	-85.4	288	13
2023-09-20T06:00	16831	94	-60.8	-85.6	287	13
2023-09-20T06:00	16855	93	-60.5	-85.3	286	13
2023-09-20T06:00	16878	93	-60.6	-85.4	284	14
2023-09-20T06:00	16902	93	-60.6	-85.4	283	14
2023-09-20T06:00	16925	92	-60.6	-85.4	282	13
2023-09-20T06:00	16949	92	-60.8	-85.6	281	13
2023-09-20T06:00	16969	92	-60.7	-85.5	280	12
2023-09-20T06:00	16996	91	-60.8	-85.8	279	12
2023-09-20T06:00	17020	91	-60.6	-85.7	278	11
2023-09-20T06:00	17046	91	-60.4	-85.8	275	10
2023-09-20T06:00	17070	90	-60.3	-86.0	270	10
2023-09-20T06:00	17092	90	-59.7	-85.9	265	10
2023-09-20T06:00	17117	90	-58.9	-85.6	260	10
2023-09-20T06:00	17141	89	-58.6	-85.7	257	10
2023-09-20T06:00	17167	89	-58.3	-85.5	256	11
2023-09-20T06:00	17191	88	-58.0	-85.6	257	12
2023-09-20T06:00	17216	88	-57.4	-85.2	259	12
2023-09-20T06:00	17242	88	-57.2	-85.0	261	13
2023-09-20T06:00	17268	87	-57.0	-84.8	262	13
2023-09-20T06:00	17293	87	-57.1	-84.9	262	13
2023-09-20T06:00	17325	87	-57.1	-84.9	260	13
2023-09-20T06:00	17352	86	-57.1	-85.3	257	13
2023-09-20T06:00	17380	86	-56.5	-84.9	253	13
2023-09-20T06:00	17410	85	-55.9	-84.4	250	13
2023-09-20T06:00	17434	85	-55.7	-84.3	248	14
2023-09-20T06:00	17465	85	-55.7	-84.3	246	14
2023-09-20T06:00	17489	84	-56.0	-84.5	245	14
2023-09-20T06:00	17517	84	-56.2	-84.2	244	14
2023-09-20T06:00	17536	84	-56.4	-84.4	243	15
2023-09-20T06:00	17559	83	-56.6	-84.5	242	15
2023-09-20T06:00	17587	83	-56.7	-84.6	241	16
2023-09-20T06:00	17612	83	-56.7	-84.6	241	16
2023-09-20T06:00	17640	82	-56.7	-84.6	241	16
2023-09-20T06:00	17665	82	-56.8	-84.7	242	16
2023-09-20T06:00	17691	82	-56.9	-84.8	244	16
2023-09-20T06:00	17718	81	-57.0	-84.8	246	16
2023-09-20T06:00	17742	81	-57.1	-84.9	248	15
2023-09-20T06:00	17771	81	-57.1	-84.6	250	15
2023-09-20T06:00	17794	80	-57.3	-84.7	252	15
2023-09-20T06:00	17815	80	-57.5	-84.9	253	15
2023-09-20T06:00	17845	80	-57.6	-84.9	255	14
2023-09-20T06:00	17868	79	-57.5	-84.9	256	14
2023-09-20T06:00	17894	79	-57.4	-84.8	258	13
2023-09-20T06:00	17918	79	-57.4	-84.8	259	13
2023-09-20T06:00	17947	79	-57.5	-85.2	261	13
2023-09-20T06:00	17970	78	-57.7	-85.0	262	12
2023-09-20T06:00	17995	78	-57.8	-85.1	264	12
2023-09-20T06:00	18020	78	-57.8	-85.1	264	12
2023-09-20T06:00	18044	77	-57.9	-85.2	264	11
2023-09-20T06:00	18072	77	-58.1	-85.3	264	11
2023-09-20T06:00	18099	77	-58.2	-85.4	264	11
2023-09-20T06:00	18121	76	-58.3	-85.1	264	10
2023-09-20T06:00	18144	76	-58.4	-85.2	265	10
2023-09-20T06:00	18172	76	-58.6	-85.4	266	9
2023-09-20T06:00	18200	75	-58.8	-85.5	267	9
2023-09-20T06:00	18227	75	-58.8	-85.9	267	9
2023-09-20T06:00	18252	75	-58.6	-85.7	268	9
2023-09-20T06:00	18276	74	-58.5	-85.6	268	9
2023-09-20T06:00	18302	74	-58.4	-85.5	269	9
2023-09-20T06:00	18330	74	-58.5	-85.6	269	8
2023-09-20T06:00	18356	74	-58.6	-85.7	269	8
2023-09-20T06:00	18378	73	-58.6	-86.1	269	7
2023-09-20T06:00	18405	73	-58.2	-85.8	269	6
2023-09-20T06:00	18431	73	-57.9		269	5
2023-09-20T06:00	18456	72	-57.5	-85.6	268	4
2023-09-20T06:00	18482	72	-57.0	-85.2	268	3
2023-09-20T06:00	18505	72	-56.9	-85.2	265	3
2023-09-20T06:00	18531	72	-56.9	-85.2	259	3
2023-09-20T06:00	18553	71	-57.0	-85.2	251	3
2023-09-20T06:00	18582	71	-57.1	-85.3	242	3
2023-09-20T06:00	18606	71	-57.1	-85.3	234	3
2023-09-20T06:00	18633	70	-57.0	-85.2	227	3
2023-09-20T06:00	18658	70	-57.0	-85.2	222	4
2023-09-20T06:00	18682	70	-57.0	-85.2	218	4
2023-09-20T06:00	18706	70	-57.0	-84.8	217	5
2023-09-20T06:00	18734	69	-57.2	-85.0	217	5
2023-09-20T06:00	18759	69	-57.4	-85.2	218	6
2023-09-20T06:00	18783	69	-57.6	-84.9	219	6
2023-09-20T06:00	18810	68	-57.8	-85.1	221	7
2023-09-20T06:00	18836	68	-58.0	-85.2	222	7
2023-09-20T06:00	18863	68	-58.2	-85.4	223	8
2023-09-20T06:00	18884	68	-58.3	-85.5	225	8
2023-09-20T06:00	18908	67	-58.3	-85.5	228	9
2023-09-20T06:00	18935	67	-58.4	-85.5	231	9
2023-09-20T06:00	18963	67	-58.6	-85.7	235	10
2023-09-20T06:00	18988	67	-58.6	-85.7	238	10
2023-09-20T06:00	19011	66	-58.5	-85.6	240	11
2023-09-20T06:00	19037	66	-58.5	-85.6	242	11
2023-09-20T06:00	19062	66	-58.4	-85.5	244	11
2023-09-20T06:00	19082	66	-58.5	-85.6	246	12
2023-09-20T06:00	19110	65	-58.7	-85.8	248	12
2023-09-20T06:00	19134	65	-58.8	-85.9	251	12
2023-09-20T06:00	19158	65	-58.9	-85.9	253	12
2023-09-20T06:00	19184	65	-58.8	-86.2	255	13
2023-09-20T06:00	19206	64	-58.7	-86.1	258	13
2023-09-20T06:00	19230	64	-58.5	-86.0	260	12
2023-09-20T06:00	19252	64	-58.4	-86.3	262	12
2023-09-20T06:00	19273	64	-58.2	-86.2	264	12
2023-09-20T06:00	19301	63	-58.1		266	12
2023-09-20T06:00	19325	63	-57.9		268	12
2023-09-20T06:00	19345	63	-57.8	-85.9	270	12
2023-09-20T06:00	19370	63	-57.8	-85.9	272	12
2023-09-20T06:00	19394	62	-57.8	-85.9	274	12
2023-09-20T06:00	19415	62	-57.7	-85.8	276	12
2023-09-20T06:00	19444	62	-57.5	-85.6	278	12
2023-09-20T06:00	19467	62	-57.1	-85.3	279	12
2023-09-20T06:00	19489	61	-57.1	-85.7	279	11
2023-09-20T06:00	19517	61	-57.2	-85.8	278	11
2023-09-20T06:00	19545	61	-57.3	-85.9	276	10
2023-09-20T06:00	19568	61	-57.1	-85.7	273	10
2023-09-20T06:00	19594	60	-56.7	-85.4	270	9
2023-09-20T06:00	19620	60	-56.5	-85.3	266	9
2023-09-20T06:00	19648	60	-56.4	-85.2	261	8
2023-09-20T06:00	19676	60	-56.5	-85.3	256	8
2023-09-20T06:00	19700	59	-56.6	-85.4	249	8
2023-09-20T06:00	19723	59	-56.8	-85.5	242	7
2023-09-20T06:00	19746	59	-56.7	-85.4	236	8
2023-09-20T06:00	19771	59	-56.6	-85.4	231	8
2023-09-20T06:00	19797	59	-56.6	-84.9	227	8
2023-09-20T06:00	19823	58	-56.7	-85.0	225	8
2023-09-20T06:00	19844	58	-56.8	-85.1	224	8
2023-09-20T06:00	19871	58	-57.0	-85.2	224	8
2023-09-20T06:00	19895	58	-57.1	-85.3	224	9
2023-09-20T06:00	19923	57	-57.0	-85.2	225	9
2023-09-20T06:00	19945	57	-57.1	-85.3	227	10
2023-09-20T06:00	19971	57	-57.2	-85.4	228	10
2023-09-20T06:00	19997	57	-57.3	-85.5	230	10
2023-09-20T06:00	20020	57	-57.4	-85.6	232	11
2023-09-20T06:00	20049	56	-57.6	-85.7	234	11
2023-09-20T06:00	20071	56	-57.7	-85.4	235	12
2023-09-20T06:00	20098	56	-57.9	-85.5	236	12
2023-09-20T06:00	20119	56	-58.2	-85.8	237	12
2023-09-20T06:00	20146	55	-58.4	-85.9	239	12
2023-09-20T06:00	20171	55	-58.6	-86.1	241	12
2023-09-20T06:00	20194	55	-58.7	-86.1	243	12
2023-09-20T06:00	20217	55	-58.8	-86.2	245	11
2023-09-20T06:00	20247	55	-58.9	-86.3	247	11
2023-09-20T06:00	20273	54	-58.9	-86.3	248	11
2023-09-20T06:00	20297	54	-59.0	-86.4	249	11
2023-09-20T06:00	20323	54	-58.8	-86.2	249	11
2023-09-20T06:00	20348	54	-58.7	-86.1	248	11
2023-09-20T06:00	20370	53	-58.6	-86.1	247	11
2023-09-20T06:00	20397	53	-58.6	-86.1	244	11
2023-09-20T06:00	20426	53	-58.8	-86.2	241	10
2023-09-20T06:00	20450	53	-58.9	-86.3	237	10
2023-09-20T06:00	20474	53	-59.0	-86.4	235	10
2023-09-20T06:00	20506	52	-58.9	-86.7	233	10
2023-09-20T06:00	20529	52	-58.6	-86.5	232	10
2023-09-20T06:00	20555	52	-58.4	-86.3	231	10
2023-09-20T06:00	20586	52	-58.1	-86.5	229	9
2023-09-20T06:00	20610	51	-57.9	-86.4	226	9
2023-09-20T06:00	20637	51	-57.6	-86.6	222	9
2023-09-20T06:00	20661	51	-57.2	-86.3	220	9
2023-09-20T06:00	20690	51	-56.6	-85.8	218	10
2023-09-20T06:00	20720	51	-56.3	-85.6	218	10
2023-09-20T06:00	20744	50	-56.4	-85.7	220	10
2023-09-20T06:00	20768	50	-56.5	-85.8	221	10
2023-09-20T06:00	20793	50	-56.6	-85.8	224	10
2023-09-20T06:00	20822	50	-56.8	-85.5	226	10
2023-09-20T06:00	20848	50	-56.9	-85.6	230	10
2023-09-20T06:00	20869	49	-56.9	-85.6	233	10
2023-09-20T06:00	20895	49	-56.8	-86.0	236	9
2023-09-20T06:00	20920	49	-56.6	-85.8	239	9
2023-09-20T06:00	20947	49	-56.6	-85.8	241	9
2023-09-20T06:00	20972	49	-56.5	-85.8	241	10
2023-09-20T06:00	21000	48	-56.2	-85.5	241	10
2023-09-20T06:00	21019	48	-56.0		240	11
2023-09-20T06:00	21052	48	-56.0		239	11
2023-09-20T06:00	21075	48	-56.2	-85.5	238	12
2023-09-20T06:00	21102	48	-56.3	-85.6	237	12
2023-09-20T06:00	21127	47	-56.4	-85.7	236	12
2023-09-20T06:00	21150	47	-56.5	-85.3	236	12
2023-09-20T06:00	21179	47	-56.6	-85.4	236	12
2023-09-20T06:00	21207	47	-56.7	-85.4	236	12
2023-09-20T06:00	21230	47	-56.7	-85.4	237	11
2023-09-20T06:00	21255	46	-56.7	-85.4	237	11
2023-09-20T06:00	21278	46	-56.8	-85.5	239	10
2023-09-20T06:00	21309	46	-57.0	-85.7	240	10
2023-09-20T06:00	21337	46	-57.1	-85.7	242	9
2023-09-20T06:00	21361	46	-57.3	-85.5	244	9
2023-09-20T06:00	21393	46	-57.4	-85.6	246	9
2023-09-20T06:00	21415	45	-57.7	-85.8	247	8
2023-09-20T06:00	21441	45	-57.9		248	8
2023-09-20T06:00	21471	45	-58.1		248	7
2023-09-20T06:00	21498	45	-58.2	-86.2	247	7
2023-09-20T06:00	21522	45	-58.1		247	7
2023-09-20T06:00	21545	44	-58.0	-86.0	249	7
2023-09-20T06:00	21572	44	-57.9	-86.4	251	8
2023-09-20T06:00	21601	44	-57.8	-86.3	253	8
2023-09-20T06:00	21627	44	-57.9		255	9
2023-09-20T06:00	21653	44	-58.1		256	10
2023-09-20T06:00	21679	43	-58.2	-86.2	256	10
2023-09-20T06:00	21706	43	-58.3	-86.2	256	11
2023-09-20T06:00	21731	43	-58.3	-86.2	256	11
2023-09-20T06:00	21760	43	-58.4	-86.3	257	11
2023-09-20T06:00	21787	43	-58.5	-86.4	258	11
2023-09-20T06:00	21814	43	-58.7	-86.5	260	11
2023-09-20T06:00	21842	42	-58.8	-86.6	262	11
2023-09-20T06:00	21867	42	-58.7	-86.5	263	10
2023-09-20T06:00	21893	42	-58.6	-86.5	264	9
2023-09-20T06:00	21919	42	-58.6	-86.5	263	9
2023-09-20T06:00	21948	42	-58.7	-86.5	261	8
2023-09-20T06:00	21977	41	-58.8	-86.6	258	8
2023-09-20T06:00	22003	41	-59.0	-86.8	257	8
2023-09-20T06:00	22025	41	-59.1	-86.8	256	8
2023-09-20T06:00	22057	41	-59.2	-86.9	257	8
2023-09-20T06:00	22087	41	-59.0	-86.8	257	8
2023-09-20T06:00	22113	41	-58.7	-86.5	257	8
2023-09-20T06:00	22143	40	-58.4	-86.7	255	8
2023-09-20T06:00	22165	40	-58.4	-86.7	251	8
2023-09-20T06:00	22194	40	-58.4	-86.3	248	8
2023-09-20T06:00	22227	40	-58.5	-86.4	245	9
2023-09-20T06:00	22249	40	-58.7	-86.5	245	9
2023-09-20T06:00	22277	40	-58.9	-86.7	246	10
2023-09-20T06:00	22304	39	-58.9	-86.7	249	10
2023-09-20T06:00	22333	39	-58.5	-86.4	252	10
2023-09-20T06:00	22359	39	-58.2	-86.2	256	11
2023-09-20T06:00	22390	39	-58.3	-86.2	259	11
2023-09-20T06:00	22411	39	-58.5	-86.4	262	11
2023-09-20T06:00	22442	38	-58.7	-86.5	265	11
2023-09-20T06:00	22473	38	-58.8	-86.6	268	11
2023-09-20T06:00	22503	38	-58.8	-86.6	271	11
2023-09-20T06:00	22527	38	-58.9	-86.3	273	10
2023-09-20T06:00	22555	38	-59.0	-86.4	275	10
2023-09-20T06:00	22579	38	-59.1	-86.5	277	10
2023-09-20T06:00	22613	37	-59.2	-86.5	280	9
2023-09-20T06:00	22638	37	-59.3	-86.6	283	9
2023-09-20T06:00	22666	37	-59.4	-87.1	286	8
2023-09-20T06:00	22696	37	-59.4	-87.1	290	7
2023-09-20T06:00	22726	37	-59.1	-86.8	294	7
2023-09-20T06:00	22750	37	-58.6	-86.9	297	6
2023-09-20T06:00	22779	36	-58.4	-86.7	299	6
2023-09-20T06:00	22810	36	-58.4	-86.7	299	6
2023-09-20T06:00	22834	36	-58.7	-87.0	298	5
2023-09-20T06:00	22860	36	-58.7	-87.0	294	5
2023-09-20T06:00	22885	36	-58.6	-86.9	287	4
2023-09-20T06:00	22915	36	-58.4	-86.7	278	4
2023-09-20T06:00	22937	36	-58.2	-86.6	266	4
2023-09-20T06:00	22969	35	-58.1	-86.5	255	4
2023-09-20T06:00	22998	35	-58.2	-86.6	246	4
2023-09-20T06:00	23023	35	-58.3	-86.7	238	5
2023-09-20T06:00	23053	35	-58.3	-86.7	232	6
2023-09-20T06:00	23080	35	-58.2	-86.6	227	6
2023-09-20T06:00	23105	35	-58.2	-86.6	224	7
2023-09-20T06:00	23131	34	-58.2	-86.2	222	8
2023-09-20T06:00	23152	34	-58.3	-86.2	222	9
2023-09-20T06:00	23185	34	-58.4	-86.3	222	9
2023-09-20T06:00	23218	34	-58.5	-86.4	221	10
2023-09-20T06:00	23238	34	-58.6	-86.5	221	10
2023-09-20T06:00	23263	34	-58.6	-86.5	221	10
2023-09-20T06:00	23298	34	-58.7	-86.5	222	10
2023-09-20T06:00	23318	33	-58.8	-86.6	223	10
2023-09-20T06:00	23341	33	-58.9	-86.7	225	10
2023-09-20T06:00	23373	33	-58.9	-86.7	228	10
2023-09-20T06:00	23396	33	-59.1	-86.8	233	10
2023-09-20T06:00	23431	33	-59.2	-86.9	237	10
2023-09-20T06:00	23455	33	-59.3	-87.0	241	10
2023-09-20T06:00	23483	33	-59.2	-86.9	244	9
2023-09-20T06:00	23509	32	-59.0	-86.8	246	9
2023-09-20T06:00	23531	32	-58.9	-87.1	248	9
2023-09-20T06:00	23561	32	-58.7	-87.0	249	9
2023-09-20T06:00	23594	32	-58.6	-86.9	252	9
2023-09-20T06:00	23615	32	-58.4	-87.2	255	9
2023-09-20T06:00	23643	32	-57.9	-86.8	260	9
2023-09-20T06:00	23681	32	-57.6	-86.6	265	9
2023-09-20T06:00	23706	32	-57.5	-86.5	270	9
2023-09-20T06:00	23729	31	-57.4	-86.4	275	9
2023-09-20T06:00	23760	31	-57.2	-86.3	280	9
2023-09-20T06:00	23787	31	-57.1	-86.2	284	9
2023-09-20T06:00	23818	31	-57.1	-86.2	287	8
2023-09-20T06:00	23837	31	-57.0	-86.6	288	7
2023-09-20T06:00	23868	31	-56.9	-86.6	288	7
2023-09-20T06:00	23888	31	-56.3	-86.1	286	5
2023-09-20T06:00	23920	30	-55.9	-85.8	280	5
2023-09-20T06:00	23948	30	-55.9	-85.8	272	4
2023-09-20T06:00	23968	30	-55.8	-85.7	260	3
2023-09-20T06:00	24001	30	-55.7	-85.7	247	3
2023-09-20T06:00	24034	30	-55.8	-85.7	235	3
2023-09-20T06:00	24057	30	-55.9	-85.3	224	4
2023-09-20T06:00	24089	30	-56.0		216	4
2023-09-20T06:00	24117	30	-56.2	-85.5	211	5
2023-09-20T06:00	24149	29	-56.3	-85.6	209	6
2023-09-20T06:00	24178	29	-56.3	-85.6	210	6
2023-09-20T06:00	24207	29	-56.1	-86.0	212	7
2023-09-20T06:00	24237	29	-56.0	-85.9	216	7
2023-09-20T06:00	24271	29	-55.6	-85.6	220	6
2023-09-20T06:00	24294	29	-55.5	-85.5	225	6
2023-09-20T06:00	24322	29	-55.5	-85.5	231	6
2023-09-20T06:00	24346	28	-55.6	-85.6	239	5
2023-09-20T06:00	24385	28	-55.8	-85.7	249	5
2023-09-20T06:00	24413	28	-55.8	-85.7	259	5
2023-09-20T06:00	24448	28	-55.9	-85.8	270	4
2023-09-20T06:00	24478	28	-55.9	-85.8	278	4
2023-09-20T06:00	24503	28	-55.8	-85.7	285	4
2023-09-20T06:00	24535	28	-55.8	-85.7	289	4
2023-09-20T06:00	24564	28	-55.7	-85.7	292	3
2023-09-20T06:00	24597	27	-55.7	-85.7	292	3
2023-09-20T06:00	24618	27	-55.8	-85.2	287	2
2023-09-20T06:00	24655	27	-55.9	-85.3	270	2
2023-09-20T06:00	24687	27	-56.1	-85.5	239	2
2023-09-20T06:00	24717	27	-56.2	-85.5	214	2
2023-09-20T06:00	24752	27	-56.2	-85.5	205	3
2023-09-20T06:00	24775	27	-56.3	-85.6	202	4
2023-09-20T06:00	24806	26	-56.3	-85.6	203	5
2023-09-20T06:00	24834	26	-56.4	-85.7	205	5
2023-09-20T06:00	24869	26	-56.6	-85.8	208	6
2023-09-20T06:00	24895	26	-56.7	-85.9	211	6
2023-09-20T06:00	24915	26	-56.9	-85.6	215	6
2023-09-20T06:00	24947	26	-57.1	-85.7	220	6
2023-09-20T06:00	24974	26	-57.1	-86.2	225	7
2023-09-20T06:00	25005	26	-57.1	-86.2	229	7
2023-09-20T06:00	25035	26	-57.0	-86.1	233	8
2023-09-20T06:00	25058	25	-57.0	-86.1	237	9
2023-09-20T06:00	25091	25	-57.0	-86.1	241	9
2023-09-20T06:00	25111	25	-56.9	-86.1	245	9
2023-09-20T06:00	25150	25	-56.9	-86.6	251	9
2023-09-20T06:00	25171	25	-56.7	-86.4	258	9
2023-09-20T06:00	25201	25	-56.4	-86.2	266	9
2023-09-20T06:00	25228	25	-55.9	-86.3	273	9
2023-09-20T06:00	25251	25	-55.6	-86.1	279	9
2023-09-20T06:00	25288	25	-55.4	-86.0	285	9
2023-09-20T06:00	25316	24	-55.4	-86.0	289	9
2023-09-20T06:00	25341	24	-55.3	-85.9	294	8
2023-09-20T06:00	25370	24	-55.2	-85.8	299	8
2023-09-20T06:00	25398	24	-55.2	-85.8	304	8
2023-09-20T06:00	25423	24	-55.2	-85.3	308	8
2023-09-20T06:00	25458	24	-55.3	-85.4	313	8
2023-09-20T06:00	25484	24	-55.4	-85.4	317	8
2023-09-20T06:00	25513	24	-55.5	-85.5	321	8
2023-09-20T06:00	25546	24	-55.6	-85.6	323	8
2023-09-20T06:00	25565	23	-55.6	-85.6	324	8
2023-09-20T06:00	25605	23	-55.7	-85.7	324	7
2023-09-20T06:00	25626	23	-55.6	-85.6	321	6
2023-09-20T06:00	25656	23	-55.5	-85.5	316	6
2023-09-20T06:00	25685	23	-55.7	-85.7	309	6
2023-09-20T06:00	25710	23	-55.6	-85.6	300	6
2023-09-20T06:00	25742	23	-55.4	-85.4	293	6
2023-09-20T06:00	25767	23	-55.5	-85.5	287	6
2023-09-20T06:00	25805	23	-55.6	-85.6	281	6
2023-09-20T06:00	25832	23	-55.6	-85.6	277	7
2023-09-20T06:00	25848	22	-55.8	-85.2	272	7
2023-09-20T06:00	25878	22	-55.9	-85.3	268	8
2023-09-20T06:00	25914	22	-56.1	-85.5	265	8
2023-09-20T06:00	25940	22	-56.3	-85.6	262	9
2023-09-20T06:00	25974	22	-56.4	-85.7	261	9
2023-09-20T06:00	25996	22	-56.4	-85.7	260	10
2023-09-20T06:00	26030	22	-56.3	-86.1	260	10
2023-09-20T06:00	26052	22	-56.1	-86.0	260	11
2023-09-20T06:00	26080	22	-56.0	-85.9	260	11
2023-09-20T06:00	26103	22	-55.9	-85.8	261	11
2023-09-20T06:00	26146	21	-55.8	-85.7	262	10
2023-09-20T06:00	26171	21	-55.6	-86.1	263	10
2023-09-20T06:00	26196	21	-55.5	-86.1	264	10
2023-09-20T06:00	26229	21	-55.5	-86.1	265	10
2023-09-20T06:00	26250	21	-55.4	-85.4	266	9
2023-09-20T06:00	26275	21	-55.4	-85.4	266	9
2023-09-20T06:00	26303	21	-55.3	-85.4	266	9
2023-09-20T06:00	26338	21	-55.4	-85.4	266	9
2023-09-20T06:00	26369	21	-55.5	-85.5	265	9
2023-09-20T06:00	26401	21	-55.5	-85.5	264	9
2023-09-20T06:00	26422	21	-55.4	-85.4	263	9
2023-09-20T06:00	26451	20	-55.3	-85.4	262	9
2023-09-20T06:00	26476	20	-55.1	-85.8	262	10
2023-09-20T06:00	26504	20	-55.1	-85.8	263	10
2023-09-20T06:00	26535	20	-55.1	-85.8	265	10
2023-09-20T06:00	26565	20	-55.0	-85.7	267	9
2023-09-20T06:00	26592	20	-54.9	-85.6	269	9
2023-09-20T06:00	26630	20	-54.8	-85.5	271	9
2023-09-20T06:00	26653	20	-54.7	-85.5	273	9
2023-09-20T06:00	26683	20	-54.5	-85.3	275	9
2023-09-20T06:00	26713	20	-54.4	-85.2	277	9
2023-09-20T06:00	26747	20	-54.4	-85.2	279	9
2023-09-20T06:00	26771	19	-54.5	-85.3	281	9
2023-09-20T06:00	26806	19	-54.5	-85.3	283	9
2023-09-20T06:00	26832	19	-54.4	-85.2	284	8
2023-09-20T06:00	26861	19	-54.4	-85.2	284	8
2023-09-20T06:00	26893	19	-54.5	-85.3	284	7
2023-09-20T06:00	26925	19	-54.5	-85.3	282	6
2023-09-20T06:00	26955	19	-54.4	-85.2	279	6
2023-09-20T06:00	26988	19	-54.3	-85.2	274	5
2023-09-20T06:00	27004	19	-54.2	-85.1	268	5
2023-09-20T06:00	27034	19	-54.1	-85.0	263	5
2023-09-20T06:00	27065	19	-54.0	-84.9	259	5
2023-09-20T06:00	27098	19	-53.9	-84.9	257	6
2023-09-20T06:00	27124	18	-53.9	-84.9	257	6
2023-09-20T06:00	27147	18	-53.9	-84.9	258	7
2023-09-20T06:00	27173	18	-53.9	-84.9	260	8
2023-09-20T06:00	27207	18	-54.1	-85.0	262	8
2023-09-20T06:00	27237	18	-54.2	-85.1	265	8
2023-09-20T06:00	27266	18	-54.3	-85.2	268	9
2023-09-20T06:00	27288	18	-54.5	-85.3	271	9
2023-09-20T06:00	27327	18	-54.5	-85.3	274	10
2023-09-20T06:00	27355	18	-54.5	-85.3	275	10
2023-09-20T06:00	27384	18	-54.4	-85.2	277	10
2023-09-20T06:00	27413	18	-54.2	-85.1	277	11
2023-09-20T06:00	27436	18	-54.1	-85.0	277	11
2023-09-20T06:00	27476	17	-54.1	-85.0	277	11
2023-09-20T06:00	27501	17	-54.2	-85.1	278	11
2023-09-20T06:00	27533	17	-54.2	-85.1	278	10
2023-09-20T06:00	27551	17	-54.2	-85.1	279	10
2023-09-20T06:00	27586	17	-54.2	-85.1	280	9
2023-09-20T06:00	27619	17	-54.2	-85.1	280	8
2023-09-20T06:00	27653	17	-54.2	-85.1	281	8
2023-09-20T06:00	27681	17	-54.1	-85.0	281	8
2023-09-20T06:00	27704	17	-54.0	-84.9	282	8
2023-09-20T06:00	27732	17	-53.9	-85.5	283	8
2023-09-20T06:00	27755	17	-53.8	-85.4	284	9
2023-09-20T06:00	27792	17	-53.6	-85.3	285	9
2023-09-20T06:00	27834	17	-53.6	-85.3	285	10
2023-09-20T06:00	27851	16	-53.6	-85.3	284	10
2023-09-20T06:00	27879	16	-53.5	-85.2	284	10
2023-09-20T06:00	27914	16	-53.4	-85.1	284	9
2023-09-20T06:00	27943	16	-53.2	-85.0	284	9
2023-09-20T06:00	27981	16	-53.0	-84.8	284	8
2023-09-20T06:00	27997	16	-53.0	-84.8	285	7
2023-09-20T06:00	28035	16	-53.0	-84.8	285	7
2023-09-20T06:00	28064	16	-52.9	-84.7	285	7
2023-09-20T06:00	28090	16	-52.8	-84.7	285	7
2023-09-20T06:00	28119	16	-52.8	-84.7	285	7
2023-09-20T06:00	28165	16	-52.8	-84.7	284	8
2023-09-20T06:00	28187	16	-53.0	-84.8	284	8
2023-09-20T06:00	28219	16	-53.2	-85.0	284	8
2023-09-20T06:00	28251	15	-53.2	-85.0	286	9
2023-09-20T06:00	28290	15	-53.1	-84.9	288	9
2023-09-20T06:00	28317	15	-53.0	-84.8	291	9
2023-09-20T06:00	28353	15	-52.8	-84.7	295	9
2023-09-20T06:00	28371	15	-52.7	-84.6	297	9
2023-09-20T06:00	28409	15	-52.7	-84.6	299	9
2023-09-20T06:00	28439	15	-52.8	-84.7	300	9
2023-09-20T06:00	28472	15	-52.9	-84.7	300	8
2023-09-20T06:00	28499	15	-52.9	-84.7	300	8
2023-09-20T06:00	28539	15	-52.9	-84.7	300	9
2023-09-20T06:00	28568	15	-52.8	-84.7	300	9
2023-09-20T06:00	28586	15	-52.6	-84.5	300	10
2023-09-20T06:00	28635	15	-52.4	-84.4	301	10
2023-09-20T06:00	28653	15	-52.3	-84.3	303	11
2023-09-20T06:00	28692	14	-52.3	-84.3	304	11
2023-09-20T06:00	28732	14	-52.3	-84.3	306	11
2023-09-20T06:00	28750	14	-52.3	-84.3	307	11
2023-09-20T06:00	28786	14	-52.4	-84.4	307	11
2023-09-20T06:00	28810	14	-52.4	-84.4	306	10
2023-09-20T06:00	28846	14	-52.4	-84.4	303	10
2023-09-20T06:00	28873	14	-52.2	-84.2	300	9
2023-09-20T06:00	28905	14	-52.0	-84.1	296	9
2023-09-20T06:00	28942	14	-51.9	-84.7	294	8
2023-09-20T06:00	28971	14	-51.9	-84.7	292	9
2023-09-20T06:00	28993	14	-52.0	-84.8	292	9
2023-09-20T06:00	29020	14	-51.8	-84.6	292	9
2023-09-20T06:00	29045	14	-51.5	-84.4	291	10
2023-09-20T06:00	29070	14	-51.2	-84.2	291	10
2023-09-20T06:00	29121	14	-51.0	-84.0	289	10
2023-09-20T06:00	29139	13	-50.8	-83.9	288	10
2023-09-20T06:00	29188	13	-50.6	-83.7	288	10
2023-09-20T06:00	29205	13	-50.4	-84.4	289	10
2023-09-20T06:00	29242	13	-50.2	-84.2	292	11
2023-09-20T06:00	29270	13	-50.0	-84.1	295	12
2023-09-20T06:00	29290	13	-49.9	-84.0	298	13
2023-09-20T06:00	29340	13	-49.8	-84.0	300	13
2023-09-20T06:00	29370	13	-49.8	-84.0	301	13
2023-09-20T06:00	29401	13	-49.8	-84.0	301	13
2023-09-20T06:00	29422	13	-49.5	-83.7	301	12
2023-09-20T06:00	29461	13	-49.3	-83.6	300	11
2023-09-20T06:00	29497	13	-49.4	-83.7	298	10
2023-09-20T06:00	29543	13	-49.4	-83.7	296	9
2023-09-20T06:00	29554	13	-49.3	-83.6	295	9
2023-09-20T06:00	29594	13	-49.2	-83.5	293	8
2023-09-20T06:00	29617	13	-49.1	-83.4	291	7
2023-09-20T06:00	29675	12	-49.0	-83.4	289	7
2023-09-20T06:00	29676	12	-48.9	-83.3	288	7
2023-09-20T06:00	29719	12	-48.7	-83.2	287	6
2023-09-20T06:00	29759	12	-48.4	-82.9	286	6
2023-09-20T06:00	29792	12	-48.2	-82.8	285	7
2023-09-20T06:00	29831	12	-48.3	-82.9	284	7
2023-09-20T06:00	29840	12	-48.4	-82.9	284	7
2023-09-20T06:00	29885	12	-48.4	-82.9	286	7
2023-09-20T06:00	29905	12	-48.5	-83.0	290	8
2023-09-20T06:00	29956	12	-48.6	-83.1	295	8
2023-09-20T06:00	29974	12	-48.5	-83.0	301	8
2023-09-20T06:00	30016	12	-48.5	-83.0	306	8
2023-09-20T06:00	30057	12	-48.5	-83.0	311	8
2023-09-20T06:00	30088	12	-48.5	-83.0	313	8
2023-09-20T06:00	30120	12	-48.5	-83.0	313	8
2023-09-20T06:00	30142	12	-48.4	-82.9	310	9
2023-09-20T06:00	30190	12	-48.4	-82.9	306	9
2023-09-20T06:00	30211	11	-48.5	-83.0	301	9
2023-09-20T06:00	30243	11	-48.5	-83.0	297	9
2023-09-20T06:00	30283	11	-48.7	-83.2	295	9
2023-09-20T06:00	30300	11	-48.8	-83.2	294	9
2023-09-20T06:00	30334	11	-48.7	-83.2	295	9
2023-09-20T06:00	30368	11	-48.8	-83.2	296	9
2023-09-20T06:00	30394	11	-48.9	-83.3	298	9
2023-09-20T06:00	30441	11	-49.0	-83.4	300	9
2023-09-20T06:00	30464	11	-49.1	-83.4	302	9
2023-09-20T06:00	30498	11	-49.2	-82.7	304	8
2023-09-20T06:00	30528	11	-49.2	-82.7	307	8
2023-09-20T06:00	30551	11	-49.3	-82.8	308	7
2023-09-20T06:00	30582	11	-49.4	-82.9	309	6
2023-09-20T06:00	30612	11	-49.5	-83.7	308	6
2023-09-20T06:00	30642	11	-49.5	-83.7	305	5
2023-09-20T06:00	30678	11	-49.4	-83.7	299	5
2023-09-20T06:00	30700	11	-49.3	-83.6	292	5
2023-09-20T06:00	30737	11	-49.3	-83.6	285	5
2023-09-20T06:00	30789	11	-49.2	-83.5	280	5
2023-09-20T06:00	30811	10	-49.1	-83.4	277	6
2023-09-20T06:00	30838	10	-49.0	-83.4	277	6
2023-09-20T06:00	30874	10	-49.0	-83.4	280	7
2023-09-20T06:00	30906	10	-49.0	-83.4	284	7
2023-09-20T06:00	30925	10	-48.9	-83.3	289	8
2023-09-20T06:00	30973	10	-49.0	-83.4	293	8
2023-09-20T06:00	30999	10	-49.0	-83.4	296	8
2023-09-20T06:00	31026	10	-48.6	-83.1	298	9
2023-09-20T06:00	31058	10	-48.5	-83.0	298	9
2023-09-20T06:00	31111	10	-48.6	-83.1	296	9
2023-09-20T06:00	31141	10	-48.7	-83.2	294	10
2023-09-20T06:00	31170	10	-48.7	-83.2	291	10
2023-09-20T06:00	31201	10	-48.7	-83.2	288	10
2023-09-20T06:00	31242	10	-48.7	-83.2	284	10
2023-09-20T06:00	31278	10	-48.7	-83.2	281	10
2023-09-20T06:00	31320	10	-48.5	-83.0	279	11
2023-09-20T06:00	31346	10	-48.3	-82.9	278	12
2023-09-20T06:00	31384	10	-48.2	-83.7	278	12
2023-09-20T06:00	31412	10	-47.9	-83.5	279	13
2023-09-20T06:00	31454	9	-47.7	-83.4	279	13
2023-09-20T06:00	31496	9	-47.8	-83.4	279	13
2023-09-20T06:00	31526	9	-48.0	-82.7	279	13
2023-09-20T06:00	31566	9	-47.9	-82.6	279	14
2023-09-20T06:00	31597	9	-47.9	-82.6	279	14
2023-09-20T06:00	31621	9	-47.9	-82.6	280	14
2023-09-20T06:00	31654	9	-47.9	-83.5	281	15
2023-09-20T06:00	31688	9	-47.6	-83.3	282	15
2023-09-20T06:00	31739	9	-47.2	-83.0	283	16
2023-09-20T06:00	31745	9	-46.9	-82.8	283	16
2023-09-20T06:00	31785	9	-46.8	-82.7	285	17
2023-09-20T06:00	31834	9	-46.7	-82.6	286	17
2023-09-20T06:00	31837	9	-46.4	-82.4	288	17
2023-09-20T06:00	31901	9	-46.1	-82.2	291	17
2023-09-20T06:00	31949	9	-45.8	-83.1	294	17
2023-09-20T06:00	31961	9	-45.6	-82.9	297	18
2023-09-20T06:00	31992	9	-45.3	-82.7	299	19
2023-09-20T06:00	32012	9	-45.2	-82.7	301	20
2023-09-20T06:00	32069	9	-45.2	-82.7	302	20
2023-09-20T06:00	32120	9	-45.0	-82.5	301	19
2023-09-20T06:00	32142	9	-44.8	-82.4	299	18
2023-09-20T06:00	32187	9	-44.8	-82.4	298	16
2023-09-20T06:00	32218	8	-44.8	-82.4	296	15
2023-09-20T06:00	32257	8	-44.8	-82.4	296	15
2023-09-20T06:00	32276	8	-44.7	-82.3	296	15
2023-09-20T06:00	32316	8	-44.5	-82.2	298	15
2023-09-20T06:00	32330	8	-44.4	-82.1	299	15
2023-09-20T06:00	32359	8	-44.3	-82.0	301	15
2023-09-20T06:00	32406	8	-44.2	-82.0	302	15
2023-09-20T06:00	32431	8	-44.1	-81.9	303	14
2023-09-20T06:00	32499	8	-44.0	-81.8	303	14
2023-09-20T06:00	32508	8	-44.0	-81.8	304	14
2023-09-20T06:00	32521	8	-44.0	-81.8	304	14
2023-09-20T06:00	32558	8	-44.1	-81.9	305	13
2023-09-20T06:00	32580	8	-44.3	-82.0	305	13
2023-09-20T06:00	32610	8	-44.4	-81.0	306	13
2023-09-20T06:00	32658	8	-44.6	-81.2	308	13
2023-09-20T06:00	32667	8	-44.8	-81.3	309	13
2023-09-20T06:00	32704	8	-45.0	-81.4	310	12
2023-09-20T06:00	32770	8	-45.1	-81.5	311	12
2023-09-20T06:00	32802	8	-45.3	-81.6	312	12
2023-09-20T06:00	32844	8	-45.6	-81.9	314	11
2023-09-20T06:00	32882	8	-45.8	-82.0	316	11
2023-09-20T06:00	32905	8	-45.9	-82.1	318	11
2023-09-20T06:00	32955	8	-46.0	-82.1	319	11
2023-09-20T06:00	32973	8	-46.0	-82.1	321	11
2023-09-20T06:00	33027	8	-46.0	-82.1	321	11
2023-09-20T06:00	33057	7	-45.9	-82.1	320	11
2023-09-20T06:00	33086	7	-45.8	-82.0	316	10
2023-09-20T06:00	33125	7	-45.5	-82.9	311	9
2023-09-20T06:00	33142	7	-45.4	-82.8	303	9
2023-09-20T06:00	33191	7	-45.4	-82.8	293	8
2023-09-20T06:00	33203	7	-45.4	-82.8	283	8
2023-09-20T06:00	33270	7	-45.0	-82.5	273	9
2023-09-20T06:00	33290	7	-44.4	-82.1	264	9
2023-09-20T06:00	33297	7	-43.9	-81.8	257	10
2023-09-20T06:00	33344	7	-43.5	-81.5	253	11
2023-09-20T06:00	33355	7	-43.4	-81.4	250	12
2023-09-20T06:00	33406	7	-43.4	-81.4	249	12
2023-09-20T06:00	33433	7	-43.5	-81.5	249	12
2023-09-20T06:00	33482	7	-43.3	-81.3	251	12
2023-09-20T06:00	33540	7	-42.8	-81.0	258	11
2023-09-20T06:00	33552	7	-42.7	-80.9	262	10
2023-09-20T06:00	33585	7	-42.4	-80.7	263	10
2023-09-20T06:00	33607	7	-42.0	-80.4	262	10
2023-09-20T06:00	33651	7	-41.7	-80.2	260	10
2023-09-20T06:00	33703	7	-41.5	-80.1	257	11
2023-09-20T06:00	33706	7	-41.4	-80.0	254	11
2023-09-20T06:00	33723	7	-41.4	-80.0	253	11
2023-09-20T12:00	112	999	21.4	12.5	190	5
2023-09-20T12:00	142	996	20.1	12.0	204	4
2023-09-20T12:00	174	992	19.4	11.7	203	5
2023-09-20T12:00	201	989	19.2	11.7	203	5
2023-09-20T12:00	233	986	19.0	11.6	202	6
2023-09-20T12:00	252	983	18.8	11.5	202	6
2023-09-20T12:00	271	981	18.6	11.6	202	6
2023-09-20T12:00	292	979	18.4	11.6	203	6
2023-09-20T12:00	305	977	18.3	11.5	206	6
2023-09-20T12:00	327	974	18.0	11.4	208	6
2023-09-20T12:00	354	971	17.7	11.4	210	6
2023-09-20T12:00	386	968	17.3	11.2	212	6
2023-09-20T12:00	418	964	17.1	11.3	213	7
2023-09-20T12:00	443	961	16.7	11.1	214	7
2023-09-20T12:00	463	959	16.5	11.2	214	8
2023-09-20T12:00	486	956	16.2	11.2	214	8
2023-09-20T12:00	516	953	16.0	11.0	213	9
2023-09-20T12:00	541	950	15.6	11.0	212	9
2023-09-20T12:00	569	947	15.4	10.9	211	9
2023-09-20T12:00	598	944	15.2	10.8	209	9
2023-09-20T12:00	630	941	14.8	10.9	208	9
2023-09-20T12:00	655	938	14.5	10.8	207	9
2023-09-20T12:00	679	935	14.4	10.7	207	8
2023-09-20T12:00	699	932	14.1	10.9	207	8
2023-09-20T12:00	726	930	13.8	10.6	208	8
2023-09-20T12:00	752	927	13.6	10.7	209	8
2023-09-20T12:00	781	924	13.3	10.6	211	7
2023-09-20T12:00	802	921	13.1	10.5	214	7
2023-09-20T12:00	826	919	12.9	10.4	219	8
2023-09-20T12:00	851	916	12.7	10.5	223	8
2023-09-20T12:00	876	913	12.6	10.1	227	9
2023-09-20T12:00	899	911	12.4	9.9	231	10
2023-09-20T12:00	922	909	12.3	10.0	234	11
2023-09-20T12:00	942	906	11.9	10.1	236	11
2023-09-20T12:00	972	903	11.9	9.6	238	12
2023-09-20T12:00	997	900	11.7	9.6	239	11
2023-09-20T12:00	1023	898	11.6	9.2	241	11
2023-09-20T12:00	1050	895	11.5	9.1	241	11
2023-09-20T12:00	1074	892	11.3	9.1	241	11
2023-09-20T12:00	1099	890	11.1	9.0	241	11
2023-09-20T12:00	1119	887	11.0	8.7	241	12
2023-09-20T12:00	1144	884	11.4	8.4	241	12
2023-09-20T12:00	1168	882	11.6	8.1	242	12
2023-09-20T12:00	1194	879	11.6	8.1	244	12
2023-09-20T12:00	1218	877	11.9	7.6	246	12
2023-09-20T12:00	1244	874	12.8	6.8	248	11
2023-09-20T12:00	1264	872	12.9	6.9	250	11
2023-09-20T12:00	1295	869	12.9	6.7	252	11
2023-09-20T12:00	1313	867	12.9	6.7	253	10
2023-09-20T12:00	1333	865	13.0	6.9	254	11
2023-09-20T12:00	1364	862	13.0	7.1	254	11
2023-09-20T12:00	1388	859	12.7	6.9	255	11
2023-09-20T12:00	1411	857	12.5	6.6	255	11
2023-09-20T12:00	1434	855	12.3	6.6	255	12
2023-09-20T12:00	1460	852	12.1	7.0	255	12
2023-09-20T12:00	1488	849	11.9	7.2	254	11
2023-09-20T12:00	1516	846	11.6	7.1	253	11
2023-09-20T12:00	1539	844	11.5	7.0	251	11
2023-09-20T12:00	1562	842	11.4	7.0	249	11
2023-09-20T12:00	1594	839	11.2	6.2	247	11
2023-09-20T12:00	1616	836	11.1	5.9	245	12
2023-09-20T12:00	1640	834	11.0	5.6	245	12
2023-09-20T12:00	1669	831	10.9	5.5	246	13
2023-09-20T12:00	1699	828	10.9	4.5	247	13
2023-09-20T12:00	1725	826	10.7	4.8	247	13
2023-09-20T12:00	1747	823	10.6	4.7	247	13
2023-09-20T12:00	1776	820	10.4	4.8	246	14
2023-09-20T12:00	1805	818	10.2	4.6	245	14
2023-09-20T12:00	1829	815	10.1	4.4	244	15
2023-09-20T12:00	1851	813	10.4	4.2	244	15
2023-09-20T12:00	1875	811	10.6	3.7	245	15
2023-09-20T12:00	1895	809	10.6	3.3	245	14
2023-09-20T12:00	1917	807	10.5	2.8	246	14
2023-09-20T12:00	1939	804	10.4	2.7	245	14
2023-09-20T12:00	1964	802	10.3	2.2	245	14
2023-09-20T12:00	1988	800	10.1	2.4	244	15
2023-09-20T12:00	2010	798	10.0	2.3	244	15
2023-09-20T12:00	2030	796	9.8	2.2	245	15
2023-09-20T12:00	2055	793	9.7	2.1	248	14
2023-09-20T12:00	2089	790	9.4	2.2	250	14
2023-09-20T12:00	2117	787	9.3	2.0	253	14
2023-09-20T12:00	2139	785	9.1	1.9	256	14
2023-09-20T12:00	2164	783	9.1	1.6	258	14
2023-09-20T12:00	2186	781	9.0	1.5	259	14
2023-09-20T12:00	2210	779	8.9	1.2	260	13
2023-09-20T12:00	2236	776	8.7	1.3	261	13
2023-09-20T12:00	2255	774	8.5	1.2	261	13
2023-09-20T12:00	2275	773	8.4	1.1	260	12
2023-09-20T12:00	2294	771	8.4	1.0	260	12
2023-09-20T12:00	2314	769	8.2	1.0	261	12
2023-09-20T12:00	2340	766	8.1	0.7	263	12
2023-09-20T12:00	2365	764	7.9	0.6	265	12
2023-09-20T12:00	2387	762	7.8	0.5	266	12
2023-09-20T12:00	2405	760	7.7	0.1	267	12
2023-09-20T12:00	2429	758	7.6	0.1	268	12
2023-09-20T12:00	2457	756	7.4	-0.1	268	12
2023-09-20T12:00	2479	754	7.2	-0.4	268	12
2023-09-20T12:00	2502	752	7.1	0.6	268	12
2023-09-20T12:00	2526	749	6.8	0.5	268	12
2023-09-20T12:00	2547	747	6.7	1.6	267	11
2023-09-20T12:00	2569	745	6.6	2.1	266	10
2023-09-20T12:00	2589	744	6.5	1.7	264	10
2023-09-20T12:00	2608	742	6.6	-2.8	263	9
2023-09-20T12:00	2627	740	6.7	-6.1	262	8
2023-09-20T12:00	2645	739	6.8	-4.8	264	8
2023-09-20T12:00	2666	737	7.0	-4.9	267	8
2023-09-20T12:00	2686	735	6.9	-4.8	271	8
2023-09-20T12:00	2706	733	6.8	-4.8	273	8
2023-09-20T12:00	2726	731	6.8	-4.4	274	8
2023-09-20T12:00	2744	730	6.7	-3.7	274	8
2023-09-20T12:00	2761	728	6.6	-3.6	273	8
2023-09-20T12:00	2783	726	6.5	-3.6	274	8
2023-09-20T12:00	2806	724	6.3	-3.5	277	9
2023-09-20T12:00	2829	722	6.1	-2.8	279	9
2023-09-20T12:00	2851	720	6.0	-2.6	280	9
2023-09-20T12:00	2880	718	5.7	-1.5	281	10
2023-09-20T12:00	2911	715	5.5	-1.4	280	10
2023-09-20T12:00	2938	713	5.4	-0.2	280	10
2023-09-20T12:00	2958	711	5.1	0.5	281	10
2023-09-20T12:00	2979	709	5.0	0.0	283	10
2023-09-20T12:00	2999	707	4.9	-1.4	287	10
2023-09-20T12:00	3020	706	4.9	-3.4	291	9
2023-09-20T12:00	3039	704	4.9	-6.5	294	9
2023-09-20T12:00	3059	702	4.9	-7.4	296	10
2023-09-20T12:00	3075	701	4.9	-7.5	296	10
2023-09-20T12:00	3098	699	4.9	-5.8	294	10
2023-09-20T12:00	3116	697	4.8	-5.6	292	10
2023-09-20T12:00	3136	696	4.7	-6.1	289	10
2023-09-20T12:00	3160	693	4.5	-5.6	285	10
2023-09-20T12:00	3201	690	4.3	-5.4	281	10
2023-09-20T12:00	3225	688	4.1	-5.9	276	9
2023-09-20T12:00	3245	686	4.0	-6.2	271	9
2023-09-20T12:00	3272	684	3.9	-7.4	267	9
2023-09-20T12:00	3293	682	3.8	-8.1	265	9
2023-09-20T12:00	3311	681	3.8	-8.1	266	9
2023-09-20T12:00	3333	679	3.7	-8.2	269	9
2023-09-20T12:00	3364	676	3.6	-8.4	274	9
2023-09-20T12:00	3390	674	3.4	-8.1	279	9
2023-09-20T12:00	3415	672	3.3	-8.6	282	9
2023-09-20T12:00	3437	670	3.2	-8.4	285	8
2023-09-20T12:00	3456	669	3.1	-8.5	286	8
2023-09-20T12:00	3477	667	3.0	-8.4	288	8
2023-09-20T12:00	3498	665	2.9	-8.7	288	8
2023-09-20T12:00	3523	663	2.7	-9.0	287	9
2023-09-20T12:00	3550	661	2.5	-8.7	286	10
2023-09-20T12:00	3576	659	2.3	-8.9	284	10
2023-09-20T12:00	3594	657	2.1	-8.8	283	11
2023-09-20T12:00	3622	655	1.9	-8.9	283	11
2023-09-20T12:00	3640	654	1.7	-8.8	282	10
2023-09-20T12:00	3662	652	1.5	-8.8	282	10
2023-09-20T12:00	3687	650	1.4	-9.0	280	10
2023-09-20T12:00	3707	648	1.2	-9.0	278	10
2023-09-20T12:00	3729	646	1.1	-9.2	277	9
2023-09-20T12:00	3756	644	0.9	-9.5	277	9
2023-09-20T12:00	3783	642	0.7	-9.5	279	9
2023-09-20T12:00	3801	641	0.5	-9.4	281	8
2023-09-20T12:00	3820	639	0.4	-9.8	283	8
2023-09-20T12:00	3853	637	0.3	-10.4	283	8
2023-09-20T12:00	3878	635	0.0	-10.5	283	8
2023-09-20T12:00	3898	633	-0.2	-10.7	284	8
2023-09-20T12:00	3916	632	-0.3	-11.0	286	8
2023-09-20T12:00	3933	630	-0.4	-11.0	286	8
2023-09-20T12:00	3952	629	-0.6	-11.1	284	9
2023-09-20T12:00	3977	627	-0.7	-10.9	280	9
2023-09-20T12:00	3997	625	-0.9	-11.3	277	10
2023-09-20T12:00	4014	624	-1.0	-11.4	274	10
2023-09-20T12:00	4046	622	-1.1	-11.5	274	10
2023-09-20T12:00	4069	620	-1.4	-11.5	275	10
2023-09-20T12:00	4090	618	-1.7	-11.6	279	10
2023-09-20T12:00	4115	616	-1.8	-11.8	283	10
2023-09-20T12:00	4140	614	-2.0	-11.7	287	10
2023-09-20T12:00	4162	613	-2.3	-11.8	289	9
2023-09-20T12:00	4177	611	-2.4	-11.9	291	9
2023-09-20T12:00	4203	609	-2.6	-11.9	292	9
2023-09-20T12:00	4226	608	-2.8	-11.9	292	8
2023-09-20T12:00	4241	606	-3.0	-12.1	291	9
2023-09-20T12:00	4263	605	-3.1	-12.2	289	9
2023-09-20T12:00	4288	603	-3.3	-12.5	286	9
2023-09-20T12:00	4322	600	-3.5	-13.4	283	9
2023-09-20T12:00	4349	598	-3.6	-13.9	279	9
2023-09-20T12:00	4375	596	-3.8	-14.0	275	8
2023-09-20T12:00	4397	595	-3.9	-13.9	271	8
2023-09-20T12:00	4414	593	-4.0	-14.0	269	8
2023-09-20T12:00	4435	592	-4.1	-14.3	269	9
2023-09-20T12:00	4455	590	-4.2	-14.1	271	9
2023-09-20T12:00	4481	588	-4.3	-12.7	272	10
2023-09-20T12:00	4506	586	-4.5	-14.3	273	11
2023-09-20T12:00	4527	585	-4.5	-14.8	274	11
2023-09-20T12:00	4552	583	-4.6	-15.1	274	11
2023-09-20T12:00	4579	581	-4.7	-15.6	275	11
2023-09-20T12:00	4608	579	-4.9	-15.2	276	11
2023-09-20T12:00	4631	577	-5.1	-15.1	276	11
2023-09-20T12:00	4650	576	-5.2	-14.6	275	11
2023-09-20T12:00	4675	574	-5.4	-15.0	273	11
2023-09-20T12:00	4693	573	-5.6	-15.1	272	11
2023-09-20T12:00	4712	571	-5.7	-15.1	271	11
2023-09-20T12:00	4734	570	-5.8	-14.9	272	11
2023-09-20T12:00	4760	568	-6.1	-14.8	273	11
2023-09-20T12:00	4783	566	-6.3	-15.1	275	11
2023-09-20T12:00	4804	565	-6.5	-15.3	276	11
2023-09-20T12:00	4822	563	-6.7	-15.3	276	11
2023-09-20T12:00	4850	561	-6.8	-15.5	274	11
2023-09-20T12:00	4868	560	-7.1	-15.3	271	10
2023-09-20T12:00	4897	558	-7.3	-15.5	269	10
2023-09-20T12:00	4919	556	-7.6	-15.4	267	10
2023-09-20T12:00	4939	555	-7.7	-15.3	266	10
2023-09-20T12:00	4964	553	-7.9	-15.2	266	9
2023-09-20T12:00	4985	551	-8.2	-15.2	267	9
2023-09-20T12:00	5009	550	-8.4	-15.3	267	10
2023-09-20T12:00	5025	549	-8.5	-15.9	267	10
2023-09-20T12:00	5046	547	-8.6	-15.8	266	10
2023-09-20T12:00	5076	545	-8.9	-15.7	265	11
2023-09-20T12:00	5098	544	-9.1	-15.9	263	11
2023-09-20T12:00	5118	542	-9.3	-15.8	262	12
2023-09-20T12:00	5149	540	-9.5	-16.3	260	12
2023-09-20T12:00	5170	538	-9.7	-16.9	259	12
2023-09-20T12:00	5190	537	-9.9	-16.9	259	12
2023-09-20T12:00	5209	536	-9.9	-16.5	259	12
2023-09-20T12:00	5230	534	-10.1	-16.2	260	11
2023-09-20T12:00	5252	533	-10.4	-16.1	261	11
2023-09-20T12:00	5283	531	-10.6	-15.6	263	10
2023-09-20T12:00	5306	529	-10.8	-15.8	264	10
2023-09-20T12:00	5333	527	-11.0	-16.0	264	9
2023-09-20T12:00	5352	526	-11.2	-16.5	262	9
2023-09-20T12:00	5374	524	-11.3	-16.8	260	9
2023-09-20T12:00	5399	523	-11.5	-16.7	260	10
2023-09-20T12:00	5419	521	-11.7	-16.8	263	10
2023-09-20T12:00	5449	519	-11.8	-17.0	267	11
2023-09-20T12:00	5475	518	-12.1	-17.1	272	11
2023-09-20T12:00	5501	516	-12.4	-17.3	276	10
2023-09-20T12:00	5522	514	-12.6	-17.1	279	10
2023-09-20T12:00	5543	513	-12.7	-17.2	278	10
2023-09-20T12:00	5564	512	-12.8	-17.2	276	10
2023-09-20T12:00	5593	510	-13.1	-17.5	272	10
2023-09-20T12:00	5616	508	-13.3	-17.7	269	11
2023-09-20T12:00	5644	506	-13.4	-18.2	267	11
2023-09-20T12:00	5662	505	-13.6	-18.5	267	12
2023-09-20T12:00	5691	503	-13.8	-18.6	268	12
2023-09-20T12:00	5718	501	-14.0	-18.3	270	12
2023-09-20T12:00	5737	500	-14.2	-18.5	272	13
2023-09-20T12:00	5760	499	-14.3	-18.5	274	12
2023-09-20T12:00	5780	497	-14.5	-18.5	276	12
2023-09-20T12:00	5802	496	-14.7	-18.9	277	11
2023-09-20T12:00	5822	494	-14.8	-19.0	276	11
2023-09-20T12:00	5848	493	-15.0	-19.3	275	11
2023-09-20T12:00	5869	491	-15.2	-19.7	273	11
2023-09-20T12:00	5897	490	-15.4	-19.9	270	11
2023-09-20T12:00	5919	488	-15.5	-19.9	269	11
2023-09-20T12:00	5939	487	-15.8	-20.1	269	11
2023-09-20T12:00	5959	486	-15.9	-20.3	269	11
2023-09-20T12:00	5977	484	-16.1	-20.7	271	11
2023-09-20T12:00	6001	483	-16.2	-20.7	272	11
2023-09-20T12:00	6027	481	-16.4	-21.1	273	12
2023-09-20T12:00	6048	480	-16.6		273	12
2023-09-20T12:00	6076	478	-16.7	-21.2	273	13
2023-09-20T12:00	6108	476	-16.9	-20.5	273	14
2023-09-20T12:00	6137	474	-17.2	-20.8	273	14
2023-09-20T12:00	6156	473	-17.4	-22.8	273	14
2023-09-20T12:00	6175	472	-17.5	-23.3	272	13
2023-09-20T12:00	6199	470	-17.6	-22.9	270	13
2023-09-20T12:00	6221	469	-17.8	-22.3	269	13
2023-09-20T12:00	6248	467	-17.9	-21.0	268	14
2023-09-20T12:00	6265	466	-18.1	-21.6	270	14
2023-09-20T12:00	6284	465	-18.1	-24.1	273	15
2023-09-20T12:00	6311	463	-18.2	-23.8	276	15
2023-09-20T12:00	6329	462	-18.3	-24.2	280	14
2023-09-20T12:00	6349	461	-18.4	-24.2	282	14
2023-09-20T12:00	6375	459	-18.3	-22.3	283	14
2023-09-20T12:00	6393	458	-18.5	-22.7	283	14
2023-09-20T12:00	6418	457	-18.6	-23.0	282	14
2023-09-20T12:00	6438	455	-18.7	-24.6	281	13
2023-09-20T12:00	6459	454	-18.6	-28.0	280	14
2023-09-20T12:00	6484	453	-18.7	-28.8	280	14
2023-09-20T12:00	6512	451	-18.9	-31.6	280	15
2023-09-20T12:00	6539	450	-19.1	-32.2	281	16
2023-09-20T12:00	6555	448	-19.0	-28.5	283	16
2023-09-20T12:00	6581	447	-19.2	-27.4	285	16
2023-09-20T12:00	6608	445	-19.4		286	16
2023-09-20T12:00	6630	444	-19.6	-26.6	287	16
2023-09-20T12:00	6658	442	-19.8	-26.6	285	16
2023-09-20T12:00	6688	441	-20.1	-26.7	284	17
2023-09-20T12:00	6716	439	-20.3	-26.9	282	17
2023-09-20T12:00	6743	437	-20.7	-27.0	281	17
2023-09-20T12:00	6763	436	-21.0	-27.0	281	17
2023-09-20T12:00	6782	435	-21.1	-27.1	280	17
2023-09-20T12:00	6801	434	-21.2	-27.3	279	16
2023-09-20T12:00	6828	432	-21.4	-27.3	276	16
2023-09-20T12:00	6847	431	-21.7	-27.4	274	15
2023-09-20T12:00	6870	430	-21.9	-27.3	272	14
2023-09-20T12:00	6895	428	-22.1	-27.4	272	14
2023-09-20T12:00	6917	427	-22.4	-27.2	273	14
2023-09-20T12:00	6936	426	-22.5	-27.1	275	15
2023-09-20T12:00	6959	425	-22.7	-26.9	276	15
2023-09-20T12:00	6977	424	-22.8	-27.0	275	15
2023-09-20T12:00	6996	422	-22.9	-27.0	274	14
2023-09-20T12:00	7029	421	-23.0	-27.2	271	14
2023-09-20T12:00	7047	420	-23.1	-27.3	269	14
2023-09-20T12:00	7066	418	-23.1	-27.3	268	13
2023-09-20T12:00	7096	417	-23.0	-27.0	268	13
2023-09-20T12:00	7111	416	-23.1	-26.9	268	14
2023-09-20T12:00	7133	415	-23.1	-27.0	269	14
2023-09-20T12:00	7151	414	-23.3	-27.0	269	14
2023-09-20T12:00	7173	412	-23.3	-27.2	268	14
2023-09-20T12:00	7194	411	-23.3	-27.0	268	13
2023-09-20T12:00	7214	410	-23.0	-26.8	269	13
2023-09-20T12:00	7235	409	-22.9	-26.7	270	13
2023-09-20T12:00	7258	408	-23.0	-26.7	271	13
2023-09-20T12:00	7274	407	-23.2	-26.9	272	13
2023-09-20T12:00	7292	406	-23.3	-27.1	272	13
2023-09-20T12:00	7312	404	-23.2	-27.1	272	14
2023-09-20T12:00	7342	403	-23.4	-27.2	271	14
2023-09-20T12:00	7362	402	-23.7	-27.6	271	13
2023-09-20T12:00	7382	401	-23.7	-27.7	271	13
2023-09-20T12:00	7402	400	-23.9	-27.8	272	13
2023-09-20T12:00	7431	398	-24.0	-27.9	271	13
2023-09-20T12:00	7450	397	-24.3	-28.1	270	14
2023-09-20T12:00	7476	396	-24.4	-28.1	268	14
2023-09-20T12:00	7497	394	-24.6	-28.2	265	14
2023-09-20T12:00	7518	393	-24.5	-28.2	262	14
2023-09-20T12:00	7542	392	-24.7	-28.3	260	14
2023-09-20T12:00	7569	391	-24.8	-28.4	257	14
2023-09-20T12:00	7597	389	-25.1	-28.5	255	14
2023-09-20T12:00	7613	388	-25.3	-28.6	255	15
2023-09-20T12:00	7646	387	-25.3	-28.6	255	15
2023-09-20T12:00	7665	385	-25.5	-28.7	255	16
2023-09-20T12:00	7691	384	-25.7	-28.8	255	16
2023-09-20T12:00	7712	383	-25.8	-29.1	255	16
2023-09-20T12:00	7734	382	-26.0	-29.1	254	15
2023-09-20T12:00	7764	380	-26.1	-29.6	255	15
2023-09-20T12:00	7785	379	-26.2	-29.6	256	14
2023-09-20T12:00	7802	378	-26.3	-29.7	258	14
2023-09-20T12:00	7824	377	-26.4	-29.6	260	15
2023-09-20T12:00	7846	376	-26.4	-29.9	262	15
2023-09-20T12:00	7870	375	-26.5	-29.8	263	16
2023-09-20T12:00	7891	374	-26.6	-29.8	263	17
2023-09-20T12:00	7911	373	-26.7	-30.0	263	17
2023-09-20T12:00	7935	371	-26.8	-30.2	263	18
2023-09-20T12:00	7960	370	-27.0	-30.5	263	18
2023-09-20T12:00	7981	369	-27.1	-30.5	264	18
2023-09-20T12:00	8016	367	-27.4	-30.7	265	18
2023-09-20T12:00	8035	366	-27.5	-31.0	265	18
2023-09-20T12:00	8058	365	-27.7	-31.0	265	18
2023-09-20T12:00	8087	364	-28.0	-31.2	264	18
2023-09-20T12:00	8109	362	-28.1	-31.6	263	18
2023-09-20T12:00	8130	361	-28.2	-31.6	262	18
2023-09-20T12:00	8151	360	-28.3	-31.9	262	18
2023-09-20T12:00	8174	359	-28.4	-32.1	263	17
2023-09-20T12:00	8194	358	-28.7	-32.1	264	17
2023-09-20T12:00	8215	357	-28.8	-32.3	265	16
2023-09-20T12:00	8246	356	-29.0	-32.4	266	16
2023-09-20T12:00	8266	355	-29.2	-32.9	266	16
2023-09-20T12:00	8288	353	-29.3	-33.0	266	16
2023-09-20T12:00	8314	352	-29.5	-33.0	265	16
2023-09-20T12:00	8337	351	-29.7	-33.6	265	16
2023-09-20T12:00	8357	350	-29.9	-33.5	266	16
2023-09-20T12:00	8378	349	-30.0	-33.7	267	16
2023-09-20T12:00	8405	348	-30.2	-34.0	268	16
2023-09-20T12:00	8427	347	-30.4	-34.4	268	16
2023-09-20T12:00	8447	346	-30.5	-34.8	268	16
2023-09-20T12:00	8473	344	-30.6	-34.6	268	15
2023-09-20T12:00	8498	343	-30.9	-35.2	268	15
2023-09-20T12:00	8519	342	-31.2	-35.2	268	15
2023-09-20T12:00	8543	341	-31.4	-35.5	268	15
2023-09-20T12:00	8566	340	-31.5	-35.5	268	16
2023-09-20T12:00	8585	339	-31.7	-35.5	268	16
2023-09-20T12:00	8609	338	-31.7	-35.9	268	16
2023-09-20T12:00	8634	337	-32.0	-36.0	268	16
2023-09-20T12:00	8657	336	-32.2	-36.3	267	16
2023-09-20T12:00	8680	335	-32.3	-36.3	266	16
2023-09-20T12:00	8702	333	-32.6	-36.6	264	16
2023-09-20T12:00	8723	332	-32.7	-36.7	263	16
2023-09-20T12:00	8750	331	-32.8	-37.0	262	16
2023-09-20T12:00	8776	330	-33.0	-37.1	262	16
2023-09-20T12:00	8799	329	-33.2	-37.4	262	16
2023-09-20T12:00	8826	328	-33.4	-37.2	263	16
2023-09-20T12:00	8848	327	-33.7	-37.7	263	16
2023-09-20T12:00	8877	325	-33.8	-37.6	262	16
2023-09-20T12:00	8896	324	-34.1	-37.7	261	16
2023-09-20T12:00	8922	323	-34.2	-37.7	260	16
2023-09-20T12:00	8941	322	-34.5	-38.0	259	16
2023-09-20T12:00	8963	321	-34.6	-38.5	258	16
2023-09-20T12:00	8987	320	-34.8	-38.5	257	16
2023-09-20T12:00	9010	319	-35.0	-38.5	257	16
2023-09-20T12:00	9032	318	-35.2	-38.8	258	16
2023-09-20T12:00	9055	317	-35.4	-39.1	259	16
2023-09-20T12:00	9078	316	-35.6	-39.1	260	16
2023-09-20T12:00	9101	315	-35.9	-39.3	260	16
2023-09-20T12:00	9124	314	-36.0	-39.6	260	16
2023-09-20T12:00	9148	313	-36.2	-40.0	261	16
2023-09-20T12:00	9168	312	-36.3	-40.3	261	16
2023-09-20T12:00	9189	311	-36.5	-40.5	262	15
2023-09-20T12:00	9215	310	-36.9	-40.3	262	15
2023-09-20T12:00	9237	309	-37.0	-40.7	262	15
2023-09-20T12:00	9259	308	-37.2	-41.0	261	15
2023-09-20T12:00	9281	307	-37.5	-41.0	260	16
2023-09-20T12:00	9304	306	-37.5	-41.0	260	16
2023-09-20T12:00	9329	305	-37.8	-41.3	259	16
2023-09-20T12:00	9356	304	-38.0	-41.3	259	16
2023-09-20T12:00	9377	303	-38.2	-41.9	259	16
2023-09-20T12:00	9401	302	-38.4	-42.2	259	16
2023-09-20T12:00	9428	300	-38.7	-42.5	259	16
2023-09-20T12:00	9453	299	-39.0	-43.0	259	16
2023-09-20T12:00	9474	298	-39.1	-43.4	259	16
2023-09-20T12:00	9499	297	-39.2	-43.5	259	16
2023-09-20T12:00	9522	296	-39.4	-43.4	260	16
2023-09-20T12:00	9550	295	-39.7	-43.8	260	17
2023-09-20T12:00	9573	294	-39.9	-44.3	261	16
2023-09-20T12:00	9597	293	-40.2	-44.4	263	16
2023-09-20T12:00	9621	292	-40.3	-44.8	264	16
2023-09-20T12:00	9648	291	-40.6	-44.7	265	15
2023-09-20T12:00	9679	290	-40.8	-44.6	266	15
2023-09-20T12:00	9713	288	-41.1	-45.0	267	15
2023-09-20T12:00	9737	287	-41.4	-45.2	266	15
2023-09-20T12:00	9759	286	-41.5	-45.5	265	15
2023-09-20T12:00	9788	285	-41.8	-45.4	263	15
2023-09-20T12:00	9809	284	-42.1	-45.6	262	15
2023-09-20T12:00	9835	283	-42.2	-46.2	262	15
2023-09-20T12:00	9856	282	-42.4	-46.5	263	15
2023-09-20T12:00	9881	281	-42.6		265	15
2023-09-20T12:00	9905	280	-42.9	-47.0	266	15
2023-09-20T12:00	9930	279	-43.0	-47.1	267	15
2023-09-20T12:00	9952	278	-43.3	-47.3	267	15
2023-09-20T12:00	9977	277	-43.5	-47.5	267	15
2023-09-20T12:00	9999	276	-43.7	-47.9	266	15
2023-09-20T12:00	10025	275	-43.8	-48.1	266	14
2023-09-20T12:00	10053	274	-44.1	-48.4	265	14
2023-09-20T12:00	10075	273	-44.4	-48.6	265	15
2023-09-20T12:00	10100	272	-44.6	-48.8	265	15
2023-09-20T12:00	10123	271	-44.9	-49.3	265	15
2023-09-20T12:00	10148	270	-45.0	-49.3	265	16
2023-09-20T12:00	10174	269	-45.3	-49.3	265	16
2023-09-20T12:00	10194	268	-45.6	-49.4	265	15
2023-09-20T12:00	10215	267	-45.8	-50.0	265	15
2023-09-20T12:00	10239	267	-45.8	-50.7	265	15
2023-09-20T12:00	10260	266	-46.0	-50.7	264	15
2023-09-20T12:00	10284	265	-46.2	-50.5	264	15
2023-09-20T12:00	10305	264	-46.4	-50.7	263	15
2023-09-20T12:00	10330	263	-46.5	-50.9	263	15
2023-09-20T12:00	10351	262	-46.8	-51.2	263	15
2023-09-20T12:00	10375	261	-47.0	-51.0	263	15
2023-09-20T12:00	10398	260	-47.3	-51.3	264	15
2023-09-20T12:00	10420	259	-47.3	-51.7	264	15
2023-09-20T12:00	10446	258	-47.6	-52.0	265	15
2023-09-20T12:00	10475	257	-48.0	-52.5	264	16
2023-09-20T12:00	10505	256	-48.2	-53.6	264	16
2023-09-20T12:00	10529	255	-48.5	-54.6	263	16
2023-09-20T12:00	10551	254	-48.6	-55.0	261	16
2023-09-20T12:00	10572	253	-48.8	-55.0	260	16
2023-09-20T12:00	10595	253	-48.9	-54.8	259	16
2023-09-20T12:00	10619	252	-49.0	-54.8	258	16
2023-09-20T12:00	10639	251	-49.3	-55.0	258	16
2023-09-20T12:00	10661	250	-49.5	-55.0	258	16
2023-09-20T12:00	10683	249	-49.8	-55.4	258	16
2023-09-20T12:00	10706	248	-49.9	-55.9	257	17
2023-09-20T12:00	10730	247	-50.1	-56.2	257	17
2023-09-20T12:00	10763	246	-50.4	-56.2	256	18
2023-09-20T12:00	10788	245	-50.8	-56.4	256	19
2023-09-20T12:00	10813	244	-51.0	-56.4	256	19
2023-09-20T12:00	10841	243	-51.1	-56.5	256	19
2023-09-20T12:00	10865	242	-51.3	-56.5	257	19
2023-09-20T12:00	10890	241	-51.6	-56.4	257	19
2023-09-20T12:00	10912	241	-51.7	-56.3	259	19
2023-09-20T12:00	10935	240	-51.9	-56.3	260	19
2023-09-20T12:00	10962	239	-52.2	-56.4	262	18
2023-09-20T12:00	10988	238	-52.5	-56.5	264	18
2023-09-20T12:00	11013	237	-52.8	-56.8	266	17
2023-09-20T12:00	11033	236	-52.8	-56.9	268	17
2023-09-20T12:00	11056	235	-53.0	-57.0	270	17
2023-09-20T12:00	11081	234	-53.2	-57.2	271	17
2023-09-20T12:00	11102	234	-53.3	-57.3	272	17
2023-09-20T12:00	11121	233	-53.4	-57.5	272	18
2023-09-20T12:00	11142	232	-53.6	-57.8	272	17
2023-09-20T12:00	11162	231	-53.7	-57.8	272	17
2023-09-20T12:00	11186	231	-53.8	-57.8	272	17
2023-09-20T12:00	11206	230	-54.1	-58.3	273	17
2023-09-20T12:00	11228	229	-54.1	-58.9	274	16
2023-09-20T12:00	11248	228	-54.1	-60.3	276	16
2023-09-20T12:00	11268	228	-53.7	-62.2	278	15
2023-09-20T12:00	11289	227	-53.5	-64.2	280	15
2023-09-20T12:00	11311	226	-53.4	-64.7	282	15
2023-09-20T12:00	11333	225	-53.5	-64.3	283	15
2023-09-20T12:00	11351	225	-53.5	-63.7	284	15
2023-09-20T12:00	11375	224	-53.7	-63.4	283	14
2023-09-20T12:00	11398	223	-54.0	-63.2	282	14
2023-09-20T12:00	11423	222	-54.1	-62.8	280	13
2023-09-20T12:00	11446	221	-54.2	-62.9	278	13
2023-09-20T12:00	11469	221	-54.3		275	13
2023-09-20T12:00	11490	220	-54.3	-63.9	273	12
2023-09-20T12:00	11514	219	-54.3	-64.4	271	12
2023-09-20T12:00	11535	218	-54.3	-65.1	269	12
2023-09-20T12:00	11558	218	-54.1	-65.6	268	13
2023-09-20T12:00	11580	217	-54.1	-66.3	267	13
2023-09-20T12:00	11602	216	-54.1	-67.4	266	13
2023-09-20T12:00	11625	215	-53.8	-68.4	265	13
2023-09-20T12:00	11646	215	-53.3	-69.0	264	13
2023-09-20T12:00	11669	214	-53.2	-69.4	263	14
2023-09-20T12:00	11693	213	-53.4	-69.5	262	14
2023-09-20T12:00	11716	212	-53.5	-69.4	262	14
2023-09-20T12:00	11739	212	-53.6	-69.4	262	14
2023-09-20T12:00	11760	211	-53.6	-69.4	263	14
2023-09-20T12:00	11781	210	-53.6	-69.7	263	14
2023-09-20T12:00	11804	209	-53.5	-69.9	263	14
2023-09-20T12:00	11827	209	-53.5	-70.4	262	14
2023-09-20T12:00	11848	208	-53.6	-70.9	261	14
2023-09-20T12:00	11871	207	-53.5	-71.1	260	14
2023-09-20T12:00	11897	206	-53.5	-71.3	261	13
2023-09-20T12:00	11923	206	-53.6	-71.5	261	13
2023-09-20T12:00	11946	205	-53.6	-71.7	262	13
2023-09-20T12:00	11970	204	-53.7	-71.8	263	13
2023-09-20T12:00	11989	203	-53.9	-71.9	262	13
2023-09-20T12:00	12013	203	-53.8	-71.9	261	13
2023-09-20T12:00	12035	202	-53.9	-72.2	260	13
2023-09-20T12:00	12057	201	-53.8	-72.6	259	13
2023-09-20T12:00	12079	201	-53.6	-72.8	258	13
2023-09-20T12:00	12101	200	-53.6	-72.9	259	13
2023-09-20T12:00	12123	199	-53.8	-73.1	261	13
2023-09-20T12:00	12145	199	-53.9	-73.2	263	13
2023-09-20T12:00	12165	198	-54.0	-73.3	265	13
2023-09-20T12:00	12187	197	-54.1	-73.5	267	13
2023-09-20T12:00	12208	197	-54.1	-73.6	268	13
2023-09-20T12:00	12227	196	-54.1	-73.7	269	13
2023-09-20T12:00	12247	195	-54.2	-73.9	269	13
2023-09-20T12:00	12268	195	-54.2	-74.2	269	13
2023-09-20T12:00	12291	194	-54.0	-74.3	267	13
2023-09-20T12:00	12311	193	-53.9	-74.5	265	13
2023-09-20T12:00	12337	193	-54.0	-74.7	263	14
2023-09-20T12:00	12360	192	-53.9	-74.7	261	14
2023-09-20T12:00	12386	191	-53.9	-74.8	259	14
2023-09-20T12:00	12408	191	-53.8	-75.0	259	15
2023-09-20T12:00	12428	190	-53.8	-75.1	260	15
2023-09-20T12:00	12448	189	-53.9	-75.2	262	15
2023-09-20T12:00	12468	189	-53.7	-75.0	265	15
2023-09-20T12:00	12485	188	-53.8	-75.3	267	15
2023-09-20T12:00	12503	188	-53.5	-75.2	269	15
2023-09-20T12:00	12523	187	-53.4	-75.2	271	15
2023-09-20T12:00	12543	187	-53.5	-75.3	272	15
2023-09-20T12:00	12563	186	-53.5	-75.3	274	15
2023-09-20T12:00	12581	185	-53.5	-75.0	275	15
2023-09-20T12:00	12603	185	-53.6	-75.0	276	15
2023-09-20T12:00	12623	184	-53.7	-74.8	277	14
2023-09-20T12:00	12645	184	-53.9	-74.6	278	14
2023-09-20T12:00	12665	183	-54.0	-74.4	278	14
2023-09-20T12:00	12685	183	-54.2	-74.4	278	13
2023-09-20T12:00	12704	182	-54.3	-74.1	277	12
2023-09-20T12:00	12725	181	-54.5	-74.0	275	11
2023-09-20T12:00	12748	181	-54.5	-73.8	272	10
2023-09-20T12:00	12773	180	-54.6	-73.7	270	10
2023-09-20T12:00	12794	179	-54.5	-73.7	269	10
2023-09-20T12:00	12817	179	-54.2	-73.6	268	9
2023-09-20T12:00	12836	178	-54.0	-73.8	268	9
2023-09-20T12:00	12858	178	-53.7	-74.1	268	10
2023-09-20T12:00	12879	177	-53.3	-74.2	266	10
2023-09-20T12:00	12902	176	-53.2	-74.4	264	10
2023-09-20T12:00	12922	176	-52.9	-74.4	262	10
2023-09-20T12:00	12945	175	-52.6	-74.3	260	10
2023-09-20T12:00	12966	175	-52.6	-74.6	259	10
2023-09-20T12:00	12987	174	-52.7	-74.6	257	9
2023-09-20T12:00	13007	174	-52.8	-74.7	256	9
2023-09-20T12:00	13030	173	-52.9	-74.7	255	9
2023-09-20T12:00	13051	172	-52.9	-74.8	254	9
2023-09-20T12:00	13071	172	-52.7	-74.8	254	9
2023-09-20T12:00	13095	171	-52.7	-74.8	255	9
2023-09-20T12:00	13117	171	-52.8	-74.9	256	9
2023-09-20T12:00	13138	170	-53.0	-75.0	257	9
2023-09-20T12:00	13159	170	-53.2	-75.0	259	10
2023-09-20T12:00	13182	169	-53.2	-75.2	260	10
2023-09-20T12:00	13205	168	-53.4	-75.3	261	10
2023-09-20T12:00	13227	168	-53.5	-75.4	262	10
2023-09-20T12:00	13249	167	-53.7	-75.5	263	10
2023-09-20T12:00	13266	167	-53.8	-75.5	263	10
2023-09-20T12:00	13289	166	-54.0	-75.6	263	10
2023-09-20T12:00	13309	166	-54.1	-75.6	263	10
2023-09-20T12:00	13329	165	-54.3	-75.5	262	10
2023-09-20T12:00	13352	165	-54.6	-75.7	261	10
2023-09-20T12:00	13372	164	-54.8	-75.7	260	10
2023-09-20T12:00	13393	163	-55.0	-75.7	260	10
2023-09-20T12:00	13417	163	-55.1	-75.8	261	10
2023-09-20T12:00	13439	162	-55.3		262	10
2023-09-20T12:00	13464	162	-55.3	-76.0	263	10
2023-09-20T12:00	13486	161	-55.3	-76.1	264	10
2023-09-20T12:00	13510	161	-55.5	-76.4	265	10
2023-09-20T12:00	13533	160	-55.5	-76.5	266	11
2023-09-20T12:00	13559	159	-55.6	-76.6	266	11
2023-09-20T12:00	13580	159	-55.8	-76.8	266	11
2023-09-20T12:00	13600	158	-55.9	-76.8	266	10
2023-09-20T12:00	13623	158	-55.9	-77.1	265	10
2023-09-20T12:00	13644	157	-55.9	-77.5	264	10
2023-09-20T12:00	13666	157	-55.9	-78.0	263	10
2023-09-20T12:00	13690	156	-56.0	-78.4	262	10
2023-09-20T12:00	13714	155	-56.1	-78.4	262	10
2023-09-20T12:00	13738	155	-56.2	-78.4	262	10
2023-09-20T12:00	13761	154	-56.5	-78.3	262	10
2023-09-20T12:00	13789	154	-56.8	-78.3	261	9
2023-09-20T12:00	13813	153	-57.0	-78.0	261	9
2023-09-20T12:00	13839	152	-57.2	-77.9	261	9
2023-09-20T12:00	13863	152	-57.3	-77.9	261	9
2023-09-20T12:00	13887	151	-57.6	-77.9	261	9
2023-09-20T12:00	13907	151	-57.8		262	9
2023-09-20T12:00	13933	150	-58.1	-77.8	263	9
2023-09-20T12:00	13955	150	-58.3	-77.8	264	9
2023-09-20T12:00	13978	149	-58.5	-77.7	265	9
2023-09-20T12:00	14002	149	-58.6	-77.7	265	8
2023-09-20T12:00	14024	148	-58.7	-77.8	264	8
2023-09-20T12:00	14046	148	-58.8	-77.9	264	8
2023-09-20T12:00	14069	147	-59.1	-78.1	265	8
2023-09-20T12:00	14091	146	-59.3	-78.2	266	9
2023-09-20T12:00	14114	146	-59.4	-78.1	268	9
2023-09-20T12:00	14137	145	-59.6	-78.2	269	9
2023-09-20T12:00	14160	145	-59.8	-78.4	271	9
2023-09-20T12:00	14184	144	-59.8	-78.5	272	10
2023-09-20T12:00	14202	144	-59.8	-78.7	274	10
2023-09-20T12:00	14225	143	-59.9	-78.8	276	10
2023-09-20T12:00	14245	143	-60.1	-79.0	278	10
2023-09-20T12:00	14269	142	-60.3	-79.0	281	10
2023-09-20T12:00	14292	142	-60.4	-79.0	284	10
2023-09-20T12:00	14317	141	-60.5	-79.0	287	10
2023-09-20T12:00	14342	141	-60.5	-79.0	289	10
2023-09-20T12:00	14364	140	-60.5	-79.1	292	9
2023-09-20T12:00	14389	140	-60.7	-79.4	293	9
2023-09-20T12:00	14410	139	-60.6	-79.5	295	9
2023-09-20T12:00	14434	139	-60.5	-79.7	295	9
2023-09-20T12:00	14456	138	-60.5	-79.9	295	9
2023-09-20T12:00	14480	138	-60.5	-80.0	295	9
2023-09-20T12:00	14503	137	-60.7	-80.3	294	9
2023-09-20T12:00	14525	137	-61.0	-80.6	294	9
2023-09-20T12:00	14548	136	-61.1	-80.6	294	9
2023-09-20T12:00	14570	136	-61.3	-80.9	294	8
2023-09-20T12:00	14594	135	-61.4	-81.1	294	8
2023-09-20T12:00	14622	135	-61.3	-81.2	294	8
2023-09-20T12:00	14645	134	-61.3	-81.2	293	8
2023-09-20T12:00	14667	134	-61.4	-81.2	292	8
2023-09-20T12:00	14690	133	-61.7	-81.5	291	8
2023-09-20T12:00	14710	133	-61.8	-81.4	291	8
2023-09-20T12:00	14734	132	-61.7	-81.2	291	8
2023-09-20T12:00	14757	132	-61.9	-81.4	292	8
2023-09-20T12:00	14779	131	-62.0	-81.4	293	8
2023-09-20T12:00	14801	131	-62.2	-81.5	294	9
2023-09-20T12:00	14825	130	-62.2	-81.7	295	9
2023-09-20T12:00	14847	130	-62.1	-81.7	296	9
2023-09-20T12:00	14870	129	-61.7	-81.5	295	9
2023-09-20T12:00	14892	129	-61.6	-81.6	294	9
2023-09-20T12:00	14914	128	-61.6	-81.9	292	9
2023-09-20T12:00	14937	128	-61.5	-81.9	290	9
2023-09-20T12:00	14960	127	-61.2	-82.0	287	9
2023-09-20T12:00	14983	127	-61.0	-82.0	286	9
2023-09-20T12:00	15003	126	-61.2	-82.3	286	9
2023-09-20T12:00	15027	126	-61.4	-82.3	286	9
2023-09-20T12:00	15047	126	-61.5	-82.4	288	9
2023-09-20T12:00	15070	125	-61.7	-82.4	290	9
2023-09-20T12:00	15092	125	-61.9	-82.5	291	9
2023-09-20T12:00	15110	124	-61.9	-82.4	293	10
2023-09-20T12:00	15130	124	-61.9	-82.4	294	10
2023-09-20T12:00	15151	123	-61.9	-82.3	297	10
2023-09-20T12:00	15173	123	-61.8	-82.3	299	10
2023-09-20T12:00	15198	123	-61.7	-82.2	302	10
2023-09-20T12:00	15219	122	-61.7	-82.4	304	10
2023-09-20T12:00	15245	122	-61.6	-82.4	305	9
2023-09-20T12:00	15267	121	-61.3	-82.3	306	9
2023-09-20T12:00	15290	121	-61.1	-82.5	307	9
2023-09-20T12:00	15314	120	-61.0	-82.5	308	9
2023-09-20T12:00	15336	120	-60.8	-82.5	311	9
2023-09-20T12:00	15361	119	-60.9	-82.8	316	9
2023-09-20T12:00	15388	119	-60.4	-82.7	321	9
2023-09-20T12:00	15411	118	-60.0	-82.6	326	9
2023-09-20T12:00	15439	118	-60.1	-82.8	330	9
2023-09-20T12:00	15459	118	-60.1	-83.0	334	9
2023-09-20T12:00	15480	117	-60.0	-83.1	336	9
2023-09-20T12:00	15509	117	-59.7	-83.1	336	9
2023-09-20T12:00	15535	116	-59.5	-83.1	333	9
2023-09-20T12:00	15577	115	-59.4		328	8
2023-09-20T12:00	15600	115	-59.6	-83.2	321	7
2023-09-20T12:00	15633	114	-59.7	-83.3	315	6
2023-09-20T12:00	15662	114	-60.0	-83.3	308	5
2023-09-20T12:00	15688	113	-60.2	-83.3	303	3
2023-09-20T12:00	15712	113	-60.3	-83.4	298	2
2023-09-20T12:00	15738	112	-60.6	-83.4	290	2
2023-09-20T12:00	15762	112	-60.9	-83.5	276	1
2023-09-20T12:00	15781	112	-61.0	-83.6	258	2
2023-09-20T12:00	15807	111	-61.0	-83.6	245	2
2023-09-20T12:00	15828	111	-61.3	-83.8	239	2
2023-09-20T12:00	15849	110	-61.4	-84.1	238	2
2023-09-20T12:00	15870	110	-61.3	-84.2	241	2
2023-09-20T12:00	15895	110	-61.1	-84.2	246	2
2023-09-20T12:00	15915	109	-61.1	-84.4	251	2
2023-09-20T12:00	15938	109	-61.1	-84.6	253	2
2023-09-20T12:00	15960	108	-60.9	-84.7	251	2
2023-09-20T12:00	15985	108	-60.5	-84.4	242	2
2023-09-20T12:00	16019	107	-60.6	-84.5	227	2
2023-09-20T12:00	16045	107	-60.8	-84.6	219	2
2023-09-20T12:00	16073	106	-61.0	-84.8	218	3
2023-09-20T12:00	16097	106	-61.2	-84.9	220	5
2023-09-20T12:00	16117	106	-61.3	-85.0	223	6
2023-09-20T12:00	16143	105	-60.9	-84.7	226	8
2023-09-20T12:00	16163	105	-60.8	-84.6	229	9
2023-09-20T12:00	16185	105	-60.9	-84.7	232	9
2023-09-20T12:00	16217	104	-61.0	-84.5	236	10
2023-09-20T12:00	16244	104	-61.2	-84.7	240	11
2023-09-20T12:00	16276	103	-61.5	-84.9	244	11
2023-09-20T12:00	16297	103	-61.5	-84.9	247	12
2023-09-20T12:00	16322	102	-61.7	-85.1	249	12
2023-09-20T12:00	16340	102	-61.6	-85.0	251	13
2023-09-20T12:00	16362	102	-61.3	-84.8	253	13
2023-09-20T12:00	16384	101	-61.4	-85.1	255	13
2023-09-20T12:00	16406	101	-61.5	-85.4	258	13
2023-09-20T12:00	16427	101	-61.3	-85.2	261	13
2023-09-20T12:00	16449	100	-61.0	-85.2	263	13
2023-09-20T12:00	16472	100	-60.8	-85.3	264	13
2023-09-20T12:00	16494	99	-60.6	-85.4	264	12
2023-09-20T12:00	16518	99	-60.4	-85.5	263	11
2023-09-20T12:00	16548	99	-59.9	-85.1	262	10
2023-09-20T12:00	16572	98	-59.9	-85.4	260	10
2023-09-20T12:00	16595	98	-59.8	-85.3	258	9
2023-09-20T12:00	16617	98	-59.6	-85.2	257	9
2023-09-20T12:00	16640	97	-59.6	-85.2	255	8
2023-09-20T12:00	16667	97	-59.5	-85.1	253	8
2023-09-20T12:00	16689	96	-59.6	-85.2	250	7
2023-09-20T12:00	16710	96	-59.7	-85.3	248	7
2023-09-20T12:00	16737	96	-59.8	-85.3	244	7
2023-09-20T12:00	16760	95	-60.0	-85.5	241	6
2023-09-20T12:00	16792	95	-60.0	-85.5	236	7
2023-09-20T12:00	16819	94	-60.2	-85.7	232	7
2023-09-20T12:00	16843	94	-60.2	-85.7	229	7
2023-09-20T12:00	16868	94	-60.3	-85.7	227	8
2023-09-20T12:00	16895	93	-60.1	-85.9	227	9
2023-09-20T12:00	16920	93	-60.2	-85.9	229	9
2023-09-20T12:00	16941	93	-60.0	-86.1	231	9
2023-09-20T12:00	16967	92	-59.9	-86.0	233	10
2023-09-20T12:00	16991	92	-59.9	-86.0	235	10
2023-09-20T12:00	17014	92	-59.9	-86.0	237	10
2023-09-20T12:00	17039	91	-59.9	-86.3	239	10
2023-09-20T12:00	17067	91	-60.1	-86.5	240	9
2023-09-20T12:00	17089	90	-60.0	-86.4	242	9
2023-09-20T12:00	17111	90	-59.9	-86.3	244	9
2023-09-20T12:00	17137	90	-59.8	-86.3	247	8
2023-09-20T12:00	17160	89	-59.8	-86.3	250	8
2023-09-20T12:00	17186	89	-59.9	-86.3	253	8
2023-09-20T12:00	17208	89	-60.0	-86.4	256	8
2023-09-20T12:00	17233	88	-60.0	-86.1	259	8
2023-09-20T12:00	17258	88	-60.2	-86.3	261	8
2023-09-20T12:00	17283	88	-60.3	-86.3	261	8
2023-09-20T12:00	17307	87	-60.3	-86.3	260	8
2023-09-20T12:00	17329	87	-60.0	-86.1	258	8
2023-09-20T12:00	17355	87	-59.9	-86.0	254	8
2023-09-20T12:00	17380	86	-59.8	-86.3	251	8
2023-09-20T12:00	17405	86	-59.9	-86.3	247	9
2023-09-20T12:00	17431	86	-59.9	-86.3	245	9
2023-09-20T12:00	17458	85	-59.7	-86.2	244	10
2023-09-20T12:00	17485	85	-59.6	-86.1	244	10
2023-09-20T12:00	17511	85	-59.7	-86.2	245	11
2023-09-20T12:00	17536	84	-59.8	-86.3	247	11
2023-09-20T12:00	17562	84	-59.8	-86.3	248	11
2023-09-20T12:00	17588	83	-60.0	-86.4	249	11
2023-09-20T12:00	17613	83	-60.2	-86.3	250	11
2023-09-20T12:00	17640	83	-60.2	-86.3	250	10
2023-09-20T12:00	17665	82	-60.3	-86.3	250	10
2023-09-20T12:00	17692	82	-60.5	-86.5	251	10
2023-09-20T12:00	17718	82	-60.7	-86.6	254	10
2023-09-20T12:00	17743	81	-60.8		257	10
2023-09-20T12:00	17769	81	-60.7	-86.6	260	10
2023-09-20T12:00	17791	81	-60.5	-86.8	262	10
2023-09-20T12:00	17816	80	-60.4	-86.7	262	10
2023-09-20T12:00	17840	80	-60.2	-86.6	261	10
2023-09-20T12:00	17865	80	-60.2	-86.6	258	10
2023-09-20T12:00	17891	80	-59.9	-86.7	255	9
2023-09-20T12:00	17913	79	-59.6	-86.5	251	9
2023-09-20T12:00	17937	79	-59.6	-86.5	248	9
2023-09-20T12:00	17964	79	-59.8	-86.6	244	9
2023-09-20T12:00	17990	78	-59.7	-86.5	241	9
2023-09-20T12:00	18013	78	-59.7	-86.5	238	9
2023-09-20T12:00	18037	78	-59.8	-86.6	235	9
2023-09-20T12:00	18065	77	-59.8	-86.6	233	9
2023-09-20T12:00	18087	77	-59.7	-86.5	233	9
2023-09-20T12:00	18112	77	-59.6	-86.5	232	9
2023-09-20T12:00	18136	76	-59.6	-86.5	232	10
2023-09-20T12:00	18163	76	-59.6	-86.5	231	10
2023-09-20T12:00	18186	76	-59.6	-86.5	229	11
2023-09-20T12:00	18214	76	-59.6	-86.5	228	11
2023-09-20T12:00	18237	75	-59.5	-86.8	226	12
2023-09-20T12:00	18259	75	-59.1	-86.5	225	13
2023-09-20T12:00	18283	75	-58.9	-86.3	224	14
2023-09-20T12:00	18309	74	-58.7	-86.5	223	14
2023-09-20T12:00	18335	74	-58.8	-86.6	223	15
2023-09-20T12:00	18356	74	-58.8	-86.6	223	16
2023-09-20T12:00	18379	74	-58.6	-86.9	223	16
2023-09-20T12:00	18403	73	-58.0	-86.4	223	17
2023-09-20T12:00	18427	73	-57.4	-86.0	224	17
2023-09-20T12:00	18453	73	-57.3	-85.9	225	18
2023-09-20T12:00	18476	72	-57.4	-86.0	225	19
2023-09-20T12:00	18502	72	-57.4	-86.0	226	19
2023-09-20T12:00	18527	72	-57.6	-86.1	227	19
2023-09-20T12:00	18552	72	-57.7	-86.2	227	19
2023-09-20T12:00	18576	71	-57.5	-86.1	228	19
2023-09-20T12:00	18602	71	-57.4	-86.0	230	19
2023-09-20T12:00	18626	71	-57.5	-86.1	231	19
2023-09-20T12:00	18651	70	-57.5	-86.1	233	18
2023-09-20T12:00	18675	70	-57.5	-86.1	235	18
2023-09-20T12:00	18701	70	-57.7	-86.2	238	18
2023-09-20T12:00	18725	70	-57.9	-86.4	240	18
2023-09-20T12:00	18750	69	-57.6	-86.1	243	18
2023-09-20T12:00	18773	69	-57.5	-86.1	245	18
2023-09-20T12:00	18797	69	-57.6	-86.1	248	18
2023-09-20T12:00	18823	69	-57.3	-86.4	250	18
2023-09-20T12:00	18849	68	-57.2	-86.3	252	17
2023-09-20T12:00	18872	68	-57.1	-86.2	254	17
2023-09-20T12:00	18898	68	-57.1	-86.2	255	16
2023-09-20T12:00	18922	68	-57.1	-86.2	257	16
2023-09-20T12:00	18947	67	-57.0	-86.1	259	15
2023-09-20T12:00	18970	67	-57.0	-86.1	260	15
2023-09-20T12:00	18993	67	-57.0	-86.1	261	15
2023-09-20T12:00	19017	67	-56.9	-86.1	262	14
2023-09-20T12:00	19040	66	-56.6	-85.8	262	14
2023-09-20T12:00	19064	66	-56.3	-86.1	262	14
2023-09-20T12:00	19088	66	-56.0	-85.9	262	14
2023-09-20T12:00	19112	66	-55.7	-85.7	263	13
2023-09-20T12:00	19137	65	-55.4	-85.4	263	13
2023-09-20T12:00	19160	65	-55.3	-85.4	263	13
2023-09-20T12:00	19180	65	-55.2	-85.3	262	12
2023-09-20T12:00	19202	65	-55.0	-85.1	261	12
2023-09-20T12:00	19228	64	-54.9	-85.1	259	11
2023-09-20T12:00	19252	64	-55.0	-85.1	256	11
2023-09-20T12:00	19275	64	-55.0	-85.1	252	11
2023-09-20T12:00	19301	64	-54.9	-85.6	248	10
2023-09-20T12:00	19326	63	-54.8	-85.0	245	10
2023-09-20T12:00	19347	63	-54.8	-85.0	242	10
2023-09-20T12:00	19371	63	-54.8	-85.0	240	10
2023-09-20T12:00	19397	63	-54.6	-84.8	238	10
2023-09-20T12:00	19422	62	-54.5	-84.8	238	10
2023-09-20T12:00	19443	62	-54.7	-84.9	237	10
2023-09-20T12:00	19468	62	-54.8	-85.0	238	9
2023-09-20T12:00	19495	62	-55.0	-85.1	238	9
2023-09-20T12:00	19519	61	-55.3	-85.4	238	9
2023-09-20T12:00	19543	61	-55.5	-85.5	239	9
2023-09-20T12:00	19569	61	-55.7	-85.2	240	9
2023-09-20T12:00	19593	61	-55.8	-85.2	240	9
2023-09-20T12:00	19621	61	-56.0		241	9
2023-09-20T12:00	19646	60	-56.1	-85.5	241	9
2023-09-20T12:00	19667	60	-56.2	-85.5	240	9
2023-09-20T12:00	19693	60	-56.3	-85.6	238	9
2023-09-20T12:00	19718	60	-56.4	-85.7	236	10
2023-09-20T12:00	19743	59	-56.6	-85.8	234	10
2023-09-20T12:00	19771	59	-57.0	-85.7	232	10
2023-09-20T12:00	19796	59	-57.1	-85.7	231	11
2023-09-20T12:00	19823	59	-57.1	-85.7	231	11
2023-09-20T12:00	19846	58	-57.3	-85.9	232	12
2023-09-20T12:00	19871	58	-57.6	-86.1	234	12
2023-09-20T12:00	19894	58	-57.7	-86.2	236	12
2023-09-20T12:00	19926	58	-57.7	-86.2	239	12
2023-09-20T12:00	19953	57	-57.8	-86.3	242	12
2023-09-20T12:00	19975	57	-57.9	-86.4	245	11
2023-09-20T12:00	20002	57	-57.9	-86.8	248	11
2023-09-20T12:00	20028	57	-57.6	-86.6	250	11
2023-09-20T12:00	20057	56	-57.5	-86.5	251	11
2023-09-20T12:00	20078	56	-57.5	-86.5	251	11
2023-09-20T12:00	20104	56	-57.4	-86.4	250	10
2023-09-20T12:00	20133	56	-57.4	-86.4	249	10
2023-09-20T12:00	20162	56	-57.5	-86.5	248	10
2023-09-20T12:00	20188	55	-57.7	-86.7	246	10
2023-09-20T12:00	20211	55	-57.7	-86.7	245	10
2023-09-20T12:00	20237	55	-57.9	-86.8	245	11
2023-09-20T12:00	20268	55	-57.9	-86.8	246	11
2023-09-20T12:00	20293	54	-57.6	-86.6	247	11
2023-09-20T12:00	20315	54	-57.4	-86.4	248	11
2023-09-20T12:00	20339	54	-57.2	-86.8	249	11
2023-09-20T12:00	20367	54	-57.1	-86.7	250	11
2023-09-20T12:00	20391	54	-57.0	-86.6	250	10
2023-09-20T12:00	20418	53	-56.8	-86.5	250	10
2023-09-20T12:00	20448	53	-56.8	-86.5	251	10
2023-09-20T12:00	20473	53	-56.7	-86.4	251	10
2023-09-20T12:00	20492	53	-56.6	-86.3	251	10
2023-09-20T12:00	20519	52	-56.7	-86.4	250	10
2023-09-20T12:00	20549	52	-56.6	-86.3	248	10
2023-09-20T12:00	20575	52	-56.1	-86.5	247	10
2023-09-20T12:00	20600	52	-56.0	-86.4	246	11
2023-09-20T12:00	20619	52	-55.9	-86.3	246	11
2023-09-20T12:00	20648	51	-55.7	-86.2	246	11
2023-09-20T12:00	20672	51	-55.8	-85.7	245	11
2023-09-20T12:00	20700	51	-56.1	-86.0	245	12
2023-09-20T12:00	20726	51	-56.3	-86.1	245	12
2023-09-20T12:00	20748	51	-56.4	-86.2	244	12
2023-09-20T12:00	20774	50	-56.7	-85.9	244	12
2023-09-20T12:00	20800	50	-56.8	-86.0	245	12
2023-09-20T12:00	20825	50	-57.0	-86.1	245	12
2023-09-20T12:00	20853	50	-57.3	-86.4	247	12
2023-09-20T12:00	20876	50	-57.6	-86.6	249	12
2023-09-20T12:00	20900	49	-57.8	-86.7	251	12
2023-09-20T12:00	20922	49	-58.0	-86.9	253	12
2023-09-20T12:00	20948	49	-58.0	-86.9	254	11
2023-09-20T12:00	20975	49	-57.6	-86.6	254	11
2023-09-20T12:00	21000	49	-57.4	-86.4	253	10
2023-09-20T12:00	21023	48	-57.5	-86.5	252	10
2023-09-20T12:00	21051	48	-57.6	-86.6	250	9
2023-09-20T12:00	21074	48	-57.8	-86.7	249	9
2023-09-20T12:00	21103	48	-57.9	-86.8	247	8
2023-09-20T12:00	21127	48	-58.1	-86.5	246	8
2023-09-20T12:00	21158	47	-58.2	-86.6	246	8
2023-09-20T12:00	21180	47	-58.4	-86.7	245	8
2023-09-20T12:00	21207	47	-58.5	-86.8	245	8
2023-09-20T12:00	21233	47	-58.6	-86.9	247	8
2023-09-20T12:00	21258	47	-58.6	-86.9	248	9
2023-09-20T12:00	21283	47	-58.5	-86.8	250	9
2023-09-20T12:00	21311	46	-58.6	-86.9	251	9
2023-09-20T12:00	21334	46	-58.6	-87.3	252	9
2023-09-20T12:00	21364	46	-58.6	-87.3	253	9
2023-09-20T12:00	21390	46	-58.5	-87.3	253	8
2023-09-20T12:00	21417	46	-58.3	-87.1	252	8
2023-09-20T12:00	21445	45	-58.3	-87.1	250	8
2023-09-20T12:00	21468	45	-58.2	-87.0	247	8
2023-09-20T12:00	21494	45	-57.9	-86.8	244	8
2023-09-20T12:00	21523	45	-57.8	-86.7	242	8
2023-09-20T12:00	21546	45	-57.9	-86.8	241	8
2023-09-20T12:00	21575	44	-58.0	-86.9	240	9
2023-09-20T12:00	21602	44	-58.2	-87.0	239	9
2023-09-20T12:00	21625	44	-58.3	-87.1	239	8
2023-09-20T12:00	21657	44	-58.1	-87.0	239	8
2023-09-20T12:00	21681	44	-58.0	-86.9	238	8
2023-09-20T12:00	21706	43	-57.9	-86.8	237	8
2023-09-20T12:00	21734	43	-57.9	-86.8	235	8
2023-09-20T12:00	21759	43	-58.0	-86.9	233	9
2023-09-20T12:00	21782	43	-58.1	-87.0	232	9
2023-09-20T12:00	21815	43	-58.2	-87.5	232	10
2023-09-20T12:00	21839	43	-58.0	-87.4	233	11
2023-09-20T12:00	21866	42	-57.7	-87.2	234	11
2023-09-20T12:00	21892	42	-57.2	-87.3	236	12
2023-09-20T12:00	21924	42	-56.9	-87.1	237	12
2023-09-20T12:00	21947	42	-56.9	-87.1	239	12
2023-09-20T12:00	21976	42	-57.0	-86.6	240	12
2023-09-20T12:00	22001	42	-57.2	-86.8	241	12
2023-09-20T12:00	22030	41	-57.4	-86.9	242	12
2023-09-20T12:00	22060	41	-57.6	-86.6	243	11
2023-09-20T12:00	22082	41	-57.7	-86.7	245	11
2023-09-20T12:00	22110	41	-57.7	-86.7	247	10
2023-09-20T12:00	22138	41	-57.8	-86.7	248	9
2023-09-20T12:00	22169	40	-57.9	-86.8	250	9
2023-09-20T12:00	22197	40	-58.0	-86.9	251	8
2023-09-20T12:00	22221	40	-58.0	-86.9	253	7
2023-09-20T12:00	22247	40	-58.0	-86.9	254	7
2023-09-20T12:00	22280	40	-58.1	-87.0	254	7
2023-09-20T12:00	22304	40	-58.0	-86.9	254	7
2023-09-20T12:00	22332	39	-58.0	-86.9	253	7
2023-09-20T12:00	22359	39	-58.1	-87.0	251	8
2023-09-20T12:00	22387	39	-58.3	-87.1	248	7
2023-09-20T12:00	22417	39	-58.3	-87.1	244	7
2023-09-20T12:00	22450	39	-58.2	-87.0	238	7
2023-09-20T12:00	22477	38	-58.0	-87.4	230	6
2023-09-20T12:00	22505	38	-58.0	-87.4	221	6
2023-09-20T12:00	22533	38	-58.1	-87.4	213	6
2023-09-20T12:00	22563	38	-58.3	-87.6	207	7
2023-09-20T12:00	22590	38	-58.2	-87.5	203	7
2023-09-20T12:00	22614	38	-58.1	-87.4	201	8
2023-09-20T12:00	22639	38	-57.9	-87.3	200	9
2023-09-20T12:00	22664	37	-57.3	-87.4	199	9
2023-09-20T12:00	22689	37	-56.8	-87.0	199	10
2023-09-20T12:00	22720	37	-56.7	-86.9	199	10
2023-09-20T12:00	22747	37	-56.6	-86.9	200	11
2023-09-20T12:00	22774	37	-56.6	-86.9	202	11
2023-09-20T12:00	22802	37	-56.6	-86.9	205	11
2023-09-20T12:00	22829	36	-56.8	-86.5	208	11
2023-09-20T12:00	22856	36	-57.1	-86.7	212	11
2023-09-20T12:00	22885	36	-57.2	-86.8	215	12
2023-09-20T12:00	22903	36	-57.3	-86.9	218	12
2023-09-20T12:00	22937	36	-57.3	-86.9	222	12
2023-09-20T12:00	22958	36	-57.2	-86.8	225	13
2023-09-20T12:00	22984	36	-57.3	-86.9	228	13
2023-09-20T12:00	23017	35	-57.4	-86.9	232	13
2023-09-20T12:00	23043	35	-57.3	-86.9	235	13
2023-09-20T12:00	23070	35	-57.2	-86.8	238	13
2023-09-20T12:00	23094	35	-57.2	-86.8	240	13
2023-09-20T12:00	23120	35	-57.2	-87.3	242	13
2023-09-20T12:00	23144	35	-57.1	-87.2	244	13
2023-09-20T12:00	23174	34	-57.2	-87.3	247	13
2023-09-20T12:00	23201	34	-57.1	-87.2	251	13
2023-09-20T12:00	23227	34	-56.9	-87.1	255	13
2023-09-20T12:00	23256	34	-56.9	-87.1	259	13
2023-09-20T12:00	23281	34	-56.8	-87.0	263	13
2023-09-20T12:00	23306	34	-56.7	-86.9	267	13
2023-09-20T12:00	23333	34	-56.6	-86.9	270	13
2023-09-20T12:00	23364	33	-56.6	-86.9	272	13
2023-09-20T12:00	23388	33	-56.6	-86.9	275	13
2023-09-20T12:00	23413	33	-56.6	-86.9	277	13
2023-09-20T12:00	23444	33	-56.6	-86.9	279	12
2023-09-20T12:00	23465	33	-56.6	-86.9	281	12
2023-09-20T12:00	23495	33	-56.5	-86.8	282	12
2023-09-20T12:00	23515	33	-56.6	-86.9	284	11
2023-09-20T12:00	23553	33	-56.8	-87.0	284	11
2023-09-20T12:00	23575	32	-56.9	-87.1	285	10
2023-09-20T12:00	23600	32	-56.7	-86.9	285	10
2023-09-20T12:00	23624	32	-56.5	-86.8	284	9
2023-09-20T12:00	23649	32	-56.4		283	9
2023-09-20T12:00	23679	32	-56.4		280	8
2023-09-20T12:00	23712	32	-56.4		276	8
2023-09-20T12:00	23727	32	-56.3	-86.6	270	7
2023-09-20T12:00	23757	31	-56.2	-86.6	263	6
2023-09-20T12:00	23781	31	-56.3	-86.6	256	6
2023-09-20T12:00	23808	31	-56.4		250	6
2023-09-20T12:00	23834	31	-56.4		246	5
2023-09-20T12:00	23864	31	-56.5	-86.8	243	5
2023-09-20T12:00	23891	31	-56.4		241	5
2023-09-20T12:00	23916	31	-56.4		237	4
2023-09-20T12:00	23944	31	-56.5	-86.8	231	4
2023-09-20T12:00	23975	30	-56.7	-86.9	223	4
2023-09-20T12:00	24001	30	-56.7	-86.9	216	4
2023-09-20T12:00	24026	30	-56.6	-86.9	212	4
2023-09-20T12:00	24052	30	-56.5	-86.8	212	4
2023-09-20T12:00	24087	30	-56.4		214	4
2023-09-20T12:00	24111	30	-56.5	-86.8	218	4
2023-09-20T12:00	24135	30	-56.7	-86.9	224	4
2023-09-20T12:00	24166	29	-56.8	-86.5	229	4
2023-09-20T12:00	24194	29	-56.9	-86.6	233	4
2023-09-20T12:00	24221	29	-57.0	-86.6	236	5
2023-09-20T12:00	24250	29	-56.9	-86.6	238	5
2023-09-20T12:00	24271	29	-57.0	-86.6	239	5
2023-09-20T12:00	24305	29	-57.2	-86.8	240	6
2023-09-20T12:00	24332	29	-57.5	-87.0	241	6
2023-09-20T12:00	24357	29	-57.7	-86.7	245	7
2023-09-20T12:00	24389	28	-57.8	-86.7	250	7
2023-09-20T12:00	24418	28	-58.0	-87.4	255	7
2023-09-20T12:00	24444	28	-58.0	-87.4	260	8
2023-09-20T12:00	24475	28	-57.9	-87.3	264	8
2023-09-20T12:00	24497	28	-57.5	-87.5	267	8
2023-09-20T12:00	24524	28	-57.0	-87.2	269	8
2023-09-20T12:00	24556	28	-56.8	-87.0	270	8
2023-09-20T12:00	24581	28	-57.0	-87.2	270	7
2023-09-20T12:00	24607	28	-57.2	-87.3	270	7
2023-09-20T12:00	24639	27	-57.3	-87.4	270	7
2023-09-20T12:00	24666	27	-57.3	-86.9	269	7
2023-09-20T12:00	24693	27	-57.2	-86.8	270	6
2023-09-20T12:00	24718	27	-57.4	-86.9	270	6
2023-09-20T12:00	24745	27	-57.7	-87.2	269	6
2023-09-20T12:00	24775	27	-57.9	-86.8	267	5
2023-09-20T12:00	24804	27	-58.0	-86.9	263	5
2023-09-20T12:00	24829	27	-58.2	-87.0	257	5
2023-09-20T12:00	24857	26	-58.3	-87.1	249	5
2023-09-20T12:00	24886	26	-58.3	-87.1	243	5
2023-09-20T12:00	24909	26	-58.3	-87.6	240	6
2023-09-20T12:00	24937	26	-58.3	-87.6	240	6
2023-09-20T12:00	24967	26	-58.3	-87.6	242	7
2023-09-20T12:00	24995	26	-58.1	-88.0	247	7
2023-09-20T12:00	25022	26	-57.6	-87.6	252	7
2023-09-20T12:00	25045	26	-57.1	-87.8	257	7
2023-09-20T12:00	25074	26	-57.0	-87.8	262	7
2023-09-20T12:00	25094	25	-56.8	-87.6	266	7
2023-09-20T12:00	25120	25	-56.5	-87.4	269	6
2023-09-20T12:00	25146	25	-56.3	-87.2	272	5
2023-09-20T12:00	25166	25	-56.4	-87.3	274	5
2023-09-20T12:00	25200	25	-56.5	-87.4	275	4
2023-09-20T12:00	25229	25	-56.3	-87.2	274	3
2023-09-20T12:00	25253	25	-56.1	-87.1	269	3
2023-09-20T12:00	25283	25	-55.8	-86.9	263	2
2023-09-20T12:00	25311	25	-55.5	-86.7	255	2
2023-09-20T12:00	25342	25	-55.4	-86.6	245	3
2023-09-20T12:00	25370	24	-55.3	-86.5	234	3
2023-09-20T12:00	25394	24	-55.1	-86.4	225	3
2023-09-20T12:00	25417	24	-55.0	-86.3	217	4
2023-09-20T12:00	25457	24	-55.0	-86.3	210	5
2023-09-20T12:00	25474	24	-55.0	-86.3	205	6
2023-09-20T12:00	25509	24	-55.1	-86.4	201	7
2023-09-20T12:00	25540	24	-55.2	-86.4	198	7
2023-09-20T12:00	25577	24	-55.4	-86.6	196	8
2023-09-20T12:00	25591	24	-55.5	-86.1	195	9
2023-09-20T12:00	25620	23	-55.5	-86.1	194	10
2023-09-20T12:00	25652	23	-55.7	-86.2	194	10
2023-09-20T12:00	25674	23	-55.9	-86.3	195	11
2023-09-20T12:00	25701	23	-55.9	-86.3	196	11
2023-09-20T12:00	25741	23	-56.1	-86.5	198	12
2023-09-20T12:00	25765	23	-56.1	-86.5	199	12
2023-09-20T12:00	25789	23	-56.1	-86.5	201	12
2023-09-20T12:00	25825	23	-56.3	-86.6	204	12
2023-09-20T12:00	25853	23	-56.4		207	12
2023-09-20T12:00	25879	23	-56.3	-86.6	211	12
2023-09-20T12:00	25907	22	-56.2	-86.6	215	12
2023-09-20T12:00	25943	22	-56.3	-86.6	220	12
2023-09-20T12:00	25969	22	-56.3	-86.6	224	11
2023-09-20T12:00	26003	22	-56.4		229	11
2023-09-20T12:00	26027	22	-56.5	-86.8	233	11
2023-09-20T12:00	26053	22	-56.6	-86.9	237	10
2023-09-20T12:00	26086	22	-56.4	-87.3	240	10
2023-09-20T12:00	26116	22	-56.2	-87.2	243	9
2023-09-20T12:00	26140	22	-55.9	-86.9	247	8
2023-09-20T12:00	26167	22	-55.9	-86.9	251	7
2023-09-20T12:00	26203	21	-55.9	-86.9	256	7
2023-09-20T12:00	26229	21	-55.9	-86.9	261	7
2023-09-20T12:00	26255	21	-55.8	-86.9	264	7
2023-09-20T12:00	26292	21	-55.6	-86.7	265	7
2023-09-20T12:00	26316	21	-55.3	-86.5	265	6
2023-09-20T12:00	26340	21	-55.1	-87.0	263	6
2023-09-20T12:00	26376	21	-55.0	-87.0	260	6
2023-09-20T12:00	26410	21	-55.0	-87.0	257	6
2023-09-20T12:00	26431	21	-54.9	-86.9	253	6
2023-09-20T12:00	26461	21	-54.9	-86.9	250	6
2023-09-20T12:00	26483	20	-54.9	-86.9	247	6
2023-09-20T12:00	26515	20	-54.7	-86.7	245	6
2023-09-20T12:00	26544	20	-54.3	-86.4	245	7
2023-09-20T12:00	26562	20	-54.0	-86.2	245	7
2023-09-20T12:00	26598	20	-54.2	-86.4	245	7
2023-09-20T12:00	26628	20	-54.2	-86.4	245	7
2023-09-20T12:00	26660	20	-54.1	-85.6	245	7
2023-09-20T12:00	26678	20	-54.1	-85.6	244	7
2023-09-20T12:00	26712	20	-54.2	-85.7	243	7
2023-09-20T12:00	26743	20	-54.2	-85.7	243	7
2023-09-20T12:00	26772	20	-54.1	-85.6	245	7
2023-09-20T12:00	26811	19	-54.0	-85.5	247	7
2023-09-20T12:00	26827	19	-54.0	-85.5	252	7
2023-09-20T12:00	26870	19	-54.0	-86.2	257	7
2023-09-20T12:00	26889	19	-53.9	-86.2	263	8
2023-09-20T12:00	26910	19	-53.7	-86.0	267	8
2023-09-20T12:00	26948	19	-53.5	-85.9	271	8
2023-09-20T12:00	26983	19	-53.4	-85.8	274	9
2023-09-20T12:00	27009	19	-53.4	-85.8	277	9
2023-09-20T12:00	27031	19	-53.4	-85.8	279	9
2023-09-20T12:00	27057	19	-53.4	-85.8	282	10
2023-09-20T12:00	27101	19	-53.4	-85.8	284	10
2023-09-20T12:00	27120	19	-53.5	-85.9	287	10
2023-09-20T12:00	27156	18	-53.4	-85.8	289	10
2023-09-20T12:00	27170	18	-53.3	-85.7	291	9
2023-09-20T12:00	27212	18	-53.3	-85.7	294	9
2023-09-20T12:00	27238	18	-53.5	-85.9	297	8
2023-09-20T12:00	27263	18	-53.5	-85.9	299	8
2023-09-20T12:00	27299	18	-53.6		301	8
2023-09-20T12:00	27330	18	-53.6		301	7
2023-09-20T12:00	27345	18	-53.5	-85.9	301	7
2023-09-20T12:00	27379	18	-53.4	-85.8	301	7
2023-09-20T12:00	27404	18	-53.3	-85.7	302	7
2023-09-20T12:00	27435	18	-53.1	-85.6	304	7
2023-09-20T12:00	27458	18	-52.8	-86.1	306	7
2023-09-20T12:00	27493	18	-52.5	-85.9	308	7
2023-09-20T12:00	27514	17	-52.3	-85.8	310	6
2023-09-20T12:00	27543	17	-52.0	-85.5	310	6
2023-09-20T12:00	27575	17	-52.0	-85.5	311	6
2023-09-20T12:00	27612	17	-52.0	-85.5	311	5
2023-09-20T12:00	27629	17	-52.1	-85.6	312	5
2023-09-20T12:00	27657	17	-52.2	-84.9	314	5
2023-09-20T12:00	27688	17	-52.2	-84.9	316	5
2023-09-20T12:00	27715	17	-52.1	-84.8	319	5
2023-09-20T12:00	27743	17	-52.1	-84.8	321	5
2023-09-20T12:00	27771	17	-52.2	-84.9	322	5
2023-09-20T12:00	27806	17	-52.2	-84.9	322	5
2023-09-20T12:00	27828	17	-52.2	-84.9	318	4
2023-09-20T12:00	27862	17	-52.2	-84.9	312	4
2023-09-20T12:00	27890	16	-52.2	-84.9	304	4
2023-09-20T12:00	27921	16	-52.1	-85.6	297	5
2023-09-20T12:00	27939	16	-52.1	-85.6	293	6
2023-09-20T12:00	27972	16	-52.2	-85.7	290	6
2023-09-20T12:00	27990	16	-52.2	-85.7	290	7
2023-09-20T12:00	28025	16	-52.1	-85.6	290	8
2023-09-20T12:00	28053	16	-51.8	-85.4	290	8
2023-09-20T12:00	28081	16	-51.7	-85.3	290	9
2023-09-20T12:00	28121	16	-51.6	-85.2	290	9
2023-09-20T12:00	28142	16	-51.5	-85.2	289	9
2023-09-20T12:00	28159	16	-51.3	-85.0	289	9
2023-09-20T12:00	28201	16	-51.1	-84.9	289	9
2023-09-20T12:00	28228	16	-50.9	-85.6	289	9
2023-09-20T12:00	28251	16	-50.7	-85.5	290	9
2023-09-20T12:00	28273	16	-50.5	-85.3	290	9
2023-09-20T12:00	28303	15	-50.4	-85.3	291	9
2023-09-20T12:00	28336	15	-50.3	-85.2	292	9
2023-09-20T12:00	28353	15	-50.2	-85.1	293	9
2023-09-20T12:00	28387	15	-50.1	-85.1	294	9
2023-09-20T12:00	28411	15	-50.1	-85.1	294	8
2023-09-20T12:00	28443	15	-50.1	-85.1	292	8
2023-09-20T12:00	28469	15	-50.1	-85.1	291	7
2023-09-20T12:00	28487	15	-50.0	-85.0	290	7
2023-09-20T12:00	28528	15	-49.9	-84.0	289	6
2023-09-20T12:00	28556	15	-50.0	-84.1	289	6
2023-09-20T12:00	28577	15	-50.0	-84.1	289	6
2023-09-20T12:00	28621	15	-50.1	-84.2	286	7
2023-09-20T12:00	28630	15	-50.2	-84.2	282	7
2023-09-20T12:00	28657	15	-50.2	-84.2	276	7
2023-09-20T12:00	28686	15	-50.1	-85.1	271	7
2023-09-20T12:00	28709	15	-50.0	-85.0	268	8
2023-09-20T12:00	28748	14	-49.8	-84.8	266	8
2023-09-20T12:00	28772	14	-49.8	-84.8	266	8
2023-09-20T12:00	28791	14	-49.9	-84.9	266	8
2023-09-20T12:00	28824	14	-49.8	-84.8	268	8
2023-09-20T12:00	28856	14	-49.7	-84.8	271	7
2023-09-20T12:00	28872	14	-49.7	-84.8	274	7
2023-09-20T12:00	28904	14	-49.5	-84.6	275	7
2023-09-20T12:00	28934	14	-49.4	-84.6	275	7
2023-09-20T12:00	28966	14	-49.5	-84.6	272	7
2023-09-20T12:00	29001	14	-49.4	-84.6	268	7
2023-09-20T12:00	29021	14	-49.1	-84.3	263	8
2023-09-20T12:00	29056	14	-48.8	-84.1	260	8
2023-09-20T12:00	29079	14	-48.6		258	8
2023-09-20T12:00	29121	14	-48.5	-83.9	258	8
2023-09-20T12:00	29157	14	-48.5	-83.9	260	8
2023-09-20T12:00	29165	14	-48.5	-83.9	263	8
2023-09-20T12:00	29224	13	-48.6		267	8
2023-09-20T12:00	29241	13	-48.8	-84.1	271	9
2023-09-20T12:00	29277	13	-48.9	-84.2	275	9
2023-09-20T12:00	29316	13	-48.9	-84.2	278	9
2023-09-20T12:00	29345	13	-48.9	-84.2	278	9
2023-09-20T12:00	29387	13	-49.1	-84.3	276	9
2023-09-20T12:00	29406	13	-49.2	-84.4	272	9
2023-09-20T12:00	29435	13	-49.3	-84.5	266	8
2023-09-20T12:00	29471	13	-49.4	-84.6	259	8
2023-09-20T12:00	29500	13	-49.5	-84.6	253	8
2023-09-20T12:00	29545	13	-49.6	-84.7	250	8
2023-09-20T12:00	29579	13	-49.6	-84.7	250	9
2023-09-20T12:00	29609	13	-49.5	-84.6	251	9
2023-09-20T12:00	29643	13	-49.4	-84.6	253	10
2023-09-20T12:00	29676	13	-49.2	-84.4	255	10
2023-09-20T12:00	29695	12	-49.1	-84.3	258	11
2023-09-20T12:00	29731	12	-49.2	-84.4	260	11
2023-09-20T12:00	29782	12	-49.3	-84.5	261	11
2023-09-20T12:00	29814	12	-49.4	-84.6	261	11
2023-09-20T12:00	29834	12	-49.4	-84.6	261	11
2023-09-20T12:00	29881	12	-49.4	-84.6	259	11
2023-09-20T12:00	29908	12	-49.4	-84.6	257	11
2023-09-20T12:00	29931	12	-49.3	-84.5	256	12
2023-09-20T12:00	29965	12	-49.2	-84.4	255	12
2023-09-20T12:00	29988	12	-49.0	-84.3	255	12
2023-09-20T12:00	30022	12	-48.8	-84.1	255	12
2023-09-20T12:00	30057	12	-48.7	-84.1	256	12
2023-09-20T12:00	30075	12	-48.7	-84.1	257	11
2023-09-20T12:00	30112	12	-48.7	-84.1	257	11
2023-09-20T12:00	30145	12	-48.7	-84.1	258	11
2023-09-20T12:00	30162	12	-48.7	-84.1	257	11
2023-09-20T12:00	30192	12	-48.6		257	11
2023-09-20T12:00	30205	12	-48.6		256	11
2023-09-20T12:00	30249	11	-48.6		255	11
2023-09-20T12:00	30284	11	-48.7	-84.1	254	11
2023-09-20T12:00	30314	11	-48.9	-84.2	253	11
2023-09-20T12:00	30348	11	-48.9	-84.2	253	11
2023-09-20T12:00	30367	11	-48.8	-84.1	252	12
2023-09-20T12:00	30389	11	-48.7	-84.1	252	12
2023-09-20T12:00	30431	11	-48.7	-84.1	252	12
2023-09-20T12:00	30451	11	-48.7	-84.1	252	13
2023-09-20T12:00	30475	11	-48.8	-84.1	252	13
2023-09-20T12:00	30505	11	-48.9	-84.2	253	13
2023-09-20T12:00	30533	11	-49.0	-84.3	255	14
2023-09-20T12:00	30568	11	-48.9	-84.2	256	14
2023-09-20T12:00	30588	11	-48.8	-84.1	257	14
2023-09-20T12:00	30605	11	-48.7	-84.1	258	14
2023-09-20T12:00	30637	11	-48.8	-84.1	259	14
2023-09-20T12:00	30662	11	-48.8	-84.1	259	14
2023-09-20T12:00	30686	11	-48.7	-84.1	258	13
2023-09-20T12:00	30721	11	-48.6		256	12
2023-09-20T12:00	30745	11	-48.4	-84.9	253	12
2023-09-20T12:00	30777	11	-48.2	-84.8	250	12
2023-09-20T12:00	30787	11	-48.0	-84.6	246	12
2023-09-20T12:00	30845	11	-48.0	-84.6	244	12
2023-09-20T12:00	30856	10	-48.0	-84.6	242	12
2023-09-20T12:00	30877	10	-48.0	-84.6	241	13
2023-09-20T12:00	30910	10	-47.9	-84.6	241	13
2023-09-20T12:00	30933	10	-47.8	-84.5	240	14
2023-09-20T12:00	30968	10	-47.8	-84.5	240	14
2023-09-20T12:00	30989	10	-47.8	-84.5	240	14
2023-09-20T12:00	31020	10	-47.7	-84.4	240	14
2023-09-20T12:00	31042	10	-47.6	-84.3	240	14
2023-09-20T12:00	31074	10	-47.4	-84.2	240	13
2023-09-20T12:00	31103	10	-47.3	-84.1	241	13
2023-09-20T12:00	31135	10	-47.2	-84.1	244	13
2023-09-20T12:00	31163	10	-47.2	-84.1	246	14
2023-09-20T12:00	31199	10	-47.1	-84.0	248	14
2023-09-20T12:00	31231	10	-46.9	-83.9	249	14
2023-09-20T12:00	31245	10	-46.8	-83.8	248	14
2023-09-20T12:00	31274	10	-46.6	-83.6	248	14
2023-09-20T12:00	31299	10	-46.5	-83.6	248	14
2023-09-20T12:00	31323	10	-46.5	-83.6	248	14
2023-09-20T12:00	31344	10	-46.5	-83.6	250	14
2023-09-20T12:00	31373	10	-46.5	-83.6	252	14
2023-09-20T12:00	31426	10	-46.5	-83.6	255	15
2023-09-20T12:00	31441	10	-46.4	-83.5	258	15
2023-09-20T12:00	31482	10	-46.3	-83.4	260	16
2023-09-20T12:00	31499	10	-46.2	-83.4	262	17
2023-09-20T12:00	31542	9	-46.2	-83.4	264	17
2023-09-20T12:00	31582	9	-46.1	-83.3	265	17
2023-09-20T12:00	31597	9	-46.1	-83.3	267	17
2023-09-20T12:00	31608	9	-46.1	-83.3	269	17
2023-09-20T12:00	31658	9	-45.9	-83.2	270	17
2023-09-20T12:00	31691	9	-45.6	-82.9	271	17
2023-09-20T12:00	31723	9	-45.6	-82.9	271	17
2023-09-20T12:00	31751	9	-45.7	-83.0	272	17
2023-09-20T12:00	31794	9	-45.8	-83.1	272	17
2023-09-20T12:00	31817	9	-45.9	-83.2	272	16
2023-09-20T12:00	31835	9	-46.0	-83.2	272	16
2023-09-20T12:00	31880	9	-46.1	-83.3	272	15
2023-09-20T12:00	31917	9	-46.2	-83.4	272	15
2023-09-20T12:00	31944	9	-46.3	-83.4	272	15
2023-09-20T12:00	31985	9	-46.5	-83.6	271	14
2023-09-20T12:00	31993	9	-46.5	-83.6	271	14
2023-09-20T12:00	32031	9	-46.3	-83.4	270	15
2023-09-20T12:00	32059	9	-46.0	-83.2	270	15
2023-09-20T12:00	32085	9	-45.7	-83.0	269	15
2023-09-20T12:00	32121	9	-45.4	-82.8	269	16
2023-09-20T12:00	32144	9	-45.3	-82.7	268	16
2023-09-20T12:00	32184	9	-45.2	-82.7	268	17
2023-09-20T12:00	32206	9	-45.1	-82.6	267	18
2023-09-20T12:00	32250	9	-45.0	-82.5	266	18
2023-09-20T12:00	32265	8	-44.9	-82.5	265	19
2023-09-20T12:00	32291	8	-44.9	-82.5	264	19
2023-09-20T12:00	32308	8	-44.9	-82.5	262	20
2023-09-20T12:00	32362	8	-45.0	-82.5	261	20
2023-09-20T12:00	32379	8	-45.1	-82.6	260	20
2023-09-20T12:00	32411	8	-45.2	-82.7	259	20
2023-09-20T12:00	32426	8	-45.2	-82.7	259	20
2023-09-20T12:00	32463	8	-45.1	-82.6	260	20
2023-09-20T12:00	32491	8	-44.8	-82.4	261	20
2023-09-20T12:00	32511	8	-44.5	-82.2	261	19
2023-09-20T18:00	117	996	22.7	12.2	203	3
2023-09-20T18:00	147	993	23.3	11.4	197	4
2023-09-20T18:00	167	990	23.3	11.2	196	5
2023-09-20T18:00	194	987	23.1	11.2	196	6
2023-09-20T18:00	221	984	22.9	11.2	198	7
2023-09-20T18:00	250	981	22.6	11.1	200	7
2023-09-20T18:00	271	979	22.4	11.0	203	8
2023-09-20T18:00	299	976	22.3	10.8	205	8
2023-09-20T18:00	328	973	22.1	10.8	207	8
2023-09-20T18:00	351	970	21.9	10.8	209	8
2023-09-20T18:00	373	967	21.7	10.7	210	8
2023-09-20T18:00	397	964	21.5	10.7	211	8
2023-09-20T18:00	423	962	21.3		211	8
2023-09-20T18:00	451	959	21.1	10.7	209	8
2023-09-20T18:00	478	956	20.9	10.7	207	8
2023-09-20T18:00	501	953	20.7	10.6	204	8
2023-09-20T18:00	521	951	20.5	10.6	203	8
2023-09-20T18:00	540	949	20.3	10.5	202	8
2023-09-20T18:00	565	946	20.1	10.5	203	8
2023-09-20T18:00	591	943	19.9	10.4	203	8
2023-09-20T18:00	614	941	19.6	10.2	203	8
2023-09-20T18:00	637	938	19.5	10.2	202	8
2023-09-20T18:00	664	935	19.2	10.0	201	8
2023-09-20T18:00	689	933	19.0	10.1	200	8
2023-09-20T18:00	715	930	18.7	10.0	200	8
2023-09-20T18:00	737	927	18.5	10.1	200	8
2023-09-20T18:00	762	925	18.3	10.0	201	8
2023-09-20T18:00	784	922	18.1	9.9	203	8
2023-09-20T18:00	808	920	17.9		204	8
2023-09-20T18:00	831	917	17.7	9.7	205	8
2023-09-20T18:00	855	915	17.4	9.6	205	8
2023-09-20T18:00	878	912	17.2	9.7	205	8
2023-09-20T18:00	902	910	17.0	9.6	204	8
2023-09-20T18:00	929	907	16.7	9.4	203	8
2023-09-20T18:00	955	904	16.5	9.1	203	8
2023-09-20T18:00	974	902	16.3	9.1	203	8
2023-09-20T18:00	991	900	16.2	8.9	203	8
2023-09-20T18:00	1014	898	16.0	8.8	203	9
2023-09-20T18:00	1037	895	15.7	8.5	203	9
2023-09-20T18:00	1060	893	15.6	8.7	202	9
2023-09-20T18:00	1085	890	15.3	8.5	202	9
2023-09-20T18:00	1114	887	15.0	8.4	201	9
2023-09-20T18:00	1141	885	14.8	8.5	201	8
2023-09-20T18:00	1165	882	14.6	8.5	201	8
2023-09-20T18:00	1191	879	14.3	8.6	202	9
2023-09-20T18:00	1216	877	14.0	8.7	203	9
2023-09-20T18:00	1241	874	13.8	8.6	205	9
2023-09-20T18:00	1262	872	13.7	8.0	207	9
2023-09-20T18:00	1286	869	13.5	7.5	208	9
2023-09-20T18:00	1314	867	13.3	7.2	210	9
2023-09-20T18:00	1338	864	13.1		211	9
2023-09-20T18:00	1362	862	13.0	6.7	213	9
2023-09-20T18:00	1385	859	12.7	6.6	215	9
2023-09-20T18:00	1412	857	12.5	6.0	216	9
2023-09-20T18:00	1437	854	12.5	5.2	217	9
2023-09-20T18:00	1468	851	12.3	4.5	218	9
2023-09-20T18:00	1494	848	12.2	4.5	217	9
2023-09-20T18:00	1524	845	12.0	5.4	217	9
2023-09-20T18:00	1551	842	11.8	6.2	216	9
2023-09-20T18:00	1576	840	11.6	6.3	216	9
2023-09-20T18:00	1603	837	11.5	6.5	215	10
2023-09-20T18:00	1626	835	11.4	6.6	215	10
2023-09-20T18:00	1649	833	11.3	6.4	214	10
2023-09-20T18:00	1675	830	11.1	6.6	213	10
2023-09-20T18:00	1699	828	11.0	5.5	213	10
2023-09-20T18:00	1726	825	11.0	5.8	214	10
2023-09-20T18:00	1752	822	10.9	5.7	216	9
2023-09-20T18:00	1780	820	11.0	5.2	219	9
2023-09-20T18:00	1804	817	11.2	3.9	222	9
2023-09-20T18:00	1827	815	11.2	3.5	224	10
2023-09-20T18:00	1849	813	11.2	3.3	225	10
2023-09-20T18:00	1872	811	11.2	3.0	224	10
2023-09-20T18:00	1894	808	11.1	2.8	223	10
2023-09-20T18:00	1921	806	10.9	2.5	222	10
2023-09-20T18:00	1951	803	10.8	2.4	220	11
2023-09-20T18:00	1975	801	10.6	2.3	218	11
2023-09-20T18:00	1996	799	10.4	2.2	216	11
2023-09-20T18:00	2019	797	10.2	2.1	214	12
2023-09-20T18:00	2046	794	9.9	2.1	211	12
2023-09-20T18:00	2078	791	9.8	1.7	207	12
2023-09-20T18:00	2105	788	9.7	1.5	204	11
2023-09-20T18:00	2131	786	9.6	1.2	201	11
2023-09-20T18:00	2155	784	9.5	0.7	200	11
2023-09-20T18:00	2180	781	9.5	0.9	199	11
2023-09-20T18:00	2203	779	9.3	1.1	198	11
2023-09-20T18:00	2231	776	9.1	1.0	197	11
2023-09-20T18:00	2255	774	8.9	1.1	195	10
2023-09-20T18:00	2281	772	8.7	0.9	192	10
2023-09-20T18:00	2306	769	8.5	0.9	190	9
2023-09-20T18:00	2337	767	8.4	0.6	188	9
2023-09-20T18:00	2361	764	8.2	0.6	187	8
2023-09-20T18:00	2385	762	8.2	0.1	188	8
2023-09-20T18:00	2412	760	8.1	-1.2	190	7
2023-09-20T18:00	2440	757	8.1	-1.0	193	7
2023-09-20T18:00	2466	755	8.0	-2.7	197	7
2023-09-20T18:00	2494	752	8.0	-4.3	199	8
2023-09-20T18:00	2519	750	7.8	-5.1	200	8
2023-09-20T18:00	2542	748	7.9	-6.8	199	8
2023-09-20T18:00	2568	745	7.9	-5.8	197	8
2023-09-20T18:00	2594	743	7.8	-5.8	193	7
2023-09-20T18:00	2619	741	7.7	-5.4	191	7
2023-09-20T18:00	2647	738	7.5	-5.1	190	7
2023-09-20T18:00	2672	736	7.3	-4.4	192	7
2023-09-20T18:00	2695	734	7.2	-4.1	195	7
2023-09-20T18:00	2716	732	7.0	-4.2	198	7
2023-09-20T18:00	2736	730	6.8	-4.1	199	7
2023-09-20T18:00	2769	728	6.6	-3.3	197	7
2023-09-20T18:00	2794	725	6.4	-3.0	194	7
2023-09-20T18:00	2821	723	6.2	-2.8	190	7
2023-09-20T18:00	2853	720	6.1	-3.8	188	7
2023-09-20T18:00	2882	718	6.2	-6.8	187	8
2023-09-20T18:00	2905	715	6.1	-6.9	188	8
2023-09-20T18:00	2929	713	5.9	-6.8	190	8
2023-09-20T18:00	2953	711	5.7	-6.3	192	8
2023-09-20T18:00	2979	709	5.6	-7.8	192	8
2023-09-20T18:00	3005	707	5.5	-8.3	193	8
2023-09-20T18:00	3030	705	5.4	-8.5	193	9
2023-09-20T18:00	3058	702	5.2	-8.6	194	9
2023-09-20T18:00	3083	700	5.2	-7.9	196	9
2023-09-20T18:00	3106	698	5.0	-7.8	199	8
2023-09-20T18:00	3127	696	4.9	-7.8	202	8
2023-09-20T18:00	3149	694	4.7	-8.5	204	8
2023-09-20T18:00	3174	692	4.6		203	8
2023-09-20T18:00	3197	690	4.5	-9.0	202	9
2023-09-20T18:00	3221	688	4.3	-9.4	201	9
2023-09-20T18:00	3245	686	4.2	-10.0	200	9
2023-09-20T18:00	3269	684	4.0	-10.7	199	10
2023-09-20T18:00	3292	682	3.9	-11.4	198	10
2023-09-20T18:00	3315	680	3.7	-11.8	196	10
2023-09-20T18:00	3346	678	3.6	-12.5	192	9
2023-09-20T18:00	3378	675	3.4	-12.7	187	9
2023-09-20T18:00	3400	673	3.2	-12.6	180	8
2023-09-20T18:00	3428	671	3.0	-13.1	173	8
2023-09-20T18:00	3454	669	3.0	-13.2	167	8
2023-09-20T18:00	3475	667	3.2	-10.6	164	8
2023-09-20T18:00	3493	665	3.1	-9.7	165	8
2023-09-20T18:00	3517	664	2.9	-9.4	169	8
2023-09-20T18:00	3545	661	2.6	-9.6	174	8
2023-09-20T18:00	3565	660	2.4	-9.5	178	8
2023-09-20T18:00	3593	657	2.2	-9.8	181	9
2023-09-20T18:00	3623	655	2.1	-10.0	182	9
2023-09-20T18:00	3647	653	1.9	-10.1	185	9
2023-09-20T18:00	3674	651	1.7	-10.2	188	9
2023-09-20T18:00	3700	649	1.5	-10.2	192	10
2023-09-20T18:00	3723	647	1.4	-10.3	195	10
2023-09-20T18:00	3744	645	1.3	-10.3	197	10
2023-09-20T18:00	3771	643	1.1	-10.4	198	11
2023-09-20T18:00	3792	641	0.9	-10.8	198	10
2023-09-20T18:00	3809	640	0.9	-11.4	197	10
2023-09-20T18:00	3829	638	0.8	-11.5	196	10
2023-09-20T18:00	3853	637	0.7		195	9
2023-09-20T18:00	3873	635	0.5	-11.6	195	9
2023-09-20T18:00	3899	633	0.3	-11.6	195	9
2023-09-20T18:00	3929	630	0.1	-11.7	195	9
2023-09-20T18:00	3957	628	-0.1	-11.7	195	9
2023-09-20T18:00	3984	626	-0.3	-12.0	195	9
2023-09-20T18:00	4009	624	-0.5	-12.1	196	9
2023-09-20T18:00	4039	622	-0.7	-12.2	196	9
2023-09-20T18:00	4063	620	-0.9	-11.9	196	9
2023-09-20T18:00	4082	619	-1.0	-11.9	196	9
2023-09-20T18:00	4104	617	-1.1	-12.7	196	9
2023-09-20T18:00	4129	615	-1.3	-12.7	196	10
2023-09-20T18:00	4159	613	-1.6	-13.0	197	10
2023-09-20T18:00	4184	611	-1.8	-13.0	197	10
2023-09-20T18:00	4205	609	-2.0	-13.0	198	10
2023-09-20T18:00	4231	607	-2.2	-13.0	198	10
2023-09-20T18:00	4253	605	-2.4	-13.0	197	10
2023-09-20T18:00	4276	604	-2.6	-13.3	197	10
2023-09-20T18:00	4304	602	-2.8	-13.6	196	10
2023-09-20T18:00	4332	599	-3.0	-13.8	196	10
2023-09-20T18:00	4366	597	-3.3	-14.0	197	10
2023-09-20T18:00	4391	595	-3.5	-14.3	197	11
2023-09-20T18:00	4418	593	-3.6	-14.4	197	11
2023-09-20T18:00	4442	591	-3.9	-14.5	197	11
2023-09-20T18:00	4466	589	-4.1	-14.5	198	12
2023-09-20T18:00	4489	588	-4.3	-14.6	200	12
2023-09-20T18:00	4519	585	-4.5	-14.9	202	11
2023-09-20T18:00	4544	584	-4.6	-15.1	205	11
2023-09-20T18:00	4567	582	-4.8	-15.2	209	11
2023-09-20T18:00	4595	580	-5.0	-15.3	211	11
2023-09-20T18:00	4617	578	-5.1	-15.2	212	11
2023-09-20T18:00	4642	576	-5.3	-15.1	212	10
2023-09-20T18:00	4670	574	-5.4	-15.0	211	10
2023-09-20T18:00	4695	572	-5.5	-14.7	211	10
2023-09-20T18:00	4720	571	-5.6	-14.9	211	11
2023-09-20T18:00	4738	569	-5.7	-15.3	211	11
2023-09-20T18:00	4764	567	-5.8	-16.0	211	11
2023-09-20T18:00	4785	566	-5.9	-16.4	210	11
2023-09-20T18:00	4805	564	-6.0	-16.2	210	10
2023-09-20T18:00	4831	563	-6.2	-16.2	209	10
2023-09-20T18:00	4853	561	-6.4	-16.4	208	10
2023-09-20T18:00	4873	559	-6.6	-16.4	208	9
2023-09-20T18:00	4904	557	-6.9	-16.6	207	9
2023-09-20T18:00	4930	555	-7.1	-16.8	205	9
2023-09-20T18:00	4956	554	-7.3	-16.8	204	8
2023-09-20T18:00	4980	552	-7.5	-17.0	203	8
2023-09-20T18:00	5001	550	-7.7	-17.3	203	8
2023-09-20T18:00	5023	549	-7.8	-17.3	204	8
2023-09-20T18:00	5046	547	-7.9	-17.2	205	9
2023-09-20T18:00	5077	545	-8.2	-17.4	206	9
2023-09-20T18:00	5101	543	-8.3	-17.6	206	9
2023-09-20T18:00	5123	542	-8.5	-18.5	205	9
2023-09-20T18:00	5142	540	-8.6	-19.0	205	9
2023-09-20T18:00	5163	539	-8.6	-19.5	204	9
2023-09-20T18:00	5185	538	-8.8	-19.7	204	9
2023-09-20T18:00	5206	536	-8.9	-19.9	204	9
2023-09-20T18:00	5228	535	-9.1	-19.9	204	9
2023-09-20T18:00	5252	533	-9.3	-19.5	205	9
2023-09-20T18:00	5276	531	-9.5	-19.6	206	9
2023-09-20T18:00	5307	529	-9.8	-19.8	206	9
2023-09-20T18:00	5341	527	-10.1	-19.8	207	9
2023-09-20T18:00	5368	525	-10.4	-20.0	207	8
2023-09-20T18:00	5399	523	-10.6	-19.7	208	8
2023-09-20T18:00	5416	522	-10.8	-19.9	208	8
2023-09-20T18:00	5437	520	-11.0	-20.2	208	7
2023-09-20T18:00	5457	519	-11.2	-20.0	208	7
2023-09-20T18:00	5478	517	-11.4	-19.9	209	7
2023-09-20T18:00	5500	516	-11.5	-20.1	211	7
2023-09-20T18:00	5522	515	-11.5	-20.9	213	7
2023-09-20T18:00	5542	513	-11.5	-19.1	215	8
2023-09-20T18:00	5571	511	-11.4	-20.6	216	8
2023-09-20T18:00	5600	509	-11.5	-21.8	217	8
2023-09-20T18:00	5620	508	-11.6	-21.7	217	9
2023-09-20T18:00	5639	507	-11.7	-22.0	217	9
2023-09-20T18:00	5663	505	-11.9	-21.9	218	9
2023-09-20T18:00	5685	504	-12.1	-22.4	218	9
2023-09-20T18:00	5715	502	-12.3	-22.7	217	9
2023-09-20T18:00	5736	500	-12.5	-22.8	216	9
2023-09-20T18:00	5765	499	-12.7	-23.3	215	9
2023-09-20T18:00	5791	497	-12.9	-23.5	213	9
2023-09-20T18:00	5816	495	-13.1	-23.7	212	10
2023-09-20T18:00	5842	493	-13.4	-24.0	211	10
2023-09-20T18:00	5864	492	-13.6	-24.1	211	10
2023-09-20T18:00	5884	491	-13.8	-24.3	211	10
2023-09-20T18:00	5902	489	-13.9	-25.2	211	9
2023-09-20T18:00	5923	488	-14.0	-25.4	212	9
2023-09-20T18:00	5942	487	-14.1	-26.0	212	9
2023-09-20T18:00	5960	486	-14.2	-25.7	213	9
2023-09-20T18:00	5983	484	-14.3	-24.0	214	9
2023-09-20T18:00	6002	483	-14.4	-24.7	215	8
2023-09-20T18:00	6022	482	-14.4	-25.7	216	8
2023-09-20T18:00	6045	480	-14.5	-24.8	217	8
2023-09-20T18:00	6066	479	-14.7	-24.4	218	8
2023-09-20T18:00	6086	478	-14.8	-24.8	218	9
2023-09-20T18:00	6111	476	-15.0	-25.9	218	9
2023-09-20T18:00	6136	475	-15.2	-24.7	217	9
2023-09-20T18:00	6159	473	-15.4	-24.3	217	9
2023-09-20T18:00	6184	472	-15.7	-24.3	217	9
2023-09-20T18:00	6219	470	-15.9	-25.1	218	9
2023-09-20T18:00	6245	468	-16.1	-25.1	218	9
2023-09-20T18:00	6271	466	-16.3	-25.7	219	8
2023-09-20T18:00	6306	464	-16.4	-25.7	218	9
2023-09-20T18:00	6332	463	-16.6	-25.1	217	9
2023-09-20T18:00	6352	461	-16.8	-24.6	215	9
2023-09-20T18:00	6382	459	-17.0	-24.7	215	9
2023-09-20T18:00	6413	458	-17.2	-25.1	217	9
2023-09-20T18:00	6437	456	-17.4	-24.6	221	9
2023-09-20T18:00	6462	454	-17.6	-24.5	225	10
2023-09-20T18:00	6490	453	-17.9	-24.4	229	10
2023-09-20T18:00	6511	452	-18.0	-23.8	231	10
2023-09-20T18:00	6534	450	-18.2	-23.1	232	10
2023-09-20T18:00	6557	449	-18.3	-22.7	233	10
2023-09-20T18:00	6590	447	-18.6	-22.9	235	10
2023-09-20T18:00	6626	445	-18.9	-23.0	237	10
2023-09-20T18:00	6668	442	-19.3	-22.8	239	10
2023-09-20T18:00	6690	441	-19.4	-22.3	241	10
2023-09-20T18:00	6712	439	-19.6	-22.3	243	11
2023-09-20T18:00	6739	438	-19.9	-22.2	245	11
2023-09-20T18:00	6761	437	-20.0	-22.0	246	11
2023-09-20T18:00	6780	435	-20.2	-22.0	248	10
2023-09-20T18:00	6802	434	-20.3	-21.7	249	10
2023-09-20T18:00	6829	433	-20.5	-21.8	251	10
2023-09-20T18:00	6864	431	-20.7	-22.0	253	10
2023-09-20T18:00	6888	429	-20.8	-22.1	255	10
2023-09-20T18:00	6912	428	-21.0	-22.3	257	10
2023-09-20T18:00	6943	426	-21.2	-22.4	258	10
2023-09-20T18:00	6967	425	-21.4	-22.7	257	10
2023-09-20T18:00	6990	423	-21.4	-22.8	257	10
2023-09-20T18:00	7013	422	-21.5	-22.8	256	10
2023-09-20T18:00	7036	421	-21.7	-23.4	256	10
2023-09-20T18:00	7057	420	-21.9	-23.5	256	11
2023-09-20T18:00	7079	418	-22.0	-23.5	256	11
2023-09-20T18:00	7101	417	-22.2	-23.3	257	11
2023-09-20T18:00	7125	415	-22.3	-23.7	257	11
2023-09-20T18:00	7166	413	-22.5	-23.4	257	11
2023-09-20T18:00	7201	411	-22.8	-23.7	256	11
2023-09-20T18:00	7223	410	-23.0	-23.7	256	12
2023-09-20T18:00	7242	409	-23.1	-23.8	256	12
2023-09-20T18:00	7263	408	-23.3	-23.9	255	12
2023-09-20T18:00	7287	407	-23.5	-24.6	254	13
2023-09-20T18:00	7308	405	-23.6	-25.5	254	13
2023-09-20T18:00	7333	404	-23.8	-26.7	254	13
2023-09-20T18:00	7361	402	-23.9	-27.0	254	12
2023-09-20T18:00	7395	401	-24.0	-26.9	254	12
2023-09-20T18:00	7418	399	-24.2	-26.8	253	12
2023-09-20T18:00	7438	398	-24.3	-26.4	252	12
2023-09-20T18:00	7458	397	-24.4	-26.1	250	12
2023-09-20T18:00	7479	396	-24.5	-26.1	249	12
2023-09-20T18:00	7502	395	-24.7	-26.3	248	12
2023-09-20T18:00	7527	393	-24.9	-26.5	248	13
2023-09-20T18:00	7553	392	-25.2	-26.8	247	12
2023-09-20T18:00	7572	391	-25.3	-26.8	247	12
2023-09-20T18:00	7600	389	-25.5	-27.0	245	12
2023-09-20T18:00	7635	388	-25.8	-27.1	244	11
2023-09-20T18:00	7657	387	-26.0	-27.2	243	11
2023-09-20T18:00	7674	385	-26.1	-27.5	242	11
2023-09-20T18:00	7696	384	-26.3	-27.8	242	11
2023-09-20T18:00	7714	383	-26.4	-27.6	242	11
2023-09-20T18:00	7737	382	-26.6	-27.8	242	11
2023-09-20T18:00	7767	381	-26.9	-28.1	243	11
2023-09-20T18:00	7794	379	-27.1	-28.2	243	11
2023-09-20T18:00	7816	378	-27.3	-28.2	244	11
2023-09-20T18:00	7844	377	-27.5	-28.4	245	11
2023-09-20T18:00	7870	375	-27.8	-28.5	246	11
2023-09-20T18:00	7896	374	-28.0	-28.9	247	11
2023-09-20T18:00	7918	373	-28.2	-29.4	248	11
2023-09-20T18:00	7945	371	-28.3	-29.8	250	10
2023-09-20T18:00	7975	370	-28.4	-30.4	251	10
2023-09-20T18:00	8003	368	-28.5	-30.3	253	9
2023-09-20T18:00	8023	367	-28.6	-30.6	254	9
2023-09-20T18:00	8045	366	-28.7	-30.9	255	9
2023-09-20T18:00	8067	365	-28.7	-31.3	256	10
2023-09-20T18:00	8094	364	-28.5	-31.5	255	10
2023-09-20T18:00	8127	362	-28.7	-31.9	254	10
2023-09-20T18:00	8149	361	-28.8	-32.1	253	11
2023-09-20T18:00	8172	360	-28.9	-32.4	251	11
2023-09-20T18:00	8192	359	-28.9	-32.6	250	11
2023-09-20T18:00	8213	358	-29.0	-32.9	248	11
2023-09-20T18:00	8233	357	-29.1	-33.2	247	10
2023-09-20T18:00	8255	356	-29.2	-33.1	247	10
2023-09-20T18:00	8273	355	-29.3	-33.2	247	10
2023-09-20T18:00	8293	354	-29.5	-33.2	247	10
2023-09-20T18:00	8312	353	-29.6	-33.5	247	10
2023-09-20T18:00	8332	352	-29.7	-33.5	247	10
2023-09-20T18:00	8350	351	-29.9	-33.5	247	10
2023-09-20T18:00	8368	350	-30.0	-33.9	248	10
2023-09-20T18:00	8388	349	-30.2	-34.0	249	10
2023-09-20T18:00	8408	348	-30.3	-34.0	250	10
2023-09-20T18:00	8428	347	-30.5	-34.2	251	10
2023-09-20T18:00	8447	346	-30.7	-34.4	252	10
2023-09-20T18:00	8470	345	-30.8	-34.1	253	10
2023-09-20T18:00	8491	344	-31.0	-34.8	253	10
2023-09-20T18:00	8508	343	-31.1	-34.9	253	10
2023-09-20T18:00	8530	342	-31.3	-34.7	253	10
2023-09-20T18:00	8549	341	-31.5	-34.6	252	10
2023-09-20T18:00	8569	340	-31.6	-34.9	252	10
2023-09-20T18:00	8591	339	-31.8	-35.2	252	10
2023-09-20T18:00	8610	338	-31.9	-35.0	251	10
2023-09-20T18:00	8629	337	-32.1	-35.1	251	10
2023-09-20T18:00	8651	336	-32.3	-35.1	250	10
2023-09-20T18:00	8673	335	-32.6	-35.4	249	10
2023-09-20T18:00	8697	334	-32.8	-35.6	249	10
2023-09-20T18:00	8721	333	-33.0	-35.8	248	10
2023-09-20T18:00	8741	332	-33.1	-36.0	247	11
2023-09-20T18:00	8760	331	-33.3	-36.1	247	11
2023-09-20T18:00	8777	330	-33.5	-36.2	247	11
2023-09-20T18:00	8796	329	-33.6	-36.7	247	11
2023-09-20T18:00	8817	328	-33.8	-37.0	247	11
2023-09-20T18:00	8840	327	-33.9	-37.0	247	11
2023-09-20T18:00	8856	327	-34.1	-37.1	247	10
2023-09-20T18:00	8877	326	-34.3	-37.3	247	10
2023-09-20T18:00	8901	325	-34.5	-37.4	247	10
2023-09-20T18:00	8920	324	-34.6	-37.5	246	10
2023-09-20T18:00	8940	323	-34.8	-37.8	246	10
2023-09-20T18:00	8959	322	-34.9	-37.6	246	10
2023-09-20T18:00	8980	321	-35.1	-37.6	246	10
2023-09-20T18:00	9000	320	-35.3	-37.7	246	10
2023-09-20T18:00	9021	319	-35.5	-37.9	246	10
2023-09-20T18:00	9043	318	-35.7	-38.1	247	10
2023-09-20T18:00	9062	317	-35.9	-38.3	247	10
2023-09-20T18:00	9085	316	-36.1	-38.4	247	10
2023-09-20T18:00	9104	315	-36.2	-38.7	246	10
2023-09-20T18:00	9126	314	-36.4	-38.7	246	10
2023-09-20T18:00	9146	313	-36.6	-39.1	245	10
2023-09-20T18:00	9168	312	-36.7	-39.6	244	10
2023-09-20T18:00	9187	311	-36.8	-39.8	244	10
2023-09-20T18:00	9210	310	-37.0	-40.2	243	10
2023-09-20T18:00	9229	310	-37.2	-40.3	242	10
2023-09-20T18:00	9251	309	-37.4	-40.5	242	10
2023-09-20T18:00	9271	308	-37.5	-40.5	241	10
2023-09-20T18:00	9290	307	-37.7	-40.6	241	10
2023-09-20T18:00	9310	306	-37.9	-40.7	242	10
2023-09-20T18:00	9333	305	-38.1	-40.9	242	10
2023-09-20T18:00	9352	304	-38.3	-41.0	242	10
2023-09-20T18:00	9375	303	-38.4	-41.0	242	10
2023-09-20T18:00	9395	302	-38.6	-41.1	243	10
2023-09-20T18:00	9416	301	-38.8	-41.3	243	10
2023-09-20T18:00	9439	300	-39.0	-41.4	243	10
2023-09-20T18:00	9459	299	-39.2	-41.6	244	10
2023-09-20T18:00	9480	298	-39.4	-42.0	244	10
2023-09-20T18:00	9502	298	-39.6	-42.2	245	10
2023-09-20T18:00	9522	297	-39.8	-42.4	245	10
2023-09-20T18:00	9545	296	-40.0	-42.4	245	10
2023-09-20T18:00	9565	295	-40.1	-42.5	245	10
2023-09-20T18:00	9586	294	-40.3	-42.6	245	10
2023-09-20T18:00	9607	293	-40.5	-42.9	245	10
2023-09-20T18:00	9626	292	-40.7	-43.3	245	10
2023-09-20T18:00	9646	291	-40.8	-43.2	245	10
2023-09-20T18:00	9670	290	-41.0		244	10
2023-09-20T18:00	9690	289	-41.2	-43.9	244	11
2023-09-20T18:00	9712	288	-41.4	-44.1	244	11
2023-09-20T18:00	9733	288	-41.6	-44.0	244	11
2023-09-20T18:00	9754	287	-41.8	-44.0	244	11
2023-09-20T18:00	9775	286	-41.9	-44.2	244	11
2023-09-20T18:00	9793	285	-42.1	-44.8	244	11
2023-09-20T18:00	9815	284	-42.2	-45.3	244	11
2023-09-20T18:00	9836	283	-42.4	-45.5	243	11
2023-09-20T18:00	9857	282	-42.5	-46.3	242	11
2023-09-20T18:00	9877	281	-42.7	-46.5	242	11
2023-09-20T18:00	9899	281	-42.9	-46.5	242	11
2023-09-20T18:00	9924	280	-43.1	-46.9	241	11
2023-09-20T18:00	9943	279	-43.2	-47.2	241	11
2023-09-20T18:00	9965	278	-43.4	-47.2	241	11
2023-09-20T18:00	9986	277	-43.6	-47.0	241	11
2023-09-20T18:00	10006	276	-43.8	-46.8	241	11
2023-09-20T18:00	10029	275	-44.0	-46.9	242	11
2023-09-20T18:00	10052	274	-44.2	-47.4	242	11
2023-09-20T18:00	10073	273	-44.4	-47.5	242	11
2023-09-20T18:00	10096	273	-44.6	-47.8	242	10
2023-09-20T18:00	10117	272	-44.8	-48.1	242	10
2023-09-20T18:00	10138	271	-45.0	-48.2	242	10
2023-09-20T18:00	10158	270	-45.1	-48.4	242	10
2023-09-20T18:00	10181	269	-45.3	-48.4	242	10
2023-09-20T18:00	10202	268	-45.5	-48.2	242	10
2023-09-20T18:00	10224	267	-45.7	-48.7	243	10
2023-09-20T18:00	10245	266	-45.9	-49.3	243	10
2023-09-20T18:00	10269	266	-46.0	-49.5	243	10
2023-09-20T18:00	10293	265	-46.2	-49.8	243	10
2023-09-20T18:00	10313	264	-46.4	-50.4	243	10
2023-09-20T18:00	10335	263	-46.5	-51.0	243	10
2023-09-20T18:00	10356	262	-46.7	-51.6	242	10
2023-09-20T18:00	10377	261	-46.9	-51.9	241	10
2023-09-20T18:00	10400	260	-47.1	-51.9	240	10
2023-09-20T18:00	10420	260	-47.2	-52.5	239	10
2023-09-20T18:00	10440	259	-47.4	-53.4	238	10
2023-09-20T18:00	10462	258	-47.5	-53.6	238	10
2023-09-20T18:00	10481	257	-47.7	-53.5	237	10
2023-09-20T18:00	10503	256	-47.9	-53.6	238	10
2023-09-20T18:00	10524	255	-48.1	-54.0	239	10
2023-09-20T18:00	10549	255	-48.3	-54.2	240	10
2023-09-20T18:00	10569	254	-48.5	-54.3	242	10
2023-09-20T18:00	10593	253	-48.7	-54.5	243	10
2023-09-20T18:00	10615	252	-48.8	-54.8	244	10
2023-09-20T18:00	10635	251	-48.9	-55.2	244	10
2023-09-20T18:00	10656	250	-49.0	-55.6	244	10
2023-09-20T18:00	10676	250	-49.2	-56.0	244	10
2023-09-20T18:00	10695	249	-49.3	-56.0	244	9
2023-09-20T18:00	10717	248	-49.5	-56.1	245	9
2023-09-20T18:00	10740	247	-49.7	-56.3	246	8
2023-09-20T18:00	10763	246	-49.9	-56.6	247	8
2023-09-20T18:00	10790	245	-50.1	-56.8	248	8
2023-09-20T18:00	10813	244	-50.3	-57.0	249	7
2023-09-20T18:00	10835	244	-50.5	-57.2	249	7
2023-09-20T18:00	10856	243	-50.7	-57.0	250	8
2023-09-20T18:00	10875	242	-50.9	-56.9	251	8
2023-09-20T18:00	10896	241	-51.1	-57.0	251	8
2023-09-20T18:00	10919	241	-51.3	-57.0	252	8
2023-09-20T18:00	10947	240	-51.6	-57.0	252	8
2023-09-20T18:00	10973	239	-51.9	-57.2	252	8
2023-09-20T18:00	10995	238	-52.1	-57.3	252	8
2023-09-20T18:00	11014	237	-52.3	-57.4	251	8
2023-09-20T18:00	11034	236	-52.4	-57.3	249	7
2023-09-20T18:00	11053	236	-52.6	-57.6	249	7
2023-09-20T18:00	11071	235	-52.5	-57.8	249	7
2023-09-20T18:00	11090	234	-52.6	-58.2	251	7
2023-09-20T18:00	11111	234	-52.6	-58.3	255	7
2023-09-20T18:00	11131	233	-52.7	-58.1	259	7
2023-09-20T18:00	11156	232	-52.9	-57.9	263	6
2023-09-20T18:00	11178	231	-53.0	-57.6	268	6
2023-09-20T18:00	11201	230	-53.1	-57.6	273	5
2023-09-20T18:00	11221	230	-53.2	-57.6	278	5
2023-09-20T18:00	11240	229	-53.3	-57.5	281	5
2023-09-20T18:00	11258	228	-53.4	-57.5	282	4
2023-09-20T18:00	11277	228	-53.4	-57.3	280	4
2023-09-20T18:00	11296	227	-53.6	-57.2	274	4
2023-09-20T18:00	11318	226	-53.7	-57.1	266	4
2023-09-20T18:00	11336	225	-53.8	-57.2	258	5
2023-09-20T18:00	11359	225	-53.9	-57.6	250	5
2023-09-20T18:00	11382	224	-53.9	-58.2	244	6
2023-09-20T18:00	11406	223	-54.0	-58.8	240	6
2023-09-20T18:00	11423	222	-54.1	-59.2	238	7
2023-09-20T18:00	11444	222	-54.2	-59.3	237	8
2023-09-20T18:00	11464	221	-54.3	-59.6	235	8
2023-09-20T18:00	11482	220	-54.4	-59.9	234	8
2023-09-20T18:00	11503	220	-54.4	-60.4	233	9
2023-09-20T18:00	11520	219	-54.5	-60.9	233	9
2023-09-20T18:00	11541	218	-54.6	-61.1	234	9
2023-09-20T18:00	11557	218	-54.7	-61.5	236	10
2023-09-20T18:00	11580	217	-54.7	-62.2	238	10
2023-09-20T18:00	11597	216	-54.7	-64.1	240	10
2023-09-20T18:00	11617	216	-54.2	-66.8	241	10
2023-09-20T18:00	11637	215	-54.2	-69.2	243	10
2023-09-20T18:00	11656	214	-53.8	-69.1	243	10
2023-09-20T18:00	11675	214	-53.5	-68.0	244	11
2023-09-20T18:00	11694	213	-53.3	-68.0	244	11
2023-09-20T18:00	11716	213	-52.9	-69.1	244	11
2023-09-20T18:00	11736	212	-52.4	-70.7	244	11
2023-09-20T18:00	11756	211	-52.2	-71.5	244	11
2023-09-20T18:00	11775	211	-52.2	-71.4	244	11
2023-09-20T18:00	11795	210	-52.3	-71.1	245	12
2023-09-20T18:00	11814	209	-52.2	-70.9	246	12
2023-09-20T18:00	11834	209	-52.3	-71.2	247	12
2023-09-20T18:00	11855	208	-52.0	-71.2	248	12
2023-09-20T18:00	11874	207	-52.0	-71.4	248	12
2023-09-20T18:00	11895	207	-52.1	-71.8	249	12
2023-09-20T18:00	11918	206	-51.9	-71.8	249	12
2023-09-20T18:00	11939	205	-52.0	-72.0	250	12
2023-09-20T18:00	11958	205	-52.1	-72.1	251	12
2023-09-20T18:00	11980	204	-52.3	-72.1	253	12
2023-09-20T18:00	12000	203	-52.4	-72.0	254	12
2023-09-20T18:00	12021	203	-52.6	-72.1	256	12
2023-09-20T18:00	12044	202	-52.7	-72.1	256	12
2023-09-20T18:00	12062	201	-52.9	-72.2	256	12
2023-09-20T18:00	12083	201	-53.0	-72.3	255	12
2023-09-20T18:00	12105	200	-53.1	-72.4	254	12
2023-09-20T18:00	12127	199	-53.0	-72.4	253	12
2023-09-20T18:00	12146	199	-53.0	-72.5	252	12
2023-09-20T18:00	12167	198	-53.1	-72.6	251	12
2023-09-20T18:00	12188	198	-53.3	-72.8	250	13
2023-09-20T18:00	12210	197	-53.3	-72.8	249	13
2023-09-20T18:00	12232	196	-53.5	-72.9	249	13
2023-09-20T18:00	12254	196	-53.6	-72.9	249	13
2023-09-20T18:00	12273	195	-53.7	-73.0	249	13
2023-09-20T18:00	12295	194	-53.8	-73.1	250	12
2023-09-20T18:00	12314	194	-53.8	-73.0	251	12
2023-09-20T18:00	12336	193	-53.4	-72.6	251	12
2023-09-20T18:00	12351	193	-53.5	-72.4	251	12
2023-09-20T18:00	12372	192	-53.6	-72.3	250	11
2023-09-20T18:00	12393	191	-53.7	-72.1	249	11
2023-09-20T18:00	12413	191	-53.8	-72.0	249	11
2023-09-20T18:00	12433	190	-53.9	-71.9	248	11
2023-09-20T18:00	12452	190	-54.1	-71.8	248	10
2023-09-20T18:00	12472	189	-54.2	-71.5	247	10
2023-09-20T18:00	12492	188	-54.3	-71.2	246	10
2023-09-20T18:00	12512	188	-54.4	-70.9	245	10
2023-09-20T18:00	12531	187	-54.5	-70.5	243	10
2023-09-20T18:00	12550	187	-54.4	-69.9	240	10
2023-09-20T18:00	12570	186	-54.1	-69.6	238	10
2023-09-20T18:00	12590	186	-54.1	-69.8	237	10
2023-09-20T18:00	12610	185	-54.0	-70.3	237	10
2023-09-20T18:00	12627	184	-53.9	-70.8	238	11
2023-09-20T18:00	12647	184	-53.8	-71.2	238	11
2023-09-20T18:00	12669	183	-53.8	-71.4	239	11
2023-09-20T18:00	12688	183	-53.9	-71.7	240	12
2023-09-20T18:00	12708	182	-53.9	-71.9	240	12
2023-09-20T18:00	12732	182	-54.0	-72.0	240	12
2023-09-20T18:00	12749	181	-54.1	-72.0	240	12
2023-09-20T18:00	12771	180	-54.3	-72.1	239	12
2023-09-20T18:00	12789	180	-54.4	-72.2	239	13
2023-09-20T18:00	12812	179	-54.5	-72.4	239	13
2023-09-20T18:00	12830	179	-54.5	-72.5	240	13
2023-09-20T18:00	12851	178	-54.6	-72.6	241	13
2023-09-20T18:00	12871	178	-54.7	-72.9	243	13
2023-09-20T18:00	12891	177	-54.8	-73.1	245	13
2023-09-20T18:00	12911	176	-54.7	-73.4	246	13
2023-09-20T18:00	12932	176	-54.4	-73.4	248	12
2023-09-20T18:00	12953	175	-54.4	-73.7	250	12
2023-09-20T18:00	12975	175	-54.5	-73.9	252	11
2023-09-20T18:00	12993	174	-54.5	-73.9	255	11
2023-09-20T18:00	13014	174	-54.5	-73.8	258	11
2023-09-20T18:00	13033	173	-54.5	-73.8	260	11
2023-09-20T18:00	13053	173	-54.5	-73.8	261	11
2023-09-20T18:00	13073	172	-54.6	-73.9	262	11
2023-09-20T18:00	13093	172	-54.7	-74.0	262	11
2023-09-20T18:00	13114	171	-54.8	-73.9	262	11
2023-09-20T18:00	13133	170	-54.9	-74.0	261	11
2023-09-20T18:00	13153	170	-55.1	-74.2	260	11
2023-09-20T18:00	13174	169	-55.2	-74.2	259	11
2023-09-20T18:00	13195	169	-55.3	-74.3	258	12
2023-09-20T18:00	13214	168	-55.5	-74.3	258	12
2023-09-20T18:00	13235	168	-55.7	-74.4	258	12
2023-09-20T18:00	13255	167	-55.9	-74.5	258	12
2023-09-20T18:00	13275	167	-56.0	-74.6	259	12
2023-09-20T18:00	13294	166	-56.1	-74.6	260	12
2023-09-20T18:00	13316	166	-56.3	-74.6	260	12
2023-09-20T18:00	13335	165	-56.4	-74.6	260	11
2023-09-20T18:00	13358	165	-56.5	-74.6	260	11
2023-09-20T18:00	13376	164	-56.7	-74.8	259	11
2023-09-20T18:00	13398	164	-56.8	-74.8	257	11
2023-09-20T18:00	13421	163	-56.8	-74.7	256	11
2023-09-20T18:00	13446	162	-57.0	-74.9	254	11
2023-09-20T18:00	13464	162	-57.1	-74.9	253	11
2023-09-20T18:00	13489	161	-57.1	-74.9	252	11
2023-09-20T18:00	13508	161	-57.2	-74.8	251	11
2023-09-20T18:00	13529	160	-57.4	-74.9	251	11
2023-09-20T18:00	13553	160	-57.5	-74.9	251	11
2023-09-20T18:00	13575	159	-57.6	-75.0	251	11
2023-09-20T18:00	13596	158	-57.7	-75.1	251	10
2023-09-20T18:00	13621	158	-57.8	-75.1	251	10
2023-09-20T18:00	13643	157	-57.9	-75.1	252	9
2023-09-20T18:00	13668	157	-57.9	-75.0	254	9
2023-09-20T18:00	13690	156	-58.0	-75.0	256	9
2023-09-20T18:00	13711	156	-58.0	-74.8	258	8
2023-09-20T18:00	13734	155	-58.1	-74.8	260	8
2023-09-20T18:00	13755	154	-58.3	-75.0	262	8
2023-09-20T18:00	13777	154	-58.4	-75.2	264	8
2023-09-20T18:00	13799	153	-58.5		265	8
2023-09-20T18:00	13819	153	-58.7	-75.6	267	8
2023-09-20T18:00	13842	152	-58.8	-75.6	267	8
2023-09-20T18:00	13864	152	-59.0	-75.7	267	7
2023-09-20T18:00	13885	151	-59.1	-75.7	266	7
2023-09-20T18:00	13908	151	-59.2	-75.7	265	6
2023-09-20T18:00	13928	150	-59.3	-75.8	263	6
2023-09-20T18:00	13950	150	-59.2	-76.0	262	5
2023-09-20T18:00	13971	149	-59.1	-76.4	260	5
2023-09-20T18:00	13994	149	-59.1	-77.2	256	4
2023-09-20T18:00	14014	148	-59.0	-78.0	251	4
2023-09-20T18:00	14037	148	-59.0	-79.0	244	3
2023-09-20T18:00	14058	147	-59.0	-79.9	237	3
2023-09-20T18:00	14078	147	-58.7	-80.2	231	4
2023-09-20T18:00	14098	146	-58.5	-80.4	226	4
2023-09-20T18:00	14117	146	-58.6	-80.3	223	4
2023-09-20T18:00	14142	145	-58.7	-80.1	221	5
2023-09-20T18:00	14164	145	-58.8	-79.6	218	5
2023-09-20T18:00	14187	144	-59.0	-79.4	215	6
2023-09-20T18:00	14210	144	-59.2	-79.2	212	6
2023-09-20T18:00	14227	143	-59.3	-79.2	210	7
2023-09-20T18:00	14248	143	-59.3	-79.2	209	7
2023-09-20T18:00	14269	142	-59.1	-79.1	208	8
2023-09-20T18:00	14291	142	-58.7	-79.0	207	8
2023-09-20T18:00	14309	141	-58.7	-79.1	207	8
2023-09-20T18:00	14330	141	-58.9	-79.4	206	8
2023-09-20T18:00	14351	140	-59.0	-79.5	206	7
2023-09-20T18:00	14371	140	-59.1	-79.6	206	7
2023-09-20T18:00	14392	140	-59.0	-79.6	206	7
2023-09-20T18:00	14412	139	-59.1	-79.7	206	7
2023-09-20T18:00	14431	139	-59.2	-79.8	206	7
2023-09-20T18:00	14452	138	-59.3	-79.9	206	7
2023-09-20T18:00	14477	138	-59.3	-79.8	206	7
2023-09-20T18:00	14496	137	-59.5	-79.9	207	7
2023-09-20T18:00	14516	137	-59.7	-80.0	208	7
2023-09-20T18:00	14536	136	-59.8	-79.8	208	7
2023-09-20T18:00	14558	136	-60.0	-79.8	209	8
2023-09-20T18:00	14584	135	-60.2	-79.9	210	8
2023-09-20T18:00	14606	135	-60.5	-79.9	211	8
2023-09-20T18:00	14626	134	-60.6		212	8
2023-09-20T18:00	14650	134	-60.9	-80.1	213	8
2023-09-20T18:00	14670	134	-61.0	-80.2	214	8
2023-09-20T18:00	14689	133	-60.9	-80.1	214	8
2023-09-20T18:00	14715	133	-60.9	-80.2	214	7
2023-09-20T18:00	14733	132	-61.0	-80.6	214	7
2023-09-20T18:00	14755	132	-61.1	-80.8	213	7
2023-09-20T18:00	14778	131	-61.0	-80.7	212	6
2023-09-20T18:00	14800	131	-61.2	-80.8	210	6
2023-09-20T18:00	14821	130	-61.3	-80.9	208	5
2023-09-20T18:00	14844	130	-61.4	-81.0	205	5
2023-09-20T18:00	14866	129	-61.3	-80.9	201	5
2023-09-20T18:00	14886	129	-61.4	-81.0	198	5
2023-09-20T18:00	14913	128	-61.5	-81.2	198	5
2023-09-20T18:00	14932	128	-61.5	-81.2	199	5
2023-09-20T18:00	14959	127	-61.6	-81.3	201	5
2023-09-20T18:00	14981	127	-61.7	-81.4	206	5
2023-09-20T18:00	15005	127	-61.9	-81.5	211	5
2023-09-20T18:00	15025	126	-62.0	-81.6	216	5
2023-09-20T18:00	15048	126	-62.2	-81.7	221	5
2023-09-20T18:00	15074	125	-62.2	-81.7	227	6
2023-09-20T18:00	15098	125	-62.1	-81.6	232	6
2023-09-20T18:00	15121	124	-62.2	-81.7	237	5
2023-09-20T18:00	15142	124	-62.1	-81.7	242	5
2023-09-20T18:00	15167	123	-61.9	-81.8	246	5
2023-09-20T18:00	15189	123	-61.6	-81.8	247	5
2023-09-20T18:00	15209	122	-61.0	-81.5	245	5
2023-09-20T18:00	15234	122	-60.8	-81.6	241	5
2023-09-20T18:00	15261	121	-60.9	-81.7	235	5
2023-09-20T18:00	15285	121	-61.1	-81.9	227	5
2023-09-20T18:00	15306	120	-61.3	-82.1	218	5
2023-09-20T18:00	15333	120	-61.5	-82.1	209	5
2023-09-20T18:00	15359	119	-61.6	-82.2	202	5
2023-09-20T18:00	15386	119	-61.8	-82.2	197	6
2023-09-20T18:00	15408	118	-62.0	-82.4	197	6
2023-09-20T18:00	15434	118	-62.0	-82.2	199	6
2023-09-20T18:00	15453	118	-61.9	-82.1	204	6
2023-09-20T18:00	15477	117	-61.6	-81.9	209	6
2023-09-20T18:00	15496	117	-61.7	-82.0	213	7
2023-09-20T18:00	15519	116	-61.8	-82.2	215	7
2023-09-20T18:00	15540	116	-61.8	-82.2	214	7
2023-09-20T18:00	15561	116	-61.6	-82.2	211	7
2023-09-20T18:00	15579	115	-61.2	-82.0	208	8
2023-09-20T18:00	15600	115	-61.1	-82.0	205	8
2023-09-20T18:00	15624	114	-61.2	-82.3	204	8
2023-09-20T18:00	15644	114	-61.3	-82.3	206	8
2023-09-20T18:00	15666	114	-61.5	-82.5	211	8
2023-09-20T18:00	15687	113	-61.6	-82.7	217	9
2023-09-20T18:00	15708	113	-61.0	-82.4	223	9
2023-09-20T18:00	15727	113	-60.9	-82.6	229	9
2023-09-20T18:00	15748	112	-60.8	-82.7	234	10
2023-09-20T18:00	15767	112	-60.5	-82.8	237	11
2023-09-20T18:00	15790	111	-60.5	-83.0	240	11
2023-09-20T18:00	15812	111	-60.3	-83.2	241	12
2023-09-20T18:00	15834	111	-60.0	-83.1	243	12
2023-09-20T18:00	15855	110	-59.9	-83.3	245	13
2023-09-20T18:00	15880	110	-59.8	-83.2	247	13
2023-09-20T18:00	15904	109	-59.9	-83.3	249	12
2023-09-20T18:00	15923	109	-59.9	-83.3	252	12
2023-09-20T18:00	15945	109	-59.7	-83.1	255	12
2023-09-20T18:00	15971	108	-59.7	-82.9	259	12
2023-09-20T18:00	15991	108	-59.9	-83.1	263	12
2023-09-20T18:00	16017	107	-60.1	-83.4	268	12
2023-09-20T18:00	16039	107	-60.3	-83.6	272	12
2023-09-20T18:00	16065	107	-60.1	-83.6	276	12
2023-09-20T18:00	16086	106	-59.5	-83.1	281	11
2023-09-20T18:00	16112	106	-59.3	-83.2	284	11
2023-09-20T18:00	16135	105	-59.1	-83.3	287	11
2023-09-20T18:00	16159	105	-59.1	-83.3	290	10
2023-09-20T18:00	16185	105	-59.2	-83.3	292	10
2023-09-20T18:00	16210	104	-59.3	-83.4	294	10
2023-09-20T18:00	16234	104	-59.2	-83.3	295	10
2023-09-20T18:00	16258	103	-59.2	-83.1	296	9
2023-09-20T18:00	16282	103	-59.3	-83.2	296	9
2023-09-20T18:00	16310	103	-59.4	-83.3	297	9
2023-09-20T18:00	16335	102	-59.6	-83.2	299	8
2023-09-20T18:00	16357	102	-59.8	-83.4	301	8
2023-09-20T18:00	16385	101	-59.9	-83.3	303	8
2023-09-20T18:00	16410	101	-60.1	-83.4	305	8
2023-09-20T18:00	16436	101	-60.3	-83.4	308	8
2023-09-20T18:00	16458	100	-60.4	-83.5	310	8
2023-09-20T18:00	16482	100	-60.6	-83.4	312	8
2023-09-20T18:00	16507	99	-60.8	-83.6	314	8
2023-09-20T18:00	16532	99	-60.9	-83.7	316	8
2023-09-20T18:00	16558	99	-61.1	-83.6	318	8
2023-09-20T18:00	16584	98	-61.3	-83.8	321	8
2023-09-20T18:00	16608	98	-61.4	-83.9	324	8
2023-09-20T18:00	16630	97	-61.5	-83.8	327	7
2023-09-20T18:00	16653	97	-61.6	-84.0	331	7
2023-09-20T18:00	16677	97	-61.6	-84.0	334	6
2023-09-20T18:00	16700	96	-61.6	-84.0	338	5
2023-09-20T18:00	16719	96	-61.5	-84.1	342	4
2023-09-20T18:00	16746	96	-61.4	-84.3	348	3
2023-09-20T18:00	16776	95	-61.3	-84.4	352	1
2023-09-20T18:00	16802	95	-61.0	-84.3	344	1
2023-09-20T18:00	16826	94	-61.0	-84.3	283	1
2023-09-20T18:00	16848	94	-60.5	-84.2	259	1
2023-09-20T18:00	16874	94	-60.4	-84.1	256	2
2023-09-20T18:00	16898	93	-60.5	-84.2	254	2
2023-09-20T18:00	16923	93	-60.7	-84.3	251	3
2023-09-20T18:00	16945	93	-60.9	-84.3	247	4
2023-09-20T18:00	16966	92	-60.9	-84.3	243	5
2023-09-20T18:00	16991	92	-61.0	-84.3	240	5
2023-09-20T18:00	17013	92	-61.1	-84.4	238	6
2023-09-20T18:00	17037	91	-61.3	-84.4	237	7
2023-09-20T18:00	17061	91	-61.4	-84.5	236	7
2023-09-20T18:00	17085	91	-61.4	-84.5	236	8
2023-09-20T18:00	17104	90	-61.6	-84.6	237	9
2023-09-20T18:00	17125	90	-61.7	-84.9	238	9
2023-09-20T18:00	17150	90	-61.5	-84.9	238	10
2023-09-20T18:00	17175	89	-61.3	-85.0	239	10
2023-09-20T18:00	17196	89	-60.5	-84.8	239	10
2023-09-20T18:00	17218	89	-60.3	-84.7	239	10
2023-09-20T18:00	17240	88	-60.4	-85.0	239	10
2023-09-20T18:00	17263	88	-60.1	-84.8	240	10
2023-09-20T18:00	17288	88	-60.3	-84.9	241	9
2023-09-20T18:00	17311	87	-60.5	-84.8	242	9
2023-09-20T18:00	17331	87	-60.6	-84.9	244	9
2023-09-20T18:00	17355	87	-60.8	-84.8	245	8
2023-09-20T18:00	17378	86	-60.8	-84.8	246	8
2023-09-20T18:00	17401	86	-60.9	-84.9	246	8
2023-09-20T18:00	17423	86	-60.9	-84.9	245	7
2023-09-20T18:00	17446	85	-61.0	-85.0	243	7
2023-09-20T18:00	17468	85	-61.0	-85.0	239	6
2023-09-20T18:00	17494	85	-61.0	-85.0	236	6
2023-09-20T18:00	17514	85	-60.9	-85.2	234	6
2023-09-20T18:00	17531	84	-60.8	-85.1	234	6
2023-09-20T18:00	17556	84	-60.8	-85.1	234	6
2023-09-20T18:00	17574	84	-60.7	-85.2	234	6
2023-09-20T18:00	17600	83	-60.6	-85.2	233	6
2023-09-20T18:00	17625	83	-60.7	-85.2	230	6
2023-09-20T18:00	17645	83	-60.6	-85.2	226	6
2023-09-20T18:00	17668	82	-60.5	-85.1	222	7
2023-09-20T18:00	17690	82	-60.4	-85.0	220	7
2023-09-20T18:00	17715	82	-60.4	-85.0	220	7
2023-09-20T18:00	17738	82	-60.5	-85.3	220	8
2023-09-20T18:00	17761	81	-60.5	-85.3	222	8
2023-09-20T18:00	17786	81	-60.1	-85.0	225	8
2023-09-20T18:00	17809	81	-60.0	-85.2	229	8
2023-09-20T18:00	17832	80	-59.8	-85.1	231	8
2023-09-20T18:00	17853	80	-59.6	-84.9	233	8
2023-09-20T18:00	17877	80	-59.5	-85.1	234	7
2023-09-20T18:00	17902	79	-59.5	-85.1	234	7
2023-09-20T18:00	17927	79	-59.3	-85.0	232	8
2023-09-20T18:00	17950	79	-59.1	-85.1	231	8
2023-09-20T18:00	17974	78	-58.3	-84.5	230	8
2023-09-20T18:00	17995	78	-58.1	-84.6	228	8
2023-09-20T18:00	18021	78	-57.9	-84.5	226	8
2023-09-20T18:00	18046	78	-57.8	-84.4	225	8
2023-09-20T18:00	18067	77	-57.8	-84.4	224	8
2023-09-20T18:00	18093	77	-57.9	-84.2	225	8
2023-09-20T18:00	18117	77	-58.0	-84.2	226	8
2023-09-20T18:00	18140	76	-58.0	-84.2	229	8
2023-09-20T18:00	18163	76	-58.0	-83.9	231	8
2023-09-20T18:00	18185	76	-58.2	-84.1	233	8
2023-09-20T18:00	18211	76	-58.4	-84.3	234	8
2023-09-20T18:00	18235	75	-58.6	-84.4	234	8
2023-09-20T18:00	18258	75	-58.7	-84.2	234	8
2023-09-20T18:00	18284	75	-58.8	-84.3	233	8
2023-09-20T18:00	18307	74	-58.8	-84.3	232	8
2023-09-20T18:00	18331	74	-58.8	-84.6	232	8
2023-09-20T18:00	18359	74	-58.7	-84.5	232	9
2023-09-20T18:00	18386	74	-58.8	-84.3	232	9
2023-09-20T18:00	18402	73	-58.9	-84.4	232	10
2023-09-20T18:00	18428	73	-59.1	-84.5	233	10
2023-09-20T18:00	18452	73	-59.3	-84.7	233	10
2023-09-20T18:00	18478	72	-59.5	-85.1	234	11
2023-09-20T18:00	18501	72	-59.2	-84.9	235	11
2023-09-20T18:00	18523	72	-58.8	-84.9	237	11
2023-09-20T18:00	18547	72	-58.4	-84.6	239	12
2023-09-20T18:00	18570	71	-58.3	-84.5	241	12
2023-09-20T18:00	18590	71	-58.3	-84.5	243	12
2023-09-20T18:00	18617	71	-58.3	-84.5	245	12
2023-09-20T18:00	18640	71	-58.4	-84.6	245	12
2023-09-20T18:00	18665	70	-58.4	-84.6	245	12
2023-09-20T18:00	18687	70	-58.5	-84.6	244	12
2023-09-20T18:00	18713	70	-58.3	-84.8	242	12
2023-09-20T18:00	18736	70	-57.7	-84.3	239	12
2023-09-20T18:00	18756	69	-57.5	-84.2	237	12
2023-09-20T18:00	18782	69	-57.5	-84.2	236	13
2023-09-20T18:00	18802	69	-57.6	-84.3	236	13
2023-09-20T18:00	18831	69	-57.8	-84.4	236	13
2023-09-20T18:00	18849	68	-57.7	-84.3	237	13
2023-09-20T18:00	18874	68	-57.7	-84.3	238	13
2023-09-20T18:00	18900	68	-57.7	-84.3	239	12
2023-09-20T18:00	18924	68	-57.7	-84.3	241	12
2023-09-20T18:00	18944	67	-57.6	-84.3	243	12
2023-09-20T18:00	18969	67	-57.5	-84.5	246	12
2023-09-20T18:00	18992	67	-57.4	-84.4	250	12
2023-09-20T18:00	19020	67	-57.2	-84.3	254	12
2023-09-20T18:00	19039	66	-57.3	-84.4	257	13
2023-09-20T18:00	19063	66	-57.3	-84.4	260	13
2023-09-20T18:00	19084	66	-57.2	-84.3	262	12
2023-09-20T18:00	19110	66	-57.1	-84.6	262	12
2023-09-20T18:00	19131	65	-56.3	-83.9	261	11
2023-09-20T18:00	19158	65	-55.9	-84.0	258	11
2023-09-20T18:00	19178	65	-55.8	-83.9	254	10
2023-09-20T18:00	19202	65	-55.8	-83.9	249	10
2023-09-20T18:00	19224	64	-55.7	-83.9	245	10
2023-09-20T18:00	19252	64	-55.6	-83.4	242	10
2023-09-20T18:00	19279	64	-55.7	-83.5	239	9
2023-09-20T18:00	19298	64	-55.8	-83.6	236	9
2023-09-20T18:00	19328	63	-55.9	-83.6	232	9
2023-09-20T18:00	19348	63	-56.1	-83.4	228	9
2023-09-20T18:00	19375	63	-56.3	-83.6	223	9
2023-09-20T18:00	19398	63	-56.4	-83.7	218	10
2023-09-20T18:00	19423	62	-56.5	-83.7	213	10
2023-09-20T18:00	19449	62	-56.7	-83.9	211	10
2023-09-20T18:00	19468	62	-56.8	-84.0	210	10
2023-09-20T18:00	19491	62	-56.8	-84.0	211	11
2023-09-20T18:00	19514	61	-56.8	-84.0	212	11
2023-09-20T18:00	19539	61	-56.8	-84.0	214	10
2023-09-20T18:00	19564	61	-56.9	-84.0	216	10
2023-09-20T18:00	19587	61	-57.0	-84.1	218	10
2023-09-20T18:00	19609	61	-57.2	-83.9	221	10
2023-09-20T18:00	19637	60	-57.2	-83.9	223	10
2023-09-20T18:00	19658	60	-57.3	-84.0	226	10
2023-09-20T18:00	19681	60	-57.1	-83.9	228	10
2023-09-20T18:00	19704	60	-57.2	-83.9	231	10
2023-09-20T18:00	19730	59	-57.1	-83.9	233	11
2023-09-20T18:00	19751	59	-57.1	-83.9	234	12
2023-09-20T18:00	19775	59	-57.0	-83.8	236	12
2023-09-20T18:00	19800	59	-57.1	-83.9	238	13
2023-09-20T18:00	19823	59	-57.3	-84.0	240	13
2023-09-20T18:00	19848	58	-57.4	-84.1	242	13
2023-09-20T18:00	19869	58	-57.3	-84.0	245	13
2023-09-20T18:00	19891	58	-57.3	-84.4	247	14
2023-09-20T18:00	19914	58	-57.0	-84.1	248	14
2023-09-20T18:00	19942	58	-57.0	-84.1	249	14
2023-09-20T18:00	19961	57	-57.1	-84.2	250	14
2023-09-20T18:00	19984	57	-57.2	-84.3	250	14
2023-09-20T18:00	20009	57	-57.1	-84.2	250	14
2023-09-20T18:00	20033	57	-56.7	-84.2	249	13
2023-09-20T18:00	20058	56	-56.6	-84.2	248	13
2023-09-20T18:00	20081	56	-56.6	-84.2	248	12
2023-09-20T18:00	20104	56	-56.6	-83.8	249	12
2023-09-20T18:00	20128	56	-56.6	-83.8	250	12
2023-09-20T18:00	20151	56	-56.7	-83.9	252	12
2023-09-20T18:00	20174	55	-56.9	-84.0	253	12
2023-09-20T18:00	20196	55	-57.0	-84.1	254	13
2023-09-20T18:00	20222	55	-57.1	-84.2	253	13
2023-09-20T18:00	20245	55	-57.1	-84.2	253	13
2023-09-20T18:00	20265	55	-57.1	-84.6	252	12
2023-09-20T18:00	20288	54	-56.7	-84.2	251	12
2023-09-20T18:00	20313	54	-56.1	-84.2	250	12
2023-09-20T18:00	20337	54	-55.8	-83.9	250	12
2023-09-20T18:00	20360	54	-55.9	-84.0	250	11
2023-09-20T18:00	20385	54	-56.0	-84.1	249	11
2023-09-20T18:00	20406	53	-55.9	-84.0	247	11
2023-09-20T18:00	20426	53	-55.8	-83.6	245	10
2023-09-20T18:00	20455	53	-55.9	-83.6	243	10
2023-09-20T18:00	20477	53	-55.8	-83.6	240	10
2023-09-20T18:00	20504	53	-55.8	-83.6	238	10
2023-09-20T18:00	20532	52	-55.9	-83.6	236	10
2023-09-20T18:00	20555	52	-55.9	-83.6	235	10
2023-09-20T18:00	20579	52	-55.8	-83.6	233	10
2023-09-20T18:00	20602	52	-56.0	-83.7	232	10
2023-09-20T18:00	20629	52	-56.2	-83.5	231	10
2023-09-20T18:00	20655	51	-56.4	-83.7	231	10
2023-09-20T18:00	20680	51	-56.6	-83.8	231	10
2023-09-20T18:00	20711	51	-56.7	-83.9	231	10
2023-09-20T18:00	20737	51	-56.8	-84.0	231	10
2023-09-20T18:00	20759	51	-56.7	-83.9	231	10
2023-09-20T18:00	20786	50	-56.7	-83.9	230	11
2023-09-20T18:00	20811	50	-56.8	-84.0	229	11
2023-09-20T18:00	20836	50	-56.8	-84.0	228	11
2023-09-20T18:00	20868	50	-56.9	-84.0	226	11
2023-09-20T18:00	20889	50	-57.1	-84.2	224	11
2023-09-20T18:00	20914	49	-57.2	-83.9	223	11
2023-09-20T18:00	20945	49	-57.4	-84.1	222	11
2023-09-20T18:00	20966	49	-57.6	-84.3	222	11
2023-09-20T18:00	20993	49	-57.8	-84.4	223	11
2023-09-20T18:00	21013	49	-57.9	-84.5	225	11
2023-09-20T18:00	21041	48	-57.7	-84.3	228	11
2023-09-20T18:00	21067	48	-57.6	-84.3	230	11
2023-09-20T18:00	21088	48	-57.8	-84.4	233	12
2023-09-20T18:00	21120	48	-57.9	-84.5	234	12
2023-09-20T18:00	21142	48	-58.1	-84.6	236	12
2023-09-20T18:00	21162	47	-58.2	-84.7	237	12
2023-09-20T18:00	21189	47	-58.2	-84.7	239	12
2023-09-20T18:00	21214	47	-58.3	-84.8	240	12
2023-09-20T18:00	21238	47	-58.3	-84.8	242	12
2023-09-20T18:00	21261	47	-58.4	-84.9	244	12
2023-09-20T18:00	21293	46	-58.5	-84.9	246	12
2023-09-20T18:00	21315	46	-58.6	-85.0	248	13
2023-09-20T18:00	21336	46	-58.8	-85.2	250	13
2023-09-20T18:00	21358	46	-58.8	-85.2	252	13
2023-09-20T18:00	21382	46	-58.8	-85.2	253	13
2023-09-20T18:00	21414	46	-58.9	-85.3	255	13
2023-09-20T18:00	21425	45	-58.7	-85.1	256	13
2023-09-20T18:00	21453	45	-58.9	-85.3	258	13
2023-09-20T18:00	21471	45	-58.8	-85.5	259	13
2023-09-20T18:00	21500	45	-58.7	-85.4	260	13
2023-09-20T18:00	21519	45	-58.5	-85.3	261	13
2023-09-20T18:00	21542	45	-58.4	-85.2	261	13
2023-09-20T18:00	21569	44	-58.5	-85.3	262	13
2023-09-20T18:00	21589	44	-58.3	-85.1	262	12
2023-09-20T18:00	21609	44	-58.4	-85.2	263	12
2023-09-20T18:00	21634	44	-58.2	-85.4	264	11
2023-09-20T18:00	21656	44	-58.1	-85.3	264	11
2023-09-20T18:00	21681	44	-57.9	-85.2	264	10
2023-09-20T18:00	21700	44	-57.6	-84.9	263	10
2023-09-20T18:00	21721	43	-57.6	-84.9	262	9
2023-09-20T18:00	21746	43	-57.7	-85.0	260	9
2023-09-20T18:00	21772	43	-57.7	-85.0	259	8
2023-09-20T18:00	21797	43	-57.8	-84.7	257	7
2023-09-20T18:00	21816	43	-57.9	-84.8	254	7
2023-09-20T18:00	21834	43	-57.8	-84.7	251	6
2023-09-20T18:00	21859	42	-57.7	-85.0	246	6
2023-09-20T18:00	21885	42	-57.6	-84.9	242	5
2023-09-20T18:00	21910	42	-57.5	-84.9	238	5
2023-09-20T18:00	21936	42	-57.3	-84.7	236	5
2023-09-20T18:00	21955	42	-57.4	-84.4	235	5
2023-09-20T18:00	21984	42	-57.6	-84.6	234	5
2023-09-20T18:00	22006	41	-57.7	-84.7	234	5
2023-09-20T18:00	22034	41	-57.9	-84.8	233	5
2023-09-20T18:00	22061	41	-57.9	-84.8	233	5
2023-09-20T18:00	22080	41	-57.9	-84.5	233	6
2023-09-20T18:00	22106	41	-58.1	-84.6	234	6
2023-09-20T18:00	22134	41	-58.3	-84.8	236	7
2023-09-20T18:00	22153	41	-58.4	-84.9	238	8
2023-09-20T18:00	22180	40	-58.5	-85.3	241	8
2023-09-20T18:00	22198	40	-58.3	-85.1	242	9
2023-09-20T18:00	22230	40	-58.1	-85.3	242	9
2023-09-20T18:00	22255	40	-57.7	-85.0	240	9
2023-09-20T18:00	22284	40	-57.4	-84.8	236	9
2023-09-20T18:00	22313	40	-57.5	-84.9	232	9
2023-09-20T18:00	22340	39	-57.6	-84.9	228	10
2023-09-20T18:00	22362	39	-57.7	-84.7	226	10
2023-09-20T18:00	22397	39	-57.9	-84.8	224	11
2023-09-20T18:00	22423	39	-58.1	-85.0	224	11
2023-09-20T18:00	22443	39	-58.2	-84.7	224	12
2023-09-20T18:00	22472	39	-58.3	-84.8	225	11
2023-09-20T18:00	22496	38	-58.4	-84.9	227	11
2023-09-20T18:00	22526	38	-58.4	-84.9	228	11
2023-09-20T18:00	22553	38	-58.6	-85.0	230	10
2023-09-20T18:00	22579	38	-58.6	-85.0	231	10
2023-09-20T18:00	22607	38	-58.6	-85.4	232	11
2023-09-20T18:00	22638	38	-58.3	-85.1	232	11
2023-09-20T18:00	22661	37	-58.0	-84.9	233	12
2023-09-20T18:00	22683	37	-58.0	-85.2	234	12
2023-09-20T18:00	22719	37	-58.1	-85.3	236	13
2023-09-20T18:00	22748	37	-58.0	-85.2	238	13
2023-09-20T18:00	22778	37	-58.0	-85.2	240	13
2023-09-20T18:00	22803	37	-57.8	-85.1	243	13
2023-09-20T18:00	22826	36	-57.8	-85.1	244	13
2023-09-20T18:00	22855	36	-57.8	-84.7	246	12
2023-09-20T18:00	22882	36	-57.9	-84.8	248	12
2023-09-20T18:00	22906	36	-58.0	-84.9	249	12
2023-09-20T18:00	22937	36	-58.0	-84.9	250	12
2023-09-20T18:00	22966	36	-58.1	-85.0	251	11
2023-09-20T18:00	22987	35	-58.1	-85.0	250	10
2023-09-20T18:00	23013	35	-58.1	-85.0	249	9
2023-09-20T18:00	23036	35	-58.0	-85.2	248	9
2023-09-20T18:00	23057	35	-57.7	-85.0	248	8
2023-09-20T18:00	23086	35	-57.8	-85.1	250	8
2023-09-20T18:00	23115	35	-57.8	-85.5	253	8
2023-09-20T18:00	23134	35	-57.1	-84.9	256	8
2023-09-20T18:00	23156	35	-56.8	-85.1	260	8
2023-09-20T18:00	23182	34	-56.5	-84.9	263	8
2023-09-20T18:00	23208	34	-56.1	-84.6	263	8
2023-09-20T18:00	23224	34	-55.7	-84.7	262	7
2023-09-20T18:00	23254	34	-55.5	-84.5	259	7
2023-09-20T18:00	23280	34	-55.4	-84.5	253	6
2023-09-20T18:00	23306	34	-55.2	-84.3	245	5
2023-09-20T18:00	23325	34	-54.9	-83.7	236	5
2023-09-20T18:00	23347	34	-54.8	-83.6	227	5
2023-09-20T18:00	23373	33	-54.9	-83.7	219	5
2023-09-20T18:00	23397	33	-55.1	-83.4	211	5
2023-09-20T18:00	23424	33	-55.3	-83.6	203	5
2023-09-20T18:00	23449	33	-55.5	-83.7	197	6
2023-09-20T18:00	23471	33	-55.6	-83.8	193	6
2023-09-20T18:00	23503	33	-55.7	-83.9	192	6
2023-09-20T18:00	23522	33	-55.8	-83.9	194	6
2023-09-20T18:00	23555	32	-55.9	-84.0	200	5
2023-09-20T18:00	23573	32	-55.7	-83.9	207	5
2023-09-20T18:00	23605	32	-55.8	-83.9	215	5
2023-09-20T18:00	23627	32	-55.9	-84.0	220	4
2023-09-20T18:00	23654	32	-55.8	-83.9	219	4
2023-09-20T18:00	23680	32	-55.8	-83.9	214	4
2023-09-20T18:00	23709	32	-55.8	-83.9	205	4
2023-09-20T18:00	23725	32	-55.7	-83.9	197	5
2023-09-20T18:00	23761	31	-55.8	-83.9	192	5
2023-09-20T18:00	23786	31	-55.9	-84.0	190	6
2023-09-20T18:00	23813	31	-56.0	-84.1	190	7
2023-09-20T18:00	23837	31	-56.1	-83.8	191	7
2023-09-20T18:00	23870	31	-56.3	-83.9	194	8
2023-09-20T18:00	23893	31	-56.5	-84.1	196	8
2023-09-20T18:00	23921	31	-56.7	-84.2	200	9
2023-09-20T18:00	23948	31	-56.8	-84.3	204	9
2023-09-20T18:00	23978	30	-56.8	-84.3	209	9
2023-09-20T18:00	24007	30	-56.8	-84.3	215	9
2023-09-20T18:00	24026	30	-56.7	-84.2	221	10
2023-09-20T18:00	24059	30	-56.8	-84.3	226	10
2023-09-20T18:00	24090	30	-56.9	-84.4	231	11
2023-09-20T18:00	24115	30	-56.9	-84.4	236	12
2023-09-20T18:00	24139	30	-56.9	-84.4	240	12
2023-09-20T18:00	24168	29	-56.8	-84.3	243	12
2023-09-20T18:00	24201	29	-56.9	-84.4	246	13
2023-09-20T18:00	24230	29	-56.9	-84.4	248	12
2023-09-20T18:00	24253	29	-56.8	-84.7	249	12
2023-09-20T18:00	24277	29	-56.6	-84.5	250	11
2023-09-20T18:00	24307	29	-56.4	-84.4	251	11
2023-09-20T18:00	24333	29	-56.3	-84.3	251	10
2023-09-20T18:00	24365	29	-56.4	-84.4	251	10
2023-09-20T18:00	24391	28	-56.6	-84.5	251	9
2023-09-20T18:00	24415	28	-56.6	-84.5	250	9
2023-09-20T18:00	24442	28	-56.5	-84.1	250	8
2023-09-20T18:00	24471	28	-56.6	-84.2	249	8
2023-09-20T18:00	24510	28	-56.8	-84.3	247	7
2023-09-20T18:00	24533	28	-56.9	-84.4	245	7
2023-09-20T18:00	24560	28	-57.0	-84.5	242	7
2023-09-20T18:00	24578	28	-56.8	-84.3	239	7
2023-09-20T18:00	24614	27	-56.7	-84.2	236	7
2023-09-20T18:00	24649	27	-56.8	-84.7	235	8
2023-09-20T18:00	24664	27	-56.7	-84.6	235	8
2023-09-20T18:00	24695	27	-56.5	-84.5	236	9
2023-09-20T18:00	24724	27	-56.5	-84.5	238	9
2023-09-20T18:00	24741	27	-56.5	-84.5	241	9
2023-09-20T18:00	24770	27	-56.6	-84.5	244	10
2023-09-20T18:00	24791	27	-56.6	-84.5	247	10
2023-09-20T18:00	24820	27	-56.6	-84.5	250	11
2023-09-20T18:00	24844	26	-56.7	-84.6	252	12
2023-09-20T18:00	24872	26	-56.7	-84.6	255	12
2023-09-20T18:00	24900	26	-56.7	-84.6	257	13
2023-09-20T18:00	24917	26	-56.6	-84.5	259	13
2023-09-20T18:00	24960	26	-56.5	-84.5	262	13
2023-09-20T18:00	24979	26	-56.4	-84.4	264	13
2023-09-20T18:00	25002	26	-56.5	-84.5	267	13
2023-09-20T18:00	25036	26	-56.4	-84.4	269	12
2023-09-20T18:00	25053	26	-56.3	-84.7	272	11
2023-09-20T18:00	25093	26	-55.9	-84.4	273	10
2023-09-20T18:00	25111	25	-55.6	-84.2	273	9
2023-09-20T18:00	25140	25	-55.6	-84.2	272	8
2023-09-20T18:00	25171	25	-55.5	-84.1	269	8
2023-09-20T18:00	25207	25	-55.4	-84.0	266	7
2023-09-20T18:00	25217	25	-55.4	-84.0	261	7
2023-09-20T18:00	25256	25	-55.3	-84.0	256	7
2023-09-20T18:00	25286	25	-55.3	-84.0	253	8
2023-09-20T18:00	25312	25	-55.4	-83.6	250	8
2023-09-20T18:00	25334	25	-55.6	-83.8	250	8
2023-09-20T18:00	25363	24	-55.5	-83.7	250	9
2023-09-20T18:00	25404	24	-55.5	-83.7	252	9
2023-09-20T18:00	25420	24	-55.7	-83.9	254	9
2023-09-20T18:00	25448	24	-55.8	-83.9	257	9
2023-09-20T18:00	25482	24	-55.8	-83.9	260	9
2023-09-20T18:00	25514	24	-55.7	-83.9	262	9
2023-09-20T18:00	25541	24	-55.7	-83.9	263	10
2023-09-20T18:00	25571	24	-55.7	-83.9	263	10
2023-09-20T18:00	25597	24	-55.8	-83.9	263	10
2023-09-20T18:00	25629	23	-56.0	-84.1	263	10
2023-09-20T18:00	25650	23	-56.1	-84.2	264	11
2023-09-20T18:00	25689	23	-56.1	-83.8	265	11
2023-09-20T18:00	25720	23	-56.2	-83.9	267	11
2023-09-20T18:00	25754	23	-56.2	-83.9	269	12
2023-09-20T18:00	25778	23	-56.3	-83.9	271	12
2023-09-20T18:00	25800	23	-56.3	-84.3	273	13
2023-09-20T18:00	25839	23	-56.3	-84.3	274	13
2023-09-20T18:00	25867	23	-56.5	-84.5	276	13
2023-09-20T18:00	25895	22	-56.5	-84.5	277	13
2023-09-20T18:00	25917	22	-56.4	-84.4	279	13
2023-09-20T18:00	25950	22	-56.2	-84.2	281	13
2023-09-20T18:00	25978	22	-56.3	-84.3	283	13
2023-09-20T18:00	26007	22	-56.3	-84.3	286	13
2023-09-20T18:00	26039	22	-56.3	-84.3	287	13
2023-09-20T18:00	26066	22	-56.4	-84.0	289	13
2023-09-20T18:00	26095	22	-56.5	-84.1	290	14
2023-09-20T18:00	26119	22	-56.5	-84.1	292	14
2023-09-20T18:00	26155	22	-56.7	-84.2	293	14
2023-09-20T18:00	26184	21	-56.8	-84.3	294	14
2023-09-20T18:00	26206	21	-57.0	-84.5	295	15
2023-09-20T18:00	26239	21	-57.2	-84.6	297	15
2023-09-20T18:00	26264	21	-57.4	-84.8	299	15
2023-09-20T18:00	26294	21	-57.5	-84.5	301	15
2023-09-20T18:00	26338	21	-57.4	-84.4	303	14
2023-09-20T18:00	26372	21	-57.4	-84.4	305	14
2023-09-20T18:00	26383	21	-57.6	-84.6	307	13
2023-09-20T18:00	26413	21	-57.7	-85.0	309	12
2023-09-20T18:00	26445	21	-57.7	-85.0	310	12
2023-09-20T18:00	26485	21	-57.6	-84.9	311	11
2023-09-20T18:00	26497	20	-57.5	-84.9	310	10
2023-09-20T18:00	26532	20	-57.4	-84.8	309	9
2023-09-20T18:00	26566	20	-57.5	-84.9	306	8
2023-09-20T18:00	26587	20	-57.5	-84.9	302	7
2023-09-20T18:00	26624	20	-57.4	-84.8	296	6
2023-09-20T18:00	26652	20	-57.3	-84.7	290	6
2023-09-20T18:00	26683	20	-57.4	-84.8	284	6
2023-09-20T18:00	26717	20	-57.5	-85.2	278	6
2023-09-20T18:00	26731	20	-57.2	-85.0	274	6
2023-09-20T18:00	26755	20	-57.2	-85.0	270	6
2023-09-20T18:00	26790	20	-57.2	-85.0	268	6
2023-09-20T18:00	26807	19	-57.0	-84.8	268	7
2023-09-20T18:00	26839	19	-56.6	-84.9	268	7
2023-09-20T18:00	26864	19	-56.6	-84.9	270	8
2023-09-20T18:00	26904	19	-56.3	-84.7	272	8
2023-09-20T18:00	26932	19	-56.3	-84.7	275	9
2023-09-20T18:00	26962	19	-56.0	-84.5	277	9
2023-09-20T18:00	26971	19	-55.9	-84.4	279	9
2023-09-20T18:00	27003	19	-56.0	-84.5	280	9
2023-09-20T18:00	27022	19	-55.7	-84.7	280	9
2023-09-20T18:00	27069	19	-55.5	-84.5	280	9
2023-09-20T18:00	27092	19	-55.1	-84.2	280	9
2023-09-20T18:00	27127	19	-55.2	-84.3	280	9
2023-09-20T18:00	27153	18	-55.0	-84.2	282	9
2023-09-20T18:00	27177	18	-55.0	-84.2	285	9
2023-09-20T18:00	27215	18	-54.8	-84.0	289	8
2023-09-20T18:00	27241	18	-54.8	-84.0	292	8
2023-09-20T18:00	27266	18	-54.8	-83.6	294	8
2023-09-20T18:00	27300	18	-54.9	-83.7	293	7
2023-09-20T18:00	27330	18	-54.9	-83.7	288	7
2023-09-20T18:00	27355	18	-54.9	-83.7	280	6
2023-09-20T18:00	27367	18	-54.9	-83.7	270	6
2023-09-20T18:00	27410	18	-54.8	-83.6	260	6
2023-09-20T18:00	27448	18	-54.8	-83.6	254	6
2023-09-20T18:00	27467	18	-54.8	-83.6	252	6
2023-09-20T18:00	27505	17	-54.7	-83.5	254	6
2023-09-20T18:00	27539	17	-54.7	-83.9	259	7
2023-09-20T18:00	27562	17	-54.4	-83.7	266	7
2023-09-20T18:00	27595	17	-54.2	-83.6	273	7
2023-09-20T18:00	27625	17	-54.2	-83.6	280	7
2023-09-20T18:00	27666	17	-53.9	-83.3	285	7
2023-09-20T18:00	27695	17	-53.7	-83.2	289	7
2023-09-20T18:00	27724	17	-53.6	-83.1	292	7
2023-09-20T18:00	27752	17	-53.6	-83.1	294	7
2023-09-20T18:00	27785	17	-53.7	-83.2	295	7
2023-09-20T18:00	27825	17	-53.8	-83.3	294	7
2023-09-20T18:00	27839	17	-53.9	-83.3	292	7
2023-09-20T18:00	27873	16	-53.9	-83.3	290	7
2023-09-20T18:00	27916	16	-53.7	-83.2	288	7
2023-09-20T18:00	27951	16	-53.6	-83.1	286	8
2023-09-20T18:00	27983	16	-53.6	-83.1	285	8
2023-09-20T18:00	28013	16	-53.6	-83.1	286	9
2023-09-20T18:00	28042	16	-53.7	-83.2	287	9
2023-09-20T18:00	28064	16	-53.8	-83.3	288	9
2023-09-20T18:00	28095	16	-53.9	-83.3	290	10
2023-09-20T18:00	28127	16	-53.9	-83.3	292	10
2023-09-20T18:00	28165	16	-53.6	-83.1	293	10
2023-09-20T18:00	28196	16	-53.6	-83.1	295	11
2023-09-20T18:00	28234	16	-53.5	-83.0	297	11
2023-09-20T18:00	28254	16	-53.3	-82.9	299	11
2023-09-20T18:00	28294	15	-53.2	-82.8	301	11
2023-09-20T18:00	28305	15	-53.3	-82.9	303	11
2023-09-20T18:00	28352	15	-53.5	-83.0	305	11
2023-09-20T18:00	28373	15	-53.5	-83.0	307	12
2023-09-20T18:00	28413	15	-53.4	-83.0	308	12
2023-09-20T18:00	28431	15	-53.3	-82.9	309	11
2023-09-20T18:00	28461	15	-53.2	-82.8	309	11
2023-09-20T18:00	28494	15	-53.1	-82.7	308	10
2023-09-20T18:00	28521	15	-53.2	-82.8	306	9
2023-09-20T18:00	28536	15	-53.1	-82.7	302	8
2023-09-20T18:00	28578	15	-53.0	-83.1	297	8
2023-09-20T18:00	28609	15	-52.9	-83.1	293	7
2023-09-20T18:00	28624	15	-52.8	-83.0	290	7
2023-09-20T18:00	28655	15	-52.4	-82.7	289	7
2023-09-20T18:00	28700	15	-52.0	-82.4	289	6
2023-09-20T18:00	28712	14	-51.9	-82.8	289	6
2023-09-20T18:00	28727	14	-51.8	-82.8	288	6
2023-09-20T18:00	28759	14	-51.8	-82.2	286	7
2023-09-20T18:00	28794	14	-51.5	-82.0	284	7
2023-09-20T18:00	28821	14	-51.5	-82.0	281	7
2023-09-20T18:00	28853	14	-51.6	-82.1	279	8
2023-09-20T18:00	28883	14	-51.6	-82.1	278	8
2023-09-20T18:00	28905	14	-51.5	-82.0	278	9
2023-09-20T18:00	28919	14	-51.4	-81.9	278	9
2023-09-20T18:00	28951	14	-51.2	-82.3	278	9
2023-09-20T18:00	28981	14	-51.2	-82.3	279	10
2023-09-20T18:00	29004	14	-50.8	-82.0	279	10
2023-09-20T18:00	29038	14	-50.5	-81.8	280	10
2023-09-20T18:00	29071	14	-50.4	-81.7	281	10
2023-09-20T18:00	29101	14	-50.2		284	10
2023-09-20T18:00	29121	14	-50.0	-81.4	286	10
2023-09-20T18:00	29157	14	-49.6	-81.1	288	10
2023-09-20T18:00	29191	13	-49.6	-81.1	290	10
2023-09-20T18:00	29205	13	-49.6	-81.1	290	10
2023-09-20T18:00	29239	13	-49.5	-81.1	291	10
2023-09-20T18:00	29269	13	-49.5	-81.1	292	10
2023-09-20T18:00	29302	13	-49.3	-80.9	292	9
2023-09-20T18:00	29333	13	-49.4	-81.0	293	9
2023-09-20T18:00	29370	13	-49.4	-81.0	293	8
2023-09-20T18:00	29396	13	-49.6	-81.1	293	7
2023-09-20T18:00	29432	13	-49.7	-80.7	293	7
2023-09-20T18:00	29446	13	-49.8	-80.8	290	6
2023-09-20T18:00	29480	13	-49.8	-80.8	287	6
2023-09-20T18:00	29525	13	-49.9	-80.8	282	6
2023-09-20T18:00	29537	13	-50.0	-80.9	276	6
2023-09-20T18:00	29577	13	-50.1	-81.0	272	6
2023-09-20T18:00	29618	13	-50.1	-81.0	268	6
2023-09-20T18:00	29641	13	-50.2	-81.0	266	7
2023-09-20T18:00	29679	12	-50.2	-81.0	265	7
2023-09-20T18:00	29714	12	-50.3	-81.1	265	8
2023-09-20T18:00	29747	12	-50.5	-81.3	265	8
2023-09-20T18:00	29767	12	-50.3	-81.1	266	9
2023-09-20T18:00	29803	12	-50.3	-81.1	267	9
2023-09-20T18:00	29832	12	-50.2		269	9
2023-09-20T18:00	29873	12	-50.2		270	9
2023-09-20T18:00	29902	12	-49.9	-81.3	272	9
2023-09-20T18:00	29931	12	-49.5	-81.1	274	9
2023-09-20T18:00	29971	12	-49.4	-81.0	276	9
2023-09-20T18:00	29985	12	-49.3	-80.9	279	9
2023-09-20T18:00	30023	12	-49.6	-81.1	281	9
2023-09-20T18:00	30063	12	-49.8	-81.3	283	9
2023-09-20T18:00	30080	12	-49.9	-81.3	284	9
2023-09-20T18:00	30126	12	-49.9	-81.3	284	9
2023-09-20T18:00	30136	12	-50.0	-80.9	283	9
2023-09-20T18:00	30174	12	-50.0	-81.4	281	9
2023-09-20T18:00	30215	11	-49.9	-81.3	279	9
2023-09-20T18:00	30239	11	-49.9	-81.3	278	10
2023-09-20T18:00	30268	11	-49.9	-81.3	277	10
2023-09-20T18:00	30310	11	-50.0	-81.4	276	11
2023-09-20T18:00	30323	11	-50.0	-81.4	276	11
2023-09-20T18:00	30361	11	-50.1	-81.5	275	11
2023-09-20T18:00	30375	11	-50.1	-81.5	275	11
2023-09-20T18:00	30412	11	-49.8	-81.3	275	11
2023-09-20T18:00	30446	11	-49.8	-81.3	274	11
2023-09-20T18:00	30469	11	-49.8	-81.3	273	11
2023-09-20T18:00	30502	11	-49.4	-81.0	272	11
2023-09-20T18:00	30512	11	-49.4	-81.0	272	11
2023-09-20T18:00	30558	11	-49.3	-81.5	272	11
2023-09-20T18:00	30589	11	-49.2	-81.4	272	12
2023-09-20T18:00	30608	11	-48.9	-81.2	273	12
2023-09-20T18:00	30635	11	-48.6	-81.0	274	13
2023-09-20T18:00	30666	11	-48.5	-80.9	274	13
2023-09-20T18:00	30697	11	-48.1	-80.6	275	13
2023-09-20T18:00	30712	11	-47.7	-80.9	276	14
2023-09-20T18:00	30743	11	-47.4	-80.7	276	14
2023-09-20T18:00	30762	11	-47.1	-80.5	277	14
2023-09-20T18:00	30795	11	-47.0	-80.4	277	14
2023-09-20T18:00	30832	10	-46.9	-80.4	278	15
2023-09-20T18:00	30851	10	-46.9	-80.4	279	15
2023-09-20T18:00	30878	10	-46.8	-80.3	279	15
2023-09-20T18:00	30897	10	-46.3	-79.9	280	15
2023-09-20T18:00	30937	10	-46.1	-79.8	281	15
2023-09-20T18:00	30982	10	-45.9	-79.6	281	15
2023-09-20T18:00	31006	10	-45.6		281	16
2023-09-20T18:00	31031	10	-45.4	-79.3	281	16
2023-09-20T18:00	31059	10	-45.3	-79.2	281	16
2023-09-20T18:00	31084	10	-44.9	-78.9	281	17
2023-09-20T18:00	31121	10	-44.7	-78.8	282	17
2023-09-20T18:00	31157	10	-44.8	-78.8	283	17
2023-09-20T18:00	31191	10	-44.8	-78.8	284	17
2023-09-20T18:00	31227	10	-44.6	-78.7	286	17
2023-09-20T18:00	31256	10	-44.8	-78.8	287	17
2023-09-20T18:00	31277	10	-45.1	-79.0	288	17
2023-09-20T18:00	31304	10	-45.2	-78.5	290	17
2023-09-20T18:00	31333	10	-45.4	-78.6	290	16
2023-09-20T18:00	31379	10	-45.5	-78.7	290	15
2023-09-20T18:00	31418	10	-45.6	-78.8	290	14
2023-09-20T18:00	31448	10	-45.6	-78.8	290	14
2023-09-20T18:00	31464	10	-45.8	-78.9	290	13
2023-09-20T18:00	31520	9	-45.8	-78.9	291	12
2023-09-20T18:00	31547	9	-45.7	-78.8	294	12
2023-09-20T18:00	31566	9	-45.7	-78.8	298	12
2023-09-20T18:00	31623	9	-45.8	-79.6	305	12
2023-09-20T18:00	31647	9	-45.2	-79.1	307	11
2023-09-20T18:00	31680	9	-45.2	-79.1	308	11
2023-09-20T18:00	31720	9	-45.4	-79.3	309	11
2023-09-20T18:00	31743	9	-45.5	-79.3	309	10
2023-09-20T18:00	31793	9	-45.7	-79.5	310	9
2023-09-20T18:00	31839	9	-46.0	-79.1	311	8
2023-09-20T18:00	31869	9	-46.0	-79.1	310	8
2023-09-20T18:00	31890	9	-45.6		310	8
2023-09-20T18:00	31913	9	-45.5	-79.3	310	8
2023-09-20T18:00	31954	9	-45.4	-79.3	310	8
2023-09-20T18:00	31987	9	-45.4	-79.3	310	8
2023-09-20T18:00	32021	9	-45.6		311	7
2023-09-20T18:00	32024	9	-45.8	-78.9	310	7
2023-09-20T18:00	32080	9	-46.0	-79.1	308	7
2023-09-20T18:00	32083	9	-46.1	-79.1	304	7
2023-09-20T18:00	32085	9	-46.0	-79.1	299	7
2023-09-20T18:00	32166	9	-46.0	-79.1	294	6
2023-09-20T18:00	32184	9	-45.9	-79.0	288	6
2023-09-20T18:00	32210	9	-45.9	-79.0	283	6
2023-09-20T18:00	32240	9	-46.0	-79.1	278	6
2023-09-20T18:00	32267	8	-46.1	-79.1	273	6
2023-09-20T18:00	32284	8	-46.1	-79.1	269	6
2023-09-20T18:00	32323	8	-46.2	-79.8	265	7
2023-09-20T18:00	32367	8	-46.0	-79.7	260	7
2023-09-20T18:00	32406	8	-45.7	-79.5	259	7
2023-09-20T18:00	32438	8	-45.9	-79.6	259	7
2023-09-20T18:00	32460	8	-46.0	-79.7	260	7
2023-09-20T18:00	32465	8	-46.0	-79.7	261	7
2023-09-20T18:00	32495	8	-46.0	-79.7	261	8
2023-09-20T18:00	32554	8	-46.1	-79.8	260	8
2023-09-20T18:00	32599	8	-45.4	-79.3	258	9
2023-09-20T18:00	32617	8	-45.2	-79.1	256	10
2023-09-20T18:00	32656	8	-45.1	-79.8	255	12
2023-09-20T18:00	32696	8	-44.7	-79.5	255	13
2023-09-20T18:00	32736	8	-44.2	-79.1	255	13
2023-09-20T18:00	32740	8	-43.7	-78.8	256	14
2023-09-20T18:00	32794	8	-43.7	-78.8	256	15
2023-09-20T18:00	32810	8	-43.8	-78.8	258	15
2023-09-20T18:00	32832	8	-43.8	-78.8	259	15
2023-09-20T18:00	32853	8	-43.7	-78.8	262	15
2023-09-20T18:00	32909	8	-43.5	-78.6	264	15
2023-09-20T18:00	32955	8	-43.8	-78.1	266	15
2023-09-20T18:00	32998	8	-44.0	-78.2	268	16
2023-09-20T18:00	33056	8	-44.1	-78.3	271	16
2023-09-20T18:00	33077	7	-44.2	-78.4	272	16
2023-09-20T18:00	33120	7	-44.3	-78.5	273	16
2023-09-20T18:00	33180	7	-44.2	-78.4	274	16
2023-09-20T18:00	33181	7	-44.2	-79.1	274	16
2023-09-20T18:00	33231	7	-44.0	-79.0	274	16
2023-09-20T18:00	33271	7	-43.7	-78.8	274	16
2023-09-20T18:00	33305	7	-43.5	-78.6	275	16
2023-09-20T18:00	33312	7	-43.3	-78.5	276	17
2023-09-20T18:00	33340	7	-43.2	-78.4	277	17
2023-09-20T18:00	33411	7	-42.9	-78.2	278	17
2023-09-20T18:00	33439	7	-42.5	-77.9	279	17
2023-09-20T18:00	33443	7	-42.4	-77.8	280	17
2023-09-20T18:00	33482	7	-42.1	-78.4	280	17
2023-09-20T18:00	33509	7	-42.0	-78.4	281	17
2023-09-20T18:00	33521	7	-41.8	-78.2	281	17
2023-09-20T18:00	33573	7	-41.8	-78.2	282	17
2023-09-20T18:00	33614	7	-41.5	-78.0	283	17
2023-09-20T18:00	33660	7	-40.3	-77.2	285	17
2023-09-20T18:00	33696	7	-39.8	-76.8	286	16
2023-09-20T18:00	33718	7	-39.6	-76.7	287	17
2023-09-20T18:00	33754	7	-39.6	-76.7	288	17
2023-09-20T18:00	33779	7	-39.6	-76.7	287	17
2023-09-20T18:00	33808	7	-39.3	-76.4	286	17
2023-09-20T18:00	33832	7	-39.0	-76.2	284	18
2023-09-20T18:00	33839	7	-38.8	-77.1	282	18
2023-09-20T18:00	33854	7	-38.8	-77.1	281	19
2023-09-20T18:00	33873	7	-38.6	-76.9	281	19
2023-09-20T18:00	33935	7	-37.8	-76.4	282	18
2023-09-20T18:00	33940	7	-36.7	-75.6	284	18
2023-09-20T18:00	33994	7	-36.3	-75.3	290	17
2023-09-20T18:00	34051	7	-36.4	-75.4	294	17
2023-09-20T18:00	34103	6	-36.4	-75.4	299	17
2023-09-20T18:00	34132	6	-36.5	-75.5	302	17
2023-09-20T18:00	34165	6	-36.6	-75.5	304	17
2023-09-20T18:00	34168	6	-36.7	-75.6	306	18
2023-09-20T18:00	34220	6	-36.9	-74.7	308	18
2023-09-20T18:00	34257	6	-37.1	-74.9	310	18
2023-09-20T18:00	34260	6	-37.3	-75.0	311	18
2023-09-20T18:00	34292	6	-37.4	-75.1	313	18
2023-09-20T18:00	34298	6	-37.6	-75.2	314	19
2023-09-20T18:00	34302	6	-37.7	-75.3	316	19
2023-09-20T18:00	34365	6	-37.8	-75.4	318	19
2023-09-20T18:00	34383	6	-37.9	-75.5	322	20
2023-09-20T18:00	34454	6	-38.1	-75.6	324	20
2023-09-20T18:00	34494	6	-38.2	-75.7	328	21
2023-09-20T18:00	34539	6	-38.2	-75.7	329	21
2023-09-20T18:00	34541	6	-38.2	-75.7	330	20
2023-09-20T18:00	34548	6	-38.3	-76.7	329	19
2023-09-20T18:00	34630	6	-37.5	-76.2	327	18
2023-09-20T18:00	34670	6	-37.0	-75.8	325	17
2023-09-20T18:00	34742	6	-36.7	-75.6	318	15
2023-09-20T18:00	34761	6	-36.7	-75.6	314	15
2023-09-20T18:00	34809	6	-36.8	-75.7	310	14
2023-09-20T18:00	34826	6	-36.8	-75.7	300	13
2023-09-20T18:00	34874	6	-36.9	-75.7	296	12
2023-09-20T18:00	34931	6	-36.9	-75.7	291	12
2023-09-20T18:00	34942	6	-36.9	-75.7	287	12
2023-09-20T18:00	34965	6	-36.9	-75.7	283	12
2023-09-20T18:00	35039	6	-37.1	-75.9	280	12
2023-09-20T18:00	35063	6	-37.3	-76.0	277	12
2023-09-20T18:00	35110	6	-37.5	-75.2	276	11
2023-09-20T18:00	35151	6	-37.6	-76.2	273	11
2023-09-20T18:00	35237	5	-37.4	-76.1	272	10
2023-09-20T18:00	35238	5	-37.4	-76.1	272	10
2023-09-20T18:00	35273	5	-37.3	-76.0	273	10
2023-09-20T18:00	35305	5	-37.1	-75.9	274	10
2023-09-20T18:00	35347	5	-37.0	-75.8	275	10
2023-09-20T18:00	35381	5	-37.1	-75.9	276	11
2023-09-20T18:00	35423	5	-37.3	-76.0	276	10
2023-09-20T18:00	35459	5	-37.1	-75.9	276	10
2023-09-20T18:00	35514	5	-36.9	-75.7	276	10
2023-09-20T18:00	35515	5	-36.9	-75.7	276	10
2023-09-20T18:00	35530	5	-37.0	-75.8	276	10
2023-09-21T00:00	113	996	16.9	12.0	156	3
2023-09-21T00:00	140	993	17.2	11.8	164	4
2023-09-21T00:00	168	989	18.0	11.6	167	7
2023-09-21T00:00	190	987	18.4	11.5	170	9
2023-09-21T00:00	213	984	19.4	11.0	174	10
2023-09-21T00:00	239	981	20.0	10.8	178	11
2023-09-21T00:00	256	979	20.2	10.5	183	11
2023-09-21T00:00	277	977	20.5	10.1	188	11
2023-09-21T00:00	300	974	21.1	9.7	193	11
2023-09-21T00:00	329	971	21.2	9.5	198	10
2023-09-21T00:00	354	968	21.3	9.6	202	10
2023-09-21T00:00	383	965	21.3	9.9	204	10
2023-09-21T00:00	406	963	21.2	10.2	207	9
2023-09-21T00:00	427	960	21.0	10.1	209	9
2023-09-21T00:00	452	957	21.1	10.3	212	9
2023-09-21T00:00	472	955	21.0	10.1	215	8
2023-09-21T00:00	495	952	20.9	10.1	216	8
2023-09-21T00:00	522	949	20.7	10.0	217	8
2023-09-21T00:00	553	946	20.5	9.8	217	8
2023-09-21T00:00	579	943	20.4	9.9	216	8
2023-09-21T00:00	612	940	20.2	9.8	214	8
2023-09-21T00:00	638	937	20.0	9.7	212	8
2023-09-21T00:00	661	934	19.8	9.7	210	8
2023-09-21T00:00	683	932	19.5	9.6	209	8
2023-09-21T00:00	709	929	19.3	9.6	208	8
2023-09-21T00:00	734	927	19.1	9.5	208	8
2023-09-21T00:00	758	924	18.9	9.4	209	9
2023-09-21T00:00	780	922	18.7	9.3	208	9
2023-09-21T00:00	807	919	18.5	9.0	208	9
2023-09-21T00:00	837	916	18.2	8.7	207	8
2023-09-21T00:00	859	913	18.0	8.7	207	8
2023-09-21T00:00	885	910	17.8	8.8	207	8
2023-09-21T00:00	912	907	17.6	8.6	207	8
2023-09-21T00:00	942	904	17.3	8.0	207	8
2023-09-21T00:00	971	901	17.1	7.3	206	8
2023-09-21T00:00	1000	898	16.9	6.9	205	8
2023-09-21T00:00	1024	896	16.7	6.3	203	8
2023-09-21T00:00	1045	893	16.7	5.3	201	9
2023-09-21T00:00	1069	891	16.5	5.6	200	9
2023-09-21T00:00	1093	888	16.3	5.7	198	9
2023-09-21T00:00	1118	886	16.1	5.7	197	9
2023-09-21T00:00	1147	883	15.8	5.3	197	9
2023-09-21T00:00	1171	880	15.6	5.5	195	9
2023-09-21T00:00	1193	878	15.4	5.3	194	9
2023-09-21T00:00	1217	876	15.1	6.2	192	10
2023-09-21T00:00	1240	873	14.9	7.1	190	10
2023-09-21T00:00	1268	870	14.6	6.7	190	10
2023-09-21T00:00	1290	868	14.5	6.2	190	10
2023-09-21T00:00	1320	865	14.3	5.8	191	11
2023-09-21T00:00	1352	862	14.1	5.2	193	11
2023-09-21T00:00	1382	859	14.0	3.1	194	11
2023-09-21T00:00	1407	856	13.9	2.5	194	12
2023-09-21T00:00	1428	854	13.8	2.0	194	12
2023-09-21T00:00	1457	851	13.6	1.7	194	12
2023-09-21T00:00	1486	848	13.4	1.0	193	12
2023-09-21T00:00	1511	846	13.3	0.1	193	12
2023-09-21T00:00	1537	843	13.1	-0.5	192	12
2023-09-21T00:00	1566	840	12.8	-1.0	191	12
2023-09-21T00:00	1593	837	12.6	-1.1	190	11
2023-09-21T00:00	1615	835	12.4	-0.5	189	11
2023-09-21T00:00	1641	833	12.3	-0.2	189	11
2023-09-21T00:00	1669	830	12.1	2.8	190	10
2023-09-21T00:00	1695	827	11.8	3.6	191	10
2023-09-21T00:00	1724	824	11.7	3.5	194	10
2023-09-21T00:00	1749	822	11.6	3.6	195	9
2023-09-21T00:00	1779	819	11.4	3.7	196	9
2023-09-21T00:00	1804	816	11.2	3.8	196	9
2023-09-21T00:00	1831	814	11.0	3.8	193	9
2023-09-21T00:00	1856	811	10.8	3.7	189	8
2023-09-21T00:00	1886	809	10.6	3.5	186	8
2023-09-21T00:00	1910	806	10.3	3.4	182	8
2023-09-21T00:00	1930	804	10.2	3.3	180	8
2023-09-21T00:00	1951	802	10.1	3.1	180	8
2023-09-21T00:00	1974	800	9.9		181	8
2023-09-21T00:00	1993	798	9.8	2.9	183	8
2023-09-21T00:00	2023	795	9.6	2.5	185	8
2023-09-21T00:00	2049	793	9.5	2.4	187	8
2023-09-21T00:00	2072	791	9.3	2.5	189	8
2023-09-21T00:00	2097	788	9.1	2.4	190	7
2023-09-21T00:00	2121	786	9.0	1.7	191	7
2023-09-21T00:00	2151	783	8.8	1.9	191	7
2023-09-21T00:00	2179	780	8.6	1.7	192	7
2023-09-21T00:00	2206	778	8.4	1.5	192	7
2023-09-21T00:00	2228	776	8.3	1.3	193	7
2023-09-21T00:00	2253	774	8.1	1.2	193	7
2023-09-21T00:00	2277	771	8.0	1.6	194	8
2023-09-21T00:00	2306	769	7.9	1.4	196	8
2023-09-21T00:00	2331	766	7.9	1.2	198	8
2023-09-21T00:00	2360	764	7.9	0.5	201	8
2023-09-21T00:00	2381	762	8.0	-1.2	205	8
2023-09-21T00:00	2406	759	8.1	-0.9	208	9
2023-09-21T00:00	2430	757	8.1	-0.9	210	9
2023-09-21T00:00	2458	755	8.0	-1.0	211	9
2023-09-21T00:00	2479	752	7.9	-0.4	212	10
2023-09-21T00:00	2506	750	7.7	-0.5	211	10
2023-09-21T00:00	2525	748	7.6	-0.1	210	10
2023-09-21T00:00	2549	746	7.4	-0.1	209	10
2023-09-21T00:00	2575	744	7.2	0.0	207	10
2023-09-21T00:00	2599	742	7.0	0.1	206	11
2023-09-21T00:00	2619	740	6.8	0.4	207	11
2023-09-21T00:00	2641	738	6.7	0.3	209	11
2023-09-21T00:00	2671	735	6.6	0.2	212	11
2023-09-21T00:00	2702	733	6.5	0.1	215	11
2023-09-21T00:00	2727	730	6.5	-0.4	217	11
2023-09-21T00:00	2752	728	6.4	0.3	219	11
2023-09-21T00:00	2776	726	6.5	-0.2	220	11
2023-09-21T00:00	2805	723	6.6	-0.2	222	11
2023-09-21T00:00	2833	721	6.6	-0.3	224	11
2023-09-21T00:00	2853	719	6.4	-0.3	226	11
2023-09-21T00:00	2880	717	6.3	-0.4	227	11
2023-09-21T00:00	2911	714	6.2	-0.5	228	11
2023-09-21T00:00	2938	712	6.0	-0.5	227	11
2023-09-21T00:00	2966	709	5.8	-0.7	226	10
2023-09-21T00:00	2986	708	5.6	-0.7	225	10
2023-09-21T00:00	3008	706	5.4	-0.8	225	10
2023-09-21T00:00	3033	703	5.2	-0.9	226	10
2023-09-21T00:00	3062	701	5.1	-1.0	228	11
2023-09-21T00:00	3088	699	5.0	-1.3	230	11
2023-09-21T00:00	3114	697	4.8	-1.3	231	12
2023-09-21T00:00	3138	695	4.7	-1.4	231	12
2023-09-21T00:00	3163	692	4.6	-1.5	230	12
2023-09-21T00:00	3192	690	4.4	-1.5	229	12
2023-09-21T00:00	3211	688	4.3	-1.6	227	11
2023-09-21T00:00	3237	686	4.1	-1.8	226	11
2023-09-21T00:00	3265	684	4.0	-2.0	225	12
2023-09-21T00:00	3294	681	3.9	-2.2	225	12
2023-09-21T00:00	3322	679	3.8	-2.0	224	12
2023-09-21T00:00	3347	677	3.7	-2.1	222	12
2023-09-21T00:00	3367	675	3.5	-1.7	219	11
2023-09-21T00:00	3394	673	3.3	-1.5	215	11
2023-09-21T00:00	3416	671	3.3	-2.0	211	11
2023-09-21T00:00	3445	669	3.3	-1.6	209	10
2023-09-21T00:00	3475	666	3.3	-1.9	208	10
2023-09-21T00:00	3506	664	3.3	-2.4	207	10
2023-09-21T00:00	3527	662	3.2	-2.5	206	10
2023-09-21T00:00	3550	660	3.2	-2.6	204	10
2023-09-21T00:00	3576	658	3.1	-2.9	201	10
2023-09-21T00:00	3596	657	2.9	-3.0	198	10
2023-09-21T00:00	3617	655	2.8	-3.2	197	11
2023-09-21T00:00	3637	653	2.6	-3.2	197	10
2023-09-21T00:00	3668	651	2.3	-3.3	198	10
2023-09-21T00:00	3695	649	2.1	-3.2	200	10
2023-09-21T00:00	3719	647	1.9	-3.3	201	9
2023-09-21T00:00	3735	645	1.8	-3.3	202	9
2023-09-21T00:00	3757	643	1.6	-3.3	202	8
2023-09-21T00:00	3790	641	1.3	-3.6	201	8
2023-09-21T00:00	3816	639	1.1	-3.8	200	8
2023-09-21T00:00	3842	637	1.0	-4.1	199	8
2023-09-21T00:00	3868	635	0.8	-3.9	198	8
2023-09-21T00:00	3896	633	0.5	-4.1	197	9
2023-09-21T00:00	3919	631	0.3	-4.2	196	9
2023-09-21T00:00	3945	629	0.2	-4.5	197	9
2023-09-21T00:00	3967	627	0.2	-4.6	197	9
2023-09-21T00:00	3987	625	0.1	-4.8	198	10
2023-09-21T00:00	4015	623	-0.2	-4.9	197	10
2023-09-21T00:00	4041	621	-0.4	-5.0	197	10
2023-09-21T00:00	4065	619	-0.6	-5.1	196	10
2023-09-21T00:00	4088	617	-0.8	-5.3	196	9
2023-09-21T00:00	4115	616	-0.9	-5.4	196	9
2023-09-21T00:00	4138	614	-1.1	-5.6	196	9
2023-09-21T00:00	4168	612	-1.4	-5.7	197	9
2023-09-21T00:00	4192	610	-1.6	-5.7	197	9
2023-09-21T00:00	4215	608	-1.8	-5.8	197	9
2023-09-21T00:00	4238	606	-2.0	-5.8	196	9
2023-09-21T00:00	4266	604	-2.3	-6.0	194	9
2023-09-21T00:00	4293	602	-2.5	-6.0	192	10
2023-09-21T00:00	4318	600	-2.6	-6.3	191	10
2023-09-21T00:00	4339	598	-2.8	-6.6	192	11
2023-09-21T00:00	4365	596	-2.9	-7.0	194	11
2023-09-21T00:00	4387	595	-3.0	-7.2	197	11
2023-09-21T00:00	4409	593	-3.1	-7.4	201	11
2023-09-21T00:00	4437	591	-3.4	-7.5	205	11
2023-09-21T00:00	4465	589	-3.6	-7.4	209	11
2023-09-21T00:00	4491	587	-3.8	-7.4	212	11
2023-09-21T00:00	4509	586	-4.0	-7.9	213	11
2023-09-21T00:00	4538	584	-4.1	-8.0	213	11
2023-09-21T00:00	4566	582	-4.3	-8.6	212	11
2023-09-21T00:00	4587	580	-4.4	-9.1	211	11
2023-09-21T00:00	4605	579	-4.5	-9.2	211	11
2023-09-21T00:00	4635	576	-4.7	-9.2	210	11
2023-09-21T00:00	4664	574	-5.0	-9.2	209	10
2023-09-21T00:00	4690	573	-5.2	-9.2	207	10
2023-09-21T00:00	4711	571	-5.4	-9.5	207	11
2023-09-21T00:00	4734	569	-5.5	-9.5	207	11
2023-09-21T00:00	4764	567	-5.8	-9.7	207	11
2023-09-21T00:00	4788	565	-5.9	-9.7	208	11
2023-09-21T00:00	4816	563	-6.2	-10.0	208	11
2023-09-21T00:00	4842	561	-6.4	-10.0	209	11
2023-09-21T00:00	4864	560	-6.6	-10.1	210	11
2023-09-21T00:00	4892	558	-6.7	-10.3	212	11
2023-09-21T00:00	4915	556	-6.9	-10.4	213	11
2023-09-21T00:00	4932	555	-7.1	-10.6	215	11
2023-09-21T00:00	4952	554	-7.3	-10.7	215	11
2023-09-21T00:00	4974	552	-7.4	-10.7	214	11
2023-09-21T00:00	5009	550	-7.7	-10.9	214	10
2023-09-21T00:00	5032	548	-7.9	-11.0	214	10
2023-09-21T00:00	5055	546	-8.0	-11.0	216	10
2023-09-21T00:00	5082	544	-8.3	-11.3	218	10
2023-09-21T00:00	5104	543	-8.4	-11.5	221	10
2023-09-21T00:00	5129	541	-8.6	-11.6	223	10
2023-09-21T00:00	5162	539	-8.8	-11.8	223	10
2023-09-21T00:00	5178	538	-8.9	-11.8	223	10
2023-09-21T00:00	5199	536	-9.1	-11.9	223	10
2023-09-21T00:00	5223	535	-9.3	-12.0	222	10
2023-09-21T00:00	5253	533	-9.5	-12.2	222	9
2023-09-21T00:00	5281	531	-9.7	-12.6	223	9
2023-09-21T00:00	5305	529	-9.7	-13.1	224	9
2023-09-21T00:00	5325	528	-9.8	-13.3	224	9
2023-09-21T00:00	5345	526	-10.0	-13.4	224	10
2023-09-21T00:00	5375	524	-10.2	-13.7	223	11
2023-09-21T00:00	5407	522	-10.2	-13.9	222	11
2023-09-21T00:00	5422	521	-10.3	-14.0	222	11
2023-09-21T00:00	5446	519	-10.4	-14.3	221	11
2023-09-21T00:00	5477	517	-10.4	-14.4	220	10
2023-09-21T00:00	5508	515	-10.7	-14.5	218	10
2023-09-21T00:00	5537	513	-11.0	-14.7	216	9
2023-09-21T00:00	5570	511	-11.2	-14.7	213	9
2023-09-21T00:00	5597	509	-11.5	-15.0	211	9
2023-09-21T00:00	5624	507	-11.6	-15.1	211	9
2023-09-21T00:00	5651	506	-11.8	-15.5	211	9
2023-09-21T00:00	5682	504	-11.9	-16.0	211	9
2023-09-21T00:00	5702	502	-12.0	-16.2	211	9
2023-09-21T00:00	5720	501	-12.1	-16.3	210	8
2023-09-21T00:00	5741	500	-12.2	-16.6	208	8
2023-09-21T00:00	5767	498	-12.2	-17.3	207	8
2023-09-21T00:00	5788	497	-12.4	-17.3	207	8
2023-09-21T00:00	5817	495	-12.6	-17.3	208	9
2023-09-21T00:00	5842	493	-12.8	-17.4	210	9
2023-09-21T00:00	5862	492	-12.9	-17.6	211	10
2023-09-21T00:00	5890	490	-13.0	-17.8	211	10
2023-09-21T00:00	5912	489	-13.2	-18.0	211	10
2023-09-21T00:00	5934	487	-13.4	-18.0	210	10
2023-09-21T00:00	5963	486	-13.7	-18.2	209	10
2023-09-21T00:00	5986	484	-13.9	-18.3	209	9
2023-09-21T00:00	6004	483	-14.0	-18.3	209	9
2023-09-21T00:00	6021	482	-14.2	-18.3	210	9
2023-09-21T00:00	6039	481	-14.3	-18.3	212	9
2023-09-21T00:00	6060	479	-14.5	-18.1	214	9
2023-09-21T00:00	6088	477	-14.7	-18.2	215	9
2023-09-21T00:00	6129	475	-15.1	-18.3	217	9
2023-09-21T00:00	6153	474	-15.3	-18.4	217	9
2023-09-21T00:00	6171	472	-15.5	-18.5	216	9
2023-09-21T00:00	6201	470	-15.8	-18.7	215	8
2023-09-21T00:00	6226	469	-16.0	-18.7	214	8
2023-09-21T00:00	6254	467	-16.2	-18.8	214	8
2023-09-21T00:00	6271	466	-16.4	-18.9	214	9
2023-09-21T00:00	6292	465	-16.6	-18.9	214	9
2023-09-21T00:00	6313	464	-16.8	-18.9	215	9
2023-09-21T00:00	6332	462	-17.0	-19.1	215	10
2023-09-21T00:00	6360	461	-17.2	-19.9	216	10
2023-09-21T00:00	6390	459	-17.2	-20.7	215	10
2023-09-21T00:00	6418	457	-17.4	-20.7	214	10
2023-09-21T00:00	6448	455	-17.7	-20.7	212	10
2023-09-21T00:00	6471	454	-17.9	-20.8	211	10
2023-09-21T00:00	6501	452	-18.2	-20.8	210	11
2023-09-21T00:00	6522	451	-18.4	-20.9	210	11
2023-09-21T00:00	6544	449	-18.6	-21.1	210	11
2023-09-21T00:00	6570	448	-18.8	-21.1	210	11
2023-09-21T00:00	6599	446	-19.1	-21.2	208	12
2023-09-21T00:00	6621	445	-19.3	-21.2	205	12
2023-09-21T00:00	6647	443	-19.6	-21.3	203	12
2023-09-21T00:00	6673	442	-19.8	-21.4	201	11
2023-09-21T00:00	6693	440	-20.0	-21.4	200	11
2023-09-21T00:00	6725	439	-20.3	-21.4	199	11
2023-09-21T00:00	6748	437	-20.5	-21.4	198	10
2023-09-21T00:00	6776	436	-20.8	-21.5	198	11
2023-09-21T00:00	6803	434	-21.0	-21.4	198	11
2023-09-21T00:00	6830	432	-21.2	-21.4	199	11
2023-09-21T00:00	6857	431	-21.4	-21.9	199	11
2023-09-21T00:00	6884	429	-21.6	-22.5	199	11
2023-09-21T00:00	6910	428	-21.9	-22.0	198	11
2023-09-21T00:00	6938	426	-22.1	-22.6	197	11
2023-09-21T00:00	6966	424	-22.4	-22.6	196	11
2023-09-21T00:00	6994	423	-22.6	-22.7	194	11
2023-09-21T00:00	7023	421	-22.8	-23.0	193	11
2023-09-21T00:00	7053	419	-23.0	-23.1	191	10
2023-09-21T00:00	7085	418	-23.2	-23.3	190	10
2023-09-21T00:00	7112	416	-23.6	-23.7	189	10
2023-09-21T00:00	7143	414	-23.8	-23.9	189	10
2023-09-21T00:00	7171	413	-24.1	-24.2	191	10
2023-09-21T00:00	7201	411	-24.4	-24.5	193	10
2023-09-21T00:00	7221	410	-24.4	-24.6	193	10
2023-09-21T00:00	7243	409	-24.5	-25.4	193	10
2023-09-21T00:00	7269	407	-24.7	-25.6	190	10
2023-09-21T00:00	7298	406	-24.9	-26.3	187	10
2023-09-21T00:00	7319	404	-25.0	-26.5	186	10
2023-09-21T00:00	7347	403	-25.2	-26.6	186	10
2023-09-21T00:00	7378	401	-25.4	-26.8	187	10
2023-09-21T00:00	7400	400	-25.5	-26.9	190	10
2023-09-21T00:00	7422	399	-25.6	-27.1	192	9
2023-09-21T00:00	7451	397	-25.7	-27.2	196	9
2023-09-21T00:00	7479	396	-25.7	-27.7	199	8
2023-09-21T00:00	7507	394	-25.8	-28.1	203	7
2023-09-21T00:00	7534	393	-25.9	-28.3	205	6
2023-09-21T00:00	7564	391	-26.0	-28.3	205	5
2023-09-21T00:00	7586	390	-26.1	-28.4	204	5
2023-09-21T00:00	7605	389	-26.2	-28.5	202	5
2023-09-21T00:00	7624	388	-26.3	-30.0	201	5
2023-09-21T00:00	7645	387	-26.3	-29.9	202	5
2023-09-21T00:00	7666	386	-26.3	-29.4	202	5
2023-09-21T00:00	7690	384	-26.4	-29.4	204	5
2023-09-21T00:00	7720	383	-26.4	-29.5	205	5
2023-09-21T00:00	7752	381	-26.6	-30.3	206	5
2023-09-21T00:00	7781	379	-26.8	-30.8	207	6
2023-09-21T00:00	7804	378	-26.9	-30.9	207	6
2023-09-21T00:00	7827	377	-27.0	-31.9	205	6
2023-09-21T00:00	7847	376	-27.0	-33.6	203	6
2023-09-21T00:00	7870	375	-27.1	-33.9	201	6
2023-09-21T00:00	7892	374	-27.1	-38.3	199	7
2023-09-21T00:00	7916	372	-27.1	-40.9	198	7
2023-09-21T00:00	7945	371	-27.0	-41.8	196	8
2023-09-21T00:00	7979	369	-27.0	-42.3	194	8
2023-09-21T00:00	8005	368	-27.2	-41.9	191	9
2023-09-21T00:00	8030	367	-27.3	-41.8	188	9
2023-09-21T00:00	8058	365	-27.5	-41.7	185	9
2023-09-21T00:00	8090	364	-27.8	-41.6	183	9
2023-09-21T00:00	8111	362	-27.9	-41.6	182	9
2023-09-21T00:00	8134	361	-28.1	-41.7	182	9
2023-09-21T00:00	8162	360	-28.4	-42.2	182	9
2023-09-21T00:00	8190	358	-28.6	-42.8	182	9
2023-09-21T00:00	8222	357	-28.8	-43.8	181	10
2023-09-21T00:00	8242	356	-28.9	-45.3	180	10
2023-09-21T00:00	8268	355	-29.1	-45.4	180	10
2023-09-21T00:00	8298	353	-29.4	-44.1	181	10
2023-09-21T00:00	8331	352	-29.7	-43.4	183	10
2023-09-21T00:00	8359	350	-30.0	-43.4	184	10
2023-09-21T00:00	8390	349	-30.3	-43.3	185	10
2023-09-21T00:00	8420	347	-30.6	-43.6	186	10
2023-09-21T00:00	8448	346	-30.8	-43.6	185	10
2023-09-21T00:00	8481	344	-31.2	-43.7	184	10
2023-09-21T00:00	8505	343	-31.4	-43.9	184	10
2023-09-21T00:00	8531	342	-31.6	-44.6	184	10
2023-09-21T00:00	8562	340	-31.9	-44.5	185	10
2023-09-21T00:00	8586	339	-32.2	-44.3	185	10
2023-09-21T00:00	8610	338	-32.4	-44.5	185	10
2023-09-21T00:00	8634	337	-32.6	-44.4	185	9
2023-09-21T00:00	8659	336	-32.9	-44.5	185	9
2023-09-21T00:00	8690	334	-33.2	-44.5	185	8
2023-09-21T00:00	8715	333	-33.4	-44.0	186	7
2023-09-21T00:00	8749	331	-33.7	-43.1	186	7
2023-09-21T00:00	8796	329	-34.1	-42.2	185	6
2023-09-21T00:00	8823	328	-34.4	-42.6	183	6
2023-09-21T00:00	8845	327	-34.6	-42.4	181	6
2023-09-21T00:00	8868	326	-34.8	-42.5	180	7
2023-09-21T00:00	8889	325	-35.0	-42.3	180	7
2023-09-21T00:00	8910	324	-35.1	-42.4	180	7
2023-09-21T00:00	8931	323	-35.3	-42.6	180	7
2023-09-21T00:00	8952	322	-35.5	-42.7	180	7
2023-09-21T00:00	8976	321	-35.7	-42.8	180	7
2023-09-21T00:00	8997	320	-35.9	-42.9	179	7
2023-09-21T00:00	9022	319	-36.1	-43.2	179	7
2023-09-21T00:00	9042	318	-36.2	-43.5	179	7
2023-09-21T00:00	9062	317	-36.4	-43.5	178	7
2023-09-21T00:00	9086	316	-36.6	-43.6	179	7
2023-09-21T00:00	9108	315	-36.8	-43.7	179	7
2023-09-21T00:00	9131	314	-37.1	-43.8	179	7
2023-09-21T00:00	9152	313	-37.3	-43.8	179	7
2023-09-21T00:00	9173	312	-37.5	-43.8	179	7
2023-09-21T00:00	9193	311	-37.7	-43.9	178	7
2023-09-21T00:00	9215	310	-37.9	-43.9	178	7
2023-09-21T00:00	9241	309	-38.1	-44.0	176	7
2023-09-21T00:00	9266	308	-38.4	-44.2	175	7
2023-09-21T00:00	9293	306	-38.6	-44.6	174	7
2023-09-21T00:00	9319	305	-38.6	-45.6	174	7
2023-09-21T00:00	9348	304	-38.9	-45.8	173	8
2023-09-21T00:00	9376	303	-39.1	-45.9	173	8
2023-09-21T00:00	9408	301	-39.4	-46.4	174	8
2023-09-21T00:00	9435	300	-39.7	-46.9	175	8
2023-09-21T00:00	9464	299	-39.9	-47.6	177	8
2023-09-21T00:00	9492	298	-40.2	-48.2	178	9
2023-09-21T00:00	9525	296	-40.4	-49.5	179	9
2023-09-21T00:00	9553	295	-40.4	-52.2	178	9
2023-09-21T00:00	9581	294	-40.6	-52.7	177	8
2023-09-21T00:00	9608	293	-40.7	-53.1	175	8
2023-09-21T00:00	9635	291	-40.9	-53.3	174	8
2023-09-21T00:00	9661	290	-41.1	-53.3	174	8
2023-09-21T00:00	9684	289	-41.3	-53.2	174	8
2023-09-21T00:00	9707	288	-41.5	-53.6	173	8
2023-09-21T00:00	9730	287	-41.7	-53.8	173	8
2023-09-21T00:00	9752	286	-41.9	-53.9	173	8
2023-09-21T00:00	9777	285	-42.1	-54.0	172	9
2023-09-21T00:00	9799	284	-42.3	-54.1	172	9
2023-09-21T00:00	9819	284	-42.5	-54.2	173	9
2023-09-21T00:00	9841	283	-42.6	-54.0	173	9
2023-09-21T00:00	9862	282	-42.8	-54.1	174	9
2023-09-21T00:00	9883	281	-43.0	-54.1	174	9
2023-09-21T00:00	9903	280	-43.2	-54.1	174	10
2023-09-21T00:00	9926	279	-43.4	-54.0	174	10
2023-09-21T00:00	9945	278	-43.6	-54.1	174	10
2023-09-21T00:00	9967	277	-43.8	-54.1	174	10
2023-09-21T00:00	9991	276	-44.0	-54.1	174	10
2023-09-21T00:00	10012	276	-44.2	-54.2	174	10
2023-09-21T00:00	10033	275	-44.4	-54.2	174	10
2023-09-21T00:00	10052	274	-44.6	-54.2	174	10
2023-09-21T00:00	10072	273	-44.8	-54.3	174	10
2023-09-21T00:00	10098	272	-45.0	-54.4	174	10
2023-09-21T00:00	10121	271	-45.2	-54.4	174	10
2023-09-21T00:00	10139	270	-45.4	-54.4	175	9
2023-09-21T00:00	10160	270	-45.6	-54.3	174	9
2023-09-21T00:00	10183	269	-45.9	-54.2	174	9
2023-09-21T00:00	10205	268	-46.1	-54.1	174	9
2023-09-21T00:00	10228	267	-46.3	-54.1	174	9
2023-09-21T00:00	10250	266	-46.5	-54.1	174	9
2023-09-21T00:00	10269	265	-46.7	-54.1	174	9
2023-09-21T00:00	10292	264	-46.9	-54.0	174	9
2023-09-21T00:00	10316	263	-47.1	-53.9	173	8
2023-09-21T00:00	10338	262	-47.4	-53.9	173	8
2023-09-21T00:00	10361	261	-47.6	-53.9	172	8
2023-09-21T00:00	10382	261	-47.7	-53.9	172	9
2023-09-21T00:00	10404	260	-47.9	-54.3	171	9
2023-09-21T00:00	10428	259	-48.0	-54.8	170	9
2023-09-21T00:00	10450	258	-48.2	-54.9	169	9
2023-09-21T00:00	10471	257	-48.4	-54.8	168	9
2023-09-21T00:00	10492	256	-48.5	-54.7	168	9
2023-09-21T00:00	10511	256	-48.7	-54.7	168	9
2023-09-21T00:00	10534	255	-48.9	-54.7	169	9
2023-09-21T00:00	10555	254	-49.1	-54.7	170	9
2023-09-21T00:00	10576	253	-49.4	-54.8	171	9
2023-09-21T00:00	10601	252	-49.6	-54.9	172	10
2023-09-21T00:00	10625	251	-49.8	-54.8	173	10
2023-09-21T00:00	10650	250	-50.1	-54.9	173	10
2023-09-21T00:00	10676	249	-50.3	-54.9	173	10
2023-09-21T00:00	10699	248	-50.5	-55.0	173	10
2023-09-21T00:00	10718	248	-50.7	-55.5	173	10
2023-09-21T00:00	10740	247	-50.8	-56.1	173	10
2023-09-21T00:00	10761	246	-50.9	-56.9	173	10
2023-09-21T00:00	10781	245	-51.0	-57.7	173	9
2023-09-21T00:00	10802	244	-51.1	-58.1	173	9
2023-09-21T00:00	10822	244	-51.2	-58.2	173	9
2023-09-21T00:00	10841	243	-51.2	-58.3	173	9
2023-09-21T00:00	10864	242	-51.4	-58.7	173	9
2023-09-21T00:00	10888	241	-51.5	-58.9	173	9
2023-09-21T00:00	10908	241	-51.6	-59.1	174	10
2023-09-21T00:00	10928	240	-51.8	-59.1	174	10
2023-09-21T00:00	10950	239	-52.0	-59.1	174	10
2023-09-21T00:00	10970	238	-52.2	-59.1	173	10
2023-09-21T00:00	10993	237	-52.4	-59.1	173	11
2023-09-21T00:00	11012	237	-52.5	-59.0	173	11
2023-09-21T00:00	11034	236	-52.7	-59.0	174	11
2023-09-21T00:00	11052	235	-52.9	-59.0	174	12
2023-09-21T00:00	11074	234	-53.0	-59.1	175	12
2023-09-21T00:00	11096	234	-53.1	-59.2	176	12
2023-09-21T00:00	11116	233	-53.3	-59.4	177	12
2023-09-21T00:00	11135	232	-53.4	-59.4	178	12
2023-09-21T00:00	11155	231	-53.5	-59.5	179	12
2023-09-21T00:00	11179	231	-53.6	-59.7	180	12
2023-09-21T00:00	11203	230	-53.8	-60.1	180	11
2023-09-21T00:00	11220	229	-54.0	-60.3	181	11
2023-09-21T00:00	11241	228	-54.1	-60.5	181	11
2023-09-21T00:00	11264	228	-54.2	-60.6	181	11
2023-09-21T00:00	11284	227	-54.4	-60.6	182	11
2023-09-21T00:00	11305	226	-54.5	-60.7	182	10
2023-09-21T00:00	11326	225	-54.5	-60.8	184	10
2023-09-21T00:00	11349	225	-54.6	-61.0	185	10
2023-09-21T00:00	11371	224	-54.8	-61.3	187	10
2023-09-21T00:00	11391	223	-55.0	-61.6	189	9
2023-09-21T00:00	11411	222	-55.1	-61.7	191	8
2023-09-21T00:00	11434	222	-55.3	-62.1	194	8
2023-09-21T00:00	11455	221	-55.4	-63.1	197	7
2023-09-21T00:00	11476	220	-54.2	-64.0	199	7
2023-09-21T00:00	11498	219	-53.5	-65.7	200	7
2023-09-21T00:00	11516	219	-53.4	-66.4	200	6
2023-09-21T00:00	11536	218	-53.5	-66.1	201	6
2023-09-21T00:00	11558	217	-53.7	-66.0	202	6
2023-09-21T00:00	11577	217	-53.8	-66.2	203	6
2023-09-21T00:00	11598	216	-53.7	-66.3	204	5
2023-09-21T00:00	11619	215	-53.9	-66.4	204	5
2023-09-21T00:00	11640	215	-54.1	-66.5	203	5
2023-09-21T00:00	11661	214	-54.2	-66.4	202	5
2023-09-21T00:00	11681	213	-54.4	-66.5	199	5
2023-09-21T00:00	11700	213	-54.5	-66.7	197	5
2023-09-21T00:00	11721	212	-54.6	-67.0	194	5
2023-09-21T00:00	11741	211	-54.7	-67.3	192	5
2023-09-21T00:00	11761	211	-54.6	-67.6	190	5
2023-09-21T00:00	11782	210	-54.7	-68.1	189	5
2023-09-21T00:00	11805	209	-54.7	-68.3	187	5
2023-09-21T00:00	11825	208	-54.8	-68.5	185	5
2023-09-21T00:00	11845	208	-54.9	-68.7	181	5
2023-09-21T00:00	11866	207	-55.0	-68.9	177	5
2023-09-21T00:00	11886	207	-55.1	-69.3	173	5
2023-09-21T00:00	11907	206	-54.9	-69.8	170	5
2023-09-21T00:00	11929	205	-54.5	-70.4	169	6
2023-09-21T00:00	11953	204	-54.4	-71.4	168	7
2023-09-21T00:00	11982	203	-53.7	-71.9	168	7
2023-09-21T00:00	12004	203	-53.4	-72.5	168	8
2023-09-21T00:00	12024	202	-53.3	-72.8	168	9
2023-09-21T00:00	12043	201	-53.3	-72.9	169	9
2023-09-21T00:00	12065	201	-53.4	-73.1	170	10
2023-09-21T00:00	12088	200	-53.3	-73.0	171	10
2023-09-21T00:00	12107	200	-53.3	-73.1	173	10
2023-09-21T00:00	12128	199	-53.2	-73.2	174	10
2023-09-21T00:00	12149	198	-53.3	-73.3	174	10
2023-09-21T00:00	12172	198	-53.5	-73.5	175	9
2023-09-21T00:00	12192	197	-53.6	-73.5	175	9
2023-09-21T00:00	12215	196	-53.8	-73.6	176	9
2023-09-21T00:00	12237	196	-54.1	-73.8	177	9
2023-09-21T00:00	12260	195	-54.2	-73.8	178	9
2023-09-21T00:00	12281	194	-54.4	-73.9	180	8
2023-09-21T00:00	12304	194	-54.6	-74.1	183	8
2023-09-21T00:00	12327	193	-54.8	-74.2	184	7
2023-09-21T00:00	12351	192	-54.9	-74.4	185	7
2023-09-21T00:00	12374	191	-54.9	-74.6	184	7
2023-09-21T00:00	12395	191	-54.7	-74.8	182	7
2023-09-21T00:00	12415	190	-54.4	-74.8	180	7
2023-09-21T00:00	12436	190	-54.2	-74.6	179	8
2023-09-21T00:00	12457	189	-54.2	-74.6	180	9
2023-09-21T00:00	12478	188	-54.2	-74.6	181	10
2023-09-21T00:00	12498	188	-54.3	-74.7	183	10
2023-09-21T00:00	12517	187	-54.3	-74.8	185	11
2023-09-21T00:00	12538	187	-54.1	-74.8	185	11
2023-09-21T00:00	12562	186	-54.0	-74.8	186	11
2023-09-21T00:00	12583	185	-54.0	-74.9	186	10
2023-09-21T00:00	12605	185	-54.1	-75.0	186	10
2023-09-21T00:00	12625	184	-54.3	-75.2	186	10
2023-09-21T00:00	12646	183	-54.5	-75.4	185	9
2023-09-21T00:00	12666	183	-54.3	-75.5	185	9
2023-09-21T00:00	12687	182	-54.4	-75.8	184	9
2023-09-21T00:00	12706	182	-54.4	-75.8	184	8
2023-09-21T00:00	12727	181	-54.3	-75.8	183	8
2023-09-21T00:00	12747	181	-54.3	-76.1	183	9
2023-09-21T00:00	12768	180	-53.8	-76.1	183	9
2023-09-21T00:00	12787	179	-53.4	-76.3	182	9
2023-09-21T00:00	12806	179	-53.5	-76.5	181	9
2023-09-21T00:00	12826	178	-53.5	-76.7	179	9
2023-09-21T00:00	12847	178	-53.6	-76.9	178	10
2023-09-21T00:00	12869	177	-53.6	-77.1	178	10
2023-09-21T00:00	12889	177	-53.5	-77.0	179	10
2023-09-21T00:00	12910	176	-53.6	-77.3	180	11
2023-09-21T00:00	12932	175	-53.6	-77.5	182	11
2023-09-21T00:00	12952	175	-53.5	-77.4	184	11
2023-09-21T00:00	12972	174	-53.7	-77.5	186	11
2023-09-21T00:00	12994	174	-53.8	-77.6	188	12
2023-09-21T00:00	13014	173	-53.9	-77.7	189	12
2023-09-21T00:00	13035	173	-54.0	-77.8	190	13
2023-09-21T00:00	13056	172	-53.9	-77.7	190	13
2023-09-21T00:00	13075	172	-53.8	-77.8	189	13
2023-09-21T00:00	13097	171	-53.9	-77.9	188	13
2023-09-21T00:00	13120	170	-54.1	-77.9	187	13
2023-09-21T00:00	13142	170	-54.2	-77.9	185	13
2023-09-21T00:00	13168	169	-54.4	-77.9	183	13
2023-09-21T00:00	13192	169	-54.6	-78.1	182	13
2023-09-21T00:00	13212	168	-54.8	-78.2	182	13
2023-09-21T00:00	13236	167	-54.8	-78.2	183	13
2023-09-21T00:00	13257	167	-54.7	-78.3	185	13
2023-09-21T00:00	13278	166	-54.8	-78.4	188	14
2023-09-21T00:00	13298	166	-54.8	-78.4	190	14
2023-09-21T00:00	13321	165	-54.8	-78.4	193	14
2023-09-21T00:00	13342	165	-54.9	-78.5	195	14
2023-09-21T00:00	13363	164	-55.0	-78.6	196	14
2023-09-21T00:00	13385	163	-55.2	-78.7	198	15
2023-09-21T00:00	13406	163	-55.4	-78.7	199	15
2023-09-21T00:00	13425	162	-55.5	-78.8	201	15
2023-09-21T00:00	13444	162	-55.7	-79.0	202	15
2023-09-21T00:00	13465	161	-55.8	-79.0	202	14
2023-09-21T00:00	13487	161	-56.0	-79.2	202	14
2023-09-21T00:00	13509	160	-55.9	-79.3	201	14
2023-09-21T00:00	13533	160	-55.9	-79.3	200	14
2023-09-21T00:00	13557	159	-55.9	-79.3	199	14
2023-09-21T00:00	13580	159	-56.1	-79.3	199	14
2023-09-21T00:00	13604	158	-56.3	-79.4	200	15
2023-09-21T00:00	13625	157	-56.2	-79.4	202	15
2023-09-21T00:00	13647	157	-56.2	-79.4	205	15
2023-09-21T00:00	13667	156	-56.1	-79.5	207	15
2023-09-21T00:00	13687	156	-56.2	-79.5	210	15
2023-09-21T00:00	13710	155	-56.2	-79.5	213	15
2023-09-21T00:00	13730	155	-56.4	-79.7	215	15
2023-09-21T00:00	13750	154	-56.5	-79.8	216	15
2023-09-21T00:00	13772	154	-56.7	-79.9	217	15
2023-09-21T00:00	13795	153	-56.9	-80.1	218	15
2023-09-21T00:00	13818	153	-57.1	-80.1	219	15
2023-09-21T00:00	13839	152	-57.2	-80.0	221	15
2023-09-21T00:00	13860	152	-57.4		222	15
2023-09-21T00:00	13880	151	-57.6	-80.3	224	15
2023-09-21T00:00	13903	151	-57.8	-80.5	226	15
2023-09-21T00:00	13927	150	-57.9	-80.5	229	14
2023-09-21T00:00	13949	150	-58.0	-80.6	231	13
2023-09-21T00:00	13970	149	-58.1	-80.7	232	13
2023-09-21T00:00	13992	149	-58.2	-81.0	233	12
2023-09-21T00:00	14015	148	-57.8	-80.6	233	12
2023-09-21T00:00	14038	147	-57.6	-80.7	232	11
2023-09-21T00:00	14059	147	-57.5	-80.8	230	11
2023-09-21T00:00	14083	146	-57.4	-80.9	229	11
2023-09-21T00:00	14105	146	-57.2	-80.9	227	11
2023-09-21T00:00	14127	145	-57.3	-81.0	226	11
2023-09-21T00:00	14147	145	-57.4	-81.1	225	12
2023-09-21T00:00	14169	144	-57.5	-81.2	224	12
2023-09-21T00:00	14192	144	-57.6	-81.2	223	12
2023-09-21T00:00	14213	143	-57.7	-81.1	222	12
2023-09-21T00:00	14236	143	-57.9	-81.1	222	12
2023-09-21T00:00	14257	142	-58.0	-81.2	221	13
2023-09-21T00:00	14281	142	-58.2	-81.3	220	13
2023-09-21T00:00	14305	141	-58.3	-81.4	219	13
2023-09-21T00:00	14327	141	-58.3	-81.6	219	14
2023-09-21T00:00	14348	140	-58.3	-81.6	219	14
2023-09-21T00:00	14368	140	-58.4	-81.7	219	14
2023-09-21T00:00	14390	139	-58.3	-81.6	220	15
2023-09-21T00:00	14414	139	-58.4	-81.7	221	15
2023-09-21T00:00	14437	138	-58.4	-81.7	222	15
2023-09-21T00:00	14460	138	-58.4	-81.9	222	14
2023-09-21T00:00	14484	137	-58.4	-81.9	222	14
2023-09-21T00:00	14505	137	-58.5	-81.9	221	14
2023-09-21T00:00	14525	136	-58.5	-81.9	220	14
2023-09-21T00:00	14548	136	-58.6	-81.8	220	14
2023-09-21T00:00	14567	136	-58.7		219	14
2023-09-21T00:00	14591	135	-58.8	-82.0	220	14
2023-09-21T00:00	14613	135	-59.0	-82.0	221	14
2023-09-21T00:00	14635	134	-59.0	-82.0	223	14
2023-09-21T00:00	14659	134	-59.1	-81.9	224	14
2023-09-21T00:00	14681	133	-59.3	-82.0	226	14
2023-09-21T00:00	14701	133	-59.4	-81.9	228	13
2023-09-21T00:00	14723	132	-59.7	-82.2	229	13
2023-09-21T00:00	14748	132	-59.9	-82.1	231	13
2023-09-21T00:00	14769	131	-60.0	-82.2	231	13
2023-09-21T00:00	14791	131	-60.1	-82.1	231	13
2023-09-21T00:00	14813	130	-60.2	-82.1	230	13
2023-09-21T00:00	14836	130	-60.4	-82.1	229	13
2023-09-21T00:00	14858	129	-60.5	-82.1	227	14
2023-09-21T00:00	14880	129	-60.6	-82.1	225	14
2023-09-21T00:00	14902	129	-60.8		223	14
2023-09-21T00:00	14924	128	-60.9	-82.2	222	14
2023-09-21T00:00	14945	128	-61.0	-82.2	221	14
2023-09-21T00:00	14967	127	-61.1	-82.2	220	14
2023-09-21T00:00	14987	127	-61.2	-82.3	220	14
2023-09-21T00:00	15008	126	-61.4	-82.3	220	14
2023-09-21T00:00	15031	126	-61.6	-82.4	221	14
2023-09-21T00:00	15051	125	-61.7	-82.4	222	14
2023-09-21T00:00	15075	125	-61.6	-82.3	223	14
2023-09-21T00:00	15095	125	-61.6	-82.3	225	14
2023-09-21T00:00	15117	124	-61.7	-82.4	227	14
2023-09-21T00:00	15139	124	-61.9	-82.5	229	13
2023-09-21T00:00	15163	123	-62.0	-82.5	231	13
2023-09-21T00:00	15186	123	-62.1	-82.6	233	13
2023-09-21T00:00	15208	122	-62.2	-82.5	235	12
2023-09-21T00:00	15231	122	-62.3	-82.5	237	12
2023-09-21T00:00	15250	121	-62.4	-82.4	239	12
2023-09-21T00:00	15273	121	-62.6	-82.6	240	11
2023-09-21T00:00	15293	121	-62.7	-82.5	240	11
2023-09-21T00:00	15316	120	-62.8	-82.6	240	11
2023-09-21T00:00	15340	120	-62.9	-82.7	239	11
2023-09-21T00:00	15364	119	-62.8	-82.8	237	10
2023-09-21T00:00	15387	119	-62.9	-83.0	235	10
2023-09-21T00:00	15410	118	-62.7	-82.9	234	10
2023-09-21T00:00	15431	118	-62.5	-82.9	233	9
2023-09-21T00:00	15454	118	-62.5	-83.0	234	9
2023-09-21T00:00	15477	117	-62.5	-83.0	236	9
2023-09-21T00:00	15498	117	-62.5	-83.2	239	8
2023-09-21T00:00	15522	116	-62.4	-83.2	244	7
2023-09-21T00:00	15543	116	-62.3	-83.3	249	7
2023-09-21T00:00	15568	115	-62.2	-83.5	256	6
2023-09-21T00:00	15590	115	-62.0	-83.5	263	6
2023-09-21T00:00	15611	115	-61.8	-83.5	269	6
2023-09-21T00:00	15634	114	-61.7	-83.6	275	5
2023-09-21T00:00	15656	114	-61.6	-83.7	280	5
2023-09-21T00:00	15680	113	-61.7	-83.8	286	4
2023-09-21T00:00	15701	113	-61.7	-83.9	292	4
2023-09-21T00:00	15721	113	-61.6	-83.9	300	3
2023-09-21T00:00	15743	112	-61.7	-83.9	309	3
2023-09-21T00:00	15763	112	-61.6	-83.9	321	2
2023-09-21T00:00	15786	111	-61.6	-84.0	338	2
2023-09-21T00:00	15809	111	-61.5	-84.1	3	1
2023-09-21T00:00	15830	111	-61.4	-84.3	39	1
2023-09-21T00:00	15851	110	-61.1	-84.2	80	1
2023-09-21T00:00	15871	110	-60.8	-84.2	114	2
2023-09-21T00:00	15891	110	-60.9	-84.3	136	2
2023-09-21T00:00	15912	109	-60.9	-84.5	150	3
2023-09-21T00:00	15933	109	-60.8	-84.6	157	4
2023-09-21T00:00	15952	108	-60.4	-84.5	160	5
2023-09-21T00:00	15974	108	-60.2	-84.4	160	5
2023-09-21T00:00	15994	108	-60.3	-84.4	158	6
2023-09-21T00:00	16015	107	-60.3	-84.4	155	6
2023-09-21T00:00	16039	107	-60.3	-84.4	154	7
2023-09-21T00:00	16062	107	-60.4	-84.5	154	7
2023-09-21T00:00	16086	106	-60.6	-84.7	156	8
2023-09-21T00:00	16106	106	-60.7	-84.8	159	9
2023-09-21T00:00	16125	105	-60.4	-84.8	161	9
2023-09-21T00:00	16146	105	-60.1	-84.8	164	10
2023-09-21T00:00	16167	105	-60.0	-84.7	165	10
2023-09-21T00:00	16189	104	-59.8	-84.8	167	11
2023-09-21T00:00	16209	104	-59.8	-84.8	168	11
2023-09-21T00:00	16232	104	-59.9	-84.9	169	12
2023-09-21T00:00	16252	103	-60.0	-84.9	171	12
2023-09-21T00:00	16273	103	-60.1	-85.0	172	13
2023-09-21T00:00	16296	103	-60.2	-84.8	174	13
2023-09-21T00:00	16318	102	-60.4	-85.0	176	14
2023-09-21T00:00	16341	102	-60.4	-85.0	178	14
2023-09-21T00:00	16362	102	-60.5	-85.1	180	14
2023-09-21T00:00	16385	101	-60.5	-85.1	182	15
2023-09-21T00:00	16409	101	-60.7	-85.2	185	15
2023-09-21T00:00	16432	100	-60.7	-85.0	188	15
2023-09-21T00:00	16455	100	-60.9	-85.2	190	15
2023-09-21T00:00	16482	100	-61.0	-85.2	194	15
2023-09-21T00:00	16504	99	-61.2	-85.4	197	16
2023-09-21T00:00	16530	99	-61.3	-85.5	201	16
2023-09-21T00:00	16555	98	-61.4	-85.5	204	16
2023-09-21T00:00	16579	98	-61.6	-85.7	208	16
2023-09-21T00:00	16600	98	-61.6	-85.5	211	16
2023-09-21T00:00	16623	97	-61.6	-85.5	214	16
2023-09-21T00:00	16644	97	-61.5	-85.4	217	16
2023-09-21T00:00	16668	97	-61.6	-85.5	219	16
2023-09-21T00:00	16690	96	-61.6	-85.7	222	15
2023-09-21T00:00	16712	96	-61.6	-85.7	225	15
2023-09-21T00:00	16737	96	-61.5	-85.6	227	14
2023-09-21T00:00	16759	95	-61.5	-85.9	230	14
2023-09-21T00:00	16784	95	-61.5	-85.9	233	13
2023-09-21T00:00	16806	95	-61.4	-86.0	237	13
2023-09-21T00:00	16832	94	-61.0	-86.0	240	12
2023-09-21T00:00	16855	94	-60.2	-85.7	242	12
2023-09-21T00:00	16878	93	-60.0	-85.8	243	11
2023-09-21T00:00	16901	93	-60.0	-85.8	244	11
2023-09-21T00:00	16925	93	-60.1	-85.9	243	11
2023-09-21T00:00	16949	92	-60.0	-85.8	242	10
2023-09-21T00:00	16969	92	-60.0	-85.8	240	10
2023-09-21T00:00	16992	92	-59.9	-85.7	239	10
2023-09-21T00:00	17013	91	-59.9	-86.0	238	10
2023-09-21T00:00	17036	91	-59.7	-85.9	238	10
2023-09-21T00:00	17059	91	-59.7	-85.9	238	10
2023-09-21T00:00	17084	90	-59.7	-86.2	239	10
2023-09-21T00:00	17104	90	-59.6	-86.1	239	10
2023-09-21T00:00	17124	90	-59.5	-86.0	238	10
2023-09-21T00:00	17148	89	-59.5	-86.0	237	10
2023-09-21T00:00	17173	89	-59.5	-86.0	235	10
2023-09-21T00:00	17194	89	-59.6	-86.1	234	10
2023-09-21T00:00	17216	89	-59.6	-86.1	233	10
2023-09-21T00:00	17238	88	-59.6	-86.1	231	10
2023-09-21T00:00	17262	88	-59.8	-86.3	229	10
2023-09-21T00:00	17282	88	-60.0	-86.4	227	10
2023-09-21T00:00	17306	87	-60.1	-86.5	224	10
2023-09-21T00:00	17328	87	-60.1	-86.5	222	10
2023-09-21T00:00	17352	87	-59.8	-86.3	220	10
2023-09-21T00:00	17376	86	-59.9	-86.3	218	10
2023-09-21T00:00	17397	86	-60.0	-86.4	218	11
2023-09-21T00:00	17421	86	-60.1	-86.5	217	11
2023-09-21T00:00	17440	85	-60.2	-86.6	216	11
2023-09-21T00:00	17463	85	-60.4	-86.7	215	11
2023-09-21T00:00	17486	85	-60.4	-86.7	214	11
2023-09-21T00:00	17508	84	-60.6	-86.9	213	12
2023-09-21T00:00	17533	84	-60.7	-87.0	212	12
2023-09-21T00:00	17556	84	-60.7	-87.0	213	12
2023-09-21T00:00	17578	84	-60.6	-86.9	215	12
2023-09-21T00:00	17605	83	-60.4	-86.7	218	13
2023-09-21T00:00	17629	83	-60.3	-87.0	222	13
2023-09-21T00:00	17652	83	-60.3	-87.0	225	13
2023-09-21T00:00	17674	82	-60.5	-87.2	228	13
2023-09-21T00:00	17697	82	-60.5	-87.2	229	13
2023-09-21T00:00	17722	82	-60.4	-87.1	229	13
2023-09-21T00:00	17746	81	-60.5	-87.2	228	13
2023-09-21T00:00	17771	81	-60.3	-87.0	227	13
2023-09-21T00:00	17793	81	-59.8	-87.0	226	13
2023-09-21T00:00	17817	80	-59.7	-86.9	225	13
2023-09-21T00:00	17839	80	-59.6	-86.8	225	12
2023-09-21T00:00	17864	80	-59.8	-87.0	226	12
2023-09-21T00:00	17891	79	-60.0	-87.1	228	12
2023-09-21T00:00	17917	79	-60.1	-86.8	230	11
2023-09-21T00:00	17943	79	-60.3	-87.0	232	10
2023-09-21T00:00	17962	79	-60.4	-87.1	234	10
2023-09-21T00:00	17984	78	-60.1	-86.8	236	9
2023-09-21T00:00	18010	78	-60.0	-87.1	238	9
2023-09-21T00:00	18035	78	-59.8	-87.0	240	8
2023-09-21T00:00	18058	77	-59.5	-86.8	243	8
2023-09-21T00:00	18084	77	-59.3	-87.0	246	8
2023-09-21T00:00	18107	77	-59.2	-86.9	250	8
2023-09-21T00:00	18131	76	-59.3	-87.0	253	9
2023-09-21T00:00	18156	76	-59.4	-87.1	255	9
2023-09-21T00:00	18180	76	-59.5	-86.8	255	9
2023-09-21T00:00	18205	76	-59.6	-86.8	255	9
2023-09-21T00:00	18230	75	-59.8	-87.0	253	8
2023-09-21T00:00	18251	75	-59.8	-87.0	250	8
2023-09-21T00:00	18274	75	-59.9	-87.1	247	8
2023-09-21T00:00	18299	74	-60.0	-87.1	245	7
2023-09-21T00:00	18323	74	-59.9	-87.1	244	7
2023-09-21T00:00	18344	74	-59.8	-87.0	245	7
2023-09-21T00:00	18370	74	-59.9	-87.4	246	8
2023-09-21T00:00	18393	73	-59.5	-87.1	247	8
2023-09-21T00:00	18418	73	-59.3	-87.4	247	9
2023-09-21T00:00	18440	73	-59.2	-87.3	246	9
2023-09-21T00:00	18467	72	-58.9	-87.1	246	9
2023-09-21T00:00	18490	72	-58.6	-87.3	245	9
2023-09-21T00:00	18512	72	-58.4	-87.2	246	9
2023-09-21T00:00	18538	72	-58.1	-87.0	247	9
2023-09-21T00:00	18560	71	-57.9	-86.8	247	9
2023-09-21T00:00	18581	71	-57.7	-86.7	247	8
2023-09-21T00:00	18608	71	-57.6	-87.1	245	8
2023-09-21T00:00	18627	71	-57.4	-86.9	244	8
2023-09-21T00:00	18653	70	-57.4	-86.9	242	8
2023-09-21T00:00	18677	70	-57.2	-86.8	240	8
2023-09-21T00:00	18701	70	-57.1	-86.7	239	9
2023-09-21T00:00	18723	70	-57.2	-86.8	238	9
2023-09-21T00:00	18747	69	-57.3	-86.9	236	9
2023-09-21T00:00	18768	69	-57.4	-86.9	232	8
2023-09-21T00:00	18795	69	-57.3	-86.9	228	8
2023-09-21T00:00	18816	69	-56.8	-86.5	223	8
2023-09-21T00:00	18841	68	-56.8	-86.5	220	9
2023-09-21T00:00	18862	68	-56.7	-86.4	217	9
2023-09-21T00:00	18887	68	-56.5	-86.3	216	9
2023-09-21T00:00	18909	68	-56.2	-86.0	215	9
2023-09-21T00:00	18934	67	-56.3	-86.1	215	9
2023-09-21T00:00	18955	67	-56.5	-86.3	215	9
2023-09-21T00:00	18983	67	-56.6	-86.3	215	9
2023-09-21T00:00	19004	67	-56.7	-86.4	214	9
2023-09-21T00:00	19025	66	-56.8	-86.5	212	9
2023-09-21T00:00	19048	66	-56.7	-86.4	211	9
2023-09-21T00:00	19073	66	-56.8	-86.5	209	10
2023-09-21T00:00	19098	66	-56.9	-86.6	208	10
2023-09-21T00:00	19127	65	-56.9	-86.6	207	10
2023-09-21T00:00	19152	65	-57.1	-86.2	206	10
2023-09-21T00:00	19177	65	-57.3	-86.4	204	10
2023-09-21T00:00	19196	65	-57.6	-86.6	203	11
2023-09-21T00:00	19223	64	-57.7	-86.7	203	11
2023-09-21T00:00	19246	64	-57.8	-86.7	203	11
2023-09-21T00:00	19268	64	-57.8	-86.3	203	12
2023-09-21T00:00	19292	64	-58.0	-86.4	204	12
2023-09-21T00:00	19319	63	-58.2	-86.6	205	12
2023-09-21T00:00	19346	63	-58.4	-86.7	206	13
2023-09-21T00:00	19370	63	-58.6	-86.9	207	13
2023-09-21T00:00	19393	63	-58.8	-87.0	209	13
2023-09-21T00:00	19420	62	-59.0	-87.2	211	14
2023-09-21T00:00	19443	62	-58.9	-87.1	214	14
2023-09-21T00:00	19470	62	-58.7	-87.0	217	15
2023-09-21T00:00	19493	62	-58.7	-87.0	221	15
2023-09-21T00:00	19522	61	-58.7	-87.0	225	16
2023-09-21T00:00	19547	61	-58.8	-87.0	228	16
2023-09-21T00:00	19575	61	-58.8	-87.0	231	17
2023-09-21T00:00	19592	61	-58.8	-87.0	233	17
2023-09-21T00:00	19619	60	-58.8	-87.0	235	17
2023-09-21T00:00	19643	60	-58.8	-87.0	237	16
2023-09-21T00:00	19663	60	-59.0	-87.2	239	16
2023-09-21T00:00	19688	60	-59.1	-87.3	240	15
2023-09-21T00:00	19717	59	-59.3	-87.4	241	15
2023-09-21T00:00	19741	59	-59.2	-87.3	241	14
2023-09-21T00:00	19766	59	-59.3	-87.4	241	14
2023-09-21T00:00	19788	59	-59.4	-87.5	240	13
2023-09-21T00:00	19815	59	-59.4	-87.5	239	13
2023-09-21T00:00	19836	58	-59.1	-87.3	238	12
2023-09-21T00:00	19858	58	-58.9	-87.1	238	12
2023-09-21T00:00	19882	58	-58.8	-87.5	238	12
2023-09-21T00:00	19907	58	-58.5	-87.3	239	11
2023-09-21T00:00	19931	57	-58.3	-87.1	240	11
2023-09-21T00:00	19958	57	-58.2	-87.0	241	12
2023-09-21T00:00	19978	57	-58.1	-87.4	241	12
2023-09-21T00:00	20004	57	-57.6	-87.1	240	12
2023-09-21T00:00	20027	57	-57.4	-86.9	240	13
2023-09-21T00:00	20051	56	-57.3	-86.9	239	13
2023-09-21T00:00	20077	56	-57.2	-86.8	239	13
2023-09-21T00:00	20098	56	-57.1	-86.7	240	13
2023-09-21T00:00	20125	56	-56.9	-87.1	242	13
2023-09-21T00:00	20153	55	-56.8	-87.0	244	13
2023-09-21T00:00	20174	55	-56.8	-87.0	245	12
2023-09-21T00:00	20198	55	-56.7	-86.4	244	12
2023-09-21T00:00	20223	55	-56.7	-86.4	243	11
2023-09-21T00:00	20248	55	-56.7	-86.4	241	11
2023-09-21T00:00	20274	54	-56.6	-86.3	239	11
2023-09-21T00:00	20296	54	-56.7	-86.4	239	11
2023-09-21T00:00	20323	54	-56.8	-86.5	239	11
2023-09-21T00:00	20350	54	-56.9	-86.6	241	11
2023-09-21T00:00	20377	54	-56.9	-86.6	243	11
2023-09-21T00:00	20398	53	-56.9	-86.6	245	12
2023-09-21T00:00	20425	53	-56.9	-86.6	247	12
2023-09-21T00:00	20450	53	-57.0	-86.6	248	12
2023-09-21T00:00	20475	53	-57.2	-86.8	249	12
2023-09-21T00:00	20503	52	-57.3	-86.9	248	12
2023-09-21T00:00	20530	52	-57.3	-86.9	247	12
2023-09-21T00:00	20554	52	-57.3	-86.9	245	12
2023-09-21T00:00	20577	52	-57.4	-86.9	243	12
2023-09-21T00:00	20603	52	-57.3	-86.9	241	12
2023-09-21T00:00	20630	51	-57.3	-86.9	238	12
2023-09-21T00:00	20652	51	-57.5	-87.0	236	12
2023-09-21T00:00	20683	51	-57.6	-87.1	234	12
2023-09-21T00:00	20707	51	-57.8	-86.7	232	12
2023-09-21T00:00	20732	51	-58.0	-86.9	230	13
2023-09-21T00:00	20758	50	-58.2	-87.0	229	13
2023-09-21T00:00	20783	50	-58.3	-87.1	227	13
2023-09-21T00:00	20810	50	-58.3	-87.1	227	13
2023-09-21T00:00	20834	50	-58.2	-87.0	228	13
2023-09-21T00:00	20863	50	-58.2	-87.0	230	13
2023-09-21T00:00	20887	49	-58.2	-87.0	233	12
2023-09-21T00:00	20915	49	-58.4	-87.2	236	12
2023-09-21T00:00	20938	49	-58.4	-87.2	239	12
2023-09-21T00:00	20967	49	-58.5	-87.3	241	12
2023-09-21T00:00	20986	49	-58.7	-87.4	244	12
2023-09-21T00:00	21015	48	-58.8	-87.5	246	11
2023-09-21T00:00	21042	48	-58.7	-87.9	248	11
2023-09-21T00:00	21067	48	-58.6	-87.8	251	11
2023-09-21T00:00	21089	48	-58.2	-87.5	253	11
2023-09-21T00:00	21115	48	-57.4	-86.9	256	11
2023-09-21T00:00	21141	47	-57.4	-87.5	258	11
2023-09-21T00:00	21163	47	-57.5	-87.5	260	11
2023-09-21T00:00	21189	47	-57.6	-87.6	261	11
2023-09-21T00:00	21214	47	-57.6	-87.6	261	10
2023-09-21T00:00	21239	47	-57.4	-87.5	260	10
2023-09-21T00:00	21265	47	-57.3	-87.4	258	9
2023-09-21T00:00	21288	46	-56.8	-87.0	254	9
2023-09-21T00:00	21314	46	-56.5	-86.8	249	9
2023-09-21T00:00	21339	46	-56.5	-86.8	243	8
2023-09-21T00:00	21366	46	-56.4		238	8
2023-09-21T00:00	21390	46	-56.5	-86.8	234	8
2023-09-21T00:00	21415	45	-56.5	-86.8	232	8
2023-09-21T00:00	21440	45	-56.5	-86.8	232	8
2023-09-21T00:00	21460	45	-56.5	-86.8	233	8
2023-09-21T00:00	21485	45	-56.5	-86.8	232	8
2023-09-21T00:00	21510	45	-56.7	-86.9	230	8
2023-09-21T00:00	21538	45	-56.8	-87.0	227	8
2023-09-21T00:00	21562	44	-56.7	-86.9	223	9
2023-09-21T00:00	21584	44	-56.9	-86.6	221	9
2023-09-21T00:00	21614	44	-57.0	-86.6	220	9
2023-09-21T00:00	21639	44	-57.2	-86.8	219	10
2023-09-21T00:00	21664	44	-57.4	-86.9	220	10
2023-09-21T00:00	21690	43	-57.6	-87.1	220	10
2023-09-21T00:00	21716	43	-57.8	-86.7	221	10
2023-09-21T00:00	21740	43	-57.9	-86.8	221	10
2023-09-21T00:00	21765	43	-58.0	-86.9	221	11
2023-09-21T00:00	21795	43	-58.1	-87.0	220	11
2023-09-21T00:00	21815	43	-58.2	-87.5	219	11
2023-09-21T00:00	21842	42	-58.2	-87.5	219	11
2023-09-21T00:00	21870	42	-58.3	-87.6	220	11
2023-09-21T00:00	21896	42	-58.3	-87.6	221	11
2023-09-21T00:00	21921	42	-58.2	-87.5	224	11
2023-09-21T00:00	21949	42	-58.1	-87.4	227	11
2023-09-21T00:00	21978	42	-58.1	-87.4	230	12
2023-09-21T00:00	22004	41	-58.1	-88.0	234	12
2023-09-21T00:00	22027	41	-57.9	-87.8	237	12
2023-09-21T00:00	22054	41	-57.6	-87.6	240	12
2023-09-21T00:00	22085	41	-57.8	-87.8	243	11
2023-09-21T00:00	22114	41	-57.9	-87.3	247	11
2023-09-21T00:00	22141	40	-58.0	-87.4	250	11
2023-09-21T00:00	22169	40	-58.0	-87.4	254	11
2023-09-21T00:00	22197	40	-58.1	-87.4	257	11
2023-09-21T00:00	22224	40	-58.2	-87.5	259	12
2023-09-21T00:00	22251	40	-58.3	-87.6	259	12
2023-09-21T00:00	22280	40	-58.1	-88.0	258	12
2023-09-21T00:00	22307	39	-57.6	-87.6	255	12
2023-09-21T00:00	22334	39	-57.6	-87.6	252	12
2023-09-21T00:00	22362	39	-57.8	-87.8	250	13
2023-09-21T00:00	22388	39	-57.8	-87.2	248	13
2023-09-21T00:00	22415	39	-57.9	-87.3	247	14
2023-09-21T00:00	22440	39	-58.0	-87.4	247	14
2023-09-21T00:00	22470	38	-58.1	-87.4	248	14
2023-09-21T00:00	22495	38	-57.8	-87.8	249	13
2023-09-21T00:00	22521	38	-57.7	-87.7	251	13
2023-09-21T00:00	22547	38	-57.3	-87.4	254	12
2023-09-21T00:00	22572	38	-57.5	-87.5	256	12
2023-09-21T00:00	22603	38	-57.6	-87.6	258	11
2023-09-21T00:00	22621	38	-57.8	-87.2	260	11
2023-09-21T00:00	22646	37	-58.0	-87.4	260	11
2023-09-21T00:00	22673	37	-58.1	-87.4	260	10
2023-09-21T00:00	22701	37	-58.1	-87.4	259	10
2023-09-21T00:00	22725	37	-57.8	-87.8	258	9
2023-09-21T00:00	22752	37	-57.7	-87.7	258	9
2023-09-21T00:00	22771	37	-57.5	-87.5	257	9
2023-09-21T00:00	22795	36	-57.2	-87.3	257	9
2023-09-21T00:00	22821	36	-57.2	-87.3	256	8
2023-09-21T00:00	22842	36	-57.1	-87.2	255	8
2023-09-21T00:00	22872	36	-57.2	-87.3	254	8
2023-09-21T00:00	22894	36	-57.3	-87.4	252	8
2023-09-21T00:00	22918	36	-57.4	-87.5	250	8
2023-09-21T00:00	22940	36	-57.3	-87.4	247	8
2023-09-21T00:00	22966	36	-57.2	-87.3	245	8
2023-09-21T00:00	22988	35	-57.2	-87.3	243	9
2023-09-21T00:00	23013	35	-57.1	-87.2	242	9
2023-09-21T00:00	23040	35	-56.8	-87.6	241	9
2023-09-21T00:00	23065	35	-56.7	-87.5	242	10
2023-09-21T00:00	23086	35	-56.7	-87.5	242	10
2023-09-21T00:00	23113	35	-56.8	-87.6	241	10
2023-09-21T00:00	23134	35	-56.7	-87.5	240	10
2023-09-21T00:00	23159	34	-56.4	-87.3	238	9
2023-09-21T00:00	23186	34	-56.4	-87.3	236	9
2023-09-21T00:00	23214	34	-56.5	-87.4	233	9
2023-09-21T00:00	23237	34	-56.6	-87.5	230	9
2023-09-21T00:00	23265	34	-56.5	-87.4	229	9
2023-09-21T00:00	23293	34	-56.3	-87.2	228	9
2023-09-21T00:00	23314	34	-56.3	-87.2	228	9
2023-09-21T00:00	23342	33	-56.4		229	10
2023-09-21T00:00	23371	33	-56.6	-86.9	230	10
2023-09-21T00:00	23394	33	-56.8	-87.0	231	11
2023-09-21T00:00	23422	33	-56.9	-87.1	233	11
2023-09-21T00:00	23454	33	-57.0	-87.2	234	11
2023-09-21T00:00	23485	33	-57.2	-87.3	236	12
2023-09-21T00:00	23511	33	-57.4	-87.5	238	12
2023-09-21T00:00	23539	32	-57.6	-87.6	239	12
2023-09-21T00:00	23565	32	-57.7	-87.7	241	11
2023-09-21T00:00	23597	32	-57.4	-87.5	242	11
2023-09-21T00:00	23622	32	-57.1	-87.2	242	11
2023-09-21T00:00	23652	32	-57.2	-87.3	241	11
2023-09-21T00:00	23690	32	-57.4	-87.5	241	11
2023-09-21T00:00	23713	32	-57.3	-87.4	241	11
2023-09-21T00:00	23742	31	-57.3	-87.4	242	12
2023-09-21T00:00	23769	31	-57.2	-87.3	244	12
2023-09-21T00:00	23805	31	-57.2	-87.3	246	12
2023-09-21T00:00	23829	31	-57.3	-87.4	248	12
2023-09-21T00:00	23861	31	-57.1	-87.8	251	12
2023-09-21T00:00	23890	31	-56.9	-87.7	253	11
2023-09-21T00:00	23911	31	-56.9	-87.7	256	11
2023-09-21T00:00	23941	30	-57.0	-87.8	259	11
2023-09-21T00:00	23974	30	-56.9	-87.7	263	11
2023-09-21T00:00	24002	30	-57.0	-87.8	267	11
2023-09-21T00:00	24030	30	-57.0	-87.8	270	11
2023-09-21T00:00	24062	30	-57.0	-87.8	273	11
2023-09-21T00:00	24086	30	-57.0	-87.8	276	10
2023-09-21T00:00	24116	30	-57.1	-87.8	278	10
2023-09-21T00:00	24139	30	-56.9	-87.7	279	10
2023-09-21T00:00	24170	29	-56.7	-87.5	278	10
2023-09-21T00:00	24189	29	-56.7	-87.5	277	10
2023-09-21T00:00	24221	29	-56.8	-87.6	276	10
2023-09-21T00:00	24247	29	-56.8	-87.0	275	10
2023-09-21T00:00	24275	29	-56.9	-87.1	274	10
2023-09-21T00:00	24298	29	-57.1	-87.2	273	10
2023-09-21T00:00	24331	29	-57.2	-87.3	272	10
2023-09-21T00:00	24355	29	-57.2	-87.9	272	10
2023-09-21T00:00	24384	28	-57.1	-87.8	272	11
2023-09-21T00:00	24402	28	-56.8	-87.6	273	11
2023-09-21T00:00	24430	28	-56.4	-88.0	275	12
2023-09-21T00:00	24447	28	-56.1	-87.8	277	12
2023-09-21T00:00	24477	28	-55.9	-87.6	280	12
2023-09-21T00:00	24498	28	-55.3	-87.2	282	12
2023-09-21T00:00	24530	28	-55.1	-87.0	284	11
2023-09-21T00:00	24548	28	-55.0	-87.0	285	10
2023-09-21T00:00	24580	28	-55.1	-87.0	285	9
2023-09-21T00:00	24603	27	-55.0	-87.0	285	8
2023-09-21T00:00	24625	27	-54.9	-86.9	283	7
2023-09-21T00:00	24653	27	-55.0	-87.0	280	6
2023-09-21T00:00	24685	27	-54.9	-86.9	276	5
2023-09-21T00:00	24706	27	-54.8	-86.8	273	5
2023-09-21T00:00	24739	27	-55.0	-87.0	271	4
2023-09-21T00:00	24761	27	-55.2	-86.4	271	4
2023-09-21T00:00	24789	27	-55.4	-86.6	273	4
2023-09-21T00:00	24818	27	-55.6	-86.7	275	4
2023-09-21T00:00	24839	26	-55.7	-86.8	276	4
2023-09-21T00:00	24862	26	-55.7	-86.8	277	4
2023-09-21T00:00	24892	26	-55.8	-86.9	278	5
2023-09-21T00:00	24920	26	-55.7	-86.8	279	5
2023-09-21T00:00	24946	26	-55.8	-86.9	279	5
2023-09-21T00:00	24974	26	-55.9	-86.9	280	6
2023-09-21T00:00	25005	26	-55.9	-86.9	280	6
2023-09-21T00:00	25033	26	-55.9	-86.9	280	5
2023-09-21T00:00	25052	26	-55.6	-87.4	277	5
2023-09-21T00:00	25087	25	-55.7	-87.5	273	5
2023-09-21T00:00	25113	25	-55.3	-87.2	267	5
2023-09-21T00:00	25144	25	-55.1	-87.0	258	4
2023-09-21T00:00	25171	25	-55.3	-87.2	249	5
2023-09-21T00:00	25196	25	-55.5	-86.7	242	5
2023-09-21T00:00	25229	25	-55.7	-86.8	237	5
2023-09-21T00:00	25252	25	-55.9	-86.9	234	6
2023-09-21T00:00	25290	25	-55.9	-86.9	235	6
2023-09-21T00:00	25314	25	-56.0	-87.0	236	7
2023-09-21T00:00	25341	24	-56.1	-87.8	240	7
2023-09-21T00:00	25366	24	-55.5	-87.3	243	7
2023-09-21T00:00	25397	24	-55.3	-87.2	247	7
2023-09-21T00:00	25429	24	-55.0	-87.0	251	6
2023-09-21T00:00	25462	24	-54.9	-87.6	255	6
2023-09-21T00:00	25490	24	-54.4	-87.3	259	6
2023-09-21T00:00	25526	24	-54.2	-87.1	263	5
2023-09-21T00:00	25554	24	-54.2	-87.1	268	5
2023-09-21T00:00	25588	24	-54.4	-86.5	273	4
2023-09-21T00:00	25614	23	-54.5	-86.6	278	3
2023-09-21T00:00	25644	23	-54.7	-86.7	283	3
2023-09-21T00:00	25677	23	-54.9	-86.9	289	2
2023-09-21T00:00	25711	23	-55.0	-86.3	296	2
2023-09-21T00:00	25738	23	-55.1	-86.4	314	1
2023-09-21T00:00	25769	23	-55.3	-86.5	8	1
2023-09-21T00:00	25801	23	-55.5	-86.7	64	1
2023-09-21T00:00	25827	23	-55.7	-86.8	91	1
2023-09-21T00:00	25855	23	-55.9	-86.9	113	1
2023-09-21T00:00	25883	22	-55.9	-86.9	135	2
2023-09-21T00:00	25912	22	-55.6	-86.7	152	2
2023-09-21T00:00	25931	22	-55.7	-86.8	164	3
2023-09-21T00:00	25962	22	-55.8	-86.9	173	3
2023-09-21T00:00	25989	22	-55.9	-86.9	180	4
2023-09-21T00:00	26024	22	-56.0	-87.0	186	5
2023-09-21T00:00	26055	22	-55.9	-87.6	191	5
2023-09-21T00:00	26072	22	-55.7	-87.5	194	6
2023-09-21T00:00	26113	22	-55.8	-87.5	198	6
2023-09-21T00:00	26138	22	-55.8	-87.5	201	6
2023-09-21T00:00	26164	21	-55.8	-86.9	204	7
2023-09-21T00:00	26199	21	-56.0	-87.0	208	7
2023-09-21T00:00	26219	21	-56.2	-87.2	214	8
2023-09-21T00:00	26257	21	-56.2	-87.2	219	9
2023-09-21T00:00	26275	21	-56.2	-87.2	223	9
2023-09-21T00:00	26309	21	-56.0	-87.0	226	10
2023-09-21T00:00	26339	21	-56.0	-87.0	230	11
2023-09-21T00:00	26366	21	-56.1	-87.1	233	11
2023-09-21T00:00	26397	21	-56.1	-87.1	238	11
2023-09-21T00:00	26437	21	-56.2	-87.2	243	12
2023-09-21T00:00	26454	21	-56.2	-87.8	248	12
2023-09-21T00:00	26480	20	-56.1	-87.8	252	12
2023-09-21T00:00	26513	20	-55.9	-87.6	256	11
2023-09-21T00:00	26541	20	-55.3	-87.9	259	11
2023-09-21T00:00	26561	20	-55.1	-87.8	261	10
2023-09-21T00:00	26597	20	-54.9	-87.6	264	9
2023-09-21T00:00	26629	20	-54.3	-87.2	266	8
2023-09-21T00:00	26649	20	-54.2	-87.1	267	8
2023-09-21T00:00	26675	20	-54.3	-87.2	266	7
2023-09-21T00:00	26712	20	-54.4	-87.3	265	6
2023-09-21T00:00	26737	20	-54.5	-86.6	263	6
2023-09-21T00:00	26762	20	-54.6	-86.7	262	5
2023-09-21T00:00	26783	19	-54.5	-86.6	261	5
2023-09-21T00:00	26811	19	-54.5	-86.6	261	5
2023-09-21T00:00	26838	19	-54.4	-86.5	260	4
2023-09-21T00:00	26863	19	-54.5	-87.3	256	4
2023-09-21T00:00	26905	19	-54.4	-87.3	251	4
2023-09-21T00:00	26930	19	-54.3	-87.2	245	5
2023-09-21T00:00	26947	19	-54.0	-87.0	241	5
2023-09-21T00:00	26974	19	-53.4	-86.5	240	6
2023-09-21T00:00	27010	19	-53.2	-87.3	240	7
2023-09-21T00:00	27039	19	-53.0	-87.1	242	7
2023-09-21T00:00	27051	19	-52.9	-87.1	243	8
2023-09-21T00:00	27090	19	-52.8	-87.0	245	8
2023-09-21T00:00	27110	19	-52.7	-86.9	247	9
2023-09-21T00:00	27143	18	-52.8	-87.0	248	9
2023-09-21T00:00	27167	18	-52.5	-86.8	249	8
2023-09-21T00:00	27199	18	-52.5	-85.9	250	8
2023-09-21T00:00	27218	18	-52.4	-85.8	251	7
2023-09-21T00:00	27248	18	-52.3	-85.8	252	7
2023-09-21T00:00	27273	18	-52.4	-85.8	253	7
2023-09-21T00:00	27307	18	-52.3	-85.8	254	7
2023-09-21T00:00	27339	18	-52.1	-85.6	254	7
2023-09-21T00:00	27352	18	-52.1	-85.6	255	7
2023-09-21T00:00	27382	18	-52.3	-85.8	255	6
2023-09-21T00:00	27410	18	-52.3	-85.8	255	6
2023-09-21T00:00	27445	18	-52.3	-85.8	255	6
2023-09-21T00:00	27471	18	-52.3	-85.8	256	6
2023-09-21T00:00	27502	17	-52.5	-85.9	259	5
2023-09-21T00:00	27529	17	-52.7	-86.0	262	5
2023-09-21T00:00	27553	17	-52.9	-86.2	266	5
2023-09-21T00:00	27582	17	-52.8	-86.1	271	6
2023-09-21T00:00	27607	17	-52.8	-86.1	277	6
2023-09-21T00:00	27635	17	-52.8	-86.1	282	6
2023-09-21T00:00	27664	17	-52.8	-86.1	287	6
2023-09-21T00:00	27696	17	-52.9	-86.2	290	6
2023-09-21T00:00	27721	17	-52.8	-86.1	291	5
2023-09-21T00:00	27748	17	-52.8	-86.1	290	5
2023-09-21T00:00	27766	17	-52.9	-86.2	286	5
2023-09-21T00:00	27809	17	-52.9	-86.2	281	5
2023-09-21T00:00	27841	17	-53.0	-86.3	276	5
2023-09-21T00:00	27854	17	-52.8	-86.1	269	5
2023-09-21T00:00	27887	16	-52.8	-86.1	262	5
2023-09-21T00:00	27919	16	-52.9	-86.2	255	4
2023-09-21T00:00	27942	16	-53.0	-86.3	247	5
2023-09-21T00:00	27981	16	-53.0	-86.3	240	5
2023-09-21T00:00	28010	16	-52.7	-86.0	234	5
2023-09-21T00:00	28033	16	-52.5	-85.9	229	5
2023-09-21T00:00	28076	16	-52.4	-85.8	225	5
2023-09-21T00:00	28099	16	-52.5	-85.9	222	6
2023-09-21T00:00	28130	16	-52.6		219	6
2023-09-21T00:00	28160	16	-52.7	-86.0	216	6
2023-09-21T00:00	28191	16	-52.6		215	7
2023-09-21T00:00	28216	16	-52.7	-86.0	216	7
2023-09-21T00:00	28241	16	-52.7	-86.0	217	7
2023-09-21T00:00	28290	15	-52.7	-86.0	220	7
2023-09-21T00:00	28306	15	-52.9	-86.2	223	8
2023-09-21T00:00	28339	15	-53.0	-86.3	227	8
2023-09-21T00:00	28372	15	-52.9	-86.2	232	8
2023-09-21T00:00	28400	15	-52.7	-86.0	235	9
2023-09-21T00:00	28429	15	-52.4	-86.7	238	9
2023-09-21T00:00	28457	15	-52.2	-86.6	238	10
2023-09-21T00:00	28491	15	-52.2	-86.6	238	11
2023-09-21T00:00	28512	15	-52.1	-86.5	238	11
2023-09-21T00:00	28549	15	-51.9	-86.3	238	12
2023-09-21T00:00	28578	15	-51.9	-86.3	238	12
2023-09-21T00:00	28602	15	-51.9	-86.3	240	12
2023-09-21T00:00	28636	15	-52.1	-85.6	242	12
2023-09-21T00:00	28662	15	-52.3	-85.8	245	11
2023-09-21T00:00	28705	15	-52.3	-85.8	248	11
2023-09-21T00:00	28716	14	-52.5	-85.9	252	10
2023-09-21T00:00	28739	14	-52.5	-85.9	256	10
2023-09-21T00:00	28777	14	-52.5	-85.9	261	10
2023-09-21T00:00	28801	14	-52.5	-85.9	266	10
2023-09-21T00:00	28835	14	-52.4	-85.8	271	10
2023-09-21T00:00	28861	14	-52.4	-85.8	275	9
2023-09-21T00:00	28890	14	-52.4	-85.8	278	9
2023-09-21T00:00	28911	14	-52.3	-85.8	280	9
2023-09-21T00:00	28942	14	-52.4	-86.7	280	8
2023-09-21T00:00	28959	14	-52.4	-86.7	280	8
2023-09-21T00:00	29004	14	-52.3	-86.6	278	8
2023-09-21T00:00	29031	14	-52.3	-86.6	277	7
2023-09-21T00:00	29049	14	-52.2	-86.6	274	7
2023-09-21T00:00	29071	14	-52.2	-86.6	270	6
2023-09-21T00:00	29105	14	-52.3	-86.6	265	6
2023-09-21T00:00	29124	14	-52.2	-86.6	260	6
2023-09-21T00:00	29166	14	-52.1	-86.5	256	7
2023-09-21T00:00	29187	13	-52.2	-85.7	253	7
2023-09-21T00:00	29204	13	-52.1	-85.6	252	7
2023-09-21T00:00	29243	13	-52.3	-85.8	253	7
2023-09-21T00:00	29271	13	-52.4	-85.8	254	7
2023-09-21T00:00	29289	13	-52.5	-85.9	256	8
2023-09-21T00:00	29320	13	-52.3	-85.8	258	8
2023-09-21T00:00	29356	13	-52.3	-85.8	258	8
2023-09-21T00:00	29383	13	-52.5	-85.9	256	8
2023-09-21T00:00	29401	13	-52.4	-85.8	254	8
2023-09-21T00:00	29436	13	-52.4	-85.8	252	9
2023-09-21T00:00	29458	13	-52.4	-85.8	251	9
2023-09-21T00:00	29480	13	-52.4	-85.8	251	10
2023-09-21T00:00	29507	13	-52.4	-85.8	252	10
2023-09-21T00:00	29542	13	-52.5	-85.9	253	10
2023-09-21T00:00	29572	13	-52.4	-85.8	255	10
2023-09-21T00:00	29597	13	-52.3	-85.8	257	10
2023-09-21T00:00	29631	13	-52.4	-85.8	259	9
2023-09-21T00:00	29648	13	-52.4	-85.8	261	9
2023-09-21T00:00	29681	12	-52.6		263	8
2023-09-21T00:00	29714	12	-52.7	-86.0	263	8
2023-09-21T00:00	29738	12	-52.7	-86.0	262	8
2023-09-21T00:00	29760	12	-52.8	-86.1	260	8
2023-09-21T00:00	29811	12	-52.7	-86.0	257	8
2023-09-21T00:00	29825	12	-52.6	-86.8	253	8
2023-09-21T00:00	29855	12	-52.4	-86.7	250	9
2023-09-21T00:00	29895	12	-52.3	-86.6	248	9
2023-09-21T00:00	29924	12	-52.2	-86.6	248	9
2023-09-21T00:00	29937	12	-52.1	-86.5	249	10
2023-09-21T00:00	29977	12	-52.0	-86.4	251	10
2023-09-21T00:00	30015	12	-51.7	-86.2	253	11
2023-09-21T00:00	30031	12	-51.7	-86.2	256	11
2023-09-21T00:00	30051	12	-51.7	-86.2	259	12
2023-09-21T00:00	30091	12	-51.7	-86.2	262	12
2023-09-21T00:00	30118	12	-51.5	-86.1	266	12
2023-09-21T00:00	30132	12	-51.6	-86.1	269	12
2023-09-21T00:00	30186	12	-51.7	-86.2	272	13
2023-09-21T00:00	30208	11	-51.7	-86.2	273	13
2023-09-21T00:00	30245	11	-51.5	-86.1	275	13
2023-09-21T00:00	30263	11	-51.4	-86.0	275	12
2023-09-21T00:00	30295	11	-51.3	-85.9	276	12
2023-09-21T00:00	30325	11	-51.2	-85.8	276	11
2023-09-21T00:00	30358	11	-51.2	-85.8	276	10
2023-09-21T00:00	30392	11	-51.2	-85.8	275	10
2023-09-21T00:00	30422	11	-51.1	-86.8	274	10
2023-09-21T00:00	30464	11	-50.8	-86.6	274	10
2023-09-21T00:00	30488	11	-50.3	-86.2	275	10
2023-09-21T00:00	30523	11	-50.2	-86.2	276	10
2023-09-21T00:00	30537	11	-50.0	-86.0	278	10
2023-09-21T00:00	30574	11	-49.9	-86.0	280	10
2023-09-21T00:00	30603	11	-49.8	-85.9	282	10
2023-09-21T00:00	30635	11	-49.7	-85.8	282	10
2023-09-21T00:00	30660	11	-49.6	-85.8	283	11
2023-09-21T00:00	30706	11	-49.7	-85.8	283	11
2023-09-21T00:00	30736	11	-49.7	-85.8	284	12
2023-09-21T00:00	30763	11	-49.8	-85.9	285	12
2023-09-21T00:00	30784	11	-49.7	-85.8	287	12
2023-09-21T00:00	30820	10	-49.4	-85.6	289	13
2023-09-21T00:00	30870	10	-49.0	-85.3	291	13
2023-09-21T00:00	30879	10	-48.9	-85.3	293	14
2023-09-21T00:00	30913	10	-48.8	-85.2	293	14
2023-09-21T00:00	30927	10	-48.5	-85.0	294	14
2023-09-21T00:00	30974	10	-48.1	-84.7	293	14
2023-09-21T00:00	31004	10	-48.0	-84.6	293	14
2023-09-21T00:00	31026	10	-47.7	-84.4	293	13
2023-09-21T00:00	31067	10	-47.8	-84.5	293	13
2023-09-21T00:00	31089	10	-47.9	-84.6	294	12
2023-09-21T00:00	31106	10	-48.1	-84.7	295	12
2023-09-21T00:00	31151	10	-48.3	-84.8	296	12
2023-09-21T00:00	31181	10	-48.6	-85.0	297	12
2023-09-21T00:00	31197	10	-48.8	-85.2	297	11
2023-09-21T00:00	31247	10	-48.9	-84.2	296	11
2023-09-21T00:00	31272	10	-48.8	-85.2	294	11
2023-09-21T00:00	31306	10	-48.8	-85.2	291	11
2023-09-21T00:00	31324	10	-48.9	-85.3	288	11
2023-09-21T00:00	31366	10	-48.9	-85.3	284	11
2023-09-21T00:00	31391	10	-49.0	-85.3	279	11
2023-09-21T00:00	31406	10	-49.3	-84.5	275	11
2023-09-21T00:00	31442	10	-49.4	-84.6	271	11
2023-09-21T00:00	31473	9	-49.4	-84.6	268	12
2023-09-21T00:00	31481	9	-49.6	-84.7	265	12
2023-09-21T00:00	31519	9	-49.6	-84.7	262	13
2023-09-21T00:00	31543	9	-49.7	-84.8	261	14
2023-09-21T00:00	31572	9	-49.5	-84.6	260	14
2023-09-21T00:00	31600	9	-49.5	-85.7	260	15
2023-09-21T00:00	31649	9	-49.6	-85.8	261	16
2023-09-21T00:00	31662	9	-49.5	-85.7	261	17
2023-09-21T00:00	31676	9	-49.2	-85.5	260	17
2023-09-21T00:00	31717	9	-48.6	-85.0	260	17
2023-09-21T00:00	31738	9	-48.2	-84.8	259	17
2023-09-21T00:00	31763	9	-47.6	-84.3	259	16
2023-09-21T00:00	31789	9	-47.3	-84.1	259	16
2023-09-21T00:00	31835	9	-47.1	-84.0	259	15
2023-09-21T00:00	31857	9	-47.3	-84.1	261	15
2023-09-21T00:00	31882	9	-47.0	-83.9	262	15
2023-09-21T00:00	31902	9	-46.8	-83.8	264	15
2023-09-21T00:00	31924	9	-46.7	-83.7	266	15
2023-09-21T00:00	31955	9	-46.9	-83.9	267	16
2023-09-21T00:00	31992	9	-46.9	-83.9	268	16
2023-09-21T00:00	32023	9	-46.5	-83.6	269	16
2023-09-21T00:00	32057	9	-46.1	-83.3	270	17
2023-09-21T00:00	32083	9	-46.0	-83.2	271	17
2023-09-21T00:00	32112	9	-45.9	-83.2	272	17
2023-09-21T00:00	32133	9	-45.9	-83.2	273	17
2023-09-21T00:00	32151	9	-46.0	-83.2	273	17
2023-09-21T00:00	32196	9	-46.1	-83.3	273	17
2023-09-21T00:00	32214	8	-46.2	-83.4	272	18
2023-09-21T00:00	32245	8	-46.1	-83.3	271	18
2023-09-21T00:00	32288	8	-45.9	-83.2	270	18
2023-09-21T00:00	32331	8	-45.7	-83.0	269	18
2023-09-21T00:00	32340	8	-45.6	-82.9	268	19
2023-09-21T00:00	32380	8	-45.6	-82.9	268	19
2023-09-21T00:00	32388	8	-45.6	-82.9	269	19
2023-09-21T00:00	32427	8	-45.6	-82.9	271	19
2023-09-21T00:00	32472	8	-45.1	-82.6	272	19
2023-09-21T00:00	32481	8	-44.8	-82.4	274	19
2023-09-21T00:00	32517	8	-44.6	-82.2	275	20
2023-09-21T00:00	32551	8	-44.3	-82.0	275	20
2023-09-21T00:00	32597	8	-43.8	-81.7	276	19
2023-09-21T00:00	32638	8	-43.0	-81.1	277	18
2023-09-21T00:00	32652	8	-42.9	-81.1	279	17
2023-09-21T00:00	32687	8	-42.7	-80.9	281	17
2023-09-21T00:00	32730	8	-42.5	-80.8	283	16
2023-09-21T00:00	32734	8	-42.2	-80.6	285	16
2023-09-21T00:00	32791	8	-42.1	-80.5	287	16
2023-09-21T00:00	32817	8	-42.2	-80.6	289	17
2023-09-21T00:00	32824	8	-42.4	-80.7	291	17
2023-09-21T00:00	32859	8	-42.5	-80.8	293	17
2023-09-21T00:00	32889	8	-42.3	-80.6	294	16
2023-09-21T00:00	32907	8	-42.4	-80.7	295	16
2023-09-21T00:00	32943	8	-42.6	-80.8	295	16
2023-09-21T00:00	32963	8	-42.6	-80.8	295	15
2023-09-21T00:00	33009	8	-42.7	-80.9	294	15
2023-09-21T00:00	33015	8	-42.8	-81.0	292	14
2023-09-21T00:00	33036	7	-42.8	-81.0	291	14
2023-09-21T00:00	33086	7	-42.9	-81.1	289	14
2023-09-21T00:00	33126	7	-42.9	-81.1	288	14
2023-09-21T00:00	33152	7	-42.9	-81.1	288	14
2023-09-21T00:00	33190	7	-42.9	-81.1	288	13
2023-09-21T00:00	33228	7	-42.9	-81.1	288	13
2023-09-21T00:00	33243	7	-42.9	-81.1	288	13
2023-09-21T06:00	112	994	14.4	11.7	130	3
2023-09-21T06:00	138	991	15.1	12.0	161	3
2023-09-21T06:00	165	987	15.6	12.1	163	5
2023-09-21T06:00	192	984	17.2	11.9	168	5
2023-09-21T06:00	219	981	19.2	11.0	175	6
2023-09-21T06:00	247	978	20.3	10.4	182	6
2023-09-21T06:00	267	976	20.5	10.2	189	6
2023-09-21T06:00	288	973	20.4	10.1	194	6
2023-09-21T06:00	313	971	20.5	10.2	195	6
2023-09-21T06:00	337	968	20.5	10.4	194	6
2023-09-21T06:00	360	965	20.6		192	6
2023-09-21T06:00	381	963	20.6	10.4	191	6
2023-09-21T06:00	407	960	20.4	10.5	191	6
2023-09-21T06:00	432	957	20.3	10.8	194	6
2023-09-21T06:00	458	954	20.0	10.9	199	5
2023-09-21T06:00	487	951	19.7	11.1	203	5
2023-09-21T06:00	515	948	19.4	11.0	207	5
2023-09-21T06:00	544	945	19.2	11.3	209	5
2023-09-21T06:00	569	942	19.0	11.5	211	5
2023-09-21T06:00	594	939	18.9	11.5	211	5
2023-09-21T06:00	622	936	18.8	11.4	212	5
2023-09-21T06:00	649	933	18.5	11.4	213	5
2023-09-21T06:00	675	931	18.4	10.9	213	5
2023-09-21T06:00	702	928	18.2	10.7	212	5
2023-09-21T06:00	725	925	18.1	10.5	210	5
2023-09-21T06:00	752	922	17.8	10.4	208	4
2023-09-21T06:00	778	919	17.6	10.4	206	4
2023-09-21T06:00	805	917	17.4	10.3	204	4
2023-09-21T06:00	835	913	17.2	9.8	203	4
2023-09-21T06:00	860	911	17.0	9.6	202	4
2023-09-21T06:00	889	908	16.7	9.5	202	4
2023-09-21T06:00	916	905	16.5	9.6	203	4
2023-09-21T06:00	942	902	16.2	9.6	203	4
2023-09-21T06:00	974	899	15.9	9.4	203	4
2023-09-21T06:00	1000	896	15.7	9.3	201	4
2023-09-21T06:00	1023	893	15.5	9.2	198	4
2023-09-21T06:00	1049	891	15.2	8.9	196	4
2023-09-21T06:00	1078	888	15.0	8.8	194	5
2023-09-21T06:00	1099	885	14.9	8.6	194	5
2023-09-21T06:00	1126	883	14.7	8.1	195	5
2023-09-21T06:00	1155	880	14.5	7.8	196	6
2023-09-21T06:00	1185	876	14.2	7.7	197	6
2023-09-21T06:00	1216	873	14.0	7.5	198	7
2023-09-21T06:00	1247	870	13.8	7.3	198	8
2023-09-21T06:00	1272	867	13.9	6.6	197	9
2023-09-21T06:00	1300	865	13.7	5.9	197	9
2023-09-21T06:00	1327	862	13.8	5.3	196	10
2023-09-21T06:00	1360	859	13.8	4.7	196	11
2023-09-21T06:00	1388	856	13.6	4.9	196	11
2023-09-21T06:00	1419	853	13.4	4.9	196	12
2023-09-21T06:00	1447	850	13.3	4.4	196	12
2023-09-21T06:00	1481	846	13.3	3.7	195	12
2023-09-21T06:00	1506	844	13.2	3.5	193	13
2023-09-21T06:00	1537	841	13.0	3.1	192	13
2023-09-21T06:00	1564	838	12.9	2.8	191	13
2023-09-21T06:00	1593	835	12.7	2.7	191	13
2023-09-21T06:00	1621	832	12.7	1.6	192	12
2023-09-21T06:00	1648	830	12.8	0.1	194	12
2023-09-21T06:00	1675	827	12.7	-0.6	197	12
2023-09-21T06:00	1707	824	12.5	-1.0	199	11
2023-09-21T06:00	1731	821	12.3	-1.8	200	11
2023-09-21T06:00	1758	819	12.2	-2.2	200	11
2023-09-21T06:00	1783	816	12.0	-2.8	199	11
2023-09-21T06:00	1806	814	11.8	-3.0	198	10
2023-09-21T06:00	1828	812	11.7	-3.0	197	10
2023-09-21T06:00	1857	809	11.6	-3.3	197	10
2023-09-21T06:00	1882	807	11.6	-3.7	199	10
2023-09-21T06:00	1907	804	11.7	-4.4	202	9
2023-09-21T06:00	1937	801	11.8	-5.9	206	9
2023-09-21T06:00	1967	799	11.7	-6.0	210	9
2023-09-21T06:00	1995	796	11.5	-5.8	214	9
2023-09-21T06:00	2025	793	11.4	-5.6	217	9
2023-09-21T06:00	2056	790	11.2	-4.8	221	9
2023-09-21T06:00	2084	787	11.0	-4.6	224	9
2023-09-21T06:00	2111	785	10.7	-4.1	226	9
2023-09-21T06:00	2140	782	10.4	-2.7	227	10
2023-09-21T06:00	2168	780	10.1	-2.8	229	10
2023-09-21T06:00	2195	777	9.9	-2.3	230	10
2023-09-21T06:00	2223	774	9.6	-2.3	231	11
2023-09-21T06:00	2252	772	9.3	-1.9	233	11
2023-09-21T06:00	2277	769	9.1	-1.5	235	11
2023-09-21T06:00	2304	767	8.8	-1.3	236	11
2023-09-21T06:00	2335	764	8.5	-0.7	237	12
2023-09-21T06:00	2365	761	8.3	-0.3	238	11
2023-09-21T06:00	2389	759	8.1	0.1	237	11
2023-09-21T06:00	2416	756	8.1	-2.0	236	11
2023-09-21T06:00	2445	754	7.9		234	10
2023-09-21T06:00	2472	751	7.8	-3.8	232	10
2023-09-21T06:00	2501	749	7.6	-3.8	229	10
2023-09-21T06:00	2530	746	7.3	-4.0	227	9
2023-09-21T06:00	2563	743	7.1	-4.5	224	9
2023-09-21T06:00	2586	741	7.0	-5.4	220	8
2023-09-21T06:00	2613	739	6.8	-6.1	216	8
2023-09-21T06:00	2641	736	6.6	-6.5	213	8
2023-09-21T06:00	2668	734	6.4	-7.0	210	8
2023-09-21T06:00	2691	732	6.2	-7.1	207	8
2023-09-21T06:00	2718	729	6.0	-7.5	203	9
2023-09-21T06:00	2747	727	5.7	-8.2	199	9
2023-09-21T06:00	2773	724	5.7	-9.3	195	9
2023-09-21T06:00	2801	722	5.8	-13.2	193	9
2023-09-21T06:00	2828	720	5.9	-14.7	192	9
2023-09-21T06:00	2857	717	5.7	-14.1	191	9
2023-09-21T06:00	2883	715	5.5	-12.7	190	9
2023-09-21T06:00	2909	712	5.4	-14.1	190	9
2023-09-21T06:00	2938	710	5.2	-12.2	189	8
2023-09-21T06:00	2966	707	5.2	-13.2	189	9
2023-09-21T06:00	2992	705	5.0	-14.9	190	9
2023-09-21T06:00	3021	703	4.9	-16.9	191	9
2023-09-21T06:00	3044	701	4.7	-17.9	193	10
2023-09-21T06:00	3073	698	4.7	-18.8	195	10
2023-09-21T06:00	3100	696	4.6	-20.0	196	11
2023-09-21T06:00	3128	694	4.6	-20.6	198	11
2023-09-21T06:00	3153	691	4.4	-20.7	199	11
2023-09-21T06:00	3185	689	4.3	-20.3	200	12
2023-09-21T06:00	3209	687	4.1	-20.6	200	12
2023-09-21T06:00	3237	684	3.9	-22.2	201	12
2023-09-21T06:00	3261	682	3.8	-20.8	203	13
2023-09-21T06:00	3287	680	3.6	-20.3	204	13
2023-09-21T06:00	3313	678	3.6	-20.5	205	14
2023-09-21T06:00	3342	675	3.5	-20.5	207	14
2023-09-21T06:00	3377	673	3.4	-20.0	208	14
2023-09-21T06:00	3401	671	3.3	-19.4	210	14
2023-09-21T06:00	3429	668	3.3	-18.8	211	13
2023-09-21T06:00	3460	666	3.1	-18.2	212	13
2023-09-21T06:00	3489	663	2.9	-17.2	213	13
2023-09-21T06:00	3518	661	2.7	-17.7	214	13
2023-09-21T06:00	3543	659	2.5	-17.9	215	13
2023-09-21T06:00	3573	657	2.3	-16.9	216	13
2023-09-21T06:00	3599	654	2.1	-16.2	216	13
2023-09-21T06:00	3632	652	1.9	-14.2	216	13
2023-09-21T06:00	3659	650	1.7	-13.3	215	13
2023-09-21T06:00	3688	647	1.5	-16.0	215	13
2023-09-21T06:00	3718	645	1.4	-20.6	213	13
2023-09-21T06:00	3748	642	1.2	-20.8	212	13
2023-09-21T06:00	3777	640	1.1	-20.8	212	13
2023-09-21T06:00	3808	638	0.9	-14.2	211	12
2023-09-21T06:00	3838	635	0.6	-6.8	210	12
2023-09-21T06:00	3869	633	0.4	-6.1	210	12
2023-09-21T06:00	3896	630	0.1	-6.3	209	11
2023-09-21T06:00	3927	628	-0.2	-6.5	209	11
2023-09-21T06:00	3959	626	-0.5	-6.6	208	11
2023-09-21T06:00	3993	623	-0.8	-6.7	208	10
2023-09-21T06:00	4023	621	-1.0	-7.0	208	10
2023-09-21T06:00	4051	618	-1.1	-7.6	209	10
2023-09-21T06:00	4082	616	-1.4	-7.8	210	10
2023-09-21T06:00	4112	614	-1.6	-7.8	212	10
2023-09-21T06:00	4142	612	-1.9	-8.0	214	11
2023-09-21T06:00	4166	610	-2.1	-8.1	215	10
2023-09-21T06:00	4197	607	-2.3	-8.4	215	10
2023-09-21T06:00	4226	605	-2.5	-8.5	214	10
2023-09-21T06:00	4255	603	-2.7	-8.8	212	10
2023-09-21T06:00	4283	601	-2.9	-9.0	211	9
2023-09-21T06:00	4304	599	-3.1	-9.1	209	9
2023-09-21T06:00	4327	597	-3.3	-9.1	208	9
2023-09-21T06:00	4357	595	-3.4	-9.2	207	9
2023-09-21T06:00	4387	593	-3.6	-9.5	205	9
2023-09-21T06:00	4420	590	-3.9	-9.7	202	9
2023-09-21T06:00	4451	588	-4.2	-9.9	199	9
2023-09-21T06:00	4482	586	-4.4	-10.4	196	9
2023-09-21T06:00	4515	583	-4.6	-10.8	194	10
2023-09-21T06:00	4543	581	-4.6	-11.2	192	10
2023-09-21T06:00	4575	579	-4.6	-11.7	192	11
2023-09-21T06:00	4605	577	-4.7	-12.5	192	11
2023-09-21T06:00	4634	575	-4.8	-13.1	192	12
2023-09-21T06:00	4665	572	-5.0	-13.3	193	12
2023-09-21T06:00	4695	570	-5.3	-13.4	193	13
2023-09-21T06:00	4725	568	-5.5	-13.5	193	13
2023-09-21T06:00	4753	566	-5.7	-13.7	192	13
2023-09-21T06:00	4784	564	-5.9	-14.0	190	14
2023-09-21T06:00	4815	561	-6.1	-14.4	189	14
2023-09-21T06:00	4846	559	-6.3	-15.6	187	14
2023-09-21T06:00	4878	557	-6.4	-16.3	185	14
2023-09-21T06:00	4908	555	-6.5	-16.3	183	14
2023-09-21T06:00	4939	553	-6.8	-16.1	182	14
2023-09-21T06:00	4969	551	-7.0	-16.4	181	14
2023-09-21T06:00	4998	548	-7.2	-15.8	180	14
2023-09-21T06:00	5028	546	-7.4	-15.5	179	13
2023-09-21T06:00	5057	544	-7.6	-15.9	177	13
2023-09-21T06:00	5087	542	-7.8	-16.1	177	12
2023-09-21T06:00	5118	540	-8.0	-15.9	176	12
2023-09-21T06:00	5149	538	-8.3	-15.7	176	12
2023-09-21T06:00	5178	536	-8.5	-15.4	176	11
2023-09-21T06:00	5209	534	-8.7	-15.3	177	11
2023-09-21T06:00	5237	532	-9.0	-14.9	178	12
2023-09-21T06:00	5263	530	-9.2	-15.0	179	12
2023-09-21T06:00	5291	528	-9.4	-15.3	179	12
2023-09-21T06:00	5319	526	-9.7	-15.5	179	12
2023-09-21T06:00	5348	524	-10.0	-15.6	178	12
2023-09-21T06:00	5372	523	-10.2	-15.7	178	13
2023-09-21T06:00	5400	521	-10.4	-15.7	177	13
2023-09-21T06:00	5427	519	-10.7	-15.8	177	12
2023-09-21T06:00	5460	517	-11.0	-15.9	178	12
2023-09-21T06:00	5490	515	-11.3	-16.1	178	12
2023-09-21T06:00	5517	513	-11.6	-16.2	178	11
2023-09-21T06:00	5546	511	-11.8	-16.2	177	11
2023-09-21T06:00	5574	509	-12.1	-16.3	176	12
2023-09-21T06:00	5605	507	-12.4	-16.4	175	12
2023-09-21T06:00	5634	505	-12.7	-16.5	174	12
2023-09-21T06:00	5665	503	-13.0	-16.6	174	12
2023-09-21T06:00	5698	501	-13.3	-16.6	174	12
2023-09-21T06:00	5724	499	-13.6	-16.7	175	12
2023-09-21T06:00	5753	497	-13.8	-16.7	175	12
2023-09-21T06:00	5778	496	-14.1	-16.9	175	12
2023-09-21T06:00	5805	494	-14.4	-17.0	174	12
2023-09-21T06:00	5837	492	-14.7	-17.1	173	12
2023-09-21T06:00	5870	490	-15.0	-17.2	171	11
2023-09-21T06:00	5897	488	-15.2	-17.2	169	12
2023-09-21T06:00	5918	487	-15.4	-17.2	168	12
2023-09-21T06:00	5941	485	-15.7	-17.3	168	12
2023-09-21T06:00	5966	484	-15.9	-17.3	169	12
2023-09-21T06:00	5990	482	-16.1	-17.5	171	12
2023-09-21T06:00	6015	480	-16.3	-17.4	173	12
2023-09-21T06:00	6050	478	-16.6	-17.7	175	12
2023-09-21T06:00	6075	477	-16.8	-17.8	176	12
2023-09-21T06:00	6102	475	-17.0	-17.8	177	12
2023-09-21T06:00	6128	473	-17.2	-18.0	177	12
2023-09-21T06:00	6150	472	-17.4	-18.3	177	12
2023-09-21T06:00	6180	470	-17.7	-18.3	177	12
2023-09-21T06:00	6211	468	-17.9	-18.6	177	12
2023-09-21T06:00	6240	466	-18.1	-19.1	178	12
2023-09-21T06:00	6271	464	-18.3	-19.0	179	12
2023-09-21T06:00	6302	462	-18.4	-19.7	179	12
2023-09-21T06:00	6331	461	-18.3	-20.5	180	11
2023-09-21T06:00	6357	459	-18.4	-20.8	181	11
2023-09-21T06:00	6382	457	-18.6	-21.2	182	11
2023-09-21T06:00	6412	456	-18.8	-21.5	182	11
2023-09-21T06:00	6441	454	-19.1	-21.8	183	10
2023-09-21T06:00	6471	452	-19.4	-21.9	183	10
2023-09-21T06:00	6497	450	-19.6	-21.9	183	10
2023-09-21T06:00	6524	449	-19.9	-22.2	182	10
2023-09-21T06:00	6550	447	-20.1	-22.6	182	10
2023-09-21T06:00	6572	446	-20.2	-23.1	181	10
2023-09-21T06:00	6594	444	-20.4	-23.0	180	10
2023-09-21T06:00	6625	443	-20.7	-23.2	180	10
2023-09-21T06:00	6651	441	-20.9	-23.4	179	10
2023-09-21T06:00	6673	440	-21.1	-23.6	178	10
2023-09-21T06:00	6694	438	-21.2	-23.7	177	10
2023-09-21T06:00	6723	437	-21.4	-24.3	177	11
2023-09-21T06:00	6755	435	-21.5	-24.9	176	11
2023-09-21T06:00	6786	433	-21.8	-25.1	175	11
2023-09-21T06:00	6816	431	-22.1	-25.2	175	11
2023-09-21T06:00	6849	430	-22.4	-25.4	175	11
2023-09-21T06:00	6871	428	-22.6	-25.6	175	11
2023-09-21T06:00	6898	427	-22.8	-25.7	176	11
2023-09-21T06:00	6926	425	-23.1	-26.3	178	12
2023-09-21T06:00	6951	423	-23.2	-27.1	179	12
2023-09-21T06:00	6978	422	-23.4	-26.8	181	12
2023-09-21T06:00	7010	420	-23.6	-26.6	182	12
2023-09-21T06:00	7041	418	-23.9	-26.8	183	13
2023-09-21T06:00	7069	417	-24.1	-27.0	183	13
2023-09-21T06:00	7101	415	-24.4	-26.8	183	13
2023-09-21T06:00	7133	413	-24.7	-26.8	182	13
2023-09-21T06:00	7158	412	-25.0	-26.9	182	13
2023-09-21T06:00	7183	410	-25.2	-26.9	181	13
2023-09-21T06:00	7207	409	-25.4	-27.0	180	13
2023-09-21T06:00	7227	408	-25.6	-27.0	180	13
2023-09-21T06:00	7251	406	-25.8	-27.1	180	12
2023-09-21T06:00	7275	405	-26.0	-27.8	180	13
2023-09-21T06:00	7299	404	-26.1	-29.4	179	13
2023-09-21T06:00	7322	402	-26.2	-29.3	179	13
2023-09-21T06:00	7343	401	-26.3	-29.4	179	13
2023-09-21T06:00	7369	400	-26.5	-30.3	179	14
2023-09-21T06:00	7394	398	-26.6	-30.8	178	14
2023-09-21T06:00	7421	397	-26.8	-30.5	178	14
2023-09-21T06:00	7449	395	-27.1	-30.3	178	14
2023-09-21T06:00	7478	394	-27.3	-30.0	179	14
2023-09-21T06:00	7510	392	-27.6	-29.9	179	14
2023-09-21T06:00	7536	391	-27.8	-29.9	179	14
2023-09-21T06:00	7566	389	-28.1	-30.2	179	14
2023-09-21T06:00	7593	388	-28.3	-30.5	178	14
2023-09-21T06:00	7619	386	-28.6	-30.7	177	14
2023-09-21T06:00	7648	385	-28.8	-31.0	175	14
2023-09-21T06:00	7677	383	-29.1	-31.4	174	14
2023-09-21T06:00	7698	382	-29.2	-31.6	173	13
2023-09-21T06:00	7724	381	-29.4	-31.9	174	13
2023-09-21T06:00	7745	379	-29.6	-32.0	174	13
2023-09-21T06:00	7770	378	-29.8	-32.0	176	14
2023-09-21T06:00	7791	377	-30.0	-32.0	178	14
2023-09-21T06:00	7818	376	-30.2	-32.1	181	14
2023-09-21T06:00	7849	374	-30.4	-32.8	183	15
2023-09-21T06:00	7876	373	-30.5	-33.6	184	15
2023-09-21T06:00	7902	371	-30.7	-34.5	184	15
2023-09-21T06:00	7929	370	-30.8	-34.9	184	15
2023-09-21T06:00	7950	369	-31.0	-35.0	184	15
2023-09-21T06:00	7974	367	-31.2	-35.6	184	15
2023-09-21T06:00	7999	366	-31.3	-35.9	184	15
2023-09-21T06:00	8023	365	-31.5	-36.9	185	15
2023-09-21T06:00	8053	363	-31.6	-37.7	186	15
2023-09-21T06:00	8082	362	-31.7	-38.9	187	15
2023-09-21T06:00	8113	360	-31.8	-39.8	187	14
2023-09-21T06:00	8138	359	-31.9	-39.9	188	14
2023-09-21T06:00	8163	358	-32.1	-39.8	188	14
2023-09-21T06:00	8196	356	-32.3	-41.4	188	14
2023-09-21T06:00	8225	355	-32.3	-42.0	188	14
2023-09-21T06:00	8256	353	-32.6	-39.6	189	14
2023-09-21T06:00	8283	352	-32.7	-39.7	190	14
2023-09-21T06:00	8308	350	-32.9	-39.7	191	13
2023-09-21T06:00	8331	349	-33.1	-39.9	193	13
2023-09-21T06:00	8357	348	-33.2	-40.4	194	13
2023-09-21T06:00	8380	347	-33.5	-40.6	195	13
2023-09-21T06:00	8411	345	-33.7	-41.9	196	13
2023-09-21T06:00	8437	344	-33.9	-40.6	197	13
2023-09-21T06:00	8468	343	-34.2	-39.9	198	13
2023-09-21T06:00	8497	341	-34.4	-39.5	198	13
2023-09-21T06:00	8523	340	-34.6	-39.4	197	13
2023-09-21T06:00	8552	338	-34.8	-39.9	196	12
2023-09-21T06:00	8580	337	-35.1	-40.2	194	12
2023-09-21T06:00	8603	336	-35.3	-39.7	193	13
2023-09-21T06:00	8625	335	-35.5	-40.6	192	13
2023-09-21T06:00	8648	334	-35.7	-40.9	191	13
2023-09-21T06:00	8671	333	-35.9	-41.3	190	13
2023-09-21T06:00	8695	332	-36.1	-41.3	189	13
2023-09-21T06:00	8718	330	-36.3	-41.8	188	13
2023-09-21T06:00	8743	329	-36.5	-41.8	187	13
2023-09-21T06:00	8767	328	-36.7	-41.4	187	13
2023-09-21T06:00	8794	327	-36.9	-41.3	187	13
2023-09-21T06:00	8822	325	-37.2	-41.6	187	13
2023-09-21T06:00	8854	324	-37.5	-41.8	187	13
2023-09-21T06:00	8879	323	-37.7	-42.6	187	13
2023-09-21T06:00	8906	322	-37.9	-44.0	186	13
2023-09-21T06:00	8934	320	-38.1	-45.0	184	13
2023-09-21T06:00	8964	319	-38.3	-45.2	182	13
2023-09-21T06:00	8996	317	-38.6	-45.0	180	13
2023-09-21T06:00	9027	316	-38.9	-45.0	178	13
2023-09-21T06:00	9053	315	-39.1	-45.3	176	13
2023-09-21T06:00	9081	314	-39.3	-46.0	175	13
2023-09-21T06:00	9103	312	-39.5	-45.8	175	13
2023-09-21T06:00	9127	311	-39.7	-45.8	174	13
2023-09-21T06:00	9148	310	-39.8	-45.8	174	13
2023-09-21T06:00	9171	309	-40.0	-46.0	173	13
2023-09-21T06:00	9192	308	-40.2	-46.1	173	13
2023-09-21T06:00	9218	307	-40.4	-46.1	172	13
2023-09-21T06:00	9243	306	-40.7	-46.2	170	13
2023-09-21T06:00	9273	305	-40.9	-46.2	169	13
2023-09-21T06:00	9303	303	-41.2	-46.5	167	13
2023-09-21T06:00	9329	302	-41.4	-46.8	166	13
2023-09-21T06:00	9352	301	-41.6	-46.9	165	13
2023-09-21T06:00	9380	300	-41.8	-47.0	165	13
2023-09-21T06:00	9406	299	-42.0	-47.1	164	13
2023-09-21T06:00	9436	298	-42.3	-47.3	164	13
2023-09-21T06:00	9467	296	-42.6	-47.8	164	13
2023-09-21T06:00	9497	295	-42.8	-48.2	164	13
2023-09-21T06:00	9527	294	-43.1	-48.6	163	13
2023-09-21T06:00	9552	293	-43.3	-48.8	163	13
2023-09-21T06:00	9573	292	-43.4	-48.8	162	13
2023-09-21T06:00	9597	291	-43.6	-48.6	160	13
2023-09-21T06:00	9619	290	-43.6	-49.2	159	13
2023-09-21T06:00	9647	288	-43.8	-50.1	158	14
2023-09-21T06:00	9672	287	-43.9	-50.5	157	14
2023-09-21T06:00	9696	286	-44.0	-50.5	156	14
2023-09-21T06:00	9720	285	-44.1	-50.2	155	14
2023-09-21T06:00	9744	284	-44.4	-50.2	155	14
2023-09-21T06:00	9773	283	-44.6	-50.5	155	15
2023-09-21T06:00	9801	282	-44.8	-51.0	156	15
2023-09-21T06:00	9825	281	-45.0	-51.2	158	15
2023-09-21T06:00	9846	280	-45.2	-51.2	160	15
2023-09-21T06:00	9872	279	-45.4	-51.3	162	15
2023-09-21T06:00	9897	278	-45.6	-51.9	163	15
2023-09-21T06:00	9923	277	-45.6	-52.4	164	15
2023-09-21T06:00	9944	276	-45.8	-52.8	165	14
2023-09-21T06:00	9968	275	-45.9	-53.0	165	14
2023-09-21T06:00	9994	274	-46.0	-53.2	166	14
2023-09-21T06:00	10021	273	-46.1	-53.6	166	14
2023-09-21T06:00	10043	272	-46.2	-54.1	166	13
2023-09-21T06:00	10069	271	-46.2	-54.9	166	13
2023-09-21T06:00	10093	270	-46.2	-55.6	165	13
2023-09-21T06:00	10114	269	-46.2	-56.0	164	13
2023-09-21T06:00	10134	268	-46.3	-56.4	164	14
2023-09-21T06:00	10156	267	-46.4	-56.7	163	14
2023-09-21T06:00	10178	266	-46.5	-56.8	162	14
2023-09-21T06:00	10200	265	-46.5	-57.3	162	15
2023-09-21T06:00	10227	264	-46.5	-57.8	161	15
2023-09-21T06:00	10253	263	-46.6	-58.0	161	15
2023-09-21T06:00	10274	262	-46.4	-58.2	160	15
2023-09-21T06:00	10298	262	-46.2	-58.5	159	15
2023-09-21T06:00	10318	261	-46.2	-58.6	158	15
2023-09-21T06:00	10339	260	-46.1	-58.7	157	15
2023-09-21T06:00	10359	259	-46.0	-58.9	155	15
2023-09-21T06:00	10380	258	-45.9	-59.4	153	15
2023-09-21T06:00	10402	258	-45.8	-60.3	152	15
2023-09-21T06:00	10422	257	-45.7	-61.3	152	16
2023-09-21T06:00	10442	256	-45.7	-61.9	152	16
2023-09-21T06:00	10463	255	-45.8	-62.2	152	16
2023-09-21T06:00	10487	254	-45.7	-61.6	152	16
2023-09-21T06:00	10508	253	-45.8		153	16
2023-09-21T06:00	10529	253	-45.9	-60.8	154	16
2023-09-21T06:00	10552	252	-46.0	-60.6	154	16
2023-09-21T06:00	10575	251	-46.1	-60.8	155	15
2023-09-21T06:00	10600	250	-46.1	-60.8	155	15
2023-09-21T06:00	10620	249	-46.3	-60.9	154	15
2023-09-21T06:00	10641	248	-46.4	-60.7	153	15
2023-09-21T06:00	10662	248	-46.6	-60.7	152	15
2023-09-21T06:00	10682	247	-46.8	-60.7	152	15
2023-09-21T06:00	10705	246	-47.0	-60.8	151	15
2023-09-21T06:00	10726	245	-47.1	-60.6	150	15
2023-09-21T06:00	10747	244	-47.3	-60.5	150	15
2023-09-21T06:00	10770	244	-47.5	-60.5	150	15
2023-09-21T06:00	10791	243	-47.7	-60.5	150	15
2023-09-21T06:00	10812	242	-47.9	-60.6	150	15
2023-09-21T06:00	10837	241	-48.1	-60.7	150	14
2023-09-21T06:00	10859	240	-48.2	-60.9	149	14
2023-09-21T06:00	10881	240	-48.3	-61.1	149	14
2023-09-21T06:00	10902	239	-48.4	-61.1	149	13
2023-09-21T06:00	10923	238	-48.6	-61.1	149	13
2023-09-21T06:00	10945	237	-48.8	-61.2	148	13
2023-09-21T06:00	10965	236	-48.9	-61.2	148	13
2023-09-21T06:00	10987	236	-49.1	-61.3	148	13
2023-09-21T06:00	11010	235	-49.3		149	14
2023-09-21T06:00	11035	234	-49.5	-62.2	150	14
2023-09-21T06:00	11063	233	-49.6	-63.8	151	15
2023-09-21T06:00	11096	232	-49.3	-66.4	153	15
2023-09-21T06:00	11119	231	-49.0	-67.8	155	16
2023-09-21T06:00	11145	230	-49.1	-67.5	157	16
2023-09-21T06:00	11168	229	-49.3	-67.0	159	16
2023-09-21T06:00	11194	228	-49.4	-66.8	160	16
2023-09-21T06:00	11219	228	-49.5	-66.7	162	16
2023-09-21T06:00	11242	227	-49.5	-66.5	163	16
2023-09-21T06:00	11266	226	-49.7	-66.5	163	16
2023-09-21T06:00	11292	225	-49.9	-66.4	164	16
2023-09-21T06:00	11317	224	-50.2	-66.4	164	16
2023-09-21T06:00	11342	223	-50.4	-66.3	165	15
2023-09-21T06:00	11366	222	-50.6	-66.1	166	14
2023-09-21T06:00	11397	221	-50.9	-66.0	167	14
2023-09-21T06:00	11424	221	-51.0	-65.8	169	13
2023-09-21T06:00	11441	220	-51.2	-65.8	171	12
2023-09-21T06:00	11463	219	-51.2	-66.1	173	12
2023-09-21T06:00	11486	218	-51.0	-66.5	175	12
2023-09-21T06:00	11506	218	-51.0	-67.1	176	12
2023-09-21T06:00	11527	217	-50.9	-67.6	176	12
2023-09-21T06:00	11548	216	-50.7	-68.3	176	13
2023-09-21T06:00	11569	216	-50.7	-69.1	177	13
2023-09-21T06:00	11589	215	-50.7	-69.5	177	13
2023-09-21T06:00	11611	214	-50.6	-69.8	177	14
2023-09-21T06:00	11631	214	-50.6	-70.1	177	14
2023-09-21T06:00	11651	213	-50.7	-70.2	177	14
2023-09-21T06:00	11671	212	-50.8	-70.3	177	14
2023-09-21T06:00	11695	212	-51.0	-70.5	178	14
2023-09-21T06:00	11717	211	-51.1	-70.7	179	14
2023-09-21T06:00	11738	210	-51.3	-71.0	180	14
2023-09-21T06:00	11759	209	-51.2		181	14
2023-09-21T06:00	11783	209	-51.1	-71.3	181	13
2023-09-21T06:00	11803	208	-51.0	-71.3	181	13
2023-09-21T06:00	11825	207	-51.2	-71.6	181	13
2023-09-21T06:00	11845	207	-51.3	-71.8	179	13
2023-09-21T06:00	11868	206	-51.4	-72.0	178	13
2023-09-21T06:00	11888	205	-51.5	-72.2	177	13
2023-09-21T06:00	11912	205	-51.3	-72.2	176	13
2023-09-21T06:00	11934	204	-51.2	-72.6	176	13
2023-09-21T06:00	11956	203	-51.1	-72.9	176	12
2023-09-21T06:00	11978	202	-51.1	-73.5	177	12
2023-09-21T06:00	12002	202	-51.0	-73.7	179	12
2023-09-21T06:00	12025	201	-50.9	-73.9	182	12
2023-09-21T06:00	12045	200	-51.0	-74.2	184	13
2023-09-21T06:00	12068	200	-51.1	-74.2	186	13
2023-09-21T06:00	12090	199	-51.1	-74.2	188	13
2023-09-21T06:00	12113	198	-51.1	-74.4	189	14
2023-09-21T06:00	12136	198	-51.3	-74.6	191	14
2023-09-21T06:00	12159	197	-51.4	-74.8	191	14
2023-09-21T06:00	12184	196	-51.5	-74.9	192	14
2023-09-21T06:00	12205	195	-51.4	-75.0	192	14
2023-09-21T06:00	12228	195	-51.4	-75.2	192	14
2023-09-21T06:00	12253	194	-51.5	-75.4	192	14
2023-09-21T06:00	12275	193	-51.6	-75.5	192	13
2023-09-21T06:00	12298	193	-51.8	-75.5	191	13
2023-09-21T06:00	12321	192	-52.0	-75.6	190	13
2023-09-21T06:00	12343	191	-52.1	-75.7	189	13
2023-09-21T06:00	12364	191	-52.1	-75.9	189	13
2023-09-21T06:00	12387	190	-52.1	-75.9	188	14
2023-09-21T06:00	12408	190	-51.8	-75.8	188	14
2023-09-21T06:00	12429	189	-51.9	-76.1	189	14
2023-09-21T06:00	12452	188	-52.1	-76.3	189	14
2023-09-21T06:00	12474	188	-52.2	-76.4	190	14
2023-09-21T06:00	12496	187	-52.2	-76.4	191	14
2023-09-21T06:00	12518	186	-52.3	-76.4	192	14
2023-09-21T06:00	12539	186	-52.3	-76.4	193	14
2023-09-21T06:00	12562	185	-52.5	-76.6	193	14
2023-09-21T06:00	12586	184	-52.7	-76.8	193	14
2023-09-21T06:00	12607	184	-52.8	-76.6	192	14
2023-09-21T06:00	12630	183	-53.0	-76.8	192	15
2023-09-21T06:00	12653	182	-53.1	-76.7	191	15
2023-09-21T06:00	12676	182	-53.3	-76.9	191	15
2023-09-21T06:00	12697	181	-53.4	-76.8	191	15
2023-09-21T06:00	12720	181	-53.6	-76.9	191	15
2023-09-21T06:00	12744	180	-53.7	-77.0	191	15
2023-09-21T06:00	12766	179	-53.7	-76.8	191	15
2023-09-21T06:00	12788	179	-53.8		191	16
2023-09-21T06:00	12813	178	-53.9	-76.8	191	16
2023-09-21T06:00	12835	177	-54.1	-76.8	191	16
2023-09-21T06:00	12857	177	-54.2	-76.7	191	17
2023-09-21T06:00	12878	176	-54.4	-76.9	191	17
2023-09-21T06:00	12899	176	-54.5	-76.8	191	17
2023-09-21T06:00	12923	175	-54.7	-76.8	191	16
2023-09-21T06:00	12944	174	-54.8	-76.9	191	16
2023-09-21T06:00	12966	174	-54.8	-76.8	192	16
2023-09-21T06:00	12989	173	-54.9	-77.0	192	15
2023-09-21T06:00	13013	172	-55.1	-77.2	192	15
2023-09-21T06:00	13039	172	-55.1	-77.2	192	14
2023-09-21T06:00	13063	171	-55.2	-77.1	191	14
2023-09-21T06:00	13085	171	-55.3	-77.2	191	13
2023-09-21T06:00	13108	170	-55.5	-77.3	190	13
2023-09-21T06:00	13131	169	-55.5	-77.3	190	13
2023-09-21T06:00	13154	169	-55.6	-77.6	190	13
2023-09-21T06:00	13175	168	-55.8	-77.7	190	13
2023-09-21T06:00	13199	168	-55.8	-77.7	191	13
2023-09-21T06:00	13222	167	-55.9	-77.8	192	13
2023-09-21T06:00	13245	166	-56.1	-78.0	194	14
2023-09-21T06:00	13267	166	-56.3	-78.0	196	14
2023-09-21T06:00	13290	165	-56.5	-78.2	198	14
2023-09-21T06:00	13314	165	-56.6	-78.4	199	14
2023-09-21T06:00	13337	164	-56.5	-78.4	201	14
2023-09-21T06:00	13362	163	-56.6	-78.5	203	14
2023-09-21T06:00	13384	163	-56.7	-78.6	204	14
2023-09-21T06:00	13404	162	-56.9	-78.8	206	14
2023-09-21T06:00	13426	162	-57.0	-78.9	207	14
2023-09-21T06:00	13451	161	-57.0	-78.9	208	14
2023-09-21T06:00	13473	160	-57.1	-78.9	209	14
2023-09-21T06:00	13495	160	-57.2	-78.9	210	14
2023-09-21T06:00	13518	159	-57.4	-79.0	210	13
2023-09-21T06:00	13541	159	-57.5	-79.1	210	13
2023-09-21T06:00	13562	158	-57.6	-79.3	209	12
2023-09-21T06:00	13584	158	-57.3	-79.2	209	12
2023-09-21T06:00	13608	157	-57.1	-79.2	209	11
2023-09-21T06:00	13627	157	-57.2	-79.3	209	10
2023-09-21T06:00	13651	156	-57.3	-79.6	209	10
2023-09-21T06:00	13675	155	-57.3	-79.4	210	10
2023-09-21T06:00	13696	155	-57.4	-79.5	210	9
2023-09-21T06:00	13721	154	-57.6	-79.6	209	9
2023-09-21T06:00	13742	154	-57.7	-79.7	208	8
2023-09-21T06:00	13762	153	-57.8	-79.8	206	8
2023-09-21T06:00	13785	153	-57.9	-79.9	203	8
2023-09-21T06:00	13810	152	-58.0	-80.0	198	8
2023-09-21T06:00	13831	152	-58.0	-80.0	194	8
2023-09-21T06:00	13857	151	-58.1	-80.0	190	9
2023-09-21T06:00	13883	150	-58.2	-80.1	188	9
2023-09-21T06:00	13905	150	-58.4	-80.1	188	10
2023-09-21T06:00	13929	149	-58.4	-80.1	190	10
2023-09-21T06:00	13952	149	-58.6	-80.3	192	10
2023-09-21T06:00	13973	148	-58.3	-80.2	196	10
2023-09-21T06:00	13998	148	-58.5	-80.4	199	10
2023-09-21T06:00	14021	147	-58.6	-80.4	203	11
2023-09-21T06:00	14042	147	-58.7	-80.7	206	11
2023-09-21T06:00	14066	146	-58.8	-80.8	211	11
2023-09-21T06:00	14088	146	-58.8	-80.9	215	11
2023-09-21T06:00	14111	145	-58.6	-81.1	219	11
2023-09-21T06:00	14137	144	-58.4	-81.3	222	11
2023-09-21T06:00	14159	144	-58.4	-81.5	225	10
2023-09-21T06:00	14182	143	-58.5	-81.8	226	10
2023-09-21T06:00	14205	143	-58.7		226	10
2023-09-21T06:00	14226	142	-58.8	-82.0	224	10
2023-09-21T06:00	14249	142	-58.9	-82.1	222	10
2023-09-21T06:00	14273	141	-58.8	-82.0	219	10
2023-09-21T06:00	14296	141	-58.9	-82.1	216	10
2023-09-21T06:00	14323	140	-59.1	-82.2	213	10
2023-09-21T06:00	14349	140	-59.3	-82.2	210	10
2023-09-21T06:00	14370	139	-59.5	-82.4	208	11
2023-09-21T06:00	14393	139	-59.7	-82.3	206	11
2023-09-21T06:00	14416	138	-59.9	-82.3	204	11
2023-09-21T06:00	14438	138	-60.0	-82.4	202	11
2023-09-21T06:00	14462	137	-60.2	-82.6	200	11
2023-09-21T06:00	14485	137	-60.3	-82.5	198	12
2023-09-21T06:00	14508	136	-60.4	-82.5	197	12
2023-09-21T06:00	14529	136	-60.5	-82.6	196	12
2023-09-21T06:00	14554	135	-60.5	-82.6	195	12
2023-09-21T06:00	14578	135	-60.6	-82.7	195	12
2023-09-21T06:00	14601	134	-60.4	-82.7	194	12
2023-09-21T06:00	14623	134	-60.4	-82.7	193	12
2023-09-21T06:00	14645	133	-60.3	-82.6	192	12
2023-09-21T06:00	14666	133	-60.4	-82.7	190	12
2023-09-21T06:00	14691	132	-60.4	-82.5	188	11
2023-09-21T06:00	14715	132	-60.4	-82.5	187	11
2023-09-21T06:00	14736	131	-60.5	-82.6	185	11
2023-09-21T06:00	14762	131	-60.5	-82.5	184	10
2023-09-21T06:00	14786	130	-60.5	-82.5	184	10
2023-09-21T06:00	14808	130	-60.5	-82.5	185	9
2023-09-21T06:00	14831	129	-60.7	-82.5	186	8
2023-09-21T06:00	14851	129	-60.8	-82.5	188	8
2023-09-21T06:00	14876	128	-61.0	-82.5	189	7
2023-09-21T06:00	14898	128	-61.0	-82.5	189	7
2023-09-21T06:00	14922	127	-61.2	-82.7	189	7
2023-09-21T06:00	14947	127	-61.3	-82.9	188	8
2023-09-21T06:00	14970	126	-61.2	-83.0	187	8
2023-09-21T06:00	14991	126	-60.6	-82.7	186	9
2023-09-21T06:00	15016	125	-60.5	-82.8	185	9
2023-09-21T06:00	15038	125	-60.5	-83.0	184	10
2023-09-21T06:00	15062	125	-60.6	-83.1	183	10
2023-09-21T06:00	15084	124	-60.7	-83.1	183	11
2023-09-21T06:00	15107	124	-60.8	-83.2	183	11
2023-09-21T06:00	15130	123	-60.9	-83.3	183	11
2023-09-21T06:00	15154	123	-60.8	-83.2	184	11
2023-09-21T06:00	15176	122	-60.8	-83.4	186	11
2023-09-21T06:00	15201	122	-60.9	-83.7	187	11
2023-09-21T06:00	15222	121	-60.8	-84.0	189	11
2023-09-21T06:00	15245	121	-60.2	-83.7	191	11
2023-09-21T06:00	15268	120	-59.7	-83.7	192	12
2023-09-21T06:00	15289	120	-59.6	-84.1	194	12
2023-09-21T06:00	15311	120	-59.2	-84.1	195	12
2023-09-21T06:00	15335	119	-59.0	-83.9	195	13
2023-09-21T06:00	15360	119	-58.8	-84.0	195	13
2023-09-21T06:00	15383	118	-58.8	-83.8	194	13
2023-09-21T06:00	15404	118	-59.0	-83.9	193	14
2023-09-21T06:00	15428	117	-59.2	-84.1	192	14
2023-09-21T06:00	15448	117	-59.4	-84.0	191	14
2023-09-21T06:00	15473	117	-59.6	-84.1	191	15
2023-09-21T06:00	15494	116	-59.8	-84.1	191	15
2023-09-21T06:00	15515	116	-59.9	-84.1	192	15
2023-09-21T06:00	15537	115	-60.0	-84.2	194	15
2023-09-21T06:00	15562	115	-59.9	-84.1	196	15
2023-09-21T06:00	15587	114	-60.0	-84.2	198	15
2023-09-21T06:00	15610	114	-60.2	-84.4	199	15
2023-09-21T06:00	15634	114	-60.4	-84.8	200	15
2023-09-21T06:00	15658	113	-60.3	-84.7	202	15
2023-09-21T06:00	15682	113	-60.1	-84.5	203	16
2023-09-21T06:00	15705	112	-60.2	-84.6	205	16
2023-09-21T06:00	15729	112	-60.3	-84.7	207	15
2023-09-21T06:00	15754	111	-60.4	-84.8	209	15
2023-09-21T06:00	15778	111	-60.3	-84.7	210	15
2023-09-21T06:00	15801	111	-60.3	-84.7	211	15
2023-09-21T06:00	15824	110	-60.5	-84.8	212	14
2023-09-21T06:00	15850	110	-60.5	-84.8	213	14
2023-09-21T06:00	15873	109	-60.3	-84.7	214	13
2023-09-21T06:00	15895	109	-60.4	-84.8	215	13
2023-09-21T06:00	15922	108	-60.6	-84.9	217	13
2023-09-21T06:00	15948	108	-60.7	-84.8	219	13
2023-09-21T06:00	15969	108	-60.9	-84.9	221	12
2023-09-21T06:00	15994	107	-61.1	-84.8	223	12
2023-09-21T06:00	16021	107	-61.2	-84.9	224	12
2023-09-21T06:00	16041	106	-61.4	-85.1	224	11
2023-09-21T06:00	16065	106	-61.6	-85.0	224	10
2023-09-21T06:00	16088	106	-61.7	-85.1	223	10
2023-09-21T06:00	16116	105	-62.0	-85.3	222	9
2023-09-21T06:00	16138	105	-62.1	-85.4	220	9
2023-09-21T06:00	16159	104	-62.1	-85.4	217	8
2023-09-21T06:00	16182	104	-61.9	-85.5	215	8
2023-09-21T06:00	16205	104	-61.8	-85.6	212	8
2023-09-21T06:00	16229	103	-61.1	-85.3	209	9
2023-09-21T06:00	16252	103	-61.0	-85.2	206	9
2023-09-21T06:00	16277	102	-61.0	-85.2	203	9
2023-09-21T06:00	16298	102	-61.0	-85.2	199	9
2023-09-21T06:00	16322	102	-61.1	-85.3	196	9
2023-09-21T06:00	16342	101	-61.2	-85.4	193	9
2023-09-21T06:00	16367	101	-61.3	-85.5	191	9
2023-09-21T06:00	16391	101	-61.3	-85.5	190	9
2023-09-21T06:00	16414	100	-61.1	-85.6	191	9
2023-09-21T06:00	16436	100	-61.0	-85.7	194	10
2023-09-21T06:00	16459	99	-60.3	-85.5	196	10
2023-09-21T06:00	16487	99	-59.9	-85.4	198	11
2023-09-21T06:00	16506	99	-59.8	-85.6	199	11
2023-09-21T06:00	16532	98	-59.7	-85.6	199	12
2023-09-21T06:00	16557	98	-59.7	-85.9	199	12
2023-09-21T06:00	16578	98	-59.4	-85.6	198	12
2023-09-21T06:00	16602	97	-59.3	-85.9	198	12
2023-09-21T06:00	16629	97	-59.1	-85.7	198	12
2023-09-21T06:00	16653	96	-58.8	-85.5	197	12
2023-09-21T06:00	16678	96	-58.7	-85.8	197	12
2023-09-21T06:00	16704	96	-58.6	-85.7	197	12
2023-09-21T06:00	16727	95	-58.5	-85.6	198	11
2023-09-21T06:00	16751	95	-58.6	-85.7	198	11
2023-09-21T06:00	16773	95	-58.6	-85.7	199	11
2023-09-21T06:00	16799	94	-58.5	-85.6	200	11
2023-09-21T06:00	16825	94	-58.5	-85.6	200	10
2023-09-21T06:00	16847	93	-58.4	-85.9	200	10
2023-09-21T06:00	16870	93	-58.4	-85.9	200	10
2023-09-21T06:00	16894	93	-58.4	-85.9	201	10
2023-09-21T06:00	16917	92	-58.5	-86.0	203	11
2023-09-21T06:00	16941	92	-58.6	-86.1	205	11
2023-09-21T06:00	16967	92	-58.5	-86.0	207	11
2023-09-21T06:00	16993	91	-58.5	-86.0	209	12
2023-09-21T06:00	17017	91	-58.7	-86.1	211	12
2023-09-21T06:00	17043	91	-58.8	-86.2	213	12
2023-09-21T06:00	17067	90	-59.0	-86.4	214	13
2023-09-21T06:00	17095	90	-58.9	-86.3	216	13
2023-09-21T06:00	17119	90	-58.8	-86.2	218	14
2023-09-21T06:00	17144	89	-59.0	-86.4	220	14
2023-09-21T06:00	17171	89	-59.3	-86.6	221	14
2023-09-21T06:00	17196	88	-59.4	-86.7	223	15
2023-09-21T06:00	17220	88	-59.5	-86.8	224	15
2023-09-21T06:00	17246	88	-59.7	-86.9	226	15
2023-09-21T06:00	17271	87	-59.8	-87.0	227	15
2023-09-21T06:00	17296	87	-59.8	-87.0	229	15
2023-09-21T06:00	17319	87	-59.9	-87.1	231	14
2023-09-21T06:00	17345	86	-59.9	-87.1	233	14
2023-09-21T06:00	17370	86	-59.8	-87.0	234	13
2023-09-21T06:00	17397	86	-59.9	-87.1	237	13
2023-09-21T06:00	17419	85	-60.1	-87.2	239	13
2023-09-21T06:00	17442	85	-60.1	-87.2	241	12
2023-09-21T06:00	17467	85	-60.1	-87.2	242	12
2023-09-21T06:00	17492	84	-60.1	-87.2	243	12
2023-09-21T06:00	17512	84	-60.2	-87.3	244	11
2023-09-21T06:00	17537	84	-60.3	-87.4	244	11
2023-09-21T06:00	17562	83	-60.4	-87.4	244	11
2023-09-21T06:00	17587	83	-60.4	-87.4	243	11
2023-09-21T06:00	17613	83	-60.2	-87.3	242	11
2023-09-21T06:00	17637	82	-60.0	-87.5	241	10
2023-09-21T06:00	17660	82	-59.7	-87.3	240	10
2023-09-21T06:00	17684	82	-59.3	-87.0	239	9
2023-09-21T06:00	17708	81	-59.3	-87.4	238	9
2023-09-21T06:00	17733	81	-59.4	-87.5	237	8
2023-09-21T06:00	17754	81	-59.3	-87.4	236	8
2023-09-21T06:00	17781	81	-59.2	-87.3	235	7
2023-09-21T06:00	17804	80	-59.2	-87.3	233	7
2023-09-21T06:00	17832	80	-59.3	-87.0	230	7
2023-09-21T06:00	17856	80	-59.5	-87.1	225	7
2023-09-21T06:00	17881	79	-59.5	-87.1	220	7
2023-09-21T06:00	17905	79	-59.4	-87.1	216	7
2023-09-21T06:00	17928	79	-59.1	-86.8	214	7
2023-09-21T06:00	17950	78	-59.2	-87.3	212	8
2023-09-21T06:00	17979	78	-59.4	-87.5	212	8
2023-09-21T06:00	18003	78	-59.5	-87.6	211	8
2023-09-21T06:00	18028	77	-59.4	-87.5	210	9
2023-09-21T06:00	18052	77	-59.0	-87.2	210	9
2023-09-21T06:00	18076	77	-58.9	-87.1	211	10
2023-09-21T06:00	18099	77	-58.8	-87.5	212	11
2023-09-21T06:00	18122	76	-58.8	-87.5	213	11
2023-09-21T06:00	18153	76	-58.9	-87.6	215	12
2023-09-21T06:00	18175	76	-58.6	-87.3	216	13
2023-09-21T06:00	18199	75	-58.3	-87.1	218	13
2023-09-21T06:00	18225	75	-58.1	-87.4	219	13
2023-09-21T06:00	18250	75	-58.1	-87.4	222	13
2023-09-21T06:00	18273	74	-58.0	-87.4	224	13
2023-09-21T06:00	18297	74	-57.9	-87.3	228	13
2023-09-21T06:00	18322	74	-58.0	-87.4	231	13
2023-09-21T06:00	18349	74	-58.0	-87.4	234	13
2023-09-21T06:00	18369	73	-58.0	-87.4	237	13
2023-09-21T06:00	18396	73	-57.8	-87.2	239	13
2023-09-21T06:00	18422	73	-57.9	-87.3	242	13
2023-09-21T06:00	18448	72	-58.0	-87.4	244	13
2023-09-21T06:00	18475	72	-58.0	-87.4	246	13
2023-09-21T06:00	18498	72	-57.9	-87.3	248	13
2023-09-21T06:00	18528	72	-58.0	-87.4	250	13
2023-09-21T06:00	18550	71	-57.8	-87.2	251	12
2023-09-21T06:00	18572	71	-57.7	-87.2	251	12
2023-09-21T06:00	18594	71	-57.8	-87.2	250	11
2023-09-21T06:00	18620	70	-57.8	-87.2	248	11
2023-09-21T06:00	18643	70	-57.7	-87.2	245	11
2023-09-21T06:00	18669	70	-57.8	-87.8	242	11
2023-09-21T06:00	18693	70	-57.5	-87.5	239	11
2023-09-21T06:00	18719	69	-57.2	-87.3	237	11
2023-09-21T06:00	18741	69	-57.1	-87.2	235	11
2023-09-21T06:00	18767	69	-57.0	-87.2	234	11
2023-09-21T06:00	18793	69	-57.1	-87.2	233	11
2023-09-21T06:00	18818	68	-57.2	-87.3	233	12
2023-09-21T06:00	18841	68	-57.3	-87.4	232	12
2023-09-21T06:00	18862	68	-57.5	-87.0	232	12
2023-09-21T06:00	18889	68	-57.7	-87.2	232	13
2023-09-21T06:00	18909	67	-57.8	-87.2	233	13
2023-09-21T06:00	18937	67	-58.0	-87.4	234	13
2023-09-21T06:00	18960	67	-58.1	-87.4	236	12
2023-09-21T06:00	18984	67	-58.3	-87.6	238	12
2023-09-21T06:00	19012	66	-58.3	-87.6	241	12
2023-09-21T06:00	19036	66	-58.2	-87.5	243	12
2023-09-21T06:00	19061	66	-58.0	-87.4	246	12
2023-09-21T06:00	19085	65	-58.1	-87.4	247	12
2023-09-21T06:00	19108	65	-58.1	-87.4	249	12
2023-09-21T06:00	19135	65	-58.0	-87.4	249	12
2023-09-21T06:00	19158	65	-58.0	-87.4	250	12
2023-09-21T06:00	19184	64	-58.0	-87.4	251	11
2023-09-21T06:00	19210	64	-58.1	-87.4	251	11
2023-09-21T06:00	19234	64	-58.1	-87.4	252	10
2023-09-21T06:00	19258	64	-58.0	-87.4	252	9
2023-09-21T06:00	19284	63	-58.0	-87.4	252	9
2023-09-21T06:00	19306	63	-58.0	-87.4	253	9
2023-09-21T06:00	19335	63	-58.1	-88.0	252	9
2023-09-21T06:00	19359	63	-58.1	-88.0	252	9
2023-09-21T06:00	19385	62	-57.9	-87.8	251	9
2023-09-21T06:00	19410	62	-57.5	-87.5	249	8
2023-09-21T06:00	19434	62	-57.0	-87.8	248	8
2023-09-21T06:00	19460	62	-56.6	-87.5	247	7
2023-09-21T06:00	19482	61	-56.4	-87.3	247	7
2023-09-21T06:00	19508	61	-56.3	-87.2	247	7
2023-09-21T06:00	19532	61	-56.2	-87.2	246	7
2023-09-21T06:00	19554	61	-56.2	-87.2	245	7
2023-09-21T06:00	19581	61	-56.2	-87.2	241	7
2023-09-21T06:00	19609	60	-56.2	-87.2	237	7
2023-09-21T06:00	19636	60	-56.3	-87.2	231	7
2023-09-21T06:00	19661	60	-56.3	-87.2	225	7
2023-09-21T06:00	19686	60	-56.3	-87.2	220	7
2023-09-21T06:00	19710	59	-56.4	-87.3	215	7
2023-09-21T06:00	19736	59	-56.4	-87.3	213	8
2023-09-21T06:00	19758	59	-56.0	-87.0	212	8
2023-09-21T06:00	19788	59	-55.9	-86.9	213	9
2023-09-21T06:00	19813	58	-55.8	-86.9	214	9
2023-09-21T06:00	19836	58	-55.9	-86.9	216	10
2023-09-21T06:00	19862	58	-56.0	-87.0	216	10
2023-09-21T06:00	19888	58	-56.2	-87.2	216	10
2023-09-21T06:00	19914	57	-56.4		216	11
2023-09-21T06:00	19937	57	-56.5	-86.8	216	11
2023-09-21T06:00	19962	57	-56.7	-86.9	217	11
2023-09-21T06:00	19985	57	-56.9	-87.1	218	12
2023-09-21T06:00	20012	57	-57.0	-87.2	220	12
2023-09-21T06:00	20038	56	-57.2	-87.3	222	12
2023-09-21T06:00	20065	56	-57.3	-87.4	224	12
2023-09-21T06:00	20097	56	-57.4	-87.5	225	11
2023-09-21T06:00	20119	56	-57.4	-87.5	227	11
2023-09-21T06:00	20148	55	-57.4	-87.5	228	10
2023-09-21T06:00	20173	55	-57.2	-87.3	228	10
2023-09-21T06:00	20197	55	-57.1	-87.2	228	10
2023-09-21T06:00	20224	55	-57.1	-87.2	228	9
2023-09-21T06:00	20250	54	-57.1	-87.2	227	9
2023-09-21T06:00	20276	54	-57.2	-87.3	226	9
2023-09-21T06:00	20303	54	-57.3	-87.4	225	9
2023-09-21T06:00	20329	54	-57.3	-87.4	223	9
2023-09-21T06:00	20354	54	-57.2	-87.3	222	9
2023-09-21T06:00	20381	53	-57.3	-87.4	221	9
2023-09-21T06:00	20409	53	-57.3	-87.4	220	9
2023-09-21T06:00	20434	53	-57.1	-87.2	219	9
2023-09-21T06:00	20458	53	-57.1	-87.2	220	9
2023-09-21T06:00	20485	52	-57.3	-88.0	221	8
2023-09-21T06:00	20510	52	-57.3	-88.0	224	8
2023-09-21T06:00	20534	52	-57.2	-87.9	227	9
2023-09-21T06:00	20561	52	-57.1	-87.8	231	9
2023-09-21T06:00	20586	52	-57.1	-87.2	234	9
2023-09-21T06:00	20612	51	-57.2	-87.3	237	10
2023-09-21T06:00	20636	51	-57.2	-87.3	238	10
2023-09-21T06:00	20659	51	-57.3	-87.4	239	10
2023-09-21T06:00	20685	51	-57.4	-87.5	240	11
2023-09-21T06:00	20708	51	-57.5	-87.5	240	11
2023-09-21T06:00	20732	50	-57.8	-87.8	241	11
2023-09-21T06:00	20756	50	-58.0	-87.4	242	12
2023-09-21T06:00	20782	50	-58.1	-87.4	243	11
2023-09-21T06:00	20808	50	-58.0	-87.9	246	11
2023-09-21T06:00	20833	50	-58.0	-87.9	250	11
2023-09-21T06:00	20859	49	-57.9	-87.8	254	11
2023-09-21T06:00	20882	49	-57.7	-88.3	258	11
2023-09-21T06:00	20912	49	-57.4	-88.1	260	11
2023-09-21T06:00	20932	49	-57.1	-87.8	261	11
2023-09-21T06:00	20957	49	-56.9	-87.7	261	11
2023-09-21T06:00	20979	49	-56.6	-87.5	260	10
2023-09-21T06:00	21005	48	-56.5	-87.4	259	10
2023-09-21T06:00	21031	48	-56.5	-87.4	259	9
2023-09-21T06:00	21056	48	-56.6	-87.5	258	9
2023-09-21T06:00	21085	48	-56.8	-87.6	257	9
2023-09-21T06:00	21113	48	-57.0	-87.2	255	8
2023-09-21T06:00	21138	47	-57.2	-87.3	254	8
2023-09-21T06:00	21169	47	-57.4	-87.5	252	8
2023-09-21T06:00	21196	47	-57.6	-87.6	251	7
2023-09-21T06:00	21222	47	-57.6	-87.6	250	7
2023-09-21T06:00	21249	47	-57.6	-87.6	248	7
2023-09-21T06:00	21276	46	-57.5	-87.5	246	6
2023-09-21T06:00	21305	46	-57.6	-87.6	243	6
2023-09-21T06:00	21335	46	-57.7	-87.7	240	7
2023-09-21T06:00	21362	46	-57.6	-87.6	236	7
2023-09-21T06:00	21390	45	-57.6	-87.6	232	7
2023-09-21T06:00	21420	45	-57.7	-87.7	229	8
2023-09-21T06:00	21447	45	-57.8	-87.8	227	8
2023-09-21T06:00	21472	45	-57.9	-87.8	225	9
2023-09-21T06:00	21503	45	-58.1	-88.0	224	9
2023-09-21T06:00	21530	44	-58.3	-88.1	223	10
2023-09-21T06:00	21561	44	-58.4	-87.7	222	10
2023-09-21T06:00	21590	44	-58.6	-87.8	221	10
2023-09-21T06:00	21616	44	-58.6	-87.8	220	10
2023-09-21T06:00	21644	44	-58.5	-87.7	218	10
2023-09-21T06:00	21672	44	-58.5	-87.7	217	10
2023-09-21T06:00	21692	43	-58.7	-88.4	218	10
2023-09-21T06:00	21726	43	-58.8	-88.5	220	10
2023-09-21T06:00	21754	43	-58.9	-88.6	224	10
2023-09-21T06:00	21781	43	-58.7	-88.4	228	10
2023-09-21T06:00	21806	43	-58.6	-88.4	233	11
2023-09-21T06:00	21835	42	-58.4	-88.2	236	10
2023-09-21T06:00	21860	42	-58.2	-88.6	238	10
2023-09-21T06:00	21892	42	-58.1	-88.6	239	10
2023-09-21T06:00	21919	42	-58.2	-88.6	240	10
2023-09-21T06:00	21945	42	-58.0	-88.5	239	9
2023-09-21T06:00	21966	41	-57.8	-88.3	237	9
2023-09-21T06:00	21993	41	-57.8	-88.3	234	9
2023-09-21T06:00	22020	41	-57.8	-88.3	231	9
2023-09-21T06:00	22053	41	-57.7	-88.3	227	9
2023-09-21T06:00	22072	41	-57.5	-88.1	224	9
2023-09-21T06:00	22103	41	-57.6	-88.2	221	9
2023-09-21T06:00	22124	40	-57.7	-88.3	218	8
2023-09-21T06:00	22150	40	-57.6	-88.2	216	8
2023-09-21T06:00	22177	40	-57.6	-88.2	214	8
2023-09-21T06:00	22203	40	-57.5	-88.1	213	7
2023-09-21T06:00	22221	40	-57.5	-88.1	213	7
2023-09-21T06:00	22250	40	-57.5	-88.1	214	7
2023-09-21T06:00	22278	40	-57.4	-88.1	214	7
2023-09-21T06:00	22298	39	-57.3	-88.0	215	7
2023-09-21T06:00	22327	39	-57.2	-87.9	215	7
2023-09-21T06:00	22349	39	-57.0	-87.8	215	7
2023-09-21T06:00	22374	39	-57.0	-87.8	215	7
2023-09-21T06:00	22403	39	-57.1	-87.8	215	7
2023-09-21T06:00	22425	39	-57.2	-87.9	214	8
2023-09-21T06:00	22452	38	-57.4	-88.1	214	8
2023-09-21T06:00	22476	38	-57.4	-88.1	213	8
2023-09-21T06:00	22503	38	-57.4	-88.1	212	8
2023-09-21T06:00	22523	38	-57.4	-88.1	211	8
2023-09-21T06:00	22558	38	-57.5	-88.1	210	8
2023-09-21T06:00	22582	38	-57.4	-88.1	210	9
2023-09-21T06:00	22604	38	-57.3	-88.0	210	9
2023-09-21T06:00	22633	37	-57.0	-88.4	210	9
2023-09-21T06:00	22655	37	-56.7	-88.2	209	10
2023-09-21T06:00	22682	37	-56.8	-88.3	208	10
2023-09-21T06:00	22711	37	-56.8	-88.3	207	10
2023-09-21T06:00	22735	37	-56.9	-88.3	206	10
2023-09-21T06:00	22762	37	-56.9	-88.3	206	10
2023-09-21T06:00	22784	36	-56.8	-88.3	207	10
2023-09-21T06:00	22812	36	-56.6	-88.1	209	10
2023-09-21T06:00	22841	36	-56.5	-88.1	212	10
2023-09-21T06:00	22866	36	-56.5	-88.1	214	10
2023-09-21T06:00	22893	36	-56.6	-88.1	217	10
2023-09-21T06:00	22915	36	-56.7	-88.2	219	10
2023-09-21T06:00	22946	36	-56.8	-88.3	222	10
2023-09-21T06:00	22972	35	-56.8	-88.3	225	11
2023-09-21T06:00	23002	35	-56.6	-88.1	227	11
2023-09-21T06:00	23022	35	-56.4	-88.0	230	11
2023-09-21T06:00	23058	35	-56.4	-88.0	232	11
2023-09-21T06:00	23078	35	-56.5	-88.1	234	11
2023-09-21T06:00	23112	35	-56.5	-88.1	235	11
2023-09-21T06:00	23142	34	-56.5	-88.1	235	11
2023-09-21T06:00	23168	34	-56.4	-88.0	234	11
2023-09-21T06:00	23195	34	-56.3	-87.9	233	11
2023-09-21T06:00	23223	34	-56.2	-87.8	232	11
2023-09-21T06:00	23246	34	-56.2	-87.8	231	11
2023-09-21T06:00	23276	34	-56.3	-87.9	231	10
2023-09-21T06:00	23299	34	-56.4	-88.0	231	10
2023-09-21T06:00	23330	33	-56.4	-88.0	233	9
2023-09-21T06:00	23357	33	-56.4	-88.0	236	9
2023-09-21T06:00	23385	33	-56.4	-88.0	238	9
2023-09-21T06:00	23413	33	-56.6	-88.1	240	8
2023-09-21T06:00	23448	33	-56.8	-87.6	242	8
2023-09-21T06:00	23476	33	-56.9	-87.7	243	8
2023-09-21T06:00	23503	33	-56.9	-87.7	243	8
2023-09-21T06:00	23523	32	-56.9	-87.7	242	8
2023-09-21T06:00	23552	32	-56.8	-87.6	240	8
2023-09-21T06:00	23577	32	-56.9	-88.3	238	9
2023-09-21T06:00	23610	32	-56.9	-88.3	236	9
2023-09-21T06:00	23641	32	-56.8	-88.3	235	10
2023-09-21T06:00	23666	32	-56.7	-88.2	233	10
2023-09-21T06:00	23698	32	-56.7	-88.2	232	10
2023-09-21T06:00	23723	31	-57.0	-88.4	232	10
2023-09-21T06:00	23755	31	-57.1	-88.5	232	10
2023-09-21T06:00	23781	31	-57.0	-88.4	233	9
2023-09-21T06:00	23811	31	-56.9	-88.3	235	8
2023-09-21T06:00	23835	31	-57.0	-88.4	237	7
2023-09-21T06:00	23866	31	-56.9	-88.3	238	7
2023-09-21T06:00	23897	31	-57.0	-88.4	238	6
2023-09-21T06:00	23924	30	-57.0	-88.4	235	6
2023-09-21T06:00	23953	30	-56.9	-88.3	231	6
2023-09-21T06:00	23975	30	-56.8	-88.3	226	7
2023-09-21T06:00	24009	30	-57.0	-88.4	222	7
2023-09-21T06:00	24039	30	-57.0	-87.8	218	8
2023-09-21T06:00	24062	30	-57.2	-87.9	215	8
2023-09-21T06:00	24088	30	-57.3	-88.0	212	9
2023-09-21T06:00	24119	30	-57.4	-88.1	210	9
2023-09-21T06:00	24152	29	-57.6	-88.2	208	9
2023-09-21T06:00	24176	29	-57.6	-88.2	208	10
2023-09-21T06:00	24204	29	-57.5	-88.1	209	10
2023-09-21T06:00	24235	29	-57.4	-88.7	212	10
2023-09-21T06:00	24261	29	-57.3	-88.6	216	10
2023-09-21T06:00	24292	29	-57.4	-88.7	220	11
2023-09-21T06:00	24323	29	-57.5	-88.8	225	11
2023-09-21T06:00	24349	29	-57.3	-88.6	230	11
2023-09-21T06:00	24377	28	-57.1	-88.5	234	12
2023-09-21T06:00	24409	28	-57.2	-88.6	237	12
2023-09-21T06:00	24430	28	-57.2	-88.6	239	12
2023-09-21T06:00	24459	28	-57.3	-88.6	241	11
2023-09-21T06:00	24488	28	-57.4	-88.7	243	11
2023-09-21T06:00	24521	28	-57.4	-88.7	245	10
2023-09-21T06:00	24546	28	-57.3	-88.6	247	9
2023-09-21T06:00	24569	28	-57.2	-88.6	249	9
2023-09-21T06:00	24603	27	-57.2	-88.6	250	8
2023-09-21T06:00	24629	27	-57.2	-88.6	251	8
2023-09-21T06:00	24660	27	-57.1	-88.5	251	8
2023-09-21T06:00	24684	27	-57.2	-88.6	251	8
2023-09-21T06:00	24712	27	-57.1	-88.5	252	8
2023-09-21T06:00	24734	27	-57.0	-88.4	252	8
2023-09-21T06:00	24769	27	-56.9	-88.3	253	8
2023-09-21T06:00	24805	27	-56.9	-88.3	253	8
2023-09-21T06:00	24825	26	-56.9	-88.3	252	8
2023-09-21T06:00	24858	26	-56.9	-88.3	252	8
2023-09-21T06:00	24883	26	-56.8	-88.3	251	8
2023-09-21T06:00	24915	26	-56.8	-88.3	250	8
2023-09-21T06:00	24940	26	-56.8	-88.3	249	8
2023-09-21T06:00	24978	26	-56.9	-88.3	247	8
2023-09-21T06:00	25000	26	-57.0	-88.4	244	8
2023-09-21T06:00	25033	26	-57.1	-88.5	240	8
2023-09-21T06:00	25061	25	-57.1	-88.5	236	8
2023-09-21T06:00	25089	25	-57.1	-88.5	232	8
2023-09-21T06:00	25112	25	-57.1	-88.5	229	9
2023-09-21T06:00	25135	25	-57.1	-88.5	227	9
2023-09-21T06:00	25173	25	-57.2	-88.6	226	9
2023-09-21T06:00	25197	25	-57.4	-88.7	226	10
2023-09-21T06:00	25224	25	-57.5	-88.8	228	10
2023-09-21T06:00	25253	25	-57.5	-88.8	231	10
2023-09-21T06:00	25289	25	-57.3	-88.6	235	10
2023-09-21T06:00	25308	24	-57.2	-88.6	240	10
2023-09-21T06:00	25338	24	-57.2	-88.6	245	10
2023-09-21T06:00	25368	24	-57.1	-88.5	250	10
2023-09-21T06:00	25394	24	-56.9	-88.3	254	10
2023-09-21T06:00	25433	24	-56.7	-88.9	258	10
2023-09-21T06:00	25460	24	-56.7	-88.9	261	10
2023-09-21T06:00	25489	24	-56.6	-88.9	264	10
2023-09-21T06:00	25522	24	-56.5	-88.8	267	9
2023-09-21T06:00	25549	24	-56.3	-88.6	269	9
2023-09-21T06:00	25584	23	-56.1	-88.5	270	8
2023-09-21T06:00	25609	23	-56.2	-88.6	270	7
2023-09-21T06:00	25642	23	-56.3	-88.6	267	6
2023-09-21T06:00	25677	23	-56.4	-88.0	262	6
2023-09-21T06:00	25699	23	-56.5	-88.1	254	6
2023-09-21T06:00	25739	23	-56.6	-88.1	247	6
2023-09-21T06:00	25762	23	-56.7	-88.2	241	6
2023-09-21T06:00	25787	23	-56.9	-88.3	238	6
2023-09-21T06:00	25822	23	-56.9	-88.3	236	7
2023-09-21T06:00	25846	22	-56.8	-88.3	235	8
2023-09-21T06:00	25883	22	-57.0	-88.4	234	9
2023-09-21T06:00	25911	22	-57.1	-88.5	232	10
2023-09-21T06:00	25945	22	-57.0	-88.4	229	10
2023-09-21T06:00	25981	22	-57.0	-88.4	228	11
2023-09-21T06:00	26015	22	-57.1	-88.5	227	12
2023-09-21T06:00	26044	22	-57.1	-88.5	228	13
2023-09-21T06:00	26075	22	-57.1	-89.2	230	13
2023-09-21T06:00	26103	22	-56.8	-89.0	233	13
2023-09-21T06:00	26127	22	-56.6	-88.9	237	13
2023-09-21T06:00	26155	21	-56.5	-88.8	240	13
2023-09-21T06:00	26180	21	-56.5	-88.8	244	13
2023-09-21T06:00	26217	21	-56.5	-88.8	247	13
2023-09-21T06:00	26235	21	-56.5	-88.8	251	13
2023-09-21T06:00	26270	21	-56.3	-88.6	255	13
2023-09-21T06:00	26305	21	-56.3	-88.6	259	12
2023-09-21T06:00	26325	21	-56.4	-88.7	263	12
2023-09-21T06:00	26362	21	-56.4	-88.7	268	12
2023-09-21T06:00	26390	21	-56.4	-88.7	273	11
2023-09-21T06:00	26420	21	-56.3	-88.6	277	11
2023-09-21T06:00	26453	20	-56.3	-88.6	281	10
2023-09-21T06:00	26470	20	-56.3	-88.6	283	10
2023-09-21T06:00	26507	20	-56.2	-88.6	283	9
2023-09-21T06:00	26540	20	-56.0	-88.4	282	8
2023-09-21T06:00	26566	20	-55.7	-88.2	279	7
2023-09-21T06:00	26593	20	-55.6	-88.1	275	7
2023-09-21T06:00	26625	20	-55.7	-88.2	271	6
2023-09-21T06:00	26645	20	-55.7	-88.2	266	5
2023-09-21T06:00	26682	20	-55.7	-88.2	260	5
2023-09-21T06:00	26706	20	-55.6	-88.1	252	4
2023-09-21T06:00	26732	20	-55.7	-88.2	244	4
2023-09-21T06:00	26771	19	-55.7	-88.2	236	4
2023-09-21T06:00	26791	19	-55.7	-88.2	231	4
2023-09-21T06:00	26817	19	-55.8	-88.3	228	5
2023-09-21T06:00	26848	19	-55.9	-88.4	229	5
2023-09-21T06:00	26878	19	-55.9	-88.4	232	6
2023-09-21T06:00	26913	19	-55.9	-88.4	236	7
2023-09-21T06:00	26941	19	-55.9	-88.4	240	8
2023-09-21T06:00	26969	19	-55.9	-88.4	244	9
2023-09-21T06:00	27007	19	-55.6	-88.1	248	9
2023-09-21T06:00	27035	19	-55.3	-88.8	252	9
2023-09-21T06:00	27065	19	-54.9	-88.5	258	9
2023-09-21T06:00	27093	19	-54.7	-88.4	264	10
2023-09-21T06:00	27123	18	-54.7	-88.4	271	10
2023-09-21T06:00	27145	18	-54.8	-88.4	277	10
2023-09-21T06:00	27184	18	-54.7	-88.4	282	11
2023-09-21T06:00	27217	18	-54.7	-88.4	286	11
2023-09-21T06:00	27237	18	-54.8	-88.4	289	11
2023-09-21T06:00	27273	18	-54.8	-87.6	293	11
2023-09-21T06:00	27296	18	-54.8	-87.6	296	11
2023-09-21T06:00	27334	18	-54.9	-87.6	300	11
2023-09-21T06:00	27375	18	-55.0	-87.7	304	11
2023-09-21T06:00	27398	18	-55.2	-87.8	307	10
2023-09-21T06:00	27426	18	-55.4	-88.0	311	10
2023-09-21T06:00	27460	17	-55.6	-88.1	315	10
2023-09-21T06:00	27480	17	-55.7	-88.2	318	9
2023-09-21T06:00	27525	17	-55.7	-88.2	320	9
2023-09-21T06:00	27546	17	-55.6	-88.1	321	8
2023-09-21T06:00	27582	17	-55.6	-88.1	320	7
2023-09-21T06:00	27609	17	-55.6	-88.1	318	7
2023-09-21T06:00	27641	17	-55.5	-88.1	314	6
2023-09-21T06:00	27664	17	-55.5	-88.1	308	5
2023-09-21T06:00	27700	17	-55.6	-88.1	302	5
2023-09-21T06:00	27740	17	-55.6	-88.1	294	5
2023-09-21T06:00	27763	17	-55.8	-88.3	285	4
2023-09-21T06:00	27793	17	-55.9	-88.4	277	4
2023-09-21T06:00	27834	17	-56.1	-88.5	270	5
2023-09-21T06:00	27853	16	-56.2	-88.6	266	5
2023-09-21T06:00	27884	16	-56.1	-88.5	265	6
2023-09-21T06:00	27920	16	-55.8	-88.3	265	6
2023-09-21T06:00	27949	16	-55.7	-88.2	266	7
2023-09-21T06:00	27982	16	-55.6	-88.1	266	8
2023-09-21T06:00	28013	16	-55.6	-89.0	266	8
2023-09-21T06:00	28047	16	-55.6	-89.0	266	9
2023-09-21T06:00	28077	16	-55.3	-88.8	265	9
2023-09-21T06:00	28111	16	-55.1	-88.6	266	10
2023-09-21T06:00	28134	16	-55.1	-88.6	267	10
2023-09-21T06:00	28164	16	-55.2	-88.7	268	10
2023-09-21T06:00	28201	16	-55.1	-88.6	269	10
2023-09-21T06:00	28223	15	-54.9	-88.5	271	11
2023-09-21T06:00	28259	15	-54.8	-88.4	273	11
2023-09-21T06:00	28278	15	-54.6	-88.3	275	11
2023-09-21T06:00	28320	15	-54.5	-88.2	277	12
2023-09-21T06:00	28353	15	-54.6	-88.3	279	12
2023-09-21T06:00	28379	15	-54.7	-88.4	281	12
2023-09-21T06:00	28414	15	-54.9	-87.6	283	12
2023-09-21T06:00	28446	15	-55.0	-87.7	285	12
2023-09-21T06:00	28482	15	-55.0	-87.7	287	12
2023-09-21T06:00	28502	15	-54.9	-88.5	289	12
2023-09-21T06:00	28529	15	-54.7	-88.4	291	12
2023-09-21T06:00	28558	15	-54.4	-88.1	293	12
2023-09-21T06:00	28590	15	-54.3	-88.1	294	12
2023-09-21T06:00	28620	15	-54.3	-88.1	295	12
2023-09-21T06:00	28669	14	-54.1	-87.9	296	11
2023-09-21T06:00	28695	14	-53.9	-87.8	298	11
2023-09-21T06:00	28720	14	-53.8	-87.7	299	10
2023-09-21T06:00	28746	14	-53.8	-87.7	301	9
2023-09-21T06:00	28792	14	-53.8	-87.7	303	8
2023-09-21T06:00	28812	14	-53.8	-87.7	304	8
2023-09-21T06:00	28845	14	-53.7	-87.6	305	7
2023-09-21T06:00	28865	14	-53.7	-87.6	304	6
2023-09-21T06:00	28902	14	-53.7	-87.6	301	6
2023-09-21T06:00	28931	14	-53.8	-87.7	296	5
2023-09-21T06:00	28961	14	-53.7	-87.6	290	5
2023-09-21T06:00	29002	14	-53.6	-87.6	284	4
2023-09-21T06:00	29025	14	-53.4	-87.4	279	4
2023-09-21T06:00	29061	14	-53.1	-88.2	276	4
2023-09-21T06:00	29087	14	-52.9	-88.1	274	5
2023-09-21T06:00	29124	13	-52.8	-88.0	273	5
2023-09-21T06:00	29158	13	-52.7	-87.9	272	5
2023-09-21T06:00	29189	13	-52.6	-87.9	271	5
2023-09-21T06:00	29218	13	-52.5	-87.8	269	5
2023-09-21T06:00	29245	13	-52.3	-87.7	267	5
2023-09-21T06:00	29277	13	-52.2	-87.6	265	5
2023-09-21T06:00	29301	13	-52.1	-87.5	261	5
2023-09-21T06:00	29338	13	-52.1	-87.5	259	5
2023-09-21T06:00	29362	13	-52.1	-87.5	257	5
2023-09-21T06:00	29398	13	-52.1	-87.5	258	6
2023-09-21T06:00	29428	13	-51.8	-87.3	259	7
2023-09-21T06:00	29460	13	-51.6	-87.2	261	8
2023-09-21T06:00	29485	13	-51.3	-87.0	264	9
2023-09-21T06:00	29535	13	-51.1	-86.8	266	9
2023-09-21T06:00	29549	13	-50.8	-86.6	269	10
2023-09-21T06:00	29582	13	-50.7	-86.5	270	10
2023-09-21T06:00	29610	13	-50.7	-86.5	272	10
2023-09-21T06:00	29641	12	-50.8	-86.6	272	10
2023-09-21T06:00	29668	12	-50.9	-86.7	272	10
2023-09-21T06:00	29687	12	-51.0	-86.7	272	11
2023-09-21T06:00	29728	12	-51.1	-86.8	271	11
2023-09-21T06:00	29762	12	-51.1	-86.8	271	11
2023-09-21T06:00	29794	12	-50.9	-86.7	272	12
2023-09-21T06:00	29827	12	-50.6	-86.5	272	12
2023-09-21T06:00	29870	12	-50.4	-86.3	273	12
2023-09-21T06:00	29881	12	-50.1	-86.1	273	12
2023-09-21T06:00	29928	12	-49.9	-86.0	273	11
2023-09-21T06:00	29943	12	-49.7	-85.8	273	11
2023-09-21T06:00	29992	12	-49.6	-85.8	274	12
2023-09-21T06:00	30002	12	-49.5	-85.7	275	13
2023-09-21T06:00	30032	12	-49.3	-85.5	276	13
2023-09-21T06:00	30068	12	-49.1	-85.4	277	14
2023-09-21T06:00	30098	12	-48.8	-85.2	278	15
2023-09-21T06:00	30119	12	-48.6	-85.0	278	15
2023-09-21T06:00	30165	12	-48.5	-85.0	279	15
2023-09-21T06:00	30188	11	-48.4	-84.9	279	15
2023-09-21T06:00	30227	11	-48.2	-84.8	279	15
2023-09-21T06:00	30267	11	-48.2	-84.8	279	14
2023-09-21T06:00	30287	11	-48.3	-84.8	280	13
2023-09-21T06:00	30320	11	-48.5	-85.0	280	12
2023-09-21T06:00	30350	11	-48.7	-85.1	281	12
2023-09-21T06:00	30392	11	-48.8	-85.2	281	12
2023-09-21T06:00	30412	11	-48.9	-85.3	282	11
2023-09-21T06:00	30451	11	-49.0	-85.3	281	11
2023-09-21T06:00	30504	11	-49.0	-85.3	281	11
2023-09-21T06:00	30518	11	-49.0	-85.3	280	10
2023-09-21T06:00	30559	11	-49.0	-85.3	279	10
2023-09-21T06:00	30587	11	-49.0	-85.3	278	9
2023-09-21T06:00	30623	11	-48.9	-85.3	276	9
2023-09-21T06:00	30646	11	-48.7	-85.1	275	8
2023-09-21T06:00	30677	11	-48.7	-85.1	272	7
2023-09-21T06:00	30717	11	-48.7	-85.1	268	6
2023-09-21T06:00	30746	11	-48.7	-85.1	265	6
2023-09-21T06:00	30774	10	-48.8	-85.2	261	6
2023-09-21T06:00	30819	10	-48.8	-85.2	259	6
2023-09-21T06:00	30850	10	-48.8	-85.2	257	5
2023-09-21T06:00	30887	10	-48.7	-85.1	256	5
2023-09-21T06:00	30923	10	-48.6	-85.0	256	6
2023-09-21T06:00	30938	10	-48.5	-85.0	254	6
2023-09-21T06:00	30986	10	-48.5	-85.0	251	6
2023-09-21T06:00	31017	10	-48.6	-85.0	247	6
2023-09-21T06:00	31039	10	-48.7	-85.1	242	7
2023-09-21T06:00	31071	10	-48.8	-85.2	237	7
2023-09-21T06:00	31090	10	-48.8	-85.2	233	8
2023-09-21T06:00	31128	10	-48.9	-85.3	231	9
2023-09-21T06:00	31178	10	-49.0	-85.3	229	10
2023-09-21T06:00	31198	10	-49.1	-85.4	229	10
2023-09-21T06:00	31232	10	-49.2	-85.5	231	10
2023-09-21T06:00	31243	10	-49.3	-85.5	235	10
2023-09-21T06:00	31275	10	-49.2	-85.5	241	10
2023-09-21T06:00	31321	10	-49.1	-85.4	247	9
2023-09-21T06:00	31336	10	-49.1	-85.4	253	9
2023-09-21T06:00	31394	10	-49.2	-85.5	258	10
2023-09-21T06:00	31396	10	-49.3	-85.5	262	10
2023-09-21T06:00	31439	9	-49.3	-85.5	264	11
2023-09-21T06:00	31468	9	-49.2	-85.5	265	11
2023-09-21T06:00	31502	9	-49.2	-85.5	264	12
2023-09-21T06:00	31526	9	-49.2	-85.5	263	12
2023-09-21T06:00	31548	9	-49.1	-85.4	262	12
2023-09-21T06:00	31597	9	-49.0	-85.3	261	12
2023-09-21T06:00	31619	9	-48.7	-85.1	260	12
2023-09-21T06:00	31650	9	-48.5	-85.0	261	12
2023-09-21T06:00	31685	9	-48.2	-84.8	264	12
2023-09-21T06:00	31716	9	-47.7	-84.4	268	12
2023-09-21T06:00	31739	9	-47.5	-84.3	273	12
2023-09-21T06:00	31782	9	-47.5	-84.3	276	13
2023-09-21T06:00	31808	9	-47.3	-84.1	278	14
2023-09-21T06:00	31835	9	-47.2	-84.1	279	15
2023-09-21T06:00	31847	9	-47.1	-84.0	278	15
2023-09-21T06:00	31881	9	-46.8	-83.8	278	15
2023-09-21T06:00	31916	9	-46.7	-83.7	277	14
2023-09-21T06:00	31963	9	-46.7	-83.7	277	14
2023-09-21T06:00	31969	9	-46.7	-83.7	276	14
2023-09-21T06:00	32011	9	-46.7	-83.7	276	14
2023-09-21T06:00	32046	9	-46.5	-83.6	277	14
2023-09-21T06:00	32055	9	-46.2	-83.4	279	15
2023-09-21T06:00	32082	9	-45.9	-83.2	281	15
2023-09-21T06:00	32126	9	-45.7	-83.0	284	15
2023-09-21T06:00	32175	8	-45.5	-82.9	286	15
2023-09-21T06:00	32198	8	-45.0	-82.5	289	16
2023-09-21T06:00	32238	8	-44.4	-82.1	292	16
2023-09-21T06:00	32264	8	-44.0	-81.8	295	17
2023-09-21T06:00	32292	8	-43.6	-81.5	298	17
2023-09-21T06:00	32325	8	-43.3	-81.3	300	18
2023-09-21T06:00	32365	8	-43.1	-81.2	302	18
2023-09-21T06:00	32395	8	-43.1	-81.2	303	19
2023-09-21T06:00	32434	8	-43.1	-81.2	304	19
2023-09-21T06:00	32463	8	-43.2	-81.3	305	19
2023-09-21T06:00	32512	8	-43.3	-81.3	307	19
2023-09-21T06:00	32520	8	-43.4	-81.4	308	18
2023-09-21T06:00	32562	8	-43.3	-81.3	308	17
2023-09-21T06:00	32577	8	-43.1	-81.2	308	16
2023-09-21T06:00	32634	8	-42.8	-81.0	307	16
2023-09-21T06:00	32658	8	-42.6	-80.8	305	15
2023-09-21T06:00	32671	8	-42.5	-80.8	304	14
2023-09-21T06:00	32693	8	-42.4	-80.7	302	13
2023-09-21T06:00	32734	8	-42.3	-80.6	301	13
2023-09-21T06:00	32776	8	-42.2	-80.6	300	13
2023-09-21T06:00	32799	8	-42.1	-80.5	298	13
2023-09-21T06:00	32820	8	-42.1	-80.5	297	13
2023-09-21T06:00	32840	8	-42.2	-80.6	295	13
2023-09-21T06:00	32877	8	-42.2	-80.6	293	13
2023-09-21T06:00	32903	8	-42.3	-80.6	290	13
2023-09-21T06:00	32950	8	-42.4	-80.7	286	13
2023-09-21T06:00	32972	8	-42.4	-80.7	282	14
2023-09-21T06:00	32997	8	-42.5	-80.8	278	14
2023-09-21T06:00	33017	7	-42.5	-80.8	276	15
2023-09-21T06:00	33058	7	-42.5	-80.8	276	15
2023-09-21T06:00	33076	7	-42.4	-80.7	277	15
2023-09-21T06:00	33130	7	-42.4	-80.7	279	15
2023-09-21T06:00	33165	7	-42.1	-80.5	284	15
2023-09-21T06:00	33205	7	-42.0	-80.4	286	15
2023-09-21T06:00	33231	7	-42.1	-80.5	287	15
2023-09-21T12:00	-999					
2023-09-21T12:00	131	990	24.4	13.6	156	3
2023-09-21T12:00	152	987	23.7	12.9	155	4
2023-09-21T12:00	180	984	23.5	12.8	156	5
2023-09-21T12:00	209	981	23.2	12.7	157	6
2023-09-21T12:00	234	978	23.0	12.6	158	6
2023-09-21T12:00	259	975	22.7	12.4	158	6
2023-09-21T12:00	285	972	22.5	12.4	159	5
2023-09-21T12:00	315	969	22.2	12.4	158	5
2023-09-21T12:00	344	966	22.0	12.4	157	5
2023-09-21T12:00	378	962	21.6	12.3	157	5
2023-09-21T12:00	409	958	21.5	12.2	157	5
2023-09-21T12:00	435	956	21.8	9.1	158	5
2023-09-21T12:00	453	953	21.9	7.4	158	6
2023-09-21T12:00	480	951	21.7	7.5	157	6
2023-09-21T12:00	509	948	20.9	11.9	157	7
2023-09-21T12:00	534	945	20.3	11.9	158	7
2023-09-21T12:00	568	941	20.0	12.5	159	7
2023-09-21T12:00	600	938	20.0	8.6	159	7
2023-09-21T12:00	631	934	20.4	6.5	160	7
2023-09-21T12:00	661	931	20.1	6.4	161	6
2023-09-21T12:00	691	928	19.9	6.2	162	6
2023-09-21T12:00	720	925	19.6	6.0	164	6
2023-09-21T12:00	751	921	19.3	5.7	166	6
2023-09-21T12:00	776	919	19.1	5.2	166	5
2023-09-21T12:00	799	916	18.9	5.4	164	5
2023-09-21T12:00	826	913	18.6	5.2	161	5
2023-09-21T12:00	857	910	18.4	4.9	159	5
2023-09-21T12:00	881	907	18.2	4.5	159	5
2023-09-21T12:00	907	905	18.2	3.4	162	5
2023-09-21T12:00	939	901	18.2	1.8	166	6
2023-09-21T12:00	968	898	18.2	1.6	170	6
2023-09-21T12:00	990	896	18.1	1.4	174	6
2023-09-21T12:00	1014	893	18.1	-0.4	177	7
2023-09-21T12:00	1043	891	18.0	1.8	180	7
2023-09-21T12:00	1067	888	17.8	1.2	182	8
2023-09-21T12:00	1095	885	17.6	1.2	183	8
2023-09-21T12:00	1117	883	17.4	0.9	185	9
2023-09-21T12:00	1142	880	17.3	1.2	186	9
2023-09-21T12:00	1162	878	17.2	1.0	188	9
2023-09-21T12:00	1187	876	17.2	-2.2	190	8
2023-09-21T12:00	1208	873	17.1	-2.1	191	8
2023-09-21T12:00	1228	871	16.9	-1.5	191	7
2023-09-21T12:00	1251	869	16.7	0.5	190	7
2023-09-21T12:00	1272	867	16.6	0.4	189	8
2023-09-21T12:00	1297	864	16.4	0.1	188	8
2023-09-21T12:00	1326	861	16.2	-0.6	187	8
2023-09-21T12:00	1349	859	16.1	-0.9	187	8
2023-09-21T12:00	1370	857	15.9	-1.2	187	8
2023-09-21T12:00	1391	855	15.8	-1.2	190	8
2023-09-21T12:00	1416	852	15.7		193	8
2023-09-21T12:00	1445	849	15.5	-0.2	197	8
2023-09-21T12:00	1467	847	15.2	1.5	200	9
2023-09-21T12:00	1496	844	14.9	2.1	200	9
2023-09-21T12:00	1525	841	14.6	2.3	198	9
2023-09-21T12:00	1550	839	14.3	2.5	197	9
2023-09-21T12:00	1570	837	14.1	2.7	197	9
2023-09-21T12:00	1592	835	13.9	2.9	200	9
2023-09-21T12:00	1617	832	13.7	3.7	206	9
2023-09-21T12:00	1639	830	13.5	4.2	211	8
2023-09-21T12:00	1661	828	13.2	4.2	215	8
2023-09-21T12:00	1683	826	13.1	4.0	216	8
2023-09-21T12:00	1705	823	12.8		212	8
2023-09-21T12:00	1730	821	12.7	4.9	207	8
2023-09-21T12:00	1753	819	12.6	4.5	201	8
2023-09-21T12:00	1776	817	12.5	5.1	197	8
2023-09-21T12:00	1798	814	12.3	4.6	195	8
2023-09-21T12:00	1820	812	12.2	4.1	194	8
2023-09-21T12:00	1843	810	12.2	2.7	194	8
2023-09-21T12:00	1865	808	12.2	0.5	194	8
2023-09-21T12:00	1889	806	12.1	0.4	194	8
2023-09-21T12:00	1912	803	12.0	0.8	193	7
2023-09-21T12:00	1935	801	11.9	0.3	192	7
2023-09-21T12:00	1957	799	11.7	0.2	191	7
2023-09-21T12:00	1977	797	11.5	0.2	191	7
2023-09-21T12:00	2006	795	11.2	0.1	192	7
2023-09-21T12:00	2030	792	11.0	-0.3	194	7
2023-09-21T12:00	2051	790	10.9	-0.1	196	7
2023-09-21T12:00	2072	788	10.8	-0.1	197	7
2023-09-21T12:00	2098	786	10.6	0.2	198	7
2023-09-21T12:00	2123	783	10.4	0.2	199	8
2023-09-21T12:00	2146	781	10.2	0.4	200	8
2023-09-21T12:00	2167	779	10.0	0.4	200	8
2023-09-21T12:00	2192	777	9.8	0.3	201	8
2023-09-21T12:00	2217	775	9.5	0.2	203	8
2023-09-21T12:00	2245	772	9.3	0.9	204	8
2023-09-21T12:00	2269	770	9.1	1.7	205	7
2023-09-21T12:00	2293	768	8.9	2.3	205	7
2023-09-21T12:00	2316	765	8.7	2.2	204	7
2023-09-21T12:00	2340	763	8.5	1.4	203	7
2023-09-21T12:00	2364	761	8.3	1.0	203	7
2023-09-21T12:00	2388	759	8.2	0.1	204	6
2023-09-21T12:00	2409	757	8.1	0.0	207	6
2023-09-21T12:00	2432	755	8.0	1.5	212	6
2023-09-21T12:00	2463	752	7.7	1.4	217	6
2023-09-21T12:00	2486	750	7.5	1.3	222	6
2023-09-21T12:00	2511	747	7.3	1.2	223	6
2023-09-21T12:00	2538	745	7.1	1.2	221	6
2023-09-21T12:00	2565	743	6.9	1.4	217	7
2023-09-21T12:00	2589	740	6.8	1.5	214	7
2023-09-21T12:00	2611	738	6.7	0.4	212	8
2023-09-21T12:00	2633	737	6.7	-0.5	212	8
2023-09-21T12:00	2655	735	6.5	-1.1	214	9
2023-09-21T12:00	2676	733	6.5	-1.7	217	9
2023-09-21T12:00	2698	731	6.3	-2.1	220	9
2023-09-21T12:00	2721	729	6.1	-2.2	223	8
2023-09-21T12:00	2742	727	5.9	-2.3	225	8
2023-09-21T12:00	2766	725	5.7	-2.5	225	7
2023-09-21T12:00	2786	723	5.5	-2.8	223	6
2023-09-21T12:00	2809	721	5.3	-3.4	215	5
2023-09-21T12:00	2833	719	5.1	-3.6	203	5
2023-09-21T12:00	2854	717	4.9	-4.0	192	5
2023-09-21T12:00	2878	715	4.7	-3.6	187	6
2023-09-21T12:00	2900	713	4.5	-4.1	186	6
2023-09-21T12:00	2926	711	4.3	-4.2	188	7
2023-09-21T12:00	2952	708	4.1	-5.5	189	7
2023-09-21T12:00	2979	706	3.8	-5.7	189	8
2023-09-21T12:00	3006	704	3.7	-6.1	189	8
2023-09-21T12:00	3029	702	3.5	-6.8	190	8
2023-09-21T12:00	3054	700	3.3	-7.4	191	8
2023-09-21T12:00	3076	698	3.1	-8.2	194	8
2023-09-21T12:00	3097	696	3.0	-8.8	197	8
2023-09-21T12:00	3120	694	2.9	-9.4	199	8
2023-09-21T12:00	3142	692	2.8	-10.0	198	9
2023-09-21T12:00	3165	690	2.8	-12.7	195	9
2023-09-21T12:00	3184	688	2.8	-13.5	191	10
2023-09-21T12:00	3205	686	2.9	-13.6	186	10
2023-09-21T12:00	3230	684	3.0	-11.5	182	11
2023-09-21T12:00	3251	683	3.2	-17.5	180	11
2023-09-21T12:00	3272	681	3.4	-17.6	179	11
2023-09-21T12:00	3295	679	3.5	-16.3	180	11
2023-09-21T12:00	3316	677	3.4	-13.6	182	12
2023-09-21T12:00	3338	675	3.2	-12.4	184	12
2023-09-21T12:00	3359	674	3.1	-11.6	187	12
2023-09-21T12:00	3383	672	2.9	-11.2	190	12
2023-09-21T12:00	3405	670	2.8	-11.1	193	11
2023-09-21T12:00	3425	668	2.6	-10.7	195	11
2023-09-21T12:00	3447	666	2.4	-9.9	196	11
2023-09-21T12:00	3469	665	2.2	-9.0	196	12
2023-09-21T12:00	3490	663	2.0	-8.8	195	12
2023-09-21T12:00	3511	661	1.8	-8.8	194	12
2023-09-21T12:00	3532	659	1.6	-8.5	194	12
2023-09-21T12:00	3554	658	1.4	-8.4	195	11
2023-09-21T12:00	3575	656	1.2	-7.7	195	11
2023-09-21T12:00	3597	654	1.0	-7.5	195	10
2023-09-21T12:00	3618	652	0.9	-7.5	195	9
2023-09-21T12:00	3641	650	0.7	-7.7	193	9
2023-09-21T12:00	3663	649	0.6	-7.9	190	9
2023-09-21T12:00	3686	647	0.4	-8.3	188	8
2023-09-21T12:00	3705	645	0.3	-8.2	187	8
2023-09-21T12:00	3728	643	0.1	-8.3	186	8
2023-09-21T12:00	3753	642	-0.1	-8.3	185	8
2023-09-21T12:00	3776	640	-0.3	-8.4	185	9
2023-09-21T12:00	3801	638	-0.5	-8.6	185	10
2023-09-21T12:00	3824	636	-0.6	-8.6	187	10
2023-09-21T12:00	3846	634	-0.8	-8.6	188	11
2023-09-21T12:00	3867	632	-0.9	-8.6	190	11
2023-09-21T12:00	3892	630	-1.1	-8.3	190	11
2023-09-21T12:00	3916	629	-1.3	-8.7	190	11
2023-09-21T12:00	3943	627	-1.5	-8.9	189	11
2023-09-21T12:00	3966	625	-1.7	-9.1	189	11
2023-09-21T12:00	3986	623	-1.8	-8.9	190	10
2023-09-21T12:00	4008	621	-1.9	-8.6	192	10
2023-09-21T12:00	4030	620	-2.1	-8.4	192	9
2023-09-21T12:00	4052	618	-2.3	-8.3	191	9
2023-09-21T12:00	4073	616	-2.4	-8.0	187	9
2023-09-21T12:00	4094	615	-2.6	-8.2	182	9
2023-09-21T12:00	4117	613	-2.8	-8.2	179	9
2023-09-21T12:00	4141	611	-2.9	-8.3	177	10
2023-09-21T12:00	4164	609	-3.1	-8.3	177	10
2023-09-21T12:00	4188	607	-3.4	-8.3	177	10
2023-09-21T12:00	4210	606	-3.5	-8.3	176	10
2023-09-21T12:00	4231	604	-3.7	-8.4	173	9
2023-09-21T12:00	4252	603	-3.9	-8.6	169	9
2023-09-21T12:00	4273	601	-4.0	-8.4	165	8
2023-09-21T12:00	4293	599	-4.1	-8.6	163	8
2023-09-21T12:00	4315	598	-4.2	-9.2	162	9
2023-09-21T12:00	4335	596	-4.2	-9.0	162	9
2023-09-21T12:00	4355	595	-4.4	-8.9	163	9
2023-09-21T12:00	4376	593	-4.5	-8.9	164	10
2023-09-21T12:00	4399	591	-4.7	-9.0	166	10
2023-09-21T12:00	4425	589	-4.8	-9.1	169	10
2023-09-21T12:00	4460	587	-5.1	-9.4	172	9
2023-09-21T12:00	4487	585	-5.3	-9.9	175	9
2023-09-21T12:00	4508	583	-5.5	-10.5	177	8
2023-09-21T12:00	4531	581	-5.7	-9.8	177	8
2023-09-21T12:00	4552	580	-5.8	-10.2	174	8
2023-09-21T12:00	4574	578	-6.0	-9.7	169	8
2023-09-21T12:00	4593	577	-6.1	-9.7	164	9
2023-09-21T12:00	4614	575	-6.3	-10.4	162	9
2023-09-21T12:00	4634	574	-6.4	-11.0	161	9
2023-09-21T12:00	4653	572	-6.6	-11.4	164	9
2023-09-21T12:00	4677	571	-6.7	-10.2	168	9
2023-09-21T12:00	4697	569	-6.8	-10.3	174	9
2023-09-21T12:00	4726	567	-7.0	-10.5	179	8
2023-09-21T12:00	4748	566	-7.1	-10.5	182	8
2023-09-21T12:00	4770	564	-7.2	-10.9	182	8
2023-09-21T12:00	4790	563	-7.3	-11.0	182	8
2023-09-21T12:00	4812	561	-7.4	-11.4	181	8
2023-09-21T12:00	4833	559	-7.6	-11.6	181	8
2023-09-21T12:00	4853	558	-7.7	-11.7	183	9
2023-09-21T12:00	4883	556	-7.9	-12.0	186	9
2023-09-21T12:00	4911	554	-8.0	-12.4	189	9
2023-09-21T12:00	4934	552	-8.1	-12.5	192	8
2023-09-21T12:00	4954	551	-8.3	-12.6	194	8
2023-09-21T12:00	4977	549	-8.5	-12.9	196	7
2023-09-21T12:00	4995	548	-8.6	-13.0	197	7
2023-09-21T12:00	5015	546	-8.8	-13.5	197	7
2023-09-21T12:00	5039	545	-8.8	-14.2	196	7
2023-09-21T12:00	5058	543	-8.9	-14.3	194	7
2023-09-21T12:00	5081	542	-9.1	-14.3	191	7
2023-09-21T12:00	5104	540	-9.3	-14.6	188	7
2023-09-21T12:00	5124	539	-9.4	-14.3	186	7
2023-09-21T12:00	5147	537	-9.5	-14.1	184	7
2023-09-21T12:00	5169	536	-9.7	-14.3	184	7
2023-09-21T12:00	5188	534	-9.9	-14.5	187	7
2023-09-21T12:00	5210	533	-10.1	-14.9	190	7
2023-09-21T12:00	5231	531	-10.2	-15.0	194	7
2023-09-21T12:00	5253	530	-10.4	-14.9	196	7
2023-09-21T12:00	5279	528	-10.6	-14.9	194	7
2023-09-21T12:00	5301	527	-10.8	-14.9	190	7
2023-09-21T12:00	5323	525	-11.0	-14.9	185	8
2023-09-21T12:00	5344	524	-11.2	-15.0	181	9
2023-09-21T12:00	5368	522	-11.3	-15.4	180	10
2023-09-21T12:00	5388	521	-11.4	-15.8	182	10
2023-09-21T12:00	5410	519	-11.6	-16.9	185	11
2023-09-21T12:00	5432	518	-11.7	-16.2	188	10
2023-09-21T12:00	5455	516	-11.9	-16.3	190	10
2023-09-21T12:00	5480	515	-12.1	-16.8	190	9
2023-09-21T12:00	5503	513	-12.2	-17.3	189	9
2023-09-21T12:00	5526	511	-12.3	-18.3	187	9
2023-09-21T12:00	5547	510	-12.5	-18.9	188	9
2023-09-21T12:00	5568	508	-12.7	-19.0	190	10
2023-09-21T12:00	5598	507	-12.9	-19.1	193	9
2023-09-21T12:00	5623	505	-13.1	-19.8	195	9
2023-09-21T12:00	5644	504	-13.3	-19.8	198	8
2023-09-21T12:00	5666	502	-13.4	-19.8	199	8
2023-09-21T12:00	5687	501	-13.7	-20.0	201	8
2023-09-21T12:00	5709	499	-13.9	-20.1	202	9
2023-09-21T12:00	5739	497	-14.1	-20.2	202	10
2023-09-21T12:00	5762	496	-14.2	-20.5	202	11
2023-09-21T12:00	5784	494	-14.4	-20.8	201	11
2023-09-21T12:00	5808	493	-14.6		199	11
2023-09-21T12:00	5834	491	-14.8	-21.1	196	11
2023-09-21T12:00	5855	490	-14.9	-21.6	195	11
2023-09-21T12:00	5876	488	-15.1	-21.8	195	11
2023-09-21T12:00	5898	487	-15.3	-22.1	196	11
2023-09-21T12:00	5922	485	-15.4	-22.3	198	12
2023-09-21T12:00	5940	484	-15.6	-22.0	200	12
2023-09-21T12:00	5972	482	-15.9	-22.0	201	12
2023-09-21T12:00	5996	481	-16.0	-22.5	202	12
2023-09-21T12:00	6021	479	-16.2	-22.0	203	12
2023-09-21T12:00	6040	478	-16.3	-22.0	205	12
2023-09-21T12:00	6065	476	-16.5	-21.9	207	12
2023-09-21T12:00	6086	475	-16.7	-21.8	210	12
2023-09-21T12:00	6115	473	-16.9	-22.1	213	12
2023-09-21T12:00	6138	472	-17.1	-22.4	212	11
2023-09-21T12:00	6159	470	-17.2	-22.4	209	11
2023-09-21T12:00	6188	469	-17.3	-23.1	203	11
2023-09-21T12:00	6216	467	-17.3	-24.0	197	11
2023-09-21T12:00	6235	466	-17.3	-25.0	194	12
2023-09-21T12:00	6255	464	-17.4	-25.1	194	12
2023-09-21T12:00	6278	463	-17.6	-25.5	196	13
2023-09-21T12:00	6304	461	-17.8	-25.8	198	13
2023-09-21T12:00	6326	460	-17.9	-26.0	200	14
2023-09-21T12:00	6352	458	-18.0	-26.9	200	14
2023-09-21T12:00	6372	457	-18.1	-27.2	199	15
2023-09-21T12:00	6402	455	-18.3	-27.5	198	15
2023-09-21T12:00	6426	454	-18.4	-27.5	197	15
2023-09-21T12:00	6454	452	-18.6	-27.0	197	15
2023-09-21T12:00	6475	451	-18.6	-28.1	196	14
2023-09-21T12:00	6507	449	-18.7	-29.3	195	14
2023-09-21T12:00	6526	448	-18.8	-29.4	195	14
2023-09-21T12:00	6549	446	-19.0	-27.3	195	14
2023-09-21T12:00	6577	445	-19.3	-28.3	196	15
2023-09-21T12:00	6596	444	-19.5	-27.2	198	15
2023-09-21T12:00	6620	442	-19.7	-27.2	200	15
2023-09-21T12:00	6647	441	-19.9	-27.8	202	15
2023-09-21T12:00	6669	439	-20.1	-27.8	203	14
2023-09-21T12:00	6699	438	-20.4	-28.0	202	14
2023-09-21T12:00	6721	436	-20.6	-28.3	200	13
2023-09-21T12:00	6743	435	-20.8	-28.9	198	13
2023-09-21T12:00	6770	433	-21.0	-27.8	195	13
2023-09-21T12:00	6790	432	-21.3	-28.1	193	13
2023-09-21T12:00	6810	431	-21.5	-26.8	193	14
2023-09-21T12:00	6834	430	-21.7	-26.7	194	14
2023-09-21T12:00	6859	428	-21.9	-26.8	196	14
2023-09-21T12:00	6882	427	-22.1	-26.7	198	15
2023-09-21T12:00	6916	425	-22.5	-27.6	199	15
2023-09-21T12:00	6944	423	-22.7		198	15
2023-09-21T12:00	6971	422	-22.9	-26.8	196	16
2023-09-21T12:00	6991	420	-23.1	-26.3	195	16
2023-09-21T12:00	7019	419	-23.4	-26.6	195	15
2023-09-21T12:00	7040	418	-23.5	-26.9	196	15
2023-09-21T12:00	7070	416	-23.8	-26.7	198	15
2023-09-21T12:00	7090	415	-23.9	-27.2	199	14
2023-09-21T12:00	7113	414	-24.1	-27.5	199	14
2023-09-21T12:00	7137	412	-24.3	-26.6	198	14
2023-09-21T12:00	7158	411	-24.4	-26.1	197	14
2023-09-21T12:00	7177	410	-24.6	-25.5	197	14
2023-09-21T12:00	7208	408	-24.8	-26.1	197	15
2023-09-21T12:00	7234	407	-24.9	-27.1	197	16
2023-09-21T12:00	7259	405	-25.2	-27.0	196	16
2023-09-21T12:00	7281	404	-25.4	-27.5	195	17
2023-09-21T12:00	7300	403	-25.6	-27.6	194	17
2023-09-21T12:00	7319	402	-25.7	-27.5	195	16
2023-09-21T12:00	7343	401	-25.9	-27.9	196	16
2023-09-21T12:00	7370	399	-26.2	-28.0	198	15
2023-09-21T12:00	7397	398	-26.3	-28.2	200	15
2023-09-21T12:00	7418	397	-26.4	-29.2	201	14
2023-09-21T12:00	7437	395	-26.6	-29.1	200	14
2023-09-21T12:00	7463	394	-26.9	-29.0	198	14
2023-09-21T12:00	7485	393	-27.1	-29.3	197	14
2023-09-21T12:00	7506	392	-27.3	-29.5	196	14
2023-09-21T12:00	7527	391	-27.4	-29.1	197	15
2023-09-21T12:00	7553	389	-27.5	-31.4	197	16
2023-09-21T12:00	7575	388	-27.5	-34.3	197	17
2023-09-21T12:00	7595	387	-27.4	-38.7	197	17
2023-09-21T12:00	7614	386	-27.5	-38.8	196	18
2023-09-21T12:00	7635	385	-27.6	-39.0	196	18
2023-09-21T12:00	7664	383	-27.8	-39.3	196	18
2023-09-21T12:00	7684	382	-28.0	-39.6	196	18
2023-09-21T12:00	7714	381	-28.2	-40.1	197	18
2023-09-21T12:00	7736	379	-28.3	-39.9	198	19
2023-09-21T12:00	7761	378	-28.5	-39.9	199	19
2023-09-21T12:00	7787	377	-28.8	-39.9	200	20
2023-09-21T12:00	7819	375	-29.0	-40.1	201	20
2023-09-21T12:00	7844	374	-29.3	-40.3	202	21
2023-09-21T12:00	7867	373	-29.5	-40.2	203	21
2023-09-21T12:00	7885	372	-29.7	-40.4	204	21
2023-09-21T12:00	7904	371	-29.8	-40.6	205	21
2023-09-21T12:00	7923	370	-29.9	-40.7	207	21
2023-09-21T12:00	7943	368	-30.0	-41.0	208	21
2023-09-21T12:00	7968	367	-30.1	-41.6	208	20
2023-09-21T12:00	7987	366	-30.2	-42.6	209	20
2023-09-21T12:00	8008	365	-30.3		210	20
2023-09-21T12:00	8032	364	-30.5	-43.1	212	19
2023-09-21T12:00	8057	363	-30.7	-43.5	212	19
2023-09-21T12:00	8079	362	-30.8	-43.6	213	19
2023-09-21T12:00	8103	360	-31.0	-43.8	213	18
2023-09-21T12:00	8131	359	-31.2	-44.1	214	18
2023-09-21T12:00	8157	358	-31.4	-44.4	215	18
2023-09-21T12:00	8180	356	-31.6	-44.4	216	18
2023-09-21T12:00	8213	355	-31.8	-44.2	218	18
2023-09-21T12:00	8243	353	-32.0	-44.0	219	18
2023-09-21T12:00	8264	352	-32.2	-43.9	221	18
2023-09-21T12:00	8289	351	-32.4	-43.9	222	19
2023-09-21T12:00	8315	350	-32.7	-44.0	224	19
2023-09-21T12:00	8340	349	-32.9	-44.5	224	19
2023-09-21T12:00	8361	347	-33.1	-44.6	224	19
2023-09-21T12:00	8382	346	-33.1	-44.8	223	19
2023-09-21T12:00	8400	345	-33.3	-44.3	222	19
2023-09-21T12:00	8422	344	-33.5	-44.2	221	19
2023-09-21T12:00	8447	343	-33.7	-44.7	220	19
2023-09-21T12:00	8472	342	-33.8	-46.1	219	19
2023-09-21T12:00	8502	341	-34.0	-46.9	219	20
2023-09-21T12:00	8532	339	-34.2	-46.8	218	20
2023-09-21T12:00	8561	338	-34.4	-46.7	218	20
2023-09-21T12:00	8580	337	-34.6	-47.1	219	20
2023-09-21T12:00	8601	336	-34.7	-47.5	219	20
2023-09-21T12:00	8622	335	-34.9	-47.5	219	20
2023-09-21T12:00	8645	334	-35.1	-47.8	219	20
2023-09-21T12:00	8667	333	-35.2	-47.9	219	19
2023-09-21T12:00	8689	331	-35.4	-48.0	218	19
2023-09-21T12:00	8712	330	-35.6	-48.1	217	19
2023-09-21T12:00	8731	330	-35.8	-48.2	216	19
2023-09-21T12:00	8749	329	-36.0	-48.3	216	18
2023-09-21T12:00	8769	328	-36.2	-48.4	216	19
2023-09-21T12:00	8791	327	-36.3	-48.4	216	19
2023-09-21T12:00	8807	326	-36.4	-48.7	217	19
2023-09-21T12:00	8838	325	-36.7	-48.9	218	20
2023-09-21T12:00	8863	323	-36.8	-49.3	219	20
2023-09-21T12:00	8887	322	-37.0	-49.1	220	20
2023-09-21T12:00	8915	321	-37.2	-48.8	222	20
2023-09-21T12:00	8935	320	-37.4	-48.6	223	19
2023-09-21T12:00	8963	319	-37.6	-48.6	223	19
2023-09-21T12:00	8987	318	-37.7	-48.6	223	18
2023-09-21T12:00	9007	317	-37.8	-48.7	223	18
2023-09-21T12:00	9032	315	-38.0	-48.2	223	18
2023-09-21T12:00	9058	314	-38.3	-47.9	224	18
2023-09-21T12:00	9077	313	-38.4	-47.8	225	18
2023-09-21T12:00	9099	312	-38.5	-48.4	227	17
2023-09-21T12:00	9120	311	-38.6		228	17
2023-09-21T12:00	9143	310	-38.8	-48.8	228	16
2023-09-21T12:00	9165	309	-39.0	-49.0	229	16
2023-09-21T12:00	9191	308	-39.2	-49.2	229	16
2023-09-21T12:00	9213	307	-39.4	-49.5	230	15
2023-09-21T12:00	9234	306	-39.6	-49.7	231	15
2023-09-21T12:00	9263	305	-39.7	-50.7	232	15
2023-09-21T12:00	9288	304	-39.5	-52.5	232	15
2023-09-21T12:00	9311	303	-39.5	-52.6	232	15
2023-09-21T12:00	9329	302	-39.6	-52.4	231	15
2023-09-21T12:00	9350	301	-39.6	-53.1	230	15
2023-09-21T12:00	9372	300	-39.5	-54.2	230	15
2023-09-21T12:00	9392	299	-39.6	-54.4	230	14
2023-09-21T12:00	9412	299	-39.7	-54.4	229	14
2023-09-21T12:00	9431	298	-39.9	-54.5	229	14
2023-09-21T12:00	9450	297	-40.1	-54.4	229	14
2023-09-21T12:00	9473	296	-40.2	-54.3	228	14
2023-09-21T12:00	9492	295	-40.4	-54.4	228	14
2023-09-21T12:00	9515	294	-40.4	-54.4	227	14
2023-09-21T12:00	9541	293	-40.6	-54.4	227	14
2023-09-21T12:00	9565	292	-40.8	-54.2	228	14
2023-09-21T12:00	9590	291	-41.0	-54.1	229	14
2023-09-21T12:00	9613	290	-41.2	-54.2	229	14
2023-09-21T12:00	9636	289	-41.4	-54.4	228	14
2023-09-21T12:00	9659	288	-41.6	-54.5	227	14
2023-09-21T12:00	9681	287	-41.8	-54.4	225	13
2023-09-21T12:00	9705	286	-42.0	-54.4	223	13
2023-09-21T12:00	9727	285	-42.2	-54.5	223	13
2023-09-21T12:00	9747	284	-42.3	-54.7	223	14
2023-09-21T12:00	9767	283	-42.5	-54.9	223	14
2023-09-21T12:00	9787	282	-42.7	-55.0	224	14
2023-09-21T12:00	9812	281	-43.0	-54.9	223	14
2023-09-21T12:00	9835	280	-43.0	-55.1	222	14
2023-09-21T12:00	9855	280	-43.2		221	14
2023-09-21T12:00	9874	279	-43.4	-55.1	221	14
2023-09-21T12:00	9895	278	-43.6	-55.2	221	14
2023-09-21T12:00	9918	277	-43.7	-55.5	221	15
2023-09-21T12:00	9938	276	-43.9	-55.6	222	15
2023-09-21T12:00	9959	275	-44.0	-55.7	223	15
2023-09-21T12:00	9978	274	-44.2	-55.8	223	15
2023-09-21T12:00	10006	273	-44.4	-55.8	223	16
2023-09-21T12:00	10031	272	-44.6	-55.9	222	15
2023-09-21T12:00	10058	271	-44.8	-56.0	220	15
2023-09-21T12:00	10085	270	-45.1	-56.3	219	14
2023-09-21T12:00	10109	269	-45.3	-56.4	218	13
2023-09-21T12:00	10132	268	-45.5	-56.5	219	13
2023-09-21T12:00	10156	267	-45.7	-56.7	221	13
2023-09-21T12:00	10182	266	-45.9	-56.8	224	13
2023-09-21T12:00	10201	266	-46.1	-57.1	225	13
2023-09-21T12:00	10221	265	-46.2	-57.4	227	12
2023-09-21T12:00	10243	264	-46.4	-57.5	227	12
2023-09-21T12:00	10263	263	-46.6	-57.6	227	12
2023-09-21T12:00	10287	262	-46.7	-57.8	226	12
2023-09-21T12:00	10311	261	-46.9	-57.9	225	12
2023-09-21T12:00	10334	260	-47.1	-58.1	225	12
2023-09-21T12:00	10358	259	-47.3		225	12
2023-09-21T12:00	10384	258	-47.5	-58.1	225	12
2023-09-21T12:00	10408	257	-47.7	-58.3	225	12
2023-09-21T12:00	10433	256	-47.9	-58.5	226	11
2023-09-21T12:00	10456	255	-48.1	-58.7	226	11
2023-09-21T12:00	10478	255	-48.3	-58.9	226	11
2023-09-21T12:00	10499	254	-48.4	-59.2	227	12
2023-09-21T12:00	10519	253	-48.4	-59.7	228	12
2023-09-21T12:00	10541	252	-48.4	-60.0	230	11
2023-09-21T12:00	10566	251	-48.6	-60.3	231	11
2023-09-21T12:00	10590	250	-48.8	-60.4	232	11
2023-09-21T12:00	10613	249	-48.9	-60.6	233	11
2023-09-21T12:00	10637	249	-49.1	-60.8	233	12
2023-09-21T12:00	10661	248	-49.3	-60.8	232	12
2023-09-21T12:00	10681	247	-49.4	-60.9	231	12
2023-09-21T12:00	10702	246	-49.7	-61.0	229	13
2023-09-21T12:00	10726	245	-49.8	-60.8	228	13
2023-09-21T12:00	10749	244	-50.1	-61.0	226	13
2023-09-21T12:00	10770	244	-50.2	-61.3	225	13
2023-09-21T12:00	10790	243	-50.3		223	12
2023-09-21T12:00	10815	242	-50.6	-62.0	222	12
2023-09-21T12:00	10848	241	-50.6	-62.1	220	12
2023-09-21T12:00	10871	240	-50.6	-62.1	219	13
2023-09-21T12:00	10890	239	-50.7	-61.8	219	13
2023-09-21T12:00	10912	238	-50.9	-61.3	218	14
2023-09-21T12:00	10935	237	-51.0	-60.9	218	14
2023-09-21T12:00	10954	237	-51.2	-60.7	217	14
2023-09-21T12:00	10977	236	-51.3	-60.5	217	14
2023-09-21T12:00	11001	235	-51.5	-60.6	216	14
2023-09-21T12:00	11023	234	-51.6	-60.6	216	14
2023-09-21T12:00	11042	234	-51.8	-60.5	215	14
2023-09-21T12:00	11067	233	-51.9	-60.4	215	13
2023-09-21T12:00	11091	232	-52.0	-60.3	215	13
2023-09-21T12:00	11111	231	-52.1	-60.4	215	13
2023-09-21T12:00	11130	230	-52.1	-60.9	215	13
2023-09-21T12:00	11153	230	-52.0	-61.5	215	14
2023-09-21T12:00	11175	229	-52.0	-62.0	214	14
2023-09-21T12:00	11196	228	-52.0	-61.6	213	15
2023-09-21T12:00	11219	227	-52.1	-61.2	213	15
2023-09-21T12:00	11241	227	-52.3	-61.3	212	15
2023-09-21T12:00	11262	226	-52.4	-61.8	211	15
2023-09-21T12:00	11285	225	-52.4	-62.2	211	15
2023-09-21T12:00	11310	224	-52.5	-62.4	210	15
2023-09-21T12:00	11334	223	-52.7	-62.4	210	15
2023-09-21T12:00	11355	222	-52.9	-62.4	210	15
2023-09-21T12:00	11379	222	-53.1	-62.3	210	14
2023-09-21T12:00	11399	221	-53.2	-62.2	211	14
2023-09-21T12:00	11419	220	-53.3	-62.0	213	14
2023-09-21T12:00	11444	219	-53.5	-62.0	214	13
2023-09-21T12:00	11466	219	-53.7	-62.1	214	13
2023-09-21T12:00	11488	218	-53.9	-62.2	214	13
2023-09-21T12:00	11508	217	-54.0	-62.3	213	12
2023-09-21T12:00	11527	217	-54.1	-62.5	212	12
2023-09-21T12:00	11548	216	-54.3	-62.8	210	12
2023-09-21T12:00	11568	215	-54.3	-62.9	209	11
2023-09-21T12:00	11588	215	-54.5	-63.2	208	11
2023-09-21T12:00	11610	214	-54.5		206	11
2023-09-21T12:00	11629	213	-54.5	-64.3	205	11
2023-09-21T12:00	11651	213	-54.3	-65.2	204	11
2023-09-21T12:00	11671	212	-53.7	-65.5	203	12
2023-09-21T12:00	11693	211	-53.7	-65.9	204	13
2023-09-21T12:00	11713	210	-53.6	-65.9	205	13
2023-09-21T12:00	11730	210	-53.2	-66.0	207	14
2023-09-21T12:00	11751	209	-53.1	-66.5	209	14
2023-09-21T12:00	11772	209	-52.9	-67.0	210	15
2023-09-21T12:00	11792	208	-52.7	-67.5	211	15
2023-09-21T12:00	11812	207	-52.6	-68.1	210	15
2023-09-21T12:00	11830	207	-52.3	-69.1	209	15
2023-09-21T12:00	11853	206	-51.8	-70.1	207	14
2023-09-21T12:00	11873	205	-51.7	-70.7	204	14
2023-09-21T12:00	11892	205	-51.8	-71.1	202	14
2023-09-21T12:00	11915	204	-51.9	-71.6	200	14
2023-09-21T12:00	11935	203	-51.6	-72.0	199	14
2023-09-21T12:00	11957	203	-51.6	-72.5	198	14
2023-09-21T12:00	11979	202	-51.6	-72.8	196	15
2023-09-21T12:00	12003	201	-51.7	-73.0	195	15
2023-09-21T12:00	12023	201	-51.5	-73.1	194	16
2023-09-21T12:00	12046	200	-51.2	-73.3	193	16
2023-09-21T12:00	12071	199	-51.2	-73.6	192	16
2023-09-21T12:00	12094	198	-51.4	-73.9	191	16
2023-09-21T12:00	12120	198	-51.3	-74.1	190	16
2023-09-21T12:00	12144	197	-51.0	-74.5	190	15
2023-09-21T12:00	12168	196	-50.9	-74.9	191	15
2023-09-21T12:00	12193	195	-50.6	-75.1	192	14
2023-09-21T12:00	12218	195	-50.6	-75.5	193	14
2023-09-21T12:00	12242	194	-50.6	-75.5	194	13
2023-09-21T12:00	12266	193	-50.6	-75.7	194	13
2023-09-21T12:00	12290	193	-50.7	-76.0	194	13
2023-09-21T12:00	12315	192	-50.8	-76.1	194	13
2023-09-21T12:00	12340	191	-51.0	-76.2	194	13
2023-09-21T12:00	12363	190	-51.1	-76.3	194	13
2023-09-21T12:00	12386	190	-51.2	-76.4	194	13
2023-09-21T12:00	12408	189	-51.3	-76.5	195	13
2023-09-21T12:00	12430	188	-51.4	-76.5	196	14
2023-09-21T12:00	12454	188	-51.6	-76.7	198	14
2023-09-21T12:00	12484	187	-51.8	-76.8	199	14
2023-09-21T12:00	12506	186	-51.8	-76.6	202	14
2023-09-21T12:00	12530	186	-52.1	-76.9	204	14
2023-09-21T12:00	12555	185	-52.2	-77.0	207	14
2023-09-21T12:00	12578	184	-52.4		209	15
2023-09-21T12:00	12600	184	-52.6	-77.1	210	15
2023-09-21T12:00	12623	183	-52.6	-77.1	209	15
2023-09-21T12:00	12646	182	-52.5	-77.0	208	15
2023-09-21T12:00	12669	182	-52.5	-76.8	206	15
2023-09-21T12:00	12691	181	-52.7	-76.9	205	15
2023-09-21T12:00	12715	180	-52.7	-76.9	204	15
2023-09-21T12:00	12738	180	-52.8	-77.0	204	15
2023-09-21T12:00	12759	179	-52.8	-77.0	204	16
2023-09-21T12:00	12782	178	-53.0	-77.0	204	16
2023-09-21T12:00	12803	178	-53.2	-77.1	204	16
2023-09-21T12:00	12825	177	-53.4	-77.3	204	16
2023-09-21T12:00	12851	177	-53.5		203	16
2023-09-21T12:00	12874	176	-53.7	-77.4	203	15
2023-09-21T12:00	12893	175	-53.9	-77.5	203	15
2023-09-21T12:00	12915	175	-53.9	-77.7	203	14
2023-09-21T12:00	12935	174	-53.7	-77.7	204	14
2023-09-21T12:00	12957	174	-53.7	-77.7	205	13
2023-09-21T12:00	12980	173	-53.8	-78.0	205	13
2023-09-21T12:00	13004	172	-53.9	-78.1	203	13
2023-09-21T12:00	13027	172	-54.0	-78.2	201	13
2023-09-21T12:00	13050	171	-54.1	-78.3	197	13
2023-09-21T12:00	13083	170	-54.0	-78.4	193	14
2023-09-21T12:00	13110	170	-54.2	-78.5	190	15
2023-09-21T12:00	13147	169	-54.3	-78.6	188	15
2023-09-21T12:00	13178	168	-54.5	-78.8	186	16
2023-09-21T12:00	13211	167	-54.7	-78.9	184	17
2023-09-21T12:00	13238	166	-54.9	-78.9	183	18
2023-09-21T12:00	13261	166	-55.1	-78.9	182	18
2023-09-21T12:00	13282	165	-55.3	-79.0	181	17
2023-09-21T12:00	13306	164	-55.5		182	17
2023-09-21T12:00	13329	164	-55.6	-79.1	184	16
2023-09-21T12:00	13350	163	-55.6	-79.1	186	15
2023-09-21T12:00	13374	163	-55.5	-79.2	189	15
2023-09-21T12:00	13398	162	-55.5	-79.4	191	15
2023-09-21T12:00	13420	162	-55.4	-79.7	193	14
2023-09-21T12:00	13443	161	-55.4	-79.9	194	14
2023-09-21T12:00	13467	160	-55.5	-80.2	195	14
2023-09-21T12:00	13491	160	-55.6	-80.3	196	14
2023-09-21T12:00	13515	159	-55.6	-80.3	197	14
2023-09-21T12:00	13537	159	-55.6	-80.5	197	14
2023-09-21T12:00	13562	158	-55.8	-80.7	196	14
2023-09-21T12:00	13587	157	-55.8	-80.7	196	15
2023-09-21T12:00	13610	157	-55.9	-80.7	195	15
2023-09-21T12:00	13634	156	-55.9	-80.7	194	15
2023-09-21T12:00	13659	156	-56.0	-80.8	192	15
2023-09-21T12:00	13682	155	-56.1	-80.9	191	15
2023-09-21T12:00	13708	154	-56.2	-81.0	190	15
2023-09-21T12:00	13733	154	-56.3	-81.1	190	15
2023-09-21T12:00	13756	153	-56.5	-81.2	189	15
2023-09-21T12:00	13780	153	-56.6	-81.3	188	15
2023-09-21T12:00	13804	152	-56.5	-81.2	187	15
2023-09-21T12:00	13830	151	-56.5	-81.2	186	15
2023-09-21T12:00	13856	151	-56.7	-81.4	186	15
2023-09-21T12:00	13878	150	-56.9	-81.3	186	15
2023-09-21T12:00	13899	150	-56.9	-81.3	187	15
2023-09-21T12:00	13923	149	-57.0	-81.4	188	15
2023-09-21T12:00	13947	149	-57.1	-81.5	190	15
2023-09-21T12:00	13974	148	-57.2	-81.3	191	15
2023-09-21T12:00	13996	148	-57.3	-81.4	192	15
2023-09-21T12:00	14020	147	-57.5	-81.6	193	14
2023-09-21T12:00	14044	146	-57.6	-81.6	193	14
2023-09-21T12:00	14069	146	-57.7	-81.7	192	14
2023-09-21T12:00	14093	145	-57.9	-81.7	192	14
2023-09-21T12:00	14116	145	-57.9	-81.7	191	14
2023-09-21T12:00	14139	144	-57.9	-81.7	190	13
2023-09-21T12:00	14160	144	-57.9	-81.7	189	13
2023-09-21T12:00	14183	143	-58.1	-81.8	188	13
2023-09-21T12:00	14207	143	-58.1	-81.6	187	13
2023-09-21T12:00	14230	142	-58.3	-81.8	186	13
2023-09-21T12:00	14252	142	-58.6	-82.0	186	13
2023-09-21T12:00	14276	141	-58.6	-82.0	186	13
2023-09-21T12:00	14299	141	-58.6	-82.0	187	13
2023-09-21T12:00	14324	140	-58.4	-81.9	187	13
2023-09-21T12:00	14349	140	-58.4	-81.9	187	13
2023-09-21T12:00	14371	139	-58.5	-81.9	186	13
2023-09-21T12:00	14394	139	-58.6	-82.0	185	13
2023-09-21T12:00	14416	138	-58.7	-82.1	184	13
2023-09-21T12:00	14438	138	-58.9	-82.1	184	14
2023-09-21T12:00	14464	137	-59.2	-82.3	184	14
2023-09-21T12:00	14485	137	-59.2	-82.3	185	14
2023-09-21T12:00	14510	136	-59.3	-82.4	187	15
2023-09-21T12:00	14540	135	-59.1	-82.2	190	15
2023-09-21T12:00	14564	135	-59.2	-82.3	193	15
2023-09-21T12:00	14590	134	-59.4	-82.5	196	16
2023-09-21T12:00	14608	134	-59.5	-82.4	198	16
2023-09-21T12:00	14630	133	-59.6	-82.4	200	17
2023-09-21T12:00	14650	133	-59.8	-82.6	202	17
2023-09-21T12:00	14672	132	-60.0	-82.8	203	17
2023-09-21T12:00	14698	132	-60.1	-82.8	205	18
2023-09-21T12:00	14720	131	-60.0	-82.8	207	17
2023-09-21T12:00	14744	131	-60.0	-82.9	209	17
2023-09-21T12:00	14766	130	-59.9	-82.9	212	17
2023-09-21T12:00	14788	130	-59.9	-83.1	214	16
2023-09-21T12:00	14816	129	-59.9	-83.1	217	16
2023-09-21T12:00	14838	129	-59.8	-83.0	219	16
2023-09-21T12:00	14861	129	-59.8	-83.2	222	15
2023-09-21T12:00	14881	128	-59.8	-83.4	223	15
2023-09-21T12:00	14902	128	-59.4	-83.3	223	14
2023-09-21T12:00	14923	127	-59.0	-83.2	223	14
2023-09-21T12:00	14950	127	-58.9	-83.3	222	14
2023-09-21T12:00	14978	126	-58.8	-83.3	220	13
2023-09-21T12:00	15005	126	-58.8	-83.3	219	13
2023-09-21T12:00	15027	125	-58.9	-83.3	218	12
2023-09-21T12:00	15049	125	-58.9	-83.3	217	12
2023-09-21T12:00	15072	124	-59.2	-83.3	217	11
2023-09-21T12:00	15090	124	-59.3	-83.4	217	11
2023-09-21T12:00	15110	123	-59.5	-83.4	218	11
2023-09-21T12:00	15135	123	-59.7	-83.5	219	11
2023-09-21T12:00	15162	123	-59.9	-83.7	221	12
2023-09-21T12:00	15189	122	-60.1	-83.6	222	12
2023-09-21T12:00	15211	122	-60.2	-83.7	223	12
2023-09-21T12:00	15235	121	-60.5	-83.7	223	11
2023-09-21T12:00	15257	121	-60.6	-83.8	222	11
2023-09-21T12:00	15277	120	-60.8	-84.0	220	10
2023-09-21T12:00	15302	120	-61.0	-84.1	217	10
2023-09-21T12:00	15324	119	-60.7	-83.9	213	9
2023-09-21T12:00	15345	119	-60.5	-83.9	209	9
2023-09-21T12:00	15371	118	-60.6	-84.0	205	9
2023-09-21T12:00	15397	118	-60.6	-84.2	201	9
2023-09-21T12:00	15418	118	-60.4	-83.9	198	9
2023-09-21T12:00	15441	117	-60.6	-84.0	195	9
2023-09-21T12:00	15469	117	-60.8	-84.2	193	9
2023-09-21T12:00	15487	116	-60.9	-84.3	190	9
2023-09-21T12:00	15511	116	-61.0	-84.3	187	9
2023-09-21T12:00	15537	115	-61.1	-84.4	184	9
2023-09-21T12:00	15559	115	-61.1	-84.4	182	9
2023-09-21T12:00	15585	114	-61.1	-84.4	180	10
2023-09-21T12:00	15608	114	-61.1	-84.4	180	10
2023-09-21T12:00	15632	114	-61.1	-84.4	181	11
2023-09-21T12:00	15656	113	-61.2	-84.5	183	11
2023-09-21T12:00	15676	113	-61.0	-84.5	186	12
2023-09-21T12:00	15698	112	-60.8	-84.6	188	12
2023-09-21T12:00	15720	112	-60.5	-84.4	191	12
2023-09-21T12:00	15745	112	-60.3	-84.4	194	12
2023-09-21T12:00	15772	111	-60.1	-84.3	197	12
2023-09-21T12:00	15796	111	-60.0	-84.4	201	13
2023-09-21T12:00	15823	110	-59.9	-84.4	203	13
2023-09-21T12:00	15846	110	-59.8	-84.5	205	14
2023-09-21T12:00	15866	109	-59.4	-84.2	206	14
2023-09-21T12:00	15892	109	-59.1	-84.2	207	15
2023-09-21T12:00	15918	109	-59.1	-84.2	208	15
2023-09-21T12:00	15945	108	-59.3	-84.1	210	15
2023-09-21T12:00	15967	108	-59.5	-84.3	211	15
2023-09-21T12:00	15995	107	-59.6	-84.4	213	15
2023-09-21T12:00	16021	107	-59.7	-84.2	215	15
2023-09-21T12:00	16045	106	-59.9	-84.4	216	15
2023-09-21T12:00	16069	106	-60.1	-84.5	218	14
2023-09-21T12:00	16096	105	-60.2	-84.6	219	14
2023-09-21T12:00	16118	105	-60.4	-84.5	221	13
2023-09-21T12:00	16145	105	-60.4	-84.8	223	13
2023-09-21T12:00	16170	104	-60.4	-84.8	226	13
2023-09-21T12:00	16195	104	-60.1	-84.8	230	12
2023-09-21T12:00	16221	103	-59.8	-84.5	233	12
2023-09-21T12:00	16247	103	-59.8	-84.5	236	12
2023-09-21T12:00	16269	103	-59.9	-84.6	237	12
2023-09-21T12:00	16298	102	-60.1	-84.8	237	11
2023-09-21T12:00	16319	102	-60.2	-84.8	235	11
2023-09-21T12:00	16344	101	-60.1	-84.8	231	11
2023-09-21T12:00	16368	101	-60.1	-84.8	227	10
2023-09-21T12:00	16396	101	-60.1	-84.8	223	10
2023-09-21T12:00	16420	100	-60.2	-85.1	220	10
2023-09-21T12:00	16444	100	-60.2	-85.1	217	10
2023-09-21T12:00	16469	99	-59.8	-85.1	216	10
2023-09-21T12:00	16493	99	-59.4	-84.7	215	10
2023-09-21T12:00	16519	99	-59.4	-85.0	214	10
2023-09-21T12:00	16542	98	-59.2	-85.2	214	10
2023-09-21T12:00	16570	98	-59.0	-85.0	214	10
2023-09-21T12:00	16593	97	-58.9	-84.9	215	10
2023-09-21T12:00	16617	97	-58.8	-85.2	216	9
2023-09-21T12:00	16642	97	-58.7	-85.1	217	9
2023-09-21T12:00	16664	96	-58.8	-85.2	218	9
2023-09-21T12:00	16688	96	-58.8	-85.2	219	8
2023-09-21T12:00	16710	96	-58.9	-84.9	218	8
2023-09-21T12:00	16737	95	-59.3	-85.2	217	8
2023-09-21T12:00	16761	95	-59.4	-85.3	215	7
2023-09-21T12:00	16787	94	-59.6	-85.2	212	7
2023-09-21T12:00	16811	94	-59.8	-85.3	206	7
2023-09-21T12:00	16834	94	-60.0	-85.8	199	8
2023-09-21T12:00	16859	93	-59.8	-85.6	192	8
2023-09-21T12:00	16883	93	-59.4	-85.6	185	9
2023-09-21T12:00	16905	93	-59.2	-85.8	181	10
2023-09-21T12:00	16926	92	-59.0	-85.7	179	10
2023-09-21T12:00	16955	92	-59.0	-86.0	180	11
2023-09-21T12:00	16981	92	-58.9	-85.9	182	12
2023-09-21T12:00	17002	91	-58.7	-85.8	186	13
2023-09-21T12:00	17028	91	-58.5	-86.0	189	13
2023-09-21T12:00	17056	90	-58.5	-86.0	191	14
2023-09-21T12:00	17081	90	-58.5	-86.0	192	14
2023-09-21T12:00	17105	90	-58.1		191	15
2023-09-21T12:00	17131	89	-57.5	-85.6	190	15
2023-09-21T12:00	17154	89	-57.2	-85.8	188	14
2023-09-21T12:00	17179	89	-57.1	-85.7	187	14
2023-09-21T12:00	17203	88	-57.1	-85.7	187	14
2023-09-21T12:00	17227	88	-56.7	-85.4	188	14
2023-09-21T12:00	17254	88	-56.6	-85.4	190	14
2023-09-21T12:00	17275	87	-56.7	-85.4	192	14
2023-09-21T12:00	17303	87	-56.7	-85.4	194	14
2023-09-21T12:00	17327	87	-56.6	-85.4	195	13
2023-09-21T12:00	17353	86	-56.7	-85.4	196	13
2023-09-21T12:00	17379	86	-57.0	-85.7	197	13
2023-09-21T12:00	17405	86	-57.1	-85.3	199	13
2023-09-21T12:00	17429	85	-57.2	-85.4	200	13
2023-09-21T12:00	17452	85	-57.3	-85.5	201	13
2023-09-21T12:00	17481	85	-57.4	-85.6	202	13
2023-09-21T12:00	17505	84	-57.5	-85.6	202	13
2023-09-21T12:00	17530	84	-57.6	-85.7	203	14
2023-09-21T12:00	17553	84	-57.7	-85.8	204	14
2023-09-21T12:00	17578	83	-57.7	-85.8	205	14
2023-09-21T12:00	17604	83	-57.7	-85.8	208	14
2023-09-21T12:00	17628	83	-57.8	-85.9	210	14
2023-09-21T12:00	17654	82	-57.9		212	14
2023-09-21T12:00	17680	82	-57.8	-85.9	213	14
2023-09-21T12:00	17703	82	-57.7	-86.2	213	14
2023-09-21T12:00	17728	81	-57.9	-86.4	213	14
2023-09-21T12:00	17751	81	-57.7	-86.2	212	14
2023-09-21T12:00	17779	81	-57.6	-86.1	211	14
2023-09-21T12:00	17806	80	-57.5	-86.1	210	14
2023-09-21T12:00	17833	80	-57.3	-85.9	209	14
2023-09-21T12:00	17857	80	-57.3	-85.9	208	14
2023-09-21T12:00	17881	79	-57.3	-85.9	208	15
2023-09-21T12:00	17910	79	-57.3	-85.9	208	15
2023-09-21T12:00	17933	79	-57.4	-86.0	208	16
2023-09-21T12:00	17962	78	-57.4	-86.0	209	16
2023-09-21T12:00	17987	78	-57.3	-85.9	210	17
2023-09-21T12:00	18011	78	-57.6	-86.1	211	17
2023-09-21T12:00	18036	77	-57.6	-86.1	212	18
2023-09-21T12:00	18064	77	-57.8	-85.9	213	18
2023-09-21T12:00	18086	77	-58.0	-86.0	214	18
2023-09-21T12:00	18112	77	-58.1		215	18
2023-09-21T12:00	18137	76	-58.3	-86.2	216	17
2023-09-21T12:00	18163	76	-58.2	-86.2	217	17
2023-09-21T12:00	18190	76	-58.3	-86.2	218	16
2023-09-21T12:00	18216	75	-58.3	-86.2	218	16
2023-09-21T12:00	18240	75	-58.4	-86.3	218	15
2023-09-21T12:00	18264	75	-58.5	-86.4	218	14
2023-09-21T12:00	18289	74	-58.5	-86.4	217	14
2023-09-21T12:00	18311	74	-58.6	-86.5	216	13
2023-09-21T12:00	18338	74	-58.4	-86.7	215	13
2023-09-21T12:00	18365	74	-58.4	-86.7	216	13
2023-09-21T12:00	18391	73	-58.4	-86.7	217	13
2023-09-21T12:00	18415	73	-58.4	-86.7	218	13
2023-09-21T12:00	18436	73	-58.3	-86.7	220	14
2023-09-21T12:00	18465	72	-58.2	-86.6	222	14
2023-09-21T12:00	18493	72	-58.1	-87.0	223	14
2023-09-21T12:00	18516	72	-57.9	-86.8	224	14
2023-09-21T12:00	18540	71	-57.6	-86.6	225	13
2023-09-21T12:00	18569	71	-57.7	-86.7	227	13
2023-09-21T12:00	18593	71	-57.2	-86.8	229	12
2023-09-21T12:00	18620	71	-56.9	-86.6	230	12
2023-09-21T12:00	18644	70	-56.9	-86.6	231	11
2023-09-21T12:00	18669	70	-56.8	-86.5	230	11
2023-09-21T12:00	18698	70	-56.5	-86.3	230	11
2023-09-21T12:00	18721	69	-56.4	-86.2	229	11
2023-09-21T12:00	18746	69	-56.3	-86.1	229	11
2023-09-21T12:00	18774	69	-56.3	-86.1	229	11
2023-09-21T12:00	18806	69	-56.1	-86.0	229	11
2023-09-21T12:00	18828	68	-56.0	-85.9	228	10
2023-09-21T12:00	18854	68	-56.1	-86.0	227	10
2023-09-21T12:00	18880	68	-56.1	-86.0	226	9
2023-09-21T12:00	18908	67	-56.2	-86.0	224	9
2023-09-21T12:00	18936	67	-56.2	-85.5	222	8
2023-09-21T12:00	18958	67	-56.3	-85.6	220	8
2023-09-21T12:00	18988	67	-56.5	-85.8	218	8
2023-09-21T12:00	19012	66	-56.6	-85.8	216	8
2023-09-21T12:00	19041	66	-56.5	-86.3	215	9
2023-09-21T12:00	19066	66	-56.5	-86.3	216	9
2023-09-21T12:00	19095	66	-56.4	-86.2	216	10
2023-09-21T12:00	19120	65	-56.3	-86.1	217	10
2023-09-21T12:00	19146	65	-56.2	-86.0	218	11
2023-09-21T12:00	19173	65	-56.4	-86.2	218	11
2023-09-21T12:00	19197	64	-56.6	-85.8	217	12
2023-09-21T12:00	19223	64	-56.7	-85.9	217	12
2023-09-21T12:00	19252	64	-56.7	-85.9	216	12
2023-09-21T12:00	19275	64	-56.9	-86.1	216	11
2023-09-21T12:00	19304	63	-57.0	-86.1	216	11
2023-09-21T12:00	19330	63	-57.1	-86.2	216	11
2023-09-21T12:00	19355	63	-57.3	-86.4	215	11
2023-09-21T12:00	19378	63	-57.4	-86.4	214	11
2023-09-21T12:00	19401	62	-57.5	-86.5	213	12
2023-09-21T12:00	19426	62	-57.4	-86.4	212	12
2023-09-21T12:00	19450	62	-57.4	-86.4	212	13
2023-09-21T12:00	19474	62	-57.4	-86.4	212	13
2023-09-21T12:00	19501	61	-57.2	-86.3	213	14
2023-09-21T12:00	19525	61	-57.2	-86.8	213	15
2023-09-21T12:00	19548	61	-57.0	-86.6	214	15
2023-09-21T12:00	19573	61	-56.9	-86.6	214	16
2023-09-21T12:00	19599	61	-57.0	-86.6	216	16
2023-09-21T12:00	19624	60	-57.2	-86.8	217	17
2023-09-21T12:00	19648	60	-57.3	-86.4	219	17
2023-09-21T12:00	19674	60	-57.4	-86.4	221	17
2023-09-21T12:00	19699	60	-57.4	-86.4	222	17
2023-09-21T12:00	19725	59	-57.4	-86.4	224	18
2023-09-21T12:00	19750	59	-57.5	-86.5	225	18
2023-09-21T12:00	19775	59	-57.6	-86.6	227	18
2023-09-21T12:00	19799	59	-57.7	-86.7	229	18
2023-09-21T12:00	19823	58	-57.8	-86.7	230	17
2023-09-21T12:00	19850	58	-57.9	-86.8	231	17
2023-09-21T12:00	19876	58	-57.9	-86.8	232	17
2023-09-21T12:00	19898	58	-58.0	-86.9	233	16
2023-09-21T12:00	19926	57	-58.2	-87.0	233	16
2023-09-21T12:00	19955	57	-58.3	-86.7	233	16
2023-09-21T12:00	19977	57	-58.4	-87.2	233	15
2023-09-21T12:00	20003	57	-58.3	-87.1	233	15
2023-09-21T12:00	20025	57	-58.3	-87.1	233	15
2023-09-21T12:00	20051	56	-58.4	-87.2	233	14
2023-09-21T12:00	20076	56	-58.5	-86.8	232	14
2023-09-21T12:00	20100	56	-58.5	-86.8	231	13
2023-09-21T12:00	20127	56	-58.5	-86.8	230	13
2023-09-21T12:00	20153	55	-58.5	-86.8	229	13
2023-09-21T12:00	20178	55	-58.6	-86.9	229	13
2023-09-21T12:00	20202	55	-58.8	-87.0	230	13
2023-09-21T12:00	20227	55	-58.9	-87.6	231	14
2023-09-21T12:00	20249	55	-58.4	-87.2	233	14
2023-09-21T12:00	20275	54	-58.2	-87.0	234	15
2023-09-21T12:00	20302	54	-58.4	-87.2	234	15
2023-09-21T12:00	20333	54	-58.5	-87.3	234	15
2023-09-21T12:00	20357	54	-58.6	-87.3	234	15
2023-09-21T12:00	20383	53	-58.5	-87.3	233	16
2023-09-21T12:00	20410	53	-58.5	-87.3	232	16
2023-09-21T12:00	20435	53	-58.5	-87.3	232	16
2023-09-21T12:00	20462	53	-58.4	-87.2	232	16
2023-09-21T12:00	20491	53	-58.1	-87.0	232	16
2023-09-21T12:00	20518	52	-57.8	-86.7	233	16
2023-09-21T12:00	20544	52	-57.8	-87.2	235	17
2023-09-21T12:00	20571	52	-58.0	-87.4	237	17
2023-09-21T12:00	20599	52	-57.9	-87.3	239	17
2023-09-21T12:00	20629	51	-57.8	-87.2	242	17
2023-09-21T12:00	20656	51	-57.7	-87.2	245	17
2023-09-21T12:00	20679	51	-57.8	-87.2	247	16
2023-09-21T12:00	20706	51	-57.7	-87.2	248	16
2023-09-21T12:00	20735	51	-57.6	-87.1	249	15
2023-09-21T12:00	20764	50	-57.6	-87.1	250	15
2023-09-21T12:00	20793	50	-57.6	-87.1	251	14
2023-09-21T12:00	20814	50	-57.5	-87.0	251	14
2023-09-21T12:00	20840	50	-57.4	-86.9	251	13
2023-09-21T12:00	20868	49	-57.5	-87.0	251	12
2023-09-21T12:00	20892	49	-57.5	-87.0	251	12
2023-09-21T12:00	20919	49	-57.2	-86.8	250	11
2023-09-21T12:00	20947	49	-57.0	-86.6	249	10
2023-09-21T12:00	20973	49	-57.1	-86.7	247	9
2023-09-21T12:00	21000	48	-57.2	-86.8	244	9
2023-09-21T12:00	21023	48	-57.3	-86.9	242	8
2023-09-21T12:00	21053	48	-57.3	-86.9	239	8
2023-09-21T12:00	21077	48	-57.0	-86.6	236	8
2023-09-21T12:00	21104	48	-57.0	-86.6	233	8
2023-09-21T12:00	21130	47	-57.0	-86.6	230	8
2023-09-21T12:00	21158	47	-57.0	-86.6	227	8
2023-09-21T12:00	21182	47	-56.9	-86.6	226	9
2023-09-21T12:00	21208	47	-57.0	-86.6	225	9
2023-09-21T12:00	21231	47	-57.0	-86.6	225	9
2023-09-21T12:00	21261	46	-56.9	-86.6	224	9
2023-09-21T12:00	21282	46	-56.8	-86.5	224	10
2023-09-21T12:00	21307	46	-56.9	-86.6	223	10
2023-09-21T12:00	21338	46	-57.0	-86.6	222	11
2023-09-21T12:00	21364	46	-57.0	-86.6	223	11
2023-09-21T12:00	21393	46	-56.8	-86.5	223	11
2023-09-21T12:00	21422	45	-56.9	-86.6	224	11
2023-09-21T12:00	21445	45	-57.0	-86.6	225	12
2023-09-21T12:00	21468	45	-57.2	-86.8	227	12
2023-09-21T12:00	21497	45	-57.2	-86.8	228	12
2023-09-21T12:00	21520	45	-57.1	-86.7	228	13
2023-09-21T12:00	21549	44	-56.7	-86.9	229	13
2023-09-21T12:00	21572	44	-56.4		230	12
2023-09-21T12:00	21596	44	-56.4		231	12
2023-09-21T12:00	21624	44	-56.3	-86.6	232	11
2023-09-21T12:00	21654	44	-56.3	-86.6	232	11
2023-09-21T12:00	21675	44	-56.2	-86.6	231	11
2023-09-21T12:00	21703	43	-56.3	-86.6	230	10
2023-09-21T12:00	21731	43	-56.3	-86.1	229	10
2023-09-21T12:00	21754	43	-56.4	-86.2	227	10
2023-09-21T12:00	21783	43	-56.5	-86.3	226	10
2023-09-21T12:00	21811	43	-56.6	-86.3	225	10
2023-09-21T12:00	21834	42	-56.7	-86.4	224	10
2023-09-21T12:00	21859	42	-56.5	-86.8	223	10
2023-09-21T12:00	21885	42	-56.4		223	10
2023-09-21T12:00	21912	42	-56.4	-86.2	224	11
2023-09-21T12:00	21939	42	-56.5	-86.3	225	11
2023-09-21T12:00	21967	42	-56.7	-86.4	226	12
2023-09-21T12:00	21994	41	-56.9	-86.6	227	12
2023-09-21T12:00	22019	41	-56.8	-86.5	227	13
2023-09-21T12:00	22043	41	-56.6	-86.3	227	13
2023-09-21T12:00	22069	41	-56.4		226	14
2023-09-21T12:00	22098	41	-56.3	-86.6	225	14
2023-09-21T12:00	22124	41	-56.4		225	14
2023-09-21T12:00	22145	40	-56.7	-86.4	225	14
2023-09-21T12:00	22170	40	-56.8	-86.5	225	14
2023-09-21T12:00	22197	40	-56.8	-86.5	226	14
2023-09-21T12:00	22225	40	-56.8	-86.5	228	14
2023-09-21T12:00	22252	40	-56.9	-86.6	229	13
2023-09-21T12:00	22281	40	-57.2	-86.8	231	13
2023-09-21T12:00	22310	39	-57.4	-86.9	234	13
2023-09-21T12:00	22333	39	-57.6	-87.1	236	13
2023-09-21T12:00	22363	39	-57.4	-86.9	239	13
2023-09-21T12:00	22387	39	-57.2	-86.8	242	13
2023-09-21T12:00	22418	39	-57.2	-86.8	245	13
2023-09-21T12:00	22443	39	-57.1	-86.7	247	13
2023-09-21T12:00	22471	38	-57.0	-86.6	249	13
2023-09-21T12:00	22498	38	-57.0	-86.6	251	13
2023-09-21T12:00	22525	38	-57.1	-86.7	253	12
2023-09-21T12:00	22554	38	-57.2	-86.8	254	12
2023-09-21T12:00	22579	38	-57.1	-86.7	255	11
2023-09-21T12:00	22609	38	-57.2	-86.8	255	10
2023-09-21T12:00	22632	37	-57.3	-86.9	254	10
2023-09-21T12:00	22658	37	-57.4	-86.9	253	10
2023-09-21T12:00	22689	37	-57.3	-86.9	252	9
2023-09-21T12:00	22712	37	-57.3	-86.9	250	9
2023-09-21T12:00	22740	37	-57.5	-87.0	248	9
2023-09-21T12:00	22767	37	-57.7	-86.7	247	10
2023-09-21T12:00	22788	37	-57.9	-86.8	245	10
2023-09-21T12:00	22817	36	-57.9	-86.8	244	11
2023-09-21T12:00	22843	36	-58.2	-87.0	243	11
2023-09-21T12:00	22866	36	-58.3	-87.1	243	12
2023-09-21T12:00	22895	36	-58.3	-87.1	242	12
2023-09-21T12:00	22925	36	-58.3	-87.1	242	12
2023-09-21T12:00	22955	36	-58.4	-87.2	242	12
2023-09-21T12:00	22976	35	-58.6	-86.9	241	12
2023-09-21T12:00	23002	35	-58.9	-87.1	241	12
2023-09-21T12:00	23028	35	-58.9	-87.1	241	12
2023-09-21T12:00	23058	35	-59.1	-87.3	240	13
2023-09-21T12:00	23080	35	-59.2	-87.8	240	13
2023-09-21T12:00	23109	35	-59.0	-87.6	239	13
2023-09-21T12:00	23139	35	-58.9	-87.6	239	13
2023-09-21T12:00	23161	34	-58.6	-87.8	239	12
2023-09-21T12:00	23190	34	-58.3	-87.6	240	12
2023-09-21T12:00	23213	34	-58.2	-87.5	240	12
2023-09-21T12:00	23242	34	-57.9	-87.3	240	12
2023-09-21T12:00	23269	34	-57.8	-87.2	240	11
2023-09-21T12:00	23296	34	-57.8	-87.2	240	11
2023-09-21T12:00	23324	34	-57.7	-87.2	239	10
2023-09-21T12:00	23348	33	-57.7	-87.2	237	10
2023-09-21T12:00	23383	33	-57.6	-87.1	234	10
2023-09-21T12:00	23404	33	-57.6	-87.1	229	10
2023-09-21T12:00	23441	33	-57.5	-87.0	224	10
2023-09-21T12:00	23471	33	-57.6	-87.1	220	10
2023-09-21T12:00	23494	33	-57.7	-87.2	216	11
2023-09-21T12:00	23525	33	-57.6	-87.1	214	11
2023-09-21T12:00	23555	32	-57.2	-86.8	214	11
2023-09-21T12:00	23580	32	-57.1	-87.2	216	10
2023-09-21T12:00	23613	32	-57.3	-87.4	219	10
2023-09-21T12:00	23643	32	-57.4	-87.5	222	10
2023-09-21T12:00	23672	32	-57.3	-87.4	225	11
2023-09-21T12:00	23700	32	-57.1	-87.2	228	11
2023-09-21T12:00	23730	31	-56.9	-87.1	231	11
2023-09-21T12:00	23757	31	-56.9	-87.1	233	12
2023-09-21T12:00	23791	31	-56.9	-87.1	235	12
2023-09-21T12:00	23813	31	-57.0	-87.2	236	12
2023-09-21T12:00	23841	31	-57.0	-87.2	237	12
2023-09-21T12:00	23876	31	-57.0	-87.2	237	12
2023-09-21T12:00	23909	31	-56.9	-87.1	237	12
2023-09-21T12:00	23941	30	-57.0	-87.2	238	12
2023-09-21T12:00	23964	30	-57.1	-87.2	239	12
2023-09-21T12:00	23996	30	-57.2	-87.3	242	12
2023-09-21T12:00	24024	30	-57.0	-87.2	245	12
2023-09-21T12:00	24053	30	-56.8	-87.0	248	12
2023-09-21T12:00	24082	30	-56.8	-87.0	251	12
2023-09-21T12:00	24109	30	-56.6	-86.9	253	12
2023-09-21T12:00	24134	30	-56.7	-86.9	256	11
2023-09-21T12:00	24169	29	-56.6	-86.9	258	11
2023-09-21T12:00	24194	29	-56.5	-86.8	260	10
2023-09-21T12:00	24219	29	-56.4		262	10
2023-09-21T12:00	24250	29	-56.3	-87.2	263	10
2023-09-21T12:00	24279	29	-56.3	-87.2	263	10
2023-09-21T12:00	24314	29	-56.1	-87.1	263	10
2023-09-21T12:00	24336	29	-56.1	-87.1	262	9
2023-09-21T12:00	24364	28	-56.1	-87.1	261	9
2023-09-21T12:00	24391	28	-56.0	-87.0	259	8
2023-09-21T12:00	24425	28	-55.9	-86.9	256	7
2023-09-21T12:00	24449	28	-55.9	-86.9	253	7
2023-09-21T12:00	24473	28	-55.9	-86.9	249	6
2023-09-21T12:00	24515	28	-55.8	-86.9	245	6
2023-09-21T12:00	24533	28	-55.9	-86.9	238	6
2023-09-21T12:00	24556	28	-56.0	-87.0	231	6
2023-09-21T12:00	24587	28	-55.8	-86.9	224	6
2023-09-21T12:00	24611	27	-55.6	-86.7	219	7
2023-09-21T12:00	24640	27	-55.5	-86.7	216	8
2023-09-21T12:00	24667	27	-55.3	-86.5	215	8
2023-09-21T12:00	24690	27	-55.0	-86.3	216	9
2023-09-21T12:00	24719	27	-54.9	-86.9	219	9
2023-09-21T12:00	24749	27	-54.8	-86.8	222	9
2023-09-21T12:00	24773	27	-54.8	-86.8	225	9
2023-09-21T12:00	24806	27	-54.8	-86.8	228	10
2023-09-21T12:00	24829	26	-54.6	-86.7	230	10
2023-09-21T12:00	24857	26	-54.5	-86.6	231	11
2023-09-21T12:00	24895	26	-54.4	-86.5	232	11
2023-09-21T12:00	24917	26	-54.2	-86.4	233	11
2023-09-21T12:00	24950	26	-54.2	-86.4	235	11
2023-09-21T12:00	24980	26	-54.2	-86.4	235	11
2023-09-21T12:00	25017	26	-54.2	-86.4	236	10
2023-09-21T12:00	25037	26	-54.2	-86.4	237	9
2023-09-21T12:00	25065	26	-54.2	-86.4	238	9
2023-09-21T12:00	25095	25	-54.2	-86.4	240	8
2023-09-21T12:00	25133	25	-54.2	-85.7	243	8
2023-09-21T12:00	25150	25	-54.2	-85.7	246	8
2023-09-21T12:00	25186	25	-54.4	-85.8	248	7
2023-09-21T12:00	25217	25	-54.6	-86.0	248	7
2023-09-21T12:00	25254	25	-54.8	-86.1	246	7
2023-09-21T12:00	25286	25	-54.9	-86.2	241	7
2023-09-21T12:00	25317	25	-55.0	-86.3	234	7
2023-09-21T12:00	25347	24	-55.1	-86.4	228	7
2023-09-21T12:00	25377	24	-55.0	-86.3	223	8
2023-09-21T12:00	25409	24	-54.9	-86.2	220	8
2023-09-21T12:00	25447	24	-55.0	-86.3	218	9
2023-09-21T12:00	25468	24	-55.0	-86.3	218	9
2023-09-21T12:00	25500	24	-54.9	-86.2	220	9
2023-09-21T12:00	25532	24	-54.8	-86.1	224	8
2023-09-21T12:00	25567	24	-54.6	-86.7	229	8
2023-09-21T12:00	25597	23	-54.4	-86.5	234	8
2023-09-21T12:00	25631	23	-54.3	-86.4	240	8
2023-09-21T12:00	25660	23	-54.4	-86.5	245	8
2023-09-21T12:00	25702	23	-54.4	-86.5	250	8
2023-09-21T12:00	25733	23	-54.4	-85.8	255	8
2023-09-21T12:00	25758	23	-54.5	-85.9	258	8
2023-09-21T12:00	25795	23	-54.7	-86.1	260	8
2023-09-21T12:00	25822	23	-54.7	-86.1	260	8
2023-09-21T12:00	25852	23	-54.5	-85.9	260	8
2023-09-21T12:00	25890	22	-54.4	-85.8	258	8
2023-09-21T12:00	25918	22	-54.6	-86.0	257	8
2023-09-21T12:00	25945	22	-54.7	-86.1	255	7
2023-09-21T12:00	25970	22	-54.8	-86.1	253	7
2023-09-21T12:00	26002	22	-54.7	-86.1	250	6
2023-09-21T12:00	26032	22	-54.7	-86.1	246	5
2023-09-21T12:00	26057	22	-54.6	-86.0	240	5
2023-09-21T12:00	26092	22	-54.6	-86.0	230	4
2023-09-21T12:00	26122	22	-54.6	-86.7	217	4
2023-09-21T12:00	26146	22	-54.6	-86.7	203	4
2023-09-21T12:00	26187	21	-54.5	-86.6	192	5
2023-09-21T12:00	26214	21	-54.4	-86.5	185	6
2023-09-21T12:00	26237	21	-54.3	-86.4	181	7
2023-09-21T12:00	26275	21	-54.3	-86.4	179	7
2023-09-21T12:00	26298	21	-54.4	-86.5	178	8
2023-09-21T12:00	26330	21	-54.4	-86.5	179	8
2023-09-21T12:00	26361	21	-54.3	-86.4	180	8
2023-09-21T12:00	26392	21	-54.2	-86.4	182	8
2023-09-21T12:00	26410	21	-54.1	-86.3	186	8
2023-09-21T12:00	26448	21	-54.1	-85.6	189	8
2023-09-21T12:00	26484	20	-54.3	-85.8	194	8
2023-09-21T12:00	26499	20	-54.4	-85.8	198	8
2023-09-21T12:00	26535	20	-54.4	-86.5	203	8
2023-09-21T12:00	26564	20	-54.3	-86.4	208	8
2023-09-21T12:00	26595	20	-54.2	-86.4	214	8
2023-09-21T12:00	26617	20	-54.1	-86.3	221	7
2023-09-21T12:00	26645	20	-53.9	-86.2	228	7
2023-09-21T12:00	26680	20	-53.9	-86.2	235	8
2023-09-21T12:00	26707	20	-54.0	-86.2	240	8
2023-09-21T12:00	26730	20	-54.2	-86.4	245	8
2023-09-21T12:00	26771	20	-54.2	-85.7	248	8
2023-09-21T12:00	26795	19	-54.4	-85.8	251	8
2023-09-21T12:00	26827	19	-54.5	-85.9	254	8
2023-09-21T12:00	26856	19	-54.5	-85.9	256	8
2023-09-21T12:00	26881	19	-54.5	-85.9	258	7
2023-09-21T12:00	26908	19	-54.6	-86.0	258	7
2023-09-21T12:00	26943	19	-54.8	-86.1	258	6
2023-09-21T12:00	26971	19	-54.9	-86.2	256	6
2023-09-21T12:00	27014	19	-54.9	-86.2	254	5
2023-09-21T12:00	27033	19	-55.0	-86.3	250	5
2023-09-21T12:00	27066	19	-55.1	-86.4	246	5
2023-09-21T12:00	27087	19	-55.2	-86.4	241	4
2023-09-21T12:00	27123	19	-55.4	-86.0	236	4
2023-09-21T12:00	27154	18	-55.7	-86.2	229	4
2023-09-21T12:00	27178	18	-55.8	-86.3	221	4
2023-09-21T12:00	27215	18	-56.0	-86.4	213	4
2023-09-21T12:00	27255	18	-56.1	-86.5	206	5
2023-09-21T12:00	27276	18	-56.2	-86.6	201	5
2023-09-21T12:00	27303	18	-56.4		199	6
2023-09-21T12:00	27338	18	-56.4		199	7
2023-09-21T12:00	27376	18	-56.4	-87.3	200	8
2023-09-21T12:00	27395	18	-56.1	-87.1	203	9
2023-09-21T12:00	27423	18	-55.9	-86.9	206	10
2023-09-21T12:00	27460	18	-55.9	-86.9	210	11
2023-09-21T12:00	27487	17	-55.9	-86.9	213	12
2023-09-21T12:00	27515	17	-55.9	-86.9	216	12
2023-09-21T12:00	27553	17	-55.9	-86.9	218	13
2023-09-21T12:00	27582	17	-55.8	-86.9	221	13
2023-09-21T12:00	27604	17	-55.6	-86.7	224	14
2023-09-21T12:00	27636	17	-55.5	-86.7	226	14
2023-09-21T12:00	27663	17	-55.4	-86.6	229	14
2023-09-21T12:00	27702	17	-55.3	-86.5	233	14
2023-09-21T12:00	27720	17	-55.4	-86.6	237	14
2023-09-21T12:00	27757	17	-55.6	-87.4	240	14
2023-09-21T12:00	27781	17	-55.5	-87.3	244	15
2023-09-21T12:00	27815	17	-55.2	-87.1	247	14
2023-09-21T12:00	27852	17	-54.9	-86.9	250	14
2023-09-21T12:00	27866	16	-54.6	-86.7	254	13
2023-09-21T12:00	27907	16	-54.6	-86.7	258	12
2023-09-21T12:00	27942	16	-54.6	-86.7	262	12
2023-09-21T12:00	27958	16	-54.7	-86.7	266	11
2023-09-21T12:00	27994	16	-54.8	-86.8	271	10
2023-09-21T12:00	28014	16	-54.9	-86.2	275	10
2023-09-21T12:00	28046	16	-55.0	-86.3	278	9
2023-09-21T12:00	28073	16	-55.1	-86.4	280	8
2023-09-21T12:00	28115	16	-55.1	-86.4	280	7
2023-09-21T12:00	28131	16	-55.1	-86.4	277	6
2023-09-21T12:00	28171	16	-55.1	-86.4	270	5
2023-09-21T12:00	28201	16	-54.9	-86.9	262	5
2023-09-21T12:00	28238	16	-54.8	-86.8	255	5
2023-09-21T12:00	28263	15	-54.7	-86.7	251	6
2023-09-21T12:00	28284	15	-54.4	-86.5	250	6
2023-09-21T12:00	28308	15	-54.2	-86.4	250	6
2023-09-21T12:00	28339	15	-54.3	-86.4	250	6
2023-09-21T12:00	28376	15	-54.2	-86.4	250	6
2023-09-21T12:00	28399	15	-54.1	-86.3	248	6
2023-09-21T12:00	28443	15	-54.2	-86.4	245	5
2023-09-21T12:00	28451	15	-54.1	-86.3	242	5
2023-09-21T12:00	28508	15	-54.2	-86.4	238	4
2023-09-21T12:00	28526	15	-54.2	-86.4	233	4
2023-09-21T12:00	28555	15	-54.2	-86.4	230	4
2023-09-21T12:00	28583	15	-53.9	-86.2	227	5
2023-09-21T12:00	28618	15	-53.7	-86.0	226	6
2023-09-21T12:00	28640	15	-53.6	-86.7	227	6
2023-09-21T12:00	28672	15	-53.5	-86.6	228	7
2023-09-21T12:00	28696	14	-53.4	-86.5	230	8
2023-09-21T12:00	28731	14	-53.3	-86.5	233	10
2023-09-21T12:00	28767	14	-53.3	-86.5	237	10
2023-09-21T12:00	28797	14	-53.1	-86.3	242	11
2023-09-21T12:00	28829	14	-52.7	-86.0	247	12
2023-09-21T12:00	28858	14	-52.4	-85.8	253	12
2023-09-21T12:00	28898	14	-52.2	-85.7	258	13
2023-09-21T12:00	28921	14	-52.1	-85.6	263	14
2023-09-21T12:00	28955	14	-52.0	-85.5	266	14
2023-09-21T12:00	28985	14	-52.0	-85.5	268	15
2023-09-21T12:00	29003	14	-51.9	-85.5	268	15
2023-09-21T12:00	29043	14	-51.8	-85.4	268	15
2023-09-21T12:00	29067	14	-51.6	-85.2	267	15
2023-09-21T12:00	29103	14	-51.4	-85.1	266	15
2023-09-21T12:00	29140	14	-51.3	-85.0	265	14
2023-09-21T12:00	29160	13	-51.4	-85.1	265	13
2023-09-21T12:00	29197	13	-51.4	-85.1	265	13
2023-09-21T12:00	29214	13	-51.6	-85.2	264	12
2023-09-21T12:00	29267	13	-51.8	-85.4	264	12
2023-09-21T12:00	29284	13	-51.9	-85.5	263	12
2023-09-21T12:00	29300	13	-51.8	-85.4	262	12
2023-09-21T12:00	29351	13	-51.8	-85.4	261	13
2023-09-21T12:00	29377	13	-51.7	-85.3	260	13
2023-09-21T12:00	29405	13	-51.8	-85.4	260	14
2023-09-21T12:00	29449	13	-51.8	-85.4	259	14
2023-09-21T12:00	29465	13	-51.7	-85.3	259	14
2023-09-21T12:00	29495	13	-51.6	-85.2	260	14
2023-09-21T12:00	29530	13	-51.7	-85.3	262	14
2023-09-21T12:00	29551	13	-51.6	-85.2	265	15
2023-09-21T12:00	29607	13	-51.5	-85.2	269	16
2023-09-21T12:00	29628	13	-51.4	-85.1	273	16
2023-09-21T12:00	29662	12	-51.3	-85.9	277	17
2023-09-21T12:00	29685	12	-51.0	-85.7	281	18
2023-09-21T12:00	29711	12	-50.8	-85.6	284	18
2023-09-21T12:00	29748	12	-50.6	-85.4	286	18
2023-09-21T12:00	29775	12	-50.2	-85.1	288	17
2023-09-21T12:00	29792	12	-50.1	-85.1	290	16
2023-09-21T12:00	29840	12	-50.1	-85.1	291	15
2023-09-21T12:00	29868	12	-50.3	-85.2	292	14
2023-09-21T12:00	29895	12	-50.4	-84.4	293	14
2023-09-21T12:00	29929	12	-50.5	-84.5	294	13
2023-09-21T12:00	29963	12	-50.8	-84.7	295	12
2023-09-21T12:00	29990	12	-51.0	-84.8	295	11
2023-09-21T12:00	30020	12	-51.0	-84.8	295	10
2023-09-21T12:00	30051	12	-51.0	-84.8	294	9
2023-09-21T12:00	30079	12	-50.9	-84.7	292	9
2023-09-21T12:00	30108	12	-50.6	-85.4	290	8
2023-09-21T12:00	30133	12	-50.3	-85.2	288	8
2023-09-21T12:00	30167	12	-50.1	-85.1	287	9
2023-09-21T12:00	30183	12	-50.0	-85.0	288	9
2023-09-21T12:00	30219	11	-49.9	-84.9	289	9
2023-09-21T12:00	30252	11	-49.8	-84.8	290	10
2023-09-21T12:00	30290	11	-49.7	-84.8	291	10
2023-09-21T12:00	30316	11	-49.6	-84.7	291	10
2023-09-21T12:00	30341	11	-49.5	-84.6	289	10
2023-09-21T12:00	30369	11	-49.4	-84.6	287	10
2023-09-21T12:00	30397	11	-49.6	-84.7	285	10
2023-09-21T12:00	30411	11	-49.6	-84.7	282	10
2023-09-21T12:00	30455	11	-49.6	-84.7	281	11
2023-09-21T12:00	30481	11	-49.7	-84.8	280	11
2023-09-21T12:00	30516	11	-49.6	-84.7	280	11
2023-09-21T12:00	30549	11	-49.4	-84.6	280	12
2023-09-21T12:00	30586	11	-49.3	-84.5	279	12
2023-09-21T12:00	30590	11	-49.2	-84.4	277	12
2023-09-21T12:00	30629	11	-49.2	-84.4	275	12
2023-09-21T12:00	30657	11	-49.2	-84.4	271	12
2023-09-21T12:00	30695	11	-49.1	-84.3	268	12
2023-09-21T12:00	30724	11	-48.9	-84.2	265	12
2023-09-21T12:00	30754	11	-48.6		263	12
2023-09-21T12:00	30775	11	-48.5	-83.9	262	12
2023-09-21T12:00	30820	10	-48.5	-83.9	260	12
2023-09-21T12:00	30843	10	-48.4	-83.8	259	13
2023-09-21T12:00	30885	10	-48.4	-83.8	258	13
2023-09-21T12:00	30907	10	-48.4	-83.8	257	14
2023-09-21T12:00	30930	10	-48.4	-83.8	258	15
2023-09-21T12:00	30968	10	-48.2	-83.7	260	16
2023-09-21T12:00	30997	10	-48.1	-83.6	263	16
2023-09-21T12:00	31017	10	-48.1	-83.6	265	17
2023-09-21T12:00	31055	10	-48.0	-84.6	268	18
2023-09-21T12:00	31081	10	-47.9	-84.6	270	18
2023-09-21T12:00	31105	10	-47.8	-84.5	272	18
2023-09-21T12:00	31123	10	-47.7	-84.4	274	18
2023-09-21T12:00	31164	10	-47.5	-84.3	276	18
2023-09-21T12:00	31186	10	-47.4	-84.2	278	18
2023-09-21T12:00	31211	10	-47.2	-84.1	279	18
2023-09-21T12:00	31262	10	-47.0	-83.9	280	18
2023-09-21T12:00	31282	10	-46.7	-83.7	279	19
2023-09-21T12:00	31314	10	-46.5	-83.6	278	19
2023-09-21T12:00	31338	10	-46.4	-83.5	277	19
2023-09-21T12:00	31368	10	-46.4	-83.5	276	19
2023-09-21T12:00	31396	10	-46.4	-83.5	275	18
2023-09-21T12:00	31421	10	-46.1	-83.3	274	18
2023-09-21T12:00	31460	10	-45.9	-83.2	273	17
2023-09-21T12:00	31493	9	-45.8	-83.1	272	17
2023-09-21T12:00	31510	9	-45.9	-83.2	272	16
2023-09-21T12:00	31532	9	-46.0	-83.2	272	16
2023-09-21T12:00	31571	9	-46.1	-83.3	273	16
2023-09-21T12:00	31594	9	-46.0	-83.2	274	16
2023-09-21T12:00	31614	9	-45.8	-83.1	275	16
2023-09-21T12:00	31646	9	-45.3	-82.7	276	16
2023-09-21T12:00	31682	9	-44.8	-82.4	278	16
2023-09-21T12:00	31705	9	-44.4	-82.1	279	16
2023-09-21T12:00	31736	9	-44.0	-81.8	280	16
2023-09-21T12:00	31790	9	-43.8	-81.7	281	15
2023-09-21T12:00	31834	9	-43.7	-81.6	282	14
2023-09-21T12:00	31885	9	-43.8	-81.7	282	14
2023-09-21T12:00	31903	9	-43.9	-81.8	281	13
2023-09-21T12:00	31923	9	-44.1	-81.9	280	13
2023-09-21T12:00	31946	9	-44.2	-82.0	279	12
2023-09-21T12:00	31973	9	-44.2	-82.0	278	12
2023-09-21T12:00	32032	9	-44.2	-82.0	278	12
2023-09-21T12:00	32045	9	-44.1	-81.9	278	12
2023-09-21T12:00	32087	9	-44.1	-81.9	278	12
2023-09-21T12:00	32106	9	-44.2	-82.0	278	13
2023-09-21T12:00	32141	9	-44.3	-82.0	278	13
2023-09-21T12:00	32177	9	-44.4	-82.1	279	13
2023-09-21T12:00	32201	9	-44.5	-82.2	280	12
2023-09-21T12:00	32241	8	-44.5	-82.2	282	12
2023-09-21T12:00	32280	8	-44.6	-82.2	285	11
2023-09-21T12:00	32314	8	-44.6	-82.2	289	10
2023-09-21T12:00	32346	8	-44.6	-82.2	292	10
2023-09-21T12:00	32379	8	-44.7	-82.3	295	9
2023-09-21T12:00	32405	8	-44.8	-82.4	296	8
2023-09-21T12:00	32426	8	-45.0	-82.5	296	8
2023-09-21T12:00	32462	8	-45.1	-82.6	293	7
2023-09-21T12:00	32503	8	-45.2	-82.7	289	6
2023-09-21T12:00	32543	8	-45.2	-82.7	283	6
2023-09-21T12:00	32548	8	-45.3	-82.7	276	6
2023-09-21T12:00	32606	8	-45.4	-82.8	270	5
2023-09-21T12:00	32637	8	-45.7	-83.0	256	6
2023-09-21T12:00	32675	8	-46.0	-83.2	250	6
2023-09-21T12:00	32696	8	-46.2	-83.4	245	7
2023-09-21T12:00	32724	8	-46.2	-83.4	242	7
2023-09-21T12:00	32758	8	-46.0	-83.2	240	8
2023-09-21T12:00	32798	8	-45.9	-83.2	238	8
2023-09-21T12:00	32831	8	-45.9	-83.2	238	9
2023-09-21T12:00	32847	8	-45.9	-83.2	238	9
2023-09-21T12:00	32888	8	-45.8	-83.1	240	10
2023-09-21T12:00	32895	8	-45.7	-83.0	242	10
2023-09-21T12:00	32947	8	-45.7	-83.0	245	11
2023-09-21T12:00	32968	8	-45.7	-83.0	247	11
2023-09-21T12:00	33003	8	-45.7	-83.0	248	12
2023-09-21T12:00	33021	8	-45.7	-83.0	249	13
2023-09-21T12:00	33040	7	-45.5	-82.9	249	14
2023-09-21T12:00	33094	7	-45.2	-82.7	250	15
2023-09-21T12:00	33115	7	-44.9	-82.5	252	16
2023-09-21T12:00	33135	7	-44.7	-82.3	254	16
2023-09-21T12:00	33160	7	-44.5	-82.2	256	17
2023-09-21T12:00	33193	7	-44.4	-82.1	258	18
2023-09-21T12:00	33218	7	-44.3	-82.0	260	18
2023-09-21T12:00	33275	7	-44.3	-82.0	260	19
2023-09-21T12:00	33314	7	-43.8	-81.7	259	19
2023-09-21T12:00	33336	7	-43.5	-81.5	257	19
2023-09-21T12:00	33357	7	-43.3	-81.3	255	19
2023-09-21T12:00	33401	7	-43.3	-81.3	254	18
2023-09-21T12:00	33453	7	-43.4	-81.4	253	18
2023-09-21T12:00	33485	7	-43.4	-81.4	250	17
2023-09-21T12:00	33509	7	-43.4	-81.4	249	17
2023-09-21T12:00	33538	7	-43.3	-81.3	247	17
2023-09-21T12:00	33562	7	-43.2	-81.3	246	16
2023-09-21T12:00	33589	7	-43.0	-81.1	246	16
2023-09-21T12:00	33630	7	-42.8	-81.0	246	16
2023-09-21T12:00	33633	7	-42.6	-80.8	247	16
2023-09-21T12:00	33677	7	-42.6	-80.8	248	17
2023-09-21T12:00	33709	7	-42.6	-80.8	249	17
2023-09-21T12:00	33724	7	-42.6	-80.8	251	17
2023-09-21T12:00	33740	7	-42.6	-80.8	254	18
2023-09-21T12:00	33815	7	-42.6	-80.8	256	19
2023-09-21T12:00	33877	7	-42.3	-80.6	259	20
2023-09-21T12:00	33899	7	-41.8	-80.3	260	21
2023-09-21T12:00	33930	7	-41.4	-80.0	261	21
2023-09-21T12:00	33954	7	-41.2	-79.9	262	21
2023-09-21T12:00	34001	7	-41.1	-79.8	263	22
2023-09-21T12:00	34048	6	-41.1	-79.8	264	22
2023-09-21T12:00	34055	6	-41.3	-79.9	267	23
2023-09-21T12:00	34083	6	-41.3	-79.9	269	23
2023-09-21T12:00	34129	6	-41.3	-79.9	271	23
2023-09-21T12:00	34196	6	-41.2	-79.9	273	23
2023-09-21T12:00	34222	6	-41.1	-79.8	275	23
2023-09-21T12:00	34250	6	-41.2	-79.9	277	23
2023-09-21T12:00	34271	6	-41.3	-79.9	279	23
2023-09-21T12:00	34325	6	-41.3	-79.9	281	23
2023-09-21T12:00	34333	6	-41.3	-79.9	282	23
2023-09-21T12:00	34363	6	-41.5	-80.1	283	23
2023-09-21T12:00	34387	6	-41.7	-80.2	283	23
2023-09-21T12:00	34424	6	-41.6	-80.1	282	23
2023-09-21T12:00	34455	6	-41.3	-79.9	281	23
2023-09-21T12:00	34481	6	-41.1	-79.8	279	22
2023-09-21T12:00	34504	6	-41.1	-79.8	278	21
2023-09-21T12:00	34543	6	-41.3	-79.9	277	21
2023-09-21T12:00	34571	6	-41.5	-80.1	275	20
2023-09-21T12:00	34612	6	-41.7	-80.2	274	20
2023-09-21T12:00	34628	6	-41.8	-80.3	273	19
2023-09-21T12:00	34690	6	-42.0	-80.4	272	18
2023-09-21T12:00	34713	6	-41.9	-80.4	272	18
2023-09-21T18:00	112	988	23.9	14.6	120	2
2023-09-21T18:00	132	986	24.7	14.8	126	4
2023-09-21T18:00	152	984	25.0	14.6	126	5
2023-09-21T18:00	174	981	24.9	14.6	126	6
2023-09-21T18:00	197	979	24.9	14.6	127	6
2023-09-21T18:00	224	976	24.7	14.5	129	6
2023-09-21T18:00	248	973	24.5	14.5	131	7
2023-09-21T18:00	276	970	24.4	14.5	134	7
2023-09-21T18:00	301	967	24.2	14.4	136	7
2023-09-21T18:00	324	965	24.0		139	7
2023-09-21T18:00	346	962	23.8	14.3	140	7
2023-09-21T18:00	363	960	23.6	14.2	141	7
2023-09-21T18:00	383	958	23.4	14.2	141	7
2023-09-21T18:00	407	956	23.3	14.3	140	8
2023-09-21T18:00	432	953	23.0	14.1	140	8
2023-09-21T18:00	454	951	22.8	14.1	141	8
2023-09-21T18:00	473	948	22.6	14.1	142	8
2023-09-21T18:00	495	946	22.4	14.0	144	8
2023-09-21T18:00	517	943	22.2	13.9	145	8
2023-09-21T18:00	548	940	21.9	13.8	145	8
2023-09-21T18:00	570	938	21.7	13.8	143	8
2023-09-21T18:00	591	936	21.5	13.7	140	8
2023-09-21T18:00	612	933	21.4	13.7	136	8
2023-09-21T18:00	629	931	21.2	13.6	134	8
2023-09-21T18:00	647	930	21.0	13.5	134	7
2023-09-21T18:00	666	928	20.9	13.5	137	7
2023-09-21T18:00	685	925	20.7	13.5	143	7
2023-09-21T18:00	713	923	20.4	13.3	148	8
2023-09-21T18:00	735	920	20.2	13.3	152	8
2023-09-21T18:00	755	918	20.0	13.3	153	8
2023-09-21T18:00	780	915	19.8	13.3	152	8
2023-09-21T18:00	809	912	19.5	13.2	150	8
2023-09-21T18:00	830	910	19.3	13.3	148	8
2023-09-21T18:00	852	908	19.1	13.3	148	8
2023-09-21T18:00	881	905	18.8	13.1	148	8
2023-09-21T18:00	905	902	18.6	13.1	148	9
2023-09-21T18:00	931	899	18.4	13.2	149	9
2023-09-21T18:00	955	897	18.1	12.9	150	9
2023-09-21T18:00	978	894	17.9	12.9	151	10
2023-09-21T18:00	1008	891	17.6	12.8	152	10
2023-09-21T18:00	1031	889	17.4	12.8	153	10
2023-09-21T18:00	1052	887	17.2	12.8	153	10
2023-09-21T18:00	1080	884	17.0	12.7	152	10
2023-09-21T18:00	1106	881	16.7	12.6	150	10
2023-09-21T18:00	1130	879	16.5	12.6	148	9
2023-09-21T18:00	1158	876	16.2	12.5	145	9
2023-09-21T18:00	1181	873	16.0	12.6	145	9
2023-09-21T18:00	1213	870	15.7	12.3	145	9
2023-09-21T18:00	1237	868	15.5	12.3	147	9
2023-09-21T18:00	1261	865	15.3	12.3	149	9
2023-09-21T18:00	1282	863	15.1	12.1	149	10
2023-09-21T18:00	1302	861	14.9	12.1	148	10
2023-09-21T18:00	1324	859	14.7	12.1	145	10
2023-09-21T18:00	1349	857	14.5	11.8	143	10
2023-09-21T18:00	1367	855	14.4	11.9	141	10
2023-09-21T18:00	1390	852	14.2	11.8	140	10
2023-09-21T18:00	1411	850	14.0	11.6	139	10
2023-09-21T18:00	1427	848	13.8	11.5	139	10
2023-09-21T18:00	1448	846	13.7	11.6	140	10
2023-09-21T18:00	1469	844	13.5	11.5	141	10
2023-09-21T18:00	1492	842	13.2	11.3	142	10
2023-09-21T18:00	1512	840	13.0	11.4	144	10
2023-09-21T18:00	1536	838	12.8	11.3	146	10
2023-09-21T18:00	1559	835	12.6	11.2	146	10
2023-09-21T18:00	1581	833	12.4	11.1	146	10
2023-09-21T18:00	1604	831	12.2	11.1	146	9
2023-09-21T18:00	1631	828	11.9	11.0	146	9
2023-09-21T18:00	1656	826	11.7	10.9	147	9
2023-09-21T18:00	1678	824	11.5	10.9	147	9
2023-09-21T18:00	1696	822	11.3	10.8	147	9
2023-09-21T18:00	1718	820	11.1	10.8	146	9
2023-09-21T18:00	1738	818	10.9	10.6	146	9
2023-09-21T18:00	1759	816	10.8		145	9
2023-09-21T18:00	1782	813	10.6	10.4	144	8
2023-09-21T18:00	1806	811	10.4	10.2	145	8
2023-09-21T18:00	1823	809	10.2	10.2	146	8
2023-09-21T18:00	1848	807	10.0	10.0	147	8
2023-09-21T18:00	1876	805	9.8	9.8	148	8
2023-09-21T18:00	1896	802	9.7	9.7	148	8
2023-09-21T18:00	1916	800	9.5	9.5	147	8
2023-09-21T18:00	1942	798	9.4	9.4	146	8
2023-09-21T18:00	1968	795	9.2	9.2	144	8
2023-09-21T18:00	2002	792	9.0	9.0	142	8
2023-09-21T18:00	2026	790	8.9	8.9	141	7
2023-09-21T18:00	2048	788	8.8	8.8	141	7
2023-09-21T18:00	2072	786	8.1	7.2	142	7
2023-09-21T18:00	2096	783	8.1	7.1	144	6
2023-09-21T18:00	2115	781	8.2	3.9	148	6
2023-09-21T18:00	2140	779	8.8	3.2	153	6
2023-09-21T18:00	2157	777	8.7	5.0	159	6
2023-09-21T18:00	2177	775	8.5	4.7	165	6
2023-09-21T18:00	2207	773	8.2	5.1	168	6
2023-09-21T18:00	2231	771	7.9	5.1	169	6
2023-09-21T18:00	2252	769	7.7	5.5	166	6
2023-09-21T18:00	2266	767	7.6	5.7	161	6
2023-09-21T18:00	2285	766	7.8	5.3	155	5
2023-09-21T18:00	2306	764	7.6	5.2	149	6
2023-09-21T18:00	2326	762	7.5	4.5	145	6
2023-09-21T18:00	2342	760	7.6	4.0	145	6
2023-09-21T18:00	2363	759	7.5	3.9	146	6
2023-09-21T18:00	2382	757	7.4	3.7	148	6
2023-09-21T18:00	2405	755	7.2	3.4	150	6
2023-09-21T18:00	2426	753	7.1	3.4	152	5
2023-09-21T18:00	2453	750	7.0	2.8	153	5
2023-09-21T18:00	2475	748	7.0	2.0	153	6
2023-09-21T18:00	2501	746	6.9	1.4	152	6
2023-09-21T18:00	2524	744	6.9	0.5	152	6
2023-09-21T18:00	2548	742	6.9	-0.2	153	7
2023-09-21T18:00	2571	739	6.8	-0.5	155	7
2023-09-21T18:00	2598	737	6.6	-0.6	159	7
2023-09-21T18:00	2624	735	6.4	-0.7	164	7
2023-09-21T18:00	2648	733	6.2	-0.9	170	6
2023-09-21T18:00	2672	730	6.1	-0.9	174	6
2023-09-21T18:00	2696	728	5.8	-1.0	177	6
2023-09-21T18:00	2718	726	5.7	-1.0	178	6
2023-09-21T18:00	2740	724	5.5	-1.1	176	6
2023-09-21T18:00	2769	722	5.2	-1.4	172	6
2023-09-21T18:00	2793	720	5.0	-1.5	167	6
2023-09-21T18:00	2812	718	4.8	-1.6	163	6
2023-09-21T18:00	2839	716	4.6	-1.5	161	7
2023-09-21T18:00	2871	713	4.3	-1.6	160	7
2023-09-21T18:00	2900	710	4.1	-1.9	161	7
2023-09-21T18:00	2928	708	4.0	-2.3	162	7
2023-09-21T18:00	2958	705	4.0	-4.2	164	7
2023-09-21T18:00	2979	703	3.9	-4.2	164	6
2023-09-21T18:00	3003	701	3.7	-4.5	164	7
2023-09-21T18:00	3027	699	3.5	-5.0	162	7
2023-09-21T18:00	3051	697	3.3	-5.4	160	7
2023-09-21T18:00	3080	695	3.3	-6.6	160	8
2023-09-21T18:00	3107	692	3.3	-8.7	161	8
2023-09-21T18:00	3135	690	3.3	-10.5	162	8
2023-09-21T18:00	3158	688	3.4	-11.6	163	8
2023-09-21T18:00	3180	686	3.3	-12.3	164	9
2023-09-21T18:00	3203	684	3.4	-12.7	163	8
2023-09-21T18:00	3225	682	3.2	-13.1	161	8
2023-09-21T18:00	3248	680	3.1	-13.3	159	8
2023-09-21T18:00	3276	678	3.0	-14.1	158	8
2023-09-21T18:00	3305	676	2.9	-14.8	158	8
2023-09-21T18:00	3329	674	2.8	-15.6	158	8
2023-09-21T18:00	3354	672	2.6	-16.0	159	8
2023-09-21T18:00	3378	670	2.4	-16.5	159	9
2023-09-21T18:00	3403	667	2.4	-17.9	159	9
2023-09-21T18:00	3437	665	2.5	-20.8	157	10
2023-09-21T18:00	3463	663	2.5	-20.9	156	10
2023-09-21T18:00	3486	661	2.6	-16.4	155	10
2023-09-21T18:00	3508	659	2.5	-15.7	153	10
2023-09-21T18:00	3526	657	2.4	-13.7	152	10
2023-09-21T18:00	3553	655	2.3	-12.7	152	10
2023-09-21T18:00	3579	653	2.1	-12.5	152	10
2023-09-21T18:00	3606	651	1.9	-11.3	152	9
2023-09-21T18:00	3629	649	1.8	-10.7	154	9
2023-09-21T18:00	3650	647	1.6	-10.5	156	9
2023-09-21T18:00	3672	646	1.4	-10.3	160	8
2023-09-21T18:00	3690	644	1.3	-10.3	166	8
2023-09-21T18:00	3712	642	1.0	-10.4	172	8
2023-09-21T18:00	3735	641	1.0	-10.3	178	8
2023-09-21T18:00	3758	639	0.8	-10.4	182	9
2023-09-21T18:00	3780	637	0.6	-10.5	184	9
2023-09-21T18:00	3799	636	0.6	-10.8	184	9
2023-09-21T18:00	3821	634	0.4	-10.9	183	9
2023-09-21T18:00	3839	632	0.5	-11.6	183	10
2023-09-21T18:00	3865	630	0.4	-11.7	182	10
2023-09-21T18:00	3891	628	0.3	-12.2	182	10
2023-09-21T18:00	3908	627	0.2	-12.1	181	10
2023-09-21T18:00	3924	626	0.1	-11.8	180	10
2023-09-21T18:00	3940	625	0.0	-11.1	180	10
2023-09-21T18:00	3957	623	-0.1	-11.9	179	11
2023-09-21T18:00	3976	622	-0.2	-13.1	178	11
2023-09-21T18:00	3996	620	-0.3	-13.4	178	10
2023-09-21T18:00	4013	619	-0.4	-13.3	178	10
2023-09-21T18:00	4029	618	-0.6	-13.4	177	11
2023-09-21T18:00	4047	616	-0.7	-13.1	178	11
2023-09-21T18:00	4066	615	-0.8	-12.8	178	11
2023-09-21T18:00	4090	613	-1.0	-12.3	179	11
2023-09-21T18:00	4118	611	-1.3	-12.4	179	11
2023-09-21T18:00	4137	609	-1.5	-12.0	179	11
2023-09-21T18:00	4154	608	-1.6	-11.5	180	11
2023-09-21T18:00	4180	606	-1.8	-11.1	180	11
2023-09-21T18:00	4205	604	-2.0	-12.0	182	11
2023-09-21T18:00	4225	603	-2.1	-12.3	184	11
2023-09-21T18:00	4252	601	-2.3	-12.5	186	11
2023-09-21T18:00	4274	599	-2.4	-12.5	187	11
2023-09-21T18:00	4302	597	-2.6	-12.7	188	11
2023-09-21T18:00	4318	596	-2.8	-12.8	189	11
2023-09-21T18:00	4337	594	-2.9	-12.9	189	11
2023-09-21T18:00	4364	592	-3.1	-12.8	189	11
2023-09-21T18:00	4388	590	-3.4	-13.0	189	11
2023-09-21T18:00	4407	589	-3.4	-13.0	190	11
2023-09-21T18:00	4426	587	-3.6	-13.1	190	12
2023-09-21T18:00	4445	586	-3.7	-13.2	190	12
2023-09-21T18:00	4467	584	-3.9	-13.3	191	12
2023-09-21T18:00	4493	583	-4.1	-13.8	191	13
2023-09-21T18:00	4520	581	-4.3	-14.1	191	13
2023-09-21T18:00	4549	579	-4.4	-14.1	190	13
2023-09-21T18:00	4574	577	-4.6	-14.5	190	13
2023-09-21T18:00	4598	575	-4.8	-14.6	189	12
2023-09-21T18:00	4625	573	-5.0	-14.6	189	12
2023-09-21T18:00	4655	571	-5.3	-14.7	189	12
2023-09-21T18:00	4681	569	-5.5	-14.8	189	12
2023-09-21T18:00	4699	567	-5.7	-15.0	189	12
2023-09-21T18:00	4722	566	-5.8	-15.0	189	12
2023-09-21T18:00	4746	564	-6.0	-15.0	188	12
2023-09-21T18:00	4776	562	-6.3	-15.1	187	12
2023-09-21T18:00	4801	560	-6.4	-15.6	187	12
2023-09-21T18:00	4826	558	-6.6	-15.3	187	12
2023-09-21T18:00	4847	557	-6.8	-15.2	188	12
2023-09-21T18:00	4870	555	-7.0	-15.5	189	12
2023-09-21T18:00	4893	553	-7.1	-16.1	191	12
2023-09-21T18:00	4919	552	-7.2	-18.3	192	12
2023-09-21T18:00	4947	550	-7.4		192	11
2023-09-21T18:00	4974	548	-7.6	-19.2	192	11
2023-09-21T18:00	4996	546	-7.7	-20.6	192	11
2023-09-21T18:00	5018	545	-7.9	-20.8	191	11
2023-09-21T18:00	5040	543	-8.0	-18.4	190	11
2023-09-21T18:00	5063	542	-8.0	-18.9	189	11
2023-09-21T18:00	5084	540	-8.1	-18.9	188	11
2023-09-21T18:00	5109	538	-8.2	-19.9	188	11
2023-09-21T18:00	5137	536	-8.4	-20.8	188	11
2023-09-21T18:00	5163	535	-8.4	-21.6	188	11
2023-09-21T18:00	5186	533	-8.4	-20.3	189	11
2023-09-21T18:00	5215	531	-8.5	-17.2	189	11
2023-09-21T18:00	5242	529	-8.7	-15.4	188	11
2023-09-21T18:00	5264	528	-9.0	-15.3	187	11
2023-09-21T18:00	5293	526	-9.2	-15.2	185	10
2023-09-21T18:00	5325	524	-9.5	-15.5	183	10
2023-09-21T18:00	5355	522	-9.7	-14.7	181	10
2023-09-21T18:00	5384	520	-9.9	-13.6	181	10
2023-09-21T18:00	5410	518	-10.1	-13.6	183	10
2023-09-21T18:00	5436	516	-10.3	-13.5	184	11
2023-09-21T18:00	5455	515	-10.4	-14.0	186	11
2023-09-21T18:00	5476	513	-10.6	-14.1	186	11
2023-09-21T18:00	5493	512	-10.7	-14.0	184	11
2023-09-21T18:00	5512	511	-10.9	-14.0	183	11
2023-09-21T18:00	5531	510	-11.1	-14.1	181	11
2023-09-21T18:00	5549	509	-11.2	-14.1	180	11
2023-09-21T18:00	5569	507	-11.3	-14.7	180	11
2023-09-21T18:00	5587	506	-11.4	-15.2	180	11
2023-09-21T18:00	5606	505	-11.5	-15.6	180	11
2023-09-21T18:00	5627	504	-11.7	-15.4	180	11
2023-09-21T18:00	5645	502	-11.8	-15.3	181	11
2023-09-21T18:00	5664	501	-12.0	-15.4	181	11
2023-09-21T18:00	5682	500	-12.1	-15.3	182	11
2023-09-21T18:00	5701	499	-12.3	-15.2	182	11
2023-09-21T18:00	5717	498	-12.4	-15.4	183	11
2023-09-21T18:00	5733	496	-12.6	-15.6	184	11
2023-09-21T18:00	5756	495	-12.7	-15.6	185	11
2023-09-21T18:00	5775	494	-12.9	-16.0	188	11
2023-09-21T18:00	5799	492	-12.9	-16.4	190	11
2023-09-21T18:00	5826	491	-13.0	-16.5	193	11
2023-09-21T18:00	5852	489	-13.1	-16.7	196	11
2023-09-21T18:00	5872	488	-13.3	-16.8	197	12
2023-09-21T18:00	5897	486	-13.5	-16.9	198	12
2023-09-21T18:00	5920	484	-13.7	-16.9	198	12
2023-09-21T18:00	5947	483	-14.0	-17.0	198	13
2023-09-21T18:00	5963	482	-14.1	-16.9	199	13
2023-09-21T18:00	5983	480	-14.3	-17.0	199	13
2023-09-21T18:00	6003	479	-14.5	-17.0	200	13
2023-09-21T18:00	6022	478	-14.6	-17.0	200	13
2023-09-21T18:00	6041	477	-14.7	-17.3	200	13
2023-09-21T18:00	6060	476	-14.8	-17.3	200	13
2023-09-21T18:00	6079	474	-15.0	-17.3	199	13
2023-09-21T18:00	6097	473	-15.1	-17.4	199	14
2023-09-21T18:00	6117	472	-15.2	-17.5	199	14
2023-09-21T18:00	6138	471	-15.4	-17.6	200	14
2023-09-21T18:00	6158	470	-15.6	-18.0	201	14
2023-09-21T18:00	6178	468	-15.7	-18.1	202	14
2023-09-21T18:00	6198	467	-15.9	-18.6	203	14
2023-09-21T18:00	6215	466	-16.1	-18.7	203	14
2023-09-21T18:00	6233	465	-16.2	-18.6	203	14
2023-09-21T18:00	6250	464	-16.4	-18.4	203	14
2023-09-21T18:00	6270	463	-16.5	-18.3	202	15
2023-09-21T18:00	6289	461	-16.6	-18.6	201	15
2023-09-21T18:00	6306	460	-16.7	-18.8	201	15
2023-09-21T18:00	6325	459	-16.8	-18.9	200	15
2023-09-21T18:00	6343	458	-16.8	-19.0	200	15
2023-09-21T18:00	6363	457	-17.0	-19.2	200	15
2023-09-21T18:00	6383	456	-17.1	-19.4	200	15
2023-09-21T18:00	6400	455	-17.3	-19.6	201	15
2023-09-21T18:00	6419	453	-17.4	-19.7	201	15
2023-09-21T18:00	6436	452	-17.6		201	15
2023-09-21T18:00	6456	451	-17.7	-20.0	202	15
2023-09-21T18:00	6476	450	-17.9	-20.2	202	15
2023-09-21T18:00	6493	449	-18.0	-20.2	202	15
2023-09-21T18:00	6513	448	-18.2	-20.4	202	16
2023-09-21T18:00	6530	447	-18.3	-20.4	202	16
2023-09-21T18:00	6549	446	-18.4	-20.7	202	16
2023-09-21T18:00	6568	445	-18.5	-20.8	203	16
2023-09-21T18:00	6587	443	-18.7	-21.0	203	16
2023-09-21T18:00	6605	442	-18.8	-21.2	203	16
2023-09-21T18:00	6622	441	-18.9	-21.1	204	16
2023-09-21T18:00	6640	440	-19.1	-21.2	204	17
2023-09-21T18:00	6660	439	-19.3	-21.1	203	17
2023-09-21T18:00	6678	438	-19.4	-21.1	203	17
2023-09-21T18:00	6696	437	-19.6	-21.3	202	16
2023-09-21T18:00	6715	436	-19.8	-21.4	202	16
2023-09-21T18:00	6733	435	-19.9		201	16
2023-09-21T18:00	6751	434	-20.1	-21.5	200	16
2023-09-21T18:00	6770	433	-20.3	-21.7	200	16
2023-09-21T18:00	6788	432	-20.4	-21.6	200	16
2023-09-21T18:00	6805	431	-20.6		200	16
2023-09-21T18:00	6824	430	-20.7	-21.8	200	16
2023-09-21T18:00	6843	428	-20.9	-21.9	199	17
2023-09-21T18:00	6862	427	-21.1	-22.0	199	17
2023-09-21T18:00	6880	426	-21.2	-22.0	199	17
2023-09-21T18:00	6898	425	-21.3	-22.4	198	17
2023-09-21T18:00	6918	424	-21.4	-22.7	198	17
2023-09-21T18:00	6936	423	-21.5	-23.2	197	16
2023-09-21T18:00	6955	422	-21.6	-23.4	196	16
2023-09-21T18:00	6977	421	-21.7	-23.4	195	16
2023-09-21T18:00	6994	420	-21.9	-23.9	195	16
2023-09-21T18:00	7015	419	-21.9	-24.3	195	16
2023-09-21T18:00	7035	417	-22.0	-24.4	195	17
2023-09-21T18:00	7057	416	-22.2	-24.6	195	17
2023-09-21T18:00	7078	415	-22.3	-24.6	195	17
2023-09-21T18:00	7099	414	-22.4	-25.1	196	17
2023-09-21T18:00	7124	412	-22.5	-25.3	196	17
2023-09-21T18:00	7148	411	-22.7	-25.7	197	18
2023-09-21T18:00	7177	409	-22.8	-26.1	198	18
2023-09-21T18:00	7201	408	-23.0	-26.3	198	18
2023-09-21T18:00	7227	407	-23.2	-26.4	198	18
2023-09-21T18:00	7256	405	-23.4	-26.6	199	19
2023-09-21T18:00	7285	403	-23.6	-27.0	199	19
2023-09-21T18:00	7312	402	-23.7	-27.3	199	19
2023-09-21T18:00	7337	401	-23.9	-27.5	199	19
2023-09-21T18:00	7361	399	-24.0	-27.8	200	19
2023-09-21T18:00	7386	398	-24.2	-28.1	200	19
2023-09-21T18:00	7411	396	-24.4	-28.3	200	19
2023-09-21T18:00	7438	395	-24.6	-28.5	201	19
2023-09-21T18:00	7467	393	-24.8	-28.9	201	19
2023-09-21T18:00	7494	392	-24.9	-29.3	202	19
2023-09-21T18:00	7519	391	-25.0	-29.7	203	19
2023-09-21T18:00	7540	389	-25.2	-29.9	203	18
2023-09-21T18:00	7572	388	-25.5	-30.2	204	18
2023-09-21T18:00	7598	386	-25.7	-30.4	204	17
2023-09-21T18:00	7620	385	-25.9	-30.7	204	17
2023-09-21T18:00	7646	384	-26.1	-30.9	205	16
2023-09-21T18:00	7672	383	-26.3	-31.0	206	16
2023-09-21T18:00	7698	381	-26.6	-31.2	207	16
2023-09-21T18:00	7718	380	-26.8	-31.4	208	16
2023-09-21T18:00	7746	379	-27.0	-31.4	209	16
2023-09-21T18:00	7779	377	-27.2	-31.5	210	16
2023-09-21T18:00	7805	375	-27.3	-32.1	209	17
2023-09-21T18:00	7833	374	-27.5	-32.4	208	17
2023-09-21T18:00	7859	373	-27.6	-33.2	207	16
2023-09-21T18:00	7884	371	-27.8	-33.4	206	16
2023-09-21T18:00	7911	370	-28.0	-33.6	206	16
2023-09-21T18:00	7933	369	-28.2	-33.9	206	16
2023-09-21T18:00	7960	368	-28.4	-33.8	206	16
2023-09-21T18:00	7986	366	-28.7	-34.1	206	16
2023-09-21T18:00	8011	365	-28.9	-34.2	206	16
2023-09-21T18:00	8032	364	-29.0	-34.9	206	17
2023-09-21T18:00	8054	363	-29.1	-35.4	207	17
2023-09-21T18:00	8075	362	-29.3	-35.1	207	17
2023-09-21T18:00	8100	360	-29.5	-35.0	208	17
2023-09-21T18:00	8124	359	-29.7	-35.2	209	17
2023-09-21T18:00	8151	358	-29.8	-37.0	210	18
2023-09-21T18:00	8176	357	-30.0	-37.5	211	18
2023-09-21T18:00	8194	356	-30.1	-37.4	212	18
2023-09-21T18:00	8216	355	-30.3	-37.5	212	18
2023-09-21T18:00	8236	354	-30.5	-37.6	211	18
2023-09-21T18:00	8255	353	-30.7	-37.6	211	18
2023-09-21T18:00	8275	352	-30.9	-37.6	210	18
2023-09-21T18:00	8295	351	-31.0	-37.5	210	18
2023-09-21T18:00	8314	350	-31.2	-37.6	209	18
2023-09-21T18:00	8333	349	-31.4	-37.9	209	18
2023-09-21T18:00	8353	348	-31.5	-38.2	208	17
2023-09-21T18:00	8372	347	-31.6	-38.4	208	17
2023-09-21T18:00	8392	346	-31.7	-39.4	207	17
2023-09-21T18:00	8409	345	-31.7	-40.4	207	16
2023-09-21T18:00	8431	344	-31.8	-41.1	207	16
2023-09-21T18:00	8450	343	-32.0	-41.5	206	16
2023-09-21T18:00	8468	342	-32.2	-41.6	206	16
2023-09-21T18:00	8488	341	-32.3	-41.6	206	16
2023-09-21T18:00	8508	340	-32.5	-41.8	206	16
2023-09-21T18:00	8527	339	-32.7	-41.9	206	16
2023-09-21T18:00	8546	338	-32.9	-42.1	207	15
2023-09-21T18:00	8564	338	-33.0	-42.2	207	15
2023-09-21T18:00	8583	336	-33.2	-42.4	208	14
2023-09-21T18:00	8614	335	-33.4	-43.1	209	14
2023-09-21T18:00	8633	334	-33.5	-45.5	210	13
2023-09-21T18:00	8655	333	-33.1	-50.4	210	13
2023-09-21T18:00	8674	332	-33.0	-52.3	210	12
2023-09-21T18:00	8693	331	-33.1	-52.7	210	12
2023-09-21T18:00	8712	331	-33.2	-52.7	209	12
2023-09-21T18:00	8728	330	-33.3	-52.8	208	12
2023-09-21T18:00	8745	329	-33.4	-52.5	208	12
2023-09-21T18:00	8767	328	-33.5	-51.9	207	12
2023-09-21T18:00	8784	327	-33.6	-51.7	206	12
2023-09-21T18:00	8802	326	-33.8	-51.7	206	12
2023-09-21T18:00	8821	325	-33.9	-51.1	205	12
2023-09-21T18:00	8840	325	-34.1	-50.7	205	12
2023-09-21T18:00	8856	324	-34.2	-51.2	205	12
2023-09-21T18:00	8876	323	-34.3	-50.9	205	12
2023-09-21T18:00	8896	322	-34.5	-50.9	205	12
2023-09-21T18:00	8914	321	-34.6	-51.2	204	12
2023-09-21T18:00	8934	320	-34.8	-51.5	204	12
2023-09-21T18:00	8953	319	-35.0	-52.1	204	12
2023-09-21T18:00	8973	318	-35.2	-52.4	203	12
2023-09-21T18:00	8992	317	-35.4	-52.6	203	12
2023-09-21T18:00	9012	317	-35.5	-52.7	203	12
2023-09-21T18:00	9032	316	-35.7	-53.0	203	12
2023-09-21T18:00	9051	315	-35.9	-53.0	203	12
2023-09-21T18:00	9071	314	-36.1	-52.6	203	12
2023-09-21T18:00	9090	313	-36.3	-52.3	204	12
2023-09-21T18:00	9111	312	-36.4	-53.0	204	12
2023-09-21T18:00	9131	311	-36.6	-53.2	205	12
2023-09-21T18:00	9153	310	-36.8	-53.1	206	12
2023-09-21T18:00	9173	309	-37.0	-52.6	206	11
2023-09-21T18:00	9194	308	-37.2	-48.6	207	11
2023-09-21T18:00	9214	307	-37.3	-47.2	207	11
2023-09-21T18:00	9234	307	-37.5	-46.3	207	11
2023-09-21T18:00	9255	306	-37.7	-45.7	207	11
2023-09-21T18:00	9274	305	-37.8	-45.4	207	11
2023-09-21T18:00	9294	304	-38.0	-45.6	207	11
2023-09-21T18:00	9315	303	-38.2	-45.7	207	11
2023-09-21T18:00	9332	302	-38.4	-45.8	207	11
2023-09-21T18:00	9352	301	-38.6	-45.9	207	11
2023-09-21T18:00	9372	301	-38.8	-45.9	207	11
2023-09-21T18:00	9394	300	-39.0	-45.9	207	10
2023-09-21T18:00	9413	299	-39.2	-45.9	207	10
2023-09-21T18:00	9434	298	-39.4	-46.0	207	10
2023-09-21T18:00	9454	297	-39.5	-46.1	207	10
2023-09-21T18:00	9474	296	-39.8	-46.2	207	10
2023-09-21T18:00	9495	295	-39.9	-46.2	208	10
2023-09-21T18:00	9515	294	-40.1	-46.3	208	10
2023-09-21T18:00	9535	293	-40.3	-46.4	208	10
2023-09-21T18:00	9556	293	-40.5	-46.4	209	10
2023-09-21T18:00	9575	292	-40.7	-46.5	209	10
2023-09-21T18:00	9594	291	-40.9	-46.7	210	10
2023-09-21T18:00	9615	290	-41.1	-46.6	211	11
2023-09-21T18:00	9634	289	-41.2	-46.6	211	11
2023-09-21T18:00	9653	288	-41.4	-46.7	213	11
2023-09-21T18:00	9672	288	-41.6	-46.8	214	11
2023-09-21T18:00	9694	287	-41.8	-47.0	215	11
2023-09-21T18:00	9714	286	-42.0	-47.6	216	12
2023-09-21T18:00	9734	285	-42.1	-48.2	217	12
2023-09-21T18:00	9755	284	-42.2	-48.1	218	12
2023-09-21T18:00	9774	283	-42.4	-48.2	219	12
2023-09-21T18:00	9794	282	-42.5	-48.5	219	12
2023-09-21T18:00	9815	282	-42.7	-48.8	220	13
2023-09-21T18:00	9836	281	-42.8	-49.2	220	13
2023-09-21T18:00	9858	280	-43.0	-49.6	220	13
2023-09-21T18:00	9877	279	-43.2	-49.7	220	13
2023-09-21T18:00	9897	278	-43.3	-49.7	220	13
2023-09-21T18:00	9915	277	-43.5	-49.7	220	13
2023-09-21T18:00	9934	277	-43.7	-49.8	221	13
2023-09-21T18:00	9954	276	-43.9	-49.8	221	13
2023-09-21T18:00	9974	275	-44.1	-49.9	221	13
2023-09-21T18:00	9994	274	-44.3	-49.9	221	13
2023-09-21T18:00	10012	273	-44.5	-49.9	221	13
2023-09-21T18:00	10031	273	-44.7	-50.1	221	13
2023-09-21T18:00	10053	272	-44.8	-50.2	220	13
2023-09-21T18:00	10074	271	-45.0	-50.2	220	13
2023-09-21T18:00	10091	270	-45.2	-50.3	219	12
2023-09-21T18:00	10112	269	-45.4	-50.5	219	12
2023-09-21T18:00	10132	269	-45.6	-50.8	218	12
2023-09-21T18:00	10151	268	-45.7	-50.8	217	12
2023-09-21T18:00	10171	267	-45.9	-51.0	217	12
2023-09-21T18:00	10188	266	-46.0	-51.3	216	13
2023-09-21T18:00	10208	266	-46.2	-51.5	216	13
2023-09-21T18:00	10227	265	-46.4	-51.7	216	13
2023-09-21T18:00	10249	264	-46.5	-51.9	217	13
2023-09-21T18:00	10270	263	-46.7	-52.3	217	13
2023-09-21T18:00	10290	262	-46.8	-52.7	218	13
2023-09-21T18:00	10310	261	-47.0	-53.0	219	13
2023-09-21T18:00	10329	261	-47.1	-53.2	219	13
2023-09-21T18:00	10348	260	-47.3	-53.4	219	13
2023-09-21T18:00	10366	259	-47.5	-53.5	219	13
2023-09-21T18:00	10387	258	-47.6	-53.4	220	13
2023-09-21T18:00	10405	258	-47.8	-53.5	220	13
2023-09-21T18:00	10423	257	-48.0	-53.6	220	13
2023-09-21T18:00	10441	256	-48.2	-53.7	220	13
2023-09-21T18:00	10459	256	-48.3	-53.8	221	13
2023-09-21T18:00	10478	255	-48.5	-54.1	221	12
2023-09-21T18:00	10496	254	-48.7	-54.4	222	12
2023-09-21T18:00	10514	254	-48.8	-54.6	223	12
2023-09-21T18:00	10532	253	-49.0	-55.0	224	12
2023-09-21T18:00	10552	252	-49.1	-55.9	225	12
2023-09-21T18:00	10572	251	-49.2	-57.1	227	12
2023-09-21T18:00	10591	251	-49.3	-57.5	228	12
2023-09-21T18:00	10611	250	-49.5	-57.6	229	13
2023-09-21T18:00	10629	249	-49.6	-57.7	231	13
2023-09-21T18:00	10647	248	-49.8	-58.0	232	13
2023-09-21T18:00	10666	248	-49.9	-58.3	232	13
2023-09-21T18:00	10684	247	-50.0	-58.4	232	13
2023-09-21T18:00	10703	246	-50.2	-58.6	232	13
2023-09-21T18:00	10721	246	-50.3	-58.7	232	13
2023-09-21T18:00	10739	245	-50.5	-58.8	231	13
2023-09-21T18:00	10759	244	-50.7	-59.0	231	13
2023-09-21T18:00	10779	243	-50.9	-59.0	230	13
2023-09-21T18:00	10797	243	-51.1	-59.1	230	13
2023-09-21T18:00	10818	242	-51.2	-59.1	230	13
2023-09-21T18:00	10834	241	-51.3	-59.1	230	13
2023-09-21T18:00	10852	241	-51.5	-59.1	230	13
2023-09-21T18:00	10873	240	-51.7	-59.1	230	13
2023-09-21T18:00	10891	239	-51.9	-59.1	230	13
2023-09-21T18:00	10912	239	-52.0	-59.0	231	13
2023-09-21T18:00	10932	238	-52.2	-59.0	231	13
2023-09-21T18:00	10950	237	-52.4	-59.0	230	13
2023-09-21T18:00	10968	236	-52.6	-59.1	230	13
2023-09-21T18:00	10987	236	-52.7	-59.2	229	13
2023-09-21T18:00	11005	235	-52.9	-59.3	229	13
2023-09-21T18:00	11024	234	-53.0	-59.5	229	13
2023-09-21T18:00	11043	234	-53.2	-59.7	228	14
2023-09-21T18:00	11062	233	-53.4	-59.7	228	14
2023-09-21T18:00	11082	232	-53.5	-59.6	228	14
2023-09-21T18:00	11101	232	-53.7	-59.6	228	14
2023-09-21T18:00	11120	231	-53.8	-59.5	228	15
2023-09-21T18:00	11139	230	-54.0	-59.5	227	15
2023-09-21T18:00	11158	230	-54.1	-59.5	226	15
2023-09-21T18:00	11178	229	-54.2	-59.5	225	15
2023-09-21T18:00	11196	228	-54.3	-59.7	224	15
2023-09-21T18:00	11216	227	-54.4	-59.9	223	15
2023-09-21T18:00	11238	227	-54.6	-60.3	221	15
2023-09-21T18:00	11259	226	-54.7	-60.4	219	15
2023-09-21T18:00	11281	225	-54.9	-60.3	217	15
2023-09-21T18:00	11301	224	-55.0	-60.2	215	15
2023-09-21T18:00	11327	224	-55.1	-60.0	213	15
2023-09-21T18:00	11344	223	-55.3	-59.9	212	15
2023-09-21T18:00	11365	222	-55.4	-59.6	211	15
2023-09-21T18:00	11385	222	-55.5	-59.4	211	15
2023-09-21T18:00	11404	221	-55.5	-59.4	211	15
2023-09-21T18:00	11422	220	-55.6	-59.6	211	16
2023-09-21T18:00	11441	220	-55.8	-59.9	212	16
2023-09-21T18:00	11459	219	-55.9	-60.1	213	16
2023-09-21T18:00	11476	218	-56.0	-60.2	214	16
2023-09-21T18:00	11494	218	-56.2	-60.5	214	16
2023-09-21T18:00	11514	217	-56.3	-60.6	215	16
2023-09-21T18:00	11533	216	-56.4	-60.6	216	16
2023-09-21T18:00	11549	216	-56.5	-60.6	217	16
2023-09-21T18:00	11568	215	-56.7	-60.8	217	16
2023-09-21T18:00	11586	215	-56.8	-61.0	218	16
2023-09-21T18:00	11605	214	-56.9	-61.3	219	16
2023-09-21T18:00	11625	213	-57.0	-61.4	219	16
2023-09-21T18:00	11644	213	-57.1	-61.5	220	17
2023-09-21T18:00	11662	212	-57.3	-61.6	220	17
2023-09-21T18:00	11680	212	-57.4	-61.4	221	17
2023-09-21T18:00	11697	211	-57.6	-61.3	221	17
2023-09-21T18:00	11715	210	-57.6	-61.1	221	17
2023-09-21T18:00	11736	210	-57.8	-61.4	222	17
2023-09-21T18:00	11756	209	-57.7	-61.8	222	16
2023-09-21T18:00	11775	208	-57.6	-63.1	222	16
2023-09-21T18:00	11792	208	-57.1	-65.0	222	15
2023-09-21T18:00	11810	207	-56.4	-67.1	222	15
2023-09-21T18:00	11831	207	-56.5	-69.0	220	15
2023-09-21T18:00	11848	206	-55.9	-69.3	219	15
2023-09-21T18:00	11869	205	-55.3	-69.5	218	15
2023-09-21T18:00	11890	205	-55.1	-69.8	217	15
2023-09-21T18:00	11909	204	-55.0	-70.0	217	15
2023-09-21T18:00	11927	203	-54.9	-69.8	217	14
2023-09-21T18:00	11948	203	-55.0	-69.8	217	14
2023-09-21T18:00	11970	202	-55.1	-70.0	217	14
2023-09-21T18:00	11990	201	-55.2	-70.1	216	14
2023-09-21T18:00	12010	201	-55.4	-70.2	216	14
2023-09-21T18:00	12030	200	-55.5	-70.2	215	14
2023-09-21T18:00	12052	200	-55.6	-70.2	214	13
2023-09-21T18:00	12070	199	-55.7	-70.3	213	13
2023-09-21T18:00	12089	198	-55.6	-70.4	211	13
2023-09-21T18:00	12111	198	-55.6	-70.5	210	13
2023-09-21T18:00	12130	197	-55.8	-70.8	209	13
2023-09-21T18:00	12151	196	-55.8	-70.8	208	14
2023-09-21T18:00	12172	196	-56.0	-70.7	207	14
2023-09-21T18:00	12191	195	-56.0	-69.9	207	14
2023-09-21T18:00	12213	195	-56.0	-68.8	207	14
2023-09-21T18:00	12232	194	-56.2	-68.2	207	14
2023-09-21T18:00	12253	193	-56.2	-68.2	207	14
2023-09-21T18:00	12273	193	-56.0	-68.8	208	15
2023-09-21T18:00	12291	192	-55.8	-69.8	209	15
2023-09-21T18:00	12312	192	-55.5	-70.8	209	15
2023-09-21T18:00	12330	191	-55.6	-71.9	209	15
2023-09-21T18:00	12350	190	-55.6	-72.8	208	15
2023-09-21T18:00	12372	190	-55.6	-73.9	206	15
2023-09-21T18:00	12389	189	-55.1	-74.4	205	15
2023-09-21T18:00	12410	189	-55.0	-74.8	203	15
2023-09-21T18:00	12430	188	-54.7	-74.8	202	15
2023-09-21T18:00	12451	187	-54.8	-74.9	201	15
2023-09-21T18:00	12469	187	-55.0	-74.9	200	15
2023-09-21T18:00	12487	186	-55.1	-74.9	199	15
2023-09-21T18:00	12506	186	-55.2	-74.9	198	15
2023-09-21T18:00	12525	185	-55.2	-75.0	197	15
2023-09-21T18:00	12544	185	-55.1	-75.1	196	15
2023-09-21T18:00	12562	184	-54.9	-75.3	194	15
2023-09-21T18:00	12581	184	-54.9	-75.4	193	15
2023-09-21T18:00	12602	183	-55.1	-75.7	192	15
2023-09-21T18:00	12620	182	-55.2	-75.7	192	15
2023-09-21T18:00	12640	182	-55.2	-75.7	192	15
2023-09-21T18:00	12661	181	-55.3	-75.6	192	15
2023-09-21T18:00	12680	181	-55.5	-75.8	193	15
2023-09-21T18:00	12700	180	-55.7	-75.8	195	15
2023-09-21T18:00	12720	180	-55.8	-75.9	196	16
2023-09-21T18:00	12738	179	-55.9	-76.1	198	16
2023-09-21T18:00	12758	179	-55.7	-76.4	200	16
2023-09-21T18:00	12779	178	-55.0	-76.5	202	16
2023-09-21T18:00	12800	177	-54.4	-76.6	204	16
2023-09-21T18:00	12819	177	-54.3	-77.0	206	16
2023-09-21T18:00	12839	176	-54.1	-77.2	207	17
2023-09-21T18:00	12860	176	-54.0	-77.2	208	17
2023-09-21T18:00	12879	175	-54.0	-77.2	208	17
2023-09-21T18:00	12898	175	-54.0	-77.4	207	17
2023-09-21T18:00	12918	174	-54.1	-77.5	206	17
2023-09-21T18:00	12939	174	-54.3	-77.7	204	17
2023-09-21T18:00	12959	173	-54.0	-77.6	203	17
2023-09-21T18:00	12979	172	-54.0	-77.8	201	17
2023-09-21T18:00	13000	172	-54.0	-78.0	199	17
2023-09-21T18:00	13021	171	-54.0	-78.0	198	17
2023-09-21T18:00	13040	171	-54.1	-78.1	197	18
2023-09-21T18:00	13060	170	-54.2	-78.1	196	18
2023-09-21T18:00	13081	170	-54.3	-78.4	196	18
2023-09-21T18:00	13100	169	-54.4	-78.5	196	18
2023-09-21T18:00	13122	169	-54.6	-78.6	196	18
2023-09-21T18:00	13143	168	-54.8	-78.6	195	18
2023-09-21T18:00	13166	168	-54.7	-78.7	195	18
2023-09-21T18:00	13185	167	-54.7	-78.7	195	17
2023-09-21T18:00	13204	167	-54.9	-78.9	195	17
2023-09-21T18:00	13227	166	-55.1	-79.0	196	17
2023-09-21T18:00	13249	165	-55.2	-79.1	197	17
2023-09-21T18:00	13270	165	-55.4	-79.3	198	16
2023-09-21T18:00	13290	164	-55.5	-79.2	199	16
2023-09-21T18:00	13311	164	-55.6	-79.1	200	16
2023-09-21T18:00	13332	163	-55.8	-79.0	200	16
2023-09-21T18:00	13355	163	-55.9	-78.9	201	15
2023-09-21T18:00	13376	162	-56.0	-78.8	202	15
2023-09-21T18:00	13394	162	-56.0	-78.7	202	16
2023-09-21T18:00	13416	161	-56.2	-78.8	203	16
2023-09-21T18:00	13437	161	-56.3	-78.8	204	16
2023-09-21T18:00	13457	160	-56.5	-78.9	205	16
2023-09-21T18:00	13475	160	-56.6	-79.2	206	16
2023-09-21T18:00	13497	159	-56.6	-79.2	207	16
2023-09-21T18:00	13517	159	-56.5	-79.2	208	15
2023-09-21T18:00	13539	158	-56.3	-79.4	209	15
2023-09-21T18:00	13561	157	-56.0	-79.6	208	15
2023-09-21T18:00	13583	157	-55.8	-80.0	208	14
2023-09-21T18:00	13605	156	-55.4	-80.1	207	14
2023-09-21T18:00	13628	156	-55.4	-80.4	206	14
2023-09-21T18:00	13650	155	-55.6	-80.5	206	14
2023-09-21T18:00	13670	155	-55.8	-80.4	205	14
2023-09-21T18:00	13693	154	-56.0	-80.6	205	14
2023-09-21T18:00	13718	154	-56.2	-80.5	204	14
2023-09-21T18:00	13740	153	-56.4	-80.7	203	14
2023-09-21T18:00	13757	153	-56.5	-80.6	202	14
2023-09-21T18:00	13777	152	-56.8	-80.8	201	14
2023-09-21T18:00	13797	152	-56.9	-80.9	200	14
2023-09-21T18:00	13820	151	-56.9	-81.1	200	14
2023-09-21T18:00	13842	151	-56.8	-81.0	200	14
2023-09-21T18:00	13863	150	-56.8	-81.2	200	15
2023-09-21T18:00	13885	150	-56.6	-81.1	201	15
2023-09-21T18:00	13905	149	-56.4	-81.1	201	15
2023-09-21T18:00	13924	149	-56.6	-81.3	201	15
2023-09-21T18:00	13944	148	-56.6	-81.1	201	15
2023-09-21T18:00	13966	148	-56.8	-81.2	202	15
2023-09-21T18:00	13987	147	-57.0	-81.2	202	16
2023-09-21T18:00	14010	147	-57.2	-81.3	203	16
2023-09-21T18:00	14032	146	-57.4	-81.3	203	16
2023-09-21T18:00	14052	146	-57.5	-81.4	204	16
2023-09-21T18:00	14074	145	-57.7	-81.5	204	16
2023-09-21T18:00	14096	145	-57.8	-81.6	203	16
2023-09-21T18:00	14117	144	-57.7	-81.5	203	16
2023-09-21T18:00	14139	144	-57.7	-81.7	202	15
2023-09-21T18:00	14162	143	-57.5	-81.8	201	15
2023-09-21T18:00	14182	143	-57.5	-81.8	201	15
2023-09-21T18:00	14203	142	-57.6	-81.9	201	15
2023-09-21T18:00	14225	142	-57.7	-82.2	202	15
2023-09-21T18:00	14245	141	-57.6	-82.1	202	15
2023-09-21T18:00	14268	141	-57.5	-82.0	203	15
2023-09-21T18:00	14290	140	-57.6	-82.1	204	15
2023-09-21T18:00	14310	140	-57.7	-82.2	205	15
2023-09-21T18:00	14332	139	-57.8	-82.0	206	15
2023-09-21T18:00	14354	139	-57.9	-82.1	207	15
2023-09-21T18:00	14374	138	-58.0	-82.2	208	15
2023-09-21T18:00	14395	138	-58.2	-82.3	209	15
2023-09-21T18:00	14416	138	-58.4	-82.3	210	15
2023-09-21T18:00	14437	137	-58.4	-82.3	211	14
2023-09-21T18:00	14458	137	-58.4	-82.3	212	14
2023-09-21T18:00	14482	136	-58.5	-82.4	213	13
2023-09-21T18:00	14499	136	-58.6	-82.4	213	13
2023-09-21T18:00	14519	135	-58.7	-82.5	213	12
2023-09-21T18:00	14539	135	-58.6	-82.4	212	12
2023-09-21T18:00	14561	134	-58.4	-82.5	211	11
2023-09-21T18:00	14581	134	-58.3	-82.4	209	11
2023-09-21T18:00	14602	134	-58.4	-82.5	207	11
2023-09-21T18:00	14621	133	-58.3	-82.4	204	11
2023-09-21T18:00	14645	133	-58.3	-82.4	202	11
2023-09-21T18:00	14661	132	-58.4	-82.3	200	11
2023-09-21T18:00	14682	132	-58.4	-82.3	199	11
2023-09-21T18:00	14703	131	-58.5	-82.1	197	11
2023-09-21T18:00	14722	131	-58.5	-82.1	196	11
2023-09-21T18:00	14741	131	-58.6	-82.2	196	11
2023-09-21T18:00	14760	130	-58.3	-82.0	196	11
2023-09-21T18:00	14781	130	-58.3	-82.2	196	11
2023-09-21T18:00	14800	129	-58.1	-82.0	197	11
2023-09-21T18:00	14820	129	-58.1	-82.0	197	11
2023-09-21T18:00	14841	129	-58.2	-82.1	196	11
2023-09-21T18:00	14859	128	-58.3	-82.2	196	11
2023-09-21T18:00	14879	128	-58.3	-82.2	195	11
2023-09-21T18:00	14899	127	-58.3	-82.2	194	11
2023-09-21T18:00	14917	127	-58.3	-82.4	193	12
2023-09-21T18:00	14942	127	-58.3	-82.4	192	12
2023-09-21T18:00	14960	126	-58.4	-82.7	190	12
2023-09-21T18:00	14982	126	-58.6	-82.9	189	12
2023-09-21T18:00	15003	125	-58.6	-82.9	187	13
2023-09-21T18:00	15025	125	-58.8	-83.3	187	13
2023-09-21T18:00	15044	124	-58.9	-83.3	187	13
2023-09-21T18:00	15065	124	-59.0	-83.4	188	13
2023-09-21T18:00	15084	124	-59.0	-83.4	189	13
2023-09-21T18:00	15104	123	-58.9	-83.3	190	13
2023-09-21T18:00	15126	123	-59.0	-83.4	190	13
2023-09-21T18:00	15147	122	-59.2	-83.6	190	13
2023-09-21T18:00	15168	122	-59.3	-83.7	190	13
2023-09-21T18:00	15187	122	-59.3	-83.7	191	13
2023-09-21T18:00	15207	121	-58.9	-83.6	192	14
2023-09-21T18:00	15228	121	-58.8	-83.8	193	14
2023-09-21T18:00	15246	121	-58.7	-83.9	195	14
2023-09-21T18:00	15270	120	-58.4	-83.7	197	14
2023-09-21T18:00	15288	120	-58.0	-83.7	199	14
2023-09-21T18:00	15309	119	-58.0	-83.7	201	14
2023-09-21T18:00	15331	119	-58.0	-83.7	203	14
2023-09-21T18:00	15346	119	-58.1	-83.7	205	14
2023-09-21T18:00	15367	118	-58.1	-83.7	206	14
2023-09-21T18:00	15385	118	-58.1	-83.7	208	14
2023-09-21T18:00	15408	117	-58.2	-83.8	210	14
2023-09-21T18:00	15427	117	-58.3	-83.9	212	13
2023-09-21T18:00	15447	117	-58.3	-83.9	213	13
2023-09-21T18:00	15469	116	-58.4	-84.0	213	13
2023-09-21T18:00	15488	116	-58.4	-84.0	213	12
2023-09-21T18:00	15508	116	-58.6	-84.1	212	12
2023-09-21T18:00	15527	115	-58.4	-84.0	210	11
2023-09-21T18:00	15552	115	-58.0	-83.9	208	11
2023-09-21T18:00	15570	115	-58.1	-84.0	207	11
2023-09-21T18:00	15587	114	-58.1	-84.3	207	10
2023-09-21T18:00	15610	114	-57.8	-84.1	207	10
2023-09-21T18:00	15626	113	-57.9	-84.2	208	10
2023-09-21T18:00	15648	113	-57.7	-84.0	210	10
2023-09-21T18:00	15666	113	-57.9	-84.2	211	11
2023-09-21T18:00	15688	112	-58.1	-84.3	213	11
2023-09-21T18:00	15709	112	-58.2	-84.1	215	11
2023-09-21T18:00	15726	112	-58.2	-84.1	217	11
2023-09-21T18:00	15748	111	-58.3	-84.2	219	12
2023-09-21T18:00	15768	111	-58.4	-84.3	221	12
2023-09-21T18:00	15790	111	-58.4	-84.6	222	13
2023-09-21T18:00	15809	110	-58.2	-84.4	223	13
2023-09-21T18:00	15828	110	-58.2	-84.4	223	13
2023-09-21T18:00	15848	110	-58.2	-84.4	223	12
2023-09-21T18:00	15869	109	-58.3	-84.8	222	12
2023-09-21T18:00	15889	109	-57.9	-84.5	222	11
2023-09-21T18:00	15906	108	-57.6	-84.6	221	11
2023-09-21T18:00	15929	108	-57.5	-84.5	221	10
2023-09-21T18:00	15951	108	-57.4	-84.4	221	10
2023-09-21T18:00	15974	107	-57.4	-84.4	221	10
2023-09-21T18:00	15992	107	-57.5	-84.5	221	10
2023-09-21T18:00	16012	107	-57.7	-84.3	220	10
2023-09-21T18:00	16031	106	-57.8	-84.4	218	10
2023-09-21T18:00	16052	106	-58.0	-84.6	216	10
2023-09-21T18:00	16074	106	-58.1	-84.6	213	10
2023-09-21T18:00	16098	105	-58.0	-84.6	211	10
2023-09-21T18:00	16113	105	-57.6	-84.6	209	11
2023-09-21T18:00	16136	105	-57.7	-84.7	208	11
2023-09-21T18:00	16157	104	-57.9	-84.8	206	12
2023-09-21T18:00	16177	104	-57.9	-84.8	204	12
2023-09-21T18:00	16201	104	-58.0	-84.6	202	12
2023-09-21T18:00	16217	103	-58.1	-84.6	200	13
2023-09-21T18:00	16242	103	-58.0	-84.6	198	13
2023-09-21T18:00	16262	103	-58.0	-84.6	197	13
2023-09-21T18:00	16286	102	-58.1	-84.6	196	13
2023-09-21T18:00	16306	102	-58.2	-84.7	196	14
2023-09-21T18:00	16327	102	-58.3	-84.8	196	14
2023-09-21T18:00	16352	101	-58.4	-84.9	197	14
2023-09-21T18:00	16372	101	-58.6	-84.7	198	15
2023-09-21T18:00	16391	100	-58.7	-84.8	199	15
2023-09-21T18:00	16412	100	-58.8	-84.9	200	15
2023-09-21T18:00	16432	100	-59.0	-85.0	201	16
2023-09-21T18:00	16455	99	-59.1	-85.1	202	16
2023-09-21T18:00	16477	99	-59.3	-85.2	204	16
2023-09-21T18:00	16494	99	-59.4	-85.3	205	16
2023-09-21T18:00	16517	99	-59.2	-85.2	207	16
2023-09-21T18:00	16540	98	-58.9	-85.3	209	15
2023-09-21T18:00	16560	98	-58.9	-85.3	211	15
2023-09-21T18:00	16582	97	-58.9	-85.6	214	15
2023-09-21T18:00	16602	97	-58.5	-85.3	216	15
2023-09-21T18:00	16627	97	-58.4	-85.2	218	15
2023-09-21T18:00	16649	96	-58.6	-85.4	220	15
2023-09-21T18:00	16668	96	-58.8	-85.5	221	15
2023-09-21T18:00	16692	96	-59.0	-85.7	222	15
2023-09-21T18:00	16717	95	-59.1	-85.7	223	14
2023-09-21T18:00	16737	95	-59.3	-85.9	224	14
2023-09-21T18:00	16760	95	-59.1		225	13
2023-09-21T18:00	16780	94	-58.3	-85.8	226	13
2023-09-21T18:00	16803	94	-57.6	-85.7	227	13
2023-09-21T18:00	16824	94	-57.7	-85.8	227	12
2023-09-21T18:00	16842	94	-57.8	-85.9	227	12
2023-09-21T18:00	16865	93	-57.6	-85.7	227	11
2023-09-21T18:00	16887	93	-57.5	-85.6	225	11
2023-09-21T18:00	16909	93	-57.6	-85.7	223	11
2023-09-21T18:00	16928	92	-57.7	-85.8	221	10
2023-09-21T18:00	16954	92	-57.8	-85.9	219	10
2023-09-21T18:00	16971	92	-57.9		217	10
2023-09-21T18:00	16993	91	-58.0	-85.6	215	10
2023-09-21T18:00	17016	91	-58.2	-85.8	214	11
2023-09-21T18:00	17035	91	-58.2	-85.8	212	11
2023-09-21T18:00	17058	90	-58.2	-86.2	210	12
2023-09-21T18:00	17082	90	-58.2	-86.2	210	13
2023-09-21T18:00	17100	90	-58.1		210	13
2023-09-21T18:00	17122	89	-57.8	-86.3	211	14
2023-09-21T18:00	17143	89	-57.5	-86.1	213	15
2023-09-21T18:00	17168	89	-57.5	-86.1	215	15
2023-09-21T18:00	17186	89	-57.3	-85.9	217	16
2023-09-21T18:00	17210	88	-57.4	-86.0	219	17
2023-09-21T18:00	17228	88	-57.4	-86.0	220	17
2023-09-21T18:00	17253	88	-57.3	-85.9	221	17
2023-09-21T18:00	17274	87	-57.1	-85.7	221	18
2023-09-21T18:00	17297	87	-57.2	-85.8	222	18
2023-09-21T18:00	17315	87	-57.3	-85.9	222	18
2023-09-21T18:00	17338	86	-57.4	-86.0	223	18
2023-09-21T18:00	17359	86	-57.6	-86.1	223	18
2023-09-21T18:00	17383	86	-57.3	-85.9	222	17
2023-09-21T18:00	17403	86	-57.3	-86.4	222	16
2023-09-21T18:00	17425	85	-57.1	-86.2	221	16
2023-09-21T18:00	17443	85	-57.0	-86.1	220	15
2023-09-21T18:00	17467	85	-57.1	-86.2	219	14
2023-09-21T18:00	17488	84	-57.1	-86.2	218	14
2023-09-21T18:00	17509	84	-57.2	-86.3	217	14
2023-09-21T18:00	17530	84	-57.2	-86.3	216	13
2023-09-21T18:00	17553	84	-57.2	-86.3	215	13
2023-09-21T18:00	17576	83	-57.3	-86.4	215	13
2023-09-21T18:00	17597	83	-57.3	-86.4	214	13
2023-09-21T18:00	17620	83	-57.3	-86.4	214	13
2023-09-21T18:00	17640	82	-57.1	-86.2	214	13
2023-09-21T18:00	17661	82	-57.1	-86.2	215	13
2023-09-21T18:00	17681	82	-57.1	-86.2	216	13
2023-09-21T18:00	17706	82	-57.0	-86.1	218	13
2023-09-21T18:00	17729	81	-57.1	-86.2	220	13
2023-09-21T18:00	17755	81	-57.2	-86.3	221	13
2023-09-21T18:00	17775	81	-57.3	-86.4	223	13
2023-09-21T18:00	17796	80	-57.5	-86.5	224	13
2023-09-21T18:00	17817	80	-57.5	-86.5	224	13
2023-09-21T18:00	17840	80	-57.4	-86.4	224	13
2023-09-21T18:00	17862	80	-57.5	-86.5	224	13
2023-09-21T18:00	17886	79	-57.6	-86.6	224	13
2023-09-21T18:00	17907	79	-57.4	-86.4	224	13
2023-09-21T18:00	17931	79	-57.4	-86.4	225	13
2023-09-21T18:00	17954	78	-57.3	-86.4	226	12
2023-09-21T18:00	17976	78	-57.5	-86.5	227	12
2023-09-21T18:00	17998	78	-57.6	-86.6	229	12
2023-09-21T18:00	18021	78	-57.6	-86.6	229	12
2023-09-21T18:00	18041	77	-57.7	-86.7	229	12
2023-09-21T18:00	18063	77	-57.6	-86.6	229	12
2023-09-21T18:00	18088	77	-57.6	-86.6	229	12
2023-09-21T18:00	18108	77	-57.5	-86.5	228	12
2023-09-21T18:00	18131	76	-57.6	-86.6	228	12
2023-09-21T18:00	18150	76	-57.7	-86.7	227	12
2023-09-21T18:00	18180	76	-57.7	-86.7	226	12
2023-09-21T18:00	18200	75	-57.7	-86.7	226	12
2023-09-21T18:00	18226	75	-57.7	-86.7	225	12
2023-09-21T18:00	18246	75	-57.7	-86.7	225	12
2023-09-21T18:00	18271	75	-57.7	-86.7	226	12
2023-09-21T18:00	18295	74	-57.5	-86.5	227	12
2023-09-21T18:00	18319	74	-57.5	-86.5	229	12
2023-09-21T18:00	18344	74	-57.4	-86.9	231	12
2023-09-21T18:00	18366	73	-57.4	-86.9	233	12
2023-09-21T18:00	18392	73	-57.4	-86.9	235	11
2023-09-21T18:00	18413	73	-57.4	-86.9	237	11
2023-09-21T18:00	18437	73	-57.3	-86.9	237	11
2023-09-21T18:00	18459	72	-57.3	-86.9	237	10
2023-09-21T18:00	18483	72	-56.9	-86.6	235	10
2023-09-21T18:00	18508	72	-56.9	-86.6	232	10
2023-09-21T18:00	18531	72	-56.9	-86.6	228	10
2023-09-21T18:00	18556	71	-56.8	-87.0	224	10
2023-09-21T18:00	18579	71	-56.6	-86.9	221	11
2023-09-21T18:00	18602	71	-56.3	-86.6	218	11
2023-09-21T18:00	18627	71	-56.1	-86.5	215	12
2023-09-21T18:00	18652	70	-56.2	-86.0	213	12
2023-09-21T18:00	18678	70	-56.4	-86.2	211	13
2023-09-21T18:00	18699	70	-56.5	-86.3	209	13
2023-09-21T18:00	18726	69	-56.6	-86.3	209	14
2023-09-21T18:00	18747	69	-56.8	-86.5	209	14
2023-09-21T18:00	18771	69	-56.9	-86.6	210	15
2023-09-21T18:00	18791	69	-57.0	-86.6	211	15
2023-09-21T18:00	18815	68	-56.4	-86.2	213	14
2023-09-21T18:00	18835	68	-56.3	-86.6	214	14
2023-09-21T18:00	18861	68	-56.3	-86.6	216	14
2023-09-21T18:00	18885	68	-56.5	-86.8	217	13
2023-09-21T18:00	18906	67	-56.5	-86.8	218	13
2023-09-21T18:00	18932	67	-56.6	-86.9	218	13
2023-09-21T18:00	18958	67	-56.5	-86.3	218	13
2023-09-21T18:00	18978	67	-56.6	-86.9	218	13
2023-09-21T18:00	18999	66	-56.5	-86.8	217	14
2023-09-21T18:00	19026	66	-56.2	-86.6	216	14
2023-09-21T18:00	19047	66	-56.3	-86.6	215	14
2023-09-21T18:00	19072	66	-56.4		215	14
2023-09-21T18:00	19093	66	-56.5	-86.8	215	14
2023-09-21T18:00	19114	65	-56.4		215	15
2023-09-21T18:00	19140	65	-56.1	-86.5	216	15
2023-09-21T18:00	19166	65	-56.0	-86.4	217	15
2023-09-21T18:00	19188	65	-55.9	-86.3	219	14
2023-09-21T18:00	19207	64	-55.8	-86.3	221	14
2023-09-21T18:00	19232	64	-55.8	-86.3	223	13
2023-09-21T18:00	19253	64	-55.9	-86.3	226	13
2023-09-21T18:00	19278	64	-55.9	-86.3	228	12
2023-09-21T18:00	19301	63	-56.0	-86.4	230	12
2023-09-21T18:00	19324	63	-56.1	-86.5	231	12
2023-09-21T18:00	19345	63	-55.9	-86.3	233	12
2023-09-21T18:00	19370	63	-55.9	-86.3	234	12
2023-09-21T18:00	19387	63	-55.8	-86.9	235	12
2023-09-21T18:00	19412	62	-55.6	-86.7	237	12
2023-09-21T18:00	19431	62	-55.6	-86.7	238	12
2023-09-21T18:00	19455	62	-55.4	-86.6	240	12
2023-09-21T18:00	19478	62	-55.5	-86.7	241	11
2023-09-21T18:00	19502	61	-55.5	-86.7	242	11
2023-09-21T18:00	19521	61	-55.6	-86.7	243	11
2023-09-21T18:00	19542	61	-55.5	-86.1	243	10
2023-09-21T18:00	19563	61	-55.5	-86.1	244	10
2023-09-21T18:00	19588	61	-55.5	-86.1	244	10
2023-09-21T18:00	19608	60	-55.6	-86.1	244	9
2023-09-21T18:00	19627	60	-55.8	-86.3	243	9
2023-09-21T18:00	19653	60	-55.9	-86.3	240	9
2023-09-21T18:00	19672	60	-56.0	-86.4	236	9
2023-09-21T18:00	19699	60	-56.1	-86.5	231	9
2023-09-21T18:00	19717	59	-56.2	-86.6	226	9
2023-09-21T18:00	19745	59	-56.1	-86.5	222	10
2023-09-21T18:00	19766	59	-55.9	-86.3	219	10
2023-09-21T18:00	19787	59	-55.7	-86.8	217	11
2023-09-21T18:00	19812	59	-55.5	-86.7	215	11
2023-09-21T18:00	19835	58	-55.4	-86.6	214	11
2023-09-21T18:00	19856	58	-55.6	-86.1	214	12
2023-09-21T18:00	19880	58	-55.8	-86.3	214	12
2023-09-21T18:00	19902	58	-56.0	-86.4	215	12
2023-09-21T18:00	19928	57	-56.1	-86.5	215	12
2023-09-21T18:00	19952	57	-56.0	-86.4	216	12
2023-09-21T18:00	19974	57	-56.1	-86.5	217	12
2023-09-21T18:00	19996	57	-56.1	-86.5	219	12
2023-09-21T18:00	20023	57	-56.1	-86.5	220	12
2023-09-21T18:00	20042	56	-56.2	-86.6	223	13
2023-09-21T18:00	20067	56	-56.2	-86.6	225	13
2023-09-21T18:00	20092	56	-56.2	-86.6	226	13
2023-09-21T18:00	20117	56	-56.2	-86.6	228	13
2023-09-21T18:00	20137	56	-56.3	-86.6	228	13
2023-09-21T18:00	20164	55	-56.4		227	13
2023-09-21T18:00	20188	55	-56.2	-86.6	226	13
2023-09-21T18:00	20208	55	-56.3	-86.6	225	12
2023-09-21T18:00	20236	55	-56.4		224	12
2023-09-21T18:00	20259	55	-56.4		224	12
2023-09-21T18:00	20283	54	-56.4		224	12
2023-09-21T18:00	20306	54	-56.6	-86.9	225	12
2023-09-21T18:00	20334	54	-56.6	-86.9	226	11
2023-09-21T18:00	20360	54	-56.6	-86.9	228	11
2023-09-21T18:00	20383	53	-56.6	-86.9	231	10
2023-09-21T18:00	20409	53	-56.7	-86.9	233	9
2023-09-21T18:00	20434	53	-56.8	-87.0	234	9
2023-09-21T18:00	20456	53	-56.9	-87.1	235	8
2023-09-21T18:00	20489	53	-57.0	-87.2	236	7
2023-09-21T18:00	20509	52	-57.1	-87.2	235	7
2023-09-21T18:00	20534	52	-57.2	-87.3	235	6
2023-09-21T18:00	20563	52	-57.1	-87.2	235	6
2023-09-21T18:00	20584	52	-57.2	-87.3	235	5
2023-09-21T18:00	20604	52	-57.2	-87.3	236	5
2023-09-21T18:00	20632	51	-57.1	-87.2	236	4
2023-09-21T18:00	20657	51	-57.1	-87.2	234	4
2023-09-21T18:00	20684	51	-57.2	-87.3	229	4
2023-09-21T18:00	20707	51	-57.2	-87.3	222	4
2023-09-21T18:00	20734	51	-57.3	-87.4	215	4
2023-09-21T18:00	20754	50	-57.1	-87.2	210	5
2023-09-21T18:00	20781	50	-57.2	-87.3	207	6
2023-09-21T18:00	20805	50	-57.1	-87.2	204	6
2023-09-21T18:00	20827	50	-57.1	-87.2	202	7
2023-09-21T18:00	20854	50	-57.1	-87.2	199	8
2023-09-21T18:00	20874	49	-57.1	-87.2	197	8
2023-09-21T18:00	20899	49	-57.2	-87.3	195	9
2023-09-21T18:00	20923	49	-57.3	-87.4	194	9
2023-09-21T18:00	20951	49	-57.3	-86.9	194	10
2023-09-21T18:00	20977	49	-57.4	-86.9	195	10
2023-09-21T18:00	20998	49	-57.5	-87.0	197	11
2023-09-21T18:00	21022	48	-57.6	-87.1	200	11
2023-09-21T18:00	21047	48	-57.8	-87.2	202	11
2023-09-21T18:00	21070	48	-58.0	-87.4	205	12
2023-09-21T18:00	21094	48	-58.2	-87.5	208	12
2023-09-21T18:00	21113	48	-58.3	-87.6	212	12
2023-09-21T18:00	21142	47	-58.4	-87.7	215	13
2023-09-21T18:00	21165	47	-58.5	-87.7	218	13
2023-09-21T18:00	21189	47	-58.6	-87.8	220	13
2023-09-21T18:00	21212	47	-58.5	-87.7	222	14
2023-09-21T18:00	21234	47	-58.4	-87.7	223	14
2023-09-21T18:00	21263	47	-58.2	-88.1	223	14
2023-09-21T18:00	21286	46	-57.9	-87.8	223	14
2023-09-21T18:00	21306	46	-57.8	-87.8	224	14
2023-09-21T18:00	21330	46	-57.4	-88.1	225	14
2023-09-21T18:00	21353	46	-57.4	-88.1	226	14
2023-09-21T18:00	21376	46	-57.4	-88.1	227	13
2023-09-21T18:00	21398	46	-57.0	-87.8	228	13
2023-09-21T18:00	21420	45	-57.1	-87.8	230	13
2023-09-21T18:00	21441	45	-56.8	-87.6	232	12
2023-09-21T18:00	21468	45	-56.6	-87.5	234	12
2023-09-21T18:00	21491	45	-56.6	-87.5	236	12
2023-09-21T18:00	21511	45	-56.6	-87.5	238	12
2023-09-21T18:00	21534	45	-56.4	-87.3	239	12
2023-09-21T18:00	21560	44	-56.3	-87.2	239	12
2023-09-21T18:00	21587	44	-56.5	-87.4	240	12
2023-09-21T18:00	21607	44	-56.6	-87.5	240	12
2023-09-21T18:00	21626	44	-56.1	-87.8	240	11
2023-09-21T18:00	21656	44	-55.4	-87.2	239	10
2023-09-21T18:00	21679	44	-55.2	-87.1	238	10
2023-09-21T18:00	21701	43	-55.3	-87.2	237	9
2023-09-21T18:00	21726	43	-55.2	-87.1	236	8
2023-09-21T18:00	21750	43	-55.3	-87.2	235	8
2023-09-21T18:00	21773	43	-55.3	-86.5	234	7
2023-09-21T18:00	21796	43	-55.4	-86.6	233	7
2023-09-21T18:00	21821	43	-55.4	-86.6	231	7
2023-09-21T18:00	21844	42	-55.5	-86.7	228	6
2023-09-21T18:00	21868	42	-55.6	-86.7	225	6
2023-09-21T18:00	21895	42	-55.8	-86.9	222	6
2023-09-21T18:00	21917	42	-55.9	-86.9	219	6
2023-09-21T18:00	21938	42	-56.0	-86.4	216	6
2023-09-21T18:00	21961	42	-56.0	-86.4	214	6
2023-09-21T18:00	21991	42	-56.2	-86.6	213	6
2023-09-21T18:00	22012	41	-56.3	-86.6	212	7
2023-09-21T18:00	22039	41	-56.5	-87.4	213	7
2023-09-21T18:00	22062	41	-56.3	-87.2	213	8
2023-09-21T18:00	22086	41	-56.4	-87.3	213	8
2023-09-21T18:00	22114	41	-56.4	-87.3	214	9
2023-09-21T18:00	22136	41	-56.4	-87.3	214	9
2023-09-21T18:00	22158	40	-56.5	-87.4	216	9
2023-09-21T18:00	22187	40	-56.5	-86.8	218	9
2023-09-21T18:00	22215	40	-56.6	-86.9	221	10
2023-09-21T18:00	22240	40	-56.7	-86.9	224	10
2023-09-21T18:00	22268	40	-56.8	-87.0	227	9
2023-09-21T18:00	22286	40	-56.8	-87.0	231	9
2023-09-21T18:00	22316	39	-56.8	-87.6	234	9
2023-09-21T18:00	22333	39	-56.5	-87.4	236	9
2023-09-21T18:00	22363	39	-56.5	-87.4	237	10
2023-09-21T18:00	22387	39	-56.6	-87.5	237	10
2023-09-21T18:00	22414	39	-56.6	-87.5	236	10
2023-09-21T18:00	22438	39	-56.4	-87.3	233	10
2023-09-21T18:00	22465	39	-56.6	-87.5	231	10
2023-09-21T18:00	22489	38	-56.8	-87.6	229	10
2023-09-21T18:00	22513	38	-56.9	-87.7	229	10
2023-09-21T18:00	22539	38	-56.9	-87.7	230	10
2023-09-21T18:00	22568	38	-56.7	-87.5	233	10
2023-09-21T18:00	22593	38	-56.6	-87.5	235	11
2023-09-21T18:00	22614	38	-56.7	-87.5	238	11
2023-09-21T18:00	22641	37	-56.8	-87.6	239	11
2023-09-21T18:00	22663	37	-56.9	-87.7	239	11
2023-09-21T18:00	22688	37	-57.0	-87.2	239	11
2023-09-21T18:00	22712	37	-57.1	-87.2	239	11
2023-09-21T18:00	22737	37	-57.1	-87.2	239	11
2023-09-21T18:00	22759	37	-57.1	-87.2	241	11
2023-09-21T18:00	22784	37	-57.1	-87.8	244	11
2023-09-21T18:00	22803	37	-57.1	-87.8	247	11
2023-09-21T18:00	22838	36	-56.9	-87.7	249	11
2023-09-21T18:00	22856	36	-56.6	-87.5	250	10
2023-09-21T18:00	22880	36	-56.6	-87.5	250	10
2023-09-21T18:00	22900	36	-56.4	-87.3	250	10
2023-09-21T18:00	22928	36	-56.5	-87.4	249	10
2023-09-21T18:00	22949	36	-56.5	-87.4	249	10
2023-09-21T18:00	22977	36	-56.3	-87.2	248	10
2023-09-21T18:00	23008	35	-56.3	-87.2	247	10
2023-09-21T18:00	23022	35	-56.5	-87.4	245	10
2023-09-21T18:00	23048	35	-56.5	-87.4	244	10
2023-09-21T18:00	23069	35	-56.5	-87.4	242	10
2023-09-21T18:00	23096	35	-56.6	-87.5	240	10
2023-09-21T18:00	23121	35	-56.6	-87.5	238	10
2023-09-21T18:00	23145	35	-56.7	-87.5	236	10
2023-09-21T18:00	23170	34	-56.6	-87.5	236	10
2023-09-21T18:00	23192	34	-56.5	-87.4	235	10
2023-09-21T18:00	23226	34	-56.3	-87.2	236	10
2023-09-21T18:00	23245	34	-56.4	-87.3	236	10
2023-09-21T18:00	23272	34	-56.2	-87.2	236	11
2023-09-21T18:00	23297	34	-56.1	-87.1	236	11
2023-09-21T18:00	23329	34	-56.3	-87.2	236	12
2023-09-21T18:00	23354	34	-56.5	-87.4	236	12
2023-09-21T18:00	23378	33	-56.7	-87.5	236	13
2023-09-21T18:00	23400	33	-56.9	-87.7	236	13
2023-09-21T18:00	23425	33	-56.9	-87.7	237	13
2023-09-21T18:00	23451	33	-56.9	-87.7	238	13
2023-09-21T18:00	23478	33	-57.0	-87.8	239	13
2023-09-21T18:00	23505	33	-56.7	-87.5	240	13
2023-09-21T18:00	23529	33	-56.5	-87.4	242	13
2023-09-21T18:00	23559	32	-56.2	-87.2	242	13
2023-09-21T18:00	23586	32	-56.3	-87.2	243	13
2023-09-21T18:00	23613	32	-56.4	-87.3	242	13
2023-09-21T18:00	23630	32	-56.6	-87.5	242	13
2023-09-21T18:00	23657	32	-56.6	-87.5	243	13
2023-09-21T18:00	23687	32	-56.7	-87.5	244	12
2023-09-21T18:00	23713	32	-56.8	-87.6	247	12
2023-09-21T18:00	23743	32	-56.7	-87.5	250	11
2023-09-21T18:00	23770	31	-56.9	-87.7	253	11
2023-09-21T18:00	23790	31	-56.9	-87.7	256	10
2023-09-21T18:00	23813	31	-56.9	-87.7	258	10
2023-09-21T18:00	23844	31	-57.1	-87.8	259	9
2023-09-21T18:00	23868	31	-57.2	-87.3	258	9
2023-09-21T18:00	23890	31	-57.3	-87.4	256	9
2023-09-21T18:00	23919	31	-57.5	-87.5	253	8
2023-09-21T18:00	23944	31	-57.2	-87.3	249	8
2023-09-21T18:00	23965	30	-57.1	-87.2	245	7
2023-09-21T18:00	23989	30	-57.1	-87.8	242	7
2023-09-21T18:00	24017	30	-57.2	-87.9	239	6
2023-09-21T18:00	24037	30	-57.2	-87.9	239	6
2023-09-21T18:00	24061	30	-57.1	-87.8	240	6
2023-09-21T18:00	24094	30	-57.2	-87.9	243	6
2023-09-21T18:00	24116	30	-57.2	-87.9	246	5
2023-09-21T18:00	24136	30	-57.1	-87.8	248	5
2023-09-21T18:00	24163	29	-57.2	-87.9	248	5
2023-09-21T18:00	24187	29	-57.3	-87.4	245	5
2023-09-21T18:00	24209	29	-57.5	-87.5	241	5
2023-09-21T18:00	24237	29	-57.5	-88.1	235	5
2023-09-21T18:00	24261	29	-57.3	-88.0	228	5
2023-09-21T18:00	24279	29	-57.3	-88.0	220	5
2023-09-21T18:00	24307	29	-57.2	-87.9	211	5
2023-09-21T18:00	24337	29	-57.3	-88.0	202	5
2023-09-21T18:00	24356	29	-57.3	-88.0	193	6
2023-09-21T18:00	24388	28	-57.4	-88.1	186	6
2023-09-21T18:00	24420	28	-57.5	-88.1	180	7
2023-09-21T18:00	24443	28	-57.6	-88.2	177	8
2023-09-21T18:00	24461	28	-57.6	-88.2	176	8
2023-09-21T18:00	24493	28	-57.6	-88.2	176	9
2023-09-21T18:00	24521	28	-57.3	-88.0	178	10
2023-09-21T18:00	24549	28	-57.1	-87.8	180	10
2023-09-21T18:00	24573	28	-57.1	-87.8	182	11
2023-09-21T18:00	24594	28	-57.2	-87.9	185	11
2023-09-21T18:00	24623	27	-57.2	-87.9	188	12
2023-09-21T18:00	24646	27	-57.2	-87.9	192	12
2023-09-21T18:00	24676	27	-57.3	-88.0	196	12
2023-09-21T18:00	24706	27	-57.1	-87.8	200	12
2023-09-21T18:00	24734	27	-57.1	-87.8	204	12
2023-09-21T18:00	24757	27	-57.1	-87.8	208	13
2023-09-21T18:00	24780	27	-57.1	-87.8	212	13
2023-09-21T18:00	24816	27	-57.3	-88.0	217	13
2023-09-21T18:00	24840	26	-57.3	-88.0	221	13
2023-09-21T18:00	24868	26	-57.3	-88.0	224	13
2023-09-21T18:00	24885	26	-56.9	-87.7	227	13
2023-09-21T18:00	24922	26	-56.8	-87.6	230	13
2023-09-21T18:00	24948	26	-56.8	-87.6	232	13
2023-09-21T18:00	24978	26	-56.9	-87.7	233	13
2023-09-21T18:00	24999	26	-57.1	-87.8	235	13
2023-09-21T18:00	25018	26	-57.3	-88.0	237	13
2023-09-21T18:00	25056	26	-57.4	-87.5	239	13
2023-09-21T18:00	25083	25	-57.5	-87.5	242	13
2023-09-21T18:00	25105	25	-57.6	-87.6	245	13
2023-09-21T18:00	25133	25	-57.8	-87.8	249	12
2023-09-21T18:00	25156	25	-57.6	-88.2	252	12
2023-09-21T18:00	25182	25	-57.4	-88.1	255	12
2023-09-21T18:00	25214	25	-57.4	-88.1	257	12
2023-09-21T18:00	25233	25	-57.1	-87.8	258	11
2023-09-21T18:00	25264	25	-56.9	-87.7	258	11
2023-09-21T18:00	25282	25	-57.0	-87.8	256	10
2023-09-21T18:00	25321	25	-57.0	-87.8	255	9
2023-09-21T18:00	25329	24	-57.0	-87.8	252	9
2023-09-21T18:00	25364	24	-57.1	-87.8	250	8
2023-09-21T18:00	25388	24	-57.3	-88.0	248	8
2023-09-21T18:00	25408	24	-57.4	-88.1	245	8
2023-09-21T18:00	25440	24	-57.6	-88.2	243	8
2023-09-21T18:00	25462	24	-57.4	-88.1	241	8
2023-09-21T18:00	25496	24	-57.4	-88.1	238	9
2023-09-21T18:00	25514	24	-57.2	-87.9	236	9
2023-09-21T18:00	25550	24	-57.1	-87.8	235	9
2023-09-21T18:00	25568	24	-57.1	-87.8	234	10
2023-09-21T18:00	25596	24	-57.2	-88.6	236	10
2023-09-21T18:00	25617	23	-56.9	-88.3	239	10
2023-09-21T18:00	25641	23	-56.6	-88.1	243	10
2023-09-21T18:00	25673	23	-56.6	-88.1	246	10
2023-09-21T18:00	25696	23	-56.4	-88.0	248	10
2023-09-21T18:00	25728	23	-56.2	-87.8	248	9
2023-09-21T18:00	25754	23	-56.0	-87.7	247	9
2023-09-21T18:00	25771	23	-55.8	-87.5	245	9
2023-09-21T18:00	25808	23	-55.8	-87.5	245	8
2023-09-21T18:00	25834	23	-55.8	-87.5	245	8
2023-09-21T18:00	25854	23	-55.6	-87.4	247	7
2023-09-21T18:00	25888	22	-55.6	-87.4	250	7
2023-09-21T18:00	25916	22	-55.7	-87.5	254	6
2023-09-21T18:00	25932	22	-55.8	-87.5	258	6
2023-09-21T18:00	25962	22	-55.8	-87.5	262	6
2023-09-21T18:00	25988	22	-55.8	-87.5	265	6
2023-09-21T18:00	26019	22	-55.9	-87.6	267	6
2023-09-21T18:00	26041	22	-56.0	-87.7	266	6
2023-09-21T18:00	26071	22	-56.1	-87.1	264	6
2023-09-21T18:00	26097	22	-56.0	-87.0	260	6
2023-09-21T18:00	26123	22	-56.1	-87.1	257	5
2023-09-21T18:00	26163	22	-56.2	-87.2	253	6
2023-09-21T18:00	26184	21	-56.3	-87.2	251	6
2023-09-21T18:00	26217	21	-56.5	-87.4	251	6
2023-09-21T18:00	26229	21	-56.7	-87.5	252	6
2023-09-21T18:00	26263	21	-56.7	-87.5	253	7
2023-09-21T18:00	26288	21	-56.8	-87.6	256	7
2023-09-21T18:00	26323	21	-56.7	-87.5	258	8
2023-09-21T18:00	26353	21	-56.8	-87.6	260	8
2023-09-21T18:00	26374	21	-56.8	-87.6	262	8
2023-09-21T18:00	26406	21	-56.8	-87.6	264	8
2023-09-21T18:00	26436	21	-56.7	-87.5	265	8
2023-09-21T18:00	26456	21	-56.8	-87.6	267	8
2023-09-21T18:00	26494	20	-57.0	-87.8	267	7
2023-09-21T18:00	26518	20	-57.3	-87.4	267	7
2023-09-21T18:00	26546	20	-57.4	-87.5	266	8
2023-09-21T18:00	26581	20	-57.5	-87.5	265	8
2023-09-21T18:00	26607	20	-57.5	-88.1	264	8
2023-09-21T18:00	26630	20	-57.6	-88.2	264	9
2023-09-21T18:00	26671	20	-57.3	-88.0	265	9
2023-09-21T18:00	26690	20	-57.2	-88.6	265	10
2023-09-21T18:00	26718	20	-57.0	-88.4	264	10
2023-09-21T18:00	26759	20	-56.7	-88.2	264	10
2023-09-21T18:00	26780	20	-56.5	-88.1	265	10
2023-09-21T18:00	26813	19	-56.5	-88.1	266	9
2023-09-21T18:00	26828	19	-56.4	-88.0	267	10
2023-09-21T18:00	26871	19	-56.3	-87.9	269	10
2023-09-21T18:00	26890	19	-56.2	-88.6	269	10
2023-09-21T18:00	26919	19	-55.8	-88.3	268	10
2023-09-21T18:00	26947	19	-55.3	-87.9	266	11
2023-09-21T18:00	26968	19	-55.2	-87.8	264	11
2023-09-21T18:00	27006	19	-55.3	-87.9	261	11
2023-09-21T18:00	27039	19	-55.5	-88.1	259	11
2023-09-21T18:00	27050	19	-55.2	-87.8	258	11
2023-09-21T18:00	27082	19	-54.6	-87.4	258	11
2023-09-21T18:00	27111	19	-54.6	-87.4	259	11
2023-09-21T18:00	27136	18	-54.6	-87.4	262	12
2023-09-21T18:00	27170	18	-54.4	-87.3	266	12
2023-09-21T18:00	27180	18	-54.0	-87.0	271	12
2023-09-21T18:00	27207	18	-53.8	-86.8	275	13
2023-09-21T18:00	27246	18	-53.9	-86.9	279	13
2023-09-21T18:00	27272	18	-53.9	-86.9	284	13
2023-09-21T18:00	27295	18	-53.9	-86.9	288	12
2023-09-21T18:00	27320	18	-53.9	-86.9	294	12
2023-09-21T18:00	27357	18	-53.8	-86.8	298	11
2023-09-21T18:00	27377	18	-53.8	-86.8	303	11
2023-09-21T18:00	27407	18	-53.8	-86.8	305	10
2023-09-21T18:00	27426	18	-53.5	-86.6	307	9
2023-09-21T18:00	27463	18	-53.2	-86.4	307	8
2023-09-21T18:00	27478	17	-53.1	-86.3	305	7
2023-09-21T18:00	27523	17	-53.0	-86.3	300	7
2023-09-21T18:00	27548	17	-53.0	-86.3	294	6
2023-09-21T18:00	27572	17	-53.1	-86.3	285	5
2023-09-21T18:00	27603	17	-52.8	-87.0	276	5
2023-09-21T18:00	27628	17	-52.7	-86.9	269	5
2023-09-21T18:00	27666	17	-52.3	-86.6	264	6
2023-09-21T18:00	27681	17	-52.1	-86.5	262	6
2023-09-21T18:00	27711	17	-52.0	-86.4	262	6
2023-09-21T18:00	27747	17	-52.1	-86.5	261	7
2023-09-21T18:00	27757	17	-52.0	-86.4	262	7
2023-09-21T18:00	27802	17	-52.0	-85.5	264	7
2023-09-21T18:00	27829	17	-52.1	-85.6	267	7
2023-09-21T18:00	27872	16	-52.1	-85.6	271	7
2023-09-21T18:00	27880	16	-52.2	-85.7	274	7
2023-09-21T18:00	27911	16	-52.2	-85.7	276	8
2023-09-21T18:00	27954	16	-52.2	-85.7	276	8
2023-09-21T18:00	27980	16	-52.3	-85.8	276	9
2023-09-21T18:00	28010	16	-52.5	-85.9	275	9
2023-09-21T18:00	28045	16	-52.5	-85.9	274	10
2023-09-21T18:00	28066	16	-52.6		274	11
2023-09-21T18:00	28104	16	-52.6		274	11
2023-09-21T18:00	28127	16	-52.6		275	11
2023-09-21T18:00	28152	16	-52.5	-85.9	276	12
2023-09-21T18:00	28192	16	-52.5	-85.9	277	12
2023-09-21T18:00	28217	16	-52.4	-85.8	277	12
2023-09-21T18:00	28234	16	-52.1	-86.5	278	12
2023-09-21T18:00	28272	15	-51.8	-86.3	278	13
2023-09-21T18:00	28305	15	-51.5	-86.1	279	13
2023-09-21T18:00	28314	15	-51.4	-86.0	280	14
2023-09-21T18:00	28365	15	-51.2	-85.8	281	14
2023-09-21T18:00	28390	15	-51.0	-85.7	283	14
2023-09-21T18:00	28410	15	-51.1	-85.8	285	14
2023-09-21T18:00	28443	15	-51.2	-85.8	287	14
2023-09-21T18:00	28473	15	-51.3	-85.9	290	14
2023-09-21T18:00	28495	15	-51.3	-85.9	293	14
2023-09-21T18:00	28524	15	-51.3	-85.0	296	14
2023-09-21T18:00	28552	15	-51.5	-85.2	298	14
2023-09-21T18:00	28592	15	-51.6	-85.2	300	13
2023-09-21T18:00	28620	15	-51.5	-85.2	301	13
2023-09-21T18:00	28632	15	-51.6	-85.2	302	13
2023-09-21T18:00	28681	15	-51.8	-85.4	301	12
2023-09-21T18:00	28695	15	-52.0	-85.5	300	11
2023-09-21T18:00	28719	14	-52.0	-85.5	298	11
2023-09-21T18:00	28749	14	-52.0	-85.5	297	10
2023-09-21T18:00	28774	14	-52.2	-85.7	296	10
2023-09-21T18:00	28808	14	-52.2	-85.7	295	10
2023-09-21T18:00	28830	14	-52.0	-86.4	294	10
2023-09-21T18:00	28854	14	-51.7	-86.2	292	10
2023-09-21T18:00	28888	14	-51.7	-86.2	289	10
2023-09-21T18:00	28915	14	-51.5	-86.1	286	9
2023-09-21T18:00	28953	14	-51.1	-85.8	282	9
2023-09-21T18:00	28990	14	-51.0	-85.7	280	9
2023-09-21T18:00	29003	14	-50.9	-85.6	280	9
2023-09-21T18:00	29021	14	-50.9	-85.6	282	9
2023-09-21T18:00	29055	14	-50.3	-85.2	284	9
2023-09-21T18:00	29080	14	-50.2	-85.1	286	9
2023-09-21T18:00	29116	14	-50.4	-85.3	287	10
2023-09-21T18:00	29143	14	-50.5	-85.3	287	10
2023-09-21T18:00	29164	13	-50.3	-85.2	287	10
2023-09-21T18:00	29178	13	-50.3	-85.2	288	11
2023-09-21T18:00	29231	13	-50.3	-85.2	290	11
2023-09-21T18:00	29255	13	-50.2	-85.1	292	11
2023-09-21T18:00	29271	13	-49.8	-84.8	295	11
2023-09-21T18:00	29314	13	-50.0	-85.0	298	10
2023-09-21T18:00	29342	13	-50.2	-85.1	302	10
2023-09-21T18:00	29373	13	-50.4	-85.3	305	9
2023-09-21T18:00	29395	13	-50.6	-85.4	308	9
2023-09-21T18:00	29423	13	-50.7	-85.5	311	8
2023-09-21T18:00	29463	13	-51.0	-84.8	313	8
2023-09-21T18:00	29484	13	-51.2	-85.0	315	7
2023-09-21T18:00	29522	13	-51.4	-86.0	315	6
2023-09-21T18:00	29539	13	-51.1	-85.8	315	5
2023-09-21T18:00	29560	13	-51.1	-85.8	313	5
2023-09-21T18:00	29595	13	-51.1	-85.8	310	4
2023-09-21T18:00	29621	13	-51.2	-85.8	303	4
2023-09-21T18:00	29637	13	-51.4	-86.0	294	4
2023-09-21T18:00	29667	12	-51.4	-86.0	281	4
2023-09-21T18:00	29691	12	-51.5	-86.1	267	4
2023-09-21T18:00	29733	12	-51.6	-86.1	254	5
2023-09-21T18:00	29777	12	-51.5	-86.1	244	5
2023-09-21T18:00	29785	12	-51.3	-85.9	238	6
2023-09-21T18:00	29818	12	-50.9	-85.6	234	7
2023-09-21T18:00	29845	12	-50.9	-85.6	232	8
2023-09-21T18:00	29868	12	-51.0	-85.7	231	9
2023-09-21T18:00	29903	12	-50.9	-85.6	231	10
2023-09-21T18:00	29924	12	-51.1	-85.8	230	11
2023-09-21T18:00	29960	12	-51.1	-85.8	229	12
2023-09-21T18:00	29984	12	-51.0	-85.7	229	12
2023-09-21T18:00	30002	12	-50.5	-85.3	229	13
2023-09-21T18:00	30025	12	-50.2	-86.2	229	13
2023-09-21T18:00	30058	12	-50.1	-86.1	230	13
2023-09-21T18:00	30099	12	-50.0	-86.0	232	12
2023-09-21T18:00	30118	12	-49.5	-85.7	234	12
2023-09-21T18:00	30147	12	-49.4	-85.6	237	12
2023-09-21T18:00	30168	12	-49.5	-85.7	239	13
2023-09-21T18:00	30201	12	-49.3	-85.5	241	13
2023-09-21T18:00	30221	11	-49.1	-85.4	243	14
2023-09-21T18:00	30262	11	-49.1	-85.4	245	15
2023-09-21T18:00	30288	11	-49.2	-85.5	248	15
2023-09-21T18:00	30327	11	-49.2	-85.5	250	15
2023-09-21T18:00	30352	11	-49.2	-85.5	253	15
2023-09-21T18:00	30381	11	-48.9	-85.3	255	15
2023-09-21T18:00	30395	11	-48.7	-85.1	258	15
2023-09-21T18:00	30430	11	-48.4	-84.9	260	15
2023-09-21T18:00	30465	11	-48.4	-84.9	263	14
2023-09-21T18:00	30478	11	-48.0	-84.6	265	14
2023-09-21T18:00	30512	11	-47.7	-84.4	267	14
2023-09-21T18:00	30533	11	-47.6	-84.3	270	14
2023-09-21T18:00	30576	11	-47.7	-84.4	273	13
2023-09-21T18:00	30601	11	-47.7	-84.4	276	13
2023-09-21T18:00	30638	11	-47.9	-84.6	280	13
2023-09-21T18:00	30653	11	-48.0	-84.6	283	12
2023-09-21T18:00	30675	11	-47.9	-84.6	286	12
2023-09-21T18:00	30719	11	-48.0	-84.6	289	12
2023-09-21T18:00	30736	11	-48.0	-84.6	293	12
2023-09-21T18:00	30770	11	-48.0	-84.6	296	12
2023-09-21T18:00	30795	11	-48.0	-84.6	299	13
2023-09-21T18:00	30831	10	-47.9	-84.6	301	13
2023-09-21T18:00	30851	10	-47.9	-84.6	302	14
2023-09-21T18:00	30880	10	-47.9	-84.6	302	14
2023-09-21T18:00	30920	10	-47.8	-84.5	302	14
2023-09-21T18:00	30934	10	-47.5	-84.3	301	14
2023-09-21T18:00	30960	10	-46.8	-83.8	300	14
2023-09-21T18:00	31023	10	-46.8	-83.8	300	13
2023-09-21T18:00	31042	10	-46.8	-83.8	300	12
2023-09-21T18:00	31085	10	-46.9	-83.9	300	11
2023-09-21T18:00	31095	10	-47.0	-83.9	300	10
2023-09-21T18:00	31136	10	-47.2	-84.1	300	10
2023-09-21T18:00	31149	10	-47.3	-84.1	298	9
2023-09-21T18:00	31186	10	-47.4	-84.2	295	8
2023-09-21T18:00	31220	10	-47.5	-84.3	291	7
2023-09-21T18:00	31247	10	-47.5	-84.3	285	7
2023-09-21T18:00	31282	10	-47.6	-84.3	279	7
2023-09-21T18:00	31312	10	-47.7	-84.4	275	7
2023-09-21T18:00	31331	10	-47.7	-84.4	273	7
2023-09-21T18:00	31350	10	-47.6	-84.3	274	7
2023-09-21T18:00	31378	10	-47.7	-84.4	276	7
2023-09-21T18:00	31438	10	-47.8	-84.5	279	7
2023-09-21T18:00	31453	10	-47.8	-84.5	282	7
2023-09-21T18:00	31499	9	-47.9	-84.6	285	7
2023-09-21T18:00	31516	9	-48.0	-84.6	287	8
2023-09-21T18:00	31542	9	-47.7	-84.4	288	9
2023-09-21T18:00	31573	9	-47.8	-84.5	289	10
2023-09-21T18:00	31610	9	-47.8	-84.5	290	12
2023-09-21T18:00	31639	9	-47.6	-84.3	291	13
2023-09-21T18:00	31667	9	-47.5	-84.3	290	15
2023-09-21T18:00	31715	9	-47.4	-84.2	290	16
2023-09-21T18:00	31744	9	-47.4	-84.2	289	17
2023-09-21T18:00	31772	9	-47.4	-84.2	288	18
2023-09-21T18:00	31814	9	-47.2	-84.1	289	19
2023-09-21T18:00	31838	9	-46.9	-83.9	289	19
2023-09-21T18:00	31854	9	-46.5	-83.6	289	19
2023-09-21T18:00	31890	9	-46.4	-83.5	288	19
2023-09-21T18:00	31922	9	-46.4	-83.5	287	19
2023-09-21T18:00	31960	9	-45.8	-83.1	285	19
2023-09-21T18:00	31999	9	-45.7	-83.0	284	19
2023-09-21T18:00	32033	9	-45.6	-82.9	283	19
2023-09-21T18:00	32045	9	-45.6	-82.9	282	19
2023-09-21T18:00	32085	9	-45.7	-83.0	281	18
2023-09-21T18:00	32111	9	-46.0	-83.2	280	18
2023-09-21T18:00	32128	9	-46.2	-83.4	278	18
2023-09-21T18:00	32189	9	-45.9	-83.2	277	17
2023-09-21T18:00	32194	9	-45.8	-83.1	277	17
2023-09-21T18:00	32228	8	-45.7	-83.0	278	16
2023-09-21T18:00	32266	8	-45.6	-82.9	279	16
2023-09-21T18:00	32269	8	-45.6	-82.9	281	16
2023-09-21T18:00	32297	8	-45.8	-83.1	283	15
2023-09-21T18:00	32331	8	-45.9	-83.2	285	15
2023-09-21T18:00	32348	8	-45.9	-83.2	286	15
2023-09-21T18:00	32381	8	-45.9	-83.2	287	14
2023-09-21T18:00	32397	8	-46.1	-83.3	288	14
2023-09-21T18:00	32439	8	-46.1	-83.3	287	13
2023-09-21T18:00	32469	8	-46.1	-83.3	285	13
2023-09-21T18:00	32523	8	-46.1	-83.3	282	13
2023-09-21T18:00	32555	8	-45.7	-83.0	276	13
2023-09-21T18:00	32581	8	-45.5	-82.9	273	14
2023-09-21T18:00	32588	8	-45.5	-82.9	270	15
2023-09-21T18:00	32623	8	-45.6	-82.9	267	16
2023-09-21T18:00	32680	8	-45.6	-82.9	265	17
2023-09-21T18:00	32709	8	-45.6	-82.9	265	19
2023-09-21T18:00	32747	8	-45.7	-83.0	265	20
2023-09-21T18:00	32774	8	-45.8	-83.1	267	20
2023-09-21T18:00	32804	8	-45.8	-83.1	269	21
2023-09-21T18:00	32818	8	-45.8	-83.1	271	22
2023-09-21T18:00	32829	8	-45.9	-83.2	273	22
2023-09-21T18:00	32866	8	-45.8	-83.1	275	22
2023-09-21T18:00	32913	8	-45.5	-82.9	278	22
2023-09-21T18:00	32936	8	-45.1	-82.6	281	22
2023-09-21T18:00	32943	8	-44.6	-82.2	283	22
2023-09-21T18:00	32996	8	-44.3	-82.0	286	22
2023-09-21T18:00	33020	8	-44.1	-81.9	289	22
2023-09-21T18:00	33059	7	-43.8	-81.7	293	22
2023-09-21T18:00	33091	7	-43.6	-81.5	294	22
2023-09-21T18:00	33130	7	-43.5	-81.5	294	21
2023-09-21T18:00	33157	7	-43.7	-81.6	295	20
2023-09-21T18:00	33179	7	-43.8	-81.7	295	20
2023-09-21T18:00	33209	7	-43.6	-81.5	295	19
2023-09-21T18:00	33232	7	-43.5	-81.5	294	18
2023-09-21T18:00	33251	7	-42.9	-81.1	293	17
2023-09-21T18:00	33318	7	-42.5	-80.8	292	16
2023-09-21T18:00	33332	7	-42.6	-80.8	291	16
2023-09-21T18:00	33383	7	-42.6	-80.8	290	15
2023-09-21T18:00	33425	7	-42.5	-80.8	290	15
2023-09-21T18:00	33464	7	-42.2	-80.6	291	16
2023-09-21T18:00	33478	7	-42.1	-80.5	291	17
2023-09-21T18:00	33506	7	-42.2	-80.6	292	17
2023-09-21T18:00	33548	7	-42.2	-80.6	292	18
2023-09-21T18:00	33602	7	-42.2	-80.6	290	20
2023-09-21T18:00	33627	7	-42.1	-80.5	289	20
2023-09-21T18:00	33687	7	-41.7	-80.2	286	21
2023-09-21T18:00	33703	7	-41.6	-80.1	286	21
2023-09-21T18:00	33726	7	-41.6	-80.1	285	21
2023-09-21T18:00	33780	7	-41.6	-80.1	286	21
2023-09-21T18:00	33803	7	-41.3	-79.9	290	21
2023-09-21T18:00	33863	7	-41.2	-79.9	292	21
2023-09-21T18:00	33866	7	-41.1	-79.8	294	20
2023-09-21T18:00	33885	7	-41.2	-79.9	296	20
2023-09-21T18:00	33913	7	-41.2	-79.9	297	19
2023-09-21T18:00	33954	7	-41.1	-79.8	298	18
2023-09-21T18:00	33966	7	-40.6	-79.5	299	17
2023-09-21T18:00	33999	7	-40.4	-79.3	299	16
2023-09-21T18:00	34023	7	-40.3	-79.2	298	14
2023-09-21T18:00	34077	6	-40.2	-79.2	298	13
2023-09-21T18:00	34078	6	-40.2	-79.2	296	12
2023-09-21T18:00	34115	6	-39.9	-79.0	294	11
2023-09-21T18:00	34136	6	-39.8	-78.9	292	11
2023-09-21T18:00	34176	6	-39.7	-78.8	290	10
2023-09-21T18:00	34193	6	-39.6	-78.8	290	10
2023-09-21T18:00	34214	6	-39.5	-78.7	290	10
2023-09-21T18:00	34286	6	-39.4	-78.6	292	11
2023-09-21T18:00	34311	6	-39.2	-78.5	295	12
2023-09-21T18:00	34343	6	-39.2	-78.5	296	13
2023-09-21T18:00	34351	6	-39.3	-78.5	297	13
2023-09-21T18:00	34385	6	-38.9	-78.3	298	14
2023-09-21T18:00	34457	6	-38.8	-78.2	298	14
2023-09-21T18:00	34478	6	-38.5	-78.0	299	15
2023-09-21T18:00	34479	6	-38.3	-77.9	300	16
2023-09-21T18:00	34563	6	-38.4	-77.9	301	17
2023-09-22T00:00	112	986	18.0	14.1	150	3
2023-09-22T00:00	140	983	18.8	14.4	148	4
2023-09-22T00:00	161	980	19.2	14.3	148	6
2023-09-22T00:00	185	978	19.6	14.3	150	8
2023-09-22T00:00	213	974	19.9	14.4	154	9
2023-09-22T00:00	239	972	19.8	14.3	158	10
2023-09-22T00:00	263	969	20.2	14.2	162	11
2023-09-22T00:00	288	966	20.5	14.2	166	11
2023-09-22T00:00	308	964	20.9	14.2	170	11
2023-09-22T00:00	333	961	20.9	14.2	172	11
2023-09-22T00:00	356	958	20.7	14.1	175	10
2023-09-22T00:00	381	956	20.5	14.1	176	10
2023-09-22T00:00	400	954	20.3	14.1	178	10
2023-09-22T00:00	421	951	20.1	14.1	181	10
2023-09-22T00:00	446	948	20.0	14.0	183	11
2023-09-22T00:00	471	946	19.8	13.8	187	11
2023-09-22T00:00	494	943	19.7	13.8	190	12
2023-09-22T00:00	517	941	19.5	13.6	193	12
2023-09-22T00:00	543	938	19.4	13.5	196	12
2023-09-22T00:00	565	935	19.5	13.4	199	12
2023-09-22T00:00	593	933	19.6	12.8	200	12
2023-09-22T00:00	617	930	19.6	12.2	201	11
2023-09-22T00:00	636	928	19.6	11.8	202	11
2023-09-22T00:00	656	926	19.5	11.7	201	10
2023-09-22T00:00	683	923	19.4	11.3	200	10
2023-09-22T00:00	710	920	19.2	11.1	198	9
2023-09-22T00:00	730	918	19.1	10.9	197	9
2023-09-22T00:00	755	915	19.1	10.4	197	9
2023-09-22T00:00	779	913	18.9	10.2	198	9
2023-09-22T00:00	800	910	18.7	10.0	199	10
2023-09-22T00:00	824	908	18.5	9.9	201	10
2023-09-22T00:00	845	905	18.3	9.9	203	10
2023-09-22T00:00	869	903	18.1	9.6	204	10
2023-09-22T00:00	895	900	17.9	9.6	205	10
2023-09-22T00:00	920	898	17.7	9.2	206	10
2023-09-22T00:00	942	895	17.6	9.1	207	10
2023-09-22T00:00	967	893	17.5	9.4	208	10
2023-09-22T00:00	992	890	17.3	9.3	209	10
2023-09-22T00:00	1023	887	17.0	8.9	211	10
2023-09-22T00:00	1048	884	17.0	8.5	215	10
2023-09-22T00:00	1077	881	16.8	8.2	219	10
2023-09-22T00:00	1103	879	16.7	7.7	223	10
2023-09-22T00:00	1129	876	16.7	7.1	226	10
2023-09-22T00:00	1158	873	17.0	4.2	229	10
2023-09-22T00:00	1183	870	17.2	2.4	231	10
2023-09-22T00:00	1212	868	17.3	2.0	231	10
2023-09-22T00:00	1237	865	17.1	2.0	231	10
2023-09-22T00:00	1255	863	16.9	2.7	231	10
2023-09-22T00:00	1278	861	16.8	2.9	232	10
2023-09-22T00:00	1302	858	16.8	1.7	233	10
2023-09-22T00:00	1323	856	16.7	1.4	234	10
2023-09-22T00:00	1347	854	16.6	1.1	236	10
2023-09-22T00:00	1365	852	16.4	0.8	236	10
2023-09-22T00:00	1389	850	16.2	0.6	237	10
2023-09-22T00:00	1411	847	16.1	0.6	237	10
2023-09-22T00:00	1433	845	15.9	1.9	236	10
2023-09-22T00:00	1455	843	15.7	2.2	236	10
2023-09-22T00:00	1477	841	15.5	1.8	237	10
2023-09-22T00:00	1500	839	15.3	1.8	238	10
2023-09-22T00:00	1525	836	15.0	2.6	239	10
2023-09-22T00:00	1549	834	14.8	3.0	241	10
2023-09-22T00:00	1571	832	14.5	3.4	243	10
2023-09-22T00:00	1589	830	14.4	3.8	244	9
2023-09-22T00:00	1611	828	14.2	3.6	245	9
2023-09-22T00:00	1637	825	14.0	3.1	244	9
2023-09-22T00:00	1662	823	13.9	3.4	243	9
2023-09-22T00:00	1690	820	13.7	2.9	242	9
2023-09-22T00:00	1712	818	13.5	2.7	241	9
2023-09-22T00:00	1736	816	13.3	2.4	241	9
2023-09-22T00:00	1754	814	13.2	2.5	240	8
2023-09-22T00:00	1782	811	12.9	3.1	239	8
2023-09-22T00:00	1807	809	12.7	3.6	237	8
2023-09-22T00:00	1825	807	12.5	3.6	235	8
2023-09-22T00:00	1851	804	12.3	3.5	234	8
2023-09-22T00:00	1879	802	12.0	3.3	235	8
2023-09-22T00:00	1902	799	11.9	2.7	237	8
2023-09-22T00:00	1927	797	11.8	2.1	241	8
2023-09-22T00:00	1955	795	11.6	2.1	244	8
2023-09-22T00:00	1973	793	11.6	0.3	247	8
2023-09-22T00:00	1995	791	11.5	0.1	247	8
2023-09-22T00:00	2018	788	11.2	0.3	246	9
2023-09-22T00:00	2047	786	11.0	0.8	243	9
2023-09-22T00:00	2070	784	10.7	1.0	239	9
2023-09-22T00:00	2096	781	10.5	0.7	237	9
2023-09-22T00:00	2120	779	10.4	0.2	235	9
2023-09-22T00:00	2148	776	10.2	-0.5	234	9
2023-09-22T00:00	2176	774	10.0	-1.7	234	9
2023-09-22T00:00	2207	771	9.8	-2.8	235	9
2023-09-22T00:00	2234	768	9.6	-3.1	236	9
2023-09-22T00:00	2251	767	9.5	-3.3	237	8
2023-09-22T00:00	2276	764	9.3	-3.8	237	8
2023-09-22T00:00	2309	761	9.0	-4.3	237	8
2023-09-22T00:00	2339	759	8.8	-5.2	237	8
2023-09-22T00:00	2360	757	8.6	-5.9	237	8
2023-09-22T00:00	2377	755	8.6	-6.7	237	8
2023-09-22T00:00	2401	753	8.4	-6.7	238	8
2023-09-22T00:00	2420	751	8.3	-6.8	238	9
2023-09-22T00:00	2449	749	8.2	-7.4	239	9
2023-09-22T00:00	2475	746	8.1	-9.5	239	9
2023-09-22T00:00	2494	744	8.1	-10.1	240	10
2023-09-22T00:00	2516	742	7.9	-9.4	240	10
2023-09-22T00:00	2542	740	7.7	-8.8	241	9
2023-09-22T00:00	2573	737	7.5	-8.8	241	9
2023-09-22T00:00	2603	735	7.2	-8.2	240	9
2023-09-22T00:00	2629	732	6.9	-6.5	240	8
2023-09-22T00:00	2652	730	6.8	-5.5	240	8
2023-09-22T00:00	2674	728	6.6	-5.0	239	8
2023-09-22T00:00	2701	726	6.5	-4.9	238	8
2023-09-22T00:00	2731	723	6.3	-4.3	237	8
2023-09-22T00:00	2755	721	6.1	-3.4	235	8
2023-09-22T00:00	2781	719	6.0	-3.4	233	8
2023-09-22T00:00	2797	717	5.8	-3.3	230	8
2023-09-22T00:00	2825	715	5.8	-2.1	227	8
2023-09-22T00:00	2853	713	6.4	-4.2	225	8
2023-09-22T00:00	2879	710	6.3	-4.3	222	9
2023-09-22T00:00	2902	708	6.1	-4.4	221	9
2023-09-22T00:00	2924	707	6.0	-4.6	220	10
2023-09-22T00:00	2947	704	5.8	-4.9	220	10
2023-09-22T00:00	2975	702	5.7	-5.3	220	10
2023-09-22T00:00	2993	700	5.6	-5.7	221	10
2023-09-22T00:00	3020	698	5.5	-6.3	222	10
2023-09-22T00:00	3053	696	5.4	-6.6	223	10
2023-09-22T00:00	3072	694	5.2	-6.7	224	10
2023-09-22T00:00	3093	692	5.1	-7.6	226	10
2023-09-22T00:00	3118	690	5.0	-9.1	228	10
2023-09-22T00:00	3139	688	4.9	-9.3	231	10
2023-09-22T00:00	3160	686	4.8	-8.7	233	10
2023-09-22T00:00	3189	684	4.5	-7.8	234	11
2023-09-22T00:00	3211	682	4.4	-7.4	235	12
2023-09-22T00:00	3245	679	4.1	-7.4	235	12
2023-09-22T00:00	3271	677	3.8	-6.9	235	12
2023-09-22T00:00	3298	675	3.5	-7.1	235	11
2023-09-22T00:00	3326	673	3.3	-7.1	236	11
2023-09-22T00:00	3344	671	3.1	-7.3	237	11
2023-09-22T00:00	3369	669	2.9	-7.5	236	11
2023-09-22T00:00	3397	667	2.6	-7.7	234	11
2023-09-22T00:00	3427	664	2.4	-7.8	232	12
2023-09-22T00:00	3452	662	2.1	-8.1	231	12
2023-09-22T00:00	3476	660	1.9	-7.6	230	12
2023-09-22T00:00	3496	659	1.8	-7.3	229	12
2023-09-22T00:00	3515	657	1.6	-7.3	228	11
2023-09-22T00:00	3542	655	1.5	-7.7	227	11
2023-09-22T00:00	3573	652	1.4	-7.5	225	11
2023-09-22T00:00	3597	650	1.2	-7.0	225	11
2023-09-22T00:00	3618	649	1.0	-6.7	224	12
2023-09-22T00:00	3639	647	1.0	-5.7	224	13
2023-09-22T00:00	3669	645	0.8	-4.1	224	14
2023-09-22T00:00	3698	642	0.5	-3.7	224	14
2023-09-22T00:00	3724	640	0.4	-3.6	222	14
2023-09-22T00:00	3743	639	0.5	-4.0	221	13
2023-09-22T00:00	3766	637	0.4	-4.0	219	13
2023-09-22T00:00	3800	634	0.3	-4.4	217	13
2023-09-22T00:00	3830	632	0.1	-4.5	215	12
2023-09-22T00:00	3849	630	0.0	-4.6	214	12
2023-09-22T00:00	3869	629	-0.1	-4.7	213	12
2023-09-22T00:00	3888	627	-0.1	-5.2	213	12
2023-09-22T00:00	3906	626	-0.1	-5.5	213	12
2023-09-22T00:00	3924	624	-0.2	-5.3	214	12
2023-09-22T00:00	3944	623	-0.4	-5.5	214	12
2023-09-22T00:00	3960	621	-0.5	-5.5	213	12
2023-09-22T00:00	3981	620	-0.7	-5.6	212	12
2023-09-22T00:00	4010	618	-0.9	-5.6	212	12
2023-09-22T00:00	4034	616	-1.1	-6.0	212	13
2023-09-22T00:00	4052	614	-1.2	-6.0	213	12
2023-09-22T00:00	4068	613	-1.3	-5.9	215	12
2023-09-22T00:00	4087	612	-1.4	-6.2	216	12
2023-09-22T00:00	4112	610	-1.6	-6.3	218	11
2023-09-22T00:00	4143	607	-1.8	-6.5	218	11
2023-09-22T00:00	4175	605	-2.0	-6.7	218	11
2023-09-22T00:00	4194	603	-2.2	-6.7	217	11
2023-09-22T00:00	4219	602	-2.3	-7.1	216	11
2023-09-22T00:00	4250	599	-2.5	-7.3	214	11
2023-09-22T00:00	4269	598	-2.7	-7.5	213	12
2023-09-22T00:00	4299	596	-2.9	-7.7	211	12
2023-09-22T00:00	4327	594	-3.1	-7.9	210	12
2023-09-22T00:00	4356	591	-3.4	-8.0	209	12
2023-09-22T00:00	4375	590	-3.6	-8.0	209	12
2023-09-22T00:00	4396	588	-3.7	-7.9	208	12
2023-09-22T00:00	4416	587	-3.9	-8.0	207	12
2023-09-22T00:00	4437	585	-4.1	-8.1	206	12
2023-09-22T00:00	4470	583	-4.4	-8.3	206	12
2023-09-22T00:00	4506	580	-4.7	-8.5	205	12
2023-09-22T00:00	4527	579	-4.9	-8.2	204	12
2023-09-22T00:00	4554	577	-5.2	-8.4	203	12
2023-09-22T00:00	4582	575	-5.4	-8.2	201	11
2023-09-22T00:00	4610	573	-5.7	-8.4	200	11
2023-09-22T00:00	4624	572	-5.8	-8.3	200	11
2023-09-22T00:00	4641	570	-5.9	-8.4	201	11
2023-09-22T00:00	4656	569	-6.0	-8.7	202	11
2023-09-22T00:00	4675	568	-6.0	-8.6	203	12
2023-09-22T00:00	4695	566	-6.1	-8.9	204	12
2023-09-22T00:00	4727	564	-6.3	-9.1	205	13
2023-09-22T00:00	4753	562	-6.6	-9.3	205	13
2023-09-22T00:00	4768	561	-6.7	-9.2	205	13
2023-09-22T00:00	4785	560	-6.9	-9.3	205	12
2023-09-22T00:00	4802	559	-7.0	-9.4	204	12
2023-09-22T00:00	4829	557	-7.2	-9.4	204	12
2023-09-22T00:00	4856	555	-7.5	-9.6	203	12
2023-09-22T00:00	4887	553	-7.7	-9.7	203	12
2023-09-22T00:00	4909	551	-8.0	-9.9	203	13
2023-09-22T00:00	4926	550	-8.1	-9.9	203	13
2023-09-22T00:00	4943	549	-8.2	-9.9	203	13
2023-09-22T00:00	4959	548	-8.2	-10.1	203	12
2023-09-22T00:00	4977	546	-8.3	-10.5	203	12
2023-09-22T00:00	4999	545	-8.4	-10.6	203	12
2023-09-22T00:00	5036	542	-8.6	-11.2	202	12
2023-09-22T00:00	5068	540	-8.7	-11.5	201	12
2023-09-22T00:00	5091	538	-8.9	-11.6	199	12
2023-09-22T00:00	5122	536	-9.1	-11.7	197	13
2023-09-22T00:00	5149	534	-9.2	-11.8	195	13
2023-09-22T00:00	5174	533	-9.5	-11.9	193	13
2023-09-22T00:00	5196	531	-9.6	-11.9	192	14
2023-09-22T00:00	5215	530	-9.8	-12.1	191	14
2023-09-22T00:00	5232	529	-9.8	-12.2	191	13
2023-09-22T00:00	5259	527	-9.9	-12.5	190	13
2023-09-22T00:00	5297	524	-10.1	-12.7	190	13
2023-09-22T00:00	5333	522	-10.4	-13.1	189	12
2023-09-22T00:00	5348	521	-10.5	-13.1	189	12
2023-09-22T00:00	5369	519	-10.7	-13.3	188	12
2023-09-22T00:00	5386	518	-10.8	-13.3	188	12
2023-09-22T00:00	5405	517	-11.0	-13.5	188	12
2023-09-22T00:00	5427	515	-11.1	-13.7	188	11
2023-09-22T00:00	5456	513	-11.3	-13.9	188	11
2023-09-22T00:00	5492	511	-11.5	-13.5	188	11
2023-09-22T00:00	5512	510	-11.7	-13.6	188	10
2023-09-22T00:00	5532	508	-11.8	-13.5	188	11
2023-09-22T00:00	5547	507	-12.0	-13.6	188	11
2023-09-22T00:00	5563	506	-12.1	-13.6	189	12
2023-09-22T00:00	5583	505	-12.3	-13.7	189	13
2023-09-22T00:00	5606	503	-12.4	-13.7	189	13
2023-09-22T00:00	5639	501	-12.7	-13.8	190	13
2023-09-22T00:00	5663	500	-13.0	-13.9	191	13
2023-09-22T00:00	5686	498	-13.1	-14.0	192	14
2023-09-22T00:00	5723	496	-13.4	-14.4	193	14
2023-09-22T00:00	5753	494	-13.6	-14.4	194	14
2023-09-22T00:00	5773	493	-13.8	-14.6	193	14
2023-09-22T00:00	5792	491	-13.9	-14.8	192	14
2023-09-22T00:00	5809	490	-14.0	-15.0	190	14
2023-09-22T00:00	5825	489	-14.1	-15.1	190	14
2023-09-22T00:00	5843	488	-14.3	-15.3	190	14
2023-09-22T00:00	5860	487	-14.3	-15.6	190	14
2023-09-22T00:00	5877	486	-14.3	-16.3	191	14
2023-09-22T00:00	5895	485	-14.3	-16.5	190	14
2023-09-22T00:00	5913	484	-14.4	-16.7	189	14
2023-09-22T00:00	5933	482	-14.6	-16.9	187	14
2023-09-22T00:00	5965	480	-14.8	-17.2	185	14
2023-09-22T00:00	5994	479	-15.0	-17.3	183	14
2023-09-22T00:00	6015	477	-15.1	-17.6	183	14
2023-09-22T00:00	6036	476	-15.2	-17.9	184	14
2023-09-22T00:00	6059	474	-15.3	-18.3	187	14
2023-09-22T00:00	6095	472	-15.6	-18.7	189	13
2023-09-22T00:00	6124	470	-15.8	-19.0	191	13
2023-09-22T00:00	6150	469	-15.9	-19.2	191	13
2023-09-22T00:00	6167	468	-16.0	-19.1	190	14
2023-09-22T00:00	6187	466	-16.2	-19.3	188	14
2023-09-22T00:00	6203	465	-16.3	-19.5	187	15
2023-09-22T00:00	6221	464	-16.4	-19.6	186	15
2023-09-22T00:00	6242	463	-16.6	-19.8	185	15
2023-09-22T00:00	6263	462	-16.8	-19.9	184	15
2023-09-22T00:00	6289	460	-17.0	-20.0	182	15
2023-09-22T00:00	6318	458	-17.3	-20.1	181	15
2023-09-22T00:00	6349	456	-17.6	-20.3	181	15
2023-09-22T00:00	6382	455	-17.9	-20.4	181	15
2023-09-22T00:00	6405	453	-18.1	-20.7	183	15
2023-09-22T00:00	6428	452	-18.3	-21.2	185	15
2023-09-22T00:00	6451	450	-18.4	-21.3	188	15
2023-09-22T00:00	6479	449	-18.6	-21.9	191	15
2023-09-22T00:00	6506	447	-18.8	-23.0	194	15
2023-09-22T00:00	6537	445	-18.9	-25.3	196	16
2023-09-22T00:00	6574	443	-18.9	-27.7	197	16
2023-09-22T00:00	6601	441	-19.0	-28.4	198	16
2023-09-22T00:00	6620	440	-19.2	-26.3	198	15
2023-09-22T00:00	6638	439	-19.3	-26.1	197	15
2023-09-22T00:00	6657	438	-19.4	-25.5	196	15
2023-09-22T00:00	6675	437	-19.5	-25.5	195	15
2023-09-22T00:00	6695	436	-19.7	-26.4	195	15
2023-09-22T00:00	6715	435	-19.7	-27.5	195	15
2023-09-22T00:00	6736	433	-19.6	-25.9	196	15
2023-09-22T00:00	6766	431	-19.7	-24.9	196	16
2023-09-22T00:00	6805	429	-20.0	-24.9	197	16
2023-09-22T00:00	6834	428	-20.1	-25.0	197	17
2023-09-22T00:00	6848	427	-20.1	-25.2	198	17
2023-09-22T00:00	6870	426	-20.2	-25.3	198	17
2023-09-22T00:00	6888	424	-20.4	-25.4	198	17
2023-09-22T00:00	6913	423	-20.5	-25.5	198	16
2023-09-22T00:00	6943	421	-20.8	-25.9	198	16
2023-09-22T00:00	6974	420	-21.0	-26.2	198	16
2023-09-22T00:00	6994	419	-21.2	-26.4	197	16
2023-09-22T00:00	7015	417	-21.4	-26.4	197	16
2023-09-22T00:00	7040	416	-21.6	-26.8	196	16
2023-09-22T00:00	7077	414	-21.9	-27.4	196	16
2023-09-22T00:00	7112	412	-22.1	-28.2	196	17
2023-09-22T00:00	7131	411	-22.1	-29.8	197	17
2023-09-22T00:00	7149	410	-22.0	-31.6	198	17
2023-09-22T00:00	7165	409	-22.1	-31.8	200	17
2023-09-22T00:00	7183	408	-22.2	-31.4	201	17
2023-09-22T00:00	7202	407	-22.4	-31.5	200	17
2023-09-22T00:00	7223	406	-22.6	-31.6	200	18
2023-09-22T00:00	7246	404	-22.8	-31.2	199	18
2023-09-22T00:00	7280	403	-23.1	-31.1	198	18
2023-09-22T00:00	7303	401	-23.2	-31.3	198	18
2023-09-22T00:00	7323	400	-23.4	-31.3	198	18
2023-09-22T00:00	7344	399	-23.6	-31.3	198	18
2023-09-22T00:00	7371	398	-23.8	-31.3	199	18
2023-09-22T00:00	7398	396	-24.0	-31.0	200	18
2023-09-22T00:00	7428	395	-24.3	-29.8	201	18
2023-09-22T00:00	7453	393	-24.6	-29.3	202	18
2023-09-22T00:00	7481	392	-24.8	-29.1	202	19
2023-09-22T00:00	7509	390	-25.1	-29.0	201	19
2023-09-22T00:00	7535	389	-25.3	-29.0	199	18
2023-09-22T00:00	7559	387	-25.5	-29.0	198	18
2023-09-22T00:00	7585	386	-25.7	-29.0	198	17
2023-09-22T00:00	7612	385	-25.8	-28.5	199	17
2023-09-22T00:00	7645	383	-26.1	-28.1	200	16
2023-09-22T00:00	7679	381	-26.2	-27.4	202	16
2023-09-22T00:00	7695	380	-26.2	-27.8	204	16
2023-09-22T00:00	7711	379	-26.3	-27.9	205	16
2023-09-22T00:00	7729	378	-26.2	-28.0	204	16
2023-09-22T00:00	7749	377	-26.2	-28.2	204	16
2023-09-22T00:00	7767	376	-26.3	-28.3	204	17
2023-09-22T00:00	7785	376	-26.3	-28.2	205	17
2023-09-22T00:00	7805	374	-26.5	-28.3	206	17
2023-09-22T00:00	7836	373	-26.6	-28.9	207	16
2023-09-22T00:00	7861	372	-26.8	-29.4	207	16
2023-09-22T00:00	7879	371	-26.8	-29.6	208	16
2023-09-22T00:00	7909	369	-27.0	-29.9	209	15
2023-09-22T00:00	7927	368	-27.1	-30.1	210	15
2023-09-22T00:00	7945	367	-27.3	-30.1	211	15
2023-09-22T00:00	7966	366	-27.5	-30.0	212	16
2023-09-22T00:00	7984	365	-27.7	-30.1	212	16
2023-09-22T00:00	8003	364	-27.9	-30.3	212	16
2023-09-22T00:00	8022	363	-28.0	-30.3	213	16
2023-09-22T00:00	8041	362	-28.2	-30.4	213	16
2023-09-22T00:00	8060	361	-28.4	-30.5	213	16
2023-09-22T00:00	8078	361	-28.6	-30.5	213	16
2023-09-22T00:00	8098	360	-28.7	-30.6	212	16
2023-09-22T00:00	8117	359	-28.9	-30.6	212	16
2023-09-22T00:00	8138	358	-29.1	-30.7	211	16
2023-09-22T00:00	8158	357	-29.3	-30.8	211	16
2023-09-22T00:00	8178	356	-29.5	-30.9	210	16
2023-09-22T00:00	8198	355	-29.7	-31.2	210	16
2023-09-22T00:00	8218	354	-29.8	-31.4	210	16
2023-09-22T00:00	8240	352	-30.0	-31.9	210	16
2023-09-22T00:00	8260	351	-30.2	-31.9	210	16
2023-09-22T00:00	8279	351	-30.1	-36.2	209	16
2023-09-22T00:00	8301	349	-30.1	-39.4	209	16
2023-09-22T00:00	8322	348	-30.2	-39.2	209	16
2023-09-22T00:00	8344	347	-30.3	-38.8	209	17
2023-09-22T00:00	8366	346	-30.5	-38.5	209	17
2023-09-22T00:00	8391	345	-30.7	-38.6	209	17
2023-09-22T00:00	8413	344	-30.9	-38.6	208	18
2023-09-22T00:00	8433	343	-31.0	-39.1	208	18
2023-09-22T00:00	8456	342	-31.1	-39.9	207	18
2023-09-22T00:00	8479	341	-31.3	-40.4	206	18
2023-09-22T00:00	8502	340	-31.5	-40.4	206	18
2023-09-22T00:00	8525	339	-31.6	-40.2	206	18
2023-09-22T00:00	8553	337	-31.9	-40.2	207	18
2023-09-22T00:00	8580	336	-32.2	-40.3	207	18
2023-09-22T00:00	8610	335	-32.4	-40.3	207	19
2023-09-22T00:00	8631	334	-32.6	-40.4	206	19
2023-09-22T00:00	8654	333	-32.9	-40.6	206	19
2023-09-22T00:00	8673	332	-33.0	-40.6	206	19
2023-09-22T00:00	8695	330	-33.2	-40.7	205	19
2023-09-22T00:00	8721	329	-33.4	-40.7	205	19
2023-09-22T00:00	8742	328	-33.6	-41.7	204	19
2023-09-22T00:00	8767	327	-33.8	-42.3	204	19
2023-09-22T00:00	8791	326	-34.0	-42.4	204	19
2023-09-22T00:00	8813	325	-34.2	-42.5	204	19
2023-09-22T00:00	8838	324	-34.4	-42.5	205	19
2023-09-22T00:00	8861	323	-34.6	-42.3	205	19
2023-09-22T00:00	8886	322	-34.9	-42.3	205	19
2023-09-22T00:00	8908	321	-35.1	-42.3	204	19
2023-09-22T00:00	8930	320	-35.3	-43.3	204	19
2023-09-22T00:00	8952	319	-35.4	-43.8	203	19
2023-09-22T00:00	8974	318	-35.5	-43.5	202	19
2023-09-22T00:00	8994	317	-35.6	-45.9	202	19
2023-09-22T00:00	9013	316	-35.7	-45.5	201	19
2023-09-22T00:00	9032	315	-35.9	-44.5	200	19
2023-09-22T00:00	9052	314	-36.0	-44.4	200	19
2023-09-22T00:00	9072	313	-36.2	-44.3	200	19
2023-09-22T00:00	9090	312	-36.4	-44.2	200	18
2023-09-22T00:00	9111	311	-36.5	-45.0	201	18
2023-09-22T00:00	9134	310	-36.7	-46.7	201	18
2023-09-22T00:00	9154	309	-36.8	-47.3	202	18
2023-09-22T00:00	9173	309	-37.0	-48.1	202	18
2023-09-22T00:00	9193	308	-37.2	-48.1	202	18
2023-09-22T00:00	9213	307	-37.3	-48.1	201	18
2023-09-22T00:00	9232	306	-37.5	-48.0	201	18
2023-09-22T00:00	9252	305	-37.7	-48.3	202	18
2023-09-22T00:00	9269	304	-37.9	-48.4	202	18
2023-09-22T00:00	9293	303	-38.1	-48.5	203	18
2023-09-22T00:00	9311	302	-38.3	-48.7	203	17
2023-09-22T00:00	9332	302	-38.5	-49.1	203	17
2023-09-22T00:00	9351	301	-38.7	-49.8	204	17
2023-09-22T00:00	9370	300	-38.8	-49.9	204	17
2023-09-22T00:00	9389	299	-39.0	-50.1	204	17
2023-09-22T00:00	9409	298	-39.2	-50.2	204	17
2023-09-22T00:00	9428	297	-39.4	-50.4	204	17
2023-09-22T00:00	9446	297	-39.6	-50.5	203	17
2023-09-22T00:00	9467	296	-39.8	-50.5	203	17
2023-09-22T00:00	9484	295	-39.9	-50.4	203	17
2023-09-22T00:00	9503	294	-40.1	-50.4	203	17
2023-09-22T00:00	9520	293	-40.3	-50.3	203	17
2023-09-22T00:00	9538	293	-40.4	-50.4	203	17
2023-09-22T00:00	9561	292	-40.6	-50.5	202	18
2023-09-22T00:00	9583	291	-40.8	-50.5	201	17
2023-09-22T00:00	9602	290	-41.0	-50.6	200	17
2023-09-22T00:00	9621	289	-41.2	-50.7	200	17
2023-09-22T00:00	9641	288	-41.3	-50.9	199	17
2023-09-22T00:00	9661	287	-41.4	-51.6	199	17
2023-09-22T00:00	9682	287	-41.6	-52.5	200	16
2023-09-22T00:00	9702	286	-41.7	-52.8	200	16
2023-09-22T00:00	9723	285	-41.9	-53.3	201	16
2023-09-22T00:00	9748	284	-42.1	-54.2	202	16
2023-09-22T00:00	9780	282	-42.3	-55.4	205	16
2023-09-22T00:00	9814	281	-42.6	-55.5	208	16
2023-09-22T00:00	9841	280	-42.9	-55.8	210	16
2023-09-22T00:00	9859	279	-43.1	-56.0	212	16
2023-09-22T00:00	9883	278	-43.3	-56.0	214	16
2023-09-22T00:00	9903	277	-43.5	-56.0	214	16
2023-09-22T00:00	9931	276	-43.7	-56.1	215	16
2023-09-22T00:00	9963	275	-44.0	-56.5	216	16
2023-09-22T00:00	9981	274	-44.2	-56.8	216	17
2023-09-22T00:00	10007	273	-44.4	-56.9	216	17
2023-09-22T00:00	10035	272	-44.6	-57.0	215	17
2023-09-22T00:00	10068	271	-44.9	-57.1	214	17
2023-09-22T00:00	10090	270	-45.0	-57.0	212	17
2023-09-22T00:00	10112	269	-45.2	-57.0	211	17
2023-09-22T00:00	10141	268	-45.5	-56.9	210	18
2023-09-22T00:00	10164	267	-45.7	-57.0	209	18
2023-09-22T00:00	10188	266	-45.9	-57.0	210	18
2023-09-22T00:00	10215	265	-46.2	-57.1	213	18
2023-09-22T00:00	10238	264	-46.4	-57.0	215	18
2023-09-22T00:00	10269	262	-46.7	-57.0	218	18
2023-09-22T00:00	10295	261	-47.0	-57.1	220	18
2023-09-22T00:00	10327	260	-47.2	-57.1	220	19
2023-09-22T00:00	10347	259	-47.5	-57.2	220	19
2023-09-22T00:00	10377	258	-47.8	-57.2	220	19
2023-09-22T00:00	10408	257	-48.0	-57.2	219	20
2023-09-22T00:00	10441	256	-48.3	-57.3	219	20
2023-09-22T00:00	10462	255	-48.5	-57.3	219	21
2023-09-22T00:00	10496	254	-48.8	-57.4	219	22
2023-09-22T00:00	10524	252	-49.0	-57.6	219	22
2023-09-22T00:00	10552	252	-49.2	-57.7	220	23
2023-09-22T00:00	10565	251	-49.4	-57.8	221	23
2023-09-22T00:00	10586	250	-49.6	-57.8	221	23
2023-09-22T00:00	10605	249	-49.7	-57.8	222	23
2023-09-22T00:00	10625	249	-49.9	-57.9	222	23
2023-09-22T00:00	10644	248	-50.1	-58.0	222	22
2023-09-22T00:00	10663	247	-50.3	-58.1	223	22
2023-09-22T00:00	10685	246	-50.5	-57.9	223	23
2023-09-22T00:00	10708	246	-50.7	-57.8	223	23
2023-09-22T00:00	10729	245	-50.9	-58.0	223	23
2023-09-22T00:00	10748	244	-51.1	-58.1	223	23
2023-09-22T00:00	10768	243	-51.2	-58.2	224	23
2023-09-22T00:00	10787	243	-51.4	-58.4	224	23
2023-09-22T00:00	10805	242	-51.6	-58.9	224	23
2023-09-22T00:00	10823	241	-51.7	-59.2	224	23
2023-09-22T00:00	10845	240	-51.9	-59.5	225	24
2023-09-22T00:00	10866	239	-52.0	-59.7	225	24
2023-09-22T00:00	10903	238	-52.3	-59.7	225	24
2023-09-22T00:00	10919	238	-52.4	-59.5	225	24
2023-09-22T00:00	10938	237	-52.5	-59.4	225	23
2023-09-22T00:00	10959	236	-52.7	-59.4	224	23
2023-09-22T00:00	10983	235	-52.9	-59.3	223	22
2023-09-22T00:00	11003	234	-53.1	-59.4	221	21
2023-09-22T00:00	11045	233	-53.5	-59.7	220	21
2023-09-22T00:00	11079	232	-53.8	-60.0	220	20
2023-09-22T00:00	11105	231	-54.0	-60.4	220	20
2023-09-22T00:00	11135	230	-54.3	-60.5	220	20
2023-09-22T00:00	11174	228	-54.7	-60.7	220	21
2023-09-22T00:00	11207	227	-55.0	-60.7	220	21
2023-09-22T00:00	11233	226	-55.2	-60.7	219	21
2023-09-22T00:00	11255	226	-55.4	-60.7	218	21
2023-09-22T00:00	11276	225	-55.6	-60.7	217	21
2023-09-22T00:00	11300	224	-55.9	-60.8	216	21
2023-09-22T00:00	11322	223	-56.1	-60.9	215	21
2023-09-22T00:00	11343	222	-56.3	-60.9	214	21
2023-09-22T00:00	11364	222	-56.5		214	21
2023-09-22T00:00	11387	221	-56.7	-61.0	213	21
2023-09-22T00:00	11409	220	-56.9	-61.0	213	21
2023-09-22T00:00	11433	219	-57.1	-61.1	212	21
2023-09-22T00:00	11456	219	-57.4	-61.3	212	21
2023-09-22T00:00	11479	218	-57.6	-61.4	211	21
2023-09-22T00:00	11500	217	-57.7	-61.5	211	21
2023-09-22T00:00	11520	216	-57.9	-61.7	210	22
2023-09-22T00:00	11541	216	-58.1	-62.0	209	22
2023-09-22T00:00	11563	215	-58.2	-62.3	209	22
2023-09-22T00:00	11585	214	-58.3	-62.7	208	23
2023-09-22T00:00	11604	213	-58.2	-62.8	207	23
2023-09-22T00:00	11624	213	-58.2	-62.9	207	24
2023-09-22T00:00	11644	212	-58.3	-63.0	206	24
2023-09-22T00:00	11664	211	-58.4	-63.1	206	24
2023-09-22T00:00	11681	211	-58.5	-63.1	206	24
2023-09-22T00:00	11702	210	-58.4	-63.1	206	24
2023-09-22T00:00	11720	210	-58.4	-63.0	205	23
2023-09-22T00:00	11740	209	-58.4	-62.8	205	23
2023-09-22T00:00	11761	208	-58.3	-62.6	204	22
2023-09-22T00:00	11784	207	-58.1	-62.7	202	22
2023-09-22T00:00	11815	206	-57.3	-62.6	200	21
2023-09-22T00:00	11839	206	-56.9	-63.1	197	21
2023-09-22T00:00	11868	205	-56.8	-63.7	194	21
2023-09-22T00:00	11886	204	-56.9	-64.1	191	20
2023-09-22T00:00	11912	203	-57.1	-64.3	190	20
2023-09-22T00:00	11942	202	-57.3	-64.5	189	20
2023-09-22T00:00	11974	201	-57.6	-64.6	188	20
2023-09-22T00:00	11992	201	-57.7	-64.6	188	20
2023-09-22T00:00	12009	200	-57.9	-64.8	189	20
2023-09-22T00:00	12032	199	-58.1	-65.1	189	21
2023-09-22T00:00	12052	199	-58.2	-65.5	190	21
2023-09-22T00:00	12070	198	-58.3	-66.1	191	22
2023-09-22T00:00	12091	198	-58.2	-66.7	193	22
2023-09-22T00:00	12109	197	-58.0	-67.3	194	22
2023-09-22T00:00	12124	196	-57.7	-67.6	195	23
2023-09-22T00:00	12145	196	-57.1	-67.4	197	23
2023-09-22T00:00	12164	195	-57.1	-67.4	198	23
2023-09-22T00:00	12181	195	-57.1	-67.2	198	24
2023-09-22T00:00	12199	194	-57.2	-67.2	199	24
2023-09-22T00:00	12219	194	-57.2	-67.2	199	24
2023-09-22T00:00	12237	193	-57.4	-67.3	199	24
2023-09-22T00:00	12256	192	-57.4	-67.3	200	24
2023-09-22T00:00	12277	192	-57.4	-67.3	200	24
2023-09-22T00:00	12298	191	-57.5	-67.4	201	24
2023-09-22T00:00	12316	191	-57.7	-67.5	201	23
2023-09-22T00:00	12335	190	-57.8	-67.6	201	23
2023-09-22T00:00	12357	189	-57.9	-68.0	200	22
2023-09-22T00:00	12389	188	-57.7	-68.3	200	22
2023-09-22T00:00	12416	188	-57.3	-68.6	198	21
2023-09-22T00:00	12435	187	-57.3	-69.1	197	21
2023-09-22T00:00	12454	187	-57.2	-69.5	196	20
2023-09-22T00:00	12475	186	-57.2	-69.8	195	20
2023-09-22T00:00	12495	185	-57.2	-69.9	194	20
2023-09-22T00:00	12516	185	-57.3	-70.2	193	20
2023-09-22T00:00	12535	184	-57.4	-70.3	193	20
2023-09-22T00:00	12556	184	-57.6	-70.4	192	20
2023-09-22T00:00	12577	183	-57.8	-70.5	192	21
2023-09-22T00:00	12597	182	-58.0	-70.6	192	21
2023-09-22T00:00	12618	182	-58.2	-70.8	192	21
2023-09-22T00:00	12639	181	-58.2	-71.0	192	22
2023-09-22T00:00	12659	181	-58.2	-71.3	192	22
2023-09-22T00:00	12680	180	-58.0	-71.8	192	22
2023-09-22T00:00	12699	179	-57.7	-72.4	191	21
2023-09-22T00:00	12720	179	-57.4	-73.2	190	21
2023-09-22T00:00	12742	178	-56.4	-73.7	189	21
2023-09-22T00:00	12762	178	-55.8	-74.5	188	21
2023-09-22T00:00	12781	177	-55.7	-75.3	187	21
2023-09-22T00:00	12803	177	-55.8	-75.8	187	22
2023-09-22T00:00	12826	176	-56.0	-76.0	188	22
2023-09-22T00:00	12845	175	-56.2	-76.1	188	22
2023-09-22T00:00	12867	175	-56.3	-76.2	189	23
2023-09-22T00:00	12888	174	-56.3	-76.2	190	23
2023-09-22T00:00	12908	174	-56.4	-76.4	191	24
2023-09-22T00:00	12926	173	-56.5	-76.6	192	24
2023-09-22T00:00	12946	173	-56.4	-76.8	193	24
2023-09-22T00:00	12965	172	-56.2	-77.0	194	24
2023-09-22T00:00	12983	172	-55.7	-77.1	196	24
2023-09-22T00:00	13004	171	-55.4	-77.4	197	24
2023-09-22T00:00	13023	171	-54.9	-77.5	199	24
2023-09-22T00:00	13042	170	-54.7	-77.8	200	24
2023-09-22T00:00	13060	170	-54.5	-78.0	201	24
2023-09-22T00:00	13078	169	-54.2	-78.1	201	23
2023-09-22T00:00	13097	169	-53.9	-78.3	201	23
2023-09-22T00:00	13116	168	-53.5	-78.4	202	23
2023-09-22T00:00	13136	168	-53.2	-78.4	202	22
2023-09-22T00:00	13152	167	-52.9	-78.4	202	22
2023-09-22T00:00	13171	167	-52.9	-78.6	202	21
2023-09-22T00:00	13189	166	-53.0	-78.7	202	21
2023-09-22T00:00	13211	166	-53.1	-78.8	202	20
2023-09-22T00:00	13230	165	-53.2	-78.9	202	20
2023-09-22T00:00	13249	165	-53.1	-79.0	202	20
2023-09-22T00:00	13268	164	-53.1	-79.0	201	20
2023-09-22T00:00	13288	164	-53.2	-79.4	200	20
2023-09-22T00:00	13307	163	-53.1	-79.3	198	20
2023-09-22T00:00	13328	163	-52.8	-79.3	197	20
2023-09-22T00:00	13346	162	-52.7	-79.3	195	20
2023-09-22T00:00	13368	162	-52.9	-79.7	194	20
2023-09-22T00:00	13388	161	-53.0	-79.8	193	21
2023-09-22T00:00	13410	161	-52.9	-79.7	192	21
2023-09-22T00:00	13430	160	-52.9	-79.7	191	21
2023-09-22T00:00	13451	160	-53.1	-79.9	190	21
2023-09-22T00:00	13472	159	-53.1	-79.9	189	21
2023-09-22T00:00	13489	159	-53.1	-79.9	189	22
2023-09-22T00:00	13512	158	-53.2	-79.9	189	22
2023-09-22T00:00	13531	158	-53.3	-80.0	189	22
2023-09-22T00:00	13552	157	-53.4	-80.1	190	22
2023-09-22T00:00	13572	157	-53.6	-80.2	191	21
2023-09-22T00:00	13595	156	-53.7	-80.3	192	21
2023-09-22T00:00	13615	156	-53.8	-80.4	193	21
2023-09-22T00:00	13635	155	-53.8	-80.4	194	21
2023-09-22T00:00	13657	155	-53.7	-80.6	194	21
2023-09-22T00:00	13678	154	-53.6	-80.5	194	21
2023-09-22T00:00	13700	153	-53.6	-80.5	194	21
2023-09-22T00:00	13721	153	-53.7	-80.6	193	21
2023-09-22T00:00	13743	152	-53.8	-80.7	193	21
2023-09-22T00:00	13764	152	-54.0	-80.9	193	21
2023-09-22T00:00	13785	151	-54.1	-80.9	194	21
2023-09-22T00:00	13807	151	-54.3	-80.8	194	21
2023-09-22T00:00	13828	150	-54.5	-80.9	195	21
2023-09-22T00:00	13851	150	-54.7	-81.1	195	21
2023-09-22T00:00	13873	149	-54.8	-80.9	196	21
2023-09-22T00:00	13895	149	-55.0	-81.1	197	20
2023-09-22T00:00	13917	148	-55.1	-81.1	198	20
2023-09-22T00:00	13940	148	-55.2	-81.2	198	20
2023-09-22T00:00	13966	147	-55.4	-81.4	199	20
2023-09-22T00:00	13989	147	-55.6	-81.3	199	20
2023-09-22T00:00	14013	146	-55.8	-81.4	200	20
2023-09-22T00:00	14037	146	-56.1	-81.4	201	20
2023-09-22T00:00	14064	145	-56.3	-81.5	202	20
2023-09-22T00:00	14090	144	-56.6	-81.8	203	20
2023-09-22T00:00	14115	144	-56.8	-81.9	204	20
2023-09-22T00:00	14139	143	-56.9	-82.0	204	19
2023-09-22T00:00	14160	143	-56.9	-82.0	204	19
2023-09-22T00:00	14178	142	-56.6	-81.8	203	19
2023-09-22T00:00	14199	142	-56.5	-82.0	202	19
2023-09-22T00:00	14219	141	-56.6	-82.0	202	19
2023-09-22T00:00	14240	141	-56.7	-81.9	201	19
2023-09-22T00:00	14258	141	-56.9	-82.0	202	19
2023-09-22T00:00	14281	140	-57.0	-81.8	202	19
2023-09-22T00:00	14302	140	-57.2	-82.0	202	19
2023-09-22T00:00	14323	139	-57.4	-82.2	202	20
2023-09-22T00:00	14344	139	-57.5	-82.2	202	20
2023-09-22T00:00	14364	138	-57.6	-82.1	202	20
2023-09-22T00:00	14384	138	-57.7	-82.2	202	20
2023-09-22T00:00	14405	137	-57.8	-82.2	202	20
2023-09-22T00:00	14427	137	-58.0	-82.2	202	20
2023-09-22T00:00	14446	136	-58.2	-82.3	202	20
2023-09-22T00:00	14467	136	-58.4	-82.3	202	20
2023-09-22T00:00	14484	136	-58.5	-82.1	203	20
2023-09-22T00:00	14507	135	-58.7	-82.3	203	20
2023-09-22T00:00	14525	135	-58.8	-82.2	204	21
2023-09-22T00:00	14546	134	-58.8	-82.4	205	21
2023-09-22T00:00	14564	134	-58.8	-82.4	206	21
2023-09-22T00:00	14585	134	-58.7	-82.3	207	21
2023-09-22T00:00	14602	133	-58.5	-82.1	207	21
2023-09-22T00:00	14622	133	-58.3	-82.2	208	20
2023-09-22T00:00	14641	132	-58.4	-82.3	208	20
2023-09-22T00:00	14661	132	-58.4	-82.3	208	20
2023-09-22T00:00	14679	132	-58.4	-82.3	208	19
2023-09-22T00:00	14699	131	-58.4	-82.3	208	19
2023-09-22T00:00	14721	131	-58.4	-82.5	208	19
2023-09-22T00:00	14739	130	-58.4	-82.5	207	19
2023-09-22T00:00	14758	130	-58.2	-82.6	206	19
2023-09-22T00:00	14778	129	-58.3	-82.6	205	18
2023-09-22T00:00	14797	129	-58.3	-82.6	204	18
2023-09-22T00:00	14817	129	-58.1	-82.5	204	18
2023-09-22T00:00	14837	128	-58.2	-82.6	204	18
2023-09-22T00:00	14855	128	-58.3	-82.4	204	18
2023-09-22T00:00	14874	128	-58.2	-82.3	205	18
2023-09-22T00:00	14893	127	-58.2	-82.3	205	18
2023-09-22T00:00	14909	127	-58.3	-82.4	205	18
2023-09-22T00:00	14929	126	-58.3	-82.4	205	17
2023-09-22T00:00	14948	126	-58.4	-82.5	205	17
2023-09-22T00:00	14969	126	-58.5	-82.6	203	17
2023-09-22T00:00	14986	125	-58.4	-82.5	202	17
2023-09-22T00:00	15008	125	-58.4	-82.5	201	17
2023-09-22T00:00	15027	124	-58.4	-82.5	200	18
2023-09-22T00:00	15045	124	-58.6	-82.7	199	18
2023-09-22T00:00	15063	124	-58.6	-82.7	199	18
2023-09-22T00:00	15084	123	-58.6	-82.9	200	18
2023-09-22T00:00	15100	123	-58.7	-83.0	201	18
2023-09-22T00:00	15118	123	-58.8	-83.3	203	18
2023-09-22T00:00	15139	122	-58.5	-83.0	204	18
2023-09-22T00:00	15158	122	-58.5	-83.3	206	18
2023-09-22T00:00	15177	122	-58.4	-83.4	207	18
2023-09-22T00:00	15196	121	-58.0	-83.4	207	18
2023-09-22T00:00	15215	121	-58.0	-83.4	207	18
2023-09-22T00:00	15233	120	-57.6	-83.3	207	18
2023-09-22T00:00	15253	120	-57.7	-83.4	206	18
2023-09-22T00:00	15272	120	-57.5	-83.3	205	18
2023-09-22T00:00	15294	119	-57.3	-83.4	205	19
2023-09-22T00:00	15311	119	-57.4	-83.5	204	19
2023-09-22T00:00	15331	119	-57.5	-83.6	204	19
2023-09-22T00:00	15351	118	-57.7	-83.7	204	19
2023-09-22T00:00	15370	118	-57.8	-83.8	205	19
2023-09-22T00:00	15392	117	-57.9	-83.9	205	19
2023-09-22T00:00	15412	117	-57.8	-83.8	206	18
2023-09-22T00:00	15432	117	-57.6	-83.6	207	18
2023-09-22T00:00	15454	116	-57.7	-83.7	208	17
2023-09-22T00:00	15473	116	-57.8	-84.1	208	16
2023-09-22T00:00	15496	116	-57.7	-84.0	209	16
2023-09-22T00:00	15515	115	-57.8	-84.1	211	15
2023-09-22T00:00	15533	115	-57.7	-84.0	212	15
2023-09-22T00:00	15554	114	-57.5	-83.9	213	14
2023-09-22T00:00	15577	114	-57.6	-83.9	214	14
2023-09-22T00:00	15596	114	-57.7	-84.0	214	13
2023-09-22T00:00	15618	113	-57.8	-84.4	214	13
2023-09-22T00:00	15639	113	-57.7	-84.3	214	13
2023-09-22T00:00	15659	113	-57.5	-84.2	214	12
2023-09-22T00:00	15680	112	-57.6	-84.3	214	12
2023-09-22T00:00	15697	112	-57.6	-84.3	215	12
2023-09-22T00:00	15720	112	-57.7	-84.3	216	11
2023-09-22T00:00	15741	111	-57.8	-84.4	217	11
2023-09-22T00:00	15762	111	-57.8	-84.4	217	11
2023-09-22T00:00	15781	110	-57.7	-84.3	217	11
2023-09-22T00:00	15802	110	-57.7	-84.7	216	11
2023-09-22T00:00	15821	110	-57.8	-84.7	214	11
2023-09-22T00:00	15841	109	-57.7	-84.7	213	11
2023-09-22T00:00	15861	109	-57.6	-84.6	213	11
2023-09-22T00:00	15881	109	-57.7	-84.7	213	11
2023-09-22T00:00	15901	108	-57.9	-84.8	213	12
2023-09-22T00:00	15924	108	-58.0	-84.9	213	12
2023-09-22T00:00	15941	108	-58.1	-85.0	212	12
2023-09-22T00:00	15960	107	-58.2	-85.0	211	13
2023-09-22T00:00	15980	107	-58.1	-85.0	210	13
2023-09-22T00:00	15999	107	-57.9	-84.8	209	13
2023-09-22T00:00	16020	106	-57.8	-84.7	207	13
2023-09-22T00:00	16038	106	-57.9	-84.8	206	13
2023-09-22T00:00	16058	106	-58.0	-84.9	205	14
2023-09-22T00:00	16080	105	-58.0	-84.9	205	14
2023-09-22T00:00	16101	105	-58.1	-85.0	204	14
2023-09-22T00:00	16116	105	-58.1	-85.0	204	14
2023-09-22T00:00	16133	104	-58.2	-85.0	204	15
2023-09-22T00:00	16152	104	-58.1	-85.0	205	15
2023-09-22T00:00	16169	104	-58.2	-85.0	205	15
2023-09-22T00:00	16186	104	-58.3	-85.1	205	14
2023-09-22T00:00	16206	103	-58.3	-85.1	206	14
2023-09-22T00:00	16226	103	-58.2	-85.0	206	14
2023-09-22T00:00	16244	103	-58.3	-85.1	207	13
2023-09-22T00:00	16265	102	-58.1	-85.3	208	13
2023-09-22T00:00	16286	102	-57.9	-85.2	209	13
2023-09-22T00:00	16302	102	-57.9	-85.2	210	13
2023-09-22T00:00	16321	101	-57.9	-85.2	211	12
2023-09-22T00:00	16338	101	-57.8	-85.1	211	12
2023-09-22T00:00	16360	101	-57.8	-85.1	211	12
2023-09-22T00:00	16379	100	-57.8	-85.1	211	12
2023-09-22T00:00	16399	100	-57.9	-85.2	211	12
2023-09-22T00:00	16419	100	-58.0	-85.2	210	12
2023-09-22T00:00	16438	99	-58.0	-85.2	210	12
2023-09-22T00:00	16459	99	-58.1	-85.3	211	12
2023-09-22T00:00	16481	99	-58.1	-85.3	211	12
2023-09-22T00:00	16500	99	-58.2	-85.4	211	12
2023-09-22T00:00	16522	98	-58.0	-85.2	210	12
2023-09-22T00:00	16541	98	-57.9	-85.5	210	12
2023-09-22T00:00	16558	98	-58.0	-85.6	209	12
2023-09-22T00:00	16579	97	-58.2	-85.8	210	12
2023-09-22T00:00	16602	97	-58.1	-85.7	210	12
2023-09-22T00:00	16618	97	-57.8	-85.5	211	12
2023-09-22T00:00	16637	96	-57.6	-85.7	212	12
2023-09-22T00:00	16655	96	-57.5	-85.6	212	12
2023-09-22T00:00	16674	96	-57.5	-85.6	211	12
2023-09-22T00:00	16692	96	-57.1	-85.3	210	12
2023-09-22T00:00	16711	95	-57.1	-85.7	209	12
2023-09-22T00:00	16730	95	-57.2	-85.8	207	12
2023-09-22T00:00	16749	95	-57.3	-85.5	205	12
2023-09-22T00:00	16769	94	-57.4	-85.6	204	12
2023-09-22T00:00	16788	94	-57.5	-85.6	204	12
2023-09-22T00:00	16809	94	-57.6	-85.7	205	12
2023-09-22T00:00	16829	94	-57.7	-85.8	207	12
2023-09-22T00:00	16849	93	-57.4	-86.0	210	12
2023-09-22T00:00	16870	93	-57.0	-85.7	212	12
2023-09-22T00:00	16886	93	-57.1	-85.7	213	12
2023-09-22T00:00	16905	92	-57.2	-85.8	214	12
2023-09-22T00:00	16926	92	-57.3	-85.9	215	12
2023-09-22T00:00	16944	92	-57.3	-85.9	216	12
2023-09-22T00:00	16964	92	-57.2	-85.8	216	12
2023-09-22T00:00	16984	91	-57.1	-85.7	217	12
2023-09-22T00:00	17001	91	-57.1	-85.7	217	11
2023-09-22T00:00	17020	91	-57.2	-86.3	217	10
2023-09-22T00:00	17042	90	-57.0	-86.1	216	10
2023-09-22T00:00	17059	90	-56.7	-85.9	215	9
2023-09-22T00:00	17079	90	-56.4	-86.2	215	9
2023-09-22T00:00	17099	90	-56.2	-86.0	215	8
2023-09-22T00:00	17118	89	-56.1	-86.0	215	8
2023-09-22T00:00	17140	89	-56.1	-86.0	214	8
2023-09-22T00:00	17159	89	-56.1	-86.0	212	9
2023-09-22T00:00	17178	88	-56.1	-86.0	209	9
2023-09-22T00:00	17198	88	-56.0	-85.9	206	10
2023-09-22T00:00	17221	88	-55.9	-85.8	204	10
2023-09-22T00:00	17242	88	-56.0	-85.9	202	11
2023-09-22T00:00	17264	87	-55.8	-85.7	202	11
2023-09-22T00:00	17282	87	-56.0	-85.9	202	11
2023-09-22T00:00	17306	87	-56.1	-86.0	203	11
2023-09-22T00:00	17329	86	-56.2	-86.0	205	11
2023-09-22T00:00	17353	86	-55.5	-85.5	206	11
2023-09-22T00:00	17374	86	-55.5	-85.5	208	11
2023-09-22T00:00	17398	85	-55.6	-85.6	210	11
2023-09-22T00:00	17421	85	-55.7	-85.7	211	12
2023-09-22T00:00	17445	85	-55.8	-86.3	212	12
2023-09-22T00:00	17471	85	-55.5	-86.1	212	12
2023-09-22T00:00	17494	84	-55.2	-85.8	212	12
2023-09-22T00:00	17518	84	-55.3	-85.9	212	12
2023-09-22T00:00	17544	84	-55.3	-85.9	213	12
2023-09-22T00:00	17569	83	-55.4	-86.0	214	12
2023-09-22T00:00	17594	83	-55.3	-85.9	216	12
2023-09-22T00:00	17619	83	-55.1	-85.8	217	12
2023-09-22T00:00	17646	82	-55.0	-85.7	218	12
2023-09-22T00:00	17671	82	-55.1	-85.8	216	12
2023-09-22T00:00	17702	82	-55.3	-85.9	214	12
2023-09-22T00:00	17725	81	-55.2	-85.8	211	12
2023-09-22T00:00	17751	81	-55.2	-85.8	207	12
2023-09-22T00:00	17778	81	-55.3	-85.9	204	13
2023-09-22T00:00	17805	80	-55.5	-85.5	201	13
2023-09-22T00:00	17828	80	-55.7	-85.7	198	13
2023-09-22T00:00	17852	80	-55.9	-85.8	196	13
2023-09-22T00:00	17879	79	-56.1	-86.0	194	13
2023-09-22T00:00	17901	79	-56.2	-86.0	193	13
2023-09-22T00:00	17924	79	-56.2	-86.0	194	13
2023-09-22T00:00	17948	78	-56.3	-86.1	194	13
2023-09-22T00:00	17971	78	-56.3	-86.1	196	13
2023-09-22T00:00	17992	78	-56.5	-86.3	197	12
2023-09-22T00:00	18014	78	-56.6	-86.3	197	12
2023-09-22T00:00	18040	77	-56.6	-86.3	197	12
2023-09-22T00:00	18059	77	-56.7	-86.4	197	13
2023-09-22T00:00	18081	77	-56.8	-86.5	197	13
2023-09-22T00:00	18104	77	-56.9	-86.6	197	13
2023-09-22T00:00	18125	76	-57.1	-86.7	197	12
2023-09-22T00:00	18145	76	-57.1	-86.7	198	12
2023-09-22T00:00	18164	76	-57.1	-86.7	199	12
2023-09-22T00:00	18187	76	-57.1	-86.7	200	12
2023-09-22T00:00	18204	75	-57.0	-86.6	200	12
2023-09-22T00:00	18229	75	-57.1	-86.7	200	12
2023-09-22T00:00	18245	75	-57.1	-86.7	200	12
2023-09-22T00:00	18268	75	-57.1	-86.7	198	13
2023-09-22T00:00	18287	74	-57.0	-86.6	197	14
2023-09-22T00:00	18312	74	-57.1	-86.7	195	14
2023-09-22T00:00	18331	74	-57.0	-86.6	194	15
2023-09-22T00:00	18356	74	-57.1	-86.7	193	16
2023-09-22T00:00	18377	73	-56.9	-86.6	193	17
2023-09-22T00:00	18397	73	-56.9	-86.6	193	18
2023-09-22T00:00	18421	73	-57.0	-86.6	194	18
2023-09-22T00:00	18442	73	-57.2	-86.8	195	19
2023-09-22T00:00	18463	72	-57.3	-86.4	197	19
2023-09-22T00:00	18484	72	-57.4	-86.4	198	19
2023-09-22T00:00	18507	72	-57.5	-86.5	200	19
2023-09-22T00:00	18526	72	-57.6	-86.6	202	19
2023-09-22T00:00	18549	71	-57.7	-86.7	204	19
2023-09-22T00:00	18568	71	-57.6	-86.6	206	18
2023-09-22T00:00	18590	71	-57.6	-86.6	207	18
2023-09-22T00:00	18612	71	-57.5	-87.0	209	18
2023-09-22T00:00	18632	70	-57.6	-87.1	211	18
2023-09-22T00:00	18651	70	-57.6	-87.1	212	18
2023-09-22T00:00	18674	70	-57.6	-87.1	212	17
2023-09-22T00:00	18699	70	-57.6	-87.1	213	17
2023-09-22T00:00	18725	69	-57.6	-87.1	214	16
2023-09-22T00:00	18747	69	-57.6	-87.1	215	16
2023-09-22T00:00	18770	69	-57.7	-87.2	216	15
2023-09-22T00:00	18792	69	-57.8	-87.2	217	13
2023-09-22T00:00	18815	68	-57.6	-87.1	218	12
2023-09-22T00:00	18839	68	-57.1	-87.2	219	11
2023-09-22T00:00	18862	68	-56.7	-86.9	221	11
2023-09-22T00:00	18883	68	-56.4		222	11
2023-09-22T00:00	18907	67	-56.2	-86.6	224	11
2023-09-22T00:00	18935	67	-56.3	-86.6	224	11
2023-09-22T00:00	18957	67	-56.4		224	11
2023-09-22T00:00	18979	67	-56.4		223	12
2023-09-22T00:00	19002	66	-56.1	-86.5	223	12
2023-09-22T00:00	19025	66	-55.8	-86.3	222	12
2023-09-22T00:00	19052	66	-55.8	-86.3	222	12
2023-09-22T00:00	19073	66	-55.9	-86.3	222	12
2023-09-22T00:00	19095	65	-56.0	-86.4	222	12
2023-09-22T00:00	19120	65	-56.1	-86.5	221	12
2023-09-22T00:00	19143	65	-56.0	-86.4	220	11
2023-09-22T00:00	19166	65	-56.0	-86.4	220	11
2023-09-22T00:00	19190	64	-56.1	-86.5	219	11
2023-09-22T00:00	19210	64	-56.2	-86.6	219	10
2023-09-22T00:00	19237	64	-56.3	-86.6	219	10
2023-09-22T00:00	19259	64	-56.4		218	10
2023-09-22T00:00	19281	64	-56.3	-86.6	217	10
2023-09-22T00:00	19305	63	-56.3	-86.6	216	10
2023-09-22T00:00	19327	63	-56.3	-86.6	215	11
2023-09-22T00:00	19351	63	-56.3	-86.6	215	11
2023-09-22T00:00	19372	63	-56.3	-86.6	216	11
2023-09-22T00:00	19396	62	-56.3	-86.6	216	11
2023-09-22T00:00	19418	62	-56.3	-86.6	217	11
2023-09-22T00:00	19441	62	-56.3	-86.6	217	12
2023-09-22T00:00	19466	62	-56.3	-86.6	216	12
2023-09-22T00:00	19488	62	-56.3	-86.6	215	12
2023-09-22T00:00	19511	61	-56.4		214	12
2023-09-22T00:00	19532	61	-56.4		213	12
2023-09-22T00:00	19557	61	-56.5	-86.8	213	13
2023-09-22T00:00	19577	61	-56.5	-86.8	212	13
2023-09-22T00:00	19598	60	-56.6	-86.9	212	13
2023-09-22T00:00	19621	60	-56.6	-86.9	212	13
2023-09-22T00:00	19642	60	-56.7	-86.9	212	13
2023-09-22T00:00	19667	60	-56.7	-86.9	212	14
2023-09-22T00:00	19693	60	-56.7	-86.9	213	14
2023-09-22T00:00	19714	59	-56.7	-86.9	214	14
2023-09-22T00:00	19735	59	-56.8	-87.0	215	15
2023-09-22T00:00	19758	59	-56.8	-87.0	218	15
2023-09-22T00:00	19783	59	-57.0	-87.2	221	15
2023-09-22T00:00	19804	59	-57.1	-87.2	224	15
2023-09-22T00:00	19825	58	-57.1	-87.2	227	16
2023-09-22T00:00	19845	58	-57.0	-87.2	229	16
2023-09-22T00:00	19867	58	-56.9	-87.1	230	16
2023-09-22T00:00	19888	58	-57.0	-87.2	232	16
2023-09-22T00:00	19910	58	-57.0	-87.2	232	16
2023-09-22T00:00	19929	57	-56.9	-87.7	233	15
2023-09-22T00:00	19955	57	-56.6	-87.5	233	14
2023-09-22T00:00	19975	57	-56.5	-87.4	233	14
2023-09-22T00:00	19998	57	-56.5	-87.4	233	13
2023-09-22T00:00	20017	57	-56.6	-87.5	234	13
2023-09-22T00:00	20042	56	-56.7	-87.5	235	12
2023-09-22T00:00	20065	56	-56.8	-87.6	236	12
2023-09-22T00:00	20086	56	-56.9	-87.1	237	11
2023-09-22T00:00	20107	56	-56.9	-87.1	237	11
2023-09-22T00:00	20129	56	-56.6	-86.9	237	10
2023-09-22T00:00	20151	55	-56.5	-86.8	235	10
2023-09-22T00:00	20169	55	-56.6	-87.5	233	9
2023-09-22T00:00	20191	55	-56.5	-87.4	231	9
2023-09-22T00:00	20216	55	-56.6	-87.5	228	9
2023-09-22T00:00	20233	55	-56.6	-87.5	226	10
2023-09-22T00:00	20259	54	-56.4	-87.3	224	10
2023-09-22T00:00	20282	54	-56.4	-87.3	222	10
2023-09-22T00:00	20306	54	-56.5	-87.4	220	10
2023-09-22T00:00	20327	54	-56.6	-87.5	218	10
2023-09-22T00:00	20349	54	-56.6	-86.9	217	10
2023-09-22T00:00	20375	53	-56.6	-86.9	216	9
2023-09-22T00:00	20396	53	-56.5	-86.8	215	9
2023-09-22T00:00	20420	53	-56.5	-86.8	213	9
2023-09-22T00:00	20440	53	-56.6	-86.9	212	10
2023-09-22T00:00	20462	53	-56.7	-86.9	212	10
2023-09-22T00:00	20483	53	-56.6	-86.9	211	11
2023-09-22T00:00	20510	52	-56.5	-86.8	210	11
2023-09-22T00:00	20532	52	-56.6	-86.9	210	12
2023-09-22T00:00	20554	52	-56.8	-87.0	209	12
2023-09-22T00:00	20582	52	-56.9	-87.1	209	13
2023-09-22T00:00	20604	52	-57.0	-87.2	209	13
2023-09-22T00:00	20624	51	-57.1	-87.2	209	14
2023-09-22T00:00	20654	51	-57.2	-87.3	210	14
2023-09-22T00:00	20675	51	-56.9	-87.1	212	14
2023-09-22T00:00	20692	51	-56.8	-87.6	215	14
2023-09-22T00:00	20719	51	-56.9	-87.7	218	14
2023-09-22T00:00	20742	50	-56.9	-87.7	221	14
2023-09-22T00:00	20768	50	-57.0	-87.8	224	14
2023-09-22T00:00	20788	50	-57.0	-87.8	228	14
2023-09-22T00:00	20811	50	-56.8	-87.6	232	14
2023-09-22T00:00	20835	50	-56.8	-87.6	235	14
2023-09-22T00:00	20859	50	-56.6	-87.5	239	14
2023-09-22T00:00	20883	49	-56.2	-87.8	242	14
2023-09-22T00:00	20903	49	-56.1	-87.8	244	15
2023-09-22T00:00	20929	49	-56.0	-87.7	246	15
2023-09-22T00:00	20951	49	-56.0	-87.7	247	15
2023-09-22T00:00	20972	49	-55.9	-87.6	248	15
2023-09-22T00:00	20997	48	-55.8	-87.5	248	15
2023-09-22T00:00	21019	48	-55.7	-86.8	247	14
2023-09-22T00:00	21041	48	-55.7	-86.8	247	14
2023-09-22T00:00	21063	48	-55.8	-86.9	246	14
2023-09-22T00:00	21086	48	-55.8	-86.9	246	14
2023-09-22T00:00	21107	48	-55.9	-86.9	247	14
2023-09-22T00:00	21137	47	-56.1	-87.1	248	14
2023-09-22T00:00	21153	47	-56.1	-87.1	249	13
2023-09-22T00:00	21182	47	-56.1	-87.1	250	13
2023-09-22T00:00	21205	47	-56.3	-87.2	251	13
2023-09-22T00:00	21225	47	-56.4	-87.3	250	13
2023-09-22T00:00	21249	47	-56.5	-87.4	250	12
2023-09-22T00:00	21272	46	-56.4	-87.3	249	12
2023-09-22T00:00	21293	46	-56.5	-86.8	249	12
2023-09-22T00:00	21321	46	-56.6	-86.9	248	12
2023-09-22T00:00	21343	46	-56.8	-87.0	246	12
2023-09-22T00:00	21368	46	-57.0	-87.2	244	11
2023-09-22T00:00	21389	46	-57.2	-87.3	241	11
2023-09-22T00:00	21414	45	-57.2	-87.3	238	11
2023-09-22T00:00	21433	45	-57.3	-87.4	235	12
2023-09-22T00:00	21459	45	-57.3	-87.4	233	12
2023-09-22T00:00	21480	45	-57.2	-87.9	232	12
2023-09-22T00:00	21506	45	-57.2	-87.9	232	12
2023-09-22T00:00	21531	45	-57.2	-87.9	233	11
2023-09-22T00:00	21555	44	-57.1	-87.8	234	11
2023-09-22T00:00	21578	44	-57.1	-87.8	236	10
2023-09-22T00:00	21597	44	-57.1	-87.8	239	9
2023-09-22T00:00	21622	44	-57.3	-88.0	242	9
2023-09-22T00:00	21647	44	-57.3	-88.0	244	9
2023-09-22T00:00	21665	44	-57.3	-88.0	245	8
2023-09-22T00:00	21691	43	-57.4	-88.1	244	8
2023-09-22T00:00	21713	43	-57.3	-88.0	242	8
2023-09-22T00:00	21729	43	-56.9	-87.7	239	8
2023-09-22T00:00	21754	43	-57.0	-87.8	237	9
2023-09-22T00:00	21781	43	-57.0	-87.8	236	9
2023-09-22T00:00	21801	43	-57.1	-87.8	236	9
2023-09-22T00:00	21823	43	-57.3	-88.0	237	9
2023-09-22T00:00	21838	42	-57.4	-87.5	239	9
2023-09-22T00:00	21865	42	-57.5	-87.5	241	9
2023-09-22T00:00	21887	42	-57.6	-87.6	243	9
2023-09-22T00:00	21912	42	-57.7	-87.7	245	10
2023-09-22T00:00	21936	42	-57.7	-87.7	244	10
2023-09-22T00:00	21958	42	-57.8	-87.8	243	10
2023-09-22T00:00	21985	41	-57.9	-87.8	241	10
2023-09-22T00:00	22009	41	-57.7	-87.7	237	10
2023-09-22T00:00	22031	41	-57.7	-87.7	233	10
2023-09-22T00:00	22049	41	-57.7	-87.7	229	10
2023-09-22T00:00	22074	41	-57.7	-87.7	225	10
2023-09-22T00:00	22097	41	-57.8	-87.8	223	11
2023-09-22T00:00	22123	41	-57.9	-87.8	222	11
2023-09-22T00:00	22146	40	-58.0	-87.9	223	12
2023-09-22T00:00	22171	40	-57.8	-88.3	224	12
2023-09-22T00:00	22192	40	-57.8	-88.3	225	12
2023-09-22T00:00	22212	40	-57.6	-88.2	227	12
2023-09-22T00:00	22239	40	-57.7	-88.3	230	12
2023-09-22T00:00	22256	40	-57.8	-88.3	233	12
2023-09-22T00:00	22281	40	-57.8	-88.3	235	11
2023-09-22T00:00	22307	39	-57.6	-88.2	238	11
2023-09-22T00:00	22326	39	-57.6	-88.2	239	10
2023-09-22T00:00	22347	39	-57.7	-88.3	239	10
2023-09-22T00:00	22371	39	-57.7	-87.7	239	10
2023-09-22T00:00	22395	39	-57.9	-87.8	238	9
2023-09-22T00:00	22421	39	-58.0	-87.9	237	9
2023-09-22T00:00	22439	39	-58.0	-88.5	235	9
2023-09-22T00:00	22463	38	-57.6	-88.2	233	9
2023-09-22T00:00	22489	38	-57.4	-88.1	229	9
2023-09-22T00:00	22512	38	-57.0	-88.4	225	9
2023-09-22T00:00	22530	38	-56.8	-88.3	220	9
2023-09-22T00:00	22556	38	-56.8	-88.3	216	9
2023-09-22T00:00	22584	38	-56.9	-88.3	212	10
2023-09-22T00:00	22600	38	-57.0	-87.8	209	10
2023-09-22T00:00	22627	37	-57.0	-87.8	207	10
2023-09-22T00:00	22652	37	-56.9	-87.7	205	11
2023-09-22T00:00	22675	37	-56.9	-87.7	203	11
2023-09-22T00:00	22699	37	-56.9	-87.7	200	11
2023-09-22T00:00	22725	37	-56.9	-87.7	197	12
2023-09-22T00:00	22746	37	-56.9	-87.7	194	12
2023-09-22T00:00	22770	37	-57.0	-87.8	191	12
2023-09-22T00:00	22802	36	-56.9	-87.7	189	12
2023-09-22T00:00	22826	36	-57.0	-87.8	189	13
2023-09-22T00:00	22845	36	-57.0	-87.8	190	13
2023-09-22T00:00	22874	36	-57.0	-88.4	192	14
2023-09-22T00:00	22904	36	-56.6	-88.1	194	14
2023-09-22T00:00	22927	36	-56.4	-88.0	197	15
2023-09-22T00:00	22950	36	-56.5	-87.4	200	15
2023-09-22T00:00	22982	35	-56.6	-87.5	203	15
2023-09-22T00:00	23007	35	-56.8	-87.6	207	15
2023-09-22T00:00	23035	35	-56.9	-87.7	211	15
2023-09-22T00:00	23062	35	-56.9	-87.7	216	15
2023-09-22T00:00	23089	35	-56.8	-87.6	220	15
2023-09-22T00:00	23115	35	-56.8	-87.6	223	15
2023-09-22T00:00	23147	35	-56.8	-87.6	227	15
2023-09-22T00:00	23173	34	-56.7	-87.5	230	15
2023-09-22T00:00	23196	34	-56.5	-87.4	232	14
2023-09-22T00:00	23226	34	-56.6	-87.5	235	14
2023-09-22T00:00	23256	34	-56.7	-87.5	237	13
2023-09-22T00:00	23282	34	-56.8	-87.6	238	13
2023-09-22T00:00	23311	34	-57.0	-87.8	239	12
2023-09-22T00:00	23337	34	-57.2	-87.9	241	12
2023-09-22T00:00	23362	33	-57.2	-87.9	242	11
2023-09-22T00:00	23393	33	-57.2	-87.9	243	11
2023-09-22T00:00	23421	33	-57.1	-87.8	244	10
2023-09-22T00:00	23446	33	-57.2	-87.3	244	10
2023-09-22T00:00	23469	33	-57.4	-87.5	244	9
2023-09-22T00:00	23496	33	-57.6	-87.6	243	9
2023-09-22T00:00	23522	33	-57.8	-87.8	242	9
2023-09-22T00:00	23540	32	-57.9	-87.8	241	9
2023-09-22T00:00	23574	32	-57.9	-87.8	241	9
2023-09-22T00:00	23596	32	-57.9	-87.8	241	10
2023-09-22T00:00	23624	32	-57.8	-87.8	242	10
2023-09-22T00:00	23647	32	-58.0	-87.9	242	11
2023-09-22T00:00	23674	32	-58.1	-88.6	243	11
2023-09-22T00:00	23695	32	-58.1	-88.6	244	11
2023-09-22T00:00	23724	32	-58.0	-88.5	245	10
2023-09-22T00:00	23750	31	-57.9	-88.4	246	10
2023-09-22T00:00	23773	31	-57.8	-88.3	247	10
2023-09-22T00:00	23798	31	-57.8	-88.3	247	10
2023-09-22T00:00	23824	31	-57.8	-88.3	246	10
2023-09-22T00:00	23846	31	-57.8	-88.3	246	10
2023-09-22T00:00	23874	31	-57.9	-88.4	247	10
2023-09-22T00:00	23897	31	-57.7	-88.3	248	11
2023-09-22T00:00	23915	31	-57.7	-88.3	250	11
2023-09-22T00:00	23943	30	-57.8	-88.3	252	11
2023-09-22T00:00	23970	30	-57.4	-88.1	253	11
2023-09-22T00:00	23993	30	-57.4	-88.1	254	11
2023-09-22T00:00	24008	30	-57.5	-88.1	254	10
2023-09-22T00:00	24037	30	-57.6	-88.2	251	10
2023-09-22T00:00	24062	30	-57.7	-88.3	247	10
2023-09-22T00:00	24085	30	-57.7	-88.3	242	10
2023-09-22T00:00	24112	30	-57.8	-88.3	236	9
2023-09-22T00:00	24133	30	-57.7	-88.3	230	9
2023-09-22T00:00	24159	29	-57.6	-88.2	226	10
2023-09-22T00:00	24195	29	-57.8	-88.3	224	10
2023-09-22T00:00	24214	29	-57.8	-88.3	223	10
2023-09-22T00:00	24234	29	-58.0	-88.5	222	11
2023-09-22T00:00	24266	29	-57.9	-88.4	222	11
2023-09-22T00:00	24287	29	-57.7	-88.3	222	12
2023-09-22T00:00	24313	29	-57.8	-88.3	222	12
2023-09-22T00:00	24338	29	-57.9	-88.4	223	12
2023-09-22T00:00	24362	28	-58.0	-88.5	225	13
2023-09-22T00:00	24386	28	-58.2	-88.6	228	13
2023-09-22T00:00	24410	28	-58.2	-88.6	232	13
2023-09-22T00:00	24436	28	-58.1	-88.6	236	13
2023-09-22T00:00	24459	28	-58.0	-88.5	240	13
2023-09-22T00:00	24485	28	-57.8	-88.3	244	13
2023-09-22T00:00	24499	28	-57.5	-88.1	248	13
2023-09-22T00:00	24532	28	-57.5	-88.1	252	13
2023-09-22T00:00	24559	28	-57.4	-88.1	256	13
2023-09-22T00:00	24581	28	-57.4	-88.1	260	12
2023-09-22T00:00	24607	27	-57.3	-88.0	263	12
2023-09-22T00:00	24636	27	-57.3	-88.0	266	11
2023-09-22T00:00	24665	27	-57.3	-88.0	268	11
2023-09-22T00:00	24687	27	-57.4	-88.1	270	10
2023-09-22T00:00	24711	27	-57.6	-88.2	272	10
2023-09-22T00:00	24747	27	-57.8	-88.3	273	9
2023-09-22T00:00	24762	27	-57.8	-88.3	272	9
2023-09-22T00:00	24791	27	-57.9	-88.4	270	9
2023-09-22T00:00	24819	27	-57.4	-88.7	268	9
2023-09-22T00:00	24841	26	-57.1	-88.5	267	10
2023-09-22T00:00	24863	26	-56.5	-88.8	266	9
2023-09-22T00:00	24894	26	-56.4	-88.7	265	9
2023-09-22T00:00	24921	26	-56.0	-88.4	265	9
2023-09-22T00:00	24943	26	-55.5	-88.1	265	8
2023-09-22T00:00	24964	26	-55.4	-88.0	265	7
2023-09-22T00:00	24994	26	-55.2	-87.8	266	7
2023-09-22T00:00	25019	26	-55.1	-87.8	268	6
2023-09-22T00:00	25043	26	-55.0	-87.7	270	5
2023-09-22T00:00	25064	25	-55.0	-87.7	272	5
2023-09-22T00:00	25085	25	-54.8	-87.6	274	5
2023-09-22T00:00	25116	25	-54.9	-87.6	275	5
2023-09-22T00:00	25138	25	-54.9	-87.6	275	5
2023-09-22T00:00	25158	25	-54.8	-87.6	275	5
2023-09-22T00:00	25188	25	-54.9	-87.6	275	6
2023-09-22T00:00	25208	25	-54.8	-87.6	276	6
2023-09-22T00:00	25233	25	-54.6	-87.4	276	7
2023-09-22T00:00	25255	25	-54.3	-87.2	277	7
2023-09-22T00:00	25282	25	-54.2	-87.1	278	7
2023-09-22T00:00	25306	25	-54.2	-87.1	279	6
2023-09-22T00:00	25319	24	-54.2	-87.1	280	6
2023-09-22T00:00	25355	24	-54.3	-87.2	280	6
2023-09-22T00:00	25374	24	-54.2	-87.1	280	5
2023-09-22T00:00	25401	24	-54.3	-87.2	278	5
2023-09-22T00:00	25426	24	-54.3	-87.2	276	5
2023-09-22T00:00	25452	24	-54.1	-87.1	273	4
2023-09-22T00:00	25471	24	-54.1	-87.1	269	4
2023-09-22T00:00	25503	24	-54.1	-87.1	266	4
2023-09-22T00:00	25529	24	-54.2	-87.1	262	4
2023-09-22T00:00	25551	24	-54.2	-87.1	257	3
2023-09-22T00:00	25585	24	-54.3	-86.4	251	3
2023-09-22T00:00	25610	23	-54.4	-86.5	243	3
2023-09-22T00:00	25644	23	-54.6	-86.7	235	3
2023-09-22T00:00	25664	23	-54.8	-86.8	226	3
2023-09-22T00:00	25687	23	-55.0	-87.0	215	3
2023-09-22T00:00	25715	23	-55.1	-87.0	204	3
2023-09-22T00:00	25739	23	-54.9	-86.9	192	3
2023-09-22T00:00	25774	23	-55.1	-87.0	183	3
2023-09-22T00:00	25796	23	-55.3	-87.2	176	4
2023-09-22T00:00	25830	23	-55.5	-87.3	172	4
2023-09-22T00:00	25844	23	-55.8	-87.5	171	5
2023-09-22T00:00	25877	22	-55.8	-87.5	172	5
2023-09-22T00:00	25901	22	-55.5	-87.3	177	5
2023-09-22T00:00	25926	22	-55.6	-87.4	183	5
2023-09-22T00:00	25951	22	-55.5	-87.3	190	6
2023-09-22T00:00	25981	22	-55.4	-87.2	196	6
2023-09-22T00:00	26007	22	-55.3	-87.2	201	6
2023-09-22T00:00	26036	22	-55.4	-87.2	204	6
2023-09-22T00:00	26062	22	-55.4	-87.2	205	6
2023-09-22T00:00	26085	22	-55.4	-87.2	207	7
2023-09-22T00:00	26109	22	-55.5	-87.3	208	7
2023-09-22T00:00	26133	22	-55.3	-87.2	209	7
2023-09-22T00:00	26157	21	-55.3	-87.2	209	7
2023-09-22T00:00	26181	21	-55.4	-87.2	210	7
2023-09-22T00:00	26208	21	-55.5	-87.3	211	8
2023-09-22T00:00	26236	21	-55.4	-87.2	214	8
2023-09-22T00:00	26263	21	-55.4	-87.2	217	8
2023-09-22T00:00	26282	21	-55.5	-87.3	220	8
2023-09-22T00:00	26323	21	-55.4	-87.2	221	9
2023-09-22T00:00	26342	21	-55.3	-87.2	222	9
2023-09-22T00:00	26372	21	-55.3	-87.2	222	9
2023-09-22T00:00	26397	21	-55.4	-87.2	223	9
2023-09-22T00:00	26416	21	-55.6	-87.4	225	9
2023-09-22T00:00	26449	21	-55.8	-87.5	228	9
2023-09-22T00:00	26473	20	-55.7	-87.5	232	9
2023-09-22T00:00	26503	20	-55.8	-87.5	237	9
2023-09-22T00:00	26530	20	-55.6	-87.4	242	9
2023-09-22T00:00	26569	20	-55.4	-87.2	247	9
2023-09-22T00:00	26581	20	-55.3	-87.2	251	9
2023-09-22T00:00	26607	20	-55.3	-87.9	255	9
2023-09-22T00:00	26637	20	-55.3	-87.9	259	9
2023-09-22T00:00	26659	20	-55.2	-87.8	262	9
2023-09-22T00:00	26690	20	-54.9	-87.6	264	9
2023-09-22T00:00	26722	20	-54.6	-87.4	266	9
2023-09-22T00:00	26748	20	-54.5	-87.3	267	9
2023-09-22T00:00	26767	20	-54.4	-87.3	267	8
2023-09-22T00:00	26791	19	-54.3	-87.2	266	8
2023-09-22T00:00	26827	19	-54.3	-87.2	265	7
2023-09-22T00:00	26844	19	-54.5	-87.3	264	6
2023-09-22T00:00	26877	19	-54.7	-87.5	263	6
2023-09-22T00:00	26906	19	-54.6	-87.4	261	6
2023-09-22T00:00	26940	19	-54.4	-87.3	260	6
2023-09-22T00:00	26953	19	-54.4	-87.3	259	6
2023-09-22T00:00	26978	19	-54.5	-87.3	257	6
2023-09-22T00:00	27014	19	-54.6	-87.4	255	7
2023-09-22T00:00	27041	19	-54.8	-86.8	253	7
2023-09-22T00:00	27067	19	-55.0	-87.0	252	7
2023-09-22T00:00	27092	19	-55.2	-87.1	252	7
2023-09-22T00:00	27118	18	-55.5	-87.3	252	7
2023-09-22T00:00	27149	18	-55.7	-87.5	252	7
2023-09-22T00:00	27187	18	-55.7	-87.5	251	6
2023-09-22T00:00	27212	18	-55.7	-87.5	249	7
2023-09-22T00:00	27228	18	-55.2	-87.8	246	7
2023-09-22T00:00	27268	18	-55.1	-87.8	243	7
2023-09-22T00:00	27288	18	-55.1	-87.8	241	7
2023-09-22T00:00	27320	18	-54.7	-87.5	241	8
2023-09-22T00:00	27358	18	-54.4	-88.1	241	8
2023-09-22T00:00	27380	18	-54.0	-87.8	242	9
2023-09-22T00:00	27409	18	-53.9	-87.8	243	9
2023-09-22T00:00	27443	18	-54.0	-87.0	243	10
2023-09-22T00:00	27469	18	-54.1	-87.1	244	10
2023-09-22T00:00	27499	17	-54.1	-87.1	246	10
2023-09-22T00:00	27522	17	-54.3	-87.2	249	10
2023-09-22T00:00	27554	17	-54.5	-87.3	252	10
2023-09-22T00:00	27588	17	-54.6	-86.7	256	11
2023-09-22T00:00	27618	17	-54.7	-86.7	259	11
2023-09-22T00:00	27649	17	-54.9	-86.9	263	11
2023-09-22T00:00	27673	17	-55.0	-87.0	266	11
2023-09-22T00:00	27698	17	-54.8	-87.6	270	11
2023-09-22T00:00	27723	17	-54.3	-87.2	272	11
2023-09-22T00:00	27757	17	-54.3	-87.2	274	11
2023-09-22T00:00	27790	17	-54.4	-87.3	275	11
2023-09-22T00:00	27828	17	-54.5	-87.3	276	10
2023-09-22T00:00	27848	17	-54.4	-87.3	276	9
2023-09-22T00:00	27873	16	-54.0	-87.0	276	9
2023-09-22T00:00	27908	16	-53.8	-86.8	275	8
2023-09-22T00:00	27923	16	-53.9	-86.9	274	7
2023-09-22T00:00	27945	16	-54.0	-87.0	272	7
2023-09-22T00:00	27964	16	-54.2	-87.1	269	6
2023-09-22T00:00	28000	16	-54.3	-87.2	267	5
2023-09-22T00:00	28028	16	-54.5	-87.3	263	5
2023-09-22T00:00	28051	16	-54.5	-87.3	259	4
2023-09-22T00:00	28083	16	-54.3	-87.2	254	4
2023-09-22T00:00	28102	16	-54.4	-87.3	252	4
2023-09-22T00:00	28121	16	-54.3	-87.2	253	4
2023-09-22T00:00	28147	16	-54.1	-87.1	255	5
2023-09-22T00:00	28169	16	-53.8	-86.8	259	6
2023-09-22T00:00	28204	16	-53.8	-87.7	261	7
2023-09-22T00:00	28217	16	-53.7	-87.6	263	7
2023-09-22T00:00	28243	16	-53.8	-87.7	265	8
2023-09-22T00:00	28273	15	-53.7	-87.6	266	8
2023-09-22T00:00	28282	15	-53.7	-87.6	268	8
2023-09-22T00:00	28308	15	-53.5	-87.5	270	8
2023-09-22T00:00	28340	15	-53.1	-87.2	272	7
2023-09-22T00:00	28360	15	-52.9	-87.1	274	7
2023-09-22T00:00	28382	15	-53.0	-87.1	276	6
2023-09-22T00:00	28410	15	-52.8	-87.0	277	6
2023-09-22T00:00	28426	15	-52.8	-87.0	278	6
2023-09-22T00:00	28450	15	-52.9	-87.1	278	6
2023-09-22T00:00	28484	15	-52.8	-87.0	277	6
2023-09-22T00:00	28504	15	-52.7	-86.9	275	6
2023-09-22T00:00	28525	15	-52.8	-87.0	272	6
2023-09-22T00:00	28552	15	-52.8	-87.0	268	6
2023-09-22T00:00	28583	15	-53.0	-87.1	264	6
2023-09-22T00:00	28594	15	-53.1	-87.2	261	6
2023-09-22T00:00	28627	15	-53.1	-87.2	258	7
2023-09-22T00:00	28665	15	-53.1	-87.2	255	7
2023-09-22T00:00	28685	15	-53.0	-87.1	253	7
2023-09-22T00:00	28705	14	-53.1	-86.3	251	7
2023-09-22T00:00	28741	14	-53.1	-86.3	250	7
2023-09-22T00:00	28760	14	-53.0	-86.3	249	7
2023-09-22T00:00	28783	14	-53.0	-86.3	250	7
2023-09-22T00:00	28819	14	-53.2	-86.4	251	7
2023-09-22T00:00	28849	14	-53.4	-86.5	252	7
2023-09-22T00:00	28873	14	-53.5	-86.6	252	8
2023-09-22T00:00	28911	14	-53.5	-86.6	252	8
2023-09-22T00:00	28932	14	-53.5	-86.6	250	8
2023-09-22T00:00	28969	14	-53.5	-86.6	249	9
2023-09-22T00:00	28977	14	-53.4	-86.5	247	9
2023-09-22T00:00	29020	14	-53.5	-86.6	245	10
2023-09-22T00:00	29054	14	-53.6	-86.7	244	10
2023-09-22T00:00	29090	14	-53.8	-86.8	244	11
2023-09-22T00:00	29122	14	-53.9	-86.9	244	11
2023-09-22T00:00	29137	14	-54.0	-87.0	245	12
2023-09-22T00:00	29173	13	-54.0	-87.0	246	13
2023-09-22T00:00	29208	13	-53.9	-86.9	247	14
2023-09-22T00:00	29235	13	-53.6	-87.6	248	14
2023-09-22T00:00	29259	13	-53.5	-87.5	248	14
2023-09-22T00:00	29296	13	-53.1	-87.2	249	14
2023-09-22T00:00	29326	13	-53.1	-87.2	250	14
2023-09-22T00:00	29354	13	-53.1	-87.2	251	13
2023-09-22T00:00	29383	13	-53.2	-87.3	252	13
2023-09-22T00:00	29414	13	-53.4	-87.4	254	12
2023-09-22T00:00	29437	13	-53.4	-87.4	255	12
2023-09-22T00:00	29464	13	-53.1	-87.2	255	11
2023-09-22T00:00	29499	13	-52.6	-86.8	256	11
2023-09-22T00:00	29527	13	-52.3	-87.7	256	11
2023-09-22T00:00	29549	13	-51.7	-87.2	256	11
2023-09-22T00:00	29581	13	-51.4	-87.0	257	11
2023-09-22T00:00	29603	13	-51.2	-86.9	257	11
2023-09-22T00:00	29636	13	-51.2	-86.9	257	12
2023-09-22T00:00	29667	12	-50.8	-86.6	257	13
2023-09-22T00:00	29686	12	-50.7	-86.5	257	14
2023-09-22T00:00	29724	12	-50.6	-86.5	257	14
2023-09-22T00:00	29753	12	-50.6	-86.5	258	15
2023-09-22T00:00	29775	12	-50.7	-86.5	258	16
2023-09-22T00:00	29800	12	-50.8	-86.6	259	17
2023-09-22T00:00	29825	12	-51.0	-86.7	259	17
2023-09-22T00:00	29846	12	-50.9	-86.7	261	18
2023-09-22T00:00	29880	12	-50.6	-86.5	262	17
2023-09-22T00:00	29895	12	-50.4	-86.3	264	17
2023-09-22T00:00	29921	12	-50.2	-86.2	267	16
2023-09-22T00:00	29945	12	-49.8	-85.9	270	15
2023-09-22T00:00	29968	12	-49.7	-85.8	273	14
2023-09-22T00:00	29993	12	-49.7	-85.8	277	14
2023-09-22T00:00	30008	12	-49.6	-85.8	281	14
2023-09-22T00:00	30035	12	-49.3	-85.5	284	14
2023-09-22T00:00	30056	12	-49.2	-85.5	286	15
2023-09-22T00:00	30089	12	-49.1	-85.4	287	15
2023-09-22T00:00	30115	12	-48.7	-85.1	286	15
2023-09-22T00:00	30140	12	-48.5	-85.0	284	15
2023-09-22T00:00	30170	12	-48.5	-85.0	282	14
2023-09-22T00:00	30203	11	-48.5	-85.0	280	14
2023-09-22T00:00	30213	11	-48.5	-85.0	279	15
2023-09-22T00:00	30254	11	-48.2	-84.8	278	15
2023-09-22T00:00	30280	11	-48.1	-84.7	279	15
2023-09-22T00:00	30281	11	-48.0	-84.6	281	16
2023-09-22T00:00	30327	11	-47.9	-84.6	283	16
2023-09-22T00:00	30340	11	-47.4	-84.2	286	16
2023-09-22T00:00	30389	11	-47.3	-84.1	288	15
2023-09-22T00:00	30397	11	-47.5	-84.3	290	15
2023-09-22T00:00	30428	11	-47.7	-84.4	292	15
2023-09-22T00:00	30451	11	-47.9	-84.6	293	15
2023-09-22T00:00	30495	11	-48.2	-84.8	294	14
2023-09-22T00:00	30518	11	-48.3	-84.8	294	14
2023-09-22T00:00	30547	11	-48.0	-84.6	295	13
2023-09-22T00:00	30574	11	-48.1	-84.7	295	13
2023-09-22T00:00	30602	11	-48.2	-84.8	296	12
2023-09-22T00:00	30645	11	-48.3	-84.8	297	12
2023-09-22T00:00	30652	11	-48.3	-84.8	298	11
2023-09-22T00:00	30689	11	-48.0	-84.6	299	11
2023-09-22T00:00	30733	11	-47.9	-84.6	300	11
2023-09-22T00:00	30753	11	-47.9	-84.6	301	11
2023-09-22T00:00	30775	11	-48.0	-84.6	301	11
2023-09-22T00:00	30802	10	-48.2	-84.8	300	10
2023-09-22T00:00	30842	10	-48.2	-84.8	297	10
2023-09-22T00:00	30858	10	-48.1	-84.7	295	9
2023-09-22T00:00	30886	10	-48.2	-84.8	291	8
2023-09-22T00:00	30914	10	-48.2	-84.8	287	8
2023-09-22T00:00	30940	10	-48.3	-84.8	282	7
2023-09-22T00:00	30974	10	-48.4	-84.9	277	7
2023-09-22T00:00	30987	10	-48.6	-85.0	271	7
2023-09-22T00:00	31012	10	-48.8	-85.2	265	7
2023-09-22T00:00	31051	10	-48.8	-85.2	260	8
2023-09-22T00:00	31073	10	-48.7	-85.1	255	9
2023-09-22T00:00	31103	10	-48.4	-84.9	251	9
2023-09-22T00:00	31137	10	-48.0	-84.6	247	10
2023-09-22T00:00	31159	10	-47.8	-84.5	244	11
2023-09-22T00:00	31180	10	-47.9	-84.6	241	12
2023-09-22T00:00	31195	10	-48.0	-84.6	240	12
2023-09-22T00:00	31240	10	-48.1	-84.7	239	13
2023-09-22T00:00	31270	10	-48.2	-84.8	239	14
2023-09-22T00:00	31290	10	-48.3	-84.8	241	14
2023-09-22T00:00	31299	10	-48.4	-84.9	242	15
2023-09-22T00:00	31333	10	-48.5	-85.0	244	15
2023-09-22T00:00	31349	10	-48.6	-85.0	247	15
2023-09-22T00:00	31377	10	-48.4	-84.9	249	15
2023-09-22T00:00	31414	10	-48.0	-84.6	251	15
2023-09-22T00:00	31419	10	-47.7	-84.4	254	14
2023-09-22T00:00	31440	10	-47.6	-84.3	257	14
2023-09-22T00:00	31483	9	-47.4	-84.2	261	14
2023-09-22T00:00	31507	9	-47.4	-84.2	264	15
2023-09-22T00:00	31539	9	-47.4	-84.2	266	15
2023-09-22T00:00	31554	9	-47.3	-84.1	268	16
2023-09-22T00:00	31569	9	-47.2	-84.1	269	16
2023-09-22T00:00	31600	9	-47.1	-84.0	270	17
2023-09-22T00:00	31616	9	-47.2	-84.1	271	17
2023-09-22T00:00	31629	9	-47.4	-84.2	272	17
2023-09-22T00:00	31665	9	-47.6	-84.3	273	18
2023-09-22T00:00	31695	9	-47.7	-84.4	274	18
2023-09-22T00:00	31710	9	-47.8	-84.5	275	18
2023-09-22T00:00	31725	9	-47.9	-84.6	275	18
2023-09-22T00:00	31754	9	-48.1	-84.7	276	18
2023-09-22T00:00	31777	9	-48.1	-84.7	276	17
2023-09-22T00:00	31803	9	-48.1	-84.7	277	17
2023-09-22T00:00	31814	9	-48.0	-84.6	277	16
2023-09-22T00:00	31856	9	-48.0	-84.6	277	15
2023-09-22T00:00	31876	9	-48.2	-84.8	277	15
2023-09-22T00:00	31879	9	-48.3	-84.8	278	14
2023-09-22T00:00	31905	9	-48.5	-85.0	277	13
2023-09-22T00:00	31925	9	-48.6	-85.0	276	13
2023-09-22T00:00	31971	9	-48.7	-85.1	274	12
2023-09-22T00:00	31979	9	-48.8	-85.2	271	12
2023-09-22T00:00	32026	9	-48.5	-85.0	268	12
2023-09-22T00:00	32078	9	-48.3	-84.8	265	13
2023-09-22T00:00	32118	9	-48.0	-84.6	267	14
2023-09-22T00:00	32142	9	-47.8	-84.5	269	14
2023-09-22T00:00	32160	9	-47.2	-84.1	271	15
2023-09-22T00:00	32191	9	-47.0	-83.9	272	15
2023-09-22T00:00	32217	8	-46.7	-83.7	273	16
2023-09-22T00:00	32242	8	-46.7	-83.7	272	16
2023-09-22T00:00	32259	8	-46.8	-83.8	272	17
2023-09-22T00:00	32280	8	-46.8	-83.8	271	17
2023-09-22T00:00	32323	8	-46.8	-83.8	271	18
2023-09-22T00:00	32342	8	-46.8	-83.8	271	18
2023-09-22T00:00	32355	8	-46.7	-83.7	271	18
2023-09-22T00:00	32368	8	-46.6	-83.6	272	18
2023-09-22T00:00	32415	8	-46.4	-83.5	273	18
2023-09-22T00:00	32431	8	-45.8	-83.1	275	18
2023-09-22T00:00	32465	8	-45.3	-82.7	277	18
2023-09-22T00:00	32485	8	-45.4	-82.8	279	18
2023-09-22T00:00	32506	8	-45.6	-82.9	281	18
2023-09-22T00:00	32546	8	-45.4	-82.8	283	19
2023-09-22T00:00	32560	8	-45.1	-82.6	285	19
2023-09-22T00:00	32614	8	-45.0	-82.5	286	20
2023-09-22T00:00	32653	8	-45.1	-82.6	288	22
2023-09-22T00:00	32670	8	-45.2	-82.7	288	22
2023-09-22T00:00	32692	8	-45.2	-82.7	288	22
2023-09-22T00:00	32737	8	-45.3	-82.7	289	22
2023-09-22T00:00	32759	8	-45.3	-82.7	289	22
2023-09-22T00:00	32786	8	-45.2	-82.7	292	21
2023-09-22T00:00	32814	8	-45.2	-82.7	293	20
2023-09-22T00:00	32839	8	-45.2	-82.7	293	20
2023-09-22T00:00	32857	8	-45.1	-82.6	293	19
2023-09-22T00:00	32899	8	-45.2	-82.7	293	18
2023-09-22T00:00	32946	8	-45.3	-82.7	290	16
2023-09-22T00:00	32971	8	-45.0	-82.5	288	16
2023-09-22T00:00	32991	8	-44.8	-82.4	286	15
2023-09-22T00:00	33047	7	-44.8	-82.4	283	15
2023-09-22T00:00	33053	7	-44.8	-82.4	283	15
2023-09-22T00:00	33094	7	-44.6	-82.2	282	15
2023-09-22T00:00	33119	7	-44.5	-82.2	281	15
2023-09-22T00:00	33144	7	-44.6	-82.2	280	15
2023-09-22T00:00	33161	7	-44.6	-82.2	277	16
2023-09-22T00:00	33192	7	-44.5	-82.2	276	16
2023-09-22T00:00	33224	7	-44.2	-82.0	274	16
2023-09-22T00:00	33237	7	-43.9	-81.8	273	16
2023-09-22T00:00	33259	7	-43.6	-81.5	273	15
2023-09-22T00:00	33290	7	-43.2	-81.3	274	15
2023-09-22T00:00	33314	7	-43.1	-81.2	274	14
2023-09-22T00:00	33322	7	-42.9	-81.1	275	13
2023-09-22T00:00	33330	7	-43.0	-81.1	275	13
2023-09-22T00:00	33359	7	-43.1	-81.2	275	12
2023-09-22T00:00	33390	7	-43.2	-81.3	274	11
2023-09-22T00:00	33419	7	-43.3	-81.3	273	11
2023-09-22T00:00	33474	7	-43.4	-81.4	270	10
2023-09-22T06:00	112	988	16.9	13.8	240	4
2023-09-22T06:00	136	985	17.2	14.1	238	3
2023-09-22T06:00	164	982	17.0	14.0	237	4
2023-09-22T06:00	189	979	17.1	13.8	238	5
2023-09-22T06:00	215	976	16.8	13.7	241	6
2023-09-22T06:00	246	973	16.6	13.8	244	7
2023-09-22T06:00	273	970	16.4	13.7	246	8
2023-09-22T06:00	297	967	16.4	13.5	248	8
2023-09-22T06:00	326	964	16.2	13.5	250	9
2023-09-22T06:00	350	961	16.0	13.4	251	9
2023-09-22T06:00	376	958	15.8	13.4	252	9
2023-09-22T06:00	400	955	15.5	13.3	253	9
2023-09-22T06:00	427	952	15.3	13.2	254	9
2023-09-22T06:00	452	949	15.1	13.3	255	9
2023-09-22T06:00	482	946	14.8	13.1	255	9
2023-09-22T06:00	512	943	14.6		257	9
2023-09-22T06:00	539	940	14.3	13.0	260	9
2023-09-22T06:00	565	937	14.2	13.0	263	10
2023-09-22T06:00	589	934	14.1	13.0	265	10
2023-09-22T06:00	613	931	13.8	12.9	267	10
2023-09-22T06:00	644	928	13.6	12.6	269	10
2023-09-22T06:00	668	925	13.4	12.6	270	10
2023-09-22T06:00	689	923	13.2	12.5	272	10
2023-09-22T06:00	709	921	13.0	12.4	275	10
2023-09-22T06:00	735	918	12.9	12.1	278	10
2023-09-22T06:00	762	915	12.9	11.9	279	10
2023-09-22T06:00	787	912	12.7	11.6	279	11
2023-09-22T06:00	811	910	12.7	11.5	278	11
2023-09-22T06:00	836	907	12.5		276	11
2023-09-22T06:00	860	905	12.3	11.1	273	11
2023-09-22T06:00	885	902	12.3	10.9	271	12
2023-09-22T06:00	909	899	12.3	10.6	268	12
2023-09-22T06:00	934	897	12.3	10.0	265	12
2023-09-22T06:00	958	894	12.4	9.6	262	13
2023-09-22T06:00	984	891	12.3	9.2	260	14
2023-09-22T06:00	1011	889	12.4	9.1	257	14
2023-09-22T06:00	1033	886	12.7	8.3	255	15
2023-09-22T06:00	1061	883	13.4	6.7	252	15
2023-09-22T06:00	1091	880	13.5	7.3	249	15
2023-09-22T06:00	1117	877	13.6	8.3	245	15
2023-09-22T06:00	1144	875	13.7	9.2	241	15
2023-09-22T06:00	1170	872	13.7	9.7	238	16
2023-09-22T06:00	1194	869	13.6	9.7	235	16
2023-09-22T06:00	1217	867	13.7	9.6	234	16
2023-09-22T06:00	1244	864	13.8	9.7	233	15
2023-09-22T06:00	1270	862	13.9	9.4	233	14
2023-09-22T06:00	1300	859	14.2	9.2	231	14
2023-09-22T06:00	1328	856	14.0	9.3	230	13
2023-09-22T06:00	1354	853	13.8	9.4	227	12
2023-09-22T06:00	1379	851	13.7	9.5	225	12
2023-09-22T06:00	1405	848	13.6	9.4	224	12
2023-09-22T06:00	1432	845	13.5	9.3	223	12
2023-09-22T06:00	1460	842	13.4	9.0	222	11
2023-09-22T06:00	1490	840	13.4	8.6	222	11
2023-09-22T06:00	1517	837	13.1	8.5	222	11
2023-09-22T06:00	1546	834	12.8	8.5	221	11
2023-09-22T06:00	1575	831	12.6	8.5	221	11
2023-09-22T06:00	1602	828	12.3	8.3	221	11
2023-09-22T06:00	1630	826	12.0	8.2	221	11
2023-09-22T06:00	1658	823	11.8	8.1	221	10
2023-09-22T06:00	1688	820	11.5	7.9	221	10
2023-09-22T06:00	1716	817	11.3	7.9	221	10
2023-09-22T06:00	1740	815	11.0	7.9	220	9
2023-09-22T06:00	1767	812	10.8	7.8	219	9
2023-09-22T06:00	1793	810	10.5	7.6	218	9
2023-09-22T06:00	1821	807	10.3	7.5	217	9
2023-09-22T06:00	1849	804	10.1	7.7	216	10
2023-09-22T06:00	1881	801	9.9	8.3	216	10
2023-09-22T06:00	1911	798	9.8	7.8	216	10
2023-09-22T06:00	1939	796	9.7	7.8	217	10
2023-09-22T06:00	1964	793	9.4	7.8	218	10
2023-09-22T06:00	1994	790	9.1	7.6	219	11
2023-09-22T06:00	2022	788	8.9	7.7	218	11
2023-09-22T06:00	2047	785	8.6	7.7	217	11
2023-09-22T06:00	2077	783	8.4	7.5	214	12
2023-09-22T06:00	2103	780	8.2	7.2	211	12
2023-09-22T06:00	2131	777	8.1	6.8	208	12
2023-09-22T06:00	2160	775	7.9	6.6	206	13
2023-09-22T06:00	2188	772	7.9	6.5	204	13
2023-09-22T06:00	2214	770	7.7	6.4	204	13
2023-09-22T06:00	2239	767	7.5	6.2	204	12
2023-09-22T06:00	2267	765	7.3	6.1	205	12
2023-09-22T06:00	2293	762	7.1	6.2	205	12
2023-09-22T06:00	2321	760	6.8	6.0	205	12
2023-09-22T06:00	2348	757	6.6	6.0	204	12
2023-09-22T06:00	2378	754	6.3	5.9	202	12
2023-09-22T06:00	2408	752	6.1	5.7	200	12
2023-09-22T06:00	2436	749	5.8	5.4	199	12
2023-09-22T06:00	2464	747	5.7	5.2	198	12
2023-09-22T06:00	2493	744	5.5	5.1	197	12
2023-09-22T06:00	2520	741	5.4	4.6	197	12
2023-09-22T06:00	2551	739	5.3	3.7	197	13
2023-09-22T06:00	2578	736	5.1	3.4	196	13
2023-09-22T06:00	2611	733	4.9	2.8	195	14
2023-09-22T06:00	2638	731	4.8	2.5	194	15
2023-09-22T06:00	2663	728	4.8	2.1	192	15
2023-09-22T06:00	2696	726	4.6	2.0	191	16
2023-09-22T06:00	2719	724	4.4	1.9	190	16
2023-09-22T06:00	2744	721	4.2	1.8	189	16
2023-09-22T06:00	2775	719	4.0	1.7	189	16
2023-09-22T06:00	2801	716	4.0	1.8	189	16
2023-09-22T06:00	2836	713	3.8	1.5	190	16
2023-09-22T06:00	2863	711	3.5	1.4	191	15
2023-09-22T06:00	2895	708	3.3	1.3	192	15
2023-09-22T06:00	2921	706	3.2	1.2	192	15
2023-09-22T06:00	2946	704	3.0	1.1	193	16
2023-09-22T06:00	2975	701	2.8	1.2	193	16
2023-09-22T06:00	3004	699	2.6	1.2	194	16
2023-09-22T06:00	3031	696	2.4	1.4	195	16
2023-09-22T06:00	3058	694	2.3	1.3	196	16
2023-09-22T06:00	3085	692	2.2	1.5	196	17
2023-09-22T06:00	3117	689	1.9	1.5	196	17
2023-09-22T06:00	3146	687	1.7	1.5	196	17
2023-09-22T06:00	3175	684	1.4	1.3	196	17
2023-09-22T06:00	3205	682	1.6	0.4	196	18
2023-09-22T06:00	3233	679	1.5	0.5	197	18
2023-09-22T06:00	3259	677	1.3	0.6	197	18
2023-09-22T06:00	3291	675	1.0	0.5	197	19
2023-09-22T06:00	3318	672	0.8	0.3	197	19
2023-09-22T06:00	3348	669	0.6	-0.1	196	18
2023-09-22T06:00	3379	667	0.3	-0.3	196	18
2023-09-22T06:00	3409	665	0.1	-0.1	196	18
2023-09-22T06:00	3437	662	-0.1	-0.8	197	18
2023-09-22T06:00	3465	660	-0.1	-1.2	197	18
2023-09-22T06:00	3495	657	-0.3	-1.3	198	17
2023-09-22T06:00	3522	655	-0.6	-1.5	198	17
2023-09-22T06:00	3551	653	-0.8	-1.6	198	17
2023-09-22T06:00	3580	651	-1.0	-1.9	198	17
2023-09-22T06:00	3608	648	-1.2	-2.0	199	18
2023-09-22T06:00	3636	646	-1.4	-2.2	199	18
2023-09-22T06:00	3662	644	-1.5	-2.2	200	18
2023-09-22T06:00	3693	641	-1.7	-2.4	201	18
2023-09-22T06:00	3719	639	-1.8	-2.7	202	18
2023-09-22T06:00	3749	637	-2.0	-2.9	202	18
2023-09-22T06:00	3778	635	-2.3	-3.0	202	18
2023-09-22T06:00	3807	632	-2.2	-3.2	201	18
2023-09-22T06:00	3835	630	-2.0	-3.6	200	18
2023-09-22T06:00	3865	628	-2.1	-3.8	199	18
2023-09-22T06:00	3894	625	-2.3	-4.1	199	18
2023-09-22T06:00	3921	623	-2.5	-4.3	199	18
2023-09-22T06:00	3953	621	-2.7	-4.5	198	18
2023-09-22T06:00	3977	619	-2.9		198	18
2023-09-22T06:00	4005	617	-3.1	-4.8	198	18
2023-09-22T06:00	4029	615	-3.3	-4.9	198	18
2023-09-22T06:00	4050	613	-3.3	-5.2	197	18
2023-09-22T06:00	4080	611	-3.4	-5.5	198	18
2023-09-22T06:00	4110	609	-3.6	-5.8	198	18
2023-09-22T06:00	4137	606	-3.9	-5.9	199	18
2023-09-22T06:00	4168	604	-4.1	-5.9	200	18
2023-09-22T06:00	4199	602	-4.4	-6.1	202	18
2023-09-22T06:00	4231	599	-4.5	-6.3	203	18
2023-09-22T06:00	4260	597	-4.8	-6.2	205	18
2023-09-22T06:00	4289	595	-5.1	-6.3	205	19
2023-09-22T06:00	4318	593	-5.2	-6.6	206	19
2023-09-22T06:00	4348	590	-5.3	-6.6	206	19
2023-09-22T06:00	4379	588	-5.5	-6.7	207	20
2023-09-22T06:00	4408	586	-5.5	-6.7	207	20
2023-09-22T06:00	4437	584	-5.7	-6.8	209	20
2023-09-22T06:00	4466	582	-5.9	-7.0	210	20
2023-09-22T06:00	4494	580	-6.1	-7.1	212	20
2023-09-22T06:00	4523	577	-6.3	-7.1	213	19
2023-09-22T06:00	4549	575	-6.5	-7.2	214	19
2023-09-22T06:00	4578	573	-6.7	-7.3	215	19
2023-09-22T06:00	4597	572	-6.8	-7.6	216	19
2023-09-22T06:00	4628	570	-6.9	-7.8	216	19
2023-09-22T06:00	4659	568	-6.9	-8.0	215	19
2023-09-22T06:00	4687	565	-7.1	-8.1	215	19
2023-09-22T06:00	4716	563	-7.3	-8.1	215	19
2023-09-22T06:00	4746	561	-7.5	-8.0	215	19
2023-09-22T06:00	4771	559	-7.7	-8.2	215	19
2023-09-22T06:00	4800	557	-7.9	-8.3	215	19
2023-09-22T06:00	4828	555	-8.1	-8.5	215	19
2023-09-22T06:00	4855	553	-8.3	-8.6	215	19
2023-09-22T06:00	4882	551	-8.5	-8.9	215	19
2023-09-22T06:00	4911	549	-8.7	-9.4	215	19
2023-09-22T06:00	4944	547	-9.0	-9.6	215	19
2023-09-22T06:00	4976	545	-9.2	-9.5	215	19
2023-09-22T06:00	5003	543	-9.3	-9.8	214	19
2023-09-22T06:00	5031	541	-9.1	-10.3	214	19
2023-09-22T06:00	5063	539	-9.3	-10.7	213	18
2023-09-22T06:00	5096	536	-9.6	-10.7	212	18
2023-09-22T06:00	5129	534	-9.8	-11.0	211	18
2023-09-22T06:00	5159	532	-10.1	-11.3	211	18
2023-09-22T06:00	5191	530	-10.3	-11.3	212	18
2023-09-22T06:00	5221	528	-10.6	-11.5	212	18
2023-09-22T06:00	5252	526	-10.9	-11.7	213	18
2023-09-22T06:00	5285	523	-11.2	-11.8	214	18
2023-09-22T06:00	5320	521	-11.4	-12.2	214	18
2023-09-22T06:00	5349	519	-11.7	-12.4	215	18
2023-09-22T06:00	5385	517	-11.8	-12.3	215	19
2023-09-22T06:00	5409	515	-12.1	-12.5	215	19
2023-09-22T06:00	5442	513	-12.3	-12.7	216	19
2023-09-22T06:00	5464	511	-12.4	-12.7	216	19
2023-09-22T06:00	5499	509	-12.7	-12.9	215	19
2023-09-22T06:00	5532	507	-12.9	-13.1	214	19
2023-09-22T06:00	5565	505	-13.1	-13.2	213	19
2023-09-22T06:00	5601	502	-13.3	-13.3	212	19
2023-09-22T06:00	5634	500	-13.5	-13.5	211	19
2023-09-22T06:00	5666	498	-13.7	-13.7	210	19
2023-09-22T06:00	5701	496	-14.0	-14.0	210	19
2023-09-22T06:00	5733	494	-13.9	-14.3	210	19
2023-09-22T06:00	5765	491	-14.0	-14.6	211	19
2023-09-22T06:00	5801	489	-14.2	-14.9	211	19
2023-09-22T06:00	5836	487	-14.1	-15.3	211	20
2023-09-22T06:00	5869	485	-14.3	-15.4	212	19
2023-09-22T06:00	5899	483	-14.4	-15.5	213	19
2023-09-22T06:00	5931	481	-14.6	-15.6	213	19
2023-09-22T06:00	5964	479	-14.8	-15.7	214	19
2023-09-22T06:00	5996	477	-15.0	-15.8	214	19
2023-09-22T06:00	6028	475	-15.3	-16.0	214	20
2023-09-22T06:00	6059	473	-15.5	-16.1	214	20
2023-09-22T06:00	6092	471	-15.7	-16.4	213	20
2023-09-22T06:00	6129	469	-15.8	-16.8	212	21
2023-09-22T06:00	6162	466	-15.9	-17.3	210	21
2023-09-22T06:00	6191	465	-16.1	-17.2	208	20
2023-09-22T06:00	6225	463	-16.4	-17.5	206	20
2023-09-22T06:00	6257	461	-16.6	-17.9	204	20
2023-09-22T06:00	6287	459	-16.7	-18.2	203	20
2023-09-22T06:00	6322	457	-17.0	-18.5	202	20
2023-09-22T06:00	6359	454	-17.3	-18.9	201	20
2023-09-22T06:00	6390	452	-17.5	-19.2	201	20
2023-09-22T06:00	6419	451	-17.8	-19.6	201	20
2023-09-22T06:00	6449	449	-18.0	-19.5	201	20
2023-09-22T06:00	6479	447	-18.3	-19.7	201	20
2023-09-22T06:00	6511	445	-18.6	-19.9	201	20
2023-09-22T06:00	6544	443	-18.9	-20.1	201	20
2023-09-22T06:00	6577	441	-19.1	-20.3	201	20
2023-09-22T06:00	6605	440	-19.4	-20.5	201	20
2023-09-22T06:00	6637	438	-19.7	-20.6	201	20
2023-09-22T06:00	6670	436	-19.9	-20.7	201	20
2023-09-22T06:00	6700	434	-20.2	-20.9	202	20
2023-09-22T06:00	6732	432	-20.4	-21.0	202	20
2023-09-22T06:00	6761	431	-20.7	-21.2	203	20
2023-09-22T06:00	6790	429	-20.9	-21.2	204	20
2023-09-22T06:00	6823	427	-21.1	-21.4	204	20
2023-09-22T06:00	6854	425	-21.3	-21.6	205	20
2023-09-22T06:00	6887	423	-21.5	-21.7	206	20
2023-09-22T06:00	6915	422	-21.7	-22.0	207	20
2023-09-22T06:00	6941	420	-21.9	-22.3	207	20
2023-09-22T06:00	6971	418	-22.1	-22.4	206	20
2023-09-22T06:00	7002	417	-22.4	-22.7	206	20
2023-09-22T06:00	7035	415	-22.6	-22.9	205	20
2023-09-22T06:00	7062	413	-22.8	-23.1	205	20
2023-09-22T06:00	7091	412	-23.0	-23.3	206	20
2023-09-22T06:00	7118	410	-23.5	-23.9	206	20
2023-09-22T06:00	7146	409	-23.6	-24.0	206	20
2023-09-22T06:00	7172	407	-23.7	-24.1	206	20
2023-09-22T06:00	7203	405	-24.0	-24.4	206	21
2023-09-22T06:00	7231	404	-24.3	-24.8	206	21
2023-09-22T06:00	7261	402	-24.3	-24.8	207	22
2023-09-22T06:00	7298	400	-24.7	-25.2	207	23
2023-09-22T06:00	7335	398	-25.1	-25.6	208	23
2023-09-22T06:00	7373	396	-25.4	-26.7	209	24
2023-09-22T06:00	7407	394	-25.4	-28.7	210	25
2023-09-22T06:00	7438	392	-25.6	-28.6	211	25
2023-09-22T06:00	7467	391	-25.8	-28.6	212	25
2023-09-22T06:00	7495	389	-26.0	-28.6	212	25
2023-09-22T06:00	7520	388	-26.2	-28.9	213	25
2023-09-22T06:00	7547	387	-26.4	-29.0	213	25
2023-09-22T06:00	7569	385	-26.6	-29.3	213	25
2023-09-22T06:00	7598	384	-26.8	-29.5	213	25
2023-09-22T06:00	7626	382	-27.0	-29.6	212	26
2023-09-22T06:00	7656	381	-27.0	-29.2	211	26
2023-09-22T06:00	7690	379	-27.1	-29.2	210	26
2023-09-22T06:00	7719	378	-27.3	-29.4	209	26
2023-09-22T06:00	7746	376	-27.5	-29.9	208	26
2023-09-22T06:00	7773	375	-27.7	-30.0	207	26
2023-09-22T06:00	7798	373	-27.9	-30.4	207	25
2023-09-22T06:00	7824	372	-28.1	-30.7	206	25
2023-09-22T06:00	7850	371	-28.3	-31.1	205	25
2023-09-22T06:00	7882	369	-28.5	-31.3	204	26
2023-09-22T06:00	7912	367	-28.7	-31.5	204	26
2023-09-22T06:00	7948	366	-29.0	-31.8	203	26
2023-09-22T06:00	7982	364	-29.3	-31.9	203	27
2023-09-22T06:00	8016	362	-29.5	-31.9	203	28
2023-09-22T06:00	8044	361	-29.8	-32.0	202	28
2023-09-22T06:00	8069	360	-29.9	-32.0	202	29
2023-09-22T06:00	8094	358	-30.0	-32.1	203	29
2023-09-22T06:00	8127	357	-30.3	-32.4	203	30
2023-09-22T06:00	8162	355	-30.4	-33.9	204	30
2023-09-22T06:00	8197	353	-30.8	-35.4	205	30
2023-09-22T06:00	8230	351	-31.1	-35.5	206	30
2023-09-22T06:00	8267	350	-31.4	-35.5	207	31
2023-09-22T06:00	8301	348	-31.8	-36.3	207	31
2023-09-22T06:00	8335	346	-32.1	-37.1	208	31
2023-09-22T06:00	8368	345	-32.4	-37.6	209	30
2023-09-22T06:00	8400	343	-32.8	-39.1	209	30
2023-09-22T06:00	8425	342	-33.0	-38.9	210	30
2023-09-22T06:00	8450	341	-33.3	-39.7	210	30
2023-09-22T06:00	8474	340	-33.5	-40.1	210	30
2023-09-22T06:00	8495	338	-33.7	-40.6	210	30
2023-09-22T06:00	8517	337	-33.9	-41.5	210	30
2023-09-22T06:00	8539	336	-34.1	-41.8	210	30
2023-09-22T06:00	8561	335	-34.3	-42.1	210	30
2023-09-22T06:00	8582	334	-34.5	-42.2	211	30
2023-09-22T06:00	8603	333	-34.7	-42.5	211	30
2023-09-22T06:00	8625	332	-34.9	-42.7	211	30
2023-09-22T06:00	8647	331	-35.0	-42.8	210	30
2023-09-22T06:00	8669	330	-35.2	-43.2	210	30
2023-09-22T06:00	8693	329	-35.4	-43.6	210	30
2023-09-22T06:00	8714	328	-35.6	-43.8	209	30
2023-09-22T06:00	8734	327	-35.8	-43.9	209	30
2023-09-22T06:00	8754	326	-36.0	-44.1	209	30
2023-09-22T06:00	8775	325	-36.1	-44.3	208	29
2023-09-22T06:00	8796	324	-36.3	-44.4	208	29
2023-09-22T06:00	8815	323	-36.5	-44.6	208	29
2023-09-22T06:00	8840	322	-36.7	-44.8	208	29
2023-09-22T06:00	8874	321	-37.0	-44.6	208	28
2023-09-22T06:00	8905	319	-37.2	-44.4	207	28
2023-09-22T06:00	8936	318	-37.5	-44.4	206	28
2023-09-22T06:00	8961	317	-37.7	-44.6	205	28
2023-09-22T06:00	8990	315	-37.8	-45.0	204	29
2023-09-22T06:00	9017	314	-38.1	-44.9	204	28
2023-09-22T06:00	9047	313	-38.4	-45.1	203	28
2023-09-22T06:00	9077	311	-38.7	-45.2	203	28
2023-09-22T06:00	9106	310	-39.0	-45.4	203	28
2023-09-22T06:00	9139	308	-39.3	-45.5	202	28
2023-09-22T06:00	9172	307	-39.6	-45.5	201	28
2023-09-22T06:00	9198	306	-39.8	-45.8	200	28
2023-09-22T06:00	9234	304	-40.1	-45.9	199	28
2023-09-22T06:00	9263	303	-40.4	-45.9	198	28
2023-09-22T06:00	9294	302	-40.7	-46.4	198	28
2023-09-22T06:00	9324	300	-40.8	-48.1	198	28
2023-09-22T06:00	9354	299	-41.1	-48.3	198	28
2023-09-22T06:00	9380	298	-41.4	-48.5	198	28
2023-09-22T06:00	9409	296	-41.6	-48.3	197	28
2023-09-22T06:00	9442	295	-41.9	-48.2	197	28
2023-09-22T06:00	9470	294	-42.2	-48.6	196	28
2023-09-22T06:00	9504	292	-42.5	-48.7	195	27
2023-09-22T06:00	9542	291	-42.9	-48.8	194	27
2023-09-22T06:00	9578	289	-43.2	-49.6	194	27
2023-09-22T06:00	9618	287	-43.5	-50.9	195	28
2023-09-22T06:00	9655	286	-43.8	-51.3	196	28
2023-09-22T06:00	9692	284	-44.2	-51.2	197	28
2023-09-22T06:00	9731	283	-44.5	-51.4	199	28
2023-09-22T06:00	9771	281	-44.9	-51.5	201	28
2023-09-22T06:00	9807	279	-45.3	-51.6	202	27
2023-09-22T06:00	9842	278	-45.6	-51.9	203	27
2023-09-22T06:00	9883	276	-46.0	-52.1	204	27
2023-09-22T06:00	9923	275	-46.4	-52.4	205	27
2023-09-22T06:00	9962	273	-46.7	-52.8	206	27
2023-09-22T06:00	9997	272	-47.1	-53.6	206	27
2023-09-22T06:00	10035	270	-47.4	-53.8	207	27
2023-09-22T06:00	10069	269	-47.7	-53.7	207	27
2023-09-22T06:00	10105	267	-48.1	-53.9	208	27
2023-09-22T06:00	10137	266	-48.4	-54.1	208	27
2023-09-22T06:00	10173	264	-48.7	-54.0	208	28
2023-09-22T06:00	10209	263	-49.0	-54.1	209	28
2023-09-22T06:00	10241	262	-49.3	-54.4	209	28
2023-09-22T06:00	10268	261	-49.5	-54.8	209	28
2023-09-22T06:00	10299	259	-49.7	-54.9	208	28
2023-09-22T06:00	10321	258	-49.9	-55.0	208	28
2023-09-22T06:00	10349	257	-50.2	-55.2	207	28
2023-09-22T06:00	10376	256	-50.4	-55.2	207	28
2023-09-22T06:00	10405	255	-50.7	-55.3	206	28
2023-09-22T06:00	10432	254	-51.0	-55.4	206	28
2023-09-22T06:00	10453	253	-51.1	-55.5	205	28
2023-09-22T06:00	10475	252	-51.3	-55.7	205	28
2023-09-22T06:00	10504	251	-51.4	-55.9	204	28
2023-09-22T06:00	10529	250	-51.6	-56.2	203	29
2023-09-22T06:00	10552	249	-51.8	-56.3	202	29
2023-09-22T06:00	10579	248	-52.0	-56.5	201	29
2023-09-22T06:00	10608	247	-52.1	-56.9	201	29
2023-09-22T06:00	10633	246	-52.3	-57.3	200	29
2023-09-22T06:00	10654	246	-52.5	-57.4	200	29
2023-09-22T06:00	10676	245	-52.7	-57.4	199	29
2023-09-22T06:00	10699	244	-52.9	-57.5	199	29
2023-09-22T06:00	10720	243	-53.1	-57.6	198	29
2023-09-22T06:00	10743	242	-53.3	-57.9	198	29
2023-09-22T06:00	10763	241	-53.4	-57.9	198	29
2023-09-22T06:00	10787	241	-53.6	-57.9	198	29
2023-09-22T06:00	10808	240	-53.8	-58.0	198	29
2023-09-22T06:00	10829	239	-54.0		198	29
2023-09-22T06:00	10853	238	-54.2	-58.3	199	29
2023-09-22T06:00	10873	237	-54.4	-58.3	199	29
2023-09-22T06:00	10893	237	-54.6	-58.4	199	29
2023-09-22T06:00	10915	236	-54.8	-58.8	199	30
2023-09-22T06:00	10937	235	-54.9	-59.4	199	30
2023-09-22T06:00	10958	234	-55.0	-59.8	199	30
2023-09-22T06:00	10979	233	-55.2	-60.1	199	30
2023-09-22T06:00	11002	233	-55.4	-60.3	198	30
2023-09-22T06:00	11023	232	-55.5	-60.4	198	30
2023-09-22T06:00	11045	231	-55.6	-60.7	198	30
2023-09-22T06:00	11064	230	-55.6	-60.9	198	30
2023-09-22T06:00	11087	230	-55.7	-61.2	197	30
2023-09-22T06:00	11109	229	-55.6	-61.1	197	30
2023-09-22T06:00	11133	228	-55.8	-61.2	197	30
2023-09-22T06:00	11160	227	-55.9	-61.3	196	30
2023-09-22T06:00	11185	226	-55.9	-61.4	195	30
2023-09-22T06:00	11211	225	-56.1	-61.5	194	30
2023-09-22T06:00	11235	224	-56.3	-61.7	194	30
2023-09-22T06:00	11260	223	-56.4	-61.8	193	30
2023-09-22T06:00	11283	223	-56.6	-61.9	192	30
2023-09-22T06:00	11307	222	-56.8	-61.9	192	30
2023-09-22T06:00	11333	221	-57.0	-62.0	192	30
2023-09-22T06:00	11360	220	-57.3	-62.3	192	30
2023-09-22T06:00	11384	219	-57.4	-62.5	193	30
2023-09-22T06:00	11411	218	-57.5	-62.9	195	30
2023-09-22T06:00	11448	217	-57.2	-63.0	197	30
2023-09-22T06:00	11478	216	-57.3	-63.4	198	30
2023-09-22T06:00	11512	215	-57.6	-63.7	199	29
2023-09-22T06:00	11538	214	-57.8	-63.9	200	29
2023-09-22T06:00	11560	213	-58.0	-64.1	201	29
2023-09-22T06:00	11582	212	-58.1	-64.3	201	29
2023-09-22T06:00	11603	212	-58.2	-64.6	201	29
2023-09-22T06:00	11625	211	-58.1	-64.7	200	29
2023-09-22T06:00	11647	210	-58.2	-64.8	200	30
2023-09-22T06:00	11669	209	-58.1	-64.9	199	30
2023-09-22T06:00	11689	209	-58.1	-64.9	199	30
2023-09-22T06:00	11712	208	-58.2	-65.1	198	31
2023-09-22T06:00	11734	207	-58.3	-65.2	198	31
2023-09-22T06:00	11757	206	-58.3	-65.2	198	31
2023-09-22T06:00	11778	206	-58.4	-65.3	199	31
2023-09-22T06:00	11802	205	-58.4	-65.4	200	31
2023-09-22T06:00	11824	204	-58.3	-65.7	201	31
2023-09-22T06:00	11845	204	-57.9	-65.9	202	32
2023-09-22T06:00	11867	203	-57.6	-66.3	203	32
2023-09-22T06:00	11887	202	-57.3	-66.6	203	32
2023-09-22T06:00	11909	202	-57.4	-67.0	204	32
2023-09-22T06:00	11929	201	-57.4	-67.1	204	32
2023-09-22T06:00	11949	200	-57.5	-67.3	205	32
2023-09-22T06:00	11973	199	-57.7	-67.9	205	31
2023-09-22T06:00	12014	198	-57.2	-68.2	206	29
2023-09-22T06:00	12052	197	-56.3	-68.5	206	27
2023-09-22T06:00	12091	196	-56.0	-69.2	205	26
2023-09-22T06:00	12127	195	-55.7	-69.6	204	25
2023-09-22T06:00	12160	194	-55.5	-69.5	202	24
2023-09-22T06:00	12185	193	-55.7	-69.4	201	24
2023-09-22T06:00	12209	192	-55.9	-69.5	199	24
2023-09-22T06:00	12232	192	-56.0	-69.5	198	24
2023-09-22T06:00	12256	191	-56.2	-69.6	197	24
2023-09-22T06:00	12276	190	-56.2	-69.5	196	24
2023-09-22T06:00	12297	190	-56.3		195	24
2023-09-22T06:00	12318	189	-56.3	-69.9	194	25
2023-09-22T06:00	12345	188	-56.5	-70.5	192	25
2023-09-22T06:00	12368	187	-56.4	-70.9	190	26
2023-09-22T06:00	12390	187	-55.7	-70.6	188	26
2023-09-22T06:00	12410	186	-55.2	-70.2	187	27
2023-09-22T06:00	12432	186	-55.1	-70.0	186	27
2023-09-22T06:00	12456	185	-55.1	-70.1	186	28
2023-09-22T06:00	12477	184	-55.1	-70.1	186	28
2023-09-22T06:00	12500	184	-55.1	-70.2	186	29
2023-09-22T06:00	12521	183	-55.3	-70.4	187	29
2023-09-22T06:00	12542	182	-55.3	-70.6	188	29
2023-09-22T06:00	12564	182	-54.9	-70.5	190	30
2023-09-22T06:00	12586	181	-54.9	-70.6	191	30
2023-09-22T06:00	12607	181	-55.0	-70.7	192	31
2023-09-22T06:00	12629	180	-55.1	-70.9	193	31
2023-09-22T06:00	12651	179	-54.8	-70.9	194	31
2023-09-22T06:00	12672	179	-54.7		195	31
2023-09-22T06:00	12694	178	-54.8	-71.3	196	31
2023-09-22T06:00	12716	178	-54.8	-71.3	197	31
2023-09-22T06:00	12740	177	-54.9	-71.5	197	31
2023-09-22T06:00	12765	176	-54.9	-71.7	198	32
2023-09-22T06:00	12790	175	-55.0	-72.0	199	32
2023-09-22T06:00	12814	175	-55.3	-72.4	201	32
2023-09-22T06:00	12840	174	-55.2	-72.5	202	32
2023-09-22T06:00	12864	173	-55.0	-72.5	204	31
2023-09-22T06:00	12889	173	-54.9	-72.6	205	31
2023-09-22T06:00	12917	172	-54.8	-72.7	206	30
2023-09-22T06:00	12948	171	-54.6	-72.7	207	29
2023-09-22T06:00	12972	171	-54.7	-72.8	209	28
2023-09-22T06:00	12999	170	-54.7	-72.8	210	27
2023-09-22T06:00	13023	169	-54.8	-72.9	211	27
2023-09-22T06:00	13046	169	-54.8	-72.9	212	26
2023-09-22T06:00	13069	168	-54.7	-73.0	213	25
2023-09-22T06:00	13092	167	-54.6	-73.0	213	25
2023-09-22T06:00	13112	167	-54.1	-72.7	212	24
2023-09-22T06:00	13134	166	-53.9	-72.5	211	23
2023-09-22T06:00	13156	166	-53.9	-72.6	209	23
2023-09-22T06:00	13180	165	-53.9	-72.7	207	23
2023-09-22T06:00	13201	165	-53.9	-72.7	205	22
2023-09-22T06:00	13222	164	-53.9	-72.8	203	22
2023-09-22T06:00	13244	163	-54.0	-73.0	200	22
2023-09-22T06:00	13266	163	-54.0	-73.0	198	22
2023-09-22T06:00	13288	162	-54.0	-73.0	196	23
2023-09-22T06:00	13311	162	-54.1	-73.1	194	23
2023-09-22T06:00	13336	161	-54.2	-73.1	192	23
2023-09-22T06:00	13361	161	-54.3	-73.2	190	23
2023-09-22T06:00	13382	160	-54.3	-73.1	189	24
2023-09-22T06:00	13404	159	-54.3	-73.1	189	24
2023-09-22T06:00	13428	159	-54.3	-73.1	189	25
2023-09-22T06:00	13448	158	-54.2	-73.0	191	26
2023-09-22T06:00	13467	158	-54.1	-73.1	192	26
2023-09-22T06:00	13490	157	-53.9	-73.2	195	26
2023-09-22T06:00	13512	157	-53.9	-73.3	197	26
2023-09-22T06:00	13533	156	-53.7	-73.0	199	26
2023-09-22T06:00	13553	156	-53.0	-72.3	200	26
2023-09-22T06:00	13575	155	-52.8	-72.1	202	26
2023-09-22T06:00	13594	155	-52.7	-72.1	203	26
2023-09-22T06:00	13614	154	-52.7	-72.2	204	26
2023-09-22T06:00	13636	154	-52.7	-72.4	205	25
2023-09-22T06:00	13656	153	-52.7	-72.4	206	25
2023-09-22T06:00	13677	153	-52.6	-72.4	207	25
2023-09-22T06:00	13697	152	-52.4	-72.2	207	25
2023-09-22T06:00	13719	152	-52.3	-72.2	208	25
2023-09-22T06:00	13740	151	-52.3	-72.1	208	25
2023-09-22T06:00	13759	151	-52.5	-72.2	209	25
2023-09-22T06:00	13782	150	-52.7	-72.4	210	25
2023-09-22T06:00	13804	150	-52.9	-72.6	210	25
2023-09-22T06:00	13825	149	-53.0	-72.7	211	25
2023-09-22T06:00	13846	149	-53.0	-72.8	211	24
2023-09-22T06:00	13867	148	-53.1	-72.9	212	24
2023-09-22T06:00	13888	148	-53.2	-73.0	212	24
2023-09-22T06:00	13912	147	-53.3	-73.1	212	24
2023-09-22T06:00	13935	147	-53.3	-73.1	211	23
2023-09-22T06:00	13956	146	-53.4	-73.2	211	23
2023-09-22T06:00	13979	146	-53.5	-73.3	211	23
2023-09-22T06:00	14001	145	-53.4	-73.2	210	22
2023-09-22T06:00	14025	145	-53.6	-73.3	210	22
2023-09-22T06:00	14047	144	-53.7	-73.3	209	22
2023-09-22T06:00	14073	144	-53.9	-73.6	208	21
2023-09-22T06:00	14098	143	-54.1	-73.8	207	20
2023-09-22T06:00	14125	143	-54.2	-73.8	206	20
2023-09-22T06:00	14152	142	-54.3	-73.9	205	19
2023-09-22T06:00	14175	141	-54.2	-73.8	203	19
2023-09-22T06:00	14202	141	-54.4		202	19
2023-09-22T06:00	14226	140	-54.6	-74.2	201	19
2023-09-22T06:00	14247	140	-54.7	-74.3	200	18
2023-09-22T06:00	14270	139	-54.8	-74.3	200	18
2023-09-22T06:00	14293	139	-55.0	-74.4	200	18
2023-09-22T06:00	14315	138	-55.2	-74.6	201	18
2023-09-22T06:00	14338	138	-55.3	-74.8	202	18
2023-09-22T06:00	14363	137	-55.3	-74.9	202	17
2023-09-22T06:00	14384	137	-55.5	-75.1	202	17
2023-09-22T06:00	14404	136	-55.7	-75.3	201	17
2023-09-22T06:00	14428	136	-55.8	-75.4	201	17
2023-09-22T06:00	14448	136	-55.9	-75.6	200	17
2023-09-22T06:00	14471	135	-55.9	-75.6	200	17
2023-09-22T06:00	14492	135	-55.9	-75.6	200	18
2023-09-22T06:00	14513	134	-55.9	-75.6	199	18
2023-09-22T06:00	14536	134	-55.9	-75.6	199	19
2023-09-22T06:00	14556	133	-55.9	-75.5	199	19
2023-09-22T06:00	14578	133	-56.0	-75.5	199	19
2023-09-22T06:00	14598	132	-56.1	-75.5	198	19
2023-09-22T06:00	14620	132	-56.2	-75.6	198	19
2023-09-22T06:00	14642	131	-56.3	-75.6	197	20
2023-09-22T06:00	14665	131	-56.4	-75.7	197	20
2023-09-22T06:00	14686	131	-56.5	-75.7	197	20
2023-09-22T06:00	14706	130	-56.7	-75.8	197	20
2023-09-22T06:00	14728	130	-56.8	-75.9	198	20
2023-09-22T06:00	14749	129	-56.9	-76.0	198	20
2023-09-22T06:00	14772	129	-56.9	-76.0	199	20
2023-09-22T06:00	14792	128	-56.7	-75.8	199	20
2023-09-22T06:00	14814	128	-56.7	-75.8	198	20
2023-09-22T06:00	14836	127	-56.8	-75.9	198	20
2023-09-22T06:00	14856	127	-56.7	-75.9	197	20
2023-09-22T06:00	14879	127	-56.8	-76.0	197	19
2023-09-22T06:00	14897	126	-56.8	-76.0	197	19
2023-09-22T06:00	14919	126	-56.6	-75.9	196	19
2023-09-22T06:00	14943	125	-56.5	-76.1	196	19
2023-09-22T06:00	14964	125	-56.4	-76.2	197	18
2023-09-22T06:00	14983	125	-56.4	-76.3	197	18
2023-09-22T06:00	15005	124	-56.1	-76.1	198	17
2023-09-22T06:00	15026	124	-56.0	-75.9	200	17
2023-09-22T06:00	15050	123	-56.1	-75.9	201	17
2023-09-22T06:00	15074	123	-56.3	-76.0	203	17
2023-09-22T06:00	15099	122	-56.5	-76.2	204	17
2023-09-22T06:00	15123	122	-56.7	-76.3	206	17
2023-09-22T06:00	15148	121	-56.8	-76.4	207	16
2023-09-22T06:00	15171	121	-57.0	-76.6	207	16
2023-09-22T06:00	15193	120	-57.2	-76.8	206	15
2023-09-22T06:00	15219	120	-57.2	-76.8	203	15
2023-09-22T06:00	15250	119	-57.2	-76.9	200	15
2023-09-22T06:00	15280	119	-56.9	-76.7	196	15
2023-09-22T06:00	15309	118	-57.0	-76.8	193	16
2023-09-22T06:00	15336	118	-57.1	-77.0	191	16
2023-09-22T06:00	15363	117	-57.2	-77.2	189	17
2023-09-22T06:00	15393	117	-57.4	-77.4	189	17
2023-09-22T06:00	15420	116	-57.5	-77.4	190	18
2023-09-22T06:00	15442	116	-57.6	-77.3	191	18
2023-09-22T06:00	15465	115	-57.7	-77.2	193	18
2023-09-22T06:00	15489	115	-57.8	-77.1	195	19
2023-09-22T06:00	15510	115	-58.0	-77.3	197	18
2023-09-22T06:00	15533	114	-58.1	-77.6	199	18
2023-09-22T06:00	15555	114	-58.0	-77.9	200	18
2023-09-22T06:00	15579	113	-58.0	-78.1	202	18
2023-09-22T06:00	15599	113	-57.9	-78.1	203	17
2023-09-22T06:00	15623	113	-57.7	-78.1	205	17
2023-09-22T06:00	15644	112	-57.5	-77.9	207	16
2023-09-22T06:00	15667	112	-57.3	-77.9	208	16
2023-09-22T06:00	15692	111	-57.0	-77.7	209	16
2023-09-22T06:00	15713	111	-56.8	-77.7	210	15
2023-09-22T06:00	15737	111	-56.7	-77.6	210	15
2023-09-22T06:00	15761	110	-56.5	-77.6	210	15
2023-09-22T06:00	15784	110	-56.4	-77.5	209	15
2023-09-22T06:00	15807	109	-56.3	-77.6	207	15
2023-09-22T06:00	15831	109	-56.3	-77.6	205	15
2023-09-22T06:00	15854	109	-56.4	-77.8	204	15
2023-09-22T06:00	15876	108	-56.4	-77.8	202	16
2023-09-22T06:00	15901	108	-56.5	-77.9	201	16
2023-09-22T06:00	15927	107	-56.7	-78.0	201	16
2023-09-22T06:00	15950	107	-56.8	-78.1	201	16
2023-09-22T06:00	15974	107	-57.0	-78.4	201	17
2023-09-22T06:00	15997	106	-57.1	-78.5	202	17
2023-09-22T06:00	16022	106	-56.8	-78.4	203	17
2023-09-22T06:00	16047	105	-56.7	-78.3	205	17
2023-09-22T06:00	16072	105	-56.8		207	16
2023-09-22T06:00	16095	105	-56.8		208	16
2023-09-22T06:00	16119	104	-56.9	-78.6	210	16
2023-09-22T06:00	16144	104	-56.7	-78.6	211	15
2023-09-22T06:00	16170	103	-56.8	-78.8	213	15
2023-09-22T06:00	16196	103	-56.6	-78.7	215	15
2023-09-22T06:00	16219	102	-56.6	-78.8	216	14
2023-09-22T06:00	16245	102	-56.7	-78.9	217	14
2023-09-22T06:00	16270	102	-56.9	-79.1	218	14
2023-09-22T06:00	16296	101	-56.8	-79.0	218	13
2023-09-22T06:00	16320	101	-56.8	-79.2	218	13
2023-09-22T06:00	16343	100	-56.9	-79.1	218	13
2023-09-22T06:00	16368	100	-56.9	-79.1	218	12
2023-09-22T06:00	16391	100	-57.0	-79.2	218	12
2023-09-22T06:00	16416	99	-57.0	-79.2	218	11
2023-09-22T06:00	16440	99	-57.2	-79.3	218	11
2023-09-22T06:00	16462	99	-57.3	-79.2	217	11
2023-09-22T06:00	16487	98	-57.4	-79.3	215	11
2023-09-22T06:00	16512	98	-57.5	-79.4	214	11
2023-09-22T06:00	16532	97	-57.6	-79.5	212	11
2023-09-22T06:00	16559	97	-57.7	-79.6	211	11
2023-09-22T06:00	16585	97	-57.8	-79.8	209	11
2023-09-22T06:00	16605	96	-57.9	-79.9	208	11
2023-09-22T06:00	16629	96	-57.8	-80.0	207	11
2023-09-22T06:00	16652	96	-57.6	-79.6	207	12
2023-09-22T06:00	16675	95	-57.7	-79.7	208	12
2023-09-22T06:00	16701	95	-57.8	-79.6	209	12
2023-09-22T06:00	16729	95	-57.9	-79.7	211	13
2023-09-22T06:00	16756	94	-57.9	-79.9	214	13
2023-09-22T06:00	16785	94	-58.1	-80.2	216	14
2023-09-22T06:00	16809	93	-58.2	-80.6	218	14
2023-09-22T06:00	16831	93	-58.0	-80.6	219	14
2023-09-22T06:00	16856	93	-57.7	-80.6	221	14
2023-09-22T06:00	16877	92	-57.6	-80.7	222	13
2023-09-22T06:00	16902	92	-57.6	-80.7	222	13
2023-09-22T06:00	16925	92	-57.7	-80.9	221	13
2023-09-22T06:00	16947	91	-57.5	-81.0	219	12
2023-09-22T06:00	16974	91	-57.1	-80.6	215	12
2023-09-22T06:00	16999	91	-56.8	-80.6	210	12
2023-09-22T06:00	17024	90	-56.7	-80.7	205	11
2023-09-22T06:00	17048	90	-56.7	-80.7	200	12
2023-09-22T06:00	17070	90	-56.8	-80.8	196	12
2023-09-22T06:00	17094	89	-57.0	-81.0	193	12
2023-09-22T06:00	17115	89	-57.1	-80.8	191	12
2023-09-22T06:00	17141	89	-57.2	-80.9	190	13
2023-09-22T06:00	17162	88	-57.3	-81.0	190	13
2023-09-22T06:00	17186	88	-57.4	-80.9	190	14
2023-09-22T06:00	17207	88	-57.3	-80.6	192	14
2023-09-22T06:00	17229	87	-57.2	-80.3	193	15
2023-09-22T06:00	17254	87	-57.2	-80.0	196	16
2023-09-22T06:00	17276	87	-57.4	-80.0	198	16
2023-09-22T06:00	17298	86	-57.3	-79.7	200	16
2023-09-22T06:00	17322	86	-57.0	-79.6	202	16
2023-09-22T06:00	17349	86	-56.8	-79.7	203	16
2023-09-22T06:00	17370	85	-56.8	-80.0	204	15
2023-09-22T06:00	17391	85	-56.6	-80.0	205	15
2023-09-22T06:00	17414	85	-56.7	-80.5	206	14
2023-09-22T06:00	17439	84	-56.5	-80.6	207	13
2023-09-22T06:00	17461	84	-56.3	-80.4	208	13
2023-09-22T06:00	17483	84	-56.2	-80.3	210	12
2023-09-22T06:00	17507	84	-56.2	-80.1	212	11
2023-09-22T06:00	17531	83	-56.2	-79.9	213	11
2023-09-22T06:00	17554	83	-56.1	-79.8	212	10
2023-09-22T06:00	17576	83	-56.2	-79.9	211	10
2023-09-22T06:00	17599	82	-56.3	-80.0	209	10
2023-09-22T06:00	17624	82	-56.0	-80.0	207	10
2023-09-22T06:00	17649	82	-55.6	-80.1	204	10
2023-09-22T06:00	17671	81	-55.6	-80.5	203	10
2023-09-22T06:00	17691	81	-55.6	-80.8	202	11
2023-09-22T06:00	17714	81	-55.8	-80.9	202	11
2023-09-22T06:00	17738	81	-55.9	-81.0	202	12
2023-09-22T06:00	17763	80	-56.0	-81.1	202	12
2023-09-22T06:00	17785	80	-56.1	-81.1	203	13
2023-09-22T06:00	17807	80	-56.3	-81.5	203	14
2023-09-22T06:00	17830	79	-56.5	-81.7	204	15
2023-09-22T06:00	17855	79	-56.7	-82.1	204	16
2023-09-22T06:00	17878	79	-56.7	-82.1	204	17
2023-09-22T06:00	17901	79	-56.7	-82.1	205	17
2023-09-22T06:00	17924	78	-56.3	-81.8	205	18
2023-09-22T06:00	17947	78	-55.4	-81.1	205	18
2023-09-22T06:00	17971	78	-55.4	-81.1	206	19
2023-09-22T06:00	17995	77	-55.6	-81.3	207	19
2023-09-22T06:00	18017	77	-55.6	-81.5	209	18
2023-09-22T06:00	18038	77	-55.4	-81.4	210	18
2023-09-22T06:00	18062	77	-55.4	-81.4	212	18
2023-09-22T06:00	18086	76	-55.4	-81.6	214	18
2023-09-22T06:00	18108	76	-55.4	-81.6	215	18
2023-09-22T06:00	18134	76	-55.3	-81.6	217	18
2023-09-22T06:00	18153	76	-55.3	-81.6	219	18
2023-09-22T06:00	18177	75	-55.5	-82.0	221	17
2023-09-22T06:00	18200	75	-55.4	-81.9	223	17
2023-09-22T06:00	18223	75	-55.3	-81.9	225	18
2023-09-22T06:00	18249	74	-55.3	-81.9	227	18
2023-09-22T06:00	18272	74	-55.3	-81.9	229	17
2023-09-22T06:00	18296	74	-55.4	-81.9	231	17
2023-09-22T06:00	18324	74	-55.4	-81.9	232	17
2023-09-22T06:00	18347	73	-55.2	-82.1	233	16
2023-09-22T06:00	18369	73	-54.9	-81.9	234	15
2023-09-22T06:00	18393	73	-54.8	-82.1	235	14
2023-09-22T06:00	18422	72	-54.7	-82.0	234	14
2023-09-22T06:00	18444	72	-54.7	-82.0	234	13
2023-09-22T06:00	18472	72	-54.8	-82.1	232	12
2023-09-22T06:00	18497	72	-54.8	-82.1	229	12
2023-09-22T06:00	18524	71	-54.8	-82.1	227	12
2023-09-22T06:00	18546	71	-54.7	-82.0	224	12
2023-09-22T06:00	18572	71	-54.7	-82.0	221	12
2023-09-22T06:00	18596	70	-54.4	-81.8	219	12
2023-09-22T06:00	18622	70	-54.3	-81.4	216	12
2023-09-22T06:00	18646	70	-54.5	-81.5	213	12
2023-09-22T06:00	18674	70	-54.6	-81.6	211	12
2023-09-22T06:00	18696	69	-54.6	-81.6	208	12
2023-09-22T06:00	18722	69	-54.6	-81.6	207	12
2023-09-22T06:00	18746	69	-54.7	-81.7	206	12
2023-09-22T06:00	18773	69	-54.4	-81.8	205	12
2023-09-22T06:00	18797	68	-54.5	-82.2	204	12
2023-09-22T06:00	18824	68	-54.6	-82.3	203	12
2023-09-22T06:00	18851	68	-54.7	-82.4	202	12
2023-09-22T06:00	18873	67	-54.5	-82.6	200	12
2023-09-22T06:00	18901	67	-54.6	-82.6	198	12
2023-09-22T06:00	18923	67	-54.6	-82.6	196	12
2023-09-22T06:00	18949	67	-54.2	-82.3	195	12
2023-09-22T06:00	18974	66	-54.0	-82.6	194	12
2023-09-22T06:00	18998	66	-54.0	-82.6	194	12
2023-09-22T06:00	19024	66	-54.1	-82.6	194	12
2023-09-22T06:00	19048	66	-54.2	-82.7	194	13
2023-09-22T06:00	19073	65	-54.3	-82.8	194	13
2023-09-22T06:00	19097	65	-54.4	-82.9	193	13
2023-09-22T06:00	19117	65	-54.5	-82.9	193	14
2023-09-22T06:00	19145	65	-54.3	-82.8	192	14
2023-09-22T06:00	19171	64	-54.4	-82.9	193	14
2023-09-22T06:00	19191	64	-54.5	-82.9	193	14
2023-09-22T06:00	19218	64	-54.6	-83.0	194	14
2023-09-22T06:00	19240	64	-54.8	-83.2	196	14
2023-09-22T06:00	19261	64	-55.0		197	14
2023-09-22T06:00	19284	63	-55.1	-83.4	199	13
2023-09-22T06:00	19305	63	-55.2	-83.5	201	13
2023-09-22T06:00	19329	63	-55.2	-83.9	202	13
2023-09-22T06:00	19352	63	-55.3	-84.0	204	13
2023-09-22T06:00	19374	62	-55.4	-84.0	206	12
2023-09-22T06:00	19396	62	-55.3	-84.0	207	12
2023-09-22T06:00	19419	62	-55.3	-84.0	209	12
2023-09-22T06:00	19443	62	-55.3	-84.0	210	11
2023-09-22T06:00	19466	62	-55.2	-83.9	212	11
2023-09-22T06:00	19491	61	-55.3	-84.0	214	11
2023-09-22T06:00	19515	61	-55.4	-84.5	215	11
2023-09-22T06:00	19538	61	-55.6	-84.6	217	11
2023-09-22T06:00	19560	61	-55.7	-84.7	217	10
2023-09-22T06:00	19583	60	-55.7	-84.7	217	10
2023-09-22T06:00	19605	60	-55.5	-84.5	216	10
2023-09-22T06:00	19628	60	-55.5	-84.1	215	10
2023-09-22T06:00	19655	60	-55.7	-84.3	213	9
2023-09-22T06:00	19677	60	-55.9	-84.4	210	9
2023-09-22T06:00	19703	59	-56.0	-84.5	207	9
2023-09-22T06:00	19726	59	-55.9	-84.4	202	9
2023-09-22T06:00	19751	59	-55.7	-84.7	198	9
2023-09-22T06:00	19774	59	-55.7	-84.7	194	9
2023-09-22T06:00	19797	58	-55.7	-84.7	191	9
2023-09-22T06:00	19823	58	-55.7	-84.7	189	10
2023-09-22T06:00	19848	58	-55.8	-84.8	189	11
2023-09-22T06:00	19874	58	-55.7	-84.7	190	11
2023-09-22T06:00	19898	57	-55.7	-84.7	190	12
2023-09-22T06:00	19924	57	-55.8	-84.8	190	12
2023-09-22T06:00	19947	57	-55.9	-84.8	190	13
2023-09-22T06:00	19969	57	-55.8	-84.8	189	13
2023-09-22T06:00	19993	57	-55.8	-84.8	189	13
2023-09-22T06:00	20019	56	-55.9	-84.4	189	13
2023-09-22T06:00	20044	56	-55.8	-84.3	190	13
2023-09-22T06:00	20073	56	-55.7	-83.9	192	13
2023-09-22T06:00	20100	56	-55.8	-83.9	195	13
2023-09-22T06:00	20121	55	-55.8	-83.9	198	13
2023-09-22T06:00	20146	55	-55.6	-84.2	201	13
2023-09-22T06:00	20173	55	-55.6	-84.2	204	13
2023-09-22T06:00	20203	55	-55.6	-84.6	208	13
2023-09-22T06:00	20227	55	-55.6	-84.6	210	13
2023-09-22T06:00	20249	54	-55.6	-85.1	212	13
2023-09-22T06:00	20275	54	-55.5	-84.5	213	13
2023-09-22T06:00	20302	54	-55.5	-84.5	213	14
2023-09-22T06:00	20325	54	-55.6	-84.6	213	14
2023-09-22T06:00	20352	54	-55.7	-84.3	213	14
2023-09-22T06:00	20381	53	-56.0	-84.5	213	14
2023-09-22T06:00	20408	53	-56.3	-84.7	214	15
2023-09-22T06:00	20439	53	-56.5	-84.9	215	15
2023-09-22T06:00	20461	53	-56.7	-85.0	217	15
2023-09-22T06:00	20486	52	-56.8	-85.1	220	15
2023-09-22T06:00	20513	52	-56.8	-85.1	223	15
2023-09-22T06:00	20540	52	-56.8	-85.1	227	15
2023-09-22T06:00	20568	52	-57.0	-85.2	230	14
2023-09-22T06:00	20593	52	-57.0	-85.2	233	14
2023-09-22T06:00	20616	51	-56.9	-85.2	237	14
2023-09-22T06:00	20640	51	-56.9	-85.2	239	13
2023-09-22T06:00	20669	51	-57.0	-85.7	241	13
2023-09-22T06:00	20695	51	-57.0	-85.7	244	12
2023-09-22T06:00	20717	51	-57.0	-85.7	246	12
2023-09-22T06:00	20742	50	-56.9	-86.1	248	11
2023-09-22T06:00	20764	50	-56.9	-86.1	250	10
2023-09-22T06:00	20791	50	-57.1	-86.2	252	9
2023-09-22T06:00	20815	50	-57.2	-86.3	253	9
2023-09-22T06:00	20836	50	-57.3	-86.4	253	8
2023-09-22T06:00	20863	49	-57.3	-86.4	251	7
2023-09-22T06:00	20888	49	-57.3	-86.4	248	7
2023-09-22T06:00	20910	49	-57.1	-86.2	243	6
2023-09-22T06:00	20935	49	-57.0	-86.1	237	6
2023-09-22T06:00	20957	49	-57.0	-86.1	232	6
2023-09-22T06:00	20982	48	-57.2	-86.3	227	6
2023-09-22T06:00	21008	48	-57.3	-86.4	222	6
2023-09-22T06:00	21034	48	-57.2	-86.3	217	6
2023-09-22T06:00	21058	48	-57.1	-86.2	213	6
2023-09-22T06:00	21082	48	-57.3	-86.4	208	6
2023-09-22T06:00	21107	48	-57.4	-86.4	204	6
2023-09-22T06:00	21128	47	-57.5	-87.0	201	7
2023-09-22T06:00	21158	47	-57.5	-87.0	198	7
2023-09-22T06:00	21178	47	-57.4	-86.9	196	7
2023-09-22T06:00	21207	47	-57.1	-86.7	194	7
2023-09-22T06:00	21233	47	-56.8	-86.5	192	7
2023-09-22T06:00	21254	46	-56.8	-86.5	191	8
2023-09-22T06:00	21281	46	-56.8	-86.5	191	8
2023-09-22T06:00	21308	46	-56.8	-86.5	191	8
2023-09-22T06:00	21334	46	-56.9	-86.6	192	8
2023-09-22T06:00	21358	46	-56.9	-86.6	195	8
2023-09-22T06:00	21384	45	-56.9	-86.6	198	8
2023-09-22T06:00	21411	45	-57.0	-86.6	201	8
2023-09-22T06:00	21431	45	-57.1	-86.7	205	9
2023-09-22T06:00	21454	45	-57.2	-86.8	207	9
2023-09-22T06:00	21484	45	-57.3	-86.9	210	9
2023-09-22T06:00	21509	45	-57.3	-86.9	212	10
2023-09-22T06:00	21533	44	-57.4	-86.9	214	10
2023-09-22T06:00	21564	44	-57.5	-87.0	216	10
2023-09-22T06:00	21588	44	-57.5	-87.0	218	10
2023-09-22T06:00	21612	44	-57.3	-86.9	219	10
2023-09-22T06:00	21640	44	-57.3	-86.9	220	9
2023-09-22T06:00	21667	43	-57.3	-86.9	221	9
2023-09-22T06:00	21697	43	-57.4	-86.9	223	9
2023-09-22T06:00	21724	43	-57.4	-86.9	226	9
2023-09-22T06:00	21752	43	-57.6	-87.1	229	9
2023-09-22T06:00	21775	43	-57.8	-87.2	232	9
2023-09-22T06:00	21801	43	-57.7	-87.2	235	9
2023-09-22T06:00	21823	42	-57.7	-87.2	236	10
2023-09-22T06:00	21855	42	-57.7	-87.2	235	10
2023-09-22T06:00	21879	42	-57.7	-87.2	233	10
2023-09-22T06:00	21903	42	-57.7	-87.2	231	11
2023-09-22T06:00	21932	42	-57.8	-87.2	229	11
2023-09-22T06:00	21958	42	-58.0	-87.4	229	11
2023-09-22T06:00	21980	41	-58.1	-87.4	229	12
2023-09-22T06:00	22009	41	-58.2	-87.5	230	12
2023-09-22T06:00	22031	41	-58.2	-87.5	231	12
2023-09-22T06:00	22062	41	-57.8	-87.2	231	11
2023-09-22T06:00	22086	41	-57.8	-87.2	231	11
2023-09-22T06:00	22116	41	-57.8	-87.2	228	10
2023-09-22T06:00	22144	40	-58.0	-87.4	224	9
2023-09-22T06:00	22168	40	-58.1	-87.4	218	9
2023-09-22T06:00	22196	40	-58.0	-87.4	212	9
2023-09-22T06:00	22221	40	-57.8	-87.2	207	9
2023-09-22T06:00	22245	40	-57.8	-87.8	203	8
2023-09-22T06:00	22274	39	-57.7	-87.7	200	8
2023-09-22T06:00	22296	39	-57.5	-87.5	198	8
2023-09-22T06:00	22328	39	-57.4	-87.5	198	8
2023-09-22T06:00	22351	39	-57.5	-87.5	198	8
2023-09-22T06:00	22378	39	-57.4	-87.5	200	8
2023-09-22T06:00	22401	39	-57.2	-87.3	202	8
2023-09-22T06:00	22425	39	-56.9	-87.1	205	8
2023-09-22T06:00	22456	38	-57.0	-87.2	208	9
2023-09-22T06:00	22482	38	-57.1	-87.2	209	9
2023-09-22T06:00	22509	38	-57.4	-86.9	210	10
2023-09-22T06:00	22531	38	-57.6	-87.1	211	10
2023-09-22T06:00	22563	38	-57.9	-87.3	212	10
2023-09-22T06:00	22587	38	-58.1	-87.0	214	11
2023-09-22T06:00	22617	37	-58.3	-87.1	216	11
2023-09-22T06:00	22636	37	-58.5	-87.3	220	12
2023-09-22T06:00	22659	37	-58.6	-87.3	224	12
2023-09-22T06:00	22689	37	-58.6	-87.8	228	12
2023-09-22T06:00	22711	37	-58.5	-87.7	231	12
2023-09-22T06:00	22737	37	-58.3	-87.6	234	13
2023-09-22T06:00	22764	37	-58.2	-87.5	237	13
2023-09-22T06:00	22790	36	-58.2	-88.1	239	13
2023-09-22T06:00	22811	36	-58.1	-88.0	241	14
2023-09-22T06:00	22840	36	-58.1	-88.0	244	14
2023-09-22T06:00	22862	36	-58.1	-88.0	246	14
2023-09-22T06:00	22884	36	-58.1	-88.0	248	14
2023-09-22T06:00	22911	36	-58.0	-87.9	250	14
2023-09-22T06:00	22936	36	-57.9	-87.8	252	13
2023-09-22T06:00	22956	35	-57.8	-87.8	253	13
2023-09-22T06:00	22982	35	-57.8	-87.8	255	13
2023-09-22T06:00	23005	35	-57.6	-87.6	256	12
2023-09-22T06:00	23034	35	-57.6	-87.6	258	12
2023-09-22T06:00	23058	35	-57.6	-87.6	259	11
2023-09-22T06:00	23077	35	-57.4	-88.1	261	11
2023-09-22T06:00	23107	35	-57.1	-87.8	262	10
2023-09-22T06:00	23128	34	-56.9	-87.7	262	9
2023-09-22T06:00	23154	34	-56.6	-87.5	261	9
2023-09-22T06:00	23184	34	-56.6	-87.5	257	8
2023-09-22T06:00	23206	34	-56.5	-87.4	252	8
2023-09-22T06:00	23227	34	-56.5	-87.4	245	8
2023-09-22T06:00	23263	34	-56.6	-87.5	238	8
2023-09-22T06:00	23283	34	-56.6	-86.9	231	8
2023-09-22T06:00	23314	34	-56.6	-86.9	225	8
2023-09-22T06:00	23341	33	-56.9	-87.1	220	8
2023-09-22T06:00	23366	33	-57.0	-87.2	218	9
2023-09-22T06:00	23389	33	-57.0	-87.2	218	9
2023-09-22T06:00	23415	33	-57.1	-87.2	220	9
2023-09-22T06:00	23449	33	-57.1	-87.2	223	10
2023-09-22T06:00	23464	33	-57.0	-87.2	225	10
2023-09-22T06:00	23496	33	-56.9	-87.7	227	10
2023-09-22T06:00	23522	32	-56.8	-87.6	227	10
2023-09-22T06:00	23546	32	-56.8	-87.6	226	10
2023-09-22T06:00	23577	32	-56.6	-87.5	226	10
2023-09-22T06:00	23600	32	-56.4	-87.3	226	10
2023-09-22T06:00	23622	32	-56.2	-87.2	227	10
2023-09-22T06:00	23657	32	-56.3	-87.2	228	9
2023-09-22T06:00	23673	32	-56.3	-87.2	230	8
2023-09-22T06:00	23696	32	-56.3	-87.2	232	8
2023-09-22T06:00	23730	31	-56.4	-87.3	234	7
2023-09-22T06:00	23759	31	-56.6	-86.9	235	6
2023-09-22T06:00	23781	31	-56.6	-86.9	235	6
2023-09-22T06:00	23804	31	-56.7	-86.9	234	6
2023-09-22T06:00	23839	31	-56.6	-86.9	231	6
2023-09-22T06:00	23862	31	-56.6	-86.9	229	7
2023-09-22T06:00	23890	31	-56.6	-86.9	227	7
2023-09-22T06:00	23916	30	-56.7	-86.9	225	8
2023-09-22T06:00	23941	30	-56.8	-87.0	225	9
2023-09-22T06:00	23968	30	-56.8	-87.0	226	10
2023-09-22T06:00	23999	30	-56.9	-87.1	227	10
2023-09-22T06:00	24024	30	-57.0	-87.2	228	11
2023-09-22T06:00	24053	30	-57.0	-87.2	230	11
2023-09-22T06:00	24080	30	-57.0	-87.2	232	11
2023-09-22T06:00	24107	30	-56.9	-87.7	234	10
2023-09-22T06:00	24135	29	-56.7	-87.5	236	9
2023-09-22T06:00	24161	29	-56.3	-87.2	237	9
2023-09-22T06:00	24183	29	-56.2	-87.2	236	8
2023-09-22T06:00	24215	29	-56.1	-87.8	235	7
2023-09-22T06:00	24239	29	-56.0	-87.7	233	7
2023-09-22T06:00	24273	29	-56.0	-87.7	231	7
2023-09-22T06:00	24290	29	-55.9	-87.6	230	7
2023-09-22T06:00	24320	29	-55.9	-87.6	228	7
2023-09-22T06:00	24347	28	-55.5	-87.3	226	7
2023-09-22T06:00	24374	28	-55.2	-87.1	224	8
2023-09-22T06:00	24400	28	-55.0	-87.0	221	8
2023-09-22T06:00	24428	28	-55.0	-87.0	218	8
2023-09-22T06:00	24455	28	-55.1	-87.0	216	8
2023-09-22T06:00	24482	28	-55.2	-86.4	214	8
2023-09-22T06:00	24504	28	-55.3	-86.5	213	8
2023-09-22T06:00	24526	28	-55.4	-86.6	212	8
2023-09-22T06:00	24555	28	-55.6	-86.7	213	9
2023-09-22T06:00	24582	27	-55.7	-86.8	214	9
2023-09-22T06:00	24613	27	-55.6	-86.7	217	8
2023-09-22T06:00	24639	27	-55.6	-86.7	220	9
2023-09-22T06:00	24668	27	-55.4	-86.6	224	9
2023-09-22T06:00	24689	27	-55.4	-86.6	227	9
2023-09-22T06:00	24720	27	-55.6	-86.7	230	9
2023-09-22T06:00	24738	27	-55.7	-86.8	233	9
2023-09-22T06:00	24773	27	-55.7	-86.8	234	8
2023-09-22T06:00	24796	27	-55.7	-86.8	235	8
2023-09-22T06:00	24824	26	-55.6	-86.7	235	7
2023-09-22T06:00	24851	26	-55.6	-86.7	234	7
2023-09-22T06:00	24879	26	-55.6	-86.7	231	7
2023-09-22T06:00	24901	26	-55.6	-86.7	228	7
2023-09-22T06:00	24929	26	-55.7	-86.8	226	7
2023-09-22T06:00	24959	26	-55.8	-86.9	225	7
2023-09-22T06:00	24986	26	-55.8	-86.9	225	8
2023-09-22T06:00	25015	26	-55.8	-86.9	225	8
2023-09-22T06:00	25041	26	-55.9	-86.9	225	9
2023-09-22T06:00	25073	25	-56.1	-87.1	226	9
2023-09-22T06:00	25097	25	-56.2	-87.2	225	10
2023-09-22T06:00	25118	25	-56.4	-87.3	225	11
2023-09-22T06:00	25145	25	-56.5	-86.8	224	11
2023-09-22T06:00	25180	25	-56.6	-86.9	223	12
2023-09-22T06:00	25204	25	-56.8	-87.0	223	12
2023-09-22T06:00	25227	25	-57.0	-87.2	222	12
2023-09-22T06:00	25255	25	-57.1	-87.2	222	12
2023-09-22T06:00	25284	25	-57.2	-87.3	223	12
2023-09-22T06:00	25316	24	-57.3	-87.4	224	12
2023-09-22T06:00	25341	24	-57.3	-87.4	226	11
2023-09-22T06:00	25364	24	-57.3	-87.4	227	11
2023-09-22T06:00	25397	24	-57.4	-87.5	228	10
2023-09-22T06:00	25422	24	-57.5	-87.5	228	10
2023-09-22T06:00	25450	24	-57.4	-87.5	227	9
2023-09-22T06:00	25483	24	-57.2	-87.9	225	8
2023-09-22T06:00	25503	24	-57.2	-87.9	222	8
2023-09-22T06:00	25533	24	-57.3	-87.4	219	7
2023-09-22T06:00	25560	24	-57.5	-87.5	217	7
2023-09-22T06:00	25588	23	-57.5	-87.5	217	7
2023-09-22T06:00	25618	23	-57.6	-87.6	219	7
2023-09-22T06:00	25650	23	-57.7	-87.7	222	7
2023-09-22T06:00	25670	23	-57.7	-87.7	226	8
2023-09-22T06:00	25707	23	-57.5	-88.1	229	9
2023-09-22T06:00	25725	23	-57.3	-88.0	230	9
2023-09-22T06:00	25755	23	-57.2	-87.9	230	10
2023-09-22T06:00	25787	23	-57.0	-87.8	230	10
2023-09-22T06:00	25816	23	-56.9	-87.7	231	11
2023-09-22T06:00	25845	23	-57.0	-87.8	232	11
2023-09-22T06:00	25873	22	-57.0	-87.8	235	11
2023-09-22T06:00	25900	22	-56.7	-88.2	239	11
2023-09-22T06:00	25933	22	-56.4	-88.0	243	11
2023-09-22T06:00	25959	22	-56.2	-87.8	247	11
2023-09-22T06:00	25994	22	-56.1	-87.8	250	11
2023-09-22T06:00	26021	22	-56.1	-87.8	252	11
2023-09-22T06:00	26052	22	-55.9	-87.6	253	11
2023-09-22T06:00	26082	22	-55.9	-87.6	253	11
2023-09-22T06:00	26112	22	-56.1	-87.1	254	12
2023-09-22T06:00	26146	21	-56.1	-87.1	256	12
2023-09-22T06:00	26172	21	-56.2	-87.2	258	12
2023-09-22T06:00	26207	21	-56.2	-87.2	260	12
2023-09-22T06:00	26237	21	-56.3	-87.2	263	12
2023-09-22T06:00	26269	21	-56.5	-87.4	265	12
2023-09-22T06:00	26299	21	-56.6	-87.5	267	12
2023-09-22T06:00	26328	21	-56.6	-87.5	269	12
2023-09-22T06:00	26363	21	-56.5	-87.4	271	12
2023-09-22T06:00	26386	21	-56.2	-87.2	272	12
2023-09-22T06:00	26414	21	-56.0	-87.0	273	12
2023-09-22T06:00	26444	20	-56.1	-87.1	275	12
2023-09-22T06:00	26470	20	-56.3	-87.2	276	12
2023-09-22T06:00	26506	20	-56.5	-87.4	278	12
2023-09-22T06:00	26535	20	-56.5	-87.4	280	11
2023-09-22T06:00	26563	20	-56.5	-87.4	283	11
2023-09-22T06:00	26597	20	-56.5	-87.4	285	10
2023-09-22T06:00	26623	20	-56.4	-87.3	287	10
2023-09-22T06:00	26642	20	-56.3	-87.2	287	9
2023-09-22T06:00	26677	20	-56.2	-87.2	287	8
2023-09-22T06:00	26694	20	-56.2	-87.2	285	8
2023-09-22T06:00	26723	20	-56.3	-87.2	283	7
2023-09-22T06:00	26750	20	-56.4	-87.3	281	6
2023-09-22T06:00	26778	19	-56.4	-87.3	277	5
2023-09-22T06:00	26804	19	-56.4	-87.3	272	4
2023-09-22T06:00	26829	19	-56.5	-87.4	263	4
2023-09-22T06:00	26861	19	-56.5	-87.4	251	3
2023-09-22T06:00	26888	19	-56.2	-87.8	238	3
2023-09-22T06:00	26912	19	-56.2	-87.8	226	3
2023-09-22T06:00	26947	19	-56.1	-87.8	219	4
2023-09-22T06:00	26971	19	-56.0	-87.7	215	5
2023-09-22T06:00	27001	19	-56.2	-87.8	215	5
2023-09-22T06:00	27022	19	-56.3	-87.9	217	6
2023-09-22T06:00	27041	19	-56.2	-87.8	221	7
2023-09-22T06:00	27074	19	-56.0	-87.7	226	7
2023-09-22T06:00	27098	18	-55.6	-87.4	232	8
2023-09-22T06:00	27122	18	-55.3	-87.2	238	8
2023-09-22T06:00	27144	18	-55.1	-87.8	244	9
2023-09-22T06:00	27183	18	-55.1	-87.8	248	9
2023-09-22T06:00	27205	18	-55.0	-87.7	252	10
2023-09-22T06:00	27232	18	-55.0	-87.0	255	11
2023-09-22T06:00	27260	18	-55.1	-87.0	257	12
2023-09-22T06:00	27290	18	-55.2	-87.1	260	12
2023-09-22T06:00	27306	18	-55.2	-87.1	263	13
2023-09-22T06:00	27338	18	-55.0	-87.0	266	13
2023-09-22T06:00	27376	18	-54.8	-86.8	268	13
2023-09-22T06:00	27391	18	-54.7	-87.5	270	13
2023-09-22T06:00	27427	18	-54.6	-87.4	271	12
2023-09-22T06:00	27462	17	-54.5	-87.3	272	12
2023-09-22T06:00	27477	17	-54.3	-87.2	272	11
2023-09-22T06:00	27517	17	-54.2	-87.1	272	10
2023-09-22T06:00	27550	17	-54.1	-87.1	271	10
2023-09-22T06:00	27580	17	-54.0	-87.0	270	9
2023-09-22T06:00	27611	17	-54.1	-87.1	267	9
2023-09-22T06:00	27633	17	-54.0	-87.0	263	9
2023-09-22T06:00	27663	17	-54.0	-87.0	259	9
2023-09-22T06:00	27699	17	-54.0	-87.0	254	9
2023-09-22T06:00	27723	17	-54.1	-87.1	249	9
2023-09-22T06:00	27760	17	-54.1	-87.1	244	10
2023-09-22T06:00	27786	17	-54.2	-87.1	239	10
2023-09-22T06:00	27828	17	-54.1	-87.1	236	11
2023-09-22T06:00	27852	16	-53.9	-86.9	234	11
2023-09-22T06:00	27891	16	-54.0	-87.0	233	11
2023-09-22T06:00	27931	16	-54.0	-87.0	235	11
2023-09-22T06:00	27947	16	-54.0	-87.0	238	11
2023-09-22T06:00	27982	16	-54.0	-87.0	241	11
2023-09-22T06:00	28010	16	-54.0	-87.0	243	11
2023-09-22T06:00	28052	16	-54.1	-87.1	245	11
2023-09-22T06:00	28079	16	-54.0	-87.0	244	11
2023-09-22T06:00	28104	16	-53.7	-86.8	243	11
2023-09-22T06:00	28143	16	-53.6	-86.7	242	10
2023-09-22T06:00	28160	16	-53.6	-86.7	240	10
2023-09-22T06:00	28198	16	-53.6	-86.7	239	10
2023-09-22T06:00	28227	16	-53.7	-86.8	239	10
2023-09-22T06:00	28250	15	-53.8	-86.8	239	11
2023-09-22T06:00	28280	15	-53.9	-86.9	238	11
2023-09-22T06:00	28307	15	-53.9	-86.9	237	11
2023-09-22T06:00	28342	15	-53.8	-86.8	237	11
2023-09-22T06:00	28370	15	-53.9	-86.9	237	12
2023-09-22T06:00	28406	15	-53.8	-86.8	239	12
2023-09-22T06:00	28432	15	-53.7	-86.8	240	12
2023-09-22T06:00	28449	15	-53.6	-86.7	242	12
2023-09-22T06:00	28481	15	-53.7	-86.8	243	12
2023-09-22T06:00	28510	15	-53.7	-86.8	244	12
2023-09-22T06:00	28536	15	-53.8	-86.8	244	12
2023-09-22T06:00	28559	15	-53.8	-86.8	244	12
2023-09-22T06:00	28587	15	-53.8	-86.8	244	12
2023-09-22T06:00	28616	15	-53.8	-86.8	244	12
2023-09-22T06:00	28637	15	-53.7	-86.8	244	12
2023-09-22T06:00	28659	14	-53.4	-86.5	245	12
2023-09-22T06:00	28685	14	-53.2	-86.4	246	12
2023-09-22T06:00	28716	14	-53.1	-86.3	248	13
2023-09-22T06:00	28737	14	-53.1	-87.2	251	13
2023-09-22T06:00	28778	14	-53.0	-87.1	254	12
2023-09-22T06:00	28791	14	-53.0	-87.1	257	12
2023-09-22T06:00	28813	14	-52.7	-86.9	261	12
2023-09-22T06:00	28850	14	-52.3	-86.6	266	11
2023-09-22T06:00	28869	14	-52.1	-86.5	271	10
2023-09-22T06:00	28905	14	-52.1	-86.5	277	10
2023-09-22T06:00	28918	14	-52.0	-86.4	281	10
2023-09-22T06:00	28968	14	-52.0	-86.4	284	10
2023-09-22T06:00	28996	14	-51.9	-86.3	286	10
2023-09-22T06:00	29013	14	-51.7	-86.2	285	10
2023-09-22T06:00	29050	14	-51.5	-86.1	284	10
2023-09-22T06:00	29079	14	-51.4	-86.0	282	10
2023-09-22T06:00	29113	14	-51.4	-86.0	279	10
2023-09-22T06:00	29148	13	-51.5	-86.1	276	11
2023-09-22T06:00	29167	13	-51.4	-86.0	273	11
2023-09-22T06:00	29214	13	-51.4	-86.0	270	11
2023-09-22T06:00	29245	13	-51.3	-85.9	268	12
2023-09-22T06:00	29271	13	-51.2	-85.8	266	12
2023-09-22T06:00	29310	13	-51.2	-85.8	265	12
2023-09-22T06:00	29350	13	-51.1	-85.8	266	13
2023-09-22T06:00	29368	13	-51.0	-85.7	267	13
2023-09-22T06:00	29408	13	-50.9	-85.6	270	12
2023-09-22T06:00	29436	13	-50.7	-85.5	273	12
2023-09-22T06:00	29484	13	-50.6	-85.4	275	11
2023-09-22T06:00	29503	13	-50.7	-85.5	277	11
2023-09-22T06:00	29540	13	-50.9	-85.6	280	10
2023-09-22T06:00	29573	13	-51.1	-85.8	282	10
2023-09-22T06:00	29607	13	-51.3	-85.9	285	9
2023-09-22T06:00	29628	12	-51.5	-85.2	288	9
2023-09-22T06:00	29656	12	-51.6	-85.2	291	9
2023-09-22T06:00	29701	12	-51.7	-85.3	293	9
2023-09-22T06:00	29732	12	-51.8	-85.4	295	9
2023-09-22T06:00	29750	12	-51.8	-85.4	295	10
2023-09-22T06:00	29788	12	-51.8	-85.4	295	10
2023-09-22T06:00	29829	12	-51.9	-85.5	294	11
2023-09-22T06:00	29848	12	-52.1	-85.6	294	11
2023-09-22T06:00	29864	12	-52.2	-85.7	293	11
2023-09-22T06:00	29913	12	-52.2	-86.6	292	12
2023-09-22T06:00	29932	12	-52.0	-86.4	291	11
2023-09-22T06:00	29959	12	-51.8	-86.3	291	11
2023-09-22T06:00	29995	12	-51.6	-86.1	291	11
2023-09-22T06:00	30015	12	-51.5	-86.1	291	11
2023-09-22T06:00	30050	12	-51.3	-85.9	293	11
2023-09-22T06:00	30083	12	-51.3	-85.9	294	11
2023-09-22T06:00	30120	12	-51.4	-86.0	295	11
2023-09-22T06:00	30136	12	-51.3	-85.9	296	11
2023-09-22T06:00	30175	12	-51.2	-85.8	297	10
2023-09-22T06:00	30186	11	-51.0	-85.7	298	10
2023-09-22T06:00	30216	11	-50.8	-85.6	299	10
2023-09-22T06:00	30229	11	-50.6	-85.4	300	9
2023-09-22T06:00	30282	11	-50.5	-85.3	300	9
2023-09-22T06:00	30292	11	-50.5	-85.3	299	9
2023-09-22T06:00	30317	11	-50.7	-85.5	298	9
2023-09-22T06:00	30348	11	-50.8	-85.6	295	9
2023-09-22T06:00	30373	11	-50.8	-85.6	292	9
2023-09-22T06:00	30392	11	-50.9	-85.6	289	9
2023-09-22T06:00	30429	11	-50.9	-85.6	285	9
2023-09-22T06:00	30464	11	-50.9	-85.6	281	9
2023-09-22T06:00	30482	11	-50.9	-85.6	279	9
2023-09-22T06:00	30511	11	-50.8	-85.6	278	9
2023-09-22T06:00	30533	11	-50.7	-85.5	278	10
2023-09-22T06:00	30566	11	-50.6	-85.4	280	10
2023-09-22T06:00	30599	11	-50.4	-85.3	282	10
2023-09-22T06:00	30613	11	-50.3	-86.2	286	10
2023-09-22T06:00	30644	11	-50.1	-86.1	289	10
2023-09-22T06:00	30673	11	-50.0	-86.0	293	10
2023-09-22T06:00	30697	11	-50.0	-86.0	295	10
2023-09-22T06:00	30721	11	-49.9	-86.0	296	10
2023-09-22T06:00	30752	11	-49.9	-86.0	295	11
2023-09-22T06:00	30783	10	-49.9	-86.0	293	11
2023-09-22T06:00	30816	10	-49.9	-86.0	290	12
2023-09-22T06:00	30851	10	-49.9	-86.0	286	13
2023-09-22T06:00	30879	10	-50.0	-86.0	282	13
2023-09-22T06:00	30927	10	-50.0	-86.0	277	14
2023-09-22T06:00	30949	10	-49.8	-85.9	271	14
2023-09-22T06:00	30993	10	-49.5	-85.7	266	14
2023-09-22T06:00	31011	10	-49.3	-85.5	262	15
2023-09-22T06:00	31042	10	-49.3	-85.5	259	15
2023-09-22T06:00	31080	10	-49.4	-85.6	257	16
2023-09-22T06:00	31105	10	-49.5	-85.7	257	16
2023-09-22T06:00	31140	10	-49.7	-85.8	258	16
2023-09-22T06:00	31182	10	-49.6	-85.8	260	16
2023-09-22T06:00	31211	10	-49.4	-85.6	263	17
2023-09-22T06:00	31229	10	-49.3	-85.5	267	17
2023-09-22T06:00	31267	10	-49.2	-85.5	271	17
2023-09-22T06:00	31305	10	-49.1	-85.4	274	17
2023-09-22T06:00	31342	10	-49.1	-85.4	277	17
2023-09-22T06:00	31372	10	-49.1	-85.4	280	17
2023-09-22T06:00	31405	10	-49.1	-85.4	283	17
2023-09-22T06:00	31420	9	-49.1	-85.4	285	17
2023-09-22T06:00	31454	9	-49.1	-85.4	288	17
2023-09-22T06:00	31485	9	-49.2	-85.5	289	16
2023-09-22T06:00	31519	9	-49.2	-85.5	290	16
2023-09-22T06:00	31553	9	-49.1	-85.4	290	15
2023-09-22T06:00	31580	9	-49.0	-85.3	289	15
2023-09-22T06:00	31623	9	-49.0	-85.3	287	14
2023-09-22T06:00	31652	9	-48.9	-85.3	284	12
2023-09-22T06:00	31703	9	-48.8	-85.2	282	12
2023-09-22T06:00	31711	9	-48.4	-84.9	280	11
2023-09-22T06:00	31740	9	-48.1	-84.7	279	11
2023-09-22T06:00	31777	9	-47.8	-84.5	277	11
2023-09-22T06:00	31818	9	-47.5	-84.3	275	11
2023-09-22T06:00	31841	9	-47.3	-84.1	272	11
2023-09-22T06:00	31869	9	-47.1	-84.0	270	11
2023-09-22T06:00	31879	9	-46.9	-83.9	269	11
2023-09-22T06:00	31909	9	-46.7	-83.7	269	11
2023-09-22T06:00	31943	9	-46.5	-83.6	270	12
2023-09-22T06:00	31978	9	-46.3	-83.4	270	12
2023-09-22T06:00	31991	9	-46.2	-83.4	271	13
2023-09-22T06:00	32039	9	-46.1	-83.3	270	13
2023-09-22T06:00	32073	9	-46.1	-83.3	269	14
2023-09-22T06:00	32090	9	-46.2	-83.4	266	15
2023-09-22T06:00	32117	9	-46.3	-83.4	263	15
2023-09-22T06:00	32150	9	-46.3	-83.4	261	16
2023-09-22T06:00	32180	8	-46.2	-83.4	258	17
2023-09-22T06:00	32215	8	-46.1	-83.3	257	17
2023-09-22T06:00	32247	8	-46.0	-83.2	256	17
2023-09-22T06:00	32264	8	-45.8	-83.1	258	17
2023-09-22T06:00	32314	8	-45.7	-83.0	260	17
2023-09-22T06:00	32348	8	-45.6	-82.9	263	16
2023-09-22T06:00	32378	8	-45.6	-82.9	267	16
2023-09-22T06:00	32417	8	-45.6	-82.9	270	15
2023-09-22T06:00	32457	8	-45.7	-83.0	272	14
2023-09-22T06:00	32476	8	-45.6	-82.9	275	14
2023-09-22T06:00	32516	8	-45.6	-82.9	277	13
2023-09-22T06:00	32560	8	-45.6	-82.9	279	12
2023-09-22T06:00	32598	8	-45.7	-83.0	280	12
2023-09-22T06:00	32620	8	-45.8	-83.1	281	12
2023-09-22T06:00	32665	8	-45.7	-83.0	281	12
2023-09-22T06:00	32710	8	-45.7	-83.0	280	13
2023-09-22T06:00	32733	8	-45.8	-83.1	279	14
2023-09-22T06:00	32772	8	-45.9	-83.2	278	15
2023-09-22T06:00	32818	8	-46.1	-83.3	278	16
2023-09-22T06:00	32858	8	-46.2	-83.4	278	17
2023-09-22T06:00	32878	8	-46.2	-83.4	279	18
2023-09-22T06:00	32922	8	-46.1	-83.3	280	18
2023-09-22T06:00	32943	8	-46.0	-83.2	280	18
2023-09-22T06:00	33010	8	-45.8	-83.1	280	17
2023-09-22T06:00	33053	7	-45.3	-82.7	278	16
2023-09-22T06:00	33093	7	-45.3	-82.7	277	15
2023-09-22T06:00	33121	7	-45.4	-82.8	275	14
2023-09-22T06:00	33156	7	-45.4	-82.8	273	14
2023-09-22T06:00	33195	7	-45.3	-82.7	272	14
2023-09-22T06:00	33202	7	-45.2	-82.7	272	14
2023-09-22T06:00	33262	7	-45.1	-82.6	272	15
2023-09-22T06:00	33266	7	-44.9	-82.5	272	15
2023-09-22T06:00	33309	7	-44.8	-82.4	272	15
2023-09-22T06:00	33348	7	-44.7	-82.3	272	16
2023-09-22T06:00	33366	7	-44.6	-82.2	272	16
2023-09-22T06:00	33392	7	-44.3	-82.0	272	16
2023-09-22T06:00	33437	7	-44.1	-81.9	272	17
2023-09-22T06:00	33450	7	-44.0	-81.8	273	17
2023-09-22T06:00	33489	7	-43.9	-81.8	275	17
2023-09-22T06:00	33519	7	-43.9	-81.8	278	17
2023-09-22T06:00	33563	7	-43.9	-81.8	281	17
2023-09-22T06:00	33573	7	-43.8	-81.7	283	17
2023-09-22T06:00	33608	7	-43.7	-81.6	285	17
2023-09-22T06:00	33629	7	-43.5	-81.5	285	17
2023-09-22T06:00	33672	7	-43.2	-81.3	285	18
2023-09-22T06:00	33685	7	-43.0	-81.1	285	18
2023-09-22T06:00	33733	7	-42.8	-81.0	286	17
2023-09-22T06:00	33791	7	-42.6	-80.8	289	17
2023-09-22T06:00	33801	7	-42.4	-80.7	291	16
2023-09-22T12:00	112	992	16.7	14.9	230	4
2023-09-22T12:00	138	989	16.2	15.2	250	2
2023-09-22T12:00	167	986	15.9	14.8	244	3
2023-09-22T12:00	195	982	15.6	14.7	239	3
2023-09-22T12:00	221	979	15.3	14.1	235	4
2023-09-22T12:00	247	976	15.0	13.9	231	4
2023-09-22T12:00	274	973	14.8	14.0	229	5
2023-09-22T12:00	303	970	14.5	14.0	230	5
2023-09-22T12:00	331	967	14.2	13.9	232	6
2023-09-22T12:00	362	963	14.0	13.8	236	6
2023-09-22T12:00	390	960	13.7	13.4	239	7
2023-09-22T12:00	418	957	13.6	13.1	241	7
2023-09-22T12:00	445	954	13.3	13.1	244	7
2023-09-22T12:00	481	950	13.0	12.7	245	8
2023-09-22T12:00	508	947	12.8	12.5	247	9
2023-09-22T12:00	533	944	12.6	12.4	249	10
2023-09-22T12:00	561	940	12.5	11.6	252	10
2023-09-22T12:00	595	937	12.3	11.3	254	11
2023-09-22T12:00	623	934	12.1	10.9	257	11
2023-09-22T12:00	648	931	12.3	9.6	260	11
2023-09-22T12:00	671	928	12.2	9.3	261	11
2023-09-22T12:00	689	926	12.1	9.4	262	11
2023-09-22T12:00	712	924	11.8	9.2	262	10
2023-09-22T12:00	735	921	11.7	9.1	261	10
2023-09-22T12:00	759	919	11.5	9.1	259	9
2023-09-22T12:00	782	916	11.5	8.9	259	9
2023-09-22T12:00	804	914	11.3	8.8	258	8
2023-09-22T12:00	832	911	11.1	8.7	258	8
2023-09-22T12:00	856	908	10.8	8.6	256	8
2023-09-22T12:00	879	906	10.7	8.4	253	8
2023-09-22T12:00	904	903	10.6	8.2	251	8
2023-09-22T12:00	925	901	10.5	8.3	250	7
2023-09-22T12:00	943	899	10.3	8.3	250	7
2023-09-22T12:00	962	897	10.2	8.4	250	7
2023-09-22T12:00	981	895	10.1	8.5	249	7
2023-09-22T12:00	1001	892	10.0	8.4	247	7
2023-09-22T12:00	1027	890	9.8	8.0	244	7
2023-09-22T12:00	1051	887	9.6	8.1	241	7
2023-09-22T12:00	1090	883	9.3	7.7	239	7
2023-09-22T12:00	1114	880	9.2	7.2	239	8
2023-09-22T12:00	1139	878	9.1	7.0	239	8
2023-09-22T12:00	1167	875	8.9	7.0	240	8
2023-09-22T12:00	1197	872	8.7	6.9	240	8
2023-09-22T12:00	1219	869	8.5	7.1	240	8
2023-09-22T12:00	1248	866	8.2	7.4	240	8
2023-09-22T12:00	1275	864	8.1	7.1	239	8
2023-09-22T12:00	1300	861	7.9	7.0	239	8
2023-09-22T12:00	1324	858	7.9	6.9	238	9
2023-09-22T12:00	1349	856	7.8	6.7	237	9
2023-09-22T12:00	1378	853	7.8	6.2	237	9
2023-09-22T12:00	1403	850	7.6	6.3	237	9
2023-09-22T12:00	1426	848	7.5	6.7	237	9
2023-09-22T12:00	1450	845	7.4	6.5	237	9
2023-09-22T12:00	1477	843	7.3	5.8	238	9
2023-09-22T12:00	1503	840	7.2	5.2	238	9
2023-09-22T12:00	1529	837	7.2	4.3	237	9
2023-09-22T12:00	1552	835	7.0	4.4	237	9
2023-09-22T12:00	1581	832	6.8	4.4	237	9
2023-09-22T12:00	1605	830	6.6	4.3	238	9
2023-09-22T12:00	1626	828	6.5	4.5	239	9
2023-09-22T12:00	1646	826	6.4	4.8	240	9
2023-09-22T12:00	1666	823	6.3	4.2	242	9
2023-09-22T12:00	1688	821	6.2	4.0	245	9
2023-09-22T12:00	1709	819	6.0	3.9	247	9
2023-09-22T12:00	1730	817	6.0	3.7	248	8
2023-09-22T12:00	1749	815	5.9	3.5	247	8
2023-09-22T12:00	1769	813	6.1	3.1	245	9
2023-09-22T12:00	1791	811	6.2	3.1	243	9
2023-09-22T12:00	1811	809	6.2	3.0	242	9
2023-09-22T12:00	1834	807	6.4	2.8	243	9
2023-09-22T12:00	1868	804	6.8	2.4	244	9
2023-09-22T12:00	1893	801	6.9	2.2	245	10
2023-09-22T12:00	1918	799	7.0	1.9	244	10
2023-09-22T12:00	1937	797	7.1	1.9	242	10
2023-09-22T12:00	1955	795	7.0	1.7	239	10
2023-09-22T12:00	1976	793	7.0	1.6	237	10
2023-09-22T12:00	1997	791	6.8	1.5	235	10
2023-09-22T12:00	2017	789	6.7	1.4	235	10
2023-09-22T12:00	2040	787	6.5	1.3	236	10
2023-09-22T12:00	2066	784	6.3	1.2	237	9
2023-09-22T12:00	2089	782	6.1	1.2	237	9
2023-09-22T12:00	2116	780	5.9	1.1	237	9
2023-09-22T12:00	2138	777	5.6	0.9	237	8
2023-09-22T12:00	2164	775	5.4	0.9	237	8
2023-09-22T12:00	2182	773	5.2	0.9	237	8
2023-09-22T12:00	2205	771	5.0	0.8	238	8
2023-09-22T12:00	2230	769	4.8	0.6	238	7
2023-09-22T12:00	2250	767	4.6	0.6	237	7
2023-09-22T12:00	2276	764	4.4	0.6	235	7
2023-09-22T12:00	2305	762	4.1	0.5	232	7
2023-09-22T12:00	2331	759	3.9	0.5	229	7
2023-09-22T12:00	2354	757	3.7	0.5	227	7
2023-09-22T12:00	2379	755	3.5	0.5	226	7
2023-09-22T12:00	2407	752	3.3	0.3	226	7
2023-09-22T12:00	2435	750	3.1	0.3	225	7
2023-09-22T12:00	2460	747	2.9	0.1	224	7
2023-09-22T12:00	2482	745	2.7	0.2	222	7
2023-09-22T12:00	2508	743	2.5	0.0	220	7
2023-09-22T12:00	2533	741	2.3	-0.1	217	7
2023-09-22T12:00	2555	739	2.2	0.0	214	6
2023-09-22T12:00	2582	736	1.9	-0.1	212	6
2023-09-22T12:00	2604	734	1.8	-0.1	210	6
2023-09-22T12:00	2625	732	1.6	-0.1	210	5
2023-09-22T12:00	2644	730	1.4	-0.2	211	5
2023-09-22T12:00	2665	729	1.2	-0.2	211	5
2023-09-22T12:00	2686	727	1.1	0.0	209	6
2023-09-22T12:00	2708	725	0.9	0.1	205	7
2023-09-22T12:00	2739	722	0.8	0.1	200	8
2023-09-22T12:00	2771	719	0.8	0.0	196	9
2023-09-22T12:00	2794	717	0.8	0.1	194	10
2023-09-22T12:00	2821	715	1.1	0.2	193	11
2023-09-22T12:00	2841	713	1.1	0.2	193	11
2023-09-22T12:00	2864	711	1.0	0.3	193	11
2023-09-22T12:00	2889	709	0.9	0.4	192	12
2023-09-22T12:00	2912	707	0.9	0.5	190	12
2023-09-22T12:00	2935	705	0.7	0.5	188	13
2023-09-22T12:00	2961	702	0.6	0.6	187	14
2023-09-22T12:00	2981	701	0.5	0.5	186	14
2023-09-22T12:00	3004	698	0.4	0.4	185	15
2023-09-22T12:00	3031	696	0.3	0.3	184	15
2023-09-22T12:00	3058	694	0.3	0.3	184	15
2023-09-22T12:00	3081	692	0.2	0.2	184	16
2023-09-22T12:00	3106	690	0.1	0.1	185	16
2023-09-22T12:00	3129	688	0.1	0.1	185	17
2023-09-22T12:00	3155	686	0.0	0.0	185	17
2023-09-22T12:00	3178	684	-0.1	-0.1	186	17
2023-09-22T12:00	3198	682	-0.1	-0.1	186	18
2023-09-22T12:00	3220	680	-0.2	-0.2	186	18
2023-09-22T12:00	3243	678	-0.3	-0.3	185	18
2023-09-22T12:00	3270	676	-0.4	-0.4	184	18
2023-09-22T12:00	3294	674	-0.5	-0.5	183	18
2023-09-22T12:00	3319	672	-0.6	-0.6	184	18
2023-09-22T12:00	3341	670	-0.8	-0.8	185	18
2023-09-22T12:00	3370	668	-0.9	-0.9	187	18
2023-09-22T12:00	3391	666	-1.0	-1.0	190	18
2023-09-22T12:00	3411	664	-1.1	-1.1	193	19
2023-09-22T12:00	3443	661	-1.2	-1.2	194	19
2023-09-22T12:00	3471	659	-1.3	-1.3	195	19
2023-09-22T12:00	3493	657	-1.4	-1.4	194	20
2023-09-22T12:00	3515	655	-1.4	-1.6	193	20
2023-09-22T12:00	3535	654	-1.4	-1.7	191	20
2023-09-22T12:00	3558	652	-1.4	-1.7	189	20
2023-09-22T12:00	3582	650	-1.5	-1.8	187	20
2023-09-22T12:00	3607	648	-1.7	-2.0	185	20
2023-09-22T12:00	3632	646	-1.8	-2.1	183	19
2023-09-22T12:00	3661	644	-1.9		183	20
2023-09-22T12:00	3681	642	-2.0	-2.2	183	20
2023-09-22T12:00	3704	640	-2.2	-2.4	183	21
2023-09-22T12:00	3726	638	-2.4	-2.5	183	21
2023-09-22T12:00	3748	637	-2.5	-2.6	183	22
2023-09-22T12:00	3768	635	-2.7	-2.7	184	23
2023-09-22T12:00	3794	633	-2.8	-2.8	185	23
2023-09-22T12:00	3816	631	-2.9	-2.9	186	22
2023-09-22T12:00	3842	629	-3.1	-3.1	187	22
2023-09-22T12:00	3866	627	-3.1	-3.1	188	21
2023-09-22T12:00	3893	625	-3.3	-3.4	189	21
2023-09-22T12:00	3913	623	-3.4		189	21
2023-09-22T12:00	3937	621	-3.5		190	21
2023-09-22T12:00	3964	619	-3.6	-3.7	192	21
2023-09-22T12:00	3986	618	-3.7	-3.8	194	20
2023-09-22T12:00	4009	616	-3.8	-4.0	196	20
2023-09-22T12:00	4029	614	-3.9	-4.1	197	20
2023-09-22T12:00	4051	613	-4.0	-4.2	198	20
2023-09-22T12:00	4077	611	-4.1	-4.4	197	20
2023-09-22T12:00	4101	609	-4.2	-4.5	196	20
2023-09-22T12:00	4125	607	-4.4	-4.7	195	21
2023-09-22T12:00	4149	605	-4.5	-4.7	195	21
2023-09-22T12:00	4177	603	-4.7	-4.8	195	21
2023-09-22T12:00	4204	601	-4.8	-4.9	194	21
2023-09-22T12:00	4227	599	-5.0	-5.1	193	21
2023-09-22T12:00	4250	597	-5.1	-5.2	192	21
2023-09-22T12:00	4276	595	-5.3	-5.4	191	21
2023-09-22T12:00	4302	593	-5.5	-5.5	190	22
2023-09-22T12:00	4336	591	-5.7	-5.7	190	22
2023-09-22T12:00	4362	589	-5.8	-5.8	190	22
2023-09-22T12:00	4383	587	-5.9	-5.9	191	22
2023-09-22T12:00	4408	585	-6.1	-6.1	191	22
2023-09-22T12:00	4432	584	-6.2	-6.2	192	22
2023-09-22T12:00	4458	582	-6.4	-6.4	192	21
2023-09-22T12:00	4486	580	-6.5	-6.6	193	21
2023-09-22T12:00	4509	578	-6.7	-6.7	193	21
2023-09-22T12:00	4533	576	-6.8	-6.8	194	21
2023-09-22T12:00	4553	575	-6.9	-6.9	195	21
2023-09-22T12:00	4575	573	-7.0	-7.0	196	22
2023-09-22T12:00	4595	572	-7.2	-7.3	197	22
2023-09-22T12:00	4617	570	-7.3	-7.4	197	22
2023-09-22T12:00	4640	568	-7.4	-7.5	198	22
2023-09-22T12:00	4666	567	-7.6	-7.7	198	21
2023-09-22T12:00	4688	565	-7.7	-7.8	198	21
2023-09-22T12:00	4711	563	-7.8	-7.9	197	21
2023-09-22T12:00	4729	562	-7.9	-8.0	196	20
2023-09-22T12:00	4752	560	-8.0	-8.1	195	20
2023-09-22T12:00	4775	559	-8.2	-8.3	194	21
2023-09-22T12:00	4797	557	-8.3	-8.4	193	21
2023-09-22T12:00	4821	555	-8.5	-8.6	193	21
2023-09-22T12:00	4849	553	-8.6	-8.7	192	21
2023-09-22T12:00	4872	552	-8.8	-8.9	192	21
2023-09-22T12:00	4895	550	-8.9	-9.0	192	21
2023-09-22T12:00	4920	548	-9.0	-9.1	192	22
2023-09-22T12:00	4949	546	-9.2	-9.3	193	22
2023-09-22T12:00	4972	545	-9.3	-9.4	194	22
2023-09-22T12:00	4994	543	-9.4	-9.5	194	22
2023-09-22T12:00	5018	541	-9.6	-9.8	194	22
2023-09-22T12:00	5043	540	-9.7	-9.9	194	22
2023-09-22T12:00	5072	538	-9.9	-10.1	194	21
2023-09-22T12:00	5093	536	-10.0	-10.2	194	21
2023-09-22T12:00	5121	534	-10.2	-10.4	194	21
2023-09-22T12:00	5144	533	-10.3	-10.5	194	21
2023-09-22T12:00	5169	531	-10.4	-10.7	195	21
2023-09-22T12:00	5191	529	-10.6	-10.8	195	21
2023-09-22T12:00	5213	528	-10.8	-11.0	195	22
2023-09-22T12:00	5238	526	-10.9	-11.2	195	22
2023-09-22T12:00	5261	524	-11.1	-11.5	195	22
2023-09-22T12:00	5285	523	-11.2	-11.6	195	22
2023-09-22T12:00	5306	522	-11.4	-11.7	196	22
2023-09-22T12:00	5326	520	-11.5	-11.9	196	21
2023-09-22T12:00	5347	519	-11.6	-12.0	196	21
2023-09-22T12:00	5368	517	-11.8	-12.2	196	20
2023-09-22T12:00	5396	515	-12.0	-12.3	195	20
2023-09-22T12:00	5423	514	-12.2	-12.6	194	21
2023-09-22T12:00	5447	512	-12.3	-12.7	193	21
2023-09-22T12:00	5473	510	-12.5	-13.0	191	21
2023-09-22T12:00	5497	509	-12.7	-13.2	190	21
2023-09-22T12:00	5521	507	-12.9	-13.3	189	21
2023-09-22T12:00	5544	505	-13.1	-13.5	189	21
2023-09-22T12:00	5571	504	-13.3	-13.8	189	21
2023-09-22T12:00	5592	502	-13.4	-14.0	190	21
2023-09-22T12:00	5615	501	-13.5	-14.0	191	21
2023-09-22T12:00	5635	499	-13.6	-14.2	192	22
2023-09-22T12:00	5658	498	-13.6	-14.2	192	22
2023-09-22T12:00	5681	497	-13.7	-14.3	192	23
2023-09-22T12:00	5703	495	-13.9	-14.6	192	23
2023-09-22T12:00	5726	494	-14.0	-14.7	191	23
2023-09-22T12:00	5749	492	-14.1	-14.8	190	23
2023-09-22T12:00	5771	491	-14.3	-15.1	189	23
2023-09-22T12:00	5794	489	-14.4	-15.2	189	23
2023-09-22T12:00	5818	488	-14.5	-15.3	190	23
2023-09-22T12:00	5843	486	-14.6	-15.4	190	23
2023-09-22T12:00	5868	484	-14.8	-15.7	191	23
2023-09-22T12:00	5894	483	-15.0	-15.9	191	23
2023-09-22T12:00	5916	481	-15.1	-16.1	191	22
2023-09-22T12:00	5944	480	-15.3	-16.2	192	22
2023-09-22T12:00	5971	478	-15.5	-16.4	192	22
2023-09-22T12:00	5992	477	-15.7	-16.7	192	22
2023-09-22T12:00	6013	475	-15.8	-16.8	193	22
2023-09-22T12:00	6039	474	-16.0	-16.9	193	22
2023-09-22T12:00	6062	472	-16.2	-17.2	194	22
2023-09-22T12:00	6090	470	-16.4	-17.5	195	22
2023-09-22T12:00	6113	469	-16.5	-17.6	195	22
2023-09-22T12:00	6137	467	-16.6	-17.6	196	22
2023-09-22T12:00	6162	466	-16.8	-17.8	196	22
2023-09-22T12:00	6182	465	-17.0	-18.1	196	22
2023-09-22T12:00	6206	463	-17.1	-18.3	197	22
2023-09-22T12:00	6233	461	-17.3	-18.5	197	22
2023-09-22T12:00	6259	460	-17.5	-18.7	197	22
2023-09-22T12:00	6280	459	-17.7		197	22
2023-09-22T12:00	6304	457	-17.8	-19.0	196	22
2023-09-22T12:00	6329	456	-18.0	-19.2	196	23
2023-09-22T12:00	6358	454	-18.2	-19.3	195	23
2023-09-22T12:00	6388	452	-18.4	-19.4	195	23
2023-09-22T12:00	6414	450	-18.6	-19.6	195	24
2023-09-22T12:00	6443	449	-18.8	-19.7	195	24
2023-09-22T12:00	6470	447	-19.0	-20.0	195	24
2023-09-22T12:00	6494	446	-19.2	-20.2	195	24
2023-09-22T12:00	6521	444	-19.4	-20.4	194	24
2023-09-22T12:00	6551	442	-19.6	-20.6	194	24
2023-09-22T12:00	6581	440	-19.8	-20.8	193	24
2023-09-22T12:00	6609	439	-19.9	-20.9	194	24
2023-09-22T12:00	6638	437	-20.2	-21.3	194	25
2023-09-22T12:00	6665	436	-20.4	-21.5	194	25
2023-09-22T12:00	6697	434	-20.6	-21.6	195	25
2023-09-22T12:00	6722	432	-20.7	-21.8	195	25
2023-09-22T12:00	6751	431	-21.0	-22.1	196	25
2023-09-22T12:00	6781	429	-21.2	-22.2	196	25
2023-09-22T12:00	6807	427	-21.4	-22.4	196	25
2023-09-22T12:00	6839	425	-21.6	-22.4	196	25
2023-09-22T12:00	6867	424	-21.8	-22.6	196	25
2023-09-22T12:00	6891	422	-22.0	-22.9	196	26
2023-09-22T12:00	6918	421	-22.3	-23.1	196	26
2023-09-22T12:00	6950	419	-22.5		197	27
2023-09-22T12:00	6978	417	-22.7	-23.8	197	27
2023-09-22T12:00	7003	416	-22.9	-23.9	198	27
2023-09-22T12:00	7033	414	-23.3	-24.8	199	27
2023-09-22T12:00	7061	413	-23.5	-24.4	200	27
2023-09-22T12:00	7082	411	-23.5	-24.0	201	27
2023-09-22T12:00	7106	410	-23.7	-24.2	201	27
2023-09-22T12:00	7127	409	-23.8	-24.3	202	27
2023-09-22T12:00	7152	408	-24.0	-24.4	202	28
2023-09-22T12:00	7175	406	-24.4	-25.1	201	28
2023-09-22T12:00	7200	405	-24.7	-25.3	201	28
2023-09-22T12:00	7219	404	-24.8	-25.5	200	27
2023-09-22T12:00	7244	402	-25.0	-25.5	199	27
2023-09-22T12:00	7270	401	-25.2	-25.9	198	27
2023-09-22T12:00	7302	399	-25.5	-26.5	197	26
2023-09-22T12:00	7328	398	-25.6	-26.9	197	26
2023-09-22T12:00	7354	396	-25.8	-26.9	198	26
2023-09-22T12:00	7381	395	-26.1	-27.2	200	26
2023-09-22T12:00	7410	393	-26.3	-27.5	201	27
2023-09-22T12:00	7434	392	-26.5	-27.4	202	27
2023-09-22T12:00	7464	390	-26.8	-27.9	203	27
2023-09-22T12:00	7501	388	-27.1	-27.9	204	27
2023-09-22T12:00	7529	387	-27.3	-28.6	204	27
2023-09-22T12:00	7559	385	-27.5	-29.9	205	27
2023-09-22T12:00	7582	384	-27.7	-29.8	205	27
2023-09-22T12:00	7601	383	-27.9	-29.8	205	27
2023-09-22T12:00	7631	381	-28.1	-29.8	206	26
2023-09-22T12:00	7660	380	-28.3	-30.8	206	26
2023-09-22T12:00	7687	379	-28.5	-30.8	206	27
2023-09-22T12:00	7715	377	-28.7	-31.3	207	27
2023-09-22T12:00	7746	376	-28.9	-31.5	207	27
2023-09-22T12:00	7767	374	-29.1	-32.0	207	28
2023-09-22T12:00	7793	373	-29.3	-32.6	207	28
2023-09-22T12:00	7820	372	-29.5	-32.8	206	29
2023-09-22T12:00	7847	370	-29.7	-33.1	206	29
2023-09-22T12:00	7872	369	-29.9	-33.4	206	30
2023-09-22T12:00	7899	367	-30.1	-33.6	207	30
2023-09-22T12:00	7932	366	-30.3	-34.0	207	31
2023-09-22T12:00	7961	364	-30.4	-34.2	206	31
2023-09-22T12:00	7987	363	-30.6	-34.1	205	32
2023-09-22T12:00	8008	362	-30.8	-34.3	204	32
2023-09-22T12:00	8036	361	-31.0	-34.2	203	32
2023-09-22T12:00	8052	360	-31.1	-34.3	202	32
2023-09-22T12:00	8070	359	-31.2	-34.2	203	32
2023-09-22T12:00	8087	358	-31.4	-34.2	203	32
2023-09-22T12:00	8104	357	-31.5	-34.2	205	31
2023-09-22T12:00	8124	356	-31.6	-34.6	205	31
2023-09-22T12:00	8148	355	-31.8	-34.5	206	31
2023-09-22T12:00	8171	354	-32.0	-34.8	206	31
2023-09-22T12:00	8194	352	-32.2	-34.7	206	31
2023-09-22T12:00	8223	351	-32.4	-34.6	204	31
2023-09-22T12:00	8247	350	-32.6	-34.9	203	32
2023-09-22T12:00	8275	349	-32.7	-35.3	201	32
2023-09-22T12:00	8292	348	-32.8	-36.0	200	32
2023-09-22T12:00	8321	346	-33.0	-36.4	198	32
2023-09-22T12:00	8346	345	-33.2	-36.5	197	32
2023-09-22T12:00	8368	344	-33.3	-37.2	197	32
2023-09-22T12:00	8388	343	-33.5	-37.3	197	31
2023-09-22T12:00	8412	342	-33.7	-37.4	197	31
2023-09-22T12:00	8436	341	-33.9	-37.9	198	31
2023-09-22T12:00	8464	339	-34.1	-38.3	198	32
2023-09-22T12:00	8490	338	-34.4	-38.6	198	32
2023-09-22T12:00	8514	337	-34.6	-38.8	199	32
2023-09-22T12:00	8541	335	-34.8	-39.0	199	32
2023-09-22T12:00	8569	334	-35.1	-39.2	199	32
2023-09-22T12:00	8608	332	-35.4	-39.4	199	32
2023-09-22T12:00	8630	331	-35.6	-41.1	199	32
2023-09-22T12:00	8648	330	-35.8	-41.3	199	32
2023-09-22T12:00	8666	329	-36.0	-42.3	200	31
2023-09-22T12:00	8686	329	-36.1	-42.8	201	31
2023-09-22T12:00	8706	328	-36.3	-42.9	201	31
2023-09-22T12:00	8726	327	-36.5	-42.9	202	31
2023-09-22T12:00	8748	326	-36.7	-43.1	202	31
2023-09-22T12:00	8769	325	-36.8	-43.2	202	31
2023-09-22T12:00	8788	324	-37.0	-43.3	203	31
2023-09-22T12:00	8811	323	-37.2	-43.4	203	31
2023-09-22T12:00	8830	322	-37.4	-43.6	203	31
2023-09-22T12:00	8852	321	-37.6	-43.5	204	31
2023-09-22T12:00	8875	320	-37.8	-44.0	204	31
2023-09-22T12:00	8902	318	-38.1	-44.7	204	31
2023-09-22T12:00	8929	317	-38.2	-46.8	204	30
2023-09-22T12:00	8960	316	-38.6	-48.1	204	30
2023-09-22T12:00	8989	314	-38.9	-48.3	204	30
2023-09-22T12:00	9018	313	-39.0	-49.1	203	30
2023-09-22T12:00	9050	312	-39.3	-49.2	203	31
2023-09-22T12:00	9077	310	-39.5	-49.2	203	31
2023-09-22T12:00	9105	309	-39.7	-49.4	203	31
2023-09-22T12:00	9132	308	-40.0	-49.7	204	31
2023-09-22T12:00	9157	307	-40.2	-49.8	204	31
2023-09-22T12:00	9181	306	-40.4	-50.1	204	31
2023-09-22T12:00	9201	305	-40.5	-50.3	204	31
2023-09-22T12:00	9226	304	-40.8	-50.3	204	31
2023-09-22T12:00	9258	302	-41.0	-50.3	205	31
2023-09-22T12:00	9282	301	-41.2	-50.6	206	31
2023-09-22T12:00	9315	300	-41.6	-50.7	206	31
2023-09-22T12:00	9348	298	-41.8	-50.7	207	31
2023-09-22T12:00	9373	297	-42.1	-51.2	207	31
2023-09-22T12:00	9398	296	-42.3	-51.2	207	31
2023-09-22T12:00	9424	295	-42.5	-51.2	206	31
2023-09-22T12:00	9460	293	-42.9	-51.4	207	31
2023-09-22T12:00	9486	292	-43.1	-51.6	206	31
2023-09-22T12:00	9520	291	-43.4	-52.1	206	31
2023-09-22T12:00	9551	289	-43.7	-52.1	205	31
2023-09-22T12:00	9587	288	-44.0	-52.1	204	31
2023-09-22T12:00	9620	287	-44.4	-52.2	204	31
2023-09-22T12:00	9651	285	-44.6	-52.6	204	31
2023-09-22T12:00	9677	284	-44.9	-53.1	204	31
2023-09-22T12:00	9703	283	-45.1	-53.3	204	31
2023-09-22T12:00	9732	282	-45.4	-53.3	204	30
2023-09-22T12:00	9765	280	-45.7	-53.4	203	30
2023-09-22T12:00	9793	279	-46.0	-53.4	203	30
2023-09-22T12:00	9814	278	-46.2	-53.6	203	29
2023-09-22T12:00	9841	277	-46.4	-53.5	203	29
2023-09-22T12:00	9872	276	-46.7	-53.5	204	29
2023-09-22T12:00	9903	275	-47.0	-53.7	204	29
2023-09-22T12:00	9938	273	-47.3	-53.9	205	29
2023-09-22T12:00	9970	272	-47.6	-53.9	205	29
2023-09-22T12:00	10011	270	-48.0	-53.9	205	28
2023-09-22T12:00	10050	269	-48.4	-54.2	206	28
2023-09-22T12:00	10078	267	-48.7	-54.5	207	28
2023-09-22T12:00	10113	266	-49.0	-54.5	208	29
2023-09-22T12:00	10158	264	-49.4	-55.2	208	29
2023-09-22T12:00	10191	263	-49.7	-55.8	208	30
2023-09-22T12:00	10217	262	-49.8	-56.4	208	31
2023-09-22T12:00	10248	260	-50.1	-57.6	207	31
2023-09-22T12:00	10284	259	-49.8	-58.8	206	31
2023-09-22T12:00	10319	258	-49.9	-59.3	205	32
2023-09-22T12:00	10348	257	-50.0	-59.2	204	32
2023-09-22T12:00	10383	255	-50.1	-59.0	203	33
2023-09-22T12:00	10414	254	-50.4	-59.2	202	33
2023-09-22T12:00	10438	253	-50.5	-59.2	201	34
2023-09-22T12:00	10466	252	-50.6	-59.2	201	34
2023-09-22T12:00	10490	251	-50.8	-59.2	201	34
2023-09-22T12:00	10512	250	-51.0	-59.1	202	34
2023-09-22T12:00	10536	249	-51.2	-59.1	202	34
2023-09-22T12:00	10556	249	-51.4	-59.2	202	34
2023-09-22T12:00	10579	248	-51.6	-59.3	202	34
2023-09-22T12:00	10600	247	-51.8	-59.2	202	34
2023-09-22T12:00	10629	246	-52.0	-59.2	201	34
2023-09-22T12:00	10655	245	-52.3	-59.2	201	34
2023-09-22T12:00	10684	244	-52.6	-58.9	201	34
2023-09-22T12:00	10714	242	-52.9	-58.7	201	35
2023-09-22T12:00	10745	241	-53.1	-58.7	201	35
2023-09-22T12:00	10763	241	-53.3	-58.8	201	36
2023-09-22T12:00	10781	240	-53.4	-58.9	201	36
2023-09-22T12:00	10799	239	-53.6	-59.4	201	37
2023-09-22T12:00	10815	239	-53.6	-59.9	201	37
2023-09-22T12:00	10835	238	-53.7	-60.5	201	37
2023-09-22T12:00	10854	237	-53.7	-61.1	201	37
2023-09-22T12:00	10870	237	-53.6	-61.8	202	38
2023-09-22T12:00	10887	236	-53.5	-62.5	202	37
2023-09-22T12:00	10905	235	-53.4	-62.9	203	37
2023-09-22T12:00	10923	235	-53.4	-63.0	204	37
2023-09-22T12:00	10941	234	-53.4	-63.1	205	36
2023-09-22T12:00	10957	234	-53.3	-63.2	205	36
2023-09-22T12:00	10974	233	-53.3	-63.3	206	36
2023-09-22T12:00	10993	232	-53.2	-63.2	207	36
2023-09-22T12:00	11014	231	-53.3	-63.4	208	36
2023-09-22T12:00	11042	230	-53.5	-63.7	208	37
2023-09-22T12:00	11074	229	-53.6	-64.0	209	37
2023-09-22T12:00	11092	229	-53.7	-64.3	209	37
2023-09-22T12:00	11113	228	-53.8	-64.4	209	38
2023-09-22T12:00	11132	227	-53.9	-64.4	209	37
2023-09-22T12:00	11151	227	-53.9	-64.4	209	37
2023-09-22T12:00	11172	226	-54.0	-64.5	208	37
2023-09-22T12:00	11192	225	-54.1	-64.8	208	37
2023-09-22T12:00	11212	224	-54.1	-65.4	208	37
2023-09-22T12:00	11234	224	-54.1		208	37
2023-09-22T12:00	11254	223	-54.3	-66.5	208	37
2023-09-22T12:00	11273	222	-54.3	-66.6	208	37
2023-09-22T12:00	11294	222	-54.4	-66.8	208	37
2023-09-22T12:00	11316	221	-54.3	-66.9	208	38
2023-09-22T12:00	11336	220	-54.3	-67.1	208	38
2023-09-22T12:00	11354	219	-54.3	-67.1	208	38
2023-09-22T12:00	11379	219	-54.4	-67.0	209	38
2023-09-22T12:00	11400	218	-54.6	-67.1	209	38
2023-09-22T12:00	11422	217	-54.6	-67.1	209	38
2023-09-22T12:00	11444	216	-54.8	-67.5	210	38
2023-09-22T12:00	11466	216	-55.0	-67.8	210	38
2023-09-22T12:00	11486	215	-55.0	-67.9	211	38
2023-09-22T12:00	11509	214	-55.1	-68.0	211	38
2023-09-22T12:00	11528	214	-55.2	-68.1	211	38
2023-09-22T12:00	11549	213	-55.3	-68.1	211	38
2023-09-22T12:00	11571	212	-55.5	-68.3	211	38
2023-09-22T12:00	11591	212	-55.6	-68.5	210	37
2023-09-22T12:00	11613	211	-55.5	-68.6	210	37
2023-09-22T12:00	11634	210	-55.6	-68.8	209	37
2023-09-22T12:00	11657	209	-55.7	-69.0	209	37
2023-09-22T12:00	11678	209	-55.8	-69.1	208	37
2023-09-22T12:00	11698	208	-55.8	-69.1	207	37
2023-09-22T12:00	11721	207	-55.6	-68.8	207	37
2023-09-22T12:00	11743	207	-55.7	-68.8	206	37
2023-09-22T12:00	11766	206	-55.7	-68.9	206	37
2023-09-22T12:00	11786	205	-55.6	-69.0	205	37
2023-09-22T12:00	11809	204	-55.5	-69.2	205	37
2023-09-22T12:00	11828	204	-55.5	-69.4	205	37
2023-09-22T12:00	11849	203	-55.6	-69.6	206	37
2023-09-22T12:00	11870	202	-55.6	-69.7	206	37
2023-09-22T12:00	11890	202	-55.6	-69.9	207	37
2023-09-22T12:00	11915	201	-55.6	-70.1	207	36
2023-09-22T12:00	11945	200	-55.7	-70.7	207	35
2023-09-22T12:00	11979	199	-55.3	-71.2	207	34
2023-09-22T12:00	12004	198	-55.1	-72.1	206	32
2023-09-22T12:00	12053	197	-55.1	-72.9	205	31
2023-09-22T12:00	12084	196	-55.2	-73.4	203	31
2023-09-22T12:00	12103	195	-55.3	-73.5	201	31
2023-09-22T12:00	12125	195	-55.2	-73.5	200	30
2023-09-22T12:00	12146	194	-55.1	-73.5	199	30
2023-09-22T12:00	12165	193	-55.1	-73.6	198	30
2023-09-22T12:00	12188	193	-54.9	-73.8	197	30
2023-09-22T12:00	12209	192	-54.3	-73.9	197	30
2023-09-22T12:00	12233	191	-54.1	-74.4	197	30
2023-09-22T12:00	12258	191	-54.2	-75.0	197	30
2023-09-22T12:00	12282	190	-54.4	-75.4	197	30
2023-09-22T12:00	12306	189	-54.5	-75.6	197	31
2023-09-22T12:00	12329	188	-54.6	-75.7	198	31
2023-09-22T12:00	12348	188	-54.7	-75.7	198	31
2023-09-22T12:00	12369	187	-54.8	-75.9	199	32
2023-09-22T12:00	12388	187	-54.8	-76.1	199	32
2023-09-22T12:00	12408	186	-54.7	-76.3	199	32
2023-09-22T12:00	12432	185	-54.4	-76.3	200	31
2023-09-22T12:00	12454	185	-54.2	-76.7	200	31
2023-09-22T12:00	12474	184	-53.8	-77.1	200	31
2023-09-22T12:00	12494	184	-53.4	-77.5	200	31
2023-09-22T12:00	12515	183	-53.3	-78.0	199	30
2023-09-22T12:00	12535	182	-53.2	-78.4	198	30
2023-09-22T12:00	12557	182	-53.2	-78.9	198	30
2023-09-22T12:00	12578	181	-53.1	-79.0	197	29
2023-09-22T12:00	12599	181	-52.5	-78.8	196	29
2023-09-22T12:00	12618	180	-51.8	-78.6	195	28
2023-09-22T12:00	12638	180	-51.3	-78.5	194	28
2023-09-22T12:00	12657	179	-51.2	-78.4	194	28
2023-09-22T12:00	12678	178	-51.2	-78.4	193	28
2023-09-22T12:00	12701	178	-51.4	-78.5	193	28
2023-09-22T12:00	12722	177	-51.5	-78.6	192	29
2023-09-22T12:00	12746	177	-51.7	-78.8	191	29
2023-09-22T12:00	12771	176	-51.9	-78.9	190	29
2023-09-22T12:00	12796	175	-52.2	-79.2	190	30
2023-09-22T12:00	12820	175	-52.3	-79.0	189	30
2023-09-22T12:00	12846	174	-52.6	-79.2	190	30
2023-09-22T12:00	12869	173	-52.9	-79.1	190	29
2023-09-22T12:00	12893	173	-53.2	-78.9	190	29
2023-09-22T12:00	12922	172	-53.4	-78.8	190	29
2023-09-22T12:00	12951	171	-53.6	-78.7	190	28
2023-09-22T12:00	12976	170	-53.8	-78.9	190	28
2023-09-22T12:00	12997	170	-54.0	-79.0	190	28
2023-09-22T12:00	13016	169	-54.1	-79.3	190	28
2023-09-22T12:00	13039	169	-54.1	-79.3	191	28
2023-09-22T12:00	13060	168	-54.2	-79.4	192	28
2023-09-22T12:00	13082	168	-54.2	-79.4	193	29
2023-09-22T12:00	13098	167	-54.3	-79.7	194	29
2023-09-22T12:00	13119	167	-54.3	-79.7	194	29
2023-09-22T12:00	13137	166	-54.2	-79.9	195	29
2023-09-22T12:00	13155	166	-54.1	-79.8	196	29
2023-09-22T12:00	13174	165	-53.9	-79.7	197	30
2023-09-22T12:00	13193	165	-54.0	-79.7	198	30
2023-09-22T12:00	13212	164	-53.9	-79.9	200	30
2023-09-22T12:00	13230	164	-53.5	-79.9	201	29
2023-09-22T12:00	13250	163	-53.2	-79.7	203	29
2023-09-22T12:00	13269	163	-53.2	-79.9	204	29
2023-09-22T12:00	13285	162	-53.2	-79.9	205	29
2023-09-22T12:00	13302	162	-53.1	-79.9	206	28
2023-09-22T12:00	13320	162	-53.0	-79.8	207	28
2023-09-22T12:00	13338	161	-53.0	-80.1	208	28
2023-09-22T12:00	13359	161	-53.0	-80.1	209	28
2023-09-22T12:00	13379	160	-53.0	-80.1	210	28
2023-09-22T12:00	13400	160	-53.0	-80.4	211	27
2023-09-22T12:00	13418	159	-52.8	-80.2	211	27
2023-09-22T12:00	13439	159	-52.7	-80.5	211	27
2023-09-22T12:00	13464	158	-52.2	-80.8	211	26
2023-09-22T12:00	13483	157	-51.8	-80.5	210	25
2023-09-22T12:00	13514	157	-51.8	-80.9	208	25
2023-09-22T12:00	13533	156	-51.9	-81.0	206	24
2023-09-22T12:00	13558	156	-52.1	-81.1	203	24
2023-09-22T12:00	13596	155	-52.4	-81.0	200	23
2023-09-22T12:00	13632	154	-52.6	-81.1	197	23
2023-09-22T12:00	13660	153	-52.7	-81.2	194	23
2023-09-22T12:00	13688	153	-52.9	-81.4	192	22
2023-09-22T12:00	13724	152	-53.0	-81.1	190	22
2023-09-22T12:00	13748	151	-53.1	-81.1	189	22
2023-09-22T12:00	13780	150	-53.3	-81.3	187	22
2023-09-22T12:00	13802	150	-53.4	-81.4	186	22
2023-09-22T12:00	13825	149	-53.5	-81.4	186	22
2023-09-22T12:00	13847	149	-53.6	-81.5	186	22
2023-09-22T12:00	13867	148	-53.7	-81.3	186	22
2023-09-22T12:00	13889	148	-53.9	-81.4	187	22
2023-09-22T12:00	13911	147	-54.1	-81.6	187	22
2023-09-22T12:00	13932	147	-54.2	-81.6	188	23
2023-09-22T12:00	13953	146	-54.3	-81.4	188	23
2023-09-22T12:00	13976	146	-54.4	-81.5	189	23
2023-09-22T12:00	13997	145	-54.6	-81.6	190	24
2023-09-22T12:00	14019	145	-54.6	-81.6	191	24
2023-09-22T12:00	14043	144	-54.7	-81.7	192	25
2023-09-22T12:00	14061	144	-54.8	-81.8	193	25
2023-09-22T12:00	14082	143	-54.9	-81.9	194	25
2023-09-22T12:00	14105	143	-55.0	-81.9	194	24
2023-09-22T12:00	14127	143	-55.0	-81.6	195	24
2023-09-22T12:00	14150	142	-54.7	-81.4	195	23
2023-09-22T12:00	14171	142	-54.7	-81.7	194	23
2023-09-22T12:00	14195	141	-54.8	-81.8	194	22
2023-09-22T12:00	14213	141	-54.6	-81.6	195	22
2023-09-22T12:00	14234	140	-54.3	-81.7	195	22
2023-09-22T12:00	14256	140	-53.8	-81.7	196	22
2023-09-22T12:00	14275	139	-53.7	-81.6	196	22
2023-09-22T12:00	14297	139	-53.9	-82.1	195	22
2023-09-22T12:00	14318	138	-53.8	-82.0	195	22
2023-09-22T12:00	14339	138	-53.8	-82.4	194	22
2023-09-22T12:00	14360	137	-53.4	-82.1	193	22
2023-09-22T12:00	14381	137	-53.2	-82.0	193	22
2023-09-22T12:00	14402	137	-53.3	-82.5	193	22
2023-09-22T12:00	14426	136	-53.4	-82.1	193	23
2023-09-22T12:00	14444	136	-53.5	-82.2	193	23
2023-09-22T12:00	14464	135	-53.5	-82.2	193	23
2023-09-22T12:00	14484	135	-53.5	-82.2	193	23
2023-09-22T12:00	14505	134	-53.6	-82.3	194	23
2023-09-22T12:00	14524	134	-53.7	-82.3	194	23
2023-09-22T12:00	14547	134	-53.9	-82.5	194	23
2023-09-22T12:00	14566	133	-54.1	-82.3	195	23
2023-09-22T12:00	14588	133	-54.2	-82.3	195	23
2023-09-22T12:00	14609	132	-54.4	-82.5	196	23
2023-09-22T12:00	14633	132	-54.6	-82.6	196	22
2023-09-22T12:00	14654	131	-54.7	-82.7	197	22
2023-09-22T12:00	14674	131	-54.9	-82.5	197	22
2023-09-22T12:00	14694	130	-55.1	-82.7	198	22
2023-09-22T12:00	14714	130	-55.2	-82.7	199	22
2023-09-22T12:00	14734	130	-55.4	-82.9	199	21
2023-09-22T12:00	14755	129	-55.5	-83.0	200	22
2023-09-22T12:00	14774	129	-55.6	-83.1	200	22
2023-09-22T12:00	14794	128	-55.8	-83.2	201	22
2023-09-22T12:00	14815	128	-55.9	-82.9	201	22
2023-09-22T12:00	14835	128	-56.1	-83.1	202	22
2023-09-22T12:00	14854	127	-56.3	-83.3	202	22
2023-09-22T12:00	14874	127	-56.3	-83.3	203	22
2023-09-22T12:00	14895	126	-56.4	-83.0	204	23
2023-09-22T12:00	14914	126	-56.6	-83.2	204	23
2023-09-22T12:00	14933	126	-56.7	-83.2	205	23
2023-09-22T12:00	14954	125	-56.7	-82.9	205	23
2023-09-22T12:00	14974	125	-56.7	-82.9	205	23
2023-09-22T12:00	14996	124	-56.6	-82.9	205	23
2023-09-22T12:00	15016	124	-56.6	-82.9	204	23
2023-09-22T12:00	15035	124	-56.0	-82.7	202	22
2023-09-22T12:00	15059	123	-55.7	-82.5	201	22
2023-09-22T12:00	15078	123	-55.7	-82.5	199	22
2023-09-22T12:00	15099	122	-55.6	-82.4	197	22
2023-09-22T12:00	15119	122	-55.5	-82.3	195	22
2023-09-22T12:00	15142	122	-55.6	-82.7	194	22
2023-09-22T12:00	15163	121	-55.4	-82.6	193	22
2023-09-22T12:00	15184	121	-55.1	-82.3	193	22
2023-09-22T12:00	15207	120	-55.0	-82.3	193	22
2023-09-22T12:00	15225	120	-55.1	-82.3	193	22
2023-09-22T12:00	15248	120	-55.2	-82.4	194	21
2023-09-22T12:00	15267	119	-55.3	-82.5	195	21
2023-09-22T12:00	15292	119	-55.4	-82.6	196	21
2023-09-22T12:00	15312	118	-55.5	-82.6	197	21
2023-09-22T12:00	15332	118	-55.5	-82.3	198	21
2023-09-22T12:00	15356	118	-55.6	-82.4	198	22
2023-09-22T12:00	15380	117	-55.7	-82.5	199	22
2023-09-22T12:00	15399	117	-55.9	-82.9	200	21
2023-09-22T12:00	15424	116	-56.0	-83.0	200	21
2023-09-22T12:00	15445	116	-55.9	-82.9	200	21
2023-09-22T12:00	15468	116	-55.7	-82.8	200	21
2023-09-22T12:00	15487	115	-55.6	-83.1	201	21
2023-09-22T12:00	15509	115	-55.7	-83.1	201	21
2023-09-22T12:00	15528	114	-55.8	-83.2	202	21
2023-09-22T12:00	15552	114	-55.9	-83.3	203	21
2023-09-22T12:00	15573	114	-55.9	-83.3	204	21
2023-09-22T12:00	15596	113	-56.0	-83.4	205	21
2023-09-22T12:00	15615	113	-56.1	-83.4	205	21
2023-09-22T12:00	15638	113	-55.9	-83.3	206	22
2023-09-22T12:00	15656	112	-55.8	-83.2	206	22
2023-09-22T12:00	15679	112	-55.8	-83.2	206	21
2023-09-22T12:00	15703	111	-55.7	-83.5	205	21
2023-09-22T12:00	15724	111	-55.7	-83.5	205	20
2023-09-22T12:00	15743	111	-55.7	-83.5	206	20
2023-09-22T12:00	15764	110	-55.6	-83.4	206	20
2023-09-22T12:00	15784	110	-55.6	-83.4	207	19
2023-09-22T12:00	15802	110	-55.5	-83.7	207	19
2023-09-22T12:00	15824	109	-55.5	-83.7	208	19
2023-09-22T12:00	15840	109	-55.5	-83.7	209	18
2023-09-22T12:00	15860	109	-55.5	-83.7	211	18
2023-09-22T12:00	15879	108	-55.5	-84.1	212	17
2023-09-22T12:00	15899	108	-55.2	-83.9	213	17
2023-09-22T12:00	15919	108	-55.2	-83.9	214	16
2023-09-22T12:00	15937	107	-55.2	-83.9	214	15
2023-09-22T12:00	15958	107	-55.2	-84.3	214	15
2023-09-22T12:00	15979	107	-54.8	-84.0	213	14
2023-09-22T12:00	15999	106	-54.6	-83.9	211	14
2023-09-22T12:00	16017	106	-54.6	-84.3	210	14
2023-09-22T12:00	16036	106	-54.6	-84.3	208	13
2023-09-22T12:00	16056	105	-54.6	-84.3	207	13
2023-09-22T12:00	16078	105	-54.7	-83.9	205	13
2023-09-22T12:00	16101	105	-54.8	-84.0	203	13
2023-09-22T12:00	16121	104	-54.9	-84.1	201	13
2023-09-22T12:00	16143	104	-55.0	-84.2	198	13
2023-09-22T12:00	16166	104	-55.1	-84.2	195	13
2023-09-22T12:00	16189	103	-55.3	-84.4	192	13
2023-09-22T12:00	16210	103	-55.4	-84.5	190	13
2023-09-22T12:00	16233	102	-55.4	-84.5	187	13
2023-09-22T12:00	16255	102	-55.6	-84.6	185	14
2023-09-22T12:00	16278	102	-55.8	-84.8	184	14
2023-09-22T12:00	16301	101	-56.0	-84.9	183	15
2023-09-22T12:00	16322	101	-56.1	-84.6	182	15
2023-09-22T12:00	16344	101	-56.3	-84.7	182	15
2023-09-22T12:00	16365	100	-56.4	-84.8	183	16
2023-09-22T12:00	16388	100	-56.6	-84.9	184	16
2023-09-22T12:00	16409	100	-56.7	-85.4	186	16
2023-09-22T12:00	16431	99	-56.8	-85.5	189	17
2023-09-22T12:00	16455	99	-56.8	-85.5	191	17
2023-09-22T12:00	16480	99	-56.8	-85.5	194	17
2023-09-22T12:00	16501	98	-56.6	-85.8	196	17
2023-09-22T12:00	16522	98	-56.4	-85.7	198	16
2023-09-22T12:00	16546	98	-56.4	-85.7	198	16
2023-09-22T12:00	16571	97	-56.3	-86.1	198	16
2023-09-22T12:00	16594	97	-56.0	-85.9	197	16
2023-09-22T12:00	16616	96	-55.8	-85.7	197	16
2023-09-22T12:00	16639	96	-55.9	-85.8	196	17
2023-09-22T12:00	16663	96	-56.0	-85.9	195	17
2023-09-22T12:00	16684	95	-55.8	-85.7	195	17
2023-09-22T12:00	16709	95	-55.6	-86.1	195	17
2023-09-22T12:00	16733	95	-55.6	-86.1	194	18
2023-09-22T12:00	16753	94	-55.4	-86.0	194	18
2023-09-22T12:00	16771	94	-55.4	-86.0	194	18
2023-09-22T12:00	16798	94	-55.6	-86.1	193	19
2023-09-22T12:00	16824	93	-55.6	-86.1	194	20
2023-09-22T12:00	16843	93	-55.6	-86.1	194	20
2023-09-22T12:00	16867	93	-55.6	-86.1	195	20
2023-09-22T12:00	16888	92	-55.5	-86.1	196	20
2023-09-22T12:00	16914	92	-55.5	-86.1	197	20
2023-09-22T12:00	16933	92	-55.4	-86.0	199	20
2023-09-22T12:00	16955	91	-55.4	-86.0	201	20
2023-09-22T12:00	16978	91	-55.5	-86.1	203	20
2023-09-22T12:00	16999	91	-55.6	-86.1	205	20
2023-09-22T12:00	17026	90	-55.8	-86.3	207	20
2023-09-22T12:00	17049	90	-55.8	-86.3	209	20
2023-09-22T12:00	17076	90	-56.0	-86.4	211	20
2023-09-22T12:00	17102	89	-56.2	-86.0	213	20
2023-09-22T12:00	17124	89	-56.4		215	19
2023-09-22T12:00	17148	89	-56.5	-86.8	217	19
2023-09-22T12:00	17168	88	-56.1	-86.5	218	18
2023-09-22T12:00	17191	88	-55.6	-86.7	218	18
2023-09-22T12:00	17214	88	-55.1	-86.4	217	17
2023-09-22T12:00	17237	88	-54.9	-86.9	216	17
2023-09-22T12:00	17258	87	-54.9	-86.9	214	16
2023-09-22T12:00	17280	87	-54.9	-86.2	212	16
2023-09-22T12:00	17302	87	-54.9	-86.2	212	16
2023-09-22T12:00	17327	86	-55.0	-86.3	212	16
2023-09-22T12:00	17349	86	-55.1	-86.4	212	15
2023-09-22T12:00	17374	86	-55.2	-86.4	213	15
2023-09-22T12:00	17391	85	-55.2	-86.4	214	15
2023-09-22T12:00	17413	85	-55.2	-86.4	214	14
2023-09-22T12:00	17435	85	-55.3	-86.5	215	14
2023-09-22T12:00	17459	85	-55.4	-86.6	215	13
2023-09-22T12:00	17482	84	-55.5	-86.7	215	13
2023-09-22T12:00	17505	84	-55.6	-86.7	215	13
2023-09-22T12:00	17528	84	-55.6	-86.7	215	13
2023-09-22T12:00	17550	83	-55.5	-86.7	215	13
2023-09-22T12:00	17575	83	-55.6	-86.1	215	13
2023-09-22T12:00	17597	83	-55.7	-86.2	215	14
2023-09-22T12:00	17619	82	-55.9	-86.3	216	14
2023-09-22T12:00	17644	82	-56.0	-86.4	217	14
2023-09-22T12:00	17665	82	-56.2	-86.6	218	14
2023-09-22T12:00	17687	82	-56.2	-86.6	218	14
2023-09-22T12:00	17708	81	-56.2	-86.6	219	15
2023-09-22T12:00	17727	81	-56.4		220	15
2023-09-22T12:00	17752	81	-56.5	-86.8	220	16
2023-09-22T12:00	17774	80	-56.6	-86.9	221	16
2023-09-22T12:00	17795	80	-56.6	-86.9	222	16
2023-09-22T12:00	17816	80	-56.6	-86.9	222	16
2023-09-22T12:00	17838	80	-56.6	-86.9	223	16
2023-09-22T12:00	17855	79	-56.7	-86.9	223	16
2023-09-22T12:00	17876	79	-56.8	-87.0	223	15
2023-09-22T12:00	17898	79	-56.9	-87.1	222	15
2023-09-22T12:00	17923	79	-56.6	-87.5	222	14
2023-09-22T12:00	17942	78	-56.2	-87.2	221	14
2023-09-22T12:00	17965	78	-55.9	-86.9	220	14
2023-09-22T12:00	17983	78	-55.8	-87.5	219	14
2023-09-22T12:00	18006	78	-55.8	-87.5	219	14
2023-09-22T12:00	18027	77	-55.5	-87.3	218	14
2023-09-22T12:00	18046	77	-55.0	-87.0	219	15
2023-09-22T12:00	18068	77	-54.4	-86.5	220	15
2023-09-22T12:00	18090	77	-54.2	-87.1	222	15
2023-09-22T12:00	18115	76	-54.2	-87.1	225	15
2023-09-22T12:00	18135	76	-54.2	-87.1	227	15
2023-09-22T12:00	18156	76	-53.7	-86.8	230	15
2023-09-22T12:00	18177	76	-52.8	-87.0	231	14
2023-09-22T12:00	18203	75	-52.3	-86.6	232	14
2023-09-22T12:00	18221	75	-52.0	-86.4	232	14
2023-09-22T12:00	18245	75	-51.9	-86.3	231	13
2023-09-22T12:00	18273	74	-51.9	-86.3	228	13
2023-09-22T12:00	18294	74	-52.0	-85.5	226	13
2023-09-22T12:00	18320	74	-52.1	-85.6	223	14
2023-09-22T12:00	18341	74	-52.2	-85.7	221	14
2023-09-22T12:00	18368	73	-52.4	-85.8	218	14
2023-09-22T12:00	18391	73	-52.5	-85.9	217	14
2023-09-22T12:00	18414	73	-52.7	-86.0	216	13
2023-09-22T12:00	18439	73	-52.9	-86.2	215	13
2023-09-22T12:00	18464	72	-53.0	-86.3	215	13
2023-09-22T12:00	18491	72	-53.1	-86.3	216	12
2023-09-22T12:00	18513	72	-53.1	-86.3	216	12
2023-09-22T12:00	18538	71	-53.1	-86.3	216	11
2023-09-22T12:00	18562	71	-53.0	-86.3	216	11
2023-09-22T12:00	18583	71	-53.1	-86.3	215	11
2023-09-22T12:00	18611	71	-53.3	-85.7	213	11
2023-09-22T12:00	18635	70	-53.5	-85.9	212	10
2023-09-22T12:00	18660	70	-53.6		210	10
2023-09-22T12:00	18685	70	-53.8	-86.1	209	10
2023-09-22T12:00	18712	70	-54.0	-86.2	208	10
2023-09-22T12:00	18735	69	-54.2	-86.4	207	10
2023-09-22T12:00	18758	69	-54.4	-86.5	206	10
2023-09-22T12:00	18780	69	-54.6	-86.0	205	10
2023-09-22T12:00	18804	69	-54.8	-86.1	204	10
2023-09-22T12:00	18832	68	-54.9	-86.2	204	10
2023-09-22T12:00	18852	68	-55.1	-86.4	203	10
2023-09-22T12:00	18881	68	-55.4	-86.6	203	10
2023-09-22T12:00	18907	67	-55.6	-86.7	203	10
2023-09-22T12:00	18933	67	-55.7	-86.8	204	9
2023-09-22T12:00	18955	67	-55.9	-86.9	206	9
2023-09-22T12:00	18979	67	-56.2	-87.2	207	9
2023-09-22T12:00	19006	66	-56.3	-87.2	207	9
2023-09-22T12:00	19028	66	-56.4	-87.3	207	9
2023-09-22T12:00	19052	66	-56.3	-87.2	206	9
2023-09-22T12:00	19080	66	-56.2	-87.2	204	10
2023-09-22T12:00	19101	65	-56.2	-87.2	203	10
2023-09-22T12:00	19129	65	-56.3	-87.2	202	10
2023-09-22T12:00	19154	65	-56.4	-87.3	201	11
2023-09-22T12:00	19175	65	-56.5	-87.4	202	11
2023-09-22T12:00	19195	64	-56.1	-87.1	203	11
2023-09-22T12:00	19222	64	-55.8	-87.5	204	11
2023-09-22T12:00	19244	64	-55.8	-87.5	205	11
2023-09-22T12:00	19268	64	-55.9	-87.6	206	11
2023-09-22T12:00	19292	63	-55.9	-87.6	206	12
2023-09-22T12:00	19317	63	-56.0	-87.7	206	12
2023-09-22T12:00	19340	63	-55.9	-87.6	205	13
2023-09-22T12:00	19368	63	-55.9	-87.6	205	13
2023-09-22T12:00	19389	62	-55.9	-87.6	204	14
2023-09-22T12:00	19413	62	-55.9	-87.6	204	14
2023-09-22T12:00	19438	62	-56.0	-87.7	205	14
2023-09-22T12:00	19461	62	-56.1	-87.8	205	14
2023-09-22T12:00	19486	62	-56.2	-87.8	205	14
2023-09-22T12:00	19511	61	-56.2	-87.8	205	13
2023-09-22T12:00	19535	61	-56.2	-87.8	206	13
2023-09-22T12:00	19558	61	-56.2	-87.8	205	13
2023-09-22T12:00	19582	61	-56.3	-87.2	205	13
2023-09-22T12:00	19602	60	-56.4	-87.3	205	12
2023-09-22T12:00	19631	60	-56.6	-87.5	205	12
2023-09-22T12:00	19652	60	-56.7	-87.5	205	12
2023-09-22T12:00	19678	60	-56.7	-87.5	205	12
2023-09-22T12:00	19698	60	-56.6	-87.5	205	12
2023-09-22T12:00	19718	59	-56.6	-87.5	204	12
2023-09-22T12:00	19744	59	-56.7	-87.5	203	11
2023-09-22T12:00	19769	59	-56.7	-87.5	201	11
2023-09-22T12:00	19792	59	-56.8	-87.6	199	11
2023-09-22T12:00	19816	58	-57.0	-87.8	196	11
2023-09-22T12:00	19837	58	-57.0	-87.8	194	12
2023-09-22T12:00	19860	58	-56.9	-87.7	192	12
2023-09-22T12:00	19884	58	-56.9	-87.7	191	12
2023-09-22T12:00	19911	58	-56.9	-87.7	190	12
2023-09-22T12:00	19931	57	-56.9	-87.7	191	13
2023-09-22T12:00	19957	57	-57.0	-87.8	192	13
2023-09-22T12:00	19984	57	-57.1	-88.5	194	14
2023-09-22T12:00	20008	57	-57.1	-88.5	195	14
2023-09-22T12:00	20027	57	-57.1	-88.5	197	14
2023-09-22T12:00	20055	56	-56.9	-88.3	199	14
2023-09-22T12:00	20074	56	-56.7	-88.2	201	14
2023-09-22T12:00	20100	56	-56.6	-88.1	203	14
2023-09-22T12:00	20124	56	-56.5	-88.1	205	13
2023-09-22T12:00	20145	55	-56.5	-88.1	207	13
2023-09-22T12:00	20171	55	-56.4	-88.0	209	13
2023-09-22T12:00	20188	55	-56.3	-87.9	211	13
2023-09-22T12:00	20214	55	-56.4	-88.0	213	13
2023-09-22T12:00	20244	55	-56.2	-88.6	216	14
2023-09-22T12:00	20267	54	-56.1	-88.5	218	14
2023-09-22T12:00	20290	54	-56.1	-88.5	220	14
2023-09-22T12:00	20312	54	-56.1	-87.8	221	14
2023-09-22T12:00	20335	54	-56.2	-87.8	223	14
2023-09-22T12:00	20359	54	-56.4	-88.0	224	14
2023-09-22T12:00	20386	53	-56.6	-88.1	226	14
2023-09-22T12:00	20411	53	-56.7	-88.2	227	14
2023-09-22T12:00	20440	53	-56.8	-88.3	228	14
2023-09-22T12:00	20465	53	-56.8	-88.3	228	13
2023-09-22T12:00	20487	53	-56.8	-88.3	228	12
2023-09-22T12:00	20509	52	-56.8	-88.3	226	12
2023-09-22T12:00	20534	52	-56.5	-88.8	225	11
2023-09-22T12:00	20563	52	-56.2	-88.6	223	11
2023-09-22T12:00	20582	52	-56.0	-88.4	222	10
2023-09-22T12:00	20608	52	-56.1	-88.5	220	10
2023-09-22T12:00	20636	51	-56.3	-87.9	218	10
2023-09-22T12:00	20657	51	-56.5	-88.1	216	10
2023-09-22T12:00	20682	51	-56.6	-88.1	213	10
2023-09-22T12:00	20707	51	-56.7	-88.2	209	10
2023-09-22T12:00	20731	51	-56.7	-88.2	206	10
2023-09-22T12:00	20757	50	-56.8	-88.3	205	11
2023-09-22T12:00	20783	50	-56.8	-88.3	203	11
2023-09-22T12:00	20803	50	-56.9	-88.3	203	12
2023-09-22T12:00	20831	50	-57.1	-88.5	203	12
2023-09-22T12:00	20851	50	-57.3	-88.0	203	13
2023-09-22T12:00	20876	49	-57.4	-88.1	202	13
2023-09-22T12:00	20894	49	-57.5	-88.1	202	14
2023-09-22T12:00	20919	49	-57.6	-88.2	202	14
2023-09-22T12:00	20947	49	-57.7	-88.3	203	15
2023-09-22T12:00	20967	49	-57.8	-88.3	204	15
2023-09-22T12:00	20991	49	-58.0	-88.5	205	15
2023-09-22T12:00	21011	48	-58.1	-88.6	207	15
2023-09-22T12:00	21036	48	-58.1	-88.6	209	16
2023-09-22T12:00	21058	48	-58.1	-88.6	211	16
2023-09-22T12:00	21080	48	-57.9	-89.1	212	16
2023-09-22T12:00	21104	48	-57.9	-89.1	214	16
2023-09-22T12:00	21132	48	-57.6	-88.9	215	15
2023-09-22T12:00	21158	47	-57.4	-88.7	217	15
2023-09-22T12:00	21176	47	-57.3	-88.6	219	14
2023-09-22T12:00	21196	47	-57.2	-88.6	220	14
2023-09-22T12:00	21220	47	-57.1	-88.5	222	14
2023-09-22T12:00	21243	47	-57.0	-88.4	224	14
2023-09-22T12:00	21270	46	-57.0	-88.4	226	14
2023-09-22T12:00	21292	46	-57.1	-88.5	228	14
2023-09-22T12:00	21317	46	-57.3	-88.6	230	14
2023-09-22T12:00	21340	46	-57.3	-88.6	232	14
2023-09-22T12:00	21367	46	-57.2	-88.6	233	13
2023-09-22T12:00	21392	46	-56.9	-88.3	234	13
2023-09-22T12:00	21415	45	-56.6	-88.9	234	12
2023-09-22T12:00	21438	45	-56.2	-88.6	233	12
2023-09-22T12:00	21461	45	-56.0	-88.4	232	11
2023-09-22T12:00	21486	45	-56.1	-88.5	230	10
2023-09-22T12:00	21511	45	-56.3	-88.6	226	10
2023-09-22T12:00	21538	45	-56.4	-88.7	222	10
2023-09-22T12:00	21559	44	-56.4	-88.7	218	9
2023-09-22T12:00	21586	44	-56.3	-88.6	214	9
2023-09-22T12:00	21613	44	-56.1	-88.5	211	9
2023-09-22T12:00	21635	44	-56.1	-88.5	211	9
2023-09-22T12:00	21660	44	-55.9	-88.4	213	9
2023-09-22T12:00	21684	44	-55.7	-88.2	217	10
2023-09-22T12:00	21706	43	-55.5	-88.1	221	10
2023-09-22T12:00	21734	43	-55.6	-88.1	225	10
2023-09-22T12:00	21757	43	-55.6	-88.1	228	11
2023-09-22T12:00	21780	43	-55.7	-88.2	230	11
2023-09-22T12:00	21811	43	-55.8	-88.3	230	11
2023-09-22T12:00	21829	43	-55.9	-88.4	229	10
2023-09-22T12:00	21855	42	-56.0	-88.4	226	10
2023-09-22T12:00	21879	42	-56.1	-88.5	224	10
2023-09-22T12:00	21909	42	-56.1	-88.5	221	10
2023-09-22T12:00	21932	42	-56.1	-88.5	219	10
2023-09-22T12:00	21955	42	-56.0	-88.4	218	10
2023-09-22T12:00	21977	42	-55.9	-88.4	219	10
2023-09-22T12:00	22007	41	-55.7	-88.2	219	10
2023-09-22T12:00	22033	41	-55.8	-88.3	219	10
2023-09-22T12:00	22055	41	-56.0	-87.7	218	10
2023-09-22T12:00	22083	41	-56.2	-87.8	215	10
2023-09-22T12:00	22107	41	-56.5	-88.1	212	10
2023-09-22T12:00	22139	41	-56.7	-88.2	210	11
2023-09-22T12:00	22166	40	-56.9	-88.3	208	11
2023-09-22T12:00	22188	40	-57.0	-88.4	209	12
2023-09-22T12:00	22212	40	-57.0	-88.4	211	12
2023-09-22T12:00	22240	40	-57.0	-88.4	213	13
2023-09-22T12:00	22265	40	-57.0	-88.4	214	13
2023-09-22T12:00	22286	40	-57.0	-88.4	214	13
2023-09-22T12:00	22311	39	-57.0	-88.4	214	13
2023-09-22T12:00	22338	39	-56.9	-88.3	213	13
2023-09-22T12:00	22364	39	-57.0	-88.4	212	13
2023-09-22T12:00	22388	39	-57.2	-88.6	211	12
2023-09-22T12:00	22411	39	-57.3	-88.6	211	12
2023-09-22T12:00	22438	39	-57.0	-88.4	211	12
2023-09-22T12:00	22465	38	-56.7	-88.2	212	12
2023-09-22T12:00	22486	38	-56.8	-88.3	212	11
2023-09-22T12:00	22515	38	-57.0	-88.4	212	11
2023-09-22T12:00	22542	38	-57.2	-88.6	212	10
2023-09-22T12:00	22567	38	-57.4	-88.7	213	10
2023-09-22T12:00	22591	38	-57.2	-88.6	213	10
2023-09-22T12:00	22619	38	-56.6	-88.9	215	10
2023-09-22T12:00	22646	37	-56.3	-88.6	217	10
2023-09-22T12:00	22669	37	-56.1	-88.5	221	9
2023-09-22T12:00	22695	37	-56.0	-88.4	225	9
2023-09-22T12:00	22721	37	-56.0	-88.4	229	9
2023-09-22T12:00	22745	37	-56.1	-88.5	233	9
2023-09-22T12:00	22770	37	-56.2	-88.6	236	8
2023-09-22T12:00	22801	37	-56.2	-88.6	239	8
2023-09-22T12:00	22827	36	-56.3	-87.9	240	8
2023-09-22T12:00	22849	36	-56.5	-88.1	240	7
2023-09-22T12:00	22882	36	-56.7	-88.2	239	7
2023-09-22T12:00	22901	36	-56.9	-88.3	236	7
2023-09-22T12:00	22929	36	-57.0	-88.4	231	7
2023-09-22T12:00	22952	36	-57.2	-88.6	226	7
2023-09-22T12:00	22978	35	-57.2	-88.6	220	7
2023-09-22T12:00	23007	35	-57.1	-89.2	215	7
2023-09-22T12:00	23029	35	-56.9	-89.1	210	7
2023-09-22T12:00	23056	35	-56.7	-88.9	205	7
2023-09-22T12:00	23087	35	-56.9	-89.1	201	7
2023-09-22T12:00	23108	35	-57.0	-88.4	198	7
2023-09-22T12:00	23132	35	-57.1	-88.5	196	8
2023-09-22T12:00	23161	34	-57.3	-88.6	196	8
2023-09-22T12:00	23180	34	-57.5	-88.8	197	9
2023-09-22T12:00	23212	34	-57.4	-89.4	200	10
2023-09-22T12:00	23234	34	-57.1	-89.2	203	10
2023-09-22T12:00	23261	34	-57.0	-89.2	207	10
2023-09-22T12:00	23289	34	-57.0	-89.2	210	11
2023-09-22T12:00	23315	34	-57.1	-88.5	213	11
2023-09-22T12:00	23340	34	-57.2	-88.6	216	11
2023-09-22T12:00	23368	33	-57.4	-88.7	218	12
2023-09-22T12:00	23394	33	-57.5	-88.8	221	12
2023-09-22T12:00	23422	33	-57.6	-88.9	225	13
2023-09-22T12:00	23442	33	-57.6	-88.9	228	13
2023-09-22T12:00	23464	33	-57.4	-88.7	230	13
2023-09-22T12:00	23491	33	-57.3	-88.6	232	13
2023-09-22T12:00	23525	33	-57.3	-88.6	233	13
2023-09-22T12:00	23547	32	-57.4	-88.7	233	13
2023-09-22T12:00	23565	32	-57.4	-88.7	232	12
2023-09-22T12:00	23598	32	-57.5	-88.8	231	12
2023-09-22T12:00	23625	32	-57.5	-88.8	230	11
2023-09-22T12:00	23649	32	-57.5	-88.8	227	11
2023-09-22T12:00	23682	32	-57.4	-89.4	224	11
2023-09-22T12:00	23705	32	-57.0	-89.2	220	11
2023-09-22T12:00	23730	32	-56.8	-89.0	217	11
2023-09-22T12:00	23754	31	-56.8	-89.0	216	11
2023-09-22T12:00	23774	31	-56.9	-89.1	217	11
2023-09-22T12:00	23811	31	-56.9	-89.1	219	11
2023-09-22T12:00	23828	31	-56.4	-88.7	221	11
2023-09-22T12:00	23852	31	-56.0	-88.4	224	11
2023-09-22T12:00	23878	31	-55.9	-88.4	226	11
2023-09-22T12:00	23904	31	-56.0	-88.4	227	10
2023-09-22T12:00	23929	31	-55.9	-88.4	229	10
2023-09-22T12:00	23954	30	-55.7	-88.2	230	9
2023-09-22T12:00	23985	30	-55.8	-88.3	233	9
2023-09-22T12:00	24010	30	-55.9	-88.4	236	9
2023-09-22T12:00	24032	30	-55.9	-88.4	239	8
2023-09-22T12:00	24062	30	-56.0	-88.4	242	8
2023-09-22T12:00	24088	30	-56.0	-88.4	244	7
2023-09-22T12:00	24104	30	-56.1	-88.5	243	7
2023-09-22T12:00	24133	30	-56.1	-88.5	241	7
2023-09-22T12:00	24158	29	-56.0	-88.4	236	6
2023-09-22T12:00	24191	29	-56.0	-88.4	232	7
2023-09-22T12:00	24206	29	-56.0	-88.4	229	7
2023-09-22T12:00	24233	29	-56.0	-88.4	227	7
2023-09-22T12:00	24260	29	-56.2	-88.6	227	8
2023-09-22T12:00	24284	29	-56.4	-88.7	227	8
2023-09-22T12:00	24314	29	-56.5	-88.1	227	9
2023-09-22T12:00	24340	29	-56.6	-88.1	227	10
2023-09-22T12:00	24363	29	-56.8	-88.3	227	10
2023-09-22T12:00	24390	28	-57.0	-88.4	226	11
2023-09-22T12:00	24417	28	-57.0	-88.4	225	12
2023-09-22T12:00	24442	28	-57.1	-88.5	225	13
2023-09-22T12:00	24457	28	-57.1	-88.5	224	13
2023-09-22T12:00	24494	28	-57.2	-88.6	224	14
2023-09-22T12:00	24514	28	-57.4	-88.7	225	14
2023-09-22T12:00	24548	28	-57.5	-88.8	226	15
2023-09-22T12:00	24573	28	-57.5	-88.8	229	15
2023-09-22T12:00	24597	28	-57.6	-88.9	231	15
2023-09-22T12:00	24625	27	-57.6	-88.9	235	15
2023-09-22T12:00	24647	27	-57.5	-89.5	239	14
2023-09-22T12:00	24669	27	-57.3	-89.4	242	14
2023-09-22T12:00	24694	27	-57.2	-89.3	246	14
2023-09-22T12:00	24720	27	-57.2	-89.3	249	14
2023-09-22T12:00	24750	27	-57.1	-89.2	250	15
2023-09-22T12:00	24781	27	-56.9	-89.1	251	15
2023-09-22T12:00	24808	27	-56.8	-89.0	251	15
2023-09-22T12:00	24828	26	-56.7	-88.9	250	14
2023-09-22T12:00	24856	26	-56.5	-88.8	250	13
2023-09-22T12:00	24880	26	-56.4	-88.7	250	13
2023-09-22T12:00	24907	26	-56.5	-88.8	251	12
2023-09-22T12:00	24934	26	-56.7	-88.9	252	11
2023-09-22T12:00	24963	26	-56.6	-88.9	253	11
2023-09-22T12:00	24988	26	-56.7	-88.9	254	11
2023-09-22T12:00	25016	26	-56.9	-89.1	254	11
2023-09-22T12:00	25039	26	-56.8	-89.0	254	11
2023-09-22T12:00	25065	26	-56.6	-88.9	255	11
2023-09-22T12:00	25091	25	-56.5	-88.8	256	11
2023-09-22T12:00	25116	25	-56.4	-88.7	257	10
2023-09-22T12:00	25141	25	-56.4	-89.6	258	10
2023-09-22T12:00	25172	25	-56.2	-89.4	258	10
2023-09-22T12:00	25189	25	-56.0	-89.3	257	9
2023-09-22T12:00	25214	25	-55.7	-89.1	254	9
2023-09-22T12:00	25241	25	-55.5	-88.9	250	8
2023-09-22T12:00	25272	25	-55.4	-88.9	244	8
2023-09-22T12:00	25300	25	-55.4	-88.9	239	8
2023-09-22T12:00	25329	25	-55.3	-88.8	235	8
2023-09-22T12:00	25348	24	-55.3	-88.8	233	9
2023-09-22T12:00	25371	24	-55.5	-88.9	232	9
2023-09-22T12:00	25406	24	-55.5	-88.9	234	9
2023-09-22T12:00	25421	24	-55.3	-88.8	236	9
2023-09-22T12:00	25445	24	-55.1	-88.6	239	10
2023-09-22T12:00	25475	24	-55.1	-88.6	241	10
2023-09-22T12:00	25500	24	-55.1	-88.6	244	10
2023-09-22T12:00	25527	24	-55.2	-88.7	246	10
2023-09-22T12:00	25550	24	-55.1	-88.6	247	10
2023-09-22T12:00	25590	24	-55.1	-88.6	247	11
2023-09-22T12:00	25606	23	-54.9	-88.5	247	11
2023-09-22T12:00	25620	23	-54.7	-88.4	246	11
2023-09-22T12:00	25653	23	-54.8	-88.4	245	11
2023-09-22T12:00	25682	23	-54.7	-88.4	243	11
2023-09-22T12:00	25710	23	-54.6	-89.3	241	10
2023-09-22T12:00	25737	23	-54.4	-89.1	239	10
2023-09-22T12:00	25768	23	-53.9	-88.8	238	9
2023-09-22T12:00	25795	23	-53.8	-88.7	238	9
2023-09-22T12:00	25824	23	-53.8	-88.7	241	9
2023-09-22T12:00	25847	23	-53.8	-88.7	245	9
2023-09-22T12:00	25881	22	-53.7	-88.7	249	9
2023-09-22T12:00	25907	22	-53.5	-88.5	253	9
2023-09-22T12:00	25932	22	-53.4	-88.4	256	9
2023-09-22T12:00	25962	22	-53.4	-88.4	259	9
2023-09-22T12:00	25994	22	-53.5	-87.5	262	9
2023-09-22T12:00	26021	22	-53.7	-87.6	265	9
2023-09-22T12:00	26048	22	-53.9	-87.8	268	9
2023-09-22T12:00	26083	22	-54.0	-87.8	270	9
2023-09-22T12:00	26109	22	-54.0	-87.8	272	9
2023-09-22T12:00	26135	22	-54.0	-87.8	274	9
2023-09-22T12:00	26161	22	-54.1	-87.9	275	8
2023-09-22T12:00	26196	21	-54.3	-88.1	276	7
2023-09-22T12:00	26224	21	-54.4	-88.1	277	6
2023-09-22T12:00	26242	21	-54.4	-88.1	277	5
2023-09-22T12:00	26279	21	-54.4	-88.1	277	5
2023-09-22T12:00	26305	21	-54.4	-88.1	275	4
2023-09-22T12:00	26333	21	-54.3	-88.1	274	4
2023-09-22T12:00	26358	21	-54.1	-87.9	272	5
2023-09-22T12:00	26379	21	-53.9	-88.8	270	6
2023-09-22T12:00	26418	21	-53.7	-88.7	268	6
2023-09-22T12:00	26446	21	-53.6	-88.6	265	7
2023-09-22T12:00	26460	21	-53.5	-88.5	261	7
2023-09-22T12:00	26490	20	-53.4	-88.4	257	7
2023-09-22T12:00	26527	20	-53.4	-88.4	251	7
2023-09-22T12:00	26552	20	-53.4	-88.4	246	8
2023-09-22T12:00	26576	20	-53.5	-88.5	241	8
2023-09-22T12:00	26599	20	-53.6	-88.6	238	9
2023-09-22T12:00	26622	20	-53.8	-87.7	235	10
2023-09-22T12:00	26657	20	-53.9	-87.8	234	10
2023-09-22T12:00	26687	20	-53.9	-87.8	234	11
2023-09-22T12:00	26723	20	-53.8	-87.7	235	11
2023-09-22T12:00	26732	20	-54.0	-87.8	236	11
2023-09-22T12:00	26765	20	-54.1	-87.9	238	12
2023-09-22T12:00	26793	20	-54.2	-88.0	239	12
2023-09-22T12:00	26819	19	-54.4	-88.1	240	12
2023-09-22T12:00	26840	19	-54.4	-88.1	241	12
2023-09-22T12:00	26881	19	-54.4	-88.1	242	12
2023-09-22T12:00	26905	19	-54.6	-88.3	243	12
2023-09-22T12:00	26927	19	-54.6	-88.3	244	12
2023-09-22T12:00	26958	19	-54.7	-88.4	245	12
2023-09-22T12:00	26978	19	-54.9	-88.5	247	12
2023-09-22T12:00	27010	19	-54.9	-88.5	249	11
2023-09-22T12:00	27029	19	-54.8	-88.4	251	11
2023-09-22T12:00	27063	19	-54.8	-88.4	253	11
2023-09-22T12:00	27075	19	-54.9	-88.5	255	11
2023-09-22T12:00	27119	19	-54.8	-88.4	256	11
2023-09-22T12:00	27148	18	-54.8	-88.4	258	11
2023-09-22T12:00	27168	18	-54.8	-88.4	260	11
2023-09-22T12:00	27205	18	-54.7	-88.4	263	11
2023-09-22T12:00	27226	18	-54.6	-88.3	265	10
2023-09-22T12:00	27249	18	-54.6	-88.3	268	10
2023-09-22T12:00	27286	18	-54.5	-88.2	271	10
2023-09-22T12:00	27299	18	-54.3	-88.1	274	10
2023-09-22T12:00	27330	18	-54.3	-88.1	277	10
2023-09-22T12:00	27354	18	-54.3	-88.1	280	10
2023-09-22T12:00	27380	18	-54.3	-88.1	283	10
2023-09-22T12:00	27411	18	-54.4	-88.1	285	10
2023-09-22T12:00	27434	18	-54.4	-88.1	286	10
2023-09-22T12:00	27464	18	-54.3	-88.1	286	9
2023-09-22T12:00	27485	18	-54.2	-88.0	284	8
2023-09-22T12:00	27508	17	-54.1	-87.9	281	7
2023-09-22T12:00	27542	17	-54.0	-87.8	276	7
2023-09-22T12:00	27568	17	-54.2	-88.0	271	6
2023-09-22T12:00	27586	17	-54.4	-88.1	266	6
2023-09-22T12:00	27615	17	-54.4	-88.1	260	6
2023-09-22T12:00	27650	17	-54.5	-88.2	256	6
2023-09-22T12:00	27680	17	-54.6	-88.3	253	7
2023-09-22T12:00	27704	17	-54.5	-88.2	252	8
2023-09-22T12:00	27726	17	-54.3	-88.1	252	8
2023-09-22T12:00	27750	17	-54.0	-88.9	252	9
2023-09-22T12:00	27796	17	-53.9	-88.8	254	9
2023-09-22T12:00	27815	17	-53.9	-88.8	256	9
2023-09-22T12:00	27834	17	-53.9	-88.8	259	10
2023-09-22T12:00	27872	17	-53.9	-88.8	261	10
2023-09-22T12:00	27891	16	-54.0	-88.9	262	9
2023-09-22T12:00	27920	16	-54.0	-88.9	260	9
2023-09-22T12:00	27955	16	-53.9	-88.8	257	9
2023-09-22T12:00	27980	16	-53.5	-88.5	252	8
2023-09-22T12:00	28007	16	-53.2	-88.3	246	8
2023-09-22T12:00	28022	16	-53.0	-88.2	241	8
2023-09-22T12:00	28065	16	-53.0	-88.2	237	9
2023-09-22T12:00	28091	16	-53.0	-88.2	235	9
2023-09-22T12:00	28115	16	-53.0	-88.2	234	10
2023-09-22T12:00	28149	16	-53.0	-88.2	235	10
2023-09-22T12:00	28175	16	-52.9	-88.1	236	10
2023-09-22T12:00	28210	16	-52.8	-88.0	238	10
2023-09-22T12:00	28232	16	-52.7	-87.9	239	11
2023-09-22T12:00	28250	16	-52.6	-87.9	240	11
2023-09-22T12:00	28288	15	-52.5	-87.8	241	10
2023-09-22T12:00	28329	15	-52.3	-87.7	242	10
2023-09-22T12:00	28356	15	-52.0	-87.4	244	10
2023-09-22T12:00	28370	15	-51.9	-87.4	248	11
2023-09-22T12:00	28406	15	-51.9	-87.4	253	11
2023-09-22T12:00	28421	15	-51.9	-87.4	259	11
2023-09-22T12:00	28458	15	-51.9	-87.4	264	11
2023-09-22T12:00	28496	15	-51.9	-87.4	268	11
2023-09-22T12:00	28518	15	-51.9	-87.4	272	11
2023-09-22T12:00	28537	15	-52.0	-87.4	275	10
2023-09-22T12:00	28570	15	-52.0	-87.4	278	10
2023-09-22T12:00	28601	15	-52.1	-87.5	280	9
2023-09-22T12:00	28627	15	-52.1	-87.5	281	9
2023-09-22T12:00	28648	15	-52.1	-87.5	282	9
2023-09-22T12:00	28680	15	-52.2	-87.6	282	9
2023-09-22T12:00	28713	14	-52.2	-87.6	282	9
2023-09-22T12:00	28738	14	-52.2	-87.6	283	10
2023-09-22T12:00	28757	14	-52.1	-87.5	285	10
2023-09-22T12:00	28774	14	-52.0	-87.4	286	11
2023-09-22T12:00	28812	14	-51.9	-87.4	288	12
2023-09-22T12:00	28835	14	-52.0	-87.4	290	12
2023-09-22T12:00	28858	14	-52.1	-87.5	292	12
2023-09-22T12:00	28898	14	-52.2	-87.6	293	12
2023-09-22T12:00	28910	14	-52.3	-87.7	295	12
2023-09-22T12:00	28925	14	-52.4	-87.7	296	12
2023-09-22T12:00	28956	14	-52.4	-87.7	297	11
2023-09-22T12:00	28989	14	-52.3	-87.7	298	11
2023-09-22T12:00	29012	14	-52.2	-87.6	298	10
2023-09-22T12:00	29043	14	-52.2	-87.6	298	10
2023-09-22T12:00	29074	14	-52.3	-87.7	297	9
2023-09-22T12:00	29104	14	-52.3	-87.7	296	9
2023-09-22T12:00	29124	14	-52.3	-87.7	294	8
2023-09-22T12:00	29155	14	-52.3	-87.7	292	8
2023-09-22T12:00	29177	13	-52.2	-87.6	291	8
2023-09-22T12:00	29206	13	-52.1	-87.5	289	7
2023-09-22T12:00	29222	13	-52.2	-87.6	286	7
2023-09-22T12:00	29253	13	-52.5	-87.8	283	7
2023-09-22T12:00	29296	13	-52.6	-87.9	280	6
2023-09-22T12:00	29311	13	-52.6	-87.9	275	6
2023-09-22T12:00	29335	13	-52.6	-87.9	271	6
2023-09-22T12:00	29369	13	-52.5	-87.8	267	6
2023-09-22T12:00	29394	13	-52.5	-87.8	263	7
2023-09-22T12:00	29422	13	-52.6	-87.9	260	7
2023-09-22T12:00	29446	13	-52.6	-87.9	257	7
2023-09-22T12:00	29486	13	-52.6	-87.9	254	7
2023-09-22T12:00	29521	13	-52.9	-88.1	250	7
2023-09-22T12:00	29533	13	-53.1	-88.2	246	7
2023-09-22T12:00	29575	13	-53.2	-88.3	242	7
2023-09-22T12:00	29609	13	-53.3	-88.4	237	8
2023-09-22T12:00	29634	13	-53.3	-88.4	232	8
2023-09-22T12:00	29663	13	-53.3	-88.4	227	8
2023-09-22T12:00	29691	12	-53.3	-88.4	224	8
2023-09-22T12:00	29721	12	-53.3	-88.4	221	9
2023-09-22T12:00	29755	12	-53.4	-87.4	219	9
2023-09-22T12:00	29787	12	-53.5	-87.5	220	9
2023-09-22T12:00	29819	12	-53.7	-87.6	222	10
2023-09-22T12:00	29860	12	-53.8	-87.7	226	10
2023-09-22T12:00	29875	12	-53.7	-88.7	231	11
2023-09-22T12:00	29895	12	-53.5	-88.5	236	11
2023-09-22T12:00	29932	12	-53.2	-88.3	241	12
2023-09-22T12:00	29970	12	-52.9	-88.1	244	12
2023-09-22T12:00	30000	12	-52.5	-87.8	245	13
2023-09-22T12:00	30028	12	-52.4	-87.7	246	12
2023-09-22T12:00	30057	12	-52.3	-87.7	245	12
2023-09-22T12:00	30088	12	-52.2	-87.6	245	12
2023-09-22T12:00	30113	12	-52.2	-87.6	245	12
2023-09-22T12:00	30152	12	-52.1	-87.5	245	12
2023-09-22T12:00	30163	12	-52.1	-87.5	245	12
2023-09-22T12:00	30210	12	-52.2	-87.6	246	13
2023-09-22T12:00	30227	11	-52.1	-87.5	246	13
2023-09-22T12:00	30256	11	-51.7	-87.2	247	14
2023-09-22T12:00	30296	11	-51.3	-87.0	248	14
2023-09-22T12:00	30312	11	-51.2	-86.9	249	14
2023-09-22T12:00	30332	11	-51.2	-86.9	251	14
2023-09-22T12:00	30372	11	-51.1	-86.8	252	14
2023-09-22T12:00	30406	11	-50.8	-86.6	255	15
2023-09-22T12:00	30423	11	-50.5	-86.4	257	15
2023-09-22T12:00	30459	11	-50.1	-86.1	258	15
2023-09-22T12:00	30493	11	-49.9	-86.0	258	15
2023-09-22T12:00	30517	11	-49.8	-85.9	257	15
2023-09-22T12:00	30548	11	-49.6	-85.8	255	15
2023-09-22T12:00	30581	11	-49.3	-85.5	252	15
2023-09-22T12:00	30594	11	-49.0	-85.3	249	15
2023-09-22T12:00	30624	11	-48.7	-85.1	248	15
2023-09-22T12:00	30660	11	-48.6	-85.0	247	15
2023-09-22T12:00	30678	11	-48.7	-85.1	248	15
2023-09-22T12:00	30713	11	-48.6	-85.0	249	15
2023-09-22T12:00	30727	11	-48.4	-84.9	251	15
2023-09-22T12:00	30775	11	-48.3	-84.8	254	15
2023-09-22T12:00	30778	11	-48.2	-84.8	256	16
2023-09-22T12:00	30826	10	-48.1	-84.7	258	16
2023-09-22T12:00	30844	10	-48.1	-84.7	259	17
2023-09-22T12:00	30859	10	-48.1	-84.7	260	17
2023-09-22T12:00	30890	10	-48.2	-84.8	260	18
2023-09-22T12:00	30917	10	-48.4	-84.9	260	19
2023-09-22T12:00	30934	10	-48.5	-85.0	261	20
2023-09-22T12:00	30958	10	-48.5	-85.0	262	20
2023-09-22T12:00	30994	10	-48.5	-85.0	264	21
2023-09-22T12:00	31002	10	-48.4	-84.9	266	21
2023-09-22T12:00	31022	10	-48.3	-84.8	268	22
2023-09-22T12:00	31061	10	-48.2	-84.8	270	21
2023-09-22T12:00	31101	10	-48.0	-84.6	271	21
2023-09-22T12:00	31109	10	-47.9	-84.6	272	20
2023-09-22T12:00	31138	10	-48.0	-84.6	273	20
2023-09-22T12:00	31152	10	-48.2	-84.8	274	19
2023-09-22T12:00	31209	10	-48.3	-84.8	275	18
2023-09-22T12:00	31216	10	-48.4	-84.9	276	18
2023-09-22T12:00	31249	10	-48.4	-84.9	276	18
2023-09-22T12:00	31265	10	-48.4	-84.9	275	18
2023-09-22T12:00	31308	10	-48.4	-84.9	274	18
2023-09-22T12:00	31335	10	-48.2	-84.8	273	18
2023-09-22T12:00	31349	10	-48.0	-84.6	272	18
2023-09-22T12:00	31386	10	-47.9	-84.6	271	18
2023-09-22T12:00	31425	10	-47.7	-84.4	270	19
2023-09-22T12:00	31450	10	-47.5	-84.3	270	18
2023-09-22T12:00	31472	9	-47.4	-84.2	269	18
2023-09-22T12:00	31501	9	-47.3	-84.1	269	18
2023-09-22T12:00	31542	9	-47.2	-84.1	268	17
2023-09-22T12:00	31596	9	-46.9	-83.9	267	15
2023-09-22T12:00	31629	9	-47.0	-83.9	266	15
2023-09-22T12:00	31691	9	-47.3	-84.1	266	13
2023-09-22T18:00	116	993	15.0	14.3	185	2
2023-09-22T18:00	139	990	15.0		182	3
2023-09-22T18:00	160	987	14.9	13.3	184	3
2023-09-22T18:00	185	985	14.8	13.0	190	4
2023-09-22T18:00	204	982	14.6	12.7	197	5
2023-09-22T18:00	227	980	14.7	12.1	204	5
2023-09-22T18:00	246	977	14.7	11.5	210	6
2023-09-22T18:00	270	975	14.6	10.9	214	6
2023-09-22T18:00	292	972	14.4	10.8	216	6
2023-09-22T18:00	315	969	14.4	10.5	219	7
2023-09-22T18:00	343	966	14.2	10.4	223	7
2023-09-22T18:00	364	964	14.3	10.1	230	7
2023-09-22T18:00	386	961	14.4	9.2	238	6
2023-09-22T18:00	406	959	14.4	8.5	249	6
2023-09-22T18:00	423	957	14.4	8.3	258	6
2023-09-22T18:00	440	955	14.5	8.6	264	6
2023-09-22T18:00	459	953	14.3	8.5	266	6
2023-09-22T18:00	476	951	14.3	8.4	264	6
2023-09-22T18:00	496	949	14.2	8.0	260	6
2023-09-22T18:00	519	946	14.3	7.1	255	6
2023-09-22T18:00	543	944	14.3	7.0	252	6
2023-09-22T18:00	568	941	14.1	6.8	252	6
2023-09-22T18:00	589	939	14.0	6.7	253	6
2023-09-22T18:00	616	936	13.8	6.7	256	6
2023-09-22T18:00	642	933	13.6	6.7	257	6
2023-09-22T18:00	667	930	13.4	6.8	258	6
2023-09-22T18:00	694	927	13.1	6.6	257	6
2023-09-22T18:00	723	924	12.9	6.7	256	7
2023-09-22T18:00	744	921	12.7	6.7	255	7
2023-09-22T18:00	771	919	12.5	6.6	254	7
2023-09-22T18:00	798	916	12.2	6.5	253	8
2023-09-22T18:00	823	913	12.0	6.7	252	8
2023-09-22T18:00	850	910	11.8	6.6	251	8
2023-09-22T18:00	874	907	11.7	6.2	250	8
2023-09-22T18:00	898	905	11.5	6.0	249	7
2023-09-22T18:00	919	902	11.4	6.4	248	7
2023-09-22T18:00	940	900	11.2	6.1	248	7
2023-09-22T18:00	964	898	11.0	5.9	247	7
2023-09-22T18:00	987	895	10.8	5.6	247	7
2023-09-22T18:00	1015	892	10.6	5.2	247	7
2023-09-22T18:00	1039	890	10.4	5.2	247	7
2023-09-22T18:00	1064	887	10.2	4.5	248	6
2023-09-22T18:00	1083	885	10.1	4.2	250	7
2023-09-22T18:00	1102	883	10.0	4.0	251	7
2023-09-22T18:00	1125	880	9.8	3.8	250	7
2023-09-22T18:00	1146	878	9.6	3.8	248	8
2023-09-22T18:00	1173	875	9.4	4.1	245	8
2023-09-22T18:00	1197	873	9.3	3.8	242	9
2023-09-22T18:00	1222	870	9.2	3.4	239	9
2023-09-22T18:00	1240	868	9.1	3.0	238	10
2023-09-22T18:00	1263	866	9.1	3.0	237	10
2023-09-22T18:00	1285	864	9.1	4.2	238	11
2023-09-22T18:00	1305	861	8.9	3.9	239	11
2023-09-22T18:00	1326	859	8.7	3.9	240	11
2023-09-22T18:00	1345	857	8.6	4.2	241	10
2023-09-22T18:00	1370	855	8.4	4.1	242	10
2023-09-22T18:00	1392	853	8.2	4.0	244	9
2023-09-22T18:00	1415	850	8.1	3.8	245	9
2023-09-22T18:00	1432	848	8.0	3.8	246	9
2023-09-22T18:00	1455	846	7.9	3.7	246	9
2023-09-22T18:00	1477	844	7.7	3.5	245	9
2023-09-22T18:00	1498	842	7.6	3.5	245	9
2023-09-22T18:00	1521	839	7.6	3.1	245	9
2023-09-22T18:00	1540	837	7.5	2.9	244	9
2023-09-22T18:00	1562	835	7.3	2.8	243	9
2023-09-22T18:00	1583	833	7.1	2.7	242	8
2023-09-22T18:00	1605	831	6.9	2.6	242	8
2023-09-22T18:00	1628	828	6.8	2.3	242	8
2023-09-22T18:00	1653	826	6.6	2.2	242	8
2023-09-22T18:00	1676	824	6.5	2.0	243	8
2023-09-22T18:00	1701	821	6.4	1.8	243	8
2023-09-22T18:00	1726	819	6.3	0.7	243	8
2023-09-22T18:00	1748	816	6.2	0.5	243	8
2023-09-22T18:00	1771	814	6.0	0.6	242	9
2023-09-22T18:00	1796	812	5.9	0.7	242	9
2023-09-22T18:00	1827	809	5.8	0.5	241	9
2023-09-22T18:00	1853	806	5.7	0.4	240	10
2023-09-22T18:00	1874	804	5.6	0.5	240	10
2023-09-22T18:00	1894	802	5.4	0.5	240	10
2023-09-22T18:00	1915	800	5.2	0.7	240	10
2023-09-22T18:00	1942	797	5.1	0.7	241	10
2023-09-22T18:00	1964	795	5.0	0.6	243	10
2023-09-22T18:00	1988	793	5.0	0.4	244	10
2023-09-22T18:00	2013	790	4.9	0.3	244	10
2023-09-22T18:00	2035	788	4.8	0.4	244	10
2023-09-22T18:00	2055	786	4.6	0.3	243	10
2023-09-22T18:00	2079	784	4.5	0.3	242	10
2023-09-22T18:00	2104	782	4.3	0.2	241	11
2023-09-22T18:00	2125	780	4.1	0.4	240	10
2023-09-22T18:00	2149	777	3.9	0.5	239	10
2023-09-22T18:00	2172	775	3.7	0.9	239	10
2023-09-22T18:00	2197	773	3.5	0.8	239	10
2023-09-22T18:00	2225	770	3.2	0.7	240	10
2023-09-22T18:00	2257	767	2.9	0.7	241	10
2023-09-22T18:00	2287	764	2.6	0.7	242	10
2023-09-22T18:00	2310	762	2.4	0.6	242	10
2023-09-22T18:00	2334	760	2.2	0.8	242	10
2023-09-22T18:00	2357	758	2.0	0.7	240	10
2023-09-22T18:00	2381	755	1.8	0.8	238	9
2023-09-22T18:00	2406	753	1.5	0.5	236	9
2023-09-22T18:00	2431	751	1.2	0.5	233	9
2023-09-22T18:00	2453	749	1.1	0.8	230	9
2023-09-22T18:00	2471	747	0.9	0.7	228	9
2023-09-22T18:00	2494	745	0.7	0.5	226	9
2023-09-22T18:00	2517	743	0.6	0.6	226	10
2023-09-22T18:00	2540	741	0.5	0.5	226	10
2023-09-22T18:00	2562	739	0.4	0.4	226	10
2023-09-22T18:00	2583	737	0.3	0.3	226	10
2023-09-22T18:00	2607	735	0.1	0.1	225	10
2023-09-22T18:00	2628	733	0.0	0.0	223	10
2023-09-22T18:00	2651	730	-0.2	-0.2	221	10
2023-09-22T18:00	2677	728	-0.3	-0.3	219	10
2023-09-22T18:00	2700	726	-0.5	-0.5	217	10
2023-09-22T18:00	2724	724	-0.6	-0.6	215	9
2023-09-22T18:00	2747	722	-0.7	-0.7	215	9
2023-09-22T18:00	2769	720	-0.8	-0.8	214	9
2023-09-22T18:00	2786	718	-0.9	-0.9	214	9
2023-09-22T18:00	2806	716	-1.0	-1.0	214	9
2023-09-22T18:00	2828	714	-1.1	-1.1	213	10
2023-09-22T18:00	2850	712	-1.3	-1.3	212	10
2023-09-22T18:00	2874	710	-1.4	-1.4	211	10
2023-09-22T18:00	2897	708	-1.4	-1.4	211	11
2023-09-22T18:00	2921	706	-1.5	-1.5	210	11
2023-09-22T18:00	2945	704	-1.6	-1.6	210	11
2023-09-22T18:00	2969	702	-1.5	-1.5	210	12
2023-09-22T18:00	2989	700	-1.7	-1.7	208	12
2023-09-22T18:00	3015	698	-1.7	-1.7	207	13
2023-09-22T18:00	3032	696	-1.6	-1.6	205	13
2023-09-22T18:00	3051	695	-1.5	-1.5	204	13
2023-09-22T18:00	3079	692	-1.6	-1.6	203	13
2023-09-22T18:00	3103	690	-1.6	-1.7	203	13
2023-09-22T18:00	3123	688	-1.6	-1.6	203	13
2023-09-22T18:00	3149	686	-1.6	-1.6	203	13
2023-09-22T18:00	3172	684	-1.7	-1.7	202	13
2023-09-22T18:00	3192	683	-1.8	-1.8	201	13
2023-09-22T18:00	3210	681	-1.8	-1.8	201	14
2023-09-22T18:00	3230	679	-2.0	-2.0	201	14
2023-09-22T18:00	3258	677	-2.1	-2.1	201	14
2023-09-22T18:00	3282	675	-2.3	-2.3	201	13
2023-09-22T18:00	3309	673	-2.4	-2.4	202	13
2023-09-22T18:00	3332	671	-2.5	-2.5	203	13
2023-09-22T18:00	3354	669	-2.5	-2.8	204	13
2023-09-22T18:00	3374	667	-2.4	-3.1	206	13
2023-09-22T18:00	3400	665	-2.3	-3.2	208	13
2023-09-22T18:00	3422	663	-2.3	-3.5	210	13
2023-09-22T18:00	3451	661	-2.5	-3.8	211	14
2023-09-22T18:00	3473	659	-2.6	-4.1	212	14
2023-09-22T18:00	3496	657	-2.7	-4.1	213	14
2023-09-22T18:00	3520	655	-2.7	-4.5	214	14
2023-09-22T18:00	3542	653	-2.6	-4.7	214	14
2023-09-22T18:00	3573	651	-2.6	-5.0	214	13
2023-09-22T18:00	3598	649	-2.6	-5.3	214	13
2023-09-22T18:00	3624	646	-2.6	-5.4	214	13
2023-09-22T18:00	3655	644	-2.7	-5.6	213	13
2023-09-22T18:00	3675	642	-2.7	-5.7	213	13
2023-09-22T18:00	3698	640	-2.7	-5.7	213	14
2023-09-22T18:00	3723	639	-2.9	-5.8	214	14
2023-09-22T18:00	3746	636	-3.0	-5.9	215	14
2023-09-22T18:00	3781	634	-3.2	-6.4	216	14
2023-09-22T18:00	3808	632	-3.3	-6.6	217	14
2023-09-22T18:00	3828	630	-3.3	-6.6	217	15
2023-09-22T18:00	3849	628	-3.4	-6.7	217	14
2023-09-22T18:00	3872	626	-3.4	-6.9	218	14
2023-09-22T18:00	3901	624	-3.6	-7.2	219	14
2023-09-22T18:00	3928	622	-3.8	-7.4	220	14
2023-09-22T18:00	3949	620	-4.0	-7.6	220	14
2023-09-22T18:00	3971	619	-4.1	-7.6	220	14
2023-09-22T18:00	3993	617	-4.3	-7.8	220	14
2023-09-22T18:00	4017	615	-4.5	-9.2	218	14
2023-09-22T18:00	4045	613	-4.7	-9.3	217	14
2023-09-22T18:00	4069	611	-4.9	-9.4	216	14
2023-09-22T18:00	4089	610	-5.1	-9.3	216	14
2023-09-22T18:00	4110	608	-5.1	-9.6	215	14
2023-09-22T18:00	4139	606	-5.2	-9.9	215	14
2023-09-22T18:00	4165	604	-5.4	-9.9	215	14
2023-09-22T18:00	4191	602	-5.6	-10.0	215	14
2023-09-22T18:00	4210	600	-5.8	-9.9	215	14
2023-09-22T18:00	4231	599	-6.0	-10.0	215	14
2023-09-22T18:00	4252	597	-6.1	-10.2	215	14
2023-09-22T18:00	4272	595	-6.3	-10.4	215	13
2023-09-22T18:00	4292	594	-6.3	-11.6	215	13
2023-09-22T18:00	4310	593	-6.3	-10.9	215	13
2023-09-22T18:00	4329	591	-6.4	-10.3	215	13
2023-09-22T18:00	4346	590	-6.4	-10.7	214	13
2023-09-22T18:00	4369	588	-6.4	-11.6	214	13
2023-09-22T18:00	4393	586	-6.5	-12.2	214	13
2023-09-22T18:00	4420	584	-6.7	-12.4	214	13
2023-09-22T18:00	4449	582	-6.8	-13.4	216	13
2023-09-22T18:00	4474	580	-7.0	-13.6	217	13
2023-09-22T18:00	4499	578	-7.2	-14.3	218	13
2023-09-22T18:00	4520	577	-7.4	-15.0	219	13
2023-09-22T18:00	4544	575	-7.5	-15.7	220	14
2023-09-22T18:00	4574	573	-7.7	-15.9	220	14
2023-09-22T18:00	4599	571	-7.8	-16.1	219	14
2023-09-22T18:00	4625	569	-7.9	-16.2	219	14
2023-09-22T18:00	4657	567	-8.2	-16.5	219	15
2023-09-22T18:00	4682	565	-8.4	-16.9	220	15
2023-09-22T18:00	4708	563	-8.7	-16.3	220	15
2023-09-22T18:00	4733	561	-9.0	-16.5	220	15
2023-09-22T18:00	4759	559	-9.2	-17.1	221	15
2023-09-22T18:00	4790	557	-9.5	-18.1	221	15
2023-09-22T18:00	4821	555	-9.7	-18.4	221	15
2023-09-22T18:00	4844	553	-9.9	-18.4	221	15
2023-09-22T18:00	4867	552	-10.1	-18.4	221	15
2023-09-22T18:00	4891	550	-10.4	-18.9	222	15
2023-09-22T18:00	4922	548	-10.6	-19.1	222	15
2023-09-22T18:00	4945	546	-10.8	-19.2	222	16
2023-09-22T18:00	4968	545	-11.0	-18.3	223	16
2023-09-22T18:00	4990	543	-11.3	-18.3	224	16
2023-09-22T18:00	5015	541	-11.5	-18.4	224	16
2023-09-22T18:00	5038	539	-11.7	-18.2	225	16
2023-09-22T18:00	5065	538	-11.7	-18.6	225	16
2023-09-22T18:00	5094	536	-11.9	-19.1	225	17
2023-09-22T18:00	5123	534	-12.1	-19.4	224	17
2023-09-22T18:00	5150	532	-12.3	-19.0	222	17
2023-09-22T18:00	5174	530	-12.6	-19.1	219	17
2023-09-22T18:00	5205	528	-12.8	-18.6	216	17
2023-09-22T18:00	5233	526	-12.9	-17.5	214	17
2023-09-22T18:00	5261	524	-13.1	-17.5	212	16
2023-09-22T18:00	5289	522	-13.3	-17.6	210	16
2023-09-22T18:00	5318	520	-13.4	-17.7	209	15
2023-09-22T18:00	5339	519	-13.4	-17.5	209	15
2023-09-22T18:00	5364	517	-13.6	-17.5	208	14
2023-09-22T18:00	5394	515	-13.9	-17.7	208	14
2023-09-22T18:00	5415	513	-14.1	-17.6	207	14
2023-09-22T18:00	5436	512	-14.3	-17.4	205	13
2023-09-22T18:00	5457	511	-14.5	-17.5	203	13
2023-09-22T18:00	5482	509	-14.8	-17.3	202	13
2023-09-22T18:00	5502	507	-15.0	-17.4	201	14
2023-09-22T18:00	5532	506	-15.2	-17.4	202	14
2023-09-22T18:00	5555	504	-15.5	-17.4	202	14
2023-09-22T18:00	5578	503	-15.7	-17.6	203	14
2023-09-22T18:00	5603	501	-16.0	-17.7	203	13
2023-09-22T18:00	5625	499	-16.2		201	13
2023-09-22T18:00	5654	497	-16.4	-17.7	199	13
2023-09-22T18:00	5683	496	-16.7	-17.7	198	14
2023-09-22T18:00	5712	494	-17.0	-17.8	196	14
2023-09-22T18:00	5740	492	-17.1	-17.1	196	15
2023-09-22T18:00	5765	490	-17.1	-17.4	197	15
2023-09-22T18:00	5795	488	-17.4	-17.6	198	16
2023-09-22T18:00	5819	487	-17.6	-17.8	199	16
2023-09-22T18:00	5852	485	-17.8	-18.0	200	17
2023-09-22T18:00	5875	483	-18.0	-18.0	201	17
2023-09-22T18:00	5903	481	-18.2	-18.4	201	18
2023-09-22T18:00	5927	480	-18.4	-18.4	201	17
2023-09-22T18:00	5955	478	-18.6	-18.6	201	17
2023-09-22T18:00	5982	476	-18.7	-18.7	201	17
2023-09-22T18:00	6002	475	-18.9	-18.9	201	16
2023-09-22T18:00	6030	473	-19.1	-19.1	201	16
2023-09-22T18:00	6054	472	-19.3	-19.3	202	16
2023-09-22T18:00	6080	470	-19.6	-19.6	202	16
2023-09-22T18:00	6105	468	-19.8	-19.8	204	17
2023-09-22T18:00	6133	467	-20.0	-20.0	205	17
2023-09-22T18:00	6162	465	-20.2	-20.3	206	18
2023-09-22T18:00	6185	463	-20.4	-20.5	206	18
2023-09-22T18:00	6208	462	-20.5	-20.6	206	19
2023-09-22T18:00	6233	460	-20.8	-20.8	206	19
2023-09-22T18:00	6257	459	-21.0	-21.1	207	20
2023-09-22T18:00	6284	457	-21.2	-21.2	208	21
2023-09-22T18:00	6320	455	-21.4	-21.5	210	22
2023-09-22T18:00	6346	453	-21.4	-21.7	212	23
2023-09-22T18:00	6370	452	-21.7	-21.9	213	24
2023-09-22T18:00	6407	450	-21.3	-22.9	214	24
2023-09-22T18:00	6435	448	-21.3	-23.5	214	25
2023-09-22T18:00	6460	446	-21.5	-23.4	215	25
2023-09-22T18:00	6481	445	-21.6	-23.5	214	25
2023-09-22T18:00	6509	444	-21.8	-23.5	214	26
2023-09-22T18:00	6535	442	-22.0	-23.5	213	26
2023-09-22T18:00	6555	441	-22.2	-23.6	213	26
2023-09-22T18:00	6576	439	-22.3	-23.9	212	26
2023-09-22T18:00	6600	438	-22.4	-24.3	212	26
2023-09-22T18:00	6628	436	-22.4	-24.0	211	25
2023-09-22T18:00	6657	435	-22.6	-25.5	211	25
2023-09-22T18:00	6680	433	-22.9	-26.6	210	24
2023-09-22T18:00	6700	432	-23.2	-27.6	210	24
2023-09-22T18:00	6722	431	-23.3	-28.5	209	24
2023-09-22T18:00	6744	429	-23.4	-28.2	208	24
2023-09-22T18:00	6775	428	-23.4	-26.4	207	24
2023-09-22T18:00	6798	426	-23.4	-26.5	206	25
2023-09-22T18:00	6819	425	-23.6	-27.3	206	25
2023-09-22T18:00	6842	424	-23.7	-27.5	206	25
2023-09-22T18:00	6864	422	-23.8	-27.8	205	26
2023-09-22T18:00	6886	421	-24.0	-28.1	205	26
2023-09-22T18:00	6907	420	-24.2	-28.3	205	26
2023-09-22T18:00	6930	419	-24.3	-28.6	204	26
2023-09-22T18:00	6951	417	-24.4	-28.9	204	26
2023-09-22T18:00	6974	416	-24.6	-29.1	203	26
2023-09-22T18:00	6995	415	-24.7	-29.3	203	26
2023-09-22T18:00	7022	413	-24.9	-29.5	202	26
2023-09-22T18:00	7046	412	-25.0	-30.3	202	26
2023-09-22T18:00	7071	411	-25.2	-30.5	201	26
2023-09-22T18:00	7098	409	-25.5	-30.6	201	27
2023-09-22T18:00	7123	408	-25.7	-30.8	202	27
2023-09-22T18:00	7148	406	-25.9	-30.7	203	27
2023-09-22T18:00	7171	405	-26.0	-30.9	204	27
2023-09-22T18:00	7199	404	-26.2	-31.3	205	27
2023-09-22T18:00	7223	402	-26.3	-32.0	206	28
2023-09-22T18:00	7250	401	-26.5	-32.6	207	28
2023-09-22T18:00	7276	399	-26.6	-33.0	207	28
2023-09-22T18:00	7298	398	-26.8	-33.2	207	28
2023-09-22T18:00	7320	397	-27.0	-33.6	207	28
2023-09-22T18:00	7341	396	-27.2	-33.8	207	28
2023-09-22T18:00	7362	394	-27.4	-34.1	207	28
2023-09-22T18:00	7382	393	-27.5	-34.3	208	27
2023-09-22T18:00	7402	392	-27.7	-34.5	208	27
2023-09-22T18:00	7422	391	-27.9	-34.7	208	27
2023-09-22T18:00	7445	390	-28.1	-35.7	207	27
2023-09-22T18:00	7470	389	-28.3	-35.6	207	27
2023-09-22T18:00	7493	387	-28.6	-35.6	207	27
2023-09-22T18:00	7516	386	-28.8	-35.7	207	27
2023-09-22T18:00	7539	385	-29.0	-35.8	207	27
2023-09-22T18:00	7562	384	-29.2	-35.8	208	27
2023-09-22T18:00	7584	382	-29.4	-35.8	208	27
2023-09-22T18:00	7602	381	-29.6	-36.0	209	27
2023-09-22T18:00	7621	380	-29.7	-36.8	209	27
2023-09-22T18:00	7652	379	-30.0	-36.9	209	27
2023-09-22T18:00	7675	378	-30.2	-37.5	208	27
2023-09-22T18:00	7700	376	-30.4	-37.4	208	27
2023-09-22T18:00	7730	375	-30.6	-37.6	207	27
2023-09-22T18:00	7758	373	-30.9	-37.6	206	28
2023-09-22T18:00	7784	372	-31.1	-37.6	206	28
2023-09-22T18:00	7809	370	-31.3	-37.5	205	29
2023-09-22T18:00	7835	369	-31.4	-37.2	204	29
2023-09-22T18:00	7861	368	-31.7	-37.4	203	29
2023-09-22T18:00	7891	366	-31.9	-37.1	203	29
2023-09-22T18:00	7919	365	-32.2	-37.6	202	29
2023-09-22T18:00	7946	363	-32.4	-37.5	202	29
2023-09-22T18:00	7969	362	-32.7	-37.3	202	29
2023-09-22T18:00	7999	361	-33.0	-37.3	202	29
2023-09-22T18:00	8019	360	-33.2	-37.5	202	29
2023-09-22T18:00	8042	358	-33.3	-36.6	202	29
2023-09-22T18:00	8064	357	-33.5	-36.5	202	29
2023-09-22T18:00	8089	356	-33.6	-36.5	202	30
2023-09-22T18:00	8112	355	-33.6	-36.6	203	30
2023-09-22T18:00	8140	353	-33.7	-36.8	204	31
2023-09-22T18:00	8170	352	-33.9	-37.5	205	31
2023-09-22T18:00	8197	351	-34.1	-37.4	205	31
2023-09-22T18:00	8223	349	-34.4	-37.4	205	31
2023-09-22T18:00	8245	348	-34.6	-37.7	206	31
2023-09-22T18:00	8267	347	-34.7	-37.8	205	31
2023-09-22T18:00	8287	346	-34.9	-37.8	205	31
2023-09-22T18:00	8307	345	-35.1		205	31
2023-09-22T18:00	8329	344	-35.3	-38.1	205	32
2023-09-22T18:00	8352	343	-35.5	-38.3	205	32
2023-09-22T18:00	8372	342	-35.7	-38.4	205	32
2023-09-22T18:00	8394	341	-35.9	-38.4	205	32
2023-09-22T18:00	8415	340	-36.1	-38.6	206	33
2023-09-22T18:00	8438	339	-36.3	-38.8	206	33
2023-09-22T18:00	8461	338	-36.5	-39.0	206	33
2023-09-22T18:00	8483	336	-36.7	-39.0	205	33
2023-09-22T18:00	8510	335	-36.9	-39.3	205	34
2023-09-22T18:00	8535	334	-37.2	-39.7	205	34
2023-09-22T18:00	8562	333	-37.4	-39.8	204	35
2023-09-22T18:00	8585	332	-37.5	-39.8	204	35
2023-09-22T18:00	8604	331	-37.7	-40.1	203	35
2023-09-22T18:00	8625	330	-37.8	-40.3	203	36
2023-09-22T18:00	8645	329	-37.9	-40.1	203	36
2023-09-22T18:00	8665	328	-38.0	-40.3	202	36
2023-09-22T18:00	8695	326	-38.2	-40.4	201	37
2023-09-22T18:00	8715	325	-38.3	-40.4	200	38
2023-09-22T18:00	8743	324	-38.3	-40.0	200	38
2023-09-22T18:00	8770	323	-38.4	-39.9	199	39
2023-09-22T18:00	8795	322	-38.4	-40.0	199	39
2023-09-22T18:00	8816	321	-38.4	-40.2	199	39
2023-09-22T18:00	8842	319	-38.3	-40.9	198	40
2023-09-22T18:00	8862	318	-38.5	-41.1	198	40
2023-09-22T18:00	8887	317	-38.7	-41.1	198	41
2023-09-22T18:00	8908	316	-38.9	-41.1	198	41
2023-09-22T18:00	8933	315	-39.0	-42.1	198	42
2023-09-22T18:00	8956	314	-39.1	-42.7	198	42
2023-09-22T18:00	8980	313	-39.3	-42.8	199	42
2023-09-22T18:00	9002	312	-39.3	-44.1	199	42
2023-09-22T18:00	9033	311	-39.5	-44.4	199	42
2023-09-22T18:00	9058	309	-39.7	-44.8	199	43
2023-09-22T18:00	9089	308	-40.0	-45.0	200	43
2023-09-22T18:00	9113	307	-40.2	-45.4	200	43
2023-09-22T18:00	9136	306	-40.4	-46.0	201	43
2023-09-22T18:00	9162	305	-40.6	-45.4	201	43
2023-09-22T18:00	9189	304	-40.9	-45.8	201	43
2023-09-22T18:00	9218	302	-41.2	-45.7	201	43
2023-09-22T18:00	9246	301	-41.4	-46.1	202	43
2023-09-22T18:00	9269	300	-41.7	-46.3	202	43
2023-09-22T18:00	9297	299	-41.9	-45.8	203	43
2023-09-22T18:00	9323	298	-42.2	-46.6	203	43
2023-09-22T18:00	9350	297	-42.4	-47.7	204	43
2023-09-22T18:00	9375	295	-42.6	-47.6	205	42
2023-09-22T18:00	9398	294	-42.9	-47.3	205	42
2023-09-22T18:00	9423	293	-43.1	-47.1	205	42
2023-09-22T18:00	9453	292	-43.4	-47.7	205	42
2023-09-22T18:00	9493	290	-43.8	-47.9	204	42
2023-09-22T18:00	9520	289	-44.1	-47.8	204	42
2023-09-22T18:00	9554	288	-44.4	-48.1	204	41
2023-09-22T18:00	9586	286	-44.7	-48.1	204	41
2023-09-22T18:00	9618	285	-45.0	-48.3	204	41
2023-09-22T18:00	9648	284	-45.3	-49.0	205	41
2023-09-22T18:00	9674	282	-45.5	-49.3	205	41
2023-09-22T18:00	9701	281	-45.8	-49.3	205	41
2023-09-22T18:00	9730	280	-46.1	-49.1	205	41
2023-09-22T18:00	9754	279	-46.3	-49.1	206	41
2023-09-22T18:00	9780	278	-46.5	-49.3	206	41
2023-09-22T18:00	9805	277	-46.8	-49.5	206	41
2023-09-22T18:00	9839	276	-47.0	-50.3	207	42
2023-09-22T18:00	9869	274	-47.3	-50.7	207	42
2023-09-22T18:00	9900	273	-47.5	-50.8	208	42
2023-09-22T18:00	9926	272	-47.8	-50.9	208	42
2023-09-22T18:00	9962	271	-48.1	-50.8	209	43
2023-09-22T18:00	9995	269	-48.4	-51.1	210	43
2023-09-22T18:00	10027	268	-48.6	-51.9	210	44
2023-09-22T18:00	10053	267	-48.8	-52.5	211	45
2023-09-22T18:00	10085	266	-49.1	-53.2	212	46
2023-09-22T18:00	10107	265	-49.0	-54.2	213	46
2023-09-22T18:00	10136	263	-49.3	-55.0	214	47
2023-09-22T18:00	10162	262	-49.6	-55.4	215	47
2023-09-22T18:00	10181	262	-49.7	-55.3	215	48
2023-09-22T18:00	10207	261	-49.9	-55.8	216	48
2023-09-22T18:00	10235	260	-50.0	-57.0	216	48
2023-09-22T18:00	10254	259	-50.1	-58.4	217	48
2023-09-22T18:00	10275	258	-50.2	-60.0	217	49
2023-09-22T18:00	10294	257	-50.2	-60.5	218	49
2023-09-22T18:00	10316	256	-50.3	-60.3	218	50
2023-09-22T18:00	10338	255	-50.4	-60.1	218	51
2023-09-22T18:00	10359	255	-50.5	-60.1	218	51
2023-09-22T18:00	10385	254	-50.6	-60.3	219	52
2023-09-22T18:00	10406	253	-50.7	-60.7	219	53
2023-09-22T18:00	10429	252	-50.7	-61.0	219	54
2023-09-22T18:00	10450	251	-50.7	-61.3	219	54
2023-09-22T18:00	10474	250	-50.9	-61.7	220	55
2023-09-22T18:00	10495	249	-51.0	-62.1	220	55
2023-09-22T18:00	10517	248	-51.0	-62.5	220	55
2023-09-22T18:00	10542	248	-51.0	-62.9	220	56
2023-09-22T18:00	10565	247	-51.0	-62.9	220	56
2023-09-22T18:00	10589	246	-51.2	-62.8	220	56
2023-09-22T18:00	10610	245	-51.4	-62.7	220	56
2023-09-22T18:00	10633	244	-51.5	-62.5	220	56
2023-09-22T18:00	10656	243	-51.6	-62.7	220	56
2023-09-22T18:00	10678	242	-51.7	-63.0	219	56
2023-09-22T18:00	10701	242	-51.9	-63.2	219	56
2023-09-22T18:00	10723	241	-52.0	-63.2	219	56
2023-09-22T18:00	10747	240	-52.1	-63.2	219	56
2023-09-22T18:00	10767	239	-52.3	-63.2	219	56
2023-09-22T18:00	10790	238	-52.4	-63.0	219	56
2023-09-22T18:00	10812	237	-52.6	-62.9	219	56
2023-09-22T18:00	10834	237	-52.6		219	55
2023-09-22T18:00	10856	236	-52.7	-63.2	218	54
2023-09-22T18:00	10881	235	-52.9	-64.0	218	54
2023-09-22T18:00	10910	234	-52.7	-64.6	218	53
2023-09-22T18:00	10934	233	-52.6	-65.2	217	52
2023-09-22T18:00	10972	232	-52.8	-65.6	217	52
2023-09-22T18:00	11006	230	-53.0	-65.9	217	51
2023-09-22T18:00	11036	229	-53.0	-66.2	218	51
2023-09-22T18:00	11065	228	-52.9	-66.5	218	50
2023-09-22T18:00	11095	227	-53.0	-66.9	218	48
2023-09-22T18:00	11135	226	-53.1	-67.2	219	47
2023-09-22T18:00	11161	225	-53.3	-67.6	218	45
2023-09-22T18:00	11190	224	-53.4	-67.9	218	44
2023-09-22T18:00	11218	223	-53.4	-68.0	217	42
2023-09-22T18:00	11243	222	-53.5	-68.0	217	42
2023-09-22T18:00	11274	221	-53.8	-68.1	215	41
2023-09-22T18:00	11298	220	-54.0	-68.5	214	41
2023-09-22T18:00	11318	219	-53.8	-68.4	214	40
2023-09-22T18:00	11341	219	-53.7	-68.4	213	40
2023-09-22T18:00	11361	218	-53.7	-68.4	213	40
2023-09-22T18:00	11383	217	-53.8	-68.4	213	40
2023-09-22T18:00	11402	217	-53.9	-68.4	212	41
2023-09-22T18:00	11425	216	-54.1	-68.8	212	41
2023-09-22T18:00	11449	215	-54.1	-69.0	211	41
2023-09-22T18:00	11473	214	-54.0	-69.0	210	41
2023-09-22T18:00	11500	213	-54.1	-69.0	209	42
2023-09-22T18:00	11522	213	-54.3	-69.0	208	42
2023-09-22T18:00	11545	212	-54.4	-68.8	208	42
2023-09-22T18:00	11569	211	-54.6	-68.8	207	42
2023-09-22T18:00	11595	210	-54.7	-68.7	207	43
2023-09-22T18:00	11618	209	-54.9	-68.7	207	43
2023-09-22T18:00	11640	209	-55.1	-68.7	206	44
2023-09-22T18:00	11662	208	-55.2	-68.6	206	44
2023-09-22T18:00	11689	207	-55.3	-68.6	206	44
2023-09-22T18:00	11717	206	-55.6	-68.8	206	45
2023-09-22T18:00	11740	206	-55.8	-68.7	206	45
2023-09-22T18:00	11764	205	-56.0	-68.7	206	45
2023-09-22T18:00	11788	204	-56.2	-68.7	206	46
2023-09-22T18:00	11812	203	-56.4	-68.7	206	46
2023-09-22T18:00	11832	203	-56.6	-68.9	206	46
2023-09-22T18:00	11856	202	-56.8	-69.0	206	46
2023-09-22T18:00	11876	201	-56.9	-69.1	206	45
2023-09-22T18:00	11899	200	-56.7	-69.2	207	45
2023-09-22T18:00	11918	200	-56.6	-69.4	207	44
2023-09-22T18:00	11937	199	-56.8	-69.7	208	44
2023-09-22T18:00	11957	199	-56.8	-69.8	208	44
2023-09-22T18:00	11977	198	-56.9	-69.9	208	44
2023-09-22T18:00	11997	197	-57.0	-70.1	208	44
2023-09-22T18:00	12018	197	-57.0	-70.2	209	44
2023-09-22T18:00	12035	196	-57.1	-70.4	209	44
2023-09-22T18:00	12056	195	-57.1	-70.4	209	44
2023-09-22T18:00	12087	195	-57.1	-70.6	210	43
2023-09-22T18:00	12112	194	-57.2	-71.0	210	43
2023-09-22T18:00	12136	193	-56.9	-71.0	210	42
2023-09-22T18:00	12158	192	-57.0	-71.3	210	42
2023-09-22T18:00	12177	192	-57.1	-71.4	210	42
2023-09-22T18:00	12196	191	-57.2	-71.5	210	41
2023-09-22T18:00	12218	191	-57.4	-72.0	210	41
2023-09-22T18:00	12239	190	-57.1	-72.8	210	40
2023-09-22T18:00	12262	189	-56.9	-74.3	210	39
2023-09-22T18:00	12285	189	-56.4	-75.9	211	37
2023-09-22T18:00	12306	188	-55.3	-76.5	211	36
2023-09-22T18:00	12326	187	-54.2	-76.0	210	35
2023-09-22T18:00	12349	187	-53.8	-76.0	210	34
2023-09-22T18:00	12371	186	-53.7	-76.3	209	33
2023-09-22T18:00	12392	185	-53.4	-76.4	207	33
2023-09-22T18:00	12413	185	-53.2	-76.4	206	32
2023-09-22T18:00	12434	184	-53.1	-76.3	204	32
2023-09-22T18:00	12455	184	-52.9	-75.9	203	31
2023-09-22T18:00	12475	183	-52.7	-75.5	202	31
2023-09-22T18:00	12495	182	-52.8	-75.5	201	31
2023-09-22T18:00	12517	182	-52.9	-75.4	201	31
2023-09-22T18:00	12535	181	-52.9	-75.2	201	31
2023-09-22T18:00	12558	181	-52.6	-74.8	201	31
2023-09-22T18:00	12579	180	-52.3	-74.6	201	31
2023-09-22T18:00	12602	180	-52.2	-74.7	201	30
2023-09-22T18:00	12624	179	-52.2	-75.0	201	30
2023-09-22T18:00	12645	178	-52.3	-75.4	200	30
2023-09-22T18:00	12666	178	-52.5	-75.9	199	29
2023-09-22T18:00	12690	177	-52.0	-76.0	198	29
2023-09-22T18:00	12710	177	-51.4	-75.9	197	28
2023-09-22T18:00	12731	176	-51.4	-75.9	196	28
2023-09-22T18:00	12751	175	-51.2	-75.6	195	28
2023-09-22T18:00	12773	175	-50.7	-75.0	194	28
2023-09-22T18:00	12794	174	-50.2	-74.4	193	28
2023-09-22T18:00	12817	174	-50.1	-74.3	192	28
2023-09-22T18:00	12840	173	-50.2	-74.8	190	28
2023-09-22T18:00	12860	172	-50.3	-74.8	190	28
2023-09-22T18:00	12883	172	-50.4	-74.7	189	28
2023-09-22T18:00	12905	171	-50.5	-74.3	188	28
2023-09-22T18:00	12926	171	-50.6	-74.3	188	28
2023-09-22T18:00	12949	170	-50.7	-74.6	187	29
2023-09-22T18:00	12973	170	-50.8	-75.0	187	29
2023-09-22T18:00	12995	169	-51.0	-75.6	186	29
2023-09-22T18:00	13022	168	-51.2	-76.0	185	29
2023-09-22T18:00	13043	168	-51.3	-75.8	185	29
2023-09-22T18:00	13062	167	-51.4	-75.5	185	30
2023-09-22T18:00	13084	167	-51.6	-75.5	185	30
2023-09-22T18:00	13105	166	-51.7	-75.4	186	30
2023-09-22T18:00	13127	166	-51.9	-75.6	186	30
2023-09-22T18:00	13147	165	-52.0	-75.8	187	30
2023-09-22T18:00	13167	165	-52.2	-76.0	188	30
2023-09-22T18:00	13187	164	-52.4		188	31
2023-09-22T18:00	13208	164	-52.5	-76.4	189	31
2023-09-22T18:00	13228	163	-52.5	-76.6	190	32
2023-09-22T18:00	13251	162	-52.5	-76.8	191	32
2023-09-22T18:00	13271	162	-52.5	-76.8	192	33
2023-09-22T18:00	13290	161	-52.3	-76.4	193	33
2023-09-22T18:00	13309	161	-52.3	-76.2	193	33
2023-09-22T18:00	13330	160	-52.3		194	33
2023-09-22T18:00	13350	160	-52.4	-76.0	194	33
2023-09-22T18:00	13368	160	-52.4	-75.8	195	33
2023-09-22T18:00	13386	159	-52.6	-75.9	195	33
2023-09-22T18:00	13406	159	-52.8	-76.3	195	34
2023-09-22T18:00	13423	158	-52.9	-76.4	196	34
2023-09-22T18:00	13443	158	-53.1	-76.5	196	34
2023-09-22T18:00	13461	157	-53.2	-76.8	197	34
2023-09-22T18:00	13481	157	-53.3	-77.0	197	34
2023-09-22T18:00	13503	156	-53.3	-77.0	198	34
2023-09-22T18:00	13526	156	-53.4	-77.3	198	33
2023-09-22T18:00	13550	155	-53.3	-77.0	199	33
2023-09-22T18:00	13570	155	-53.2	-76.8	200	32
2023-09-22T18:00	13591	154	-53.3	-76.7	200	31
2023-09-22T18:00	13614	154	-53.3	-76.9	201	30
2023-09-22T18:00	13634	153	-53.3	-77.0	201	30
2023-09-22T18:00	13653	153	-53.1	-77.3	202	29
2023-09-22T18:00	13673	152	-53.0	-77.4	202	28
2023-09-22T18:00	13693	152	-53.0	-77.2	203	28
2023-09-22T18:00	13716	151	-52.8	-76.8	203	27
2023-09-22T18:00	13738	151	-52.9	-76.9	203	27
2023-09-22T18:00	13756	150	-53.1	-77.1	203	27
2023-09-22T18:00	13777	150	-53.2	-77.3	204	27
2023-09-22T18:00	13797	149	-53.3	-77.4	205	26
2023-09-22T18:00	13816	149	-53.3	-77.2	205	26
2023-09-22T18:00	13836	148	-53.2	-77.0	206	26
2023-09-22T18:00	13857	148	-53.3	-77.0	206	26
2023-09-22T18:00	13878	147	-53.1	-77.1	205	26
2023-09-22T18:00	13899	147	-53.1	-76.9	205	26
2023-09-22T18:00	13917	146	-53.1	-76.5	205	26
2023-09-22T18:00	13938	146	-53.3	-76.5	204	25
2023-09-22T18:00	13962	146	-53.4	-76.6	204	25
2023-09-22T18:00	13982	145	-53.6	-76.9	204	26
2023-09-22T18:00	14002	145	-53.7	-77.2	205	26
2023-09-22T18:00	14021	144	-53.7	-77.2	205	26
2023-09-22T18:00	14041	144	-53.8	-77.3	205	26
2023-09-22T18:00	14061	143	-53.8	-77.1	206	26
2023-09-22T18:00	14085	143	-53.9	-77.3	207	26
2023-09-22T18:00	14102	142	-54.0	-77.4	208	26
2023-09-22T18:00	14121	142	-54.1	-77.7	208	26
2023-09-22T18:00	14141	141	-54.0	-77.8	209	26
2023-09-22T18:00	14162	141	-53.7	-77.7	210	25
2023-09-22T18:00	14180	141	-53.9	-77.9	210	25
2023-09-22T18:00	14200	140	-53.8	-77.6	210	24
2023-09-22T18:00	14220	140	-53.7	-77.4	210	24
2023-09-22T18:00	14241	139	-53.5	-77.0	210	24
2023-09-22T18:00	14259	139	-53.6	-77.1	210	23
2023-09-22T18:00	14282	138	-53.8	-77.4	210	23
2023-09-22T18:00	14300	138	-53.9	-77.5	210	22
2023-09-22T18:00	14319	138	-54.0	-77.6	210	22
2023-09-22T18:00	14337	137	-54.2	-77.8	210	21
2023-09-22T18:00	14358	137	-54.3	-77.8	209	21
2023-09-22T18:00	14377	136	-54.5	-78.0	208	21
2023-09-22T18:00	14395	136	-54.4	-77.9	207	21
2023-09-22T18:00	14414	136	-54.4	-77.9	206	21
2023-09-22T18:00	14433	135	-54.3	-77.8	205	21
2023-09-22T18:00	14453	135	-54.1	-77.7	204	22
2023-09-22T18:00	14474	134	-54.1	-77.9	203	22
2023-09-22T18:00	14493	134	-54.2	-78.1	202	23
2023-09-22T18:00	14514	133	-54.3	-78.4	201	23
2023-09-22T18:00	14535	133	-54.4	-78.5	200	24
2023-09-22T18:00	14552	133	-54.4	-78.5	200	25
2023-09-22T18:00	14573	132	-54.4	-78.5	200	25
2023-09-22T18:00	14595	132	-54.4	-78.7	201	26
2023-09-22T18:00	14614	131	-54.5	-78.8	202	26
2023-09-22T18:00	14630	131	-54.6	-78.9	203	27
2023-09-22T18:00	14652	131	-54.5	-78.8	204	27
2023-09-22T18:00	14670	130	-54.3	-78.8	205	26
2023-09-22T18:00	14691	130	-54.2	-79.0	206	26
2023-09-22T18:00	14710	129	-54.1	-78.9	206	26
2023-09-22T18:00	14732	129	-53.8	-78.6	206	25
2023-09-22T18:00	14752	129	-53.8	-78.6	206	24
2023-09-22T18:00	14773	128	-53.6	-78.7	206	24
2023-09-22T18:00	14795	128	-53.3	-78.5	207	23
2023-09-22T18:00	14812	127	-53.5	-78.9	207	22
2023-09-22T18:00	14834	127	-53.4	-79.0	207	22
2023-09-22T18:00	14856	127	-53.2	-78.9	207	21
2023-09-22T18:00	14880	126	-52.7	-78.7	206	20
2023-09-22T18:00	14903	126	-52.6	-78.7	205	19
2023-09-22T18:00	14926	125	-52.2	-78.6	204	18
2023-09-22T18:00	14948	125	-52.3	-78.7	203	17
2023-09-22T18:00	14970	124	-52.1	-78.5	202	16
2023-09-22T18:00	14989	124	-52.0	-78.5	202	16
2023-09-22T18:00	15010	124	-52.1	-78.3	201	16
2023-09-22T18:00	15032	123	-52.1	-78.3	201	16
2023-09-22T18:00	15056	123	-52.2	-78.3	200	17
2023-09-22T18:00	15078	122	-52.3	-78.4	199	17
2023-09-22T18:00	15099	122	-52.3	-78.4	199	17
2023-09-22T18:00	15123	121	-52.5	-78.6	199	18
2023-09-22T18:00	15144	121	-52.6	-78.7	199	18
2023-09-22T18:00	15166	121	-52.7		200	18
2023-09-22T18:00	15189	120	-52.8	-78.6	200	19
2023-09-22T18:00	15210	120	-53.0	-78.7	200	19
2023-09-22T18:00	15233	119	-53.2	-78.6	201	19
2023-09-22T18:00	15254	119	-53.4	-78.8	201	20
2023-09-22T18:00	15273	119	-53.5	-78.9	202	20
2023-09-22T18:00	15293	118	-53.7	-79.0	202	20
2023-09-22T18:00	15315	118	-53.9	-79.2	203	21
2023-09-22T18:00	15333	118	-54.0	-79.3	203	20
2023-09-22T18:00	15357	117	-54.1	-79.3	202	20
2023-09-22T18:00	15380	117	-54.1	-79.6	202	20
2023-09-22T18:00	15400	116	-54.0	-79.7	201	19
2023-09-22T18:00	15418	116	-53.8	-79.6	200	18
2023-09-22T18:00	15439	116	-53.9	-79.7	199	18
2023-09-22T18:00	15461	115	-53.9	-79.7	198	17
2023-09-22T18:00	15481	115	-53.9	-79.7	198	17
2023-09-22T18:00	15500	115	-53.8	-79.6	197	17
2023-09-22T18:00	15520	114	-53.8	-79.6	197	17
2023-09-22T18:00	15541	114	-53.6	-79.7	198	18
2023-09-22T18:00	15561	113	-53.7	-79.8	199	18
2023-09-22T18:00	15579	113	-53.8	-79.6	200	18
2023-09-22T18:00	15601	113	-53.7	-79.5	201	18
2023-09-22T18:00	15620	112	-53.8	-79.6	203	18
2023-09-22T18:00	15642	112	-53.8	-79.8	204	18
2023-09-22T18:00	15661	112	-53.9	-79.9	205	18
2023-09-22T18:00	15683	111	-54.0	-80.0	207	19
2023-09-22T18:00	15702	111	-54.2	-80.2	208	19
2023-09-22T18:00	15718	111	-54.3	-80.2	209	20
2023-09-22T18:00	15743	110	-54.4	-80.3	211	20
2023-09-22T18:00	15764	110	-54.5	-80.7	212	20
2023-09-22T18:00	15783	110	-54.6	-80.7	213	20
2023-09-22T18:00	15806	109	-54.6	-81.0	214	20
2023-09-22T18:00	15828	109	-53.9	-80.5	214	19
2023-09-22T18:00	15849	108	-53.4	-80.1	214	18
2023-09-22T18:00	15871	108	-53.5	-80.2	213	18
2023-09-22T18:00	15894	108	-53.6	-80.2	212	17
2023-09-22T18:00	15916	107	-53.7	-80.3	211	17
2023-09-22T18:00	15939	107	-53.8	-80.1	210	16
2023-09-22T18:00	15959	107	-53.9	-80.2	209	16
2023-09-22T18:00	15978	106	-53.9	-80.2	210	16
2023-09-22T18:00	16002	106	-53.6	-80.0	211	16
2023-09-22T18:00	16025	106	-53.4	-79.8	212	16
2023-09-22T18:00	16047	105	-53.5	-79.9	214	16
2023-09-22T18:00	16068	105	-53.7	-80.0	215	16
2023-09-22T18:00	16094	104	-53.9	-80.2	216	17
2023-09-22T18:00	16113	104	-54.0	-80.3	217	17
2023-09-22T18:00	16137	104	-54.0	-80.3	218	17
2023-09-22T18:00	16161	103	-53.9	-80.2	219	17
2023-09-22T18:00	16181	103	-54.0	-80.3	220	17
2023-09-22T18:00	16202	103	-54.1	-80.1	221	18
2023-09-22T18:00	16229	102	-54.3	-80.2	221	18
2023-09-22T18:00	16252	102	-54.4	-80.6	222	18
2023-09-22T18:00	16276	101	-54.5	-80.7	223	18
2023-09-22T18:00	16297	101	-54.6	-80.7	223	18
2023-09-22T18:00	16320	101	-54.6	-80.7	223	18
2023-09-22T18:00	16345	100	-54.6	-81.0	222	18
2023-09-22T18:00	16370	100	-54.5	-80.9	221	18
2023-09-22T18:00	16393	100	-54.4	-80.9	220	18
2023-09-22T18:00	16414	99	-54.5	-80.9	218	18
2023-09-22T18:00	16435	99	-54.7	-81.4	217	18
2023-09-22T18:00	16456	99	-54.8	-81.5	216	19
2023-09-22T18:00	16481	98	-54.9	-81.5	216	19
2023-09-22T18:00	16498	98	-54.6	-81.6	216	19
2023-09-22T18:00	16524	98	-54.1	-81.6	217	20
2023-09-22T18:00	16542	97	-53.9	-81.7	217	20
2023-09-22T18:00	16560	97	-53.4	-81.4	218	20
2023-09-22T18:00	16584	97	-53.2	-81.6	218	20
2023-09-22T18:00	16604	96	-53.1	-81.5	219	19
2023-09-22T18:00	16627	96	-53.1	-81.5	220	19
2023-09-22T18:00	16646	96	-53.1	-81.5	221	19
2023-09-22T18:00	16667	95	-52.9	-81.4	222	19
2023-09-22T18:00	16689	95	-52.7	-81.2	223	18
2023-09-22T18:00	16708	95	-52.7	-80.8	223	18
2023-09-22T18:00	16730	95	-52.6	-80.8	224	18
2023-09-22T18:00	16749	94	-52.6	-80.8	224	18
2023-09-22T18:00	16773	94	-52.8	-81.3	224	17
2023-09-22T18:00	16792	94	-52.9	-81.4	224	16
2023-09-22T18:00	16810	93	-52.6	-81.1	224	15
2023-09-22T18:00	16840	93	-52.2	-80.8	224	14
2023-09-22T18:00	16863	93	-52.4	-81.0	223	13
2023-09-22T18:00	16889	92	-51.9	-80.6	222	12
2023-09-22T18:00	16910	92	-51.9	-80.2	220	11
2023-09-22T18:00	16934	92	-52.1	-80.4	217	11
2023-09-22T18:00	16958	91	-52.1	-80.0	213	10
2023-09-22T18:00	16979	91	-52.1	-80.0	210	10
2023-09-22T18:00	17001	91	-52.2	-80.5	206	10
2023-09-22T18:00	17028	90	-52.4	-80.6	202	10
2023-09-22T18:00	17054	90	-52.6	-81.1	199	9
2023-09-22T18:00	17075	90	-52.8	-81.3	195	9
2023-09-22T18:00	17100	89	-53.0	-81.4	192	9
2023-09-22T18:00	17126	89	-53.2	-81.6	188	9
2023-09-22T18:00	17150	89	-53.3	-81.7	185	10
2023-09-22T18:00	17169	88	-53.4	-81.7	183	10
2023-09-22T18:00	17193	88	-53.6	-81.9	181	10
2023-09-22T18:00	17213	88	-53.6	-81.9	179	11
2023-09-22T18:00	17234	87	-53.7	-82.0	179	11
2023-09-22T18:00	17255	87	-53.8	-82.0	178	12
2023-09-22T18:00	17279	87	-53.9	-82.1	179	12
2023-09-22T18:00	17300	87	-54.0	-82.2	179	12
2023-09-22T18:00	17326	86	-54.0	-82.2	180	13
2023-09-22T18:00	17349	86	-54.1	-82.3	182	13
2023-09-22T18:00	17373	86	-54.2	-82.3	184	13
2023-09-22T18:00	17397	85	-54.1	-82.3	186	13
2023-09-22T18:00	17425	85	-54.3	-82.4	188	13
2023-09-22T18:00	17448	85	-54.5	-82.6	190	13
2023-09-22T18:00	17469	84	-54.4	-82.5	192	13
2023-09-22T18:00	17491	84	-54.6	-82.6	193	13
2023-09-22T18:00	17518	84	-54.7	-82.7	194	14
2023-09-22T18:00	17544	83	-55.0	-82.9	195	14
2023-09-22T18:00	17567	83	-55.2	-83.1	196	14
2023-09-22T18:00	17592	83	-55.3	-83.2	195	14
2023-09-22T18:00	17615	82	-55.3	-83.2	195	15
2023-09-22T18:00	17640	82	-55.3	-83.2	195	15
2023-09-22T18:00	17664	82	-55.3	-83.2	195	15
2023-09-22T18:00	17692	81	-55.1	-83.4	195	16
2023-09-22T18:00	17714	81	-55.1	-83.4	196	16
2023-09-22T18:00	17737	81	-55.1	-83.8	197	17
2023-09-22T18:00	17761	81	-54.8	-84.0	198	17
2023-09-22T18:00	17785	80	-54.2	-83.6	199	17
2023-09-22T18:00	17806	80	-54.1	-83.5	201	18
2023-09-22T18:00	17832	80	-54.1	-83.5	203	18
2023-09-22T18:00	17853	79	-54.0	-83.0	205	18
2023-09-22T18:00	17878	79	-54.1	-83.1	207	18
2023-09-22T18:00	17900	79	-54.2	-82.7	209	17
2023-09-22T18:00	17925	79	-54.4	-82.5	211	17
2023-09-22T18:00	17949	78	-54.5	-82.6	213	17
2023-09-22T18:00	17968	78	-54.6	-82.6	215	16
2023-09-22T18:00	17992	78	-54.7	-82.7	216	16
2023-09-22T18:00	18012	77	-54.9	-82.9	217	15
2023-09-22T18:00	18032	77	-55.0	-82.9	218	14
2023-09-22T18:00	18055	77	-55.0	-82.9	218	14
2023-09-22T18:00	18075	77	-55.0	-82.9	218	13
2023-09-22T18:00	18095	76	-54.9	-83.3	218	13
2023-09-22T18:00	18117	76	-55.0		219	12
2023-09-22T18:00	18135	76	-55.0		219	12
2023-09-22T18:00	18157	76	-55.0		220	12
2023-09-22T18:00	18176	75	-55.2	-83.5	220	12
2023-09-22T18:00	18198	75	-55.3	-83.6	220	12
2023-09-22T18:00	18220	75	-55.5	-83.7	219	11
2023-09-22T18:00	18242	75	-55.6	-84.2	217	11
2023-09-22T18:00	18266	74	-55.7	-84.3	214	11
2023-09-22T18:00	18287	74	-55.7	-84.3	211	11
2023-09-22T18:00	18307	74	-55.5	-84.1	209	11
2023-09-22T18:00	18328	74	-55.4	-84.0	208	11
2023-09-22T18:00	18348	73	-55.4	-84.0	207	11
2023-09-22T18:00	18369	73	-55.3	-84.0	206	11
2023-09-22T18:00	18394	73	-55.3	-84.0	205	11
2023-09-22T18:00	18414	73	-55.3	-84.0	204	11
2023-09-22T18:00	18440	72	-55.3	-84.4	202	11
2023-09-22T18:00	18459	72	-55.3	-84.4	201	12
2023-09-22T18:00	18480	72	-55.1	-84.2	199	12
2023-09-22T18:00	18505	72	-55.1	-84.2	197	12
2023-09-22T18:00	18529	71	-55.3	-84.4	194	13
2023-09-22T18:00	18553	71	-55.4	-84.5	191	13
2023-09-22T18:00	18574	71	-55.5	-84.5	188	14
2023-09-22T18:00	18600	71	-55.1	-84.2	185	14
2023-09-22T18:00	18625	70	-55.1	-84.2	184	15
2023-09-22T18:00	18648	70	-55.1	-84.2	183	16
2023-09-22T18:00	18672	70	-55.2	-84.3	183	16
2023-09-22T18:00	18697	70	-55.3	-84.4	184	17
2023-09-22T18:00	18721	69	-55.4	-84.5	185	17
2023-09-22T18:00	18750	69	-55.5	-84.5	186	18
2023-09-22T18:00	18767	69	-55.7	-84.3	187	18
2023-09-22T18:00	18791	69	-55.8	-84.3	187	18
2023-09-22T18:00	18816	68	-55.9	-84.4	188	18
2023-09-22T18:00	18846	68	-56.0	-84.5	189	18
2023-09-22T18:00	18867	68	-56.2	-84.6	191	18
2023-09-22T18:00	18896	67	-56.3	-84.7	194	18
2023-09-22T18:00	18917	67	-56.3	-85.1	196	18
2023-09-22T18:00	18941	67	-56.2	-85.1	199	18
2023-09-22T18:00	18965	67	-55.7	-84.7	201	18
2023-09-22T18:00	18989	66	-55.5	-84.5	203	18
2023-09-22T18:00	19013	66	-55.4	-84.5	205	19
2023-09-22T18:00	19038	66	-55.4	-84.5	207	19
2023-09-22T18:00	19058	66	-55.4	-84.5	208	19
2023-09-22T18:00	19084	65	-55.5	-84.5	210	18
2023-09-22T18:00	19108	65	-55.6	-84.6	211	18
2023-09-22T18:00	19132	65	-55.8	-84.8	213	18
2023-09-22T18:00	19155	65	-55.9	-84.8	214	18
2023-09-22T18:00	19181	64	-56.0	-84.9	216	17
2023-09-22T18:00	19203	64	-56.0	-84.9	218	16
2023-09-22T18:00	19226	64	-56.1	-85.0	220	16
2023-09-22T18:00	19249	64	-56.3	-85.1	221	15
2023-09-22T18:00	19273	64	-56.1	-85.0	222	14
2023-09-22T18:00	19295	63	-55.8	-85.2	223	13
2023-09-22T18:00	19316	63	-55.6	-85.1	222	13
2023-09-22T18:00	19334	63	-55.4	-84.9	221	12
2023-09-22T18:00	19360	63	-55.1	-85.2	219	12
2023-09-22T18:00	19385	62	-55.1	-85.2	216	11
2023-09-22T18:00	19405	62	-55.1	-85.2	213	11
2023-09-22T18:00	19425	62	-55.1	-85.2	210	10
2023-09-22T18:00	19450	62	-55.1	-85.2	207	10
2023-09-22T18:00	19472	62	-55.1	-85.2	204	10
2023-09-22T18:00	19492	61	-55.1	-85.2	202	10
2023-09-22T18:00	19519	61	-54.8	-85.0	201	10
2023-09-22T18:00	19543	61	-54.8	-85.0	201	10
2023-09-22T18:00	19563	61	-54.7	-84.9	202	10
2023-09-22T18:00	19585	61	-54.8	-85.0	204	10
2023-09-22T18:00	19609	60	-54.8	-85.0	207	11
2023-09-22T18:00	19632	60	-54.9	-85.1	209	11
2023-09-22T18:00	19654	60	-55.0	-85.1	212	11
2023-09-22T18:00	19678	60	-55.0	-85.1	214	11
2023-09-22T18:00	19699	59	-55.1	-85.2	215	11
2023-09-22T18:00	19726	59	-55.0	-85.1	215	11
2023-09-22T18:00	19749	59	-54.8	-85.0	215	11
2023-09-22T18:00	19769	59	-54.5	-84.8	214	11
2023-09-22T18:00	19796	59	-54.5	-84.8	213	10
2023-09-22T18:00	19815	58	-54.6	-84.8	212	10
2023-09-22T18:00	19840	58	-54.7	-84.9	212	10
2023-09-22T18:00	19867	58	-54.9	-85.1	213	11
2023-09-22T18:00	19889	58	-55.0	-85.1	214	11
2023-09-22T18:00	19916	57	-55.1	-85.2	216	11
2023-09-22T18:00	19942	57	-55.2	-85.3	217	11
2023-09-22T18:00	19963	57	-55.4	-85.4	218	11
2023-09-22T18:00	19987	57	-55.4	-85.4	219	11
2023-09-22T18:00	20014	57	-55.5	-85.5	219	11
2023-09-22T18:00	20038	56	-55.6	-85.6	219	11
2023-09-22T18:00	20063	56	-55.5	-85.5	219	11
2023-09-22T18:00	20086	56	-55.6	-85.6	219	10
2023-09-22T18:00	20111	56	-55.7	-85.7	219	10
2023-09-22T18:00	20138	56	-55.8	-85.7	219	9
2023-09-22T18:00	20162	55	-55.8	-85.7	217	9
2023-09-22T18:00	20184	55	-55.7	-85.7	215	8
2023-09-22T18:00	20208	55	-55.6	-85.6	213	8
2023-09-22T18:00	20229	55	-55.7	-85.7	210	8
2023-09-22T18:00	20256	54	-55.7	-85.7	207	7
2023-09-22T18:00	20280	54	-55.8	-85.7	204	7
2023-09-22T18:00	20304	54	-55.9	-85.8	202	7
2023-09-22T18:00	20331	54	-56.1	-86.0	200	8
2023-09-22T18:00	20354	54	-56.2	-86.0	198	8
2023-09-22T18:00	20375	53	-56.3	-86.1	196	8
2023-09-22T18:00	20397	53	-56.4	-86.2	194	9
2023-09-22T18:00	20423	53	-56.2	-86.0	192	9
2023-09-22T18:00	20447	53	-55.5	-86.1	192	9
2023-09-22T18:00	20470	53	-55.3	-85.9	194	9
2023-09-22T18:00	20496	52	-55.4	-86.0	196	9
2023-09-22T18:00	20519	52	-55.3	-85.9	200	10
2023-09-22T18:00	20542	52	-55.2	-85.8	205	10
2023-09-22T18:00	20568	52	-55.4	-86.0	211	9
2023-09-22T18:00	20587	52	-55.2	-85.8	217	9
2023-09-22T18:00	20613	52	-55.1	-85.8	223	9
2023-09-22T18:00	20640	51	-55.1	-85.8	230	9
2023-09-22T18:00	20663	51	-54.6	-85.4	237	9
2023-09-22T18:00	20682	51	-54.2	-85.1	242	9
2023-09-22T18:00	20702	51	-54.3	-85.2	247	9
2023-09-22T18:00	20727	51	-54.4	-85.2	249	9
2023-09-22T18:00	20750	50	-54.5	-85.3	251	9
2023-09-22T18:00	20770	50	-54.2	-85.1	250	9
2023-09-22T18:00	20796	50	-54.0	-84.9	248	9
2023-09-22T18:00	20815	50	-54.0	-84.9	245	9
2023-09-22T18:00	20837	50	-54.1	-85.0	241	9
2023-09-22T18:00	20863	50	-54.3	-85.2	237	9
2023-09-22T18:00	20887	49	-54.4	-85.2	234	8
2023-09-22T18:00	20911	49	-54.4	-85.2	232	8
2023-09-22T18:00	20933	49	-54.6	-85.4	232	8
2023-09-22T18:00	20954	49	-54.4	-85.2	233	7
2023-09-22T18:00	20977	49	-54.5	-85.3	234	7
2023-09-22T18:00	20999	48	-54.5	-85.3	235	7
2023-09-22T18:00	21024	48	-54.6	-85.4	234	7
2023-09-22T18:00	21048	48	-54.7	-85.5	233	6
2023-09-22T18:00	21076	48	-54.8	-85.5	230	6
2023-09-22T18:00	21096	48	-54.9	-85.6	228	6
2023-09-22T18:00	21122	48	-55.0	-85.7	227	5
2023-09-22T18:00	21146	47	-55.1	-85.8	227	5
2023-09-22T18:00	21168	47	-55.2	-85.8	227	5
2023-09-22T18:00	21190	47	-55.3	-85.4	225	5
2023-09-22T18:00	21213	47	-55.5	-85.5	221	4
2023-09-22T18:00	21244	47	-55.6	-85.6	216	5
2023-09-22T18:00	21264	47	-55.6	-86.1	210	5
2023-09-22T18:00	21287	46	-55.6	-86.1	207	5
2023-09-22T18:00	21312	46	-55.4	-86.0	205	6
2023-09-22T18:00	21333	46	-55.0	-85.7	206	6
2023-09-22T18:00	21361	46	-54.9	-86.2	206	7
2023-09-22T18:00	21384	46	-54.5	-85.9	207	7
2023-09-22T18:00	21408	45	-54.2	-85.7	208	7
2023-09-22T18:00	21432	45	-54.2	-85.7	209	8
2023-09-22T18:00	21462	45	-54.0	-85.5	210	8
2023-09-22T18:00	21480	45	-54.0	-85.5	211	8
2023-09-22T18:00	21502	45	-54.1	-85.6	212	8
2023-09-22T18:00	21528	45	-54.3	-85.2	213	9
2023-09-22T18:00	21551	44	-54.5	-85.3	213	9
2023-09-22T18:00	21573	44	-54.7	-85.5	214	9
2023-09-22T18:00	21600	44	-54.9	-85.6	214	9
2023-09-22T18:00	21623	44	-54.9	-85.6	214	9
2023-09-22T18:00	21649	44	-54.9	-85.6	214	9
2023-09-22T18:00	21671	44	-54.9	-85.6	213	9
2023-09-22T18:00	21700	43	-55.0	-85.7	213	8
2023-09-22T18:00	21722	43	-55.1	-85.8	212	8
2023-09-22T18:00	21743	43	-55.1	-85.8	212	8
2023-09-22T18:00	21767	43	-55.2	-85.8	212	7
2023-09-22T18:00	21787	43	-55.3	-85.4	213	7
2023-09-22T18:00	21809	43	-55.5	-85.5	214	7
2023-09-22T18:00	21836	43	-55.6	-85.6	215	7
2023-09-22T18:00	21865	42	-55.8	-85.7	216	7
2023-09-22T18:00	21889	42	-55.9	-85.8	218	7
2023-09-22T18:00	21916	42	-55.9	-85.8	219	8
2023-09-22T18:00	21940	42	-55.8	-86.3	221	8
2023-09-22T18:00	21968	42	-55.8	-86.3	223	9
2023-09-22T18:00	21996	42	-55.3	-85.9	225	9
2023-09-22T18:00	22020	41	-55.0	-85.7	227	10
2023-09-22T18:00	22042	41	-55.1	-85.8	229	10
2023-09-22T18:00	22068	41	-55.3	-85.9	230	10
2023-09-22T18:00	22097	41	-55.4	-86.0	231	10
2023-09-22T18:00	22120	41	-55.6	-86.1	232	10
2023-09-22T18:00	22151	41	-55.6	-86.1	232	10
2023-09-22T18:00	22180	40	-55.4	-86.0	232	11
2023-09-22T18:00	22197	40	-55.4	-86.0	233	11
2023-09-22T18:00	22225	40	-55.3	-85.9	233	11
2023-09-22T18:00	22253	40	-55.4	-86.0	234	11
2023-09-22T18:00	22278	40	-55.1	-85.8	236	11
2023-09-22T18:00	22305	40	-55.0	-86.3	238	11
2023-09-22T18:00	22327	39	-54.9	-86.2	240	10
2023-09-22T18:00	22358	39	-54.9	-86.2	242	10
2023-09-22T18:00	22387	39	-54.7	-86.1	244	10
2023-09-22T18:00	22412	39	-54.5	-85.9	246	10
2023-09-22T18:00	22438	39	-54.6	-86.0	247	10
2023-09-22T18:00	22470	39	-54.7	-86.1	248	10
2023-09-22T18:00	22489	38	-54.8	-85.5	248	10
2023-09-22T18:00	22517	38	-54.7	-85.5	248	10
2023-09-22T18:00	22547	38	-54.9	-85.6	248	9
2023-09-22T18:00	22571	38	-55.1	-85.8	247	9
2023-09-22T18:00	22599	38	-55.3	-85.9	246	8
2023-09-22T18:00	22624	38	-55.3	-85.9	244	8
2023-09-22T18:00	22649	37	-55.4	-86.0	241	8
2023-09-22T18:00	22674	37	-55.4	-86.0	238	8
2023-09-22T18:00	22694	37	-55.6	-86.1	235	8
2023-09-22T18:00	22725	37	-55.5	-86.1	232	8
2023-09-22T18:00	22751	37	-55.4	-86.0	231	8
2023-09-22T18:00	22769	37	-55.6	-86.1	230	8
2023-09-22T18:00	22797	37	-55.6	-86.1	229	9
2023-09-22T18:00	22824	36	-55.8	-85.7	228	9
2023-09-22T18:00	22850	36	-56.0	-85.9	227	9
2023-09-22T18:00	22878	36	-56.2	-86.0	225	10
2023-09-22T18:00	22905	36	-56.4	-86.2	223	10
2023-09-22T18:00	22929	36	-56.6	-86.3	221	11
2023-09-22T18:00	22957	36	-56.6	-86.3	219	11
2023-09-22T18:00	22974	36	-56.7	-86.4	218	12
2023-09-22T18:00	23007	35	-56.8	-86.5	217	12
2023-09-22T18:00	23032	35	-56.9	-86.6	217	12
2023-09-22T18:00	23052	35	-56.9	-86.6	217	13
2023-09-22T18:00	23089	35	-57.0	-86.6	218	13
2023-09-22T18:00	23116	35	-56.9	-86.6	219	13
2023-09-22T18:00	23138	35	-56.8	-86.5	220	13
2023-09-22T18:00	23159	35	-56.9	-86.6	222	12
2023-09-22T18:00	23189	34	-56.8	-86.5	224	12
2023-09-22T18:00	23221	34	-56.9	-86.6	225	12
2023-09-22T18:00	23241	34	-57.0	-86.6	227	12
2023-09-22T18:00	23270	34	-57.1	-86.7	227	11
2023-09-22T18:00	23297	34	-57.3	-86.9	227	11
2023-09-22T18:00	23322	34	-57.3	-86.9	228	11
2023-09-22T18:00	23356	34	-57.3	-86.9	228	10
2023-09-22T18:00	23376	33	-57.3	-86.9	230	10
2023-09-22T18:00	23403	33	-57.4	-86.9	232	10
2023-09-22T18:00	23430	33	-57.5	-87.0	235	10
2023-09-22T18:00	23457	33	-57.6	-87.1	236	10
2023-09-22T18:00	23482	33	-57.7	-87.2	236	10
2023-09-22T18:00	23511	33	-57.6	-87.1	235	10
2023-09-22T18:00	23544	33	-57.5	-87.0	232	10
2023-09-22T18:00	23563	32	-57.3	-87.4	229	10
2023-09-22T18:00	23589	32	-56.9	-87.1	226	10
2023-09-22T18:00	23620	32	-56.9	-87.1	223	11
2023-09-22T18:00	23643	32	-56.3	-86.6	220	11
2023-09-22T18:00	23674	32	-56.1	-86.5	218	12
2023-09-22T18:00	23697	32	-56.3	-86.6	217	13
2023-09-22T18:00	23720	32	-56.4		217	13
2023-09-22T18:00	23750	31	-56.3	-86.6	218	14
2023-09-22T18:00	23778	31	-56.4	-86.2	219	14
2023-09-22T18:00	23807	31	-56.5	-86.3	221	14
2023-09-22T18:00	23832	31	-56.7	-86.4	221	15
2023-09-22T18:00	23858	31	-56.9	-86.6	222	15
2023-09-22T18:00	23881	31	-57.1	-86.7	222	16
2023-09-22T18:00	23912	31	-57.3	-86.9	223	16
2023-09-22T18:00	23931	31	-57.3	-86.9	223	16
2023-09-22T18:00	23965	30	-57.1	-86.7	224	16
2023-09-22T18:00	23986	30	-57.2	-86.8	226	16
2023-09-22T18:00	24015	30	-57.0	-86.6	227	16
2023-09-22T18:00	24041	30	-56.9	-86.6	230	16
2023-09-22T18:00	24074	30	-56.9	-87.1	232	15
2023-09-22T18:00	24104	30	-57.0	-86.6	235	15
2023-09-22T18:00	24129	30	-57.1	-86.7	238	15
2023-09-22T18:00	24154	30	-57.2	-86.8	240	14
2023-09-22T18:00	24177	29	-57.3	-86.9	242	14
2023-09-22T18:00	24210	29	-57.4	-86.9	242	14
2023-09-22T18:00	24234	29	-57.4	-86.9	242	14
2023-09-22T18:00	24265	29	-57.4	-86.9	242	14
2023-09-22T18:00	24284	29	-57.5	-87.0	242	14
2023-09-22T18:00	24308	29	-57.5	-87.0	242	14
2023-09-22T18:00	24340	29	-57.5	-87.0	242	14
2023-09-22T18:00	24362	29	-57.5	-87.0	244	14
2023-09-22T18:00	24393	28	-57.4	-86.9	245	14
2023-09-22T18:00	24412	28	-57.2	-87.3	248	14
2023-09-22T18:00	24438	28	-57.2	-87.3	250	14
2023-09-22T18:00	24468	28	-56.7	-86.9	252	13
2023-09-22T18:00	24491	28	-56.7	-86.9	254	12
2023-09-22T18:00	24514	28	-56.5	-86.8	255	11
2023-09-22T18:00	24546	28	-56.6	-87.5	255	10
2023-09-22T18:00	24565	28	-56.4	-87.3	254	9
2023-09-22T18:00	24595	28	-56.3	-87.2	253	8
2023-09-22T18:00	24617	27	-55.9	-86.9	252	7
2023-09-22T18:00	24638	27	-56.0	-87.0	253	7
2023-09-22T18:00	24672	27	-56.0	-87.0	254	7
2023-09-22T18:00	24686	27	-55.5	-86.7	255	8
2023-09-22T18:00	24710	27	-55.5	-86.7	255	8
2023-09-22T18:00	24741	27	-55.3	-86.5	253	7
2023-09-22T18:00	24762	27	-55.4	-86.6	251	7
2023-09-22T18:00	24788	27	-55.3	-86.5	249	7
2023-09-22T18:00	24808	27	-55.1	-86.4	249	6
2023-09-22T18:00	24834	27	-55.1	-86.4	250	6
2023-09-22T18:00	24863	26	-55.2	-86.4	253	6
2023-09-22T18:00	24886	26	-55.4	-86.0	257	6
2023-09-22T18:00	24912	26	-55.5	-86.1	260	6
2023-09-22T18:00	24939	26	-55.6	-86.1	263	6
2023-09-22T18:00	24949	26	-55.6	-86.1	263	5
2023-09-22T18:00	24985	26	-55.4	-86.6	261	5
2023-09-22T18:00	25012	26	-55.3	-86.5	258	5
2023-09-22T18:00	25029	26	-55.3	-86.5	256	5
2023-09-22T18:00	25058	26	-55.5	-86.7	254	5
2023-09-22T18:00	25089	26	-55.5	-86.7	253	6
2023-09-22T18:00	25112	25	-55.5	-86.7	252	6
2023-09-22T18:00	25146	25	-55.4	-86.6	251	7
2023-09-22T18:00	25168	25	-55.3	-86.5	249	7
2023-09-22T18:00	25196	25	-55.3	-86.5	246	8
2023-09-22T18:00	25215	25	-55.4	-86.6	244	8
2023-09-22T18:00	25240	25	-55.4	-86.6	242	8
2023-09-22T18:00	25265	25	-55.4	-86.6	240	9
2023-09-22T18:00	25289	25	-55.5	-86.7	240	9
2023-09-22T18:00	25320	25	-55.4	-86.0	241	9
2023-09-22T18:00	25346	25	-55.4	-86.0	243	9
2023-09-22T18:00	25373	24	-55.4	-86.0	246	10
2023-09-22T18:00	25405	24	-55.5	-86.1	248	10
2023-09-22T18:00	25432	24	-55.5	-86.7	249	10
2023-09-22T18:00	25459	24	-55.3	-86.5	249	10
2023-09-22T18:00	25470	24	-55.4	-86.6	247	10
2023-09-22T18:00	25496	24	-55.5	-86.7	245	9
2023-09-22T18:00	25536	24	-55.2	-86.4	243	9
2023-09-22T18:00	25552	24	-55.2	-86.4	240	8
2023-09-22T18:00	25572	24	-55.2	-86.4	239	8
2023-09-22T18:00	25606	24	-55.3	-86.5	239	7
2023-09-22T18:00	25634	23	-55.5	-86.1	239	7
2023-09-22T18:00	25658	23	-55.7	-86.2	239	7
2023-09-22T18:00	25691	23	-55.8	-86.3	240	7
2023-09-22T18:00	25714	23	-56.0	-86.4	242	8
2023-09-22T18:00	25742	23	-55.5	-86.7	244	8
2023-09-22T18:00	25765	23	-55.1	-86.4	246	9
2023-09-22T18:00	25798	23	-55.0	-86.3	247	9
2023-09-22T18:00	25822	23	-55.0	-86.3	247	10
2023-09-22T18:00	25853	23	-55.0	-86.3	247	10
2023-09-22T18:00	25887	23	-55.1	-86.4	246	10
2023-09-22T18:00	25904	22	-55.2	-86.4	245	10
2023-09-22T18:00	25934	22	-55.4	-86.0	245	10
2023-09-22T18:00	25963	22	-55.6	-86.1	246	11
2023-09-22T18:00	25986	22	-55.9	-86.3	247	11
2023-09-22T18:00	26026	22	-56.1	-86.5	249	11
2023-09-22T18:00	26049	22	-56.0	-86.4	250	11
2023-09-22T18:00	26079	22	-56.0	-86.4	252	11
2023-09-22T18:00	26107	22	-56.2	-86.6	252	11
2023-09-22T18:00	26133	22	-56.2	-86.6	252	11
2023-09-22T18:00	26172	22	-56.3	-86.6	250	10
2023-09-22T18:00	26194	21	-56.5	-86.8	248	10
2023-09-22T18:00	26219	21	-56.5	-86.8	245	10
2023-09-22T18:00	26255	21	-56.4		241	10
2023-09-22T18:00	26280	21	-56.4		238	10
2023-09-22T18:00	26314	21	-56.5	-86.8	235	9
2023-09-22T18:00	26331	21	-56.7	-86.9	233	9
2023-09-22T18:00	26378	21	-56.8	-86.5	230	9
2023-09-22T18:00	26400	21	-57.0	-86.6	228	9
2023-09-22T18:00	26428	21	-57.3	-86.9	225	9
2023-09-22T18:00	26459	21	-57.5	-87.0	222	10
2023-09-22T18:00	26483	20	-57.3	-86.9	219	10
2023-09-22T18:00	26510	20	-57.3	-87.4	216	10
2023-09-22T18:00	26537	20	-57.3	-87.4	214	10
2023-09-22T18:00	26572	20	-57.1	-87.2	213	11
2023-09-22T18:00	26595	20	-57.1	-87.2	211	11
2023-09-22T18:00	26627	20	-57.0	-87.2	210	11
2023-09-22T18:00	26649	20	-56.9	-87.1	210	11
2023-09-22T18:00	26680	20	-57.0	-87.2	211	11
2023-09-22T18:00	26711	20	-57.2	-87.3	213	12
2023-09-22T18:00	26733	20	-57.4	-87.5	215	12
2023-09-22T18:00	26760	20	-57.5	-87.5	218	12
2023-09-22T18:00	26793	20	-57.4	-87.5	221	12
2023-09-22T18:00	26812	19	-57.3	-87.4	224	12
2023-09-22T18:00	26841	19	-57.3	-87.4	226	11
2023-09-22T18:00	26880	19	-57.4	-87.5	227	11
2023-09-22T18:00	26901	19	-57.3	-87.4	229	11
2023-09-22T18:00	26934	19	-57.3	-87.4	231	11
2023-09-22T18:00	26953	19	-57.4	-87.5	234	11
2023-09-22T18:00	26973	19	-57.3	-87.4	237	11
2023-09-22T18:00	27009	19	-57.1	-87.2	241	11
2023-09-22T18:00	27031	19	-57.1	-87.2	245	11
2023-09-22T18:00	27059	19	-57.0	-87.8	249	11
2023-09-22T18:00	27090	19	-56.8	-87.6	253	12
2023-09-22T18:00	27119	19	-56.8	-87.6	256	12
2023-09-22T18:00	27132	18	-56.7	-87.5	258	12
2023-09-22T18:00	27171	18	-56.4	-87.3	260	12
2023-09-22T18:00	27196	18	-56.3	-87.2	261	12
2023-09-22T18:00	27227	18	-56.1	-87.1	263	12
2023-09-22T18:00	27254	18	-56.2	-87.2	264	12
2023-09-22T18:00	27281	18	-56.4	-87.3	265	11
2023-09-22T18:00	27306	18	-56.4	-87.3	265	11
2023-09-22T18:00	27328	18	-56.2	-87.2	265	10
2023-09-22T18:00	27359	18	-56.0	-87.0	264	9
2023-09-22T18:00	27387	18	-56.1	-87.1	263	9
2023-09-22T18:00	27422	18	-56.3	-87.2	261	8
2023-09-22T18:00	27438	18	-56.1	-87.1	259	7
2023-09-22T18:00	27482	18	-56.1	-87.1	256	7
2023-09-22T18:00	27514	17	-56.1	-87.1	254	6
2023-09-22T18:00	27527	17	-56.1	-87.1	251	5
2023-09-22T18:00	27561	17	-56.2	-87.2	247	5
2023-09-22T18:00	27593	17	-56.1	-87.1	241	4
2023-09-22T18:00	27624	17	-55.8	-86.9	234	4
2023-09-22T18:00	27651	17	-55.7	-86.8	228	4
2023-09-22T18:00	27691	17	-55.8	-86.9	225	5
2023-09-22T18:00	27707	17	-55.8	-86.9	225	5
2023-09-22T18:00	27745	17	-55.9	-86.9	226	6
2023-09-22T18:00	27757	17	-55.9	-86.9	229	7
2023-09-22T18:00	27795	17	-55.9	-86.9	233	7
2023-09-22T18:00	27824	17	-56.0	-87.0	237	8
2023-09-22T18:00	27860	17	-56.1	-87.1	240	9
2023-09-22T18:00	27890	16	-56.2	-87.2	243	9
2023-09-22T18:00	27920	16	-56.3	-87.2	245	10
2023-09-22T18:00	27940	16	-56.2	-87.2	247	10
2023-09-22T18:00	27967	16	-56.2	-87.2	249	11
2023-09-22T18:00	27990	16	-56.2	-87.2	252	11
2023-09-22T18:00	28029	16	-56.3	-87.2	255	11
2023-09-22T18:00	28069	16	-56.4	-87.3	260	12
2023-09-22T18:00	28090	16	-56.1	-87.1	264	12
2023-09-22T18:00	28110	16	-55.7	-87.5	268	12
2023-09-22T18:00	28148	16	-55.6	-87.4	271	13
2023-09-22T18:00	28184	16	-55.6	-87.4	273	13
2023-09-22T18:00	28200	16	-55.1	-87.0	275	13
2023-09-22T18:00	28231	16	-54.9	-86.9	276	13
2023-09-22T18:00	28264	16	-54.5	-87.3	278	13
2023-09-22T18:00	28294	15	-54.3	-86.4	280	13
2023-09-22T18:00	28320	15	-54.3	-86.4	282	13
2023-09-22T18:00	28351	15	-54.3	-86.4	284	13
2023-09-22T18:00	28379	15	-54.5	-86.6	286	13
2023-09-22T18:00	28421	15	-54.6	-86.7	288	13
2023-09-22T18:00	28445	15	-54.4	-86.5	289	12
2023-09-22T18:00	28469	15	-54.4	-86.5	290	12
2023-09-22T18:00	28498	15	-54.4	-86.5	291	11
2023-09-22T18:00	28523	15	-54.4	-86.5	291	11
2023-09-22T18:00	28569	15	-54.5	-86.6	291	10
2023-09-22T18:00	28599	15	-54.6	-86.7	290	10
2023-09-22T18:00	28613	15	-54.8	-86.8	288	10
2023-09-22T18:00	28650	15	-54.8	-86.8	287	10
2023-09-22T18:00	28672	15	-54.8	-86.8	286	10
2023-09-22T18:00	28693	14	-54.7	-86.7	287	10
2023-09-22T18:00	28725	14	-54.6	-86.7	289	10
2023-09-22T18:00	28752	14	-54.4	-86.5	291	10
2023-09-22T18:00	28779	14	-53.9	-86.2	293	9
2023-09-22T18:00	28809	14	-53.9	-86.2	294	9
2023-09-22T18:00	28824	14	-53.9	-86.9	294	8
2023-09-22T18:00	28863	14	-53.8	-86.8	293	8
2023-09-22T18:00	28899	14	-53.6	-86.7	292	7
2023-09-22T18:00	28919	14	-53.6	-86.7	291	6
2023-09-22T18:00	28946	14	-53.6	-86.7	290	6
2023-09-22T18:00	28970	14	-53.3	-86.5	290	6
2023-09-22T18:00	28995	14	-52.6		289	6
2023-09-22T18:00	29032	14	-52.5	-85.9	287	6
2023-09-22T18:00	29049	14	-52.3	-85.8	284	6
2023-09-22T18:00	29078	14	-52.3	-85.8	279	6
2023-09-22T18:00	29110	14	-52.3	-85.8	274	6
2023-09-22T18:00	29127	14	-52.1	-85.6	268	7
2023-09-22T18:00	29153	13	-52.2	-85.7	262	7
2023-09-22T18:00	29192	13	-52.1	-85.6	257	8
2023-09-22T18:00	29237	13	-52.2	-85.7	253	8
2023-09-22T18:00	29249	13	-52.2	-85.7	249	9
2023-09-22T18:00	29272	13	-52.2	-85.7	247	9
2023-09-22T18:00	29310	13	-52.4	-85.1	246	10
2023-09-22T18:00	29330	13	-52.6	-85.2	245	11
2023-09-22T18:00	29360	13	-52.7	-85.3	244	11
2023-09-22T18:00	29390	13	-52.9	-85.4	243	12
2023-09-22T18:00	29423	13	-53.1	-85.6	244	12
2023-09-22T18:00	29468	13	-53.3	-85.7	245	13
2023-09-22T18:00	29492	13	-53.4	-85.8	248	13
2023-09-22T18:00	29516	13	-53.3	-85.7	251	14
2023-09-22T18:00	29538	13	-52.7	-86.0	255	15
2023-09-22T18:00	29572	13	-52.4	-85.8	258	16
2023-09-22T18:00	29600	13	-52.0	-85.5	261	16
2023-09-22T18:00	29630	13	-51.9	-86.3	264	17
2023-09-22T18:00	29662	12	-51.5	-86.1	266	18
2023-09-22T18:00	29689	12	-51.5	-86.1	267	18
2023-09-22T18:00	29717	12	-51.5	-86.1	269	18
2023-09-22T18:00	29742	12	-51.3	-85.9	272	18
2023-09-22T18:00	29776	12	-51.2	-85.8	274	17
2023-09-22T18:00	29793	12	-51.2	-85.0	277	16
2023-09-22T18:00	29845	12	-51.1	-84.9	280	16
2023-09-22T18:00	29858	12	-51.2	-85.0	283	15
2023-09-22T18:00	29887	12	-51.3	-85.0	285	15
2023-09-22T18:00	29911	12	-51.5	-85.2	287	15
2023-09-22T18:00	29940	12	-51.7	-85.3	287	14
2023-09-22T18:00	29973	12	-51.7	-85.3	286	14
2023-09-22T18:00	29994	12	-51.3	-85.0	283	14
2023-09-22T18:00	30027	12	-51.1	-85.8	280	14
2023-09-22T18:00	30050	12	-50.9	-85.6	277	15
2023-09-22T18:00	30074	12	-50.7	-85.5	275	15
2023-09-22T18:00	30103	12	-50.5	-85.3	274	16
2023-09-22T18:00	30113	12	-50.0	-85.0	274	16
2023-09-22T18:00	30151	12	-50.0	-85.0	275	16
2023-09-22T18:00	30178	12	-49.7	-85.8	276	16
2023-09-22T18:00	30210	11	-48.8	-85.2	278	16
2023-09-22T18:00	30226	11	-48.6	-85.0	281	16
2023-09-22T18:00	30272	11	-48.3	-84.8	283	16
2023-09-22T18:00	30282	11	-48.0	-84.6	284	16
2023-09-22T18:00	30322	11	-47.6	-84.3	285	17
2023-09-22T18:00	30351	11	-47.4	-84.2	285	17
2023-09-22T18:00	30369	11	-47.3	-84.1	285	17
2023-09-22T18:00	30389	11	-47.4	-84.2	284	17
2023-09-22T18:00	30416	11	-47.5	-84.3	283	17
2023-09-22T18:00	30460	11	-47.3	-84.1	281	16
2023-09-22T18:00	30486	11	-47.2	-84.1	280	16
2023-09-22T18:00	30523	11	-47.2	-84.1	280	15
2023-09-22T18:00	30534	11	-47.2	-84.1	280	15
2023-09-22T18:00	30565	11	-47.3	-84.1	282	14
2023-09-22T18:00	30589	11	-47.2	-84.1	283	13
2023-09-22T18:00	30623	11	-47.3	-84.1	286	13
2023-09-22T18:00	30650	11	-47.3	-84.1	288	13
2023-09-22T18:00	30682	11	-47.0	-83.9	290	13
2023-09-22T18:00	30712	11	-47.0	-83.9	291	13
2023-09-22T18:00	30738	11	-47.0	-83.9	292	13
2023-09-22T18:00	30773	11	-47.0	-83.9	293	13
2023-09-22T18:00	30815	10	-47.1	-84.0	294	13
2023-09-22T18:00	30826	10	-47.2	-84.1	296	13
2023-09-22T18:00	30863	10	-47.2	-84.1	298	13
2023-09-22T18:00	30903	10	-47.2	-84.1	299	12
2023-09-22T18:00	30935	10	-47.3	-83.1	299	12
2023-09-22T18:00	30967	10	-47.4	-83.1	298	12
2023-09-22T18:00	30985	10	-47.6	-83.3	296	12
2023-09-22T18:00	31028	10	-47.6	-83.3	294	12
2023-09-22T18:00	31045	10	-47.6	-84.3	291	12
2023-09-22T18:00	31073	10	-47.6	-84.3	289	11
2023-09-22T18:00	31124	10	-47.5	-84.3	288	11
2023-09-22T18:00	31130	10	-47.4	-84.2	288	11
2023-09-22T18:00	31167	10	-47.5	-84.3	290	12
2023-09-22T18:00	31197	10	-47.6	-84.3	292	12
2023-09-22T18:00	31234	10	-47.5	-84.3	294	12
2023-09-22T18:00	31289	10	-47.6	-84.3	296	13
2023-09-22T18:00	31305	10	-47.9	-83.5	297	14
2023-09-22T18:00	31353	10	-47.9	-83.5	297	14
2023-09-22T18:00	31365	10	-48.0	-83.6	295	14
2023-09-22T18:00	31404	10	-48.0	-83.6	292	14
2023-09-22T18:00	31432	10	-47.8	-84.5	288	14
2023-09-22T18:00	31476	9	-47.8	-84.5	285	13
2023-09-22T18:00	31520	9	-47.7	-84.4	281	13
2023-09-22T18:00	31526	9	-47.6	-84.3	279	12
2023-09-22T18:00	31562	9	-47.5	-84.3	278	11
2023-09-22T18:00	31601	9	-47.4	-84.2	278	10
2023-09-22T18:00	31608	9	-47.3	-84.1	279	10
2023-09-22T18:00	31640	9	-47.2	-84.1	280	10
2023-09-22T18:00	31680	9	-47.3	-84.1	282	10
2023-09-22T18:00	31706	9	-47.1	-84.0	284	10
2023-09-22T18:00	31752	9	-46.8	-83.8	286	11
2023-09-22T18:00	31789	9	-46.8	-83.8	287	12
2023-09-22T18:00	31809	9	-47.0	-83.9	289	12
2023-09-22T18:00	31829	9	-47.2	-84.1	290	13
2023-09-22T18:00	31857	9	-47.3	-84.1	291	13
2023-09-22T18:00	31903	9	-47.3	-84.1	292	14
2023-09-22T18:00	31918	9	-47.5	-84.3	293	14
2023-09-22T18:00	31960	9	-47.8	-84.5	293	14
2023-09-22T18:00	31987	9	-47.9	-84.6	294	15
2023-09-22T18:00	32022	9	-47.8	-84.5	294	14
2023-09-22T18:00	32031	9	-47.7	-84.4	293	14
2023-09-22T18:00	32076	9	-47.3	-84.1	292	13
2023-09-22T18:00	32094	9	-47.1	-84.0	289	13
2023-09-22T18:00	32144	9	-47.0	-83.9	285	12
2023-09-22T18:00	32147	9	-47.1	-84.0	281	11
2023-09-22T18:00	32182	9	-47.2	-84.1	276	11
2023-09-22T18:00	32204	8	-47.2	-84.1	271	11
2023-09-22T18:00	32233	8	-47.0	-83.9	268	11
2023-09-22T18:00	32269	8	-46.8	-83.8	268	11
2023-09-22T18:00	32292	8	-46.8	-83.8	270	11
2023-09-22T18:00	32318	8	-46.5	-83.6	275	12
2023-09-22T18:00	32341	8	-45.5	-82.9	280	12
2023-09-22T18:00	32372	8	-45.7	-83.0	286	12
2023-09-22T18:00	32398	8	-45.7	-83.0	291	13
2023-09-22T18:00	32410	8	-45.9	-83.2	295	14
2023-09-22T18:00	32448	8	-46.0	-83.2	299	14
2023-09-22T18:00	32473	8	-46.1	-83.3	301	15
2023-09-22T18:00	32500	8	-46.1	-83.3	302	15
2023-09-22T18:00	32544	8	-45.5	-82.9	303	16
2023-09-22T18:00	32548	8	-45.2	-82.7	302	16
2023-09-22T18:00	32596	8	-45.1	-82.6	300	16
2023-09-22T18:00	32605	8	-45.0	-82.5	299	16
2023-09-22T18:00	32635	8	-45.0	-82.5	297	16
2023-09-22T18:00	32655	8	-45.0	-82.5	296	16
2023-09-22T18:00	32684	8	-44.9	-82.5	295	16
2023-09-22T18:00	32710	8	-44.7	-82.3	293	16
2023-09-22T18:00	32750	8	-44.7	-82.3	292	17
2023-09-22T18:00	32758	8	-44.7	-82.3	291	17
2023-09-22T18:00	32805	8	-44.5	-82.2	289	17
2023-09-22T18:00	32831	8	-43.8	-81.7	288	17
2023-09-22T18:00	32848	8	-43.4	-81.4	288	17
2023-09-22T18:00	32907	8	-43.3	-81.3	288	18
2023-09-22T18:00	32914	8	-42.7	-80.9	288	18
2023-09-22T18:00	32957	8	-42.6	-80.8	287	19
2023-09-22T18:00	33018	8	-42.6	-80.8	287	19
2023-09-22T18:00	33024	8	-42.8	-81.0	286	19
2023-09-22T18:00	33045	7	-42.6	-80.8	286	20
2023-09-22T18:00	33070	7	-42.6	-80.8	285	20
2023-09-22T18:00	33115	7	-42.6	-80.8	285	20
2023-09-22T18:00	33150	7	-42.7	-80.9	286	21
2023-09-22T18:00	33191	7	-42.7	-80.9	286	20
2023-09-22T18:00	33248	7	-42.5	-80.8	287	20
2023-09-22T18:00	33270	7	-42.4	-80.7	288	19
2023-09-22T18:00	33298	7	-42.4	-80.7	288	19
2023-09-22T18:00	33319	7	-42.4	-80.7	287	19
2023-09-22T18:00	33371	7	-42.2	-80.6	286	18
2023-09-22T18:00	33394	7	-42.2	-80.6	286	18
2023-09-22T18:00	33429	7	-42.1	-80.5	286	18
2023-09-22T18:00	33477	7	-41.9	-80.4	286	18
2023-09-22T18:00	33509	7	-41.6	-80.1	286	17
2023-09-22T18:00	33545	7	-41.4	-80.0	287	16
2023-09-22T18:00	33563	7	-41.3	-79.9	287	15
2023-09-22T18:00	33605	7	-41.4	-80.0	289	15
2023-09-22T18:00	33646	7	-41.4	-80.0	290	14
2023-09-22T18:00	33663	7	-41.5	-80.1	292	14
2023-09-22T18:00	33706	7	-41.3	-79.9	294	13
2023-09-22T18:00	33743	7	-41.4	-80.0	297	13
2023-09-22T18:00	33772	7	-41.6	-80.1	299	13
2023-09-22T18:00	33794	7	-41.9	-80.4	302	13
2023-09-22T18:00	33822	7	-42.1	-80.5	304	13
2023-09-22T18:00	33855	7	-42.3	-80.6	305	12
2023-09-22T18:00	33868	7	-42.5	-80.8	306	12
2023-09-22T18:00	33925	7	-42.6	-80.8	306	12
2023-09-22T18:00	33936	7	-42.7	-80.9	305	12
2023-09-22T18:00	33952	7	-42.7	-80.9	303	12
2023-09-22T18:00	33981	7	-42.7	-80.9	300	12
2023-09-22T18:00	34020	6	-42.5	-80.8	297	12
2023-09-22T18:00	34055	6	-42.6	-80.8	294	12
2023-09-22T18:00	34082	6	-42.6	-80.8	291	12
2023-09-22T18:00	34093	6	-42.7	-80.9	288	13
2023-09-22T18:00	34146	6	-42.8	-81.0	284	13
2023-09-22T18:00	34193	6	-43.0	-81.1	281	13
2023-09-22T18:00	34216	6	-43.2	-81.3	278	14
2023-09-22T18:00	34263	6	-43.1	-81.2	273	14
2023-09-22T18:00	34299	6	-43.1	-81.2	271	15
2023-09-22T18:00	34338	6	-43.0	-81.1	270	15
2023-09-22T18:00	34350	6	-43.0	-81.1	269	16
2023-09-22T18:00	34385	6	-43.1	-81.2	269	16
2023-09-22T18:00	34408	6	-42.8	-81.0	270	16
2023-09-22T18:00	34436	6	-42.8	-81.0	272	17
2023-09-22T18:00	34485	6	-42.6	-80.8	275	17
2023-09-22T18:00	34495	6	-42.3	-80.6	279	17
2023-09-22T18:00	34554	6	-42.1	-80.5	282	17
2023-09-22T18:00	34573	6	-41.5	-80.1	287	17
2023-09-22T18:00	34609	6	-41.2	-79.9	289	17
2023-09-22T18:00	34634	6	-41.0	-79.7	289	17
2023-09-22T18:00	34675	6	-40.9	-79.7	289	17
2023-09-22T18:00	34715	6	-40.5	-79.4	289	17
2023-09-22T18:00	34745	6	-40.5	-79.4	289	17
2023-09-22T18:00	34765	6	-40.3	-79.2	289	17
2023-09-22T18:00	34807	6	-40.3	-79.2	288	17
2023-09-22T18:00	34848	6	-40.4	-79.3	288	17
2023-09-22T18:00	34859	6	-40.4	-79.3	287	17
2023-09-22T18:00	34878	6	-40.4	-79.3	285	17
2023-09-22T18:00	34933	6	-40.2	-79.2	284	17
2023-09-22T18:00	34966	6	-39.9	-79.0	283	17
2023-09-22T18:00	35009	6	-39.8	-78.9	282	17
2023-09-22T18:00	35079	6	-39.9	-79.0	282	18
2023-09-22T18:00	35148	6	-39.7	-78.8	284	19
2023-09-22T18:00	35206	5	-38.6	-78.1	290	21
2023-09-22T18:00	35211	5	-38.6	-78.1	291	22
2023-09-22T18:00	35260	5	-38.7	-78.1	291	23
2023-09-22T18:00	35267	5	-38.8	-78.2	291	23
2023-09-22T18:00	35292	5	-38.3	-77.9	291	24
2023-09-22T18:00	35357	5	-38.1	-77.7	290	24
2023-09-22T18:00	35363	5	-38.0	-77.6	289	24
2023-09-22T18:00	35444	5	-37.0	-77.0	289	24
2023-09-22T18:00	35467	5	-36.3	-76.5	290	23
2023-09-22T18:00	35480	5	-36.1	-76.3	292	21
2023-09-22T18:00	35520	5	-35.9	-76.2	294	20
2023-09-22T18:00	35524	5	-35.5	-75.9	295	20
2023-09-22T18:00	35532	5	-35.1	-75.6	296	19
2023-09-22T18:00	35570	5	-34.8	-75.4	297	19
2023-09-22T18:00	35633	5	-34.4	-75.2	298	18
2023-09-22T18:00	35684	5	-34.1	-75.0	299	19
2023-09-22T18:00	35703	5	-33.9	-74.8	299	19
2023-09-22T18:00	35731	5	-33.6	-74.6	299	20
2023-09-22T18:00	35765	5	-33.6	-74.6	299	20
2023-09-22T18:00	35770	5	-33.7	-74.7	299	21
2023-09-22T18:00	35849	5	-33.7	-74.7	298	22
2023-09-22T18:00	35879	5	-33.7	-74.7	298	22
2023-09-22T18:00	35880	5	-33.8	-74.7	298	22
2023-09-22T18:00	35916	5	-33.9	-74.8	298	22
2023-09-22T18:00	35952	5	-34.1	-75.0	298	22
2023-09-22T18:00	35992	5	-34.2	-75.0	297	22
2023-09-22T18:00	36024	5	-34.2	-75.0	297	22
2023-09-22T18:00	36070	5	-34.2	-75.0	296	22
2023-09-22T18:00	36102	5	-34.0	-74.9	297	21
2023-09-22T18:00	36121	5	-33.8	-74.7	298	21
2023-09-22T18:00	36166	5	-33.8	-74.7	299	20
2023-09-22T18:00	36239	5	-33.8	-74.7	301	20
2023-09-22T18:00	36330	5	-32.9	-74.1	302	19
2023-09-22T18:00	36371	5	-32.8	-74.1	301	19
2023-09-22T18:00	36420	5	-32.8	-74.1	301	19
2023-09-22T18:00	36449	5	-33.3	-74.4	299	20
2023-09-23T00:00	118	994	13.4	12.8	196	3
2023-09-23T00:00	141	991	13.9	12.4	203	4
2023-09-23T00:00	170	987	14.4	11.9	203	6
2023-09-23T00:00	201	984	14.6	11.8	205	7
2023-09-23T00:00	225	981	15.0	11.4	208	8
2023-09-23T00:00	253	978	15.4	11.0	211	9
2023-09-23T00:00	274	975	15.4	10.9	214	9
2023-09-23T00:00	304	972	15.3	10.8	216	9
2023-09-23T00:00	325	970	15.2	10.7	219	9
2023-09-23T00:00	346	967	15.1	10.7	221	9
2023-09-23T00:00	374	964	15.0	10.6	222	8
2023-09-23T00:00	400	961	14.8	10.3	224	8
2023-09-23T00:00	426	958	14.7	10.3	226	8
2023-09-23T00:00	452	955	14.5	10.2	227	8
2023-09-23T00:00	476	952	14.2	10.1	227	8
2023-09-23T00:00	502	950	14.0	10.1	227	8
2023-09-23T00:00	527	947	13.8	10.0	226	8
2023-09-23T00:00	554	944	13.5	9.8	225	8
2023-09-23T00:00	582	941	13.3	9.6	224	8
2023-09-23T00:00	609	937	13.1	9.5	223	7
2023-09-23T00:00	638	934	12.9	9.2	222	7
2023-09-23T00:00	666	931	12.6	9.2	222	7
2023-09-23T00:00	699	928	12.3	9.0	221	7
2023-09-23T00:00	722	925	12.2	8.7	220	7
2023-09-23T00:00	749	922	12.1	8.9	220	7
2023-09-23T00:00	773	919	11.9	9.1	220	7
2023-09-23T00:00	797	917	11.7	9.0	220	7
2023-09-23T00:00	823	914	11.6	8.4	221	7
2023-09-23T00:00	848	911	11.5	8.2	221	7
2023-09-23T00:00	877	908	11.3	8.9	221	6
2023-09-23T00:00	901	905	11.1	8.7	221	6
2023-09-23T00:00	928	903	11.0	8.3	222	6
2023-09-23T00:00	956	900	10.8	7.9	222	5
2023-09-23T00:00	981	897	10.6	7.8	224	5
2023-09-23T00:00	1008	894	10.3	7.5	225	5
2023-09-23T00:00	1036	891	10.1	7.4	226	5
2023-09-23T00:00	1064	888	9.9	7.1	228	5
2023-09-23T00:00	1088	886	9.7	6.6	230	6
2023-09-23T00:00	1108	883	9.7	5.3	231	6
2023-09-23T00:00	1134	881	9.6	5.0	232	6
2023-09-23T00:00	1159	878	9.5	4.8	233	5
2023-09-23T00:00	1186	875	9.3	4.5	234	5
2023-09-23T00:00	1213	872	9.1	4.3	235	5
2023-09-23T00:00	1239	870	8.9	4.2	236	5
2023-09-23T00:00	1260	867	8.7	3.9	236	5
2023-09-23T00:00	1291	864	8.6	2.9	235	5
2023-09-23T00:00	1317	861	8.4	2.7	234	5
2023-09-23T00:00	1341	859	8.2	2.5	232	5
2023-09-23T00:00	1364	856	8.1	2.5	230	5
2023-09-23T00:00	1391	854	7.9	3.3	229	5
2023-09-23T00:00	1416	851	7.7	3.5	229	5
2023-09-23T00:00	1446	848	7.4	3.3	229	6
2023-09-23T00:00	1468	846	7.3	3.1	231	6
2023-09-23T00:00	1494	843	7.1	3.1	233	6
2023-09-23T00:00	1521	840	6.8	2.9	235	6
2023-09-23T00:00	1550	837	6.6	2.9	237	6
2023-09-23T00:00	1580	834	6.3	2.6	238	6
2023-09-23T00:00	1607	831	6.1	2.5	239	6
2023-09-23T00:00	1640	828	6.0	1.4	239	7
2023-09-23T00:00	1665	826	5.9	1.3	239	7
2023-09-23T00:00	1692	823	5.8	1.2	238	7
2023-09-23T00:00	1717	821	5.5	1.7	236	7
2023-09-23T00:00	1738	818	5.3	1.7	233	7
2023-09-23T00:00	1761	816	5.2	1.7	231	7
2023-09-23T00:00	1788	813	4.9	1.7	229	7
2023-09-23T00:00	1813	811	4.7	1.8	229	7
2023-09-23T00:00	1837	808	4.5	1.8	230	7
2023-09-23T00:00	1865	806	4.3	1.6	231	7
2023-09-23T00:00	1888	803	4.2	1.8	233	8
2023-09-23T00:00	1913	801	4.1	1.5	234	8
2023-09-23T00:00	1939	798	3.9	1.2	234	8
2023-09-23T00:00	1963	796	3.8	1.0	234	8
2023-09-23T00:00	1981	794	3.8	0.5	232	7
2023-09-23T00:00	2003	792	3.8	1.2	231	7
2023-09-23T00:00	2032	789	3.5	1.6	229	7
2023-09-23T00:00	2057	787	3.3	1.3	228	8
2023-09-23T00:00	2079	785	3.2	1.8	228	8
2023-09-23T00:00	2101	783	3.2	0.7	228	9
2023-09-23T00:00	2126	780	3.2	0.5	227	9
2023-09-23T00:00	2151	778	3.0	0.3	227	10
2023-09-23T00:00	2169	776	2.8	0.3	226	10
2023-09-23T00:00	2193	774	2.6	0.4	226	10
2023-09-23T00:00	2217	772	2.5	0.2	225	10
2023-09-23T00:00	2238	769	2.4	0.1	224	10
2023-09-23T00:00	2265	767	2.4	0.0	223	9
2023-09-23T00:00	2286	765	2.2	0.2	222	9
2023-09-23T00:00	2311	763	2.0	0.4	221	9
2023-09-23T00:00	2333	761	1.8	0.0	221	9
2023-09-23T00:00	2350	759	1.7	0.1	223	9
2023-09-23T00:00	2376	757	1.7	-0.1	226	9
2023-09-23T00:00	2397	754	1.5	-0.4	231	9
2023-09-23T00:00	2422	752	1.5	-0.6	235	10
2023-09-23T00:00	2438	751	1.4	-0.7	239	10
2023-09-23T00:00	2464	748	1.3	-1.0	240	11
2023-09-23T00:00	2491	746	1.2	-1.4	239	11
2023-09-23T00:00	2510	744	1.2	-1.8	238	11
2023-09-23T00:00	2532	742	1.1	-2.4	235	11
2023-09-23T00:00	2551	740	0.9	-2.6	233	11
2023-09-23T00:00	2574	738	0.7	-3.0	232	10
2023-09-23T00:00	2595	736	0.5	-3.0	230	10
2023-09-23T00:00	2619	734	0.3	-3.1	229	10
2023-09-23T00:00	2636	732	0.1	-3.1	228	10
2023-09-23T00:00	2660	730	0.0	-3.4	227	10
2023-09-23T00:00	2688	728	-0.1	-3.0	228	10
2023-09-23T00:00	2712	725	-0.3	-2.6	229	10
2023-09-23T00:00	2736	723	-0.5	-2.3	231	11
2023-09-23T00:00	2763	721	-0.7		231	11
2023-09-23T00:00	2786	719	-0.9	-2.5	231	11
2023-09-23T00:00	2811	716	-1.0	-2.4	230	11
2023-09-23T00:00	2836	714	-1.1	-2.3	228	11
2023-09-23T00:00	2859	712	-1.3	-2.3	225	11
2023-09-23T00:00	2882	710	-1.5	-2.3	223	11
2023-09-23T00:00	2908	708	-1.7	-2.5	222	11
2023-09-23T00:00	2935	706	-1.8	-2.9	221	10
2023-09-23T00:00	2957	704	-1.9	-3.2	221	10
2023-09-23T00:00	2985	701	-2.0	-3.6	221	10
2023-09-23T00:00	3011	699	-2.2	-3.8	222	11
2023-09-23T00:00	3039	696	-2.4	-4.0	223	11
2023-09-23T00:00	3065	694	-2.6	-4.1	224	11
2023-09-23T00:00	3091	692	-2.8	-4.2	224	12
2023-09-23T00:00	3113	690	-3.0	-4.2	224	12
2023-09-23T00:00	3146	687	-3.2	-4.4	223	12
2023-09-23T00:00	3171	685	-3.4	-4.7	221	12
2023-09-23T00:00	3198	683	-3.6	-5.4	220	12
2023-09-23T00:00	3226	680	-3.7	-6.4	219	12
2023-09-23T00:00	3262	677	-3.9	-7.7	219	13
2023-09-23T00:00	3297	674	-3.9	-9.8	221	13
2023-09-23T00:00	3325	672	-4.0	-11.0	223	13
2023-09-23T00:00	3354	669	-4.2	-10.2	226	14
2023-09-23T00:00	3383	667	-4.0	-16.5	229	14
2023-09-23T00:00	3410	664	-4.0	-18.8	230	14
2023-09-23T00:00	3445	662	-4.4	-10.1	229	13
2023-09-23T00:00	3475	659	-4.7	-7.2	227	13
2023-09-23T00:00	3503	657	-4.9	-7.2	225	12
2023-09-23T00:00	3525	655	-4.9	-8.3	222	11
2023-09-23T00:00	3552	653	-4.8	-13.4	219	11
2023-09-23T00:00	3581	650	-4.7	-19.9	216	10
2023-09-23T00:00	3602	649	-4.8	-21.8	214	10
2023-09-23T00:00	3620	647	-5.0	-22.5	213	11
2023-09-23T00:00	3647	645	-5.1	-19.3	214	11
2023-09-23T00:00	3673	643	-5.2	-14.1	215	12
2023-09-23T00:00	3699	641	-5.4	-13.7	216	12
2023-09-23T00:00	3725	638	-5.6	-13.7	217	11
2023-09-23T00:00	3746	636	-5.7	-13.6	217	11
2023-09-23T00:00	3778	634	-5.8	-16.2	216	10
2023-09-23T00:00	3809	632	-6.0	-17.9	214	10
2023-09-23T00:00	3832	630	-6.1	-19.6	211	10
2023-09-23T00:00	3862	627	-6.3	-20.1	209	10
2023-09-23T00:00	3883	626	-6.4	-19.6	209	10
2023-09-23T00:00	3905	624	-6.5	-19.5	210	9
2023-09-23T00:00	3926	622	-6.7	-19.2	213	9
2023-09-23T00:00	3954	620	-7.0	-18.4	215	10
2023-09-23T00:00	3976	618	-7.2	-16.8	217	10
2023-09-23T00:00	4004	616	-7.4	-16.1	217	10
2023-09-23T00:00	4028	614	-7.6	-16.0	217	10
2023-09-23T00:00	4047	612	-7.7	-16.0	217	11
2023-09-23T00:00	4075	611	-7.9	-16.0	217	11
2023-09-23T00:00	4096	609	-8.0	-15.6	219	12
2023-09-23T00:00	4123	607	-8.2	-14.5	222	13
2023-09-23T00:00	4154	604	-7.9	-17.5	224	13
2023-09-23T00:00	4176	603	-7.7	-22.5	225	13
2023-09-23T00:00	4192	601	-7.8	-23.9	225	14
2023-09-23T00:00	4206	600	-7.8	-24.1	224	14
2023-09-23T00:00	4228	598	-8.0	-23.9	222	14
2023-09-23T00:00	4253	597	-8.1	-23.8	221	14
2023-09-23T00:00	4271	595	-7.9	-26.1	220	14
2023-09-23T00:00	4295	593	-7.8	-27.7	220	14
2023-09-23T00:00	4317	592	-7.7	-28.4	221	14
2023-09-23T00:00	4331	590	-7.8	-28.8	220	13
2023-09-23T00:00	4358	589	-8.0	-29.7	218	14
2023-09-23T00:00	4380	587	-8.0	-31.0	216	14
2023-09-23T00:00	4401	585	-8.1	-31.7	213	14
2023-09-23T00:00	4416	584	-8.2	-32.2	212	15
2023-09-23T00:00	4436	582	-8.3	-32.0	213	16
2023-09-23T00:00	4470	580	-8.5	-31.3	214	16
2023-09-23T00:00	4504	578	-8.4	-34.4	215	16
2023-09-23T00:00	4520	576	-8.3	-36.5	215	16
2023-09-23T00:00	4543	575	-8.1	-39.2	215	16
2023-09-23T00:00	4561	573	-8.1	-40.4	215	16
2023-09-23T00:00	4585	572	-8.3	-41.2	214	16
2023-09-23T00:00	4605	570	-8.3	-41.5	215	16
2023-09-23T00:00	4635	568	-8.5	-41.6	216	16
2023-09-23T00:00	4657	566	-8.6	-41.5	217	16
2023-09-23T00:00	4670	565	-8.6	-40.8	218	16
2023-09-23T00:00	4691	564	-8.8	-40.5	218	15
2023-09-23T00:00	4713	562	-9.0	-40.2	216	15
2023-09-23T00:00	4740	560	-9.2	-40.0	214	15
2023-09-23T00:00	4761	559	-9.4	-39.4	213	15
2023-09-23T00:00	4786	557	-9.6	-38.1	214	15
2023-09-23T00:00	4814	555	-9.8	-38.3	214	16
2023-09-23T00:00	4838	553	-10.0	-38.6	215	16
2023-09-23T00:00	4864	551	-10.2	-39.1	215	17
2023-09-23T00:00	4884	550	-10.4	-39.2	214	17
2023-09-23T00:00	4909	548	-10.7	-39.3	214	17
2023-09-23T00:00	4936	546	-10.9	-39.3	214	17
2023-09-23T00:00	4960	544	-11.2	-38.4	215	17
2023-09-23T00:00	4995	542	-11.5	-39.0	217	17
2023-09-23T00:00	5027	540	-12.0	-29.7	219	17
2023-09-23T00:00	5055	538	-12.2	-31.4	221	18
2023-09-23T00:00	5087	536	-12.5	-30.3	222	19
2023-09-23T00:00	5120	533	-12.5	-33.0	223	20
2023-09-23T00:00	5143	532	-12.8	-35.5	224	21
2023-09-23T00:00	5172	530	-13.0	-33.7	225	21
2023-09-23T00:00	5201	528	-13.7	-27.6	225	21
2023-09-23T00:00	5223	526	-13.9	-27.0	225	21
2023-09-23T00:00	5247	524	-14.1	-27.1	225	22
2023-09-23T00:00	5272	522	-14.3	-29.8	225	22
2023-09-23T00:00	5307	520	-14.8	-26.8	225	22
2023-09-23T00:00	5340	518	-15.0	-27.8	224	22
2023-09-23T00:00	5372	516	-15.4	-26.7	223	22
2023-09-23T00:00	5401	514	-15.6	-28.7	221	21
2023-09-23T00:00	5432	512	-15.9	-28.3	219	20
2023-09-23T00:00	5469	509	-16.2	-29.2	217	20
2023-09-23T00:00	5504	507	-16.6	-27.5	215	20
2023-09-23T00:00	5535	505	-16.9	-27.4	214	20
2023-09-23T00:00	5562	503	-17.2	-27.5	214	20
2023-09-23T00:00	5596	501	-17.5	-27.8	215	21
2023-09-23T00:00	5622	499	-17.7	-28.8	216	21
2023-09-23T00:00	5647	497	-17.9	-29.6	217	22
2023-09-23T00:00	5668	496	-18.1	-29.9	218	22
2023-09-23T00:00	5699	494	-18.4	-30.6	218	22
2023-09-23T00:00	5725	492	-18.6	-29.9	218	23
2023-09-23T00:00	5747	491	-18.8	-30.9	218	23
2023-09-23T00:00	5779	489	-19.1	-32.0	218	23
2023-09-23T00:00	5813	486	-19.3	-32.2	217	23
2023-09-23T00:00	5845	484	-19.7	-31.4	216	24
2023-09-23T00:00	5874	482	-19.8	-37.1	215	23
2023-09-23T00:00	5905	480	-20.1	-36.2	214	23
2023-09-23T00:00	5936	478	-20.4	-36.5	213	23
2023-09-23T00:00	5963	477	-20.7	-35.3	212	23
2023-09-23T00:00	5990	475	-21.1	-33.8	212	23
2023-09-23T00:00	6012	473	-21.3	-35.3	211	23
2023-09-23T00:00	6034	472	-21.5	-29.9	211	23
2023-09-23T00:00	6059	470	-21.8	-29.4	210	23
2023-09-23T00:00	6080	469	-21.5	-25.5	208	23
2023-09-23T00:00	6102	468	-21.6	-25.4	207	23
2023-09-23T00:00	6127	466	-21.0	-23.2	205	23
2023-09-23T00:00	6155	464	-21.0	-23.0	204	23
2023-09-23T00:00	6178	463	-21.0	-23.0	202	23
2023-09-23T00:00	6206	461	-20.9	-22.7	200	23
2023-09-23T00:00	6227	460	-21.1	-22.9	198	23
2023-09-23T00:00	6247	459	-21.3	-22.9	196	23
2023-09-23T00:00	6269	457	-21.0	-22.7	194	22
2023-09-23T00:00	6293	456	-21.1	-23.0	193	22
2023-09-23T00:00	6314	454	-21.3	-23.2	191	22
2023-09-23T00:00	6336	453	-21.5	-23.3	191	22
2023-09-23T00:00	6361	452	-21.6	-23.4	192	22
2023-09-23T00:00	6387	450	-21.8	-23.6	193	23
2023-09-23T00:00	6414	448	-22.0	-23.7	194	23
2023-09-23T00:00	6443	447	-22.1	-23.9	194	23
2023-09-23T00:00	6464	445	-22.2	-23.7	193	23
2023-09-23T00:00	6485	444	-22.3	-23.8	192	23
2023-09-23T00:00	6508	443	-22.4	-23.9	190	23
2023-09-23T00:00	6533	441	-22.4	-24.0	188	24
2023-09-23T00:00	6553	440	-22.4	-24.1	187	24
2023-09-23T00:00	6576	438	-22.4	-24.1	186	25
2023-09-23T00:00	6601	437	-22.5	-24.2	186	25
2023-09-23T00:00	6627	436	-22.6	-24.3	185	26
2023-09-23T00:00	6650	434	-22.8	-24.5	184	26
2023-09-23T00:00	6680	432	-23.0	-24.8	184	27
2023-09-23T00:00	6706	431	-23.2	-25.0	183	27
2023-09-23T00:00	6730	429	-23.3	-25.2	183	27
2023-09-23T00:00	6757	428	-23.5	-25.4	183	28
2023-09-23T00:00	6779	426	-23.7	-25.7	183	28
2023-09-23T00:00	6806	425	-23.9	-26.0	183	28
2023-09-23T00:00	6832	423	-24.1	-26.2	183	29
2023-09-23T00:00	6857	422	-24.3	-26.4	183	29
2023-09-23T00:00	6882	421	-24.5	-26.6	183	29
2023-09-23T00:00	6909	419	-24.6	-26.7	183	29
2023-09-23T00:00	6938	417	-24.7	-26.9	183	29
2023-09-23T00:00	6963	416	-24.9	-27.1	183	29
2023-09-23T00:00	6988	414	-25.1	-27.3	184	30
2023-09-23T00:00	7018	413	-25.4	-27.6	184	30
2023-09-23T00:00	7046	411	-25.5	-27.8	184	30
2023-09-23T00:00	7072	410	-25.7	-27.9	184	30
2023-09-23T00:00	7099	408	-25.8	-28.0	184	30
2023-09-23T00:00	7128	406	-26.0	-28.2	184	31
2023-09-23T00:00	7162	405	-26.3	-28.6	184	31
2023-09-23T00:00	7186	403	-26.5	-28.7	184	32
2023-09-23T00:00	7214	402	-26.6	-28.7	184	33
2023-09-23T00:00	7244	400	-26.9	-29.0	185	33
2023-09-23T00:00	7279	398	-27.1	-29.4	185	33
2023-09-23T00:00	7311	396	-27.3	-29.4	185	33
2023-09-23T00:00	7340	395	-27.6	-29.6	185	33
2023-09-23T00:00	7368	393	-27.8	-29.9	186	33
2023-09-23T00:00	7395	392	-28.0	-30.2	186	32
2023-09-23T00:00	7428	390	-28.3	-30.4	186	32
2023-09-23T00:00	7452	389	-28.5	-30.8	186	32
2023-09-23T00:00	7474	387	-28.6	-31.2	186	33
2023-09-23T00:00	7502	386	-28.9	-31.4	185	33
2023-09-23T00:00	7524	385	-29.0	-31.5	185	34
2023-09-23T00:00	7548	383	-29.2	-31.5	185	34
2023-09-23T00:00	7578	382	-29.5	-31.7	185	34
2023-09-23T00:00	7612	380	-29.8	-32.0	186	33
2023-09-23T00:00	7638	379	-30.0	-32.2	187	32
2023-09-23T00:00	7665	377	-30.2	-32.2	187	32
2023-09-23T00:00	7698	375	-30.5	-32.7	188	32
2023-09-23T00:00	7732	374	-30.8	-32.8	188	32
2023-09-23T00:00	7762	372	-31.1	-33.1	188	32
2023-09-23T00:00	7793	371	-31.3	-33.5	188	32
2023-09-23T00:00	7815	369	-31.5	-33.6	187	32
2023-09-23T00:00	7848	368	-31.8	-34.3	187	32
2023-09-23T00:00	7874	366	-32.0	-34.6	186	33
2023-09-23T00:00	7899	365	-32.3	-34.7	186	33
2023-09-23T00:00	7924	364	-32.5	-35.0	185	33
2023-09-23T00:00	7953	362	-32.7	-34.9	185	33
2023-09-23T00:00	7985	361	-33.0	-35.1	185	33
2023-09-23T00:00	8011	359	-33.2	-35.4	185	33
2023-09-23T00:00	8052	357	-33.6	-35.8	186	33
2023-09-23T00:00	8090	355	-33.9	-36.3	187	32
2023-09-23T00:00	8108	354	-34.1	-36.5	187	32
2023-09-23T00:00	8131	353	-34.3	-36.8	187	32
2023-09-23T00:00	8156	352	-34.5	-36.8	187	32
2023-09-23T00:00	8179	351	-34.7	-37.1	185	32
2023-09-23T00:00	8206	349	-35.0	-37.5	184	32
2023-09-23T00:00	8238	348	-35.3	-38.1	184	32
2023-09-23T00:00	8265	346	-35.5	-38.4	184	33
2023-09-23T00:00	8304	345	-35.9	-38.9	185	33
2023-09-23T00:00	8340	343	-36.2	-39.1	187	34
2023-09-23T00:00	8376	341	-36.4	-39.1	188	34
2023-09-23T00:00	8405	339	-36.6	-39.2	190	35
2023-09-23T00:00	8445	338	-36.8	-39.1	191	35
2023-09-23T00:00	8472	336	-36.9	-38.7	191	35
2023-09-23T00:00	8496	335	-37.1		192	36
2023-09-23T00:00	8518	334	-37.3	-38.6	193	36
2023-09-23T00:00	8548	333	-37.5	-38.7	193	36
2023-09-23T00:00	8574	331	-37.7	-39.1	194	36
2023-09-23T00:00	8592	330	-37.8	-39.5	194	35
2023-09-23T00:00	8610	330	-38.0	-39.3	194	35
2023-09-23T00:00	8636	328	-38.2	-39.4	195	35
2023-09-23T00:00	8660	327	-38.4	-39.7	195	35
2023-09-23T00:00	8678	326	-38.5	-39.8	194	35
2023-09-23T00:00	8700	325	-38.7	-39.8	194	35
2023-09-23T00:00	8720	324	-38.9	-39.9	193	35
2023-09-23T00:00	8744	323	-39.0	-40.0	192	36
2023-09-23T00:00	8774	322	-39.1	-40.0	192	36
2023-09-23T00:00	8811	320	-39.4	-40.5	191	37
2023-09-23T00:00	8833	319	-39.6	-40.9	191	38
2023-09-23T00:00	8856	318	-39.7	-40.8	191	38
2023-09-23T00:00	8876	317	-39.9	-41.1	191	39
2023-09-23T00:00	8900	316	-40.0	-40.9	192	39
2023-09-23T00:00	8931	314	-40.3	-41.2	193	38
2023-09-23T00:00	8960	313	-40.5	-42.0	194	38
2023-09-23T00:00	8982	312	-40.7	-44.0	194	39
2023-09-23T00:00	9016	311	-41.0	-43.5	195	39
2023-09-23T00:00	9052	309	-41.3	-43.2	195	41
2023-09-23T00:00	9080	308	-41.6	-43.0	195	42
2023-09-23T00:00	9102	307	-41.8	-43.7	195	42
2023-09-23T00:00	9134	305	-42.1	-45.9	196	43
2023-09-23T00:00	9156	304	-42.3	-45.7	196	42
2023-09-23T00:00	9187	303	-42.6	-45.7	197	42
2023-09-23T00:00	9233	301	-43.0	-47.0	197	41
2023-09-23T00:00	9259	300	-43.3	-46.9	197	41
2023-09-23T00:00	9286	298	-43.5	-46.2	197	40
2023-09-23T00:00	9310	297	-43.8	-46.6	197	40
2023-09-23T00:00	9347	296	-44.1	-46.4	197	40
2023-09-23T00:00	9378	294	-44.3	-47.2	197	40
2023-09-23T00:00	9400	293	-44.6	-47.8	197	40
2023-09-23T00:00	9426	292	-44.9	-48.3	197	40
2023-09-23T00:00	9448	291	-45.1	-48.4	197	41
2023-09-23T00:00	9476	290	-45.4	-48.6	197	41
2023-09-23T00:00	9509	289	-45.7	-48.5	198	41
2023-09-23T00:00	9542	287	-46.0	-48.5	198	41
2023-09-23T00:00	9564	286	-46.2	-48.7	199	41
2023-09-23T00:00	9589	285	-46.4	-48.9	199	41
2023-09-23T00:00	9622	284	-46.7	-49.0	199	41
2023-09-23T00:00	9651	283	-47.0	-49.9	199	41
2023-09-23T00:00	9674	281	-47.2	-50.3	199	41
2023-09-23T00:00	9709	280	-47.5	-50.9	199	41
2023-09-23T00:00	9740	279	-47.8	-51.4	200	40
2023-09-23T00:00	9769	278	-48.1	-51.6	201	39
2023-09-23T00:00	9791	277	-48.3	-52.2	203	39
2023-09-23T00:00	9815	276	-48.5	-52.7	204	39
2023-09-23T00:00	9845	274	-48.8	-52.7	204	39
2023-09-23T00:00	9878	273	-49.0	-52.8	205	39
2023-09-23T00:00	9901	272	-49.2	-53.2	205	40
2023-09-23T00:00	9936	271	-49.5	-53.6	205	40
2023-09-23T00:00	9959	270	-49.7	-53.8	204	40
2023-09-23T00:00	9988	268	-49.9	-54.1	204	40
2023-09-23T00:00	10017	267	-50.2	-54.2	203	40
2023-09-23T00:00	10046	266	-50.5	-54.2	203	40
2023-09-23T00:00	10082	265	-50.9	-54.4	203	40
2023-09-23T00:00	10118	263	-51.2	-54.3	203	40
2023-09-23T00:00	10148	262	-51.5	-54.5	204	40
2023-09-23T00:00	10185	260	-51.8	-55.1	205	40
2023-09-23T00:00	10221	259	-52.2	-55.7	206	41
2023-09-23T00:00	10254	258	-52.4	-55.7	207	42
2023-09-23T00:00	10297	256	-52.9	-56.0	207	43
2023-09-23T00:00	10327	255	-53.1	-56.8	207	44
2023-09-23T00:00	10363	253	-53.1	-57.5	206	45
2023-09-23T00:00	10398	252	-53.4	-57.8	207	47
2023-09-23T00:00	10429	251	-53.5	-57.8	207	48
2023-09-23T00:00	10469	249	-53.9	-58.1	208	49
2023-09-23T00:00	10500	248	-54.2	-58.1	209	50
2023-09-23T00:00	10535	247	-54.5	-58.1	210	51
2023-09-23T00:00	10566	245	-54.8	-58.3	211	52
2023-09-23T00:00	10590	245	-54.6	-58.3	211	52
2023-09-23T00:00	10614	244	-54.7	-58.8	212	53
2023-09-23T00:00	10651	242	-54.9	-59.4	213	52
2023-09-23T00:00	10682	241	-55.1	-60.6	214	52
2023-09-23T00:00	10710	240	-55.1	-62.9	215	52
2023-09-23T00:00	10736	239	-54.6	-64.8	216	51
2023-09-23T00:00	10770	238	-54.8	-65.4	216	50
2023-09-23T00:00	10790	237	-54.9	-65.2	216	49
2023-09-23T00:00	10812	236	-54.6	-65.2	216	48
2023-09-23T00:00	10851	235	-54.7	-65.6	216	47
2023-09-23T00:00	10878	234	-54.8	-66.0	216	46
2023-09-23T00:00	10908	233	-54.4	-66.5	216	45
2023-09-23T00:00	10927	232	-53.7	-66.7	216	45
2023-09-23T00:00	10949	231	-53.7	-66.9	215	44
2023-09-23T00:00	10981	230	-53.9	-67.1	215	44
2023-09-23T00:00	11009	229	-53.9	-67.3	215	43
2023-09-23T00:00	11034	228	-53.9	-67.9	214	41
2023-09-23T00:00	11065	227	-53.9	-68.4	214	40
2023-09-23T00:00	11094	226	-53.7	-68.8	214	38
2023-09-23T00:00	11118	225	-53.6	-69.2	214	37
2023-09-23T00:00	11140	224	-53.5	-69.7	212	35
2023-09-23T00:00	11176	223	-53.5	-70.6	210	34
2023-09-23T00:00	11203	222	-52.6	-71.3	208	34
2023-09-23T00:00	11233	221	-52.5	-72.1	206	33
2023-09-23T00:00	11265	220	-52.5	-72.1	204	32
2023-09-23T00:00	11294	219	-52.8	-72.1	202	32
2023-09-23T00:00	11327	218	-52.9	-72.2	201	32
2023-09-23T00:00	11356	217	-52.8	-72.6	200	33
2023-09-23T00:00	11380	216	-52.7	-72.7	198	33
2023-09-23T00:00	11406	215	-52.9	-72.7	198	34
2023-09-23T00:00	11429	215	-53.1	-72.7	197	34
2023-09-23T00:00	11450	214	-52.9	-72.9	197	35
2023-09-23T00:00	11469	213	-52.8	-73.1	197	36
2023-09-23T00:00	11488	213	-53.0	-73.0	196	36
2023-09-23T00:00	11506	212	-53.1	-72.7	196	37
2023-09-23T00:00	11528	211	-53.3	-73.0	196	37
2023-09-23T00:00	11547	211	-53.4	-73.4	195	37
2023-09-23T00:00	11569	210	-53.6	-74.0	195	37
2023-09-23T00:00	11589	209	-53.7	-74.4	194	38
2023-09-23T00:00	11607	209	-53.6	-74.6	194	38
2023-09-23T00:00	11628	208	-53.4	-74.4	194	38
2023-09-23T00:00	11648	207	-53.5	-74.6	193	38
2023-09-23T00:00	11670	207	-53.6	-74.8	193	38
2023-09-23T00:00	11690	206	-53.8	-75.1	193	39
2023-09-23T00:00	11711	205	-54.0	-75.3	192	39
2023-09-23T00:00	11733	205	-54.2	-75.3	192	39
2023-09-23T00:00	11753	204	-54.1	-75.1	193	40
2023-09-23T00:00	11775	203	-54.2	-75.2	193	40
2023-09-23T00:00	11795	203	-54.3	-75.3	194	40
2023-09-23T00:00	11816	202	-54.5	-75.6	195	39
2023-09-23T00:00	11838	201	-54.6	-75.9	195	39
2023-09-23T00:00	11860	201	-54.5	-76.2	196	38
2023-09-23T00:00	11880	200	-54.3	-76.5	196	38
2023-09-23T00:00	11903	199	-54.3	-77.0	197	38
2023-09-23T00:00	11922	199	-54.3	-77.3	197	38
2023-09-23T00:00	11946	198	-54.4	-77.4	198	37
2023-09-23T00:00	11973	197	-54.4	-77.2	199	37
2023-09-23T00:00	11995	197	-54.2	-76.6	199	37
2023-09-23T00:00	12013	196	-54.1	-75.9	200	37
2023-09-23T00:00	12033	195	-53.8	-75.5	200	37
2023-09-23T00:00	12055	195	-53.7	-75.6	201	37
2023-09-23T00:00	12073	194	-53.8	-76.1	201	37
2023-09-23T00:00	12094	193	-53.9	-76.3	201	37
2023-09-23T00:00	12114	193	-54.0	-76.6	202	37
2023-09-23T00:00	12132	192	-54.1	-76.8	202	37
2023-09-23T00:00	12151	192	-54.0	-77.2	203	37
2023-09-23T00:00	12173	191	-54.0	-78.0	203	36
2023-09-23T00:00	12191	191	-53.8	-78.2	203	36
2023-09-23T00:00	12209	190	-53.1	-78.1	203	35
2023-09-23T00:00	12228	190	-52.8	-78.1	202	35
2023-09-23T00:00	12245	189	-52.5	-78.1	202	35
2023-09-23T00:00	12262	188	-52.0	-78.2	202	35
2023-09-23T00:00	12281	188	-51.7	-78.2	202	35
2023-09-23T00:00	12298	187	-51.7	-78.2	202	35
2023-09-23T00:00	12317	187	-51.7	-78.0	201	35
2023-09-23T00:00	12335	186	-51.8	-78.3	201	34
2023-09-23T00:00	12361	186	-51.7	-78.2	200	33
2023-09-23T00:00	12391	185	-51.2	-78.1	199	33
2023-09-23T00:00	12409	184	-51.0	-78.2	198	32
2023-09-23T00:00	12429	184	-50.8	-78.1	198	32
2023-09-23T00:00	12449	183	-50.7	-78.3	199	32
2023-09-23T00:00	12470	183	-50.6	-78.2	199	32
2023-09-23T00:00	12488	182	-50.6	-78.2	200	33
2023-09-23T00:00	12507	182	-50.5	-77.9	200	33
2023-09-23T00:00	12525	181	-50.4	-77.8	200	32
2023-09-23T00:00	12545	180	-50.5	-77.9	200	32
2023-09-23T00:00	12564	180	-50.6	-77.9	200	32
2023-09-23T00:00	12580	179	-50.7	-78.0	200	32
2023-09-23T00:00	12601	179	-50.9	-77.9	200	32
2023-09-23T00:00	12620	178	-51.0	-77.7	200	32
2023-09-23T00:00	12639	178	-51.2	-77.8	200	32
2023-09-23T00:00	12660	177	-51.4	-77.7	200	33
2023-09-23T00:00	12680	177	-51.6	-78.1	200	33
2023-09-23T00:00	12699	176	-51.7	-78.2	200	33
2023-09-23T00:00	12718	176	-51.8	-78.3	200	33
2023-09-23T00:00	12740	175	-51.9	-78.4	201	33
2023-09-23T00:00	12759	175	-51.7	-78.5	202	33
2023-09-23T00:00	12778	174	-51.7	-78.5	202	32
2023-09-23T00:00	12799	174	-51.6	-78.4	203	32
2023-09-23T00:00	12819	173	-51.5	-78.6	203	32
2023-09-23T00:00	12839	172	-51.5	-78.6	204	32
2023-09-23T00:00	12858	172	-51.6	-79.0	204	31
2023-09-23T00:00	12881	171	-51.7	-79.1	204	31
2023-09-23T00:00	12902	171	-51.7	-78.8	204	31
2023-09-23T00:00	12923	170	-51.9	-78.9	204	31
2023-09-23T00:00	12945	170	-52.0	-78.7	204	30
2023-09-23T00:00	12968	169	-52.2	-78.9	203	30
2023-09-23T00:00	12991	168	-52.3	-79.2	203	30
2023-09-23T00:00	13013	168	-52.1	-79.1	203	30
2023-09-23T00:00	13032	167	-52.2	-79.5	203	30
2023-09-23T00:00	13056	167	-52.3	-79.5	203	30
2023-09-23T00:00	13078	166	-52.4	-79.6	203	30
2023-09-23T00:00	13099	166	-52.1	-79.4	203	29
2023-09-23T00:00	13120	165	-52.0	-79.6	202	29
2023-09-23T00:00	13142	165	-52.0	-79.6	202	30
2023-09-23T00:00	13165	164	-52.1	-79.7	202	30
2023-09-23T00:00	13184	163	-52.1	-79.7	202	30
2023-09-23T00:00	13206	163	-51.9	-79.5	202	31
2023-09-23T00:00	13229	162	-51.9	-79.9	203	31
2023-09-23T00:00	13251	162	-52.0	-80.0	204	31
2023-09-23T00:00	13272	161	-52.1	-80.0	205	32
2023-09-23T00:00	13296	161	-52.0	-80.0	206	32
2023-09-23T00:00	13318	160	-52.0	-80.3	207	32
2023-09-23T00:00	13340	160	-52.1	-80.4	208	32
2023-09-23T00:00	13363	159	-52.0	-80.3	209	32
2023-09-23T00:00	13382	159	-51.9	-80.2	210	31
2023-09-23T00:00	13407	158	-51.9	-80.2	210	31
2023-09-23T00:00	13430	157	-51.8	-80.1	211	30
2023-09-23T00:00	13450	157	-51.7	-80.4	211	30
2023-09-23T00:00	13471	156	-51.8	-80.5	211	30
2023-09-23T00:00	13493	156	-51.8	-80.1	210	29
2023-09-23T00:00	13514	155	-51.8	-80.5	210	29
2023-09-23T00:00	13538	155	-51.8	-80.5	209	29
2023-09-23T00:00	13556	154	-51.7	-80.4	209	29
2023-09-23T00:00	13577	154	-51.8	-80.5	208	28
2023-09-23T00:00	13597	153	-51.5	-80.7	208	28
2023-09-23T00:00	13619	153	-51.1	-80.4	208	28
2023-09-23T00:00	13640	152	-50.7	-80.5	207	27
2023-09-23T00:00	13660	152	-50.1	-80.5	207	27
2023-09-23T00:00	13681	151	-50.2	-80.6	206	27
2023-09-23T00:00	13699	151	-50.3	-80.6	204	26
2023-09-23T00:00	13723	150	-50.4	-80.7	203	26
2023-09-23T00:00	13744	150	-50.1	-80.5	201	26
2023-09-23T00:00	13763	150	-49.8	-80.8	200	26
2023-09-23T00:00	13784	149	-49.0	-80.2	198	26
2023-09-23T00:00	13807	149	-49.1	-80.2	197	26
2023-09-23T00:00	13826	148	-49.2	-80.3	196	26
2023-09-23T00:00	13844	148	-49.3	-80.4	195	27
2023-09-23T00:00	13870	147	-49.5	-80.5	194	27
2023-09-23T00:00	13890	147	-49.5	-80.0	193	27
2023-09-23T00:00	13911	146	-49.7	-80.2	193	27
2023-09-23T00:00	13928	146	-49.8	-80.3	192	28
2023-09-23T00:00	13950	145	-49.8	-80.3	192	28
2023-09-23T00:00	13969	145	-49.7	-80.2	193	27
2023-09-23T00:00	13988	145	-49.2	-79.8	193	27
2023-09-23T00:00	14009	144	-49.4	-80.0	194	27
2023-09-23T00:00	14030	144	-49.5	-80.0	195	27
2023-09-23T00:00	14048	143	-49.6	-80.1	196	27
2023-09-23T00:00	14067	143	-49.7	-80.2	198	26
2023-09-23T00:00	14091	142	-49.8	-80.3	199	26
2023-09-23T00:00	14112	142	-50.0	-80.0	200	26
2023-09-23T00:00	14136	141	-50.0	-80.0	201	26
2023-09-23T00:00	14156	141	-50.0	-80.0	202	26
2023-09-23T00:00	14177	140	-50.0	-80.0	203	26
2023-09-23T00:00	14199	140	-50.1	-80.0	204	26
2023-09-23T00:00	14220	139	-50.2	-80.1	205	26
2023-09-23T00:00	14242	139	-50.3	-80.2	207	26
2023-09-23T00:00	14263	139	-50.4	-80.3	208	26
2023-09-23T00:00	14287	138	-50.5	-79.9	210	26
2023-09-23T00:00	14309	138	-50.7	-80.1	211	26
2023-09-23T00:00	14331	137	-50.9	-80.2	211	26
2023-09-23T00:00	14350	137	-51.1	-80.4	211	26
2023-09-23T00:00	14372	136	-51.1	-80.8	210	25
2023-09-23T00:00	14394	136	-50.7	-80.5	209	25
2023-09-23T00:00	14416	135	-50.6	-80.4	208	25
2023-09-23T00:00	14438	135	-50.7	-80.5	206	25
2023-09-23T00:00	14458	134	-50.8	-80.6	205	25
2023-09-23T00:00	14479	134	-50.8	-80.6	205	25
2023-09-23T00:00	14499	134	-50.9	-80.6	204	25
2023-09-23T00:00	14521	133	-51.1	-80.8	203	25
2023-09-23T00:00	14542	133	-51.2	-80.9	203	25
2023-09-23T00:00	14561	132	-51.3	-80.9	203	24
2023-09-23T00:00	14583	132	-51.0	-80.7	203	24
2023-09-23T00:00	14603	131	-51.1	-80.4	204	24
2023-09-23T00:00	14624	131	-51.2	-80.9	204	24
2023-09-23T00:00	14645	131	-51.4	-81.0	204	23
2023-09-23T00:00	14666	130	-51.4	-81.0	205	23
2023-09-23T00:00	14686	130	-51.5	-81.1	205	23
2023-09-23T00:00	14707	129	-51.6	-81.2	206	23
2023-09-23T00:00	14727	129	-51.7	-81.2	207	22
2023-09-23T00:00	14750	129	-51.9	-81.0	208	22
2023-09-23T00:00	14772	128	-52.1	-81.1	209	22
2023-09-23T00:00	14794	128	-52.2	-81.2	210	22
2023-09-23T00:00	14815	127	-52.4	-81.4	212	22
2023-09-23T00:00	14836	127	-52.5	-81.4	214	22
2023-09-23T00:00	14857	126	-52.5	-81.4	215	22
2023-09-23T00:00	14879	126	-52.6	-81.5	216	22
2023-09-23T00:00	14898	126	-52.6	-81.5	218	22
2023-09-23T00:00	14922	125	-52.7	-81.6	219	22
2023-09-23T00:00	14940	125	-52.5	-81.8	220	22
2023-09-23T00:00	14962	124	-52.4	-81.8	222	22
2023-09-23T00:00	14982	124	-52.5	-81.8	223	22
2023-09-23T00:00	15006	124	-52.5	-81.8	225	21
2023-09-23T00:00	15025	123	-52.6	-81.9	226	21
2023-09-23T00:00	15046	123	-52.7	-82.0	227	20
2023-09-23T00:00	15070	122	-52.7	-82.0	229	20
2023-09-23T00:00	15087	122	-52.7	-82.0	230	19
2023-09-23T00:00	15108	122	-52.6	-81.9	231	19
2023-09-23T00:00	15130	121	-52.7	-82.0	232	19
2023-09-23T00:00	15151	121	-52.7	-82.0	233	18
2023-09-23T00:00	15170	120	-52.9	-82.1	234	18
2023-09-23T00:00	15189	120	-53.0	-82.2	236	17
2023-09-23T00:00	15211	120	-53.1	-82.3	237	17
2023-09-23T00:00	15231	119	-52.9	-82.6	238	16
2023-09-23T00:00	15252	119	-52.2	-82.1	238	15
2023-09-23T00:00	15276	119	-52.1	-82.0	238	14
2023-09-23T00:00	15296	118	-51.9	-82.3	237	14
2023-09-23T00:00	15315	118	-51.9	-82.3	235	14
2023-09-23T00:00	15335	117	-52.0	-82.4	233	14
2023-09-23T00:00	15355	117	-52.2	-82.5	230	14
2023-09-23T00:00	15381	117	-52.3	-82.1	227	13
2023-09-23T00:00	15399	116	-52.4	-82.2	224	13
2023-09-23T00:00	15422	116	-52.5	-82.3	221	13
2023-09-23T00:00	15445	115	-52.6	-82.4	217	13
2023-09-23T00:00	15463	115	-52.7	-82.4	215	13
2023-09-23T00:00	15483	115	-52.9	-82.6	213	13
2023-09-23T00:00	15506	114	-52.9	-82.6	211	13
2023-09-23T00:00	15528	114	-52.9	-82.6	209	13
2023-09-23T00:00	15549	114	-53.1	-82.7	208	13
2023-09-23T00:00	15574	113	-53.2	-82.8	206	14
2023-09-23T00:00	15594	113	-53.4	-82.5	205	14
2023-09-23T00:00	15615	112	-53.6	-82.7	204	14
2023-09-23T00:00	15635	112	-53.7	-82.8	203	14
2023-09-23T00:00	15656	112	-53.9	-82.9	202	15
2023-09-23T00:00	15679	111	-54.1	-82.6	202	15
2023-09-23T00:00	15701	111	-54.2	-82.7	201	16
2023-09-23T00:00	15725	111	-54.4	-82.9	201	16
2023-09-23T00:00	15744	110	-54.5	-82.9	201	17
2023-09-23T00:00	15764	110	-54.6	-83.0	201	17
2023-09-23T00:00	15787	109	-54.7	-83.1	202	18
2023-09-23T00:00	15812	109	-54.8	-83.2	203	19
2023-09-23T00:00	15832	109	-54.9	-83.3	204	20
2023-09-23T00:00	15852	108	-55.0		205	20
2023-09-23T00:00	15874	108	-55.0		206	21
2023-09-23T00:00	15895	108	-55.0		207	21
2023-09-23T00:00	15917	107	-54.9	-83.3	208	20
2023-09-23T00:00	15941	107	-54.8	-83.6	208	20
2023-09-23T00:00	15961	107	-54.2	-83.1	208	19
2023-09-23T00:00	15984	106	-54.2	-83.1	208	18
2023-09-23T00:00	16003	106	-54.1	-83.5	208	18
2023-09-23T00:00	16025	105	-54.0	-83.4	209	18
2023-09-23T00:00	16048	105	-53.8	-83.3	210	18
2023-09-23T00:00	16070	105	-53.8	-83.3	212	18
2023-09-23T00:00	16089	104	-53.9	-83.3	213	18
2023-09-23T00:00	16112	104	-53.7	-83.2	214	19
2023-09-23T00:00	16132	104	-53.6	-83.1	215	19
2023-09-23T00:00	16155	103	-53.6	-83.1	216	19
2023-09-23T00:00	16175	103	-53.6	-83.6	216	19
2023-09-23T00:00	16198	103	-53.7	-83.7	215	19
2023-09-23T00:00	16219	102	-53.7	-83.7	214	19
2023-09-23T00:00	16242	102	-53.6	-83.6	213	18
2023-09-23T00:00	16265	102	-53.4	-83.4	212	18
2023-09-23T00:00	16285	101	-53.3		211	18
2023-09-23T00:00	16306	101	-53.5	-83.5	210	17
2023-09-23T00:00	16328	101	-53.6	-83.6	209	17
2023-09-23T00:00	16349	100	-53.7	-83.7	208	16
2023-09-23T00:00	16367	100	-53.7	-83.7	208	16
2023-09-23T00:00	16392	100	-53.9	-83.8	208	16
2023-09-23T00:00	16411	99	-53.9	-83.8	207	16
2023-09-23T00:00	16433	99	-53.9	-83.8	206	15
2023-09-23T00:00	16455	99	-53.8	-83.7	205	15
2023-09-23T00:00	16475	98	-53.3		203	15
2023-09-23T00:00	16496	98	-53.2	-83.8	201	14
2023-09-23T00:00	16516	98	-53.0	-83.6	198	14
2023-09-23T00:00	16538	97	-52.7	-83.4	195	14
2023-09-23T00:00	16560	97	-52.5	-83.8	192	13
2023-09-23T00:00	16591	97	-52.2	-83.6	189	13
2023-09-23T00:00	16620	96	-52.1	-83.5	187	14
2023-09-23T00:00	16640	96	-52.2	-83.1	186	14
2023-09-23T00:00	16662	96	-52.4	-83.2	185	14
2023-09-23T00:00	16684	95	-52.6	-83.3	184	14
2023-09-23T00:00	16706	95	-52.8	-83.5	183	14
2023-09-23T00:00	16727	95	-53.0	-83.1	182	14
2023-09-23T00:00	16752	94	-53.2	-83.3	182	15
2023-09-23T00:00	16772	94	-53.4	-83.4	182	15
2023-09-23T00:00	16795	94	-53.6	-83.6	183	15
2023-09-23T00:00	16815	93	-53.8	-83.7	184	16
2023-09-23T00:00	16835	93	-54.0	-83.4	185	16
2023-09-23T00:00	16855	93	-54.1	-83.5	187	16
2023-09-23T00:00	16877	92	-54.1	-83.5	188	17
2023-09-23T00:00	16897	92	-54.1	-84.0	190	17
2023-09-23T00:00	16916	92	-54.2	-84.0	191	18
2023-09-23T00:00	16934	92	-54.2	-84.0	193	18
2023-09-23T00:00	16954	91	-54.0	-83.9	195	19
2023-09-23T00:00	16976	91	-53.6	-84.1	196	19
2023-09-23T00:00	16997	91	-53.5	-84.0	198	19
2023-09-23T00:00	17014	90	-53.6	-84.1	199	19
2023-09-23T00:00	17031	90	-53.6	-84.1	200	18
2023-09-23T00:00	17052	90	-53.7	-84.2	202	18
2023-09-23T00:00	17074	90	-53.8	-84.2	203	17
2023-09-23T00:00	17092	89	-53.8	-84.2	204	16
2023-09-23T00:00	17115	89	-53.7	-84.2	205	16
2023-09-23T00:00	17139	89	-53.7	-83.7	206	15
2023-09-23T00:00	17163	88	-53.8	-83.7	206	15
2023-09-23T00:00	17181	88	-54.0	-83.9	207	14
2023-09-23T00:00	17205	88	-54.2	-84.0	208	14
2023-09-23T00:00	17225	88	-54.3	-84.1	209	14
2023-09-23T00:00	17245	87	-54.5	-84.3	210	13
2023-09-23T00:00	17265	87	-54.7	-83.9	211	13
2023-09-23T00:00	17287	87	-54.9	-84.1	211	13
2023-09-23T00:00	17310	86	-55.0	-84.2	211	12
2023-09-23T00:00	17330	86	-55.0	-84.2	211	12
2023-09-23T00:00	17350	86	-54.8	-84.0	210	12
2023-09-23T00:00	17372	86	-55.0	-84.2	209	13
2023-09-23T00:00	17393	85	-55.1	-84.2	208	13
2023-09-23T00:00	17414	85	-55.2	-84.3	207	13
2023-09-23T00:00	17432	85	-55.3	-84.4	206	14
2023-09-23T00:00	17453	84	-55.3	-84.4	205	14
2023-09-23T00:00	17475	84	-55.3	-84.9	204	15
2023-09-23T00:00	17493	84	-55.3	-84.9	203	15
2023-09-23T00:00	17517	84	-55.4	-84.9	203	15
2023-09-23T00:00	17540	83	-55.1	-84.7	203	16
2023-09-23T00:00	17563	83	-55.1	-84.7	204	16
2023-09-23T00:00	17583	83	-55.3	-84.9	205	17
2023-09-23T00:00	17607	82	-55.5	-85.0	206	17
2023-09-23T00:00	17630	82	-55.6	-85.1	207	17
2023-09-23T00:00	17652	82	-55.7	-85.2	208	17
2023-09-23T00:00	17674	82	-55.4	-84.9	209	17
2023-09-23T00:00	17698	81	-54.9	-85.1	209	17
2023-09-23T00:00	17722	81	-54.6	-84.8	210	17
2023-09-23T00:00	17741	81	-54.4	-84.7	210	16
2023-09-23T00:00	17764	80	-54.1	-84.5	210	16
2023-09-23T00:00	17785	80	-54.1	-84.5	211	15
2023-09-23T00:00	17805	80	-54.2	-84.5	212	15
2023-09-23T00:00	17829	80	-54.4	-84.7	212	14
2023-09-23T00:00	17851	79	-54.5	-84.8	213	14
2023-09-23T00:00	17871	79	-54.6	-84.8	212	14
2023-09-23T00:00	17892	79	-54.6	-84.8	211	14
2023-09-23T00:00	17917	79	-54.3	-84.6	210	15
2023-09-23T00:00	17938	78	-54.4	-84.7	209	15
2023-09-23T00:00	17959	78	-54.2	-84.5	207	16
2023-09-23T00:00	17980	78	-54.3	-84.6	206	16
2023-09-23T00:00	18005	77	-54.4	-84.7	205	17
2023-09-23T00:00	18025	77	-54.3	-84.6	205	17
2023-09-23T00:00	18045	77	-54.4	-84.7	205	17
2023-09-23T00:00	18066	77	-54.5	-84.8	204	17
2023-09-23T00:00	18088	76	-54.4	-84.7	204	17
2023-09-23T00:00	18109	76	-54.4	-84.7	204	17
2023-09-23T00:00	18132	76	-54.4	-84.7	204	18
2023-09-23T00:00	18152	76	-54.3	-84.6	205	18
2023-09-23T00:00	18172	75	-54.4	-84.7	206	18
2023-09-23T00:00	18195	75	-54.2	-84.5	207	18
2023-09-23T00:00	18217	75	-54.2	-84.5	208	18
2023-09-23T00:00	18240	75	-54.3	-84.6	210	19
2023-09-23T00:00	18261	74	-54.3	-84.6	211	19
2023-09-23T00:00	18282	74	-54.4	-84.7	211	19
2023-09-23T00:00	18303	74	-54.4	-84.7	210	19
2023-09-23T00:00	18327	74	-54.5	-84.8	209	18
2023-09-23T00:00	18349	73	-54.6	-84.8	208	18
2023-09-23T00:00	18371	73	-54.6	-84.8	206	18
2023-09-23T00:00	18393	73	-54.4	-84.7	204	18
2023-09-23T00:00	18414	73	-54.3	-84.6	203	18
2023-09-23T00:00	18433	72	-54.1	-84.5	202	18
2023-09-23T00:00	18459	72	-54.2	-84.5	202	17
2023-09-23T00:00	18483	72	-54.3	-84.6	202	17
2023-09-23T00:00	18503	72	-54.4	-84.7	202	17
2023-09-23T00:00	18530	71	-54.1	-84.5	202	17
2023-09-23T00:00	18548	71	-54.2	-84.5	201	16
2023-09-23T00:00	18573	71	-54.4	-84.7	201	16
2023-09-23T00:00	18597	71	-54.6	-84.8	202	16
2023-09-23T00:00	18624	70	-54.8	-85.0	203	16
2023-09-23T00:00	18646	70	-54.9	-84.6	204	15
2023-09-23T00:00	18671	70	-55.0	-84.6	206	15
2023-09-23T00:00	18697	70	-55.1	-84.7	207	15
2023-09-23T00:00	18720	69	-55.3	-84.9	209	15
2023-09-23T00:00	18743	69	-55.5	-85.0	211	15
2023-09-23T00:00	18768	69	-55.5	-85.5	212	15
2023-09-23T00:00	18790	69	-55.1	-85.2	214	15
2023-09-23T00:00	18815	68	-54.9	-85.1	215	15
2023-09-23T00:00	18838	68	-54.9	-85.1	216	14
2023-09-23T00:00	18862	68	-54.6	-85.4	217	14
2023-09-23T00:00	18886	68	-54.4	-85.2	217	13
2023-09-23T00:00	18907	67	-54.4	-85.2	217	13
2023-09-23T00:00	18930	67	-54.1	-85.0	216	13
2023-09-23T00:00	18953	67	-53.9	-84.9	214	13
2023-09-23T00:00	18977	67	-53.8	-84.8	213	12
2023-09-23T00:00	18996	66	-53.8	-84.8	211	12
2023-09-23T00:00	19022	66	-53.9	-84.9	210	12
2023-09-23T00:00	19042	66	-53.8	-84.8	209	13
2023-09-23T00:00	19066	66	-54.0	-84.9	208	13
2023-09-23T00:00	19089	65	-53.9	-84.9	208	13
2023-09-23T00:00	19110	65	-53.9	-84.9	208	13
2023-09-23T00:00	19132	65	-54.0	-84.9	209	14
2023-09-23T00:00	19154	65	-54.2	-84.5	209	14
2023-09-23T00:00	19178	65	-54.4	-84.7	210	14
2023-09-23T00:00	19201	64	-54.6	-84.8	211	14
2023-09-23T00:00	19223	64	-54.7	-84.9	211	14
2023-09-23T00:00	19242	64	-55.0	-85.1	212	14
2023-09-23T00:00	19267	64	-55.2	-84.8	212	14
2023-09-23T00:00	19291	63	-55.3	-84.9	213	14
2023-09-23T00:00	19308	63	-55.5	-85.0	213	15
2023-09-23T00:00	19332	63	-55.6	-85.1	214	15
2023-09-23T00:00	19358	63	-55.8	-85.2	215	15
2023-09-23T00:00	19375	63	-55.9	-85.3	216	16
2023-09-23T00:00	19398	62	-56.1	-85.5	218	16
2023-09-23T00:00	19420	62	-56.0		219	16
2023-09-23T00:00	19443	62	-56.1	-85.5	220	16
2023-09-23T00:00	19465	62	-55.8	-85.7	221	16
2023-09-23T00:00	19482	62	-55.8	-85.7	222	15
2023-09-23T00:00	19502	61	-55.9	-85.8	222	15
2023-09-23T00:00	19523	61	-56.0	-85.9	223	16
2023-09-23T00:00	19546	61	-56.1	-86.0	223	16
2023-09-23T00:00	19571	61	-56.0		223	16
2023-09-23T00:00	19587	60	-56.2	-85.5	223	16
2023-09-23T00:00	19611	60	-56.4	-85.7	223	15
2023-09-23T00:00	19635	60	-56.5	-85.8	222	15
2023-09-23T00:00	19660	60	-56.6	-86.3	221	14
2023-09-23T00:00	19684	60	-55.9	-85.8	220	13
2023-09-23T00:00	19703	59	-55.4	-86.0	219	12
2023-09-23T00:00	19728	59	-55.1	-85.8	217	11
2023-09-23T00:00	19749	59	-55.0	-85.7	216	11
2023-09-23T00:00	19771	59	-55.1	-85.8	215	10
2023-09-23T00:00	19793	59	-55.1	-85.8	214	10
2023-09-23T00:00	19816	58	-55.2	-85.8	212	10
2023-09-23T00:00	19844	58	-55.3	-85.4	210	10
2023-09-23T00:00	19861	58	-55.4	-85.4	208	10
2023-09-23T00:00	19888	58	-55.5	-85.5	208	11
2023-09-23T00:00	19913	57	-55.7	-85.7	209	11
2023-09-23T00:00	19937	57	-55.8	-85.7	210	11
2023-09-23T00:00	19958	57	-55.7	-85.7	212	12
2023-09-23T00:00	19985	57	-55.5	-85.5	213	12
2023-09-23T00:00	20010	57	-55.6	-86.1	214	12
2023-09-23T00:00	20037	56	-55.3	-85.9	215	12
2023-09-23T00:00	20061	56	-54.9	-85.6	215	12
2023-09-23T00:00	20083	56	-54.4	-85.2	216	13
2023-09-23T00:00	20109	56	-54.6	-85.4	216	13
2023-09-23T00:00	20130	56	-54.8	-85.5	217	13
2023-09-23T00:00	20158	55	-55.0	-85.7	218	13
2023-09-23T00:00	20182	55	-55.2	-85.3	219	13
2023-09-23T00:00	20205	55	-55.4	-85.4	220	13
2023-09-23T00:00	20231	55	-55.6	-85.6	221	13
2023-09-23T00:00	20252	55	-55.8	-85.2	223	13
2023-09-23T00:00	20273	54	-56.0	-85.9	225	14
2023-09-23T00:00	20301	54	-56.2	-86.0	229	14
2023-09-23T00:00	20322	54	-55.8	-85.7	232	14
2023-09-23T00:00	20346	54	-55.5	-85.5	235	14
2023-09-23T00:00	20370	54	-55.5	-85.5	238	14
2023-09-23T00:00	20397	53	-55.5	-85.5	239	13
2023-09-23T00:00	20415	53	-55.6	-85.6	241	13
2023-09-23T00:00	20441	53	-55.6	-85.6	242	13
2023-09-23T00:00	20466	53	-55.5	-85.5	242	12
2023-09-23T00:00	20489	53	-55.5	-85.5	243	12
2023-09-23T00:00	20517	52	-55.3	-85.4	244	11
2023-09-23T00:00	20539	52	-55.4	-85.4	244	10
2023-09-23T00:00	20565	52	-55.6	-85.6	245	10
2023-09-23T00:00	20589	52	-55.7	-85.7	244	9
2023-09-23T00:00	20612	52	-55.7	-85.7	242	8
2023-09-23T00:00	20636	51	-55.8	-85.7	239	7
2023-09-23T00:00	20657	51	-56.0	-85.9	234	7
2023-09-23T00:00	20680	51	-56.0	-85.9	229	6
2023-09-23T00:00	20699	51	-56.0	-85.9	224	6
2023-09-23T00:00	20717	51	-56.1	-86.0	220	6
2023-09-23T00:00	20739	50	-56.2	-86.0	216	6
2023-09-23T00:00	20762	50	-56.3	-85.6	212	5
2023-09-23T00:00	20784	50	-56.4	-85.7	207	5
2023-09-23T00:00	20805	50	-56.6	-85.8	201	5
2023-09-23T00:00	20825	50	-56.7	-85.9	194	5
2023-09-23T00:00	20845	50	-56.8	-86.0	187	5
2023-09-23T00:00	20867	49	-56.8	-86.0	182	5
2023-09-23T00:00	20896	49	-57.0	-86.1	179	5
2023-09-23T00:00	20911	49	-57.2	-86.3	178	6
2023-09-23T00:00	20939	49	-57.3	-86.4	180	6
2023-09-23T00:00	20957	49	-57.5	-86.5	184	6
2023-09-23T00:00	20981	49	-57.6	-86.6	189	6
2023-09-23T00:00	21004	48	-57.4	-86.4	194	6
2023-09-23T00:00	21023	48	-56.9	-86.1	198	6
2023-09-23T00:00	21044	48	-56.9	-86.1	201	6
2023-09-23T00:00	21070	48	-57.0	-86.1	204	6
2023-09-23T00:00	21096	48	-57.1	-86.7	206	6
2023-09-23T00:00	21113	48	-57.1	-86.7	207	7
2023-09-23T00:00	21138	47	-56.9	-86.6	207	7
2023-09-23T00:00	21160	47	-56.9	-86.6	208	7
2023-09-23T00:00	21190	47	-56.9	-86.1	208	8
2023-09-23T00:00	21205	47	-57.0	-86.1	209	8
2023-09-23T00:00	21231	47	-57.1	-86.2	210	8
2023-09-23T00:00	21253	47	-57.3	-86.4	211	8
2023-09-23T00:00	21280	46	-57.4	-86.4	212	9
2023-09-23T00:00	21301	46	-57.5	-86.5	212	9
2023-09-23T00:00	21330	46	-57.5	-86.5	213	10
2023-09-23T00:00	21358	46	-57.4	-86.9	213	10
2023-09-23T00:00	21381	46	-56.9	-86.6	214	10
2023-09-23T00:00	21403	45	-56.7	-86.4	215	10
2023-09-23T00:00	21425	45	-56.2	-86.6	217	10
2023-09-23T00:00	21450	45	-55.8	-86.3	219	10
2023-09-23T00:00	21476	45	-56.0	-86.4	221	9
2023-09-23T00:00	21500	45	-56.2	-86.0	223	9
2023-09-23T00:00	21525	45	-56.3	-86.1	226	9
2023-09-23T00:00	21548	44	-56.4	-86.2	228	9
2023-09-23T00:00	21566	44	-56.4	-86.2	230	8
2023-09-23T00:00	21593	44	-56.3	-86.1	230	8
2023-09-23T00:00	21622	44	-56.0	-85.9	229	8
2023-09-23T00:00	21645	44	-56.1	-86.0	228	8
2023-09-23T00:00	21666	44	-56.3	-86.1	226	8
2023-09-23T00:00	21692	43	-56.5	-86.3	225	8
2023-09-23T00:00	21715	43	-56.4	-86.2	224	9
2023-09-23T00:00	21741	43	-56.5	-86.3	225	9
2023-09-23T00:00	21765	43	-56.6	-86.3	226	10
2023-09-23T00:00	21784	43	-56.5	-86.3	227	10
2023-09-23T00:00	21812	43	-56.4	-86.2	228	11
2023-09-23T00:00	21838	42	-56.4	-86.2	228	12
2023-09-23T00:00	21859	42	-56.6	-86.3	227	12
2023-09-23T00:00	21883	42	-56.5	-86.3	226	13
2023-09-23T00:00	21911	42	-56.6	-86.3	225	13
2023-09-23T00:00	21928	42	-56.7	-86.4	224	13
2023-09-23T00:00	21953	42	-56.8	-86.5	223	13
2023-09-23T00:00	21981	42	-56.8	-86.5	221	12
2023-09-23T00:00	22003	41	-56.8	-86.5	219	12
2023-09-23T00:00	22025	41	-56.5	-86.3	216	11
2023-09-23T00:00	22050	41	-56.3	-86.6	213	10
2023-09-23T00:00	22071	41	-55.7	-86.2	209	10
2023-09-23T00:00	22095	41	-55.7	-86.2	206	9
2023-09-23T00:00	22120	41	-55.7	-86.2	203	9
2023-09-23T00:00	22148	40	-55.9	-86.3	201	9
2023-09-23T00:00	22169	40	-56.0	-86.4	199	9
2023-09-23T00:00	22192	40	-56.0	-85.9	198	9
2023-09-23T00:00	22217	40	-56.0	-85.9	197	9
2023-09-23T00:00	22241	40	-56.1	-86.0	196	9
2023-09-23T00:00	22258	40	-55.8	-85.7	195	9
2023-09-23T00:00	22289	40	-55.6	-85.6	194	9
2023-09-23T00:00	22309	39	-55.9	-85.8	193	9
2023-09-23T00:00	22331	39	-56.0	-85.9	191	9
2023-09-23T00:00	22360	39	-56.1	-86.0	188	9
2023-09-23T00:00	22384	39	-56.1	-86.0	186	9
2023-09-23T00:00	22407	39	-56.3	-86.1	184	9
2023-09-23T00:00	22431	39	-56.5	-86.3	183	9
2023-09-23T00:00	22453	39	-56.6	-85.8	183	9
2023-09-23T00:00	22477	38	-56.7	-85.9	183	10
2023-09-23T00:00	22503	38	-56.7	-85.9	185	10
2023-09-23T00:00	22520	38	-56.8	-86.0	188	10
2023-09-23T00:00	22552	38	-57.0	-86.1	190	10
2023-09-23T00:00	22573	38	-57.1	-86.2	193	10
2023-09-23T00:00	22593	38	-57.1	-86.2	195	10
2023-09-23T00:00	22611	38	-56.9	-86.6	196	11
2023-09-23T00:00	22641	37	-56.9	-86.6	197	12
2023-09-23T00:00	22660	37	-56.7	-86.4	197	12
2023-09-23T00:00	22688	37	-56.6	-86.3	197	13
2023-09-23T00:00	22709	37	-56.5	-86.8	198	14
2023-09-23T00:00	22730	37	-56.5	-86.8	199	14
2023-09-23T00:00	22760	37	-56.5	-86.8	200	14
2023-09-23T00:00	22779	37	-56.4		203	14
2023-09-23T00:00	22800	37	-56.2	-86.6	206	13
2023-09-23T00:00	22822	36	-55.8	-86.3	210	13
2023-09-23T00:00	22847	36	-55.7	-86.8	215	13
2023-09-23T00:00	22867	36	-55.2	-86.4	219	13
2023-09-23T00:00	22893	36	-55.1	-86.4	223	13
2023-09-23T00:00	22911	36	-54.9	-86.2	227	13
2023-09-23T00:00	22939	36	-54.7	-86.1	231	13
2023-09-23T00:00	22962	36	-54.6	-86.0	234	12
2023-09-23T00:00	22984	35	-54.4	-85.8	237	12
2023-09-23T00:00	23001	35	-54.5	-85.9	240	11
2023-09-23T00:00	23026	35	-54.6	-86.0	243	11
2023-09-23T00:00	23054	35	-54.6	-85.4	246	11
2023-09-23T00:00	23073	35	-54.7	-85.5	250	11
2023-09-23T00:00	23096	35	-54.9	-85.6	253	11
2023-09-23T00:00	23121	35	-55.1	-85.8	254	11
2023-09-23T00:00	23141	35	-55.2	-85.8	255	11
2023-09-23T00:00	23171	34	-55.3	-85.9	254	11
2023-09-23T00:00	23194	34	-55.4	-86.0	252	10
2023-09-23T00:00	23225	34	-55.5	-86.1	250	10
2023-09-23T00:00	23243	34	-55.5	-86.1	248	10
2023-09-23T00:00	23273	34	-55.6	-85.6	246	10
2023-09-23T00:00	23294	34	-55.7	-85.7	244	10
2023-09-23T00:00	23321	34	-55.9	-85.8	242	9
2023-09-23T00:00	23342	34	-56.1	-86.0	241	9
2023-09-23T00:00	23368	33	-56.2	-86.0	239	9
2023-09-23T00:00	23394	33	-56.4	-86.2	237	8
2023-09-23T00:00	23423	33	-56.4	-86.2	236	8
2023-09-23T00:00	23443	33	-56.4	-86.2	235	8
2023-09-23T00:00	23473	33	-56.5	-86.3	234	8
2023-09-23T00:00	23502	33	-56.7	-86.4	235	8
2023-09-23T00:00	23526	33	-56.7	-86.4	235	8
2023-09-23T00:00	23547	32	-56.7	-86.4	237	8
2023-09-23T00:00	23577	32	-56.8	-86.5	238	9
2023-09-23T00:00	23601	32	-56.7	-86.4	240	9
2023-09-23T00:00	23630	32	-56.9	-86.6	242	9
2023-09-23T00:00	23661	32	-56.9	-86.6	244	8
2023-09-23T00:00	23682	32	-57.1	-86.7	247	8
2023-09-23T00:00	23710	32	-57.2	-86.8	250	8
2023-09-23T00:00	23738	32	-57.2	-86.8	252	9
2023-09-23T00:00	23762	31	-57.1	-86.7	254	9
2023-09-23T00:00	23791	31	-56.9	-86.6	254	9
2023-09-23T00:00	23816	31	-57.0	-86.6	252	9
2023-09-23T00:00	23845	31	-56.9	-86.6	250	10
2023-09-23T00:00	23859	31	-57.0	-86.6	248	10
2023-09-23T00:00	23891	31	-57.0	-86.6	246	10
2023-09-23T00:00	23911	31	-56.9	-86.6	246	10
2023-09-23T00:00	23935	31	-56.9	-86.6	247	10
2023-09-23T00:00	23970	30	-56.9	-86.6	248	10
2023-09-23T00:00	23994	30	-56.7	-86.9	250	10
2023-09-23T00:00	24012	30	-56.9	-87.1	252	9
2023-09-23T00:00	24037	30	-56.6	-86.9	254	10
2023-09-23T00:00	24061	30	-56.2	-86.6	256	10
2023-09-23T00:00	24085	30	-56.1	-86.5	256	10
2023-09-23T00:00	24114	30	-56.1	-86.5	257	9
2023-09-23T00:00	24133	30	-56.0	-86.4	256	9
2023-09-23T00:00	24155	29	-55.6	-86.1	255	9
2023-09-23T00:00	24180	29	-55.7	-86.8	254	9
2023-09-23T00:00	24194	29	-55.7	-86.8	254	9
2023-09-23T00:00	24220	29	-55.2	-86.4	255	9
2023-09-23T00:00	24249	29	-55.3	-86.5	256	9
2023-09-23T00:00	24265	29	-55.2	-86.4	255	8
2023-09-23T00:00	24292	29	-55.2	-86.4	253	8
2023-09-23T00:00	24319	29	-55.2	-86.4	250	8
2023-09-23T00:00	24342	29	-55.1	-86.4	245	8
2023-09-23T00:00	24364	29	-55.0	-86.3	240	8
2023-09-23T00:00	24386	28	-54.9	-85.6	235	8
2023-09-23T00:00	24406	28	-55.0	-85.7	231	8
2023-09-23T00:00	24429	28	-55.1	-85.8	227	8
2023-09-23T00:00	24458	28	-55.1	-85.8	224	8
2023-09-23T00:00	24474	28	-55.2	-85.8	221	8
2023-09-23T00:00	24500	28	-55.3	-85.9	219	8
2023-09-23T00:00	24529	28	-55.4	-86.0	217	9
2023-09-23T00:00	24555	28	-55.6	-85.6	215	9
2023-09-23T00:00	24581	28	-55.8	-85.7	213	10
2023-09-23T00:00	24606	27	-56.0	-85.9	212	10
2023-09-23T00:00	24628	27	-56.2	-86.0	211	10
2023-09-23T00:00	24658	27	-56.3	-86.1	211	10
2023-09-23T00:00	24683	27	-56.1	-86.0	212	9
2023-09-23T00:00	24705	27	-56.1	-86.0	214	9
2023-09-23T00:00	24732	27	-56.2	-86.0	215	8
2023-09-23T00:00	24760	27	-56.1	-86.0	216	8
2023-09-23T00:00	24781	27	-56.2	-86.0	216	7
2023-09-23T00:00	24807	27	-56.3	-86.1	215	6
2023-09-23T00:00	24835	27	-56.5	-86.3	212	6
2023-09-23T00:00	24858	26	-56.6	-86.3	207	5
2023-09-23T00:00	24882	26	-56.6	-86.3	202	5
2023-09-23T00:00	24913	26	-56.8	-86.5	198	6
2023-09-23T00:00	24935	26	-56.9	-86.6	195	6
2023-09-23T00:00	24958	26	-56.8	-86.5	193	6
2023-09-23T00:00	24993	26	-56.7	-86.4	191	7
2023-09-23T00:00	25016	26	-56.5	-86.8	190	7
2023-09-23T00:00	25038	26	-56.5	-86.8	189	7
2023-09-23T00:00	25066	26	-56.5	-86.3	189	7
2023-09-23T00:00	25089	25	-56.6	-86.3	192	7
2023-09-23T00:00	25114	25	-56.8	-86.5	196	7
2023-09-23T00:00	25141	25	-56.9	-86.6	201	8
2023-09-23T00:00	25164	25	-57.0	-86.6	207	8
2023-09-23T00:00	25195	25	-57.1	-86.7	211	8
2023-09-23T00:00	25213	25	-57.1	-86.7	214	8
2023-09-23T00:00	25245	25	-57.1	-86.7	217	8
2023-09-23T00:00	25260	25	-56.9	-86.6	221	8
2023-09-23T00:00	25293	25	-56.9	-86.6	227	8
2023-09-23T00:00	25315	25	-56.9	-86.6	234	8
2023-09-23T00:00	25347	24	-57.0	-86.6	240	8
2023-09-23T00:00	25362	24	-57.1	-86.7	246	8
2023-09-23T00:00	25386	24	-57.2	-87.3	249	8
2023-09-23T00:00	25411	24	-56.8	-87.0	250	8
2023-09-23T00:00	25439	24	-56.7	-86.9	249	8
2023-09-23T00:00	25463	24	-56.7	-86.9	246	8
2023-09-23T00:00	25490	24	-56.8	-87.0	241	8
2023-09-23T00:00	25512	24	-56.9	-87.1	237	9
2023-09-23T00:00	25533	24	-56.7	-86.9	234	9
2023-09-23T00:00	25562	24	-56.7	-86.9	231	9
2023-09-23T00:00	25579	24	-56.7	-86.4	229	10
2023-09-23T00:00	25603	23	-56.8	-86.5	228	10
2023-09-23T00:00	25632	23	-56.9	-86.6	228	11
2023-09-23T00:00	25652	23	-57.0	-86.6	229	11
2023-09-23T00:00	25681	23	-57.1	-86.7	230	12
2023-09-23T00:00	25703	23	-57.3	-86.9	230	12
2023-09-23T00:00	25726	23	-57.4	-86.9	229	13
2023-09-23T00:00	25747	23	-57.5	-87.0	229	13
2023-09-23T00:00	25771	23	-57.5	-87.0	228	14
2023-09-23T00:00	25790	23	-57.5	-87.0	229	14
2023-09-23T00:00	25814	23	-57.5	-87.0	230	14
2023-09-23T00:00	25837	23	-57.4	-86.9	232	14
2023-09-23T00:00	25858	23	-57.2	-86.8	236	13
2023-09-23T00:00	25883	22	-57.0	-87.2	239	13
2023-09-23T00:00	25910	22	-56.9	-87.1	243	13
2023-09-23T00:00	25925	22	-57.0	-87.2	247	12
2023-09-23T00:00	25948	22	-57.1	-87.2	251	12
2023-09-23T00:00	25971	22	-57.1	-87.2	254	12
2023-09-23T00:00	25996	22	-57.2	-86.8	258	12
2023-09-23T00:00	26024	22	-57.3	-86.9	262	11
2023-09-23T00:00	26047	22	-57.1	-87.2	266	11
2023-09-23T00:00	26064	22	-57.0	-87.2	268	11
2023-09-23T00:00	26088	22	-56.7	-86.9	268	11
2023-09-23T00:00	26111	22	-56.6	-86.9	268	10
2023-09-23T00:00	26139	22	-56.2	-87.2	266	10
2023-09-23T00:00	26157	22	-56.0	-87.0	264	10
2023-09-23T00:00	26184	21	-56.1	-86.5	261	10
2023-09-23T00:00	26204	21	-56.2	-86.6	259	10
2023-09-23T00:00	26231	21	-56.2	-86.6	258	10
2023-09-23T00:00	26258	21	-56.2	-86.6	258	10
2023-09-23T00:00	26280	21	-56.1	-86.5	259	11
2023-09-23T00:00	26304	21	-56.0	-86.4	260	11
2023-09-23T00:00	26332	21	-56.2	-86.6	260	11
2023-09-23T00:00	26362	21	-56.3	-86.6	261	12
2023-09-23T00:00	26375	21	-56.3	-86.6	262	12
2023-09-23T00:00	26399	21	-56.4		263	12
2023-09-23T00:00	26418	21	-56.3	-86.6	264	12
2023-09-23T00:00	26443	21	-56.3	-86.6	266	12
2023-09-23T00:00	26465	21	-56.3	-86.6	267	12
2023-09-23T00:00	26485	20	-56.3	-86.6	268	12
2023-09-23T00:00	26519	20	-56.3	-86.6	268	12
2023-09-23T00:00	26541	20	-56.2	-87.2	268	12
2023-09-23T00:00	26568	20	-55.4	-86.6	268	11
2023-09-23T00:00	26589	20	-55.2	-86.4	268	11
2023-09-23T00:00	26613	20	-55.2	-86.4	268	11
2023-09-23T00:00	26641	20	-55.4	-87.2	269	10
2023-09-23T00:00	26671	20	-55.0	-87.0	270	10
2023-09-23T00:00	26694	20	-54.5	-86.6	271	10
2023-09-23T00:00	26721	20	-54.3	-86.4	273	10
2023-09-23T00:00	26752	20	-54.4	-86.5	275	10
2023-09-23T00:00	26774	20	-54.4	-86.5	278	9
2023-09-23T00:00	26800	19	-54.5	-86.6	281	10
2023-09-23T00:00	26827	19	-54.5	-85.9	284	10
2023-09-23T00:00	26862	19	-54.1	-86.3	287	10
2023-09-23T00:00	26879	19	-54.1	-86.3	290	10
2023-09-23T00:00	26903	19	-54.3	-86.4	291	10
2023-09-23T00:00	26931	19	-54.1	-86.3	292	10
2023-09-23T00:00	26960	19	-53.5	-85.9	292	10
2023-09-23T00:00	26996	19	-53.1	-85.6	290	9
2023-09-23T00:00	27013	19	-53.0	-85.5	286	8
2023-09-23T00:00	27050	19	-53.1	-85.6	280	8
2023-09-23T00:00	27076	19	-53.0	-85.5	273	7
2023-09-23T00:00	27103	19	-52.9	-85.4	265	7
2023-09-23T00:00	27131	19	-53.0	-85.5	258	7
2023-09-23T00:00	27151	18	-53.1	-85.6	251	7
2023-09-23T00:00	27186	18	-53.2	-85.0	246	7
2023-09-23T00:00	27209	18	-53.4	-85.1	242	8
2023-09-23T00:00	27228	18	-53.5	-85.2	240	8
2023-09-23T00:00	27253	18	-53.3	-85.0	238	9
2023-09-23T00:00	27283	18	-53.3	-85.0	237	9
2023-09-23T00:00	27309	18	-53.4	-85.1	237	10
2023-09-23T00:00	27334	18	-53.6	-85.3	237	11
2023-09-23T00:00	27357	18	-53.9	-85.5	238	11
2023-09-23T00:00	27387	18	-54.0	-85.5	240	11
2023-09-23T00:00	27405	18	-54.2	-85.7	242	12
2023-09-23T00:00	27443	18	-54.0	-85.5	244	12
2023-09-23T00:00	27464	18	-54.1	-85.6	246	12
2023-09-23T00:00	27486	17	-54.1	-85.6	248	13
2023-09-23T00:00	27515	17	-53.9	-85.5	250	13
2023-09-23T00:00	27547	17	-53.8	-86.1	252	13
2023-09-23T00:00	27570	17	-53.5	-85.9	255	13
2023-09-23T00:00	27597	17	-53.4	-85.8	259	12
2023-09-23T00:00	27618	17	-53.1	-85.6	263	12
2023-09-23T00:00	27652	17	-53.0	-85.5	268	12
2023-09-23T00:00	27672	17	-53.1	-85.6	272	12
2023-09-23T00:00	27701	17	-53.2	-85.6	276	12
2023-09-23T00:00	27725	17	-53.3	-85.7	279	12
2023-09-23T00:00	27749	17	-53.3	-85.7	282	12
2023-09-23T00:00	27774	17	-53.3	-85.0	285	12
2023-09-23T00:00	27796	17	-53.5	-85.2	287	12
2023-09-23T00:00	27826	17	-53.6	-85.3	289	11
2023-09-23T00:00	27846	17	-53.7	-85.3	290	11
2023-09-23T00:00	27882	16	-53.7	-85.3	291	10
2023-09-23T00:00	27912	16	-53.7	-85.3	291	9
2023-09-23T00:00	27932	16	-53.9	-85.5	290	8
2023-09-23T00:00	27966	16	-53.8	-85.4	287	8
2023-09-23T00:00	27990	16	-53.9	-85.5	282	7
2023-09-23T00:00	28023	16	-53.9	-85.5	274	6
2023-09-23T00:00	28034	16	-53.9	-85.5	265	6
2023-09-23T00:00	28059	16	-53.9	-85.5	256	5
2023-09-23T00:00	28087	16	-53.7	-85.3	247	5
2023-09-23T00:00	28115	16	-53.7	-85.3	241	6
2023-09-23T00:00	28150	16	-53.8	-85.4	234	6
2023-09-23T00:00	28169	16	-53.8	-85.4	229	6
2023-09-23T00:00	28208	16	-54.0	-85.5	224	7
2023-09-23T00:00	28225	16	-54.1	-85.6	221	7
2023-09-23T00:00	28258	16	-54.2	-85.7	221	7
2023-09-23T00:00	28286	15	-54.4	-85.8	224	8
2023-09-23T00:00	28292	15	-54.4	-85.8	229	8
2023-09-23T00:00	28328	15	-54.5	-85.9	236	8
2023-09-23T00:00	28344	15	-54.5	-86.6	242	9
2023-09-23T00:00	28372	15	-53.7	-86.0	249	9
2023-09-23T00:00	28396	15	-53.5	-85.9	255	8
2023-09-23T00:00	28434	15	-53.3	-85.7	261	8
2023-09-23T00:00	28457	15	-53.2	-85.6	267	8
2023-09-23T00:00	28490	15	-53.1	-85.6	271	8
2023-09-23T00:00	28513	15	-53.2	-85.6	272	8
2023-09-23T00:00	28533	15	-53.0	-85.5	271	8
2023-09-23T00:00	28568	15	-52.8	-85.3	268	9
2023-09-23T00:00	28580	15	-52.7	-85.3	264	9
2023-09-23T00:00	28605	15	-52.6	-85.2	261	10
2023-09-23T00:00	28631	15	-52.7	-85.3	259	10
2023-09-23T00:00	28652	15	-52.7	-85.3	257	10
2023-09-23T00:00	28688	15	-52.9	-85.4	256	11
2023-09-23T00:00	28701	14	-53.1	-85.6	256	11
2023-09-23T00:00	28730	14	-53.3	-85.0	255	11
2023-09-23T00:00	28750	14	-53.5	-85.2	255	12
2023-09-23T00:00	28766	14	-53.6	-85.3	254	12
2023-09-23T00:00	28779	14	-53.9	-85.5	253	12
2023-09-23T00:00	28824	14	-54.1	-85.6	252	13
2023-09-23T00:00	28841	14	-54.3	-85.8	249	13
2023-09-23T00:00	28864	14	-54.4	-85.8	247	13
2023-09-23T00:00	28885	14	-54.4	-85.8	245	14
2023-09-23T00:00	28913	14	-54.4	-85.8	244	14
2023-09-23T00:00	28943	14	-54.3	-85.8	244	15
2023-09-23T00:00	28960	14	-54.3	-85.8	246	15
2023-09-23T00:00	28984	14	-54.2	-86.4	248	15
2023-09-23T00:00	29020	14	-53.7	-86.0	251	15
2023-09-23T00:00	29040	14	-53.6		254	16
2023-09-23T00:00	29064	14	-53.8	-86.1	257	16
2023-09-23T00:00	29086	14	-53.8	-86.1	260	16
2023-09-23T00:00	29101	14	-53.7	-86.0	263	15
2023-09-23T00:00	29123	14	-53.6		265	15
2023-09-23T00:00	29153	14	-53.5	-85.9	267	15
2023-09-23T00:00	29180	13	-53.4	-85.8	269	15
2023-09-23T00:00	29201	13	-53.4	-85.8	271	15
2023-09-23T00:00	29235	13	-53.4	-85.8	272	15
2023-09-23T00:00	29247	13	-53.0	-85.5	273	15
2023-09-23T00:00	29280	13	-53.1	-85.6	274	15
2023-09-23T00:00	29303	13	-53.1	-85.6	276	14
2023-09-23T00:00	29325	13	-52.8	-86.1	278	13
2023-09-23T00:00	29354	13	-52.7	-86.0	280	12
2023-09-23T00:00	29391	13	-52.6		283	11
2023-09-23T00:00	29417	13	-52.5	-85.9	285	10
2023-09-23T00:00	29442	13	-52.4	-85.8	288	9
2023-09-23T00:00	29466	13	-52.3	-85.8	290	9
2023-09-23T00:00	29488	13	-52.2	-85.7	292	9
2023-09-23T00:00	29514	13	-52.0	-85.5	293	9
2023-09-23T00:00	29568	13	-51.8	-85.4	294	9
2023-09-23T00:00	29576	13	-51.7	-85.3	294	10
2023-09-23T00:00	29613	13	-51.8	-85.4	295	10
2023-09-23T00:00	29634	13	-51.8	-85.4	296	10
2023-09-23T00:00	29657	12	-51.6	-85.2	296	10
2023-09-23T00:00	29686	12	-51.5	-85.2	297	9
2023-09-23T00:00	29720	12	-51.5	-85.2	298	9
2023-09-23T00:00	29743	12	-51.5	-85.2	300	8
2023-09-23T00:00	29763	12	-51.5	-85.2	302	8
2023-09-23T00:00	29806	12	-51.7	-85.3	304	7
2023-09-23T00:00	29818	12	-51.4	-85.1	307	7
2023-09-23T00:00	29851	12	-51.1	-84.9	310	6
2023-09-23T00:00	29886	12	-51.0	-84.8	312	6
2023-09-23T00:00	29898	12	-51.1	-84.9	311	6
2023-09-23T00:00	29933	12	-51.3	-85.0	309	6
2023-09-23T00:00	29941	12	-51.1	-84.9	306	6
2023-09-23T00:00	29974	12	-51.1	-84.9	302	6
2023-09-23T00:00	29999	12	-50.7	-84.6	299	6
2023-09-23T00:00	30018	12	-50.5	-84.5	296	6
2023-09-23T00:00	30042	12	-50.6	-84.5	290	6
2023-09-23T00:00	30064	12	-50.6	-84.5	284	5
2023-09-23T00:00	30088	12	-50.6	-84.5	276	5
2023-09-23T00:00	30111	12	-50.6	-84.5	269	6
2023-09-23T00:00	30136	12	-50.3	-84.3	265	6
2023-09-23T00:00	30163	12	-50.2	-84.2	263	7
2023-09-23T00:00	30184	12	-50.2	-84.2	262	7
2023-09-23T00:00	30192	12	-50.1	-84.2	262	8
2023-09-23T00:00	30219	11	-50.2	-84.2	263	8
2023-09-23T00:00	30244	11	-50.1	-84.2	264	9
2023-09-23T00:00	30277	11	-50.1	-84.2	266	9
2023-09-23T00:00	30298	11	-50.0	-85.0	269	10
2023-09-23T00:00	30315	11	-50.0	-85.0	272	10
2023-09-23T00:00	30334	11	-49.9	-84.9	275	10
2023-09-23T00:00	30368	11	-49.8	-84.8	277	10
2023-09-23T00:00	30395	11	-49.4	-84.6	279	10
2023-09-23T00:00	30438	11	-49.0	-84.3	282	10
2023-09-23T00:00	30479	11	-48.9	-84.2	283	9
2023-09-23T00:00	30510	11	-48.9	-84.2	283	8
2023-09-23T00:00	30534	11	-49.0	-84.3	281	7
2023-09-23T00:00	30549	11	-49.0	-84.3	278	7
2023-09-23T00:00	30586	11	-49.0	-84.3	274	7
2023-09-23T00:00	30619	11	-48.9	-84.2	270	7
2023-09-23T00:00	30628	11	-48.9	-84.2	265	8
2023-09-23T00:00	30658	11	-49.0	-84.3	262	8
2023-09-23T00:00	30703	11	-48.9	-84.2	260	9
2023-09-23T00:00	30711	11	-48.8	-84.1	260	9
2023-09-23T00:00	30751	11	-48.6		262	10
2023-09-23T00:00	30758	11	-48.5	-83.9	265	10
2023-09-23T00:00	30797	11	-48.7	-84.1	267	10
2023-09-23T00:00	30832	10	-48.7	-84.1	269	11
2023-09-23T00:00	30856	10	-48.6		270	11
2023-09-23T00:00	30889	10	-48.7	-84.1	271	12
2023-09-23T00:00	30902	10	-48.7	-84.1	272	12
2023-09-23T00:00	30922	10	-48.7	-84.1	275	12
2023-09-23T00:00	30972	10	-48.7	-84.1	277	12
2023-09-23T00:00	30992	10	-48.9	-84.2	279	12
2023-09-23T00:00	31021	10	-48.9	-84.2	281	12
2023-09-23T00:00	31033	10	-48.9	-84.2	283	12
2023-09-23T00:00	31074	10	-49.0	-84.3	284	12
2023-09-23T00:00	31124	10	-49.1	-84.3	285	12
2023-09-23T00:00	31132	10	-49.1	-84.3	286	12
2023-09-23T00:00	31168	10	-49.0	-84.3	287	13
2023-09-23T00:00	31201	10	-49.1	-84.3	287	13
2023-09-23T00:00	31238	10	-49.2	-84.4	285	14
2023-09-23T00:00	31256	10	-49.4	-84.6	283	15
2023-09-23T00:00	31285	10	-49.4	-84.6	281	15
2023-09-23T00:00	31322	10	-49.5	-84.6	279	16
2023-09-23T00:00	31328	10	-49.5	-84.6	277	16
2023-09-23T00:00	31358	10	-49.2	-84.4	276	17
2023-09-23T00:00	31383	10	-49.0	-84.3	275	17
2023-09-23T00:00	31425	10	-48.8	-84.1	275	17
2023-09-23T00:00	31433	10	-48.6		274	17
2023-09-23T00:00	31477	9	-48.5	-83.9	273	17
2023-09-23T00:00	31493	9	-48.4	-83.8	273	17
2023-09-23T00:00	31512	9	-48.4	-83.8	272	17
2023-09-23T00:00	31558	9	-48.3	-83.8	270	17
2023-09-23T00:00	31572	9	-48.4	-83.8	269	17
2023-09-23T00:00	31579	9	-48.5	-83.9	268	17
2023-09-23T00:00	31628	9	-48.5	-83.9	267	17
2023-09-23T00:00	31639	9	-48.4	-83.8	266	17
2023-09-23T00:00	31649	9	-48.5	-83.9	267	18
2023-09-23T00:00	31686	9	-48.4	-83.8	267	18
2023-09-23T00:00	31702	9	-48.4	-83.8	268	18
2023-09-23T00:00	31728	9	-48.5	-83.9	269	18
2023-09-23T00:00	31760	9	-48.5	-83.9	271	18
2023-09-23T00:00	31771	9	-48.5	-83.9	271	17
2023-09-23T00:00	31796	9	-48.4	-83.8	272	17
2023-09-23T00:00	31840	9	-47.8	-84.5	270	16
2023-09-23T00:00	31862	9	-47.6	-84.3	269	16
2023-09-23T00:00	31889	9	-47.7	-84.4	268	15
2023-09-23T00:00	31910	9	-47.8	-84.5	266	15
2023-09-23T00:00	31942	9	-47.8	-84.5	264	15
2023-09-23T00:00	31956	9	-47.7	-84.4	262	15
2023-09-23T00:00	31982	9	-47.6	-84.3	259	15
2023-09-23T00:00	32016	9	-47.6	-84.3	256	15
2023-09-23T00:00	32028	9	-47.3	-84.1	254	15
2023-09-23T00:00	32051	9	-47.0	-83.9	253	16
2023-09-23T00:00	32081	9	-46.6	-83.6	252	16
2023-09-23T00:00	32122	9	-46.3	-83.4	253	17
2023-09-23T00:00	32152	9	-46.2	-83.4	253	18
2023-09-23T00:00	32172	9	-45.7	-83.0	254	18
2023-09-23T00:00	32201	8	-45.8	-83.1	255	18
2023-09-23T00:00	32221	8	-46.0	-83.2	256	19
2023-09-23T00:00	32246	8	-46.0	-83.2	258	19
2023-09-23T00:00	32275	8	-46.1	-83.3	259	20
2023-09-23T00:00	32290	8	-46.2	-83.4	260	20
2023-09-23T00:00	32329	8	-46.1	-83.3	261	20
2023-09-23T00:00	32367	8	-46.2	-83.4	262	20
2023-09-23T00:00	32377	8	-46.4	-83.5	262	20
2023-09-23T00:00	32400	8	-46.5	-83.6	263	20
2023-09-23T00:00	32443	8	-46.6	-83.6	262	20
2023-09-23T00:00	32472	8	-46.7	-83.7	262	20
2023-09-23T00:00	32503	8	-46.7	-82.6	262	20
2023-09-23T00:00	32524	8	-46.9	-82.8	261	20
2023-09-23T00:00	32528	8	-47.0	-82.9	260	20
2023-09-23T00:00	32564	8	-47.1	-82.9	259	20
2023-09-23T00:00	32609	8	-47.3	-83.1	258	20
2023-09-23T00:00	32619	8	-47.4	-84.2	257	20
2023-09-23T00:00	32630	8	-47.3	-84.1	257	20
2023-09-23T00:00	32668	8	-47.1	-84.0	257	20
2023-09-23T00:00	32696	8	-47.1	-84.0	258	20
2023-09-23T00:00	32742	8	-47.0	-83.9	258	20
2023-09-23T00:00	32747	8	-46.8	-83.8	259	20
2023-09-23T00:00	32795	8	-46.7	-83.7	260	20
2023-09-23T00:00	32819	8	-46.8	-83.8	261	20
2023-09-23T00:00	32844	8	-47.0	-83.9	262	20
2023-09-23T06:00	-999					
2023-09-23T06:00	129	994	12.0	10.9	243	4
2023-09-23T06:00	152	992	11.9	10.6	240	6
2023-09-23T06:00	173	989	11.9	10.5	240	7
2023-09-23T06:00	196	986	12.1	10.3	239	9
2023-09-23T06:00	222	983	12.3	10.1	239	10
2023-09-23T06:00	247	980	12.3	10.2	240	11
2023-09-23T06:00	274	977	12.3	9.9	241	11
2023-09-23T06:00	298	975	12.3	9.8	242	12
2023-09-23T06:00	319	972	12.1	9.6	243	12
2023-09-23T06:00	346	969	11.9	9.6	245	12
2023-09-23T06:00	367	966	11.7	9.4	247	13
2023-09-23T06:00	392	964	11.5	9.4	250	13
2023-09-23T06:00	421	960	11.3	9.3	254	14
2023-09-23T06:00	448	957	11.1	9.2	257	14
2023-09-23T06:00	474	954	11.0	9.0	260	14
2023-09-23T06:00	493	952	11.1	8.5	262	14
2023-09-23T06:00	515	950	11.3	8.2	263	13
2023-09-23T06:00	536	947	11.2	8.1	264	13
2023-09-23T06:00	556	945	11.1	7.9	264	12
2023-09-23T06:00	576	943	11.1	7.7	264	11
2023-09-23T06:00	602	940	10.9	7.6	264	11
2023-09-23T06:00	624	937	10.9	7.4	264	10
2023-09-23T06:00	650	935	10.8	7.3	264	10
2023-09-23T06:00	672	932	10.8	7.0	264	10
2023-09-23T06:00	696	929	11.0	5.9	264	10
2023-09-23T06:00	720	927	11.1	5.7	265	10
2023-09-23T06:00	740	924	10.9	5.7	265	11
2023-09-23T06:00	765	922	10.7	5.5	265	11
2023-09-23T06:00	788	919	10.5	5.4	265	11
2023-09-23T06:00	811	916	10.3	5.4	265	12
2023-09-23T06:00	837	914	10.1	5.3	264	12
2023-09-23T06:00	860	911	9.9	4.9	264	13
2023-09-23T06:00	889	908	9.7	4.8	263	13
2023-09-23T06:00	913	905	9.6	4.7	262	13
2023-09-23T06:00	938	903	9.4	4.4	261	13
2023-09-23T06:00	960	900	9.3	4.4	260	13
2023-09-23T06:00	980	898	9.2	4.2	259	12
2023-09-23T06:00	1000	896	9.1	4.3	258	12
2023-09-23T06:00	1018	894	9.0	4.5	257	12
2023-09-23T06:00	1041	891	9.1	4.2	254	12
2023-09-23T06:00	1068	889	9.1	3.8	250	11
2023-09-23T06:00	1088	886	9.1	2.3	246	11
2023-09-23T06:00	1112	884	9.1	2.4	241	11
2023-09-23T06:00	1133	882	8.9	2.6	237	11
2023-09-23T06:00	1157	879	8.7	3.1	233	10
2023-09-23T06:00	1180	877	8.7	3.3	230	10
2023-09-23T06:00	1202	874	8.8	2.3	228	10
2023-09-23T06:00	1227	872	8.8	2.1	228	10
2023-09-23T06:00	1253	869	8.7	1.9	228	10
2023-09-23T06:00	1277	866	8.7	2.3	228	10
2023-09-23T06:00	1303	864	8.5	2.6	228	10
2023-09-23T06:00	1328	861	8.4	2.6	228	10
2023-09-23T06:00	1352	859	8.2	2.7	227	10
2023-09-23T06:00	1378	856	7.9	2.7	226	10
2023-09-23T06:00	1399	854	7.7	2.8	225	10
2023-09-23T06:00	1419	852	7.6	3.2	224	11
2023-09-23T06:00	1442	849	7.3	3.2	223	11
2023-09-23T06:00	1468	847	7.1	3.0	222	11
2023-09-23T06:00	1497	844	6.9	3.2	222	10
2023-09-23T06:00	1520	841	6.7	3.1	223	10
2023-09-23T06:00	1542	839	6.5	3.2	224	10
2023-09-23T06:00	1560	837	6.3	3.0	226	10
2023-09-23T06:00	1583	835	6.2	2.7	226	10
2023-09-23T06:00	1610	832	5.9	2.6	226	10
2023-09-23T06:00	1632	830	5.7	2.5	225	11
2023-09-23T06:00	1657	827	5.5	2.5	223	11
2023-09-23T06:00	1686	824	5.2	2.5	221	12
2023-09-23T06:00	1709	822	5.0	2.3	220	12
2023-09-23T06:00	1732	820	4.8	2.4	218	12
2023-09-23T06:00	1757	817	4.6	2.1	218	12
2023-09-23T06:00	1779	815	4.5	1.7	217	12
2023-09-23T06:00	1800	813	4.3	1.5	217	12
2023-09-23T06:00	1825	811	4.2	1.1	217	12
2023-09-23T06:00	1848	808	4.1	0.7	217	12
2023-09-23T06:00	1874	806	3.9	0.9	218	11
2023-09-23T06:00	1900	803	3.7	0.9	218	11
2023-09-23T06:00	1928	800	3.5	0.9	218	10
2023-09-23T06:00	1951	798	3.3	0.8	218	11
2023-09-23T06:00	1975	796	3.1	-0.1	217	11
2023-09-23T06:00	2005	793	2.9	0.1	217	11
2023-09-23T06:00	2030	790	2.7	-0.1	218	11
2023-09-23T06:00	2050	788	2.5	-0.1	219	12
2023-09-23T06:00	2075	786	2.4	-0.8	221	12
2023-09-23T06:00	2099	784	2.2	-0.9	223	12
2023-09-23T06:00	2120	781	2.1	-0.9	224	12
2023-09-23T06:00	2145	779	1.9	-0.7	224	12
2023-09-23T06:00	2173	776	1.8	-1.2	224	12
2023-09-23T06:00	2198	774	1.7	-0.9	223	12
2023-09-23T06:00	2222	772	1.5	-1.2	222	12
2023-09-23T06:00	2247	769	1.3	-1.5	221	12
2023-09-23T06:00	2269	767	1.2	-1.3	221	12
2023-09-23T06:00	2293	765	0.9	-1.4	220	12
2023-09-23T06:00	2318	763	0.8	-1.3	220	12
2023-09-23T06:00	2341	760	0.6	-1.5	221	12
2023-09-23T06:00	2365	758	0.4	-1.4	221	11
2023-09-23T06:00	2385	756	0.2	-1.4	222	11
2023-09-23T06:00	2413	754	0.0	-1.4	223	11
2023-09-23T06:00	2440	751	-0.2	-1.4	223	11
2023-09-23T06:00	2463	749	-0.2	-1.9	223	11
2023-09-23T06:00	2492	746	-0.3	-2.3	222	12
2023-09-23T06:00	2522	743	-0.5	-2.5	222	12
2023-09-23T06:00	2549	741	-0.6	-3.4	222	12
2023-09-23T06:00	2577	738	-0.8	-3.2	223	13
2023-09-23T06:00	2603	736	-1.0	-3.1	224	13
2023-09-23T06:00	2628	734	-1.2	-2.6	224	13
2023-09-23T06:00	2652	731	-1.4	-2.4	225	13
2023-09-23T06:00	2681	729	-0.9	-2.9	224	13
2023-09-23T06:00	2707	726	-1.1	-3.1	224	13
2023-09-23T06:00	2734	724	-1.3	-3.2	225	13
2023-09-23T06:00	2759	722	-1.5	-4.0	226	13
2023-09-23T06:00	2787	719	-1.4	-5.4	227	13
2023-09-23T06:00	2810	717	-1.6	-3.6	227	13
2023-09-23T06:00	2831	715	-1.6	-3.9	227	13
2023-09-23T06:00	2849	713	-1.8	-4.0	227	13
2023-09-23T06:00	2874	711	-1.9	-4.0	226	13
2023-09-23T06:00	2900	709	-1.9	-4.9	226	13
2023-09-23T06:00	2924	707	-2.0	-5.6	227	13
2023-09-23T06:00	2949	705	-2.2	-5.9	227	14
2023-09-23T06:00	2970	703	-2.4	-6.5	228	14
2023-09-23T06:00	2997	700	-2.4	-9.1	227	14
2023-09-23T06:00	3025	698	-2.1	-18.0	226	14
2023-09-23T06:00	3048	696	-2.3	-6.8	225	14
2023-09-23T06:00	3070	694	-2.3	-7.8	224	14
2023-09-23T06:00	3094	692	-2.4	-9.2	224	14
2023-09-23T06:00	3120	690	-2.5	-9.2	223	14
2023-09-23T06:00	3145	687	-2.7	-7.4	223	14
2023-09-23T06:00	3169	685	-2.8	-8.1	222	14
2023-09-23T06:00	3190	684	-2.9	-7.5	221	14
2023-09-23T06:00	3215	681	-3.2	-6.8	220	14
2023-09-23T06:00	3242	679	-3.4	-6.4	220	14
2023-09-23T06:00	3269	677	-3.4	-7.6	221	14
2023-09-23T06:00	3293	675	-3.3	-8.1	221	14
2023-09-23T06:00	3313	673	-3.3	-9.5	221	14
2023-09-23T06:00	3332	671	-3.3	-9.8	221	14
2023-09-23T06:00	3352	670	-3.5	-10.3	220	14
2023-09-23T06:00	3377	668	-3.3	-10.7	218	14
2023-09-23T06:00	3402	666	-3.5	-11.1	217	14
2023-09-23T06:00	3430	663	-3.5	-11.6	216	14
2023-09-23T06:00	3452	661	-3.5	-11.7	216	14
2023-09-23T06:00	3469	660	-3.5	-12.4	217	14
2023-09-23T06:00	3498	658	-3.8	-12.1	217	15
2023-09-23T06:00	3525	655	-4.0	-10.7	217	15
2023-09-23T06:00	3546	654	-4.2	-10.3	217	16
2023-09-23T06:00	3565	652	-4.3	-10.5	216	16
2023-09-23T06:00	3594	650	-4.4	-10.2	215	16
2023-09-23T06:00	3622	647	-4.3	-11.6	214	16
2023-09-23T06:00	3640	646	-4.2	-13.1	213	16
2023-09-23T06:00	3662	644	-4.2	-13.9	213	16
2023-09-23T06:00	3684	642	-4.3	-13.4	213	16
2023-09-23T06:00	3707	640	-4.5	-13.7	212	15
2023-09-23T06:00	3729	639	-4.7	-13.9	211	15
2023-09-23T06:00	3749	637	-4.9	-14.0	211	15
2023-09-23T06:00	3778	635	-5.1	-14.4	210	15
2023-09-23T06:00	3798	633	-5.2	-15.2	210	15
2023-09-23T06:00	3817	631	-5.4	-15.3	211	14
2023-09-23T06:00	3834	630	-5.6	-15.7	211	14
2023-09-23T06:00	3859	628	-5.7	-16.3	211	14
2023-09-23T06:00	3884	626	-5.9	-16.6	212	14
2023-09-23T06:00	3907	624	-6.0	-17.3	212	14
2023-09-23T06:00	3932	622	-6.1	-17.6	213	14
2023-09-23T06:00	3952	621	-6.3	-16.5	213	14
2023-09-23T06:00	3972	619	-6.5	-16.3	213	14
2023-09-23T06:00	3993	617	-6.7	-17.0	213	14
2023-09-23T06:00	4015	616	-6.8	-17.2	212	14
2023-09-23T06:00	4044	613	-7.1	-16.1	213	14
2023-09-23T06:00	4067	611	-7.4	-15.8	213	14
2023-09-23T06:00	4086	610	-7.5	-15.3	213	14
2023-09-23T06:00	4109	608	-7.8	-15.0	213	14
2023-09-23T06:00	4142	606	-8.1	-14.9	212	14
2023-09-23T06:00	4169	604	-8.3	-14.9	211	13
2023-09-23T06:00	4188	602	-8.5	-15.3	211	13
2023-09-23T06:00	4208	601	-8.6	-15.3	211	13
2023-09-23T06:00	4232	599	-8.8	-16.0	212	13
2023-09-23T06:00	4264	596	-9.1	-16.3	212	13
2023-09-23T06:00	4292	594	-9.4	-16.9	212	13
2023-09-23T06:00	4319	592	-9.6	-16.6	211	13
2023-09-23T06:00	4344	590	-9.7	-15.9	211	14
2023-09-23T06:00	4368	588	-9.9	-15.9	211	14
2023-09-23T06:00	4391	586	-10.1	-16.2	211	14
2023-09-23T06:00	4416	585	-10.1	-16.5	211	14
2023-09-23T06:00	4440	583	-10.2	-17.0	210	14
2023-09-23T06:00	4465	581	-10.3	-18.5	210	14
2023-09-23T06:00	4491	579	-10.3	-19.7	210	14
2023-09-23T06:00	4516	577	-10.4	-19.8	210	14
2023-09-23T06:00	4546	575	-10.6	-19.9	210	14
2023-09-23T06:00	4570	573	-10.8	-20.2	210	14
2023-09-23T06:00	4591	571	-11.0	-21.3	210	14
2023-09-23T06:00	4613	570	-11.2	-21.6	209	14
2023-09-23T06:00	4634	568	-11.4	-21.6	208	14
2023-09-23T06:00	4665	566	-11.6	-21.7	208	14
2023-09-23T06:00	4688	564	-11.7	-21.7	207	15
2023-09-23T06:00	4708	563	-11.8	-21.6	206	15
2023-09-23T06:00	4729	561	-12.0	-21.4	206	15
2023-09-23T06:00	4756	559	-12.2	-20.7	205	15
2023-09-23T06:00	4778	558	-12.4	-20.7	205	15
2023-09-23T06:00	4804	556	-12.6	-20.7	205	15
2023-09-23T06:00	4829	554	-12.8	-20.6	204	14
2023-09-23T06:00	4854	552	-13.1	-20.8	203	14
2023-09-23T06:00	4880	550	-13.3	-20.9	202	14
2023-09-23T06:00	4898	549	-13.5	-21.4	201	14
2023-09-23T06:00	4921	547	-13.7	-21.5	201	14
2023-09-23T06:00	4945	546	-13.9	-21.8	202	14
2023-09-23T06:00	4972	544	-14.0	-22.4	205	14
2023-09-23T06:00	4997	542	-14.2	-22.9	207	14
2023-09-23T06:00	5024	540	-14.4	-23.0	210	15
2023-09-23T06:00	5051	538	-14.6	-23.0	212	15
2023-09-23T06:00	5070	537	-14.8	-23.0	212	15
2023-09-23T06:00	5088	535	-15.0	-23.0	212	16
2023-09-23T06:00	5107	534	-15.2	-22.8	211	16
2023-09-23T06:00	5129	532	-15.4	-22.6	211	16
2023-09-23T06:00	5155	531	-15.6	-22.8	210	15
2023-09-23T06:00	5185	529	-15.8	-23.7	210	15
2023-09-23T06:00	5209	527	-16.0	-23.9	210	16
2023-09-23T06:00	5230	525	-16.1	-24.7	210	16
2023-09-23T06:00	5255	524	-16.2	-24.6	210	16
2023-09-23T06:00	5275	522	-16.4	-24.2	210	16
2023-09-23T06:00	5294	521	-16.5	-23.9	210	16
2023-09-23T06:00	5316	519	-16.7	-23.8	209	17
2023-09-23T06:00	5334	518	-16.9	-23.6	209	17
2023-09-23T06:00	5355	517	-17.1	-23.6	209	17
2023-09-23T06:00	5373	515	-17.3	-23.6	209	17
2023-09-23T06:00	5399	514	-17.5	-23.6	209	17
2023-09-23T06:00	5425	512	-17.8	-23.7	210	18
2023-09-23T06:00	5446	510	-18.0	-23.6	210	18
2023-09-23T06:00	5468	509	-18.2	-23.6	210	19
2023-09-23T06:00	5490	507	-18.4	-23.5	210	19
2023-09-23T06:00	5512	506	-18.6	-23.5	211	20
2023-09-23T06:00	5538	504	-18.8	-23.2	212	20
2023-09-23T06:00	5563	503	-19.0	-23.3	212	20
2023-09-23T06:00	5590	501	-19.2	-24.3	214	20
2023-09-23T06:00	5610	499	-19.3	-24.8	215	20
2023-09-23T06:00	5628	498	-19.2	-27.8	215	19
2023-09-23T06:00	5644	497	-19.2	-30.1	216	19
2023-09-23T06:00	5663	496	-19.2	-30.7	216	19
2023-09-23T06:00	5683	495	-19.3	-31.4	216	19
2023-09-23T06:00	5700	493	-19.5	-31.2	217	18
2023-09-23T06:00	5720	492	-19.6	-30.8	218	18
2023-09-23T06:00	5741	491	-19.8	-31.0	219	18
2023-09-23T06:00	5768	489	-20.0	-31.1	220	18
2023-09-23T06:00	5795	487	-20.2	-31.1	221	18
2023-09-23T06:00	5825	485	-20.4	-31.0	221	18
2023-09-23T06:00	5842	484	-20.6	-31.0	221	18
2023-09-23T06:00	5863	483	-20.8	-29.1	221	18
2023-09-23T06:00	5887	481	-21.0	-29.5	221	19
2023-09-23T06:00	5911	479	-21.2	-29.8	220	19
2023-09-23T06:00	5937	478	-21.4	-29.2	220	20
2023-09-23T06:00	5957	477	-21.6	-29.0	220	20
2023-09-23T06:00	5977	475	-21.7	-28.2	220	20
2023-09-23T06:00	6002	474	-21.9	-28.0	219	20
2023-09-23T06:00	6019	473	-22.1	-27.9	218	20
2023-09-23T06:00	6037	471	-22.2	-27.5	218	19
2023-09-23T06:00	6054	470	-22.4	-27.4	217	19
2023-09-23T06:00	6071	469	-22.5	-27.4	217	19
2023-09-23T06:00	6091	468	-22.7	-27.3	217	19
2023-09-23T06:00	6117	466	-22.9	-27.2	216	19
2023-09-23T06:00	6144	465	-23.2	-27.4	216	19
2023-09-23T06:00	6168	463	-23.4	-27.4	216	19
2023-09-23T06:00	6192	462	-23.7	-27.4	216	19
2023-09-23T06:00	6214	460	-23.9	-27.6	217	20
2023-09-23T06:00	6232	459	-24.1		217	20
2023-09-23T06:00	6249	458	-24.3	-27.7	218	20
2023-09-23T06:00	6268	457	-24.4	-27.7	218	20
2023-09-23T06:00	6290	455	-24.6	-27.8	217	20
2023-09-23T06:00	6311	454	-24.8	-27.7	217	20
2023-09-23T06:00	6336	452	-25.1	-27.8	216	20
2023-09-23T06:00	6361	451	-25.3	-27.7	216	20
2023-09-23T06:00	6386	449	-25.6	-28.1	217	20
2023-09-23T06:00	6407	448	-25.8	-27.9	218	20
2023-09-23T06:00	6428	447	-26.0	-28.0	218	20
2023-09-23T06:00	6449	445	-26.2	-28.4	219	21
2023-09-23T06:00	6475	444	-26.4	-28.4	218	21
2023-09-23T06:00	6499	442	-26.6	-28.5	218	22
2023-09-23T06:00	6526	441	-26.8	-28.5	218	22
2023-09-23T06:00	6556	439	-27.1	-28.6	218	23
2023-09-23T06:00	6583	437	-27.3	-28.6	219	23
2023-09-23T06:00	6612	436	-27.4	-29.3	220	24
2023-09-23T06:00	6633	434	-27.4	-29.7	221	24
2023-09-23T06:00	6658	433	-27.6	-29.9	221	25
2023-09-23T06:00	6682	431	-27.8	-30.0	221	25
2023-09-23T06:00	6704	430	-27.9	-30.4	221	25
2023-09-23T06:00	6728	429	-28.1	-30.4	220	25
2023-09-23T06:00	6750	427	-28.3	-30.6	219	26
2023-09-23T06:00	6777	426	-28.5	-30.9	218	26
2023-09-23T06:00	6803	424	-28.6	-31.2	218	27
2023-09-23T06:00	6832	422	-28.7	-32.0	218	27
2023-09-23T06:00	6861	421	-28.9	-31.9	219	28
2023-09-23T06:00	6886	419	-29.1	-31.7	219	29
2023-09-23T06:00	6913	418	-29.4	-31.9	219	30
2023-09-23T06:00	6940	416	-29.7	-32.2	218	31
2023-09-23T06:00	6967	414	-29.7	-33.9	217	31
2023-09-23T06:00	6993	413	-29.7	-35.4	216	32
2023-09-23T06:00	7011	412	-29.6	-36.7	216	33
2023-09-23T06:00	7030	411	-29.7	-37.1	215	33
2023-09-23T06:00	7049	410	-29.5	-42.8	215	33
2023-09-23T06:00	7068	409	-29.4	-52.3	215	33
2023-09-23T06:00	7087	408	-29.5	-49.0	215	33
2023-09-23T06:00	7107	406	-29.7	-48.2	215	33
2023-09-23T06:00	7134	405	-29.6	-45.8	215	33
2023-09-23T06:00	7158	403	-29.7	-42.4	214	33
2023-09-23T06:00	7184	402	-29.9	-44.7	214	33
2023-09-23T06:00	7209	401	-30.1	-45.0	213	33
2023-09-23T06:00	7231	399	-30.3	-45.4	212	33
2023-09-23T06:00	7251	398	-30.5	-45.7	211	33
2023-09-23T06:00	7273	397	-30.7	-48.3	211	33
2023-09-23T06:00	7298	396	-30.8	-51.6	210	33
2023-09-23T06:00	7321	394	-31.0	-51.9	210	33
2023-09-23T06:00	7346	393	-31.2	-50.3	210	33
2023-09-23T06:00	7370	392	-31.4	-48.5	210	32
2023-09-23T06:00	7394	390	-31.6	-48.6	210	32
2023-09-23T06:00	7421	389	-31.8	-47.9	210	32
2023-09-23T06:00	7450	387	-32.0	-50.1	209	32
2023-09-23T06:00	7479	386	-32.3	-50.1	209	32
2023-09-23T06:00	7508	384	-32.6	-49.6	208	32
2023-09-23T06:00	7537	383	-32.8	-51.1	208	32
2023-09-23T06:00	7563	381	-33.1	-51.9	208	32
2023-09-23T06:00	7587	380	-33.3	-51.6	208	32
2023-09-23T06:00	7614	378	-33.5	-52.1	208	33
2023-09-23T06:00	7643	377	-33.8	-52.6	208	33
2023-09-23T06:00	7678	375	-34.1	-54.1	208	34
2023-09-23T06:00	7706	373	-34.3	-55.3	208	34
2023-09-23T06:00	7730	372	-34.5	-56.5	208	33
2023-09-23T06:00	7753	371	-34.7	-57.6	208	33
2023-09-23T06:00	7775	370	-34.9	-57.8	208	33
2023-09-23T06:00	7795	369	-35.1	-58.7	208	33
2023-09-23T06:00	7817	368	-35.2	-58.7	207	33
2023-09-23T06:00	7840	366	-35.4	-57.9	207	33
2023-09-23T06:00	7859	365	-35.5	-55.4	207	33
2023-09-23T06:00	7880	364	-35.7	-55.0	206	33
2023-09-23T06:00	7900	363	-35.8	-55.6	206	33
2023-09-23T06:00	7919	362	-36.0	-55.0	206	34
2023-09-23T06:00	7938	361	-36.1	-55.5	206	34
2023-09-23T06:00	7958	360	-36.3	-55.5	206	34
2023-09-23T06:00	7980	359	-36.5	-54.9	206	34
2023-09-23T06:00	7999	358	-36.7	-55.8	206	34
2023-09-23T06:00	8018	357	-36.8	-55.2	206	34
2023-09-23T06:00	8037	356	-37.0	-57.3	206	34
2023-09-23T06:00	8058	355	-37.2	-56.7	205	34
2023-09-23T06:00	8078	354	-37.3	-54.4	205	34
2023-09-23T06:00	8097	353	-37.4	-55.4	205	34
2023-09-23T06:00	8117	352	-37.6	-55.5	205	34
2023-09-23T06:00	8134	351	-37.7	-57.8	205	34
2023-09-23T06:00	8156	350	-37.8	-60.7	205	34
2023-09-23T06:00	8174	349	-38.0	-60.5	205	34
2023-09-23T06:00	8196	348	-38.2	-60.3	205	34
2023-09-23T06:00	8216	347	-38.3	-60.3	204	34
2023-09-23T06:00	8238	346	-38.5	-60.6	204	34
2023-09-23T06:00	8256	345	-38.6	-60.8	204	34
2023-09-23T06:00	8277	344	-38.7	-60.8	203	34
2023-09-23T06:00	8297	343	-38.9	-60.5	203	34
2023-09-23T06:00	8317	342	-39.0	-58.0	202	35
2023-09-23T06:00	8337	341	-39.2	-57.7	202	35
2023-09-23T06:00	8356	340	-39.3	-58.5	202	35
2023-09-23T06:00	8376	339	-39.4	-58.1	202	35
2023-09-23T06:00	8396	338	-39.6	-57.8	202	35
2023-09-23T06:00	8414	337	-39.7	-57.6	202	35
2023-09-23T06:00	8434	336	-39.8	-57.1	202	36
2023-09-23T06:00	8453	335	-40.0	-56.6	203	36
2023-09-23T06:00	8473	334	-40.2	-55.7	203	36
2023-09-23T06:00	8493	333	-40.3	-54.0	203	36
2023-09-23T06:00	8512	332	-40.5	-52.3	203	36
2023-09-23T06:00	8534	331	-40.7	-49.2	202	36
2023-09-23T06:00	8560	330	-40.9	-47.9	201	37
2023-09-23T06:00	8584	329	-41.0	-45.8	201	38
2023-09-23T06:00	8612	327	-40.8	-45.3	200	39
2023-09-23T06:00	8635	326	-40.6	-47.3	200	41
2023-09-23T06:00	8658	325	-40.7	-48.9	200	42
2023-09-23T06:00	8678	324	-40.8	-49.7	200	43
2023-09-23T06:00	8704	323	-40.8	-51.8	201	44
2023-09-23T06:00	8730	322	-40.5	-56.5	201	44
2023-09-23T06:00	8752	321	-40.5	-56.7	202	44
2023-09-23T06:00	8774	320	-40.5	-55.8	202	45
2023-09-23T06:00	8794	319	-40.7	-55.4	203	45
2023-09-23T06:00	8821	317	-40.9	-55.7	204	45
2023-09-23T06:00	8847	316	-41.1	-56.1	204	46
2023-09-23T06:00	8873	315	-41.2	-56.5	205	46
2023-09-23T06:00	8897	314	-41.3	-56.8	205	47
2023-09-23T06:00	8923	313	-41.5	-56.8	205	47
2023-09-23T06:00	8949	312	-41.7	-57.0	205	48
2023-09-23T06:00	8974	310	-41.9	-57.0	206	48
2023-09-23T06:00	8998	309	-42.1	-57.1	206	48
2023-09-23T06:00	9021	308	-42.3	-57.3	206	49
2023-09-23T06:00	9042	307	-42.4	-57.4	207	49
2023-09-23T06:00	9066	306	-42.5	-57.4	207	50
2023-09-23T06:00	9087	305	-42.6	-57.8	207	50
2023-09-23T06:00	9107	304	-42.7	-58.2	208	51
2023-09-23T06:00	9128	303	-42.8	-58.3	208	51
2023-09-23T06:00	9148	303	-43.0	-58.5	208	52
2023-09-23T06:00	9166	302	-43.0	-58.6	208	52
2023-09-23T06:00	9186	301	-43.1	-58.9	208	53
2023-09-23T06:00	9206	300	-43.1	-58.9	208	53
2023-09-23T06:00	9225	299	-43.2	-58.8	208	53
2023-09-23T06:00	9246	298	-43.4	-58.9	208	54
2023-09-23T06:00	9267	297	-43.6	-59.0	208	54
2023-09-23T06:00	9287	296	-43.7	-59.1	208	55
2023-09-23T06:00	9307	295	-43.8	-59.2	208	55
2023-09-23T06:00	9326	295	-43.9	-59.4	209	56
2023-09-23T06:00	9343	294	-44.0	-59.4	209	56
2023-09-23T06:00	9362	293	-44.1	-59.5	209	56
2023-09-23T06:00	9382	292	-44.2	-59.6	209	57
2023-09-23T06:00	9400	291	-44.4	-59.6	209	57
2023-09-23T06:00	9420	290	-44.5	-59.6	209	57
2023-09-23T06:00	9439	290	-44.6	-59.7	209	58
2023-09-23T06:00	9459	289	-44.8	-59.7	209	58
2023-09-23T06:00	9483	288	-44.9	-59.6	209	59
2023-09-23T06:00	9504	287	-45.0	-59.6	209	59
2023-09-23T06:00	9524	286	-45.2	-59.7	208	60
2023-09-23T06:00	9544	285	-45.2	-59.9	208	60
2023-09-23T06:00	9567	284	-45.2	-60.2	208	60
2023-09-23T06:00	9590	283	-45.4	-60.3	208	61
2023-09-23T06:00	9615	282	-45.5	-60.5	208	61
2023-09-23T06:00	9640	281	-45.6	-60.6	208	61
2023-09-23T06:00	9671	280	-45.9	-60.7	207	61
2023-09-23T06:00	9696	279	-46.1	-60.8	207	62
2023-09-23T06:00	9725	278	-46.3	-60.8	207	62
2023-09-23T06:00	9749	276	-46.5	-60.8	206	62
2023-09-23T06:00	9774	276	-46.7	-60.9	206	63
2023-09-23T06:00	9797	275	-46.8	-60.8	206	63
2023-09-23T06:00	9818	274	-47.0	-60.5	206	63
2023-09-23T06:00	9838	273	-47.2	-60.1	206	63
2023-09-23T06:00	9857	272	-47.4	-59.6	206	63
2023-09-23T06:00	9877	271	-47.6	-59.2	206	63
2023-09-23T06:00	9897	270	-47.8	-59.4	206	63
2023-09-23T06:00	9915	270	-47.9	-59.3	206	63
2023-09-23T06:00	9935	269	-48.1	-58.5	206	63
2023-09-23T06:00	9956	268	-48.3	-58.1	206	63
2023-09-23T06:00	9977	267	-48.4	-59.0	207	63
2023-09-23T06:00	9998	266	-48.6		207	63
2023-09-23T06:00	10018	265	-48.8	-60.8	207	63
2023-09-23T06:00	10040	265	-48.9	-61.3	207	63
2023-09-23T06:00	10061	264	-49.1	-61.6	207	63
2023-09-23T06:00	10081	263	-49.3	-61.4	207	63
2023-09-23T06:00	10103	262	-49.4	-61.4	207	63
2023-09-23T06:00	10124	261	-49.5	-61.6	207	62
2023-09-23T06:00	10147	260	-49.6	-62.1	208	62
2023-09-23T06:00	10168	259	-49.7	-62.5	208	61
2023-09-23T06:00	10189	259	-49.7	-62.9	209	61
2023-09-23T06:00	10211	258	-49.7	-63.6	209	60
2023-09-23T06:00	10235	257	-49.9	-64.1	210	60
2023-09-23T06:00	10258	256	-49.9	-64.1	210	60
2023-09-23T06:00	10282	255	-50.0	-64.2	210	59
2023-09-23T06:00	10304	254	-50.1	-64.2	211	59
2023-09-23T06:00	10326	253	-50.2	-64.2	211	59
2023-09-23T06:00	10347	252	-50.4	-64.2	211	59
2023-09-23T06:00	10370	252	-50.5	-64.1	211	60
2023-09-23T06:00	10392	251	-50.7	-64.1	211	60
2023-09-23T06:00	10415	250	-50.9	-64.0	211	60
2023-09-23T06:00	10441	249	-51.1	-64.1	211	60
2023-09-23T06:00	10462	248	-51.3	-64.2	211	61
2023-09-23T06:00	10488	247	-51.5	-64.2	211	61
2023-09-23T06:00	10512	246	-51.7	-64.3	211	62
2023-09-23T06:00	10533	245	-51.9	-64.4	211	62
2023-09-23T06:00	10556	244	-52.1	-64.4	212	62
2023-09-23T06:00	10577	244	-52.2	-64.4	212	62
2023-09-23T06:00	10604	243	-52.4	-64.5	212	62
2023-09-23T06:00	10629	242	-52.6	-64.6	213	62
2023-09-23T06:00	10659	241	-52.7	-64.6	213	61
2023-09-23T06:00	10682	240	-53.0	-64.7	213	61
2023-09-23T06:00	10703	239	-53.2	-64.8	213	60
2023-09-23T06:00	10725	238	-53.3	-64.7	213	60
2023-09-23T06:00	10752	237	-53.2	-64.5	212	58
2023-09-23T06:00	10778	236	-53.3	-64.7	212	57
2023-09-23T06:00	10818	235	-53.4	-65.0	212	56
2023-09-23T06:00	10846	234	-53.5	-65.5	212	55
2023-09-23T06:00	10872	233	-53.2	-65.9	212	53
2023-09-23T06:00	10904	232	-53.1	-66.5	212	53
2023-09-23T06:00	10931	231	-53.1	-67.1	212	52
2023-09-23T06:00	10956	230	-53.0	-67.6	212	51
2023-09-23T06:00	10982	229	-53.0	-67.8	211	50
2023-09-23T06:00	11003	228	-53.2	-68.0	211	49
2023-09-23T06:00	11024	227	-53.2	-68.3	210	48
2023-09-23T06:00	11046	227	-53.2	-68.7	210	48
2023-09-23T06:00	11069	226	-53.2	-68.9	209	47
2023-09-23T06:00	11090	225	-53.1	-69.0	208	47
2023-09-23T06:00	11115	224	-53.3	-69.2	208	46
2023-09-23T06:00	11141	223	-53.5	-69.3	206	46
2023-09-23T06:00	11167	222	-53.6	-69.2	205	45
2023-09-23T06:00	11186	222	-53.7	-69.3	204	45
2023-09-23T06:00	11206	221	-53.9	-69.4	204	45
2023-09-23T06:00	11226	220	-54.0	-69.6	203	44
2023-09-23T06:00	11244	220	-54.0	-69.8	202	44
2023-09-23T06:00	11263	219	-53.9	-70.2	201	44
2023-09-23T06:00	11283	218	-53.8	-70.5	200	44
2023-09-23T06:00	11302	218	-53.7	-70.6	200	44
2023-09-23T06:00	11321	217	-53.5	-71.1	199	45
2023-09-23T06:00	11341	216	-52.8	-72.5	199	45
2023-09-23T06:00	11359	216	-51.7	-74.6	199	45
2023-09-23T06:00	11377	215	-51.3	-76.0	199	45
2023-09-23T06:00	11396	215	-51.1	-76.3	199	45
2023-09-23T06:00	11416	214	-51.0	-76.2	199	45
2023-09-23T06:00	11435	213	-50.6	-75.9	199	46
2023-09-23T06:00	11452	213	-50.6	-75.7	199	46
2023-09-23T06:00	11472	212	-50.7	-75.6	200	46
2023-09-23T06:00	11489	212	-50.8	-75.4	200	47
2023-09-23T06:00	11509	211	-50.8	-75.4	199	47
2023-09-23T06:00	11528	210	-50.8	-75.2	199	47
2023-09-23T06:00	11547	210	-50.9	-75.1	199	47
2023-09-23T06:00	11568	209	-51.0	-75.2	200	47
2023-09-23T06:00	11585	208	-51.1	-75.3	200	47
2023-09-23T06:00	11606	208	-51.1	-75.3	200	47
2023-09-23T06:00	11626	207	-51.1	-75.3	201	47
2023-09-23T06:00	11644	207	-51.1	-75.3	201	46
2023-09-23T06:00	11666	206	-50.7	-75.4	201	46
2023-09-23T06:00	11686	205	-50.8	-75.6	202	46
2023-09-23T06:00	11705	205	-50.9	-75.9	202	46
2023-09-23T06:00	11723	204	-50.8	-75.8	202	46
2023-09-23T06:00	11745	203	-50.6	-75.9	203	46
2023-09-23T06:00	11764	203	-50.7	-76.0	204	45
2023-09-23T06:00	11785	202	-50.8	-76.3	204	45
2023-09-23T06:00	11807	201	-50.9	-76.4	204	45
2023-09-23T06:00	11826	201	-51.0	-76.4	205	45
2023-09-23T06:00	11848	200	-51.1	-76.7	205	44
2023-09-23T06:00	11870	200	-51.1	-77.0	205	44
2023-09-23T06:00	11891	199	-51.0	-76.9	206	44
2023-09-23T06:00	11915	198	-51.1	-77.2	207	43
2023-09-23T06:00	11936	197	-51.3	-77.4	207	43
2023-09-23T06:00	11959	197	-51.4	-77.5	208	42
2023-09-23T06:00	11979	196	-51.3	-77.4	208	42
2023-09-23T06:00	12001	196	-51.2	-77.6	208	41
2023-09-23T06:00	12021	195	-51.3	-77.6	209	41
2023-09-23T06:00	12042	194	-51.3	-77.6	209	40
2023-09-23T06:00	12066	194	-51.4	-78.0	209	40
2023-09-23T06:00	12089	193	-51.2	-78.1	210	39
2023-09-23T06:00	12112	192	-51.0	-78.2	210	38
2023-09-23T06:00	12137	191	-50.9	-78.2	211	37
2023-09-23T06:00	12164	191	-51.0		211	37
2023-09-23T06:00	12192	190	-51.0		212	36
2023-09-23T06:00	12216	189	-51.1	-78.6	212	36
2023-09-23T06:00	12242	188	-51.1	-78.6	212	35
2023-09-23T06:00	12265	188	-51.1	-78.6	212	35
2023-09-23T06:00	12287	187	-50.9	-78.5	212	35
2023-09-23T06:00	12311	186	-50.9	-78.8	213	35
2023-09-23T06:00	12333	186	-50.9	-78.8	213	35
2023-09-23T06:00	12357	185	-50.8	-78.7	214	35
2023-09-23T06:00	12379	185	-50.6	-78.9	215	35
2023-09-23T06:00	12400	184	-50.4	-78.7	215	35
2023-09-23T06:00	12425	183	-50.2	-78.6	215	35
2023-09-23T06:00	12447	183	-49.9	-78.7	215	35
2023-09-23T06:00	12472	182	-50.0	-78.8	215	34
2023-09-23T06:00	12496	181	-50.1	-78.9	216	34
2023-09-23T06:00	12518	181	-50.2	-78.9	216	34
2023-09-23T06:00	12543	180	-50.3	-78.7	216	33
2023-09-23T06:00	12563	179	-50.3	-78.7	216	33
2023-09-23T06:00	12585	179	-50.1	-78.9	216	32
2023-09-23T06:00	12609	178	-50.0	-78.8	216	32
2023-09-23T06:00	12630	178	-50.1	-78.9	216	32
2023-09-23T06:00	12651	177	-50.3	-79.0	217	31
2023-09-23T06:00	12675	176	-50.1	-78.9	217	31
2023-09-23T06:00	12697	176	-49.9	-78.7	218	31
2023-09-23T06:00	12720	175	-49.9	-78.7	219	31
2023-09-23T06:00	12741	175	-50.0	-78.8	219	30
2023-09-23T06:00	12763	174	-50.2	-78.9	219	30
2023-09-23T06:00	12783	173	-50.3	-79.0	219	30
2023-09-23T06:00	12802	173	-50.2	-78.9	219	30
2023-09-23T06:00	12824	172	-50.2	-78.9	219	29
2023-09-23T06:00	12846	172	-50.2	-78.9	218	29
2023-09-23T06:00	12864	171	-50.2	-78.9	218	29
2023-09-23T06:00	12886	171	-50.2	-78.9	218	28
2023-09-23T06:00	12904	170	-50.1	-78.9	218	28
2023-09-23T06:00	12925	170	-50.1	-78.9	218	28
2023-09-23T06:00	12944	169	-50.1	-78.9	218	28
2023-09-23T06:00	12964	169	-50.2	-78.9	218	28
2023-09-23T06:00	12983	168	-50.3	-79.0	217	27
2023-09-23T06:00	13004	168	-50.4	-79.1	217	27
2023-09-23T06:00	13022	167	-50.3	-79.0	216	27
2023-09-23T06:00	13043	167	-50.2	-78.9	216	27
2023-09-23T06:00	13062	166	-50.2	-78.9	216	27
2023-09-23T06:00	13081	166	-50.1	-78.9	216	27
2023-09-23T06:00	13099	165	-50.0	-78.8	216	26
2023-09-23T06:00	13119	165	-50.1	-78.9	217	26
2023-09-23T06:00	13138	164	-50.2	-78.9	217	26
2023-09-23T06:00	13160	164	-49.9	-78.7	218	26
2023-09-23T06:00	13179	163	-49.9	-78.7	218	26
2023-09-23T06:00	13196	163	-50.1	-78.9	218	25
2023-09-23T06:00	13216	162	-50.2	-78.9	218	25
2023-09-23T06:00	13235	162	-50.3	-79.0	218	25
2023-09-23T06:00	13254	161	-50.3	-79.0	218	24
2023-09-23T06:00	13273	161	-50.3	-79.4	217	24
2023-09-23T06:00	13290	160	-50.1	-79.2	216	23
2023-09-23T06:00	13312	160	-50.1	-79.2	215	23
2023-09-23T06:00	13333	159	-50.2	-79.3	214	23
2023-09-23T06:00	13352	159	-50.2	-79.3	213	22
2023-09-23T06:00	13372	158	-50.2	-79.3	211	22
2023-09-23T06:00	13392	158	-50.2	-79.3	209	22
2023-09-23T06:00	13413	157	-50.2	-79.3	208	21
2023-09-23T06:00	13433	157	-50.3	-79.4	206	21
2023-09-23T06:00	13455	156	-50.3	-79.4	205	22
2023-09-23T06:00	13477	156	-50.2	-79.3	204	22
2023-09-23T06:00	13500	155	-50.1	-79.2	203	22
2023-09-23T06:00	13521	155	-50.3	-79.4	201	22
2023-09-23T06:00	13545	154	-50.4	-79.5	200	23
2023-09-23T06:00	13563	154	-50.4	-79.5	199	23
2023-09-23T06:00	13585	153	-50.5	-79.5	199	23
2023-09-23T06:00	13607	153	-50.6	-79.6	198	23
2023-09-23T06:00	13627	152	-50.7	-79.7	197	23
2023-09-23T06:00	13648	152	-50.7	-79.7	196	24
2023-09-23T06:00	13674	151	-50.6	-79.6	196	24
2023-09-23T06:00	13698	151	-50.6	-79.6	195	25
2023-09-23T06:00	13718	150	-50.7	-79.7	194	25
2023-09-23T06:00	13741	150	-50.8	-79.8	194	26
2023-09-23T06:00	13762	149	-50.8	-79.8	193	27
2023-09-23T06:00	13785	149	-50.7	-79.7	193	27
2023-09-23T06:00	13808	148	-50.9	-79.8	192	27
2023-09-23T06:00	13831	148	-51.1	-79.6	192	27
2023-09-23T06:00	13854	147	-51.3	-79.8	192	28
2023-09-23T06:00	13875	147	-51.3	-79.8	193	27
2023-09-23T06:00	13898	146	-51.4	-80.2	193	27
2023-09-23T06:00	13922	146	-51.2	-80.1	194	27
2023-09-23T06:00	13945	145	-51.0	-79.9	195	27
2023-09-23T06:00	13968	145	-50.8	-79.8	196	26
2023-09-23T06:00	13989	144	-51.0	-79.9	196	26
2023-09-23T06:00	14012	144	-51.0	-79.9	197	26
2023-09-23T06:00	14035	143	-51.1	-80.0	197	26
2023-09-23T06:00	14058	143	-51.3	-80.1	198	26
2023-09-23T06:00	14080	142	-51.5	-79.9	198	26
2023-09-23T06:00	14100	142	-51.6	-80.0	199	26
2023-09-23T06:00	14125	141	-51.7	-80.1	200	26
2023-09-23T06:00	14146	141	-51.8	-80.1	200	26
2023-09-23T06:00	14169	140	-51.8	-80.1	201	26
2023-09-23T06:00	14190	140	-51.9	-80.2	201	25
2023-09-23T06:00	14212	139	-52.0	-80.3	202	25
2023-09-23T06:00	14234	139	-51.9	-80.6	202	24
2023-09-23T06:00	14256	138	-51.9	-80.6	201	24
2023-09-23T06:00	14277	138	-51.8	-80.5	201	23
2023-09-23T06:00	14302	137	-51.6	-80.4	200	23
2023-09-23T06:00	14327	137	-51.5	-80.7	200	22
2023-09-23T06:00	14350	136	-51.5	-80.7	199	22
2023-09-23T06:00	14377	136	-51.7	-80.8	199	22
2023-09-23T06:00	14398	135	-51.8	-80.9	199	22
2023-09-23T06:00	14421	135	-51.8	-80.9	199	23
2023-09-23T06:00	14444	134	-52.0	-80.7	200	23
2023-09-23T06:00	14465	134	-52.1	-80.7	200	23
2023-09-23T06:00	14488	133	-52.3	-80.9	200	23
2023-09-23T06:00	14512	133	-52.4	-81.0	201	22
2023-09-23T06:00	14538	132	-52.3	-80.9	201	22
2023-09-23T06:00	14559	132	-52.2	-80.8	201	22
2023-09-23T06:00	14584	132	-52.3	-80.9	201	21
2023-09-23T06:00	14606	131	-52.3	-80.9	202	21
2023-09-23T06:00	14629	131	-52.2	-80.8	203	21
2023-09-23T06:00	14654	130	-52.4	-81.0	204	22
2023-09-23T06:00	14676	130	-52.4	-81.0	205	22
2023-09-23T06:00	14702	129	-52.4	-81.4	207	22
2023-09-23T06:00	14725	129	-52.5	-81.4	208	22
2023-09-23T06:00	14747	128	-52.2	-81.2	210	22
2023-09-23T06:00	14771	128	-52.1	-81.1	212	21
2023-09-23T06:00	14797	127	-52.1	-81.1	213	21
2023-09-23T06:00	14819	127	-51.8	-81.3	214	20
2023-09-23T06:00	14845	126	-51.7	-81.2	214	20
2023-09-23T06:00	14870	126	-51.7	-81.2	214	19
2023-09-23T06:00	14891	125	-51.7	-81.2	214	18
2023-09-23T06:00	14914	125	-51.7	-80.8	214	18
2023-09-23T06:00	14939	124	-51.9	-81.0	213	17
2023-09-23T06:00	14960	124	-52.0	-81.1	212	17
2023-09-23T06:00	14984	124	-52.2	-81.2	212	16
2023-09-23T06:00	15009	123	-52.3	-81.3	211	16
2023-09-23T06:00	15030	123	-52.5	-81.0	210	16
2023-09-23T06:00	15054	122	-52.7	-81.2	210	15
2023-09-23T06:00	15078	122	-52.8	-81.3	210	15
2023-09-23T06:00	15101	121	-52.8	-81.3	211	15
2023-09-23T06:00	15123	121	-53.0	-81.4	211	15
2023-09-23T06:00	15146	121	-53.1	-81.5	212	15
2023-09-23T06:00	15168	120	-53.3	-81.7	213	15
2023-09-23T06:00	15188	120	-53.5	-81.4	213	15
2023-09-23T06:00	15212	119	-53.6	-81.5	214	14
2023-09-23T06:00	15234	119	-53.8	-81.7	214	14
2023-09-23T06:00	15257	118	-53.9	-81.7	214	14
2023-09-23T06:00	15279	118	-54.0	-82.2	213	14
2023-09-23T06:00	15305	118	-53.9	-82.1	211	13
2023-09-23T06:00	15326	117	-53.6	-81.9	209	13
2023-09-23T06:00	15351	117	-53.5	-82.2	206	13
2023-09-23T06:00	15375	116	-53.3	-82.0	203	14
2023-09-23T06:00	15397	116	-53.4	-82.1	200	14
2023-09-23T06:00	15422	116	-53.5	-81.8	198	14
2023-09-23T06:00	15445	115	-53.7	-82.0	197	15
2023-09-23T06:00	15469	115	-53.9	-82.1	195	15
2023-09-23T06:00	15493	114	-54.1	-82.3	194	16
2023-09-23T06:00	15514	114	-54.2	-82.3	194	16
2023-09-23T06:00	15539	113	-54.4	-82.5	193	16
2023-09-23T06:00	15557	113	-54.5	-82.2	193	17
2023-09-23T06:00	15581	113	-54.7	-82.4	193	18
2023-09-23T06:00	15602	112	-54.8	-82.4	193	18
2023-09-23T06:00	15625	112	-54.9	-82.5	192	19
2023-09-23T06:00	15650	111	-55.0	-82.6	192	20
2023-09-23T06:00	15675	111	-55.0	-82.6	192	21
2023-09-23T06:00	15697	111	-55.1	-82.7	192	21
2023-09-23T06:00	15717	110	-55.0	-82.6	193	22
2023-09-23T06:00	15739	110	-55.0	-82.6	194	22
2023-09-23T06:00	15758	110	-55.0	-82.6	195	23
2023-09-23T06:00	15780	109	-55.0	-82.6	197	23
2023-09-23T06:00	15803	109	-55.1	-82.7	199	24
2023-09-23T06:00	15823	108	-55.1	-82.7	200	24
2023-09-23T06:00	15846	108	-55.2	-82.7	202	25
2023-09-23T06:00	15867	108	-55.2	-82.7	203	25
2023-09-23T06:00	15888	107	-55.2	-82.7	204	25
2023-09-23T06:00	15911	107	-55.2	-82.7	205	26
2023-09-23T06:00	15932	107	-55.2	-82.7	206	26
2023-09-23T06:00	15956	106	-55.3	-82.8	207	25
2023-09-23T06:00	15977	106	-55.4	-82.9	208	25
2023-09-23T06:00	16000	106	-55.3	-82.8	209	24
2023-09-23T06:00	16022	105	-55.2	-82.7	210	24
2023-09-23T06:00	16045	105	-55.0	-82.9	210	24
2023-09-23T06:00	16066	104	-54.9	-82.9	210	23
2023-09-23T06:00	16088	104	-54.6	-83.0	209	23
2023-09-23T06:00	16108	104	-54.3	-82.8	209	23
2023-09-23T06:00	16131	103	-54.1	-83.1	209	23
2023-09-23T06:00	16151	103	-53.5	-82.6	210	24
2023-09-23T06:00	16173	103	-53.1	-82.7	211	24
2023-09-23T06:00	16194	102	-52.9	-82.6	213	24
2023-09-23T06:00	16220	102	-52.9	-82.6	214	24
2023-09-23T06:00	16242	102	-52.9	-82.6	216	24
2023-09-23T06:00	16266	101	-52.4	-82.7	217	24
2023-09-23T06:00	16290	101	-52.0	-82.4	217	23
2023-09-23T06:00	16310	101	-52.2	-82.5	218	23
2023-09-23T06:00	16338	100	-52.3	-82.1	219	22
2023-09-23T06:00	16362	100	-52.4	-82.2	220	22
2023-09-23T06:00	16384	99	-52.5	-82.3	221	21
2023-09-23T06:00	16409	99	-52.7	-82.4	221	21
2023-09-23T06:00	16431	99	-52.8	-82.5	221	21
2023-09-23T06:00	16454	98	-52.9	-82.6	220	20
2023-09-23T06:00	16476	98	-52.9	-82.6	218	20
2023-09-23T06:00	16502	98	-52.8	-82.5	216	20
2023-09-23T06:00	16527	97	-52.9	-82.6	215	20
2023-09-23T06:00	16552	97	-52.8	-82.5	214	21
2023-09-23T06:00	16574	96	-52.7	-82.4	213	21
2023-09-23T06:00	16601	96	-52.8	-82.5	214	21
2023-09-23T06:00	16625	96	-52.8	-82.5	214	22
2023-09-23T06:00	16650	95	-53.0	-82.7	215	22
2023-09-23T06:00	16674	95	-52.9	-82.6	216	22
2023-09-23T06:00	16696	95	-52.8	-82.5	217	22
2023-09-23T06:00	16724	94	-52.9	-82.6	218	23
2023-09-23T06:00	16746	94	-52.9	-82.6	219	23
2023-09-23T06:00	16770	94	-53.0	-82.7	219	23
2023-09-23T06:00	16791	93	-53.2	-82.8	220	23
2023-09-23T06:00	16816	93	-53.4	-83.0	221	23
2023-09-23T06:00	16840	93	-53.5	-83.0	223	23
2023-09-23T06:00	16866	92	-53.6	-83.1	224	22
2023-09-23T06:00	16888	92	-53.3	-82.9	225	22
2023-09-23T06:00	16911	92	-53.2	-82.8	226	21
2023-09-23T06:00	16933	91	-53.3	-82.9	227	20
2023-09-23T06:00	16960	91	-53.3	-82.9	228	20
2023-09-23T06:00	16982	91	-53.1	-83.2	229	19
2023-09-23T06:00	17003	90	-52.9	-83.1	229	19
2023-09-23T06:00	17030	90	-52.7	-82.9	230	18
2023-09-23T06:00	17051	90	-52.7	-82.9	230	17
2023-09-23T06:00	17076	89	-52.7	-82.9	230	17
2023-09-23T06:00	17098	89	-52.7	-82.9	230	16
2023-09-23T06:00	17121	89	-52.6	-82.8	230	15
2023-09-23T06:00	17146	88	-52.5	-82.8	230	15
2023-09-23T06:00	17170	88	-52.5	-82.8	230	14
2023-09-23T06:00	17198	88	-52.5	-82.8	231	13
2023-09-23T06:00	17222	87	-52.5	-82.8	232	13
2023-09-23T06:00	17243	87	-52.2	-82.5	233	12
2023-09-23T06:00	17270	87	-52.1	-82.5	233	11
2023-09-23T06:00	17292	86	-52.3	-82.6	232	11
2023-09-23T06:00	17316	86	-52.5	-82.8	229	10
2023-09-23T06:00	17342	86	-52.7	-82.9	224	10
2023-09-23T06:00	17367	85	-52.5	-82.8	218	10
2023-09-23T06:00	17393	85	-52.5	-82.8	213	10
2023-09-23T06:00	17418	85	-52.3	-82.6	209	10
2023-09-23T06:00	17444	84	-52.1	-82.5	207	11
2023-09-23T06:00	17466	84	-52.3	-82.6	205	11
2023-09-23T06:00	17492	84	-52.5	-82.8	204	12
2023-09-23T06:00	17515	83	-52.7	-82.9	203	12
2023-09-23T06:00	17542	83	-52.8	-82.5	202	12
2023-09-23T06:00	17567	83	-53.1	-82.7	202	12
2023-09-23T06:00	17593	82	-53.3	-82.9	201	13
2023-09-23T06:00	17613	82	-53.5	-83.0	201	13
2023-09-23T06:00	17640	82	-53.7	-83.2	200	13
2023-09-23T06:00	17663	82	-54.0	-83.0	200	14
2023-09-23T06:00	17689	81	-54.2	-83.1	199	14
2023-09-23T06:00	17716	81	-54.5	-83.4	198	15
2023-09-23T06:00	17741	81	-54.7	-83.5	197	15
2023-09-23T06:00	17766	80	-54.9	-83.7	197	16
2023-09-23T06:00	17791	80	-55.1	-83.8	196	16
2023-09-23T06:00	17816	80	-55.2	-83.9	196	17
2023-09-23T06:00	17840	79	-55.3	-83.6	196	17
2023-09-23T06:00	17860	79	-55.5	-83.7	196	18
2023-09-23T06:00	17886	79	-55.7	-83.9	196	18
2023-09-23T06:00	17911	78	-55.9	-84.0	197	19
2023-09-23T06:00	17932	78	-55.9	-84.0	198	19
2023-09-23T06:00	17955	78	-56.0	-84.5	199	19
2023-09-23T06:00	17979	78	-56.0	-84.5	200	19
2023-09-23T06:00	18003	77	-56.0	-84.5	201	20
2023-09-23T06:00	18029	77	-56.0	-84.5	202	20
2023-09-23T06:00	18047	77	-56.1	-84.6	203	20
2023-09-23T06:00	18069	76	-56.2	-84.2	204	20
2023-09-23T06:00	18098	76	-56.4	-84.4	205	20
2023-09-23T06:00	18119	76	-56.4	-84.4	206	20
2023-09-23T06:00	18142	76	-56.3	-84.3	207	20
2023-09-23T06:00	18167	75	-56.4	-84.8	209	19
2023-09-23T06:00	18189	75	-56.3	-84.7	211	19
2023-09-23T06:00	18212	75	-56.2	-84.6	213	18
2023-09-23T06:00	18236	75	-56.2	-84.6	216	18
2023-09-23T06:00	18258	74	-56.1	-85.0	218	17
2023-09-23T06:00	18280	74	-55.7	-84.7	220	17
2023-09-23T06:00	18303	74	-55.2	-84.8	222	16
2023-09-23T06:00	18325	73	-54.9	-84.6	224	15
2023-09-23T06:00	18351	73	-54.7	-84.9	226	15
2023-09-23T06:00	18372	73	-53.7	-84.2	229	14
2023-09-23T06:00	18396	73	-53.5	-84.0	233	14
2023-09-23T06:00	18417	72	-53.4	-83.9	237	13
2023-09-23T06:00	18444	72	-53.2	-83.8	242	12
2023-09-23T06:00	18471	72	-53.1	-83.7	246	12
2023-09-23T06:00	18494	72	-52.4	-83.8	251	11
2023-09-23T06:00	18514	71	-52.2	-83.6	255	11
2023-09-23T06:00	18542	71	-52.2	-83.1	258	11
2023-09-23T06:00	18568	71	-52.3	-83.1	261	11
2023-09-23T06:00	18593	70	-52.2	-83.1	262	11
2023-09-23T06:00	18616	70	-52.4	-83.2	263	11
2023-09-23T06:00	18645	70	-52.7	-82.9	263	10
2023-09-23T06:00	18668	70	-52.9	-83.1	262	10
2023-09-23T06:00	18698	69	-53.1	-83.2	259	9
2023-09-23T06:00	18724	69	-53.1	-83.2	256	8
2023-09-23T06:00	18748	69	-53.2	-83.3	250	7
2023-09-23T06:00	18779	69	-53.2	-83.3	244	7
2023-09-23T06:00	18804	68	-53.2	-83.3	237	7
2023-09-23T06:00	18830	68	-53.1	-83.2	230	7
2023-09-23T06:00	18859	68	-53.2	-83.3	223	7
2023-09-23T06:00	18883	67	-53.4	-83.4	217	7
2023-09-23T06:00	18911	67	-53.5	-83.5	211	7
2023-09-23T06:00	18936	67	-53.6	-83.6	205	7
2023-09-23T06:00	18970	66	-53.6	-83.6	200	8
2023-09-23T06:00	18998	66	-53.9	-83.3	196	8
2023-09-23T06:00	19023	66	-54.1	-83.5	192	9
2023-09-23T06:00	19055	66	-54.3	-83.6	190	10
2023-09-23T06:00	19082	65	-54.5	-83.8	188	10
2023-09-23T06:00	19113	65	-54.8	-83.6	187	10
2023-09-23T06:00	19141	65	-55.0	-83.7	186	11
2023-09-23T06:00	19167	64	-55.1	-83.8	186	11
2023-09-23T06:00	19189	64	-55.3	-84.0	187	11
2023-09-23T06:00	19215	64	-55.6	-84.2	188	11
2023-09-23T06:00	19243	64	-55.8	-84.3	189	11
2023-09-23T06:00	19268	63	-56.0	-84.5	190	11
2023-09-23T06:00	19292	63	-56.2	-84.2	190	11
2023-09-23T06:00	19316	63	-56.5	-84.5	191	11
2023-09-23T06:00	19344	63	-56.7	-84.6	191	11
2023-09-23T06:00	19368	62	-56.9	-84.8	192	12
2023-09-23T06:00	19393	62	-57.1	-84.9	193	12
2023-09-23T06:00	19418	62	-57.4	-85.2	196	12
2023-09-23T06:00	19445	62	-57.5	-85.2	198	13
2023-09-23T06:00	19467	61	-57.6	-85.3	202	13
2023-09-23T06:00	19494	61	-57.6	-85.3	205	13
2023-09-23T06:00	19519	61	-57.6	-85.3	208	13
2023-09-23T06:00	19538	61	-57.3	-85.5	211	13
2023-09-23T06:00	19564	61	-57.1	-85.3	213	12
2023-09-23T06:00	19585	60	-57.1	-85.3	215	11
2023-09-23T06:00	19610	60	-56.9	-85.6	216	11
2023-09-23T06:00	19637	60	-56.7	-85.4	218	10
2023-09-23T06:00	19659	60	-56.5	-85.3	220	9
2023-09-23T06:00	19688	59	-56.3	-85.1	221	9
2023-09-23T06:00	19710	59	-56.3	-85.1	222	8
2023-09-23T06:00	19736	59	-56.2	-85.1	222	8
2023-09-23T06:00	19759	59	-55.9	-84.8	221	8
2023-09-23T06:00	19783	59	-55.8	-84.8	220	8
2023-09-23T06:00	19807	58	-55.8	-84.8	218	7
2023-09-23T06:00	19830	58	-55.8	-84.8	216	7
2023-09-23T06:00	19855	58	-55.8	-84.8	213	7
2023-09-23T06:00	19881	58	-55.8	-84.8	210	7
2023-09-23T06:00	19901	57	-56.0	-84.9	206	7
2023-09-23T06:00	19926	57	-56.2	-85.1	202	6
2023-09-23T06:00	19951	57	-56.3	-84.7	197	6
2023-09-23T06:00	19979	57	-56.4	-84.8	192	6
2023-09-23T06:00	20002	57	-56.6	-84.9	189	6
2023-09-23T06:00	20028	56	-56.7	-85.0	188	7
2023-09-23T06:00	20049	56	-56.8	-85.1	190	7
2023-09-23T06:00	20074	56	-57.0	-85.2	194	7
2023-09-23T06:00	20102	56	-57.2	-85.4	200	7
2023-09-23T06:00	20124	55	-57.2	-85.4	207	7
2023-09-23T06:00	20151	55	-57.2	-85.4	213	7
2023-09-23T06:00	20175	55	-56.9	-85.2	219	7
2023-09-23T06:00	20199	55	-56.9	-85.2	224	7
2023-09-23T06:00	20227	55	-57.1	-85.3	226	7
2023-09-23T06:00	20249	54	-57.2	-85.4	227	7
2023-09-23T06:00	20270	54	-57.3	-85.5	226	6
2023-09-23T06:00	20297	54	-57.3	-85.5	222	6
2023-09-23T06:00	20321	54	-57.1	-85.3	218	6
2023-09-23T06:00	20346	54	-57.2	-85.4	214	5
2023-09-23T06:00	20369	53	-57.3	-85.5	210	5
2023-09-23T06:00	20393	53	-57.3	-85.5	208	5
2023-09-23T06:00	20417	53	-57.4	-85.6	206	5
2023-09-23T06:00	20439	53	-57.7	-85.8	203	5
2023-09-23T06:00	20464	53	-57.7	-85.4	199	5
2023-09-23T06:00	20487	52	-57.9	-85.5	195	5
2023-09-23T06:00	20510	52	-58.2	-85.8	190	5
2023-09-23T06:00	20538	52	-58.2	-85.8	186	5
2023-09-23T06:00	20555	52	-58.1	-85.7	183	6
2023-09-23T06:00	20581	52	-58.1	-85.7	183	6
2023-09-23T06:00	20603	51	-58.3	-85.8	184	6
2023-09-23T06:00	20626	51	-58.4	-85.9	187	7
2023-09-23T06:00	20649	51	-58.3	-86.2	190	8
2023-09-23T06:00	20681	51	-58.2	-86.2	194	8
2023-09-23T06:00	20703	51	-57.3	-85.9	197	9
2023-09-23T06:00	20723	50	-56.8	-85.5	199	10
2023-09-23T06:00	20751	50	-56.9	-86.1	200	10
2023-09-23T06:00	20770	50	-57.0	-86.1	200	10
2023-09-23T06:00	20798	50	-56.8	-86.0	199	10
2023-09-23T06:00	20824	50	-56.6	-85.8	197	10
2023-09-23T06:00	20852	49	-56.2	-85.5	194	10
2023-09-23T06:00	20872	49	-55.6	-85.1	191	9
2023-09-23T06:00	20901	49	-55.7	-85.2	190	9
2023-09-23T06:00	20926	49	-55.8	-85.7	191	9
2023-09-23T06:00	20947	49	-55.7	-85.7	195	9
2023-09-23T06:00	20974	48	-55.3	-85.4	201	10
2023-09-23T06:00	21002	48	-55.1	-85.2	206	10
2023-09-23T06:00	21028	48	-54.7	-85.5	210	10
2023-09-23T06:00	21051	48	-54.3	-85.2	212	10
2023-09-23T06:00	21072	48	-53.5	-84.6	212	10
2023-09-23T06:00	21100	48	-53.1	-84.3	211	9
2023-09-23T06:00	21126	47	-53.1	-84.3	210	9
2023-09-23T06:00	21149	47	-53.0	-84.2	209	8
2023-09-23T06:00	21176	47	-53.0	-84.2	209	8
2023-09-23T06:00	21198	47	-53.0	-84.2	210	7
2023-09-23T06:00	21227	47	-53.1	-83.7	213	7
2023-09-23T06:00	21252	46	-53.4	-83.9	217	6
2023-09-23T06:00	21277	46	-53.6	-84.1	222	6
2023-09-23T06:00	21305	46	-53.6	-84.1	226	6
2023-09-23T06:00	21332	46	-53.5	-84.0	228	6
2023-09-23T06:00	21357	46	-53.4	-83.9	229	6
2023-09-23T06:00	21380	46	-53.3	-83.9	228	6
2023-09-23T06:00	21405	45	-53.5	-84.0	226	7
2023-09-23T06:00	21431	45	-53.6	-84.1	225	7
2023-09-23T06:00	21457	45	-53.8	-83.7	223	7
2023-09-23T06:00	21479	45	-54.0	-83.9	222	8
2023-09-23T06:00	21509	45	-54.3	-84.1	222	8
2023-09-23T06:00	21535	44	-54.5	-84.3	222	8
2023-09-23T06:00	21556	44	-54.7	-84.4	224	9
2023-09-23T06:00	21584	44	-54.9	-84.6	226	9
2023-09-23T06:00	21603	44	-54.8	-84.5	230	9
2023-09-23T06:00	21628	44	-54.7	-84.4	234	9
2023-09-23T06:00	21656	44	-54.7	-84.4	238	9
2023-09-23T06:00	21677	43	-54.8	-84.5	242	10
2023-09-23T06:00	21704	43	-54.9	-84.6	245	10
2023-09-23T06:00	21734	43	-55.1	-84.7	247	9
2023-09-23T06:00	21753	43	-55.3	-84.4	247	9
2023-09-23T06:00	21780	43	-55.5	-84.5	247	9
2023-09-23T06:00	21807	43	-55.6	-84.6	245	9
2023-09-23T06:00	21832	42	-55.7	-85.2	243	8
2023-09-23T06:00	21854	42	-55.5	-85.0	240	8
2023-09-23T06:00	21875	42	-55.2	-84.8	236	7
2023-09-23T06:00	21909	42	-54.7	-84.9	231	7
2023-09-23T06:00	21930	42	-54.5	-84.8	226	6
2023-09-23T06:00	21954	42	-54.5	-84.8	221	6
2023-09-23T06:00	21982	41	-54.5	-84.8	216	6
2023-09-23T06:00	22005	41	-54.5	-84.8	211	6
2023-09-23T06:00	22025	41	-54.5	-84.3	207	7
2023-09-23T06:00	22058	41	-54.8	-84.5	203	7
2023-09-23T06:00	22075	41	-55.0	-84.6	200	7
2023-09-23T06:00	22101	41	-55.2	-84.3	197	8
2023-09-23T06:00	22126	41	-55.4	-84.5	194	8
2023-09-23T06:00	22153	40	-55.4	-84.5	191	9
2023-09-23T06:00	22177	40	-55.3	-84.4	190	9
2023-09-23T06:00	22207	40	-55.5	-84.5	190	9
2023-09-23T06:00	22234	40	-55.8	-84.8	191	10
2023-09-23T06:00	22259	40	-55.9	-84.8	193	10
2023-09-23T06:00	22281	40	-56.2	-85.1	195	10
2023-09-23T06:00	22311	39	-56.3	-84.7	198	10
2023-09-23T06:00	22337	39	-56.4	-84.8	202	10
2023-09-23T06:00	22361	39	-56.5	-84.9	206	10
2023-09-23T06:00	22384	39	-56.6	-84.9	209	10
2023-09-23T06:00	22411	39	-56.6	-84.9	213	10
2023-09-23T06:00	22431	39	-56.7	-85.4	216	10
2023-09-23T06:00	22459	38	-56.8	-85.5	218	10
2023-09-23T06:00	22475	38	-57.0	-85.7	219	10
2023-09-23T06:00	22503	38	-57.0	-85.7	219	10
2023-09-23T06:00	22533	38	-56.8	-85.5	219	9
2023-09-23T06:00	22548	38	-56.5	-85.3	218	9
2023-09-23T06:00	22575	38	-56.6	-85.4	219	9
2023-09-23T06:00	22598	38	-56.5	-85.8	221	8
2023-09-23T06:00	22631	37	-56.3	-85.6	224	8
2023-09-23T06:00	22654	37	-56.1	-85.5	227	8
2023-09-23T06:00	22681	37	-55.7	-85.2	230	8
2023-09-23T06:00	22702	37	-55.7	-85.2	233	8
2023-09-23T06:00	22732	37	-55.7	-85.2	235	8
2023-09-23T06:00	22760	37	-55.7	-85.2	236	8
2023-09-23T06:00	22779	37	-55.6	-85.1	238	8
2023-09-23T06:00	22804	36	-55.5	-85.0	241	8
2023-09-23T06:00	22829	36	-55.6	-85.1	244	8
2023-09-23T06:00	22861	36	-55.6	-85.1	245	8
2023-09-23T06:00	22885	36	-55.7	-85.2	245	8
2023-09-23T06:00	22908	36	-55.8	-84.8	244	8
2023-09-23T06:00	22939	36	-55.9	-84.8	240	8
2023-09-23T06:00	22970	35	-55.9	-85.3	235	7
2023-09-23T06:00	22989	35	-55.9	-85.3	229	7
2023-09-23T06:00	23016	35	-55.9	-85.3	223	7
2023-09-23T06:00	23045	35	-56.0		218	8
2023-09-23T06:00	23073	35	-56.1	-85.5	212	8
2023-09-23T06:00	23103	35	-56.1	-85.5	207	8
2023-09-23T06:00	23125	35	-56.1	-85.5	203	9
2023-09-23T06:00	23147	34	-56.2	-85.1	200	9
2023-09-23T06:00	23178	34	-56.2	-85.1	199	10
2023-09-23T06:00	23205	34	-56.3	-85.1	199	10
2023-09-23T06:00	23233	34	-56.6	-85.4	199	11
2023-09-23T06:00	23263	34	-56.7	-85.4	201	11
2023-09-23T06:00	23285	34	-56.6	-85.4	202	11
2023-09-23T06:00	23312	34	-56.5	-85.3	203	11
2023-09-23T06:00	23338	33	-56.5	-85.3	204	12
2023-09-23T06:00	23361	33	-56.7	-85.4	204	12
2023-09-23T06:00	23389	33	-56.9	-85.6	206	12
2023-09-23T06:00	23419	33	-56.9	-85.6	208	12
2023-09-23T06:00	23444	33	-57.1	-85.7	211	12
2023-09-23T06:00	23482	33	-57.1	-85.7	215	13
2023-09-23T06:00	23504	33	-57.1	-85.7	217	13
2023-09-23T06:00	23534	32	-57.1	-85.7	220	13
2023-09-23T06:00	23558	32	-57.1	-85.7	221	12
2023-09-23T06:00	23586	32	-56.9	-86.1	222	12
2023-09-23T06:00	23613	32	-56.8	-86.0	223	11
2023-09-23T06:00	23641	32	-56.8	-86.0	224	11
2023-09-23T06:00	23672	32	-56.8	-85.5	226	11
2023-09-23T06:00	23692	32	-56.8	-85.5	228	10
2023-09-23T06:00	23720	32	-56.8	-85.5	230	10
2023-09-23T06:00	23751	31	-57.0	-85.7	232	10
2023-09-23T06:00	23779	31	-57.1	-85.7	234	9
2023-09-23T06:00	23803	31	-57.3	-85.5	236	9
2023-09-23T06:00	23829	31	-57.5	-85.6	236	9
2023-09-23T06:00	23854	31	-57.6	-85.7	236	9
2023-09-23T06:00	23882	31	-57.7	-85.8	236	10
2023-09-23T06:00	23909	31	-57.8	-85.9	235	10
2023-09-23T06:00	23932	30	-57.9		234	10
2023-09-23T06:00	23962	30	-58.0	-86.0	233	11
2023-09-23T06:00	23993	30	-58.1		233	11
2023-09-23T06:00	24020	30	-58.1		232	11
2023-09-23T06:00	24041	30	-58.2	-86.2	230	11
2023-09-23T06:00	24074	30	-58.4	-86.3	227	10
2023-09-23T06:00	24100	30	-58.3	-86.2	224	10
2023-09-23T06:00	24117	30	-58.2	-86.2	222	10
2023-09-23T06:00	24149	29	-58.0	-86.0	220	10
2023-09-23T06:00	24179	29	-58.0	-86.4	221	10
2023-09-23T06:00	24207	29	-58.0	-86.4	223	10
2023-09-23T06:00	24227	29	-57.9	-86.4	227	10
2023-09-23T06:00	24254	29	-58.0	-86.0	230	10
2023-09-23T06:00	24284	29	-58.1		233	10
2023-09-23T06:00	24307	29	-58.2	-86.2	235	10
2023-09-23T06:00	24335	29	-58.1		235	11
2023-09-23T06:00	24369	28	-58.0	-86.4	234	11
2023-09-23T06:00	24387	28	-58.0	-86.4	232	12
2023-09-23T06:00	24409	28	-57.8	-86.3	229	12
2023-09-23T06:00	24436	28	-57.6	-86.1	227	12
2023-09-23T06:00	24466	28	-57.8	-86.3	225	13
2023-09-23T06:00	24493	28	-58.0	-86.4	224	13
2023-09-23T06:00	24522	28	-58.0	-86.0	225	13
2023-09-23T06:00	24548	28	-58.0	-86.0	228	13
2023-09-23T06:00	24577	28	-57.9		232	13
2023-09-23T06:00	24600	27	-57.9	-86.4	236	13
2023-09-23T06:00	24629	27	-57.8	-86.3	240	14
2023-09-23T06:00	24648	27	-57.8	-86.3	244	14
2023-09-23T06:00	24676	27	-57.8	-86.3	247	14
2023-09-23T06:00	24701	27	-57.8	-86.3	250	14
2023-09-23T06:00	24734	27	-57.8	-86.3	253	14
2023-09-23T06:00	24759	27	-57.8	-86.3	254	14
2023-09-23T06:00	24786	27	-57.6	-86.1	254	13
2023-09-23T06:00	24812	27	-57.4	-86.0	253	13
2023-09-23T06:00	24841	26	-57.3	-85.9	252	14
2023-09-23T06:00	24870	26	-57.2	-86.3	251	14
2023-09-23T06:00	24894	26	-57.2	-86.3	251	14
2023-09-23T06:00	24922	26	-57.2	-86.3	252	14
2023-09-23T06:00	24950	26	-57.1	-86.2	253	13
2023-09-23T06:00	24977	26	-57.1	-86.2	255	13
2023-09-23T06:00	25002	26	-57.0	-86.1	256	12
2023-09-23T06:00	25030	26	-56.6	-85.8	256	11
2023-09-23T06:00	25059	26	-56.1	-86.0	255	10
2023-09-23T06:00	25081	25	-56.0	-85.9	253	9
2023-09-23T06:00	25116	25	-56.0		250	8
2023-09-23T06:00	25137	25	-56.0		247	7
2023-09-23T06:00	25162	25	-56.1	-85.5	244	6
2023-09-23T06:00	25191	25	-56.3	-85.6	243	6
2023-09-23T06:00	25221	25	-56.3	-85.6	244	5
2023-09-23T06:00	25254	25	-56.4	-85.7	246	5
2023-09-23T06:00	25274	25	-56.4	-85.7	249	5
2023-09-23T06:00	25302	25	-56.4	-85.7	251	5
2023-09-23T06:00	25332	24	-56.4	-85.7	253	6
2023-09-23T06:00	25364	24	-56.4	-85.7	254	6
2023-09-23T06:00	25387	24	-56.4	-85.7	256	6
2023-09-23T06:00	25419	24	-56.4	-85.7	258	7
2023-09-23T06:00	25446	24	-56.4	-85.7	261	7
2023-09-23T06:00	25471	24	-56.5	-85.8	265	8
2023-09-23T06:00	25494	24	-56.4	-85.7	270	8
2023-09-23T06:00	25528	24	-56.3	-85.6	275	9
2023-09-23T06:00	25558	24	-56.4	-85.7	280	9
2023-09-23T06:00	25587	23	-56.4	-85.7	283	10
2023-09-23T06:00	25612	23	-56.3	-85.6	285	10
2023-09-23T06:00	25635	23	-56.2	-85.5	287	10
2023-09-23T06:00	25661	23	-56.2	-85.5	288	10
2023-09-23T06:00	25699	23	-56.1	-85.5	289	9
2023-09-23T06:00	25728	23	-56.2	-85.5	292	9
2023-09-23T06:00	25752	23	-56.3	-85.6	296	8
2023-09-23T06:00	25785	23	-56.3	-85.6	300	8
2023-09-23T06:00	25805	23	-56.1	-85.5	303	7
2023-09-23T06:00	25835	23	-56.0		306	7
2023-09-23T06:00	25870	22	-56.0		306	7
2023-09-23T06:00	25898	22	-56.2	-85.5	304	6
2023-09-23T06:00	25924	22	-56.3	-85.6	301	6
2023-09-23T06:00	25955	22	-56.5	-85.3	294	5
2023-09-23T06:00	25985	22	-56.6	-85.4	282	4
2023-09-23T06:00	26010	22	-56.9	-85.6	264	4
2023-09-23T06:00	26038	22	-57.0	-85.7	242	3
2023-09-23T06:00	26061	22	-56.9	-85.6	223	4
2023-09-23T06:00	26099	22	-56.8	-85.5	212	4
2023-09-23T06:00	26129	22	-56.9	-85.6	209	4
2023-09-23T06:00	26156	21	-56.9	-85.6	211	5
2023-09-23T06:00	26189	21	-56.9	-86.1	216	5
2023-09-23T06:00	26205	21	-56.9	-86.1	223	5
2023-09-23T06:00	26235	21	-56.8	-86.0	229	5
2023-09-23T06:00	26264	21	-56.6	-85.8	235	5
2023-09-23T06:00	26302	21	-56.6	-85.8	241	5
2023-09-23T06:00	26332	21	-56.7	-85.9	247	5
2023-09-23T06:00	26356	21	-56.7	-85.9	253	4
2023-09-23T06:00	26392	21	-56.6	-85.8	260	4
2023-09-23T06:00	26420	21	-56.7	-85.9	267	4
2023-09-23T06:00	26445	21	-56.7	-85.9	273	4
2023-09-23T06:00	26478	20	-56.7	-85.9	275	4
2023-09-23T06:00	26502	20	-56.7	-85.9	272	3
2023-09-23T06:00	26530	20	-56.5	-85.8	263	3
2023-09-23T06:00	26558	20	-56.0	-85.9	249	3
2023-09-23T06:00	26604	20	-55.7	-85.7	235	3
2023-09-23T06:00	26628	20	-55.7	-85.7	225	4
2023-09-23T06:00	26662	20	-55.9	-85.8	220	5
2023-09-23T06:00	26682	20	-56.0		217	6
2023-09-23T06:00	26707	20	-56.1	-85.5	215	6
2023-09-23T06:00	26747	20	-56.1	-85.5	214	7
2023-09-23T06:00	26774	19	-56.1	-85.5	214	8
2023-09-23T06:00	26812	19	-56.1	-85.5	214	8
2023-09-23T06:00	26834	19	-55.9	-85.3	213	8
2023-09-23T06:00	26858	19	-55.6	-85.1	213	8
2023-09-23T06:00	26900	19	-55.6	-85.1	214	7
2023-09-23T06:00	26926	19	-55.8	-85.2	216	7
2023-09-23T06:00	26953	19	-56.0		219	6
2023-09-23T06:00	26982	19	-56.2	-85.5	222	6
2023-09-23T06:00	27003	19	-56.3	-85.6	226	6
2023-09-23T06:00	27040	19	-56.3	-85.6	230	6
2023-09-23T06:00	27064	19	-56.1	-85.5	232	6
2023-09-23T06:00	27092	19	-55.7	-85.7	233	7
2023-09-23T06:00	27123	18	-55.5	-85.5	232	7
2023-09-23T06:00	27157	18	-55.6	-85.6	232	8
2023-09-23T06:00	27195	18	-55.8	-85.7	233	9
2023-09-23T06:00	27205	18	-55.7	-85.7	234	10
2023-09-23T06:00	27236	18	-55.3	-85.4	236	10
2023-09-23T06:00	27263	18	-55.1	-85.2	239	11
2023-09-23T06:00	27299	18	-55.1	-85.2	242	11
2023-09-23T06:00	27323	18	-55.1	-85.2	244	11
2023-09-23T06:00	27349	18	-55.3	-85.4	247	12
2023-09-23T06:00	27376	18	-55.5	-85.0	249	12
2023-09-23T06:00	27415	18	-55.6	-85.1	251	12
2023-09-23T06:00	27425	18	-55.8	-85.2	253	12
2023-09-23T06:00	27462	17	-56.0		255	12
2023-09-23T06:00	27491	17	-56.1	-85.5	257	12
2023-09-23T06:00	27524	17	-56.1	-85.5	259	12
2023-09-23T06:00	27548	17	-56.1	-85.5	261	12
2023-09-23T06:00	27584	17	-56.1	-85.5	262	12
2023-09-23T06:00	27604	17	-56.2	-85.5	263	11
2023-09-23T06:00	27642	17	-56.2	-85.5	263	11
2023-09-23T06:00	27676	17	-56.2	-85.5	262	10
2023-09-23T06:00	27702	17	-56.1	-86.0	261	9
2023-09-23T06:00	27721	17	-55.8	-85.7	259	9
2023-09-23T06:00	27752	17	-55.5	-85.5	257	9
2023-09-23T06:00	27780	17	-55.3	-85.9	256	9
2023-09-23T06:00	27801	17	-54.9	-85.6	254	9
2023-09-23T06:00	27841	16	-54.6	-85.4	252	9
2023-09-23T06:00	27863	16	-54.5	-85.3	249	10
2023-09-23T06:00	27887	16	-54.5	-85.3	247	11
2023-09-23T06:00	27919	16	-54.6	-85.4	245	11
2023-09-23T06:00	27947	16	-54.3	-85.2	245	12
2023-09-23T06:00	27974	16	-53.9	-84.9	245	12
2023-09-23T06:00	28008	16	-53.9	-84.9	248	12
2023-09-23T06:00	28037	16	-54.0	-84.9	250	12
2023-09-23T06:00	28062	16	-54.1	-85.0	253	12
2023-09-23T06:00	28099	16	-54.2	-84.5	256	12
2023-09-23T06:00	28119	16	-54.2	-84.5	258	11
2023-09-23T06:00	28156	16	-54.0	-84.9	259	11
2023-09-23T06:00	28190	16	-53.9	-84.9	259	10
2023-09-23T06:00	28211	16	-53.7	-84.7	258	10
2023-09-23T06:00	28238	15	-53.7	-84.7	257	9
2023-09-23T06:00	28274	15	-53.8	-84.8	256	8
2023-09-23T06:00	28294	15	-53.9	-84.3	255	7
2023-09-23T06:00	28330	15	-53.9	-84.3	253	7
2023-09-23T06:00	28352	15	-54.0	-84.4	252	6
2023-09-23T06:00	28383	15	-54.0	-84.4	251	6
2023-09-23T06:00	28421	15	-54.2	-84.5	250	6
2023-09-23T06:00	28455	15	-54.4	-84.7	250	6
2023-09-23T06:00	28480	15	-54.5	-84.8	249	6
2023-09-23T06:00	28524	15	-54.5	-84.8	249	6
2023-09-23T06:00	28550	15	-54.6	-84.8	249	6
2023-09-23T06:00	28581	15	-54.7	-84.9	250	7
2023-09-23T06:00	28618	15	-54.6	-84.8	252	7
2023-09-23T06:00	28645	15	-54.5	-84.8	255	7
2023-09-23T06:00	28662	14	-54.5	-84.8	259	7
2023-09-23T06:00	28705	14	-54.6	-84.8	263	7
2023-09-23T06:00	28733	14	-54.8	-85.0	267	8
2023-09-23T06:00	28754	14	-54.8	-85.0	270	8
2023-09-23T06:00	28791	14	-54.8	-85.0	272	9
2023-09-23T06:00	28819	14	-54.8	-85.0	274	9
2023-09-23T06:00	28858	14	-54.7	-84.9	275	10
2023-09-23T06:00	28892	14	-54.6	-84.8	276	10
2023-09-23T06:00	28936	14	-54.5	-85.3	278	10
2023-09-23T06:00	28960	14	-54.4	-85.2	280	10
2023-09-23T06:00	28997	14	-54.3	-85.2	282	10
2023-09-23T06:00	29029	14	-54.3	-85.2	284	10
2023-09-23T06:00	29045	14	-54.2	-85.1	286	10
2023-09-23T06:00	29086	14	-54.3	-85.2	287	9
2023-09-23T06:00	29137	13	-54.3	-85.2	288	9
2023-09-23T06:00	29163	13	-54.2	-85.1	289	9
2023-09-23T06:00	29182	13	-54.1	-85.0	290	9
2023-09-23T06:00	29221	13	-54.2	-85.1	290	8
2023-09-23T06:00	29248	13	-54.1	-85.0	289	8
2023-09-23T06:00	29302	13	-53.9	-84.9	289	8
2023-09-23T06:00	29323	13	-53.8	-84.8	287	7
2023-09-23T06:00	29358	13	-53.7	-84.7	286	7
2023-09-23T06:00	29387	13	-53.6	-84.6	284	8
2023-09-23T06:00	29423	13	-53.5	-84.6	281	8
2023-09-23T06:00	29430	13	-53.2	-85.0	278	8
2023-09-23T06:00	29460	13	-52.8	-84.7	273	9
2023-09-23T06:00	29486	13	-52.7	-84.6	268	9
2023-09-23T06:00	29530	13	-52.5	-84.4	263	9
2023-09-23T06:00	29554	13	-52.3	-84.3	259	9
2023-09-23T06:00	29594	13	-52.0	-84.1	255	10
2023-09-23T06:00	29619	12	-51.8	-83.9	253	10
2023-09-23T06:00	29637	12	-51.6	-83.8	254	10
2023-09-23T06:00	29691	12	-51.5	-83.7	257	10
2023-09-23T06:00	29692	12	-51.6	-83.8	262	10
2023-09-23T06:00	29728	12	-51.7	-83.9	266	10
2023-09-23T06:00	29763	12	-51.8	-83.9	268	10
2023-09-23T06:00	29800	12	-51.7	-83.9	267	10
2023-09-23T06:00	29804	12	-51.4	-83.6	264	10
2023-09-23T06:00	29847	12	-51.2	-83.5	258	10
2023-09-23T06:00	29876	12	-51.1	-83.4	252	10
2023-09-23T06:00	29898	12	-51.0	-83.3	247	10
2023-09-23T06:00	29937	12	-51.1	-83.4	243	10
2023-09-23T06:00	29949	12	-51.2	-83.5	241	11
2023-09-23T06:00	29982	12	-51.4	-83.6	239	11
2023-09-23T06:00	30015	12	-51.3	-83.6	238	11
2023-09-23T06:00	30049	12	-51.0	-83.3	237	11
2023-09-23T06:00	30096	12	-50.9	-83.3	236	11
2023-09-23T06:00	30103	12	-50.8	-83.2	236	10
2023-09-23T06:00	30146	12	-50.7	-83.1	237	10
2023-09-23T06:00	30174	11	-50.7	-83.1	237	11
2023-09-23T06:00	30203	11	-50.8	-83.2	239	11
2023-09-23T06:00	30217	11	-50.9	-83.3	241	11
2023-09-23T06:00	30264	11	-50.9	-83.3	244	12
2023-09-23T06:00	30293	11	-50.9	-83.3	247	13
2023-09-23T06:00	30313	11	-50.9	-83.3	251	13
2023-09-23T06:00	30353	11	-51.0	-83.3	254	14
2023-09-23T06:00	30383	11	-50.9	-83.3	258	14
2023-09-23T06:00	30403	11	-50.7	-83.1	261	15
2023-09-23T06:00	30440	11	-50.5	-83.0	264	16
2023-09-23T06:00	30494	11	-50.5	-83.0	266	16
2023-09-23T06:00	30535	11	-50.6	-83.1	267	17
2023-09-23T06:00	30542	11	-50.7	-83.1	268	17
2023-09-23T06:00	30591	11	-50.8	-83.2	270	18
2023-09-23T06:00	30608	11	-50.9	-83.3	271	17
2023-09-23T06:00	30662	11	-50.7	-83.1	273	17
2023-09-23T06:00	30694	11	-50.3	-83.5	275	16
2023-09-23T06:00	30728	11	-50.1	-83.4	276	15
2023-09-23T06:00	30752	11	-50.1	-83.4	276	14
2023-09-23T06:00	30794	10	-50.1	-83.4	276	14
2023-09-23T06:00	30824	10	-50.2	-83.5	276	13
2023-09-23T06:00	30841	10	-50.4	-82.9	275	13
2023-09-23T06:00	30888	10	-50.3	-83.5	274	13
2023-09-23T06:00	30933	10	-50.1	-83.4	273	12
2023-09-23T06:00	30947	10	-49.8	-83.2	274	12
2023-09-23T06:00	30994	10	-49.6	-83.0	274	11
2023-09-23T06:00	31005	10	-49.6	-83.0	275	11
2023-09-23T06:00	31042	10	-49.6	-83.0	275	11
2023-09-23T06:00	31063	10	-49.7	-83.1	276	11
2023-09-23T06:00	31112	10	-49.7	-83.1	276	12
2023-09-23T06:00	31142	10	-49.6	-83.0	277	13
2023-09-23T06:00	31159	10	-49.5	-82.9	278	15
2023-09-23T06:00	31195	10	-49.4	-82.9	279	16
2023-09-23T06:00	31213	10	-49.4	-82.9	281	17
2023-09-23T06:00	31246	10	-49.3	-82.8	282	18
2023-09-23T06:00	31284	10	-49.2	-82.7	284	19
2023-09-23T06:00	31298	10	-48.8	-83.2	285	19
2023-09-23T06:00	31330	10	-48.4	-82.9	287	19
2023-09-23T06:00	31343	10	-48.0	-82.7	287	19
2023-09-23T06:00	31373	10	-47.8	-82.5	288	19
2023-09-23T06:00	31413	10	-47.6	-82.4	287	19
2023-09-23T06:00	31424	9	-47.5	-82.3	287	18
2023-09-23T06:00	31450	9	-47.3	-82.2	287	17
2023-09-23T06:00	31479	9	-47.0	-81.9	286	17
2023-09-23T06:00	31511	9	-46.7	-81.7	286	16
2023-09-23T06:00	31527	9	-46.5	-81.6	286	15
2023-09-23T06:00	31580	9	-46.4	-81.5	286	15
2023-09-23T06:00	31583	9	-46.2	-81.4	286	15
2023-09-23T06:00	31616	9	-46.2	-81.4	286	15
2023-09-23T06:00	31635	9	-46.1	-81.3	287	15
2023-09-23T06:00	31650	9	-46.1	-81.3	288	15
2023-09-23T06:00	31698	9	-46.1	-81.3	289	15
2023-09-23T06:00	31722	9	-46.1	-81.3	291	15
2023-09-23T06:00	31751	9	-46.2	-81.4	293	16
2023-09-23T06:00	31796	9	-46.3	-81.4	293	17
2023-09-23T06:00	31836	9	-46.3	-81.4	293	18
2023-09-23T06:00	31848	9	-46.3	-81.4	292	18
2023-09-23T06:00	31877	9	-46.1	-81.3	291	18
2023-09-23T06:00	31911	9	-45.8	-81.1	290	18
2023-09-23T06:00	31932	9	-45.3	-81.6	288	18
2023-09-23T06:00	31977	9	-44.9	-81.4	288	17
2023-09-23T06:00	31988	9	-44.8	-81.3	287	17
2023-09-23T06:00	32024	9	-44.9	-81.4	287	16
2023-09-23T06:00	32064	9	-44.9	-81.4	287	16
2023-09-23T06:00	32097	9	-44.9	-81.4	286	16
2023-09-23T06:00	32123	9	-44.7	-81.2	286	16
2023-09-23T06:00	32162	8	-44.4	-81.0	285	16
2023-09-23T06:00	32210	8	-44.1	-80.8	284	16
2023-09-23T06:00	32234	8	-44.0	-80.7	283	16
2023-09-23T06:00	32271	8	-43.8	-80.6	282	16
2023-09-23T06:00	32301	8	-43.7	-80.5	282	16
2023-09-23T06:00	32336	8	-43.7	-80.5	283	16
2023-09-23T06:00	32360	8	-43.5	-80.4	284	17
2023-09-23T06:00	32394	8	-43.5	-80.4	286	17
2023-09-23T06:00	32448	8	-43.6	-80.4	289	18
2023-09-23T06:00	32491	8	-43.7	-80.5	291	18
2023-09-23T06:00	32502	8	-43.7	-80.5	293	19
2023-09-23T06:00	32552	8	-43.8	-80.6	294	19
2023-09-23T06:00	32578	8	-43.7	-80.5	295	18
2023-09-23T06:00	32623	8	-43.6	-80.4	294	18
2023-09-23T06:00	32666	8	-43.4	-80.3	294	17
2023-09-23T06:00	32691	8	-43.3	-80.2	294	17
2023-09-23T06:00	32723	8	-43.3	-80.2	294	16
2023-09-23T06:00	32774	8	-43.3	-80.2	294	16
2023-09-23T06:00	32804	8	-43.3	-80.2	295	14
2023-09-23T06:00	32862	8	-43.3	-80.2	296	14
2023-09-23T06:00	32918	8	-43.2	-80.2	298	13
2023-09-23T06:00	32939	8	-43.3	-80.2	297	12
2023-09-23T06:00	32979	8	-43.3	-80.2	296	12
2023-09-23T06:00	32996	8	-43.3	-80.2	293	12
2023-09-23T06:00	33029	7	-43.3	-80.2	290	12
2023-09-23T06:00	33062	7	-43.3	-80.2	287	13
2023-09-23T06:00	33067	7	-43.4	-80.3	284	13
2023-09-23T06:00	33107	7	-43.5	-80.4	283	14
2023-09-23T06:00	33123	7	-43.5	-80.4	282	14
2023-09-23T06:00	33168	7	-43.5	-80.4	282	14
2023-09-23T06:00	33181	7	-43.5	-80.4	284	14
2023-09-23T06:00	33224	7	-43.4	-80.3	286	14
2023-09-23T06:00	33230	7	-43.4	-80.3	288	14
2023-09-23T06:00	33260	7	-43.4	-80.3	290	14
2023-09-23T06:00	33290	7	-43.4	-80.3	290	13
2023-09-23T06:00	33327	7	-43.4	-80.3	289	13
2023-09-23T06:00	33329	7	-43.4	-80.3	288	14
2023-09-23T06:00	33365	7	-43.4	-80.3	286	14
2023-09-23T06:00	33416	7	-43.4	-80.3	285	14
2023-09-23T06:00	33429	7	-43.3	-80.2	285	14
2023-09-23T06:00	33455	7	-43.2	-80.2	286	14
2023-09-23T06:00	33468	7	-42.8	-81.0	287	14
2023-09-23T06:00	33470	7	-42.5	-80.8	289	14
2023-09-23T06:00	33532	7	-42.3	-80.6	291	14
2023-09-23T06:00	33545	7	-42.3	-80.6	292	13
2023-09-23T06:00	33584	7	-42.3	-80.6	292	13
2023-09-23T06:00	33608	7	-42.3	-80.6	292	13
2023-09-23T06:00	33619	7	-42.3	-80.6	292	13
2023-09-23T06:00	33674	7	-42.4	-79.6	292	13
2023-09-23T06:00	33696	7	-42.6	-79.7	292	13
2023-09-23T06:00	33720	7	-42.6	-79.7	292	13
2023-09-23T06:00	33733	7	-42.7	-79.8	293	13
2023-09-23T06:00	33778	7	-42.8	-79.9	294	13
2023-09-23T06:00	33787	7	-42.9	-80.0	295	14
2023-09-23T06:00	33833	7	-42.8	-79.9	295	14
2023-09-23T06:00	33878	7	-42.7	-79.8	293	14
2023-09-23T06:00	33931	7	-42.9	-80.0	290	14
2023-09-23T06:00	33980	7	-42.9	-80.0	288	14
2023-09-23T06:00	34010	6	-42.8	-79.9	288	13
2023-09-23T06:00	34042	6	-42.9	-80.0	288	13
2023-09-23T06:00	34069	6	-42.9	-80.0	288	12
2023-09-23T06:00	34112	6	-43.0	-80.0	288	12
2023-09-23T06:00	34136	6	-43.1	-80.1	287	12
2023-09-23T06:00	34203	6	-43.1	-80.1	286	12
2023-09-23T06:00	34225	6	-43.2	-80.2	284	13
2023-09-23T06:00	34235	6	-43.2	-80.2	283	13
2023-09-23T06:00	34276	6	-43.2	-80.2	282	14
2023-09-23T06:00	34303	6	-43.1	-80.1	281	14
2023-09-23T06:00	34340	6	-43.1	-80.1	281	15
2023-09-23T06:00	34380	6	-43.1	-80.1	281	15
2023-09-23T06:00	34417	6	-43.2	-81.3	281	16
2023-09-23T06:00	34459	6	-43.2	-81.3	281	16
2023-09-23T06:00	34511	6	-42.9	-81.1	281	17
2023-09-23T06:00	34570	6	-42.2	-80.6	284	16
2023-09-23T06:00	34609	6	-41.8	-80.3	286	16
2023-09-23T06:00	34641	6	-41.5	-80.1	289	15
2023-09-23T06:00	34710	6	-41.3	-79.9	292	15
2023-09-23T06:00	34738	6	-41.3	-79.9	298	13
2023-09-23T06:00	34757	6	-41.3	-79.9	301	12
2023-09-23T06:00	34801	6	-41.3	-79.9	304	12
2023-09-23T06:00	34830	6	-41.5	-80.1	306	11
2023-09-23T06:00	34874	6	-42.0	-80.4	308	9
2023-09-23T06:00	34901	6	-42.0	-80.4	307	9
2023-09-23T06:00	34984	6	-42.1	-80.5	305	9
2023-09-23T06:00	35032	6	-41.9	-80.4	300	8
2023-09-23T06:00	35034	6	-41.6	-80.1	298	8
2023-09-23T06:00	35086	6	-41.4	-80.0	295	8
2023-09-23T06:00	35103	6	-41.2	-79.9	292	8
2023-09-23T06:00	35105	5	-41.1	-79.8	287	8
2023-09-23T06:00	35159	5	-40.8	-79.6	280	8
2023-09-23T06:00	35181	5	-40.7	-79.5	273	8
2023-09-23T06:00	35222	5	-40.7	-79.5	267	9
2023-09-23T06:00	35234	5	-40.7	-79.5	263	10
2023-09-23T06:00	35266	5	-40.7	-79.5	261	10
2023-09-23T06:00	35311	5	-40.6	-79.5	262	11
2023-09-23T06:00	35377	5	-40.3	-79.2	263	12
2023-09-23T06:00	35415	5	-40.0	-79.0	271	14
2023-09-23T06:00	35469	5	-40.0	-79.0	273	15
2023-09-23T06:00	35491	5	-40.1	-79.1	275	15
2023-09-23T06:00	35542	5	-40.1	-79.1	276	16
2023-09-23T06:00	35557	5	-40.1	-79.1	277	17
2023-09-23T06:00	35573	5	-40.1	-79.1	278	17
2023-09-23T06:00	35576	5	-40.0	-79.0	278	18
2023-09-23T06:00	35659	5	-40.0	-79.0	279	18
2023-09-23T06:00	35679	5	-40.1	-79.1	280	19
2023-09-23T06:00	35693	5	-40.1	-79.1	280	19
2023-09-23T06:00	35714	5	-40.1	-79.1	281	19
2023-09-23T06:00	35748	5	-40.0	-79.0	282	20
2023-09-23T06:00	35778	5	-39.9	-79.0	282	20
2023-09-23T06:00	35782	5	-39.6	-78.8	282	20
2023-09-23T12:00	112	1000	15.2	9.1	260	5
2023-09-23T12:00	140	997	14.8	9.1	280	4
2023-09-23T12:00	169	994	14.4	8.8	276	5
2023-09-23T12:00	195	991	14.2	8.8	274	6
2023-09-23T12:00	221	987	14.0	8.4	273	6
2023-09-23T12:00	252	984	13.7	8.5	272	6
2023-09-23T12:00	287	980	13.4	8.8	270	7
2023-09-23T12:00	312	977	13.1	8.3	268	7
2023-09-23T12:00	345	973	12.8	8.3	265	8
2023-09-23T12:00	376	970	12.5	8.4	262	8
2023-09-23T12:00	412	966	12.1	8.4	260	8
2023-09-23T12:00	437	963	11.9	8.4	258	8
2023-09-23T12:00	461	960	11.9	6.7	257	8
2023-09-23T12:00	483	957	11.7	7.3	256	8
2023-09-23T12:00	509	955	11.4	7.4	256	8
2023-09-23T12:00	528	952	11.2	7.3	255	9
2023-09-23T12:00	553	949	11.0	7.5	254	9
2023-09-23T12:00	582	946	10.7	7.5	252	8
2023-09-23T12:00	606	943	10.5	7.6	250	8
2023-09-23T12:00	630	941	10.2	7.5	249	8
2023-09-23T12:00	650	938	10.0	7.4	247	9
2023-09-23T12:00	668	936	9.9	7.5	246	9
2023-09-23T12:00	694	934	9.6	7.3	245	9
2023-09-23T12:00	717	931	9.4	7.2	246	9
2023-09-23T12:00	747	927	9.1	7.1	247	9
2023-09-23T12:00	781	924	8.8	7.1	248	9
2023-09-23T12:00	810	921	8.5	7.1	250	9
2023-09-23T12:00	836	918	8.3	7.1	251	9
2023-09-23T12:00	864	915	8.0	7.0	251	9
2023-09-23T12:00	890	912	7.8		251	9
2023-09-23T12:00	918	909	7.5	6.8	251	9
2023-09-23T12:00	942	906	7.3	6.8	251	9
2023-09-23T12:00	965	903	7.1	6.5	251	9
2023-09-23T12:00	993	900	6.9	6.4	252	9
2023-09-23T12:00	1016	898	6.6	6.3	252	9
2023-09-23T12:00	1040	895	6.4	6.0	253	9
2023-09-23T12:00	1064	893	6.3	5.3	253	9
2023-09-23T12:00	1088	890	6.4	4.9	253	9
2023-09-23T12:00	1113	887	6.3	4.8	253	9
2023-09-23T12:00	1132	885	6.1	4.8	252	9
2023-09-23T12:00	1155	883	5.9	4.8	251	9
2023-09-23T12:00	1184	880	5.6	4.7	249	9
2023-09-23T12:00	1216	876	5.3	4.5	247	9
2023-09-23T12:00	1246	873	5.0	4.3	246	9
2023-09-23T12:00	1273	870	4.8	4.5	245	9
2023-09-23T12:00	1299	867	4.6	4.5	244	9
2023-09-23T12:00	1324	865	4.3	4.2	242	8
2023-09-23T12:00	1344	862	4.1	4.1	241	8
2023-09-23T12:00	1366	860	4.0	4.0	240	8
2023-09-23T12:00	1386	858	3.9	3.9	238	8
2023-09-23T12:00	1406	856	3.8	3.8	237	8
2023-09-23T12:00	1427	854	3.7	3.7	237	8
2023-09-23T12:00	1449	851	3.5	3.5	238	9
2023-09-23T12:00	1475	849	3.4	3.4	239	9
2023-09-23T12:00	1505	846	3.3	3.3	240	9
2023-09-23T12:00	1536	842	3.1	3.1	240	9
2023-09-23T12:00	1564	840	3.1	3.1	240	9
2023-09-23T12:00	1589	837	3.0	3.0	240	9
2023-09-23T12:00	1612	834	2.9	2.9	241	9
2023-09-23T12:00	1638	832	2.7	2.7	241	10
2023-09-23T12:00	1665	829	2.6	2.6	240	10
2023-09-23T12:00	1693	826	2.5	2.5	239	10
2023-09-23T12:00	1721	824	2.3	2.3	237	10
2023-09-23T12:00	1742	821	2.2	2.2	236	10
2023-09-23T12:00	1766	819	2.1	2.1	235	10
2023-09-23T12:00	1798	816	1.8	1.8	235	10
2023-09-23T12:00	1833	812	1.8	1.8	237	10
2023-09-23T12:00	1866	809	1.5	1.5	240	11
2023-09-23T12:00	1895	806	1.4	1.4	244	11
2023-09-23T12:00	1932	802	1.1	1.1	247	11
2023-09-23T12:00	1962	799	1.0	1.0	250	12
2023-09-23T12:00	1990	796	0.8	-1.1	250	12
2023-09-23T12:00	2014	794	1.1	-2.9	248	12
2023-09-23T12:00	2040	791	1.2	-3.0	246	12
2023-09-23T12:00	2064	789	1.2	-3.1	244	12
2023-09-23T12:00	2094	786	1.1	-3.3	242	12
2023-09-23T12:00	2123	783	1.0	-3.6	242	12
2023-09-23T12:00	2158	780	1.1	-4.2	241	12
2023-09-23T12:00	2188	777	0.9	-4.2	241	12
2023-09-23T12:00	2212	775	0.8	-4.3	241	12
2023-09-23T12:00	2241	772	0.7	-4.5	240	12
2023-09-23T12:00	2271	769	0.5	-5.7	240	12
2023-09-23T12:00	2298	767	0.3	-6.6	241	12
2023-09-23T12:00	2319	764	0.3	-7.1	243	12
2023-09-23T12:00	2349	762	0.3	-6.6	245	12
2023-09-23T12:00	2376	759	0.2	-6.8	246	12
2023-09-23T12:00	2399	757	0.1	-6.7	247	12
2023-09-23T12:00	2423	755	0.0	-6.8	246	12
2023-09-23T12:00	2445	753	-0.1	-7.0	244	12
2023-09-23T12:00	2469	750	-0.1	-8.2	243	12
2023-09-23T12:00	2489	748	-0.1	-8.4	243	12
2023-09-23T12:00	2513	746	-0.1	-9.0	243	13
2023-09-23T12:00	2537	744	-0.2	-9.5	244	13
2023-09-23T12:00	2558	742	-0.3	-9.7	246	13
2023-09-23T12:00	2575	740	-0.3	-10.3	247	13
2023-09-23T12:00	2590	739	-0.2	-10.5	247	13
2023-09-23T12:00	2608	737	-0.2	-11.2	248	13
2023-09-23T12:00	2635	735	-0.2	-12.2	248	13
2023-09-23T12:00	2657	733	-0.2	-13.5	248	12
2023-09-23T12:00	2674	731	-0.1	-13.3	246	12
2023-09-23T12:00	2689	730	-0.1	-13.5	244	12
2023-09-23T12:00	2703	729	-0.1	-13.2	240	12
2023-09-23T12:00	2719	727	-0.1	-12.9	237	12
2023-09-23T12:00	2740	725	-0.3	-13.3	235	12
2023-09-23T12:00	2769	723	-0.1	-15.2	234	13
2023-09-23T12:00	2788	721	0.0	-17.5	233	13
2023-09-23T12:00	2807	719	-0.1	-17.7	231	14
2023-09-23T12:00	2825	718	0.1	-20.6	230	14
2023-09-23T12:00	2844	716	0.0	-20.1	227	14
2023-09-23T12:00	2861	714	-0.1	-20.1	225	13
2023-09-23T12:00	2883	712	-0.2	-20.8	225	13
2023-09-23T12:00	2904	711	-0.1	-22.5	226	13
2023-09-23T12:00	2925	709	-0.2	-22.3	228	14
2023-09-23T12:00	2952	706	-0.3	-23.0	231	14
2023-09-23T12:00	2972	705	-0.4	-22.9	233	14
2023-09-23T12:00	2990	703	-0.6	-23.1	233	14
2023-09-23T12:00	3015	701	-0.7	-23.3	231	14
2023-09-23T12:00	3036	699	-0.8	-23.6	229	13
2023-09-23T12:00	3055	697	-1.0	-24.0	226	13
2023-09-23T12:00	3076	696	-1.1	-24.4	223	13
2023-09-23T12:00	3095	694	-1.2	-25.3	222	14
2023-09-23T12:00	3121	692	-1.4	-26.3	222	15
2023-09-23T12:00	3147	689	-1.6	-26.9	222	15
2023-09-23T12:00	3169	687	-1.6	-26.9	222	16
2023-09-23T12:00	3187	686	-1.6	-22.6	222	16
2023-09-23T12:00	3209	684	-1.6	-19.7	222	15
2023-09-23T12:00	3233	682	-1.7	-22.0	222	15
2023-09-23T12:00	3260	679	-2.0	-19.7	223	14
2023-09-23T12:00	3291	677	-2.3	-18.9	224	14
2023-09-23T12:00	3316	675	-2.5	-18.9	225	14
2023-09-23T12:00	3338	673	-2.7	-19.4	226	15
2023-09-23T12:00	3366	671	-2.9	-19.5	227	15
2023-09-23T12:00	3388	668	-3.1	-20.2	228	16
2023-09-23T12:00	3419	666	-3.2	-20.7	228	16
2023-09-23T12:00	3443	664	-3.3	-21.1	227	16
2023-09-23T12:00	3472	662	-3.5	-20.7	226	15
2023-09-23T12:00	3493	660	-3.6	-22.7	224	15
2023-09-23T12:00	3515	658	-3.8	-23.5	223	15
2023-09-23T12:00	3531	656	-4.0	-23.5	223	16
2023-09-23T12:00	3559	655	-4.2	-23.3	224	16
2023-09-23T12:00	3578	653	-4.4	-23.6	226	17
2023-09-23T12:00	3603	651	-4.5	-22.8	227	17
2023-09-23T12:00	3631	648	-4.7	-21.8	227	17
2023-09-23T12:00	3663	646	-5.0	-22.6	227	17
2023-09-23T12:00	3689	644	-5.2	-23.2	226	16
2023-09-23T12:00	3711	642	-5.4	-23.0	226	16
2023-09-23T12:00	3742	639	-5.6	-22.9	226	15
2023-09-23T12:00	3766	637	-5.8	-22.8	226	15
2023-09-23T12:00	3785	636	-6.0	-23.0	226	16
2023-09-23T12:00	3816	633	-6.2	-23.1	225	16
2023-09-23T12:00	3843	631	-6.3	-23.3	225	16
2023-09-23T12:00	3869	629	-6.3	-23.1	225	17
2023-09-23T12:00	3900	627	-6.4	-23.7	226	17
2023-09-23T12:00	3926	624	-6.7	-23.8	228	17
2023-09-23T12:00	3953	622	-6.9	-24.2	229	18
2023-09-23T12:00	3977	620	-7.0	-24.4	230	18
2023-09-23T12:00	3998	619	-7.0	-24.5	231	18
2023-09-23T12:00	4026	617	-7.2	-24.9	230	18
2023-09-23T12:00	4046	615	-7.3	-25.1	230	18
2023-09-23T12:00	4078	612	-7.4	-25.7	230	17
2023-09-23T12:00	4105	610	-7.6	-26.0	230	16
2023-09-23T12:00	4138	608	-7.8	-25.8	229	16
2023-09-23T12:00	4163	606	-8.0	-26.1	228	16
2023-09-23T12:00	4186	604	-8.2	-27.1	225	16
2023-09-23T12:00	4207	602	-8.3	-27.0	223	16
2023-09-23T12:00	4238	600	-8.5	-26.9	222	17
2023-09-23T12:00	4259	598	-8.7	-27.1	222	17
2023-09-23T12:00	4288	596	-8.9	-27.5	223	17
2023-09-23T12:00	4313	594	-9.1	-27.6	222	17
2023-09-23T12:00	4350	591	-9.4	-27.7	221	17
2023-09-23T12:00	4376	589	-9.6	-28.5	220	17
2023-09-23T12:00	4393	588	-9.7	-29.4	218	16
2023-09-23T12:00	4417	586	-9.8	-28.8	216	16
2023-09-23T12:00	4448	584	-10.0	-27.7	215	16
2023-09-23T12:00	4468	582	-10.2	-28.8	214	17
2023-09-23T12:00	4487	581	-10.3	-27.2	214	17
2023-09-23T12:00	4507	579	-10.5	-26.0	215	17
2023-09-23T12:00	4528	578	-10.7	-23.6	215	17
2023-09-23T12:00	4559	575	-10.9	-22.3	216	17
2023-09-23T12:00	4588	573	-11.1	-22.5	218	17
2023-09-23T12:00	4617	571	-11.2	-20.9	219	17
2023-09-23T12:00	4641	569	-11.4	-20.6	219	17
2023-09-23T12:00	4666	567	-11.6	-21.0	219	18
2023-09-23T12:00	4685	566	-11.7	-21.3	218	18
2023-09-23T12:00	4706	564	-11.8	-21.4	217	18
2023-09-23T12:00	4740	562	-12.1	-21.1	217	18
2023-09-23T12:00	4764	560	-12.3	-21.2	217	17
2023-09-23T12:00	4790	558	-12.5	-21.3	218	17
2023-09-23T12:00	4817	556	-12.8	-21.3	219	17
2023-09-23T12:00	4849	554	-13.1	-21.5	220	16
2023-09-23T12:00	4873	552	-13.3	-21.8	221	16
2023-09-23T12:00	4896	550	-13.5	-22.2	222	17
2023-09-23T12:00	4929	548	-13.8	-22.3	224	17
2023-09-23T12:00	4961	546	-14.0	-22.6	225	17
2023-09-23T12:00	4978	545	-14.2	-23.0	225	17
2023-09-23T12:00	5004	543	-14.4	-23.0	225	17
2023-09-23T12:00	5021	542	-14.6	-22.9	224	17
2023-09-23T12:00	5040	540	-14.7	-22.6	224	18
2023-09-23T12:00	5057	539	-14.9	-22.6	225	18
2023-09-23T12:00	5079	537	-15.1	-22.2	226	18
2023-09-23T12:00	5107	536	-15.2	-21.8	226	18
2023-09-23T12:00	5123	534	-15.3	-22.6	225	17
2023-09-23T12:00	5144	533	-15.5	-23.3	223	17
2023-09-23T12:00	5165	531	-15.6	-24.5	221	16
2023-09-23T12:00	5186	530	-15.7	-25.4	218	16
2023-09-23T12:00	5201	529	-15.7	-25.6	216	16
2023-09-23T12:00	5230	527	-15.8	-26.2	215	17
2023-09-23T12:00	5253	525	-15.9	-26.6	215	17
2023-09-23T12:00	5275	524	-16.1	-26.8	216	17
2023-09-23T12:00	5294	522	-16.3	-26.9	218	17
2023-09-23T12:00	5327	520	-16.6	-27.0	220	17
2023-09-23T12:00	5358	518	-16.8	-27.1	220	17
2023-09-23T12:00	5374	517	-17.0	-27.1	219	17
2023-09-23T12:00	5401	515	-17.2	-27.5	216	17
2023-09-23T12:00	5427	513	-17.3	-28.0	213	17
2023-09-23T12:00	5459	511	-17.5	-28.5	211	17
2023-09-23T12:00	5481	509	-17.7	-28.9	209	17
2023-09-23T12:00	5505	508	-17.9	-30.0	209	17
2023-09-23T12:00	5525	506	-18.0	-30.1	208	17
2023-09-23T12:00	5546	505	-18.1	-30.1	208	17
2023-09-23T12:00	5581	503	-18.4	-30.8	208	17
2023-09-23T12:00	5599	501	-18.5	-31.0	208	16
2023-09-23T12:00	5626	500	-18.8	-31.1	209	16
2023-09-23T12:00	5658	498	-19.1	-31.3	210	16
2023-09-23T12:00	5682	496	-19.3	-31.2	211	16
2023-09-23T12:00	5715	494	-19.6	-31.8	211	16
2023-09-23T12:00	5745	492	-19.8	-32.5	212	17
2023-09-23T12:00	5786	489	-20.1	-33.4	214	17
2023-09-23T12:00	5821	487	-20.3	-34.2	216	17
2023-09-23T12:00	5850	485	-20.5	-34.7	218	17
2023-09-23T12:00	5891	482	-20.7	-35.2	221	17
2023-09-23T12:00	5915	481	-20.9	-36.0	222	17
2023-09-23T12:00	5943	479	-21.0	-36.6	222	17
2023-09-23T12:00	5973	477	-21.3	-38.3	222	17
2023-09-23T12:00	6001	475	-21.5	-39.1	222	16
2023-09-23T12:00	6019	474	-21.7	-39.1	221	16
2023-09-23T12:00	6038	473	-21.9	-39.2	220	16
2023-09-23T12:00	6063	471	-22.1	-39.1	218	17
2023-09-23T12:00	6091	469	-22.3	-39.5	217	17
2023-09-23T12:00	6123	467	-22.6	-39.7	217	17
2023-09-23T12:00	6144	466	-22.8	-39.3	217	17
2023-09-23T12:00	6176	464	-23.1	-38.7	217	17
2023-09-23T12:00	6197	462	-23.3	-37.6	217	17
2023-09-23T12:00	6223	461	-23.4	-36.4	216	17
2023-09-23T12:00	6247	459	-23.6		215	18
2023-09-23T12:00	6278	458	-23.8	-35.6	213	18
2023-09-23T12:00	6304	456	-23.9	-35.9	211	18
2023-09-23T12:00	6331	454	-24.1	-36.2	211	19
2023-09-23T12:00	6356	453	-24.2	-36.0	210	19
2023-09-23T12:00	6382	451	-24.4	-35.8	210	19
2023-09-23T12:00	6413	449	-24.6	-35.6	209	19
2023-09-23T12:00	6440	447	-24.9	-36.0	209	19
2023-09-23T12:00	6467	446	-25.2	-35.9	208	19
2023-09-23T12:00	6490	444	-25.3	-36.0	208	20
2023-09-23T12:00	6513	443	-25.5	-36.1	208	20
2023-09-23T12:00	6536	441	-25.7	-36.2	208	20
2023-09-23T12:00	6566	440	-26.0	-36.4	209	20
2023-09-23T12:00	6593	438	-26.1	-36.8	210	20
2023-09-23T12:00	6626	436	-26.4	-37.2	211	21
2023-09-23T12:00	6658	434	-26.6	-37.7	212	21
2023-09-23T12:00	6689	432	-26.9	-38.1	213	21
2023-09-23T12:00	6710	431	-27.1	-38.5	214	21
2023-09-23T12:00	6731	430	-27.2	-38.6	215	21
2023-09-23T12:00	6750	429	-27.3	-38.4	216	20
2023-09-23T12:00	6773	427	-27.5	-38.3	216	20
2023-09-23T12:00	6805	425	-27.8	-38.4	216	21
2023-09-23T12:00	6833	424	-28.0	-38.5	216	21
2023-09-23T12:00	6855	422	-28.2	-38.4	215	22
2023-09-23T12:00	6884	421	-28.5	-38.4	214	22
2023-09-23T12:00	6909	419	-28.7	-38.5	213	23
2023-09-23T12:00	6935	418	-29.0	-38.1	212	22
2023-09-23T12:00	6964	416	-29.2	-38.2	212	22
2023-09-23T12:00	6985	415	-29.4	-38.0	212	22
2023-09-23T12:00	7010	413	-29.6	-38.0	212	23
2023-09-23T12:00	7028	412	-29.8	-37.1	212	23
2023-09-23T12:00	7046	411	-29.9	-37.3	213	24
2023-09-23T12:00	7077	409	-30.2	-37.1	212	24
2023-09-23T12:00	7111	407	-30.4	-37.1	212	25
2023-09-23T12:00	7152	405	-30.7	-37.8	212	25
2023-09-23T12:00	7176	404	-30.9	-38.0	211	25
2023-09-23T12:00	7197	403	-31.0	-38.0	211	26
2023-09-23T12:00	7221	401	-31.1	-39.2	210	26
2023-09-23T12:00	7238	400	-31.1	-40.3	209	27
2023-09-23T12:00	7258	399	-31.0	-44.1	208	28
2023-09-23T12:00	7275	398	-31.0	-45.4	207	28
2023-09-23T12:00	7296	397	-30.9	-46.9	206	28
2023-09-23T12:00	7321	396	-31.1	-46.7	205	28
2023-09-23T12:00	7349	394	-31.4	-46.7	205	28
2023-09-23T12:00	7382	392	-31.5	-48.4	205	27
2023-09-23T12:00	7402	391	-31.6	-49.2	206	27
2023-09-23T12:00	7427	390	-31.8	-49.1	207	27
2023-09-23T12:00	7459	388	-32.1	-49.2	207	27
2023-09-23T12:00	7483	387	-32.3	-49.5	208	28
2023-09-23T12:00	7514	385	-32.6	-49.6	207	28
2023-09-23T12:00	7541	383	-32.8	-49.4	207	28
2023-09-23T12:00	7572	382	-33.1	-50.7	206	28
2023-09-23T12:00	7598	380	-33.2	-52.2	206	29
2023-09-23T12:00	7630	379	-33.4	-55.1	207	29
2023-09-23T12:00	7661	377	-33.5	-58.1	207	29
2023-09-23T12:00	7694	375	-33.7	-56.9	207	29
2023-09-23T12:00	7722	374	-33.9	-55.5	208	29
2023-09-23T12:00	7744	372	-34.0	-56.3	208	30
2023-09-23T12:00	7776	371	-34.2	-56.7	208	30
2023-09-23T12:00	7814	369	-34.4	-58.7	208	30
2023-09-23T12:00	7832	368	-34.6	-59.0	208	30
2023-09-23T12:00	7850	367	-34.7	-58.9	209	30
2023-09-23T12:00	7870	366	-34.9	-58.8	209	30
2023-09-23T12:00	7890	365	-35.1	-59.0	209	30
2023-09-23T12:00	7910	364	-35.3	-59.2	209	30
2023-09-23T12:00	7928	363	-35.4	-59.2	209	30
2023-09-23T12:00	7949	362	-35.6	-59.3	209	30
2023-09-23T12:00	7968	361	-35.8	-59.3	209	30
2023-09-23T12:00	7990	360	-36.0	-59.5	209	31
2023-09-23T12:00	8014	358	-36.2	-59.5	209	31
2023-09-23T12:00	8043	357	-36.5	-59.4	209	31
2023-09-23T12:00	8077	355	-36.8	-59.3	209	31
2023-09-23T12:00	8103	354	-37.0	-59.2	208	31
2023-09-23T12:00	8136	352	-37.4	-59.2	207	31
2023-09-23T12:00	8171	350	-37.7	-58.4	206	31
2023-09-23T12:00	8201	349	-38.0	-58.1	206	31
2023-09-23T12:00	8222	348	-38.2	-57.1	207	32
2023-09-23T12:00	8244	347	-38.2	-55.1	208	32
2023-09-23T12:00	8268	345	-38.2	-53.5	210	32
2023-09-23T12:00	8299	344	-38.4	-53.5	210	33
2023-09-23T12:00	8328	342	-38.6	-54.1	210	33
2023-09-23T12:00	8360	341	-38.8	-54.6	210	34
2023-09-23T12:00	8400	339	-39.0	-54.4	210	35
2023-09-23T12:00	8426	338	-39.0	-54.7	209	36
2023-09-23T12:00	8454	336	-39.3	-54.6	209	37
2023-09-23T12:00	8485	335	-39.5	-54.6	208	38
2023-09-23T12:00	8518	333	-39.6	-54.7	207	39
2023-09-23T12:00	8547	332	-39.9	-54.9	206	40
2023-09-23T12:00	8573	330	-40.1	-54.9	205	40
2023-09-23T12:00	8600	329	-40.2	-55.0	205	41
2023-09-23T12:00	8642	327	-40.5	-54.9	204	42
2023-09-23T12:00	8675	325	-40.6	-55.2	204	42
2023-09-23T12:00	8713	324	-40.8	-55.3	203	43
2023-09-23T12:00	8732	323	-40.9	-55.6	203	44
2023-09-23T12:00	8753	322	-41.0	-55.5	203	44
2023-09-23T12:00	8774	321	-40.9	-55.8	203	44
2023-09-23T12:00	8797	320	-41.0	-55.9	203	44
2023-09-23T12:00	8817	319	-41.1	-55.9	203	45
2023-09-23T12:00	8839	318	-41.3	-56.0	203	45
2023-09-23T12:00	8862	317	-41.5	-55.9	203	45
2023-09-23T12:00	8885	316	-41.7	-55.9	203	45
2023-09-23T12:00	8910	314	-41.9	-56.0	203	45
2023-09-23T12:00	8932	313	-42.0	-56.0	202	45
2023-09-23T12:00	8955	312	-42.2	-56.1	202	45
2023-09-23T12:00	8979	311	-42.4	-56.1	201	46
2023-09-23T12:00	9004	310	-42.5	-57.1	201	46
2023-09-23T12:00	9035	309	-42.4	-58.3	201	47
2023-09-23T12:00	9066	307	-42.5	-58.6	200	47
2023-09-23T12:00	9099	306	-42.6	-58.8	200	48
2023-09-23T12:00	9136	304	-42.8	-58.5	201	49
2023-09-23T12:00	9168	303	-42.9	-58.2	201	50
2023-09-23T12:00	9200	301	-43.0	-58.3	202	51
2023-09-23T12:00	9232	300	-43.0	-58.0	202	52
2023-09-23T12:00	9267	298	-42.9	-59.2	202	53
2023-09-23T12:00	9293	297	-43.0	-59.3	202	54
2023-09-23T12:00	9325	296	-43.1	-56.8	202	55
2023-09-23T12:00	9359	294	-43.3	-53.0	203	56
2023-09-23T12:00	9389	293	-43.5	-51.4	203	57
2023-09-23T12:00	9420	292	-43.7	-51.2	203	57
2023-09-23T12:00	9449	290	-44.0	-49.7	203	57
2023-09-23T12:00	9480	289	-44.1	-47.8	204	57
2023-09-23T12:00	9515	287	-44.3	-48.4	204	57
2023-09-23T12:00	9550	286	-44.6	-48.8	203	56
2023-09-23T12:00	9580	285	-44.8	-48.1	203	56
2023-09-23T12:00	9613	283	-45.1	-48.4	203	57
2023-09-23T12:00	9637	282	-45.1		203	57
2023-09-23T12:00	9661	281	-45.3	-50.4	202	57
2023-09-23T12:00	9689	280	-45.5	-50.7	202	57
2023-09-23T12:00	9718	279	-45.7	-50.8	202	58
2023-09-23T12:00	9749	278	-45.9	-51.7	201	58
2023-09-23T12:00	9771	277	-46.1	-53.1	201	58
2023-09-23T12:00	9797	275	-46.2	-54.8	200	58
2023-09-23T12:00	9826	274	-46.3	-56.1	200	58
2023-09-23T12:00	9856	273	-46.5	-57.8	200	58
2023-09-23T12:00	9887	272	-46.7	-57.2	199	58
2023-09-23T12:00	9918	271	-46.9	-56.8	199	58
2023-09-23T12:00	9951	269	-47.2	-56.8	199	58
2023-09-23T12:00	9986	268	-47.5	-56.6	199	57
2023-09-23T12:00	10016	267	-47.8	-56.5	199	57
2023-09-23T12:00	10050	265	-48.1	-56.5	199	57
2023-09-23T12:00	10077	264	-48.4	-56.5	199	57
2023-09-23T12:00	10108	263	-48.6	-56.5	199	58
2023-09-23T12:00	10138	262	-48.9	-56.9	200	58
2023-09-23T12:00	10169	260	-49.2	-57.2	200	58
2023-09-23T12:00	10200	259	-49.4	-57.5	200	59
2023-09-23T12:00	10228	258	-49.6	-57.8	200	59
2023-09-23T12:00	10258	257	-49.8	-57.8	200	59
2023-09-23T12:00	10287	256	-50.1	-57.3	200	59
2023-09-23T12:00	10315	255	-50.3	-57.0	200	59
2023-09-23T12:00	10344	254	-50.6	-57.3	200	59
2023-09-23T12:00	10371	253	-50.8	-57.4	201	59
2023-09-23T12:00	10401	251	-51.0	-57.3	201	59
2023-09-23T12:00	10430	250	-51.2	-57.3	201	59
2023-09-23T12:00	10459	249	-51.4	-57.3	201	58
2023-09-23T12:00	10493	248	-51.6	-57.8	201	58
2023-09-23T12:00	10525	247	-51.7	-59.7	201	57
2023-09-23T12:00	10554	245	-51.7	-62.9	201	57
2023-09-23T12:00	10583	244	-51.8	-65.3	202	56
2023-09-23T12:00	10613	243	-51.9	-65.2	202	55
2023-09-23T12:00	10643	242	-51.9	-64.7	202	55
2023-09-23T12:00	10677	241	-52.2	-64.6	202	54
2023-09-23T12:00	10707	240	-52.4	-64.4	202	54
2023-09-23T12:00	10734	239	-52.6	-64.2	202	54
2023-09-23T12:00	10763	238	-52.7	-64.1	202	53
2023-09-23T12:00	10792	237	-52.9	-64.2	202	53
2023-09-23T12:00	10820	236	-52.9	-64.1	202	53
2023-09-23T12:00	10846	235	-53.1	-64.2	203	53
2023-09-23T12:00	10870	234	-53.1	-64.2	203	53
2023-09-23T12:00	10892	233	-53.2	-64.6	204	52
2023-09-23T12:00	10915	232	-53.0	-64.9	204	52
2023-09-23T12:00	10936	231	-52.8	-65.3	205	52
2023-09-23T12:00	10955	231	-52.8	-65.9	205	51
2023-09-23T12:00	10977	230	-52.7	-66.3	205	51
2023-09-23T12:00	11001	229	-52.6	-66.6	204	51
2023-09-23T12:00	11024	228	-52.7	-66.8	204	51
2023-09-23T12:00	11051	227	-53.0	-66.7	204	51
2023-09-23T12:00	11076	226	-53.2	-66.7	203	51
2023-09-23T12:00	11098	226	-53.3	-66.7	203	51
2023-09-23T12:00	11120	225	-53.4	-67.2	203	52
2023-09-23T12:00	11144	224	-53.1	-67.6	204	52
2023-09-23T12:00	11166	223	-53.0	-67.9	204	53
2023-09-23T12:00	11187	223	-53.0	-68.1	204	53
2023-09-23T12:00	11209	222	-52.9	-68.2	204	53
2023-09-23T12:00	11230	221	-52.9	-68.8	204	53
2023-09-23T12:00	11250	220	-52.6	-69.2	204	53
2023-09-23T12:00	11272	220	-52.2	-69.5	205	53
2023-09-23T12:00	11295	219	-52.2	-69.7	205	53
2023-09-23T12:00	11315	218	-52.4	-69.8	205	53
2023-09-23T12:00	11348	217	-52.6	-70.1	205	53
2023-09-23T12:00	11380	216	-52.5	-70.5	205	51
2023-09-23T12:00	11411	215	-52.6	-71.5	204	50
2023-09-23T12:00	11431	214	-52.6	-72.3	204	49
2023-09-23T12:00	11459	213	-52.6	-73.3	204	48
2023-09-23T12:00	11486	213	-52.6	-73.9	204	47
2023-09-23T12:00	11509	212	-52.8	-74.1	204	46
2023-09-23T12:00	11530	211	-52.9	-74.1	204	45
2023-09-23T12:00	11551	210	-52.9	-74.3	204	44
2023-09-23T12:00	11575	210	-52.8	-74.1	204	44
2023-09-23T12:00	11596	209	-52.6	-73.5	204	43
2023-09-23T12:00	11617	208	-52.7	-73.1	203	42
2023-09-23T12:00	11642	207	-52.7	-72.7	203	41
2023-09-23T12:00	11663	207	-52.7	-72.6	203	41
2023-09-23T12:00	11685	206	-52.6	-72.6	203	40
2023-09-23T12:00	11705	205	-52.5	-73.0	203	39
2023-09-23T12:00	11729	205	-52.4	-73.5	203	38
2023-09-23T12:00	11750	204	-52.2	-74.2	203	37
2023-09-23T12:00	11772	203	-52.0	-75.0	202	36
2023-09-23T12:00	11793	203	-52.0	-75.6	201	36
2023-09-23T12:00	11814	202	-51.9	-76.5	201	35
2023-09-23T12:00	11838	201	-51.5	-77.1	200	35
2023-09-23T12:00	11859	201	-50.9	-77.3	200	34
2023-09-23T12:00	11882	200	-50.8	-77.5	200	34
2023-09-23T12:00	11902	199	-50.4	-77.5	200	34
2023-09-23T12:00	11924	199	-49.7	-77.5	201	34
2023-09-23T12:00	11945	198	-49.3	-77.6	202	34
2023-09-23T12:00	11968	197	-48.8	-77.5	203	33
2023-09-23T12:00	11993	196	-48.5	-77.6	205	33
2023-09-23T12:00	12020	196	-48.3	-77.9	207	32
2023-09-23T12:00	12046	195	-48.0	-77.6	209	31
2023-09-23T12:00	12081	194	-47.7	-77.4	210	30
2023-09-23T12:00	12115	193	-47.9	-77.6	211	29
2023-09-23T12:00	12149	192	-48.2	-77.4	210	29
2023-09-23T12:00	12187	191	-48.5	-77.6	209	29
2023-09-23T12:00	12218	190	-48.8	-77.9	207	30
2023-09-23T12:00	12248	189	-49.0	-78.0	207	30
2023-09-23T12:00	12277	188	-49.2	-77.8	207	30
2023-09-23T12:00	12304	187	-49.5	-78.0	207	29
2023-09-23T12:00	12343	186	-49.7	-78.2	208	28
2023-09-23T12:00	12374	185	-50.0	-78.4	209	27
2023-09-23T12:00	12400	185	-50.2	-78.6	210	26
2023-09-23T12:00	12434	184	-50.6	-78.5	210	25
2023-09-23T12:00	12462	183	-50.8	-78.7	210	25
2023-09-23T12:00	12487	182	-51.0	-78.9	210	25
2023-09-23T12:00	12511	182	-51.1	-78.9	210	26
2023-09-23T12:00	12533	181	-51.2	-79.0	211	26
2023-09-23T12:00	12557	180	-51.3	-79.1	211	26
2023-09-23T12:00	12580	180	-51.4	-79.2	211	27
2023-09-23T12:00	12604	179	-51.6	-79.3	211	27
2023-09-23T12:00	12624	178	-51.7	-79.4	211	27
2023-09-23T12:00	12647	178	-51.8	-79.5	210	26
2023-09-23T12:00	12669	177	-51.7	-79.4	210	26
2023-09-23T12:00	12691	177	-51.8	-79.8	209	26
2023-09-23T12:00	12713	176	-51.9	-79.9	208	26
2023-09-23T12:00	12736	175	-51.7	-79.7	208	26
2023-09-23T12:00	12757	175	-51.8	-79.8	207	26
2023-09-23T12:00	12779	174	-51.8	-79.8	207	26
2023-09-23T12:00	12801	174	-51.8	-79.8	208	26
2023-09-23T12:00	12823	173	-51.7	-79.7	208	27
2023-09-23T12:00	12845	172	-51.8	-79.8	209	27
2023-09-23T12:00	12866	172	-51.8	-79.8	210	27
2023-09-23T12:00	12888	171	-51.8	-80.1	211	27
2023-09-23T12:00	12910	171	-51.8	-79.8	212	27
2023-09-23T12:00	12931	170	-51.7	-80.1	213	27
2023-09-23T12:00	12953	170	-51.6	-80.0	213	27
2023-09-23T12:00	12975	169	-51.5	-79.9	214	27
2023-09-23T12:00	12996	169	-51.5	-79.9	214	26
2023-09-23T12:00	13015	168	-51.6	-80.0	214	26
2023-09-23T12:00	13036	167	-51.5	-79.9	214	25
2023-09-23T12:00	13057	167	-51.6	-80.0	214	25
2023-09-23T12:00	13081	166	-51.6	-80.0	215	25
2023-09-23T12:00	13100	166	-51.6	-80.0	216	24
2023-09-23T12:00	13120	165	-51.7	-80.1	217	24
2023-09-23T12:00	13140	165	-51.7	-80.1	217	23
2023-09-23T12:00	13164	164	-51.7	-80.1	217	23
2023-09-23T12:00	13182	164	-51.6	-80.0	217	22
2023-09-23T12:00	13202	163	-51.7	-80.1	216	22
2023-09-23T12:00	13223	163	-51.8	-79.8	215	21
2023-09-23T12:00	13243	162	-51.9	-79.9	214	21
2023-09-23T12:00	13264	162	-52.0	-80.0	213	21
2023-09-23T12:00	13284	161	-52.0	-80.0	213	21
2023-09-23T12:00	13301	161	-51.9	-80.2	212	21
2023-09-23T12:00	13323	160	-51.7	-80.1	212	21
2023-09-23T12:00	13341	160	-51.5	-80.3	212	21
2023-09-23T12:00	13360	159	-51.6	-80.4	212	21
2023-09-23T12:00	13382	159	-51.7	-80.1	211	21
2023-09-23T12:00	13401	158	-51.7	-80.1	210	21
2023-09-23T12:00	13422	158	-51.8	-80.1	210	21
2023-09-23T12:00	13444	157	-51.8	-80.1	209	21
2023-09-23T12:00	13465	157	-51.8	-80.1	208	21
2023-09-23T12:00	13486	156	-51.9	-80.2	208	21
2023-09-23T12:00	13508	156	-51.8	-80.5	208	21
2023-09-23T12:00	13528	155	-51.7	-80.4	208	21
2023-09-23T12:00	13551	155	-51.7	-80.4	208	22
2023-09-23T12:00	13569	154	-51.6	-80.4	208	22
2023-09-23T12:00	13593	154	-51.6	-80.4	208	22
2023-09-23T12:00	13615	153	-51.6	-80.4	208	23
2023-09-23T12:00	13634	153	-51.7	-80.4	208	23
2023-09-23T12:00	13655	152	-51.8	-80.5	208	23
2023-09-23T12:00	13676	152	-51.9	-80.6	208	23
2023-09-23T12:00	13697	151	-52.0	-80.7	208	22
2023-09-23T12:00	13719	151	-52.0	-80.7	208	22
2023-09-23T12:00	13742	150	-52.0	-80.7	207	21
2023-09-23T12:00	13765	150	-52.0	-80.7	207	21
2023-09-23T12:00	13785	149	-52.0	-80.7	206	21
2023-09-23T12:00	13805	149	-52.1	-80.7	206	21
2023-09-23T12:00	13828	148	-52.3	-80.9	206	21
2023-09-23T12:00	13850	148	-52.2	-80.8	206	22
2023-09-23T12:00	13873	147	-52.1	-80.7	207	22
2023-09-23T12:00	13894	147	-52.2	-80.8	207	23
2023-09-23T12:00	13917	146	-52.2	-80.8	207	23
2023-09-23T12:00	13940	146	-52.3	-80.9	207	23
2023-09-23T12:00	13962	145	-52.5	-81.0	207	24
2023-09-23T12:00	13986	145	-52.6	-81.1	207	24
2023-09-23T12:00	14007	144	-52.6	-81.1	208	24
2023-09-23T12:00	14030	144	-52.7	-81.2	208	23
2023-09-23T12:00	14051	143	-52.7	-81.2	207	23
2023-09-23T12:00	14077	143	-52.6	-81.1	207	23
2023-09-23T12:00	14097	142	-52.5	-81.0	205	23
2023-09-23T12:00	14121	142	-52.6	-81.1	204	22
2023-09-23T12:00	14146	141	-52.6	-81.1	203	22
2023-09-23T12:00	14171	141	-52.6	-81.1	202	22
2023-09-23T12:00	14191	140	-52.7	-81.2	202	22
2023-09-23T12:00	14216	140	-52.6	-80.8	202	22
2023-09-23T12:00	14237	139	-52.7	-80.8	203	22
2023-09-23T12:00	14260	139	-52.8	-80.9	203	22
2023-09-23T12:00	14282	138	-52.8	-80.9	203	22
2023-09-23T12:00	14307	138	-52.8	-80.9	203	22
2023-09-23T12:00	14329	137	-52.7	-81.2	204	23
2023-09-23T12:00	14353	137	-52.5	-81.0	204	23
2023-09-23T12:00	14376	136	-52.5	-81.0	205	23
2023-09-23T12:00	14400	136	-52.4	-81.0	206	24
2023-09-23T12:00	14424	135	-52.4	-81.0	206	24
2023-09-23T12:00	14447	135	-52.5	-81.0	206	24
2023-09-23T12:00	14470	134	-52.6	-81.1	206	24
2023-09-23T12:00	14494	134	-52.6	-81.1	206	24
2023-09-23T12:00	14517	133	-52.6	-81.1	206	23
2023-09-23T12:00	14540	133	-52.5	-81.0	206	23
2023-09-23T12:00	14564	132	-52.5	-81.0	207	23
2023-09-23T12:00	14588	132	-52.6	-81.1	207	23
2023-09-23T12:00	14610	131	-52.6	-81.1	208	22
2023-09-23T12:00	14632	131	-52.6	-81.1	209	22
2023-09-23T12:00	14655	130	-52.6	-81.1	209	22
2023-09-23T12:00	14679	130	-52.6	-81.1	209	22
2023-09-23T12:00	14700	129	-52.5	-81.0	210	22
2023-09-23T12:00	14722	129	-52.5	-81.0	210	22
2023-09-23T12:00	14743	129	-52.6	-81.1	211	21
2023-09-23T12:00	14766	128	-52.7	-81.6	212	21
2023-09-23T12:00	14785	128	-52.8	-81.7	213	21
2023-09-23T12:00	14807	127	-52.7	-81.6	214	20
2023-09-23T12:00	14833	127	-52.7	-81.6	214	20
2023-09-23T12:00	14854	126	-52.8	-81.7	213	19
2023-09-23T12:00	14874	126	-52.9	-81.7	212	19
2023-09-23T12:00	14895	126	-52.9	-82.1	211	18
2023-09-23T12:00	14916	125	-53.0	-82.2	211	18
2023-09-23T12:00	14938	125	-52.8	-82.1	211	18
2023-09-23T12:00	14962	124	-52.6	-81.9	211	18
2023-09-23T12:00	14980	124	-52.7	-82.0	211	18
2023-09-23T12:00	15000	124	-52.8	-82.1	212	18
2023-09-23T12:00	15022	123	-52.7	-82.0	213	18
2023-09-23T12:00	15043	123	-52.6	-81.9	214	18
2023-09-23T12:00	15063	122	-52.6	-81.9	214	18
2023-09-23T12:00	15084	122	-52.6	-82.4	214	17
2023-09-23T12:00	15104	122	-52.4	-82.2	212	17
2023-09-23T12:00	15123	121	-52.2	-82.1	210	17
2023-09-23T12:00	15146	121	-52.1	-82.0	207	17
2023-09-23T12:00	15166	120	-51.9	-81.8	205	17
2023-09-23T12:00	15186	120	-51.8	-82.2	203	17
2023-09-23T12:00	15209	120	-51.8	-82.2	201	17
2023-09-23T12:00	15231	119	-51.6	-82.1	199	17
2023-09-23T12:00	15251	119	-51.5	-82.0	198	18
2023-09-23T12:00	15274	118	-51.6	-82.1	198	18
2023-09-23T12:00	15294	118	-51.7	-82.2	198	18
2023-09-23T12:00	15317	118	-51.8	-82.2	198	18
2023-09-23T12:00	15339	117	-51.7	-81.7	198	18
2023-09-23T12:00	15363	117	-51.8	-81.8	198	18
2023-09-23T12:00	15384	116	-52.0	-81.9	196	18
2023-09-23T12:00	15406	116	-52.2	-82.1	195	18
2023-09-23T12:00	15429	116	-52.4	-82.2	193	18
2023-09-23T12:00	15452	115	-52.3	-82.1	191	18
2023-09-23T12:00	15476	115	-52.1	-82.0	190	19
2023-09-23T12:00	15497	114	-52.1	-82.0	190	19
2023-09-23T12:00	15517	114	-52.2	-82.1	190	20
2023-09-23T12:00	15542	114	-52.2	-82.1	191	20
2023-09-23T12:00	15565	113	-52.4	-82.2	192	20
2023-09-23T12:00	15587	113	-52.5	-82.3	193	21
2023-09-23T12:00	15612	112	-52.7	-82.0	194	21
2023-09-23T12:00	15635	112	-52.8	-82.1	196	21
2023-09-23T12:00	15662	112	-53.0	-82.2	197	21
2023-09-23T12:00	15683	111	-53.2	-82.4	197	22
2023-09-23T12:00	15707	111	-53.3	-82.5	198	22
2023-09-23T12:00	15731	110	-53.4	-82.5	199	23
2023-09-23T12:00	15756	110	-53.5	-82.6	200	23
2023-09-23T12:00	15778	110	-53.6	-82.7	201	24
2023-09-23T12:00	15803	109	-53.5	-82.6	201	24
2023-09-23T12:00	15827	109	-53.6	-82.7	202	24
2023-09-23T12:00	15850	108	-53.7	-82.8	203	23
2023-09-23T12:00	15876	108	-53.7	-82.8	204	23
2023-09-23T12:00	15899	108	-53.6	-82.7	205	22
2023-09-23T12:00	15924	107	-53.7	-82.8	206	22
2023-09-23T12:00	15946	107	-53.6	-82.7	207	22
2023-09-23T12:00	15969	106	-53.6	-82.7	208	21
2023-09-23T12:00	15991	106	-53.5	-83.0	208	21
2023-09-23T12:00	16017	106	-53.3	-82.9	208	21
2023-09-23T12:00	16038	105	-53.3	-82.9	209	20
2023-09-23T12:00	16062	105	-53.3	-82.9	209	20
2023-09-23T12:00	16082	105	-53.2	-82.8	209	19
2023-09-23T12:00	16107	104	-53.1	-82.7	210	19
2023-09-23T12:00	16132	104	-52.9	-83.1	211	18
2023-09-23T12:00	16154	103	-52.7	-82.9	212	18
2023-09-23T12:00	16176	103	-52.5	-82.8	213	18
2023-09-23T12:00	16196	103	-52.6	-82.8	214	18
2023-09-23T12:00	16218	102	-52.7	-82.4	215	18
2023-09-23T12:00	16240	102	-52.8	-82.5	215	18
2023-09-23T12:00	16261	102	-52.9	-82.6	214	18
2023-09-23T12:00	16281	101	-53.0	-82.7	213	18
2023-09-23T12:00	16303	101	-53.1	-82.7	213	18
2023-09-23T12:00	16325	101	-53.0	-82.7	212	18
2023-09-23T12:00	16348	100	-53.1	-82.7	212	18
2023-09-23T12:00	16369	100	-53.3	-82.9	212	18
2023-09-23T12:00	16388	100	-53.4	-83.0	212	18
2023-09-23T12:00	16410	99	-53.4	-83.0	212	18
2023-09-23T12:00	16429	99	-53.3	-82.9	212	18
2023-09-23T12:00	16450	99	-53.3	-82.9	213	18
2023-09-23T12:00	16472	98	-53.1	-83.2	213	19
2023-09-23T12:00	16493	98	-52.9	-83.1	214	19
2023-09-23T12:00	16514	98	-53.0	-83.1	214	20
2023-09-23T12:00	16534	97	-53.0	-83.1	215	20
2023-09-23T12:00	16556	97	-53.1	-83.2	217	20
2023-09-23T12:00	16578	97	-53.0	-83.1	218	20
2023-09-23T12:00	16600	96	-53.0	-83.1	219	20
2023-09-23T12:00	16622	96	-53.0	-83.1	221	20
2023-09-23T12:00	16642	96	-52.9	-83.1	223	20
2023-09-23T12:00	16664	95	-52.9	-83.1	225	20
2023-09-23T12:00	16688	95	-52.9	-83.1	227	19
2023-09-23T12:00	16706	95	-52.9	-83.1	229	19
2023-09-23T12:00	16730	95	-52.6	-82.8	231	19
2023-09-23T12:00	16756	94	-52.6	-82.8	233	19
2023-09-23T12:00	16777	94	-52.5	-83.3	235	19
2023-09-23T12:00	16801	94	-52.4	-83.2	236	19
2023-09-23T12:00	16825	93	-52.3	-83.1	238	19
2023-09-23T12:00	16850	93	-52.2	-83.1	240	19
2023-09-23T12:00	16873	92	-52.3	-83.1	241	18
2023-09-23T12:00	16898	92	-52.4	-83.2	242	18
2023-09-23T12:00	16922	92	-52.4	-83.2	243	18
2023-09-23T12:00	16948	91	-52.6	-83.3	244	18
2023-09-23T12:00	16969	91	-52.6	-83.3	246	17
2023-09-23T12:00	16993	91	-52.4	-83.2	246	17
2023-09-23T12:00	17016	90	-52.4	-83.2	247	16
2023-09-23T12:00	17039	90	-52.5	-83.3	247	15
2023-09-23T12:00	17065	90	-52.4	-83.2	246	14
2023-09-23T12:00	17092	89	-52.4	-83.2	245	13
2023-09-23T12:00	17118	89	-52.5	-83.3	244	12
2023-09-23T12:00	17143	89	-52.4	-83.2	242	11
2023-09-23T12:00	17171	88	-52.4	-83.2	240	10
2023-09-23T12:00	17194	88	-52.4	-83.2	237	10
2023-09-23T12:00	17223	88	-52.5	-83.3	233	9
2023-09-23T12:00	17246	87	-52.6	-82.8	229	9
2023-09-23T12:00	17274	87	-52.8	-83.0	225	8
2023-09-23T12:00	17299	87	-52.8	-83.0	222	8
2023-09-23T12:00	17322	86	-52.9	-83.1	218	8
2023-09-23T12:00	17346	86	-53.0	-83.1	215	7
2023-09-23T12:00	17373	86	-53.1	-83.2	211	7
2023-09-23T12:00	17397	85	-53.2	-83.3	207	7
2023-09-23T12:00	17422	85	-53.1	-83.2	202	7
2023-09-23T12:00	17441	85	-53.2	-83.3	197	7
2023-09-23T12:00	17469	84	-53.3		192	7
2023-09-23T12:00	17494	84	-53.5	-83.5	187	7
2023-09-23T12:00	17521	84	-53.6	-83.6	183	8
2023-09-23T12:00	17552	83	-53.7	-83.7	181	9
2023-09-23T12:00	17585	83	-53.9	-83.8	179	9
2023-09-23T12:00	17611	82	-53.9	-83.8	179	10
2023-09-23T12:00	17635	82	-54.2	-83.6	179	10
2023-09-23T12:00	17659	82	-54.3	-83.6	180	11
2023-09-23T12:00	17683	82	-54.5	-83.8	182	11
2023-09-23T12:00	17704	81	-54.6	-83.9	183	11
2023-09-23T12:00	17726	81	-54.7	-83.9	185	11
2023-09-23T12:00	17746	81	-54.7	-83.9	187	11
2023-09-23T12:00	17772	80	-54.9	-84.1	189	11
2023-09-23T12:00	17792	80	-55.0	-84.2	191	11
2023-09-23T12:00	17815	80	-55.1	-84.2	193	12
2023-09-23T12:00	17839	80	-55.3	-84.4	196	12
2023-09-23T12:00	17860	79	-55.4	-84.5	198	13
2023-09-23T12:00	17881	79	-55.5	-84.5	201	13
2023-09-23T12:00	17902	79	-55.7	-84.7	204	14
2023-09-23T12:00	17926	79	-55.7	-84.7	207	15
2023-09-23T12:00	17950	78	-55.3	-84.9	210	16
2023-09-23T12:00	17969	78	-54.8	-84.5	212	16
2023-09-23T12:00	17992	78	-54.5	-84.8	214	17
2023-09-23T12:00	18016	77	-54.3	-84.6	215	17
2023-09-23T12:00	18037	77	-53.8	-84.2	216	17
2023-09-23T12:00	18058	77	-53.5	-84.0	217	17
2023-09-23T12:00	18080	77	-53.3	-84.4	216	17
2023-09-23T12:00	18101	76	-53.2	-84.4	216	17
2023-09-23T12:00	18121	76	-53.1	-83.7	215	17
2023-09-23T12:00	18145	76	-53.1	-83.7	215	17
2023-09-23T12:00	18167	76	-52.9	-83.6	215	16
2023-09-23T12:00	18186	75	-52.9	-83.6	215	16
2023-09-23T12:00	18211	75	-53.1	-83.7	215	16
2023-09-23T12:00	18232	75	-53.2	-83.8	214	16
2023-09-23T12:00	18258	75	-53.3	-83.9	212	16
2023-09-23T12:00	18280	74	-53.5	-84.0	210	16
2023-09-23T12:00	18306	74	-53.6	-84.1	207	15
2023-09-23T12:00	18329	74	-53.5	-84.0	204	15
2023-09-23T12:00	18354	73	-53.4	-83.9	202	14
2023-09-23T12:00	18377	73	-53.2	-83.8	201	14
2023-09-23T12:00	18398	73	-53.3	-83.9	200	14
2023-09-23T12:00	18425	73	-53.4	-83.9	200	13
2023-09-23T12:00	18451	72	-53.5	-83.5	200	13
2023-09-23T12:00	18477	72	-53.7	-83.7	200	13
2023-09-23T12:00	18499	72	-53.9	-83.8	199	12
2023-09-23T12:00	18526	72	-54.1	-84.0	198	12
2023-09-23T12:00	18552	71	-54.3	-84.1	195	12
2023-09-23T12:00	18576	71	-54.3	-84.1	192	11
2023-09-23T12:00	18599	71	-54.2	-84.0	188	11
2023-09-23T12:00	18623	70	-54.2	-84.0	186	12
2023-09-23T12:00	18652	70	-54.2	-84.0	184	12
2023-09-23T12:00	18674	70	-54.3	-84.1	183	13
2023-09-23T12:00	18700	70	-54.4	-84.2	183	13
2023-09-23T12:00	18728	69	-54.6	-84.3	183	14
2023-09-23T12:00	18751	69	-54.7	-84.4	184	14
2023-09-23T12:00	18777	69	-54.8	-84.5	185	15
2023-09-23T12:00	18805	68	-55.0	-84.2	187	15
2023-09-23T12:00	18828	68	-55.0	-84.2	189	15
2023-09-23T12:00	18855	68	-55.0	-84.2	191	14
2023-09-23T12:00	18878	68	-55.1	-84.2	194	14
2023-09-23T12:00	18904	67	-55.3	-84.4	198	14
2023-09-23T12:00	18925	67	-55.5	-84.5	202	14
2023-09-23T12:00	18952	67	-55.6	-84.6	207	14
2023-09-23T12:00	18975	67	-55.6	-84.6	210	14
2023-09-23T12:00	18999	66	-55.4	-84.9	214	15
2023-09-23T12:00	19022	66	-55.0	-84.6	216	15
2023-09-23T12:00	19047	66	-55.1	-84.7	217	15
2023-09-23T12:00	19074	66	-54.9	-84.6	219	15
2023-09-23T12:00	19095	65	-54.8	-84.5	219	15
2023-09-23T12:00	19121	65	-54.8	-84.5	220	15
2023-09-23T12:00	19146	65	-54.9	-84.6	221	16
2023-09-23T12:00	19173	65	-55.0	-84.6	221	16
2023-09-23T12:00	19196	64	-55.2	-84.8	222	16
2023-09-23T12:00	19220	64	-55.3	-84.4	222	16
2023-09-23T12:00	19243	64	-55.4	-84.5	222	16
2023-09-23T12:00	19267	64	-55.5	-84.5	222	15
2023-09-23T12:00	19294	63	-55.7	-84.7	222	15
2023-09-23T12:00	19320	63	-55.7	-84.7	221	15
2023-09-23T12:00	19343	63	-55.8	-84.8	221	15
2023-09-23T12:00	19373	63	-55.9	-84.8	221	15
2023-09-23T12:00	19395	62	-55.9	-84.8	222	15
2023-09-23T12:00	19420	62	-56.0	-84.9	223	15
2023-09-23T12:00	19445	62	-56.1	-85.0	225	15
2023-09-23T12:00	19469	62	-56.2	-85.1	226	15
2023-09-23T12:00	19494	61	-56.1	-85.0	226	15
2023-09-23T12:00	19518	61	-56.0	-84.9	225	14
2023-09-23T12:00	19544	61	-56.0	-84.9	224	14
2023-09-23T12:00	19566	61	-56.0	-84.9	223	14
2023-09-23T12:00	19595	61	-56.1	-85.0	221	14
2023-09-23T12:00	19621	60	-56.2	-85.1	220	14
2023-09-23T12:00	19646	60	-56.1	-85.0	218	14
2023-09-23T12:00	19671	60	-55.6	-85.1	216	14
2023-09-23T12:00	19697	60	-55.4	-84.9	215	15
2023-09-23T12:00	19721	59	-55.6	-85.1	213	15
2023-09-23T12:00	19747	59	-55.7	-85.2	213	16
2023-09-23T12:00	19771	59	-55.8	-85.2	213	16
2023-09-23T12:00	19798	59	-56.0		213	16
2023-09-23T12:00	19824	58	-56.0		215	16
2023-09-23T12:00	19851	58	-55.9	-85.3	216	16
2023-09-23T12:00	19874	58	-55.5	-85.0	218	16
2023-09-23T12:00	19902	58	-55.2	-85.3	219	16
2023-09-23T12:00	19928	57	-54.9	-85.1	220	16
2023-09-23T12:00	19953	57	-54.8	-85.5	221	15
2023-09-23T12:00	19979	57	-54.5	-85.3	223	15
2023-09-23T12:00	20003	57	-54.1	-85.0	224	15
2023-09-23T12:00	20030	57	-53.9	-84.9	226	15
2023-09-23T12:00	20057	56	-53.9	-84.9	228	15
2023-09-23T12:00	20080	56	-53.9	-84.9	228	15
2023-09-23T12:00	20106	56	-53.9	-84.9	229	15
2023-09-23T12:00	20133	56	-53.9	-84.3	229	15
2023-09-23T12:00	20159	55	-53.9	-84.3	228	14
2023-09-23T12:00	20185	55	-54.1	-84.5	227	14
2023-09-23T12:00	20208	55	-54.3	-84.6	226	13
2023-09-23T12:00	20237	55	-54.6	-84.8	224	13
2023-09-23T12:00	20262	55	-54.6	-84.8	223	12
2023-09-23T12:00	20288	54	-54.2	-85.1	222	12
2023-09-23T12:00	20314	54	-53.9	-84.9	222	11
2023-09-23T12:00	20341	54	-53.8	-84.8	224	11
2023-09-23T12:00	20364	54	-53.8	-84.8	226	12
2023-09-23T12:00	20390	53	-53.9	-84.9	228	12
2023-09-23T12:00	20415	53	-54.0	-84.4	229	12
2023-09-23T12:00	20441	53	-54.1	-84.5	230	12
2023-09-23T12:00	20468	53	-54.2	-84.5	230	12
2023-09-23T12:00	20495	53	-54.3	-84.6	231	13
2023-09-23T12:00	20518	52	-54.5	-84.8	232	13
2023-09-23T12:00	20544	52	-54.6	-84.8	234	12
2023-09-23T12:00	20570	52	-54.7	-84.9	236	12
2023-09-23T12:00	20594	52	-54.7	-84.9	239	12
2023-09-23T12:00	20621	52	-54.7	-84.9	242	11
2023-09-23T12:00	20651	51	-54.5	-85.3	244	11
2023-09-23T12:00	20672	51	-54.0	-84.9	247	10
2023-09-23T12:00	20700	51	-53.6	-84.6	248	10
2023-09-23T12:00	20729	51	-53.5	-84.6	249	9
2023-09-23T12:00	20754	50	-53.6	-84.6	249	9
2023-09-23T12:00	20784	50	-53.8	-84.8	248	9
2023-09-23T12:00	20809	50	-54.0	-84.9	247	9
2023-09-23T12:00	20832	50	-54.1	-84.5	245	8
2023-09-23T12:00	20859	50	-54.3	-84.6	244	8
2023-09-23T12:00	20890	49	-54.4	-84.7	242	8
2023-09-23T12:00	20913	49	-54.6	-84.8	241	8
2023-09-23T12:00	20941	49	-54.7	-84.9	240	8
2023-09-23T12:00	20967	49	-54.9	-85.1	240	8
2023-09-23T12:00	20995	49	-55.1	-85.2	239	7
2023-09-23T12:00	21021	48	-55.3	-84.9	240	7
2023-09-23T12:00	21047	48	-55.4	-84.9	240	7
2023-09-23T12:00	21074	48	-55.5	-85.0	240	7
2023-09-23T12:00	21098	48	-55.7	-85.2	241	7
2023-09-23T12:00	21127	48	-55.9	-85.3	240	7
2023-09-23T12:00	21154	47	-56.1	-85.5	240	7
2023-09-23T12:00	21182	47	-56.3	-85.6	239	7
2023-09-23T12:00	21205	47	-56.5	-85.8	238	7
2023-09-23T12:00	21236	47	-56.5	-85.8	237	6
2023-09-23T12:00	21258	47	-56.4	-85.7	236	6
2023-09-23T12:00	21287	46	-56.5	-85.8	234	6
2023-09-23T12:00	21311	46	-56.5	-85.8	233	6
2023-09-23T12:00	21337	46	-56.4	-85.7	232	6
2023-09-23T12:00	21362	46	-56.3	-85.6	231	7
2023-09-23T12:00	21385	46	-56.3	-85.6	229	7
2023-09-23T12:00	21414	46	-56.3	-85.6	228	7
2023-09-23T12:00	21439	45	-56.5	-85.8	226	7
2023-09-23T12:00	21463	45	-56.6	-85.8	224	7
2023-09-23T12:00	21485	45	-56.7	-85.9	222	8
2023-09-23T12:00	21512	45	-56.7	-85.9	220	8
2023-09-23T12:00	21539	45	-56.5	-85.8	218	8
2023-09-23T12:00	21560	44	-56.7	-85.9	217	8
2023-09-23T12:00	21584	44	-56.9	-86.1	217	8
2023-09-23T12:00	21605	44	-56.8	-86.0	217	8
2023-09-23T12:00	21631	44	-56.8	-86.0	217	9
2023-09-23T12:00	21653	44	-56.8	-86.0	217	9
2023-09-23T12:00	21679	44	-56.8	-86.0	217	9
2023-09-23T12:00	21702	43	-56.9	-86.1	216	9
2023-09-23T12:00	21726	43	-57.0	-86.1	217	9
2023-09-23T12:00	21751	43	-57.0	-86.1	218	9
2023-09-23T12:00	21780	43	-56.8	-86.0	221	9
2023-09-23T12:00	21804	43	-56.8	-86.5	224	9
2023-09-23T12:00	21830	43	-56.6	-86.3	226	8
2023-09-23T12:00	21850	42	-56.4	-86.2	228	8
2023-09-23T12:00	21880	42	-56.4	-86.2	227	8
2023-09-23T12:00	21909	42	-56.3	-86.1	225	8
2023-09-23T12:00	21930	42	-56.3	-86.1	221	8
2023-09-23T12:00	21952	42	-56.2	-86.0	217	8
2023-09-23T12:00	21982	42	-56.2	-86.0	214	8
2023-09-23T12:00	22005	41	-56.2	-86.0	212	9
2023-09-23T12:00	22029	41	-56.1	-86.0	211	9
2023-09-23T12:00	22058	41	-56.0	-85.9	211	10
2023-09-23T12:00	22082	41	-56.2	-86.0	212	10
2023-09-23T12:00	22111	41	-56.3	-85.6	214	10
2023-09-23T12:00	22136	41	-56.5	-85.8	216	11
2023-09-23T12:00	22162	40	-56.6	-85.8	219	11
2023-09-23T12:00	22187	40	-56.8	-86.0	223	11
2023-09-23T12:00	22215	40	-56.9	-86.1	226	11
2023-09-23T12:00	22244	40	-56.9	-86.1	229	11
2023-09-23T12:00	22269	40	-57.0	-86.1	232	11
2023-09-23T12:00	22298	40	-57.1	-86.2	234	11
2023-09-23T12:00	22323	39	-57.2	-86.3	235	11
2023-09-23T12:00	22352	39	-57.3	-86.4	236	11
2023-09-23T12:00	22380	39	-57.2	-86.3	237	11
2023-09-23T12:00	22407	39	-56.9	-86.6	237	11
2023-09-23T12:00	22435	39	-56.6	-86.3	237	10
2023-09-23T12:00	22464	39	-56.6	-86.3	235	10
2023-09-23T12:00	22493	38	-56.4		233	9
2023-09-23T12:00	22517	38	-55.9	-86.3	230	9
2023-09-23T12:00	22549	38	-55.7	-86.2	227	8
2023-09-23T12:00	22571	38	-55.7	-86.2	224	8
2023-09-23T12:00	22597	38	-55.2	-85.8	222	7
2023-09-23T12:00	22627	38	-55.1	-85.8	221	7
2023-09-23T12:00	22655	37	-55.1	-85.8	221	7
2023-09-23T12:00	22683	37	-55.3	-85.4	222	7
2023-09-23T12:00	22709	37	-55.5	-85.5	221	7
2023-09-23T12:00	22738	37	-55.7	-85.7	219	7
2023-09-23T12:00	22762	37	-55.9	-85.8	215	7
2023-09-23T12:00	22788	37	-56.0	-85.9	209	7
2023-09-23T12:00	22816	37	-56.2	-86.0	203	8
2023-09-23T12:00	22842	36	-56.2	-86.0	197	8
2023-09-23T12:00	22867	36	-56.1	-86.0	192	9
2023-09-23T12:00	22896	36	-55.8	-85.7	189	9
2023-09-23T12:00	22920	36	-55.7	-85.7	187	10
2023-09-23T12:00	22945	36	-55.7	-85.7	186	10
2023-09-23T12:00	22969	36	-55.8	-85.7	188	10
2023-09-23T12:00	23001	35	-55.8	-85.7	190	10
2023-09-23T12:00	23025	35	-55.9	-85.8	193	10
2023-09-23T12:00	23052	35	-55.7	-86.2	196	11
2023-09-23T12:00	23073	35	-55.5	-86.1	198	11
2023-09-23T12:00	23104	35	-55.5	-86.1	199	11
2023-09-23T12:00	23135	35	-55.5	-86.1	200	12
2023-09-23T12:00	23158	35	-55.4	-86.0	201	12
2023-09-23T12:00	23186	34	-55.5	-86.1	204	12
2023-09-23T12:00	23213	34	-55.6	-86.1	208	12
2023-09-23T12:00	23243	34	-55.6	-86.1	213	12
2023-09-23T12:00	23269	34	-55.5	-86.1	218	12
2023-09-23T12:00	23298	34	-55.4	-86.0	223	12
2023-09-23T12:00	23327	34	-55.5	-86.1	227	12
2023-09-23T12:00	23355	34	-55.6	-85.6	230	12
2023-09-23T12:00	23386	33	-55.7	-85.7	233	12
2023-09-23T12:00	23408	33	-55.8	-85.7	235	12
2023-09-23T12:00	23438	33	-55.8	-85.7	236	11
2023-09-23T12:00	23467	33	-55.9	-85.8	237	10
2023-09-23T12:00	23497	33	-55.9	-85.8	236	10
2023-09-23T12:00	23524	33	-56.0	-85.9	235	9
2023-09-23T12:00	23558	33	-56.1	-86.0	233	9
2023-09-23T12:00	23584	32	-56.1	-86.0	230	9
2023-09-23T12:00	23611	32	-56.2	-86.0	228	9
2023-09-23T12:00	23642	32	-56.3	-86.1	226	9
2023-09-23T12:00	23669	32	-56.3	-86.1	225	9
2023-09-23T12:00	23694	32	-56.4	-86.2	223	9
2023-09-23T12:00	23724	32	-56.5	-86.3	222	9
2023-09-23T12:00	23753	32	-56.7	-85.9	221	9
2023-09-23T12:00	23779	31	-56.7	-85.9	220	9
2023-09-23T12:00	23810	31	-56.8	-86.0	218	9
2023-09-23T12:00	23837	31	-56.8	-86.0	216	9
2023-09-23T12:00	23865	31	-57.0	-86.1	215	10
2023-09-23T12:00	23888	31	-57.1	-86.2	215	11
2023-09-23T12:00	23914	31	-57.1	-86.2	216	11
2023-09-23T12:00	23944	31	-57.1	-86.2	218	12
2023-09-23T12:00	23971	30	-57.0	-86.1	221	12
2023-09-23T12:00	23997	30	-57.0	-86.6	224	12
2023-09-23T12:00	24028	30	-57.0	-86.6	227	13
2023-09-23T12:00	24047	30	-57.1	-86.7	230	13
2023-09-23T12:00	24082	30	-57.1	-86.7	232	13
2023-09-23T12:00	24108	30	-57.2	-86.8	234	13
2023-09-23T12:00	24133	30	-57.0	-86.6	235	13
2023-09-23T12:00	24156	30	-56.8	-86.5	235	13
2023-09-23T12:00	24183	29	-56.7	-86.4	236	13
2023-09-23T12:00	24214	29	-56.7	-86.4	237	13
2023-09-23T12:00	24235	29	-56.6	-86.3	238	13
2023-09-23T12:00	24257	29	-56.6	-86.3	240	13
2023-09-23T12:00	24282	29	-56.6	-86.3	242	13
2023-09-23T12:00	24305	29	-56.7	-86.4	244	13
2023-09-23T12:00	24329	29	-56.8	-86.5	245	12
2023-09-23T12:00	24351	29	-56.9	-86.6	246	12
2023-09-23T12:00	24378	29	-56.8	-86.5	247	12
2023-09-23T12:00	24400	28	-56.8	-86.5	248	11
2023-09-23T12:00	24428	28	-56.7	-86.4	249	11
2023-09-23T12:00	24447	28	-56.5	-86.8	252	10
2023-09-23T12:00	24477	28	-56.2	-86.6	255	10
2023-09-23T12:00	24504	28	-55.9	-86.3	258	10
2023-09-23T12:00	24532	28	-55.9	-86.3	261	10
2023-09-23T12:00	24553	28	-55.9	-86.3	263	10
2023-09-23T12:00	24580	28	-56.0	-85.9	265	10
2023-09-23T12:00	24604	28	-56.3	-86.1	267	10
2023-09-23T12:00	24635	27	-56.3	-86.1	269	10
2023-09-23T12:00	24662	27	-56.3	-86.1	272	10
2023-09-23T12:00	24690	27	-56.3	-86.1	273	9
2023-09-23T12:00	24719	27	-56.4	-86.2	273	9
2023-09-23T12:00	24744	27	-56.3	-86.1	271	8
2023-09-23T12:00	24770	27	-56.3	-86.6	267	7
2023-09-23T12:00	24797	27	-56.0	-86.4	261	6
2023-09-23T12:00	24834	27	-55.9	-86.3	256	6
2023-09-23T12:00	24858	26	-55.8	-86.3	250	5
2023-09-23T12:00	24887	26	-55.7	-86.2	245	4
2023-09-23T12:00	24917	26	-55.8	-86.3	241	4
2023-09-23T12:00	24945	26	-55.8	-86.3	237	4
2023-09-23T12:00	24976	26	-55.8	-86.3	234	4
2023-09-23T12:00	25000	26	-55.7	-86.2	233	5
2023-09-23T12:00	25034	26	-55.7	-85.7	233	5
2023-09-23T12:00	25063	26	-55.7	-85.7	233	6
2023-09-23T12:00	25090	26	-56.0	-85.9	232	7
2023-09-23T12:00	25120	25	-56.1	-86.0	231	7
2023-09-23T12:00	25150	25	-56.2	-86.0	229	8
2023-09-23T12:00	25182	25	-56.3	-86.1	227	9
2023-09-23T12:00	25214	25	-56.4	-86.2	223	9
2023-09-23T12:00	25241	25	-56.5	-86.3	219	10
2023-09-23T12:00	25278	25	-56.5	-86.3	216	10
2023-09-23T12:00	25304	25	-56.5	-86.3	212	10
2023-09-23T12:00	25332	25	-56.7	-86.4	210	11
2023-09-23T12:00	25366	24	-56.8	-86.5	210	11
2023-09-23T12:00	25388	24	-56.8	-86.5	210	11
2023-09-23T12:00	25414	24	-56.6	-86.3	212	11
2023-09-23T12:00	25448	24	-56.2	-86.6	214	11
2023-09-23T12:00	25477	24	-56.1	-86.5	216	11
2023-09-23T12:00	25510	24	-56.2	-86.6	218	11
2023-09-23T12:00	25535	24	-56.3	-86.6	220	10
2023-09-23T12:00	25567	24	-56.4	-86.2	221	9
2023-09-23T12:00	25588	24	-56.5	-86.3	221	9
2023-09-23T12:00	25610	24	-56.6	-86.3	219	8
2023-09-23T12:00	25645	23	-56.7	-86.4	216	8
2023-09-23T12:00	25666	23	-56.9	-86.6	212	7
2023-09-23T12:00	25698	23	-57.1	-86.7	207	7
2023-09-23T12:00	25724	23	-57.0	-86.6	203	7
2023-09-23T12:00	25754	23	-56.8	-86.5	200	7
2023-09-23T12:00	25779	23	-56.6	-86.3	198	8
2023-09-23T12:00	25807	23	-56.5	-86.8	196	8
2023-09-23T12:00	25835	23	-56.5	-86.8	195	8
2023-09-23T12:00	25861	23	-56.6	-86.3	196	9
2023-09-23T12:00	25891	23	-56.6	-86.3	197	9
2023-09-23T12:00	25911	22	-56.7	-86.4	199	10
2023-09-23T12:00	25934	22	-56.7	-86.4	202	10
2023-09-23T12:00	25962	22	-56.8	-86.5	206	11
2023-09-23T12:00	25985	22	-56.7	-86.4	210	12
2023-09-23T12:00	26018	22	-56.6	-86.3	213	12
2023-09-23T12:00	26039	22	-56.5	-86.8	216	12
2023-09-23T12:00	26065	22	-56.5	-86.8	219	12
2023-09-23T12:00	26087	22	-56.5	-86.8	221	12
2023-09-23T12:00	26111	22	-56.3	-86.6	224	12
2023-09-23T12:00	26133	22	-55.9	-86.9	227	12
2023-09-23T12:00	26161	22	-55.5	-86.7	230	11
2023-09-23T12:00	26185	21	-55.4	-86.6	233	11
2023-09-23T12:00	26209	21	-55.3	-86.5	236	11
2023-09-23T12:00	26238	21	-55.2	-86.4	237	11
2023-09-23T12:00	26271	21	-55.0	-86.3	237	11
2023-09-23T12:00	26296	21	-54.8	-86.1	236	11
2023-09-23T12:00	26321	21	-54.7	-86.1	235	11
2023-09-23T12:00	26346	21	-54.8	-86.1	234	11
2023-09-23T12:00	26374	21	-54.8	-86.1	234	11
2023-09-23T12:00	26401	21	-54.9	-85.6	234	11
2023-09-23T12:00	26423	21	-55.0	-85.7	234	11
2023-09-23T12:00	26461	21	-55.0	-85.7	236	12
2023-09-23T12:00	26484	21	-55.1	-85.8	239	12
2023-09-23T12:00	26508	20	-55.3	-85.9	242	12
2023-09-23T12:00	26542	20	-55.3	-85.9	246	12
2023-09-23T12:00	26565	20	-55.4	-86.0	250	12
2023-09-23T12:00	26591	20	-55.3	-85.9	254	12
2023-09-23T12:00	26615	20	-55.3	-85.9	257	12
2023-09-23T12:00	26640	20	-55.2	-86.4	260	12
2023-09-23T12:00	26665	20	-55.0	-86.3	261	12
2023-09-23T12:00	26702	20	-54.7	-86.1	261	12
2023-09-23T12:00	26716	20	-54.3	-85.8	260	13
2023-09-23T12:00	26752	20	-54.0	-86.2	258	13
2023-09-23T12:00	26775	20	-53.9	-86.2	256	13
2023-09-23T12:00	26798	20	-53.9	-86.2	255	13
2023-09-23T12:00	26836	19	-53.8	-86.1	255	13
2023-09-23T12:00	26851	19	-53.8	-85.4	256	14
2023-09-23T12:00	26877	19	-53.9	-85.5	257	14
2023-09-23T12:00	26910	19	-53.9	-85.5	258	14
2023-09-23T12:00	26928	19	-53.9	-85.5	259	14
2023-09-23T12:00	26956	19	-54.0	-85.5	259	14
2023-09-23T12:00	26983	19	-54.3	-85.8	260	14
2023-09-23T12:00	27013	19	-54.4	-85.2	261	14
2023-09-23T12:00	27043	19	-54.6	-85.4	263	14
2023-09-23T12:00	27069	19	-54.6	-85.4	264	14
2023-09-23T12:00	27091	19	-54.6	-85.4	266	14
2023-09-23T12:00	27121	19	-54.7	-85.5	268	14
2023-09-23T12:00	27150	18	-54.8	-85.5	269	14
2023-09-23T12:00	27179	18	-54.9	-85.6	271	14
2023-09-23T12:00	27214	18	-54.9	-85.6	271	14
2023-09-23T12:00	27235	18	-55.0	-85.7	272	14
2023-09-23T12:00	27266	18	-55.1	-85.8	272	13
2023-09-23T12:00	27296	18	-55.1	-85.8	271	13
2023-09-23T12:00	27318	18	-55.1	-85.8	270	13
2023-09-23T12:00	27358	18	-55.0	-86.3	268	12
2023-09-23T12:00	27385	18	-54.9	-86.2	267	12
2023-09-23T12:00	27408	18	-54.8	-86.1	266	12
2023-09-23T12:00	27443	18	-54.7	-86.1	265	13
2023-09-23T12:00	27475	18	-54.5	-85.9	265	13
2023-09-23T12:00	27506	17	-54.3	-85.8	264	12
2023-09-23T12:00	27536	17	-54.0	-85.5	262	12
2023-09-23T12:00	27571	17	-53.8	-86.1	259	12
2023-09-23T12:00	27598	17	-53.5	-85.9	256	12
2023-09-23T12:00	27629	17	-53.4	-85.8	254	12
2023-09-23T12:00	27660	17	-53.6		254	12
2023-09-23T12:00	27685	17	-53.5	-85.9	255	12
2023-09-23T12:00	27720	17	-53.2	-85.6	256	12
2023-09-23T12:00	27755	17	-53.1	-85.6	257	12
2023-09-23T12:00	27776	17	-53.3	-85.0	258	12
2023-09-23T12:00	27802	17	-53.5	-85.2	258	12
2023-09-23T12:00	27830	17	-53.6		259	12
2023-09-23T12:00	27852	17	-53.4	-85.8	260	12
2023-09-23T12:00	27885	16	-53.1	-85.6	260	13
2023-09-23T12:00	27909	16	-52.9	-85.4	259	13
2023-09-23T12:00	27942	16	-52.6	-85.2	258	14
2023-09-23T12:00	27961	16	-52.3	-85.0	257	15
2023-09-23T12:00	27998	16	-52.0	-84.8	257	15
2023-09-23T12:00	28018	16	-51.8	-84.6	256	15
2023-09-23T12:00	28045	16	-51.6	-84.5	257	15
2023-09-23T12:00	28069	16	-51.6	-84.5	258	14
2023-09-23T12:00	28090	16	-51.6	-84.5	258	14
2023-09-23T12:00	28118	16	-51.5	-84.4	259	13
2023-09-23T12:00	28157	16	-51.4	-84.3	258	12
2023-09-23T12:00	28176	16	-51.3	-84.3	258	12
2023-09-23T12:00	28211	16	-51.4	-84.3	257	11
2023-09-23T12:00	28229	16	-51.4	-84.3	256	10
2023-09-23T12:00	28249	16	-51.4	-84.3	256	10
2023-09-23T12:00	28284	16	-51.3	-84.3	257	9
2023-09-23T12:00	28306	15	-51.1	-84.1	257	9
2023-09-23T12:00	28337	15	-51.0	-84.0	258	10
2023-09-23T12:00	28369	15	-51.0	-84.0	258	11
2023-09-23T12:00	28396	15	-51.0	-84.0	258	11
2023-09-23T12:00	28419	15	-50.9	-84.0	258	12
2023-09-23T12:00	28444	15	-50.8	-83.9	258	12
2023-09-23T12:00	28476	15	-50.6	-83.7	259	12
2023-09-23T12:00	28497	15	-50.5	-83.7	260	12
2023-09-23T12:00	28526	15	-50.5	-83.7	262	12
2023-09-23T12:00	28562	15	-50.5	-83.7	264	11
2023-09-23T12:00	28583	15	-50.5	-83.7	266	11
2023-09-23T12:00	28616	15	-50.3	-83.5	267	10
2023-09-23T12:00	28644	15	-50.2	-83.5	268	10
2023-09-23T12:00	28668	15	-50.3	-83.5	270	9
2023-09-23T12:00	28714	15	-50.5	-83.7	272	9
2023-09-23T12:00	28734	14	-50.5	-83.7	274	8
2023-09-23T12:00	28756	14	-50.6	-83.7	278	8
2023-09-23T12:00	28803	14	-50.7	-83.1	281	7
2023-09-23T12:00	28827	14	-50.7	-83.1	285	7
2023-09-23T12:00	28855	14	-50.7	-83.1	289	7
2023-09-23T12:00	28887	14	-50.8	-83.2	293	7
2023-09-23T12:00	28914	14	-51.0	-83.3	296	7
2023-09-23T12:00	28941	14	-51.2	-83.5	297	7
2023-09-23T12:00	28969	14	-51.3	-83.6	297	7
2023-09-23T12:00	29001	14	-51.3	-83.6	294	7
2023-09-23T12:00	29047	14	-51.1	-83.4	290	7
2023-09-23T12:00	29071	14	-51.0	-83.3	285	7
2023-09-23T12:00	29096	14	-51.1	-83.4	280	7
2023-09-23T12:00	29122	14	-51.1	-83.4	276	7
2023-09-23T12:00	29149	14	-51.2	-83.5	273	7
2023-09-23T12:00	29180	14	-51.3	-83.6	274	7
2023-09-23T12:00	29215	13	-51.4	-83.6	278	7
2023-09-23T12:00	29238	13	-51.4	-83.6	283	7
2023-09-23T12:00	29275	13	-51.5	-83.7	288	7
2023-09-23T12:00	29294	13	-51.6	-83.8	292	7
2023-09-23T12:00	29330	13	-51.7	-83.9	294	8
2023-09-23T12:00	29360	13	-51.7	-83.9	295	8
2023-09-23T12:00	29383	13	-51.4	-84.3	296	9
2023-09-23T12:00	29419	13	-51.1	-84.1	298	10
2023-09-23T12:00	29438	13	-51.0	-84.0	301	10
2023-09-23T12:00	29465	13	-51.0	-84.0	303	10
2023-09-23T12:00	29496	13	-51.2	-84.2	304	11
2023-09-23T12:00	29521	13	-51.5	-83.7	304	11
2023-09-23T12:00	29551	13	-51.7	-83.9	302	11
2023-09-23T12:00	29575	13	-51.7	-83.9	299	11
2023-09-23T12:00	29613	13	-51.7	-83.9	294	11
2023-09-23T12:00	29634	13	-51.9	-84.0	290	11
2023-09-23T12:00	29663	13	-52.0	-84.1	285	11
2023-09-23T12:00	29688	13	-52.0	-84.1	280	12
2023-09-23T12:00	29715	12	-52.0	-84.1	275	13
2023-09-23T12:00	29740	12	-51.9	-84.7	270	14
2023-09-23T12:00	29764	12	-51.6	-84.5	267	16
2023-09-23T12:00	29804	12	-51.0	-84.8	265	17
2023-09-23T12:00	29834	12	-50.3	-84.3	264	18
2023-09-23T12:00	29858	12	-49.5	-84.6	264	19
2023-09-23T12:00	29877	12	-48.6		266	20
2023-09-23T12:00	29901	12	-48.1	-83.6	268	20
2023-09-23T12:00	29923	12	-47.9	-83.5	271	20
2023-09-23T12:00	29957	12	-47.8	-83.4	274	20
2023-09-23T12:00	29980	12	-47.8	-83.4	276	21
2023-09-23T12:00	30010	12	-47.8	-82.5	278	21
2023-09-23T12:00	30033	12	-47.8	-82.5	279	22
2023-09-23T12:00	30073	12	-47.8	-82.5	280	22
2023-09-23T12:00	30097	12	-47.8	-82.5	281	23
2023-09-23T12:00	30124	12	-48.0	-82.7	282	24
2023-09-23T12:00	30158	12	-48.2	-82.0	283	24
2023-09-23T12:00	30190	12	-48.5	-82.2	284	24
2023-09-23T12:00	30226	12	-48.7	-82.4	286	24
2023-09-23T12:00	30254	11	-48.9	-82.5	287	24
2023-09-23T12:00	30279	11	-49.1	-82.7	288	24
2023-09-23T12:00	30309	11	-49.3	-82.8	290	24
2023-09-23T12:00	30355	11	-49.5	-82.9	291	24
2023-09-23T12:00	30393	11	-49.6	-83.0	292	23
2023-09-23T12:00	30433	11	-49.7	-83.1	293	22
2023-09-23T12:00	30452	11	-49.7	-83.1	293	21
2023-09-23T12:00	30486	11	-49.6	-83.0	293	20
2023-09-23T12:00	30529	11	-49.6	-83.0	293	19
2023-09-23T12:00	30566	11	-49.5	-82.9	292	18
2023-09-23T12:00	30589	11	-49.6	-83.0	291	17
2023-09-23T12:00	30633	11	-49.7	-83.1	289	15
2023-09-23T12:00	30664	11	-49.8	-83.2	287	14
2023-09-23T12:00	30694	11	-49.8	-83.2	283	13
2023-09-23T12:00	30724	11	-49.7	-83.1	279	12
2023-09-23T12:00	30763	11	-49.6	-83.0	275	11
2023-09-23T12:00	30784	11	-49.5	-83.7	272	11
2023-09-23T12:00	30810	11	-49.4	-83.7	270	11
2023-09-23T12:00	30836	11	-49.3	-83.6	269	11
2023-09-23T12:00	30873	10	-49.0	-83.4	269	11
2023-09-23T12:00	30891	10	-48.7	-83.2	269	11
2023-09-23T12:00	30922	10	-48.6	-83.1	269	12
2023-09-23T12:00	30956	10	-48.6	-83.1	269	12
2023-09-23T12:00	30975	10	-48.7	-83.2	269	12
2023-09-23T12:00	31019	10	-48.8	-83.2	268	13
2023-09-23T12:00	31043	10	-48.9	-83.3	268	13
2023-09-23T12:00	31066	10	-49.0	-83.4	268	14
2023-09-23T12:00	31086	10	-49.1	-83.4	269	14
2023-09-23T12:00	31118	10	-49.2	-83.5	270	14
2023-09-23T12:00	31157	10	-49.2	-83.5	272	14
2023-09-23T12:00	31174	10	-49.2	-83.5	273	15
2023-09-23T12:00	31181	10	-49.2	-83.5	275	15
2023-09-23T12:00	31229	10	-49.1	-83.4	276	14
2023-09-23T12:00	31251	10	-48.8	-83.2	276	14
2023-09-23T12:00	31274	10	-48.5	-83.0	276	14
2023-09-23T12:00	31294	10	-48.3	-82.9	275	13
2023-09-23T12:00	31330	10	-48.1	-82.7	273	13
2023-09-23T12:00	31363	10	-48.1	-82.7	271	12
2023-09-23T12:00	31368	10	-48.0	-83.6	270	12
2023-09-23T12:00	31402	10	-47.8	-83.4	270	11
2023-09-23T12:00	31420	10	-47.7	-83.4	272	11
2023-09-23T12:00	31450	10	-47.6	-83.3	275	11
2023-09-23T12:00	31480	10	-47.6	-83.3	277	11
2023-09-23T12:00	31504	9	-47.7	-83.4	278	11
2023-09-23T12:00	31536	9	-47.7	-83.4	276	11
2023-09-23T12:00	31568	9	-47.6	-83.3	274	12
2023-09-23T12:00	31583	9	-47.3	-83.1	270	12
2023-09-23T12:00	31601	9	-47.2	-83.0	267	13
2023-09-23T12:00	31648	9	-47.2	-83.0	265	13
2023-09-23T12:00	31678	9	-47.1	-82.9	263	13
2023-09-23T12:00	31710	9	-47.1	-82.9	261	13
2023-09-23T12:00	31730	9	-47.0	-82.9	261	13
2023-09-23T12:00	31762	9	-47.1	-82.0	260	13
2023-09-23T12:00	31777	9	-47.1	-82.0	260	13
2023-09-23T12:00	31806	9	-47.1	-82.0	260	13
2023-09-23T12:00	31834	9	-47.2	-82.1	258	13
2023-09-23T12:00	31862	9	-47.3	-82.2	256	13
2023-09-23T12:00	31892	9	-47.4	-82.2	252	13
2023-09-23T12:00	31913	9	-47.5	-82.3	249	13
2023-09-23T12:00	31953	9	-47.5	-82.3	247	13
2023-09-23T12:00	31986	9	-47.6	-82.4	245	13
2023-09-23T12:00	32022	9	-47.7	-82.4	245	13
2023-09-23T12:00	32055	9	-47.8	-82.5	246	13
2023-09-23T12:00	32091	9	-47.8	-82.5	247	13
2023-09-23T12:00	32120	9	-47.9	-82.6	250	14
2023-09-23T12:00	32142	9	-48.0	-82.7	253	14
2023-09-23T12:00	32173	9	-48.2	-82.8	256	14
2023-09-23T12:00	32207	9	-48.2	-82.8	259	14
2023-09-23T12:00	32241	9	-48.2	-82.8	262	14
2023-09-23T12:00	32261	8	-48.2	-82.8	266	15
2023-09-23T12:00	32298	8	-48.1	-82.7	269	15
2023-09-23T12:00	32320	8	-48.1	-82.7	272	15
2023-09-23T12:00	32344	8	-48.1	-82.7	274	16
2023-09-23T12:00	32389	8	-48.1	-82.7	276	16
2023-09-23T12:00	32410	8	-48.0	-82.7	277	16
2023-09-23T12:00	32414	8	-47.9	-82.6	277	16
2023-09-23T12:00	32478	8	-47.8	-82.5	277	16
2023-09-23T12:00	32493	8	-47.8	-82.5	276	16
2023-09-23T12:00	32510	8	-47.9	-82.6	274	15
2023-09-23T12:00	32540	8	-47.9	-82.6	271	15
2023-09-23T12:00	32578	8	-47.8	-82.5	267	15
2023-09-23T12:00	32589	8	-47.8	-82.5	263	15
2023-09-23T12:00	32613	8	-47.8	-83.4	258	15
2023-09-23T12:00	32644	8	-47.7	-83.4	254	15
2023-09-23T12:00	32679	8	-47.7	-83.4	251	15
2023-09-23T12:00	32719	8	-47.6	-83.3	250	16
2023-09-23T12:00	32753	8	-47.6	-83.3	251	17
2023-09-23T12:00	32771	8	-47.7	-83.4	252	17
2023-09-23T12:00	32784	8	-47.5	-83.2	255	17
2023-09-23T12:00	32814	8	-47.2	-83.0	257	17
2023-09-23T12:00	32826	8	-47.0	-82.9	260	17
2023-09-23T12:00	32864	8	-47.0	-82.9	263	17
2023-09-23T12:00	32900	8	-47.1	-82.9	266	17
2023-09-23T12:00	32901	8	-47.2	-83.0	270	18
2023-09-23T12:00	32946	8	-47.2	-83.0	273	18
2023-09-23T12:00	32986	8	-47.2	-83.0	280	18
2023-09-23T12:00	32993	8	-47.1	-82.9	282	18
2023-09-23T12:00	33029	8	-46.9	-82.8	282	18
2023-09-23T12:00	33040	8	-46.5	-82.5	282	17
2023-09-23T12:00	33071	8	-46.1	-82.2	280	17
2023-09-23T12:00	33080	7	-45.8	-82.0	277	17
2023-09-23T12:00	33139	7	-45.7	-81.9	274	17
2023-09-23T12:00	33175	7	-45.5	-81.8	270	17
2023-09-23T12:00	33195	7	-45.5	-81.8	269	17
2023-09-23T12:00	33200	7	-45.4	-81.7	269	18
2023-09-23T12:00	33234	7	-45.2	-81.6	270	18
2023-09-23T12:00	33254	7	-45.1	-81.5	271	19
2023-09-23T12:00	33305	7	-45.1	-81.5	272	19
2023-09-23T12:00	33316	7	-45.2	-81.6	273	19
2023-09-23T12:00	33324	7	-45.3	-81.6	274	19
2023-09-23T12:00	33360	7	-45.5	-81.8	274	20
2023-09-23T12:00	33397	7	-45.7	-81.9	274	19
2023-09-23T12:00	33428	7	-45.8	-82.0	275	19
2023-09-23T12:00	33467	7	-45.8	-82.0	276	19
2023-09-23T12:00	33489	7	-45.7	-81.9	278	18
2023-09-23T12:00	33539	7	-45.6	-81.9	280	18
2023-09-23T12:00	33577	7	-45.4	-81.7	285	16
2023-09-23T12:00	33584	7	-45.3	-81.6	287	16
2023-09-23T12:00	33651	7	-45.3	-81.6	289	16
2023-09-23T12:00	33692	7	-45.4	-81.7	291	15
2023-09-23T12:00	33714	7	-45.4	-81.7	291	15
2023-09-23T12:00	33755	7	-45.3	-81.6	290	16
2023-09-23T12:00	33793	7	-45.3	-81.6	289	16
2023-09-23T12:00	33848	7	-45.4	-81.7	285	18
2023-09-23T12:00	33862	7	-45.5	-81.8	284	18
2023-09-23T12:00	33908	7	-45.7	-81.9	284	19
2023-09-23T12:00	33939	7	-45.9	-82.1	284	19
2023-09-23T12:00	33972	7	-46.0	-82.1	284	19
2023-09-23T12:00	33981	7	-46.1	-82.2	284	19
2023-09-23T12:00	34023	7	-46.0	-82.1	285	19
2023-09-23T12:00	34031	6	-45.8	-82.0	285	19
2023-09-23T12:00	34068	6	-45.6	-81.9	287	19
2023-09-23T18:00	112	1004	15.8	7.8	270	3
2023-09-23T18:00	135	1001	16.2	8.0	263	3
2023-09-23T18:00	160	999	16.2	7.4	259	4
2023-09-23T18:00	183	996	16.2	7.2	257	5
2023-09-23T18:00	204	993	16.0	7.1	257	5
2023-09-23T18:00	225	990	15.9	7.1	257	6
2023-09-23T18:00	254	987	15.6	7.0	258	6
2023-09-23T18:00	283	984	15.4	6.9	259	6
2023-09-23T18:00	311	981	15.3	6.9	258	7
2023-09-23T18:00	335	978	15.1	6.9	258	7
2023-09-23T18:00	360	975	14.8	6.8	257	8
2023-09-23T18:00	388	972	14.6	6.6	257	8
2023-09-23T18:00	416	969	14.3	6.4	257	9
2023-09-23T18:00	439	966	14.1	6.4	258	9
2023-09-23T18:00	465	963	13.9	6.4	259	8
2023-09-23T18:00	490	960	13.6	6.3	259	8
2023-09-23T18:00	517	957	13.4	6.3	260	8
2023-09-23T18:00	545	954	13.1	6.2	261	8
2023-09-23T18:00	580	950	12.8	6.1	262	8
2023-09-23T18:00	607	947	12.5	6.0	262	8
2023-09-23T18:00	641	943	12.2	6.0	262	8
2023-09-23T18:00	668	940	11.9	6.0	263	8
2023-09-23T18:00	696	937	11.6	5.8	265	9
2023-09-23T18:00	719	934	11.4	5.8	266	9
2023-09-23T18:00	740	932	11.2	5.8	268	9
2023-09-23T18:00	765	929	10.9	5.7	269	9
2023-09-23T18:00	788	927	10.7	5.7	268	9
2023-09-23T18:00	815	924	10.5	5.7	268	9
2023-09-23T18:00	839	921	10.3	5.7	267	9
2023-09-23T18:00	865	918	10.0	5.5	268	9
2023-09-23T18:00	888	915	9.8	5.4	269	9
2023-09-23T18:00	910	913	9.6	5.4	270	9
2023-09-23T18:00	931	911	9.4	5.4	272	9
2023-09-23T18:00	955	908	9.1	5.3	273	9
2023-09-23T18:00	981	905	8.9	5.3	273	9
2023-09-23T18:00	1011	902	8.6	5.2	274	9
2023-09-23T18:00	1038	899	8.3	5.1	274	9
2023-09-23T18:00	1066	896	8.1	5.0	275	9
2023-09-23T18:00	1092	893	7.8	4.9	277	9
2023-09-23T18:00	1121	890	7.5	4.9	278	9
2023-09-23T18:00	1149	887	7.3		280	9
2023-09-23T18:00	1178	884	7.2	4.6	281	10
2023-09-23T18:00	1207	881	7.0	4.2	282	10
2023-09-23T18:00	1234	878	6.8	4.1	283	10
2023-09-23T18:00	1259	875	6.6	3.9	283	11
2023-09-23T18:00	1286	872	6.4	3.8	284	11
2023-09-23T18:00	1314	869	6.1	3.6	285	11
2023-09-23T18:00	1341	867	5.9	3.5	285	11
2023-09-23T18:00	1368	864	5.7	3.4	285	11
2023-09-23T18:00	1396	861	5.5	3.1	284	11
2023-09-23T18:00	1420	858	5.2	2.9	283	12
2023-09-23T18:00	1447	856	5.1	2.6	282	12
2023-09-23T18:00	1474	853	5.0	2.2	282	12
2023-09-23T18:00	1500	850	4.8	2.0	282	12
2023-09-23T18:00	1526	847	4.6	1.8	282	12
2023-09-23T18:00	1554	844	4.5	1.8	282	12
2023-09-23T18:00	1585	841	4.3	1.2	282	12
2023-09-23T18:00	1612	838	4.1	1.1	282	11
2023-09-23T18:00	1640	836	4.0	0.8	281	11
2023-09-23T18:00	1669	833	3.8	0.6	280	11
2023-09-23T18:00	1697	830	3.6	0.3	280	11
2023-09-23T18:00	1722	827	3.4	0.1	280	11
2023-09-23T18:00	1747	824	3.4	-0.3	279	12
2023-09-23T18:00	1778	822	3.5	-1.4	279	12
2023-09-23T18:00	1803	819	3.4	-0.8	278	12
2023-09-23T18:00	1831	816	3.2	-1.0	278	12
2023-09-23T18:00	1857	813	3.0	-1.4	277	12
2023-09-23T18:00	1884	811	2.8	-1.4	276	12
2023-09-23T18:00	1910	808	2.5	-1.6	276	12
2023-09-23T18:00	1938	805	2.3	-1.6	275	12
2023-09-23T18:00	1972	802	2.1	-1.8	275	12
2023-09-23T18:00	1997	799	1.8	-2.0	275	12
2023-09-23T18:00	2031	796	1.5	-2.2	274	12
2023-09-23T18:00	2061	793	1.3	-2.2	274	12
2023-09-23T18:00	2086	791	1.1	-2.2	274	12
2023-09-23T18:00	2110	788	0.8	-2.3	274	13
2023-09-23T18:00	2138	786	0.6		274	13
2023-09-23T18:00	2164	783	0.4	-2.3	275	13
2023-09-23T18:00	2192	780	0.1	-2.4	275	14
2023-09-23T18:00	2219	778	-0.1	-2.7	274	14
2023-09-23T18:00	2244	775	-0.3	-2.8	274	14
2023-09-23T18:00	2270	773	-0.6	-2.8	273	14
2023-09-23T18:00	2298	770	-0.8	-3.0	272	14
2023-09-23T18:00	2325	768	-1.1	-3.1	272	14
2023-09-23T18:00	2353	765	-1.3	-3.3	271	14
2023-09-23T18:00	2380	762	-1.5	-3.5	270	14
2023-09-23T18:00	2406	760	-1.7	-3.7	270	14
2023-09-23T18:00	2435	757	-1.9	-4.0	269	14
2023-09-23T18:00	2464	754	-2.0	-4.3	268	14
2023-09-23T18:00	2493	752	-2.3	-4.5	267	13
2023-09-23T18:00	2517	749	-2.2	-4.9	267	13
2023-09-23T18:00	2547	746	-1.5	-6.5	268	12
2023-09-23T18:00	2574	744	-1.3	-7.2	268	11
2023-09-23T18:00	2602	741	-1.1	-8.3	268	10
2023-09-23T18:00	2630	739	-1.1	-9.3	268	10
2023-09-23T18:00	2659	736	-0.9	-9.9	268	10
2023-09-23T18:00	2686	733	-1.0	-9.1	267	9
2023-09-23T18:00	2715	731	-1.3	-9.0	266	9
2023-09-23T18:00	2745	728	-1.3	-9.2	264	9
2023-09-23T18:00	2773	726	-1.4	-9.2	262	9
2023-09-23T18:00	2801	723	-1.4	-10.1	261	9
2023-09-23T18:00	2829	720	-1.6	-10.6	259	9
2023-09-23T18:00	2858	718	-1.8	-11.4	258	9
2023-09-23T18:00	2888	715	-2.0	-11.4	257	8
2023-09-23T18:00	2918	713	-2.2	-11.2	256	8
2023-09-23T18:00	2945	710	-2.4	-10.2	256	8
2023-09-23T18:00	2975	707	-2.5	-10.5	256	8
2023-09-23T18:00	3004	705	-2.6	-11.2	256	8
2023-09-23T18:00	3032	702	-2.8	-11.9	256	8
2023-09-23T18:00	3061	700	-3.0	-12.3	257	8
2023-09-23T18:00	3088	697	-3.1	-13.1	258	8
2023-09-23T18:00	3116	695	-3.2	-13.6	260	9
2023-09-23T18:00	3140	693	-3.3	-12.9	261	9
2023-09-23T18:00	3168	690	-3.5	-12.7	263	10
2023-09-23T18:00	3195	688	-3.7	-13.1	263	10
2023-09-23T18:00	3224	686	-3.7	-16.6	264	11
2023-09-23T18:00	3248	683	-3.7	-18.2	264	11
2023-09-23T18:00	3277	681	-3.7	-17.6	264	11
2023-09-23T18:00	3305	678	-3.8	-17.6	264	11
2023-09-23T18:00	3332	676	-4.1	-18.1	265	11
2023-09-23T18:00	3357	674	-4.2	-19.3	265	11
2023-09-23T18:00	3380	672	-4.3	-21.4	265	11
2023-09-23T18:00	3404	670	-4.3	-22.8	265	11
2023-09-23T18:00	3429	668	-4.5	-23.0	265	11
2023-09-23T18:00	3452	666	-4.6		265	12
2023-09-23T18:00	3476	664	-4.8	-19.5	265	12
2023-09-23T18:00	3499	662	-4.9	-20.0	265	12
2023-09-23T18:00	3523	660	-5.0	-19.6	264	11
2023-09-23T18:00	3547	658	-5.2	-19.5	262	11
2023-09-23T18:00	3571	656	-5.5	-19.6	260	11
2023-09-23T18:00	3597	654	-5.7	-19.6	258	11
2023-09-23T18:00	3620	652	-5.8	-20.2	257	11
2023-09-23T18:00	3646	650	-5.9	-19.7	256	11
2023-09-23T18:00	3670	648	-6.0	-17.4	255	11
2023-09-23T18:00	3696	645	-6.1	-17.0	256	11
2023-09-23T18:00	3722	643	-6.2	-17.6	256	11
2023-09-23T18:00	3749	641	-6.4	-17.7	257	10
2023-09-23T18:00	3776	639	-6.6	-18.0	259	10
2023-09-23T18:00	3804	637	-6.8	-18.3	260	10
2023-09-23T18:00	3827	635	-6.9	-18.7	262	10
2023-09-23T18:00	3855	633	-7.0	-19.0	264	11
2023-09-23T18:00	3880	630	-7.2	-19.1	266	11
2023-09-23T18:00	3906	628	-7.4	-19.5	268	11
2023-09-23T18:00	3931	626	-7.6	-20.1	270	11
2023-09-23T18:00	3955	624	-7.8	-20.6	271	11
2023-09-23T18:00	3982	622	-8.0	-21.2	271	11
2023-09-23T18:00	4013	620	-8.3	-21.6	270	11
2023-09-23T18:00	4043	617	-8.5	-22.1	269	11
2023-09-23T18:00	4070	615	-8.7	-22.0	268	11
2023-09-23T18:00	4095	613	-8.9	-22.1	266	11
2023-09-23T18:00	4120	611	-9.2	-22.1	264	10
2023-09-23T18:00	4142	609	-9.4	-21.7	262	10
2023-09-23T18:00	4168	607	-9.6	-21.1	259	10
2023-09-23T18:00	4194	605	-9.8	-21.0	257	10
2023-09-23T18:00	4220	603	-10.0	-20.9	255	11
2023-09-23T18:00	4247	601	-10.2	-21.3	255	11
2023-09-23T18:00	4275	599	-10.4	-21.7	255	11
2023-09-23T18:00	4303	597	-10.6	-21.9	255	11
2023-09-23T18:00	4331	595	-10.8	-22.4	256	11
2023-09-23T18:00	4359	593	-11.0	-22.8	257	11
2023-09-23T18:00	4387	590	-11.2	-23.0	257	11
2023-09-23T18:00	4416	588	-11.4	-23.3	258	11
2023-09-23T18:00	4445	586	-11.6	-23.6	259	11
2023-09-23T18:00	4472	584	-11.8	-24.0	260	11
2023-09-23T18:00	4501	582	-12.0	-24.4	261	10
2023-09-23T18:00	4530	579	-12.3	-24.6	262	10
2023-09-23T18:00	4559	577	-12.5	-25.2	262	10
2023-09-23T18:00	4590	575	-12.7	-25.4	263	10
2023-09-23T18:00	4619	573	-12.9	-25.3	263	10
2023-09-23T18:00	4647	571	-13.2	-25.4	263	10
2023-09-23T18:00	4678	568	-13.4	-25.4	263	10
2023-09-23T18:00	4710	566	-13.7	-25.5	263	10
2023-09-23T18:00	4738	564	-14.0	-25.7	263	11
2023-09-23T18:00	4768	562	-14.2	-25.8	262	11
2023-09-23T18:00	4799	560	-14.4	-25.6	260	11
2023-09-23T18:00	4825	557	-14.7	-25.8	259	11
2023-09-23T18:00	4851	556	-14.9	-25.8	257	12
2023-09-23T18:00	4878	554	-15.0	-26.0	255	12
2023-09-23T18:00	4904	552	-15.1	-26.7	253	12
2023-09-23T18:00	4933	550	-15.3	-27.1	251	13
2023-09-23T18:00	4958	548	-15.4	-27.7	248	13
2023-09-23T18:00	4984	546	-15.6	-28.1	246	13
2023-09-23T18:00	5012	544	-15.5	-30.2	243	14
2023-09-23T18:00	5034	542	-15.3	-33.1	241	14
2023-09-23T18:00	5059	540	-15.1	-35.2	240	14
2023-09-23T18:00	5088	538	-15.1	-35.6	238	14
2023-09-23T18:00	5112	537	-15.2	-35.3	237	13
2023-09-23T18:00	5133	535	-15.4	-35.6	235	13
2023-09-23T18:00	5155	534	-15.5	-36.0	234	13
2023-09-23T18:00	5177	532	-15.6	-36.7	232	13
2023-09-23T18:00	5200	530	-15.6	-37.8	231	13
2023-09-23T18:00	5224	529	-15.8	-37.8	231	13
2023-09-23T18:00	5250	527	-16.0	-38.2	231	13
2023-09-23T18:00	5265	526	-16.2	-38.1	232	13
2023-09-23T18:00	5292	524	-16.4	-37.7	233	13
2023-09-23T18:00	5316	522	-16.6	-38.1	234	13
2023-09-23T18:00	5340	521	-16.9	-37.9	233	13
2023-09-23T18:00	5369	519	-17.1	-37.9	233	13
2023-09-23T18:00	5396	517	-17.4	-38.1	231	13
2023-09-23T18:00	5426	515	-17.6	-38.8	229	13
2023-09-23T18:00	5452	513	-17.8	-39.1	228	13
2023-09-23T18:00	5477	511	-18.0	-39.6	226	12
2023-09-23T18:00	5503	509	-18.2	-37.7	226	12
2023-09-23T18:00	5529	508	-18.4	-37.9	226	13
2023-09-23T18:00	5556	506	-18.6	-38.3	226	13
2023-09-23T18:00	5585	504	-18.8	-38.6	226	13
2023-09-23T18:00	5606	502	-19.0	-38.8	226	13
2023-09-23T18:00	5626	501	-19.1	-39.6	226	13
2023-09-23T18:00	5651	499	-19.2	-38.3	226	14
2023-09-23T18:00	5682	497	-19.4	-34.3	226	14
2023-09-23T18:00	5712	495	-19.7	-33.9	226	14
2023-09-23T18:00	5738	494	-19.9	-33.6	226	14
2023-09-23T18:00	5768	492	-20.2	-33.6	226	15
2023-09-23T18:00	5795	490	-20.4	-33.8	226	15
2023-09-23T18:00	5814	489	-20.6	-33.7	226	15
2023-09-23T18:00	5833	487	-20.7	-33.6	227	15
2023-09-23T18:00	5853	486	-21.0	-33.8	228	15
2023-09-23T18:00	5874	485	-21.1	-33.9	230	15
2023-09-23T18:00	5897	483	-21.3	-33.8	231	15
2023-09-23T18:00	5928	481	-21.6	-33.9	231	15
2023-09-23T18:00	5958	479	-21.9	-34.0	231	15
2023-09-23T18:00	5987	477	-22.2	-34.0	230	15
2023-09-23T18:00	6015	475	-22.4	-34.0	228	15
2023-09-23T18:00	6045	474	-22.7	-33.7	226	15
2023-09-23T18:00	6074	472	-23.0	-33.6	224	14
2023-09-23T18:00	6102	470	-23.2	-33.8	222	14
2023-09-23T18:00	6123	468	-23.3	-33.1	220	14
2023-09-23T18:00	6154	467	-23.6	-33.9	219	15
2023-09-23T18:00	6177	465	-23.7	-33.4	218	15
2023-09-23T18:00	6204	463	-23.9	-33.5	218	16
2023-09-23T18:00	6224	462	-24.0	-34.1	217	16
2023-09-23T18:00	6250	460	-23.8	-36.5	217	17
2023-09-23T18:00	6277	459	-23.9	-37.4	216	17
2023-09-23T18:00	6299	457	-24.0	-37.9	216	17
2023-09-23T18:00	6332	455	-24.3	-37.4	216	17
2023-09-23T18:00	6361	454	-24.6	-35.2	217	17
2023-09-23T18:00	6381	452	-24.7	-34.6	217	17
2023-09-23T18:00	6404	451	-24.9	-35.6	218	17
2023-09-23T18:00	6433	449	-25.2	-36.6	218	17
2023-09-23T18:00	6458	447	-25.3	-37.4	218	17
2023-09-23T18:00	6482	446	-25.6	-37.2	218	17
2023-09-23T18:00	6508	444	-25.8	-36.8	218	17
2023-09-23T18:00	6537	443	-26.1	-37.1	218	16
2023-09-23T18:00	6559	441	-26.3	-37.4	217	16
2023-09-23T18:00	6585	440	-26.5	-37.4	217	16
2023-09-23T18:00	6606	438	-26.7	-37.3	217	16
2023-09-23T18:00	6627	437	-26.9	-37.0	218	15
2023-09-23T18:00	6656	435	-27.2	-37.6	219	15
2023-09-23T18:00	6691	433	-27.5	-37.1	219	15
2023-09-23T18:00	6721	431	-27.8	-37.9	220	15
2023-09-23T18:00	6748	430	-28.0	-37.5	220	14
2023-09-23T18:00	6776	428	-28.3	-37.3	220	14
2023-09-23T18:00	6809	426	-28.6	-37.5	220	14
2023-09-23T18:00	6840	424	-28.9		219	14
2023-09-23T18:00	6872	422	-29.2	-37.8	219	14
2023-09-23T18:00	6903	421	-29.5		219	15
2023-09-23T18:00	6927	419	-29.7	-38.0	219	15
2023-09-23T18:00	6952	418	-29.9	-37.9	219	15
2023-09-23T18:00	6975	416	-30.2	-37.9	219	15
2023-09-23T18:00	6997	415	-30.4	-37.7	218	15
2023-09-23T18:00	7028	413	-30.7	-37.6	217	15
2023-09-23T18:00	7051	412	-30.9	-37.2	215	16
2023-09-23T18:00	7074	411	-31.0	-37.1	214	16
2023-09-23T18:00	7101	409	-31.2	-37.6	213	16
2023-09-23T18:00	7132	407	-31.3	-38.9	213	17
2023-09-23T18:00	7157	406	-31.5	-39.1	213	17
2023-09-23T18:00	7183	404	-31.7	-38.9	213	17
2023-09-23T18:00	7206	403	-31.9	-39.0	213	18
2023-09-23T18:00	7239	401	-32.1	-39.6	213	18
2023-09-23T18:00	7266	400	-32.4	-40.4	213	18
2023-09-23T18:00	7293	398	-32.6	-41.0	213	18
2023-09-23T18:00	7316	397	-32.7	-42.0	212	18
2023-09-23T18:00	7342	395	-32.9	-42.4	211	19
2023-09-23T18:00	7365	394	-33.1	-43.0	210	19
2023-09-23T18:00	7389	393	-33.3	-43.2	210	19
2023-09-23T18:00	7421	391	-33.5	-43.8	210	20
2023-09-23T18:00	7454	389	-33.7	-45.1	209	21
2023-09-23T18:00	7484	387	-33.9	-46.0	209	21
2023-09-23T18:00	7523	385	-34.0	-46.3	208	22
2023-09-23T18:00	7551	384	-34.3	-46.2	208	23
2023-09-23T18:00	7574	382	-34.4	-45.0	208	23
2023-09-23T18:00	7597	381	-34.6	-44.0	207	23
2023-09-23T18:00	7622	380	-34.8	-44.0	208	23
2023-09-23T18:00	7644	379	-34.9	-43.0	208	23
2023-09-23T18:00	7664	378	-35.1	-42.7	208	23
2023-09-23T18:00	7686	376	-35.3	-42.8	208	23
2023-09-23T18:00	7709	375	-35.5	-42.9	208	24
2023-09-23T18:00	7734	374	-35.7	-43.1	208	24
2023-09-23T18:00	7756	373	-36.0	-43.7	207	24
2023-09-23T18:00	7782	371	-36.2	-44.9	207	24
2023-09-23T18:00	7803	370	-36.4	-44.9	207	24
2023-09-23T18:00	7829	369	-36.6	-45.3	207	24
2023-09-23T18:00	7854	367	-36.8	-45.1	207	24
2023-09-23T18:00	7878	366	-37.0	-45.6	207	24
2023-09-23T18:00	7907	365	-37.2	-45.2	207	24
2023-09-23T18:00	7931	363	-37.4	-44.7	206	24
2023-09-23T18:00	7955	362	-37.6	-44.2	206	24
2023-09-23T18:00	7978	361	-37.7	-43.9	205	24
2023-09-23T18:00	8008	359	-38.0	-44.0	205	24
2023-09-23T18:00	8042	358	-38.2	-44.0	205	25
2023-09-23T18:00	8068	356	-38.4	-44.2	205	25
2023-09-23T18:00	8094	355	-38.5	-44.3	205	25
2023-09-23T18:00	8127	353	-38.8	-44.5	206	26
2023-09-23T18:00	8161	351	-39.0	-44.9	207	26
2023-09-23T18:00	8186	350	-39.2	-44.9	207	26
2023-09-23T18:00	8204	349	-39.1	-45.6	208	26
2023-09-23T18:00	8222	348	-39.1	-45.1	208	26
2023-09-23T18:00	8243	347	-39.2	-44.4	208	26
2023-09-23T18:00	8262	346	-39.4	-44.7	208	26
2023-09-23T18:00	8285	345	-39.6	-45.4	208	26
2023-09-23T18:00	8315	344	-39.8	-46.0	208	26
2023-09-23T18:00	8337	342	-39.9	-46.4	209	26
2023-09-23T18:00	8359	341	-39.9	-47.0	210	26
2023-09-23T18:00	8382	340	-39.9	-47.8	211	26
2023-09-23T18:00	8405	339	-39.8	-48.0	213	27
2023-09-23T18:00	8427	338	-39.9	-48.7	214	27
2023-09-23T18:00	8457	337	-40.1	-55.3	214	27
2023-09-23T18:00	8480	335	-40.0	-70.1	215	27
2023-09-23T18:00	8501	334	-40.2	-61.8	215	27
2023-09-23T18:00	8523	333	-40.4	-58.8	215	27
2023-09-23T18:00	8547	332	-40.5	-60.9	216	27
2023-09-23T18:00	8566	331	-40.7	-61.0	216	27
2023-09-23T18:00	8589	330	-40.8	-61.6	216	27
2023-09-23T18:00	8609	329	-41.0	-62.1	216	27
2023-09-23T18:00	8635	328	-41.2	-62.3	216	27
2023-09-23T18:00	8659	327	-41.4	-62.2	216	28
2023-09-23T18:00	8689	325	-41.6	-62.4	215	28
2023-09-23T18:00	8721	324	-41.8	-62.4	215	28
2023-09-23T18:00	8752	322	-42.0	-62.4	215	28
2023-09-23T18:00	8784	321	-42.2	-62.8	215	29
2023-09-23T18:00	8807	320	-42.4	-62.8	215	29
2023-09-23T18:00	8830	318	-42.5	-62.5	215	29
2023-09-23T18:00	8854	317	-42.7	-62.5	214	29
2023-09-23T18:00	8879	316	-42.9	-62.4	214	29
2023-09-23T18:00	8904	315	-43.2	-61.4	214	30
2023-09-23T18:00	8932	314	-43.3	-54.7	214	30
2023-09-23T18:00	8957	312	-43.3	-51.0	214	31
2023-09-23T18:00	8986	311	-43.4	-51.1	214	32
2023-09-23T18:00	9014	310	-43.4	-52.0	215	32
2023-09-23T18:00	9040	309	-43.5	-51.9	215	33
2023-09-23T18:00	9067	308	-43.7	-52.6	215	34
2023-09-23T18:00	9091	306	-43.9	-53.7	215	35
2023-09-23T18:00	9122	305	-44.1	-54.0	215	37
2023-09-23T18:00	9157	303	-44.2	-55.1	213	38
2023-09-23T18:00	9189	302	-44.3	-56.0	212	40
2023-09-23T18:00	9220	301	-43.3	-57.5	210	41
2023-09-23T18:00	9251	299	-43.5	-57.3	209	42
2023-09-23T18:00	9282	298	-43.9	-56.9	208	43
2023-09-23T18:00	9322	296	-44.2	-56.7	209	44
2023-09-23T18:00	9371	294	-44.6	-56.5	210	45
2023-09-23T18:00	9403	292	-44.7	-56.1	211	45
2023-09-23T18:00	9430	291	-44.4	-55.2	212	47
2023-09-23T18:00	9472	290	-44.6	-55.1	212	48
2023-09-23T18:00	9500	288	-44.7	-55.0	212	50
2023-09-23T18:00	9543	287	-44.9	-54.5	212	51
2023-09-23T18:00	9571	285	-45.1	-54.4	211	53
2023-09-23T18:00	9585	285	-44.4	-53.2	210	55
2023-09-23T18:00	9615	283	-44.7	-53.6	209	56
2023-09-23T18:00	9656	282	-45.0	-53.4	208	57
2023-09-23T18:00	9695	280	-45.4	-53.4	208	57
2023-09-23T18:00	9737	278	-45.7	-53.4	207	58
2023-09-23T18:00	9787	276	-46.1	-53.3	207	59
2023-09-23T18:00	9826	275	-46.5	-53.2	207	60
2023-09-23T18:00	9859	273	-46.6	-52.2	207	61
2023-09-23T18:00	9901	271	-46.6	-51.5	207	63
2023-09-23T18:00	9943	270	-47.0	-51.7	207	64
2023-09-23T18:00	9975	268	-47.3	-51.8	207	65
2023-09-23T18:00	10007	267	-47.5	-51.6	207	65
2023-09-23T18:00	10036	266	-47.7	-51.5	207	66
2023-09-23T18:00	10061	265	-47.9	-51.2	206	66
2023-09-23T18:00	10086	264	-48.0	-51.0	206	67
2023-09-23T18:00	10119	263	-48.2	-50.8	206	67
2023-09-23T18:00	10140	262	-48.3	-51.2	207	66
2023-09-23T18:00	10166	261	-48.2	-52.1	207	65
2023-09-23T18:00	10190	260	-48.5	-52.6	207	64
2023-09-23T18:00	10208	259	-48.5	-54.7	208	64
2023-09-23T18:00	10239	258	-48.5	-58.0	208	63
2023-09-23T18:00	10266	257	-48.6	-58.5	208	62
2023-09-23T18:00	10294	256	-48.9	-59.0	208	61
2023-09-23T18:00	10330	254	-49.1	-59.5	208	60
2023-09-23T18:00	10360	253	-49.4	-59.8	208	60
2023-09-23T18:00	10392	252	-49.6	-60.6	209	60
2023-09-23T18:00	10420	251	-49.9	-61.1	209	59
2023-09-23T18:00	10455	250	-50.1	-60.9	209	59
2023-09-23T18:00	10487	248	-50.5	-60.9	209	58
2023-09-23T18:00	10520	247	-50.8	-61.1	209	58
2023-09-23T18:00	10555	246	-51.1	-61.2	209	57
2023-09-23T18:00	10585	245	-51.4	-62.2	209	55
2023-09-23T18:00	10613	243	-51.5	-64.7	210	54
2023-09-23T18:00	10644	242	-51.5	-67.8	210	53
2023-09-23T18:00	10672	241	-51.5	-70.3	210	52
2023-09-23T18:00	10705	240	-51.2	-71.3	210	51
2023-09-23T18:00	10744	239	-50.9	-71.3	211	50
2023-09-23T18:00	10779	237	-50.9	-70.8	211	49
2023-09-23T18:00	10805	236	-51.2	-70.6	211	48
2023-09-23T18:00	10829	236	-51.4	-70.4	211	47
2023-09-23T18:00	10849	235	-51.5	-70.2	212	46
2023-09-23T18:00	10875	234	-51.7	-70.3	212	46
2023-09-23T18:00	10902	233	-51.7	-70.4	212	45
2023-09-23T18:00	10926	232	-51.6	-70.4	212	44
2023-09-23T18:00	10947	231	-51.5	-70.5	213	43
2023-09-23T18:00	10975	230	-51.6		213	42
2023-09-23T18:00	11012	229	-51.6	-71.1	214	41
2023-09-23T18:00	11035	228	-51.1	-71.4	214	41
2023-09-23T18:00	11061	227	-51.2	-72.1	214	40
2023-09-23T18:00	11084	226	-51.3	-72.3	214	40
2023-09-23T18:00	11104	226	-51.4	-72.3	214	39
2023-09-23T18:00	11128	225	-51.6	-72.5	214	39
2023-09-23T18:00	11149	224	-51.7	-72.5	214	39
2023-09-23T18:00	11174	223	-51.8	-72.9	214	38
2023-09-23T18:00	11196	223	-51.9	-72.9	214	37
2023-09-23T18:00	11222	222	-52.0	-73.0	213	37
2023-09-23T18:00	11256	221	-52.2	-73.3	213	35
2023-09-23T18:00	11285	219	-52.2	-73.6	212	34
2023-09-23T18:00	11323	218	-52.3	-73.9	212	33
2023-09-23T18:00	11345	217	-52.1	-74.0	211	31
2023-09-23T18:00	11369	217	-51.9	-74.3	211	30
2023-09-23T18:00	11391	216	-51.6	-75.0	211	30
2023-09-23T18:00	11414	215	-51.3	-75.4	212	30
2023-09-23T18:00	11437	214	-51.2	-76.0	213	29
2023-09-23T18:00	11461	214	-50.8	-76.5	214	29
2023-09-23T18:00	11481	213	-50.5	-76.8	215	29
2023-09-23T18:00	11504	212	-50.2	-76.8	216	29
2023-09-23T18:00	11526	212	-50.1	-77.0	216	29
2023-09-23T18:00	11546	211	-50.1	-77.3	217	28
2023-09-23T18:00	11567	210	-50.3	-77.7	217	28
2023-09-23T18:00	11589	210	-50.4	-78.1	216	28
2023-09-23T18:00	11611	209	-50.4	-78.1	216	28
2023-09-23T18:00	11634	208	-50.5	-77.9	216	27
2023-09-23T18:00	11655	207	-50.5	-78.2	216	27
2023-09-23T18:00	11679	207	-50.4	-78.1	216	27
2023-09-23T18:00	11699	206	-50.5	-78.2	216	26
2023-09-23T18:00	11722	205	-50.6	-78.5	215	26
2023-09-23T18:00	11743	205	-50.4	-78.4	215	26
2023-09-23T18:00	11764	204	-50.2	-78.2	214	26
2023-09-23T18:00	11785	203	-50.2	-78.2	213	26
2023-09-23T18:00	11804	203	-50.3	-78.3	213	26
2023-09-23T18:00	11826	202	-50.3	-78.3	214	26
2023-09-23T18:00	11849	201	-50.1	-78.2	214	26
2023-09-23T18:00	11870	201	-50.0	-78.4	215	26
2023-09-23T18:00	11891	200	-49.7	-78.2	217	26
2023-09-23T18:00	11913	199	-49.9	-78.3	218	26
2023-09-23T18:00	11935	199	-49.9	-78.3	219	26
2023-09-23T18:00	11959	198	-49.6	-78.5	220	26
2023-09-23T18:00	11979	197	-49.3	-78.6	221	25
2023-09-23T18:00	12000	197	-48.8		222	25
2023-09-23T18:00	12022	196	-48.4	-78.8	223	25
2023-09-23T18:00	12041	196	-48.5	-78.8	223	25
2023-09-23T18:00	12063	195	-48.6	-78.9	223	25
2023-09-23T18:00	12083	194	-48.8	-79.1	223	24
2023-09-23T18:00	12103	194	-48.9	-79.1	223	24
2023-09-23T18:00	12122	193	-49.1	-78.9	223	24
2023-09-23T18:00	12144	192	-49.2	-78.9	223	24
2023-09-23T18:00	12163	192	-49.3	-79.4	223	24
2023-09-23T18:00	12189	191	-49.5	-79.6	223	24
2023-09-23T18:00	12209	191	-49.8	-79.4	223	23
2023-09-23T18:00	12229	190	-49.9	-79.5	223	23
2023-09-23T18:00	12251	189	-50.1	-79.6	222	23
2023-09-23T18:00	12273	189	-50.2	-79.7	222	22
2023-09-23T18:00	12294	188	-50.3	-79.8	222	22
2023-09-23T18:00	12314	188	-50.4	-79.8	222	22
2023-09-23T18:00	12335	187	-50.5	-79.9	223	21
2023-09-23T18:00	12357	186	-50.7	-80.1	224	21
2023-09-23T18:00	12379	186	-50.8	-80.6	224	21
2023-09-23T18:00	12400	185	-50.7	-80.5	225	20
2023-09-23T18:00	12422	184	-50.5	-80.3	224	20
2023-09-23T18:00	12444	184	-50.3	-80.2	223	20
2023-09-23T18:00	12465	183	-50.4	-80.3	222	20
2023-09-23T18:00	12490	183	-50.3	-80.6	220	20
2023-09-23T18:00	12517	182	-50.0	-80.4	218	20
2023-09-23T18:00	12539	181	-49.7	-80.2	217	21
2023-09-23T18:00	12559	181	-49.8	-80.3	216	21
2023-09-23T18:00	12580	180	-49.8	-80.3	216	21
2023-09-23T18:00	12601	179	-49.9	-80.3	216	21
2023-09-23T18:00	12621	179	-49.9	-80.8	216	21
2023-09-23T18:00	12642	178	-49.9	-80.8	216	20
2023-09-23T18:00	12664	178	-49.7	-80.7	215	20
2023-09-23T18:00	12687	177	-49.8	-80.8	213	20
2023-09-23T18:00	12707	177	-49.9	-80.8	212	20
2023-09-23T18:00	12729	176	-49.9	-80.8	210	20
2023-09-23T18:00	12751	175	-49.8	-80.8	208	20
2023-09-23T18:00	12773	175	-49.4	-81.0	207	21
2023-09-23T18:00	12794	174	-49.0	-80.7	206	21
2023-09-23T18:00	12820	174	-48.9	-80.6	205	22
2023-09-23T18:00	12840	173	-48.9	-80.6	205	22
2023-09-23T18:00	12859	173	-49.0	-80.7	205	23
2023-09-23T18:00	12877	172	-49.1	-80.8	205	23
2023-09-23T18:00	12897	172	-49.2	-80.8	205	23
2023-09-23T18:00	12916	171	-49.2	-80.3	205	24
2023-09-23T18:00	12933	171	-49.1	-80.8	204	24
2023-09-23T18:00	12953	170	-49.2	-80.8	204	24
2023-09-23T18:00	12972	170	-49.3	-80.9	204	25
2023-09-23T18:00	12992	169	-49.3	-80.9	204	25
2023-09-23T18:00	13009	169	-49.4	-81.0	205	25
2023-09-23T18:00	13032	168	-49.4	-81.0	206	24
2023-09-23T18:00	13050	168	-49.4	-81.0	207	24
2023-09-23T18:00	13070	167	-49.2	-80.8	209	23
2023-09-23T18:00	13096	166	-49.3	-80.9	210	22
2023-09-23T18:00	13127	166	-49.3	-81.5	212	22
2023-09-23T18:00	13151	165	-49.2	-80.8	213	22
2023-09-23T18:00	13178	164	-49.4	-81.0	214	22
2023-09-23T18:00	13206	164	-49.7	-81.2	215	22
2023-09-23T18:00	13232	163	-49.9	-81.3	215	22
2023-09-23T18:00	13254	162	-50.1	-81.0	216	21
2023-09-23T18:00	13276	162	-50.3	-81.1	217	21
2023-09-23T18:00	13304	161	-50.6	-81.3	218	20
2023-09-23T18:00	13343	160	-50.9	-81.6	220	19
2023-09-23T18:00	13363	160	-51.1	-81.7	221	19
2023-09-23T18:00	13383	159	-51.0	-81.6	222	19
2023-09-23T18:00	13402	159	-51.0	-81.6	222	19
2023-09-23T18:00	13423	158	-50.8	-81.5	222	19
2023-09-23T18:00	13443	158	-50.7		221	19
2023-09-23T18:00	13463	157	-50.4	-81.7	221	19
2023-09-23T18:00	13480	157	-50.5	-81.8	221	19
2023-09-23T18:00	13502	156	-50.6	-81.9	220	20
2023-09-23T18:00	13524	156	-50.7	-81.4	220	20
2023-09-23T18:00	13543	155	-50.8	-81.5	220	20
2023-09-23T18:00	13564	155	-51.0	-81.6	220	20
2023-09-23T18:00	13584	154	-51.2	-81.8	221	20
2023-09-23T18:00	13609	154	-51.3	-81.4	221	20
2023-09-23T18:00	13628	153	-51.3	-81.4	221	20
2023-09-23T18:00	13649	153	-51.4	-81.5	221	19
2023-09-23T18:00	13669	152	-51.5	-82.0	221	19
2023-09-23T18:00	13689	152	-51.7	-82.2	221	19
2023-09-23T18:00	13710	151	-51.8	-81.8	221	19
2023-09-23T18:00	13733	151	-51.7	-82.2	221	19
2023-09-23T18:00	13753	150	-51.7	-82.2	222	19
2023-09-23T18:00	13775	150	-51.5	-82.0	222	18
2023-09-23T18:00	13797	149	-51.4	-81.9	223	18
2023-09-23T18:00	13817	149	-51.5	-82.0	224	18
2023-09-23T18:00	13843	148	-51.7	-82.2	226	18
2023-09-23T18:00	13873	148	-51.9	-82.3	227	18
2023-09-23T18:00	13897	147	-52.1	-82.5	229	18
2023-09-23T18:00	13920	147	-52.2	-82.5	230	18
2023-09-23T18:00	13940	146	-52.4	-82.2	232	17
2023-09-23T18:00	13962	146	-52.6	-82.4	233	17
2023-09-23T18:00	13986	145	-52.6	-82.4	234	17
2023-09-23T18:00	14009	145	-52.6	-82.8	234	17
2023-09-23T18:00	14031	144	-52.4	-82.7	233	17
2023-09-23T18:00	14056	144	-52.6	-82.8	231	16
2023-09-23T18:00	14080	143	-52.6	-82.8	229	16
2023-09-23T18:00	14106	142	-52.5	-82.8	227	16
2023-09-23T18:00	14127	142	-52.6	-82.8	225	16
2023-09-23T18:00	14150	142	-52.7	-82.9	224	16
2023-09-23T18:00	14172	141	-52.7	-82.9	224	16
2023-09-23T18:00	14196	141	-52.8	-83.0	224	16
2023-09-23T18:00	14221	140	-52.8	-83.0	224	16
2023-09-23T18:00	14242	139	-53.0	-82.7	225	17
2023-09-23T18:00	14267	139	-53.3	-82.9	225	17
2023-09-23T18:00	14291	138	-53.5	-83.0	226	17
2023-09-23T18:00	14313	138	-53.7	-83.2	227	17
2023-09-23T18:00	14338	137	-53.8	-83.3	227	18
2023-09-23T18:00	14363	137	-53.9	-83.3	227	18
2023-09-23T18:00	14386	136	-54.0	-83.4	226	18
2023-09-23T18:00	14409	136	-54.1	-83.5	226	17
2023-09-23T18:00	14434	135	-54.1	-83.5	226	17
2023-09-23T18:00	14457	135	-54.2	-83.6	226	17
2023-09-23T18:00	14480	134	-54.1	-83.5	226	17
2023-09-23T18:00	14506	134	-53.9	-83.3	227	17
2023-09-23T18:00	14530	133	-53.8	-83.7	228	17
2023-09-23T18:00	14553	133	-53.8	-83.7	229	17
2023-09-23T18:00	14578	132	-53.7	-83.7	229	16
2023-09-23T18:00	14602	132	-53.7	-83.7	230	16
2023-09-23T18:00	14627	131	-53.8	-83.3	230	16
2023-09-23T18:00	14649	131	-54.0	-83.4	230	15
2023-09-23T18:00	14671	130	-54.2	-83.1	229	15
2023-09-23T18:00	14695	130	-54.4	-83.3	229	15
2023-09-23T18:00	14721	129	-54.6	-83.4	228	15
2023-09-23T18:00	14746	129	-54.8	-83.2	227	14
2023-09-23T18:00	14767	129	-55.0	-83.7	226	14
2023-09-23T18:00	14790	128	-55.1	-83.8	226	14
2023-09-23T18:00	14813	128	-54.7	-83.5	227	14
2023-09-23T18:00	14833	127	-54.6	-83.4	229	14
2023-09-23T18:00	14856	127	-54.6	-83.4	233	15
2023-09-23T18:00	14878	126	-54.7	-83.5	236	15
2023-09-23T18:00	14902	126	-54.8	-83.6	238	15
2023-09-23T18:00	14928	125	-54.9	-83.7	238	16
2023-09-23T18:00	14953	125	-55.0	-83.7	237	16
2023-09-23T18:00	14978	124	-55.2	-83.9	233	16
2023-09-23T18:00	15001	124	-55.4	-84.0	230	16
2023-09-23T18:00	15027	123	-55.5	-84.1	227	17
2023-09-23T18:00	15050	123	-55.4	-84.0	225	16
2023-09-23T18:00	15073	123	-55.4	-84.0	225	16
2023-09-23T18:00	15099	122	-55.6	-84.2	225	16
2023-09-23T18:00	15121	122	-55.7	-84.3	225	16
2023-09-23T18:00	15145	121	-55.8	-84.3	225	16
2023-09-23T18:00	15169	121	-55.8	-84.3	225	17
2023-09-23T18:00	15194	120	-55.8	-84.3	224	16
2023-09-23T18:00	15220	120	-55.9	-84.8	224	16
2023-09-23T18:00	15245	119	-55.5	-84.5	223	15
2023-09-23T18:00	15269	119	-54.9	-84.6	222	15
2023-09-23T18:00	15295	118	-54.9	-84.6	220	14
2023-09-23T18:00	15316	118	-54.9	-84.6	218	14
2023-09-23T18:00	15342	117	-55.0	-84.6	217	14
2023-09-23T18:00	15361	117	-54.8	-85.0	216	14
2023-09-23T18:00	15383	117	-54.6	-84.8	216	14
2023-09-23T18:00	15407	116	-54.1	-85.0	216	15
2023-09-23T18:00	15428	116	-53.8	-84.8	217	15
2023-09-23T18:00	15451	115	-53.8	-84.8	218	15
2023-09-23T18:00	15475	115	-53.6	-84.6	220	15
2023-09-23T18:00	15499	115	-53.2	-84.4	221	15
2023-09-23T18:00	15521	114	-53.0	-84.2	222	16
2023-09-23T18:00	15546	114	-52.8	-84.1	222	16
2023-09-23T18:00	15569	113	-52.9	-84.1	221	16
2023-09-23T18:00	15594	113	-52.4	-84.4	219	16
2023-09-23T18:00	15618	113	-52.6	-84.5	218	15
2023-09-23T18:00	15641	112	-52.7	-84.6	217	15
2023-09-23T18:00	15663	112	-52.6	-84.5	218	15
2023-09-23T18:00	15687	111	-52.5	-84.4	219	15
2023-09-23T18:00	15713	111	-52.1	-84.2	222	15
2023-09-23T18:00	15737	110	-52.2	-84.2	224	16
2023-09-23T18:00	15762	110	-52.4	-84.4	227	16
2023-09-23T18:00	15790	110	-52.6	-83.9	229	16
2023-09-23T18:00	15815	109	-52.8	-84.7	232	15
2023-09-23T18:00	15840	109	-52.6	-84.5	235	15
2023-09-23T18:00	15862	108	-52.3	-84.3	237	15
2023-09-23T18:00	15886	108	-52.1	-84.2	240	15
2023-09-23T18:00	15911	108	-52.0	-84.1	243	15
2023-09-23T18:00	15936	107	-52.1	-84.2	246	15
2023-09-23T18:00	15961	107	-52.1	-84.8	248	16
2023-09-23T18:00	15986	106	-51.8	-83.9	249	16
2023-09-23T18:00	16009	106	-52.1	-84.2	251	16
2023-09-23T18:00	16033	106	-52.3	-84.3	252	16
2023-09-23T18:00	16058	105	-52.5	-84.4	253	15
2023-09-23T18:00	16082	105	-52.7	-84.0	254	15
2023-09-23T18:00	16105	104	-52.9	-84.1	254	15
2023-09-23T18:00	16128	104	-53.1	-84.3	254	15
2023-09-23T18:00	16149	104	-53.3	-84.4	253	14
2023-09-23T18:00	16170	103	-53.5	-84.6	252	14
2023-09-23T18:00	16195	103	-53.6	-84.6	249	14
2023-09-23T18:00	16218	103	-53.5	-84.6	246	14
2023-09-23T18:00	16241	102	-53.3	-84.4	242	14
2023-09-23T18:00	16265	102	-53.4	-84.5	238	14
2023-09-23T18:00	16291	101	-53.6	-84.6	234	14
2023-09-23T18:00	16320	101	-53.8	-84.8	230	15
2023-09-23T18:00	16345	101	-54.0	-84.4	228	15
2023-09-23T18:00	16366	100	-54.0	-84.4	226	15
2023-09-23T18:00	16387	100	-54.2	-84.5	226	15
2023-09-23T18:00	16409	100	-54.2	-84.5	227	14
2023-09-23T18:00	16432	99	-53.9	-84.9	229	14
2023-09-23T18:00	16452	99	-53.9	-84.9	230	14
2023-09-23T18:00	16475	99	-53.9	-84.9	231	14
2023-09-23T18:00	16497	98	-54.0	-84.9	231	14
2023-09-23T18:00	16519	98	-53.6	-84.6	230	15
2023-09-23T18:00	16540	98	-53.7	-84.7	229	15
2023-09-23T18:00	16564	97	-53.9	-84.9	228	15
2023-09-23T18:00	16585	97	-53.9	-84.9	228	15
2023-09-23T18:00	16608	96	-53.9	-84.9	228	14
2023-09-23T18:00	16631	96	-53.6	-84.6	229	14
2023-09-23T18:00	16652	96	-53.2	-85.0	230	13
2023-09-23T18:00	16677	95	-53.0	-84.8	232	12
2023-09-23T18:00	16700	95	-53.1	-84.9	232	11
2023-09-23T18:00	16722	95	-53.1	-84.9	231	11
2023-09-23T18:00	16747	94	-53.1	-84.9	229	11
2023-09-23T18:00	16766	94	-52.5	-84.4	226	11
2023-09-23T18:00	16792	94	-52.3	-84.3	223	11
2023-09-23T18:00	16814	93	-52.4	-84.4	219	11
2023-09-23T18:00	16839	93	-52.5	-84.4	214	11
2023-09-23T18:00	16862	93	-52.7	-84.6	210	11
2023-09-23T18:00	16886	92	-52.6	-85.2	205	11
2023-09-23T18:00	16914	92	-51.7	-84.5	201	10
2023-09-23T18:00	16930	92	-51.7	-84.5	198	10
2023-09-23T18:00	16956	91	-51.9	-84.7	196	10
2023-09-23T18:00	16979	91	-52.1	-84.2	195	10
2023-09-23T18:00	17000	91	-52.2	-84.2	195	10
2023-09-23T18:00	17021	91	-52.4	-84.4	194	10
2023-09-23T18:00	17044	90	-52.5	-84.4	194	10
2023-09-23T18:00	17071	90	-52.6	-84.5	193	10
2023-09-23T18:00	17090	90	-52.7	-84.6	193	10
2023-09-23T18:00	17114	89	-52.8	-84.7	193	10
2023-09-23T18:00	17136	89	-53.0	-84.8	193	10
2023-09-23T18:00	17157	89	-52.8	-84.7	195	9
2023-09-23T18:00	17182	88	-52.9	-84.7	197	9
2023-09-23T18:00	17204	88	-52.9	-84.7	201	9
2023-09-23T18:00	17228	88	-53.0	-84.8	204	9
2023-09-23T18:00	17248	87	-53.0	-84.8	208	9
2023-09-23T18:00	17270	87	-53.0	-84.8	210	9
2023-09-23T18:00	17293	87	-53.1	-84.9	210	10
2023-09-23T18:00	17317	86	-53.1	-84.9	210	10
2023-09-23T18:00	17338	86	-52.9	-84.7	208	10
2023-09-23T18:00	17360	86	-52.8	-84.7	207	11
2023-09-23T18:00	17385	86	-52.8	-84.7	207	11
2023-09-23T18:00	17406	85	-52.9	-84.7	207	12
2023-09-23T18:00	17426	85	-52.8	-84.7	209	12
2023-09-23T18:00	17449	85	-52.9	-84.7	211	11
2023-09-23T18:00	17474	84	-52.6	-84.5	213	11
2023-09-23T18:00	17496	84	-52.6	-84.5	215	12
2023-09-23T18:00	17516	84	-52.6	-84.5	217	12
2023-09-23T18:00	17540	84	-52.6	-84.5	218	13
2023-09-23T18:00	17562	83	-52.6	-84.5	219	13
2023-09-23T18:00	17585	83	-52.5	-84.4	220	14
2023-09-23T18:00	17613	83	-52.4	-84.4	219	15
2023-09-23T18:00	17634	82	-52.5	-84.4	219	15
2023-09-23T18:00	17658	82	-52.7	-84.6	219	15
2023-09-23T18:00	17685	82	-52.9	-84.7	219	15
2023-09-23T18:00	17708	81	-53.2	-85.0	219	16
2023-09-23T18:00	17733	81	-53.3	-85.0	220	16
2023-09-23T18:00	17755	81	-53.5	-85.2	221	16
2023-09-23T18:00	17782	80	-53.6	-85.3	222	16
2023-09-23T18:00	17808	80	-53.8	-85.4	224	16
2023-09-23T18:00	17831	80	-53.9	-85.5	226	17
2023-09-23T18:00	17856	80	-53.6	-85.3	228	17
2023-09-23T18:00	17884	79	-53.4	-85.1	229	17
2023-09-23T18:00	17909	79	-53.3	-85.0	231	17
2023-09-23T18:00	17935	79	-53.2	-85.6	232	16
2023-09-23T18:00	17961	78	-53.2	-85.0	233	16
2023-09-23T18:00	17986	78	-53.2	-85.0	233	15
2023-09-23T18:00	18016	78	-53.3	-85.0	233	15
2023-09-23T18:00	18041	77	-53.5	-85.2	232	14
2023-09-23T18:00	18069	77	-53.7	-85.3	231	14
2023-09-23T18:00	18094	77	-53.9	-84.9	230	13
2023-09-23T18:00	18125	76	-54.1	-85.6	228	13
2023-09-23T18:00	18148	76	-54.3	-85.8	227	12
2023-09-23T18:00	18172	76	-54.3	-85.8	226	12
2023-09-23T18:00	18194	75	-54.2	-85.7	226	11
2023-09-23T18:00	18222	75	-53.7	-85.3	227	11
2023-09-23T18:00	18244	75	-53.5	-85.9	229	10
2023-09-23T18:00	18271	75	-53.4	-85.8	230	10
2023-09-23T18:00	18295	74	-53.3	-85.7	231	10
2023-09-23T18:00	18317	74	-53.2	-85.6	230	10
2023-09-23T18:00	18341	74	-53.3	-85.7	230	10
2023-09-23T18:00	18367	73	-53.2	-85.6	230	10
2023-09-23T18:00	18388	73	-53.3	-85.7	230	10
2023-09-23T18:00	18412	73	-53.2	-85.6	231	10
2023-09-23T18:00	18436	73	-52.9	-85.4	231	10
2023-09-23T18:00	18460	72	-52.7	-85.3	232	10
2023-09-23T18:00	18486	72	-52.8	-85.3	233	11
2023-09-23T18:00	18507	72	-52.9	-85.4	233	11
2023-09-23T18:00	18530	72	-53.1	-85.6	233	11
2023-09-23T18:00	18555	71	-53.3	-85.7	232	11
2023-09-23T18:00	18578	71	-53.5	-85.2	232	12
2023-09-23T18:00	18604	71	-53.7	-85.3	232	12
2023-09-23T18:00	18629	71	-53.9	-85.5	231	13
2023-09-23T18:00	18651	70	-54.1	-85.6	231	13
2023-09-23T18:00	18676	70	-54.3	-85.8	230	14
2023-09-23T18:00	18703	70	-54.5	-85.9	229	14
2023-09-23T18:00	18725	69	-54.6	-85.4	228	15
2023-09-23T18:00	18750	69	-54.8	-85.5	227	15
2023-09-23T18:00	18773	69	-54.9	-85.6	227	15
2023-09-23T18:00	18799	69	-55.1	-85.8	226	16
2023-09-23T18:00	18822	68	-55.3	-85.9	226	16
2023-09-23T18:00	18844	68	-55.5	-86.1	226	17
2023-09-23T18:00	18870	68	-55.6	-86.1	226	17
2023-09-23T18:00	18891	68	-55.6	-86.1	227	18
2023-09-23T18:00	18918	67	-55.7	-86.2	227	18
2023-09-23T18:00	18938	67	-55.7	-86.2	228	18
2023-09-23T18:00	18959	67	-55.7	-86.2	229	19
2023-09-23T18:00	18982	67	-55.8	-86.3	229	19
2023-09-23T18:00	19004	67	-55.7	-86.2	230	19
2023-09-23T18:00	19028	66	-55.8	-86.3	231	19
2023-09-23T18:00	19049	66	-56.0	-86.4	233	18
2023-09-23T18:00	19075	66	-56.1	-86.5	234	18
2023-09-23T18:00	19097	66	-56.0	-86.4	236	17
2023-09-23T18:00	19118	65	-55.9	-86.3	237	16
2023-09-23T18:00	19143	65	-55.9	-86.9	239	16
2023-09-23T18:00	19167	65	-55.8	-86.9	240	15
2023-09-23T18:00	19190	65	-55.4	-86.6	242	15
2023-09-23T18:00	19211	64	-55.3	-87.2	244	15
2023-09-23T18:00	19238	64	-55.0	-87.0	246	15
2023-09-23T18:00	19258	64	-54.5	-86.6	249	15
2023-09-23T18:00	19285	64	-54.3	-86.4	251	15
2023-09-23T18:00	19305	63	-54.3	-86.4	253	15
2023-09-23T18:00	19331	63	-54.3	-86.4	254	15
2023-09-23T18:00	19357	63	-54.3	-86.4	255	14
2023-09-23T18:00	19379	63	-54.2	-86.4	256	14
2023-09-23T18:00	19403	62	-54.0	-86.2	255	14
2023-09-23T18:00	19427	62	-53.7	-86.0	254	13
2023-09-23T18:00	19451	62	-53.5	-85.9	252	13
2023-09-23T18:00	19478	62	-53.5	-85.9	250	12
2023-09-23T18:00	19502	62	-53.5	-85.9	249	12
2023-09-23T18:00	19531	61	-53.3	-85.7	247	12
2023-09-23T18:00	19554	61	-53.4	-85.8	246	12
2023-09-23T18:00	19577	61	-53.1	-85.6	246	12
2023-09-23T18:00	19603	61	-53.2	-85.6	247	12
2023-09-23T18:00	19631	60	-53.3	-85.7	248	12
2023-09-23T18:00	19654	60	-53.5	-85.9	249	12
2023-09-23T18:00	19685	60	-53.8	-86.1	250	11
2023-09-23T18:00	19705	60	-53.9	-85.5	251	11
2023-09-23T18:00	19730	59	-54.1	-85.6	253	11
2023-09-23T18:00	19754	59	-54.3	-85.8	255	10
2023-09-23T18:00	19783	59	-54.4	-85.8	257	10
2023-09-23T18:00	19810	59	-54.5	-85.9	260	10
2023-09-23T18:00	19832	58	-54.7	-86.1	262	10
2023-09-23T18:00	19862	58	-54.8	-86.1	264	10
2023-09-23T18:00	19886	58	-54.9	-86.2	265	9
2023-09-23T18:00	19913	58	-55.1	-86.4	266	9
2023-09-23T18:00	19940	57	-54.7	-86.1	265	8
2023-09-23T18:00	19964	57	-54.4	-85.8	263	7
2023-09-23T18:00	19989	57	-54.6	-86.0	261	7
2023-09-23T18:00	20018	57	-54.8	-86.1	258	6
2023-09-23T18:00	20040	57	-54.9	-86.2	255	6
2023-09-23T18:00	20069	56	-54.9	-86.2	253	6
2023-09-23T18:00	20093	56	-54.9	-86.2	252	6
2023-09-23T18:00	20117	56	-55.1	-86.4	252	5
2023-09-23T18:00	20146	56	-55.1	-86.4	252	5
2023-09-23T18:00	20173	55	-55.3	-86.5	252	5
2023-09-23T18:00	20198	55	-55.4	-86.6	252	5
2023-09-23T18:00	20222	55	-55.4	-86.6	252	5
2023-09-23T18:00	20249	55	-55.4	-86.0	251	5
2023-09-23T18:00	20273	55	-55.6	-86.1	250	6
2023-09-23T18:00	20300	54	-55.8	-86.3	249	6
2023-09-23T18:00	20322	54	-55.9	-86.3	247	6
2023-09-23T18:00	20345	54	-56.0	-86.4	244	6
2023-09-23T18:00	20374	54	-56.0	-86.4	240	6
2023-09-23T18:00	20398	53	-56.1	-86.5	235	6
2023-09-23T18:00	20421	53	-56.1	-86.5	230	7
2023-09-23T18:00	20446	53	-56.2	-86.6	226	7
2023-09-23T18:00	20470	53	-56.3	-86.6	224	7
2023-09-23T18:00	20497	53	-56.5	-86.8	224	7
2023-09-23T18:00	20520	52	-56.7	-86.4	223	6
2023-09-23T18:00	20547	52	-56.9	-86.6	223	6
2023-09-23T18:00	20572	52	-57.0	-86.6	222	6
2023-09-23T18:00	20596	52	-57.2	-86.8	221	6
2023-09-23T18:00	20624	52	-57.3	-86.9	218	6
2023-09-23T18:00	20653	51	-57.4	-86.9	214	7
2023-09-23T18:00	20677	51	-57.5	-87.0	210	7
2023-09-23T18:00	20703	51	-57.6	-87.1	207	7
2023-09-23T18:00	20729	51	-57.8	-86.7	204	8
2023-09-23T18:00	20752	51	-58.0	-86.9	204	8
2023-09-23T18:00	20780	50	-58.2	-87.5	205	8
2023-09-23T18:00	20804	50	-58.4	-87.7	208	8
2023-09-23T18:00	20827	50	-58.0	-87.9	212	8
2023-09-23T18:00	20850	50	-57.3	-87.4	217	7
2023-09-23T18:00	20878	50	-57.1	-87.2	223	7
2023-09-23T18:00	20905	49	-56.9	-87.7	229	7
2023-09-23T18:00	20924	49	-56.6	-87.5	234	6
2023-09-23T18:00	20956	49	-56.7	-87.5	239	6
2023-09-23T18:00	20975	49	-56.8	-87.6	243	6
2023-09-23T18:00	21000	49	-56.8	-87.6	246	6
2023-09-23T18:00	21024	48	-56.8	-87.6	248	6
2023-09-23T18:00	21048	48	-56.5	-87.4	249	6
2023-09-23T18:00	21073	48	-56.1	-87.1	248	5
2023-09-23T18:00	21097	48	-56.0	-87.0	243	5
2023-09-23T18:00	21127	48	-56.1	-87.1	236	5
2023-09-23T18:00	21146	48	-56.0	-87.0	225	5
2023-09-23T18:00	21178	47	-55.8	-86.9	216	5
2023-09-23T18:00	21198	47	-55.8	-86.9	208	6
2023-09-23T18:00	21228	47	-55.7	-86.8	204	6
2023-09-23T18:00	21244	47	-55.7	-86.8	201	6
2023-09-23T18:00	21272	47	-55.8	-86.9	201	7
2023-09-23T18:00	21296	46	-56.1	-87.1	202	7
2023-09-23T18:00	21318	46	-56.0	-87.0	204	7
2023-09-23T18:00	21343	46	-56.1	-87.1	207	7
2023-09-23T18:00	21365	46	-56.2	-87.2	210	7
2023-09-23T18:00	21388	46	-56.4	-87.3	212	7
2023-09-23T18:00	21413	46	-56.6	-87.5	215	7
2023-09-23T18:00	21436	45	-56.6	-87.5	217	7
2023-09-23T18:00	21462	45	-56.6	-87.5	219	7
2023-09-23T18:00	21481	45	-56.3	-87.2	220	7
2023-09-23T18:00	21506	45	-56.2	-87.2	222	7
2023-09-23T18:00	21530	45	-56.0	-87.0	224	7
2023-09-23T18:00	21552	45	-56.0	-87.7	226	7
2023-09-23T18:00	21570	44	-55.9	-87.6	226	7
2023-09-23T18:00	21596	44	-56.0	-87.7	226	7
2023-09-23T18:00	21618	44	-55.9	-87.6	224	7
2023-09-23T18:00	21637	44	-55.6	-87.4	221	7
2023-09-23T18:00	21663	44	-55.3	-87.2	217	7
2023-09-23T18:00	21680	44	-54.6	-86.7	215	8
2023-09-23T18:00	21709	44	-54.8	-86.8	213	8
2023-09-23T18:00	21727	43	-55.0	-87.0	213	8
2023-09-23T18:00	21753	43	-55.2	-87.1	213	9
2023-09-23T18:00	21769	43	-55.4	-87.2	214	9
2023-09-23T18:00	21794	43	-55.5	-86.7	215	10
2023-09-23T18:00	21818	43	-55.6	-86.7	217	10
2023-09-23T18:00	21842	43	-55.8	-86.9	220	10
2023-09-23T18:00	21864	42	-55.9	-86.9	222	11
2023-09-23T18:00	21883	42	-56.0	-87.0	224	11
2023-09-23T18:00	21901	42	-56.0	-87.0	225	11
2023-09-23T18:00	21927	42	-56.1	-87.1	226	11
2023-09-23T18:00	21945	42	-55.8	-87.5	226	10
2023-09-23T18:00	21962	42	-55.7	-87.5	225	10
2023-09-23T18:00	21986	42	-55.5	-87.3	223	10
2023-09-23T18:00	22013	41	-55.1	-87.0	221	9
2023-09-23T18:00	22033	41	-55.1	-87.0	220	9
2023-09-23T18:00	22060	41	-55.2	-87.1	219	9
2023-09-23T18:00	22081	41	-55.4	-87.2	218	9
2023-09-23T18:00	22106	41	-55.5	-87.3	218	8
2023-09-23T18:00	22126	41	-55.6	-87.4	217	8
2023-09-23T18:00	22149	41	-55.7	-87.5	215	7
2023-09-23T18:00	22174	40	-55.4	-87.2	213	7
2023-09-23T18:00	22198	40	-55.3	-87.2	210	7
2023-09-23T18:00	22222	40	-55.2	-87.1	206	7
2023-09-23T18:00	22246	40	-55.2	-87.1	203	7
2023-09-23T18:00	22268	40	-55.3	-87.2	199	7
2023-09-23T18:00	22294	40	-55.5	-87.3	194	7
2023-09-23T18:00	22318	40	-55.7	-87.5	191	7
2023-09-23T18:00	22345	39	-55.8	-87.5	188	7
2023-09-23T18:00	22370	39	-55.4	-87.2	187	8
2023-09-23T18:00	22391	39	-55.4	-87.2	187	8
2023-09-23T18:00	22422	39	-55.5	-87.3	189	9
2023-09-23T18:00	22443	39	-55.4	-87.2	192	9
2023-09-23T18:00	22473	39	-55.1	-87.0	194	10
2023-09-23T18:00	22496	38	-55.0	-87.0	197	10
2023-09-23T18:00	22521	38	-55.1	-87.0	200	10
2023-09-23T18:00	22552	38	-55.3	-87.2	203	10
2023-09-23T18:00	22574	38	-55.5	-87.3	206	10
2023-09-23T18:00	22601	38	-55.7	-86.8	209	11
2023-09-23T18:00	22628	38	-55.9	-86.9	211	11
2023-09-23T18:00	22657	38	-56.0	-87.0	213	11
2023-09-23T18:00	22679	37	-56.1	-87.1	215	12
2023-09-23T18:00	22708	37	-56.1	-87.1	216	11
2023-09-23T18:00	22736	37	-56.0	-87.0	217	11
2023-09-23T18:00	22762	37	-56.2	-87.2	218	11
2023-09-23T18:00	22788	37	-56.3	-87.2	219	11
2023-09-23T18:00	22814	37	-56.4	-87.3	220	11
2023-09-23T18:00	22840	36	-56.5	-87.4	220	11
2023-09-23T18:00	22871	36	-56.6	-87.5	220	12
2023-09-23T18:00	22894	36	-56.6	-87.5	220	12
2023-09-23T18:00	22926	36	-56.7	-87.5	220	12
2023-09-23T18:00	22951	36	-56.8	-87.6	221	12
2023-09-23T18:00	22974	36	-57.0	-87.2	222	13
2023-09-23T18:00	23007	36	-57.2	-87.3	224	13
2023-09-23T18:00	23025	35	-57.4	-87.5	226	13
2023-09-23T18:00	23055	35	-57.5	-87.5	229	13
2023-09-23T18:00	23076	35	-57.6	-87.6	232	13
2023-09-23T18:00	23102	35	-57.5	-88.1	235	14
2023-09-23T18:00	23127	35	-57.5	-88.1	238	14
2023-09-23T18:00	23153	35	-57.5	-88.1	240	14
2023-09-23T18:00	23177	35	-57.2	-87.9	243	14
2023-09-23T18:00	23201	34	-56.9	-87.7	245	13
2023-09-23T18:00	23219	34	-56.8	-87.6	247	13
2023-09-23T18:00	23247	34	-56.9	-87.7	249	12
2023-09-23T18:00	23274	34	-57.1	-87.8	251	11
2023-09-23T18:00	23294	34	-57.3	-88.0	253	11
2023-09-23T18:00	23314	34	-57.5	-88.1	256	10
2023-09-23T18:00	23344	34	-57.3	-88.0	258	10
2023-09-23T18:00	23364	34	-57.4	-88.1	260	9
2023-09-23T18:00	23384	33	-57.4	-88.1	260	9
2023-09-23T18:00	23403	33	-57.0	-87.8	260	8
2023-09-23T18:00	23432	33	-56.8	-87.6	260	8
2023-09-23T18:00	23455	33	-56.7	-88.2	260	8
2023-09-23T18:00	23473	33	-56.8	-88.3	260	7
2023-09-23T18:00	23501	33	-56.9	-87.7	261	7
2023-09-23T18:00	23522	33	-56.9	-87.7	260	7
2023-09-23T18:00	23546	33	-56.9	-87.7	258	7
2023-09-23T18:00	23570	32	-56.9	-87.7	254	7
2023-09-23T18:00	23596	32	-57.1	-87.8	248	7
2023-09-23T18:00	23620	32	-57.2	-87.9	242	8
2023-09-23T18:00	23646	32	-57.1	-87.8	237	8
2023-09-23T18:00	23671	32	-56.8	-87.6	234	9
2023-09-23T18:00	23692	32	-56.7	-88.2	232	10
2023-09-23T18:00	23717	32	-56.7	-88.2	233	10
2023-09-23T18:00	23741	32	-56.7	-88.2	235	11
2023-09-23T18:00	23769	31	-56.6	-88.1	238	11
2023-09-23T18:00	23797	31	-56.5	-88.1	241	11
2023-09-23T18:00	23823	31	-56.4	-88.0	245	12
2023-09-23T18:00	23842	31	-56.3	-87.9	248	12
2023-09-23T18:00	23869	31	-56.2	-87.8	252	12
2023-09-23T18:00	23892	31	-56.2	-87.8	255	12
2023-09-23T18:00	23917	31	-56.2	-87.8	259	12
2023-09-23T18:00	23940	31	-56.1	-87.8	263	12
2023-09-23T18:00	23971	30	-56.1	-87.8	266	12
2023-09-23T18:00	23994	30	-56.2	-87.8	268	12
2023-09-23T18:00	24027	30	-56.3	-87.9	269	12
2023-09-23T18:00	24051	30	-56.4	-88.0	269	12
2023-09-23T18:00	24075	30	-56.0	-87.7	268	12
2023-09-23T18:00	24105	30	-56.0	-87.7	266	13
2023-09-23T18:00	24127	30	-56.1	-87.8	264	13
2023-09-23T18:00	24157	30	-56.2	-87.8	263	13
2023-09-23T18:00	24186	29	-56.4	-88.0	261	13
2023-09-23T18:00	24210	29	-56.5	-88.1	260	13
2023-09-23T18:00	24241	29	-56.4	-88.0	259	12
2023-09-23T18:00	24270	29	-56.0	-87.7	258	12
2023-09-23T18:00	24296	29	-56.1	-87.1	258	11
2023-09-23T18:00	24321	29	-56.4	-87.3	256	10
2023-09-23T18:00	24351	29	-56.5	-87.4	255	10
2023-09-23T18:00	24373	29	-56.7	-87.5	253	9
2023-09-23T18:00	24400	28	-56.8	-87.6	251	8
2023-09-23T18:00	24428	28	-56.8	-87.6	250	8
2023-09-23T18:00	24454	28	-56.8	-87.6	248	7
2023-09-23T18:00	24479	28	-56.8	-87.6	246	7
2023-09-23T18:00	24508	28	-56.7	-87.5	245	6
2023-09-23T18:00	24537	28	-56.8	-87.6	245	6
2023-09-23T18:00	24564	28	-56.9	-87.7	245	5
2023-09-23T18:00	24592	28	-57.1	-87.8	246	4
2023-09-23T18:00	24619	28	-57.2	-87.9	248	4
2023-09-23T18:00	24642	27	-57.2	-87.9	248	4
2023-09-23T18:00	24668	27	-57.3	-88.0	246	4
2023-09-23T18:00	24700	27	-57.5	-88.1	242	4
2023-09-23T18:00	24721	27	-57.6	-88.2	238	4
2023-09-23T18:00	24749	27	-57.3	-88.0	233	5
2023-09-23T18:00	24782	27	-57.4	-88.1	229	5
2023-09-23T18:00	24806	27	-57.6	-88.2	226	6
2023-09-23T18:00	24837	27	-57.7	-88.3	223	7
2023-09-23T18:00	24861	27	-57.7	-88.3	221	7
2023-09-23T18:00	24885	26	-57.7	-88.3	221	8
2023-09-23T18:00	24914	26	-57.7	-88.3	221	9
2023-09-23T18:00	24945	26	-57.5	-88.1	223	9
2023-09-23T18:00	24964	26	-57.3	-88.6	224	10
2023-09-23T18:00	24995	26	-57.0	-88.4	226	11
2023-09-23T18:00	25015	26	-57.1	-88.5	229	11
2023-09-23T18:00	25044	26	-57.0	-88.4	232	12
2023-09-23T18:00	25069	26	-56.8	-88.3	236	12
2023-09-23T18:00	25093	26	-56.6	-88.1	240	13
2023-09-23T18:00	25110	25	-56.3	-87.9	243	13
2023-09-23T18:00	25144	25	-56.0	-88.4	247	13
2023-09-23T18:00	25169	25	-55.7	-88.2	250	13
2023-09-23T18:00	25204	25	-55.7	-88.2	253	13
2023-09-23T18:00	25222	25	-55.5	-88.1	256	13
2023-09-23T18:00	25244	25	-55.5	-88.1	258	13
2023-09-23T18:00	25269	25	-55.4	-88.0	260	13
2023-09-23T18:00	25303	25	-55.0	-87.7	262	13
2023-09-23T18:00	25331	25	-55.0	-87.7	263	13
2023-09-23T18:00	25354	25	-54.4	-87.3	264	12
2023-09-23T18:00	25379	24	-54.2	-87.1	265	12
2023-09-23T18:00	25408	24	-54.2	-87.1	266	11
2023-09-23T18:00	25436	24	-54.4	-87.3	267	10
2023-09-23T18:00	25459	24	-54.5	-87.3	268	10
2023-09-23T18:00	25487	24	-54.7	-86.7	269	9
2023-09-23T18:00	25520	24	-54.9	-86.9	269	9
2023-09-23T18:00	25539	24	-55.1	-87.0	269	8
2023-09-23T18:00	25575	24	-55.3	-87.2	269	8
2023-09-23T18:00	25599	24	-55.6	-87.4	268	7
2023-09-23T18:00	25630	23	-55.7	-87.5	267	7
2023-09-23T18:00	25661	23	-55.8	-87.5	267	8
2023-09-23T18:00	25692	23	-55.6	-87.4	267	8
2023-09-23T18:00	25726	23	-55.6	-87.4	267	9
2023-09-23T18:00	25749	23	-55.5	-87.3	268	9
2023-09-23T18:00	25780	23	-55.4	-87.2	268	10
2023-09-23T18:00	25813	23	-55.6	-87.4	268	10
2023-09-23T18:00	25837	23	-55.8	-87.5	269	11
2023-09-23T18:00	25874	23	-55.8	-87.5	270	11
2023-09-23T18:00	25894	23	-55.5	-87.3	272	12
2023-09-23T18:00	25936	22	-55.5	-88.1	275	12
2023-09-23T18:00	25957	22	-55.5	-88.1	278	12
2023-09-23T18:00	25988	22	-55.2	-87.8	280	12
2023-09-23T18:00	26017	22	-55.1	-87.8	282	12
2023-09-23T18:00	26055	22	-55.0	-87.7	282	12
2023-09-23T18:00	26090	22	-54.8	-87.6	281	11
2023-09-23T18:00	26117	22	-54.8	-87.6	279	11
2023-09-23T18:00	26138	22	-54.9	-87.6	276	10
2023-09-23T18:00	26175	22	-54.8	-87.6	273	9
2023-09-23T18:00	26201	21	-54.6	-87.4	270	8
2023-09-23T18:00	26229	21	-54.7	-87.5	266	7
2023-09-23T18:00	26259	21	-54.8	-87.6	261	6
2023-09-23T18:00	26290	21	-54.9	-87.6	254	5
2023-09-23T18:00	26307	21	-55.0	-87.7	248	5
2023-09-23T18:00	26342	21	-55.0	-87.7	244	5
2023-09-23T18:00	26371	21	-54.7	-87.5	245	5
2023-09-23T18:00	26406	21	-54.4	-87.3	251	5
2023-09-23T18:00	26432	21	-54.4	-87.3	259	5
2023-09-23T18:00	26452	21	-54.3	-87.2	267	5
2023-09-23T18:00	26482	21	-54.2	-87.1	275	6
2023-09-23T18:00	26506	20	-54.2	-87.1	281	6
2023-09-23T18:00	26527	20	-54.4	-87.3	286	6
2023-09-23T18:00	26566	20	-54.5	-87.3	290	6
2023-09-23T18:00	26592	20	-54.6	-87.4	292	7
2023-09-23T18:00	26623	20	-54.8	-87.6	294	7
2023-09-23T18:00	26644	20	-54.9	-87.6	295	8
2023-09-23T18:00	26668	20	-54.9	-87.6	296	8
2023-09-23T18:00	26697	20	-54.9	-87.6	296	7
2023-09-23T18:00	26722	20	-54.5	-87.3	297	7
2023-09-23T18:00	26743	20	-54.5	-87.3	298	6
2023-09-23T18:00	26778	20	-54.7	-87.5	299	6
2023-09-23T18:00	26789	20	-54.8	-87.6	300	5
2023-09-23T18:00	26819	19	-55.0	-87.7	300	5
2023-09-23T18:00	26855	19	-55.1	-87.8	299	4
2023-09-23T18:00	26875	19	-54.7	-87.5	297	4
2023-09-23T18:00	26903	19	-54.8	-87.6	295	4
2023-09-23T18:00	26919	19	-54.7	-87.5	292	4
2023-09-23T18:00	26947	19	-54.4	-87.3	291	3
2023-09-23T18:00	26969	19	-54.0	-87.0	292	3
2023-09-23T18:00	26997	19	-53.8	-87.7	295	4
2023-09-23T18:00	27024	19	-53.9	-87.8	298	4
2023-09-23T18:00	27056	19	-54.0	-87.0	301	4
2023-09-23T18:00	27075	19	-53.8	-86.8	303	5
2023-09-23T18:00	27095	19	-53.9	-86.9	303	5
2023-09-23T18:00	27122	19	-54.1	-87.1	302	6
2023-09-23T18:00	27144	19	-54.0	-87.0	301	6
2023-09-23T18:00	27165	18	-53.9	-87.8	298	6
2023-09-23T18:00	27199	18	-53.7	-87.6	294	5
2023-09-23T18:00	27224	18	-53.5	-87.5	289	5
2023-09-23T18:00	27246	18	-53.4	-87.4	284	5
2023-09-23T18:00	27279	18	-53.4	-87.4	278	5
2023-09-23T18:00	27302	18	-53.3	-87.3	270	4
2023-09-23T18:00	27328	18	-53.2	-87.3	259	4
2023-09-23T18:00	27356	18	-53.2	-87.3	247	4
2023-09-23T18:00	27384	18	-53.2	-87.3	235	5
2023-09-23T18:00	27407	18	-53.2	-87.3	226	5
2023-09-23T18:00	27442	18	-52.9	-87.1	220	6
2023-09-23T18:00	27462	18	-52.9	-87.1	217	7
2023-09-23T18:00	27493	18	-53.1	-87.2	215	8
2023-09-23T18:00	27519	17	-53.3	-86.5	215	8
2023-09-23T18:00	27552	17	-53.4	-86.5	217	9
2023-09-23T18:00	27580	17	-53.5	-86.6	220	9
2023-09-23T18:00	27616	17	-53.6	-86.7	223	9
2023-09-23T18:00	27636	17	-53.6	-86.7	228	10
2023-09-23T18:00	27686	17	-53.2	-86.4	233	10
2023-09-23T18:00	27704	17	-53.1	-87.2	238	10
2023-09-23T18:00	27735	17	-53.2	-87.3	243	10
2023-09-23T18:00	27760	17	-53.1	-87.2	248	10
2023-09-23T18:00	27808	17	-53.0	-87.1	253	11
2023-09-23T18:00	27832	17	-52.9	-87.1	257	11
2023-09-23T18:00	27859	17	-52.9	-87.1	261	12
2023-09-23T18:00	27894	17	-52.9	-87.1	264	12
2023-09-23T18:00	27928	16	-53.1	-87.2	267	13
2023-09-23T18:00	27958	16	-53.3	-87.3	269	13
2023-09-23T18:00	27991	16	-53.2	-87.3	272	14
2023-09-23T18:00	28019	16	-53.2	-87.3	274	14
2023-09-23T18:00	28055	16	-53.4	-87.4	276	14
2023-09-23T18:00	28075	16	-53.4	-87.4	276	13
2023-09-23T18:00	28126	16	-53.3	-87.3	276	13
2023-09-23T18:00	28151	16	-53.2	-87.3	275	13
2023-09-23T18:00	28192	16	-53.0	-87.1	274	12
2023-09-23T18:00	28220	16	-52.9	-87.1	273	12
2023-09-23T18:00	28257	16	-52.8	-87.0	271	11
2023-09-23T18:00	28286	16	-53.0	-87.1	270	11
2023-09-23T18:00	28307	15	-53.1	-87.2	268	10
2023-09-23T18:00	28338	15	-53.2	-87.3	267	10
2023-09-23T18:00	28367	15	-53.2	-87.3	265	9
2023-09-23T18:00	28396	15	-53.0	-87.1	265	9
2023-09-23T18:00	28442	15	-52.9	-87.1	265	10
2023-09-23T18:00	28468	15	-53.0	-87.1	265	10
2023-09-23T18:00	28499	15	-53.1	-87.2	265	11
2023-09-23T18:00	28520	15	-53.1	-87.2	266	11
2023-09-23T18:00	28557	15	-53.2	-87.3	266	12
2023-09-23T18:00	28581	15	-53.3	-87.3	267	12
2023-09-23T18:00	28620	15	-53.2	-87.3	268	12
2023-09-23T18:00	28650	15	-53.1	-87.2	270	13
2023-09-23T18:00	28684	15	-52.9	-87.1	273	12
2023-09-23T18:00	28708	15	-52.8	-87.0	276	12
2023-09-23T18:00	28732	14	-52.7	-86.9	279	12
2023-09-23T18:00	28766	14	-52.7	-86.9	282	12
2023-09-23T18:00	28802	14	-52.9	-87.1	285	12
2023-09-23T18:00	28829	14	-53.0	-87.1	289	11
2023-09-23T18:00	28865	14	-52.9	-87.1	292	11
2023-09-23T18:00	28889	14	-52.8	-87.0	295	10
2023-09-23T18:00	28923	14	-53.0	-87.1	298	10
2023-09-23T18:00	28937	14	-53.1	-87.2	300	9
2023-09-23T18:00	28977	14	-53.1	-87.2	303	9
2023-09-23T18:00	29009	14	-53.2	-87.3	305	8
2023-09-23T18:00	29032	14	-53.2	-87.3	306	7
2023-09-23T18:00	29055	14	-53.3	-87.3	306	7
2023-09-23T18:00	29092	14	-53.2	-87.3	304	6
2023-09-23T18:00	29118	14	-52.9	-87.1	300	6
2023-09-23T18:00	29153	14	-53.1	-87.2	295	6
2023-09-23T18:00	29173	14	-53.0	-87.1	289	7
2023-09-23T18:00	29209	13	-52.8	-87.0	284	7
2023-09-23T18:00	29234	13	-52.8	-87.0	278	8
2023-09-23T18:00	29256	13	-53.0	-87.1	273	8
2023-09-23T18:00	29292	13	-53.1	-87.2	268	9
2023-09-23T18:00	29323	13	-53.2	-87.3	264	9
2023-09-23T18:00	29359	13	-53.2	-87.3	262	10
2023-09-23T18:00	29381	13	-53.2	-87.3	260	10
2023-09-23T18:00	29408	13	-53.3	-87.3	261	11
2023-09-23T18:00	29446	13	-53.4	-87.4	264	11
2023-09-23T18:00	29470	13	-52.8	-87.0	268	10
2023-09-23T18:00	29496	13	-52.8	-87.0	273	10
2023-09-23T18:00	29531	13	-53.0	-87.1	278	11
2023-09-23T18:00	29551	13	-53.2	-87.3	283	11
2023-09-23T18:00	29596	13	-53.3	-87.3	286	12
2023-09-23T18:00	29608	13	-53.3	-87.3	287	12
2023-09-23T18:00	29641	13	-53.3	-87.3	288	13
2023-09-23T18:00	29682	13	-53.2	-87.3	287	14
2023-09-23T18:00	29701	12	-53.3	-87.3	285	14
2023-09-23T18:00	29738	12	-53.4	-87.4	283	14
2023-09-23T18:00	29767	12	-53.4	-87.4	280	14
2023-09-23T18:00	29799	12	-53.3	-87.3	277	15
2023-09-23T18:00	29825	12	-53.2	-87.3	273	15
2023-09-23T18:00	29859	12	-53.3	-87.3	271	15
2023-09-23T18:00	29877	12	-53.2	-88.3	270	16
2023-09-23T18:00	29907	12	-52.9	-88.1	271	16
2023-09-23T18:00	29948	12	-52.5	-87.8	274	16
2023-09-23T18:00	29967	12	-52.3	-87.7	278	16
2023-09-23T18:00	29997	12	-52.3	-87.7	282	16
2023-09-23T18:00	30027	12	-52.4	-87.7	286	16
2023-09-23T18:00	30061	12	-52.5	-87.8	290	16
2023-09-23T18:00	30093	12	-52.4	-87.7	293	16
2023-09-23T18:00	30126	12	-52.6	-86.8	297	16
2023-09-23T18:00	30151	12	-52.6	-86.8	300	16
2023-09-23T18:00	30175	12	-52.6	-86.8	303	16
2023-09-23T18:00	30215	12	-52.7	-86.9	306	16
2023-09-23T18:00	30236	11	-52.9	-87.1	309	16
2023-09-23T18:00	30267	11	-53.1	-87.2	311	16
2023-09-23T18:00	30297	11	-52.9	-87.1	313	16
2023-09-23T18:00	30325	11	-52.7	-86.9	315	16
2023-09-23T18:00	30354	11	-52.6	-87.9	317	17
2023-09-23T18:00	30377	11	-52.4	-87.7	319	17
2023-09-23T18:00	30415	11	-52.0	-87.4	320	17
2023-09-23T18:00	30440	11	-52.1	-87.5	321	16
2023-09-23T18:00	30479	11	-52.3	-87.7	322	16
2023-09-23T18:00	30502	11	-52.2	-87.6	323	14
2023-09-23T18:00	30527	11	-52.1	-87.5	322	13
2023-09-23T18:00	30552	11	-52.0	-87.4	321	12
2023-09-23T18:00	30591	11	-51.8	-87.3	318	11
2023-09-23T18:00	30611	11	-51.5	-87.1	312	10
2023-09-23T18:00	30645	11	-51.2	-86.9	305	9
2023-09-23T18:00	30676	11	-51.0	-86.7	297	9
2023-09-23T18:00	30712	11	-50.8	-86.6	288	9
2023-09-23T18:00	30732	11	-50.7	-86.5	279	10
2023-09-23T18:00	30772	11	-50.5	-86.4	272	10
2023-09-23T18:00	30787	11	-50.1	-86.1	267	11
2023-09-23T18:00	30799	11	-49.8	-85.9	264	12
2023-09-23T18:00	30846	10	-49.8	-85.9	264	13
2023-09-23T18:00	30863	10	-49.7	-85.8	265	14
2023-09-23T18:00	30875	10	-49.2	-85.5	268	15
2023-09-23T18:00	30908	10	-48.7	-85.1	272	15
2023-09-23T18:00	30931	10	-48.4	-84.9	276	15
2023-09-23T18:00	30959	10	-48.1	-84.7	280	15
2023-09-23T18:00	30968	10	-48.1	-84.7	283	14
2023-09-23T18:00	31015	10	-48.0	-84.6	286	13
2023-09-23T18:00	31032	10	-47.6	-84.3	288	13
2023-09-23T18:00	31066	10	-47.3	-84.1	289	12
2023-09-23T18:00	31097	10	-47.1	-84.0	289	12
2023-09-23T18:00	31129	10	-46.9	-83.9	288	12
2023-09-23T18:00	31157	10	-46.7	-83.7	288	11
2023-09-23T18:00	31193	10	-46.8	-83.8	288	11
2023-09-23T18:00	31213	10	-47.0	-83.9	288	10
2023-09-23T18:00	31245	10	-47.2	-84.1	289	10
2023-09-23T18:00	31266	10	-47.5	-84.3	289	9
2023-09-23T18:00	31302	10	-47.7	-84.4	290	9
2023-09-23T18:00	31339	10	-48.0	-84.6	290	8
2023-09-23T18:00	31380	10	-48.1	-84.7	289	8
2023-09-23T18:00	31399	10	-48.1	-84.7	288	7
2023-09-23T18:00	31426	10	-48.2	-84.8	287	7
2023-09-23T18:00	31454	10	-48.4	-84.9	287	7
2023-09-23T18:00	31473	10	-48.6	-85.0	288	6
2023-09-23T18:00	31520	9	-48.8	-85.2	290	6
2023-09-23T18:00	31540	9	-48.9	-85.3	293	6
2023-09-23T18:00	31573	9	-49.1	-85.4	296	5
2023-09-23T18:00	31622	9	-49.4	-85.6	297	5
2023-09-23T18:00	31635	9	-49.5	-85.7	296	4
2023-09-23T18:00	31664	9	-49.6	-85.8	290	4
2023-09-23T18:00	31688	9	-49.5	-85.7	282	4
2023-09-23T18:00	31694	9	-49.4	-85.6	273	4
2023-09-23T18:00	31752	9	-49.0	-85.3	265	5
2023-09-23T18:00	31788	9	-48.9	-85.3	260	5
2023-09-23T18:00	31808	9	-49.0	-85.3	258	6
2023-09-23T18:00	31827	9	-49.2	-85.5	258	7
2023-09-23T18:00	31876	9	-49.3	-85.5	259	7
2023-09-23T18:00	31892	9	-49.4	-85.6	261	8
2023-09-23T18:00	31924	9	-49.3	-85.5	264	9
2023-09-23T18:00	31934	9	-49.1	-85.4	268	9
2023-09-23T18:00	31969	9	-49.1	-85.4	271	9
2023-09-23T18:00	32005	9	-49.2	-85.5	274	9
2023-09-23T18:00	32016	9	-49.0	-85.3	275	9
2023-09-23T18:00	32053	9	-48.1	-84.7	275	8
2023-09-23T18:00	32090	9	-47.3	-84.1	273	8
2023-09-23T18:00	32118	9	-47.2	-84.1	269	8
2023-09-23T18:00	32145	9	-47.2	-84.1	265	8
2023-09-23T18:00	32159	9	-47.1	-84.0	262	8
2023-09-23T18:00	32190	9	-47.1	-84.0	260	9
2023-09-23T18:00	32223	8	-47.3	-84.1	258	9
2023-09-23T18:00	32249	8	-47.4	-84.2	258	9
2023-09-23T18:00	32290	8	-47.7	-84.4	258	9
2023-09-23T18:00	32304	8	-47.8	-84.5	258	9
2023-09-23T18:00	32335	8	-47.5	-84.3	259	9
2023-09-23T18:00	32373	8	-47.5	-84.3	260	9
2023-09-23T18:00	32422	8	-47.1	-84.0	262	10
2023-09-23T18:00	32441	8	-46.6	-83.6	264	10
2023-09-23T18:00	32480	8	-46.6	-83.6	268	10
2023-09-23T18:00	32513	8	-46.6	-83.6	272	11
2023-09-23T18:00	32522	8	-46.6	-83.6	276	11
2023-09-23T18:00	32578	8	-46.1	-83.3	280	11
2023-09-23T18:00	32590	8	-45.9	-83.2	282	11
2023-09-23T18:00	32618	8	-45.4	-82.8	283	11
2023-09-23T18:00	32663	8	-45.0	-82.5	283	11
2023-09-23T18:00	32695	8	-44.5	-82.2	282	10
2023-09-23T18:00	32728	8	-44.2	-82.0	280	10
2023-09-23T18:00	32784	8	-43.8	-81.7	278	10
2023-09-23T18:00	32802	8	-43.5	-81.5	277	10
2023-09-23T18:00	32820	8	-43.4	-81.4	277	11
2023-09-23T18:00	32871	8	-43.2	-81.3	277	11
2023-09-23T18:00	32897	8	-42.8	-81.0	277	11
2023-09-23T18:00	32926	8	-42.9	-81.1	278	11
2023-09-23T18:00	32956	8	-42.9	-81.1	278	12
2023-09-23T18:00	32997	8	-43.0	-81.1	279	12
2023-09-23T18:00	33031	8	-43.0	-81.1	281	12
2023-09-23T18:00	33092	7	-43.0	-81.1	283	12
2023-09-23T18:00	33104	7	-43.1	-81.2	284	12
2023-09-23T18:00	33142	7	-43.2	-81.3	285	12
2023-09-23T18:00	33178	7	-43.2	-81.3	285	12
2023-09-23T18:00	33186	7	-43.1	-81.2	284	11
2023-09-23T18:00	33226	7	-42.7	-80.9	282	11
2023-09-23T18:00	33267	7	-42.7	-80.9	280	11
2023-09-23T18:00	33294	7	-42.9	-81.1	277	11
2023-09-23T18:00	33338	7	-43.0	-81.1	275	11
2023-09-23T18:00	33372	7	-43.0	-81.1	273	11
2023-09-23T18:00	33390	7	-43.1	-81.2	271	11
2023-09-23T18:00	33416	7	-43.2	-81.3	270	10
2023-09-23T18:00	33463	7	-43.3	-81.3	269	10
2023-09-23T18:00	33502	7	-43.3	-81.3	268	10
2023-09-23T18:00	33508	7	-43.5	-81.5	266	10
2023-09-23T18:00	33550	7	-43.6	-81.5	264	10
2023-09-23T18:00	33576	7	-43.8	-81.7	261	10
2023-09-23T18:00	33615	7	-43.9	-81.8	259	10
2023-09-23T18:00	33653	7	-43.9	-81.8	257	11
2023-09-23T18:00	33662	7	-43.8	-81.7	257	12
2023-09-23T18:00	33685	7	-43.9	-81.8	258	13
2023-09-23T18:00	33717	7	-43.5	-81.5	260	14
2023-09-23T18:00	33750	7	-42.7	-80.9	262	15
2023-09-23T18:00	33811	7	-42.5	-80.8	265	16
2023-09-23T18:00	33874	7	-42.0	-80.4	270	18
2023-09-23T18:00	33884	7	-41.9	-80.4	273	20
2023-09-23T18:00	33918	7	-41.8	-80.3	274	21
2023-09-23T18:00	33939	7	-41.9	-80.4	274	22
2023-09-23T18:00	33970	7	-41.8	-80.3	275	22
2023-09-23T18:00	33993	7	-41.6	-80.1	275	23
2023-09-23T18:00	34023	6	-41.3	-79.9	275	23
2023-09-23T18:00	34038	6	-41.2	-79.9	274	23
2023-09-23T18:00	34083	6	-41.2	-79.9	274	23
2023-09-23T18:00	34096	6	-41.1	-79.8	274	23
2023-09-23T18:00	34124	6	-41.0	-79.7	274	22
2023-09-23T18:00	34174	6	-41.0	-79.7	275	22
2023-09-23T18:00	34195	6	-41.0	-79.7	277	22
2023-09-23T18:00	34206	6	-41.1	-79.8	279	22
2023-09-23T18:00	34214	6	-41.0	-79.7	282	22
2023-09-23T18:00	34227	6	-40.8	-79.6	285	21
2023-09-23T18:00	34271	6	-40.6	-79.5	287	21
2023-09-23T18:00	34297	6	-40.2	-79.2	289	21
2023-09-23T18:00	34320	6	-40.0	-79.0	291	21
2023-09-23T18:00	34362	6	-39.9	-79.0	293	20
2023-09-23T18:00	34367	6	-39.9	-79.0	294	20
2023-09-23T18:00	34390	6	-40.1	-79.1	295	20
2023-09-23T18:00	34421	6	-40.3	-79.2	297	19
2023-09-23T18:00	34453	6	-40.4	-79.3	298	19
2023-09-23T18:00	34488	6	-40.6	-79.5	299	19
2023-09-23T18:00	34509	6	-40.7	-79.5	301	19
2023-09-23T18:00	34520	6	-40.8	-79.6	303	19
2023-09-23T18:00	34568	6	-40.9	-79.7	304	19
2023-09-23T18:00	34600	6	-41.0	-79.7	304	19
2023-09-23T18:00	34627	6	-40.8	-79.6	303	19
2023-09-23T18:00	34658	6	-40.8	-79.6	302	19
2023-09-23T18:00	34693	6	-40.6	-79.5	300	18
2023-09-23T18:00	34710	6	-40.9	-79.7	296	18
2023-09-23T18:00	34749	6	-41.0	-79.7	294	18
2023-09-23T18:00	34777	6	-41.4	-80.0	292	18
2023-09-23T18:00	34824	6	-41.7	-80.2	292	18
2023-09-23T18:00	34853	6	-42.0	-80.4	292	19
2023-09-23T18:00	34891	6	-42.1	-80.5	293	19
2023-09-23T18:00	34925	6	-42.2	-80.6	293	20
2023-09-23T18:00	34930	6	-42.3	-80.6	293	20
2023-09-23T18:00	34986	6	-42.3	-80.6	292	20
2023-09-23T18:00	35010	6	-42.4	-80.7	291	20
2023-09-23T18:00	35048	6	-42.5	-80.8	291	20
2023-09-23T18:00	35089	6	-41.7	-80.2	289	19
2023-09-23T18:00	35111	6	-41.6	-80.1	289	18
2023-09-23T18:00	35152	6	-41.6	-80.1	289	18
2023-09-23T18:00	35165	6	-41.5	-80.1	288	16
2023-09-23T18:00	35211	5	-41.1	-79.8	288	16
2023-09-23T18:00	35231	5	-40.9	-79.7	288	15
2023-09-23T18:00	35264	5	-40.8	-79.6	288	15
2023-09-23T18:00	35283	5	-40.7	-79.5	289	14
2023-09-23T18:00	35309	5	-40.4	-79.3	290	13
2023-09-23T18:00	35354	5	-39.8	-78.9	290	13
2023-09-24T00:00	112	1007	10.4	8.3	240	3
2023-09-24T00:00	133	1005	11.6	8.6	257	4
2023-09-24T00:00	155	1002	12.4	8.1	258	5
2023-09-24T00:00	178	999	12.8	8.0	262	6
2023-09-24T00:00	209	996	13.6	7.9	267	8
2023-09-24T00:00	232	993	14.0	8.0	272	9
2023-09-24T00:00	259	990	14.1	8.0	277	9
2023-09-24T00:00	285	987	14.1	7.9	281	10
2023-09-24T00:00	309	984	14.1	7.9	285	10
2023-09-24T00:00	345	980	13.9	7.9	288	10
2023-09-24T00:00	367	978	13.7	7.8	289	11
2023-09-24T00:00	384	976	13.5	7.8	288	11
2023-09-24T00:00	400	974	13.4	7.8	287	12
2023-09-24T00:00	420	971	13.2	7.7	285	12
2023-09-24T00:00	442	969	13.0	7.7	284	12
2023-09-24T00:00	468	966	12.8	7.7	283	12
2023-09-24T00:00	492	963	12.6	7.6	284	11
2023-09-24T00:00	510	961	12.4	7.6	286	11
2023-09-24T00:00	532	958	12.2	7.5	287	11
2023-09-24T00:00	555	956	12.0	7.4	288	12
2023-09-24T00:00	579	953	11.8	7.4	289	12
2023-09-24T00:00	603	950	11.6	7.3	289	12
2023-09-24T00:00	626	948	11.3	7.2	289	12
2023-09-24T00:00	651	945	11.1	7.2	288	12
2023-09-24T00:00	674	942	10.9	7.0	288	12
2023-09-24T00:00	696	940	10.7	7.1	287	12
2023-09-24T00:00	719	937	10.5	7.0	285	12
2023-09-24T00:00	742	935	10.3	6.9	284	13
2023-09-24T00:00	760	933	10.1	6.8	283	13
2023-09-24T00:00	782	930	10.0	6.6	282	13
2023-09-24T00:00	807	927	9.8	6.4	282	13
2023-09-24T00:00	831	925	9.6	6.3	282	13
2023-09-24T00:00	856	922	9.4	6.3	282	12
2023-09-24T00:00	882	919	9.2	6.3	282	12
2023-09-24T00:00	902	917	9.0	6.2	282	12
2023-09-24T00:00	928	914	8.8	6.1	282	13
2023-09-24T00:00	952	911	8.6	6.1	282	13
2023-09-24T00:00	975	909	8.3	6.0	282	13
2023-09-24T00:00	998	906	8.2	5.9	282	13
2023-09-24T00:00	1021	904	8.0	5.8	282	12
2023-09-24T00:00	1045	901	7.8	5.8	282	12
2023-09-24T00:00	1067	899	7.6	5.3	283	12
2023-09-24T00:00	1087	897	7.5	5.3	283	12
2023-09-24T00:00	1108	894	7.3	5.2	282	12
2023-09-24T00:00	1129	892	7.1	5.0	281	12
2023-09-24T00:00	1146	890	6.9	5.1	280	12
2023-09-24T00:00	1164	888	6.7	5.0	278	12
2023-09-24T00:00	1187	886	6.6	4.8	277	12
2023-09-24T00:00	1207	884	6.5	4.0	276	12
2023-09-24T00:00	1225	881	6.5	3.7	275	12
2023-09-24T00:00	1251	879	6.4	3.5	274	12
2023-09-24T00:00	1269	877	6.2	3.5	273	11
2023-09-24T00:00	1290	875	6.0	3.3	272	11
2023-09-24T00:00	1312	872	5.9	3.1	271	10
2023-09-24T00:00	1329	870	5.8		270	9
2023-09-24T00:00	1346	869	5.6	3.2	270	9
2023-09-24T00:00	1367	866	5.4	3.2	270	9
2023-09-24T00:00	1391	864	5.3	3.6	272	9
2023-09-24T00:00	1416	861	5.2	3.2	276	9
2023-09-24T00:00	1441	859	5.1	2.5	281	9
2023-09-24T00:00	1463	857	4.9	2.6	286	9
2023-09-24T00:00	1479	855	4.8	2.5	290	9
2023-09-24T00:00	1498	853	4.7	2.2	291	10
2023-09-24T00:00	1514	851	4.5	2.1	290	10
2023-09-24T00:00	1533	849	4.4	2.2	288	10
2023-09-24T00:00	1554	847	4.2	2.2	284	9
2023-09-24T00:00	1575	845	4.0	1.9	281	9
2023-09-24T00:00	1598	842	4.0	1.8	279	9
2023-09-24T00:00	1625	839	3.7	1.5	277	9
2023-09-24T00:00	1651	837	3.5	1.3	275	9
2023-09-24T00:00	1673	835	3.4	1.2	273	9
2023-09-24T00:00	1694	833	3.2		272	9
2023-09-24T00:00	1714	830	3.1	1.1	271	9
2023-09-24T00:00	1739	828	2.9	0.9	271	9
2023-09-24T00:00	1759	826	2.7	0.7	270	9
2023-09-24T00:00	1780	824	2.6	0.4	270	9
2023-09-24T00:00	1801	822	2.6	-0.3	268	9
2023-09-24T00:00	1821	819	2.6	-0.7	267	9
2023-09-24T00:00	1850	817	2.7	-1.6	266	10
2023-09-24T00:00	1873	814	2.5	-1.8	266	10
2023-09-24T00:00	1900	812	2.3	-2.0	266	10
2023-09-24T00:00	1921	809	2.2	-2.3	265	10
2023-09-24T00:00	1944	807	1.9	-2.5	264	10
2023-09-24T00:00	1967	805	1.7	-2.5	262	10
2023-09-24T00:00	1988	803	1.5	-2.5	262	10
2023-09-24T00:00	2013	800	1.3	-2.6	263	10
2023-09-24T00:00	2040	798	1.1	-2.6	265	9
2023-09-24T00:00	2067	795	0.8	-2.7	267	9
2023-09-24T00:00	2097	792	0.5	-2.8	268	9
2023-09-24T00:00	2127	789	0.2	-2.9	268	9
2023-09-24T00:00	2149	787	0.0	-2.9	267	9
2023-09-24T00:00	2172	784	-0.2	-2.9	265	8
2023-09-24T00:00	2200	782	-0.5	-3.2	263	9
2023-09-24T00:00	2226	779	-0.7	-3.2	260	9
2023-09-24T00:00	2249	777	-0.9	-3.2	258	9
2023-09-24T00:00	2268	775	-1.1	-3.3	256	9
2023-09-24T00:00	2294	773	-1.3		255	9
2023-09-24T00:00	2322	770	-1.6	-3.6	255	8
2023-09-24T00:00	2346	768	-1.8	-3.5	255	8
2023-09-24T00:00	2371	765	-2.0	-3.6	253	8
2023-09-24T00:00	2397	763	-2.2	-3.7	249	8
2023-09-24T00:00	2425	760	-2.4	-3.8	245	8
2023-09-24T00:00	2451	758	-2.5	-4.0	242	8
2023-09-24T00:00	2470	756	-2.7	-4.2	241	9
2023-09-24T00:00	2492	754	-2.8	-4.2	244	9
2023-09-24T00:00	2520	751	-2.9	-4.1	248	9
2023-09-24T00:00	2554	748	-3.0	-4.7	253	10
2023-09-24T00:00	2586	745	-2.2	-8.1	257	10
2023-09-24T00:00	2614	742	-1.0		258	10
2023-09-24T00:00	2641	740	-1.0	-8.3	258	10
2023-09-24T00:00	2659	738	-1.0	-8.4	257	10
2023-09-24T00:00	2683	736	-0.9	-9.1	256	9
2023-09-24T00:00	2711	733	-1.0	-9.0	257	9
2023-09-24T00:00	2745	730	-1.2	-9.5	261	9
2023-09-24T00:00	2769	728	-1.2	-9.8	264	9
2023-09-24T00:00	2791	726	-1.2	-10.1	267	9
2023-09-24T00:00	2819	723	-1.2	-12.8	269	9
2023-09-24T00:00	2845	721	-1.0	-19.2	269	8
2023-09-24T00:00	2869	719	-1.0	-21.8	268	8
2023-09-24T00:00	2892	717	-1.1	-22.5	267	8
2023-09-24T00:00	2911	715	-1.1	-23.2	265	7
2023-09-24T00:00	2938	713	-1.3	-23.0	262	7
2023-09-24T00:00	2962	710	-1.5	-19.0	258	8
2023-09-24T00:00	2986	708	-1.6	-19.6	256	8
2023-09-24T00:00	3018	705	-1.8	-17.5	254	9
2023-09-24T00:00	3056	702	-2.1	-17.3	254	9
2023-09-24T00:00	3086	700	-2.2	-20.2	255	8
2023-09-24T00:00	3111	697	-2.4	-26.1	256	8
2023-09-24T00:00	3133	695	-2.4	-27.4	257	8
2023-09-24T00:00	3151	694	-2.5	-26.7	255	7
2023-09-24T00:00	3176	692	-2.6	-24.5	250	7
2023-09-24T00:00	3204	689	-2.8	-27.3	244	7
2023-09-24T00:00	3228	687	-2.9	-26.8	240	7
2023-09-24T00:00	3254	685	-3.0	-27.7	237	8
2023-09-24T00:00	3274	683	-3.0	-28.6	237	8
2023-09-24T00:00	3309	680	-3.2	-31.0	238	8
2023-09-24T00:00	3335	678	-3.3	-32.2	239	8
2023-09-24T00:00	3361	676	-3.4	-32.3	239	8
2023-09-24T00:00	3384	674	-3.6	-32.2	239	8
2023-09-24T00:00	3409	672	-3.8	-32.3	239	8
2023-09-24T00:00	3433	669	-3.9	-32.3	241	8
2023-09-24T00:00	3463	667	-4.2	-32.0	244	8
2023-09-24T00:00	3486	665	-4.3	-32.2	245	8
2023-09-24T00:00	3512	663	-4.5	-33.5	245	8
2023-09-24T00:00	3544	660	-4.5	-34.5	243	9
2023-09-24T00:00	3563	658	-4.5	-35.8	241	9
2023-09-24T00:00	3586	656	-4.7	-35.0	239	9
2023-09-24T00:00	3613	654	-4.8	-30.2	238	9
2023-09-24T00:00	3638	652	-4.8	-30.8	237	8
2023-09-24T00:00	3662	650	-4.9	-30.9	237	8
2023-09-24T00:00	3685	648	-5.1	-29.6	237	8
2023-09-24T00:00	3706	646	-5.2	-29.9	238	8
2023-09-24T00:00	3737	644	-5.5	-29.0	239	8
2023-09-24T00:00	3766	642	-5.7	-26.9	240	8
2023-09-24T00:00	3786	640	-5.8	-24.1	240	8
2023-09-24T00:00	3803	638	-5.9	-23.5	238	8
2023-09-24T00:00	3825	637	-6.1	-22.6	235	8
2023-09-24T00:00	3851	635	-6.3	-22.4	233	8
2023-09-24T00:00	3875	633	-6.5	-22.5	231	8
2023-09-24T00:00	3909	630	-6.8	-22.5	230	8
2023-09-24T00:00	3934	628	-7.0	-22.2	231	9
2023-09-24T00:00	3957	626	-7.3	-22.3	232	9
2023-09-24T00:00	3975	625	-7.4	-22.3	233	9
2023-09-24T00:00	3998	623	-7.6	-22.2	235	10
2023-09-24T00:00	4032	620	-7.8	-23.0	237	10
2023-09-24T00:00	4049	619	-8.0	-23.2	239	10
2023-09-24T00:00	4075	617	-8.2	-23.2	241	10
2023-09-24T00:00	4095	615	-8.4	-23.8	242	11
2023-09-24T00:00	4116	613	-8.5	-26.0	242	11
2023-09-24T00:00	4138	612	-8.7	-26.8	243	11
2023-09-24T00:00	4165	610	-8.9	-27.7	244	10
2023-09-24T00:00	4196	607	-9.1	-27.0	246	10
2023-09-24T00:00	4220	605	-9.4	-25.7	249	10
2023-09-24T00:00	4236	604	-9.6	-25.5	252	10
2023-09-24T00:00	4255	603	-9.7	-25.2	253	9
2023-09-24T00:00	4276	601	-9.8	-25.2	254	8
2023-09-24T00:00	4297	599	-9.9	-25.3	252	8
2023-09-24T00:00	4321	597	-10.1	-25.5	250	7
2023-09-24T00:00	4345	596	-10.2	-25.6	247	7
2023-09-24T00:00	4371	594	-10.4	-25.8	244	7
2023-09-24T00:00	4396	592	-10.7	-26.0	241	7
2023-09-24T00:00	4420	590	-10.8	-26.1	239	8
2023-09-24T00:00	4448	588	-11.0	-26.4	237	8
2023-09-24T00:00	4467	586	-11.2	-26.5	237	9
2023-09-24T00:00	4495	584	-11.4	-26.6	239	10
2023-09-24T00:00	4512	583	-11.6	-26.7	241	10
2023-09-24T00:00	4538	581	-11.8	-26.8	244	11
2023-09-24T00:00	4571	578	-12.1	-27.0	246	11
2023-09-24T00:00	4595	577	-12.3	-27.1	248	11
2023-09-24T00:00	4611	575	-12.4	-27.2	249	11
2023-09-24T00:00	4632	574	-12.6	-27.5	250	11
2023-09-24T00:00	4658	572	-12.8	-27.6	250	11
2023-09-24T00:00	4684	570	-13.0	-28.1	249	12
2023-09-24T00:00	4710	568	-13.2	-28.2	248	12
2023-09-24T00:00	4733	566	-13.4	-28.4	247	12
2023-09-24T00:00	4757	564	-13.5	-28.5	247	12
2023-09-24T00:00	4782	563	-13.7	-28.6	248	12
2023-09-24T00:00	4799	561	-13.9	-28.7	250	12
2023-09-24T00:00	4822	560	-14.1	-28.8	252	12
2023-09-24T00:00	4845	558	-14.3	-28.9	254	12
2023-09-24T00:00	4863	556	-14.4	-28.9	255	12
2023-09-24T00:00	4890	554	-14.6	-29.0	255	11
2023-09-24T00:00	4917	553	-14.9	-29.1	255	11
2023-09-24T00:00	4937	551	-15.1	-29.2	255	11
2023-09-24T00:00	4961	549	-15.3	-29.2	256	11
2023-09-24T00:00	4987	547	-15.5	-29.4	257	10
2023-09-24T00:00	5017	545	-15.6	-30.6	258	10
2023-09-24T00:00	5044	543	-15.7	-31.3	259	9
2023-09-24T00:00	5077	541	-15.6	-33.3	258	9
2023-09-24T00:00	5108	539	-15.7	-33.6	255	9
2023-09-24T00:00	5124	538	-15.8	-34.3	251	10
2023-09-24T00:00	5145	536	-15.8	-35.2	248	11
2023-09-24T00:00	5170	534	-15.9	-36.3	245	11
2023-09-24T00:00	5205	532	-16.1	-37.6	243	11
2023-09-24T00:00	5235	530	-16.1	-37.9	242	11
2023-09-24T00:00	5256	528	-16.3	-38.2	242	11
2023-09-24T00:00	5275	527	-16.4	-38.2	241	11
2023-09-24T00:00	5296	526	-16.5	-38.3	241	11
2023-09-24T00:00	5315	524	-16.7	-38.5	241	12
2023-09-24T00:00	5347	522	-16.9	-38.6	240	12
2023-09-24T00:00	5375	520	-17.0	-39.2	240	13
2023-09-24T00:00	5399	518	-17.2	-39.6	239	13
2023-09-24T00:00	5421	517	-17.3	-40.0	240	13
2023-09-24T00:00	5447	515	-17.5	-39.7	241	13
2023-09-24T00:00	5473	513	-17.7	-39.4	242	12
2023-09-24T00:00	5490	512	-17.8	-41.6	241	12
2023-09-24T00:00	5510	511	-17.9	-41.6	240	12
2023-09-24T00:00	5534	509	-18.1	-41.3	238	12
2023-09-24T00:00	5560	507	-18.3	-40.9	236	11
2023-09-24T00:00	5591	505	-18.5	-40.6	235	11
2023-09-24T00:00	5612	504	-18.7	-40.7	234	11
2023-09-24T00:00	5634	502	-18.9	-40.7	233	11
2023-09-24T00:00	5667	500	-19.3	-40.7	233	11
2023-09-24T00:00	5688	499	-19.4	-40.7	233	11
2023-09-24T00:00	5710	497	-19.6	-40.7	233	12
2023-09-24T00:00	5733	495	-19.8	-40.9	234	12
2023-09-24T00:00	5766	493	-20.1	-41.2	235	13
2023-09-24T00:00	5790	492	-20.3	-41.5	236	13
2023-09-24T00:00	5818	490	-20.5	-41.6	236	13
2023-09-24T00:00	5841	488	-20.7	-41.4	236	13
2023-09-24T00:00	5861	487	-20.9	-40.1	236	12
2023-09-24T00:00	5876	486	-21.0	-40.5	237	12
2023-09-24T00:00	5895	485	-21.0	-40.3	238	12
2023-09-24T00:00	5912	484	-21.2	-41.0	239	12
2023-09-24T00:00	5930	483	-21.3	-41.4	240	12
2023-09-24T00:00	5947	481	-21.4	-42.0	240	11
2023-09-24T00:00	5963	480	-21.6	-42.1	240	11
2023-09-24T00:00	5981	479	-21.7	-43.4	240	11
2023-09-24T00:00	5998	478	-21.9	-43.9	239	11
2023-09-24T00:00	6018	477	-22.0	-44.1	238	11
2023-09-24T00:00	6047	475	-22.2	-43.3	235	12
2023-09-24T00:00	6073	473	-22.4	-42.4	233	12
2023-09-24T00:00	6093	472	-22.6	-41.6	231	12
2023-09-24T00:00	6110	471	-22.7	-41.1	230	13
2023-09-24T00:00	6131	470	-22.9	-41.1	229	13
2023-09-24T00:00	6149	468	-23.1	-39.8	228	13
2023-09-24T00:00	6178	466	-23.3	-39.2	227	13
2023-09-24T00:00	6207	465	-23.6	-39.9	226	13
2023-09-24T00:00	6235	463	-23.9		226	14
2023-09-24T00:00	6265	461	-24.2	-39.4	227	14
2023-09-24T00:00	6285	460	-24.4	-39.2	228	13
2023-09-24T00:00	6304	459	-24.6	-39.2	230	13
2023-09-24T00:00	6325	457	-24.8	-38.9	231	13
2023-09-24T00:00	6360	455	-25.1	-39.1	233	12
2023-09-24T00:00	6380	454	-25.3	-39.2	233	12
2023-09-24T00:00	6400	452	-25.5	-39.3	234	12
2023-09-24T00:00	6428	451	-25.8	-39.4	234	12
2023-09-24T00:00	6458	449	-26.0	-39.7	234	12
2023-09-24T00:00	6483	447	-26.3	-40.2	235	11
2023-09-24T00:00	6501	446	-26.4	-41.3	236	11
2023-09-24T00:00	6527	445	-26.5	-41.9	236	11
2023-09-24T00:00	6558	443	-26.8	-42.8	237	11
2023-09-24T00:00	6583	441	-27.0	-43.4	236	11
2023-09-24T00:00	6618	439	-27.2	-43.7	236	11
2023-09-24T00:00	6650	437	-27.5	-43.3	235	11
2023-09-24T00:00	6671	436	-27.7	-43.0	235	12
2023-09-24T00:00	6689	435	-27.9	-42.9	234	12
2023-09-24T00:00	6706	434	-28.0	-42.8	234	12
2023-09-24T00:00	6726	432	-28.2	-43.0	234	12
2023-09-24T00:00	6747	431	-28.4	-43.0	234	12
2023-09-24T00:00	6767	430	-28.6	-43.2	233	12
2023-09-24T00:00	6789	429	-28.8	-43.2	233	12
2023-09-24T00:00	6820	427	-29.1	-43.2	232	12
2023-09-24T00:00	6846	425	-29.3	-43.2	231	11
2023-09-24T00:00	6867	424	-29.6	-43.3	231	11
2023-09-24T00:00	6891	423	-29.8	-43.3	231	11
2023-09-24T00:00	6914	421	-30.0	-43.2	231	12
2023-09-24T00:00	6940	420	-30.2	-43.2	231	12
2023-09-24T00:00	6962	418	-30.5	-43.4	231	12
2023-09-24T00:00	6984	417	-30.7	-43.4	232	12
2023-09-24T00:00	7008	416	-30.9	-43.4	233	13
2023-09-24T00:00	7035	414	-31.1	-43.5	234	13
2023-09-24T00:00	7067	412	-31.4	-43.7	234	14
2023-09-24T00:00	7093	411	-31.6	-43.9	234	14
2023-09-24T00:00	7112	410	-31.8	-43.9	234	14
2023-09-24T00:00	7131	409	-31.9	-43.8	233	14
2023-09-24T00:00	7158	407	-32.2	-44.0	233	14
2023-09-24T00:00	7186	405	-32.4	-44.4	234	14
2023-09-24T00:00	7217	404	-32.7	-44.4	235	14
2023-09-24T00:00	7247	402	-33.0	-44.4	236	14
2023-09-24T00:00	7279	400	-33.3	-44.7	237	14
2023-09-24T00:00	7308	398	-33.5	-45.6	237	14
2023-09-24T00:00	7338	397	-33.7	-45.8	238	14
2023-09-24T00:00	7368	395	-33.9	-46.4	238	14
2023-09-24T00:00	7400	393	-34.1		238	14
2023-09-24T00:00	7428	392	-34.3	-47.6	238	14
2023-09-24T00:00	7459	390	-34.5	-48.2	236	13
2023-09-24T00:00	7488	388	-34.7	-48.6	234	13
2023-09-24T00:00	7518	387	-34.9	-49.3	231	13
2023-09-24T00:00	7548	385	-35.1	-50.0	228	13
2023-09-24T00:00	7580	383	-35.3	-50.3	227	13
2023-09-24T00:00	7609	382	-35.6	-51.1	227	13
2023-09-24T00:00	7630	381	-35.8	-52.4	227	13
2023-09-24T00:00	7649	379	-35.9	-52.4	227	13
2023-09-24T00:00	7668	378	-36.1	-53.6	226	13
2023-09-24T00:00	7689	377	-36.3	-54.1	226	13
2023-09-24T00:00	7708	376	-36.4	-54.5	225	13
2023-09-24T00:00	7728	375	-36.6	-54.6	225	13
2023-09-24T00:00	7750	374	-36.7	-53.5	225	13
2023-09-24T00:00	7773	373	-36.9	-53.8	226	14
2023-09-24T00:00	7799	371	-37.0	-54.8	227	14
2023-09-24T00:00	7827	370	-37.1	-56.7	227	14
2023-09-24T00:00	7853	368	-37.2	-57.3	227	14
2023-09-24T00:00	7880	367	-37.4	-57.7	227	14
2023-09-24T00:00	7904	366	-37.5	-57.9	225	14
2023-09-24T00:00	7933	364	-37.5	-58.4	222	14
2023-09-24T00:00	7966	363	-37.6	-58.6	219	15
2023-09-24T00:00	7991	361	-37.4	-58.6	216	15
2023-09-24T00:00	8010	360	-37.4	-58.8	215	16
2023-09-24T00:00	8033	359	-37.4	-58.8	214	16
2023-09-24T00:00	8062	357	-37.6	-58.8	213	16
2023-09-24T00:00	8090	356	-37.9	-58.9	212	16
2023-09-24T00:00	8127	354	-38.1	-59.0	211	17
2023-09-24T00:00	8155	353	-38.4	-59.1	211	17
2023-09-24T00:00	8172	352	-38.5	-59.1	212	17
2023-09-24T00:00	8195	351	-38.7	-59.2	213	18
2023-09-24T00:00	8219	349	-38.8	-59.0	214	18
2023-09-24T00:00	8246	348	-39.0	-59.2	214	19
2023-09-24T00:00	8276	347	-39.2	-59.4	214	19
2023-09-24T00:00	8304	345	-39.5	-59.3	214	19
2023-09-24T00:00	8324	344	-39.7	-59.4	214	20
2023-09-24T00:00	8345	343	-39.8	-59.3	214	20
2023-09-24T00:00	8372	342	-40.1	-59.4	213	21
2023-09-24T00:00	8388	341	-40.2	-59.6	212	22
2023-09-24T00:00	8419	339	-40.1	-59.6	209	23
2023-09-24T00:00	8447	338	-40.3	-59.3	207	24
2023-09-24T00:00	8466	337	-40.3	-59.0	206	25
2023-09-24T00:00	8499	335	-40.4	-58.6	206	25
2023-09-24T00:00	8529	334	-40.6	-57.6	206	26
2023-09-24T00:00	8547	333	-40.6	-57.0	207	27
2023-09-24T00:00	8568	332	-40.6	-57.4	208	27
2023-09-24T00:00	8586	331	-40.7	-57.7	209	27
2023-09-24T00:00	8606	330	-40.9	-58.1	210	27
2023-09-24T00:00	8626	329	-41.0	-58.3	210	27
2023-09-24T00:00	8649	328	-41.1	-59.1	210	27
2023-09-24T00:00	8672	327	-41.2	-59.8	210	26
2023-09-24T00:00	8697	326	-41.4	-59.6	210	26
2023-09-24T00:00	8722	325	-41.6	-59.2	210	26
2023-09-24T00:00	8746	323	-41.8	-59.2	209	26
2023-09-24T00:00	8771	322	-42.0	-59.2	209	27
2023-09-24T00:00	8793	321	-42.2	-59.2	208	27
2023-09-24T00:00	8816	320	-42.2	-58.6	207	28
2023-09-24T00:00	8838	319	-42.2	-57.7	207	28
2023-09-24T00:00	8861	318	-42.2	-57.3	207	28
2023-09-24T00:00	8883	317	-42.0	-58.2	207	28
2023-09-24T00:00	8904	316	-41.8	-58.8	207	27
2023-09-24T00:00	8924	315	-41.9	-58.8	208	27
2023-09-24T00:00	8944	314	-42.1	-59.0	208	27
2023-09-24T00:00	8967	313	-42.2	-59.1	209	26
2023-09-24T00:00	8992	312	-42.3	-59.2	209	26
2023-09-24T00:00	9018	311	-42.5	-59.4	208	26
2023-09-24T00:00	9041	310	-42.7	-59.4	207	26
2023-09-24T00:00	9061	309	-42.8	-59.3	205	26
2023-09-24T00:00	9089	307	-42.9	-59.8	204	27
2023-09-24T00:00	9118	306	-42.8	-60.3	203	27
2023-09-24T00:00	9145	305	-42.9	-60.1	202	28
2023-09-24T00:00	9178	303	-43.1	-60.7	201	28
2023-09-24T00:00	9208	302	-43.3	-61.0	201	29
2023-09-24T00:00	9242	300	-43.6	-61.0	201	30
2023-09-24T00:00	9275	299	-43.9	-61.5	202	31
2023-09-24T00:00	9294	298	-44.0	-62.2	202	31
2023-09-24T00:00	9316	297	-44.0	-62.6	203	32
2023-09-24T00:00	9343	296	-44.1	-62.3	203	33
2023-09-24T00:00	9367	295	-44.2	-61.7	203	33
2023-09-24T00:00	9397	294	-44.4	-61.2	203	34
2023-09-24T00:00	9428	292	-44.6	-60.8	203	34
2023-09-24T00:00	9461	291	-44.9	-61.6	203	34
2023-09-24T00:00	9489	290	-45.0	-62.5	203	34
2023-09-24T00:00	9513	289	-45.2	-62.9	203	35
2023-09-24T00:00	9536	288	-45.4	-62.6	204	35
2023-09-24T00:00	9559	287	-45.6	-62.2	204	35
2023-09-24T00:00	9581	286	-45.7	-61.8	204	35
2023-09-24T00:00	9602	285	-45.9	-61.8	204	35
2023-09-24T00:00	9624	284	-46.1	-62.0	205	35
2023-09-24T00:00	9644	283	-46.3	-61.9	205	35
2023-09-24T00:00	9665	282	-46.5	-61.3	205	36
2023-09-24T00:00	9682	281	-46.5	-60.8	206	36
2023-09-24T00:00	9701	281	-46.6	-61.3	206	36
2023-09-24T00:00	9721	280	-46.6	-61.6	207	36
2023-09-24T00:00	9741	279	-46.7	-62.0	207	36
2023-09-24T00:00	9759	278	-46.7	-62.5	208	36
2023-09-24T00:00	9778	277	-46.8	-63.3	208	36
2023-09-24T00:00	9798	276	-46.8	-63.3	208	37
2023-09-24T00:00	9820	276	-46.9	-63.2	209	37
2023-09-24T00:00	9841	275	-47.0	-63.1	209	37
2023-09-24T00:00	9861	274	-47.2	-63.2	210	37
2023-09-24T00:00	9880	273	-47.2	-63.2	210	37
2023-09-24T00:00	9901	272	-47.3	-63.4	210	37
2023-09-24T00:00	9925	271	-47.3	-63.6	210	36
2023-09-24T00:00	9949	270	-47.0	-63.9	210	35
2023-09-24T00:00	9979	269	-47.0	-65.3	210	35
2023-09-24T00:00	10007	268	-47.1	-66.3	211	34
2023-09-24T00:00	10031	267	-47.3	-67.0	212	33
2023-09-24T00:00	10051	266	-47.4	-67.6	212	32
2023-09-24T00:00	10072	265	-47.5	-68.1	213	31
2023-09-24T00:00	10090	264	-47.5	-68.5	213	31
2023-09-24T00:00	10111	264	-47.6	-68.7	214	30
2023-09-24T00:00	10133	263	-47.7	-68.8	214	30
2023-09-24T00:00	10153	262	-47.8	-69.1	214	29
2023-09-24T00:00	10174	261	-47.7	-69.3	215	29
2023-09-24T00:00	10194	260	-47.4	-69.3	215	29
2023-09-24T00:00	10217	259	-47.4	-69.3	215	28
2023-09-24T00:00	10238	259	-47.5	-69.1	215	28
2023-09-24T00:00	10257	258	-47.7	-69.1	215	28
2023-09-24T00:00	10279	257	-47.8	-69.2	215	27
2023-09-24T00:00	10297	256	-47.9	-69.4	214	27
2023-09-24T00:00	10316	256	-47.9	-69.8	214	27
2023-09-24T00:00	10336	255	-47.9	-70.1	214	26
2023-09-24T00:00	10356	254	-47.9	-70.5	214	26
2023-09-24T00:00	10377	253	-47.9	-70.9	215	25
2023-09-24T00:00	10396	253	-47.9	-71.2	215	25
2023-09-24T00:00	10416	252	-48.0	-71.6	215	25
2023-09-24T00:00	10438	251	-48.1	-71.7	215	24
2023-09-24T00:00	10456	250	-48.2	-71.9	215	24
2023-09-24T00:00	10476	249	-48.3	-72.5	215	23
2023-09-24T00:00	10496	249	-48.3	-73.1	215	22
2023-09-24T00:00	10517	248	-48.4	-73.3	215	22
2023-09-24T00:00	10537	247	-48.2	-73.2	215	21
2023-09-24T00:00	10555	246	-48.0	-72.6	215	21
2023-09-24T00:00	10576	246	-48.0	-72.3	215	21
2023-09-24T00:00	10594	245	-48.0	-72.3	215	20
2023-09-24T00:00	10613	244	-48.0	-72.1	214	20
2023-09-24T00:00	10630	244	-47.7	-71.7	213	19
2023-09-24T00:00	10652	243	-47.5	-71.7	212	19
2023-09-24T00:00	10671	242	-47.5	-71.9	211	19
2023-09-24T00:00	10690	242	-47.6	-72.0	210	19
2023-09-24T00:00	10709	241	-47.6	-71.8	210	19
2023-09-24T00:00	10728	240	-47.7	-72.0	210	18
2023-09-24T00:00	10746	239	-47.8	-72.1	211	18
2023-09-24T00:00	10767	239	-47.9	-72.4	212	18
2023-09-24T00:00	10784	238	-47.9	-72.6	213	18
2023-09-24T00:00	10805	237	-47.6	-72.7	214	18
2023-09-24T00:00	10824	237	-47.6	-72.9	215	17
2023-09-24T00:00	10843	236	-47.8	-73.1	216	17
2023-09-24T00:00	10861	235	-47.9	-73.3	216	17
2023-09-24T00:00	10878	235	-47.9	-73.6	216	17
2023-09-24T00:00	10898	234	-48.0	-73.9	216	17
2023-09-24T00:00	10917	233	-47.9	-74.2	215	17
2023-09-24T00:00	10935	233	-47.7	-74.3	214	17
2023-09-24T00:00	10953	232	-47.6	-74.0	214	17
2023-09-24T00:00	10971	231	-47.7	-74.1	213	17
2023-09-24T00:00	10990	231	-47.7	-74.1	213	16
2023-09-24T00:00	11010	230	-47.6	-74.0	213	16
2023-09-24T00:00	11032	229	-47.5	-73.7	213	16
2023-09-24T00:00	11051	229	-47.6	-73.3	213	15
2023-09-24T00:00	11069	228	-47.8	-73.3	214	15
2023-09-24T00:00	11090	227	-47.9	-72.9	215	15
2023-09-24T00:00	11111	227	-47.9	-72.7	217	14
2023-09-24T00:00	11135	226	-47.7	-72.2	218	14
2023-09-24T00:00	11157	225	-47.8	-72.1	220	14
2023-09-24T00:00	11176	224	-47.9	-72.2	221	14
2023-09-24T00:00	11198	224	-48.0	-72.5	223	14
2023-09-24T00:00	11217	223	-48.1	-72.5	223	14
2023-09-24T00:00	11237	222	-48.1	-72.5	224	14
2023-09-24T00:00	11257	222	-48.1	-72.4	224	14
2023-09-24T00:00	11276	221	-48.3	-72.2	224	14
2023-09-24T00:00	11297	220	-48.4	-72.4	224	14
2023-09-24T00:00	11314	220	-48.4	-73.0	224	14
2023-09-24T00:00	11334	219	-48.4	-73.1	224	14
2023-09-24T00:00	11354	218	-48.5	-73.2	223	14
2023-09-24T00:00	11373	218	-48.6	-73.3	223	14
2023-09-24T00:00	11392	217	-48.7	-73.4	222	14
2023-09-24T00:00	11411	217	-48.8	-73.5	222	14
2023-09-24T00:00	11429	216	-49.0	-73.6	222	14
2023-09-24T00:00	11450	215	-49.1	-73.9	222	13
2023-09-24T00:00	11468	215	-49.2	-74.2	222	13
2023-09-24T00:00	11490	214	-49.2	-74.6	222	13
2023-09-24T00:00	11508	213	-49.1	-74.7	222	13
2023-09-24T00:00	11529	213	-49.1	-74.9	223	13
2023-09-24T00:00	11546	212	-49.3	-75.1	223	12
2023-09-24T00:00	11568	211	-49.3	-75.1	223	12
2023-09-24T00:00	11588	211	-49.3	-75.1	224	12
2023-09-24T00:00	11607	210	-49.5	-75.0	224	11
2023-09-24T00:00	11627	209	-49.6	-75.1	224	11
2023-09-24T00:00	11647	209	-49.8	-75.3	224	11
2023-09-24T00:00	11666	208	-49.8	-75.3	224	12
2023-09-24T00:00	11684	208	-49.7	-74.8	224	12
2023-09-24T00:00	11704	207	-49.8	-74.8	224	12
2023-09-24T00:00	11722	206	-49.9	-75.4	224	13
2023-09-24T00:00	11741	206	-49.8	-76.2	225	13
2023-09-24T00:00	11759	205	-49.7	-76.7	226	13
2023-09-24T00:00	11780	205	-49.7	-76.7	227	13
2023-09-24T00:00	11798	204	-49.8	-77.0	227	13
2023-09-24T00:00	11817	203	-49.7	-76.9	227	13
2023-09-24T00:00	11835	203	-49.7	-76.9	227	13
2023-09-24T00:00	11854	202	-49.8	-77.0	227	13
2023-09-24T00:00	11874	202	-49.8	-77.0	228	13
2023-09-24T00:00	11893	201	-49.8	-77.0	228	13
2023-09-24T00:00	11912	201	-50.0	-77.2	230	13
2023-09-24T00:00	11930	200	-50.1	-77.3	231	13
2023-09-24T00:00	11950	199	-49.8	-77.0	233	13
2023-09-24T00:00	11969	199	-50.0	-77.5	234	13
2023-09-24T00:00	11991	198	-49.9	-77.4	234	13
2023-09-24T00:00	12008	198	-49.9	-77.7	233	13
2023-09-24T00:00	12029	197	-50.0	-77.8	232	13
2023-09-24T00:00	12049	196	-50.0	-77.8	231	13
2023-09-24T00:00	12068	196	-49.9	-77.7	230	13
2023-09-24T00:00	12087	195	-49.7	-77.5	229	13
2023-09-24T00:00	12107	195	-49.7	-77.5	229	13
2023-09-24T00:00	12126	194	-49.8	-77.6	229	13
2023-09-24T00:00	12148	193	-50.0	-77.8	229	13
2023-09-24T00:00	12169	193	-50.1	-77.8	229	13
2023-09-24T00:00	12191	192	-50.0	-77.8	230	13
2023-09-24T00:00	12212	192	-50.1	-77.8	230	12
2023-09-24T00:00	12234	191	-50.3	-78.0	232	13
2023-09-24T00:00	12256	190	-50.5	-78.2	233	13
2023-09-24T00:00	12279	190	-50.6	-78.2	234	13
2023-09-24T00:00	12302	189	-50.8	-78.4	236	13
2023-09-24T00:00	12323	188	-50.8	-78.1	237	13
2023-09-24T00:00	12343	188	-51.0	-78.2	238	13
2023-09-24T00:00	12367	187	-51.2	-78.4	238	13
2023-09-24T00:00	12388	186	-51.3	-78.5	239	13
2023-09-24T00:00	12409	186	-51.4	-78.5	239	13
2023-09-24T00:00	12431	185	-51.6	-78.7	239	13
2023-09-24T00:00	12454	185	-51.7	-78.5	239	13
2023-09-24T00:00	12477	184	-51.9	-78.6	239	13
2023-09-24T00:00	12497	183	-52.1	-78.8	239	14
2023-09-24T00:00	12521	183	-52.2	-78.9	239	14
2023-09-24T00:00	12542	182	-52.3	-79.0	239	14
2023-09-24T00:00	12563	181	-52.2	-78.9	240	14
2023-09-24T00:00	12583	181	-52.1	-79.1	240	14
2023-09-24T00:00	12603	180	-51.7	-78.8	240	14
2023-09-24T00:00	12624	180	-51.6	-79.0	240	14
2023-09-24T00:00	12646	179	-51.7	-79.1	240	14
2023-09-24T00:00	12665	179	-51.7	-79.1	240	14
2023-09-24T00:00	12687	178	-51.5	-78.9	240	14
2023-09-24T00:00	12705	178	-51.6	-79.0	240	14
2023-09-24T00:00	12727	177	-51.6	-79.0	241	14
2023-09-24T00:00	12746	176	-51.7	-79.1	241	14
2023-09-24T00:00	12766	176	-51.8	-79.2	242	14
2023-09-24T00:00	12786	175	-51.8	-79.2	242	14
2023-09-24T00:00	12807	175	-51.7	-79.1	242	14
2023-09-24T00:00	12826	174	-51.8	-79.2	242	14
2023-09-24T00:00	12846	174	-51.9	-79.2	241	14
2023-09-24T00:00	12867	173	-51.9	-79.2	240	14
2023-09-24T00:00	12888	173	-51.8	-79.2	239	14
2023-09-24T00:00	12907	172	-51.6	-79.3	239	14
2023-09-24T00:00	12931	171	-51.6	-79.3	238	14
2023-09-24T00:00	12950	171	-51.6	-79.3	238	14
2023-09-24T00:00	12970	170	-51.7	-79.4	238	14
2023-09-24T00:00	12989	170	-51.8	-79.2	239	15
2023-09-24T00:00	13010	169	-51.9	-79.2	239	15
2023-09-24T00:00	13030	169	-52.0	-79.3	239	16
2023-09-24T00:00	13050	168	-52.1	-79.4	239	16
2023-09-24T00:00	13070	168	-52.2	-79.5	239	16
2023-09-24T00:00	13090	167	-52.3	-79.5	239	16
2023-09-24T00:00	13112	167	-52.2	-79.5	239	15
2023-09-24T00:00	13130	166	-51.9	-79.5	240	14
2023-09-24T00:00	13152	166	-51.9	-79.5	240	14
2023-09-24T00:00	13172	165	-51.8	-79.5	240	13
2023-09-24T00:00	13194	165	-51.5	-79.6	240	13
2023-09-24T00:00	13211	164	-51.4	-79.5	240	13
2023-09-24T00:00	13233	164	-51.5	-79.2	241	13
2023-09-24T00:00	13251	163	-51.6	-79.3	242	13
2023-09-24T00:00	13271	163	-51.7	-79.4	243	13
2023-09-24T00:00	13291	162	-51.7	-79.4	244	12
2023-09-24T00:00	13313	162	-51.7	-79.4	246	12
2023-09-24T00:00	13337	161	-51.8	-79.5	246	12
2023-09-24T00:00	13360	160	-51.5	-79.6	246	12
2023-09-24T00:00	13385	160	-51.7	-79.7	245	11
2023-09-24T00:00	13408	159	-51.9	-79.5	243	11
2023-09-24T00:00	13433	159	-52.1	-79.7	243	11
2023-09-24T00:00	13455	158	-52.3	-79.9	244	11
2023-09-24T00:00	13478	158	-52.5	-80.0	245	12
2023-09-24T00:00	13499	157	-52.7	-79.8	246	12
2023-09-24T00:00	13518	157	-52.8	-79.9	247	13
2023-09-24T00:00	13536	156	-52.8	-80.2	247	13
2023-09-24T00:00	13557	156	-52.8	-80.2	246	13
2023-09-24T00:00	13577	155	-52.6	-80.1	245	13
2023-09-24T00:00	13593	155	-52.1	-80.0	244	12
2023-09-24T00:00	13611	154	-52.1	-80.0	243	12
2023-09-24T00:00	13630	154	-52.1	-80.0	242	12
2023-09-24T00:00	13650	153	-52.1	-80.0	241	11
2023-09-24T00:00	13668	153	-51.9	-79.9	241	11
2023-09-24T00:00	13685	153	-51.8	-79.8	241	11
2023-09-24T00:00	13705	152	-51.9	-79.9	241	11
2023-09-24T00:00	13724	152	-52.0	-80.0	241	11
2023-09-24T00:00	13742	151	-51.9	-79.9	242	11
2023-09-24T00:00	13759	151	-52.1	-80.0	243	11
2023-09-24T00:00	13781	150	-52.2	-80.1	245	11
2023-09-24T00:00	13798	150	-52.4	-80.3	247	12
2023-09-24T00:00	13822	149	-52.6	-80.4	249	12
2023-09-24T00:00	13846	149	-52.7	-80.2	251	13
2023-09-24T00:00	13867	148	-52.5	-80.0	252	14
2023-09-24T00:00	13889	148	-52.7	-80.2	253	14
2023-09-24T00:00	13908	147	-52.8	-80.2	254	14
2023-09-24T00:00	13931	147	-52.9	-80.3	254	13
2023-09-24T00:00	13952	146	-53.0	-80.4	253	13
2023-09-24T00:00	13972	146	-52.8	-80.2	252	12
2023-09-24T00:00	13993	146	-52.9	-80.3	251	12
2023-09-24T00:00	14015	145	-53.1	-80.5	250	12
2023-09-24T00:00	14035	145	-53.1	-80.5	249	12
2023-09-24T00:00	14054	144	-53.1	-80.5	249	12
2023-09-24T00:00	14078	144	-53.1	-80.5	248	12
2023-09-24T00:00	14096	143	-53.1	-80.5	249	12
2023-09-24T00:00	14115	143	-53.2	-80.5	249	12
2023-09-24T00:00	14136	142	-53.3	-80.6	251	12
2023-09-24T00:00	14160	142	-53.4	-80.7	252	12
2023-09-24T00:00	14180	141	-53.5	-80.8	254	13
2023-09-24T00:00	14202	141	-53.5	-80.8	256	13
2023-09-24T00:00	14225	140	-53.3	-80.6	258	13
2023-09-24T00:00	14245	140	-52.9	-80.6	259	13
2023-09-24T00:00	14267	139	-52.8	-80.6	260	14
2023-09-24T00:00	14288	139	-52.8	-80.9	261	13
2023-09-24T00:00	14312	138	-52.8	-80.9	260	13
2023-09-24T00:00	14334	138	-52.8	-80.9	259	13
2023-09-24T00:00	14359	138	-52.7	-80.8	257	13
2023-09-24T00:00	14381	137	-52.7	-80.8	254	13
2023-09-24T00:00	14403	137	-52.6	-80.8	252	13
2023-09-24T00:00	14425	136	-52.7	-81.2	251	13
2023-09-24T00:00	14447	136	-52.7	-81.2	250	13
2023-09-24T00:00	14470	135	-52.7	-81.2	249	13
2023-09-24T00:00	14492	135	-52.7	-81.2	249	13
2023-09-24T00:00	14514	134	-52.8	-81.3	248	13
2023-09-24T00:00	14536	134	-52.8	-81.3	248	13
2023-09-24T00:00	14559	133	-52.7	-81.2	247	13
2023-09-24T00:00	14583	133	-52.6	-81.1	247	12
2023-09-24T00:00	14605	132	-52.5	-81.0	246	12
2023-09-24T00:00	14627	132	-52.5	-81.0	246	11
2023-09-24T00:00	14648	131	-52.6	-81.1	246	11
2023-09-24T00:00	14668	131	-52.7	-81.2	246	11
2023-09-24T00:00	14690	131	-52.8	-81.3	247	10
2023-09-24T00:00	14711	130	-52.8	-81.3	248	10
2023-09-24T00:00	14735	130	-52.8	-81.3	249	10
2023-09-24T00:00	14755	129	-52.9	-81.4	251	10
2023-09-24T00:00	14778	129	-53.1	-81.1	253	9
2023-09-24T00:00	14803	128	-53.3	-81.3	256	9
2023-09-24T00:00	14824	128	-53.5	-81.4	258	9
2023-09-24T00:00	14843	128	-53.7	-81.6	261	9
2023-09-24T00:00	14866	127	-53.8	-81.7	262	9
2023-09-24T00:00	14888	127	-54.0	-81.5	262	9
2023-09-24T00:00	14911	126	-54.1	-81.6	261	9
2023-09-24T00:00	14931	126	-54.2	-81.6	258	8
2023-09-24T00:00	14949	125	-54.0	-81.8	256	8
2023-09-24T00:00	14971	125	-54.0	-81.8	255	8
2023-09-24T00:00	14988	125	-53.9	-81.7	254	9
2023-09-24T00:00	15009	124	-54.0	-81.8	255	9
2023-09-24T00:00	15027	124	-54.1	-81.9	257	10
2023-09-24T00:00	15046	124	-54.3	-82.1	259	10
2023-09-24T00:00	15068	123	-54.4	-82.1	261	11
2023-09-24T00:00	15085	123	-54.5	-82.2	262	11
2023-09-24T00:00	15103	122	-54.6	-82.3	264	11
2023-09-24T00:00	15125	122	-54.4	-82.1	266	12
2023-09-24T00:00	15141	122	-54.0	-81.8	268	12
2023-09-24T00:00	15163	121	-54.0	-82.2	269	12
2023-09-24T00:00	15184	121	-54.1	-82.3	270	12
2023-09-24T00:00	15202	121	-54.2	-82.3	271	12
2023-09-24T00:00	15221	120	-54.3	-82.4	272	12
2023-09-24T00:00	15239	120	-54.1	-82.3	272	12
2023-09-24T00:00	15262	119	-53.7	-82.0	272	13
2023-09-24T00:00	15281	119	-53.7	-82.0	271	13
2023-09-24T00:00	15300	119	-53.7	-82.0	271	13
2023-09-24T00:00	15321	118	-53.7	-82.0	270	13
2023-09-24T00:00	15341	118	-53.9	-82.1	269	14
2023-09-24T00:00	15359	118	-54.0	-82.2	268	14
2023-09-24T00:00	15378	117	-54.1	-82.3	267	14
2023-09-24T00:00	15399	117	-54.2	-82.3	266	15
2023-09-24T00:00	15420	117	-54.3	-82.4	266	15
2023-09-24T00:00	15439	116	-54.4	-82.5	266	15
2023-09-24T00:00	15462	116	-54.5	-82.2	267	16
2023-09-24T00:00	15482	115	-54.7	-82.7	268	16
2023-09-24T00:00	15506	115	-54.8	-82.8	269	16
2023-09-24T00:00	15525	115	-54.7	-82.7	271	16
2023-09-24T00:00	15547	114	-54.4	-82.5	273	15
2023-09-24T00:00	15571	114	-53.9	-82.5	274	15
2023-09-24T00:00	15594	113	-53.6	-82.7	274	14
2023-09-24T00:00	15618	113	-53.4	-82.5	273	14
2023-09-24T00:00	15640	113	-53.3	-82.5	271	13
2023-09-24T00:00	15664	112	-53.4	-82.5	269	13
2023-09-24T00:00	15687	112	-53.2	-82.4	266	12
2023-09-24T00:00	15710	111	-52.9	-82.1	265	12
2023-09-24T00:00	15733	111	-52.9	-82.1	263	11
2023-09-24T00:00	15758	111	-52.9	-82.1	262	11
2023-09-24T00:00	15784	110	-53.1	-82.3	261	10
2023-09-24T00:00	15806	110	-53.2	-82.0	260	10
2023-09-24T00:00	15831	109	-53.4	-82.1	259	10
2023-09-24T00:00	15851	109	-53.5	-82.2	258	9
2023-09-24T00:00	15876	109	-53.7	-82.3	257	9
2023-09-24T00:00	15897	108	-53.9	-82.5	255	8
2023-09-24T00:00	15918	108	-54.0	-82.2	253	8
2023-09-24T00:00	15944	107	-54.2	-82.3	250	7
2023-09-24T00:00	15967	107	-54.4	-82.5	245	7
2023-09-24T00:00	15991	107	-54.4	-82.5	240	6
2023-09-24T00:00	16016	106	-54.3	-82.4	235	6
2023-09-24T00:00	16038	106	-54.3	-82.4	230	6
2023-09-24T00:00	16061	106	-54.5	-82.6	226	6
2023-09-24T00:00	16081	105	-54.7	-82.7	222	6
2023-09-24T00:00	16104	105	-54.8	-82.8	219	7
2023-09-24T00:00	16125	104	-55.0	-82.9	218	7
2023-09-24T00:00	16148	104	-54.9	-82.9	218	8
2023-09-24T00:00	16168	104	-55.0	-82.9	219	8
2023-09-24T00:00	16188	103	-55.0	-82.9	220	8
2023-09-24T00:00	16211	103	-55.1	-83.0	221	8
2023-09-24T00:00	16228	103	-55.2	-83.1	223	9
2023-09-24T00:00	16251	102	-55.3	-83.2	225	9
2023-09-24T00:00	16273	102	-55.4	-83.3	227	9
2023-09-24T00:00	16296	102	-55.4	-83.3	230	9
2023-09-24T00:00	16317	101	-55.4	-83.3	234	9
2023-09-24T00:00	16336	101	-55.5		239	9
2023-09-24T00:00	16359	101	-55.4	-83.3	243	9
2023-09-24T00:00	16384	100	-55.2	-83.1	247	9
2023-09-24T00:00	16403	100	-55.1	-83.0	250	9
2023-09-24T00:00	16427	100	-55.1	-83.0	253	10
2023-09-24T00:00	16446	99	-55.1	-83.0	255	10
2023-09-24T00:00	16467	99	-55.3	-83.2	255	10
2023-09-24T00:00	16487	99	-55.2	-83.1	255	10
2023-09-24T00:00	16509	98	-55.2	-83.1	252	10
2023-09-24T00:00	16528	98	-55.1	-83.0	249	10
2023-09-24T00:00	16548	98	-55.0	-82.9	246	11
2023-09-24T00:00	16568	97	-55.0		243	11
2023-09-24T00:00	16588	97	-54.8	-83.2	241	11
2023-09-24T00:00	16607	97	-54.8	-83.2	239	11
2023-09-24T00:00	16629	97	-55.0	-82.9	238	11
2023-09-24T00:00	16652	96	-55.2	-83.1	237	11
2023-09-24T00:00	16669	96	-55.3	-83.2	236	11
2023-09-24T00:00	16688	96	-55.5		237	12
2023-09-24T00:00	16710	95	-55.2	-83.1	238	12
2023-09-24T00:00	16733	95	-54.9	-82.9	239	12
2023-09-24T00:00	16752	95	-55.0		240	12
2023-09-24T00:00	16770	94	-55.1	-83.0	241	12
2023-09-24T00:00	16793	94	-55.2	-83.1	241	12
2023-09-24T00:00	16814	94	-55.4	-83.3	242	13
2023-09-24T00:00	16838	93	-55.6	-83.4	242	12
2023-09-24T00:00	16860	93	-55.7	-83.5	243	12
2023-09-24T00:00	16880	93	-55.8	-83.6	243	12
2023-09-24T00:00	16902	92	-55.8	-83.6	242	12
2023-09-24T00:00	16925	92	-55.8	-83.6	242	11
2023-09-24T00:00	16947	92	-55.8	-83.6	241	11
2023-09-24T00:00	16973	91	-55.6	-83.4	241	12
2023-09-24T00:00	16993	91	-55.5		241	12
2023-09-24T00:00	17017	91	-55.5		241	13
2023-09-24T00:00	17040	90	-55.5		242	14
2023-09-24T00:00	17063	90	-55.4	-83.3	242	14
2023-09-24T00:00	17087	90	-55.5		243	15
2023-09-24T00:00	17108	90	-55.6	-83.4	244	15
2023-09-24T00:00	17131	89	-55.7	-83.5	245	16
2023-09-24T00:00	17156	89	-55.7	-83.5	245	16
2023-09-24T00:00	17177	89	-55.7	-83.5	246	16
2023-09-24T00:00	17203	88	-55.5		246	16
2023-09-24T00:00	17225	88	-55.3	-83.6	247	16
2023-09-24T00:00	17249	88	-55.4	-83.6	248	16
2023-09-24T00:00	17270	87	-55.2	-83.5	248	16
2023-09-24T00:00	17293	87	-55.0	-83.7	249	16
2023-09-24T00:00	17311	87	-54.8	-83.6	249	16
2023-09-24T00:00	17335	86	-54.6	-83.4	249	16
2023-09-24T00:00	17357	86	-54.3	-83.6	248	15
2023-09-24T00:00	17379	86	-54.1	-83.5	248	15
2023-09-24T00:00	17402	86	-53.0	-82.7	248	14
2023-09-24T00:00	17425	85	-52.8	-82.5	249	14
2023-09-24T00:00	17444	85	-52.9	-82.6	251	14
2023-09-24T00:00	17469	85	-53.1	-82.7	253	13
2023-09-24T00:00	17491	84	-53.2	-82.8	254	13
2023-09-24T00:00	17510	84	-53.3	-82.5	256	14
2023-09-24T00:00	17535	84	-53.4	-82.5	258	14
2023-09-24T00:00	17556	83	-53.5	-82.6	260	14
2023-09-24T00:00	17579	83	-53.7	-82.8	262	14
2023-09-24T00:00	17600	83	-53.9	-82.5	264	14
2023-09-24T00:00	17621	83	-54.0	-82.6	267	14
2023-09-24T00:00	17644	82	-54.2	-82.7	269	13
2023-09-24T00:00	17663	82	-54.1	-83.1	270	13
2023-09-24T00:00	17682	82	-54.1	-83.1	271	13
2023-09-24T00:00	17704	82	-54.1	-83.1	272	12
2023-09-24T00:00	17726	81	-54.0	-83.0	272	12
2023-09-24T00:00	17748	81	-54.0	-83.0	272	11
2023-09-24T00:00	17769	81	-54.1	-83.1	273	10
2023-09-24T00:00	17792	80	-54.1	-83.1	273	10
2023-09-24T00:00	17818	80	-54.0	-83.0	272	9
2023-09-24T00:00	17837	80	-54.1	-83.1	271	9
2023-09-24T00:00	17859	80	-54.0	-83.0	269	8
2023-09-24T00:00	17883	79	-54.0	-83.0	266	8
2023-09-24T00:00	17905	79	-54.0	-83.0	262	8
2023-09-24T00:00	17928	79	-54.1	-83.1	257	7
2023-09-24T00:00	17955	78	-54.1	-83.1	252	7
2023-09-24T00:00	17976	78	-54.2	-83.1	247	7
2023-09-24T00:00	17998	78	-54.2	-83.1	242	7
2023-09-24T00:00	18019	78	-54.2	-83.1	238	6
2023-09-24T00:00	18045	77	-54.2	-83.1	235	6
2023-09-24T00:00	18068	77	-54.3	-83.2	233	6
2023-09-24T00:00	18090	77	-54.3	-83.2	230	5
2023-09-24T00:00	18114	77	-54.4	-83.3	228	5
2023-09-24T00:00	18135	76	-54.6	-83.4	227	5
2023-09-24T00:00	18159	76	-54.6	-83.0	227	6
2023-09-24T00:00	18181	76	-54.8	-83.2	227	6
2023-09-24T00:00	18208	75	-54.8	-83.2	228	6
2023-09-24T00:00	18232	75	-54.9	-83.3	228	7
2023-09-24T00:00	18256	75	-54.9	-83.3	228	7
2023-09-24T00:00	18276	75	-55.0		227	7
2023-09-24T00:00	18300	74	-55.1	-83.4	227	8
2023-09-24T00:00	18324	74	-55.1	-83.4	227	8
2023-09-24T00:00	18349	74	-55.1	-83.4	228	8
2023-09-24T00:00	18371	74	-55.2	-83.5	230	8
2023-09-24T00:00	18394	73	-55.4	-83.6	232	8
2023-09-24T00:00	18422	73	-55.4	-83.6	235	8
2023-09-24T00:00	18443	73	-55.5	-83.7	236	8
2023-09-24T00:00	18469	72	-55.7	-83.9	237	8
2023-09-24T00:00	18489	72	-55.6	-83.8	237	8
2023-09-24T00:00	18509	72	-55.2	-83.5	237	9
2023-09-24T00:00	18535	72	-55.2	-83.9	235	9
2023-09-24T00:00	18558	71	-55.2	-83.9	234	9
2023-09-24T00:00	18584	71	-55.2	-83.9	231	9
2023-09-24T00:00	18607	71	-55.3	-84.0	228	9
2023-09-24T00:00	18630	71	-55.4	-84.0	224	10
2023-09-24T00:00	18654	70	-55.4	-84.0	220	10
2023-09-24T00:00	18678	70	-55.2	-83.9	217	10
2023-09-24T00:00	18701	70	-55.2	-83.5	214	10
2023-09-24T00:00	18727	70	-55.4	-83.6	213	11
2023-09-24T00:00	18747	69	-55.5	-83.7	212	11
2023-09-24T00:00	18770	69	-55.6	-83.8	211	12
2023-09-24T00:00	18797	69	-55.8	-83.9	211	12
2023-09-24T00:00	18817	69	-55.9	-84.0	211	13
2023-09-24T00:00	18844	68	-55.9	-84.0	210	13
2023-09-24T00:00	18866	68	-55.9	-84.0	210	14
2023-09-24T00:00	18892	68	-55.8	-83.9	210	14
2023-09-24T00:00	18913	68	-55.9	-84.0	210	15
2023-09-24T00:00	18936	67	-56.0	-84.1	212	15
2023-09-24T00:00	18963	67	-56.2	-84.2	214	15
2023-09-24T00:00	18989	67	-56.3	-84.3	216	15
2023-09-24T00:00	19010	67	-56.0	-84.1	219	15
2023-09-24T00:00	19035	66	-55.7	-84.3	221	14
2023-09-24T00:00	19058	66	-55.5	-84.1	223	14
2023-09-24T00:00	19082	66	-55.3	-84.0	226	13
2023-09-24T00:00	19106	66	-55.4	-84.0	229	12
2023-09-24T00:00	19127	65	-55.5	-84.1	233	12
2023-09-24T00:00	19151	65	-55.4	-84.0	237	11
2023-09-24T00:00	19178	65	-55.4	-84.0	241	11
2023-09-24T00:00	19201	65	-55.3	-84.0	243	11
2023-09-24T00:00	19227	64	-55.2	-83.9	245	11
2023-09-24T00:00	19250	64	-55.2	-83.9	246	11
2023-09-24T00:00	19275	64	-55.0	-83.7	246	11
2023-09-24T00:00	19296	64	-54.9	-84.1	246	11
2023-09-24T00:00	19319	63	-54.9	-84.1	246	11
2023-09-24T00:00	19346	63	-54.6	-83.9	247	11
2023-09-24T00:00	19369	63	-54.6	-83.9	248	10
2023-09-24T00:00	19391	63	-54.8	-84.0	250	10
2023-09-24T00:00	19413	62	-54.9	-84.1	252	9
2023-09-24T00:00	19440	62	-54.9	-84.1	253	9
2023-09-24T00:00	19459	62	-54.9	-84.1	253	8
2023-09-24T00:00	19479	62	-54.7	-83.9	251	8
2023-09-24T00:00	19503	62	-54.6	-83.9	248	7
2023-09-24T00:00	19524	61	-54.5	-83.8	244	7
2023-09-24T00:00	19547	61	-54.5	-83.8	238	7
2023-09-24T00:00	19569	61	-54.6	-83.9	233	6
2023-09-24T00:00	19594	61	-54.7	-83.5	228	6
2023-09-24T00:00	19616	61	-54.9	-83.7	224	6
2023-09-24T00:00	19640	60	-55.0	-83.7	221	6
2023-09-24T00:00	19661	60	-55.1	-83.8	219	6
2023-09-24T00:00	19680	60	-55.2	-83.9	217	6
2023-09-24T00:00	19704	60	-55.3	-83.6	215	6
2023-09-24T00:00	19728	59	-55.5	-83.7	214	6
2023-09-24T00:00	19749	59	-55.7	-83.9	213	5
2023-09-24T00:00	19772	59	-55.9	-84.0	214	5
2023-09-24T00:00	19794	59	-56.0	-84.1	216	5
2023-09-24T00:00	19820	59	-56.1	-84.2	220	5
2023-09-24T00:00	19837	58	-56.3	-84.3	225	4
2023-09-24T00:00	19861	58	-56.5	-84.5	228	4
2023-09-24T00:00	19882	58	-56.6	-84.5	230	4
2023-09-24T00:00	19907	58	-56.7	-84.2	230	4
2023-09-24T00:00	19931	58	-56.8	-84.3	230	4
2023-09-24T00:00	19953	57	-56.9	-84.4	230	3
2023-09-24T00:00	19973	57	-56.9	-84.4	229	3
2023-09-24T00:00	19997	57	-57.1	-84.9	227	3
2023-09-24T00:00	20014	57	-57.2	-85.0	220	2
2023-09-24T00:00	20037	57	-56.9	-84.8	209	2
2023-09-24T00:00	20063	56	-56.7	-85.0	196	2
2023-09-24T00:00	20084	56	-56.3	-84.7	189	3
2023-09-24T00:00	20106	56	-56.2	-84.6	186	3
2023-09-24T00:00	20129	56	-56.2	-84.6	184	4
2023-09-24T00:00	20153	56	-56.3	-84.7	184	4
2023-09-24T00:00	20170	55	-56.4	-84.8	183	5
2023-09-24T00:00	20196	55	-56.6	-84.5	183	6
2023-09-24T00:00	20220	55	-56.7	-84.6	184	6
2023-09-24T00:00	20248	55	-56.9	-84.4	185	7
2023-09-24T00:00	20264	55	-57.1	-84.6	187	8
2023-09-24T00:00	20287	54	-57.2	-84.6	189	9
2023-09-24T00:00	20314	54	-57.3	-84.7	191	9
2023-09-24T00:00	20335	54	-57.5	-84.9	193	10
2023-09-24T00:00	20355	54	-57.6	-84.9	195	11
2023-09-24T00:00	20381	54	-57.7	-85.0	198	12
2023-09-24T00:00	20401	53	-57.8	-85.1	201	12
2023-09-24T00:00	20422	53	-57.8	-85.1	204	12
2023-09-24T00:00	20445	53	-57.9	-85.2	208	13
2023-09-24T00:00	20470	53	-57.9	-85.2	212	13
2023-09-24T00:00	20490	53	-57.8	-85.1	217	13
2023-09-24T00:00	20511	53	-57.7	-85.4	221	13
2023-09-24T00:00	20533	52	-57.5	-85.2	225	13
2023-09-24T00:00	20551	52	-57.3	-85.1	228	13
2023-09-24T00:00	20575	52	-57.1	-84.9	230	13
2023-09-24T00:00	20594	52	-57.2	-85.0	231	13
2023-09-24T00:00	20615	52	-57.2	-85.0	232	13
2023-09-24T00:00	20636	52	-57.3	-85.1	232	13
2023-09-24T00:00	20659	51	-57.4	-84.8	233	13
2023-09-24T00:00	20675	51	-57.4	-84.8	233	13
2023-09-24T00:00	20701	51	-57.4	-84.8	233	13
2023-09-24T00:00	20721	51	-57.4	-84.8	233	13
2023-09-24T00:00	20743	51	-57.3	-84.7	233	13
2023-09-24T00:00	20767	50	-57.4	-85.2	232	13
2023-09-24T00:00	20786	50	-57.4	-85.2	231	14
2023-09-24T00:00	20807	50	-57.3	-85.1	231	14
2023-09-24T00:00	20831	50	-57.1	-84.9	230	15
2023-09-24T00:00	20853	50	-57.0	-85.2	230	15
2023-09-24T00:00	20869	50	-56.6	-84.9	231	15
2023-09-24T00:00	20897	49	-56.3	-84.7	232	15
2023-09-24T00:00	20920	49	-56.3	-85.1	234	15
2023-09-24T00:00	20939	49	-55.8	-84.8	237	15
2023-09-24T00:00	20960	49	-55.9	-84.8	240	15
2023-09-24T00:00	20987	49	-55.9	-84.8	242	15
2023-09-24T00:00	21010	49	-55.8	-84.8	245	15
2023-09-24T00:00	21032	48	-55.7	-84.7	247	15
2023-09-24T00:00	21056	48	-55.6	-84.2	248	14
2023-09-24T00:00	21083	48	-55.7	-84.3	249	14
2023-09-24T00:00	21107	48	-55.8	-84.3	250	13
2023-09-24T00:00	21129	48	-56.0	-84.5	250	13
2023-09-24T00:00	21154	47	-56.1	-84.6	250	13
2023-09-24T00:00	21182	47	-56.1	-84.2	250	13
2023-09-24T00:00	21207	47	-56.1	-84.2	250	13
2023-09-24T00:00	21231	47	-56.3	-84.3	251	13
2023-09-24T00:00	21259	47	-56.4	-84.4	251	13
2023-09-24T00:00	21287	47	-56.5	-84.5	252	13
2023-09-24T00:00	21315	46	-56.7	-84.6	252	13
2023-09-24T00:00	21341	46	-56.8	-84.7	253	14
2023-09-24T00:00	21360	46	-56.8	-84.7	254	14
2023-09-24T00:00	21385	46	-56.9	-84.8	255	14
2023-09-24T00:00	21416	46	-56.9	-84.8	256	14
2023-09-24T00:00	21440	45	-57.0	-84.8	257	14
2023-09-24T00:00	21468	45	-57.2	-85.0	259	14
2023-09-24T00:00	21496	45	-57.3	-85.1	260	14
2023-09-24T00:00	21518	45	-57.4	-85.2	260	14
2023-09-24T00:00	21545	45	-57.5	-85.2	261	14
2023-09-24T00:00	21573	44	-57.5	-85.2	261	13
2023-09-24T00:00	21598	44	-57.4	-85.2	262	13
2023-09-24T00:00	21619	44	-57.5	-84.9	262	12
2023-09-24T00:00	21646	44	-57.6	-84.9	263	12
2023-09-24T00:00	21673	44	-57.8	-85.1	264	12
2023-09-24T00:00	21694	44	-57.9	-85.2	266	12
2023-09-24T00:00	21722	43	-58.0	-85.2	267	11
2023-09-24T00:00	21742	43	-58.2	-85.4	268	11
2023-09-24T00:00	21768	43	-58.3	-85.5	269	11
2023-09-24T00:00	21790	43	-58.3	-85.5	271	10
2023-09-24T00:00	21817	43	-58.2	-85.4	272	10
2023-09-24T00:00	21836	43	-58.3	-85.5	273	9
2023-09-24T00:00	21859	42	-58.3	-85.8	274	9
2023-09-24T00:00	21882	42	-58.1	-85.7	275	8
2023-09-24T00:00	21904	42	-57.9	-85.5	276	8
2023-09-24T00:00	21923	42	-57.7	-85.8	276	7
2023-09-24T00:00	21941	42	-57.4	-85.6	274	6
2023-09-24T00:00	21972	42	-57.2	-85.4	271	6
2023-09-24T00:00	21990	42	-57.2	-85.4	266	5
2023-09-24T00:00	22011	41	-57.2	-85.4	260	5
2023-09-24T00:00	22038	41	-56.9	-85.2	254	5
2023-09-24T00:00	22059	41	-56.9	-85.2	247	5
2023-09-24T00:00	22082	41	-57.0	-85.2	242	5
2023-09-24T00:00	22104	41	-56.9	-85.2	238	6
2023-09-24T00:00	22124	41	-56.9	-85.2	236	7
2023-09-24T00:00	22143	41	-56.8	-85.1	236	7
2023-09-24T00:00	22171	40	-56.9	-85.2	237	7
2023-09-24T00:00	22188	40	-56.9	-84.8	239	8
2023-09-24T00:00	22220	40	-57.1	-84.9	240	8
2023-09-24T00:00	22239	40	-57.2	-85.0	242	8
2023-09-24T00:00	22263	40	-57.3	-85.1	243	8
2023-09-24T00:00	22287	40	-57.3	-85.1	244	7
2023-09-24T00:00	22310	40	-57.1	-84.9	244	7
2023-09-24T00:00	22339	39	-57.1	-84.9	243	7
2023-09-24T00:00	22357	39	-57.0	-84.8	241	7
2023-09-24T00:00	22379	39	-57.0	-85.2	238	6
2023-09-24T00:00	22407	39	-57.1	-85.3	234	6
2023-09-24T00:00	22434	39	-57.2	-85.4	228	6
2023-09-24T00:00	22457	39	-56.9	-85.2	224	6
2023-09-24T00:00	22486	38	-56.8	-85.1	220	6
2023-09-24T00:00	22504	38	-56.7	-85.0	217	7
2023-09-24T00:00	22529	38	-56.5	-85.3	214	7
2023-09-24T00:00	22557	38	-56.3	-85.1	211	7
2023-09-24T00:00	22576	38	-56.3	-84.7	208	7
2023-09-24T00:00	22603	38	-56.4	-84.8	207	7
2023-09-24T00:00	22634	38	-56.4	-84.8	209	7
2023-09-24T00:00	22654	37	-56.6	-84.9	212	8
2023-09-24T00:00	22673	37	-56.5	-84.9	216	8
2023-09-24T00:00	22698	37	-56.4	-84.8	219	9
2023-09-24T00:00	22722	37	-56.4	-84.8	221	9
2023-09-24T00:00	22748	37	-56.6	-84.9	222	10
2023-09-24T00:00	22775	37	-56.7	-84.6	223	10
2023-09-24T00:00	22799	37	-56.9	-84.8	224	11
2023-09-24T00:00	22823	36	-57.0	-84.8	225	11
2023-09-24T00:00	22849	36	-57.2	-85.0	227	11
2023-09-24T00:00	22869	36	-57.3	-85.1	229	11
2023-09-24T00:00	22892	36	-57.4	-85.2	231	11
2023-09-24T00:00	22915	36	-57.3	-85.5	234	11
2023-09-24T00:00	22947	36	-57.3	-85.5	238	10
2023-09-24T00:00	22971	36	-56.9	-85.2	242	10
2023-09-24T00:00	22993	36	-56.7	-85.0	246	10
2023-09-24T00:00	23018	35	-56.7	-85.0	249	9
2023-09-24T00:00	23041	35	-56.7	-85.4	251	9
2023-09-24T00:00	23067	35	-56.6	-85.4	251	8
2023-09-24T00:00	23088	35	-56.5	-85.3	250	8
2023-09-24T00:00	23109	35	-56.2	-85.1	247	7
2023-09-24T00:00	23138	35	-56.2	-85.1	244	7
2023-09-24T00:00	23160	35	-56.1	-85.0	240	7
2023-09-24T00:00	23185	34	-55.9	-84.8	237	7
2023-09-24T00:00	23210	34	-55.7	-84.7	234	7
2023-09-24T00:00	23234	34	-55.6	-84.6	232	7
2023-09-24T00:00	23257	34	-55.8	-84.8	231	7
2023-09-24T00:00	23282	34	-55.7	-84.7	229	7
2023-09-24T00:00	23303	34	-55.6	-84.6	227	7
2023-09-24T00:00	23327	34	-55.5	-84.5	224	7
2023-09-24T00:00	23352	34	-55.3	-84.4	222	7
2023-09-24T00:00	23369	33	-55.2	-84.3	221	8
2023-09-24T00:00	23394	33	-55.1	-84.2	222	8
2023-09-24T00:00	23421	33	-55.3	-84.4	226	8
2023-09-24T00:00	23441	33	-55.3	-84.4	230	9
2023-09-24T00:00	23470	33	-55.2	-84.3	234	9
2023-09-24T00:00	23484	33	-55.3	-84.4	237	9
2023-09-24T00:00	23511	33	-55.3	-84.4	239	9
2023-09-24T00:00	23530	33	-55.3	-84.4	241	9
2023-09-24T00:00	23556	32	-55.3	-84.4	244	9
2023-09-24T00:00	23579	32	-55.3	-84.4	246	9
2023-09-24T00:00	23603	32	-55.3	-84.4	249	9
2023-09-24T00:00	23629	32	-55.3	-84.4	252	9
2023-09-24T00:00	23652	32	-55.4	-84.5	254	9
2023-09-24T00:00	23669	32	-55.5	-84.5	255	9
2023-09-24T00:00	23692	32	-55.4	-84.5	255	9
2023-09-24T00:00	23719	32	-55.5	-84.5	253	9
2023-09-24T00:00	23743	32	-55.4	-84.5	251	9
2023-09-24T00:00	23766	31	-55.5	-84.5	248	8
2023-09-24T00:00	23797	31	-55.7	-84.7	243	8
2023-09-24T00:00	23826	31	-55.8	-84.8	239	8
2023-09-24T00:00	23839	31	-55.8	-84.8	236	7
2023-09-24T00:00	23868	31	-55.5	-84.5	234	7
2023-09-24T00:00	23892	31	-55.5	-84.5	233	7
2023-09-24T00:00	23919	31	-55.5	-84.5	232	6
2023-09-24T00:00	23952	31	-55.4	-84.5	231	6
2023-09-24T00:00	23974	30	-55.4	-84.5	228	6
2023-09-24T00:00	24001	30	-55.5	-84.5	224	6
2023-09-24T00:00	24029	30	-55.7	-84.7	219	5
2023-09-24T00:00	24052	30	-55.7	-84.7	213	5
2023-09-24T00:00	24078	30	-55.8	-84.3	208	5
2023-09-24T00:00	24106	30	-55.9	-84.4	204	6
2023-09-24T00:00	24129	30	-56.0	-84.5	202	6
2023-09-24T00:00	24155	30	-56.2	-84.6	203	6
2023-09-24T00:00	24182	29	-56.3	-84.7	206	6
2023-09-24T00:00	24213	29	-56.4	-84.8	210	6
2023-09-24T00:00	24243	29	-56.4	-84.8	215	6
2023-09-24T00:00	24267	29	-56.2	-84.6	219	7
2023-09-24T00:00	24292	29	-56.1	-84.6	223	7
2023-09-24T00:00	24329	29	-56.2	-85.1	225	7
2023-09-24T00:00	24351	29	-56.2	-85.1	225	8
2023-09-24T00:00	24385	29	-56.1	-85.0	225	8
2023-09-24T00:00	24403	28	-56.2	-85.1	225	8
2023-09-24T00:00	24435	28	-56.2	-85.1	225	9
2023-09-24T00:00	24461	28	-56.2	-85.1	226	9
2023-09-24T00:00	24487	28	-56.1	-85.0	228	9
2023-09-24T00:00	24519	28	-56.2	-85.1	231	9
2023-09-24T00:00	24541	28	-56.1	-85.0	235	9
2023-09-24T00:00	24566	28	-55.9	-84.8	239	9
2023-09-24T00:00	24596	28	-55.7	-84.7	243	9
2023-09-24T00:00	24621	27	-55.7	-84.7	246	9
2023-09-24T00:00	24648	27	-55.8	-84.8	247	9
2023-09-24T00:00	24673	27	-55.9	-84.8	248	9
2023-09-24T00:00	24700	27	-56.0	-84.9	249	10
2023-09-24T00:00	24729	27	-56.1	-84.6	250	10
2023-09-24T00:00	24755	27	-56.3	-84.7	252	10
2023-09-24T00:00	24775	27	-56.4	-84.8	254	10
2023-09-24T00:00	24802	27	-56.3	-85.1	258	10
2023-09-24T00:00	24832	27	-56.4	-85.2	262	9
2023-09-24T00:00	24855	27	-56.1	-85.0	266	9
2023-09-24T00:00	24884	26	-55.7	-84.7	270	9
2023-09-24T00:00	24900	26	-55.5	-85.0	274	8
2023-09-24T00:00	24928	26	-55.6	-85.1	276	8
2023-09-24T00:00	24947	26	-55.3	-84.9	278	7
2023-09-24T00:00	24974	26	-55.2	-84.8	278	6
2023-09-24T00:00	25002	26	-55.1	-84.7	277	5
2023-09-24T00:00	25023	26	-54.8	-85.0	274	4
2023-09-24T00:00	25047	26	-54.5	-84.8	268	3
2023-09-24T00:00	25070	26	-54.3	-84.6	262	3
2023-09-24T00:00	25092	26	-54.0	-84.4	256	2
2023-09-24T00:00	25116	25	-53.9	-84.3	253	1
2023-09-24T00:00	25145	25	-53.9	-84.3	255	1
2023-09-24T00:00	25173	25	-54.0	-83.9	262	1
2023-09-24T00:00	25198	25	-54.1	-84.0	248	0
2023-09-24T00:00	25212	25	-54.2	-84.0	140	0
2023-09-24T00:00	25241	25	-54.2	-84.0	142	1
2023-09-24T00:00	25260	25	-54.4	-84.2	148	1
2023-09-24T00:00	25299	25	-54.6	-84.3	153	2
2023-09-24T00:00	25310	25	-54.6	-84.3	158	2
2023-09-24T00:00	25343	25	-54.2	-84.0	162	2
2023-09-24T00:00	25374	24	-54.3	-84.1	165	2
2023-09-24T00:00	25402	24	-54.4	-84.2	166	2
2023-09-24T00:00	25427	24	-54.5	-83.8	166	2
2023-09-24T00:00	25449	24	-54.6	-83.9	165	2
2023-09-24T00:00	25468	24	-54.8	-84.0	166	2
2023-09-24T00:00	25503	24	-55.0	-84.2	169	2
2023-09-24T00:00	25535	24	-55.2	-84.3	174	2
2023-09-24T00:00	25550	24	-55.3	-84.4	180	2
2023-09-24T00:00	25580	24	-55.4	-84.5	185	2
2023-09-24T00:00	25601	24	-55.6	-84.6	188	2
2023-09-24T00:00	25629	23	-55.7	-84.7	189	2
2023-09-24T00:00	25654	23	-55.7	-84.7	187	3
2023-09-24T00:00	25680	23	-55.9	-84.8	183	3
2023-09-24T00:00	25707	23	-56.0	-84.5	178	4
2023-09-24T00:00	25731	23	-56.1	-84.6	175	4
2023-09-24T00:00	25766	23	-56.0	-84.5	175	5
2023-09-24T00:00	25790	23	-56.1	-84.6	176	5
2023-09-24T00:00	25819	23	-56.3	-84.7	181	5
2023-09-24T00:00	25842	23	-56.4	-84.8	186	5
2023-09-24T00:00	25868	23	-56.5	-84.9	193	4
2023-09-24T00:00	25897	23	-56.4	-85.2	201	4
2023-09-24T00:00	25923	22	-56.2	-85.1	211	4
2023-09-24T00:00	25950	22	-56.3	-85.1	222	4
2023-09-24T00:00	25978	22	-56.4	-85.2	233	4
2023-09-24T00:00	26007	22	-56.6	-85.4	242	5
2023-09-24T00:00	26033	22	-56.6	-85.4	247	5
2023-09-24T00:00	26063	22	-56.4	-85.2	248	5
2023-09-24T00:00	26080	22	-56.2	-85.1	246	5
2023-09-24T00:00	26107	22	-56.0		240	5
2023-09-24T00:00	26132	22	-55.8	-85.2	233	5
2023-09-24T00:00	26158	22	-55.8	-85.2	225	5
2023-09-24T00:00	26187	22	-55.7	-85.2	217	5
2023-09-24T00:00	26210	21	-55.5	-85.0	210	5
2023-09-24T00:00	26230	21	-55.5	-85.0	205	5
2023-09-24T00:00	26266	21	-55.7	-85.2	201	6
2023-09-24T00:00	26276	21	-55.8	-84.8	200	6
2023-09-24T00:00	26307	21	-55.8	-84.8	201	7
2023-09-24T00:00	26332	21	-55.8	-84.8	204	7
2023-09-24T00:00	26367	21	-55.6	-84.6	207	8
2023-09-24T00:00	26389	21	-55.7	-84.7	211	8
2023-09-24T00:00	26408	21	-55.9	-84.8	214	9
2023-09-24T00:00	26440	21	-56.0	-84.9	216	9
2023-09-24T00:00	26466	21	-55.8	-84.8	217	10
2023-09-24T00:00	26490	21	-55.7	-84.7	218	10
2023-09-24T00:00	26517	20	-55.7	-84.7	219	10
2023-09-24T00:00	26540	20	-55.8	-84.8	220	10
2023-09-24T00:00	26568	20	-55.8	-84.8	221	10
2023-09-24T00:00	26586	20	-55.7	-84.7	222	9
2023-09-24T00:00	26611	20	-55.7	-84.7	224	9
2023-09-24T00:00	26641	20	-55.8	-84.8	225	9
2023-09-24T00:00	26654	20	-55.8	-84.8	227	9
2023-09-24T00:00	26686	20	-55.7	-85.2	227	9
2023-09-24T00:00	26711	20	-55.6	-85.1	228	9
2023-09-24T00:00	26727	20	-55.5	-85.0	228	9
2023-09-24T00:00	26762	20	-55.6	-85.1	229	10
2023-09-24T00:00	26776	20	-55.4	-84.9	230	10
2023-09-24T00:00	26803	20	-55.3	-84.4	231	10
2023-09-24T00:00	26826	19	-55.5	-84.5	231	10
2023-09-24T00:00	26854	19	-55.7	-84.7	232	11
2023-09-24T00:00	26886	19	-55.9	-84.8	233	11
2023-09-24T00:00	26898	19	-55.9	-84.8	233	11
2023-09-24T00:00	26928	19	-55.9	-84.8	234	12
2023-09-24T00:00	26960	19	-56.0	-84.9	235	12
2023-09-24T00:00	26983	19	-56.0	-84.9	236	12
2023-09-24T00:00	27011	19	-55.6	-84.6	236	12
2023-09-24T00:00	27038	19	-55.5	-85.0	235	11
2023-09-24T00:00	27068	19	-55.5	-84.5	234	11
2023-09-24T00:00	27081	19	-55.7	-84.7	233	11
2023-09-24T00:00	27112	19	-55.9	-84.8	232	11
2023-09-24T00:00	27137	19	-55.9	-84.8	232	11
2023-09-24T00:00	27168	18	-56.0	-84.9	234	10
2023-09-24T00:00	27191	18	-55.8	-84.8	236	10
2023-09-24T00:00	27224	18	-55.7	-84.7	238	9
2023-09-24T00:00	27253	18	-55.8	-84.8	241	9
2023-09-24T00:00	27274	18	-56.1	-85.0	243	9
2023-09-24T00:00	27307	18	-56.2	-85.1	245	9
2023-09-24T00:00	27325	18	-56.3	-85.1	247	9
2023-09-24T00:00	27365	18	-56.2	-85.1	248	10
2023-09-24T00:00	27392	18	-55.8	-84.8	250	10
2023-09-24T00:00	27428	18	-55.6	-84.6	251	11
2023-09-24T00:00	27449	18	-55.8	-84.8	252	12
2023-09-24T00:00	27481	18	-55.9	-84.8	252	13
2023-09-24T00:00	27507	17	-55.9	-84.8	253	14
2023-09-24T00:00	27538	17	-56.1	-85.0	254	15
2023-09-24T00:00	27569	17	-56.2	-85.1	255	16
2023-09-24T00:00	27589	17	-56.2	-85.1	257	17
2023-09-24T00:00	27621	17	-56.2	-85.1	259	17
2023-09-24T00:00	27650	17	-56.1	-85.0	262	18
2023-09-24T00:00	27687	17	-56.1	-85.5	266	18
2023-09-24T00:00	27704	17	-55.6	-85.1	269	18
2023-09-24T00:00	27741	17	-55.4	-84.9	273	18
2023-09-24T00:00	27769	17	-55.3	-84.9	276	18
2023-09-24T00:00	27796	17	-55.3	-84.9	278	18
2023-09-24T00:00	27818	17	-55.4	-84.9	280	18
2023-09-24T00:00	27844	17	-55.4	-84.9	281	17
2023-09-24T00:00	27875	17	-55.3	-85.4	283	17
2023-09-24T00:00	27909	16	-55.2	-85.3	284	17
2023-09-24T00:00	27936	16	-54.7	-84.9	286	16
2023-09-24T00:00	27969	16	-54.2	-85.1	289	16
2023-09-24T00:00	27989	16	-53.5	-84.6	291	16
2023-09-24T00:00	28015	16	-53.3	-84.4	293	16
2023-09-24T00:00	28052	16	-53.1	-84.3	294	16
2023-09-24T00:00	28072	16	-53.2	-84.4	295	16
2023-09-24T00:00	28098	16	-53.3	-84.4	295	15
2023-09-24T00:00	28132	16	-53.2	-83.8	294	15
2023-09-24T00:00	28146	16	-53.1	-83.7	293	15
2023-09-24T00:00	28189	16	-53.1	-83.7	292	15
2023-09-24T00:00	28210	16	-53.2	-84.4	292	14
2023-09-24T00:00	28228	16	-52.8	-84.1	292	14
2023-09-24T00:00	28266	16	-52.4	-83.8	292	13
2023-09-24T00:00	28285	15	-52.2	-83.6	292	12
2023-09-24T00:00	28317	15	-52.2	-83.6	291	12
2023-09-24T00:00	28337	15	-52.1	-83.5	290	11
2023-09-24T00:00	28356	15	-52.0	-83.5	289	11
2023-09-24T00:00	28385	15	-52.0	-83.5	288	10
2023-09-24T00:00	28421	15	-52.0	-83.5	288	10
2023-09-24T00:00	28449	15	-52.1	-83.0	288	10
2023-09-24T00:00	28478	15	-52.1	-83.0	288	9
2023-09-24T00:00	28498	15	-52.2	-83.1	289	9
2023-09-24T00:00	28523	15	-52.2	-83.1	290	9
2023-09-24T00:00	28565	15	-52.3	-83.1	290	9
2023-09-24T00:00	28583	15	-52.3	-83.1	291	9
2023-09-24T00:00	28614	15	-52.4	-83.2	291	9
2023-09-24T00:00	28647	15	-52.4	-83.8	290	9
2023-09-24T00:00	28664	15	-52.0	-83.5	289	9
2023-09-24T00:00	28697	15	-51.9	-83.4	288	9
2023-09-24T00:00	28739	14	-52.0	-83.5	285	9
2023-09-24T00:00	28758	14	-52.1	-83.5	283	9
2023-09-24T00:00	28790	14	-51.7	-83.2	280	9
2023-09-24T00:00	28818	14	-51.6	-83.2	278	9
2023-09-24T00:00	28840	14	-51.5	-83.1	275	10
2023-09-24T00:00	28875	14	-51.5	-83.1	273	10
2023-09-24T00:00	28894	14	-51.6	-83.2	270	11
2023-09-24T00:00	28929	14	-51.7	-83.2	268	11
2023-09-24T00:00	28950	14	-51.5	-83.1	265	12
2023-09-24T00:00	28990	14	-51.6	-83.2	263	12
2023-09-24T00:00	29001	14	-51.8	-82.8	262	13
2023-09-24T00:00	29040	14	-51.8	-82.8	261	13
2023-09-24T00:00	29075	14	-51.9	-82.8	261	14
2023-09-24T00:00	29099	14	-51.9	-82.8	262	14
2023-09-24T00:00	29130	14	-51.9	-82.8	264	14
2023-09-24T00:00	29159	14	-51.9	-82.8	266	15
2023-09-24T00:00	29189	13	-51.9	-83.4	268	14
2023-09-24T00:00	29224	13	-51.9	-83.4	270	14
2023-09-24T00:00	29233	13	-51.8	-83.3	272	14
2023-09-24T00:00	29270	13	-51.8	-83.3	273	13
2023-09-24T00:00	29288	13	-51.8	-83.3	273	12
2023-09-24T00:00	29318	13	-51.8	-83.3	273	12
2023-09-24T00:00	29332	13	-51.7	-83.2	273	11
2023-09-24T00:00	29370	13	-51.6	-83.2	272	11
2023-09-24T00:00	29383	13	-51.5	-83.1	272	11
2023-09-24T00:00	29406	13	-51.2	-82.9	273	11
2023-09-24T00:00	29436	13	-51.0	-82.7	273	11
2023-09-24T00:00	29469	13	-51.1	-82.8	274	11
2023-09-24T00:00	29486	13	-51.1	-83.4	275	11
2023-09-24T00:00	29508	13	-50.8	-83.2	276	11
2023-09-24T00:00	29529	13	-50.5	-83.0	276	11
2023-09-24T00:00	29574	13	-50.3	-82.8	275	11
2023-09-24T00:00	29578	13	-49.9	-82.5	274	11
2023-09-24T00:00	29610	13	-49.8	-82.5	272	10
2023-09-24T00:00	29636	13	-49.4	-82.2	269	10
2023-09-24T00:00	29661	13	-49.2	-82.0	266	10
2023-09-24T00:00	29679	13	-49.0	-81.9	263	10
2023-09-24T00:00	29709	12	-49.0	-81.9	260	10
2023-09-24T00:00	29735	12	-49.1	-82.0	257	10
2023-09-24T00:00	29740	12	-49.0	-81.9	253	10
2023-09-24T00:00	29770	12	-48.8	-81.7	249	10
2023-09-24T00:00	29790	12	-48.6	-81.6	245	10
2023-09-24T00:00	29821	12	-48.5	-81.5	240	10
2023-09-24T00:00	29841	12	-48.4	-81.4	235	10
2023-09-24T00:00	29865	12	-48.4	-81.4	231	9
2023-09-24T00:00	29903	12	-48.4	-81.4	227	9
2023-09-24T00:00	29918	12	-48.4	-81.4	223	9
2023-09-24T00:00	29959	12	-48.3	-81.4	222	9
2023-09-24T06:00	112	1011	9.0	8.1	260	2
2023-09-24T06:00	135	1008	9.6	8.5	275	3
2023-09-24T06:00	162	1005	10.7	8.6	277	4
2023-09-24T06:00	187	1002	11.1	8.8	280	6
2023-09-24T06:00	216	999	11.4	8.9	284	6
2023-09-24T06:00	241	996	11.5	9.3	288	7
2023-09-24T06:00	262	993	11.7	9.7	293	7
2023-09-24T06:00	285	990	11.8	10.0	297	8
2023-09-24T06:00	312	987	11.7	10.1	300	8
2023-09-24T06:00	338	984	11.5	10.1	303	8
2023-09-24T06:00	362	981	11.3	10.0	305	8
2023-09-24T06:00	386	978	11.1	10.0	308	8
2023-09-24T06:00	411	975	10.9	10.0	310	7
2023-09-24T06:00	439	972	10.7	10.0	312	7
2023-09-24T06:00	461	970	10.5	9.9	313	7
2023-09-24T06:00	484	967	10.3	9.8	313	7
2023-09-24T06:00	515	964	10.1	10.0	311	7
2023-09-24T06:00	541	960	9.9	9.8	309	6
2023-09-24T06:00	566	957	9.9	9.7	305	5
2023-09-24T06:00	591	955	9.8	9.6	300	5
2023-09-24T06:00	615	952	9.7	9.2	293	4
2023-09-24T06:00	638	949	9.6	8.8	286	4
2023-09-24T06:00	660	947	9.5	8.7	282	4
2023-09-24T06:00	685	944	9.5	8.1	281	5
2023-09-24T06:00	713	941	9.4	8.4	283	5
2023-09-24T06:00	737	938	9.3	7.7	285	5
2023-09-24T06:00	764	935	9.4	7.2	287	5
2023-09-24T06:00	786	932	9.3	6.8	289	5
2023-09-24T06:00	810	930	9.3	6.5	290	5
2023-09-24T06:00	836	927	9.1	6.7	290	5
2023-09-24T06:00	863	924	8.9	6.3	290	5
2023-09-24T06:00	891	921	8.8	6.0	290	5
2023-09-24T06:00	923	917	8.6	5.7	291	5
2023-09-24T06:00	954	914	8.5	4.9	291	6
2023-09-24T06:00	983	911	8.4	5.0	292	6
2023-09-24T06:00	1009	908	8.1	5.6	293	6
2023-09-24T06:00	1038	905	7.9	5.4	293	6
2023-09-24T06:00	1065	902	7.7	5.3	292	6
2023-09-24T06:00	1093	899	7.4	5.0	290	6
2023-09-24T06:00	1119	896	7.2	5.5	289	6
2023-09-24T06:00	1145	893	7.0	5.5	289	6
2023-09-24T06:00	1173	890	6.9	5.3	290	6
2023-09-24T06:00	1202	887	6.7	5.0	292	6
2023-09-24T06:00	1227	884	6.5	4.7	294	6
2023-09-24T06:00	1253	881	6.3	4.6	296	6
2023-09-24T06:00	1281	878	6.1	4.3	296	6
2023-09-24T06:00	1311	875	5.9	4.0	296	6
2023-09-24T06:00	1338	872	5.7	3.8	295	6
2023-09-24T06:00	1371	869	5.6	3.4	294	6
2023-09-24T06:00	1399	866	5.4	3.4	294	6
2023-09-24T06:00	1427	863	5.2	3.4	296	6
2023-09-24T06:00	1453	860	5.0	3.4	298	6
2023-09-24T06:00	1481	857	4.9	3.3	302	6
2023-09-24T06:00	1508	854	4.8	2.7	305	6
2023-09-24T06:00	1538	851	4.7	2.6	307	6
2023-09-24T06:00	1566	848	4.5	2.8	309	6
2023-09-24T06:00	1593	845	4.4	2.2	309	6
2023-09-24T06:00	1623	842	4.3	1.8	309	7
2023-09-24T06:00	1650	839	4.2	1.5	309	7
2023-09-24T06:00	1679	837	4.0	1.6	308	7
2023-09-24T06:00	1704	834	3.9	1.4	307	7
2023-09-24T06:00	1734	831	3.7	1.3	307	7
2023-09-24T06:00	1760	828	3.6	1.0	306	7
2023-09-24T06:00	1785	826	3.4	1.2	306	7
2023-09-24T06:00	1810	823	3.2		307	7
2023-09-24T06:00	1835	821	2.9	0.8	309	7
2023-09-24T06:00	1866	818	2.7	0.8	310	7
2023-09-24T06:00	1896	815	2.5	0.3	311	7
2023-09-24T06:00	1921	812	2.3	-0.2	311	7
2023-09-24T06:00	1949	809	2.2		310	7
2023-09-24T06:00	1980	806	1.9	0.1	309	7
2023-09-24T06:00	2009	803	1.8	-0.2	308	7
2023-09-24T06:00	2037	800	1.6	-0.3	307	7
2023-09-24T06:00	2066	798	1.5	-0.8	306	7
2023-09-24T06:00	2095	795	1.3	-1.0	305	7
2023-09-24T06:00	2124	792	1.0	-1.3	305	7
2023-09-24T06:00	2153	789	0.8	-1.5	304	7
2023-09-24T06:00	2181	786	0.6	-1.5	304	7
2023-09-24T06:00	2209	783	0.3	-1.6	304	7
2023-09-24T06:00	2240	781	0.1	-1.6	306	7
2023-09-24T06:00	2266	778	-0.1	-1.8	308	7
2023-09-24T06:00	2291	775	-0.3	-2.0	312	7
2023-09-24T06:00	2322	773	-0.4	-2.1	315	7
2023-09-24T06:00	2349	770	-0.5	-2.7	318	7
2023-09-24T06:00	2376	767	-0.7	-3.2	321	7
2023-09-24T06:00	2402	765	-0.7	-3.9	322	7
2023-09-24T06:00	2431	762	-0.7	-4.3	323	7
2023-09-24T06:00	2458	759	-0.8	-4.6	324	7
2023-09-24T06:00	2485	757	-0.8	-4.7	325	7
2023-09-24T06:00	2510	754	-0.8	-5.2	326	7
2023-09-24T06:00	2538	752	-0.7	-6.7	327	7
2023-09-24T06:00	2567	749	-0.7	-7.2	328	7
2023-09-24T06:00	2591	747	-0.9	-7.4	328	7
2023-09-24T06:00	2619	744	-1.0	-7.6	328	7
2023-09-24T06:00	2648	742	-1.1	-8.0	327	8
2023-09-24T06:00	2675	739	-1.0	-9.6	327	8
2023-09-24T06:00	2705	736	-1.1	-11.0	327	8
2023-09-24T06:00	2730	734	-1.2	-12.0	327	8
2023-09-24T06:00	2758	731	-1.5	-12.5	327	8
2023-09-24T06:00	2785	729	-1.7	-12.7	326	8
2023-09-24T06:00	2812	726	-1.9	-12.8	325	8
2023-09-24T06:00	2841	724	-2.1	-13.4	323	8
2023-09-24T06:00	2866	722	-2.1	-14.5	321	7
2023-09-24T06:00	2893	719	-2.2	-12.6	318	7
2023-09-24T06:00	2920	717	-2.3	-14.4	315	7
2023-09-24T06:00	2944	715	-2.4	-14.6	312	7
2023-09-24T06:00	2970	712	-2.5	-14.8	309	6
2023-09-24T06:00	2996	710	-2.6	-14.1	306	6
2023-09-24T06:00	3023	708	-2.8	-12.6	303	6
2023-09-24T06:00	3047	705	-3.0	-10.2	301	6
2023-09-24T06:00	3073	703	-2.8	-12.0	300	6
2023-09-24T06:00	3099	701	-2.7	-14.0	298	7
2023-09-24T06:00	3124	698	-2.6	-16.7	296	7
2023-09-24T06:00	3154	696	-2.6	-15.7	293	7
2023-09-24T06:00	3178	694	-2.9	-14.5	290	7
2023-09-24T06:00	3203	691	-3.1	-12.9	288	7
2023-09-24T06:00	3231	689	-3.2	-12.9	286	7
2023-09-24T06:00	3258	687	-3.3	-13.9	285	7
2023-09-24T06:00	3282	685	-3.3	-14.7	283	6
2023-09-24T06:00	3310	682	-3.3	-13.7	283	6
2023-09-24T06:00	3336	680	-3.3	-13.4	283	6
2023-09-24T06:00	3365	678	-3.5	-13.4	284	6
2023-09-24T06:00	3392	675	-3.7	-13.5	285	6
2023-09-24T06:00	3422	673	-3.9	-13.4	285	6
2023-09-24T06:00	3452	670	-4.1	-13.5	284	6
2023-09-24T06:00	3481	668	-4.3	-14.3	283	6
2023-09-24T06:00	3509	665	-4.2	-18.6	282	6
2023-09-24T06:00	3539	663	-4.4	-19.9	281	6
2023-09-24T06:00	3564	661	-4.5	-21.4	280	6
2023-09-24T06:00	3591	658	-4.6	-17.5	279	6
2023-09-24T06:00	3618	656	-4.7	-17.7	277	6
2023-09-24T06:00	3646	654	-4.8	-19.2	275	6
2023-09-24T06:00	3674	651	-5.0	-20.6	274	6
2023-09-24T06:00	3703	649	-5.2	-21.6	275	6
2023-09-24T06:00	3732	647	-5.5	-22.0	277	6
2023-09-24T06:00	3757	644	-5.7	-22.1	279	6
2023-09-24T06:00	3787	642	-5.9	-22.8	282	6
2023-09-24T06:00	3814	640	-6.2	-21.4	284	6
2023-09-24T06:00	3845	637	-6.4	-19.5	286	6
2023-09-24T06:00	3876	635	-6.6	-21.3	286	6
2023-09-24T06:00	3904	633	-6.5	-28.0	286	6
2023-09-24T06:00	3933	630	-6.6	-25.1	285	6
2023-09-24T06:00	3959	628	-6.8	-23.7	284	5
2023-09-24T06:00	3988	626	-7.0	-23.8	283	5
2023-09-24T06:00	4017	623	-7.2	-23.2	281	5
2023-09-24T06:00	4047	621	-7.4	-23.5	280	5
2023-09-24T06:00	4073	619	-7.5	-22.8	281	5
2023-09-24T06:00	4102	617	-7.7	-22.4	284	5
2023-09-24T06:00	4131	614	-7.8	-23.8	288	6
2023-09-24T06:00	4163	612	-7.9	-22.1	292	6
2023-09-24T06:00	4191	610	-8.1	-22.5	295	6
2023-09-24T06:00	4220	607	-8.3	-23.6	298	6
2023-09-24T06:00	4250	605	-8.4	-24.7	299	7
2023-09-24T06:00	4277	603	-8.3	-28.0	299	7
2023-09-24T06:00	4308	601	-8.5	-31.3	299	7
2023-09-24T06:00	4336	598	-8.5	-41.4	298	7
2023-09-24T06:00	4366	596	-8.7	-40.9	297	7
2023-09-24T06:00	4394	594	-8.9	-35.2	296	6
2023-09-24T06:00	4424	592	-8.9	-33.3	296	6
2023-09-24T06:00	4455	589	-9.1	-32.0	299	6
2023-09-24T06:00	4485	587	-9.3	-33.7	302	6
2023-09-24T06:00	4513	585	-9.6	-35.7	306	6
2023-09-24T06:00	4543	583	-9.7	-43.0	309	6
2023-09-24T06:00	4574	580	-9.8	-42.9	311	6
2023-09-24T06:00	4603	578	-10.1	-42.8	311	6
2023-09-24T06:00	4633	576	-10.3	-42.5	310	6
2023-09-24T06:00	4658	574	-10.6	-41.9	308	6
2023-09-24T06:00	4687	572	-10.8	-41.5	307	6
2023-09-24T06:00	4713	570	-11.0	-41.2	305	6
2023-09-24T06:00	4741	568	-11.2	-41.0	304	6
2023-09-24T06:00	4770	566	-11.5	-40.9	304	6
2023-09-24T06:00	4798	564	-11.8	-40.8	303	6
2023-09-24T06:00	4827	561	-12.0	-40.8	302	6
2023-09-24T06:00	4855	559	-12.2	-40.8	301	6
2023-09-24T06:00	4885	557	-12.4	-41.1	301	6
2023-09-24T06:00	4913	555	-12.7	-41.2	301	6
2023-09-24T06:00	4943	553	-12.9	-40.7	301	6
2023-09-24T06:00	4974	551	-13.2	-40.3	302	6
2023-09-24T06:00	5001	549	-13.4	-38.9	303	5
2023-09-24T06:00	5030	547	-13.7	-39.6	305	5
2023-09-24T06:00	5060	545	-13.8	-38.2	308	5
2023-09-24T06:00	5088	543	-14.1	-38.3	310	5
2023-09-24T06:00	5118	540	-14.4	-38.5	311	5
2023-09-24T06:00	5149	538	-14.7	-38.9	312	6
2023-09-24T06:00	5185	536	-15.0	-39.4	313	6
2023-09-24T06:00	5211	534	-15.2	-39.7	314	6
2023-09-24T06:00	5242	532	-15.5	-38.6	315	6
2023-09-24T06:00	5272	529	-15.7	-37.2	315	6
2023-09-24T06:00	5299	528	-16.0	-36.5	316	6
2023-09-24T06:00	5326	526	-16.2	-37.9	316	6
2023-09-24T06:00	5356	524	-16.4	-39.0	315	5
2023-09-24T06:00	5388	521	-16.7	-37.4	314	5
2023-09-24T06:00	5415	519	-17.0	-36.8	312	5
2023-09-24T06:00	5446	517	-17.2	-34.7	310	5
2023-09-24T06:00	5477	515	-17.5	-35.2	307	5
2023-09-24T06:00	5503	513	-17.7	-35.6	305	5
2023-09-24T06:00	5535	511	-17.9	-36.5	303	6
2023-09-24T06:00	5561	509	-18.0	-37.4	301	6
2023-09-24T06:00	5587	508	-18.3	-36.9	300	5
2023-09-24T06:00	5615	506	-18.5	-37.1	298	5
2023-09-24T06:00	5643	504	-18.7	-37.2	297	5
2023-09-24T06:00	5663	502	-18.8	-37.1	296	6
2023-09-24T06:00	5698	500	-19.1	-37.4	296	6
2023-09-24T06:00	5725	498	-19.3	-37.5	296	6
2023-09-24T06:00	5755	496	-19.5	-38.1	297	6
2023-09-24T06:00	5786	494	-19.8	-38.3	297	6
2023-09-24T06:00	5816	492	-20.0	-38.5	298	6
2023-09-24T06:00	5844	491	-20.3	-38.9	299	6
2023-09-24T06:00	5866	489	-20.5	-38.6	299	6
2023-09-24T06:00	5887	488	-20.6	-38.7	299	6
2023-09-24T06:00	5915	486	-20.8	-38.4	299	6
2023-09-24T06:00	5947	484	-21.0	-38.7	298	7
2023-09-24T06:00	5976	482	-21.2	-39.2	298	7
2023-09-24T06:00	6008	480	-21.4	-39.7	297	7
2023-09-24T06:00	6041	478	-21.7	-40.2	296	6
2023-09-24T06:00	6070	476	-21.7	-41.2	295	6
2023-09-24T06:00	6100	474	-21.9	-41.9	293	6
2023-09-24T06:00	6130	472	-22.1	-42.4	290	5
2023-09-24T06:00	6156	470	-22.3	-42.6	288	5
2023-09-24T06:00	6190	468	-22.6	-42.7	286	5
2023-09-24T06:00	6220	466	-22.9	-42.8	285	5
2023-09-24T06:00	6251	464	-23.1	-42.7	286	5
2023-09-24T06:00	6280	462	-23.4	-42.8	288	5
2023-09-24T06:00	6312	460	-23.7	-42.9	290	4
2023-09-24T06:00	6348	458	-24.1	-43.0	294	4
2023-09-24T06:00	6379	456	-24.4	-43.1	296	5
2023-09-24T06:00	6410	454	-24.7	-43.1	298	5
2023-09-24T06:00	6441	452	-24.7	-44.2	299	5
2023-09-24T06:00	6478	450	-24.8	-45.9	299	5
2023-09-24T06:00	6505	448	-24.9	-47.2	299	6
2023-09-24T06:00	6531	447	-25.0	-47.6	300	6
2023-09-24T06:00	6565	445	-25.2	-47.5	302	6
2023-09-24T06:00	6594	443	-25.5	-47.5	303	5
2023-09-24T06:00	6624	441	-25.8	-47.5	304	5
2023-09-24T06:00	6660	439	-26.0	-47.5	303	5
2023-09-24T06:00	6691	437	-26.3	-47.8	301	5
2023-09-24T06:00	6716	435	-26.6	-47.8	298	4
2023-09-24T06:00	6744	434	-26.8	-47.7	294	5
2023-09-24T06:00	6767	432	-27.0	-47.9	292	5
2023-09-24T06:00	6790	431	-27.2	-48.4	292	5
2023-09-24T06:00	6821	429	-27.5	-48.4	293	5
2023-09-24T06:00	6852	427	-27.7	-48.8	295	5
2023-09-24T06:00	6877	426	-27.9	-48.9	298	6
2023-09-24T06:00	6905	424	-28.1	-49.6	300	6
2023-09-24T06:00	6931	423	-28.2	-49.9	302	6
2023-09-24T06:00	6959	421	-28.4	-50.2	304	6
2023-09-24T06:00	6991	419	-28.7	-50.3	305	6
2023-09-24T06:00	7024	417	-28.9	-50.7	305	6
2023-09-24T06:00	7051	415	-29.2	-51.0	306	6
2023-09-24T06:00	7086	414	-29.4	-51.3	306	6
2023-09-24T06:00	7113	412	-29.7	-51.7	308	5
2023-09-24T06:00	7139	410	-29.8	-52.5	311	5
2023-09-24T06:00	7172	409	-30.1	-53.2	316	4
2023-09-24T06:00	7201	407	-30.3	-53.3	322	4
2023-09-24T06:00	7232	405	-30.5	-53.8	327	4
2023-09-24T06:00	7267	403	-30.7	-54.2	330	4
2023-09-24T06:00	7292	402	-30.9	-54.3	329	4
2023-09-24T06:00	7323	400	-31.1	-54.4	326	4
2023-09-24T06:00	7356	398	-31.3	-54.1	323	4
2023-09-24T06:00	7387	396	-31.7	-54.3	320	5
2023-09-24T06:00	7416	395	-31.9	-54.6	319	5
2023-09-24T06:00	7448	393	-32.1	-54.5	319	5
2023-09-24T06:00	7481	391	-32.4	-54.7	322	5
2023-09-24T06:00	7507	390	-32.6	-54.9	325	6
2023-09-24T06:00	7539	388	-32.8	-55.1	328	6
2023-09-24T06:00	7571	386	-33.0	-55.2	330	6
2023-09-24T06:00	7592	385	-33.2	-55.1	331	7
2023-09-24T06:00	7616	384	-33.4	-55.3	331	7
2023-09-24T06:00	7643	382	-33.6	-55.2	331	7
2023-09-24T06:00	7667	381	-33.8	-55.1	331	7
2023-09-24T06:00	7696	379	-34.0	-55.1	331	7
2023-09-24T06:00	7728	378	-34.2	-55.4	331	7
2023-09-24T06:00	7751	376	-34.4	-55.5	333	7
2023-09-24T06:00	7780	375	-34.6	-55.5	335	7
2023-09-24T06:00	7802	374	-34.8	-55.9	338	7
2023-09-24T06:00	7830	372	-35.0	-55.9	341	7
2023-09-24T06:00	7855	371	-35.2	-55.9	342	7
2023-09-24T06:00	7878	369	-35.4	-56.0	342	7
2023-09-24T06:00	7916	368	-35.7	-56.3	340	7
2023-09-24T06:00	7941	366	-35.8	-56.7	337	7
2023-09-24T06:00	7966	365	-35.9	-56.7	335	7
2023-09-24T06:00	7990	364	-36.1	-56.8	333	7
2023-09-24T06:00	8015	362	-36.3	-56.8	332	7
2023-09-24T06:00	8043	361	-36.5	-57.0	332	7
2023-09-24T06:00	8072	359	-36.6	-57.0	331	7
2023-09-24T06:00	8100	358	-36.8	-57.0	331	7
2023-09-24T06:00	8126	356	-37.0	-56.8	331	7
2023-09-24T06:00	8162	355	-37.0	-56.8	332	7
2023-09-24T06:00	8189	353	-37.1	-57.1	332	8
2023-09-24T06:00	8216	352	-37.3	-57.3	334	8
2023-09-24T06:00	8248	350	-37.4	-57.9	336	9
2023-09-24T06:00	8278	349	-37.6	-58.4	338	9
2023-09-24T06:00	8298	348	-37.7	-58.9	340	10
2023-09-24T06:00	8331	346	-37.9	-59.0	342	10
2023-09-24T06:00	8369	344	-38.1	-58.3	343	10
2023-09-24T06:00	8400	343	-38.4	-58.6	344	10
2023-09-24T06:00	8427	341	-38.7	-58.7	344	10
2023-09-24T06:00	8460	340	-39.0	-58.5	344	10
2023-09-24T06:00	8492	338	-39.3	-58.1	344	10
2023-09-24T06:00	8522	337	-39.6	-57.9	345	10
2023-09-24T06:00	8551	335	-39.8	-57.2	346	11
2023-09-24T06:00	8578	334	-40.0	-57.0	346	10
2023-09-24T06:00	8603	333	-40.2	-57.2	346	10
2023-09-24T06:00	8633	331	-40.5	-57.2	345	10
2023-09-24T06:00	8664	330	-40.6	-57.5	344	10
2023-09-24T06:00	8694	328	-40.8	-58.2	344	9
2023-09-24T06:00	8717	327	-41.0	-58.6	345	9
2023-09-24T06:00	8740	326	-41.1	-59.2	347	9
2023-09-24T06:00	8769	325	-41.3	-59.5	349	9
2023-09-24T06:00	8795	323	-41.4	-59.9	351	9
2023-09-24T06:00	8821	322	-41.5	-60.2	351	9
2023-09-24T06:00	8847	321	-41.7	-60.5	350	9
2023-09-24T06:00	8873	320	-41.9	-60.3	347	9
2023-09-24T06:00	8901	318	-42.1	-60.4	344	10
2023-09-24T06:00	8938	317	-42.2	-60.7	342	10
2023-09-24T06:00	8973	315	-42.4	-61.1	341	11
2023-09-24T06:00	9011	313	-42.7	-61.2	341	12
2023-09-24T06:00	9034	312	-42.6	-61.5	342	13
2023-09-24T06:00	9059	311	-42.8	-61.2	343	13
2023-09-24T06:00	9085	310	-42.8	-60.9	345	13
2023-09-24T06:00	9119	308	-42.9	-61.3	346	14
2023-09-24T06:00	9148	307	-43.0	-62.0	347	14
2023-09-24T06:00	9173	306	-43.3	-62.9	348	13
2023-09-24T06:00	9198	305	-43.4	-63.0	349	13
2023-09-24T06:00	9220	304	-43.7	-63.0	349	13
2023-09-24T06:00	9242	303	-43.8	-63.0	350	14
2023-09-24T06:00	9270	301	-43.9	-63.4	350	14
2023-09-24T06:00	9305	300	-44.1	-64.1	350	15
2023-09-24T06:00	9329	299	-44.2	-64.5	349	16
2023-09-24T06:00	9349	298	-44.4	-64.6	349	16
2023-09-24T06:00	9371	297	-44.5	-65.0	348	16
2023-09-24T06:00	9394	296	-44.6	-65.3	346	16
2023-09-24T06:00	9417	295	-44.8	-65.3	345	16
2023-09-24T06:00	9444	294	-44.7	-65.5	344	17
2023-09-24T06:00	9472	292	-44.6	-66.4	344	17
2023-09-24T06:00	9507	291	-44.3	-67.0	344	17
2023-09-24T06:00	9534	290	-44.4	-67.1	344	17
2023-09-24T06:00	9561	289	-44.5	-67.2	344	17
2023-09-24T06:00	9583	288	-44.7	-67.3	345	17
2023-09-24T06:00	9610	286	-44.5	-67.3	345	18
2023-09-24T06:00	9639	285	-44.7	-67.6	346	18
2023-09-24T06:00	9661	284	-44.6	-67.7	347	18
2023-09-24T06:00	9685	283	-44.4	-67.6	348	18
2023-09-24T06:00	9706	282	-44.5	-67.7	349	18
2023-09-24T06:00	9730	281	-44.7	-67.7	349	18
2023-09-24T06:00	9751	280	-44.8	-67.7	350	17
2023-09-24T06:00	9780	279	-44.8	-68.1	351	16
2023-09-24T06:00	9804	278	-44.9	-68.5	351	16
2023-09-24T06:00	9829	277	-45.0	-68.7	351	15
2023-09-24T06:00	9852	276	-45.1	-68.8	350	14
2023-09-24T06:00	9873	275	-45.1	-68.8	349	14
2023-09-24T06:00	9896	274	-45.2	-68.7	347	13
2023-09-24T06:00	9920	273	-45.2	-68.7	346	13
2023-09-24T06:00	9948	272	-45.3	-68.6	345	13
2023-09-24T06:00	9979	271	-45.5	-68.8	344	14
2023-09-24T06:00	10005	270	-45.8	-69.1	345	14
2023-09-24T06:00	10039	269	-45.8	-69.1	346	15
2023-09-24T06:00	10073	267	-45.9	-69.1	348	16
2023-09-24T06:00	10094	266	-45.9	-69.1	351	16
2023-09-24T06:00	10118	265	-46.1	-69.3	353	16
2023-09-24T06:00	10142	265	-46.2	-69.2	354	17
2023-09-24T06:00	10164	264	-46.3	-69.0	355	17
2023-09-24T06:00	10189	263	-46.4	-68.8	355	17
2023-09-24T06:00	10214	262	-46.4	-68.6	355	17
2023-09-24T06:00	10241	261	-46.5	-68.4	353	16
2023-09-24T06:00	10273	259	-46.7	-69.1	351	16
2023-09-24T06:00	10312	258	-46.9	-69.8	350	16
2023-09-24T06:00	10343	257	-47.1	-70.0	348	15
2023-09-24T06:00	10373	256	-47.4	-70.1	348	15
2023-09-24T06:00	10396	255	-47.6	-70.1	349	14
2023-09-24T06:00	10415	254	-47.8	-70.1	350	14
2023-09-24T06:00	10450	253	-48.1	-70.1	352	13
2023-09-24T06:00	10484	251	-48.1	-70.2	352	13
2023-09-24T06:00	10511	250	-48.3	-70.5	352	13
2023-09-24T06:00	10537	249	-48.6	-70.6	351	12
2023-09-24T06:00	10568	248	-48.8	-70.7	348	12
2023-09-24T06:00	10594	247	-49.0	-70.7	346	12
2023-09-24T06:00	10629	246	-49.3	-71.1	344	12
2023-09-24T06:00	10661	245	-49.1	-71.2	343	12
2023-09-24T06:00	10691	243	-48.9	-71.3	344	12
2023-09-24T06:00	10724	242	-49.2	-71.4	345	12
2023-09-24T06:00	10759	241	-49.4	-71.3	346	13
2023-09-24T06:00	10781	240	-49.7	-71.4	347	13
2023-09-24T06:00	10810	239	-49.8	-71.5	347	13
2023-09-24T06:00	10833	238	-49.8	-71.7	346	13
2023-09-24T06:00	10857	237	-49.5	-71.9	345	13
2023-09-24T06:00	10880	237	-49.2	-72.1	345	13
2023-09-24T06:00	10898	236	-48.9	-72.2	344	13
2023-09-24T06:00	10921	235	-49.0	-72.2	344	13
2023-09-24T06:00	10943	234	-49.1		344	13
2023-09-24T06:00	10962	234	-49.2	-72.6	344	12
2023-09-24T06:00	10982	233	-49.1	-73.0	343	12
2023-09-24T06:00	11003	232	-49.2	-73.1	342	12
2023-09-24T06:00	11024	231	-49.4	-73.4	340	12
2023-09-24T06:00	11045	231	-49.4	-73.6	339	12
2023-09-24T06:00	11068	230	-49.2	-74.0	338	12
2023-09-24T06:00	11087	229	-49.2	-74.4	336	12
2023-09-24T06:00	11108	228	-49.3	-74.7	335	12
2023-09-24T06:00	11130	228	-49.3	-74.7	334	12
2023-09-24T06:00	11150	227	-49.4	-74.7	333	13
2023-09-24T06:00	11169	226	-49.4	-75.0	333	13
2023-09-24T06:00	11192	226	-49.5	-75.0	333	13
2023-09-24T06:00	11211	225	-49.6	-75.1	334	13
2023-09-24T06:00	11233	224	-49.7	-75.0	335	13
2023-09-24T06:00	11255	223	-49.8	-75.1	335	13
2023-09-24T06:00	11275	223	-49.7	-75.4	336	12
2023-09-24T06:00	11301	222	-49.4	-75.7	337	12
2023-09-24T06:00	11334	221	-49.2	-76.6	338	11
2023-09-24T06:00	11368	220	-48.6	-76.7	338	10
2023-09-24T06:00	11401	218	-48.5	-76.9	338	10
2023-09-24T06:00	11434	217	-48.8	-77.2	338	9
2023-09-24T06:00	11470	216	-49.1	-77.1	338	9
2023-09-24T06:00	11507	215	-49.4	-77.3	337	8
2023-09-24T06:00	11539	214	-49.8	-77.3	336	8
2023-09-24T06:00	11562	213	-50.0	-77.5	336	8
2023-09-24T06:00	11584	212	-50.2	-77.6	336	8
2023-09-24T06:00	11605	212	-50.2	-77.6	337	9
2023-09-24T06:00	11629	211	-50.1	-77.5	338	9
2023-09-24T06:00	11652	210	-50.2	-77.6	339	9
2023-09-24T06:00	11676	209	-50.4	-77.8	340	9
2023-09-24T06:00	11698	209	-50.4	-77.8	341	8
2023-09-24T06:00	11722	208	-50.5	-77.9	341	8
2023-09-24T06:00	11742	207	-50.5	-77.9	341	8
2023-09-24T06:00	11764	207	-50.7	-78.0	340	8
2023-09-24T06:00	11788	206	-50.7	-78.0	338	8
2023-09-24T06:00	11808	205	-50.8	-78.1	335	8
2023-09-24T06:00	11831	205	-50.8	-78.1	332	8
2023-09-24T06:00	11854	204	-51.0	-78.2	329	7
2023-09-24T06:00	11877	203	-51.1	-78.3	325	7
2023-09-24T06:00	11900	202	-51.2	-78.4	322	7
2023-09-24T06:00	11924	202	-51.3	-78.8	318	7
2023-09-24T06:00	11945	201	-51.4	-78.8	313	6
2023-09-24T06:00	11971	200	-51.6	-78.7	309	7
2023-09-24T06:00	11995	199	-51.7	-78.8	306	7
2023-09-24T06:00	12017	199	-51.9	-78.9	304	7
2023-09-24T06:00	12044	198	-51.6	-79.0	304	7
2023-09-24T06:00	12066	197	-51.5	-78.9	304	7
2023-09-24T06:00	12086	197	-51.5	-79.2	305	7
2023-09-24T06:00	12110	196	-51.3	-79.1	306	7
2023-09-24T06:00	12132	195	-51.1	-79.3	306	7
2023-09-24T06:00	12154	195	-51.0	-79.2	306	7
2023-09-24T06:00	12176	194	-51.1	-79.3	305	7
2023-09-24T06:00	12200	193	-51.2	-79.3	304	7
2023-09-24T06:00	12222	193	-51.3	-79.1	303	7
2023-09-24T06:00	12245	192	-51.5	-79.2	301	7
2023-09-24T06:00	12269	191	-51.7	-79.4	299	7
2023-09-24T06:00	12295	190	-51.8	-79.5	297	7
2023-09-24T06:00	12318	190	-51.9	-79.5	295	7
2023-09-24T06:00	12341	189	-52.1	-79.7	294	7
2023-09-24T06:00	12362	188	-52.3	-79.5	293	7
2023-09-24T06:00	12386	188	-52.4	-79.6	291	7
2023-09-24T06:00	12407	187	-52.5	-79.7	289	8
2023-09-24T06:00	12429	186	-52.5	-80.0	287	8
2023-09-24T06:00	12452	186	-52.3	-79.9	285	8
2023-09-24T06:00	12475	185	-52.1	-80.0	282	9
2023-09-24T06:00	12498	185	-52.2	-80.1	280	9
2023-09-24T06:00	12521	184	-52.3	-79.9	279	9
2023-09-24T06:00	12546	183	-52.5	-80.0	279	10
2023-09-24T06:00	12568	183	-52.7	-80.2	279	10
2023-09-24T06:00	12594	182	-52.8	-80.2	280	11
2023-09-24T06:00	12617	181	-53.0	-80.4	282	11
2023-09-24T06:00	12642	180	-53.1	-80.5	284	11
2023-09-24T06:00	12667	180	-53.2	-80.5	286	12
2023-09-24T06:00	12692	179	-53.3	-80.3	288	12
2023-09-24T06:00	12716	178	-53.4	-80.4	290	12
2023-09-24T06:00	12742	178	-53.2	-80.2	292	12
2023-09-24T06:00	12767	177	-53.3	-80.6	293	13
2023-09-24T06:00	12792	176	-53.3	-80.6	295	13
2023-09-24T06:00	12818	176	-53.4	-80.4	297	13
2023-09-24T06:00	12843	175	-53.5	-80.5	299	14
2023-09-24T06:00	12871	174	-53.5	-80.5	300	14
2023-09-24T06:00	12894	174	-53.6	-80.2	301	14
2023-09-24T06:00	12917	173	-53.7	-80.3	302	14
2023-09-24T06:00	12943	172	-53.8	-80.4	301	14
2023-09-24T06:00	12966	172	-53.7	-80.3	300	14
2023-09-24T06:00	12990	171	-53.6	-80.5	298	14
2023-09-24T06:00	13015	170	-53.6	-80.5	296	14
2023-09-24T06:00	13038	170	-53.7	-80.6	295	14
2023-09-24T06:00	13063	169	-53.7	-80.6	294	15
2023-09-24T06:00	13088	168	-53.8	-80.7	295	15
2023-09-24T06:00	13110	168	-54.0	-80.6	295	15
2023-09-24T06:00	13133	167	-54.2	-80.7	297	15
2023-09-24T06:00	13158	167	-54.1	-80.6	298	15
2023-09-24T06:00	13181	166	-54.0	-80.9	300	15
2023-09-24T06:00	13202	165	-54.0	-80.9	301	15
2023-09-24T06:00	13225	165	-54.1	-80.9	302	15
2023-09-24T06:00	13246	164	-54.0	-81.2	302	15
2023-09-24T06:00	13269	164	-54.0	-81.2	302	15
2023-09-24T06:00	13293	163	-53.9	-81.1	302	15
2023-09-24T06:00	13314	163	-53.7	-81.3	302	15
2023-09-24T06:00	13335	162	-53.6	-81.2	302	15
2023-09-24T06:00	13358	161	-53.7	-81.3	304	15
2023-09-24T06:00	13379	161	-53.7	-81.3	305	15
2023-09-24T06:00	13400	160	-53.2	-81.2	306	15
2023-09-24T06:00	13422	160	-52.9	-81.0	307	15
2023-09-24T06:00	13441	159	-52.6	-81.1	308	15
2023-09-24T06:00	13463	159	-52.5	-81.4	309	15
2023-09-24T06:00	13481	158	-52.4	-81.4	310	15
2023-09-24T06:00	13503	158	-52.2	-81.2	310	15
2023-09-24T06:00	13522	157	-52.2	-81.2	311	15
2023-09-24T06:00	13542	157	-52.1	-81.1	311	14
2023-09-24T06:00	13564	156	-52.1	-81.1	310	14
2023-09-24T06:00	13583	156	-51.9	-81.4	309	14
2023-09-24T06:00	13604	155	-51.7	-81.2	309	14
2023-09-24T06:00	13625	155	-51.7	-81.2	308	15
2023-09-24T06:00	13646	154	-51.7	-81.2	308	15
2023-09-24T06:00	13665	154	-51.5	-81.1	308	15
2023-09-24T06:00	13689	153	-51.4	-81.5	309	15
2023-09-24T06:00	13708	153	-51.3	-81.4	309	15
2023-09-24T06:00	13730	152	-51.3	-81.4	310	15
2023-09-24T06:00	13752	152	-51.2	-81.3	310	15
2023-09-24T06:00	13775	151	-51.2	-80.9	311	14
2023-09-24T06:00	13798	151	-51.3	-80.9	311	14
2023-09-24T06:00	13822	150	-51.4	-81.0	311	13
2023-09-24T06:00	13848	150	-51.5	-81.5	311	12
2023-09-24T06:00	13871	149	-51.4	-81.5	310	11
2023-09-24T06:00	13895	149	-51.2	-81.3	309	10
2023-09-24T06:00	13919	148	-51.2	-81.3	308	10
2023-09-24T06:00	13942	147	-51.2	-81.3	307	9
2023-09-24T06:00	13967	147	-51.3	-81.4	307	9
2023-09-24T06:00	13988	146	-51.5	-81.1	307	9
2023-09-24T06:00	14015	146	-51.6	-81.2	307	9
2023-09-24T06:00	14038	145	-51.7	-81.2	307	9
2023-09-24T06:00	14061	145	-51.9	-81.4	307	9
2023-09-24T06:00	14084	144	-52.1	-81.5	308	10
2023-09-24T06:00	14109	144	-52.3	-81.7	308	10
2023-09-24T06:00	14131	143	-52.5	-81.4	309	10
2023-09-24T06:00	14159	143	-52.7	-81.6	311	10
2023-09-24T06:00	14185	142	-52.8	-81.7	312	10
2023-09-24T06:00	14209	142	-52.9	-81.7	314	10
2023-09-24T06:00	14233	141	-53.0	-81.8	316	10
2023-09-24T06:00	14257	140	-53.1	-81.9	318	10
2023-09-24T06:00	14282	140	-53.2	-82.0	319	10
2023-09-24T06:00	14306	139	-53.2	-82.0	319	9
2023-09-24T06:00	14330	139	-53.3	-82.0	318	9
2023-09-24T06:00	14356	138	-53.3	-82.0	317	9
2023-09-24T06:00	14384	138	-53.5	-82.2	316	9
2023-09-24T06:00	14411	137	-53.7	-82.3	316	9
2023-09-24T06:00	14435	137	-53.9	-82.1	315	9
2023-09-24T06:00	14460	136	-54.2	-82.3	314	9
2023-09-24T06:00	14487	136	-54.3	-82.4	313	9
2023-09-24T06:00	14512	135	-54.6	-82.6	312	9
2023-09-24T06:00	14538	135	-54.8	-82.8	310	9
2023-09-24T06:00	14563	134	-54.9	-82.5	309	9
2023-09-24T06:00	14586	133	-54.8	-82.8	309	8
2023-09-24T06:00	14611	133	-54.8	-82.8	310	8
2023-09-24T06:00	14633	132	-54.8	-82.8	311	8
2023-09-24T06:00	14657	132	-54.8	-82.8	313	9
2023-09-24T06:00	14680	132	-55.0	-82.9	314	9
2023-09-24T06:00	14702	131	-55.2	-82.7	315	9
2023-09-24T06:00	14726	131	-55.3	-82.8	316	9
2023-09-24T06:00	14747	130	-55.3	-82.8	315	9
2023-09-24T06:00	14770	130	-55.4	-82.9	314	9
2023-09-24T06:00	14795	129	-55.4	-82.9	313	9
2023-09-24T06:00	14816	129	-55.6	-83.1	312	9
2023-09-24T06:00	14841	128	-55.7	-83.1	311	9
2023-09-24T06:00	14861	128	-55.8	-83.2	310	9
2023-09-24T06:00	14883	127	-56.0	-83.4	310	9
2023-09-24T06:00	14903	127	-56.0	-83.4	309	9
2023-09-24T06:00	14926	127	-55.8	-83.6	309	9
2023-09-24T06:00	14949	126	-55.7	-83.5	307	9
2023-09-24T06:00	14974	126	-55.6	-83.4	305	9
2023-09-24T06:00	14998	125	-55.6	-83.4	303	9
2023-09-24T06:00	15021	125	-55.7	-83.5	301	9
2023-09-24T06:00	15043	124	-55.8	-83.6	299	9
2023-09-24T06:00	15065	124	-55.7	-83.5	297	9
2023-09-24T06:00	15089	123	-55.8	-83.6	296	9
2023-09-24T06:00	15111	123	-55.9	-83.3	296	9
2023-09-24T06:00	15131	123	-56.0	-83.4	297	9
2023-09-24T06:00	15155	122	-56.0	-83.4	299	9
2023-09-24T06:00	15175	122	-56.0	-83.4	301	9
2023-09-24T06:00	15197	121	-56.2	-83.5	303	9
2023-09-24T06:00	15216	121	-56.4	-83.3	305	10
2023-09-24T06:00	15238	120	-56.4	-83.3	307	10
2023-09-24T06:00	15261	120	-56.6	-83.8	309	10
2023-09-24T06:00	15280	120	-56.7	-83.9	310	10
2023-09-24T06:00	15300	119	-56.7	-83.9	311	10
2023-09-24T06:00	15320	119	-56.4	-84.0	312	10
2023-09-24T06:00	15342	119	-56.4	-84.0	311	10
2023-09-24T06:00	15363	118	-56.1	-83.8	310	10
2023-09-24T06:00	15383	118	-55.9	-83.6	309	9
2023-09-24T06:00	15407	117	-55.6	-83.8	306	9
2023-09-24T06:00	15427	117	-55.3	-83.6	303	9
2023-09-24T06:00	15448	117	-54.9	-83.3	300	9
2023-09-24T06:00	15470	116	-55.1	-83.4	298	8
2023-09-24T06:00	15496	116	-55.3	-83.6	296	8
2023-09-24T06:00	15516	115	-55.5	-83.7	295	8
2023-09-24T06:00	15540	115	-55.7	-83.9	295	8
2023-09-24T06:00	15562	114	-55.6	-83.8	296	8
2023-09-24T06:00	15587	114	-55.7	-83.9	297	8
2023-09-24T06:00	15610	114	-55.8	-83.9	297	8
2023-09-24T06:00	15636	113	-55.9	-84.0	297	8
2023-09-24T06:00	15659	113	-56.0	-84.1	297	8
2023-09-24T06:00	15685	112	-56.1	-84.2	297	8
2023-09-24T06:00	15709	112	-56.1	-84.2	296	8
2023-09-24T06:00	15736	111	-56.1	-84.2	296	7
2023-09-24T06:00	15759	111	-56.1	-84.2	297	8
2023-09-24T06:00	15783	111	-56.0	-84.1	298	8
2023-09-24T06:00	15811	110	-56.0	-84.1	299	8
2023-09-24T06:00	15836	110	-56.1	-84.2	299	8
2023-09-24T06:00	15859	109	-56.1	-84.2	299	8
2023-09-24T06:00	15886	109	-56.0	-84.1	299	9
2023-09-24T06:00	15910	108	-56.0	-84.1	298	9
2023-09-24T06:00	15938	108	-56.2	-84.2	298	9
2023-09-24T06:00	15964	108	-56.3	-84.3	297	9
2023-09-24T06:00	15990	107	-56.4	-84.0	297	8
2023-09-24T06:00	16013	107	-56.3	-83.9	297	8
2023-09-24T06:00	16040	106	-56.4	-84.0	297	7
2023-09-24T06:00	16064	106	-56.6	-83.8	297	7
2023-09-24T06:00	16091	105	-56.8	-84.0	295	7
2023-09-24T06:00	16115	105	-56.9	-84.0	292	7
2023-09-24T06:00	16138	105	-57.0	-84.1	290	7
2023-09-24T06:00	16162	104	-57.2	-84.3	287	7
2023-09-24T06:00	16186	104	-57.4	-84.4	285	7
2023-09-24T06:00	16212	103	-57.5	-84.5	283	7
2023-09-24T06:00	16236	103	-57.7	-84.3	281	7
2023-09-24T06:00	16259	103	-57.9	-84.5	280	7
2023-09-24T06:00	16284	102	-58.0	-84.2	279	8
2023-09-24T06:00	16310	102	-58.2	-84.4	278	8
2023-09-24T06:00	16328	101	-58.2	-84.4	278	8
2023-09-24T06:00	16353	101	-58.2	-84.4	278	9
2023-09-24T06:00	16379	101	-58.2	-84.7	278	9
2023-09-24T06:00	16398	100	-58.3	-84.8	280	9
2023-09-24T06:00	16422	100	-58.5	-84.9	282	10
2023-09-24T06:00	16445	100	-58.6	-85.0	285	10
2023-09-24T06:00	16467	99	-58.5	-84.9	288	10
2023-09-24T06:00	16488	99	-58.3	-84.8	291	10
2023-09-24T06:00	16513	99	-58.1	-85.0	293	10
2023-09-24T06:00	16536	98	-58.0	-84.9	294	10
2023-09-24T06:00	16557	98	-58.1	-85.0	294	9
2023-09-24T06:00	16578	98	-58.1	-85.0	293	9
2023-09-24T06:00	16601	97	-58.1	-85.0	292	9
2023-09-24T06:00	16621	97	-58.1	-85.0	290	8
2023-09-24T06:00	16641	97	-57.8	-85.1	287	8
2023-09-24T06:00	16665	96	-57.8	-85.1	285	8
2023-09-24T06:00	16689	96	-57.7	-85.0	282	8
2023-09-24T06:00	16711	96	-57.6	-84.9	280	9
2023-09-24T06:00	16733	95	-57.5	-85.2	279	9
2023-09-24T06:00	16753	95	-57.5	-85.2	279	9
2023-09-24T06:00	16777	95	-57.4	-85.2	280	8
2023-09-24T06:00	16801	94	-57.1	-84.9	280	8
2023-09-24T06:00	16821	94	-57.0	-85.2	279	8
2023-09-24T06:00	16844	94	-56.9	-85.2	278	8
2023-09-24T06:00	16869	93	-56.7	-85.0	277	9
2023-09-24T06:00	16891	93	-56.5	-85.3	276	9
2023-09-24T06:00	16917	92	-56.4	-85.2	276	9
2023-09-24T06:00	16935	92	-56.0	-84.9	277	9
2023-09-24T06:00	16962	92	-55.6	-84.6	278	9
2023-09-24T06:00	16986	91	-55.7	-84.7	280	8
2023-09-24T06:00	17009	91	-55.7	-85.2	281	8
2023-09-24T06:00	17031	91	-55.4	-84.9	282	8
2023-09-24T06:00	17058	90	-55.3	-84.9	282	7
2023-09-24T06:00	17082	90	-55.0	-84.6	280	7
2023-09-24T06:00	17107	90	-54.7	-84.4	279	8
2023-09-24T06:00	17132	89	-54.7	-84.4	277	8
2023-09-24T06:00	17160	89	-54.7	-84.4	275	8
2023-09-24T06:00	17181	89	-54.8	-84.5	274	9
2023-09-24T06:00	17209	88	-54.9	-84.6	272	8
2023-09-24T06:00	17232	88	-55.0	-84.6	270	8
2023-09-24T06:00	17258	88	-55.1	-84.7	267	8
2023-09-24T06:00	17285	87	-54.9	-84.6	264	7
2023-09-24T06:00	17312	87	-55.0	-84.6	261	7
2023-09-24T06:00	17339	87	-55.1	-84.2	259	7
2023-09-24T06:00	17366	86	-55.3	-84.4	258	7
2023-09-24T06:00	17394	86	-55.6	-84.6	258	8
2023-09-24T06:00	17417	85	-55.7	-84.7	259	8
2023-09-24T06:00	17444	85	-55.9	-84.8	261	8
2023-09-24T06:00	17472	85	-56.0	-84.9	264	8
2023-09-24T06:00	17496	84	-56.1	-84.6	266	9
2023-09-24T06:00	17528	84	-56.2	-84.6	268	9
2023-09-24T06:00	17553	84	-56.3	-84.7	270	9
2023-09-24T06:00	17576	83	-56.4	-84.8	271	9
2023-09-24T06:00	17602	83	-56.6	-84.9	271	9
2023-09-24T06:00	17626	83	-56.7	-85.0	271	9
2023-09-24T06:00	17652	82	-56.6	-84.9	272	9
2023-09-24T06:00	17676	82	-56.7	-85.0	272	9
2023-09-24T06:00	17702	82	-56.9	-85.2	274	9
2023-09-24T06:00	17722	81	-57.1	-85.3	275	9
2023-09-24T06:00	17748	81	-57.3	-85.5	278	9
2023-09-24T06:00	17775	81	-57.3	-85.5	280	8
2023-09-24T06:00	17799	80	-57.0	-85.2	283	8
2023-09-24T06:00	17824	80	-56.7	-85.4	285	8
2023-09-24T06:00	17847	80	-56.7	-85.4	287	7
2023-09-24T06:00	17871	80	-56.7	-85.4	288	7
2023-09-24T06:00	17896	79	-56.6	-85.4	287	7
2023-09-24T06:00	17920	79	-56.6	-85.4	284	7
2023-09-24T06:00	17939	79	-56.7	-85.4	281	7
2023-09-24T06:00	17964	78	-56.8	-85.5	278	7
2023-09-24T06:00	17985	78	-56.4	-85.2	276	7
2023-09-24T06:00	18012	78	-56.2	-85.1	274	7
2023-09-24T06:00	18033	78	-56.2	-85.1	273	7
2023-09-24T06:00	18058	77	-56.1	-85.0	271	7
2023-09-24T06:00	18077	77	-56.0	-84.9	270	7
2023-09-24T06:00	18099	77	-56.1	-85.5	269	7
2023-09-24T06:00	18125	76	-56.0		268	7
2023-09-24T06:00	18144	76	-56.0	-84.9	268	8
2023-09-24T06:00	18170	76	-56.0	-84.9	268	8
2023-09-24T06:00	18190	76	-56.2	-85.1	268	8
2023-09-24T06:00	18220	75	-56.4	-85.2	268	8
2023-09-24T06:00	18244	75	-56.6	-84.9	269	8
2023-09-24T06:00	18267	75	-56.7	-85.0	270	8
2023-09-24T06:00	18298	74	-56.8	-85.1	272	8
2023-09-24T06:00	18319	74	-57.0	-85.2	275	8
2023-09-24T06:00	18346	74	-57.2	-85.4	279	8
2023-09-24T06:00	18374	73	-57.3	-85.5	283	9
2023-09-24T06:00	18403	73	-57.5	-85.2	286	9
2023-09-24T06:00	18430	73	-57.7	-85.4	288	9
2023-09-24T06:00	18458	73	-57.9	-85.5	289	9
2023-09-24T06:00	18483	72	-57.8	-85.5	290	9
2023-09-24T06:00	18511	72	-57.7	-85.8	290	9
2023-09-24T06:00	18536	72	-57.6	-85.7	291	9
2023-09-24T06:00	18563	71	-57.7	-85.8	293	8
2023-09-24T06:00	18592	71	-57.7	-85.8	295	7
2023-09-24T06:00	18618	71	-57.7	-85.8	298	6
2023-09-24T06:00	18641	70	-57.4	-85.6	300	6
2023-09-24T06:00	18671	70	-57.4	-85.6	301	5
2023-09-24T06:00	18697	70	-57.4	-85.6	301	4
2023-09-24T06:00	18720	70	-57.4	-85.6	298	4
2023-09-24T06:00	18747	69	-57.5	-85.6	293	4
2023-09-24T06:00	18769	69	-57.6	-85.7	285	3
2023-09-24T06:00	18793	69	-57.6	-85.7	274	4
2023-09-24T06:00	18821	68	-57.7	-85.8	264	4
2023-09-24T06:00	18845	68	-57.7	-85.8	256	5
2023-09-24T06:00	18874	68	-57.6	-85.7	252	6
2023-09-24T06:00	18901	68	-57.7	-85.8	250	7
2023-09-24T06:00	18922	67	-57.7	-86.2	250	7
2023-09-24T06:00	18945	67	-57.3	-85.9	250	8
2023-09-24T06:00	18970	67	-57.2	-85.8	249	9
2023-09-24T06:00	18995	67	-57.1	-85.7	248	9
2023-09-24T06:00	19018	66	-56.9	-86.1	247	10
2023-09-24T06:00	19042	66	-56.7	-85.9	246	10
2023-09-24T06:00	19068	66	-56.7	-85.9	245	10
2023-09-24T06:00	19090	66	-56.5	-85.8	244	10
2023-09-24T06:00	19117	65	-56.0	-85.9	243	9
2023-09-24T06:00	19139	65	-56.0	-85.9	244	9
2023-09-24T06:00	19167	65	-56.1	-86.0	246	9
2023-09-24T06:00	19191	65	-55.8	-85.7	248	10
2023-09-24T06:00	19217	64	-55.6	-85.6	250	10
2023-09-24T06:00	19238	64	-55.6	-85.6	252	11
2023-09-24T06:00	19266	64	-55.6	-85.1	253	11
2023-09-24T06:00	19287	64	-55.6	-85.1	254	11
2023-09-24T06:00	19313	63	-55.7	-85.2	255	11
2023-09-24T06:00	19336	63	-55.9	-85.3	255	11
2023-09-24T06:00	19357	63	-56.0		255	11
2023-09-24T06:00	19384	63	-56.1	-85.5	254	11
2023-09-24T06:00	19403	62	-56.1	-85.5	253	11
2023-09-24T06:00	19428	62	-56.2	-85.5	251	11
2023-09-24T06:00	19452	62	-56.3	-85.6	250	10
2023-09-24T06:00	19474	62	-56.1	-85.5	249	10
2023-09-24T06:00	19498	62	-55.8	-85.2	248	9
2023-09-24T06:00	19524	61	-55.8	-85.7	247	9
2023-09-24T06:00	19545	61	-55.7	-85.7	247	8
2023-09-24T06:00	19566	61	-55.4	-85.4	247	8
2023-09-24T06:00	19591	61	-55.1	-85.2	246	7
2023-09-24T06:00	19613	60	-55.1	-85.2	245	7
2023-09-24T06:00	19638	60	-55.1	-85.2	244	6
2023-09-24T06:00	19661	60	-55.2	-85.3	242	6
2023-09-24T06:00	19688	60	-55.3	-85.4	239	5
2023-09-24T06:00	19709	60	-55.2	-85.3	235	5
2023-09-24T06:00	19737	59	-55.3	-85.4	230	5
2023-09-24T06:00	19761	59	-55.3	-85.4	223	4
2023-09-24T06:00	19784	59	-55.2	-85.3	214	4
2023-09-24T06:00	19810	59	-55.2	-85.3	205	4
2023-09-24T06:00	19834	58	-55.4	-84.9	196	4
2023-09-24T06:00	19863	58	-55.6	-85.1	189	4
2023-09-24T06:00	19885	58	-55.8	-85.2	184	4
2023-09-24T06:00	19909	58	-55.9	-85.3	180	5
2023-09-24T06:00	19934	57	-56.1	-85.5	179	5
2023-09-24T06:00	19962	57	-56.3	-85.6	180	5
2023-09-24T06:00	19988	57	-56.4	-85.7	183	5
2023-09-24T06:00	20010	57	-56.6	-85.4	188	5
2023-09-24T06:00	20037	57	-56.7	-85.4	194	5
2023-09-24T06:00	20061	56	-56.8	-85.5	200	5
2023-09-24T06:00	20080	56	-56.9	-85.6	204	6
2023-09-24T06:00	20113	56	-57.0	-85.7	206	6
2023-09-24T06:00	20138	56	-57.2	-85.8	207	7
2023-09-24T06:00	20165	55	-57.3	-85.9	207	7
2023-09-24T06:00	20190	55	-57.4	-86.0	206	8
2023-09-24T06:00	20211	55	-57.6	-86.1	205	8
2023-09-24T06:00	20240	55	-57.6	-86.1	205	8
2023-09-24T06:00	20267	55	-57.8	-86.3	206	9
2023-09-24T06:00	20297	54	-57.6	-86.1	208	9
2023-09-24T06:00	20324	54	-57.6	-86.6	211	10
2023-09-24T06:00	20353	54	-57.6	-86.6	215	10
2023-09-24T06:00	20377	54	-57.4	-86.4	219	10
2023-09-24T06:00	20413	53	-57.5	-86.1	222	10
2023-09-24T06:00	20436	53	-57.6	-86.1	224	10
2023-09-24T06:00	20467	53	-57.7	-86.2	226	10
2023-09-24T06:00	20492	53	-57.9		228	10
2023-09-24T06:00	20522	52	-58.2	-86.2	230	10
2023-09-24T06:00	20547	52	-58.4	-86.3	233	11
2023-09-24T06:00	20577	52	-58.6	-86.5	237	11
2023-09-24T06:00	20603	52	-58.7	-86.5	240	11
2023-09-24T06:00	20635	51	-58.7	-86.5	245	12
2023-09-24T06:00	20659	51	-58.7	-87.0	249	12
2023-09-24T06:00	20688	51	-58.7	-87.0	254	12
2023-09-24T06:00	20712	51	-58.4	-86.7	258	12
2023-09-24T06:00	20742	51	-58.3	-86.7	261	12
2023-09-24T06:00	20763	50	-58.1	-87.0	264	13
2023-09-24T06:00	20788	50	-57.9	-86.8	265	12
2023-09-24T06:00	20815	50	-57.7	-86.7	265	12
2023-09-24T06:00	20842	50	-57.4	-86.9	265	12
2023-09-24T06:00	20868	50	-57.1	-86.7	263	11
2023-09-24T06:00	20893	49	-56.5	-86.3	262	10
2023-09-24T06:00	20913	49	-56.4	-86.2	261	10
2023-09-24T06:00	20937	49	-56.4	-86.2	261	9
2023-09-24T06:00	20969	49	-56.2	-86.0	261	9
2023-09-24T06:00	20986	49	-56.1	-86.0	261	9
2023-09-24T06:00	21015	48	-56.1	-86.0	261	9
2023-09-24T06:00	21042	48	-56.0	-85.9	261	8
2023-09-24T06:00	21068	48	-56.2	-86.0	261	8
2023-09-24T06:00	21093	48	-56.2	-86.0	262	8
2023-09-24T06:00	21115	48	-56.0	-85.9	263	7
2023-09-24T06:00	21145	47	-55.5	-85.5	265	7
2023-09-24T06:00	21172	47	-55.5	-85.5	267	7
2023-09-24T06:00	21195	47	-55.5	-85.5	271	7
2023-09-24T06:00	21217	47	-55.7	-85.7	274	7
2023-09-24T06:00	21240	47	-55.8	-85.7	279	7
2023-09-24T06:00	21268	47	-55.9	-85.8	283	7
2023-09-24T06:00	21289	46	-56.0	-85.9	287	7
2023-09-24T06:00	21314	46	-56.2	-85.5	291	7
2023-09-24T06:00	21344	46	-56.2	-85.5	295	7
2023-09-24T06:00	21363	46	-56.2	-85.5	299	8
2023-09-24T06:00	21393	46	-56.2	-85.5	302	8
2023-09-24T06:00	21417	45	-56.4	-86.2	304	8
2023-09-24T06:00	21445	45	-56.4	-86.2	305	8
2023-09-24T06:00	21472	45	-56.3	-86.1	303	7
2023-09-24T06:00	21502	45	-56.0	-85.9	300	7
2023-09-24T06:00	21528	45	-55.8	-85.7	294	6
2023-09-24T06:00	21554	45	-56.0	-85.9	287	6
2023-09-24T06:00	21580	44	-56.1	-86.0	280	5
2023-09-24T06:00	21608	44	-56.2	-86.0	274	5
2023-09-24T06:00	21634	44	-56.3	-86.1	269	5
2023-09-24T06:00	21656	44	-56.2	-86.0	265	4
2023-09-24T06:00	21690	44	-55.9	-85.8	262	4
2023-09-24T06:00	21716	43	-55.9	-85.8	259	4
2023-09-24T06:00	21739	43	-56.0	-85.9	256	3
2023-09-24T06:00	21769	43	-56.1	-86.0	252	3
2023-09-24T06:00	21796	43	-56.4	-85.7	246	3
2023-09-24T06:00	21821	43	-56.6	-85.8	240	3
2023-09-24T06:00	21855	42	-56.8	-86.0	234	4
2023-09-24T06:00	21878	42	-56.9	-86.1	229	4
2023-09-24T06:00	21911	42	-56.9	-86.1	226	5
2023-09-24T06:00	21939	42	-56.9	-86.1	224	6
2023-09-24T06:00	21963	42	-57.0	-86.1	223	7
2023-09-24T06:00	21990	42	-57.0	-86.1	224	7
2023-09-24T06:00	22021	41	-57.0	-86.1	225	8
2023-09-24T06:00	22052	41	-57.1	-86.2	227	8
2023-09-24T06:00	22077	41	-57.1	-86.2	230	9
2023-09-24T06:00	22104	41	-57.2	-86.3	232	9
2023-09-24T06:00	22130	41	-57.3	-86.4	233	9
2023-09-24T06:00	22158	40	-57.3	-86.4	234	8
2023-09-24T06:00	22190	40	-57.1	-86.7	233	8
2023-09-24T06:00	22221	40	-56.8	-86.5	231	8
2023-09-24T06:00	22247	40	-56.6	-86.3	229	8
2023-09-24T06:00	22277	40	-56.6	-86.3	226	8
2023-09-24T06:00	22305	40	-56.6	-86.3	224	8
2023-09-24T06:00	22335	39	-56.6	-86.3	222	8
2023-09-24T06:00	22365	39	-56.7	-86.4	219	8
2023-09-24T06:00	22391	39	-56.8	-86.5	217	8
2023-09-24T06:00	22421	39	-56.6	-86.3	215	8
2023-09-24T06:00	22449	39	-56.5	-86.3	214	8
2023-09-24T06:00	22477	39	-56.7	-85.9	214	8
2023-09-24T06:00	22502	38	-57.0	-86.1	215	9
2023-09-24T06:00	22540	38	-57.0	-86.1	217	9
2023-09-24T06:00	22569	38	-57.1	-86.2	220	9
2023-09-24T06:00	22596	38	-57.3	-86.4	223	9
2023-09-24T06:00	22629	38	-57.5	-86.5	225	9
2023-09-24T06:00	22658	37	-57.7	-86.2	227	9
2023-09-24T06:00	22684	37	-57.7	-86.7	228	9
2023-09-24T06:00	22717	37	-57.6	-86.6	228	8
2023-09-24T06:00	22747	37	-57.6	-86.6	228	8
2023-09-24T06:00	22775	37	-57.5	-86.5	229	7
2023-09-24T06:00	22804	37	-57.7	-86.7	230	7
2023-09-24T06:00	22831	36	-57.9	-86.8	231	7
2023-09-24T06:00	22859	36	-57.9	-86.8	234	7
2023-09-24T06:00	22890	36	-58.0	-86.9	238	7
2023-09-24T06:00	22913	36	-57.9	-86.8	242	7
2023-09-24T06:00	22947	36	-57.9	-86.8	247	7
2023-09-24T06:00	22972	36	-58.0	-86.9	252	7
2023-09-24T06:00	23008	35	-57.8	-86.7	257	7
2023-09-24T06:00	23031	35	-57.7	-86.7	262	7
2023-09-24T06:00	23062	35	-57.5	-86.5	266	7
2023-09-24T06:00	23090	35	-57.5	-86.5	268	7
2023-09-24T06:00	23121	35	-57.3	-86.4	269	8
2023-09-24T06:00	23147	35	-57.3	-86.4	268	8
2023-09-24T06:00	23191	34	-57.4	-86.4	266	8
2023-09-24T06:00	23203	34	-57.4	-86.4	263	7
2023-09-24T06:00	23237	34	-57.4	-86.4	259	7
2023-09-24T06:00	23266	34	-57.5	-86.5	255	7
2023-09-24T06:00	23290	34	-57.5	-86.5	250	7
2023-09-24T06:00	23319	34	-57.7	-86.7	245	7
2023-09-24T06:00	23350	34	-57.9	-86.8	241	7
2023-09-24T06:00	23372	33	-57.9	-86.8	238	8
2023-09-24T06:00	23399	33	-57.9	-86.8	237	8
2023-09-24T06:00	23431	33	-57.7	-86.7	239	9
2023-09-24T06:00	23456	33	-57.7	-86.7	241	10
2023-09-24T06:00	23492	33	-57.7	-86.7	245	10
2023-09-24T06:00	23515	33	-57.8	-86.7	248	11
2023-09-24T06:00	23537	33	-57.7	-86.7	250	11
2023-09-24T06:00	23570	32	-57.7	-86.7	251	11
2023-09-24T06:00	23598	32	-57.8	-86.7	252	11
2023-09-24T06:00	23624	32	-57.7	-86.7	254	10
2023-09-24T06:00	23648	32	-57.7	-86.7	256	10
2023-09-24T06:00	23679	32	-57.9	-86.8	258	9
2023-09-24T06:00	23707	32	-58.1	-86.5	261	9
2023-09-24T06:00	23730	32	-58.3	-86.7	265	8
2023-09-24T06:00	23757	31	-58.3	-86.7	268	8
2023-09-24T06:00	23782	31	-58.4	-86.7	271	7
2023-09-24T06:00	23820	31	-58.4	-86.7	274	7
2023-09-24T06:00	23839	31	-58.4	-86.7	274	7
2023-09-24T06:00	23869	31	-58.4	-86.7	273	6
2023-09-24T06:00	23903	31	-58.5	-86.8	270	6
2023-09-24T06:00	23915	31	-58.5	-86.8	265	5
2023-09-24T06:00	23948	30	-58.4	-87.2	258	5
2023-09-24T06:00	23977	30	-58.4	-87.2	251	5
2023-09-24T06:00	24000	30	-58.4	-87.2	245	6
2023-09-24T06:00	24032	30	-58.4	-87.2	240	6
2023-09-24T06:00	24058	30	-58.4	-87.2	235	7
2023-09-24T06:00	24086	30	-58.4	-87.2	231	7
2023-09-24T06:00	24117	30	-58.4	-87.2	227	8
2023-09-24T06:00	24146	30	-58.5	-87.3	224	9
2023-09-24T06:00	24173	29	-58.4	-87.2	221	10
2023-09-24T06:00	24201	29	-58.2	-87.0	220	10
2023-09-24T06:00	24228	29	-58.2	-87.0	220	11
2023-09-24T06:00	24255	29	-58.3	-87.1	222	11
2023-09-24T06:00	24292	29	-58.4	-87.2	225	11
2023-09-24T06:00	24316	29	-58.5	-87.3	230	11
2023-09-24T06:00	24345	29	-58.4	-87.2	235	11
2023-09-24T06:00	24374	28	-58.3	-87.1	240	11
2023-09-24T06:00	24413	28	-58.2	-87.0	245	11
2023-09-24T06:00	24443	28	-58.1	-87.0	248	11
2023-09-24T06:00	24466	28	-58.0	-86.9	251	11
2023-09-24T06:00	24499	28	-58.0	-87.4	254	10
2023-09-24T06:00	24535	28	-57.8	-87.2	256	10
2023-09-24T06:00	24562	28	-57.6	-87.1	259	10
2023-09-24T06:00	24592	28	-57.7	-87.2	262	10
2023-09-24T06:00	24625	27	-57.8	-86.7	264	10
2023-09-24T06:00	24661	27	-57.9	-86.8	266	10
2023-09-24T06:00	24695	27	-58.1	-87.0	267	9
2023-09-24T06:00	24726	27	-58.3	-87.1	268	9
2023-09-24T06:00	24755	27	-58.3	-87.1	267	9
2023-09-24T06:00	24787	27	-58.3	-87.1	267	8
2023-09-24T06:00	24819	27	-58.2	-87.0	267	8
2023-09-24T06:00	24851	26	-58.1	-87.0	268	7
2023-09-24T06:00	24884	26	-58.1	-87.4	268	7
2023-09-24T06:00	24919	26	-58.0	-87.4	267	6
2023-09-24T06:00	24944	26	-57.9	-87.3	267	6
2023-09-24T06:00	24977	26	-57.9	-87.3	266	6
2023-09-24T06:00	25011	26	-57.8	-87.2	265	6
2023-09-24T06:00	25039	26	-57.7	-87.2	264	6
2023-09-24T06:00	25064	26	-57.5	-87.0	261	5
2023-09-24T06:00	25102	25	-57.4	-86.9	255	5
2023-09-24T06:00	25126	25	-57.3	-87.4	247	5
2023-09-24T06:00	25158	25	-57.3	-87.4	238	5
2023-09-24T06:00	25201	25	-57.1	-87.2	233	6
2023-09-24T06:00	25220	25	-57.0	-87.2	230	6
2023-09-24T06:00	25248	25	-56.9	-87.1	229	7
2023-09-24T06:00	25281	25	-56.7	-86.9	229	7
2023-09-24T06:00	25313	25	-56.6	-86.9	229	7
2023-09-24T06:00	25339	24	-56.5	-86.8	229	7
2023-09-24T06:00	25367	24	-56.3	-86.6	227	7
2023-09-24T06:00	25395	24	-56.0	-86.4	224	7
2023-09-24T06:00	25421	24	-56.0	-86.4	222	7
2023-09-24T06:00	25454	24	-56.1	-86.5	221	7
2023-09-24T06:00	25488	24	-56.1	-86.5	222	7
2023-09-24T06:00	25518	24	-56.2	-86.6	224	7
2023-09-24T06:00	25549	24	-56.3	-86.6	227	7
2023-09-24T06:00	25577	24	-56.3	-86.6	230	7
2023-09-24T06:00	25619	23	-56.4		233	7
2023-09-24T06:00	25640	23	-56.5	-86.8	235	7
2023-09-24T06:00	25661	23	-56.1	-86.5	237	7
2023-09-24T06:00	25698	23	-56.0	-86.4	239	8
2023-09-24T06:00	25732	23	-55.8	-86.3	243	8
2023-09-24T06:00	25761	23	-55.5	-86.1	247	8
2023-09-24T06:00	25789	23	-55.6	-86.1	251	8
2023-09-24T06:00	25809	23	-55.9	-86.3	256	8
2023-09-24T06:00	25847	23	-56.1	-86.5	260	8
2023-09-24T06:00	25877	22	-56.2	-86.6	263	8
2023-09-24T06:00	25922	22	-55.9	-86.3	265	8
2023-09-24T06:00	25945	22	-55.4	-86.0	266	8
2023-09-24T06:00	25974	22	-55.2	-85.8	266	9
2023-09-24T06:00	26005	22	-55.4	-86.0	265	9
2023-09-24T06:00	26032	22	-55.7	-86.2	265	9
2023-09-24T06:00	26074	22	-55.9	-86.3	265	9
2023-09-24T06:00	26107	22	-56.2	-86.0	266	10
2023-09-24T06:00	26132	22	-56.3	-86.1	266	10
2023-09-24T06:00	26165	21	-56.3	-86.1	267	11
2023-09-24T06:00	26192	21	-56.2	-86.0	268	11
2023-09-24T06:00	26225	21	-56.0	-86.4	268	12
2023-09-24T06:00	26259	21	-56.0	-86.4	270	12
2023-09-24T06:00	26294	21	-56.2	-86.6	271	12
2023-09-24T06:00	26333	21	-56.2	-86.6	273	12
2023-09-24T06:00	26352	21	-56.2	-86.6	276	12
2023-09-24T06:00	26384	21	-56.3	-86.6	278	11
2023-09-24T06:00	26418	21	-56.4		278	11
2023-09-24T06:00	26447	21	-56.2	-86.6	278	11
2023-09-24T06:00	26477	20	-56.0	-86.4	278	11
2023-09-24T06:00	26521	20	-55.7	-86.2	277	11
2023-09-24T06:00	26543	20	-55.6	-86.7	277	11
2023-09-24T06:00	26578	20	-55.6	-86.7	278	11
2023-09-24T06:00	26614	20	-55.6	-86.7	280	11
2023-09-24T06:00	26646	20	-55.3	-86.5	281	11
2023-09-24T06:00	26682	20	-54.7	-86.7	283	11
2023-09-24T06:00	26709	20	-54.5	-86.6	285	11
2023-09-24T06:00	26750	20	-54.3	-86.4	286	11
2023-09-24T06:00	26784	20	-54.2	-86.4	286	12
2023-09-24T06:00	26821	19	-54.1	-86.3	286	12
2023-09-24T06:00	26842	19	-54.0	-85.5	284	12
2023-09-24T06:00	26887	19	-54.0	-85.5	283	12
2023-09-24T06:00	26916	19	-54.2	-85.7	281	12
2023-09-24T06:00	26946	19	-54.4	-85.8	280	13
2023-09-24T06:00	26985	19	-54.7	-85.5	280	13
2023-09-24T06:00	27022	19	-54.9	-85.6	280	13
2023-09-24T06:00	27046	19	-54.9	-85.6	281	14
2023-09-24T06:00	27088	19	-54.9	-85.6	283	14
2023-09-24T06:00	27117	19	-55.0	-85.7	285	14
2023-09-24T06:00	27145	18	-55.0	-85.7	288	14
2023-09-24T06:00	27179	18	-55.0	-85.7	291	14
2023-09-24T06:00	27215	18	-55.0	-85.7	294	14
2023-09-24T06:00	27261	18	-55.1	-85.8	297	14
2023-09-24T06:00	27292	18	-55.1	-85.8	300	14
2023-09-24T06:00	27311	18	-55.2	-85.8	302	13
2023-09-24T06:00	27354	18	-55.2	-86.4	305	13
2023-09-24T06:00	27384	18	-55.0	-86.3	307	12
2023-09-24T06:00	27424	18	-54.9	-86.2	308	11
2023-09-24T06:00	27444	18	-54.8	-86.1	309	10
2023-09-24T06:00	27471	18	-54.8	-86.1	310	8
2023-09-24T06:00	27501	17	-54.9	-86.2	311	7
2023-09-24T06:00	27541	17	-54.8	-86.1	310	6
2023-09-24T06:00	27558	17	-54.4	-86.5	308	5
2023-09-24T06:00	27584	17	-54.1	-86.3	302	4
2023-09-24T06:00	27614	17	-53.5	-85.9	294	3
2023-09-24T06:00	27651	17	-52.8	-86.1	287	2
2023-09-24T06:00	27672	17	-52.5	-85.9	284	2
2023-09-24T06:00	27702	17	-52.6	-85.2	286	2
2023-09-24T06:00	27731	17	-52.8	-85.3	291	2
2023-09-24T06:00	27757	17	-53.0	-85.5	293	1
2023-09-24T06:00	27789	17	-53.1	-85.6	287	1
2023-09-24T06:00	27818	17	-53.2	-85.6	267	1
2023-09-24T06:00	27844	17	-53.1	-85.6	239	1
2023-09-24T06:00	27874	16	-52.9	-85.4	219	1
2023-09-24T06:00	27910	16	-53.0	-85.5	206	2
2023-09-24T06:00	27934	16	-53.0	-85.5	198	2
2023-09-24T06:00	27973	16	-53.0	-85.5	193	3
2023-09-24T06:00	27996	16	-53.1	-84.9	192	3
2023-09-24T06:00	28025	16	-53.2	-85.0	197	2
2023-09-24T06:00	28056	16	-53.3	-85.0	207	2
2023-09-24T06:00	28067	16	-53.3	-85.0	222	2
2023-09-24T06:00	28120	16	-53.5	-85.2	235	2
2023-09-24T06:00	28141	16	-53.6	-85.3	244	2
2023-09-24T06:00	28174	16	-53.7	-85.3	248	2
2023-09-24T06:00	28206	16	-53.7	-85.3	253	2
2023-09-24T06:00	28232	16	-53.6	-85.3	258	3
2023-09-24T06:00	28265	16	-53.7	-85.3	264	3
2023-09-24T06:00	28275	15	-53.9	-85.5	269	3
2023-09-24T06:00	28321	15	-54.0	-85.5	270	4
2023-09-24T06:00	28360	15	-54.1	-85.6	268	4
2023-09-24T06:00	28381	15	-54.1	-85.6	261	4
2023-09-24T06:00	28399	15	-54.3	-85.8	250	3
2023-09-24T06:00	28438	15	-54.4	-85.8	236	3
2023-09-24T06:00	28461	15	-54.5	-85.9	224	4
2023-09-24T06:00	28495	15	-54.6	-85.4	216	4
2023-09-24T06:00	28525	15	-54.7	-85.5	212	4
2023-09-24T06:00	28532	15	-54.7	-85.5	210	5
2023-09-24T06:00	28583	15	-54.8	-85.5	211	6
2023-09-24T06:00	28609	15	-54.9	-86.2	212	6
2023-09-24T06:00	28641	15	-54.9	-86.2	215	7
2023-09-24T06:00	28662	15	-54.8	-86.1	219	7
2023-09-24T06:00	28696	14	-54.7	-86.1	223	7
2023-09-24T06:00	28723	14	-54.7	-86.1	226	7
2023-09-24T06:00	28755	14	-54.8	-86.1	229	7
2023-09-24T06:00	28780	14	-54.8	-86.1	231	7
2023-09-24T06:00	28818	14	-54.8	-86.1	232	8
2023-09-24T06:00	28838	14	-54.8	-86.1	233	8
2023-09-24T06:00	28859	14	-54.8	-86.1	234	9
2023-09-24T06:00	28898	14	-54.7	-86.1	235	9
2023-09-24T06:00	28922	14	-54.7	-86.1	236	9
2023-09-24T06:00	28959	14	-54.7	-86.1	237	9
2023-09-24T06:00	28979	14	-54.8	-86.1	239	9
2023-09-24T06:00	29016	14	-54.7	-86.1	243	8
2023-09-24T06:00	29053	14	-54.4	-85.8	248	8
2023-09-24T06:00	29072	14	-54.2	-86.4	254	8
2023-09-24T06:00	29112	14	-54.0	-86.2	260	8
2023-09-24T06:00	29135	14	-53.9	-86.2	266	8
2023-09-24T06:00	29163	13	-53.9	-86.2	270	8
2023-09-24T06:00	29208	13	-53.8	-86.1	274	9
2023-09-24T06:00	29232	13	-53.7	-86.0	276	9
2023-09-24T06:00	29266	13	-53.6		278	9
2023-09-24T06:00	29295	13	-53.4	-85.8	279	9
2023-09-24T06:00	29317	13	-53.4	-85.8	279	9
2023-09-24T06:00	29361	13	-53.5	-85.9	279	9
2023-09-24T06:00	29388	13	-53.5	-85.9	279	10
2023-09-24T06:00	29406	13	-53.4	-85.8	280	10
2023-09-24T06:00	29443	13	-53.3	-85.7	281	10
2023-09-24T06:00	29474	13	-53.2	-85.6	283	10
2023-09-24T06:00	29509	13	-53.2	-85.6	285	11
2023-09-24T06:00	29541	13	-53.1	-85.6	288	11
2023-09-24T06:00	29575	13	-53.0	-85.5	290	11
2023-09-24T06:00	29611	13	-52.9	-85.4	292	11
2023-09-24T06:00	29646	13	-52.8	-85.3	293	11
2023-09-24T06:00	29679	12	-52.9	-85.4	293	11
2023-09-24T06:00	29699	12	-52.9	-85.4	293	11
2023-09-24T06:00	29725	12	-52.6	-85.2	293	11
2023-09-24T06:00	29751	12	-52.3	-85.0	293	12
2023-09-24T06:00	29789	12	-52.4	-85.1	293	12
2023-09-24T06:00	29818	12	-52.4	-85.1	294	12
2023-09-24T06:00	29836	12	-52.4	-85.1	295	12
2023-09-24T06:00	29884	12	-52.2	-84.9	296	13
2023-09-24T06:00	29903	12	-52.1	-85.6	297	13
2023-09-24T06:00	29932	12	-52.1	-85.6	297	13
2023-09-24T06:00	29962	12	-52.1	-85.6	297	12
2023-09-24T06:00	29989	12	-52.0	-85.5	297	12
2023-09-24T06:00	30022	12	-51.8	-85.4	297	11
2023-09-24T06:00	30061	12	-51.3	-85.0	296	11
2023-09-24T06:00	30084	12	-51.0	-84.8	295	10
2023-09-24T06:00	30121	12	-50.9	-85.6	295	10
2023-09-24T06:00	30149	12	-50.6	-85.4	294	9
2023-09-24T06:00	30186	12	-50.4	-85.3	295	9
2023-09-24T06:00	30210	11	-50.3	-85.2	295	9
2023-09-24T06:00	30238	11	-50.0	-85.0	295	9
2023-09-24T06:00	30266	11	-49.5	-84.6	296	9
2023-09-24T06:00	30286	11	-49.2	-84.4	297	8
2023-09-24T06:00	30332	11	-49.2	-84.4	298	8
2023-09-24T06:00	30354	11	-49.2	-84.4	301	7
2023-09-24T06:00	30389	11	-49.2	-84.4	305	6
2023-09-24T06:00	30428	11	-49.1	-84.3	311	6
2023-09-24T06:00	30444	11	-49.0	-84.3	317	6
2023-09-24T06:00	30478	11	-49.0	-84.3	323	5
2023-09-24T06:00	30500	11	-48.8	-84.1	327	5
2023-09-24T06:00	30552	11	-48.5	-83.9	329	4
2023-09-24T06:00	30576	11	-48.4	-83.8	329	4
2023-09-24T06:00	30593	11	-48.4	-83.8	325	3
2023-09-24T06:00	30637	11	-48.5	-83.9	317	3
2023-09-24T06:00	30664	11	-48.7	-84.1	302	2
2023-09-24T06:00	30695	11	-48.8	-84.1	276	2
2023-09-24T06:00	30717	11	-48.9	-84.2	250	2
2023-09-24T06:00	30738	11	-48.9	-84.2	235	3
2023-09-24T06:00	30781	11	-48.8	-84.1	228	3
2023-09-24T06:00	30814	10	-48.8	-84.1	226	4
2023-09-24T06:00	30834	10	-48.9	-84.2	227	4
2023-09-24T06:00	30860	10	-49.0	-84.3	228	5
2023-09-24T06:00	30905	10	-48.9	-84.2	229	5
2023-09-24T06:00	30913	10	-48.7	-84.1	230	5
2023-09-24T06:00	30960	10	-48.5	-83.9	230	5
2023-09-24T06:00	30980	10	-48.5	-83.9	231	5
2023-09-24T06:00	31004	10	-48.6		232	5
2023-09-24T06:00	31042	10	-48.6		232	5
2023-09-24T06:00	31076	10	-48.7	-84.1	232	5
2023-09-24T06:00	31113	10	-48.6		230	5
2023-09-24T06:00	31138	10	-48.7	-84.1	227	5
2023-09-24T06:00	31162	10	-48.8	-84.1	224	5
2023-09-24T06:00	31193	10	-49.0	-84.3	224	6
2023-09-24T06:00	31227	10	-49.0	-83.4	226	6
2023-09-24T06:00	31243	10	-49.1	-83.4	232	6
2023-09-24T06:00	31290	10	-49.2	-83.5	239	6
2023-09-24T06:00	31309	10	-49.2	-83.5	247	6
2023-09-24T06:00	31362	10	-49.3	-83.6	254	6
2023-09-24T06:00	31374	10	-49.4	-83.7	259	6
2023-09-24T06:00	31390	10	-49.5	-83.7	264	5
2023-09-24T06:00	31447	10	-49.5	-83.7	268	5
2023-09-24T06:00	31476	9	-49.4	-84.6	273	5
2023-09-24T06:00	31512	9	-49.3	-84.5	281	4
2023-09-24T06:00	31567	9	-49.2	-84.4	292	4
2023-09-24T06:00	31576	9	-49.3	-84.5	305	4
2023-09-24T06:00	31613	9	-49.4	-83.7	317	4
2023-09-24T06:00	31653	9	-49.6	-83.8	326	4
2023-09-24T06:00	31671	9	-49.7	-83.9	331	5
2023-09-24T06:00	31709	9	-49.9	-84.0	333	5
2023-09-24T06:00	31726	9	-50.0	-84.1	333	5
2023-09-24T06:00	31767	9	-50.2	-84.2	329	5
2023-09-24T06:00	31811	9	-50.3	-84.3	322	5
2023-09-24T06:00	31849	9	-50.3	-84.3	314	5
2023-09-24T06:00	31879	9	-50.4	-84.4	306	5
2023-09-24T06:00	31943	9	-50.6	-84.5	300	5
2023-09-24T06:00	31979	9	-50.7	-84.6	294	6
2023-09-24T06:00	32017	9	-50.8	-84.7	293	7
2023-09-24T06:00	32041	9	-50.8	-84.7	292	8
2023-09-24T06:00	32074	9	-50.9	-84.7	291	8
2023-09-24T06:00	32101	9	-51.1	-84.9	291	9
2023-09-24T06:00	32141	9	-51.3	-85.0	290	9
2023-09-24T06:00	32176	9	-51.4	-84.3	290	9
2023-09-24T06:00	32198	8	-51.5	-84.4	289	9
2023-09-24T06:00	32244	8	-51.7	-84.5	288	9
2023-09-24T06:00	32278	8	-51.9	-85.5	287	9
2023-09-24T06:00	32295	8	-51.8	-85.4	285	8
2023-09-24T06:00	32343	8	-51.5	-85.2	283	8
2023-09-24T06:00	32377	8	-51.2	-85.0	280	8
2023-09-24T06:00	32398	8	-51.0	-85.7	278	8
2023-09-24T06:00	32425	8	-50.7	-85.5	276	9
2023-09-24T06:00	32464	8	-50.5	-85.3	275	9
2023-09-24T06:00	32494	8	-50.3	-85.2	274	9
2023-09-24T06:00	32520	8	-50.0	-85.0	274	9
2023-09-24T06:00	32545	8	-49.7	-84.8	275	9
2023-09-24T06:00	32571	8	-49.6	-84.7	275	9
2023-09-24T06:00	32604	8	-49.6	-84.7	274	9
2023-09-24T06:00	32622	8	-49.4	-84.6	274	9
2023-09-24T12:00	112	1014	14.4	10.6	310	2
2023-09-24T12:00	140	1011	13.4	10.7	282	1
2023-09-24T12:00	168	1008	13.3	10.5	285	1
2023-09-24T12:00	192	1005	12.6	10.2	296	1
2023-09-24T12:00	221	1001	12.5	10.3	310	2
2023-09-24T12:00	252	998	12.1	10.2	321	2
2023-09-24T12:00	280	994	11.8	10.1	329	2
2023-09-24T12:00	308	991	11.5	10.0	332	3
2023-09-24T12:00	330	988	11.3	10.1	333	3
2023-09-24T12:00	360	985	11.0	9.9	331	3
2023-09-24T12:00	383	982	10.8	9.9	328	3
2023-09-24T12:00	410	979	10.5	9.8	325	3
2023-09-24T12:00	432	976	10.3	9.7	321	3
2023-09-24T12:00	453	974	10.1	9.7	318	3
2023-09-24T12:00	474	972	9.9	9.6	314	2
2023-09-24T12:00	496	969	9.7	9.7	311	2
2023-09-24T12:00	519	966	9.5	9.5	308	2
2023-09-24T12:00	543	964	9.3	9.3	307	2
2023-09-24T12:00	568	961	9.1	9.1	311	2
2023-09-24T12:00	597	957	9.0	9.0	317	3
2023-09-24T12:00	627	954	9.0	8.9	325	3
2023-09-24T12:00	654	951	9.0	8.0	333	3
2023-09-24T12:00	678	948	10.1	6.8	339	3
2023-09-24T12:00	704	945	10.3	6.6	343	3
2023-09-24T12:00	732	942	10.2	6.6	344	3
2023-09-24T12:00	756	939	10.0	6.4	345	3
2023-09-24T12:00	784	936	9.8	5.8	345	3
2023-09-24T12:00	808	933	9.7	5.7	345	3
2023-09-24T12:00	831	931	9.5	5.7	345	3
2023-09-24T12:00	856	928	9.3	5.4	345	3
2023-09-24T12:00	879	925	9.2	4.9	345	2
2023-09-24T12:00	900	923	9.1	5.0	345	2
2023-09-24T12:00	922	920	9.0	5.1	346	2
2023-09-24T12:00	948	918	8.8	5.4	348	2
2023-09-24T12:00	972	915	8.6	5.5	348	2
2023-09-24T12:00	1004	912	8.4	5.1	346	2
2023-09-24T12:00	1033	908	8.2	4.0	340	2
2023-09-24T12:00	1064	905	8.0	3.6	333	2
2023-09-24T12:00	1088	902	7.9	3.5	327	2
2023-09-24T12:00	1115	899	7.7	3.2	322	3
2023-09-24T12:00	1142	896	7.5	3.5	320	3
2023-09-24T12:00	1168	893	7.3	3.8	320	3
2023-09-24T12:00	1196	890	7.1	4.4	322	3
2023-09-24T12:00	1229	887	6.9	4.2	324	3
2023-09-24T12:00	1259	884	6.7		326	3
2023-09-24T12:00	1283	881	6.5	3.5	325	2
2023-09-24T12:00	1310	878	6.5	3.3	323	2
2023-09-24T12:00	1333	876	6.4	3.0	321	2
2023-09-24T12:00	1353	874	6.4	2.6	322	2
2023-09-24T12:00	1378	871	6.4	1.8	327	2
2023-09-24T12:00	1408	868	6.2	1.5	332	2
2023-09-24T12:00	1436	865	6.0	1.6	337	2
2023-09-24T12:00	1459	862	5.9	1.9	338	3
2023-09-24T12:00	1483	860	5.7	1.7	338	3
2023-09-24T12:00	1511	857	5.5	1.4	337	3
2023-09-24T12:00	1534	855	5.4	1.3	335	3
2023-09-24T12:00	1557	852	5.3	1.2	333	3
2023-09-24T12:00	1582	849	5.1	1.0	330	3
2023-09-24T12:00	1611	847	5.1	0.5	327	3
2023-09-24T12:00	1637	844	4.9	0.4	323	3
2023-09-24T12:00	1663	841	4.8	0.2	320	3
2023-09-24T12:00	1689	838	4.6	0.0	318	3
2023-09-24T12:00	1714	836	4.5	-0.1	316	3
2023-09-24T12:00	1736	834	4.4	-0.4	315	3
2023-09-24T12:00	1762	831	4.2	-0.5	314	3
2023-09-24T12:00	1787	829	4.1	-0.9	313	3
2023-09-24T12:00	1811	826	4.0	-1.1	312	3
2023-09-24T12:00	1839	823	3.9	-1.3	310	3
2023-09-24T12:00	1860	821	3.8	-1.4	307	3
2023-09-24T12:00	1885	819	3.6	-1.6	304	3
2023-09-24T12:00	1906	816	3.5	-2.0	303	2
2023-09-24T12:00	1934	814	3.5	-2.4	303	2
2023-09-24T12:00	1960	811	3.4	-3.3	307	2
2023-09-24T12:00	1993	808	3.3	-3.1	312	2
2023-09-24T12:00	2019	805	3.1	-3.5	313	2
2023-09-24T12:00	2042	803	3.0	-4.0	310	2
2023-09-24T12:00	2063	801	2.9	-4.5	304	3
2023-09-24T12:00	2083	799	2.7	-5.0	297	3
2023-09-24T12:00	2103	797	2.6	-5.1	290	3
2023-09-24T12:00	2124	795	2.4	-5.3	285	3
2023-09-24T12:00	2149	792	2.2	-5.3	282	3
2023-09-24T12:00	2177	790	2.0	-5.5	283	3
2023-09-24T12:00	2199	787	1.8	-5.6	287	3
2023-09-24T12:00	2221	785	1.6	-5.4	295	3
2023-09-24T12:00	2249	782	1.4	-5.7	303	3
2023-09-24T12:00	2276	780	1.3	-6.4	310	3
2023-09-24T12:00	2302	777	1.2	-6.6	314	3
2023-09-24T12:00	2334	774	0.9		316	3
2023-09-24T12:00	2368	771	0.9	-8.6	316	3
2023-09-24T12:00	2393	768	0.8	-8.6	317	4
2023-09-24T12:00	2423	766	0.6	-9.5	318	4
2023-09-24T12:00	2447	763	0.5	-9.4	321	4
2023-09-24T12:00	2474	761	0.3	-10.4	323	4
2023-09-24T12:00	2497	759	0.3	-11.7	322	4
2023-09-24T12:00	2525	756	0.2	-12.3	319	4
2023-09-24T12:00	2553	754	0.0	-12.6	314	4
2023-09-24T12:00	2570	752	0.0	-12.1	309	3
2023-09-24T12:00	2598	749	0.2	-16.5	304	3
2023-09-24T12:00	2630	746	0.4	-19.7	300	2
2023-09-24T12:00	2658	744	0.5	-22.3	298	2
2023-09-24T12:00	2688	741	0.5	-23.5	299	1
2023-09-24T12:00	2707	739	0.8	-22.8	304	1
2023-09-24T12:00	2726	737	0.8	-21.1	309	2
2023-09-24T12:00	2750	735	0.8	-21.1	312	3
2023-09-24T12:00	2769	733	0.7	-21.8	314	3
2023-09-24T12:00	2790	731	0.8	-24.4	317	4
2023-09-24T12:00	2814	729	1.1	-27.8	321	4
2023-09-24T12:00	2840	727	1.1	-23.6	327	4
2023-09-24T12:00	2865	725	1.0	-25.9	334	4
2023-09-24T12:00	2892	722	1.0	-31.4	340	4
2023-09-24T12:00	2923	720	0.9	-33.8	343	4
2023-09-24T12:00	2947	717	0.9	-33.3	341	4
2023-09-24T12:00	2966	716	0.7	-33.2	338	5
2023-09-24T12:00	2988	714	0.6	-33.3	334	5
2023-09-24T12:00	3011	712	0.5	-33.2	331	5
2023-09-24T12:00	3039	709	0.5	-33.6	330	5
2023-09-24T12:00	3057	707	0.5	-33.4	332	4
2023-09-24T12:00	3077	706	0.5	-34.3	335	4
2023-09-24T12:00	3101	704	0.7	-33.0	339	4
2023-09-24T12:00	3120	702	0.6	-32.7	338	4
2023-09-24T12:00	3142	700	0.5	-30.5	334	5
2023-09-24T12:00	3168	698	0.2	-28.6	329	5
2023-09-24T12:00	3197	695	0.0	-28.3	327	6
2023-09-24T12:00	3218	694	-0.1	-28.8	328	6
2023-09-24T12:00	3236	692	-0.2	-28.2	332	5
2023-09-24T12:00	3266	689	-0.3	-29.7	340	5
2023-09-24T12:00	3288	687	-0.5	-30.7	348	4
2023-09-24T12:00	3308	686	-0.6	-28.5	352	4
2023-09-24T12:00	3332	684	-0.8	-27.3	349	4
2023-09-24T12:00	3353	682	-1.0	-27.3	342	4
2023-09-24T12:00	3380	679	-1.2	-30.8	333	4
2023-09-24T12:00	3408	677	-1.3	-25.4	324	3
2023-09-24T12:00	3427	675	-1.4	-26.7	315	3
2023-09-24T12:00	3448	674	-1.6	-26.8	304	2
2023-09-24T12:00	3474	672	-1.7	-30.6	292	2
2023-09-24T12:00	3498	670	-1.7	-32.5	287	2
2023-09-24T12:00	3519	668	-1.9	-31.5	290	3
2023-09-24T12:00	3543	666	-2.0	-32.2	296	3
2023-09-24T12:00	3566	664	-2.1	-33.7	302	4
2023-09-24T12:00	3587	662	-2.3	-34.4	306	5
2023-09-24T12:00	3610	660	-2.4	-34.3	309	5
2023-09-24T12:00	3633	658	-2.6	-33.4	311	5
2023-09-24T12:00	3656	656	-2.7	-34.0	314	5
2023-09-24T12:00	3678	654	-2.7	-31.6	317	5
2023-09-24T12:00	3701	653	-2.8	-32.0	319	5
2023-09-24T12:00	3724	651	-2.9	-35.7	322	5
2023-09-24T12:00	3741	649	-3.0	-37.4	323	5
2023-09-24T12:00	3769	647	-2.9	-33.3	323	5
2023-09-24T12:00	3794	645	-3.1	-33.3	322	4
2023-09-24T12:00	3820	643	-3.3	-34.1	320	4
2023-09-24T12:00	3843	641	-3.5	-34.6	317	4
2023-09-24T12:00	3868	639	-3.7	-33.9	316	4
2023-09-24T12:00	3892	637	-3.8	-32.6	316	4
2023-09-24T12:00	3915	635	-3.9	-32.0	318	4
2023-09-24T12:00	3948	633	-4.2	-32.4	321	4
2023-09-24T12:00	3970	631	-4.2	-34.1	323	4
2023-09-24T12:00	4004	628	-4.3	-36.6	321	4
2023-09-24T12:00	4033	626	-4.5	-33.2	317	4
2023-09-24T12:00	4058	624	-4.7	-32.9	311	4
2023-09-24T12:00	4082	622	-4.9	-32.9	307	4
2023-09-24T12:00	4102	620	-5.1	-32.7	305	5
2023-09-24T12:00	4126	618	-5.3	-33.0	303	5
2023-09-24T12:00	4150	616	-5.5	-33.0	300	4
2023-09-24T12:00	4174	615	-5.7	-33.3	298	4
2023-09-24T12:00	4191	613	-5.8	-33.4	296	4
2023-09-24T12:00	4224	611	-6.1	-33.9	294	4
2023-09-24T12:00	4249	609	-6.3	-32.9	294	4
2023-09-24T12:00	4272	607	-6.5	-33.1	295	4
2023-09-24T12:00	4299	605	-6.7	-32.0	297	4
2023-09-24T12:00	4326	603	-6.9	-33.6	300	5
2023-09-24T12:00	4347	601	-7.1	-33.4	302	5
2023-09-24T12:00	4375	599	-7.2	-32.1	304	5
2023-09-24T12:00	4399	597	-7.4	-32.7	305	4
2023-09-24T12:00	4427	595	-7.6	-32.9	307	4
2023-09-24T12:00	4455	593	-7.8	-33.0	310	4
2023-09-24T12:00	4477	591	-8.1	-33.0	314	4
2023-09-24T12:00	4501	589	-8.3	-33.1	318	4
2023-09-24T12:00	4527	587	-8.6	-33.1	320	4
2023-09-24T12:00	4550	586	-8.8	-33.2	318	4
2023-09-24T12:00	4577	583	-9.0	-33.1	315	4
2023-09-24T12:00	4610	581	-9.2	-34.1	313	4
2023-09-24T12:00	4633	579	-9.3	-34.5	312	4
2023-09-24T12:00	4657	578	-9.5	-34.5	313	4
2023-09-24T12:00	4683	576	-9.6	-35.0	317	3
2023-09-24T12:00	4710	574	-9.8	-36.3	320	3
2023-09-24T12:00	4732	572	-9.9	-37.2	322	3
2023-09-24T12:00	4751	570	-9.9	-38.3	324	3
2023-09-24T12:00	4773	569	-9.9	-38.3	327	3
2023-09-24T12:00	4804	567	-10.0	-40.4	334	3
2023-09-24T12:00	4845	564	-10.3	-42.5	344	3
2023-09-24T12:00	4875	562	-10.4	-43.3	356	3
2023-09-24T12:00	4892	560	-10.4	-44.6	5	4
2023-09-24T12:00	4917	558	-10.5	-46.2	9	4
2023-09-24T12:00	4938	557	-10.5	-46.6	9	5
2023-09-24T12:00	4968	555	-10.5	-45.6	8	5
2023-09-24T12:00	4989	553	-10.6	-44.5	8	6
2023-09-24T12:00	5014	551	-10.8	-43.9	10	6
2023-09-24T12:00	5046	549	-11.0	-43.1	12	6
2023-09-24T12:00	5069	547	-11.2	-42.0	13	6
2023-09-24T12:00	5100	545	-11.4	-40.3	12	6
2023-09-24T12:00	5128	543	-11.6	-40.5	10	5
2023-09-24T12:00	5163	541	-11.8	-40.0	8	6
2023-09-24T12:00	5184	539	-11.9	-39.8	7	6
2023-09-24T12:00	5203	538	-12.1	-39.9	8	6
2023-09-24T12:00	5228	536	-12.3	-40.1	9	7
2023-09-24T12:00	5261	534	-12.5	-40.4	10	7
2023-09-24T12:00	5283	532	-12.7	-40.4	10	7
2023-09-24T12:00	5299	531	-12.9	-40.4	10	7
2023-09-24T12:00	5318	530	-13.0	-40.4	9	7
2023-09-24T12:00	5337	529	-13.1	-40.6	7	7
2023-09-24T12:00	5355	527	-13.2	-40.5	5	7
2023-09-24T12:00	5374	526	-13.3	-40.9	4	7
2023-09-24T12:00	5399	524	-13.4	-41.0	3	8
2023-09-24T12:00	5425	522	-13.6	-41.3	3	9
2023-09-24T12:00	5453	521	-13.7	-41.5	4	9
2023-09-24T12:00	5478	519	-13.9	-41.5	4	9
2023-09-24T12:00	5494	518	-14.1	-41.5	5	9
2023-09-24T12:00	5514	516	-14.1	-41.7	7	9
2023-09-24T12:00	5533	515	-14.2	-42.1	8	9
2023-09-24T12:00	5553	514	-14.3	-42.6	11	9
2023-09-24T12:00	5580	512	-14.3	-43.8	12	10
2023-09-24T12:00	5617	510	-14.3	-45.0	14	10
2023-09-24T12:00	5639	508	-14.4	-45.5	14	10
2023-09-24T12:00	5659	507	-14.2	-46.2	15	11
2023-09-24T12:00	5678	505	-14.2	-47.0	17	11
2023-09-24T12:00	5708	503	-14.4	-46.9	19	11
2023-09-24T12:00	5732	502	-14.6	-47.0	22	11
2023-09-24T12:00	5757	500	-14.6	-47.0	25	12
2023-09-24T12:00	5777	499	-14.7	-47.4	26	12
2023-09-24T12:00	5804	497	-14.7	-47.9	28	13
2023-09-24T12:00	5826	495	-14.8	-48.0	29	13
2023-09-24T12:00	5857	494	-14.9	-48.0	31	14
2023-09-24T12:00	5876	492	-15.0	-47.9	33	14
2023-09-24T12:00	5894	491	-15.2	-48.0	35	14
2023-09-24T12:00	5919	489	-15.2	-48.3	36	14
2023-09-24T12:00	5953	487	-15.5	-48.2	37	15
2023-09-24T12:00	5984	485	-15.6	-48.0	36	15
2023-09-24T12:00	6003	484	-15.8	-48.2	36	15
2023-09-24T12:00	6023	483	-15.9	-48.3	36	16
2023-09-24T12:00	6044	481	-16.1	-48.2	36	16
2023-09-24T12:00	6073	479	-16.3	-48.3	37	16
2023-09-24T12:00	6110	477	-16.6	-48.6	38	17
2023-09-24T12:00	6130	476	-16.6	-48.8	38	17
2023-09-24T12:00	6149	475	-16.6	-48.8	39	17
2023-09-24T12:00	6170	473	-16.8	-49.0	39	16
2023-09-24T12:00	6200	472	-16.8	-49.0	38	16
2023-09-24T12:00	6233	470	-17.0	-48.6	37	16
2023-09-24T12:00	6250	468	-17.1	-48.5	36	16
2023-09-24T12:00	6270	467	-17.2	-48.3	34	16
2023-09-24T12:00	6289	466	-17.4	-48.5	32	16
2023-09-24T12:00	6305	465	-17.5	-48.3	31	16
2023-09-24T12:00	6326	464	-17.7	-48.2	31	16
2023-09-24T12:00	6348	462	-17.9	-48.2	31	16
2023-09-24T12:00	6378	461	-18.1	-48.1	32	16
2023-09-24T12:00	6404	459	-18.3	-47.1	34	16
2023-09-24T12:00	6437	457	-18.5	-47.3	35	16
2023-09-24T12:00	6460	455	-18.7	-48.0	36	17
2023-09-24T12:00	6481	454	-18.8	-48.1	36	17
2023-09-24T12:00	6506	453	-19.0	-48.2	34	17
2023-09-24T12:00	6536	451	-19.1	-47.9	31	17
2023-09-24T12:00	6570	449	-19.4	-48.0	29	17
2023-09-24T12:00	6596	447	-19.6	-46.4	27	17
2023-09-24T12:00	6616	446	-19.7	-46.5	27	17
2023-09-24T12:00	6636	445	-19.8	-47.3	27	16
2023-09-24T12:00	6661	443	-20.0	-47.6	28	16
2023-09-24T12:00	6703	441	-20.2	-49.4	29	16
2023-09-24T12:00	6737	439	-20.3	-49.9	30	16
2023-09-24T12:00	6756	438	-20.4	-49.9	30	16
2023-09-24T12:00	6776	436	-20.5	-50.0	31	16
2023-09-24T12:00	6808	434	-20.8	-50.2	31	16
2023-09-24T12:00	6845	433	-21.1	-50.3	32	17
2023-09-24T12:00	6863	431	-21.3	-50.4	32	17
2023-09-24T12:00	6880	430	-21.5	-50.4	31	17
2023-09-24T12:00	6902	429	-21.7	-50.4	30	17
2023-09-24T12:00	6921	428	-21.9	-50.5	29	17
2023-09-24T12:00	6938	427	-22.0	-50.4	28	17
2023-09-24T12:00	6958	426	-22.2	-50.4	28	16
2023-09-24T12:00	6981	424	-22.4	-50.0	28	16
2023-09-24T12:00	7011	423	-22.6	-49.7	29	17
2023-09-24T12:00	7045	421	-22.8	-48.9	29	17
2023-09-24T12:00	7083	419	-23.1	-48.9	29	17
2023-09-24T12:00	7100	418	-23.3	-48.8	28	17
2023-09-24T12:00	7120	417	-23.4	-48.6	27	17
2023-09-24T12:00	7139	415	-23.5	-48.6	26	18
2023-09-24T12:00	7165	414	-23.8	-48.8	24	18
2023-09-24T12:00	7193	412	-24.0	-48.7	23	19
2023-09-24T12:00	7227	411	-24.2	-48.3	23	19
2023-09-24T12:00	7249	409	-24.4	-47.8	22	20
2023-09-24T12:00	7269	408	-24.6	-47.7	21	19
2023-09-24T12:00	7298	407	-24.9	-47.7	20	19
2023-09-24T12:00	7325	405	-25.1	-47.2	18	19
2023-09-24T12:00	7345	404	-25.3	-47.2	17	18
2023-09-24T12:00	7364	403	-25.5	-46.4	17	18
2023-09-24T12:00	7389	401	-25.7	-46.1	17	18
2023-09-24T12:00	7422	400	-26.0	-45.8	18	18
2023-09-24T12:00	7448	398	-26.3	-45.2	19	19
2023-09-24T12:00	7469	397	-26.5	-45.8	20	19
2023-09-24T12:00	7484	396	-26.7	-45.8	20	19
2023-09-24T12:00	7501	395	-26.8	-45.6	20	19
2023-09-24T12:00	7518	394	-27.0	-45.3	20	19
2023-09-24T12:00	7534	393	-27.1	-45.4	20	19
2023-09-24T12:00	7551	392	-27.3	-45.5	20	19
2023-09-24T12:00	7568	392	-27.5	-45.6	20	19
2023-09-24T12:00	7587	391	-27.6	-45.5	21	19
2023-09-24T12:00	7609	389	-27.8	-45.6	21	19
2023-09-24T12:00	7633	388	-28.1	-45.6	22	18
2023-09-24T12:00	7666	386	-28.4	-45.7	23	19
2023-09-24T12:00	7682	385	-28.6	-45.9	22	19
2023-09-24T12:00	7698	385	-28.7	-45.7	22	19
2023-09-24T12:00	7716	384	-28.9	-45.6	21	20
2023-09-24T12:00	7734	383	-29.1	-45.5	20	20
2023-09-24T12:00	7752	382	-29.2	-45.5	20	20
2023-09-24T12:00	7773	381	-29.4	-45.3	21	20
2023-09-24T12:00	7795	379	-29.6	-45.5	22	19
2023-09-24T12:00	7825	378	-30.0	-45.6	24	19
2023-09-24T12:00	7864	376	-30.3	-45.9	25	18
2023-09-24T12:00	7884	375	-30.5	-46.4	25	18
2023-09-24T12:00	7903	374	-30.6	-46.3	25	18
2023-09-24T12:00	7924	372	-30.8	-47.1	26	18
2023-09-24T12:00	7954	371	-31.0	-47.3	27	18
2023-09-24T12:00	7987	369	-31.3	-47.8	29	18
2023-09-24T12:00	8023	367	-31.6	-48.1	30	18
2023-09-24T12:00	8059	366	-31.9	-48.3	31	18
2023-09-24T12:00	8078	365	-32.1	-48.6	30	17
2023-09-24T12:00	8093	364	-32.2	-48.7	28	17
2023-09-24T12:00	8111	363	-32.4	-48.7	26	17
2023-09-24T12:00	8131	362	-32.5	-48.8	25	17
2023-09-24T12:00	8148	361	-32.7	-49.2	24	17
2023-09-24T12:00	8168	360	-32.8	-49.5	24	17
2023-09-24T12:00	8186	359	-32.9	-49.8	24	17
2023-09-24T12:00	8206	358	-33.0	-50.1	24	17
2023-09-24T12:00	8224	357	-33.2	-50.8	25	17
2023-09-24T12:00	8244	356	-33.4	-51.6	25	17
2023-09-24T12:00	8263	355	-33.6	-51.7	25	17
2023-09-24T12:00	8286	354	-33.8	-51.4	25	17
2023-09-24T12:00	8309	353	-34.0	-51.4	24	17
2023-09-24T12:00	8340	351	-34.3	-51.5	22	17
2023-09-24T12:00	8379	349	-34.6	-52.6	21	17
2023-09-24T12:00	8415	348	-34.8	-54.5	19	17
2023-09-24T12:00	8439	346	-34.8	-55.4	18	17
2023-09-24T12:00	8461	345	-34.9	-55.4	17	17
2023-09-24T12:00	8482	344	-35.1	-55.1	17	18
2023-09-24T12:00	8514	342	-35.1	-54.9	16	18
2023-09-24T12:00	8551	341	-35.0	-55.7	16	18
2023-09-24T12:00	8590	339	-35.3	-55.7	14	19
2023-09-24T12:00	8624	337	-35.6	-55.7	13	19
2023-09-24T12:00	8654	336	-35.9	-55.4	12	19
2023-09-24T12:00	8675	335	-36.1	-55.7	11	19
2023-09-24T12:00	8695	334	-36.3	-55.6	10	18
2023-09-24T12:00	8717	333	-36.5	-55.3	10	18
2023-09-24T12:00	8738	332	-36.7	-55.3	10	18
2023-09-24T12:00	8758	331	-36.9	-55.5	10	18
2023-09-24T12:00	8778	330	-37.1	-55.6	10	18
2023-09-24T12:00	8799	329	-37.3	-55.6	10	18
2023-09-24T12:00	8818	328	-37.4	-55.7	10	18
2023-09-24T12:00	8838	327	-37.6	-55.7	11	18
2023-09-24T12:00	8858	326	-37.8	-55.7	12	18
2023-09-24T12:00	8881	325	-38.0		13	18
2023-09-24T12:00	8905	324	-38.3	-55.7	14	17
2023-09-24T12:00	8938	322	-38.5	-56.0	14	17
2023-09-24T12:00	8973	321	-38.7	-56.4	14	16
2023-09-24T12:00	8995	320	-38.8	-56.7	14	16
2023-09-24T12:00	9019	318	-39.0	-56.8	13	17
2023-09-24T12:00	9044	317	-39.1	-56.6	10	17
2023-09-24T12:00	9075	316	-39.2	-56.7	8	17
2023-09-24T12:00	9107	314	-39.3	-57.1	5	18
2023-09-24T12:00	9140	313	-39.6	-57.2	3	18
2023-09-24T12:00	9160	312	-39.8	-57.1	1	19
2023-09-24T12:00	9187	311	-40.0	-57.2	0	19
2023-09-24T12:00	9220	309	-40.3	-57.3	360	19
2023-09-24T12:00	9245	308	-40.6	-57.3	360	19
2023-09-24T12:00	9271	307	-40.8	-57.5	0	19
2023-09-24T12:00	9296	306	-40.9		0	18
2023-09-24T12:00	9321	305	-41.2	-57.8	1	18
2023-09-24T12:00	9350	303	-41.5	-57.5	1	18
2023-09-24T12:00	9377	302	-41.7	-57.5	2	19
2023-09-24T12:00	9401	301	-41.9	-57.6	4	19
2023-09-24T12:00	9428	300	-42.2	-57.5	4	19
2023-09-24T12:00	9457	299	-42.4	-57.4	5	18
2023-09-24T12:00	9485	297	-42.7	-57.6	5	18
2023-09-24T12:00	9514	296	-43.0	-57.7	4	18
2023-09-24T12:00	9542	295	-43.3	-57.9	4	18
2023-09-24T12:00	9572	294	-43.5	-58.0	4	18
2023-09-24T12:00	9599	292	-43.8	-58.0	5	18
2023-09-24T12:00	9623	291	-44.0	-58.0	7	18
2023-09-24T12:00	9653	290	-44.2	-57.9	8	18
2023-09-24T12:00	9686	289	-44.5	-58.0	9	18
2023-09-24T12:00	9720	287	-44.8	-57.9	8	19
2023-09-24T12:00	9746	286	-45.1	-58.0	7	19
2023-09-24T12:00	9778	285	-45.3	-57.8	6	19
2023-09-24T12:00	9799	284	-45.5	-57.8	5	19
2023-09-24T12:00	9818	283	-45.7	-57.7	5	19
2023-09-24T12:00	9837	282	-45.8	-57.4	6	19
2023-09-24T12:00	9858	281	-45.7	-57.3	7	19
2023-09-24T12:00	9877	280	-45.9	-57.7	8	19
2023-09-24T12:00	9897	280	-46.0	-57.8	9	19
2023-09-24T12:00	9917	279	-46.2	-58.0	9	19
2023-09-24T12:00	9938	278	-46.3	-58.2	9	19
2023-09-24T12:00	9957	277	-46.4	-58.2	9	20
2023-09-24T12:00	9977	276	-46.5	-58.0	9	20
2023-09-24T12:00	9997	275	-46.5	-57.2	9	20
2023-09-24T12:00	10018	275	-46.6	-56.8	8	20
2023-09-24T12:00	10037	274	-46.7	-57.1	7	20
2023-09-24T12:00	10057	273	-46.6	-58.0	5	21
2023-09-24T12:00	10078	272	-46.5	-58.4	4	21
2023-09-24T12:00	10104	271	-46.6	-58.6	2	21
2023-09-24T12:00	10122	270	-46.4	-58.9	2	21
2023-09-24T12:00	10141	269	-46.5	-59.1	2	21
2023-09-24T12:00	10162	269	-46.7	-59.0	2	20
2023-09-24T12:00	10183	268	-46.8	-59.0	2	20
2023-09-24T12:00	10204	267	-47.0	-58.9	2	20
2023-09-24T12:00	10224	266	-47.2	-59.0	2	19
2023-09-24T12:00	10244	265	-47.4	-59.1	1	19
2023-09-24T12:00	10264	265	-47.6	-59.1	1	19
2023-09-24T12:00	10284	264	-47.7	-59.1	1	19
2023-09-24T12:00	10305	263	-47.9	-59.2	1	19
2023-09-24T12:00	10327	262	-48.1	-59.2	1	19
2023-09-24T12:00	10348	261	-48.1	-59.6	1	19
2023-09-24T12:00	10369	260	-47.7	-59.8	2	20
2023-09-24T12:00	10391	260	-47.7	-59.9	2	19
2023-09-24T12:00	10411	259	-47.7	-60.0	3	19
2023-09-24T12:00	10431	258	-47.8	-60.0	4	19
2023-09-24T12:00	10450	257	-48.0	-60.0	4	19
2023-09-24T12:00	10468	256	-48.2	-60.1	5	19
2023-09-24T12:00	10488	256	-48.3	-60.1	6	19
2023-09-24T12:00	10508	255	-48.5	-60.2	7	19
2023-09-24T12:00	10526	254	-48.6	-60.2	7	19
2023-09-24T12:00	10545	253	-48.8	-60.4	7	19
2023-09-24T12:00	10569	253	-48.9	-60.4	5	19
2023-09-24T12:00	10601	251	-49.1	-60.6	3	19
2023-09-24T12:00	10625	250	-49.2	-60.7	1	19
2023-09-24T12:00	10642	250	-49.4	-60.9	360	19
2023-09-24T12:00	10669	249	-49.6	-60.9	359	19
2023-09-24T12:00	10688	248	-49.8	-60.9	359	19
2023-09-24T12:00	10706	247	-49.9	-61.0	360	19
2023-09-24T12:00	10725	247	-50.1	-61.1	0	19
2023-09-24T12:00	10747	246	-50.2	-61.2	1	19
2023-09-24T12:00	10765	245	-50.2	-61.3	2	19
2023-09-24T12:00	10785	244	-50.2	-61.6	2	19
2023-09-24T12:00	10805	244	-50.2	-61.8	4	19
2023-09-24T12:00	10825	243	-50.3	-61.9	4	18
2023-09-24T12:00	10847	242	-50.4	-62.1	5	18
2023-09-24T12:00	10881	241	-50.6	-62.6	5	18
2023-09-24T12:00	10916	240	-50.6	-62.9	4	17
2023-09-24T12:00	10942	239	-50.7	-63.2	4	16
2023-09-24T12:00	10966	238	-50.8	-63.3	6	15
2023-09-24T12:00	10992	237	-51.0	-63.4	8	14
2023-09-24T12:00	11021	236	-51.0	-63.6	13	13
2023-09-24T12:00	11037	235	-50.8	-64.0	17	13
2023-09-24T12:00	11058	234	-50.7	-64.3	21	13
2023-09-24T12:00	11090	233	-50.9		24	14
2023-09-24T12:00	11109	232	-51.0	-64.5	25	14
2023-09-24T12:00	11130	232	-51.1		25	14
2023-09-24T12:00	11148	231	-51.2	-64.9	25	14
2023-09-24T12:00	11167	230	-51.4	-64.9	25	14
2023-09-24T12:00	11187	230	-51.6	-64.9	25	14
2023-09-24T12:00	11206	229	-51.8	-65.0	25	13
2023-09-24T12:00	11225	228	-52.0	-65.0	25	13
2023-09-24T12:00	11246	228	-52.1	-65.0	24	13
2023-09-24T12:00	11265	227	-52.3	-65.1	24	13
2023-09-24T12:00	11287	226	-52.5	-65.2	23	13
2023-09-24T12:00	11307	226	-52.7	-65.3	23	13
2023-09-24T12:00	11325	225	-52.8	-65.5	23	13
2023-09-24T12:00	11345	224	-53.0	-65.7	23	12
2023-09-24T12:00	11367	223	-53.2	-65.7	22	12
2023-09-24T12:00	11392	223	-53.4	-65.7	21	11
2023-09-24T12:00	11427	221	-53.7	-65.8	18	10
2023-09-24T12:00	11456	220	-53.9	-66.0	13	10
2023-09-24T12:00	11502	219	-54.3	-66.3	6	10
2023-09-24T12:00	11534	218	-54.5	-66.6	359	10
2023-09-24T12:00	11559	217	-54.7	-66.9	354	11
2023-09-24T12:00	11577	216	-54.7	-67.1	352	12
2023-09-24T12:00	11597	215	-54.4	-67.1	351	12
2023-09-24T12:00	11626	215	-54.5	-67.3	351	13
2023-09-24T12:00	11649	214	-54.6	-67.2	351	13
2023-09-24T12:00	11669	213	-54.7	-67.0	352	14
2023-09-24T12:00	11692	212	-54.9	-67.0	352	14
2023-09-24T12:00	11716	212	-55.1	-67.0	352	14
2023-09-24T12:00	11739	211	-55.3	-67.0	351	14
2023-09-24T12:00	11762	210	-55.5	-67.1	351	14
2023-09-24T12:00	11784	209	-55.7	-67.2	351	14
2023-09-24T12:00	11804	209	-55.9	-67.3	350	14
2023-09-24T12:00	11827	208	-56.1	-67.4	350	14
2023-09-24T12:00	11850	207	-56.3	-67.3	349	14
2023-09-24T12:00	11873	206	-56.5	-67.5	348	14
2023-09-24T12:00	11894	206	-56.7	-67.7	346	14
2023-09-24T12:00	11919	205	-56.9	-68.0	345	14
2023-09-24T12:00	11941	204	-57.0	-68.3	343	15
2023-09-24T12:00	11964	203	-57.2	-68.5	341	15
2023-09-24T12:00	11988	203	-57.2	-68.6	338	16
2023-09-24T12:00	12012	202	-57.2	-68.7	336	16
2023-09-24T12:00	12045	201	-57.0	-68.8	333	16
2023-09-24T12:00	12066	200	-56.9	-68.8	330	16
2023-09-24T12:00	12091	199	-57.0	-69.2	328	17
2023-09-24T12:00	12113	199	-57.0	-69.6	325	17
2023-09-24T12:00	12134	198	-56.6	-69.9	323	17
2023-09-24T12:00	12156	197	-56.4	-70.6	321	18
2023-09-24T12:00	12178	197	-56.2	-71.4	321	18
2023-09-24T12:00	12201	196	-56.1	-72.3	321	18
2023-09-24T12:00	12223	195	-55.8	-72.8	322	18
2023-09-24T12:00	12244	195	-55.4	-72.9	324	18
2023-09-24T12:00	12263	194	-55.1	-72.9	326	18
2023-09-24T12:00	12285	193	-54.9	-73.0	327	18
2023-09-24T12:00	12303	193	-54.5	-73.2	328	18
2023-09-24T12:00	12323	192	-54.3	-73.6	329	18
2023-09-24T12:00	12344	192	-54.4	-74.1	331	17
2023-09-24T12:00	12361	191	-54.3	-74.5	333	17
2023-09-24T12:00	12378	191	-54.1	-74.8	335	16
2023-09-24T12:00	12398	190	-53.8	-75.1	337	15
2023-09-24T12:00	12419	189	-53.3	-75.4	339	15
2023-09-24T12:00	12438	189	-52.9	-75.7	341	14
2023-09-24T12:00	12456	188	-52.6	-75.9	343	13
2023-09-24T12:00	12478	188	-52.6	-76.1	344	13
2023-09-24T12:00	12498	187	-52.6	-76.3	346	12
2023-09-24T12:00	12519	187	-52.2	-76.4	348	12
2023-09-24T12:00	12539	186	-52.0	-76.6	349	12
2023-09-24T12:00	12563	185	-52.0	-76.8	350	12
2023-09-24T12:00	12583	185	-52.2	-76.7	351	11
2023-09-24T12:00	12603	184	-52.3	-76.8	352	11
2023-09-24T12:00	12623	184	-52.5	-76.8	353	11
2023-09-24T12:00	12642	183	-52.7	-76.9	354	11
2023-09-24T12:00	12665	182	-52.9	-76.9	354	12
2023-09-24T12:00	12684	182	-53.0	-77.0	354	12
2023-09-24T12:00	12705	181	-53.2	-77.0	352	13
2023-09-24T12:00	12735	180	-53.5		349	14
2023-09-24T12:00	12770	179	-53.7	-77.2	346	15
2023-09-24T12:00	12791	179	-53.8	-77.3	343	15
2023-09-24T12:00	12810	178	-53.9	-77.5	341	16
2023-09-24T12:00	12832	178	-53.9	-77.5	338	16
2023-09-24T12:00	12854	177	-53.9	-77.5	335	16
2023-09-24T12:00	12876	176	-54.1	-77.9	334	16
2023-09-24T12:00	12901	176	-54.2	-77.9	333	17
2023-09-24T12:00	12920	175	-54.3	-78.0	333	17
2023-09-24T12:00	12940	175	-54.4	-78.3	333	17
2023-09-24T12:00	12960	174	-54.4	-78.3	333	18
2023-09-24T12:00	12982	174	-54.6	-78.5	333	18
2023-09-24T12:00	13001	173	-54.6	-78.5	332	18
2023-09-24T12:00	13022	172	-54.6	-78.5	330	19
2023-09-24T12:00	13044	172	-54.5	-78.6	329	19
2023-09-24T12:00	13063	171	-54.4	-78.7	328	19
2023-09-24T12:00	13085	171	-54.3	-78.8	328	20
2023-09-24T12:00	13107	170	-54.4	-78.9	329	19
2023-09-24T12:00	13129	170	-54.3	-79.0	331	19
2023-09-24T12:00	13157	169	-53.9	-78.9	334	18
2023-09-24T12:00	13181	168	-53.6	-78.9	337	18
2023-09-24T12:00	13211	168	-53.5	-78.9	339	17
2023-09-24T12:00	13236	167	-53.5	-78.9	342	16
2023-09-24T12:00	13260	166	-53.5	-78.9	344	15
2023-09-24T12:00	13282	166	-53.6	-78.9	345	15
2023-09-24T12:00	13303	165	-53.7	-79.0	346	14
2023-09-24T12:00	13328	164	-53.8	-79.1	347	13
2023-09-24T12:00	13355	164	-53.7	-79.3	348	13
2023-09-24T12:00	13380	163	-53.7	-79.3	349	12
2023-09-24T12:00	13406	162	-53.8	-79.3	348	12
2023-09-24T12:00	13431	162	-54.0	-79.5	348	12
2023-09-24T12:00	13456	161	-54.1	-79.6	347	12
2023-09-24T12:00	13479	161	-54.3	-79.7	345	11
2023-09-24T12:00	13502	160	-54.5	-79.6	343	11
2023-09-24T12:00	13525	159	-54.7	-79.8	341	11
2023-09-24T12:00	13550	159	-54.9	-80.0	338	11
2023-09-24T12:00	13573	158	-55.1		335	11
2023-09-24T12:00	13595	158	-55.3	-80.0	333	10
2023-09-24T12:00	13617	157	-55.4	-80.1	330	10
2023-09-24T12:00	13641	157	-55.5	-80.2	328	10
2023-09-24T12:00	13661	156	-55.5	-80.4	326	11
2023-09-24T12:00	13685	156	-55.3	-80.3	325	11
2023-09-24T12:00	13706	155	-55.0	-80.3	324	11
2023-09-24T12:00	13727	155	-55.0	-80.5	323	12
2023-09-24T12:00	13747	154	-55.0	-80.8	322	13
2023-09-24T12:00	13769	153	-54.8	-80.6	321	13
2023-09-24T12:00	13792	153	-54.6	-80.7	321	14
2023-09-24T12:00	13814	152	-54.6	-80.7	322	14
2023-09-24T12:00	13837	152	-54.7	-80.8	324	15
2023-09-24T12:00	13861	151	-54.8	-81.2	327	15
2023-09-24T12:00	13881	151	-54.7	-81.1	330	15
2023-09-24T12:00	13902	150	-54.6	-81.0	332	15
2023-09-24T12:00	13925	150	-54.6	-81.0	334	15
2023-09-24T12:00	13947	149	-54.6	-81.0	336	15
2023-09-24T12:00	13969	149	-54.7	-81.1	337	15
2023-09-24T12:00	13989	148	-54.7	-81.4	337	14
2023-09-24T12:00	14010	148	-54.7	-81.4	338	14
2023-09-24T12:00	14033	147	-54.7	-81.4	338	14
2023-09-24T12:00	14056	147	-54.7	-81.4	337	13
2023-09-24T12:00	14076	146	-54.5	-81.5	336	13
2023-09-24T12:00	14099	146	-54.3	-81.4	336	13
2023-09-24T12:00	14120	145	-54.4	-81.5	335	13
2023-09-24T12:00	14141	145	-54.6	-81.6	335	12
2023-09-24T12:00	14163	144	-54.7	-81.7	335	12
2023-09-24T12:00	14186	144	-54.7	-81.7	336	12
2023-09-24T12:00	14206	143	-54.3	-81.7	338	12
2023-09-24T12:00	14230	143	-54.3	-81.7	339	11
2023-09-24T12:00	14256	142	-54.4	-81.8	340	11
2023-09-24T12:00	14277	142	-54.5	-81.9	341	10
2023-09-24T12:00	14302	141	-54.6	-81.9	341	9
2023-09-24T12:00	14328	141	-54.7	-82.0	342	9
2023-09-24T12:00	14352	140	-54.7	-82.0	343	8
2023-09-24T12:00	14379	140	-54.8	-82.1	343	8
2023-09-24T12:00	14400	139	-55.0	-81.9	345	7
2023-09-24T12:00	14426	139	-55.2	-82.1	345	7
2023-09-24T12:00	14450	138	-55.3	-82.2	345	7
2023-09-24T12:00	14470	138	-55.4	-81.9	344	6
2023-09-24T12:00	14492	137	-55.6	-82.1	342	6
2023-09-24T12:00	14512	137	-55.8	-82.2	339	6
2023-09-24T12:00	14533	136	-55.9	-82.3	335	6
2023-09-24T12:00	14555	136	-56.0	-82.4	332	7
2023-09-24T12:00	14578	135	-56.1	-82.5	328	7
2023-09-24T12:00	14601	135	-56.2	-82.6	326	8
2023-09-24T12:00	14625	134	-56.3	-82.6	323	8
2023-09-24T12:00	14645	134	-56.4	-82.7	321	9
2023-09-24T12:00	14671	133	-56.5	-82.8	320	9
2023-09-24T12:00	14697	133	-56.7	-82.9	319	10
2023-09-24T12:00	14724	132	-56.8	-83.0	318	11
2023-09-24T12:00	14746	132	-57.0	-83.2	318	11
2023-09-24T12:00	14770	131	-57.0	-83.2	318	11
2023-09-24T12:00	14795	131	-56.9	-83.1	318	12
2023-09-24T12:00	14819	130	-56.9	-83.1	318	12
2023-09-24T12:00	14844	130	-57.0	-83.2	318	12
2023-09-24T12:00	14870	129	-56.9	-83.1	318	13
2023-09-24T12:00	14896	129	-56.9	-83.4	318	13
2023-09-24T12:00	14919	128	-57.0	-83.5	319	13
2023-09-24T12:00	14944	128	-57.1	-83.2	319	13
2023-09-24T12:00	14971	127	-57.2	-83.3	320	14
2023-09-24T12:00	14993	127	-57.2	-83.3	321	14
2023-09-24T12:00	15018	126	-57.0	-83.5	321	14
2023-09-24T12:00	15043	126	-57.1	-83.5	321	14
2023-09-24T12:00	15068	125	-57.2	-83.3	321	13
2023-09-24T12:00	15094	125	-57.0	-83.2	321	13
2023-09-24T12:00	15119	124	-57.1	-83.2	320	12
2023-09-24T12:00	15144	124	-57.2	-83.3	319	12
2023-09-24T12:00	15168	123	-57.3	-83.4	319	12
2023-09-24T12:00	15192	123	-57.4	-83.2	319	12
2023-09-24T12:00	15216	122	-57.5	-83.3	320	12
2023-09-24T12:00	15240	122	-57.5	-83.3	322	13
2023-09-24T12:00	15266	121	-57.6	-83.3	324	13
2023-09-24T12:00	15288	121	-57.6	-83.3	325	14
2023-09-24T12:00	15313	120	-57.7	-83.4	325	14
2023-09-24T12:00	15337	120	-57.7	-83.4	325	15
2023-09-24T12:00	15361	120	-57.8	-83.5	325	14
2023-09-24T12:00	15385	119	-57.9	-83.3	324	14
2023-09-24T12:00	15410	119	-57.9	-83.3	323	14
2023-09-24T12:00	15433	118	-57.9	-83.3	323	13
2023-09-24T12:00	15453	118	-58.0	-83.4	323	13
2023-09-24T12:00	15475	117	-58.1	-83.5	323	13
2023-09-24T12:00	15498	117	-58.0	-83.4	324	13
2023-09-24T12:00	15521	117	-58.0	-83.4	325	13
2023-09-24T12:00	15543	116	-58.1	-83.2	326	13
2023-09-24T12:00	15565	116	-58.3		326	13
2023-09-24T12:00	15591	115	-58.5	-83.5	327	13
2023-09-24T12:00	15615	115	-58.6	-83.3	328	13
2023-09-24T12:00	15638	114	-58.8	-83.5	328	13
2023-09-24T12:00	15660	114	-58.9	-83.6	329	13
2023-09-24T12:00	15681	114	-59.1	-83.5	329	13
2023-09-24T12:00	15702	113	-59.2	-83.6	329	13
2023-09-24T12:00	15726	113	-59.2	-83.8	328	12
2023-09-24T12:00	15750	112	-59.0	-83.7	328	12
2023-09-24T12:00	15774	112	-58.8	-83.5	327	12
2023-09-24T12:00	15797	112	-58.8	-83.8	326	11
2023-09-24T12:00	15820	111	-58.9		325	11
2023-09-24T12:00	15843	111	-59.1	-84.0	324	11
2023-09-24T12:00	15867	110	-59.3	-83.9	322	11
2023-09-24T12:00	15890	110	-59.5	-84.1	319	10
2023-09-24T12:00	15915	109	-59.7	-84.2	317	10
2023-09-24T12:00	15937	109	-59.9	-84.1	315	10
2023-09-24T12:00	15958	109	-60.0	-84.4	313	10
2023-09-24T12:00	15980	108	-59.9	-84.4	312	10
2023-09-24T12:00	16004	108	-59.7	-84.5	312	10
2023-09-24T12:00	16025	108	-59.8	-84.5	313	11
2023-09-24T12:00	16049	107	-59.8	-84.8	314	11
2023-09-24T12:00	16069	107	-59.9	-84.9	315	11
2023-09-24T12:00	16092	106	-59.9	-84.9	316	11
2023-09-24T12:00	16117	106	-59.9	-84.9	318	11
2023-09-24T12:00	16139	106	-59.9	-84.9	319	11
2023-09-24T12:00	16159	105	-59.9	-85.1	320	11
2023-09-24T12:00	16184	105	-59.7	-85.0	320	11
2023-09-24T12:00	16207	104	-59.4	-85.0	320	11
2023-09-24T12:00	16229	104	-59.3	-85.0	319	11
2023-09-24T12:00	16250	104	-59.2	-85.2	318	12
2023-09-24T12:00	16275	103	-59.1	-85.1	318	12
2023-09-24T12:00	16298	103	-59.1	-85.1	318	13
2023-09-24T12:00	16319	103	-59.1	-85.1	318	13
2023-09-24T12:00	16343	102	-59.2	-84.9	319	13
2023-09-24T12:00	16363	102	-59.2	-84.9	320	13
2023-09-24T12:00	16384	102	-59.2	-84.9	320	13
2023-09-24T12:00	16406	101	-59.1	-85.1	320	13
2023-09-24T12:00	16427	101	-59.0	-85.0	320	14
2023-09-24T12:00	16450	100	-58.9	-85.3	319	14
2023-09-24T12:00	16473	100	-58.7	-85.1	318	15
2023-09-24T12:00	16494	100	-58.7	-85.4	318	14
2023-09-24T12:00	16516	99	-58.6	-85.4	318	14
2023-09-24T12:00	16539	99	-58.4	-85.2	319	14
2023-09-24T12:00	16559	99	-57.8	-85.1	321	13
2023-09-24T12:00	16583	98	-57.4	-84.8	324	12
2023-09-24T12:00	16603	98	-57.2	-85.0	326	12
2023-09-24T12:00	16622	98	-57.3	-85.1	326	11
2023-09-24T12:00	16644	97	-57.3	-85.1	325	11
2023-09-24T12:00	16664	97	-57.4	-85.2	321	10
2023-09-24T12:00	16689	97	-57.5	-85.2	317	10
2023-09-24T12:00	16710	96	-57.1	-85.3	312	11
2023-09-24T12:00	16733	96	-56.8	-85.1	307	11
2023-09-24T12:00	16753	96	-56.5	-85.3	304	11
2023-09-24T12:00	16774	95	-56.1	-85.0	301	11
2023-09-24T12:00	16795	95	-55.9	-85.3	300	11
2023-09-24T12:00	16817	95	-55.8	-85.2	299	11
2023-09-24T12:00	16840	94	-55.7	-85.2	299	11
2023-09-24T12:00	16862	94	-55.7	-85.2	300	11
2023-09-24T12:00	16884	94	-55.7	-85.2	301	11
2023-09-24T12:00	16907	93	-55.6	-85.1	303	11
2023-09-24T12:00	16930	93	-55.3	-84.9	304	11
2023-09-24T12:00	16954	93	-55.2	-84.8	306	11
2023-09-24T12:00	16975	92	-55.1	-85.2	307	10
2023-09-24T12:00	16999	92	-55.0	-85.1	308	10
2023-09-24T12:00	17022	92	-55.1	-84.7	309	10
2023-09-24T12:00	17046	91	-55.2	-84.8	310	9
2023-09-24T12:00	17069	91	-55.3	-84.9	311	9
2023-09-24T12:00	17094	91	-55.3	-84.9	313	8
2023-09-24T12:00	17117	90	-55.3	-84.9	315	8
2023-09-24T12:00	17144	90	-55.5	-85.0	318	8
2023-09-24T12:00	17165	90	-55.6	-85.1	321	8
2023-09-24T12:00	17193	89	-55.6	-85.1	324	8
2023-09-24T12:00	17216	89	-55.6	-85.1	327	7
2023-09-24T12:00	17242	89	-55.7	-85.2	330	7
2023-09-24T12:00	17267	88	-55.8	-84.8	333	7
2023-09-24T12:00	17294	88	-56.0	-84.9	335	6
2023-09-24T12:00	17318	88	-56.1	-85.0	337	6
2023-09-24T12:00	17341	87	-56.2	-85.1	338	5
2023-09-24T12:00	17370	87	-56.3	-85.1	339	5
2023-09-24T12:00	17390	87	-56.5	-85.3	339	5
2023-09-24T12:00	17414	86	-56.7	-85.4	340	5
2023-09-24T12:00	17442	86	-56.9	-85.2	340	5
2023-09-24T12:00	17469	86	-57.1	-85.3	341	5
2023-09-24T12:00	17495	85	-57.4	-85.6	341	5
2023-09-24T12:00	17521	85	-57.6	-85.7	342	5
2023-09-24T12:00	17550	84	-57.8	-85.9	343	5
2023-09-24T12:00	17577	84	-57.8	-85.9	345	6
2023-09-24T12:00	17603	84	-57.8	-85.9	348	6
2023-09-24T12:00	17631	83	-57.8	-85.9	351	6
2023-09-24T12:00	17655	83	-57.8	-85.9	355	6
2023-09-24T12:00	17685	83	-57.9		359	6
2023-09-24T12:00	17710	82	-58.0	-86.0	5	6
2023-09-24T12:00	17738	82	-58.3	-85.8	11	5
2023-09-24T12:00	17770	82	-58.4	-85.9	16	5
2023-09-24T12:00	17797	81	-58.4	-85.9	21	5
2023-09-24T12:00	17828	81	-58.5	-86.0	24	5
2023-09-24T12:00	17853	81	-58.5	-86.0	23	5
2023-09-24T12:00	17880	80	-58.8	-86.2	21	5
2023-09-24T12:00	17904	80	-58.9	-86.3	16	5
2023-09-24T12:00	17929	80	-59.0	-86.4	11	5
2023-09-24T12:00	17955	79	-59.1	-86.5	6	5
2023-09-24T12:00	17981	79	-59.1	-86.5	1	5
2023-09-24T12:00	18006	79	-58.8	-86.2	357	4
2023-09-24T12:00	18032	78	-58.8	-86.6	354	4
2023-09-24T12:00	18057	78	-58.7	-86.5	350	4
2023-09-24T12:00	18080	78	-58.7	-86.5	347	4
2023-09-24T12:00	18105	77	-58.6	-86.5	344	4
2023-09-24T12:00	18127	77	-58.7	-86.1	341	3
2023-09-24T12:00	18148	77	-58.9	-86.3	336	3
2023-09-24T12:00	18176	76	-59.0	-86.4	329	3
2023-09-24T12:00	18200	76	-59.3	-86.6	317	2
2023-09-24T12:00	18223	76	-59.3	-87.0	300	2
2023-09-24T12:00	18247	76	-58.7	-86.5	283	2
2023-09-24T12:00	18271	75	-58.4	-86.3	270	2
2023-09-24T12:00	18290	75	-58.2	-86.6	262	3
2023-09-24T12:00	18316	75	-58.2	-86.6	257	3
2023-09-24T12:00	18341	75	-58.3	-86.2	251	3
2023-09-24T12:00	18363	74	-58.5	-86.4	246	4
2023-09-24T12:00	18388	74	-58.5	-86.4	242	4
2023-09-24T12:00	18413	74	-58.6	-86.5	239	4
2023-09-24T12:00	18438	73	-58.8	-86.2	237	4
2023-09-24T12:00	18463	73	-59.0	-86.4	236	4
2023-09-24T12:00	18488	73	-59.2	-86.5	235	5
2023-09-24T12:00	18511	72	-59.4	-86.7	234	5
2023-09-24T12:00	18536	72	-59.6	-86.5	233	6
2023-09-24T12:00	18560	72	-59.7	-86.5	232	6
2023-09-24T12:00	18587	72	-59.9	-86.7	231	7
2023-09-24T12:00	18609	71	-59.8	-86.6	231	8
2023-09-24T12:00	18634	71	-59.7	-86.9	231	8
2023-09-24T12:00	18660	71	-59.8	-87.0	233	9
2023-09-24T12:00	18684	71	-59.9	-87.1	235	9
2023-09-24T12:00	18708	70	-59.9	-87.1	237	10
2023-09-24T12:00	18737	70	-59.9	-87.1	239	10
2023-09-24T12:00	18758	70	-59.7	-86.9	241	11
2023-09-24T12:00	18784	69	-59.5	-87.1	243	11
2023-09-24T12:00	18808	69	-59.3	-87.0	245	11
2023-09-24T12:00	18834	69	-59.2	-86.9	248	12
2023-09-24T12:00	18859	69	-59.1	-86.8	250	12
2023-09-24T12:00	18881	68	-59.0	-86.8	252	12
2023-09-24T12:00	18907	68	-58.8	-86.6	254	12
2023-09-24T12:00	18931	68	-58.6	-86.9	255	12
2023-09-24T12:00	18959	67	-58.7	-87.0	257	12
2023-09-24T12:00	18981	67	-58.6	-86.9	258	12
2023-09-24T12:00	19006	67	-58.5	-86.4	258	12
2023-09-24T12:00	19031	67	-58.6	-86.5	259	12
2023-09-24T12:00	19059	66	-58.5	-86.4	260	12
2023-09-24T12:00	19080	66	-58.4	-86.7	262	11
2023-09-24T12:00	19108	66	-58.4	-86.7	264	11
2023-09-24T12:00	19130	66	-58.3	-86.7	267	11
2023-09-24T12:00	19154	65	-58.1	-86.5	270	10
2023-09-24T12:00	19178	65	-57.9	-86.8	272	10
2023-09-24T12:00	19201	65	-57.5	-86.5	274	10
2023-09-24T12:00	19225	65	-57.2	-86.3	275	10
2023-09-24T12:00	19250	64	-57.2	-86.3	276	10
2023-09-24T12:00	19275	64	-57.2	-86.3	277	10
2023-09-24T12:00	19299	64	-57.1	-86.2	278	10
2023-09-24T12:00	19323	64	-57.2	-86.3	279	10
2023-09-24T12:00	19349	63	-57.3	-86.4	280	10
2023-09-24T12:00	19373	63	-57.4	-86.4	282	10
2023-09-24T12:00	19398	63	-57.3	-86.4	285	10
2023-09-24T12:00	19428	63	-57.2	-86.3	288	8
2023-09-24T12:00	19457	62	-57.0	-86.1	292	7
2023-09-24T12:00	19483	62	-56.8	-86.5	295	6
2023-09-24T12:00	19509	62	-56.4	-86.2	296	5
2023-09-24T12:00	19534	62	-55.9	-85.8	293	4
2023-09-24T12:00	19557	61	-55.5	-86.1	289	4
2023-09-24T12:00	19583	61	-55.3	-85.4	283	4
2023-09-24T12:00	19607	61	-55.4	-85.4	278	4
2023-09-24T12:00	19635	61	-55.7	-85.7	272	4
2023-09-24T12:00	19657	60	-55.9	-85.8	266	4
2023-09-24T12:00	19684	60	-56.1	-85.5	259	4
2023-09-24T12:00	19711	60	-56.4	-85.7	253	5
2023-09-24T12:00	19735	60	-56.6	-85.8	246	5
2023-09-24T12:00	19757	59	-56.7	-85.4	240	5
2023-09-24T12:00	19777	59	-56.9	-85.6	234	6
2023-09-24T12:00	19805	59	-57.1	-85.7	227	6
2023-09-24T12:00	19832	59	-57.3	-85.9	220	6
2023-09-24T12:00	19862	59	-57.3	-85.9	215	7
2023-09-24T12:00	19884	58	-57.3	-85.9	212	7
2023-09-24T12:00	19919	58	-57.5	-86.1	209	8
2023-09-24T12:00	19941	58	-57.8	-86.3	208	8
2023-09-24T12:00	19969	58	-58.0	-86.0	207	8
2023-09-24T12:00	20001	57	-58.2	-86.2	207	9
2023-09-24T12:00	20027	57	-58.4	-86.3	206	9
2023-09-24T12:00	20050	57	-58.5	-86.4	207	9
2023-09-24T12:00	20073	57	-58.6	-86.5	208	9
2023-09-24T12:00	20098	56	-58.6	-86.5	211	9
2023-09-24T12:00	20122	56	-58.7	-86.5	213	10
2023-09-24T12:00	20145	56	-58.8	-86.6	216	10
2023-09-24T12:00	20170	56	-58.9	-86.7	218	10
2023-09-24T12:00	20197	55	-58.9	-86.7	221	10
2023-09-24T12:00	20220	55	-58.9	-86.7	223	10
2023-09-24T12:00	20246	55	-59.1	-86.5	226	10
2023-09-24T12:00	20267	55	-59.3	-86.6	229	10
2023-09-24T12:00	20296	55	-59.6	-86.8	232	11
2023-09-24T12:00	20319	54	-59.7	-86.9	235	11
2023-09-24T12:00	20343	54	-59.9	-87.1	237	11
2023-09-24T12:00	20368	54	-60.0	-86.8	239	12
2023-09-24T12:00	20395	54	-60.2	-86.9	240	12
2023-09-24T12:00	20420	54	-60.2	-87.3	241	13
2023-09-24T12:00	20445	53	-60.2	-87.3	243	13
2023-09-24T12:00	20473	53	-60.2	-87.3	244	13
2023-09-24T12:00	20500	53	-60.2	-87.3	247	13
2023-09-24T12:00	20524	53	-59.9	-87.4	249	13
2023-09-24T12:00	20550	52	-59.6	-87.2	251	13
2023-09-24T12:00	20577	52	-59.5	-87.1	254	12
2023-09-24T12:00	20606	52	-59.4	-87.5	257	12
2023-09-24T12:00	20632	52	-59.3	-87.4	259	11
2023-09-24T12:00	20659	52	-59.3	-87.0	263	10
2023-09-24T12:00	20688	51	-59.4	-87.1	267	10
2023-09-24T12:00	20713	51	-59.6	-87.2	271	9
2023-09-24T12:00	20741	51	-59.5	-87.1	276	8
2023-09-24T12:00	20768	51	-59.4	-87.1	280	8
2023-09-24T12:00	20796	50	-59.2	-87.3	284	7
2023-09-24T12:00	20820	50	-59.2	-87.3	286	6
2023-09-24T12:00	20852	50	-59.2	-87.3	287	5
2023-09-24T12:00	20879	50	-58.9	-87.1	287	4
2023-09-24T12:00	20902	50	-58.6	-86.9	286	4
2023-09-24T12:00	20928	49	-58.5	-86.8	284	3
2023-09-24T12:00	20953	49	-58.5	-86.8	281	3
2023-09-24T12:00	20973	49	-58.5	-86.8	278	3
2023-09-24T12:00	21006	49	-58.6	-86.9	275	3
2023-09-24T12:00	21033	49	-58.5	-86.8	269	3
2023-09-24T12:00	21058	48	-58.5	-86.8	258	2
2023-09-24T12:00	21079	48	-58.4	-86.7	242	2
2023-09-24T12:00	21105	48	-58.5	-86.8	226	2
2023-09-24T12:00	21132	48	-58.6	-86.9	214	2
2023-09-24T12:00	21155	48	-58.5	-87.3	208	2
2023-09-24T12:00	21184	47	-58.3	-87.1	206	2
2023-09-24T12:00	21207	47	-58.2	-87.0	208	2
2023-09-24T12:00	21229	47	-58.3	-87.1	210	3
2023-09-24T12:00	21255	47	-58.2	-87.0	213	3
2023-09-24T12:00	21278	47	-58.2	-87.0	215	3
2023-09-24T12:00	21300	47	-58.3	-87.1	218	4
2023-09-24T12:00	21328	46	-58.4	-86.7	222	4
2023-09-24T12:00	21353	46	-58.4	-86.7	225	5
2023-09-24T12:00	21379	46	-58.5	-86.8	228	5
2023-09-24T12:00	21403	46	-58.5	-86.8	230	5
2023-09-24T12:00	21428	46	-58.6	-86.9	231	5
2023-09-24T12:00	21451	45	-58.6	-86.9	231	6
2023-09-24T12:00	21477	45	-58.6	-86.9	231	6
2023-09-24T12:00	21504	45	-58.7	-87.0	231	6
2023-09-24T12:00	21525	45	-58.8	-87.0	230	6
2023-09-24T12:00	21552	45	-58.9	-87.1	229	7
2023-09-24T12:00	21580	45	-58.9	-87.1	228	7
2023-09-24T12:00	21606	44	-59.1	-86.8	227	7
2023-09-24T12:00	21627	44	-59.2	-86.9	225	7
2023-09-24T12:00	21649	44	-59.4	-87.1	223	7
2023-09-24T12:00	21676	44	-59.5	-87.1	220	7
2023-09-24T12:00	21702	44	-59.5	-87.1	218	8
2023-09-24T12:00	21730	43	-59.5	-87.6	216	8
2023-09-24T12:00	21755	43	-59.5	-87.6	214	8
2023-09-24T12:00	21779	43	-59.4	-87.5	215	9
2023-09-24T12:00	21807	43	-59.4	-87.5	216	9
2023-09-24T12:00	21832	43	-59.2	-87.3	219	10
2023-09-24T12:00	21858	43	-59.0	-87.2	222	10
2023-09-24T12:00	21887	42	-59.0	-87.2	226	11
2023-09-24T12:00	21909	42	-59.1	-87.3	229	11
2023-09-24T12:00	21933	42	-59.2	-87.3	233	12
2023-09-24T12:00	21962	42	-59.3	-87.4	237	13
2023-09-24T12:00	21987	42	-59.3	-87.4	240	13
2023-09-24T12:00	22011	42	-59.3	-87.4	244	14
2023-09-24T12:00	22040	41	-59.2	-87.3	247	15
2023-09-24T12:00	22066	41	-59.0	-87.6	250	16
2023-09-24T12:00	22093	41	-58.8	-87.5	254	16
2023-09-24T12:00	22120	41	-58.8	-87.5	256	16
2023-09-24T12:00	22149	41	-58.5	-87.7	259	16
2023-09-24T12:00	22177	40	-58.1	-87.4	261	16
2023-09-24T12:00	22206	40	-57.7	-87.7	263	16
2023-09-24T12:00	22232	40	-57.4	-87.5	265	15
2023-09-24T12:00	22261	40	-57.4	-87.5	266	14
2023-09-24T12:00	22292	40	-57.5	-87.5	266	13
2023-09-24T12:00	22319	40	-57.3	-86.9	267	13
2023-09-24T12:00	22348	39	-57.1	-86.7	268	12
2023-09-24T12:00	22378	39	-57.0	-86.6	269	12
2023-09-24T12:00	22400	39	-56.9	-86.6	270	11
2023-09-24T12:00	22433	39	-56.9	-86.6	270	11
2023-09-24T12:00	22456	39	-56.9	-86.6	271	10
2023-09-24T12:00	22480	39	-56.9	-86.6	270	10
2023-09-24T12:00	22506	38	-56.9	-86.6	269	10
2023-09-24T12:00	22536	38	-56.8	-86.5	267	10
2023-09-24T12:00	22559	38	-56.8	-86.5	265	9
2023-09-24T12:00	22585	38	-56.7	-86.4	263	9
2023-09-24T12:00	22609	38	-56.7	-86.4	261	8
2023-09-24T12:00	22633	38	-56.8	-86.5	258	8
2023-09-24T12:00	22658	38	-56.8	-86.5	256	7
2023-09-24T12:00	22677	37	-56.7	-86.4	253	7
2023-09-24T12:00	22706	37	-56.6	-86.3	249	6
2023-09-24T12:00	22729	37	-56.6	-86.3	245	6
2023-09-24T12:00	22755	37	-56.7	-86.9	241	6
2023-09-24T12:00	22779	37	-56.7	-86.9	238	6
2023-09-24T12:00	22802	37	-56.6	-86.9	236	6
2023-09-24T12:00	22827	37	-56.3	-86.6	235	6
2023-09-24T12:00	22856	36	-56.1	-86.5	235	6
2023-09-24T12:00	22876	36	-56.1	-86.5	235	6
2023-09-24T12:00	22899	36	-56.0	-86.4	235	6
2023-09-24T12:00	22924	36	-55.7	-86.2	233	6
2023-09-24T12:00	22952	36	-55.6	-86.1	230	6
2023-09-24T12:00	22975	36	-55.5	-86.1	224	6
2023-09-24T12:00	23002	36	-55.5	-86.1	218	6
2023-09-24T12:00	23024	35	-55.6	-86.1	213	6
2023-09-24T12:00	23053	35	-55.7	-86.2	211	6
2023-09-24T12:00	23080	35	-55.7	-86.2	212	6
2023-09-24T12:00	23098	35	-55.6	-86.1	217	6
2023-09-24T12:00	23135	35	-55.6	-86.1	223	6
2023-09-24T12:00	23157	35	-55.6	-86.1	228	6
2023-09-24T12:00	23185	35	-55.5	-86.1	230	7
2023-09-24T12:00	23215	34	-55.6	-86.1	230	7
2023-09-24T12:00	23239	34	-55.8	-86.3	229	7
2023-09-24T12:00	23268	34	-56.0	-85.9	228	8
2023-09-24T12:00	23296	34	-56.2	-86.0	228	8
2023-09-24T12:00	23328	34	-56.5	-86.3	229	9
2023-09-24T12:00	23356	34	-56.7	-85.9	231	9
2023-09-24T12:00	23382	33	-57.0	-86.1	234	9
2023-09-24T12:00	23418	33	-57.2	-86.3	237	9
2023-09-24T12:00	23450	33	-57.4	-86.4	241	9
2023-09-24T12:00	23477	33	-57.5	-86.5	245	9
2023-09-24T12:00	23506	33	-57.6	-86.6	247	9
2023-09-24T12:00	23537	33	-57.7	-86.7	248	8
2023-09-24T12:00	23569	32	-57.7	-86.7	246	8
2023-09-24T12:00	23605	32	-57.6	-86.6	242	7
2023-09-24T12:00	23630	32	-57.7	-86.7	236	6
2023-09-24T12:00	23659	32	-57.7	-87.2	230	6
2023-09-24T12:00	23690	32	-57.8	-87.2	225	6
2023-09-24T12:00	23716	32	-57.7	-87.2	221	6
2023-09-24T12:00	23747	32	-57.7	-87.2	219	6
2023-09-24T12:00	23778	31	-57.7	-87.2	218	7
2023-09-24T12:00	23809	31	-57.7	-87.2	217	7
2023-09-24T12:00	23839	31	-57.7	-87.2	217	7
2023-09-24T12:00	23865	31	-57.6	-87.1	216	8
2023-09-24T12:00	23901	31	-57.5	-87.0	216	8
2023-09-24T12:00	23930	31	-57.6	-87.1	219	8
2023-09-24T12:00	23963	31	-57.9	-87.3	223	9
2023-09-24T12:00	23990	30	-58.0	-87.4	228	9
2023-09-24T12:00	24015	30	-57.9	-87.3	235	10
2023-09-24T12:00	24049	30	-57.8	-87.2	241	10
2023-09-24T12:00	24073	30	-57.7	-87.2	246	10
2023-09-24T12:00	24099	30	-57.4	-86.9	251	10
2023-09-24T12:00	24129	30	-57.2	-87.3	256	10
2023-09-24T12:00	24158	30	-57.2	-87.3	260	10
2023-09-24T12:00	24183	29	-57.1	-87.2	264	9
2023-09-24T12:00	24211	29	-56.9	-87.1	267	9
2023-09-24T12:00	24232	29	-56.9	-87.1	269	9
2023-09-24T12:00	24261	29	-56.9	-87.1	269	8
2023-09-24T12:00	24279	29	-57.0	-87.2	268	8
2023-09-24T12:00	24303	29	-57.0	-87.2	265	7
2023-09-24T12:00	24324	29	-56.8	-87.0	261	6
2023-09-24T12:00	24357	29	-56.7	-86.9	255	6
2023-09-24T12:00	24382	29	-56.6	-86.9	249	5
2023-09-24T12:00	24405	28	-56.7	-86.9	244	5
2023-09-24T12:00	24431	28	-56.6	-86.9	240	4
2023-09-24T12:00	24456	28	-56.3	-86.6	239	3
2023-09-24T12:00	24483	28	-56.2	-86.6	241	3
2023-09-24T12:00	24506	28	-56.2	-86.6	245	3
2023-09-24T12:00	24527	28	-56.4		248	3
2023-09-24T12:00	24555	28	-56.6	-86.9	247	3
2023-09-24T12:00	24581	28	-56.7	-86.4	243	3
2023-09-24T12:00	24606	28	-56.8	-86.5	240	3
2023-09-24T12:00	24635	27	-56.6	-86.9	237	4
2023-09-24T12:00	24662	27	-56.4		237	4
2023-09-24T12:00	24689	27	-56.5	-86.8	239	5
2023-09-24T12:00	24716	27	-56.5	-86.8	240	5
2023-09-24T12:00	24740	27	-56.4		241	5
2023-09-24T12:00	24766	27	-56.1	-86.5	241	5
2023-09-24T12:00	24795	27	-55.9	-86.3	241	5
2023-09-24T12:00	24818	27	-55.8	-86.3	241	6
2023-09-24T12:00	24856	27	-55.8	-86.3	242	6
2023-09-24T12:00	24876	26	-55.9	-86.3	243	6
2023-09-24T12:00	24907	26	-56.0	-86.4	245	6
2023-09-24T12:00	24934	26	-56.1	-86.5	245	6
2023-09-24T12:00	24963	26	-55.9	-86.3	245	6
2023-09-24T12:00	24996	26	-55.7	-86.2	244	7
2023-09-24T12:00	25025	26	-55.6	-86.1	244	7
2023-09-24T12:00	25052	26	-55.6	-86.1	244	7
2023-09-24T12:00	25079	26	-55.7	-86.2	245	8
2023-09-24T12:00	25113	25	-55.8	-86.3	247	8
2023-09-24T12:00	25145	25	-55.9	-86.3	249	8
2023-09-24T12:00	25180	25	-56.0	-86.4	251	9
2023-09-24T12:00	25210	25	-56.1	-86.5	253	9
2023-09-24T12:00	25241	25	-56.1	-86.5	255	9
2023-09-24T12:00	25268	25	-56.0	-86.4	257	10
2023-09-24T12:00	25299	25	-55.8	-86.3	259	10
2023-09-24T12:00	25327	25	-55.7	-86.2	261	9
2023-09-24T12:00	25354	25	-55.7	-86.2	264	9
2023-09-24T12:00	25388	24	-55.8	-86.3	267	8
2023-09-24T12:00	25416	24	-55.8	-86.3	270	8
2023-09-24T12:00	25444	24	-55.8	-86.3	273	8
2023-09-24T12:00	25476	24	-55.8	-86.3	277	7
2023-09-24T12:00	25497	24	-55.7	-86.2	280	7
2023-09-24T12:00	25533	24	-55.9	-86.3	284	7
2023-09-24T12:00	25561	24	-56.1	-86.5	287	7
2023-09-24T12:00	25580	24	-56.3	-86.6	290	7
2023-09-24T12:00	25615	24	-56.4	-86.2	292	6
2023-09-24T12:00	25647	23	-56.5	-86.3	293	6
2023-09-24T12:00	25662	23	-56.6	-86.3	294	6
2023-09-24T12:00	25689	23	-56.8	-86.5	293	5
2023-09-24T12:00	25716	23	-56.9	-86.6	292	5
2023-09-24T12:00	25745	23	-57.0	-86.6	290	5
2023-09-24T12:00	25773	23	-57.1	-86.7	287	5
2023-09-24T12:00	25795	23	-56.9	-87.1	285	6
2023-09-24T12:00	25824	23	-56.6	-86.9	282	6
2023-09-24T12:00	25844	23	-56.6	-86.9	280	7
2023-09-24T12:00	25873	23	-56.7	-86.9	278	7
2023-09-24T12:00	25895	23	-56.6	-86.9	277	8
2023-09-24T12:00	25918	22	-56.6	-86.9	276	8
2023-09-24T12:00	25944	22	-56.6	-86.9	275	8
2023-09-24T12:00	25970	22	-56.6	-86.9	273	8
2023-09-24T12:00	25996	22	-56.8	-87.0	270	8
2023-09-24T12:00	26022	22	-56.8	-87.0	267	7
2023-09-24T12:00	26054	22	-56.6	-86.9	263	7
2023-09-24T12:00	26076	22	-56.4		261	6
2023-09-24T12:00	26093	22	-56.3	-86.6	261	6
2023-09-24T12:00	26126	22	-56.2	-87.2	263	6
2023-09-24T12:00	26148	22	-56.0	-87.0	266	6
2023-09-24T12:00	26176	22	-55.8	-86.9	270	6
2023-09-24T12:00	26204	21	-55.8	-86.9	272	6
2023-09-24T12:00	26232	21	-55.8	-86.9	274	6
2023-09-24T12:00	26259	21	-55.8	-86.9	273	6
2023-09-24T12:00	26299	21	-55.7	-86.8	270	6
2023-09-24T12:00	26318	21	-55.7	-86.8	264	5
2023-09-24T12:00	26351	21	-55.7	-86.8	257	5
2023-09-24T12:00	26374	21	-55.7	-86.8	251	6
2023-09-24T12:00	26411	21	-55.6	-86.7	248	6
2023-09-24T12:00	26434	21	-55.4	-86.6	249	6
2023-09-24T12:00	26478	21	-55.1	-86.4	252	6
2023-09-24T12:00	26489	20	-54.8	-86.8	257	6
2023-09-24T12:00	26535	20	-54.5	-86.6	263	6
2023-09-24T12:00	26572	20	-54.5	-85.9	267	6
2023-09-24T12:00	26586	20	-54.6	-86.0	271	6
2023-09-24T12:00	26629	20	-54.9	-86.2	272	6
2023-09-24T12:00	26656	20	-55.1	-86.4	271	6
2023-09-24T12:00	26689	20	-55.1	-86.4	269	6
2023-09-24T12:00	26725	20	-54.9	-86.2	264	5
2023-09-24T12:00	26756	20	-55.0	-86.3	257	5
2023-09-24T12:00	26785	20	-55.1	-86.4	249	5
2023-09-24T12:00	26820	19	-55.3	-86.5	242	5
2023-09-24T12:00	26853	19	-55.4	-86.6	237	5
2023-09-24T12:00	26880	19	-55.5	-86.7	234	5
2023-09-24T12:00	26914	19	-55.4	-86.6	233	5
2023-09-24T12:00	26940	19	-55.4	-86.6	234	5
2023-09-24T12:00	26970	19	-55.4	-86.6	235	5
2023-09-24T12:00	27007	19	-55.3	-86.5	236	5
2023-09-24T12:00	27040	19	-54.9	-86.9	237	5
2023-09-24T12:00	27065	19	-54.4	-86.5	239	5
2023-09-24T12:00	27100	19	-54.2	-86.4	243	5
2023-09-24T12:00	27119	19	-54.1	-86.3	248	5
2023-09-24T12:00	27160	18	-53.9	-86.2	253	5
2023-09-24T12:00	27186	18	-54.0	-86.2	256	4
2023-09-24T12:00	27218	18	-54.1	-86.3	255	4
2023-09-24T12:00	27241	18	-53.8	-86.1	251	4
2023-09-24T12:00	27274	18	-53.3	-85.7	245	5
2023-09-24T12:00	27298	18	-53.0	-85.5	239	5
2023-09-24T12:00	27316	18	-53.0	-85.5	234	5
2023-09-24T12:00	27353	18	-53.2	-85.6	230	6
2023-09-24T12:00	27371	18	-53.4	-85.8	229	6
2023-09-24T12:00	27399	18	-53.5	-85.9	230	7
2023-09-24T12:00	27435	18	-53.6		233	7
2023-09-24T12:00	27462	18	-53.6		237	8
2023-09-24T12:00	27476	18	-53.5	-85.9	242	8
2023-09-24T12:00	27494	18	-53.4	-85.8	246	9
2023-09-24T12:00	27533	17	-53.3	-85.7	249	9
2023-09-24T12:00	27545	17	-53.2	-85.6	250	10
2023-09-24T12:00	27577	17	-53.1	-85.6	250	10
2023-09-24T12:00	27600	17	-53.1	-85.6	249	10
2023-09-24T12:00	27630	17	-53.1	-85.6	247	10
2023-09-24T12:00	27658	17	-53.3	-85.7	246	10
2023-09-24T12:00	27681	17	-53.4	-85.8	246	11
2023-09-24T12:00	27707	17	-53.5	-85.2	247	11
2023-09-24T12:00	27728	17	-53.6	-85.3	248	11
2023-09-24T12:00	27759	17	-53.7	-85.3	249	12
2023-09-24T12:00	27779	17	-53.8	-85.4	250	12
2023-09-24T12:00	27806	17	-53.9	-85.5	251	12
2023-09-24T12:00	27838	17	-53.8	-86.1	251	12
2023-09-24T12:00	27855	17	-53.7	-86.0	251	12
2023-09-24T12:00	27881	17	-53.6		250	12
2023-09-24T12:00	27915	16	-53.5	-85.9	249	12
2023-09-24T12:00	27945	16	-53.4	-85.8	248	11
2023-09-24T12:00	27975	16	-53.4	-85.8	246	11
2023-09-24T12:00	28002	16	-53.4	-85.8	244	11
2023-09-24T12:00	28030	16	-53.2	-85.6	241	10
2023-09-24T12:00	28060	16	-53.0	-85.5	238	10
2023-09-24T12:00	28096	16	-53.0	-85.5	235	10
2023-09-24T12:00	28131	16	-52.9	-85.4	233	9
2023-09-24T12:00	28160	16	-52.7	-86.0	234	9
2023-09-24T12:00	28191	16	-52.6		236	10
2023-09-24T12:00	28215	16	-52.5	-85.9	238	10
2023-09-24T12:00	28245	16	-52.3	-85.8	241	11
2023-09-24T12:00	28286	16	-52.0	-85.5	244	12
2023-09-24T12:00	28316	15	-51.8	-85.4	246	12
2023-09-24T12:00	28350	15	-51.8	-85.4	248	13
2023-09-24T12:00	28375	15	-51.9	-85.5	251	14
2023-09-24T12:00	28419	15	-51.9	-85.5	254	14
2023-09-24T12:00	28454	15	-52.0	-84.8	257	15
2023-09-24T12:00	28481	15	-52.1	-84.8	259	15
2023-09-24T12:00	28513	15	-52.1	-85.6	262	15
2023-09-24T12:00	28561	15	-51.9	-85.5	265	15
2023-09-24T12:00	28598	15	-51.8	-85.4	267	15
2023-09-24T12:00	28631	15	-52.0	-85.5	270	15
2023-09-24T12:00	28665	15	-52.1	-85.6	272	14
2023-09-24T12:00	28687	15	-52.2	-84.9	273	14
2023-09-24T12:00	28725	15	-52.1	-84.8	274	13
2023-09-24T12:00	28753	14	-52.2	-84.9	276	12
2023-09-24T12:00	28787	14	-52.2	-84.9	277	12
2023-09-24T12:00	28810	14	-52.3	-85.0	279	11
2023-09-24T12:00	28843	14	-52.4	-85.1	281	11
2023-09-24T12:00	28871	14	-52.5	-85.1	283	11
2023-09-24T12:00	28896	14	-52.7	-85.3	284	11
2023-09-24T12:00	28930	14	-52.8	-85.3	284	11
2023-09-24T12:00	28946	14	-52.8	-85.3	283	10
2023-09-24T12:00	28980	14	-52.6	-85.2	282	10
2023-09-24T12:00	29018	14	-52.3	-85.8	281	10
2023-09-24T12:00	29026	14	-52.1	-85.6	279	10
2023-09-24T12:00	29068	14	-52.0	-85.5	277	9
2023-09-24T12:00	29080	14	-51.8	-85.4	274	9
2023-09-24T12:00	29105	14	-51.6	-85.2	272	9
2023-09-24T12:00	29140	14	-51.4	-85.1	271	9
2023-09-24T12:00	29158	14	-51.3	-85.0	269	9
2023-09-24T12:00	29186	14	-51.2	-85.0	268	9
2023-09-24T12:00	29214	13	-51.2	-85.0	267	8
2023-09-24T12:00	29242	13	-51.2	-85.0	265	8
2023-09-24T12:00	29259	13	-51.1	-84.9	264	8
2023-09-24T12:00	29275	13	-51.0	-84.8	263	7
2023-09-24T12:00	29321	13	-51.0	-84.8	260	7
2023-09-24T12:00	29337	13	-51.0	-84.8	257	7
2023-09-24T12:00	29367	13	-51.0	-84.8	253	7
2023-09-24T12:00	29395	13	-51.0	-84.8	250	7
2023-09-24T12:00	29415	13	-50.9	-84.7	247	7
2023-09-24T12:00	29451	13	-50.8	-84.7	245	8
2023-09-24T12:00	29468	13	-50.6	-85.4	245	8
2023-09-24T12:00	29498	13	-50.4	-85.3	245	9
2023-09-24T12:00	29521	13	-50.3	-85.2	246	9
2023-09-24T12:00	29552	13	-50.3	-85.2	247	9
2023-09-24T12:00	29590	13	-50.3	-85.2	248	10
2023-09-24T12:00	29602	13	-50.3	-85.2	249	10
2023-09-24T12:00	29638	13	-50.4	-84.4	251	10
2023-09-24T12:00	29668	13	-50.5	-84.5	252	10
2023-09-24T12:00	29695	13	-50.4	-84.4	252	9
2023-09-24T12:00	29731	12	-50.2	-85.1	253	9
2023-09-24T12:00	29755	12	-50.0	-85.0	254	9
2023-09-24T12:00	29783	12	-49.8	-84.8	255	9
2023-09-24T12:00	29817	12	-49.7	-84.8	258	9
2023-09-24T12:00	29845	12	-49.8	-84.8	260	9
2023-09-24T12:00	29884	12	-49.9	-84.9	262	9
2023-09-24T12:00	29922	12	-50.0	-85.0	264	10
2023-09-24T12:00	29941	12	-50.1	-84.2	264	10
2023-09-24T12:00	29971	12	-50.1	-84.2	264	10
2023-09-24T12:00	30019	12	-50.2	-84.2	263	9
2023-09-24T12:00	30051	12	-50.2	-84.2	262	9
2023-09-24T12:00	30073	12	-50.3	-84.3	261	9
2023-09-24T12:00	30105	12	-50.3	-84.3	260	9
2023-09-24T12:00	30130	12	-50.3	-84.3	260	8
2023-09-24T12:00	30172	12	-50.3	-84.3	260	8
2023-09-24T12:00	30198	12	-50.3	-84.3	259	8
2023-09-24T12:00	30231	12	-50.3	-84.3	259	8
2023-09-24T12:00	30273	11	-50.4	-84.4	258	8
2023-09-24T12:00	30311	11	-50.3	-85.2	256	8
2023-09-24T12:00	30342	11	-50.2	-85.1	253	8
2023-09-24T12:00	30355	11	-50.2	-85.1	249	8
2023-09-24T12:00	30399	11	-50.2	-85.1	247	8
2023-09-24T12:00	30436	11	-50.2	-85.1	245	8
2023-09-24T12:00	30455	11	-50.2	-85.1	245	8
2023-09-24T12:00	30493	11	-50.2	-85.1	246	9
2023-09-24T12:00	30519	11	-50.1	-85.1	248	9
2023-09-24T12:00	30545	11	-50.0	-85.0	250	10
2023-09-24T12:00	30591	11	-49.9	-84.9	251	10
2023-09-24T12:00	30606	11	-49.8	-84.8	252	11
2023-09-24T12:00	30649	11	-49.8	-84.8	252	12
2023-09-24T12:00	30667	11	-49.8	-84.8	252	12
2023-09-24T12:00	30692	11	-49.9	-84.9	252	13
2023-09-24T12:00	30738	11	-49.9	-84.9	252	14
2023-09-24T12:00	30751	11	-49.8	-84.8	252	15
2023-09-24T12:00	30784	11	-49.7	-84.8	252	15
2023-09-24T12:00	30811	11	-49.6	-84.7	253	16
2023-09-24T12:00	30842	11	-49.4	-84.6	254	16
2023-09-24T12:00	30857	10	-49.2	-84.4	255	16
2023-09-24T12:00	30892	10	-48.9	-85.3	257	17
2023-09-24T12:00	30913	10	-48.5	-85.0	258	17
2023-09-24T12:00	30953	10	-48.2	-84.8	259	17
2023-09-24T12:00	30969	10	-48.1	-84.7	260	17
2023-09-24T12:00	30976	10	-48.1	-84.7	262	17
2023-09-24T12:00	30998	10	-48.1	-84.7	263	17
2023-09-24T12:00	31047	10	-48.1	-84.7	265	16
2023-09-24T12:00	31082	10	-48.1	-84.7	266	16
2023-09-24T12:00	31100	10	-47.9	-84.6	268	16
2023-09-24T12:00	31122	10	-47.9	-83.5	269	16
2023-09-24T12:00	31149	10	-48.0	-83.6	269	16
2023-09-24T12:00	31175	10	-48.1	-83.6	269	15
2023-09-24T12:00	31201	10	-48.2	-83.7	269	15
2023-09-24T12:00	31232	10	-48.3	-83.8	268	15
2023-09-24T12:00	31264	10	-48.2	-83.7	267	15
2023-09-24T12:00	31291	10	-48.0	-84.6	267	15
2023-09-24T12:00	31315	10	-47.8	-84.5	266	14
2023-09-24T12:00	31336	10	-47.8	-84.5	266	14
2023-09-24T12:00	31365	10	-47.7	-84.4	267	14
2023-09-24T12:00	31381	10	-47.7	-84.4	267	14
2023-09-24T12:00	31410	10	-47.8	-84.5	267	14
2023-09-24T12:00	31446	10	-47.9	-84.6	266	14
2023-09-24T12:00	31480	10	-47.9	-84.6	264	13
2023-09-24T12:00	31501	10	-47.8	-84.5	261	13
2023-09-24T12:00	31522	9	-47.6	-84.3	259	14
2023-09-24T12:00	31556	9	-47.6	-84.3	256	14
2023-09-24T12:00	31571	9	-47.7	-84.4	253	14
2023-09-24T12:00	31620	9	-47.8	-84.5	250	14
2023-09-24T12:00	31623	9	-47.8	-84.5	248	14
2023-09-24T12:00	31677	9	-47.8	-84.5	246	14
2023-09-24T12:00	31696	9	-47.8	-84.5	245	14
2023-09-24T12:00	31724	9	-47.7	-84.4	244	14
2023-09-24T12:00	31757	9	-47.6	-84.3	243	15
2023-09-24T12:00	31779	9	-47.6	-84.3	243	14
2023-09-24T12:00	31819	9	-47.4	-84.2	243	14
2023-09-24T12:00	31856	9	-47.1	-84.0	244	14
2023-09-24T12:00	31876	9	-46.8	-83.8	246	13
2023-09-24T12:00	31905	9	-46.8	-83.8	248	13
2023-09-24T12:00	31947	9	-47.0	-83.9	251	12
2023-09-24T12:00	31978	9	-47.1	-84.0	254	12
2023-09-24T12:00	32003	9	-47.2	-84.1	258	12
2023-09-24T12:00	32038	9	-47.3	-84.1	261	12
2023-09-24T12:00	32073	9	-47.3	-84.1	265	12
2023-09-24T12:00	32114	9	-47.4	-84.2	267	12
2023-09-24T12:00	32134	9	-47.2	-84.1	270	13
2023-09-24T12:00	32162	9	-47.0	-83.9	272	13
2023-09-24T12:00	32198	9	-46.8	-83.8	273	13
2023-09-24T12:00	32252	9	-46.7	-83.7	274	13
2023-09-24T12:00	32255	8	-46.7	-83.7	274	13
2023-09-24T12:00	32301	8	-46.8	-83.8	272	13
2023-09-24T12:00	32328	8	-46.8	-83.8	268	13
2023-09-24T12:00	32350	8	-46.7	-83.7	264	14
2023-09-24T12:00	32380	8	-46.6	-83.6	261	14
2023-09-24T12:00	32401	8	-46.6	-83.6	258	14
2023-09-24T12:00	32416	8	-46.5	-83.6	255	15
2023-09-24T12:00	32471	8	-46.3	-83.4	254	15
2023-09-24T12:00	32510	8	-46.3	-83.4	252	15
2023-09-24T12:00	32534	8	-46.2	-83.4	250	14
2023-09-24T12:00	32595	8	-46.1	-83.3	249	14
2023-09-24T12:00	32613	8	-45.9	-83.2	248	13
2023-09-24T12:00	32635	8	-45.7	-83.0	247	13
2023-09-24T12:00	32655	8	-45.4	-82.8	247	12
2023-09-24T12:00	32661	8	-45.1	-82.6	248	12
2023-09-24T12:00	32702	8	-44.9	-82.5	249	12
2023-09-24T12:00	32731	8	-44.8	-82.4	250	12
2023-09-24T12:00	32771	8	-44.9	-82.5	251	12
2023-09-24T12:00	32796	8	-44.9	-82.5	252	12
2023-09-24T12:00	32808	8	-44.8	-82.4	253	12
2023-09-24T12:00	32844	8	-44.7	-82.3	254	13
2023-09-24T12:00	32855	8	-44.7	-82.3	255	13
2023-09-24T12:00	32883	8	-44.7	-82.3	256	13
2023-09-24T12:00	32888	8	-44.8	-82.4	257	13
2023-09-24T12:00	32931	8	-44.8	-82.4	258	13
2023-09-24T12:00	32949	8	-44.9	-82.5	259	13
2023-09-24T12:00	32986	8	-45.0	-82.5	261	13
2023-09-24T12:00	33021	8	-45.0	-82.5	262	13
2023-09-24T12:00	33038	8	-45.1	-82.6	263	13
2023-09-24T12:00	33066	8	-45.1	-82.6	264	13
2023-09-24T12:00	33077	7	-45.2	-82.7	265	12
2023-09-24T12:00	33117	7	-45.2	-82.7	265	12
2023-09-24T12:00	33144	7	-45.1	-82.6	264	12
2023-09-24T12:00	33157	7	-45.0	-82.5	263	12
2023-09-24T12:00	33182	7	-45.0	-82.5	262	11
2023-09-24T12:00	33213	7	-44.9	-82.5	261	11
2023-09-24T12:00	33226	7	-45.0	-82.5	259	11
2023-09-24T12:00	33263	7	-45.1	-82.6	257	11
2023-09-24T12:00	33292	7	-45.3	-82.7	255	11
2023-09-24T12:00	33303	7	-45.5	-82.9	253	11
2023-09-24T12:00	33350	7	-45.6	-82.9	252	12
2023-09-24T12:00	33396	7	-45.7	-83.0	251	12
2023-09-24T12:00	33423	7	-45.7	-83.0	252	13
2023-09-24T12:00	33446	7	-45.6	-82.9	253	13
2023-09-24T12:00	33489	7	-45.4	-82.8	255	14
2023-09-24T12:00	33522	7	-45.1	-82.6	257	14
2023-09-24T12:00	33527	7	-44.7	-82.3	260	14
2023-09-24T12:00	33572	7	-44.2	-82.0	263	14
2023-09-24T12:00	33592	7	-43.8	-81.7	266	14
2023-09-24T12:00	33636	7	-43.5	-81.5	269	14
2023-09-24T12:00	33719	7	-43.3	-81.3	273	15
2023-09-24T12:00	33744	7	-43.4	-81.4	275	15
2023-09-24T12:00	33766	7	-43.6	-81.5	277	16
2023-09-24T12:00	33779	7	-43.7	-81.6	279	16
2023-09-24T12:00	33843	7	-43.9	-81.8	281	16
2023-09-24T12:00	33883	7	-44.3	-82.0	284	17
2023-09-24T12:00	33915	7	-44.4	-82.1	283	17
2023-09-24T12:00	33946	7	-44.2	-82.0	282	17
2023-09-24T18:00	112	1014	15.2	10.0	80	2
2023-09-24T18:00	137	1011	16.1	9.9	73	2
2023-09-24T18:00	162	1009	16.2	9.6	79	2
2023-09-24T18:00	188	1005	16.0	9.6	81	3
2023-09-24T18:00	217	1002	15.7	9.6	81	3
2023-09-24T18:00	242	999	15.5	9.6	80	3
2023-09-24T18:00	267	996	15.2	9.5	78	3
2023-09-24T18:00	291	993	15.0	9.5	75	3
2023-09-24T18:00	318	990	14.8	9.4	71	3
2023-09-24T18:00	341	987	14.6	9.4	68	3
2023-09-24T18:00	370	984	14.3	9.0	65	3
2023-09-24T18:00	398	981	14.1	9.0	64	3
2023-09-24T18:00	423	978	13.8	8.8	64	2
2023-09-24T18:00	449	975	13.6	8.5	66	2
2023-09-24T18:00	472	972	13.4	8.6	68	2
2023-09-24T18:00	498	969	13.2	8.4	69	3
2023-09-24T18:00	523	966	12.9	8.2	70	3
2023-09-24T18:00	546	964	12.7	8.2	70	3
2023-09-24T18:00	571	961	12.5	8.2	69	3
2023-09-24T18:00	592	958	12.3	8.1	68	2
2023-09-24T18:00	619	955	12.0	8.1	64	2
2023-09-24T18:00	645	952	11.8	8.0	59	2
2023-09-24T18:00	673	949	11.5	8.0	51	2
2023-09-24T18:00	699	946	11.3	8.0	42	1
2023-09-24T18:00	725	943	11.0	7.9	32	1
2023-09-24T18:00	750	941	10.8	7.9	23	1
2023-09-24T18:00	773	938	10.7	7.5	20	1
2023-09-24T18:00	799	935	10.6	6.8	21	1
2023-09-24T18:00	828	932	10.6	4.4	27	1
2023-09-24T18:00	853	929	10.4	4.2	34	1
2023-09-24T18:00	887	925	10.2	3.4	42	1
2023-09-24T18:00	913	922	10.0	2.9	47	1
2023-09-24T18:00	941	919	9.7	2.6	50	1
2023-09-24T18:00	968	916	9.5	2.4	51	1
2023-09-24T18:00	994	913	9.5	1.6	51	1
2023-09-24T18:00	1026	910	9.2	1.7	48	1
2023-09-24T18:00	1051	907	9.0	1.8	45	1
2023-09-24T18:00	1086	903	8.6	1.9	46	1
2023-09-24T18:00	1114	900	8.4	2.2	56	1
2023-09-24T18:00	1139	898	8.1	2.2	71	1
2023-09-24T18:00	1167	895	7.9	2.3	84	1
2023-09-24T18:00	1191	892	7.7	2.3	94	1
2023-09-24T18:00	1217	889	7.4	2.3	103	1
2023-09-24T18:00	1246	886	7.2	2.2	111	1
2023-09-24T18:00	1276	883	7.0	2.2	116	1
2023-09-24T18:00	1304	880	6.8	1.7	118	1
2023-09-24T18:00	1330	877	6.6	1.7	117	1
2023-09-24T18:00	1359	874	6.5	1.8	117	1
2023-09-24T18:00	1382	871	6.3	1.5	120	1
2023-09-24T18:00	1414	868	6.1	1.4	127	2
2023-09-24T18:00	1438	865	6.0	1.3	135	2
2023-09-24T18:00	1462	863	5.9	1.4	143	2
2023-09-24T18:00	1487	860	5.9	1.2	147	1
2023-09-24T18:00	1515	857	5.9	0.6	144	1
2023-09-24T18:00	1542	854	5.7	0.5	131	1
2023-09-24T18:00	1573	851	5.6	0.4	110	1
2023-09-24T18:00	1597	849	5.4	0.3	95	1
2023-09-24T18:00	1624	846	5.3	-0.1	91	1
2023-09-24T18:00	1651	843	5.1	-0.6	96	1
2023-09-24T18:00	1681	840	5.0	-1.0	116	1
2023-09-24T18:00	1705	838	4.9	-1.3	137	1
2023-09-24T18:00	1733	835	4.8	-1.5	146	1
2023-09-24T18:00	1761	832	4.6	-1.5	146	1
2023-09-24T18:00	1789	829	4.5	-2.0	143	1
2023-09-24T18:00	1817	826	4.4	-2.6	140	1
2023-09-24T18:00	1845	823	4.3	-3.4	136	1
2023-09-24T18:00	1875	820	4.3		131	2
2023-09-24T18:00	1900	818	4.0	-3.8	124	2
2023-09-24T18:00	1926	815	3.9	-4.6	116	2
2023-09-24T18:00	1948	813	3.8	-4.7	108	2
2023-09-24T18:00	1972	811	3.7	-4.9	101	2
2023-09-24T18:00	1998	808	3.5	-4.7	94	2
2023-09-24T18:00	2025	805	3.3	-4.8	88	2
2023-09-24T18:00	2051	803	3.6	-7.7	84	2
2023-09-24T18:00	2084	800	3.5	-7.8	82	2
2023-09-24T18:00	2107	797	3.7	-11.7	81	2
2023-09-24T18:00	2131	795	4.0	-17.4	80	2
2023-09-24T18:00	2154	793	4.6	-24.7	75	2
2023-09-24T18:00	2182	790	5.1	-27.3	66	2
2023-09-24T18:00	2209	787	5.2	-28.3	54	2
2023-09-24T18:00	2232	785	5.1	-28.8	44	2
2023-09-24T18:00	2256	783	5.0	-29.1	37	3
2023-09-24T18:00	2280	780	4.9	-29.3	34	3
2023-09-24T18:00	2304	778	4.9	-30.0	31	3
2023-09-24T18:00	2329	776	5.0	-32.9	30	3
2023-09-24T18:00	2355	773	5.1	-33.5	31	3
2023-09-24T18:00	2381	771	5.2	-31.7	32	3
2023-09-24T18:00	2406	768	5.5	-31.5	36	2
2023-09-24T18:00	2438	766	5.5	-31.5	39	2
2023-09-24T18:00	2463	763	5.3	-30.9	43	2
2023-09-24T18:00	2490	761	5.2	-30.2	45	2
2023-09-24T18:00	2514	758	5.2	-31.4	46	2
2023-09-24T18:00	2535	756	5.1	-27.0	47	2
2023-09-24T18:00	2566	754	4.9	-28.9	48	2
2023-09-24T18:00	2588	751	4.9	-30.7	51	2
2023-09-24T18:00	2622	748	4.7	-27.4	55	2
2023-09-24T18:00	2650	746	4.5	-28.3	58	2
2023-09-24T18:00	2676	743	4.5	-24.2	62	2
2023-09-24T18:00	2705	741	4.2	-21.4	63	2
2023-09-24T18:00	2732	738	4.1	-27.2	62	2
2023-09-24T18:00	2758	736	3.9	-23.2	62	2
2023-09-24T18:00	2785	734	3.6	-23.4	62	2
2023-09-24T18:00	2808	731	3.4	-24.2	64	2
2023-09-24T18:00	2835	729	3.3	-26.0	67	2
2023-09-24T18:00	2859	727	3.1	-21.8	71	2
2023-09-24T18:00	2884	725	2.9	-22.5	72	2
2023-09-24T18:00	2912	722	2.6	-20.6	70	2
2023-09-24T18:00	2938	720	2.4	-20.8	67	2
2023-09-24T18:00	2967	717	2.3	-21.4	65	3
2023-09-24T18:00	2994	715	2.2	-21.4	65	3
2023-09-24T18:00	3015	713	2.0	-21.5	68	3
2023-09-24T18:00	3042	711	1.8	-21.9	72	3
2023-09-24T18:00	3067	708	1.7	-22.0	79	3
2023-09-24T18:00	3093	706	1.5	-22.4	85	2
2023-09-24T18:00	3120	704	1.5	-23.0	88	2
2023-09-24T18:00	3151	701	1.3	-23.4	89	2
2023-09-24T18:00	3182	698	1.1	-23.6	89	1
2023-09-24T18:00	3214	696	0.9	-23.6	90	1
2023-09-24T18:00	3240	693	0.6	-23.9	95	1
2023-09-24T18:00	3268	691	0.5	-24.9	99	1
2023-09-24T18:00	3294	689	0.5	-26.5	100	1
2023-09-24T18:00	3317	687	0.7	-29.9	101	2
2023-09-24T18:00	3346	684	0.7	-30.7	102	2
2023-09-24T18:00	3373	682	0.5	-31.2	105	2
2023-09-24T18:00	3402	680	0.4	-31.3	109	2
2023-09-24T18:00	3430	677	0.2	-31.4	112	2
2023-09-24T18:00	3460	675	0.1	-30.8	112	2
2023-09-24T18:00	3486	672	0.1	-31.3	108	2
2023-09-24T18:00	3515	670	-0.1	-31.6	102	2
2023-09-24T18:00	3543	668	-0.2	-31.5	94	1
2023-09-24T18:00	3565	666	-0.3	-31.4	87	1
2023-09-24T18:00	3589	664	-0.5	-31.6	86	1
2023-09-24T18:00	3614	662	-0.6	-32.2	89	1
2023-09-24T18:00	3638	660	-0.6	-33.7	91	2
2023-09-24T18:00	3668	657	-0.8	-35.5	89	2
2023-09-24T18:00	3697	655	-1.0	-37.6	84	2
2023-09-24T18:00	3726	653	-1.2	-37.7	76	2
2023-09-24T18:00	3751	650	-1.2	-37.7	67	2
2023-09-24T18:00	3774	649	-1.3	-37.5	60	2
2023-09-24T18:00	3791	647	-1.3	-35.6	54	3
2023-09-24T18:00	3817	645	-1.5	-35.6	49	3
2023-09-24T18:00	3843	643	-1.6	-34.3	46	3
2023-09-24T18:00	3869	641	-1.7	-34.4	43	3
2023-09-24T18:00	3897	639	-1.8	-38.2	40	4
2023-09-24T18:00	3922	637	-1.8	-41.3	37	4
2023-09-24T18:00	3947	635	-2.0	-41.5	34	5
2023-09-24T18:00	3976	632	-2.2	-40.4	29	5
2023-09-24T18:00	4000	630	-2.3	-38.2	25	6
2023-09-24T18:00	4027	628	-2.4	-36.0	22	6
2023-09-24T18:00	4050	626	-2.5	-35.0	20	6
2023-09-24T18:00	4080	624	-2.6	-33.4	18	5
2023-09-24T18:00	4108	622	-2.7	-33.5	18	5
2023-09-24T18:00	4131	620	-2.8	-33.4	19	5
2023-09-24T18:00	4162	618	-3.0	-33.7	21	4
2023-09-24T18:00	4190	615	-3.2	-34.6	24	4
2023-09-24T18:00	4220	613	-3.4	-34.5	29	4
2023-09-24T18:00	4245	611	-3.5	-35.0	32	4
2023-09-24T18:00	4267	609	-3.7	-35.2	34	4
2023-09-24T18:00	4294	607	-3.8	-35.4	33	4
2023-09-24T18:00	4324	605	-4.1	-35.7	30	4
2023-09-24T18:00	4351	603	-4.3	-35.6	25	4
2023-09-24T18:00	4375	601	-4.4	-35.9	22	4
2023-09-24T18:00	4405	599	-4.5	-35.6	22	5
2023-09-24T18:00	4434	597	-4.8	-35.5	25	5
2023-09-24T18:00	4463	595	-5.0	-34.6	31	5
2023-09-24T18:00	4486	593	-5.2	-35.1	37	5
2023-09-24T18:00	4513	591	-5.3	-35.3	43	5
2023-09-24T18:00	4533	589	-5.5	-35.2	47	5
2023-09-24T18:00	4558	587	-5.6	-35.4	48	5
2023-09-24T18:00	4589	585	-5.8	-35.9	47	5
2023-09-24T18:00	4613	583	-5.8	-37.4	44	5
2023-09-24T18:00	4635	581	-5.9	-38.3	40	6
2023-09-24T18:00	4666	579	-5.9	-39.6	36	6
2023-09-24T18:00	4695	577	-5.9	-40.1	32	7
2023-09-24T18:00	4724	575	-5.9	-41.0	29	7
2023-09-24T18:00	4745	573	-5.7	-42.3	29	7
2023-09-24T18:00	4765	572	-5.6	-43.0	30	7
2023-09-24T18:00	4788	570	-5.5	-43.6	34	6
2023-09-24T18:00	4820	568	-5.6	-44.1	39	6
2023-09-24T18:00	4849	566	-5.8	-44.2	44	6
2023-09-24T18:00	4877	564	-6.0	-44.0	47	6
2023-09-24T18:00	4905	562	-6.2	-44.5	48	5
2023-09-24T18:00	4936	560	-6.5	-44.8	48	5
2023-09-24T18:00	4962	558	-6.7	-44.5	47	4
2023-09-24T18:00	4989	556	-6.8	-44.6	47	4
2023-09-24T18:00	5029	553	-7.0	-44.7	48	5
2023-09-24T18:00	5060	551	-7.2	-44.9	49	5
2023-09-24T18:00	5088	549	-7.3	-45.3	49	6
2023-09-24T18:00	5117	547	-7.3	-45.0	48	7
2023-09-24T18:00	5140	545	-7.2	-44.9	46	8
2023-09-24T18:00	5164	543	-7.2	-43.8	44	8
2023-09-24T18:00	5189	542	-7.3	-43.2	43	9
2023-09-24T18:00	5211	540	-7.5	-43.0	42	9
2023-09-24T18:00	5230	539	-7.7	-42.6	42	10
2023-09-24T18:00	5251	537	-7.8	-42.1	42	10
2023-09-24T18:00	5278	536	-8.0	-41.5	42	10
2023-09-24T18:00	5306	534	-8.3	-40.5	41	10
2023-09-24T18:00	5335	532	-8.5	-40.7	40	10
2023-09-24T18:00	5366	529	-8.8	-39.3	38	9
2023-09-24T18:00	5398	527	-9.0	-39.1	36	9
2023-09-24T18:00	5424	526	-9.1	-39.2	34	9
2023-09-24T18:00	5453	524	-9.3	-38.7	33	9
2023-09-24T18:00	5482	522	-9.6	-38.6	33	9
2023-09-24T18:00	5508	520	-9.8	-37.7	34	10
2023-09-24T18:00	5535	518	-10.1	-37.8	33	10
2023-09-24T18:00	5566	516	-10.4	-37.6	32	10
2023-09-24T18:00	5594	514	-10.6	-37.1	31	10
2023-09-24T18:00	5622	512	-10.8	-36.7	29	11
2023-09-24T18:00	5650	510	-11.0	-36.4	28	11
2023-09-24T18:00	5676	509	-11.2	-36.9	28	11
2023-09-24T18:00	5697	507	-11.4	-37.4	29	11
2023-09-24T18:00	5719	506	-11.5	-37.4	30	11
2023-09-24T18:00	5740	504	-11.7	-37.6	32	10
2023-09-24T18:00	5761	503	-11.8	-37.2	33	10
2023-09-24T18:00	5782	502	-11.8	-37.1	34	10
2023-09-24T18:00	5810	500	-12.0	-37.6	33	10
2023-09-24T18:00	5845	498	-12.3	-37.7	32	10
2023-09-24T18:00	5873	496	-12.5	-37.3	31	10
2023-09-24T18:00	5896	494	-12.7	-36.6	31	10
2023-09-24T18:00	5924	492	-12.9	-36.2	32	10
2023-09-24T18:00	5952	491	-13.1	-36.0	32	10
2023-09-24T18:00	5971	489	-13.2	-35.6	33	10
2023-09-24T18:00	5996	488	-13.5	-34.7	32	11
2023-09-24T18:00	6022	486	-13.7	-34.1	32	11
2023-09-24T18:00	6041	485	-13.9	-33.7	32	11
2023-09-24T18:00	6069	483	-14.1	-33.4	32	11
2023-09-24T18:00	6098	481	-14.4	-32.9	32	12
2023-09-24T18:00	6128	479	-14.7	-33.0	32	12
2023-09-24T18:00	6151	478	-14.9	-32.8	31	12
2023-09-24T18:00	6177	476	-15.1	-32.6	30	12
2023-09-24T18:00	6207	474	-15.4	-32.8	29	12
2023-09-24T18:00	6241	472	-15.7	-32.6	28	11
2023-09-24T18:00	6270	470	-15.8	-33.3	26	11
2023-09-24T18:00	6297	469	-16.1	-33.3	24	11
2023-09-24T18:00	6329	467	-16.4	-33.5	21	12
2023-09-24T18:00	6357	465	-16.6	-33.3	18	12
2023-09-24T18:00	6381	463	-16.9	-33.5	16	13
2023-09-24T18:00	6418	461	-17.2	-34.3	14	13
2023-09-24T18:00	6446	460	-17.4	-34.5	14	13
2023-09-24T18:00	6469	458	-17.7	-34.6	15	12
2023-09-24T18:00	6499	456	-17.9	-34.8	17	12
2023-09-24T18:00	6524	455	-18.2	-35.0	18	12
2023-09-24T18:00	6559	453	-18.5	-35.0	17	12
2023-09-24T18:00	6588	451	-18.7	-35.2	16	12
2023-09-24T18:00	6616	449	-19.0	-35.2	13	12
2023-09-24T18:00	6647	447	-19.3	-35.4	10	12
2023-09-24T18:00	6675	446	-19.6	-35.8	7	12
2023-09-24T18:00	6700	444	-19.8	-35.9	5	11
2023-09-24T18:00	6731	442	-20.1	-36.0	5	11
2023-09-24T18:00	6756	441	-20.4	-36.1	6	11
2023-09-24T18:00	6784	439	-20.6	-36.0	6	10
2023-09-24T18:00	6802	438	-20.8	-36.2	7	10
2023-09-24T18:00	6822	437	-21.0	-36.3	7	10
2023-09-24T18:00	6842	436	-21.2	-36.6	7	10
2023-09-24T18:00	6873	434	-21.4	-37.4	8	10
2023-09-24T18:00	6896	432	-21.6	-37.9	9	10
2023-09-24T18:00	6921	431	-21.8	-38.3	11	10
2023-09-24T18:00	6950	429	-22.0	-38.3	13	11
2023-09-24T18:00	6974	428	-22.3	-38.2	15	11
2023-09-24T18:00	7009	426	-22.6	-37.3	17	11
2023-09-24T18:00	7040	424	-22.8	-36.3	18	11
2023-09-24T18:00	7062	423	-23.0	-36.6	20	11
2023-09-24T18:00	7083	422	-23.1	-36.4	22	10
2023-09-24T18:00	7104	420	-23.3	-36.4	23	10
2023-09-24T18:00	7133	419	-23.6	-36.4	24	9
2023-09-24T18:00	7157	417	-23.8	-36.4	24	9
2023-09-24T18:00	7177	416	-24.0	-36.5	22	9
2023-09-24T18:00	7196	415	-24.2	-36.4	19	10
2023-09-24T18:00	7221	414	-24.4	-36.4	15	10
2023-09-24T18:00	7246	412	-24.6	-36.5	12	10
2023-09-24T18:00	7280	410	-24.9	-36.8	9	11
2023-09-24T18:00	7307	409	-25.1	-37.2	8	11
2023-09-24T18:00	7328	408	-25.2	-37.9	7	11
2023-09-24T18:00	7352	406	-25.3	-37.9	8	11
2023-09-24T18:00	7375	405	-25.5	-38.3	9	10
2023-09-24T18:00	7396	404	-25.5	-38.9	9	10
2023-09-24T18:00	7424	402	-25.6	-38.9	9	10
2023-09-24T18:00	7454	401	-25.9	-39.0	8	10
2023-09-24T18:00	7486	399	-26.2	-39.3	6	10
2023-09-24T18:00	7506	398	-26.4	-39.2	4	10
2023-09-24T18:00	7528	397	-26.6	-39.1	2	10
2023-09-24T18:00	7550	395	-26.8	-39.5	0	10
2023-09-24T18:00	7574	394	-26.9	-39.8	359	10
2023-09-24T18:00	7596	393	-27.1	-40.5	360	11
2023-09-24T18:00	7619	392	-27.3	-41.4	1	11
2023-09-24T18:00	7639	390	-27.3	-42.2	2	11
2023-09-24T18:00	7664	389	-27.5	-41.9	4	11
2023-09-24T18:00	7696	387	-27.8	-41.5	6	11
2023-09-24T18:00	7722	386	-28.0	-41.9	7	11
2023-09-24T18:00	7746	385	-28.2	-42.2	8	10
2023-09-24T18:00	7787	383	-28.5	-42.5	9	10
2023-09-24T18:00	7808	381	-28.6	-42.8	11	10
2023-09-24T18:00	7825	380	-28.7	-43.3	12	10
2023-09-24T18:00	7847	379	-28.7	-43.3	14	10
2023-09-24T18:00	7869	378	-28.9	-44.2	15	10
2023-09-24T18:00	7893	377	-28.9	-47.9	16	10
2023-09-24T18:00	7924	375	-28.8	-52.0	16	11
2023-09-24T18:00	7955	374	-29.0	-51.4	16	11
2023-09-24T18:00	7980	372	-29.2	-51.4	15	11
2023-09-24T18:00	8006	371	-29.4	-51.6	15	11
2023-09-24T18:00	8033	370	-29.6	-52.7	15	11
2023-09-24T18:00	8056	368	-29.8	-52.7	16	11
2023-09-24T18:00	8081	367	-30.1	-53.7	16	11
2023-09-24T18:00	8112	366	-30.3	-54.8	17	11
2023-09-24T18:00	8137	364	-30.5	-54.9	16	12
2023-09-24T18:00	8158	363	-30.6	-55.0	15	12
2023-09-24T18:00	8181	362	-30.8	-55.1	14	12
2023-09-24T18:00	8205	361	-31.0	-55.3	12	12
2023-09-24T18:00	8224	360	-31.1	-55.4	11	12
2023-09-24T18:00	8242	359	-31.2	-54.8	9	11
2023-09-24T18:00	8260	358	-31.4	-53.6	9	11
2023-09-24T18:00	8281	357	-31.5	-50.8	8	11
2023-09-24T18:00	8303	356	-31.7	-51.2	7	11
2023-09-24T18:00	8329	355	-31.9	-51.9	7	11
2023-09-24T18:00	8352	353	-32.1	-53.9	6	12
2023-09-24T18:00	8373	352	-32.3	-53.9	6	12
2023-09-24T18:00	8397	351	-32.5	-54.9	6	12
2023-09-24T18:00	8418	350	-32.7	-55.3	7	12
2023-09-24T18:00	8441	349	-32.9	-56.0	7	12
2023-09-24T18:00	8465	348	-33.1	-56.2	8	12
2023-09-24T18:00	8489	347	-33.3	-56.4	8	11
2023-09-24T18:00	8517	345	-33.5	-56.5	8	11
2023-09-24T18:00	8557	343	-33.8	-56.0	8	11
2023-09-24T18:00	8580	342	-34.0	-53.3	8	11
2023-09-24T18:00	8597	341	-34.1		7	11
2023-09-24T18:00	8616	340	-34.2	-52.4	5	12
2023-09-24T18:00	8635	339	-34.4	-49.8	5	12
2023-09-24T18:00	8657	338	-34.5	-50.6	5	13
2023-09-24T18:00	8676	337	-34.5	-52.8	6	13
2023-09-24T18:00	8706	336	-34.5	-54.9	7	14
2023-09-24T18:00	8729	335	-34.6	-55.1	9	14
2023-09-24T18:00	8753	334	-34.8	-55.3	10	14
2023-09-24T18:00	8787	332	-35.0	-55.6	11	14
2023-09-24T18:00	8817	331	-35.2	-55.7	12	15
2023-09-24T18:00	8835	330	-35.4	-56.0	12	15
2023-09-24T18:00	8852	329	-35.5	-56.0	13	15
2023-09-24T18:00	8870	328	-35.7	-56.2	14	15
2023-09-24T18:00	8890	327	-35.8	-56.3	15	15
2023-09-24T18:00	8911	326	-35.9	-56.3	16	15
2023-09-24T18:00	8937	325	-36.1	-56.6	17	15
2023-09-24T18:00	8959	324	-36.2	-56.8	17	15
2023-09-24T18:00	8978	323	-36.3	-57.0	18	15
2023-09-24T18:00	8996	322	-36.3	-57.1	17	15
2023-09-24T18:00	9016	321	-36.4	-57.2	17	15
2023-09-24T18:00	9036	320	-36.5	-57.3	16	15
2023-09-24T18:00	9054	320	-36.5	-58.0	15	15
2023-09-24T18:00	9077	319	-36.6	-58.3	14	16
2023-09-24T18:00	9099	317	-36.9	-58.4	12	16
2023-09-24T18:00	9126	316	-37.1	-58.8	11	16
2023-09-24T18:00	9157	315	-37.3	-58.9	9	16
2023-09-24T18:00	9182	314	-37.5	-59.1	8	16
2023-09-24T18:00	9210	312	-37.8	-59.2	8	17
2023-09-24T18:00	9238	311	-38.1	-59.5	8	17
2023-09-24T18:00	9259	310	-38.2	-59.7	10	18
2023-09-24T18:00	9278	309	-38.4	-60.0	11	18
2023-09-24T18:00	9298	308	-38.5	-60.0	12	19
2023-09-24T18:00	9319	307	-38.7	-59.8	13	19
2023-09-24T18:00	9340	307	-38.7	-58.2	13	20
2023-09-24T18:00	9362	306	-38.8	-58.1	13	20
2023-09-24T18:00	9385	305	-38.9	-58.7	13	21
2023-09-24T18:00	9414	303	-39.0	-58.9	13	21
2023-09-24T18:00	9439	302	-39.1	-59.2	13	21
2023-09-24T18:00	9457	301	-39.2	-59.1	12	22
2023-09-24T18:00	9484	300	-39.4	-59.1	11	22
2023-09-24T18:00	9514	299	-39.6	-59.2	11	23
2023-09-24T18:00	9537	298	-39.8	-59.4	10	23
2023-09-24T18:00	9562	297	-40.0	-59.6	9	24
2023-09-24T18:00	9586	296	-40.0	-59.7	9	25
2023-09-24T18:00	9615	295	-40.1	-59.4	10	26
2023-09-24T18:00	9644	293	-40.2	-58.8	11	27
2023-09-24T18:00	9673	292	-40.3	-58.3	11	28
2023-09-24T18:00	9702	291	-40.5	-57.8	12	28
2023-09-24T18:00	9734	289	-40.5	-56.9	13	29
2023-09-24T18:00	9763	288	-40.6	-56.2	13	30
2023-09-24T18:00	9785	287	-40.7	-55.9	13	31
2023-09-24T18:00	9808	286	-40.8	-55.3	13	31
2023-09-24T18:00	9829	285	-41.0	-54.9	13	31
2023-09-24T18:00	9853	284	-41.2	-54.9	13	31
2023-09-24T18:00	9873	284	-41.3	-55.1	13	31
2023-09-24T18:00	9894	283	-41.5	-55.2	14	31
2023-09-24T18:00	9917	282	-41.7	-55.2	14	31
2023-09-24T18:00	9937	281	-41.8	-55.1	14	31
2023-09-24T18:00	9957	280	-42.0	-55.0	15	31
2023-09-24T18:00	9980	279	-42.2	-55.1	15	31
2023-09-24T18:00	10004	278	-42.4	-55.1	16	32
2023-09-24T18:00	10032	277	-42.6	-54.9	16	32
2023-09-24T18:00	10064	276	-42.9	-54.3	16	32
2023-09-24T18:00	10096	274	-43.1	-54.3	16	32
2023-09-24T18:00	10118	273	-43.2	-54.3	16	32
2023-09-24T18:00	10148	272	-43.4	-54.2	15	33
2023-09-24T18:00	10178	271	-43.6	-54.2	15	33
2023-09-24T18:00	10202	270	-43.9	-54.4	15	33
2023-09-24T18:00	10223	269	-44.1	-54.5	15	33
2023-09-24T18:00	10246	268	-44.3	-54.5	15	33
2023-09-24T18:00	10266	267	-44.5	-55.0	15	33
2023-09-24T18:00	10300	266	-44.3	-56.0	15	32
2023-09-24T18:00	10330	265	-44.4	-56.3	16	32
2023-09-24T18:00	10353	264	-44.7	-56.3	16	32
2023-09-24T18:00	10377	263	-44.9	-56.2	16	32
2023-09-24T18:00	10399	262	-45.1	-56.2	16	32
2023-09-24T18:00	10421	261	-45.3	-56.2	15	32
2023-09-24T18:00	10443	261	-45.5	-56.2	15	32
2023-09-24T18:00	10467	260	-45.8	-56.4	14	32
2023-09-24T18:00	10486	259	-46.0	-56.5	14	32
2023-09-24T18:00	10515	258	-46.2	-56.5	13	33
2023-09-24T18:00	10552	256	-46.3	-56.1	12	34
2023-09-24T18:00	10589	255	-46.5	-56.1	12	34
2023-09-24T18:00	10609	254	-46.6	-56.0	11	34
2023-09-24T18:00	10631	253	-46.8	-55.8	11	35
2023-09-24T18:00	10655	252	-47.0	-55.8	12	35
2023-09-24T18:00	10680	251	-47.3	-56.0	12	35
2023-09-24T18:00	10706	250	-47.5	-56.4	11	35
2023-09-24T18:00	10737	249	-47.8	-56.7	11	36
2023-09-24T18:00	10764	248	-48.0	-56.7	11	36
2023-09-24T18:00	10787	247	-48.0	-56.3	11	37
2023-09-24T18:00	10811	246	-48.1	-56.5	11	37
2023-09-24T18:00	10833	246	-48.2	-56.6	12	37
2023-09-24T18:00	10858	245	-48.4	-56.8	12	37
2023-09-24T18:00	10883	244	-48.5		12	37
2023-09-24T18:00	10908	243	-48.7	-58.0	12	37
2023-09-24T18:00	10926	242	-48.8	-58.2	12	37
2023-09-24T18:00	10948	241	-49.0	-57.9	12	38
2023-09-24T18:00	10968	241	-49.1	-57.2	11	38
2023-09-24T18:00	10990	240	-49.2	-56.8	11	38
2023-09-24T18:00	11012	239	-49.2	-57.2	11	38
2023-09-24T18:00	11031	238	-49.4	-57.7	10	38
2023-09-24T18:00	11051	238	-49.6	-57.8	10	38
2023-09-24T18:00	11070	237	-49.8	-58.0	10	38
2023-09-24T18:00	11090	236	-49.9	-58.1	10	38
2023-09-24T18:00	11111	235	-50.1	-58.2	10	38
2023-09-24T18:00	11129	235	-50.2	-58.1	10	38
2023-09-24T18:00	11148	234	-50.4	-58.2	10	38
2023-09-24T18:00	11171	233	-50.6	-58.3	10	38
2023-09-24T18:00	11192	233	-50.7	-58.3	10	38
2023-09-24T18:00	11213	232	-50.9	-58.3	10	38
2023-09-24T18:00	11233	231	-51.1	-58.4	10	38
2023-09-24T18:00	11254	230	-51.3	-58.4	10	38
2023-09-24T18:00	11276	230	-51.5	-58.4	10	38
2023-09-24T18:00	11295	229	-51.7		10	38
2023-09-24T18:00	11319	228	-51.8	-58.6	10	38
2023-09-24T18:00	11337	227	-52.0	-58.6	10	38
2023-09-24T18:00	11360	227	-52.2	-58.9	10	38
2023-09-24T18:00	11381	226	-52.3	-59.4	10	38
2023-09-24T18:00	11404	225	-52.4	-59.8	10	38
2023-09-24T18:00	11427	224	-52.6	-60.1	10	38
2023-09-24T18:00	11448	223	-52.7	-60.4	10	38
2023-09-24T18:00	11471	223	-52.8	-60.8	10	38
2023-09-24T18:00	11492	222	-52.8	-61.4	10	38
2023-09-24T18:00	11513	221	-52.9	-61.8	11	38
2023-09-24T18:00	11535	220	-53.1	-61.9	11	37
2023-09-24T18:00	11557	220	-53.3	-61.8	11	37
2023-09-24T18:00	11579	219	-53.5	-61.7	12	36
2023-09-24T18:00	11600	218	-53.7	-61.8	12	36
2023-09-24T18:00	11622	218	-53.8	-61.9	12	36
2023-09-24T18:00	11644	217	-53.9	-62.1	11	35
2023-09-24T18:00	11663	216	-54.0	-62.5	11	35
2023-09-24T18:00	11686	215	-54.2	-62.8	10	34
2023-09-24T18:00	11710	215	-54.3	-63.0	10	34
2023-09-24T18:00	11731	214	-54.5	-63.3	10	33
2023-09-24T18:00	11755	213	-54.6	-63.7	9	33
2023-09-24T18:00	11777	212	-54.7	-64.2	9	32
2023-09-24T18:00	11799	212	-54.9	-64.8	9	32
2023-09-24T18:00	11827	211	-54.9	-65.5	9	31
2023-09-24T18:00	11848	210	-55.0	-66.2	9	30
2023-09-24T18:00	11877	209	-55.1	-66.7	9	30
2023-09-24T18:00	11897	208	-55.3	-66.9	9	29
2023-09-24T18:00	11921	208	-55.5	-66.9	8	29
2023-09-24T18:00	11948	207	-55.7	-66.9	8	29
2023-09-24T18:00	11969	206	-55.9	-66.9	7	29
2023-09-24T18:00	11990	205	-56.1	-66.9	7	29
2023-09-24T18:00	12014	205	-56.3	-67.0	6	29
2023-09-24T18:00	12036	204	-56.4	-67.2	5	29
2023-09-24T18:00	12058	203	-56.6	-67.6	4	29
2023-09-24T18:00	12079	203	-56.6	-67.9	2	29
2023-09-24T18:00	12098	202	-56.7	-68.3	1	29
2023-09-24T18:00	12122	201	-56.9	-68.7	359	28
2023-09-24T18:00	12145	200	-56.9	-69.0	358	28
2023-09-24T18:00	12166	200	-57.0	-69.3	357	28
2023-09-24T18:00	12189	199	-57.0	-69.5	356	28
2023-09-24T18:00	12210	198	-57.2	-69.8	355	28
2023-09-24T18:00	12232	198	-57.3	-70.2	355	28
2023-09-24T18:00	12253	197	-57.2	-70.9	355	28
2023-09-24T18:00	12272	196	-57.1	-71.8	355	28
2023-09-24T18:00	12293	196	-57.2	-72.4	354	28
2023-09-24T18:00	12314	195	-57.2	-72.4	354	28
2023-09-24T18:00	12335	194	-57.4	-72.5	354	28
2023-09-24T18:00	12355	194	-57.3	-72.5	353	28
2023-09-24T18:00	12378	193	-57.4	-72.9	352	28
2023-09-24T18:00	12398	193	-57.2	-73.2	351	28
2023-09-24T18:00	12419	192	-57.2	-73.6	350	27
2023-09-24T18:00	12443	191	-57.2	-74.0	349	26
2023-09-24T18:00	12465	191	-57.0	-74.1	348	26
2023-09-24T18:00	12488	190	-57.0	-74.5	348	25
2023-09-24T18:00	12508	189	-56.9	-74.8	347	25
2023-09-24T18:00	12529	189	-56.6	-74.9	347	24
2023-09-24T18:00	12550	188	-56.3	-74.9	347	24
2023-09-24T18:00	12572	187	-56.2	-75.0	348	24
2023-09-24T18:00	12593	187	-56.0	-74.9	348	24
2023-09-24T18:00	12615	186	-56.0	-74.9	348	24
2023-09-24T18:00	12636	185	-55.9	-74.7	348	24
2023-09-24T18:00	12655	185	-56.1	-74.7	347	24
2023-09-24T18:00	12677	184	-56.3	-74.8	345	24
2023-09-24T18:00	12702	184	-56.4	-74.7	344	24
2023-09-24T18:00	12722	183	-56.5	-74.6	342	25
2023-09-24T18:00	12743	182	-56.4	-74.6	341	25
2023-09-24T18:00	12766	182	-56.2	-74.5	339	25
2023-09-24T18:00	12786	181	-56.3	-74.7	338	25
2023-09-24T18:00	12809	181	-56.4	-74.9	338	25
2023-09-24T18:00	12828	180	-56.4	-75.2	338	25
2023-09-24T18:00	12852	179	-56.4	-75.6	339	24
2023-09-24T18:00	12875	179	-56.2	-75.9	341	24
2023-09-24T18:00	12900	178	-55.7	-76.2	343	24
2023-09-24T18:00	12923	177	-55.4	-76.6	344	24
2023-09-24T18:00	12942	177	-55.4	-77.1	345	23
2023-09-24T18:00	12964	176	-55.2	-77.4	345	23
2023-09-24T18:00	12985	176	-54.8	-77.5	344	23
2023-09-24T18:00	13007	175	-54.7	-77.8	344	22
2023-09-24T18:00	13024	174	-54.6	-77.7	343	22
2023-09-24T18:00	13047	174	-54.6	-77.9	342	22
2023-09-24T18:00	13067	173	-54.8	-77.9	342	21
2023-09-24T18:00	13089	173	-54.9	-78.0	341	21
2023-09-24T18:00	13109	172	-55.0	-78.0	341	21
2023-09-24T18:00	13127	172	-55.2	-78.0	340	21
2023-09-24T18:00	13145	171	-55.3	-78.1	339	21
2023-09-24T18:00	13166	171	-55.4	-78.4	338	21
2023-09-24T18:00	13182	170	-55.4	-78.4	337	22
2023-09-24T18:00	13202	170	-55.4	-78.5	336	22
2023-09-24T18:00	13221	169	-55.3	-78.6	335	23
2023-09-24T18:00	13239	169	-55.2	-78.7	335	23
2023-09-24T18:00	13257	168	-54.8	-78.6	336	23
2023-09-24T18:00	13275	168	-54.8	-78.8	337	23
2023-09-24T18:00	13298	167	-54.5	-78.8	338	24
2023-09-24T18:00	13319	167	-54.4	-78.7	339	24
2023-09-24T18:00	13341	166	-54.4	-78.7	340	23
2023-09-24T18:00	13367	165	-54.6	-78.9	340	23
2023-09-24T18:00	13392	165	-54.5		341	23
2023-09-24T18:00	13418	164	-54.4	-78.9	342	23
2023-09-24T18:00	13446	163	-54.3	-79.0	343	22
2023-09-24T18:00	13473	163	-54.4	-79.1	344	22
2023-09-24T18:00	13502	162	-54.5	-79.4	345	21
2023-09-24T18:00	13532	161	-54.7	-79.6	346	20
2023-09-24T18:00	13559	160	-54.7	-79.8	347	19
2023-09-24T18:00	13586	160	-54.2	-79.4	347	18
2023-09-24T18:00	13617	159	-54.3	-79.7	347	17
2023-09-24T18:00	13648	158	-54.3		348	17
2023-09-24T18:00	13684	157	-54.0	-80.0	349	16
2023-09-24T18:00	13727	156	-53.7	-79.8	351	15
2023-09-24T18:00	13774	155	-53.9	-80.2	354	15
2023-09-24T18:00	13816	154	-54.3	-80.5	357	14
2023-09-24T18:00	13851	153	-53.9	-80.2	360	14
2023-09-24T18:00	13880	153	-53.9	-80.2	2	14
2023-09-24T18:00	13910	152	-54.0	-80.3	4	13
2023-09-24T18:00	13931	151	-54.3	-80.5	5	13
2023-09-24T18:00	13970	151	-54.5	-80.7	6	13
2023-09-24T18:00	13993	150	-54.6	-80.5	6	13
2023-09-24T18:00	14016	149	-54.8	-80.6	5	13
2023-09-24T18:00	14041	149	-55.0	-80.5	5	12
2023-09-24T18:00	14066	148	-55.2	-80.7	6	11
2023-09-24T18:00	14089	148	-55.4	-80.8	6	11
2023-09-24T18:00	14117	147	-55.4	-80.8	6	10
2023-09-24T18:00	14140	147	-55.6	-81.0	6	10
2023-09-24T18:00	14163	146	-55.7	-81.1	6	10
2023-09-24T18:00	14187	146	-55.8	-81.2	6	10
2023-09-24T18:00	14210	145	-56.0	-81.1	5	10
2023-09-24T18:00	14233	144	-56.2	-81.2	5	10
2023-09-24T18:00	14252	144	-56.3	-81.3	5	10
2023-09-24T18:00	14274	143	-56.4	-81.1	5	10
2023-09-24T18:00	14295	143	-56.6	-81.3	3	10
2023-09-24T18:00	14319	143	-56.6	-81.3	2	10
2023-09-24T18:00	14339	142	-56.8	-81.5	360	10
2023-09-24T18:00	14360	142	-56.9	-81.5	358	10
2023-09-24T18:00	14386	141	-57.1	-81.5	357	10
2023-09-24T18:00	14403	141	-57.2	-81.5	356	10
2023-09-24T18:00	14425	140	-57.3	-81.6	355	11
2023-09-24T18:00	14447	140	-57.4	-81.5	356	11
2023-09-24T18:00	14472	139	-57.6	-81.6	356	11
2023-09-24T18:00	14492	139	-57.8	-81.8	357	11
2023-09-24T18:00	14515	138	-58.0	-81.8	357	11
2023-09-24T18:00	14536	138	-58.2		358	11
2023-09-24T18:00	14559	137	-58.3	-81.8	358	12
2023-09-24T18:00	14583	137	-58.5	-81.9	358	12
2023-09-24T18:00	14607	136	-58.7		357	12
2023-09-24T18:00	14626	136	-58.9	-82.1	356	11
2023-09-24T18:00	14652	135	-59.1	-82.0	356	11
2023-09-24T18:00	14676	135	-59.3	-82.2	355	11
2023-09-24T18:00	14698	134	-59.4	-82.3	355	11
2023-09-24T18:00	14724	134	-59.5	-82.2	355	11
2023-09-24T18:00	14747	133	-59.7	-82.3	354	11
2023-09-24T18:00	14772	133	-59.9	-82.3	354	11
2023-09-24T18:00	14794	132	-60.1	-82.3	352	11
2023-09-24T18:00	14818	132	-60.3	-82.5	351	11
2023-09-24T18:00	14841	131	-60.6	-82.5	349	11
2023-09-24T18:00	14865	131	-60.7	-82.6	348	11
2023-09-24T18:00	14887	130	-60.8	-82.5	347	12
2023-09-24T18:00	14908	130	-60.9	-82.6	347	12
2023-09-24T18:00	14932	129	-61.1	-82.8	347	12
2023-09-24T18:00	14952	129	-61.2	-82.7	347	12
2023-09-24T18:00	14974	128	-61.4	-82.7	346	12
2023-09-24T18:00	14998	128	-61.5	-82.8	345	12
2023-09-24T18:00	15018	127	-61.7		343	12
2023-09-24T18:00	15042	127	-61.9	-83.0	340	12
2023-09-24T18:00	15066	126	-61.9	-83.0	336	12
2023-09-24T18:00	15090	126	-61.9	-83.0	333	12
2023-09-24T18:00	15115	125	-62.0	-83.2	329	12
2023-09-24T18:00	15140	125	-61.9	-83.4	328	13
2023-09-24T18:00	15164	125	-61.7	-83.4	327	13
2023-09-24T18:00	15184	124	-60.9	-83.1	327	14
2023-09-24T18:00	15207	124	-60.4	-83.1	327	14
2023-09-24T18:00	15228	123	-60.3	-83.2	328	15
2023-09-24T18:00	15250	123	-60.2	-83.3	329	15
2023-09-24T18:00	15271	122	-60.2	-83.3	330	16
2023-09-24T18:00	15293	122	-60.1	-83.2	330	16
2023-09-24T18:00	15314	122	-60.2	-83.5	330	17
2023-09-24T18:00	15333	121	-59.7	-83.1	330	17
2023-09-24T18:00	15356	121	-59.8	-83.4	330	17
2023-09-24T18:00	15377	120	-59.7	-83.3	331	18
2023-09-24T18:00	15401	120	-59.3	-83.2	331	18
2023-09-24T18:00	15421	119	-59.2	-83.1	331	18
2023-09-24T18:00	15443	119	-59.3	-83.4	332	18
2023-09-24T18:00	15465	119	-59.4	-83.5	332	18
2023-09-24T18:00	15488	118	-59.4	-83.3	331	18
2023-09-24T18:00	15510	118	-59.5	-83.4	330	18
2023-09-24T18:00	15531	117	-59.5	-83.4	329	18
2023-09-24T18:00	15554	117	-59.5	-83.4	328	18
2023-09-24T18:00	15575	117	-59.7	-83.5	327	18
2023-09-24T18:00	15599	116	-59.7	-83.5	327	18
2023-09-24T18:00	15621	116	-59.7	-83.3	327	18
2023-09-24T18:00	15641	115	-59.8	-83.4	327	18
2023-09-24T18:00	15669	115	-59.9	-83.5	327	18
2023-09-24T18:00	15692	114	-60.0	-83.5	327	17
2023-09-24T18:00	15717	114	-60.2	-83.9	329	16
2023-09-24T18:00	15751	113	-60.0	-84.0	332	14
2023-09-24T18:00	15777	113	-58.7	-83.4	335	13
2023-09-24T18:00	15810	112	-57.8	-83.0	339	12
2023-09-24T18:00	15831	112	-57.6	-83.1	343	11
2023-09-24T18:00	15860	111	-57.7	-83.2	345	11
2023-09-24T18:00	15887	111	-58.0	-83.1	348	10
2023-09-24T18:00	15912	110	-58.2	-83.0	350	10
2023-09-24T18:00	15936	110	-58.4	-83.2	353	9
2023-09-24T18:00	15961	110	-58.5	-83.0	356	9
2023-09-24T18:00	15994	109	-58.8	-83.0	358	9
2023-09-24T18:00	16032	108	-59.2	-83.3	0	9
2023-09-24T18:00	16059	108	-59.4	-83.3	3	8
2023-09-24T18:00	16087	107	-59.7	-83.3	5	8
2023-09-24T18:00	16114	107	-59.9	-83.5	7	8
2023-09-24T18:00	16140	107	-60.0	-83.3	9	7
2023-09-24T18:00	16167	106	-60.2	-83.3	12	7
2023-09-24T18:00	16195	106	-60.5	-83.3	14	7
2023-09-24T18:00	16222	105	-60.8	-83.6	17	7
2023-09-24T18:00	16250	105	-61.0	-83.6	21	7
2023-09-24T18:00	16274	104	-61.3	-83.6	24	7
2023-09-24T18:00	16299	104	-61.4	-83.5	25	6
2023-09-24T18:00	16324	103	-61.7	-83.6	26	6
2023-09-24T18:00	16348	103	-61.9	-83.8	24	6
2023-09-24T18:00	16377	103	-62.1	-83.8	21	5
2023-09-24T18:00	16403	102	-62.3	-83.8	16	5
2023-09-24T18:00	16433	102	-62.5	-83.8	8	5
2023-09-24T18:00	16461	101	-62.7	-83.9	359	5
2023-09-24T18:00	16490	101	-62.9	-84.1	348	5
2023-09-24T18:00	16529	100	-63.0	-84.2	340	6
2023-09-24T18:00	16560	100	-62.9	-84.1	335	8
2023-09-24T18:00	16594	99	-63.1	-84.6	332	9
2023-09-24T18:00	16625	98	-62.8	-84.5	331	10
2023-09-24T18:00	16650	98	-62.4	-84.5	329	11
2023-09-24T18:00	16675	98	-62.2	-84.5	328	12
2023-09-24T18:00	16701	97	-62.1	-84.6	326	12
2023-09-24T18:00	16725	97	-61.9	-84.7	324	13
2023-09-24T18:00	16751	97	-62.0	-84.7	321	13
2023-09-24T18:00	16774	96	-62.2	-84.9	319	13
2023-09-24T18:00	16800	96	-62.3	-85.0	318	14
2023-09-24T18:00	16821	95	-62.3	-85.2	317	14
2023-09-24T18:00	16846	95	-62.3	-85.2	317	14
2023-09-24T18:00	16866	95	-62.2	-85.5	317	15
2023-09-24T18:00	16891	94	-61.8	-85.4	317	15
2023-09-24T18:00	16911	94	-61.3	-85.2	317	15
2023-09-24T18:00	16930	94	-61.1	-85.3	316	15
2023-09-24T18:00	16955	93	-60.8	-85.6	316	15
2023-09-24T18:00	16972	93	-60.7	-85.5	317	15
2023-09-24T18:00	16993	93	-60.7	-85.8	318	14
2023-09-24T18:00	17015	92	-60.3	-85.7	319	14
2023-09-24T18:00	17032	92	-60.2	-85.7	320	14
2023-09-24T18:00	17051	92	-60.1	-85.9	320	14
2023-09-24T18:00	17074	92	-59.7	-85.6	320	14
2023-09-24T18:00	17093	91	-59.6	-85.8	320	14
2023-09-24T18:00	17113	91	-59.0	-85.7	321	14
2023-09-24T18:00	17131	91	-58.5	-85.6	323	14
2023-09-24T18:00	17149	90	-58.1	-85.3	324	13
2023-09-24T18:00	17175	90	-57.8	-85.5	325	13
2023-09-24T18:00	17196	90	-57.5	-85.2	326	13
2023-09-24T18:00	17217	90	-57.6	-85.3	326	12
2023-09-24T18:00	17238	89	-57.7	-85.0	324	12
2023-09-24T18:00	17261	89	-57.9	-85.2	321	11
2023-09-24T18:00	17284	89	-58.1	-85.3	318	11
2023-09-24T18:00	17306	88	-57.9	-85.2	315	11
2023-09-24T18:00	17325	88	-57.9	-85.2	312	10
2023-09-24T18:00	17344	88	-57.9	-85.2	312	10
2023-09-24T18:00	17367	87	-58.0	-85.2	313	10
2023-09-24T18:00	17392	87	-57.5	-85.2	314	9
2023-09-24T18:00	17417	87	-57.6	-85.3	315	9
2023-09-24T18:00	17438	86	-57.5	-85.2	314	9
2023-09-24T18:00	17461	86	-57.1	-84.9	312	9
2023-09-24T18:00	17485	86	-57.1	-84.9	310	9
2023-09-24T18:00	17510	85	-57.2	-85.0	308	9
2023-09-24T18:00	17533	85	-57.4	-85.2	308	9
2023-09-24T18:00	17556	85	-57.6	-85.3	308	8
2023-09-24T18:00	17583	85	-57.6	-85.3	309	8
2023-09-24T18:00	17610	84	-57.4	-85.2	310	8
2023-09-24T18:00	17632	84	-57.4	-85.2	310	7
2023-09-24T18:00	17656	83	-57.4	-85.2	310	6
2023-09-24T18:00	17681	83	-57.4	-85.2	309	6
2023-09-24T18:00	17706	83	-57.4	-85.2	308	6
2023-09-24T18:00	17733	83	-57.4	-85.2	308	5
2023-09-24T18:00	17760	82	-57.5	-85.2	310	5
2023-09-24T18:00	17781	82	-57.7	-85.4	311	5
2023-09-24T18:00	17808	82	-57.9	-85.2	313	5
2023-09-24T18:00	17832	81	-58.0	-85.2	315	5
2023-09-24T18:00	17858	81	-58.2	-85.4	316	5
2023-09-24T18:00	17887	81	-58.4	-85.5	317	5
2023-09-24T18:00	17913	80	-58.6	-85.4	317	6
2023-09-24T18:00	17938	80	-58.9	-85.6	317	6
2023-09-24T18:00	17963	80	-59.1	-85.7	317	6
2023-09-24T18:00	17991	79	-59.4	-85.6	316	6
2023-09-24T18:00	18019	79	-59.4	-85.6	317	6
2023-09-24T18:00	18048	78	-59.3	-85.9	319	6
2023-09-24T18:00	18078	78	-59.5	-86.0	323	5
2023-09-24T18:00	18109	78	-59.6	-86.1	327	5
2023-09-24T18:00	18139	77	-59.6	-86.1	332	5
2023-09-24T18:00	18173	77	-59.8	-85.9	337	4
2023-09-24T18:00	18201	77	-60.0	-86.1	341	4
2023-09-24T18:00	18230	76	-60.3	-86.0	346	4
2023-09-24T18:00	18256	76	-60.5	-86.2	351	3
2023-09-24T18:00	18283	76	-60.8	-86.4	353	3
2023-09-24T18:00	18304	75	-60.9	-86.5	353	3
2023-09-24T18:00	18330	75	-60.9	-86.5	350	3
2023-09-24T18:00	18357	75	-60.9	-86.5	346	3
2023-09-24T18:00	18380	74	-61.0	-86.6	342	3
2023-09-24T18:00	18403	74	-61.1	-86.6	338	2
2023-09-24T18:00	18428	74	-61.3	-86.5	335	2
2023-09-24T18:00	18453	74	-61.4	-86.6	330	2
2023-09-24T18:00	18479	73	-61.6	-86.7	323	2
2023-09-24T18:00	18502	73	-61.7	-86.8	315	2
2023-09-24T18:00	18529	73	-61.9	-87.0	309	2
2023-09-24T18:00	18551	72	-62.1	-87.1	307	3
2023-09-24T18:00	18574	72	-62.0	-87.1	305	3
2023-09-24T18:00	18596	72	-61.8	-87.2	304	4
2023-09-24T18:00	18621	72	-61.5	-87.0	303	5
2023-09-24T18:00	18643	71	-61.6	-87.0	302	6
2023-09-24T18:00	18668	71	-61.5	-87.0	303	6
2023-09-24T18:00	18690	71	-61.6	-87.0	304	7
2023-09-24T18:00	18715	71	-61.7	-87.1	306	8
2023-09-24T18:00	18734	70	-61.7	-87.1	309	8
2023-09-24T18:00	18760	70	-61.5	-87.3	311	9
2023-09-24T18:00	18780	70	-61.5	-87.3	313	10
2023-09-24T18:00	18806	69	-61.3	-87.1	314	10
2023-09-24T18:00	18827	69	-61.1	-87.0	314	10
2023-09-24T18:00	18850	69	-60.9	-87.1	312	10
2023-09-24T18:00	18875	69	-60.9	-87.1	308	11
2023-09-24T18:00	18897	68	-60.6	-86.9	304	11
2023-09-24T18:00	18922	68	-60.6	-87.2	301	12
2023-09-24T18:00	18947	68	-60.5	-87.2	299	12
2023-09-24T18:00	18965	68	-60.3	-87.0	299	12
2023-09-24T18:00	18991	67	-60.0	-87.1	302	12
2023-09-24T18:00	19010	67	-59.8	-87.0	305	12
2023-09-24T18:00	19032	67	-59.1	-86.5	310	12
2023-09-24T18:00	19058	67	-59.1	-86.8	314	12
2023-09-24T18:00	19080	66	-59.1	-86.8	317	12
2023-09-24T18:00	19103	66	-59.0	-86.8	320	11
2023-09-24T18:00	19126	66	-58.6	-86.5	321	10
2023-09-24T18:00	19149	66	-58.3	-86.2	321	10
2023-09-24T18:00	19173	65	-58.2	-86.6	320	9
2023-09-24T18:00	19197	65	-58.0	-86.4	318	8
2023-09-24T18:00	19218	65	-58.1	-86.5	316	8
2023-09-24T18:00	19248	65	-57.9	-86.4	313	7
2023-09-24T18:00	19268	65	-57.7	-86.2	310	7
2023-09-24T18:00	19292	64	-57.7	-86.2	308	7
2023-09-24T18:00	19313	64	-57.7	-86.2	308	7
2023-09-24T18:00	19334	64	-57.5	-86.1	308	7
2023-09-24T18:00	19356	64	-57.3	-85.9	309	6
2023-09-24T18:00	19377	63	-57.3	-85.9	309	6
2023-09-24T18:00	19397	63	-57.2	-85.8	309	5
2023-09-24T18:00	19412	63	-57.3	-85.9	308	5
2023-09-24T18:00	19436	63	-57.2	-85.8	305	4
2023-09-24T18:00	19456	63	-57.2	-86.3	298	3
2023-09-24T18:00	19481	62	-56.8	-86.0	284	2
2023-09-24T18:00	19507	62	-56.3	-85.6	261	2
2023-09-24T18:00	19532	62	-56.5	-85.8	235	2
2023-09-24T18:00	19554	62	-56.7	-85.4	217	2
2023-09-24T18:00	19576	61	-56.9	-85.6	207	2
2023-09-24T18:00	19600	61	-57.0	-85.2	204	3
2023-09-24T18:00	19628	61	-57.2	-85.4	204	3
2023-09-24T18:00	19649	61	-57.4	-85.6	208	3
2023-09-24T18:00	19674	60	-57.6	-85.7	213	3
2023-09-24T18:00	19702	60	-57.8	-85.9	220	3
2023-09-24T18:00	19728	60	-58.0	-85.6	227	3
2023-09-24T18:00	19748	60	-58.0	-85.6	233	3
2023-09-24T18:00	19777	60	-58.2	-85.8	237	4
2023-09-24T18:00	19799	59	-58.2	-85.8	239	4
2023-09-24T18:00	19826	59	-58.4	-85.9	241	4
2023-09-24T18:00	19849	59	-58.5	-86.0	243	4
2023-09-24T18:00	19873	59	-58.8	-86.2	245	4
2023-09-24T18:00	19899	58	-58.9	-85.9	248	4
2023-09-24T18:00	19926	58	-59.1		252	5
2023-09-24T18:00	19946	58	-59.2	-86.2	255	5
2023-09-24T18:00	19972	58	-59.3	-86.2	258	5
2023-09-24T18:00	20001	57	-59.2	-86.5	260	5
2023-09-24T18:00	20024	57	-59.1	-86.5	262	6
2023-09-24T18:00	20051	57	-59.3	-86.6	264	6
2023-09-24T18:00	20079	57	-59.3	-86.6	267	5
2023-09-24T18:00	20104	57	-59.2	-86.9	271	5
2023-09-24T18:00	20122	56	-58.3	-86.2	275	5
2023-09-24T18:00	20159	56	-58.2	-86.6	280	5
2023-09-24T18:00	20182	56	-58.1	-86.5	284	6
2023-09-24T18:00	20206	56	-58.1	-86.5	286	6
2023-09-24T18:00	20233	55	-58.2	-86.6	288	7
2023-09-24T18:00	20263	55	-58.2	-86.6	289	7
2023-09-24T18:00	20290	55	-58.1	-86.5	289	8
2023-09-24T18:00	20312	55	-57.5	-86.1	288	8
2023-09-24T18:00	20340	54	-57.6	-86.1	287	7
2023-09-24T18:00	20367	54	-57.3	-86.4	285	7
2023-09-24T18:00	20395	54	-56.9	-86.1	283	6
2023-09-24T18:00	20416	54	-56.8	-86.0	280	5
2023-09-24T18:00	20446	54	-56.9	-86.1	278	5
2023-09-24T18:00	20469	53	-56.9	-86.1	276	4
2023-09-24T18:00	20498	53	-57.0	-85.7	274	4
2023-09-24T18:00	20518	53	-57.0	-85.7	270	4
2023-09-24T18:00	20544	53	-57.0	-85.7	266	3
2023-09-24T18:00	20571	52	-57.1	-85.7	259	3
2023-09-24T18:00	20592	52	-56.9	-85.6	250	3
2023-09-24T18:00	20621	52	-56.8	-86.0	237	3
2023-09-24T18:00	20643	52	-56.5	-85.8	222	2
2023-09-24T18:00	20666	52	-56.5	-85.8	208	3
2023-09-24T18:00	20690	51	-56.7	-85.9	199	3
2023-09-24T18:00	20721	51	-56.7	-85.4	194	4
2023-09-24T18:00	20747	51	-56.8	-85.5	192	4
2023-09-24T18:00	20770	51	-56.7	-85.4	191	4
2023-09-24T18:00	20797	51	-56.8	-85.5	191	5
2023-09-24T18:00	20821	50	-57.1	-85.7	192	5
2023-09-24T18:00	20848	50	-57.3	-85.5	194	6
2023-09-24T18:00	20876	50	-57.5	-85.6	197	6
2023-09-24T18:00	20901	50	-57.7	-85.8	200	7
2023-09-24T18:00	20928	50	-57.9		203	7
2023-09-24T18:00	20954	49	-58.0	-86.0	205	7
2023-09-24T18:00	20974	49	-58.2	-85.8	208	8
2023-09-24T18:00	21005	49	-58.4	-85.9	210	8
2023-09-24T18:00	21028	49	-58.6	-86.1	213	9
2023-09-24T18:00	21053	49	-58.7	-86.1	215	9
2023-09-24T18:00	21084	48	-58.8	-86.2	216	9
2023-09-24T18:00	21107	48	-58.9	-86.3	217	10
2023-09-24T18:00	21133	48	-58.9	-86.3	218	9
2023-09-24T18:00	21158	48	-58.9	-86.7	219	9
2023-09-24T18:00	21181	48	-58.8	-86.6	220	8
2023-09-24T18:00	21206	47	-58.8	-86.6	222	8
2023-09-24T18:00	21231	47	-58.9	-86.7	224	7
2023-09-24T18:00	21255	47	-58.9	-86.7	226	7
2023-09-24T18:00	21278	47	-58.8	-86.6	228	7
2023-09-24T18:00	21300	47	-58.8	-86.6	228	7
2023-09-24T18:00	21323	47	-58.8	-86.6	228	7
2023-09-24T18:00	21348	46	-58.8	-86.6	228	7
2023-09-24T18:00	21375	46	-58.6	-86.9	228	7
2023-09-24T18:00	21399	46	-58.4	-86.7	229	7
2023-09-24T18:00	21418	46	-58.3	-86.7	231	8
2023-09-24T18:00	21441	46	-58.3	-86.7	233	8
2023-09-24T18:00	21468	46	-57.9	-86.8	236	9
2023-09-24T18:00	21489	45	-57.6	-86.6	238	9
2023-09-24T18:00	21513	45	-57.2	-86.3	242	9
2023-09-24T18:00	21535	45	-57.2	-86.3	245	9
2023-09-24T18:00	21563	45	-57.1	-86.2	248	9
2023-09-24T18:00	21581	45	-57.0	-86.1	252	10
2023-09-24T18:00	21611	45	-57.0	-86.6	256	10
2023-09-24T18:00	21635	44	-56.8	-86.5	260	10
2023-09-24T18:00	21660	44	-56.4	-86.2	263	11
2023-09-24T18:00	21680	44	-56.2	-86.0	266	11
2023-09-24T18:00	21712	44	-56.0	-85.9	268	11
2023-09-24T18:00	21735	44	-56.1	-86.0	270	11
2023-09-24T18:00	21766	43	-55.8	-85.7	272	11
2023-09-24T18:00	21792	43	-55.6	-85.6	274	11
2023-09-24T18:00	21819	43	-55.4	-85.4	278	10
2023-09-24T18:00	21849	43	-55.6	-85.6	281	10
2023-09-24T18:00	21875	43	-55.7	-85.7	285	11
2023-09-24T18:00	21905	43	-55.8	-85.7	288	11
2023-09-24T18:00	21933	42	-55.8	-85.7	290	11
2023-09-24T18:00	21959	42	-55.8	-85.2	292	11
2023-09-24T18:00	21991	42	-55.8	-85.2	293	11
2023-09-24T18:00	22014	42	-56.0		293	11
2023-09-24T18:00	22052	42	-56.1	-85.5	293	10
2023-09-24T18:00	22073	41	-55.9	-85.3	292	10
2023-09-24T18:00	22104	41	-56.0	-85.9	290	9
2023-09-24T18:00	22136	41	-55.9	-85.8	288	7
2023-09-24T18:00	22166	41	-56.0	-85.9	284	6
2023-09-24T18:00	22192	41	-55.8	-85.7	280	5
2023-09-24T18:00	22221	40	-55.5	-85.5	274	4
2023-09-24T18:00	22245	40	-55.6	-85.6	268	4
2023-09-24T18:00	22274	40	-55.6	-85.6	261	3
2023-09-24T18:00	22303	40	-55.5	-86.1	253	3
2023-09-24T18:00	22327	40	-54.6	-85.4	245	3
2023-09-24T18:00	22359	40	-54.6	-85.4	237	3
2023-09-24T18:00	22384	39	-54.8	-85.5	229	3
2023-09-24T18:00	22414	39	-54.8	-85.0	223	4
2023-09-24T18:00	22446	39	-55.0	-85.1	220	4
2023-09-24T18:00	22470	39	-55.1	-85.2	220	5
2023-09-24T18:00	22501	39	-55.2	-85.3	221	5
2023-09-24T18:00	22524	39	-55.1	-85.2	221	5
2023-09-24T18:00	22554	38	-55.2	-85.3	221	6
2023-09-24T18:00	22581	38	-55.3	-85.4	220	6
2023-09-24T18:00	22614	38	-55.4	-85.4	219	6
2023-09-24T18:00	22640	38	-55.6	-85.1	219	7
2023-09-24T18:00	22669	38	-55.9	-85.3	221	7
2023-09-24T18:00	22695	38	-56.1	-85.5	224	7
2023-09-24T18:00	22724	37	-56.3	-85.6	229	8
2023-09-24T18:00	22751	37	-56.4	-85.7	234	8
2023-09-24T18:00	22778	37	-56.4	-85.7	239	9
2023-09-24T18:00	22802	37	-56.3	-85.6	244	9
2023-09-24T18:00	22832	37	-56.3	-85.6	248	9
2023-09-24T18:00	22854	37	-56.3	-86.1	251	9
2023-09-24T18:00	22890	36	-56.2	-86.0	254	9
2023-09-24T18:00	22923	36	-56.2	-86.0	257	8
2023-09-24T18:00	22949	36	-55.9	-85.8	259	8
2023-09-24T18:00	22976	36	-56.1	-85.5	262	8
2023-09-24T18:00	23009	36	-56.3	-85.6	264	8
2023-09-24T18:00	23033	36	-56.6	-85.8	267	7
2023-09-24T18:00	23066	35	-56.8	-85.5	269	7
2023-09-24T18:00	23098	35	-57.1	-85.7	271	7
2023-09-24T18:00	23123	35	-57.3	-85.9	273	7
2023-09-24T18:00	23158	35	-57.6	-85.7	276	7
2023-09-24T18:00	23186	35	-57.8	-85.9	278	6
2023-09-24T18:00	23214	35	-58.1		279	6
2023-09-24T18:00	23241	34	-58.3	-86.2	279	6
2023-09-24T18:00	23272	34	-58.5	-86.4	276	6
2023-09-24T18:00	23304	34	-58.6	-86.5	272	6
2023-09-24T18:00	23328	34	-58.5	-86.4	266	7
2023-09-24T18:00	23353	34	-58.5	-86.4	261	7
2023-09-24T18:00	23383	34	-58.5	-86.4	257	7
2023-09-24T18:00	23412	34	-58.7	-86.5	254	8
2023-09-24T18:00	23446	33	-58.9	-86.7	251	8
2023-09-24T18:00	23469	33	-59.1	-86.5	249	8
2023-09-24T18:00	23501	33	-59.4	-86.7	247	9
2023-09-24T18:00	23527	33	-59.6	-86.8	247	9
2023-09-24T18:00	23555	33	-59.9	-87.1	247	9
2023-09-24T18:00	23579	33	-60.0	-87.1	249	9
2023-09-24T18:00	23609	32	-59.9	-87.1	252	9
2023-09-24T18:00	23635	32	-59.8	-87.4	255	9
2023-09-24T18:00	23674	32	-59.8	-87.4	257	9
2023-09-24T18:00	23691	32	-59.5	-87.6	259	9
2023-09-24T18:00	23718	32	-59.4	-87.5	259	9
2023-09-24T18:00	23753	32	-59.2	-87.8	259	9
2023-09-24T18:00	23774	32	-58.9	-87.6	258	8
2023-09-24T18:00	23803	31	-58.7	-87.4	259	8
2023-09-24T18:00	23831	31	-58.5	-87.3	260	8
2023-09-24T18:00	23858	31	-58.6	-87.3	263	8
2023-09-24T18:00	23888	31	-58.4	-87.2	267	8
2023-09-24T18:00	23915	31	-57.7	-87.2	272	8
2023-09-24T18:00	23940	31	-57.7	-87.2	276	8
2023-09-24T18:00	23965	31	-57.5	-87.0	281	8
2023-09-24T18:00	23995	31	-57.3	-86.9	284	9
2023-09-24T18:00	24020	30	-57.2	-86.8	287	8
2023-09-24T18:00	24045	30	-56.8	-86.5	289	8
2023-09-24T18:00	24072	30	-56.8	-86.5	290	8
2023-09-24T18:00	24092	30	-57.0	-86.6	290	8
2023-09-24T18:00	24120	30	-57.1	-86.7	288	8
2023-09-24T18:00	24147	30	-56.9	-86.6	284	7
2023-09-24T18:00	24175	30	-56.7	-86.4	279	7
2023-09-24T18:00	24202	30	-56.4	-86.2	274	7
2023-09-24T18:00	24230	29	-55.6	-86.1	268	7
2023-09-24T18:00	24256	29	-55.7	-86.2	261	7
2023-09-24T18:00	24281	29	-55.9	-86.3	255	7
2023-09-24T18:00	24316	29	-55.9	-86.3	250	8
2023-09-24T18:00	24339	29	-55.9	-86.3	245	8
2023-09-24T18:00	24370	29	-55.8	-86.3	242	8
2023-09-24T18:00	24396	29	-55.3	-85.4	239	8
2023-09-24T18:00	24426	29	-55.4	-85.4	237	8
2023-09-24T18:00	24455	28	-55.5	-85.5	235	8
2023-09-24T18:00	24484	28	-55.7	-85.7	233	7
2023-09-24T18:00	24511	28	-55.9	-85.8	233	8
2023-09-24T18:00	24534	28	-56.1	-85.5	233	8
2023-09-24T18:00	24570	28	-56.2	-85.5	233	8
2023-09-24T18:00	24597	28	-56.3	-85.6	233	8
2023-09-24T18:00	24623	28	-56.4	-85.7	234	8
2023-09-24T18:00	24655	28	-56.7	-85.9	234	8
2023-09-24T18:00	24686	27	-56.8	-86.0	234	8
2023-09-24T18:00	24719	27	-56.9	-86.1	233	8
2023-09-24T18:00	24742	27	-57.0	-86.1	232	7
2023-09-24T18:00	24767	27	-57.1	-86.2	232	7
2023-09-24T18:00	24803	27	-57.2	-86.3	232	6
2023-09-24T18:00	24828	27	-57.4	-86.4	234	5
2023-09-24T18:00	24865	27	-57.6	-86.1	237	5
2023-09-24T18:00	24892	27	-57.7	-86.2	240	5
2023-09-24T18:00	24915	26	-57.7	-86.2	241	5
2023-09-24T18:00	24952	26	-57.7	-86.2	241	5
2023-09-24T18:00	24984	26	-57.7	-86.2	240	6
2023-09-24T18:00	25011	26	-57.8	-86.3	239	6
2023-09-24T18:00	25043	26	-58.0	-86.4	238	7
2023-09-24T18:00	25069	26	-58.2	-86.6	238	7
2023-09-24T18:00	25096	26	-58.4	-86.3	237	8
2023-09-24T18:00	25128	26	-58.7	-86.5	235	8
2023-09-24T18:00	25166	25	-58.9	-86.7	233	9
2023-09-24T18:00	25193	25	-59.1	-86.8	231	9
2023-09-24T18:00	25217	25	-59.3	-87.0	230	10
2023-09-24T18:00	25245	25	-59.2	-86.9	231	10
2023-09-24T18:00	25271	25	-59.0	-87.2	233	10
2023-09-24T18:00	25290	25	-59.0	-87.2	236	11
2023-09-24T18:00	25328	25	-59.0	-87.2	239	11
2023-09-24T18:00	25355	25	-59.0	-87.2	243	11
2023-09-24T18:00	25373	25	-59.1	-87.3	246	11
2023-09-24T18:00	25403	24	-59.1	-87.3	248	10
2023-09-24T18:00	25430	24	-59.2	-87.3	250	10
2023-09-24T18:00	25446	24	-59.1	-87.7	251	9
2023-09-24T18:00	25483	24	-58.7	-87.4	251	8
2023-09-24T18:00	25495	24	-58.5	-87.3	250	7
2023-09-24T18:00	25536	24	-58.4	-87.7	247	5
2023-09-24T18:00	25563	24	-58.3	-87.6	243	4
2023-09-24T18:00	25584	24	-57.8	-87.2	236	3
2023-09-24T18:00	25610	24	-57.6	-87.1	227	3
2023-09-24T18:00	25632	24	-57.3	-86.9	215	2
2023-09-24T18:00	25664	23	-57.3	-86.9	204	2
2023-09-24T18:00	25688	23	-57.5	-86.5	194	2
2023-09-24T18:00	25713	23	-57.7	-86.7	185	2
2023-09-24T18:00	25741	23	-57.9	-86.8	179	3
2023-09-24T18:00	25770	23	-58.1	-87.0	176	3
2023-09-24T18:00	25802	23	-58.2	-86.6	178	3
2023-09-24T18:00	25824	23	-58.1	-86.5	183	3
2023-09-24T18:00	25853	23	-58.3	-86.7	191	4
2023-09-24T18:00	25884	23	-58.2	-86.6	199	4
2023-09-24T18:00	25914	23	-58.3	-87.1	205	5
2023-09-24T18:00	25948	22	-58.4	-87.2	208	6
2023-09-24T18:00	25968	22	-58.2	-87.0	211	7
2023-09-24T18:00	26001	22	-58.1	-87.0	215	7
2023-09-24T18:00	26031	22	-58.0	-87.4	218	8
2023-09-24T18:00	26063	22	-57.8	-87.2	222	8
2023-09-24T18:00	26091	22	-57.4	-86.9	226	9
2023-09-24T18:00	26121	22	-57.2	-86.8	228	9
2023-09-24T18:00	26152	22	-57.3	-86.9	231	9
2023-09-24T18:00	26180	22	-57.2	-86.8	233	9
2023-09-24T18:00	26209	22	-57.1	-86.7	236	9
2023-09-24T18:00	26240	21	-57.0	-86.6	239	9
2023-09-24T18:00	26261	21	-56.8	-86.5	242	9
2023-09-24T18:00	26297	21	-56.7	-86.9	245	10
2023-09-24T18:00	26323	21	-56.3	-86.6	247	11
2023-09-24T18:00	26357	21	-56.4		249	11
2023-09-24T18:00	26385	21	-55.9	-86.3	251	12
2023-09-24T18:00	26415	21	-55.9	-86.3	251	12
2023-09-24T18:00	26445	21	-56.0	-86.4	252	13
2023-09-24T18:00	26466	21	-55.8	-86.3	251	12
2023-09-24T18:00	26497	21	-55.4	-86.0	250	12
2023-09-24T18:00	26529	20	-55.3	-85.9	249	12
2023-09-24T18:00	26558	20	-55.3	-85.9	247	11
2023-09-24T18:00	26585	20	-55.1	-85.8	246	11
2023-09-24T18:00	26611	20	-55.0	-86.3	247	11
2023-09-24T18:00	26640	20	-54.6	-86.0	249	11
2023-09-24T18:00	26679	20	-54.4	-85.8	252	11
2023-09-24T18:00	26694	20	-54.3	-85.8	256	11
2023-09-24T18:00	26713	20	-54.2	-85.7	259	11
2023-09-24T18:00	26745	20	-54.3	-85.8	262	11
2023-09-24T18:00	26773	20	-54.3	-85.2	264	11
2023-09-24T18:00	26798	20	-54.3	-85.2	265	12
2023-09-24T18:00	26822	20	-54.5	-85.3	266	12
2023-09-24T18:00	26852	19	-54.6	-85.4	267	12
2023-09-24T18:00	26887	19	-54.6	-85.4	269	12
2023-09-24T18:00	26911	19	-54.6	-85.4	270	12
2023-09-24T18:00	26943	19	-54.5	-85.3	272	12
2023-09-24T18:00	26966	19	-54.2	-85.1	274	12
2023-09-24T18:00	26997	19	-54.2	-85.1	276	12
2023-09-24T18:00	27034	19	-54.3	-85.2	277	11
2023-09-24T18:00	27059	19	-54.3	-85.2	278	11
2023-09-24T18:00	27085	19	-54.3	-85.2	277	11
2023-09-24T18:00	27123	19	-54.3	-85.2	276	11
2023-09-24T18:00	27159	19	-54.4	-85.2	275	11
2023-09-24T18:00	27186	18	-54.5	-85.3	273	11
2023-09-24T18:00	27210	18	-54.6	-85.4	272	11
2023-09-24T18:00	27245	18	-54.7	-85.5	270	11
2023-09-24T18:00	27279	18	-54.8	-85.5	268	12
2023-09-24T18:00	27308	18	-54.6	-85.4	265	12
2023-09-24T18:00	27343	18	-54.5	-85.3	263	12
2023-09-24T18:00	27372	18	-54.6	-85.4	262	13
2023-09-24T18:00	27396	18	-54.7	-85.5	262	13
2023-09-24T18:00	27436	18	-54.7	-85.5	263	14
2023-09-24T18:00	27460	18	-54.6	-85.4	266	14
2023-09-24T18:00	27493	18	-54.7	-85.5	269	14
2023-09-24T18:00	27537	18	-54.7	-85.5	271	14
2023-09-24T18:00	27548	17	-54.6	-85.4	273	14
2023-09-24T18:00	27590	17	-54.6	-85.4	275	14
2023-09-24T18:00	27630	17	-54.6	-85.4	277	13
2023-09-24T18:00	27657	17	-54.6	-85.4	279	13
2023-09-24T18:00	27676	17	-54.6	-85.4	282	13
2023-09-24T18:00	27711	17	-54.7	-85.5	286	13
2023-09-24T18:00	27744	17	-54.8	-85.5	290	13
2023-09-24T18:00	27770	17	-54.4	-85.2	293	14
2023-09-24T18:00	27800	17	-54.2	-85.7	296	14
2023-09-24T18:00	27837	17	-54.2	-85.7	297	15
2023-09-24T18:00	27866	17	-54.2	-85.7	297	15
2023-09-24T18:00	27886	17	-54.2	-85.7	297	15
2023-09-24T18:00	27915	16	-54.1	-85.6	296	15
2023-09-24T18:00	27954	16	-54.1	-85.6	296	15
2023-09-24T18:00	27974	16	-54.0	-85.5	297	15
2023-09-24T18:00	28012	16	-53.7	-85.3	298	15
2023-09-24T18:00	28023	16	-53.2	-85.0	298	14
2023-09-24T18:00	28061	16	-52.8	-85.3	299	14
2023-09-24T18:00	28086	16	-52.8	-85.3	300	14
2023-09-24T18:00	28116	16	-52.9	-85.4	301	14
2023-09-24T18:00	28131	16	-52.9	-85.4	303	13
2023-09-24T18:00	28166	16	-52.7	-85.3	305	13
2023-09-24T18:00	28186	16	-52.3	-85.0	307	13
2023-09-24T18:00	28206	16	-52.0	-84.8	310	12
2023-09-24T18:00	28234	16	-51.7	-84.5	313	12
2023-09-24T18:00	28261	16	-51.7	-84.5	316	11
2023-09-24T18:00	28296	16	-51.7	-84.5	318	11
2023-09-24T18:00	28326	15	-51.6	-84.5	319	10
2023-09-24T18:00	28356	15	-51.7	-84.5	319	10
2023-09-24T18:00	28376	15	-51.6	-84.5	319	9
2023-09-24T18:00	28409	15	-51.6	-84.5	319	8
2023-09-24T18:00	28436	15	-51.4	-84.3	319	8
2023-09-24T18:00	28471	15	-51.3	-84.3	318	7
2023-09-24T18:00	28493	15	-51.4	-84.3	318	7
2023-09-24T18:00	28528	15	-51.4	-84.3	317	6
2023-09-24T18:00	28546	15	-51.5	-84.4	315	6
2023-09-24T18:00	28592	15	-51.5	-84.4	312	6
2023-09-24T18:00	28619	15	-51.4	-84.3	309	7
2023-09-24T18:00	28654	15	-51.5	-84.4	307	7
2023-09-24T18:00	28682	15	-51.5	-84.4	306	8
2023-09-24T18:00	28717	15	-51.4	-84.3	307	8
2023-09-24T18:00	28750	15	-51.4	-84.3	309	9
2023-09-24T18:00	28781	14	-51.4	-84.3	310	10
2023-09-24T18:00	28812	14	-51.2	-84.2	312	11
2023-09-24T18:00	28849	14	-50.8	-83.9	314	12
2023-09-24T18:00	28898	14	-50.7	-83.8	315	12
2023-09-24T18:00	28921	14	-50.7	-83.8	315	12
2023-09-24T18:00	28962	14	-51.0	-84.0	315	11
2023-09-24T18:00	28996	14	-51.0	-84.0	314	11
2023-09-24T18:00	29022	14	-51.0	-84.0	313	10
2023-09-24T18:00	29059	14	-51.1	-84.1	311	9
2023-09-24T18:00	29097	14	-51.2	-84.2	309	7
2023-09-24T18:00	29139	14	-51.2	-84.2	307	7
2023-09-24T18:00	29165	14	-51.4	-84.3	304	6
2023-09-24T18:00	29187	14	-51.5	-84.4	301	5
2023-09-24T18:00	29237	13	-51.4	-84.3	298	5
2023-09-24T18:00	29252	13	-51.3	-84.3	293	4
2023-09-24T18:00	29289	13	-51.2	-84.2	288	4
2023-09-24T18:00	29330	13	-51.4	-84.3	282	4
2023-09-24T18:00	29342	13	-51.5	-84.4	277	4
2023-09-24T18:00	29369	13	-51.6	-83.8	274	4
2023-09-24T18:00	29416	13	-51.7	-83.9	273	4
2023-09-24T18:00	29439	13	-51.8	-83.9	272	5
2023-09-24T18:00	29463	13	-51.8	-83.9	270	5
2023-09-24T18:00	29495	13	-51.9	-84.0	268	6
2023-09-24T18:00	29543	13	-52.0	-84.1	267	7
2023-09-24T18:00	29573	13	-52.0	-84.1	267	8
2023-09-24T18:00	29586	13	-52.0	-84.1	268	8
2023-09-24T18:00	29621	13	-51.8	-84.6	270	9
2023-09-24T18:00	29666	13	-51.8	-84.6	273	9
2023-09-24T18:00	29683	13	-51.7	-84.5	276	9
2023-09-24T18:00	29701	13	-51.5	-84.4	280	9
2023-09-24T18:00	29743	12	-51.5	-84.4	285	9
2023-09-24T18:00	29771	12	-51.3	-84.3	292	9
2023-09-24T18:00	29781	12	-51.3	-84.3	298	9
2023-09-24T18:00	29823	12	-51.4	-84.3	304	9
2023-09-24T18:00	29846	12	-51.2	-84.2	308	9
2023-09-24T18:00	29885	12	-50.7	-84.6	310	9
2023-09-24T18:00	29909	12	-50.5	-84.5	310	9
2023-09-24T18:00	29919	12	-50.3	-84.3	309	9
2023-09-24T18:00	29959	12	-49.8	-84.0	307	8
2023-09-24T18:00	29989	12	-49.9	-84.0	304	8
2023-09-24T18:00	30007	12	-49.9	-84.0	300	8
2023-09-24T18:00	30038	12	-49.9	-84.0	297	8
2023-09-24T18:00	30061	12	-49.7	-83.9	294	8
2023-09-24T18:00	30111	12	-49.7	-83.9	291	8
2023-09-24T18:00	30139	12	-49.6	-83.8	289	9
2023-09-24T18:00	30148	12	-49.5	-83.7	287	9
2023-09-24T18:00	30179	12	-49.1	-83.4	285	9
2023-09-24T18:00	30229	12	-48.9	-83.3	283	8
2023-09-24T18:00	30247	12	-49.1	-83.4	280	8
2023-09-24T18:00	30280	11	-49.1	-83.4	277	8
2023-09-24T18:00	30301	11	-49.3	-83.6	275	8
2023-09-24T18:00	30346	11	-49.3	-83.6	273	8
2023-09-24T18:00	30370	11	-49.0	-83.4	272	9
2023-09-24T18:00	30400	11	-49.0	-83.4	271	9
2023-09-24T18:00	30436	11	-49.1	-83.4	270	9
2023-09-24T18:00	30452	11	-49.2	-83.5	271	10
2023-09-24T18:00	30492	11	-49.3	-83.6	272	10
2023-09-24T18:00	30525	11	-49.4	-83.7	275	10
2023-09-24T18:00	30558	11	-49.3	-83.6	278	10
2023-09-24T18:00	30603	11	-49.3	-83.6	282	10
2023-09-24T18:00	30617	11	-48.9	-83.3	287	11
2023-09-24T18:00	30650	11	-48.9	-83.3	292	11
2023-09-24T18:00	30664	11	-48.9	-83.3	296	11
2023-09-24T18:00	30717	11	-49.0	-83.4	300	11
2023-09-24T18:00	30733	11	-48.8	-83.2	304	11
2023-09-24T18:00	30780	11	-48.6	-83.1	308	11
2023-09-24T18:00	30812	11	-48.5	-83.0	311	11
2023-09-24T18:00	30859	11	-48.7	-83.2	314	12
2023-09-24T18:00	30886	10	-48.9	-83.3	317	12
2023-09-24T18:00	30908	10	-49.0	-83.4	320	12
2023-09-24T18:00	30934	10	-49.1	-83.4	324	12
2023-09-24T18:00	30968	10	-49.0	-83.4	327	12
2023-09-24T18:00	31007	10	-49.0	-83.4	329	12
2023-09-24T18:00	31039	10	-49.1	-83.4	331	12
2023-09-24T18:00	31090	10	-49.1	-83.4	333	13
2023-09-24T18:00	31103	10	-49.2	-83.5	333	12
2023-09-24T18:00	31135	10	-49.1	-83.4	333	12
2023-09-24T18:00	31169	10	-49.2	-83.5	333	12
2023-09-24T18:00	31211	10	-49.2	-83.5	332	12
2023-09-24T18:00	31248	10	-49.1	-83.4	330	11
2023-09-24T18:00	31271	10	-48.9	-83.3	327	11
2023-09-24T18:00	31302	10	-48.8	-83.2	324	10
2023-09-24T18:00	31330	10	-48.7	-83.2	320	10
2023-09-24T18:00	31363	10	-48.8	-83.2	315	9
2023-09-24T18:00	31422	10	-49.0	-83.4	310	9
2023-09-24T18:00	31438	10	-49.1	-83.4	306	9
2023-09-24T18:00	31463	10	-49.2	-83.5	303	9
2023-09-24T18:00	31483	10	-49.0	-83.4	303	9
2023-09-24T18:00	31539	9	-48.9	-83.3	304	9
2023-09-24T18:00	31577	9	-48.9	-83.3	305	9
2023-09-24T18:00	31583	9	-49.0	-83.4	306	9
2023-09-24T18:00	31617	9	-49.0	-83.4	306	9
2023-09-24T18:00	31650	9	-49.1	-83.4	305	9
2023-09-24T18:00	31689	9	-49.2	-83.5	303	9
2023-09-24T18:00	31721	9	-49.3	-83.6	301	9
2023-09-24T18:00	31747	9	-49.4	-83.7	299	9
2023-09-24T18:00	31770	9	-49.3	-83.6	297	9
2023-09-24T18:00	31814	9	-49.3	-83.6	295	9
2023-09-24T18:00	31846	9	-49.4	-83.7	292	9
2023-09-24T18:00	31867	9	-49.4	-83.7	290	10
2023-09-24T18:00	31903	9	-49.5	-83.7	288	10
2023-09-24T18:00	31941	9	-49.6	-83.8	285	10
2023-09-24T18:00	31983	9	-49.5	-83.7	283	10
2023-09-24T18:00	32004	9	-49.5	-83.7	281	11
2023-09-24T18:00	32039	9	-49.3	-83.6	279	11
2023-09-24T18:00	32063	9	-49.1	-83.4	276	10
2023-09-24T18:00	32084	9	-48.8	-84.1	274	10
2023-09-24T18:00	32117	9	-48.4	-83.8	273	10
2023-09-24T18:00	32156	9	-48.0	-83.6	272	10
2023-09-24T18:00	32204	9	-48.0	-83.6	273	9
2023-09-24T18:00	32233	9	-48.0	-83.6	275	9
2023-09-24T18:00	32264	8	-48.2	-83.7	277	9
2023-09-24T18:00	32293	8	-48.2	-83.7	280	9
2023-09-24T18:00	32310	8	-48.0	-83.6	281	9
2023-09-24T18:00	32337	8	-47.6	-83.3	281	9
2023-09-24T18:00	32361	8	-47.4	-83.1	281	9
2023-09-24T18:00	32380	8	-47.3	-83.1	279	8
2023-09-24T18:00	32429	8	-46.9	-82.8	277	8
2023-09-24T18:00	32461	8	-46.9	-82.8	274	7
2023-09-24T18:00	32522	8	-46.8	-82.7	272	7
2023-09-24T18:00	32529	8	-46.8	-82.7	269	7
2023-09-24T18:00	32550	8	-46.7	-82.6	267	8
2023-09-24T18:00	32593	8	-46.4	-82.4	266	8
2023-09-24T18:00	32618	8	-46.5	-82.5	265	9
2023-09-24T18:00	32662	8	-46.5	-82.5	266	9
2023-09-24T18:00	32679	8	-46.4	-82.4	268	10
2023-09-24T18:00	32708	8	-46.3	-82.4	270	11
2023-09-24T18:00	32753	8	-46.4	-82.4	271	11
2023-09-24T18:00	32770	8	-46.5	-82.5	271	12
2023-09-24T18:00	32801	8	-46.3	-82.4	271	12
2023-09-24T18:00	32843	8	-46.2	-82.3	270	12
2023-09-24T18:00	32864	8	-46.1	-82.2	270	11
2023-09-24T18:00	32905	8	-46.2	-82.3	270	11
2023-09-24T18:00	32946	8	-46.2	-82.3	270	10
2023-09-24T18:00	32950	8	-46.3	-82.4	270	10
2023-09-24T18:00	32986	8	-46.5	-82.5	269	9
2023-09-24T18:00	33012	8	-46.6	-82.6	267	9
2023-09-24T18:00	33040	8	-46.6	-82.6	263	8
2023-09-24T18:00	33067	8	-46.4	-82.4	258	7
2023-09-24T18:00	33107	7	-46.4	-82.4	253	7
2023-09-24T18:00	33135	7	-46.4	-82.4	248	7
2023-09-24T18:00	33164	7	-46.5	-82.5	245	7
2023-09-24T18:00	33191	7	-46.5	-82.5	243	7
2023-09-24T18:00	33215	7	-46.4	-82.4	244	8
2023-09-24T18:00	33255	7	-46.3	-82.4	246	9
2023-09-24T18:00	33276	7	-46.2	-82.3	249	9
2023-09-24T18:00	33301	7	-46.0	-82.1	252	10
2023-09-24T18:00	33332	7	-46.0	-82.1	257	10
2023-09-24T18:00	33367	7	-45.9	-82.1	262	11
2023-09-24T18:00	33382	7	-45.9	-83.2	266	12
2023-09-24T18:00	33405	7	-45.9	-83.2	270	13
2023-09-24T18:00	33430	7	-45.8	-83.1	272	14
2023-09-24T18:00	33447	7	-45.3	-82.7	274	14
2023-09-24T18:00	33454	7	-44.9	-82.5	275	15
2023-09-24T18:00	33513	7	-44.8	-82.4	275	15
2023-09-24T18:00	33548	7	-44.6	-82.2	275	15
2023-09-24T18:00	33561	7	-44.4	-82.1	276	15
2023-09-24T18:00	33593	7	-44.3	-82.0	277	14
2023-09-24T18:00	33603	7	-43.9	-81.8	278	14
2023-09-24T18:00	33626	7	-43.8	-81.7	280	14
2023-09-24T18:00	33676	7	-43.7	-81.6	282	15
2023-09-24T18:00	33694	7	-43.5	-81.5	283	15
2023-09-24T18:00	33740	7	-43.4	-81.4	285	15
2023-09-24T18:00	33757	7	-43.3	-81.3	287	16
2023-09-24T18:00	33793	7	-43.2	-81.3	289	16
2023-09-24T18:00	33819	7	-43.1	-81.2	291	16
2023-09-24T18:00	33837	7	-43.1	-81.2	293	17
2023-09-24T18:00	33874	7	-43.1	-81.2	295	17
2023-09-24T18:00	33921	7	-43.1	-81.2	297	17
2023-09-24T18:00	33929	7	-43.1	-81.2	299	17
2023-09-24T18:00	33972	7	-43.2	-81.3	300	17
2023-09-24T18:00	34004	7	-43.3	-81.3	301	17
2023-09-24T18:00	34017	7	-43.3	-81.3	302	16
2023-09-24T18:00	34051	7	-43.3	-81.3	302	16
2023-09-24T18:00	34096	6	-43.1	-81.2	302	17
2023-09-24T18:00	34131	6	-43.1	-81.2	302	17
2023-09-24T18:00	34173	6	-42.8	-81.0	302	17
2023-09-24T18:00	34188	6	-42.7	-80.9	302	18
2023-09-24T18:00	34255	6	-42.9	-81.1	302	18
2023-09-24T18:00	34262	6	-43.0	-81.1	302	19
2023-09-24T18:00	34299	6	-43.2	-81.3	303	19
2023-09-24T18:00	34336	6	-43.3	-81.3	304	19
2023-09-24T18:00	34369	6	-43.2	-81.3	305	19
2023-09-24T18:00	34393	6	-43.0	-81.1	306	19
2023-09-24T18:00	34403	6	-43.0	-81.1	307	18
2023-09-24T18:00	34426	6	-42.9	-81.1	308	17
2023-09-24T18:00	34485	6	-42.7	-80.9	309	16
2023-09-24T18:00	34502	6	-42.5	-80.8	310	15
2023-09-24T18:00	34523	6	-42.5	-80.8	310	15
2023-09-24T18:00	34554	6	-42.4	-80.7	310	15
2023-09-24T18:00	34585	6	-42.0	-80.4	308	14
2023-09-24T18:00	34618	6	-41.9	-80.4	306	14
2023-09-24T18:00	34672	6	-41.6	-80.1	304	15
2023-09-24T18:00	34694	6	-41.0	-79.7	300	15
2023-09-24T18:00	34716	6	-40.7	-79.5	299	15
2023-09-24T18:00	34753	6	-40.6	-79.5	297	15
2023-09-24T18:00	34773	6	-40.3	-79.2	295	14
2023-09-24T18:00	34797	6	-40.2	-79.2	294	14
2023-09-24T18:00	34819	6	-40.1	-79.1	294	14
2023-09-24T18:00	34876	6	-39.6	-78.8	294	14
2023-09-24T18:00	34910	6	-39.4	-78.6	294	14
2023-09-24T18:00	34918	6	-39.0	-78.3	294	14
2023-09-24T18:00	34953	6	-38.8	-78.2	295	13
2023-09-24T18:00	34995	6	-38.2	-77.8	298	13
2023-09-24T18:00	35018	6	-38.0	-77.6	300	13
2023-09-24T18:00	35102	6	-38.0	-77.6	304	12
2023-09-24T18:00	35114	6	-37.9	-77.6	306	12
2023-09-24T18:00	35179	6	-38.1	-77.7	306	12
2023-09-24T18:00	35218	5	-37.4	-77.2	298	11
2023-09-24T18:00	35249	5	-37.4	-77.2	293	12
2023-09-24T18:00	35328	5	-37.3	-77.2	289	12
2023-09-24T18:00	35343	5	-37.2	-77.1	285	12
2023-09-24T18:00	35360	5	-37.2	-77.1	282	13
2023-09-24T18:00	35383	5	-37.2	-77.1	280	13
2023-09-24T18:00	35479	5	-37.0	-77.0	278	13
2023-09-25T00:00	-999					
2023-09-25T00:00	131	1013	12.0	10.6	140	4
2023-09-25T00:00	155	1010	12.7	10.3	141	5
2023-09-25T00:00	181	1007	13.2	10.3	141	6
2023-09-25T00:00	204	1004	13.6	10.3	142	7
2023-09-25T00:00	233	1001	13.6	9.7	142	7
2023-09-25T00:00	256	998	13.8	9.2	141	6
2023-09-25T00:00	280	995	14.3	6.8	141	6
2023-09-25T00:00	303	993	14.1	6.7	141	6
2023-09-25T00:00	327	990	14.0	6.5	141	6
2023-09-25T00:00	353	987	13.9	7.0	142	6
2023-09-25T00:00	374	985	13.7	7.6	141	5
2023-09-25T00:00	398	982	13.5	7.2	140	5
2023-09-25T00:00	424	979	13.3	6.8	135	5
2023-09-25T00:00	453	975	13.1	6.5	128	5
2023-09-25T00:00	477	972	13.0	5.8	120	5
2023-09-25T00:00	501	970	12.9	5.3	115	5
2023-09-25T00:00	517	968	12.8	5.2	115	4
2023-09-25T00:00	537	966	12.7	5.1	122	4
2023-09-25T00:00	556	963	12.6	5.0	133	5
2023-09-25T00:00	574	961	12.4	4.8	141	5
2023-09-25T00:00	592	959	12.3	4.8	146	6
2023-09-25T00:00	610	957	12.2	4.7	147	6
2023-09-25T00:00	627	955	12.1	4.3	145	5
2023-09-25T00:00	646	953	12.0	4.0	139	4
2023-09-25T00:00	666	951	12.0	3.9	127	3
2023-09-25T00:00	685	949	12.0	4.0	107	2
2023-09-25T00:00	704	947	11.9	3.7	82	2
2023-09-25T00:00	723	944	11.8	3.4	66	2
2023-09-25T00:00	743	942	11.8	2.8	61	2
2023-09-25T00:00	765	940	11.7	2.4	63	2
2023-09-25T00:00	793	937	11.6	2.0	64	2
2023-09-25T00:00	814	934	11.4	1.5	61	2
2023-09-25T00:00	833	932	11.3	1.0	54	2
2023-09-25T00:00	849	930	11.2	0.9	44	2
2023-09-25T00:00	869	928	10.9	2.8	31	2
2023-09-25T00:00	888	926	10.8	2.0	17	2
2023-09-25T00:00	908	924	10.7	1.2	8	1
2023-09-25T00:00	925	922	10.6	0.4	120	0
2023-09-25T00:00	943	920	10.4	0.1	144	1
2023-09-25T00:00	968	917	10.2	0.3	139	2
2023-09-25T00:00	1002	914	9.9	0.0	134	3
2023-09-25T00:00	1029	911	9.7	0.1	131	3
2023-09-25T00:00	1049	908	9.5	-0.2	131	3
2023-09-25T00:00	1076	905	9.4	-0.7	134	3
2023-09-25T00:00	1103	902	9.2	-0.8	139	3
2023-09-25T00:00	1133	899	9.0	-1.0	145	3
2023-09-25T00:00	1157	896	8.9	-0.8	148	3
2023-09-25T00:00	1186	893	8.6	-0.8	148	3
2023-09-25T00:00	1208	891	8.5	-0.5	148	3
2023-09-25T00:00	1237	888	8.5	-0.7	148	4
2023-09-25T00:00	1263	885	8.3	-1.1	149	5
2023-09-25T00:00	1294	882	8.2	-1.7	150	5
2023-09-25T00:00	1325	879	8.0	-2.4	150	6
2023-09-25T00:00	1342	876	7.9	-2.9	150	7
2023-09-25T00:00	1368	874	7.8	-3.4	149	7
2023-09-25T00:00	1396	871	7.6	-3.6	149	8
2023-09-25T00:00	1423	868	7.4	-3.7	149	8
2023-09-25T00:00	1449	865	7.2	-3.7	149	8
2023-09-25T00:00	1477	862	7.0	-3.8	150	8
2023-09-25T00:00	1503	860	6.8	-4.0	151	7
2023-09-25T00:00	1527	857	6.6	-4.2	153	7
2023-09-25T00:00	1557	854	6.3	-4.8	156	6
2023-09-25T00:00	1575	852	6.2	-4.2	157	6
2023-09-25T00:00	1595	850	6.0	-3.7	157	6
2023-09-25T00:00	1621	847	5.8	-3.7	155	5
2023-09-25T00:00	1649	844	5.6	-4.1	152	6
2023-09-25T00:00	1674	842	5.4	-4.6	149	6
2023-09-25T00:00	1698	839	5.4	-5.8	147	6
2023-09-25T00:00	1724	837	5.3	-6.0	147	6
2023-09-25T00:00	1750	834	5.0	-5.4	147	6
2023-09-25T00:00	1776	831	4.9	-5.3	148	6
2023-09-25T00:00	1801	829	4.8	-5.4	149	6
2023-09-25T00:00	1830	826	4.7	-5.9	151	6
2023-09-25T00:00	1859	823	4.5	-6.1	154	6
2023-09-25T00:00	1886	820	4.6	-6.9	158	6
2023-09-25T00:00	1910	818	5.0	-9.9	163	6
2023-09-25T00:00	1940	815	5.2		169	5
2023-09-25T00:00	1961	813	5.3	-10.2	173	4
2023-09-25T00:00	1981	811	5.4	-13.6	173	4
2023-09-25T00:00	2008	808	5.6	-15.7	165	3
2023-09-25T00:00	2037	805	5.7		146	3
2023-09-25T00:00	2055	803	5.7	-19.2	128	3
2023-09-25T00:00	2075	801	5.7	-19.7	120	4
2023-09-25T00:00	2093	800	5.9	-18.6	120	4
2023-09-25T00:00	2112	798	5.9	-16.7	125	5
2023-09-25T00:00	2129	796	5.7	-15.5	135	5
2023-09-25T00:00	2150	794	5.7	-16.3	150	4
2023-09-25T00:00	2169	792	5.6	-16.4	166	4
2023-09-25T00:00	2190	790	5.5	-17.5	180	4
2023-09-25T00:00	2207	789	5.6	-19.4	189	4
2023-09-25T00:00	2227	787	5.8	-22.4	192	4
2023-09-25T00:00	2246	785	6.0	-24.2	191	4
2023-09-25T00:00	2264	783	6.0	-27.2	186	4
2023-09-25T00:00	2282	781	5.9	-26.1	176	3
2023-09-25T00:00	2313	779	5.8	-27.7	157	2
2023-09-25T00:00	2334	776	5.7	-26.1	124	1
2023-09-25T00:00	2351	775	5.7	-29.7	101	1
2023-09-25T00:00	2378	772	5.6	-33.5	98	2
2023-09-25T00:00	2402	770	5.5	-33.5	103	2
2023-09-25T00:00	2425	768	5.4	-32.7	110	2
2023-09-25T00:00	2448	766	5.3	-32.4	113	1
2023-09-25T00:00	2472	763	5.1	-32.3	112	1
2023-09-25T00:00	2491	762	5.0	-32.4	105	1
2023-09-25T00:00	2513	759	4.9	-32.4	81	0
2023-09-25T00:00	2541	757	4.7	-32.6	17	0
2023-09-25T00:00	2569	754	4.6	-32.6	18	0
2023-09-25T00:00	2592	752	4.6	-33.5	59	0
2023-09-25T00:00	2611	750	4.6	-33.8	97	1
2023-09-25T00:00	2644	747	4.4	-34.6	117	1
2023-09-25T00:00	2673	745	4.7	-34.0	131	1
2023-09-25T00:00	2703	742	4.8	-29.0	140	2
2023-09-25T00:00	2734	739	4.5	-22.5	144	2
2023-09-25T00:00	2762	737	4.3	-25.2	143	2
2023-09-25T00:00	2791	734	4.1	-25.2	137	2
2023-09-25T00:00	2821	732	3.9	-23.1	128	3
2023-09-25T00:00	2840	729	3.8	-22.4	120	3
2023-09-25T00:00	2862	727	3.6	-22.5	117	3
2023-09-25T00:00	2891	725	3.6	-29.2	118	2
2023-09-25T00:00	2919	723	3.6	-30.6	125	2
2023-09-25T00:00	2948	720	3.3	-24.5	134	2
2023-09-25T00:00	2978	717	3.3	-24.4	141	2
2023-09-25T00:00	3005	715	3.1	-24.0	141	2
2023-09-25T00:00	3030	713	3.0	-24.3	137	1
2023-09-25T00:00	3048	711	3.0	-25.1	137	1
2023-09-25T00:00	3066	709	3.0	-26.1	147	1
2023-09-25T00:00	3094	707	2.9	-27.9	161	1
2023-09-25T00:00	3122	705	3.0	-31.3	168	1
2023-09-25T00:00	3153	702	3.0	-30.2	167	2
2023-09-25T00:00	3185	699	3.1	-30.4	160	2
2023-09-25T00:00	3220	696	2.8	-30.4	151	2
2023-09-25T00:00	3248	694	2.5	-30.6	140	2
2023-09-25T00:00	3270	692	2.3	-30.9	129	2
2023-09-25T00:00	3300	689	2.1	-31.0	125	2
2023-09-25T00:00	3330	687	1.9	-31.2	128	2
2023-09-25T00:00	3349	685	1.7	-31.3	135	2
2023-09-25T00:00	3376	683	1.5	-31.2	141	3
2023-09-25T00:00	3398	681	1.4	-31.3	144	3
2023-09-25T00:00	3424	679	1.1	-32.1	143	3
2023-09-25T00:00	3450	677	1.0	-33.0	139	3
2023-09-25T00:00	3476	674	0.7	-33.5	136	3
2023-09-25T00:00	3493	673	0.6	-34.0	137	3
2023-09-25T00:00	3515	671	0.5	-36.8	142	2
2023-09-25T00:00	3542	669	0.4	-37.2	149	2
2023-09-25T00:00	3565	667	0.3	-37.2	152	2
2023-09-25T00:00	3589	665	0.2	-37.6	149	2
2023-09-25T00:00	3611	663	0.1	-37.4	141	2
2023-09-25T00:00	3643	661	0.0	-36.8	133	3
2023-09-25T00:00	3665	659	-0.1	-36.6	127	3
2023-09-25T00:00	3688	657	-0.2	-37.0	122	3
2023-09-25T00:00	3715	654	-0.3		119	3
2023-09-25T00:00	3741	652	-0.1	-39.7	116	2
2023-09-25T00:00	3762	651	-0.2	-40.2	114	2
2023-09-25T00:00	3792	648	-0.2	-40.6	112	2
2023-09-25T00:00	3825	646	-0.4	-40.3	111	2
2023-09-25T00:00	3843	644	-0.4	-41.2	111	2
2023-09-25T00:00	3875	642	-0.4	-41.7	110	2
2023-09-25T00:00	3904	639	-0.6	-41.3	109	3
2023-09-25T00:00	3930	637	-0.8	-40.2	106	3
2023-09-25T00:00	3956	635	-1.0	-39.6	102	3
2023-09-25T00:00	3981	633	-1.1	-37.6	96	3
2023-09-25T00:00	4012	631	-1.2	-36.3	88	3
2023-09-25T00:00	4034	629	-1.3	-35.4	78	3
2023-09-25T00:00	4062	627	-1.5	-35.6	66	3
2023-09-25T00:00	4081	625	-1.6	-35.6	56	3
2023-09-25T00:00	4106	623	-1.8	-36.0	49	3
2023-09-25T00:00	4130	621	-1.9	-35.4	43	3
2023-09-25T00:00	4152	620	-2.1	-35.6	39	3
2023-09-25T00:00	4168	618	-2.2	-35.9	36	3
2023-09-25T00:00	4189	617	-2.4	-36.2	34	3
2023-09-25T00:00	4210	615	-2.5	-36.6	33	3
2023-09-25T00:00	4240	613	-2.7	-36.5	35	3
2023-09-25T00:00	4262	611	-2.7	-37.2	38	3
2023-09-25T00:00	4282	609	-2.8	-37.5	41	3
2023-09-25T00:00	4303	608	-2.7	-37.7	42	2
2023-09-25T00:00	4321	606	-2.6	-38.5	39	2
2023-09-25T00:00	4349	604	-2.4	-39.9	34	2
2023-09-25T00:00	4380	602	-2.5	-40.7	35	2
2023-09-25T00:00	4409	600	-2.5	-41.0	42	2
2023-09-25T00:00	4437	598	-2.4	-42.6	51	2
2023-09-25T00:00	4455	596	-2.3	-43.5	57	3
2023-09-25T00:00	4475	595	-2.2	-44.0	59	3
2023-09-25T00:00	4506	593	-2.2	-44.0	59	3
2023-09-25T00:00	4530	591	-2.1	-43.9	58	4
2023-09-25T00:00	4552	589	-2.1	-43.9	58	4
2023-09-25T00:00	4582	587	-2.1	-42.9	59	5
2023-09-25T00:00	4609	585	-2.0	-41.5	61	5
2023-09-25T00:00	4630	583	-2.0	-41.1	65	6
2023-09-25T00:00	4652	582	-2.1	-41.1	70	5
2023-09-25T00:00	4671	580	-2.3	-41.3	78	5
2023-09-25T00:00	4702	578	-2.4	-42.2	87	4
2023-09-25T00:00	4731	576	-2.5	-43.2	94	4
2023-09-25T00:00	4756	574	-2.6	-42.3	96	4
2023-09-25T00:00	4772	573	-2.7	-41.6	92	5
2023-09-25T00:00	4797	571	-2.8	-39.8	87	6
2023-09-25T00:00	4831	569	-3.1	-38.8	84	6
2023-09-25T00:00	4850	567	-3.3	-38.4	82	7
2023-09-25T00:00	4868	566	-3.5	-38.3	83	7
2023-09-25T00:00	4893	564	-3.6	-37.4	85	7
2023-09-25T00:00	4913	563	-3.8	-37.1	87	7
2023-09-25T00:00	4948	560	-4.1	-36.2	89	7
2023-09-25T00:00	4974	559	-4.4	-36.1	89	7
2023-09-25T00:00	4992	557	-4.5	-36.0	89	7
2023-09-25T00:00	5010	556	-4.7	-35.7	88	6
2023-09-25T00:00	5028	555	-4.9	-35.5	86	6
2023-09-25T00:00	5055	553	-5.1	-35.5	84	6
2023-09-25T00:00	5079	551	-5.3	-35.3	80	6
2023-09-25T00:00	5101	549	-5.4	-34.9	75	5
2023-09-25T00:00	5134	547	-5.6	-33.0	71	5
2023-09-25T00:00	5161	545	-5.9	-32.3	70	5
2023-09-25T00:00	5185	544	-6.1	-31.8	73	6
2023-09-25T00:00	5213	542	-6.3	-31.7	77	6
2023-09-25T00:00	5234	540	-6.5	-31.7	80	7
2023-09-25T00:00	5257	539	-6.7	-31.8	82	7
2023-09-25T00:00	5281	537	-6.9	-31.8	82	7
2023-09-25T00:00	5297	536	-7.1	-31.9	80	7
2023-09-25T00:00	5318	534	-7.3	-31.9	78	7
2023-09-25T00:00	5344	533	-7.5	-31.9	77	7
2023-09-25T00:00	5380	530	-7.8	-31.9	76	7
2023-09-25T00:00	5411	528	-8.1	-31.8	78	7
2023-09-25T00:00	5433	527	-8.3	-31.7	80	7
2023-09-25T00:00	5460	525	-8.5	-31.7	82	7
2023-09-25T00:00	5494	523	-8.9	-31.9	83	7
2023-09-25T00:00	5509	521	-9.0	-31.9	82	7
2023-09-25T00:00	5530	520	-9.2	-32.0	79	7
2023-09-25T00:00	5550	519	-9.4	-32.1	76	7
2023-09-25T00:00	5573	517	-9.7	-32.1	72	6
2023-09-25T00:00	5598	515	-9.9	-32.3	69	6
2023-09-25T00:00	5632	513	-10.2	-32.5	67	6
2023-09-25T00:00	5660	511	-10.5	-32.6	66	5
2023-09-25T00:00	5680	510	-10.7	-32.8	66	5
2023-09-25T00:00	5703	509	-10.9	-32.7	67	5
2023-09-25T00:00	5726	507	-11.1	-32.7	70	4
2023-09-25T00:00	5757	505	-11.4	-32.8	74	4
2023-09-25T00:00	5780	504	-11.7	-32.9	77	4
2023-09-25T00:00	5802	502	-11.9	-33.2	79	4
2023-09-25T00:00	5825	500	-12.1	-33.4	78	5
2023-09-25T00:00	5852	499	-12.3	-34.5	76	5
2023-09-25T00:00	5873	497	-12.5	-35.5	73	5
2023-09-25T00:00	5898	496	-12.7	-37.1	70	5
2023-09-25T00:00	5928	494	-12.9	-38.3	69	5
2023-09-25T00:00	5951	492	-13.0	-38.5	68	5
2023-09-25T00:00	5988	490	-13.2	-39.2	68	5
2023-09-25T00:00	6016	488	-13.3	-37.1	68	5
2023-09-25T00:00	6033	487	-13.4	-36.4	68	5
2023-09-25T00:00	6051	486	-13.6	-35.9	69	5
2023-09-25T00:00	6070	485	-13.8	-35.6	70	5
2023-09-25T00:00	6089	483	-13.9	-35.6	70	5
2023-09-25T00:00	6109	482	-14.1	-35.8	70	5
2023-09-25T00:00	6127	481	-14.3	-36.0	68	5
2023-09-25T00:00	6145	480	-14.5	-36.1	66	5
2023-09-25T00:00	6161	479	-14.6	-36.1	65	5
2023-09-25T00:00	6179	478	-14.8	-36.2	63	5
2023-09-25T00:00	6196	477	-15.0	-36.2	62	5
2023-09-25T00:00	6214	475	-15.1	-36.3	61	5
2023-09-25T00:00	6233	474	-15.3	-36.5	60	5
2023-09-25T00:00	6254	473	-15.5	-37.4	58	5
2023-09-25T00:00	6279	471	-15.6	-40.7	53	4
2023-09-25T00:00	6310	469	-15.9	-40.2	47	4
2023-09-25T00:00	6345	467	-16.2	-40.0	40	4
2023-09-25T00:00	6378	465	-16.5	-39.5	35	4
2023-09-25T00:00	6400	464	-16.7	-36.9	33	5
2023-09-25T00:00	6423	463	-16.6	-35.8	36	5
2023-09-25T00:00	6444	461	-16.6	-38.7	40	5
2023-09-25T00:00	6471	460	-16.6	-42.7	46	6
2023-09-25T00:00	6503	458	-16.3	-50.6	51	6
2023-09-25T00:00	6528	456	-16.2	-49.6	55	6
2023-09-25T00:00	6562	454	-16.5	-49.8	57	6
2023-09-25T00:00	6578	453	-16.6	-49.9	58	6
2023-09-25T00:00	6598	452	-16.7	-50.0	58	6
2023-09-25T00:00	6617	451	-16.7	-50.0	59	6
2023-09-25T00:00	6636	450	-16.9	-49.3	59	6
2023-09-25T00:00	6659	448	-17.1	-47.4	59	7
2023-09-25T00:00	6685	447	-17.3	-45.3	58	7
2023-09-25T00:00	6710	445	-17.5	-44.4	56	6
2023-09-25T00:00	6743	443	-17.8	-44.7	54	6
2023-09-25T00:00	6780	441	-18.2	-44.3	53	6
2023-09-25T00:00	6800	440	-18.4	-44.6	53	6
2023-09-25T00:00	6819	439	-18.5	-44.3	54	6
2023-09-25T00:00	6835	438	-18.6	-44.5	56	6
2023-09-25T00:00	6852	437	-18.7	-44.6	58	6
2023-09-25T00:00	6870	436	-18.9	-44.5	59	6
2023-09-25T00:00	6888	435	-19.0	-44.9	59	5
2023-09-25T00:00	6904	434	-19.1	-45.0	59	5
2023-09-25T00:00	6923	433	-19.1	-44.6	59	5
2023-09-25T00:00	6942	432	-19.3	-45.0	59	5
2023-09-25T00:00	6963	430	-19.5	-45.3	60	5
2023-09-25T00:00	6985	429	-19.7	-45.9	61	5
2023-09-25T00:00	7005	428	-19.9	-45.8	61	5
2023-09-25T00:00	7033	426	-20.1	-44.9	60	5
2023-09-25T00:00	7063	425	-20.4	-44.9	57	6
2023-09-25T00:00	7092	423	-20.7	-44.8	53	6
2023-09-25T00:00	7119	421	-20.9	-44.6	50	6
2023-09-25T00:00	7153	420	-21.2	-44.8	49	7
2023-09-25T00:00	7176	418	-21.5	-45.2	49	6
2023-09-25T00:00	7204	416	-21.7	-45.6	51	6
2023-09-25T00:00	7236	415	-21.8	-46.2	53	5
2023-09-25T00:00	7268	413	-22.1	-45.9	56	5
2023-09-25T00:00	7304	411	-22.4	-45.8	57	4
2023-09-25T00:00	7343	409	-22.7	-46.2	55	4
2023-09-25T00:00	7362	408	-22.9	-46.3	50	4
2023-09-25T00:00	7379	407	-23.1	-46.6	44	4
2023-09-25T00:00	7411	405	-23.3	-47.5	39	5
2023-09-25T00:00	7432	404	-23.5	-48.1	35	5
2023-09-25T00:00	7449	403	-23.5	-49.0	31	5
2023-09-25T00:00	7466	402	-23.6	-48.9	28	5
2023-09-25T00:00	7485	401	-23.8	-48.7	26	5
2023-09-25T00:00	7505	400	-23.9	-49.3	24	5
2023-09-25T00:00	7524	399	-24.1	-49.8	23	5
2023-09-25T00:00	7542	398	-24.2	-50.2	22	5
2023-09-25T00:00	7560	397	-24.3	-50.6	21	6
2023-09-25T00:00	7579	396	-24.5	-51.0	19	6
2023-09-25T00:00	7599	395	-24.6	-51.1	18	6
2023-09-25T00:00	7621	393	-24.7	-51.4	17	6
2023-09-25T00:00	7652	392	-24.9	-51.7	17	7
2023-09-25T00:00	7685	390	-25.0	-52.6	17	7
2023-09-25T00:00	7713	388	-25.0	-53.0	17	8
2023-09-25T00:00	7742	387	-25.2	-53.3	16	9
2023-09-25T00:00	7769	386	-25.2	-54.7	15	10
2023-09-25T00:00	7795	384	-25.3	-54.8	13	10
2023-09-25T00:00	7822	383	-25.4	-54.9	11	10
2023-09-25T00:00	7846	381	-25.6	-55.0	9	10
2023-09-25T00:00	7869	380	-25.7	-55.1	8	10
2023-09-25T00:00	7896	379	-25.9	-55.1	8	11
2023-09-25T00:00	7923	377	-26.1	-55.0	8	11
2023-09-25T00:00	7950	376	-26.3	-54.7	10	11
2023-09-25T00:00	7981	374	-26.4	-54.6	12	12
2023-09-25T00:00	8012	373	-26.6	-55.0	14	12
2023-09-25T00:00	8044	371	-26.7	-55.5	16	12
2023-09-25T00:00	8073	370	-26.9	-55.6	18	12
2023-09-25T00:00	8105	368	-26.9	-55.2	19	12
2023-09-25T00:00	8136	366	-27.1	-54.8	20	12
2023-09-25T00:00	8167	365	-27.2	-55.1	21	12
2023-09-25T00:00	8198	363	-27.3	-55.1	22	12
2023-09-25T00:00	8229	362	-27.5		25	12
2023-09-25T00:00	8259	360	-27.6	-53.8	28	12
2023-09-25T00:00	8283	359	-27.8	-54.0	33	12
2023-09-25T00:00	8321	357	-27.7	-52.5	38	12
2023-09-25T00:00	8352	356	-27.6	-51.1	43	12
2023-09-25T00:00	8372	355	-27.8	-51.2	48	12
2023-09-25T00:00	8402	353	-28.0	-51.1	52	12
2023-09-25T00:00	8427	352	-28.3	-51.2	54	12
2023-09-25T00:00	8457	350	-28.5	-51.1	55	12
2023-09-25T00:00	8487	349	-28.8	-51.2	55	12
2023-09-25T00:00	8504	348	-29.0	-51.3	56	13
2023-09-25T00:00	8534	347	-29.3	-51.1	56	13
2023-09-25T00:00	8554	346	-29.4	-50.9	56	13
2023-09-25T00:00	8575	345	-29.6	-51.0	57	14
2023-09-25T00:00	8598	344	-29.8	-50.9	57	14
2023-09-25T00:00	8629	342	-30.0	-51.1	58	15
2023-09-25T00:00	8657	341	-30.1	-51.4	58	15
2023-09-25T00:00	8670	340	-30.2	-51.5	58	15
2023-09-25T00:00	8685	339	-30.1	-51.7	58	15
2023-09-25T00:00	8702	339	-30.2	-51.9	58	15
2023-09-25T00:00	8718	338	-30.3	-51.7	58	15
2023-09-25T00:00	8735	337	-30.4	-51.7	58	15
2023-09-25T00:00	8751	336	-30.5	-51.6	57	15
2023-09-25T00:00	8766	335	-30.6	-51.5	56	16
2023-09-25T00:00	8784	335	-30.8	-51.5	55	16
2023-09-25T00:00	8803	334	-31.0	-51.4	54	16
2023-09-25T00:00	8822	333	-31.1	-51.1	53	16
2023-09-25T00:00	8841	332	-31.3	-51.1	52	16
2023-09-25T00:00	8859	331	-31.5	-51.1	51	16
2023-09-25T00:00	8881	330	-31.7	-50.9	50	16
2023-09-25T00:00	8903	329	-31.8	-50.7	50	16
2023-09-25T00:00	8926	328	-32.0	-50.5	50	16
2023-09-25T00:00	8956	327	-32.3	-50.6	50	16
2023-09-25T00:00	8985	325	-32.6	-50.6	50	16
2023-09-25T00:00	9016	324	-32.9	-50.3	49	16
2023-09-25T00:00	9038	323	-33.1	-50.0	48	17
2023-09-25T00:00	9060	322	-33.1	-50.1	48	17
2023-09-25T00:00	9079	321	-33.3	-50.1	48	17
2023-09-25T00:00	9099	320	-33.5		47	17
2023-09-25T00:00	9121	319	-33.6	-50.6	46	17
2023-09-25T00:00	9141	318	-33.8	-50.9	45	17
2023-09-25T00:00	9165	317	-34.0	-51.0	44	17
2023-09-25T00:00	9188	316	-34.2	-51.3	43	17
2023-09-25T00:00	9211	315	-34.4	-51.7	42	17
2023-09-25T00:00	9231	314	-34.5	-52.0	41	17
2023-09-25T00:00	9252	313	-34.7	-52.1	40	17
2023-09-25T00:00	9276	312	-34.9	-52.1	40	18
2023-09-25T00:00	9299	311	-35.1	-52.1	39	18
2023-09-25T00:00	9321	310	-35.3	-52.2	39	18
2023-09-25T00:00	9346	309	-35.6	-52.4	38	17
2023-09-25T00:00	9368	308	-35.8	-52.5	38	17
2023-09-25T00:00	9390	307	-36.0	-52.8	37	17
2023-09-25T00:00	9415	306	-36.2	-52.8	37	17
2023-09-25T00:00	9438	305	-36.4	-52.7	37	17
2023-09-25T00:00	9461	304	-36.6	-52.7	37	17
2023-09-25T00:00	9482	303	-36.8	-53.2	37	17
2023-09-25T00:00	9501	302	-36.9	-53.3	37	17
2023-09-25T00:00	9520	301	-37.1	-53.5	37	17
2023-09-25T00:00	9539	300	-37.2	-53.3	37	17
2023-09-25T00:00	9560	300	-37.4	-53.7	37	17
2023-09-25T00:00	9579	299	-37.6	-53.8	37	18
2023-09-25T00:00	9597	298	-37.7	-53.8	37	18
2023-09-25T00:00	9616	297	-37.9	-53.7	37	17
2023-09-25T00:00	9634	296	-38.1	-53.6	36	17
2023-09-25T00:00	9655	295	-38.2	-53.7	34	17
2023-09-25T00:00	9676	294	-38.3	-53.5	33	17
2023-09-25T00:00	9717	293	-38.6	-53.4	32	16
2023-09-25T00:00	9736	292	-38.8	-53.7	32	16
2023-09-25T00:00	9756	291	-39.0	-53.8	32	17
2023-09-25T00:00	9784	290	-39.3	-53.4	32	17
2023-09-25T00:00	9807	289	-39.5	-53.8	32	17
2023-09-25T00:00	9828	288	-39.7	-54.0	31	18
2023-09-25T00:00	9849	287	-39.9	-53.5	30	18
2023-09-25T00:00	9883	286	-40.2	-53.6	28	18
2023-09-25T00:00	9902	285	-40.4	-53.9	27	18
2023-09-25T00:00	9925	284	-40.6	-53.9	27	18
2023-09-25T00:00	9948	283	-40.9	-53.6	26	18
2023-09-25T00:00	9980	282	-41.1	-53.4	26	18
2023-09-25T00:00	10000	281	-41.4	-53.8	26	18
2023-09-25T00:00	10024	280	-41.6	-53.6	26	18
2023-09-25T00:00	10047	279	-41.8	-53.4	26	18
2023-09-25T00:00	10069	278	-42.0	-53.3	26	19
2023-09-25T00:00	10091	277	-42.2	-53.2	25	19
2023-09-25T00:00	10112	276	-42.4	-53.2	24	19
2023-09-25T00:00	10132	275	-42.5	-53.1	24	19
2023-09-25T00:00	10152	275	-42.7	-53.0	23	19
2023-09-25T00:00	10174	274	-42.9	-53.1	22	19
2023-09-25T00:00	10193	273	-43.1	-53.2	22	19
2023-09-25T00:00	10217	272	-43.3	-52.8	21	19
2023-09-25T00:00	10240	271	-43.4	-52.5	21	19
2023-09-25T00:00	10260	270	-43.6	-53.0	21	19
2023-09-25T00:00	10279	270	-43.6	-53.7	21	19
2023-09-25T00:00	10296	269	-43.7	-53.7	21	19
2023-09-25T00:00	10315	268	-43.9	-53.8	22	19
2023-09-25T00:00	10333	267	-43.9	-53.1	24	19
2023-09-25T00:00	10353	267	-43.9	-53.5	25	19
2023-09-25T00:00	10372	266	-43.8	-55.2	26	19
2023-09-25T00:00	10391	265	-43.9	-55.3	26	19
2023-09-25T00:00	10410	264	-44.0	-55.1	26	19
2023-09-25T00:00	10429	264	-44.2	-54.9	25	19
2023-09-25T00:00	10449	263	-44.4	-54.9	24	19
2023-09-25T00:00	10466	262	-44.4	-55.1	23	19
2023-09-25T00:00	10483	261	-44.4	-55.6	22	19
2023-09-25T00:00	10501	261	-44.3	-55.9	22	19
2023-09-25T00:00	10518	260	-44.4	-56.0	21	19
2023-09-25T00:00	10538	259	-44.5	-54.6	20	19
2023-09-25T00:00	10553	259	-44.6	-53.3	19	20
2023-09-25T00:00	10571	258	-44.6	-53.9	18	20
2023-09-25T00:00	10586	257	-44.6	-55.1	18	20
2023-09-25T00:00	10605	257	-44.6	-55.1	17	20
2023-09-25T00:00	10625	256	-44.7	-55.4	16	20
2023-09-25T00:00	10643	255	-44.8	-56.2	16	20
2023-09-25T00:00	10662	255	-44.9	-57.1	16	20
2023-09-25T00:00	10680	254	-45.1	-57.3	16	19
2023-09-25T00:00	10699	253	-45.3	-57.2	16	19
2023-09-25T00:00	10719	252	-45.5	-57.4	16	19
2023-09-25T00:00	10739	252	-45.7	-57.5	17	19
2023-09-25T00:00	10758	251	-45.9	-57.4	17	19
2023-09-25T00:00	10777	250	-46.0	-57.5	17	19
2023-09-25T00:00	10794	250	-46.2	-57.9	17	19
2023-09-25T00:00	10811	249	-46.4	-57.9	17	19
2023-09-25T00:00	10831	248	-46.6	-57.9	17	19
2023-09-25T00:00	10849	248	-46.7	-58.0	17	19
2023-09-25T00:00	10867	247	-46.9		17	19
2023-09-25T00:00	10884	246	-47.1	-58.3	17	19
2023-09-25T00:00	10902	246	-47.3	-58.6	17	19
2023-09-25T00:00	10921	245	-47.4	-58.6	17	19
2023-09-25T00:00	10938	244	-47.6	-58.7	18	19
2023-09-25T00:00	10956	244	-47.8	-58.7	18	19
2023-09-25T00:00	10972	243	-47.9	-58.6	18	19
2023-09-25T00:00	10991	242	-48.1	-58.7	18	19
2023-09-25T00:00	11008	242	-48.2	-58.5	19	19
2023-09-25T00:00	11027	241	-48.4	-58.4	19	19
2023-09-25T00:00	11045	240	-48.6	-58.3	19	19
2023-09-25T00:00	11062	240	-48.7	-58.2	20	19
2023-09-25T00:00	11081	239	-48.9	-58.0	20	19
2023-09-25T00:00	11097	238	-49.0	-58.3	21	19
2023-09-25T00:00	11117	238	-49.1	-59.3	22	19
2023-09-25T00:00	11134	237	-49.1	-60.6	22	19
2023-09-25T00:00	11153	236	-49.2	-61.5	22	19
2023-09-25T00:00	11170	236	-49.3	-61.6	22	19
2023-09-25T00:00	11190	235	-49.5	-61.4	22	19
2023-09-25T00:00	11210	234	-49.6	-61.3	22	19
2023-09-25T00:00	11227	234	-49.7	-61.3	22	19
2023-09-25T00:00	11247	233	-49.9	-61.4	21	19
2023-09-25T00:00	11265	232	-50.0	-61.4	21	19
2023-09-25T00:00	11283	232	-50.1	-61.3	20	19
2023-09-25T00:00	11304	231	-50.3	-61.2	19	19
2023-09-25T00:00	11321	230	-50.5	-61.3	18	19
2023-09-25T00:00	11340	230	-50.6	-61.5	18	19
2023-09-25T00:00	11361	229	-50.7	-61.8	18	19
2023-09-25T00:00	11379	228	-50.8	-62.0	18	19
2023-09-25T00:00	11399	228	-50.9	-62.0	18	19
2023-09-25T00:00	11419	227	-51.1	-61.9	17	19
2023-09-25T00:00	11436	226	-51.2	-61.8	17	19
2023-09-25T00:00	11457	226	-51.4	-61.8	17	19
2023-09-25T00:00	11478	225	-51.6	-61.9	16	19
2023-09-25T00:00	11496	224	-51.8	-62.0	16	19
2023-09-25T00:00	11516	224	-51.9	-62.2	15	19
2023-09-25T00:00	11537	223	-52.0	-62.6	14	19
2023-09-25T00:00	11554	222	-52.1	-63.0	13	19
2023-09-25T00:00	11574	222	-52.1	-63.0	12	20
2023-09-25T00:00	11596	221	-52.2	-62.8	11	20
2023-09-25T00:00	11614	220	-52.2	-62.5	10	20
2023-09-25T00:00	11634	220	-52.3	-62.7	9	21
2023-09-25T00:00	11656	219	-52.4	-62.9	8	21
2023-09-25T00:00	11676	218	-52.5	-63.1	6	21
2023-09-25T00:00	11696	217	-52.7	-63.6	4	22
2023-09-25T00:00	11719	217	-52.7	-64.0	2	22
2023-09-25T00:00	11741	216	-52.7	-64.5	0	22
2023-09-25T00:00	11767	215	-52.8	-64.8	359	23
2023-09-25T00:00	11789	214	-53.0	-65.1	357	23
2023-09-25T00:00	11810	214	-53.1	-65.3	356	23
2023-09-25T00:00	11826	213	-53.0	-65.4	355	23
2023-09-25T00:00	11847	212	-53.1	-65.4	354	24
2023-09-25T00:00	11868	212	-53.2	-65.4	353	24
2023-09-25T00:00	11887	211	-53.4	-65.7	352	24
2023-09-25T00:00	11905	210	-53.5	-65.8	351	24
2023-09-25T00:00	11926	210	-53.6	-65.9	351	25
2023-09-25T00:00	11948	209	-53.8	-65.9	351	25
2023-09-25T00:00	11966	209	-53.9	-65.8	352	25
2023-09-25T00:00	11985	208	-53.9	-65.8	353	25
2023-09-25T00:00	12008	207	-53.9	-66.1	355	25
2023-09-25T00:00	12029	206	-53.7	-66.3	356	25
2023-09-25T00:00	12050	206	-53.8	-66.7	357	25
2023-09-25T00:00	12068	205	-53.9	-66.8	358	25
2023-09-25T00:00	12090	205	-54.0	-66.8	359	25
2023-09-25T00:00	12110	204	-54.2	-66.8	360	25
2023-09-25T00:00	12132	203	-54.4	-66.9	0	25
2023-09-25T00:00	12152	203	-54.6	-66.9	1	24
2023-09-25T00:00	12174	202	-54.7	-66.8	2	24
2023-09-25T00:00	12195	201	-54.9	-66.8	3	24
2023-09-25T00:00	12212	201	-55.1	-66.9	4	24
2023-09-25T00:00	12235	200	-55.3	-67.0	4	24
2023-09-25T00:00	12259	199	-55.4	-67.2	5	23
2023-09-25T00:00	12280	199	-55.5	-67.4	5	23
2023-09-25T00:00	12299	198	-55.6	-67.7	6	23
2023-09-25T00:00	12321	197	-55.8	-67.8	7	22
2023-09-25T00:00	12341	197	-55.9	-67.8	8	22
2023-09-25T00:00	12362	196	-56.0	-67.8	8	21
2023-09-25T00:00	12382	195	-56.1	-67.9	9	21
2023-09-25T00:00	12400	195	-56.2	-68.0	9	21
2023-09-25T00:00	12421	194	-56.4	-68.3	9	21
2023-09-25T00:00	12443	194	-56.6	-68.4	9	20
2023-09-25T00:00	12464	193	-56.8	-68.4	9	20
2023-09-25T00:00	12487	192	-56.9	-68.4	9	20
2023-09-25T00:00	12507	192	-57.1	-68.5	8	20
2023-09-25T00:00	12530	191	-57.3	-68.6	8	20
2023-09-25T00:00	12553	190	-57.5	-68.6	7	20
2023-09-25T00:00	12574	190	-57.7	-68.7	7	19
2023-09-25T00:00	12596	189	-57.9	-68.8	7	19
2023-09-25T00:00	12618	188	-58.1	-69.1	7	19
2023-09-25T00:00	12637	188	-58.3	-69.3	7	19
2023-09-25T00:00	12657	187	-58.4	-69.5	6	18
2023-09-25T00:00	12677	186	-58.5	-69.6	6	18
2023-09-25T00:00	12698	186	-58.7	-69.8	5	17
2023-09-25T00:00	12715	185	-58.7	-69.9	4	17
2023-09-25T00:00	12735	185	-58.8	-70.1	3	17
2023-09-25T00:00	12757	184	-58.9	-70.2	1	17
2023-09-25T00:00	12782	183	-59.0	-70.3	359	17
2023-09-25T00:00	12802	183	-59.1	-70.5	357	17
2023-09-25T00:00	12823	182	-59.1	-70.6	355	17
2023-09-25T00:00	12844	182	-59.2	-70.8	353	17
2023-09-25T00:00	12866	181	-59.3	-70.9	351	17
2023-09-25T00:00	12888	180	-59.4	-71.0	350	18
2023-09-25T00:00	12909	180	-59.5	-71.1	348	18
2023-09-25T00:00	12929	179	-59.6	-71.3	346	18
2023-09-25T00:00	12950	179	-59.6	-71.4	345	19
2023-09-25T00:00	12971	178	-59.6	-71.6	345	19
2023-09-25T00:00	12991	177	-59.6	-71.7	345	19
2023-09-25T00:00	13012	177	-59.6	-71.8	345	20
2023-09-25T00:00	13030	176	-59.6		346	20
2023-09-25T00:00	13051	176	-59.6	-72.0	347	20
2023-09-25T00:00	13071	175	-59.6	-72.0	348	20
2023-09-25T00:00	13089	175	-59.8	-72.1	349	20
2023-09-25T00:00	13111	174	-59.9	-72.1	349	20
2023-09-25T00:00	13132	173	-60.0	-72.1	349	21
2023-09-25T00:00	13150	173	-59.9	-71.9	349	21
2023-09-25T00:00	13171	172	-60.0	-71.9	349	21
2023-09-25T00:00	13191	172	-60.0	-71.9	349	21
2023-09-25T00:00	13208	171	-60.1	-72.0	349	21
2023-09-25T00:00	13228	171	-60.2	-72.1	349	21
2023-09-25T00:00	13247	170	-60.2	-72.3	350	21
2023-09-25T00:00	13266	170	-60.3	-72.5	350	21
2023-09-25T00:00	13285	169	-60.4	-72.9	350	21
2023-09-25T00:00	13304	169	-60.3	-73.3	350	21
2023-09-25T00:00	13327	168	-60.3	-73.8	349	22
2023-09-25T00:00	13348	168	-59.9	-74.2	347	22
2023-09-25T00:00	13368	167	-59.6	-74.8	346	22
2023-09-25T00:00	13389	166	-59.5	-75.4	345	23
2023-09-25T00:00	13411	166	-59.5	-76.1	344	23
2023-09-25T00:00	13432	165	-58.9	-76.3	344	23
2023-09-25T00:00	13450	165	-58.5	-76.7	345	23
2023-09-25T00:00	13469	164	-58.6	-77.0	346	23
2023-09-25T00:00	13490	164	-58.7	-77.2	346	22
2023-09-25T00:00	13510	163	-58.7	-77.2	347	22
2023-09-25T00:00	13530	163	-58.4	-77.1	347	22
2023-09-25T00:00	13548	162	-58.4	-77.4	347	22
2023-09-25T00:00	13568	162	-58.3	-77.6	347	21
2023-09-25T00:00	13590	161	-58.3	-77.6	347	21
2023-09-25T00:00	13611	161	-58.4	-77.6	347	21
2023-09-25T00:00	13632	160	-58.5	-77.7	347	20
2023-09-25T00:00	13652	160	-58.6	-77.9	347	20
2023-09-25T00:00	13673	159	-58.8	-78.1	347	20
2023-09-25T00:00	13694	159	-58.9	-78.2	346	20
2023-09-25T00:00	13716	158	-59.1	-78.2	346	20
2023-09-25T00:00	13733	157	-59.3	-78.3	346	20
2023-09-25T00:00	13754	157	-59.5	-78.4	345	20
2023-09-25T00:00	13773	156	-59.6	-78.3	345	20
2023-09-25T00:00	13794	156	-59.8	-78.5	344	20
2023-09-25T00:00	13815	155	-60.0	-78.6	343	20
2023-09-25T00:00	13836	155	-60.1	-78.7	343	20
2023-09-25T00:00	13857	154	-60.1	-78.6	343	20
2023-09-25T00:00	13879	154	-60.2	-78.5	344	20
2023-09-25T00:00	13897	153	-60.3		345	20
2023-09-25T00:00	13916	153	-60.0	-78.2	346	20
2023-09-25T00:00	13940	152	-59.9	-77.9	348	20
2023-09-25T00:00	13959	152	-60.0	-78.0	349	20
2023-09-25T00:00	13980	151	-60.2	-78.1	349	19
2023-09-25T00:00	14003	151	-60.3	-78.2	350	19
2023-09-25T00:00	14024	150	-60.5	-78.3	351	19
2023-09-25T00:00	14042	150	-60.6	-78.4	351	19
2023-09-25T00:00	14066	149	-60.8	-78.6	352	18
2023-09-25T00:00	14086	149	-60.8	-78.6	352	18
2023-09-25T00:00	14108	148	-60.9	-78.9	352	18
2023-09-25T00:00	14127	148	-60.9	-79.0	352	17
2023-09-25T00:00	14149	147	-60.9	-79.2	352	17
2023-09-25T00:00	14171	147	-60.7	-79.5	352	16
2023-09-25T00:00	14193	146	-60.2	-79.5	352	16
2023-09-25T00:00	14213	146	-60.1	-79.8	352	15
2023-09-25T00:00	14237	145	-60.2	-80.1	351	15
2023-09-25T00:00	14259	145	-60.4	-80.5	350	14
2023-09-25T00:00	14280	144	-60.6	-80.7	349	14
2023-09-25T00:00	14303	144	-60.8	-80.9	348	14
2023-09-25T00:00	14326	143	-61.0	-81.2	346	14
2023-09-25T00:00	14347	143	-61.0	-81.3	344	14
2023-09-25T00:00	14367	142	-60.6	-81.2	342	15
2023-09-25T00:00	14388	142	-60.6	-81.5	341	15
2023-09-25T00:00	14410	141	-60.6	-81.8	339	16
2023-09-25T00:00	14432	141	-60.3	-81.8	338	16
2023-09-25T00:00	14454	140	-60.0	-81.9	337	17
2023-09-25T00:00	14474	140	-59.9	-82.1	336	17
2023-09-25T00:00	14495	139	-60.0	-82.4	336	17
2023-09-25T00:00	14516	139	-60.1	-82.5	335	18
2023-09-25T00:00	14539	138	-60.0	-82.4	335	18
2023-09-25T00:00	14563	138	-60.0	-82.2	336	18
2023-09-25T00:00	14584	137	-60.2	-82.1	336	18
2023-09-25T00:00	14606	137	-60.4	-81.9	336	18
2023-09-25T00:00	14630	136	-60.6	-81.8	337	18
2023-09-25T00:00	14649	136	-60.7	-81.7	339	18
2023-09-25T00:00	14671	135	-60.8	-81.5	340	18
2023-09-25T00:00	14695	135	-60.9	-81.6	342	17
2023-09-25T00:00	14716	135	-60.7	-81.4	345	17
2023-09-25T00:00	14737	134	-60.7	-81.6	348	16
2023-09-25T00:00	14763	134	-60.7	-81.7	350	15
2023-09-25T00:00	14798	133	-60.8	-82.1	353	14
2023-09-25T00:00	14828	132	-60.6	-82.2	354	13
2023-09-25T00:00	14853	132	-60.7	-82.5	356	13
2023-09-25T00:00	14874	131	-60.8	-82.7	357	12
2023-09-25T00:00	14893	131	-60.9	-82.8	357	11
2023-09-25T00:00	14915	130	-61.0	-82.9	357	11
2023-09-25T00:00	14937	130	-61.2	-82.9	357	11
2023-09-25T00:00	14959	129	-61.3	-82.8	356	10
2023-09-25T00:00	14984	129	-61.5	-83.0	355	10
2023-09-25T00:00	15000	129	-61.7	-83.0	353	10
2023-09-25T00:00	15019	128	-61.8	-82.9	351	10
2023-09-25T00:00	15042	128	-62.0	-83.1	349	10
2023-09-25T00:00	15062	127	-62.1	-83.1	346	10
2023-09-25T00:00	15082	127	-62.2		343	11
2023-09-25T00:00	15102	126	-62.1	-83.0	341	11
2023-09-25T00:00	15123	126	-62.0	-82.9	339	11
2023-09-25T00:00	15142	126	-62.0	-83.1	338	11
2023-09-25T00:00	15163	125	-62.0	-83.2	336	11
2023-09-25T00:00	15184	125	-61.9	-83.4	334	11
2023-09-25T00:00	15202	124	-61.9	-83.6	333	11
2023-09-25T00:00	15221	124	-61.8	-83.7	331	11
2023-09-25T00:00	15242	124	-61.7	-83.6	330	11
2023-09-25T00:00	15263	123	-61.4	-83.4	330	10
2023-09-25T00:00	15283	123	-61.4	-83.4	330	10
2023-09-25T00:00	15301	122	-61.4	-83.5	330	9
2023-09-25T00:00	15320	122	-61.5	-83.4	329	9
2023-09-25T00:00	15341	122	-61.5	-83.4	326	8
2023-09-25T00:00	15359	121	-61.6	-83.5	323	8
2023-09-25T00:00	15381	121	-61.7	-83.6	319	8
2023-09-25T00:00	15403	120	-61.7	-83.6	316	8
2023-09-25T00:00	15424	120	-61.7	-83.4	314	8
2023-09-25T00:00	15442	120	-61.8	-83.5	314	8
2023-09-25T00:00	15464	119	-61.8	-83.7	315	9
2023-09-25T00:00	15482	119	-61.5	-83.6	316	9
2023-09-25T00:00	15501	119	-61.2	-83.5	317	9
2023-09-25T00:00	15522	118	-61.0	-83.6	319	9
2023-09-25T00:00	15544	118	-60.7	-83.5	320	9
2023-09-25T00:00	15563	117	-60.8	-83.6	322	9
2023-09-25T00:00	15585	117	-60.9	-83.5	324	10
2023-09-25T00:00	15608	117	-61.1	-83.6	325	10
2023-09-25T00:00	15628	116	-61.3	-83.8	327	10
2023-09-25T00:00	15648	116	-61.5	-83.8	328	10
2023-09-25T00:00	15668	115	-61.6	-83.7	330	10
2023-09-25T00:00	15688	115	-61.4	-83.5	332	10
2023-09-25T00:00	15709	115	-61.1	-83.3	333	10
2023-09-25T00:00	15732	114	-61.2	-83.4	335	9
2023-09-25T00:00	15755	114	-61.2	-83.4	335	9
2023-09-25T00:00	15774	113	-61.0	-83.4	335	9
2023-09-25T00:00	15798	113	-61.1	-83.5	333	8
2023-09-25T00:00	15819	113	-61.2	-83.4	330	8
2023-09-25T00:00	15842	112	-61.4	-83.5	326	8
2023-09-25T00:00	15865	112	-61.3	-83.4	322	8
2023-09-25T00:00	15889	111	-61.2	-83.4	317	9
2023-09-25T00:00	15910	111	-61.1	-83.3	313	9
2023-09-25T00:00	15932	111	-61.2	-83.5	310	10
2023-09-25T00:00	15959	110	-61.4	-83.7	309	10
2023-09-25T00:00	15981	110	-61.5	-83.8	308	11
2023-09-25T00:00	16003	109	-61.6	-84.0	309	11
2023-09-25T00:00	16026	109	-61.7	-84.1	310	12
2023-09-25T00:00	16047	109	-61.6	-84.0	311	12
2023-09-25T00:00	16071	108	-61.4	-84.1	312	12
2023-09-25T00:00	16091	108	-61.3	-84.2	313	12
2023-09-25T00:00	16114	107	-61.2	-84.5	314	12
2023-09-25T00:00	16134	107	-61.0	-84.5	314	12
2023-09-25T00:00	16158	107	-61.0	-84.8	316	13
2023-09-25T00:00	16180	106	-61.1	-84.8	317	12
2023-09-25T00:00	16201	106	-61.2	-85.2	319	12
2023-09-25T00:00	16223	105	-61.0	-85.0	321	11
2023-09-25T00:00	16252	105	-60.8	-85.1	324	10
2023-09-25T00:00	16281	105	-60.3	-84.9	328	10
2023-09-25T00:00	16307	104	-60.2	-84.8	331	9
2023-09-25T00:00	16330	104	-60.3	-85.2	334	8
2023-09-25T00:00	16367	103	-60.5	-85.1	336	7
2023-09-25T00:00	16393	103	-60.7	-85.2	337	6
2023-09-25T00:00	16430	102	-61.0	-85.2	337	6
2023-09-25T00:00	16449	102	-61.2	-85.4	336	5
2023-09-25T00:00	16473	101	-61.5	-85.4	334	5
2023-09-25T00:00	16494	101	-61.7	-85.3	332	5
2023-09-25T00:00	16515	101	-61.8	-85.4	329	6
2023-09-25T00:00	16537	100	-61.9	-85.5	327	6
2023-09-25T00:00	16556	100	-62.0	-85.6	324	6
2023-09-25T00:00	16576	100	-62.0	-85.8	321	7
2023-09-25T00:00	16598	99	-61.8	-85.9	320	7
2023-09-25T00:00	16621	99	-61.7	-85.8	319	8
2023-09-25T00:00	16641	99	-61.3	-85.7	319	8
2023-09-25T00:00	16661	98	-61.3	-85.7	320	8
2023-09-25T00:00	16682	98	-61.4	-85.5	322	8
2023-09-25T00:00	16702	98	-61.5	-85.9	324	8
2023-09-25T00:00	16722	97	-61.4	-86.0	326	9
2023-09-25T00:00	16746	97	-61.3	-86.2	328	9
2023-09-25T00:00	16765	97	-61.0	-86.3	329	9
2023-09-25T00:00	16787	96	-60.8	-86.4	329	9
2023-09-25T00:00	16811	96	-60.4	-86.1	329	9
2023-09-25T00:00	16832	96	-60.2	-85.9	329	9
2023-09-25T00:00	16853	95	-60.3	-86.0	330	9
2023-09-25T00:00	16876	95	-60.3	-86.0	330	9
2023-09-25T00:00	16900	95	-60.4	-86.1	331	8
2023-09-25T00:00	16924	94	-60.3	-86.0	331	8
2023-09-25T00:00	16952	94	-60.4	-85.8	332	7
2023-09-25T00:00	16971	94	-60.5	-85.9	332	6
2023-09-25T00:00	16993	93	-60.6	-85.7	332	6
2023-09-25T00:00	17021	93	-60.7	-85.8	331	6
2023-09-25T00:00	17040	93	-60.9	-85.7	330	5
2023-09-25T00:00	17061	92	-61.0	-85.7	328	5
2023-09-25T00:00	17086	92	-61.2	-85.9	324	5
2023-09-25T00:00	17109	92	-61.2	-85.9	320	4
2023-09-25T00:00	17132	91	-61.3	-86.0	314	4
2023-09-25T00:00	17154	91	-61.3	-86.0	309	5
2023-09-25T00:00	17177	91	-61.3	-85.7	303	5
2023-09-25T00:00	17202	90	-61.4	-85.8	299	5
2023-09-25T00:00	17224	90	-61.4	-86.0	298	6
2023-09-25T00:00	17247	89	-61.0	-85.7	298	6
2023-09-25T00:00	17274	89	-61.1	-85.8	300	7
2023-09-25T00:00	17295	89	-61.2	-86.2	303	7
2023-09-25T00:00	17321	88	-60.8	-85.8	306	8
2023-09-25T00:00	17337	88	-60.7	-86.0	309	8
2023-09-25T00:00	17363	88	-60.7	-86.0	312	8
2023-09-25T00:00	17386	88	-60.8	-86.1	314	8
2023-09-25T00:00	17409	87	-60.9	-86.5	316	7
2023-09-25T00:00	17430	87	-60.6	-86.3	318	6
2023-09-25T00:00	17457	87	-60.4		319	5
2023-09-25T00:00	17480	86	-60.4		319	5
2023-09-25T00:00	17501	86	-60.1	-86.2	316	4
2023-09-25T00:00	17525	86	-60.3	-86.0	310	3
2023-09-25T00:00	17551	85	-60.5	-86.2	299	3
2023-09-25T00:00	17574	85	-60.5	-86.2	285	3
2023-09-25T00:00	17600	85	-60.7	-86.0	270	2
2023-09-25T00:00	17621	84	-60.9	-86.2	259	3
2023-09-25T00:00	17643	84	-60.9	-86.2	252	3
2023-09-25T00:00	17665	84	-61.0	-86.3	249	3
2023-09-25T00:00	17682	83	-61.2	-86.2	250	3
2023-09-25T00:00	17705	83	-61.3	-86.2	252	3
2023-09-25T00:00	17726	83	-61.5	-86.4	255	4
2023-09-25T00:00	17743	83	-61.7	-86.5	259	4
2023-09-25T00:00	17765	82	-61.8	-86.6	264	4
2023-09-25T00:00	17784	82	-61.9	-86.7	268	4
2023-09-25T00:00	17802	82	-61.8	-86.6	272	5
2023-09-25T00:00	17826	82	-61.8	-86.6	276	5
2023-09-25T00:00	17843	81	-61.8	-86.6	279	5
2023-09-25T00:00	17865	81	-61.7	-86.5	283	5
2023-09-25T00:00	17882	81	-61.8	-86.6	286	5
2023-09-25T00:00	17901	81	-61.9	-86.7	290	5
2023-09-25T00:00	17920	80	-62.0	-86.8	293	5
2023-09-25T00:00	17935	80	-62.1	-86.9	297	5
2023-09-25T00:00	17957	80	-62.1	-86.6	300	4
2023-09-25T00:00	17973	80	-62.2	-86.9	303	4
2023-09-25T00:00	17990	79	-62.3	-87.0	303	4
2023-09-25T00:00	18012	79	-62.2	-86.9	301	3
2023-09-25T00:00	18029	79	-61.8	-86.9	297	3
2023-09-25T00:00	18053	79	-61.7	-86.8	293	3
2023-09-25T00:00	18071	78	-61.8	-87.2	291	3
2023-09-25T00:00	18093	78	-61.8	-87.2	294	3
2023-09-25T00:00	18116	78	-61.7	-87.1	297	4
2023-09-25T00:00	18133	78	-61.7	-87.1	298	4
2023-09-25T00:00	18154	77	-61.5	-87.0	297	5
2023-09-25T00:00	18175	77	-61.5	-87.0	295	5
2023-09-25T00:00	18199	77	-61.4	-86.9	292	6
2023-09-25T00:00	18215	77	-61.5	-87.0	290	7
2023-09-25T00:00	18242	76	-61.6	-87.3	289	7
2023-09-25T00:00	18260	76	-61.7	-87.4	288	7
2023-09-25T00:00	18283	76	-61.5	-87.3	287	7
2023-09-25T00:00	18306	75	-61.1	-87.0	286	7
2023-09-25T00:00	18325	75	-60.9	-87.1	285	7
2023-09-25T00:00	18350	75	-60.9	-87.1	285	7
2023-09-25T00:00	18374	75	-60.9	-87.1	286	7
2023-09-25T00:00	18395	74	-60.9	-87.1	288	7
2023-09-25T00:00	18421	74	-60.9	-87.1	291	7
2023-09-25T00:00	18445	74	-60.8	-87.0	295	8
2023-09-25T00:00	18464	74	-60.8	-87.4	299	8
2023-09-25T00:00	18487	73	-60.6	-87.2	303	9
2023-09-25T00:00	18513	73	-60.3	-87.0	307	9
2023-09-25T00:00	18541	73	-60.3	-87.0	310	9
2023-09-25T00:00	18559	72	-60.4	-87.1	314	9
2023-09-25T00:00	18583	72	-60.3	-87.0	318	8
2023-09-25T00:00	18605	72	-60.2	-86.9	322	8
2023-09-25T00:00	18627	72	-60.2	-86.9	325	8
2023-09-25T00:00	18649	71	-60.2	-86.9	329	7
2023-09-25T00:00	18669	71	-60.2	-86.9	334	7
2023-09-25T00:00	18693	71	-60.3	-87.0	339	7
2023-09-25T00:00	18714	71	-60.4	-87.1	344	7
2023-09-25T00:00	18736	70	-60.5	-87.2	349	6
2023-09-25T00:00	18761	70	-60.4	-87.1	353	6
2023-09-25T00:00	18781	70	-60.3	-87.0	356	5
2023-09-25T00:00	18802	70	-60.1	-86.8	355	4
2023-09-25T00:00	18825	69	-60.0	-86.8	351	4
2023-09-25T00:00	18850	69	-60.0	-86.8	343	4
2023-09-25T00:00	18871	69	-60.2	-86.9	335	4
2023-09-25T00:00	18893	69	-60.3	-87.0	329	4
2023-09-25T00:00	18912	68	-60.4	-87.1	326	4
2023-09-25T00:00	18936	68	-60.1	-86.8	325	4
2023-09-25T00:00	18957	68	-59.8	-87.0	326	4
2023-09-25T00:00	18978	68	-59.8	-87.0	325	4
2023-09-25T00:00	18998	68	-59.7	-86.9	323	4
2023-09-25T00:00	19018	67	-59.2	-86.9	319	4
2023-09-25T00:00	19035	67	-59.0	-86.8	311	4
2023-09-25T00:00	19058	67	-59.0	-86.8	301	3
2023-09-25T00:00	19080	67	-59.0	-86.8	287	3
2023-09-25T00:00	19102	66	-58.8	-86.6	270	2
2023-09-25T00:00	19127	66	-58.6	-86.5	251	2
2023-09-25T00:00	19149	66	-58.7	-86.5	235	2
2023-09-25T00:00	19169	66	-58.8	-86.6	222	3
2023-09-25T00:00	19192	65	-58.9	-86.3	214	3
2023-09-25T00:00	19217	65	-59.0	-86.4	209	3
2023-09-25T00:00	19235	65	-59.1	-86.5	205	4
2023-09-25T00:00	19256	65	-59.3	-86.6	204	4
2023-09-25T00:00	19280	65	-59.4	-86.3	203	4
2023-09-25T00:00	19306	64	-59.5	-86.4	204	5
2023-09-25T00:00	19322	64	-59.6	-86.5	206	5
2023-09-25T00:00	19351	64	-59.8	-86.6	209	5
2023-09-25T00:00	19369	64	-59.9	-86.7	213	5
2023-09-25T00:00	19392	63	-60.1	-86.8	218	5
2023-09-25T00:00	19418	63	-60.2	-86.9	222	6
2023-09-25T00:00	19439	63	-60.3	-87.0	226	6
2023-09-25T00:00	19462	63	-60.3	-87.0	230	6
2023-09-25T00:00	19485	62	-60.1	-86.8	233	6
2023-09-25T00:00	19511	62	-59.9	-87.1	235	5
2023-09-25T00:00	19531	62	-59.7	-86.9	238	5
2023-09-25T00:00	19553	62	-59.7	-86.9	240	4
2023-09-25T00:00	19581	62	-59.8	-87.0	244	4
2023-09-25T00:00	19604	61	-59.9	-86.7	248	3
2023-09-25T00:00	19624	61	-60.1	-86.8	253	3
2023-09-25T00:00	19650	61	-60.2	-86.9	259	2
2023-09-25T00:00	19670	61	-60.4	-87.1	266	2
2023-09-25T00:00	19696	60	-60.3	-87.0	278	2
2023-09-25T00:00	19721	60	-60.3	-86.7	297	1
2023-09-25T00:00	19747	60	-60.4	-86.7	321	1
2023-09-25T00:00	19772	60	-60.5	-86.8	339	2
2023-09-25T00:00	19794	59	-60.7	-87.0	348	2
2023-09-25T00:00	19821	59	-60.9	-87.1	351	2
2023-09-25T00:00	19846	59	-61.1	-87.3	351	3
2023-09-25T00:00	19867	59	-61.2	-87.3	348	3
2023-09-25T00:00	19891	59	-61.1	-87.3	340	2
2023-09-25T00:00	19914	58	-61.0	-87.2	324	2
2023-09-25T00:00	19939	58	-61.0	-87.2	300	2
2023-09-25T00:00	19963	58	-61.2	-87.3	276	2
2023-09-25T00:00	19985	58	-61.1	-87.3	263	3
2023-09-25T00:00	20008	57	-61.2	-87.3	257	4
2023-09-25T00:00	20033	57	-61.3	-87.1	255	4
2023-09-25T00:00	20054	57	-61.4	-87.2	256	5
2023-09-25T00:00	20074	57	-61.6	-87.3	258	5
2023-09-25T00:00	20104	57	-61.7	-87.4	261	6
2023-09-25T00:00	20126	56	-61.7	-87.4	265	6
2023-09-25T00:00	20152	56	-61.6	-87.3	268	7
2023-09-25T00:00	20173	56	-61.6	-87.3	272	8
2023-09-25T00:00	20195	56	-61.7	-87.4	276	8
2023-09-25T00:00	20214	56	-61.6	-87.7	280	9
2023-09-25T00:00	20241	55	-61.5	-87.6	284	9
2023-09-25T00:00	20264	55	-61.2	-87.3	287	9
2023-09-25T00:00	20283	55	-61.1	-87.6	291	9
2023-09-25T00:00	20305	55	-60.7	-87.3	294	8
2023-09-25T00:00	20325	55	-60.5	-87.5	296	7
2023-09-25T00:00	20346	54	-60.2	-87.3	299	7
2023-09-25T00:00	20369	54	-60.2	-87.7	300	6
2023-09-25T00:00	20393	54	-60.0	-87.5	301	6
2023-09-25T00:00	20411	54	-59.4	-87.1	300	5
2023-09-25T00:00	20432	54	-59.2	-87.3	297	4
2023-09-25T00:00	20454	53	-59.0	-87.2	289	4
2023-09-25T00:00	20477	53	-58.8	-87.0	276	3
2023-09-25T00:00	20496	53	-58.5	-86.8	261	3
2023-09-25T00:00	20521	53	-58.4	-86.7	249	4
2023-09-25T00:00	20540	53	-58.4	-86.7	241	4
2023-09-25T00:00	20561	53	-58.2	-86.6	238	5
2023-09-25T00:00	20584	52	-58.1	-86.5	236	5
2023-09-25T00:00	20607	52	-58.2	-86.6	235	5
2023-09-25T00:00	20629	52	-58.2	-86.2	233	5
2023-09-25T00:00	20651	52	-58.3	-86.2	230	5
2023-09-25T00:00	20671	52	-58.4	-86.3	228	5
2023-09-25T00:00	20692	51	-58.6	-86.5	226	5
2023-09-25T00:00	20719	51	-58.8	-86.2	226	5
2023-09-25T00:00	20744	51	-58.9	-86.3	227	5
2023-09-25T00:00	20763	51	-59.1	-86.5	229	5
2023-09-25T00:00	20789	51	-59.2	-86.5	232	5
2023-09-25T00:00	20814	50	-59.2	-86.5	235	6
2023-09-25T00:00	20837	50	-59.3	-86.6	237	6
2023-09-25T00:00	20860	50	-59.5	-86.8	240	6
2023-09-25T00:00	20879	50	-59.7	-86.9	243	7
2023-09-25T00:00	20903	50	-59.8	-87.0	245	7
2023-09-25T00:00	20931	50	-59.6	-86.8	248	7
2023-09-25T00:00	20957	49	-59.4	-86.7	251	7
2023-09-25T00:00	20977	49	-59.2	-86.9	253	7
2023-09-25T00:00	21000	49	-59.2	-86.9	257	6
2023-09-25T00:00	21029	49	-59.1	-86.8	261	6
2023-09-25T00:00	21049	49	-59.0	-86.8	266	6
2023-09-25T00:00	21076	48	-59.0	-86.8	271	6
2023-09-25T00:00	21099	48	-59.2	-86.9	275	6
2023-09-25T00:00	21123	48	-59.2	-86.5	278	7
2023-09-25T00:00	21147	48	-59.3	-86.6	280	7
2023-09-25T00:00	21174	48	-59.4	-86.7	282	7
2023-09-25T00:00	21200	47	-59.4	-86.7	283	7
2023-09-25T00:00	21223	47	-59.3	-87.0	283	7
2023-09-25T00:00	21246	47	-59.0	-86.8	282	7
2023-09-25T00:00	21268	47	-59.0	-86.8	281	6
2023-09-25T00:00	21293	47	-58.9	-87.1	279	6
2023-09-25T00:00	21320	47	-58.5	-86.8	277	7
2023-09-25T00:00	21343	46	-58.4	-86.7	276	7
2023-09-25T00:00	21368	46	-58.4	-86.7	276	8
2023-09-25T00:00	21392	46	-58.3	-86.7	276	8
2023-09-25T00:00	21413	46	-58.3	-86.7	277	8
2023-09-25T00:00	21437	46	-58.4	-86.3	279	8
2023-09-25T00:00	21464	46	-58.5	-86.4	281	8
2023-09-25T00:00	21484	45	-58.3	-86.2	284	8
2023-09-25T00:00	21512	45	-58.4	-86.3	288	8
2023-09-25T00:00	21536	45	-58.6	-86.5	292	8
2023-09-25T00:00	21558	45	-58.8	-86.6	296	8
2023-09-25T00:00	21583	45	-59.0	-86.8	299	9
2023-09-25T00:00	21614	44	-59.1	-86.8	303	9
2023-09-25T00:00	21638	44	-59.0	-86.8	306	9
2023-09-25T00:00	21660	44	-58.9	-86.7	310	9
2023-09-25T00:00	21686	44	-58.6	-86.9	312	8
2023-09-25T00:00	21710	44	-58.2	-86.6	314	8
2023-09-25T00:00	21735	44	-58.0	-86.9	315	7
2023-09-25T00:00	21754	43	-57.9	-86.8	315	6
2023-09-25T00:00	21783	43	-57.9	-86.8	315	6
2023-09-25T00:00	21811	43	-57.6	-86.6	315	5
2023-09-25T00:00	21836	43	-57.4	-86.4	317	4
2023-09-25T00:00	21863	43	-57.2	-86.3	321	3
2023-09-25T00:00	21891	43	-57.0	-86.1	328	2
2023-09-25T00:00	21917	42	-57.0	-86.1	338	1
2023-09-25T00:00	21945	42	-57.1	-86.2	3	1
2023-09-25T00:00	21972	42	-57.1	-86.2	95	0
2023-09-25T00:00	21997	42	-57.3	-85.9	136	1
2023-09-25T00:00	22018	42	-57.4	-86.0	150	2
2023-09-25T00:00	22045	41	-57.5	-86.1	158	2
2023-09-25T00:00	22072	41	-57.6	-86.1	164	3
2023-09-25T00:00	22097	41	-57.8	-86.3	170	3
2023-09-25T00:00	22125	41	-58.0	-86.4	176	4
2023-09-25T00:00	22150	41	-57.6	-86.1	182	4
2023-09-25T00:00	22175	41	-57.7	-86.2	187	4
2023-09-25T00:00	22201	40	-57.9	-86.4	191	5
2023-09-25T00:00	22229	40	-58.1		194	5
2023-09-25T00:00	22253	40	-58.3	-86.2	196	5
2023-09-25T00:00	22281	40	-58.6	-86.5	197	6
2023-09-25T00:00	22305	40	-58.8	-86.2	197	6
2023-09-25T00:00	22338	40	-59.0	-86.4	196	6
2023-09-25T00:00	22367	39	-59.2	-86.5	195	7
2023-09-25T00:00	22388	39	-59.5	-86.8	195	7
2023-09-25T00:00	22421	39	-59.7	-86.9	196	7
2023-09-25T00:00	22443	39	-59.9	-86.7	199	7
2023-09-25T00:00	22462	39	-60.1	-87.2	203	8
2023-09-25T00:00	22491	39	-60.2	-87.3	208	8
2023-09-25T00:00	22516	39	-60.3	-87.4	213	8
2023-09-25T00:00	22542	38	-59.6	-87.2	216	9
2023-09-25T00:00	22568	38	-59.6	-87.2	219	9
2023-09-25T00:00	22589	38	-59.6	-87.2	221	9
2023-09-25T00:00	22622	38	-59.7	-87.3	222	9
2023-09-25T00:00	22644	38	-59.9	-87.4	223	9
2023-09-25T00:00	22664	38	-60.0	-87.1	225	10
2023-09-25T00:00	22691	37	-60.0	-87.1	226	10
2023-09-25T00:00	22717	37	-60.1	-87.2	228	10
2023-09-25T00:00	22740	37	-60.2	-87.3	229	9
2023-09-25T00:00	22765	37	-60.1	-87.2	230	9
2023-09-25T00:00	22792	37	-60.0	-87.5	230	8
2023-09-25T00:00	22808	37	-59.8	-87.4	231	8
2023-09-25T00:00	22837	37	-59.9	-87.4	233	7
2023-09-25T00:00	22858	36	-59.9	-87.4	236	7
2023-09-25T00:00	22882	36	-59.8	-87.8	240	8
2023-09-25T00:00	22900	36	-59.3	-87.4	244	8
2023-09-25T00:00	22927	36	-59.3	-87.4	247	9
2023-09-25T00:00	22952	36	-59.3	-87.4	249	9
2023-09-25T00:00	22973	36	-59.3	-87.4	251	9
2023-09-25T00:00	22994	36	-59.2	-87.3	252	9
2023-09-25T00:00	23019	36	-59.0	-87.2	252	10
2023-09-25T00:00	23040	35	-58.9	-87.1	251	10
2023-09-25T00:00	23072	35	-58.9	-87.1	250	10
2023-09-25T00:00	23091	35	-58.9	-87.6	248	10
2023-09-25T00:00	23113	35	-58.8	-87.5	247	10
2023-09-25T00:00	23136	35	-58.3	-87.1	247	10
2023-09-25T00:00	23162	35	-57.8	-86.7	248	10
2023-09-25T00:00	23186	35	-57.5	-87.0	250	10
2023-09-25T00:00	23208	34	-57.6	-87.1	253	10
2023-09-25T00:00	23235	34	-57.6	-86.6	256	10
2023-09-25T00:00	23258	34	-57.7	-86.7	258	11
2023-09-25T00:00	23285	34	-57.8	-86.7	261	11
2023-09-25T00:00	23315	34	-57.9	-86.8	264	11
2023-09-25T00:00	23335	34	-57.9	-86.8	267	11
2023-09-25T00:00	23361	34	-57.8	-86.7	270	11
2023-09-25T00:00	23387	34	-57.9	-86.8	272	11
2023-09-25T00:00	23412	33	-57.9	-86.8	274	11
2023-09-25T00:00	23440	33	-57.9	-86.8	275	10
2023-09-25T00:00	23465	33	-57.7	-86.7	275	9
2023-09-25T00:00	23488	33	-57.6	-86.6	273	9
2023-09-25T00:00	23514	33	-57.3	-86.4	271	8
2023-09-25T00:00	23541	33	-57.1	-86.7	268	7
2023-09-25T00:00	23575	33	-57.0	-86.6	266	7
2023-09-25T00:00	23593	32	-57.0	-86.6	264	7
2023-09-25T00:00	23618	32	-57.0	-86.6	263	7
2023-09-25T00:00	23648	32	-57.1	-86.2	262	7
2023-09-25T00:00	23668	32	-57.1	-86.2	262	6
2023-09-25T00:00	23693	32	-56.9	-86.1	262	6
2023-09-25T00:00	23721	32	-57.0	-86.1	262	6
2023-09-25T00:00	23747	32	-57.0	-86.1	260	6
2023-09-25T00:00	23774	32	-57.1	-86.2	256	5
2023-09-25T00:00	23794	31	-56.8	-86.5	250	5
2023-09-25T00:00	23822	31	-56.8	-86.5	244	5
2023-09-25T00:00	23848	31	-56.9	-86.6	239	5
2023-09-25T00:00	23868	31	-56.9	-86.6	236	5
2023-09-25T00:00	23893	31	-56.8	-86.5	234	6
2023-09-25T00:00	23922	31	-56.8	-86.0	232	6
2023-09-25T00:00	23948	31	-56.8	-86.0	230	6
2023-09-25T00:00	23969	31	-56.8	-86.0	229	7
2023-09-25T00:00	23993	30	-56.9	-86.1	227	7
2023-09-25T00:00	24019	30	-57.0	-86.1	226	7
2023-09-25T00:00	24041	30	-57.1	-86.2	226	7
2023-09-25T00:00	24073	30	-57.0	-86.1	226	7
2023-09-25T00:00	24090	30	-57.1	-86.2	226	7
2023-09-25T00:00	24121	30	-57.1	-86.2	226	7
2023-09-25T00:00	24147	30	-57.1	-86.2	225	7
2023-09-25T00:00	24169	30	-57.2	-86.3	224	6
2023-09-25T00:00	24197	30	-57.3	-86.4	224	6
2023-09-25T00:00	24218	29	-57.5	-86.5	225	6
2023-09-25T00:00	24248	29	-57.7	-86.7	227	5
2023-09-25T00:00	24271	29	-57.3	-86.4	231	5
2023-09-25T00:00	24299	29	-57.2	-86.3	237	4
2023-09-25T00:00	24323	29	-57.3	-86.4	242	4
2023-09-25T00:00	24348	29	-57.2	-86.3	245	4
2023-09-25T00:00	24378	29	-57.2	-86.3	245	5
2023-09-25T00:00	24397	29	-57.2	-86.3	244	5
2023-09-25T00:00	24424	28	-57.3	-86.4	242	6
2023-09-25T00:00	24453	28	-57.4	-86.4	241	6
2023-09-25T00:00	24489	28	-57.6	-86.6	240	7
2023-09-25T00:00	24508	28	-57.7	-86.7	241	8
2023-09-25T00:00	24535	28	-57.8	-86.7	242	8
2023-09-25T00:00	24562	28	-57.8	-86.7	245	8
2023-09-25T00:00	24588	28	-57.5	-86.5	248	8
2023-09-25T00:00	24614	28	-57.5	-86.5	251	8
2023-09-25T00:00	24641	27	-57.6	-86.6	253	8
2023-09-25T00:00	24668	27	-57.8	-86.7	255	7
2023-09-25T00:00	24696	27	-57.8	-86.3	256	7
2023-09-25T00:00	24721	27	-57.9	-86.4	256	7
2023-09-25T00:00	24754	27	-58.2	-86.6	255	8
2023-09-25T00:00	24785	27	-58.3	-86.7	255	8
2023-09-25T00:00	24807	27	-58.4	-86.7	255	8
2023-09-25T00:00	24834	27	-58.4	-86.7	256	8
2023-09-25T00:00	24864	27	-58.4	-86.7	258	8
2023-09-25T00:00	24895	26	-58.2	-86.6	261	8
2023-09-25T00:00	24915	26	-58.3	-87.1	265	7
2023-09-25T00:00	24940	26	-58.3	-87.1	270	7
2023-09-25T00:00	24979	26	-58.3	-87.1	273	7
2023-09-25T00:00	25012	26	-58.2	-87.0	275	7
2023-09-25T00:00	25026	26	-58.1	-87.0	276	7
2023-09-25T00:00	25051	26	-58.0	-86.9	276	8
2023-09-25T00:00	25082	26	-58.0	-86.9	276	8
2023-09-25T00:00	25113	26	-58.0	-86.9	275	9
2023-09-25T00:00	25137	25	-58.1	-87.0	275	9
2023-09-25T00:00	25166	25	-58.2	-87.0	274	9
2023-09-25T00:00	25186	25	-58.2	-87.0	274	9
2023-09-25T00:00	25224	25	-58.2	-87.0	274	8
2023-09-25T00:00	25243	25	-57.9	-86.8	273	8
2023-09-25T00:00	25270	25	-57.7	-86.7	272	8
2023-09-25T00:00	25302	25	-57.5	-87.0	271	8
2023-09-25T00:00	25323	25	-57.5	-87.0	268	7
2023-09-25T00:00	25347	25	-57.6	-87.1	266	7
2023-09-25T00:00	25375	24	-57.5	-87.0	263	6
2023-09-25T00:00	25403	24	-57.5	-87.0	261	6
2023-09-25T00:00	25426	24	-57.2	-86.8	260	6
2023-09-25T00:00	25449	24	-57.1	-86.7	259	6
2023-09-25T00:00	25470	24	-56.8	-86.5	259	6
2023-09-25T00:00	25504	24	-56.9	-86.6	259	7
2023-09-25T00:00	25526	24	-57.0	-86.6	260	7
2023-09-25T00:00	25554	24	-57.1	-86.7	262	8
2023-09-25T00:00	25579	24	-57.1	-86.2	263	8
2023-09-25T00:00	25608	24	-57.2	-86.3	265	9
2023-09-25T00:00	25634	23	-57.2	-86.3	266	9
2023-09-25T00:00	25655	23	-57.4	-86.4	267	10
2023-09-25T00:00	25683	23	-57.5	-86.5	269	10
2023-09-25T00:00	25716	23	-57.6	-86.6	271	10
2023-09-25T00:00	25740	23	-57.7	-86.7	273	10
2023-09-25T00:00	25772	23	-57.8	-86.7	276	10
2023-09-25T00:00	25782	23	-57.7	-87.2	280	10
2023-09-25T00:00	25813	23	-56.9	-86.6	283	10
2023-09-25T00:00	25842	23	-56.8	-86.5	287	9
2023-09-25T00:00	25870	23	-56.7	-86.9	291	9
2023-09-25T00:00	25900	23	-56.5	-86.8	296	9
2023-09-25T00:00	25936	22	-56.6	-86.9	300	8
2023-09-25T00:00	25958	22	-56.6	-86.3	305	8
2023-09-25T00:00	25984	22	-56.5	-86.3	309	9
2023-09-25T00:00	26017	22	-56.6	-86.3	313	9
2023-09-25T00:00	26049	22	-56.8	-86.5	315	9
2023-09-25T00:00	26077	22	-56.8	-86.5	318	9
2023-09-25T00:00	26101	22	-56.8	-86.5	320	8
2023-09-25T00:00	26126	22	-56.7	-86.4	323	8
2023-09-25T00:00	26163	22	-56.5	-86.3	325	7
2023-09-25T00:00	26192	22	-56.5	-86.3	326	6
2023-09-25T00:00	26216	21	-56.3	-86.1	325	6
2023-09-25T00:00	26248	21	-56.4	-86.2	324	5
2023-09-25T00:00	26267	21	-56.5	-86.3	321	5
2023-09-25T00:00	26299	21	-56.6	-86.3	319	4
2023-09-25T00:00	26326	21	-56.8	-86.5	319	4
2023-09-25T00:00	26353	21	-56.9	-86.1	321	5
2023-09-25T00:00	26387	21	-56.9	-86.6	325	5
2023-09-25T00:00	26412	21	-56.9	-86.6	328	5
2023-09-25T00:00	26443	21	-56.8	-86.5	330	5
2023-09-25T00:00	26473	21	-56.8	-86.5	330	6
2023-09-25T00:00	26494	21	-56.8	-86.5	330	6
2023-09-25T00:00	26524	20	-56.8	-86.5	329	5
2023-09-25T00:00	26545	20	-56.7	-86.4	326	5
2023-09-25T00:00	26579	20	-56.4		323	5
2023-09-25T00:00	26603	20	-56.1	-86.5	319	4
2023-09-25T00:00	26623	20	-56.1	-86.5	312	3
2023-09-25T00:00	26660	20	-56.1	-86.5	301	3
2023-09-25T00:00	26677	20	-55.9	-86.3	282	2
2023-09-25T00:00	26701	20	-55.7	-86.2	263	2
2023-09-25T00:00	26736	20	-55.6	-86.1	251	3
2023-09-25T00:00	26763	20	-55.5	-86.1	246	3
2023-09-25T00:00	26790	20	-55.6	-86.1	246	3
2023-09-25T00:00	26813	20	-55.6	-86.1	250	4
2023-09-25T00:00	26842	19	-55.7	-86.2	255	4
2023-09-25T00:00	26867	19	-55.8	-86.3	262	4
2023-09-25T00:00	26903	19	-55.6	-85.6	269	4
2023-09-25T00:00	26926	19	-55.6	-85.6	276	5
2023-09-25T00:00	26958	19	-55.7	-85.7	284	5
2023-09-25T00:00	26987	19	-55.8	-85.7	292	6
2023-09-25T00:00	27012	19	-55.9	-85.8	299	6
2023-09-25T00:00	27044	19	-55.9	-85.8	306	7
2023-09-25T00:00	27069	19	-55.9	-85.8	310	7
2023-09-25T00:00	27107	19	-56.1	-86.0	314	8
2023-09-25T00:00	27127	19	-56.3	-86.1	315	8
2023-09-25T00:00	27158	19	-56.3	-86.1	313	8
2023-09-25T00:00	27180	18	-56.1	-86.0	310	8
2023-09-25T00:00	27211	18	-56.3	-86.1	306	8
2023-09-25T00:00	27244	18	-56.5	-86.3	301	9
2023-09-25T00:00	27271	18	-56.6	-85.8	296	9
2023-09-25T00:00	27294	18	-56.7	-85.9	292	9
2023-09-25T00:00	27331	18	-56.8	-86.0	289	10
2023-09-25T00:00	27360	18	-57.0	-86.6	287	10
2023-09-25T00:00	27391	18	-57.2	-86.8	286	10
2023-09-25T00:00	27408	18	-56.6	-86.3	285	10
2023-09-25T00:00	27432	18	-56.4		286	10
2023-09-25T00:00	27462	18	-56.4		287	10
2023-09-25T00:00	27492	18	-56.3	-86.6	289	10
2023-09-25T00:00	27519	17	-55.9	-86.3	292	10
2023-09-25T00:00	27548	17	-55.4	-86.6	295	10
2023-09-25T00:00	27575	17	-55.0	-86.3	299	9
2023-09-25T00:00	27605	17	-55.1	-86.4	304	9
2023-09-25T00:00	27619	17	-55.2	-86.4	309	9
2023-09-25T00:00	27670	17	-55.0	-86.3	314	9
2023-09-25T00:00	27680	17	-54.4	-85.8	317	9
2023-09-25T00:00	27699	17	-54.3	-85.8	317	10
2023-09-25T00:00	27730	17	-53.7	-85.3	315	10
2023-09-25T00:00	27754	17	-53.7	-85.3	311	10
2023-09-25T00:00	27775	17	-53.8	-85.4	306	10
2023-09-25T00:00	27802	17	-53.9	-85.5	302	10
2023-09-25T00:00	27830	17	-53.8	-85.4	299	10
2023-09-25T00:00	27867	17	-53.5	-85.2	298	10
2023-09-25T00:00	27895	16	-53.2	-85.0	298	10
2023-09-25T00:00	27912	16	-53.2	-85.0	299	10
2023-09-25T00:00	27939	16	-53.2	-85.0	300	10
2023-09-25T00:00	27962	16	-53.0	-84.8	301	10
2023-09-25T00:00	27989	16	-52.9	-85.4	301	10
2023-09-25T00:00	28025	16	-52.7	-85.3	298	10
2023-09-25T00:00	28050	16	-52.7	-85.3	294	10
2023-09-25T00:00	28071	16	-52.7	-85.3	289	10
2023-09-25T00:00	28109	16	-52.3	-85.0	283	10
2023-09-25T00:00	28131	16	-51.5	-85.2	279	10
2023-09-25T00:00	28167	16	-50.9	-84.7	276	10
2023-09-25T00:00	28185	16	-49.9	-84.0	276	10
2023-09-25T00:00	28224	16	-49.8	-84.0	276	10
2023-09-25T00:00	28258	16	-49.9	-84.0	276	9
2023-09-25T00:00	28285	16	-50.1	-84.2	276	9
2023-09-25T00:00	28305	15	-50.3	-83.5	274	9
2023-09-25T00:00	28335	15	-50.1	-83.4	273	9
2023-09-25T00:00	28375	15	-50.2	-83.5	271	9
2023-09-25T00:00	28411	15	-50.5	-83.7	270	10
2023-09-25T00:00	28430	15	-50.7	-83.8	270	10
2023-09-25T00:00	28467	15	-50.7	-83.8	271	10
2023-09-25T00:00	28502	15	-50.9	-84.0	273	9
2023-09-25T00:00	28526	15	-50.7	-83.8	275	9
2023-09-25T00:00	28558	15	-50.5	-83.7	279	8
2023-09-25T00:00	28607	15	-50.3	-83.5	282	8
2023-09-25T00:00	28624	15	-50.3	-83.5	285	8
2023-09-25T00:00	28672	15	-49.6	-83.0	286	7
2023-09-25T00:00	28690	15	-49.5	-83.7	287	7
2023-09-25T00:00	28715	15	-49.6	-83.0	287	7
2023-09-25T00:00	28737	14	-49.8	-83.2	287	7
2023-09-25T00:00	28781	14	-49.8	-83.2	285	7
2023-09-25T00:00	28816	14	-49.7	-83.1	283	7
2023-09-25T00:00	28845	14	-49.7	-83.1	280	7
2023-09-25T00:00	28876	14	-49.6	-83.0	277	7
2023-09-25T00:00	28908	14	-49.7	-83.1	274	8
2023-09-25T00:00	28930	14	-49.6	-83.0	273	9
2023-09-25T00:00	28974	14	-49.5	-82.9	271	10
2023-09-25T00:00	29001	14	-49.7	-83.1	270	11
2023-09-25T00:00	29024	14	-49.9	-83.2	269	11
2023-09-25T00:00	29056	14	-49.9	-83.2	268	12
2023-09-25T00:00	29080	14	-50.0	-83.3	268	13
2023-09-25T00:00	29114	14	-50.1	-83.4	268	13
2023-09-25T00:00	29136	14	-49.9	-83.2	268	13
2023-09-25T00:00	29173	14	-49.8	-83.2	268	13
2023-09-25T00:00	29198	14	-49.8	-83.2	268	12
2023-09-25T00:00	29222	13	-49.9	-83.2	268	12
2023-09-25T00:00	29241	13	-49.8	-83.2	268	11
2023-09-25T00:00	29277	13	-49.8	-83.2	267	10
2023-09-25T00:00	29296	13	-49.9	-83.2	265	9
2023-09-25T00:00	29316	13	-49.9	-83.2	263	9
2023-09-25T00:00	29336	13	-50.0	-83.3	260	8
2023-09-25T00:00	29365	13	-50.0	-83.3	256	7
2023-09-25T00:00	29389	13	-50.0	-83.3	253	7
2023-09-25T00:00	29414	13	-50.0	-83.3	251	7
2023-09-25T00:00	29449	13	-49.5	-83.7	249	7
2023-09-25T00:00	29476	13	-49.4	-83.7	249	8
2023-09-25T00:00	29487	13	-49.2	-83.5	249	8
2023-09-25T00:00	29526	13	-49.1	-83.4	251	9
2023-09-25T00:00	29552	13	-49.1	-83.4	253	10
2023-09-25T00:00	29581	13	-49.2	-83.5	255	10
2023-09-25T00:00	29599	13	-49.3	-83.6	256	11
2023-09-25T00:00	29634	13	-49.1	-83.4	256	11
2023-09-25T00:00	29645	13	-48.7	-83.2	255	11
2023-09-25T00:00	29682	13	-48.0	-83.6	253	10
2023-09-25T00:00	29699	12	-47.2	-83.0	250	10
2023-09-25T00:00	29742	12	-46.9	-82.8	247	10
2023-09-25T00:00	29763	12	-47.0	-82.9	244	10
2023-09-25T00:00	29779	12	-47.0	-82.9	242	11
2023-09-25T00:00	29821	12	-47.1	-82.9	241	11
2023-09-25T00:00	29827	12	-47.2	-82.1	241	12
2023-09-25T00:00	29844	12	-47.4	-82.2	241	12
2023-09-25T00:00	29872	12	-47.4	-82.2	243	13
2023-09-25T00:00	29916	12	-47.2	-82.1	245	13
2023-09-25T00:00	29951	12	-46.9	-82.8	248	13
2023-09-25T00:00	29959	12	-46.5	-82.5	251	13
2023-09-25T00:00	29994	12	-46.5	-82.5	254	13
2023-09-25T00:00	30023	12	-46.6	-82.6	258	13
2023-09-25T00:00	30058	12	-46.5	-82.5	261	13
2023-09-25T00:00	30065	12	-46.4	-82.4	266	13
2023-09-25T00:00	30109	12	-46.4	-82.4	270	13
2023-09-25T00:00	30134	12	-46.5	-82.5	274	12
2023-09-25T00:00	30155	12	-46.6	-81.7	278	12
2023-09-25T00:00	30169	12	-46.5	-81.6	281	12
2023-09-25T00:00	30195	12	-46.5	-81.6	282	11
2023-09-25T00:00	30225	12	-46.7	-81.7	283	11
2023-09-25T00:00	30274	11	-46.8	-81.8	281	10
2023-09-25T00:00	30287	11	-46.8	-81.8	278	9
2023-09-25T00:00	30319	11	-46.9	-81.9	274	8
2023-09-25T00:00	30341	11	-47.0	-81.9	268	8
2023-09-25T00:00	30385	11	-47.2	-82.1	261	7
2023-09-25T00:00	30431	11	-47.3	-82.2	242	7
2023-09-25T00:00	30457	11	-47.5	-82.3	231	7
2023-09-25T00:00	30491	11	-47.5	-82.3	221	7
2023-09-25T00:00	30512	11	-47.5	-82.3	213	8
2023-09-25T00:00	30542	11	-47.5	-82.3	208	8
2023-09-25T00:00	30563	11	-47.6	-82.4	206	9
2023-09-25T00:00	30590	11	-47.7	-82.4	206	10
2023-09-25T00:00	30626	11	-47.9	-82.6	206	10
2023-09-25T00:00	30659	11	-48.1	-82.7	207	11
2023-09-25T00:00	30688	11	-48.2	-82.8	209	11
2023-09-25T00:00	30720	11	-48.2	-82.8	210	11
2023-09-25T00:00	30741	11	-48.2	-82.8	212	11
2023-09-25T00:00	30786	11	-48.1	-82.7	213	11
2023-09-25T00:00	30801	11	-47.9	-82.6	214	11
2023-09-25T00:00	30839	11	-47.9	-82.6	215	11
2023-09-25T00:00	30842	11	-48.0	-82.7	215	11
2023-09-25T00:00	30881	10	-48.2	-82.8	216	11
2023-09-25T00:00	30905	10	-48.4	-82.9	216	11
2023-09-25T00:00	30944	10	-48.5	-83.0	217	12
2023-09-25T00:00	30970	10	-48.7	-83.2	219	12
2023-09-25T00:00	30991	10	-48.9	-83.3	220	12
2023-09-25T00:00	31055	10	-48.5	-83.0	223	12
2023-09-25T00:00	31066	10	-48.7	-83.2	226	12
2023-09-25T00:00	31108	10	-48.8	-83.2	228	11
2023-09-25T00:00	31134	10	-48.9	-83.3	231	11
2023-09-25T00:00	31157	10	-49.0	-83.4	233	10
2023-09-25T00:00	31187	10	-49.0	-83.4	235	10
2023-09-25T00:00	31215	10	-48.9	-83.3	236	9
2023-09-25T00:00	31250	10	-49.1	-83.4	236	9
2023-09-25T00:00	31281	10	-49.3	-82.8	235	8
2023-09-25T00:00	31297	10	-49.5	-82.9	234	8
2023-09-25T00:00	31338	10	-49.6	-83.0	233	8
2023-09-25T00:00	31364	10	-49.7	-83.1	232	8
2023-09-25T00:00	31386	10	-49.9	-83.2	231	9
2023-09-25T00:00	31409	10	-50.0	-83.3	232	9
2023-09-25T00:00	31441	10	-50.2	-83.5	232	10
2023-09-25T00:00	31479	10	-50.3	-83.5	233	10
2023-09-25T00:00	31482	10	-50.3	-83.5	234	11
2023-09-25T00:00	31522	10	-50.1	-83.4	236	12
2023-09-25T00:00	31549	9	-50.1	-83.4	237	12
2023-09-25T00:00	31564	9	-50.2	-83.5	239	13
2023-09-25T00:00	31569	9	-50.3	-83.5	242	13
2023-09-25T00:00	31614	9	-50.3	-83.5	244	14
2023-09-25T00:00	31620	9	-50.3	-83.5	245	14
2023-09-25T00:00	31655	9	-50.2	-84.2	246	14
2023-09-25T00:00	31678	9	-50.1	-84.2	247	15
2023-09-25T00:00	31699	9	-50.0	-84.1	248	15
2023-09-25T00:00	31742	9	-49.9	-84.0	249	16
2023-09-25T00:00	31760	9	-49.9	-84.0	251	16
2023-09-25T00:00	31791	9	-49.9	-84.0	253	16
2023-09-25T00:00	31804	9	-49.9	-84.0	255	16
2023-09-25T00:00	31852	9	-49.8	-84.0	257	16
2023-09-25T00:00	31859	9	-49.9	-84.0	260	16
2023-09-25T00:00	31886	9	-49.7	-83.9	261	16
2023-09-25T00:00	31912	9	-49.7	-83.9	263	16
2023-09-25T00:00	31932	9	-49.8	-84.0	264	15
2023-09-25T00:00	31965	9	-49.8	-84.0	265	15
2023-09-25T00:00	31967	9	-49.7	-83.9	266	15
2023-09-25T00:00	31997	9	-49.5	-83.7	267	15
2023-09-25T00:00	32018	9	-49.2	-83.5	268	15
2023-09-25T00:00	32057	9	-49.0	-83.4	269	15
2023-09-25T00:00	32090	9	-48.8	-83.2	271	15
2023-09-25T00:00	32117	9	-48.8	-83.2	273	14
2023-09-25T00:00	32124	9	-48.9	-83.3	275	13
2023-09-25T00:00	32150	9	-48.9	-83.3	277	13
2023-09-25T00:00	32184	9	-48.9	-83.3	279	12
2023-09-25T00:00	32200	9	-49.0	-83.4	280	12
2023-09-25T00:00	32232	9	-49.2	-83.5	279	11
2023-09-25T00:00	32248	8	-49.3	-83.6	279	11
2023-09-25T00:00	32278	8	-49.3	-83.6	276	11
2023-09-25T00:00	32315	8	-49.2	-83.5	274	11
2023-09-25T00:00	32331	8	-49.1	-83.4	271	11
2023-09-25T00:00	32369	8	-49.1	-83.4	269	12
2023-09-25T00:00	32384	8	-49.1	-83.4	268	12
2023-09-25T00:00	32413	8	-49.1	-83.4	267	13
2023-09-25T00:00	32431	8	-49.0	-83.4	266	14
2023-09-25T00:00	32465	8	-49.0	-83.4	265	14
2023-09-25T00:00	32477	8	-49.1	-83.4	264	14
2023-09-25T00:00	32512	8	-49.1	-83.4	264	15
2023-09-25T00:00	32526	8	-48.9	-83.3	264	15
2023-09-25T00:00	32575	8	-48.5	-83.9	266	15
2023-09-25T00:00	32629	8	-48.2	-83.7	270	15
2023-09-25T00:00	32633	8	-47.8	-83.4	278	15
2023-09-25T00:00	32671	8	-48.0	-83.6	281	16
2023-09-25T00:00	32696	8	-48.1	-83.6	284	16
2023-09-25T00:00	32720	8	-48.0	-83.6	285	16
2023-09-25T00:00	32739	8	-47.9	-83.5	286	17
2023-09-25T00:00	32771	8	-47.4	-83.1	286	18
2023-09-25T00:00	32791	8	-47.4	-83.1	285	18
2023-09-25T00:00	32814	8	-47.5	-83.2	283	18
2023-09-25T00:00	32830	8	-47.6	-83.3	282	19
2023-09-25T00:00	32874	8	-47.6	-83.3	280	19
2023-09-25T00:00	32898	8	-47.6	-83.3	279	19
2023-09-25T00:00	32933	8	-47.3	-83.1	278	19
2023-09-25T00:00	32970	8	-46.7	-82.6	278	20
2023-09-25T00:00	32971	8	-46.4	-82.4	279	20
2023-09-25T00:00	32975	8	-46.2	-82.3	281	20
2023-09-25T00:00	33037	8	-46.1	-82.2	282	19
2023-09-25T00:00	33047	8	-46.2	-82.3	283	19
2023-09-25T00:00	33067	8	-46.3	-82.4	284	18
2023-09-25T00:00	33090	7	-46.5	-82.5	284	18
2023-09-25T00:00	33126	7	-46.6	-82.6	284	17
2023-09-25T00:00	33171	7	-46.8	-82.7	284	16
2023-09-25T00:00	33172	7	-46.9	-82.8	284	15
2023-09-25T00:00	33198	7	-47.0	-82.9	285	14
2023-09-25T00:00	33218	7	-47.1	-82.9	286	14
2023-09-25T00:00	33262	7	-47.1	-82.9	288	14
2023-09-25T00:00	33278	7	-47.0	-82.9	290	14
2023-09-25T00:00	33303	7	-46.9	-82.8	292	14
2023-09-25T00:00	33327	7	-46.9	-82.8	293	14
2023-09-25T00:00	33362	7	-46.9	-82.8	293	15
2023-09-25T00:00	33388	7	-47.0	-82.9	293	15
2023-09-25T00:00	33427	7	-46.6	-82.6	289	15
2023-09-25T00:00	33476	7	-46.5	-82.5	286	15
2023-09-25T00:00	33485	7	-46.3	-82.4	281	16
2023-09-25T00:00	33505	7	-46.2	-82.3	278	16
2023-09-25T00:00	33514	7	-46.3	-82.4	275	16
2023-09-25T00:00	33572	7	-46.3	-82.4	273	16
2023-09-25T00:00	33589	7	-46.4	-82.4	270	16
2023-09-25T00:00	33608	7	-46.5	-82.5	268	16
2023-09-25T00:00	33639	7	-46.5	-82.5	266	16
2023-09-25T00:00	33651	7	-46.3	-82.4	264	16
2023-09-25T00:00	33680	7	-46.4	-82.4	263	16
2023-09-25T00:00	33727	7	-46.2	-82.3	262	16
2023-09-25T00:00	33728	7	-46.2	-82.3	263	15
2023-09-25T00:00	33762	7	-46.4	-82.4	263	15
2023-09-25T00:00	33801	7	-46.2	-82.3	264	15
2023-09-25T00:00	33820	7	-46.1	-82.2	265	15
2023-09-25T00:00	33838	7	-46.0	-82.1	266	15
2023-09-25T00:00	33877	7	-46.0	-82.1	266	15
2023-09-25T00:00	33897	7	-45.7	-81.9	267	15
2023-09-25T00:00	33936	7	-45.6	-82.9	267	15
2023-09-25T00:00	33959	7	-45.4	-82.8	266	15
2023-09-25T00:00	33973	7	-45.3	-82.7	265	15
2023-09-25T00:00	34026	7	-45.2	-82.7	263	15
2023-09-25T06:00	112	1015	9.9	9.3	110	3
2023-09-25T06:00	135	1012	10.4	9.8	122	4
2023-09-25T06:00	154	1010	11.3	9.7	127	5
2023-09-25T06:00	179	1007	11.9	9.6	131	6
2023-09-25T06:00	202	1004	12.9	9.2	134	7
2023-09-25T06:00	226	1001	13.2	9.2	136	8
2023-09-25T06:00	250	998	13.5	9.1	137	8
2023-09-25T06:00	273	995	13.8	8.9	137	9
2023-09-25T06:00	299	993	14.2	8.8	138	9
2023-09-25T06:00	320	990	14.1	8.7	139	9
2023-09-25T06:00	347	987	13.9	8.5	140	8
2023-09-25T06:00	371	984	13.8	8.5	141	8
2023-09-25T06:00	394	981	13.6	8.5	142	8
2023-09-25T06:00	415	979	13.5	8.5	142	8
2023-09-25T06:00	438	976	13.3	8.5	142	8
2023-09-25T06:00	462	973	13.1	8.4	142	8
2023-09-25T06:00	490	970	12.9	8.2	142	7
2023-09-25T06:00	515	967	12.7	8.2	142	7
2023-09-25T06:00	541	964	12.5	8.2	142	7
2023-09-25T06:00	565	962	12.3	8.0	142	7
2023-09-25T06:00	585	959	12.1	8.0	142	7
2023-09-25T06:00	606	957	12.0	8.0	143	7
2023-09-25T06:00	625	955	11.8	8.0	143	7
2023-09-25T06:00	647	952	11.6	7.9	144	7
2023-09-25T06:00	667	950	11.4	7.9	145	7
2023-09-25T06:00	688	948	11.2	7.9	146	7
2023-09-25T06:00	708	945	11.0	7.9	147	7
2023-09-25T06:00	740	942	10.7	7.8	147	7
2023-09-25T06:00	768	939	10.5	7.2	146	7
2023-09-25T06:00	787	936	10.3	7.2	145	7
2023-09-25T06:00	805	934	10.2	7.5	143	7
2023-09-25T06:00	824	932	10.0	7.4	144	7
2023-09-25T06:00	844	930	9.8	7.1	145	8
2023-09-25T06:00	864	928	9.7	7.2	147	8
2023-09-25T06:00	884	926	9.5	6.6	150	8
2023-09-25T06:00	904	923	9.4	6.5	152	8
2023-09-25T06:00	923	921	9.2	6.7	154	8
2023-09-25T06:00	942	919	9.1	6.7	156	8
2023-09-25T06:00	964	917	8.9	6.3	158	8
2023-09-25T06:00	986	914	8.7	6.4	159	8
2023-09-25T06:00	1006	912	8.6	6.3	160	8
2023-09-25T06:00	1026	910	8.4	5.7	160	8
2023-09-25T06:00	1043	908	8.3	5.8	160	8
2023-09-25T06:00	1062	906	8.2	5.1	160	8
2023-09-25T06:00	1084	903	8.1	4.2	159	8
2023-09-25T06:00	1103	901	8.0	4.2	159	8
2023-09-25T06:00	1129	898	7.8	4.0	158	8
2023-09-25T06:00	1156	896	7.6	4.0	158	9
2023-09-25T06:00	1179	893	7.4	3.8	157	9
2023-09-25T06:00	1199	891	7.3		157	9
2023-09-25T06:00	1220	889	7.2	2.4	158	9
2023-09-25T06:00	1241	886	7.1	2.3	158	9
2023-09-25T06:00	1262	884	6.9	3.1	159	9
2023-09-25T06:00	1282	882	6.8	2.4	158	9
2023-09-25T06:00	1300	880	6.7	2.1	158	9
2023-09-25T06:00	1322	878	6.6	1.9	157	9
2023-09-25T06:00	1342	876	6.4	2.7	156	9
2023-09-25T06:00	1365	873	6.2	3.2	156	9
2023-09-25T06:00	1384	871	6.1	2.8	155	10
2023-09-25T06:00	1405	869	6.1	2.5	155	10
2023-09-25T06:00	1422	867	6.1	1.3	156	10
2023-09-25T06:00	1447	864	6.5	-0.3	158	10
2023-09-25T06:00	1468	862	6.4	-0.2	159	10
2023-09-25T06:00	1487	860	6.3	0.8	161	10
2023-09-25T06:00	1511	858	6.2	0.3	163	9
2023-09-25T06:00	1529	856	6.2	-0.3	164	9
2023-09-25T06:00	1551	854	6.3	-1.4	164	8
2023-09-25T06:00	1571	851	6.5	-2.4	163	8
2023-09-25T06:00	1594	849	7.5	-6.1	161	7
2023-09-25T06:00	1618	847	7.8	-7.0	159	7
2023-09-25T06:00	1642	844	7.6	-7.2	156	7
2023-09-25T06:00	1670	841	7.5	-8.1	153	6
2023-09-25T06:00	1694	839	8.1	-10.8	150	6
2023-09-25T06:00	1718	836	8.5	-12.8	146	6
2023-09-25T06:00	1743	834	8.4	-13.3	142	5
2023-09-25T06:00	1762	832	8.3	-13.3	141	5
2023-09-25T06:00	1783	830	8.2	-13.9	142	5
2023-09-25T06:00	1805	828	8.2	-14.7	145	5
2023-09-25T06:00	1830	825	8.1	-14.8	148	6
2023-09-25T06:00	1853	823	8.0	-15.2	150	6
2023-09-25T06:00	1886	820	7.9	-15.7	150	6
2023-09-25T06:00	1910	817	7.7	-15.4	148	6
2023-09-25T06:00	1933	815	7.5	-15.2	146	6
2023-09-25T06:00	1956	812	7.3	-14.9	145	6
2023-09-25T06:00	1986	810	7.5	-18.0	144	6
2023-09-25T06:00	2008	807	7.7	-19.5	144	6
2023-09-25T06:00	2033	805	7.7	-19.9	145	7
2023-09-25T06:00	2054	803	7.6	-19.9	146	7
2023-09-25T06:00	2073	801	7.5	-19.7	147	7
2023-09-25T06:00	2100	799	7.3	-19.4	149	7
2023-09-25T06:00	2119	797	7.3	-19.6	152	7
2023-09-25T06:00	2141	795	7.3	-19.8	154	7
2023-09-25T06:00	2164	792	7.4	-19.8	156	7
2023-09-25T06:00	2189	790	7.2	-19.9	157	7
2023-09-25T06:00	2219	787	7.0	-19.4	159	7
2023-09-25T06:00	2247	784	6.9	-19.3	160	8
2023-09-25T06:00	2273	782	6.9	-19.6	163	8
2023-09-25T06:00	2294	780	6.9	-19.9	165	8
2023-09-25T06:00	2326	777	6.7	-19.8	167	8
2023-09-25T06:00	2358	774	6.5	-19.9	168	7
2023-09-25T06:00	2388	771	6.2	-19.9	168	7
2023-09-25T06:00	2414	768	6.1	-20.7	167	6
2023-09-25T06:00	2451	765	6.0	-21.1	167	6
2023-09-25T06:00	2475	763	6.0	-23.1	166	5
2023-09-25T06:00	2501	760	6.2	-25.1	167	5
2023-09-25T06:00	2525	758	6.1		167	5
2023-09-25T06:00	2550	756	6.0	-24.4	167	5
2023-09-25T06:00	2574	754	6.0	-24.1	168	5
2023-09-25T06:00	2597	752	5.8	-23.6	169	5
2023-09-25T06:00	2618	750	5.7	-22.8	171	5
2023-09-25T06:00	2639	748	5.7	-23.4	174	5
2023-09-25T06:00	2661	745	5.6	-23.6	175	5
2023-09-25T06:00	2686	743	5.5	-24.5	173	5
2023-09-25T06:00	2714	741	5.4	-25.2	169	5
2023-09-25T06:00	2736	739	5.3	-24.2	163	5
2023-09-25T06:00	2764	736	5.2	-24.3	158	5
2023-09-25T06:00	2786	734	5.2	-25.5	155	5
2023-09-25T06:00	2808	732	5.1	-27.0	155	5
2023-09-25T06:00	2834	730	5.4	-35.0	155	4
2023-09-25T06:00	2856	728	5.4	-36.1	156	4
2023-09-25T06:00	2877	726	5.4	-35.0	154	4
2023-09-25T06:00	2899	724	5.3	-34.3	150	3
2023-09-25T06:00	2924	722	5.3	-37.5	145	3
2023-09-25T06:00	2950	720	5.5	-39.0	142	3
2023-09-25T06:00	2969	718	5.4	-39.0	142	4
2023-09-25T06:00	2996	716	5.3	-39.7	145	4
2023-09-25T06:00	3021	713	5.2	-39.1	149	4
2023-09-25T06:00	3044	711	5.1	-40.4	152	4
2023-09-25T06:00	3070	709	5.1	-40.4	152	5
2023-09-25T06:00	3088	707	5.0	-39.8	149	5
2023-09-25T06:00	3111	705	4.8	-38.3	146	5
2023-09-25T06:00	3139	703	4.7	-38.4	143	5
2023-09-25T06:00	3170	701	4.5	-38.0	143	5
2023-09-25T06:00	3193	698	4.3	-38.2	144	5
2023-09-25T06:00	3215	697	4.2	-38.2	144	5
2023-09-25T06:00	3239	694	4.1	-37.4	144	5
2023-09-25T06:00	3267	692	3.9	-33.4	142	5
2023-09-25T06:00	3294	690	3.6	-32.8	140	5
2023-09-25T06:00	3321	688	3.4	-32.9	139	5
2023-09-25T06:00	3345	685	3.2	-33.3	140	5
2023-09-25T06:00	3369	683	3.0	-33.7	142	5
2023-09-25T06:00	3393	681	2.9	-34.9	147	5
2023-09-25T06:00	3423	679	2.6	-35.4	151	5
2023-09-25T06:00	3449	677	2.4	-35.5	155	5
2023-09-25T06:00	3471	675	2.3	-36.3	157	5
2023-09-25T06:00	3492	673	2.2		157	4
2023-09-25T06:00	3516	671	2.1	-36.7	157	4
2023-09-25T06:00	3540	669	2.0	-35.8	156	4
2023-09-25T06:00	3570	667	1.9	-35.6	157	4
2023-09-25T06:00	3588	665	1.9	-36.2	159	4
2023-09-25T06:00	3612	663	2.0	-37.2	160	4
2023-09-25T06:00	3636	661	2.0	-38.7	160	5
2023-09-25T06:00	3661	659	1.8	-36.9	158	5
2023-09-25T06:00	3683	657	1.7	-37.7	155	5
2023-09-25T06:00	3703	656	1.6	-37.8	151	5
2023-09-25T06:00	3728	654	1.5	-37.5	147	5
2023-09-25T06:00	3749	652	1.4	-39.1	145	4
2023-09-25T06:00	3778	650	1.4	-40.5	146	4
2023-09-25T06:00	3804	648	1.4	-41.0	149	4
2023-09-25T06:00	3822	646	1.3	-40.5	153	4
2023-09-25T06:00	3846	644	1.2	-39.2	155	4
2023-09-25T06:00	3869	642	1.1	-39.7	153	4
2023-09-25T06:00	3899	640	1.0	-39.8	149	4
2023-09-25T06:00	3924	638	0.9	-40.3	142	4
2023-09-25T06:00	3950	636	0.6	-41.0	134	4
2023-09-25T06:00	3973	634	0.5	-41.5	129	4
2023-09-25T06:00	3997	632	0.5	-44.5	128	5
2023-09-25T06:00	4019	630	0.3	-45.4	130	5
2023-09-25T06:00	4039	629	0.2	-44.0	134	5
2023-09-25T06:00	4068	627	0.1	-42.3	138	6
2023-09-25T06:00	4092	625	0.0	-42.4	140	6
2023-09-25T06:00	4116	623	-0.2	-43.1	141	6
2023-09-25T06:00	4139	621	-0.4	-43.2	141	6
2023-09-25T06:00	4164	619	-0.6	-43.4	140	6
2023-09-25T06:00	4190	617	-0.8	-43.5	140	6
2023-09-25T06:00	4215	615	-0.8	-44.1	139	6
2023-09-25T06:00	4241	613	-1.0	-44.9	138	5
2023-09-25T06:00	4268	611	-1.1	-44.9	137	5
2023-09-25T06:00	4290	609	-1.2	-43.8	135	5
2023-09-25T06:00	4305	608	-1.1	-43.2	133	5
2023-09-25T06:00	4326	607	-1.2	-42.7	131	4
2023-09-25T06:00	4347	605	-1.4	-42.9	129	4
2023-09-25T06:00	4369	603	-1.5	-42.4	126	4
2023-09-25T06:00	4390	602	-1.7	-42.6	122	4
2023-09-25T06:00	4410	600	-1.7	-42.6	116	3
2023-09-25T06:00	4429	599	-1.8	-43.2	111	3
2023-09-25T06:00	4459	597	-1.8	-43.7	106	2
2023-09-25T06:00	4481	595	-1.8	-44.2	105	2
2023-09-25T06:00	4506	593	-1.9	-44.9	108	1
2023-09-25T06:00	4536	591	-2.0	-45.0	113	1
2023-09-25T06:00	4558	589	-2.1	-45.6	105	1
2023-09-25T06:00	4577	588	-2.2	-45.7	80	1
2023-09-25T06:00	4596	586	-2.3	-45.8	71	1
2023-09-25T06:00	4621	584	-2.3	-46.5	70	2
2023-09-25T06:00	4648	583	-2.1	-45.0	72	3
2023-09-25T06:00	4672	581	-2.0	-43.3	76	3
2023-09-25T06:00	4691	579	-2.0	-41.9	80	3
2023-09-25T06:00	4717	578	-2.2	-41.2	82	4
2023-09-25T06:00	4736	576	-2.3	-41.3	81	4
2023-09-25T06:00	4758	575	-2.5	-40.7	78	4
2023-09-25T06:00	4779	573	-2.7	-40.8	75	5
2023-09-25T06:00	4797	572	-2.9	-40.6	72	5
2023-09-25T06:00	4816	570	-3.1	-39.7	73	5
2023-09-25T06:00	4838	569	-3.2	-38.1	76	5
2023-09-25T06:00	4861	567	-3.4	-37.2	81	5
2023-09-25T06:00	4884	565	-3.6	-34.9	87	5
2023-09-25T06:00	4911	563	-3.8	-34.5	92	6
2023-09-25T06:00	4938	562	-4.0	-34.3	95	6
2023-09-25T06:00	4963	560	-4.2	-34.6	96	6
2023-09-25T06:00	4979	559	-4.4	-34.8	95	6
2023-09-25T06:00	4994	558	-4.5	-34.9	95	6
2023-09-25T06:00	5011	556	-4.7	-34.9	96	6
2023-09-25T06:00	5028	555	-4.8		97	6
2023-09-25T06:00	5054	553	-5.1	-34.5	99	6
2023-09-25T06:00	5078	552	-5.3	-34.4	100	6
2023-09-25T06:00	5102	550	-5.5	-34.4	99	6
2023-09-25T06:00	5118	549	-5.7	-34.3	98	6
2023-09-25T06:00	5137	548	-5.8	-33.9	97	6
2023-09-25T06:00	5155	546	-6.0	-33.5	96	6
2023-09-25T06:00	5177	545	-6.2	-33.8	97	5
2023-09-25T06:00	5202	543	-6.4	-34.4	99	5
2023-09-25T06:00	5229	541	-6.6	-34.4	101	5
2023-09-25T06:00	5250	540	-6.7	-35.2	103	5
2023-09-25T06:00	5277	538	-6.9	-35.4	104	5
2023-09-25T06:00	5293	537	-7.0	-35.4	103	5
2023-09-25T06:00	5312	535	-7.2	-35.6	102	4
2023-09-25T06:00	5333	534	-7.4	-35.8	101	4
2023-09-25T06:00	5357	532	-7.6	-35.9	100	4
2023-09-25T06:00	5381	531	-7.8	-35.8	100	4
2023-09-25T06:00	5405	529	-8.0	-35.8	100	4
2023-09-25T06:00	5424	528	-8.2	-36.1	100	4
2023-09-25T06:00	5441	526	-8.3	-35.9	101	4
2023-09-25T06:00	5470	525	-8.6	-36.2	102	4
2023-09-25T06:00	5489	523	-8.7	-36.4	103	4
2023-09-25T06:00	5509	522	-8.9	-36.4	104	4
2023-09-25T06:00	5528	521	-9.1	-36.3	108	4
2023-09-25T06:00	5552	519	-9.3	-36.2	115	4
2023-09-25T06:00	5576	517	-9.5	-36.6	121	4
2023-09-25T06:00	5610	515	-9.7	-36.4	126	4
2023-09-25T06:00	5631	514	-9.9	-36.3	127	4
2023-09-25T06:00	5650	512	-10.1	-36.2	123	4
2023-09-25T06:00	5671	511	-10.3	-36.1	117	3
2023-09-25T06:00	5697	509	-10.5	-36.2	108	3
2023-09-25T06:00	5722	508	-10.8	-36.3	100	3
2023-09-25T06:00	5754	506	-11.1	-36.3	95	2
2023-09-25T06:00	5775	504	-11.2	-36.4	94	2
2023-09-25T06:00	5800	503	-11.4	-36.5	97	2
2023-09-25T06:00	5825	501	-11.6	-36.4	101	3
2023-09-25T06:00	5853	499	-11.8	-36.1	103	3
2023-09-25T06:00	5882	497	-12.1	-35.4	102	3
2023-09-25T06:00	5901	496	-12.3	-35.1	99	3
2023-09-25T06:00	5931	494	-12.6	-35.0	94	3
2023-09-25T06:00	5959	492	-12.8	-34.5	88	3
2023-09-25T06:00	5987	490	-13.0	-34.4	85	3
2023-09-25T06:00	6013	489	-13.2	-34.4	85	3
2023-09-25T06:00	6034	487	-13.3	-34.5	89	3
2023-09-25T06:00	6056	486	-13.5	-34.8	95	3
2023-09-25T06:00	6082	484	-13.7		102	3
2023-09-25T06:00	6107	483	-13.9	-35.2	109	3
2023-09-25T06:00	6132	481	-14.2	-35.3	114	3
2023-09-25T06:00	6159	479	-14.3	-35.7	119	3
2023-09-25T06:00	6183	478	-14.5	-35.9	120	2
2023-09-25T06:00	6204	477	-14.6	-36.0	117	2
2023-09-25T06:00	6227	475	-14.8	-37.0	112	2
2023-09-25T06:00	6257	473	-14.8	-38.3	108	2
2023-09-25T06:00	6279	472	-14.9	-38.9	108	2
2023-09-25T06:00	6301	471	-15.0	-38.9	111	2
2023-09-25T06:00	6326	469	-15.1	-39.7	118	2
2023-09-25T06:00	6353	467	-15.2	-41.5	125	1
2023-09-25T06:00	6385	465	-15.4	-42.2	130	1
2023-09-25T06:00	6414	464	-15.6	-42.2	127	1
2023-09-25T06:00	6433	462	-15.7	-42.4	116	1
2023-09-25T06:00	6458	461	-15.9	-42.4	103	1
2023-09-25T06:00	6485	459	-16.1	-41.9	94	2
2023-09-25T06:00	6515	457	-16.3	-41.6	88	2
2023-09-25T06:00	6541	456	-16.5	-41.5	85	2
2023-09-25T06:00	6562	455	-16.7	-41.0	85	2
2023-09-25T06:00	6583	453	-16.8	-41.3	90	2
2023-09-25T06:00	6612	452	-16.9	-43.1	99	2
2023-09-25T06:00	6638	450	-16.9	-45.9	109	2
2023-09-25T06:00	6662	449	-17.0	-46.5	116	2
2023-09-25T06:00	6685	447	-17.1	-47.2	119	2
2023-09-25T06:00	6711	446	-17.3	-47.3	120	3
2023-09-25T06:00	6738	444	-17.5	-47.3	120	2
2023-09-25T06:00	6755	443	-17.5	-49.0	118	2
2023-09-25T06:00	6775	442	-17.6	-50.7	114	2
2023-09-25T06:00	6797	440	-17.7	-51.0	106	2
2023-09-25T06:00	6822	439	-17.9	-50.9	95	1
2023-09-25T06:00	6850	438	-18.1	-50.8	87	2
2023-09-25T06:00	6870	436	-18.3	-48.9	85	2
2023-09-25T06:00	6902	434	-18.5	-48.7	89	2
2023-09-25T06:00	6928	433	-18.7	-45.8	95	2
2023-09-25T06:00	6949	432	-18.9	-46.1	102	2
2023-09-25T06:00	6978	430	-19.2	-46.1	111	2
2023-09-25T06:00	7004	428	-19.4	-46.4	119	2
2023-09-25T06:00	7030	427	-19.5	-46.9	122	2
2023-09-25T06:00	7048	426	-19.6	-46.7	114	1
2023-09-25T06:00	7067	425	-19.8	-47.0	96	2
2023-09-25T06:00	7086	424	-19.9	-47.4	80	2
2023-09-25T06:00	7107	422	-20.0	-48.5	73	3
2023-09-25T06:00	7135	421	-20.0	-50.2	71	3
2023-09-25T06:00	7154	420	-20.1	-50.8	71	4
2023-09-25T06:00	7173	419	-20.0	-51.2	71	4
2023-09-25T06:00	7192	418	-19.9	-52.1	71	4
2023-09-25T06:00	7215	416	-19.9	-53.3	70	5
2023-09-25T06:00	7239	415	-20.1	-53.1	69	5
2023-09-25T06:00	7264	414	-20.2	-53.2	67	5
2023-09-25T06:00	7287	412	-20.3	-53.3	66	6
2023-09-25T06:00	7315	411	-20.5	-53.4	66	7
2023-09-25T06:00	7338	410	-20.6	-53.5	66	7
2023-09-25T06:00	7365	408	-20.7	-53.3	68	7
2023-09-25T06:00	7389	407	-20.9	-53.4	68	7
2023-09-25T06:00	7413	405	-20.9	-53.4	68	7
2023-09-25T06:00	7435	404	-21.0	-53.2	67	7
2023-09-25T06:00	7466	403	-21.2	-53.4	64	7
2023-09-25T06:00	7491	401	-21.2	-53.1	61	8
2023-09-25T06:00	7514	400	-21.2	-52.6	58	8
2023-09-25T06:00	7535	399	-21.3	-52.4	55	8
2023-09-25T06:00	7560	397	-21.5	-51.9	52	8
2023-09-25T06:00	7585	396	-21.6	-51.3	49	8
2023-09-25T06:00	7612	395	-21.7	-50.2	45	8
2023-09-25T06:00	7643	393	-21.9	-49.0	42	7
2023-09-25T06:00	7668	392	-22.0	-47.9	38	7
2023-09-25T06:00	7685	391	-22.1	-46.9	34	6
2023-09-25T06:00	7706	390	-22.1	-46.3	30	6
2023-09-25T06:00	7730	388	-22.2	-46.2	27	6
2023-09-25T06:00	7758	387	-22.4	-46.2	25	5
2023-09-25T06:00	7786	385	-22.6	-46.2	23	5
2023-09-25T06:00	7810	384	-22.8	-46.2	22	5
2023-09-25T06:00	7836	383	-23.0	-46.3	23	5
2023-09-25T06:00	7861	381	-23.1	-46.9	26	5
2023-09-25T06:00	7888	380	-23.1	-48.0	32	4
2023-09-25T06:00	7919	378	-23.3	-48.4	39	4
2023-09-25T06:00	7947	377	-23.5	-48.8	47	4
2023-09-25T06:00	7975	376	-23.5	-49.2	54	4
2023-09-25T06:00	8002	374	-23.2	-50.2	58	4
2023-09-25T06:00	8028	373	-23.3	-50.6	60	5
2023-09-25T06:00	8051	372	-23.5	-50.7	61	5
2023-09-25T06:00	8075	370	-23.6	-50.5	63	5
2023-09-25T06:00	8097	369	-23.8	-50.2	65	5
2023-09-25T06:00	8125	368	-24.0	-49.9	67	5
2023-09-25T06:00	8155	366	-24.3	-50.3	70	5
2023-09-25T06:00	8181	365	-24.5	-50.3	72	5
2023-09-25T06:00	8208	364	-24.7	-50.5	74	6
2023-09-25T06:00	8228	363	-24.9	-50.2	75	6
2023-09-25T06:00	8255	361	-25.1	-50.4	74	5
2023-09-25T06:00	8287	360	-25.4	-50.5	71	5
2023-09-25T06:00	8310	359	-25.6	-50.5	68	5
2023-09-25T06:00	8332	358	-25.8	-50.4	65	5
2023-09-25T06:00	8356	356	-26.1	-50.4	62	5
2023-09-25T06:00	8380	355	-26.3	-50.5	61	4
2023-09-25T06:00	8406	354	-26.5	-50.6	62	4
2023-09-25T06:00	8438	353	-26.7	-50.6	64	4
2023-09-25T06:00	8464	351	-27.0	-49.0	64	3
2023-09-25T06:00	8490	350	-27.2	-48.8	60	3
2023-09-25T06:00	8514	349	-27.4	-48.7	53	4
2023-09-25T06:00	8537	348	-27.6	-47.0	45	4
2023-09-25T06:00	8560	346	-27.8	-46.3	39	5
2023-09-25T06:00	8586	345	-28.1	-46.8	36	5
2023-09-25T06:00	8609	344	-28.3	-46.4	35	6
2023-09-25T06:00	8637	343	-28.6	-47.5	35	6
2023-09-25T06:00	8657	342	-28.8	-46.4	36	5
2023-09-25T06:00	8677	341	-29.0	-45.8	36	5
2023-09-25T06:00	8696	340	-29.2	-45.9	37	5
2023-09-25T06:00	8718	339	-29.4	-46.0	36	5
2023-09-25T06:00	8741	338	-29.6	-46.2	36	5
2023-09-25T06:00	8761	337	-29.8	-46.7	35	5
2023-09-25T06:00	8785	336	-30.1	-46.0	35	5
2023-09-25T06:00	8808	335	-30.3	-46.6	34	5
2023-09-25T06:00	8834	333	-30.5	-46.8	34	5
2023-09-25T06:00	8866	332	-30.8	-46.3	33	5
2023-09-25T06:00	8898	330	-31.1	-45.8	33	5
2023-09-25T06:00	8934	329	-31.4	-46.0	33	6
2023-09-25T06:00	8956	328	-31.6	-46.0	33	6
2023-09-25T06:00	8976	327	-31.8	-45.7	33	6
2023-09-25T06:00	9010	325	-32.0	-45.9	32	6
2023-09-25T06:00	9039	324	-32.3	-46.9	31	6
2023-09-25T06:00	9061	323	-32.4	-46.8	30	6
2023-09-25T06:00	9083	322	-32.7	-46.8	29	6
2023-09-25T06:00	9106	321	-32.9	-46.8	29	6
2023-09-25T06:00	9126	320	-33.1	-46.9	28	6
2023-09-25T06:00	9148	319	-33.3	-46.6	28	6
2023-09-25T06:00	9174	318	-33.5	-46.6	27	6
2023-09-25T06:00	9199	317	-33.8	-46.7	26	6
2023-09-25T06:00	9226	315	-34.0	-46.7	25	6
2023-09-25T06:00	9251	314	-34.3	-46.8	23	6
2023-09-25T06:00	9272	313	-34.5	-46.7	21	6
2023-09-25T06:00	9306	312	-34.8	-46.7	19	6
2023-09-25T06:00	9332	311	-35.1	-47.0	19	6
2023-09-25T06:00	9355	310	-35.3	-46.9	20	6
2023-09-25T06:00	9382	308	-35.5	-46.9	21	7
2023-09-25T06:00	9406	307	-35.8	-47.0	23	7
2023-09-25T06:00	9430	306	-36.0	-47.2	23	7
2023-09-25T06:00	9453	305	-36.2	-47.1	23	7
2023-09-25T06:00	9481	304	-36.5	-47.3	22	7
2023-09-25T06:00	9506	303	-36.8	-47.3	20	7
2023-09-25T06:00	9527	302	-36.9	-47.2	19	7
2023-09-25T06:00	9551	301	-37.2	-46.9	18	7
2023-09-25T06:00	9576	300	-37.4	-47.0	17	7
2023-09-25T06:00	9598	299	-37.5	-47.2	17	7
2023-09-25T06:00	9622	298	-37.8	-47.3	16	7
2023-09-25T06:00	9644	297	-37.9	-47.6	15	7
2023-09-25T06:00	9667	296	-38.2	-47.7	14	7
2023-09-25T06:00	9692	295	-38.4	-47.6	13	7
2023-09-25T06:00	9717	294	-38.6	-47.5	14	6
2023-09-25T06:00	9742	293	-38.9	-47.7	15	6
2023-09-25T06:00	9765	292	-39.1	-47.8	16	6
2023-09-25T06:00	9789	291	-39.3	-47.9	18	6
2023-09-25T06:00	9810	290	-39.5	-48.6	18	6
2023-09-25T06:00	9832	289	-39.6	-48.6	18	6
2023-09-25T06:00	9851	288	-39.8	-49.2	17	6
2023-09-25T06:00	9872	287	-39.7	-51.3	15	6
2023-09-25T06:00	9895	286	-39.6	-53.4	13	6
2023-09-25T06:00	9920	285	-39.7	-52.5	11	6
2023-09-25T06:00	9941	284	-39.9	-52.4	9	7
2023-09-25T06:00	9963	283	-40.1	-52.6	8	7
2023-09-25T06:00	9984	283	-40.3	-52.6	8	7
2023-09-25T06:00	10005	282	-40.4	-52.5	7	7
2023-09-25T06:00	10029	281	-40.6	-52.5	6	7
2023-09-25T06:00	10052	280	-40.8	-53.0	5	8
2023-09-25T06:00	10077	279	-41.0	-52.9	4	8
2023-09-25T06:00	10110	277	-41.3	-52.9	3	9
2023-09-25T06:00	10139	276	-41.5	-53.1	2	9
2023-09-25T06:00	10160	275	-41.7	-53.2	0	9
2023-09-25T06:00	10184	274	-41.9	-53.0	359	10
2023-09-25T06:00	10206	274	-41.8	-52.7	358	10
2023-09-25T06:00	10228	273	-41.9	-52.8	358	10
2023-09-25T06:00	10247	272	-42.0	-53.5	358	10
2023-09-25T06:00	10268	271	-42.0	-54.7	359	10
2023-09-25T06:00	10291	270	-42.0	-55.3	359	10
2023-09-25T06:00	10312	269	-42.2	-55.4	358	10
2023-09-25T06:00	10331	269	-42.2	-55.3	357	10
2023-09-25T06:00	10350	268	-42.3	-55.1	356	10
2023-09-25T06:00	10371	267	-42.5	-55.3	355	10
2023-09-25T06:00	10391	266	-42.5	-55.5	355	10
2023-09-25T06:00	10412	265	-42.5	-55.2	355	10
2023-09-25T06:00	10433	265	-42.7	-55.4	356	10
2023-09-25T06:00	10455	264	-42.9	-55.5	357	10
2023-09-25T06:00	10478	263	-43.1	-55.9	357	10
2023-09-25T06:00	10502	262	-43.2	-56.0	358	10
2023-09-25T06:00	10524	261	-43.4	-55.9	359	10
2023-09-25T06:00	10546	260	-43.6	-55.7	359	10
2023-09-25T06:00	10564	259	-43.8	-55.6	0	10
2023-09-25T06:00	10584	259	-44.0	-55.4	1	10
2023-09-25T06:00	10601	258	-44.2	-55.5	1	10
2023-09-25T06:00	10621	257	-44.3	-56.0	2	10
2023-09-25T06:00	10640	256	-44.4	-56.2	2	10
2023-09-25T06:00	10660	256	-44.6	-56.4	3	9
2023-09-25T06:00	10679	255	-44.7	-56.8	3	9
2023-09-25T06:00	10697	254	-44.8	-57.3	3	9
2023-09-25T06:00	10716	254	-45.0	-57.8	3	9
2023-09-25T06:00	10736	253	-45.1	-58.5	3	9
2023-09-25T06:00	10758	252	-45.2	-59.0	3	9
2023-09-25T06:00	10775	251	-45.3	-59.2	3	9
2023-09-25T06:00	10798	251	-45.4	-59.1	4	9
2023-09-25T06:00	10819	250	-45.6	-59.2	5	9
2023-09-25T06:00	10841	249	-45.8	-59.4	7	9
2023-09-25T06:00	10862	248	-46.0	-59.4	8	9
2023-09-25T06:00	10882	247	-46.1	-59.3	10	9
2023-09-25T06:00	10904	247	-46.2	-59.2	11	9
2023-09-25T06:00	10923	246	-46.4	-59.3	11	9
2023-09-25T06:00	10944	245	-46.6	-59.6	11	9
2023-09-25T06:00	10963	244	-46.8	-59.6	12	9
2023-09-25T06:00	10984	244	-46.9	-59.3	12	9
2023-09-25T06:00	11004	243	-47.1	-59.5	13	9
2023-09-25T06:00	11024	242	-47.3	-60.3	14	9
2023-09-25T06:00	11043	241	-47.4	-60.7	15	9
2023-09-25T06:00	11064	241	-47.6	-61.1	14	9
2023-09-25T06:00	11085	240	-47.7	-61.4	14	9
2023-09-25T06:00	11107	239	-47.9	-61.5	13	9
2023-09-25T06:00	11127	238	-48.0	-61.3	11	9
2023-09-25T06:00	11149	238	-48.2	-61.2	9	10
2023-09-25T06:00	11173	237	-48.3	-61.1	6	10
2023-09-25T06:00	11202	236	-48.6	-61.3	2	10
2023-09-25T06:00	11228	235	-48.7	-61.5	358	11
2023-09-25T06:00	11261	234	-48.9	-61.8	354	11
2023-09-25T06:00	11290	233	-49.0	-62.0	350	12
2023-09-25T06:00	11316	232	-49.3	-62.0	348	12
2023-09-25T06:00	11344	231	-49.5	-61.8	345	13
2023-09-25T06:00	11378	229	-49.9	-61.9	342	13
2023-09-25T06:00	11401	229	-50.1	-62.2	339	14
2023-09-25T06:00	11431	228	-50.1	-62.5	336	15
2023-09-25T06:00	11457	227	-50.3	-62.7	334	16
2023-09-25T06:00	11487	226	-50.5	-62.8	332	17
2023-09-25T06:00	11511	225	-50.7	-63.0	331	17
2023-09-25T06:00	11531	224	-50.9	-63.1	331	17
2023-09-25T06:00	11552	223	-51.0	-63.0	331	17
2023-09-25T06:00	11573	223	-51.1	-63.2	332	16
2023-09-25T06:00	11596	222	-51.1	-63.4	333	16
2023-09-25T06:00	11618	221	-51.2	-63.5	334	16
2023-09-25T06:00	11643	220	-51.3	-63.5	334	15
2023-09-25T06:00	11670	219	-51.6	-63.6	335	15
2023-09-25T06:00	11693	219	-51.8	-63.7	336	15
2023-09-25T06:00	11714	218	-52.0	-63.8	337	15
2023-09-25T06:00	11733	217	-52.1	-63.7	338	15
2023-09-25T06:00	11755	216	-52.3	-63.6	339	15
2023-09-25T06:00	11777	216	-52.5	-63.7	340	15
2023-09-25T06:00	11798	215	-52.7	-63.7	341	15
2023-09-25T06:00	11816	214	-52.9	-63.8	342	15
2023-09-25T06:00	11837	214	-53.0	-63.7	342	15
2023-09-25T06:00	11857	213	-53.2	-63.8	343	15
2023-09-25T06:00	11878	212	-53.4	-63.9	344	15
2023-09-25T06:00	11901	212	-53.4	-63.9	344	15
2023-09-25T06:00	11920	211	-53.5	-64.0	345	15
2023-09-25T06:00	11943	210	-53.7	-64.2	346	15
2023-09-25T06:00	11962	210	-53.9	-64.4	347	15
2023-09-25T06:00	11983	209	-54.0	-64.6	347	15
2023-09-25T06:00	12006	208	-54.0	-64.8	348	15
2023-09-25T06:00	12026	208	-54.2	-65.0	349	15
2023-09-25T06:00	12047	207	-54.3	-65.0	349	15
2023-09-25T06:00	12067	206	-54.5	-65.0	349	15
2023-09-25T06:00	12089	206	-54.6	-65.0	350	15
2023-09-25T06:00	12111	205	-54.8	-65.0	351	15
2023-09-25T06:00	12133	204	-55.0	-65.1	351	15
2023-09-25T06:00	12154	203	-55.1	-65.3	352	14
2023-09-25T06:00	12173	203	-55.2	-65.6	352	14
2023-09-25T06:00	12197	202	-55.3	-66.2	352	14
2023-09-25T06:00	12220	201	-55.4	-67.0	351	14
2023-09-25T06:00	12239	201	-55.4	-67.6	351	14
2023-09-25T06:00	12260	200	-55.5	-68.0	351	14
2023-09-25T06:00	12281	199	-55.7	-68.3	350	14
2023-09-25T06:00	12306	199	-55.9	-68.4	350	14
2023-09-25T06:00	12327	198	-56.0	-68.4	350	13
2023-09-25T06:00	12350	197	-56.2	-68.7	349	13
2023-09-25T06:00	12370	197	-56.3	-69.1	349	13
2023-09-25T06:00	12391	196	-56.4	-69.5	349	13
2023-09-25T06:00	12411	195	-56.6	-69.7	348	13
2023-09-25T06:00	12434	195	-56.7	-69.6	347	13
2023-09-25T06:00	12457	194	-56.9	-69.6	346	14
2023-09-25T06:00	12481	193	-57.1	-69.8	345	14
2023-09-25T06:00	12501	193	-57.1	-69.8	345	14
2023-09-25T06:00	12524	192	-57.2	-69.9	345	14
2023-09-25T06:00	12546	191	-57.4	-70.0	344	14
2023-09-25T06:00	12569	191	-57.6	-70.2	344	15
2023-09-25T06:00	12590	190	-57.7	-70.3	343	15
2023-09-25T06:00	12611	189	-57.9	-70.4	343	15
2023-09-25T06:00	12632	189	-58.0	-70.4	342	15
2023-09-25T06:00	12654	188	-58.1	-70.5	342	15
2023-09-25T06:00	12675	187	-58.2	-70.6	342	15
2023-09-25T06:00	12698	187	-58.3	-70.6	342	15
2023-09-25T06:00	12717	186	-58.5	-70.8	341	14
2023-09-25T06:00	12739	185	-58.6	-70.8	341	14
2023-09-25T06:00	12761	185	-58.7	-70.8	340	14
2023-09-25T06:00	12783	184	-58.8	-70.8	340	14
2023-09-25T06:00	12808	184	-59.0	-70.9	339	14
2023-09-25T06:00	12827	183	-59.2	-71.0	338	15
2023-09-25T06:00	12845	182	-59.4	-71.0	338	15
2023-09-25T06:00	12867	182	-59.5	-71.0	338	15
2023-09-25T06:00	12891	181	-59.7	-71.0	337	15
2023-09-25T06:00	12912	180	-59.9	-71.1	337	15
2023-09-25T06:00	12932	180	-60.1	-71.1	337	15
2023-09-25T06:00	12955	179	-60.2	-71.1	337	15
2023-09-25T06:00	12976	179	-60.4	-71.1	337	15
2023-09-25T06:00	12996	178	-60.6	-71.2	337	15
2023-09-25T06:00	13016	177	-60.8	-71.2	336	15
2023-09-25T06:00	13039	177	-61.0	-71.3	336	15
2023-09-25T06:00	13058	176	-61.1	-71.4	335	15
2023-09-25T06:00	13079	176	-61.2	-71.5	334	15
2023-09-25T06:00	13100	175	-61.3	-71.5	333	15
2023-09-25T06:00	13118	175	-61.5	-71.6	333	15
2023-09-25T06:00	13141	174	-61.7	-71.7	333	15
2023-09-25T06:00	13159	173	-61.8	-71.7	333	16
2023-09-25T06:00	13179	173	-62.0	-71.8	333	16
2023-09-25T06:00	13202	172	-62.1	-71.8	332	16
2023-09-25T06:00	13223	172	-62.1	-71.7	332	16
2023-09-25T06:00	13244	171	-62.3	-71.9	332	17
2023-09-25T06:00	13265	170	-62.4	-72.0	331	17
2023-09-25T06:00	13286	170	-62.5	-72.2	331	18
2023-09-25T06:00	13308	169	-62.1	-72.0	332	18
2023-09-25T06:00	13328	169	-61.8	-71.8	332	19
2023-09-25T06:00	13347	168	-61.7	-71.6	333	19
2023-09-25T06:00	13367	168	-61.7	-71.5	334	19
2023-09-25T06:00	13389	167	-61.8	-71.6	335	19
2023-09-25T06:00	13410	167	-61.7	-71.9	336	19
2023-09-25T06:00	13435	166	-61.4	-72.3	337	19
2023-09-25T06:00	13458	165	-61.2	-73.1	337	18
2023-09-25T06:00	13477	165	-60.6	-73.5	337	18
2023-09-25T06:00	13502	164	-60.4	-74.3	335	18
2023-09-25T06:00	13526	163	-60.2	-75.1	333	19
2023-09-25T06:00	13552	163	-59.8	-75.7	331	19
2023-09-25T06:00	13580	162	-59.6	-76.3	330	20
2023-09-25T06:00	13602	161	-59.5	-77.0	330	21
2023-09-25T06:00	13626	161	-59.5	-77.5	330	21
2023-09-25T06:00	13648	160	-59.3	-77.8	330	20
2023-09-25T06:00	13669	160	-59.2	-78.2	331	20
2023-09-25T06:00	13691	159	-59.0	-78.5	332	19
2023-09-25T06:00	13712	159	-58.9	-78.8	333	19
2023-09-25T06:00	13734	158	-58.5	-79.0	334	18
2023-09-25T06:00	13755	158	-58.1	-79.0	335	18
2023-09-25T06:00	13774	157	-58.0	-79.2	336	18
2023-09-25T06:00	13797	157	-58.1	-79.3	336	18
2023-09-25T06:00	13816	156	-58.2	-79.3	336	18
2023-09-25T06:00	13840	155	-58.3	-79.1	336	18
2023-09-25T06:00	13863	155	-58.4	-79.0	335	18
2023-09-25T06:00	13885	154	-58.6	-79.2	335	18
2023-09-25T06:00	13906	154	-58.8	-79.3	335	19
2023-09-25T06:00	13930	153	-58.9	-79.4	336	18
2023-09-25T06:00	13947	153	-59.1	-79.7	336	18
2023-09-25T06:00	13971	152	-59.2	-79.9	337	18
2023-09-25T06:00	13993	152	-59.2	-80.1	337	18
2023-09-25T06:00	14015	151	-59.3	-80.3	337	18
2023-09-25T06:00	14036	151	-59.4	-80.4	337	18
2023-09-25T06:00	14057	150	-59.5	-80.4	337	17
2023-09-25T06:00	14079	150	-59.7	-80.5	338	17
2023-09-25T06:00	14102	149	-59.8	-80.3	339	17
2023-09-25T06:00	14126	149	-59.9	-80.2	340	16
2023-09-25T06:00	14146	148	-60.1	-80.2	341	16
2023-09-25T06:00	14169	148	-60.3	-80.2	341	16
2023-09-25T06:00	14193	147	-60.5	-80.1	341	16
2023-09-25T06:00	14214	146	-60.7	-80.1	341	16
2023-09-25T06:00	14236	146	-60.9	-80.0	340	16
2023-09-25T06:00	14259	145	-61.1	-80.0	340	16
2023-09-25T06:00	14280	145	-61.3	-80.0	340	16
2023-09-25T06:00	14303	144	-61.5	-79.9	340	16
2023-09-25T06:00	14322	144	-61.7	-80.0	340	16
2023-09-25T06:00	14345	143	-61.8	-80.1	340	16
2023-09-25T06:00	14366	143	-62.0	-80.1	341	16
2023-09-25T06:00	14390	142	-62.2	-80.3	342	15
2023-09-25T06:00	14413	142	-62.2	-80.3	343	15
2023-09-25T06:00	14436	141	-62.4	-80.6	344	15
2023-09-25T06:00	14458	141	-62.2	-80.5	344	14
2023-09-25T06:00	14479	140	-62.1	-80.5	344	14
2023-09-25T06:00	14501	140	-62.1	-80.5	343	14
2023-09-25T06:00	14522	139	-62.1	-80.5	342	14
2023-09-25T06:00	14545	139	-62.2	-80.6	341	14
2023-09-25T06:00	14566	138	-62.3	-80.7	339	13
2023-09-25T06:00	14588	138	-62.5	-80.8	336	13
2023-09-25T06:00	14609	137	-62.6	-80.8	333	13
2023-09-25T06:00	14631	137	-62.7	-81.0	330	14
2023-09-25T06:00	14653	136	-62.6	-81.1	329	14
2023-09-25T06:00	14672	136	-62.4	-81.3	328	14
2023-09-25T06:00	14689	136	-62.0	-81.3	328	14
2023-09-25T06:00	14709	135	-61.8	-81.4	329	15
2023-09-25T06:00	14729	135	-61.9	-81.8	330	14
2023-09-25T06:00	14750	134	-61.8	-81.9	331	14
2023-09-25T06:00	14772	134	-61.8	-82.1	333	14
2023-09-25T06:00	14792	133	-61.9	-82.3	333	13
2023-09-25T06:00	14814	133	-61.9	-82.4	334	12
2023-09-25T06:00	14835	132	-61.8	-82.5	333	11
2023-09-25T06:00	14857	132	-61.5	-82.5	332	11
2023-09-25T06:00	14876	132	-61.2	-82.6	330	10
2023-09-25T06:00	14893	131	-61.2	-82.7	329	9
2023-09-25T06:00	14919	131	-61.2	-82.9	329	9
2023-09-25T06:00	14938	130	-61.3	-82.9	329	8
2023-09-25T06:00	14961	130	-61.4	-83.2	329	8
2023-09-25T06:00	14980	129	-61.4	-83.0	330	8
2023-09-25T06:00	15001	129	-61.4	-83.0	331	8
2023-09-25T06:00	15021	129	-61.5	-83.0	332	8
2023-09-25T06:00	15040	128	-61.6	-83.0	333	8
2023-09-25T06:00	15060	128	-61.7	-83.0	334	8
2023-09-25T06:00	15083	127	-61.6	-82.9	334	8
2023-09-25T06:00	15101	127	-61.7		335	7
2023-09-25T06:00	15127	126	-61.9	-82.8	335	7
2023-09-25T06:00	15148	126	-62.1	-82.8	335	6
2023-09-25T06:00	15173	125	-62.3	-82.9	334	6
2023-09-25T06:00	15194	125	-62.5	-82.9	333	6
2023-09-25T06:00	15218	125	-62.7	-82.9	331	6
2023-09-25T06:00	15240	124	-63.0	-83.0	329	6
2023-09-25T06:00	15260	124	-63.1	-82.9	327	6
2023-09-25T06:00	15283	123	-63.3	-82.9	325	6
2023-09-25T06:00	15304	123	-63.5	-83.0	324	6
2023-09-25T06:00	15327	122	-63.7	-83.0	323	6
2023-09-25T06:00	15346	122	-63.9	-83.1	323	6
2023-09-25T06:00	15367	122	-64.0	-83.1	324	7
2023-09-25T06:00	15389	121	-64.0	-83.0	324	7
2023-09-25T06:00	15409	121	-64.2	-83.2	324	7
2023-09-25T06:00	15431	120	-64.3	-83.2	324	7
2023-09-25T06:00	15453	120	-64.4	-83.3	322	8
2023-09-25T06:00	15475	119	-64.6	-83.3	320	8
2023-09-25T06:00	15496	119	-64.6	-83.4	318	8
2023-09-25T06:00	15518	119	-64.7	-83.5	315	8
2023-09-25T06:00	15538	118	-64.7	-83.7	312	8
2023-09-25T06:00	15562	118	-64.6	-83.9	309	9
2023-09-25T06:00	15584	117	-64.1	-83.7	305	9
2023-09-25T06:00	15605	117	-63.8	-83.7	302	9
2023-09-25T06:00	15627	116	-63.7	-83.7	299	10
2023-09-25T06:00	15649	116	-63.8	-84.0	297	10
2023-09-25T06:00	15670	116	-63.9	-84.0	296	11
2023-09-25T06:00	15693	115	-63.9	-84.0	295	12
2023-09-25T06:00	15716	115	-64.0	-84.1	296	12
2023-09-25T06:00	15740	114	-64.0	-84.0	297	12
2023-09-25T06:00	15762	114	-63.9	-84.0	299	12
2023-09-25T06:00	15785	113	-64.0	-84.1	301	12
2023-09-25T06:00	15809	113	-63.9	-84.2	304	12
2023-09-25T06:00	15828	113	-63.8	-84.2	307	12
2023-09-25T06:00	15849	112	-63.7	-84.3	310	11
2023-09-25T06:00	15870	112	-63.6	-84.4	313	11
2023-09-25T06:00	15894	112	-63.5	-84.4	316	11
2023-09-25T06:00	15916	111	-63.1	-84.2	318	11
2023-09-25T06:00	15936	111	-62.9	-84.2	319	11
2023-09-25T06:00	15960	110	-62.7	-84.2	320	11
2023-09-25T06:00	15979	110	-62.6	-84.3	320	11
2023-09-25T06:00	15999	110	-62.5	-84.2	320	11
2023-09-25T06:00	16018	109	-62.6	-84.5	321	11
2023-09-25T06:00	16040	109	-62.6	-84.5	321	11
2023-09-25T06:00	16063	109	-62.6	-84.5	321	10
2023-09-25T06:00	16085	108	-62.6	-84.7	322	9
2023-09-25T06:00	16105	108	-62.4	-84.5	323	9
2023-09-25T06:00	16129	107	-62.3	-84.4	324	8
2023-09-25T06:00	16150	107	-62.5	-84.6	325	7
2023-09-25T06:00	16166	107	-62.6	-84.8	326	7
2023-09-25T06:00	16185	106	-62.5	-84.8	327	7
2023-09-25T06:00	16205	106	-62.3	-84.6	326	6
2023-09-25T06:00	16226	106	-62.2	-84.7	325	6
2023-09-25T06:00	16243	105	-62.3	-84.8	323	6
2023-09-25T06:00	16264	105	-62.4	-84.9	319	5
2023-09-25T06:00	16285	105	-62.4	-84.9	315	5
2023-09-25T06:00	16306	104	-62.4	-84.9	311	5
2023-09-25T06:00	16324	104	-62.5	-84.8	308	5
2023-09-25T06:00	16346	104	-62.6	-84.8	306	6
2023-09-25T06:00	16368	103	-62.7	-84.9	305	6
2023-09-25T06:00	16386	103	-62.6	-84.8	304	6
2023-09-25T06:00	16407	103	-62.6	-84.8	303	7
2023-09-25T06:00	16428	102	-62.7	-84.9	302	7
2023-09-25T06:00	16448	102	-62.8	-85.0	302	7
2023-09-25T06:00	16468	102	-62.9	-85.1	303	7
2023-09-25T06:00	16487	101	-63.0	-85.3	304	7
2023-09-25T06:00	16507	101	-62.9	-85.5	305	7
2023-09-25T06:00	16528	101	-62.7	-85.3	306	7
2023-09-25T06:00	16550	100	-62.5	-85.3	306	7
2023-09-25T06:00	16569	100	-62.2	-85.3	306	7
2023-09-25T06:00	16591	100	-62.0	-85.3	306	7
2023-09-25T06:00	16613	99	-62.0	-85.3	307	8
2023-09-25T06:00	16632	99	-62.0	-85.3	309	8
2023-09-25T06:00	16656	99	-62.1	-85.4	311	8
2023-09-25T06:00	16676	98	-62.2	-85.5	313	9
2023-09-25T06:00	16698	98	-62.2	-85.3	315	9
2023-09-25T06:00	16723	97	-62.2	-85.3	317	9
2023-09-25T06:00	16746	97	-62.2	-85.3	319	8
2023-09-25T06:00	16770	97	-62.3	-85.4	320	8
2023-09-25T06:00	16795	96	-62.2	-85.3	322	7
2023-09-25T06:00	16816	96	-62.1	-85.2	324	7
2023-09-25T06:00	16841	96	-61.8	-85.2	325	6
2023-09-25T06:00	16864	95	-61.8	-85.2	325	6
2023-09-25T06:00	16889	95	-62.0	-85.3	325	6
2023-09-25T06:00	16913	95	-62.3	-85.6	323	5
2023-09-25T06:00	16938	94	-62.3	-85.4	320	5
2023-09-25T06:00	16961	94	-62.3	-85.4	318	5
2023-09-25T06:00	16984	93	-62.4	-85.5	315	5
2023-09-25T06:00	17010	93	-62.5	-85.5	314	5
2023-09-25T06:00	17035	93	-62.7	-85.7	312	5
2023-09-25T06:00	17058	92	-62.8	-85.8	311	5
2023-09-25T06:00	17083	92	-62.9	-85.8	311	5
2023-09-25T06:00	17108	92	-63.0	-85.9	312	5
2023-09-25T06:00	17134	91	-63.0	-86.1	313	5
2023-09-25T06:00	17155	91	-62.6	-86.0	314	5
2023-09-25T06:00	17180	91	-62.3	-86.0	316	4
2023-09-25T06:00	17208	90	-62.4	-86.3	318	3
2023-09-25T06:00	17230	90	-62.3	-86.5	318	3
2023-09-25T06:00	17251	89	-61.5	-86.1	314	2
2023-09-25T06:00	17275	89	-61.5	-86.4	304	2
2023-09-25T06:00	17298	89	-61.6	-86.5	292	1
2023-09-25T06:00	17323	88	-61.7	-86.3	284	2
2023-09-25T06:00	17340	88	-61.9	-86.4	281	2
2023-09-25T06:00	17368	88	-62.0	-86.5	280	2
2023-09-25T06:00	17390	88	-62.1	-86.3	278	2
2023-09-25T06:00	17411	87	-62.3	-86.5	276	2
2023-09-25T06:00	17435	87	-62.4	-86.6	273	2
2023-09-25T06:00	17460	87	-62.5		272	3
2023-09-25T06:00	17483	86	-62.6	-86.5	271	3
2023-09-25T06:00	17509	86	-62.9	-86.5	272	3
2023-09-25T06:00	17533	86	-63.0	-86.6	271	3
2023-09-25T06:00	17551	85	-63.0	-86.6	267	2
2023-09-25T06:00	17576	85	-63.1	-86.9	255	2
2023-09-25T06:00	17598	85	-63.1	-86.9	237	2
2023-09-25T06:00	17618	84	-62.9	-87.0	221	2
2023-09-25T06:00	17644	84	-62.4	-86.8	213	3
2023-09-25T06:00	17665	84	-61.9	-86.7	211	4
2023-09-25T06:00	17690	83	-61.4	-86.6	212	4
2023-09-25T06:00	17712	83	-61.3	-86.8	214	5
2023-09-25T06:00	17736	83	-61.3	-86.8	217	5
2023-09-25T06:00	17757	82	-61.3	-86.8	220	6
2023-09-25T06:00	17778	82	-61.4	-86.9	224	6
2023-09-25T06:00	17801	82	-61.5	-86.7	228	6
2023-09-25T06:00	17827	82	-61.6	-86.7	233	6
2023-09-25T06:00	17847	81	-61.8	-86.9	238	6
2023-09-25T06:00	17870	81	-61.9	-87.0	244	6
2023-09-25T06:00	17888	81	-61.9	-87.0	250	6
2023-09-25T06:00	17915	80	-61.9	-87.0	256	6
2023-09-25T06:00	17936	80	-62.0	-87.1	262	6
2023-09-25T06:00	17953	80	-62.0	-87.1	268	6
2023-09-25T06:00	17980	80	-62.1	-87.1	273	6
2023-09-25T06:00	17999	79	-62.1	-87.1	276	7
2023-09-25T06:00	18022	79	-62.2	-87.2	280	7
2023-09-25T06:00	18046	79	-62.2	-86.9	282	8
2023-09-25T06:00	18064	78	-62.3	-87.0	285	8
2023-09-25T06:00	18090	78	-62.5	-87.2	288	9
2023-09-25T06:00	18113	78	-62.6	-87.2	291	10
2023-09-25T06:00	18134	78	-62.7	-87.3	295	10
2023-09-25T06:00	18156	77	-62.8	-87.4	298	10
2023-09-25T06:00	18180	77	-62.8	-87.4	300	10
2023-09-25T06:00	18202	77	-62.5	-87.4	303	10
2023-09-25T06:00	18227	76	-62.2	-87.5	306	10
2023-09-25T06:00	18246	76	-62.2	-87.5	309	9
2023-09-25T06:00	18268	76	-62.1	-87.7	311	8
2023-09-25T06:00	18290	76	-61.8	-87.5	314	8
2023-09-25T06:00	18316	75	-61.6	-87.7	317	7
2023-09-25T06:00	18342	75	-61.3	-87.4	320	7
2023-09-25T06:00	18363	75	-61.1	-87.6	323	6
2023-09-25T06:00	18390	74	-61.2	-87.7	326	6
2023-09-25T06:00	18411	74	-61.1	-87.6	330	6
2023-09-25T06:00	18439	74	-61.1	-87.3	332	5
2023-09-25T06:00	18462	74	-61.3	-87.4	334	5
2023-09-25T06:00	18487	73	-61.5	-87.3	336	5
2023-09-25T06:00	18509	73	-61.6	-87.3	337	5
2023-09-25T06:00	18535	73	-61.7	-87.4	339	4
2023-09-25T06:00	18560	72	-61.8	-87.5	340	4
2023-09-25T06:00	18583	72	-61.9	-87.3	340	4
2023-09-25T06:00	18607	72	-62.0	-87.3	338	3
2023-09-25T06:00	18632	72	-62.2	-87.5	336	3
2023-09-25T06:00	18654	71	-62.3	-87.6	333	3
2023-09-25T06:00	18678	71	-62.4	-87.7	331	3
2023-09-25T06:00	18702	71	-62.4	-87.7	329	2
2023-09-25T06:00	18728	70	-62.3		322	2
2023-09-25T06:00	18752	70	-62.1	-87.7	303	1
2023-09-25T06:00	18776	70	-62.0	-87.6	262	1
2023-09-25T06:00	18803	70	-61.9	-87.9	235	1
2023-09-25T06:00	18823	69	-61.9	-87.9	229	2
2023-09-25T06:00	18851	69	-62.0	-88.0	230	3
2023-09-25T06:00	18874	69	-62.0	-87.6	234	3
2023-09-25T06:00	18898	69	-62.1	-87.7	238	4
2023-09-25T06:00	18921	68	-62.2	-87.8	241	5
2023-09-25T06:00	18942	68	-62.3		244	5
2023-09-25T06:00	18968	68	-62.3		246	5
2023-09-25T06:00	18990	68	-62.2	-87.8	247	5
2023-09-25T06:00	19015	67	-62.1	-87.7	250	5
2023-09-25T06:00	19033	67	-61.9	-87.9	253	4
2023-09-25T06:00	19061	67	-61.9	-87.9	256	4
2023-09-25T06:00	19081	67	-61.9	-87.9	257	4
2023-09-25T06:00	19101	66	-61.8	-87.8	255	3
2023-09-25T06:00	19126	66	-61.7	-88.1	252	3
2023-09-25T06:00	19149	66	-61.6	-88.0	247	3
2023-09-25T06:00	19171	66	-61.6	-88.0	243	4
2023-09-25T06:00	19192	65	-61.5	-87.6	238	4
2023-09-25T06:00	19215	65	-61.6	-87.7	233	4
2023-09-25T06:00	19232	65	-61.7	-87.7	227	4
2023-09-25T06:00	19259	65	-61.8	-87.5	223	4
2023-09-25T06:00	19280	64	-62.0	-87.6	220	4
2023-09-25T06:00	19303	64	-62.1	-87.7	218	3
2023-09-25T06:00	19325	64	-62.3	-87.6	219	3
2023-09-25T06:00	19351	64	-62.4	-87.7	220	3
2023-09-25T06:00	19376	63	-62.5	-87.7	224	2
2023-09-25T06:00	19395	63	-62.4	-87.7	230	2
2023-09-25T06:00	19419	63	-62.5	-87.7	242	1
2023-09-25T06:00	19445	63	-62.6	-87.8	258	1
2023-09-25T06:00	19468	63	-62.7	-88.2	273	1
2023-09-25T06:00	19490	62	-62.6	-88.1	281	1
2023-09-25T06:00	19512	62	-62.5	-88.0	284	2
2023-09-25T06:00	19533	62	-62.4	-88.0	285	2
2023-09-25T06:00	19562	62	-62.3		285	2
2023-09-25T06:00	19581	61	-62.3		283	2
2023-09-25T06:00	19601	61	-62.3		279	2
2023-09-25T06:00	19624	61	-62.4	-88.0	275	3
2023-09-25T06:00	19648	61	-62.3		272	3
2023-09-25T06:00	19672	60	-62.2	-87.8	271	4
2023-09-25T06:00	19696	60	-62.4	-88.0	272	4
2023-09-25T06:00	19720	60	-62.5	-88.4	274	4
2023-09-25T06:00	19740	60	-62.3	-88.2	277	5
2023-09-25T06:00	19757	60	-61.9	-87.9	280	5
2023-09-25T06:00	19784	59	-61.8	-88.2	282	5
2023-09-25T06:00	19809	59	-61.8	-88.2	284	5
2023-09-25T06:00	19829	59	-61.7	-88.1	285	5
2023-09-25T06:00	19856	59	-61.7	-88.1	285	4
2023-09-25T06:00	19873	59	-61.6	-88.0	284	4
2023-09-25T06:00	19897	58	-61.6	-88.0	284	4
2023-09-25T06:00	19920	58	-61.4	-87.8	286	4
2023-09-25T06:00	19948	58	-61.3	-87.8	289	5
2023-09-25T06:00	19973	58	-61.3	-88.1	292	5
2023-09-25T06:00	19996	57	-61.1	-88.0	296	6
2023-09-25T06:00	20020	57	-60.9	-87.8	300	6
2023-09-25T06:00	20042	57	-60.6	-87.6	303	6
2023-09-25T06:00	20066	57	-60.5	-87.9	305	5
2023-09-25T06:00	20091	57	-60.1	-87.6	305	5
2023-09-25T06:00	20122	56	-59.9	-87.9	304	5
2023-09-25T06:00	20144	56	-59.6	-87.6	302	6
2023-09-25T06:00	20167	56	-59.5	-87.6	299	6
2023-09-25T06:00	20190	56	-59.4	-87.5	295	6
2023-09-25T06:00	20215	55	-59.4	-87.1	290	5
2023-09-25T06:00	20242	55	-59.6	-87.2	285	5
2023-09-25T06:00	20269	55	-59.7	-87.3	281	6
2023-09-25T06:00	20290	55	-59.6	-87.2	279	6
2023-09-25T06:00	20316	55	-59.6	-87.2	278	7
2023-09-25T06:00	20340	54	-59.5	-87.1	278	7
2023-09-25T06:00	20366	54	-59.1	-87.3	278	8
2023-09-25T06:00	20394	54	-58.9	-87.1	278	8
2023-09-25T06:00	20418	54	-59.0	-87.2	278	8
2023-09-25T06:00	20442	53	-59.1	-86.8	278	9
2023-09-25T06:00	20468	53	-59.3	-87.0	278	9
2023-09-25T06:00	20489	53	-59.4	-87.1	279	9
2023-09-25T06:00	20513	53	-59.6	-87.2	282	9
2023-09-25T06:00	20539	53	-59.5	-87.1	284	9
2023-09-25T06:00	20563	52	-59.3	-87.0	287	9
2023-09-25T06:00	20592	52	-58.8	-87.0	289	9
2023-09-25T06:00	20613	52	-58.6	-86.9	291	9
2023-09-25T06:00	20636	52	-58.7	-87.0	292	8
2023-09-25T06:00	20658	52	-58.8	-87.5	294	8
2023-09-25T06:00	20683	51	-58.3	-87.1	295	7
2023-09-25T06:00	20701	51	-57.5	-87.0	298	6
2023-09-25T06:00	20733	51	-57.4	-86.9	301	6
2023-09-25T06:00	20754	51	-57.4	-86.9	305	5
2023-09-25T06:00	20778	51	-57.2	-86.8	308	5
2023-09-25T06:00	20800	50	-56.6	-86.3	310	4
2023-09-25T06:00	20824	50	-56.3	-86.1	309	4
2023-09-25T06:00	20853	50	-56.3	-86.1	307	4
2023-09-25T06:00	20873	50	-56.2	-86.0	303	4
2023-09-25T06:00	20902	50	-56.1	-86.0	299	4
2023-09-25T06:00	20926	50	-56.2	-86.0	297	4
2023-09-25T06:00	20951	49	-56.2	-86.0	296	4
2023-09-25T06:00	20981	49	-56.1	-86.0	296	3
2023-09-25T06:00	21003	49	-56.1	-86.0	298	3
2023-09-25T06:00	21033	49	-55.9	-85.8	302	2
2023-09-25T06:00	21058	48	-55.9	-85.8	314	1
2023-09-25T06:00	21086	48	-55.9	-85.8	341	1
2023-09-25T06:00	21113	48	-55.9	-85.8	12	1
2023-09-25T06:00	21142	48	-56.0		29	1
2023-09-25T06:00	21170	48	-56.2	-85.5	37	1
2023-09-25T06:00	21203	47	-56.5	-85.8	41	2
2023-09-25T06:00	21234	47	-56.8	-86.0	45	2
2023-09-25T06:00	21266	47	-57.0	-85.7	50	2
2023-09-25T06:00	21294	47	-57.2	-85.8	56	2
2023-09-25T06:00	21319	47	-57.4	-86.0	67	3
2023-09-25T06:00	21350	46	-57.5	-86.1	80	3
2023-09-25T06:00	21377	46	-57.6	-86.1	95	3
2023-09-25T06:00	21409	46	-57.7	-86.2	111	3
2023-09-25T06:00	21438	46	-57.7	-86.2	124	4
2023-09-25T06:00	21470	45	-57.9	-86.4	134	4
2023-09-25T06:00	21499	45	-57.9	-86.4	141	5
2023-09-25T06:00	21524	45	-57.8	-86.3	145	5
2023-09-25T06:00	21558	45	-57.6	-86.1	148	6
2023-09-25T06:00	21580	45	-57.8	-86.3	151	6
2023-09-25T06:00	21610	44	-58.0	-86.4	155	6
2023-09-25T06:00	21634	44	-58.2	-86.6	159	6
2023-09-25T06:00	21664	44	-58.4	-86.3	164	5
2023-09-25T06:00	21693	44	-58.6	-86.5	169	5
2023-09-25T06:00	21717	44	-58.8	-86.6	173	5
2023-09-25T06:00	21748	43	-58.9	-86.3	175	5
2023-09-25T06:00	21780	43	-59.1	-86.5	178	5
2023-09-25T06:00	21803	43	-59.3	-86.6	181	6
2023-09-25T06:00	21828	43	-59.5	-86.8	185	6
2023-09-25T06:00	21856	43	-59.7	-86.9	191	6
2023-09-25T06:00	21885	43	-59.9	-87.1	196	6
2023-09-25T06:00	21917	42	-60.0	-87.1	200	7
2023-09-25T06:00	21936	42	-60.2	-87.3	203	7
2023-09-25T06:00	21962	42	-60.2	-87.3	206	7
2023-09-25T06:00	21988	42	-60.1	-87.2	207	7
2023-09-25T06:00	22018	42	-60.1	-87.2	208	7
2023-09-25T06:00	22040	41	-60.2	-87.3	208	7
2023-09-25T06:00	22067	41	-60.4	-87.4	209	7
2023-09-25T06:00	22091	41	-60.5	-87.5	210	8
2023-09-25T06:00	22116	41	-60.6	-87.2	212	8
2023-09-25T06:00	22142	41	-60.8	-87.4	216	8
2023-09-25T06:00	22165	41	-61.0	-87.5	220	8
2023-09-25T06:00	22191	40	-61.2	-87.7	224	9
2023-09-25T06:00	22220	40	-61.1	-88.0	228	9
2023-09-25T06:00	22239	40	-60.8	-87.7	230	9
2023-09-25T06:00	22262	40	-60.6	-88.0	233	9
2023-09-25T06:00	22291	40	-60.4	-87.8	235	9
2023-09-25T06:00	22312	40	-60.2	-87.7	237	9
2023-09-25T06:00	22335	40	-60.1	-87.6	239	8
2023-09-25T06:00	22365	39	-60.2	-87.7	241	8
2023-09-25T06:00	22387	39	-60.4	-87.8	244	8
2023-09-25T06:00	22417	39	-60.3	-87.8	247	8
2023-09-25T06:00	22436	39	-60.1	-87.6	250	8
2023-09-25T06:00	22460	39	-60.0	-87.5	254	8
2023-09-25T06:00	22484	39	-60.0	-87.5	259	8
2023-09-25T06:00	22509	38	-60.0	-87.9	264	8
2023-09-25T06:00	22528	38	-60.0	-87.9	269	8
2023-09-25T06:00	22554	38	-59.8	-88.2	274	8
2023-09-25T06:00	22578	38	-59.2	-87.8	278	8
2023-09-25T06:00	22597	38	-58.8	-88.0	282	8
2023-09-25T06:00	22623	38	-58.3	-87.6	284	7
2023-09-25T06:00	22650	38	-58.0	-87.4	285	6
2023-09-25T06:00	22671	37	-57.8	-87.2	286	5
2023-09-25T06:00	22697	37	-57.6	-87.1	287	4
2023-09-25T06:00	22726	37	-57.5	-87.0	289	4
2023-09-25T06:00	22744	37	-57.5	-87.0	293	3
2023-09-25T06:00	22768	37	-57.5	-86.5	298	2
2023-09-25T06:00	22805	37	-57.7	-86.7	303	2
2023-09-25T06:00	22827	37	-57.9	-86.8	309	2
2023-09-25T06:00	22853	36	-58.0	-86.4	315	1
2023-09-25T06:00	22878	36	-58.2	-86.6	327	1
2023-09-25T06:00	22908	36	-58.4	-86.7	348	1
2023-09-25T06:00	22939	36	-58.5	-86.8	11	1
2023-09-25T06:00	22961	36	-58.6	-86.9	12	1
2023-09-25T06:00	22988	36	-58.6	-86.9	358	1
2023-09-25T06:00	23015	36	-58.4	-87.2	341	1
2023-09-25T06:00	23040	35	-58.3	-87.1	328	1
2023-09-25T06:00	23065	35	-58.3	-87.1	316	1
2023-09-25T06:00	23092	35	-58.3	-87.1	306	2
2023-09-25T06:00	23121	35	-58.4	-87.2	296	2
2023-09-25T06:00	23149	35	-58.4	-87.2	287	2
2023-09-25T06:00	23178	35	-58.4	-87.2	281	2
2023-09-25T06:00	23196	34	-58.5	-87.3	278	3
2023-09-25T06:00	23229	34	-58.6	-87.3	276	3
2023-09-25T06:00	23250	34	-58.6	-87.3	276	3
2023-09-25T06:00	23278	34	-58.5	-87.3	275	3
2023-09-25T06:00	23300	34	-58.5	-87.3	273	2
2023-09-25T06:00	23336	34	-58.4	-87.2	266	2
2023-09-25T06:00	23354	34	-58.3	-87.1	255	2
2023-09-25T06:00	23382	33	-58.1	-87.4	243	2
2023-09-25T06:00	23415	33	-57.9	-87.3	237	2
2023-09-25T06:00	23435	33	-57.8	-87.2	236	2
2023-09-25T06:00	23464	33	-57.8	-87.2	242	2
2023-09-25T06:00	23488	33	-57.9	-87.3	251	2
2023-09-25T06:00	23513	33	-57.8	-87.2	261	2
2023-09-25T06:00	23544	33	-57.8	-86.7	267	2
2023-09-25T06:00	23569	33	-58.0	-86.9	266	2
2023-09-25T06:00	23595	32	-57.9	-86.8	257	2
2023-09-25T06:00	23621	32	-57.5	-87.0	246	3
2023-09-25T06:00	23650	32	-57.5	-86.5	237	3
2023-09-25T06:00	23675	32	-57.6	-86.6	233	4
2023-09-25T06:00	23703	32	-57.8	-86.7	231	4
2023-09-25T06:00	23732	32	-57.9	-86.8	232	4
2023-09-25T06:00	23769	32	-58.2	-86.6	235	5
2023-09-25T06:00	23785	31	-58.4	-86.7	239	5
2023-09-25T06:00	23817	31	-58.6	-86.9	244	6
2023-09-25T06:00	23846	31	-58.8	-87.0	249	7
2023-09-25T06:00	23871	31	-58.9	-87.1	254	7
2023-09-25T06:00	23898	31	-58.9	-87.1	258	8
2023-09-25T06:00	23931	31	-58.8	-87.0	262	8
2023-09-25T06:00	23960	31	-58.6	-87.3	265	8
2023-09-25T06:00	23989	30	-58.5	-87.3	269	8
2023-09-25T06:00	24016	30	-58.7	-87.4	273	8
2023-09-25T06:00	24044	30	-58.8	-87.5	276	8
2023-09-25T06:00	24076	30	-58.7	-87.4	280	8
2023-09-25T06:00	24106	30	-58.6	-87.3	282	7
2023-09-25T06:00	24142	30	-58.4	-87.2	285	7
2023-09-25T06:00	24163	30	-58.4	-87.2	287	6
2023-09-25T06:00	24196	29	-58.3	-87.1	288	6
2023-09-25T06:00	24221	29	-58.2	-87.0	289	5
2023-09-25T06:00	24252	29	-58.3	-87.1	288	5
2023-09-25T06:00	24288	29	-58.5	-87.3	286	5
2023-09-25T06:00	24308	29	-58.5	-87.3	283	5
2023-09-25T06:00	24332	29	-58.2	-87.0	282	6
2023-09-25T06:00	24360	29	-58.2	-87.0	282	6
2023-09-25T06:00	24391	29	-58.3	-87.1	281	7
2023-09-25T06:00	24415	28	-58.5	-87.3	281	7
2023-09-25T06:00	24436	28	-58.6	-87.3	281	8
2023-09-25T06:00	24473	28	-58.7	-87.4	280	8
2023-09-25T06:00	24489	28	-58.7	-87.4	280	8
2023-09-25T06:00	24523	28	-58.7	-87.4	280	7
2023-09-25T06:00	24536	28	-58.4	-87.7	280	7
2023-09-25T06:00	24572	28	-57.8	-87.2	281	7
2023-09-25T06:00	24593	28	-57.5	-87.0	282	7
2023-09-25T06:00	24610	28	-57.5	-87.0	282	7
2023-09-25T06:00	24638	27	-57.5	-87.0	284	7
2023-09-25T06:00	24664	27	-57.5	-87.0	284	7
2023-09-25T06:00	24686	27	-57.5	-87.0	285	6
2023-09-25T06:00	24712	27	-57.5	-87.0	284	6
2023-09-25T06:00	24738	27	-57.3	-86.9	281	5
2023-09-25T06:00	24758	27	-57.2	-86.8	276	5
2023-09-25T06:00	24787	27	-57.0	-87.2	268	4
2023-09-25T06:00	24804	27	-56.8	-87.0	257	4
2023-09-25T06:00	24829	27	-56.8	-87.0	244	4
2023-09-25T06:00	24859	27	-56.9	-86.6	233	4
2023-09-25T06:00	24884	26	-57.0	-86.6	225	4
2023-09-25T06:00	24909	26	-57.0	-86.6	223	4
2023-09-25T06:00	24937	26	-56.9	-86.6	224	5
2023-09-25T06:00	24966	26	-56.8	-86.5	228	5
2023-09-25T06:00	24998	26	-56.9	-86.6	234	5
2023-09-25T06:00	25017	26	-57.0	-86.6	238	5
2023-09-25T06:00	25046	26	-57.0	-86.6	241	5
2023-09-25T06:00	25076	26	-56.9	-86.6	240	5
2023-09-25T06:00	25108	26	-56.7	-86.4	236	5
2023-09-25T06:00	25131	25	-56.6	-86.3	230	6
2023-09-25T06:00	25153	25	-56.6	-86.3	223	7
2023-09-25T06:00	25188	25	-56.7	-86.4	217	7
2023-09-25T06:00	25217	25	-56.6	-86.3	213	8
2023-09-25T06:00	25243	25	-56.7	-86.4	210	8
2023-09-25T06:00	25267	25	-56.8	-86.5	209	8
2023-09-25T06:00	25298	25	-56.9	-86.6	208	8
2023-09-25T06:00	25325	25	-56.7	-86.4	208	8
2023-09-25T06:00	25348	25	-56.8	-86.5	209	8
2023-09-25T06:00	25388	24	-56.9	-86.6	210	7
2023-09-25T06:00	25415	24	-56.9	-86.6	212	6
2023-09-25T06:00	25443	24	-56.6	-86.3	214	6
2023-09-25T06:00	25470	24	-56.5	-86.3	216	5
2023-09-25T06:00	25506	24	-56.6	-86.3	219	4
2023-09-25T06:00	25538	24	-56.7	-86.4	222	4
2023-09-25T06:00	25565	24	-56.8	-86.5	226	3
2023-09-25T06:00	25591	24	-56.8	-86.5	229	3
2023-09-25T06:00	25619	24	-56.8	-86.5	232	2
2023-09-25T06:00	25649	23	-56.8	-86.5	234	2
2023-09-25T06:00	25680	23	-56.8	-86.5	232	2
2023-09-25T06:00	25707	23	-56.9	-86.6	223	2
2023-09-25T06:00	25739	23	-57.0	-86.6	211	2
2023-09-25T06:00	25761	23	-57.0	-86.6	202	3
2023-09-25T06:00	25794	23	-57.0	-86.6	198	3
2023-09-25T06:00	25827	23	-57.1	-86.7	196	4
2023-09-25T06:00	25843	23	-57.2	-86.8	196	5
2023-09-25T06:00	25877	23	-57.2	-86.8	198	5
2023-09-25T06:00	25910	22	-57.3	-86.9	200	6
2023-09-25T06:00	25935	22	-57.3	-86.9	202	6
2023-09-25T06:00	25967	22	-57.2	-86.8	205	5
2023-09-25T06:00	25993	22	-57.2	-86.8	207	5
2023-09-25T06:00	26021	22	-57.1	-86.7	210	5
2023-09-25T06:00	26046	22	-57.3	-86.9	214	5
2023-09-25T06:00	26071	22	-57.5	-87.0	217	5
2023-09-25T06:00	26098	22	-57.5	-87.0	220	5
2023-09-25T06:00	26126	22	-57.6	-87.1	224	6
2023-09-25T06:00	26146	22	-57.7	-87.2	227	7
2023-09-25T06:00	26173	22	-57.8	-87.2	230	8
2023-09-25T06:00	26213	21	-57.8	-87.2	233	8
2023-09-25T06:00	26231	21	-57.8	-87.2	236	9
2023-09-25T06:00	26259	21	-57.8	-87.2	239	9
2023-09-25T06:00	26288	21	-57.7	-87.2	243	9
2023-09-25T06:00	26315	21	-57.5	-87.0	246	8
2023-09-25T06:00	26332	21	-57.3	-86.9	250	8
2023-09-25T06:00	26364	21	-57.2	-86.8	254	7
2023-09-25T06:00	26388	21	-57.3	-86.9	257	7
2023-09-25T06:00	26410	21	-57.4	-86.9	260	7
2023-09-25T06:00	26433	21	-57.3	-87.4	262	8
2023-09-25T06:00	26457	21	-57.0	-87.2	264	8
2023-09-25T06:00	26498	21	-56.8	-87.0	266	9
2023-09-25T06:00	26504	20	-56.6	-86.9	269	9
2023-09-25T06:00	26544	20	-56.5	-86.8	271	8
2023-09-25T06:00	26565	20	-56.4		274	8
2023-09-25T06:00	26590	20	-56.2	-86.6	277	7
2023-09-25T06:00	26620	20	-56.2	-86.6	282	6
2023-09-25T06:00	26641	20	-56.3	-86.6	287	5
2023-09-25T06:00	26663	20	-56.4		291	5
2023-09-25T06:00	26682	20	-56.5	-86.8	291	4
2023-09-25T06:00	26707	20	-56.4		287	5
2023-09-25T06:00	26734	20	-56.2	-86.6	281	5
2023-09-25T06:00	26754	20	-56.1	-86.5	275	6
2023-09-25T06:00	26798	20	-56.2	-86.6	270	7
2023-09-25T06:00	26822	19	-56.4		267	7
2023-09-25T06:00	26847	19	-56.5	-86.8	264	7
2023-09-25T06:00	26880	19	-56.5	-86.8	262	7
2023-09-25T06:00	26898	19	-56.3	-86.6	260	7
2023-09-25T06:00	26928	19	-55.9	-86.3	259	7
2023-09-25T06:00	26963	19	-55.8	-86.3	258	6
2023-09-25T06:00	26992	19	-55.9	-86.3	257	6
2023-09-25T06:00	27026	19	-56.0	-86.4	257	6
2023-09-25T06:00	27045	19	-55.9	-86.3	258	6
2023-09-25T06:00	27076	19	-55.8	-86.3	260	7
2023-09-25T06:00	27104	19	-55.7	-86.2	263	8
2023-09-25T06:00	27129	19	-55.7	-86.2	265	9
2023-09-25T06:00	27160	18	-55.7	-86.2	268	10
2023-09-25T06:00	27193	18	-55.8	-86.3	270	10
2023-09-25T06:00	27220	18	-55.8	-86.3	272	11
2023-09-25T06:00	27241	18	-55.7	-86.2	274	11
2023-09-25T06:00	27273	18	-55.6	-86.1	275	11
2023-09-25T06:00	27306	18	-55.5	-86.1	276	11
2023-09-25T06:00	27330	18	-55.4	-86.0	277	11
2023-09-25T06:00	27355	18	-55.4	-86.6	277	10
2023-09-25T06:00	27375	18	-55.2	-86.4	277	10
2023-09-25T06:00	27404	18	-55.0	-86.3	276	9
2023-09-25T06:00	27440	18	-54.9	-86.2	274	9
2023-09-25T06:00	27465	18	-54.9	-86.2	271	9
2023-09-25T06:00	27498	18	-55.0	-86.3	267	9
2023-09-25T06:00	27517	17	-55.0	-86.3	262	9
2023-09-25T06:00	27557	17	-55.0	-85.7	259	9
2023-09-25T06:00	27572	17	-55.0	-85.7	257	9
2023-09-25T06:00	27605	17	-55.1	-85.8	256	8
2023-09-25T06:00	27637	17	-55.2	-85.8	257	8
2023-09-25T06:00	27675	17	-55.2	-85.8	258	8
2023-09-25T06:00	27702	17	-55.3	-85.9	260	8
2023-09-25T06:00	27727	17	-55.4	-86.0	261	8
2023-09-25T06:00	27760	17	-55.5	-86.1	260	7
2023-09-25T06:00	27788	17	-55.5	-86.1	259	7
2023-09-25T06:00	27805	17	-55.5	-86.1	257	7
2023-09-25T06:00	27848	17	-55.5	-86.1	255	7
2023-09-25T06:00	27866	16	-55.5	-86.1	254	7
2023-09-25T06:00	27900	16	-55.5	-86.1	255	7
2023-09-25T06:00	27939	16	-55.7	-86.2	256	7
2023-09-25T06:00	27962	16	-55.9	-86.3	257	7
2023-09-25T06:00	27990	16	-56.1	-86.5	258	7
2023-09-25T06:00	28028	16	-56.1	-86.5	259	8
2023-09-25T06:00	28072	16	-56.2	-86.6	261	9
2023-09-25T06:00	28082	16	-56.1	-86.5	263	10
2023-09-25T06:00	28117	16	-56.1	-86.5	265	10
2023-09-25T06:00	28138	16	-56.0	-86.4	267	11
2023-09-25T06:00	28178	16	-55.9	-86.3	269	11
2023-09-25T06:00	28206	16	-55.8	-86.3	270	12
2023-09-25T06:00	28232	16	-55.8	-86.9	270	13
2023-09-25T06:00	28258	16	-55.7	-86.8	271	13
2023-09-25T06:00	28286	15	-55.6	-86.7	272	14
2023-09-25T06:00	28315	15	-55.2	-86.4	275	14
2023-09-25T06:00	28359	15	-54.7	-86.1	278	14
2023-09-25T06:00	28382	15	-54.5	-86.6	281	15
2023-09-25T06:00	28404	15	-54.4	-86.5	285	15
2023-09-25T06:00	28428	15	-54.5	-85.9	288	15
2023-09-25T06:00	28464	15	-54.5	-85.9	290	15
2023-09-25T06:00	28496	15	-54.6	-86.0	292	15
2023-09-25T06:00	28522	15	-54.7	-86.1	292	15
2023-09-25T06:00	28554	15	-54.7	-86.1	292	15
2023-09-25T06:00	28586	15	-54.5	-85.9	291	15
2023-09-25T06:00	28611	15	-54.4	-85.8	291	14
2023-09-25T06:00	28642	15	-54.2	-85.7	291	14
2023-09-25T06:00	28673	15	-54.0	-86.2	292	14
2023-09-25T06:00	28700	15	-53.8	-86.1	293	15
2023-09-25T06:00	28723	14	-53.6	-85.3	294	15
2023-09-25T06:00	28748	14	-53.7	-85.3	295	15
2023-09-25T06:00	28783	14	-53.9	-85.5	296	15
2023-09-25T06:00	28802	14	-54.2	-85.7	296	14
2023-09-25T06:00	28829	14	-54.4	-85.2	295	14
2023-09-25T06:00	28857	14	-54.5	-85.3	294	14
2023-09-25T06:00	28893	14	-54.6	-85.4	293	14
2023-09-25T06:00	28909	14	-54.6	-85.4	292	14
2023-09-25T06:00	28938	14	-54.7	-85.5	292	14
2023-09-25T06:00	28972	14	-54.8	-85.5	291	14
2023-09-25T06:00	28998	14	-54.9	-86.2	291	14
2023-09-25T06:00	29036	14	-54.7	-86.1	291	15
2023-09-25T06:00	29063	14	-54.3	-85.8	291	15
2023-09-25T06:00	29084	14	-54.1	-86.3	292	16
2023-09-25T06:00	29124	14	-53.9	-86.2	293	16
2023-09-25T06:00	29141	14	-53.7	-86.0	294	16
2023-09-25T06:00	29175	13	-53.4	-86.5	296	16
2023-09-25T06:00	29208	13	-52.9	-86.2	298	16
2023-09-25T06:00	29239	13	-52.3	-85.8	299	15
2023-09-25T06:00	29268	13	-51.7	-85.3	300	15
2023-09-25T06:00	29292	13	-51.4	-85.1	300	15
2023-09-25T06:00	29323	13	-51.2	-85.0	300	15
2023-09-25T06:00	29368	13	-51.2	-85.0	300	15
2023-09-25T06:00	29388	13	-51.3	-85.0	301	15
2023-09-25T06:00	29402	13	-51.4	-85.1	302	15
2023-09-25T06:00	29439	13	-51.4	-85.1	303	14
2023-09-25T06:00	29473	13	-51.2	-84.2	305	14
2023-09-25T06:00	29501	13	-51.1	-84.1	307	13
2023-09-25T06:00	29537	13	-51.2	-84.2	308	13
2023-09-25T06:00	29564	13	-51.4	-84.3	309	12
2023-09-25T06:00	29579	13	-51.5	-84.4	311	11
2023-09-25T06:00	29629	13	-51.5	-84.4	312	10
2023-09-25T06:00	29653	13	-51.4	-84.3	313	9
2023-09-25T06:00	29676	12	-51.2	-84.2	314	9
2023-09-25T06:00	29718	12	-51.0	-84.0	315	8
2023-09-25T06:00	29735	12	-50.9	-84.0	315	8
2023-09-25T06:00	29771	12	-51.0	-84.0	315	8
2023-09-25T06:00	29804	12	-51.1	-84.1	314	8
2023-09-25T06:00	29830	12	-51.3	-84.3	314	9
2023-09-25T06:00	29880	12	-51.4	-84.3	313	9
2023-09-25T06:00	29898	12	-51.6	-84.5	311	10
2023-09-25T06:00	29917	12	-51.7	-84.5	310	10
2023-09-25T06:00	29955	12	-51.8	-84.6	309	11
2023-09-25T06:00	29992	12	-51.8	-84.6	308	11
2023-09-25T06:00	30011	12	-51.9	-84.7	308	11
2023-09-25T06:00	30041	12	-51.9	-84.7	307	11
2023-09-25T06:00	30065	12	-51.9	-84.7	307	10
2023-09-25T06:00	30092	12	-51.8	-84.6	307	9
2023-09-25T06:00	30112	12	-51.7	-84.5	305	8
2023-09-25T06:00	30151	12	-51.6	-84.5	303	7
2023-09-25T06:00	30195	12	-51.7	-84.5	298	6
2023-09-25T06:00	30218	11	-51.6	-84.5	292	5
2023-09-25T06:00	30233	11	-51.5	-84.4	285	5
2023-09-25T06:00	30268	11	-51.6	-84.5	281	4
2023-09-25T06:00	30304	11	-51.4	-85.1	280	5
2023-09-25T06:00	30325	11	-51.1	-84.9	280	5
2023-09-25T06:00	30354	11	-50.9	-84.7	279	5
2023-09-25T06:00	30388	11	-50.8	-84.7	276	5
2023-09-25T06:00	30414	11	-50.5	-84.5	271	5
2023-09-25T06:00	30444	11	-50.1	-84.2	264	5
2023-09-25T06:00	30481	11	-49.9	-84.0	258	6
2023-09-25T06:00	30510	11	-50.0	-84.1	254	6
2023-09-25T06:00	30537	11	-50.1	-84.2	251	7
2023-09-25T06:00	30564	11	-50.3	-84.3	249	7
2023-09-25T06:00	30584	11	-50.5	-83.7	247	8
2023-09-25T06:00	30628	11	-50.7	-83.8	246	8
2023-09-25T06:00	30652	11	-50.8	-83.9	245	9
2023-09-25T06:00	30689	11	-51.0	-84.0	246	9
2023-09-25T06:00	30722	11	-51.1	-84.1	247	10
2023-09-25T06:00	30741	11	-51.2	-84.2	249	10
2023-09-25T06:00	30779	11	-51.1	-84.1	250	10
2023-09-25T06:00	30806	11	-50.8	-83.9	251	9
2023-09-25T06:00	30841	10	-50.7	-83.8	252	9
2023-09-25T06:00	30863	10	-50.8	-83.9	252	8
2023-09-25T06:00	30896	10	-50.9	-84.0	252	8
2023-09-25T06:00	30923	10	-51.1	-84.1	252	8
2023-09-25T06:00	30957	10	-51.3	-84.3	252	8
2023-09-25T06:00	30984	10	-51.3	-84.3	252	8
2023-09-25T06:00	31008	10	-51.3	-84.3	253	8
2023-09-25T06:00	31044	10	-51.1	-84.9	253	9
2023-09-25T06:00	31065	10	-50.8	-84.7	253	10
2023-09-25T06:00	31099	10	-50.6	-84.5	253	11
2023-09-25T06:00	31126	10	-50.4	-84.4	254	12
2023-09-25T06:00	31152	10	-50.3	-84.3	254	13
2023-09-25T06:00	31203	10	-50.2	-84.2	256	13
2023-09-25T06:00	31225	10	-50.2	-84.2	259	13
2023-09-25T06:00	31238	10	-50.1	-84.2	263	13
2023-09-25T06:00	31264	10	-50.0	-84.1	268	13
2023-09-25T06:00	31306	10	-50.0	-84.1	273	13
2023-09-25T06:00	31323	10	-49.9	-84.0	277	13
2023-09-25T06:00	31350	10	-49.7	-83.9	281	13
2023-09-25T06:00	31399	10	-49.5	-83.7	284	13
2023-09-25T06:00	31403	10	-49.2	-83.5	286	12
2023-09-25T06:00	31442	10	-49.2	-83.5	287	12
2023-09-25T06:00	31470	9	-49.3	-83.6	289	11
2023-09-25T06:00	31487	9	-49.3	-83.6	290	11
2023-09-25T06:00	31529	9	-49.3	-83.6	292	10
2023-09-25T06:00	31567	9	-49.4	-83.7	294	9
2023-09-25T06:00	31603	9	-49.5	-83.7	296	9
2023-09-25T06:00	31623	9	-49.7	-83.9	299	8
2023-09-25T06:00	31626	9	-49.9	-84.0	300	8
2023-09-25T06:00	31649	9	-50.0	-84.1	300	8
2023-09-25T12:00	-999					
2023-09-25T12:00	134	1011	18.5	9.5	122	3
2023-09-25T12:00	159	1008	18.3	9.4	124	4
2023-09-25T12:00	184	1006	18.1	9.3	125	6
2023-09-25T12:00	205	1003	17.9	9.3	125	6
2023-09-25T12:00	233	1000	17.6	9.3	126	6
2023-09-25T12:00	260	997	17.3	9.2	125	6
2023-09-25T12:00	280	994	17.1	9.2	124	5
2023-09-25T12:00	307	991	16.9	9.1	124	5
2023-09-25T12:00	334	988	16.8	9.2	126	4
2023-09-25T12:00	357	986	16.5	9.0	132	5
2023-09-25T12:00	377	983	16.3	9.1	137	5
2023-09-25T12:00	393	981	16.1	9.1	141	6
2023-09-25T12:00	418	978	15.8	8.9	142	6
2023-09-25T12:00	444	975	15.6	8.9	141	6
2023-09-25T12:00	466	973	15.4	8.9	138	6
2023-09-25T12:00	496	969	15.1		136	6
2023-09-25T12:00	523	966	14.8		134	6
2023-09-25T12:00	547	964	14.6	8.7	133	7
2023-09-25T12:00	567	961	14.4	8.7	132	7
2023-09-25T12:00	593	958	14.2	8.6	132	7
2023-09-25T12:00	617	956	13.9	8.6	131	7
2023-09-25T12:00	645	952	13.7	8.5	131	7
2023-09-25T12:00	672	949	13.4	8.4	131	7
2023-09-25T12:00	696	947	13.2	8.4	132	7
2023-09-25T12:00	715	944	13.0	8.5	132	7
2023-09-25T12:00	743	942	12.7	8.4	132	7
2023-09-25T12:00	772	938	12.4	8.3	132	6
2023-09-25T12:00	802	935	12.2	8.3	133	6
2023-09-25T12:00	830	932	12.0	8.3	133	6
2023-09-25T12:00	862	928	11.7	8.3	134	6
2023-09-25T12:00	891	925	11.4	8.3	134	6
2023-09-25T12:00	921	922	11.1	8.2	136	7
2023-09-25T12:00	949	918	10.8	8.2	137	7
2023-09-25T12:00	981	915	10.5	8.0	139	7
2023-09-25T12:00	1011	912	10.2	7.9	142	7
2023-09-25T12:00	1038	909	9.9	7.9	146	6
2023-09-25T12:00	1061	906	9.7	7.9	149	6
2023-09-25T12:00	1091	903	9.4	7.7	152	6
2023-09-25T12:00	1120	900	9.1	7.7	153	6
2023-09-25T12:00	1147	897	8.9	7.6	152	7
2023-09-25T12:00	1178	894	8.6	7.4	151	7
2023-09-25T12:00	1207	891	8.3	7.5	149	7
2023-09-25T12:00	1233	888	8.0	7.3	148	8
2023-09-25T12:00	1260	885	7.8	7.3	147	8
2023-09-25T12:00	1291	881	7.8	6.4	147	8
2023-09-25T12:00	1317	879	7.5	6.4	147	8
2023-09-25T12:00	1347	876	7.3	6.4	147	8
2023-09-25T12:00	1372	873	7.2	6.4	147	8
2023-09-25T12:00	1392	871	7.1	6.3	148	8
2023-09-25T12:00	1416	868	7.0	5.9	150	8
2023-09-25T12:00	1440	866	7.1		152	8
2023-09-25T12:00	1460	864	7.1	5.2	156	8
2023-09-25T12:00	1480	861	6.9	5.2	159	9
2023-09-25T12:00	1505	859	6.9	4.9	161	9
2023-09-25T12:00	1526	857	7.0	4.8	161	10
2023-09-25T12:00	1552	854	7.3	5.4	160	11
2023-09-25T12:00	1572	852	7.4	5.7	159	12
2023-09-25T12:00	1596	850	7.4	5.8	158	12
2023-09-25T12:00	1619	847	7.1	5.7	156	12
2023-09-25T12:00	1644	844	6.9	5.6	155	12
2023-09-25T12:00	1672	842	6.7	5.6	154	12
2023-09-25T12:00	1698	839	6.4	5.6	153	13
2023-09-25T12:00	1722	837	6.2	5.6	153	13
2023-09-25T12:00	1748	834	5.9	5.5	154	13
2023-09-25T12:00	1770	832	5.7	5.4	154	13
2023-09-25T12:00	1792	829	5.5	5.4	154	12
2023-09-25T12:00	1820	827	5.4	5.3	154	11
2023-09-25T12:00	1845	824	7.5	4.8	154	9
2023-09-25T12:00	1870	822	9.6	3.8	154	8
2023-09-25T12:00	1893	819	9.8	4.1	155	7
2023-09-25T12:00	1922	817	9.6	3.8	157	6
2023-09-25T12:00	1953	814	9.6	3.4	160	6
2023-09-25T12:00	1979	811	9.5	3.4	163	6
2023-09-25T12:00	2002	809	9.3	3.4	166	6
2023-09-25T12:00	2028	806	9.1	3.4	168	5
2023-09-25T12:00	2064	803	8.8	3.1	169	5
2023-09-25T12:00	2089	800	8.6	3.1	169	5
2023-09-25T12:00	2112	798	8.4	2.8	168	4
2023-09-25T12:00	2136	796	8.3	2.6	167	4
2023-09-25T12:00	2158	794	8.1	2.3	164	4
2023-09-25T12:00	2180	791	8.1	1.8	159	5
2023-09-25T12:00	2200	789	8.1	1.7	154	5
2023-09-25T12:00	2222	787	8.0	1.8	150	5
2023-09-25T12:00	2243	785	7.8	1.6	149	5
2023-09-25T12:00	2267	783	7.7		149	4
2023-09-25T12:00	2293	781	7.6	1.4	151	4
2023-09-25T12:00	2321	778	7.6	1.2	153	5
2023-09-25T12:00	2347	776	7.4	1.0	154	5
2023-09-25T12:00	2374	773	7.2	1.1	154	5
2023-09-25T12:00	2398	771	7.0	1.0	154	5
2023-09-25T12:00	2426	768	6.7	0.9	156	5
2023-09-25T12:00	2453	766	6.5	0.9	159	5
2023-09-25T12:00	2480	763	6.3	0.9	163	5
2023-09-25T12:00	2506	761	6.1	0.9	166	5
2023-09-25T12:00	2539	758	5.9	0.8	167	5
2023-09-25T12:00	2563	755	5.7	0.8	166	5
2023-09-25T12:00	2590	753	5.5	0.6	163	5
2023-09-25T12:00	2615	751	5.3	0.4	158	5
2023-09-25T12:00	2644	748	5.0	0.2	154	5
2023-09-25T12:00	2664	746	4.9	0.3	151	5
2023-09-25T12:00	2682	744	4.7	0.2	150	5
2023-09-25T12:00	2704	743	4.5	0.2	153	5
2023-09-25T12:00	2727	740	4.4	0.3	158	5
2023-09-25T12:00	2750	738	4.2	0.1	166	4
2023-09-25T12:00	2773	736	3.9	0.2	174	4
2023-09-25T12:00	2793	735	3.8	0.1	180	4
2023-09-25T12:00	2811	733	3.6	0.2	181	4
2023-09-25T12:00	2834	731	3.4	0.1	180	5
2023-09-25T12:00	2856	729	3.3	0.1	178	6
2023-09-25T12:00	2889	726	3.1	-0.2	176	6
2023-09-25T12:00	2914	724	3.1	-0.4	174	6
2023-09-25T12:00	2934	722	3.3	-0.4	174	6
2023-09-25T12:00	2954	720	3.6	-0.7	175	6
2023-09-25T12:00	2974	718	4.2	-1.6	177	5
2023-09-25T12:00	3003	716	4.1	-1.6	180	5
2023-09-25T12:00	3028	714	3.8	-1.7	184	4
2023-09-25T12:00	3049	712	3.7	-1.7	187	4
2023-09-25T12:00	3079	709	3.5	-1.8	189	4
2023-09-25T12:00	3106	707	3.3	-2.0	190	4
2023-09-25T12:00	3128	705	3.5	-2.9	189	4
2023-09-25T12:00	3157	702	3.7	-3.8	188	4
2023-09-25T12:00	3186	700	3.7	-4.3	187	3
2023-09-25T12:00	3207	698	3.7	-5.5	187	3
2023-09-25T12:00	3234	696	3.8	-8.8	188	3
2023-09-25T12:00	3263	693	3.8	-12.2	191	2
2023-09-25T12:00	3288	691	3.7	-13.2	194	2
2023-09-25T12:00	3312	689	3.4	-13.6	198	2
2023-09-25T12:00	3332	687	3.3	-13.4	201	3
2023-09-25T12:00	3354	685	3.1	-12.2	203	3
2023-09-25T12:00	3378	683	2.9	-11.8	204	4
2023-09-25T12:00	3407	681	2.8	-8.0	205	4
2023-09-25T12:00	3436	679	2.8	-8.3	206	4
2023-09-25T12:00	3458	677	2.9	-9.4	209	4
2023-09-25T12:00	3476	675	2.8	-9.4	212	4
2023-09-25T12:00	3504	673	2.5	-8.0	215	3
2023-09-25T12:00	3532	670	2.3	-7.5	216	3
2023-09-25T12:00	3558	668	2.3	-11.1	211	3
2023-09-25T12:00	3577	667	2.3	-12.3	203	4
2023-09-25T12:00	3593	665	2.1	-12.1	194	4
2023-09-25T12:00	3612	664	1.9	-11.5	185	4
2023-09-25T12:00	3640	662	1.7	-12.3	179	4
2023-09-25T12:00	3660	660	1.5	-12.5	174	5
2023-09-25T12:00	3682	658	1.3	-12.4	173	5
2023-09-25T12:00	3719	655	1.0	-14.5	173	5
2023-09-25T12:00	3740	653	1.0	-19.5	174	5
2023-09-25T12:00	3759	652	1.3	-26.5	174	6
2023-09-25T12:00	3783	650	1.4	-21.4	173	6
2023-09-25T12:00	3811	648	1.6	-26.4	172	6
2023-09-25T12:00	3831	646	1.6	-28.9	171	6
2023-09-25T12:00	3851	644	1.4	-27.2	174	5
2023-09-25T12:00	3879	642	1.4	-31.7	181	5
2023-09-25T12:00	3905	640	1.6	-32.4	192	5
2023-09-25T12:00	3923	639	1.5	-31.8	203	6
2023-09-25T12:00	3946	637	1.4	-30.4	209	7
2023-09-25T12:00	3965	635	1.2	-30.4	212	8
2023-09-25T12:00	3984	634	1.1	-28.8	214	9
2023-09-25T12:00	4005	632	0.9	-27.8	214	9
2023-09-25T12:00	4030	630	0.7	-26.5	215	8
2023-09-25T12:00	4060	628	0.5	-25.6	216	8
2023-09-25T12:00	4076	627	0.3	-25.6	217	8
2023-09-25T12:00	4094	625	0.2	-24.3	218	8
2023-09-25T12:00	4117	623	0.0	-24.0	220	8
2023-09-25T12:00	4140	622	-0.2	-23.8	221	8
2023-09-25T12:00	4161	620	-0.4	-23.0	222	8
2023-09-25T12:00	4190	618	-0.6	-23.9	221	7
2023-09-25T12:00	4212	616	-0.7	-26.2	218	7
2023-09-25T12:00	4234	614	-0.8	-28.1	214	7
2023-09-25T12:00	4254	613	-0.8	-31.5	211	7
2023-09-25T12:00	4278	611	-0.8	-38.0	211	7
2023-09-25T12:00	4309	609	-0.9	-41.1	213	7
2023-09-25T12:00	4325	607	-0.9	-38.1	216	7
2023-09-25T12:00	4342	606	-1.0	-37.6	220	7
2023-09-25T12:00	4360	605	-1.1	-37.3	223	7
2023-09-25T12:00	4377	603	-1.2	-38.7	224	8
2023-09-25T12:00	4409	601	-1.3	-39.1	225	8
2023-09-25T12:00	4436	599	-1.4	-42.4	226	9
2023-09-25T12:00	4460	597	-1.4	-42.4	225	9
2023-09-25T12:00	4479	596	-1.5	-40.3	224	9
2023-09-25T12:00	4496	595	-1.6	-39.0	222	9
2023-09-25T12:00	4512	593	-1.7	-39.7	219	8
2023-09-25T12:00	4533	592	-1.9	-40.6	217	8
2023-09-25T12:00	4558	590	-1.9	-42.3	214	7
2023-09-25T12:00	4586	588	-1.8	-41.7	212	7
2023-09-25T12:00	4611	586	-2.0	-41.9	209	7
2023-09-25T12:00	4634	584	-2.1	-42.4	203	7
2023-09-25T12:00	4659	582	-2.2	-42.5	196	7
2023-09-25T12:00	4686	580	-2.4	-42.6	188	7
2023-09-25T12:00	4717	578	-2.5	-42.7	180	7
2023-09-25T12:00	4740	576	-2.7	-43.3	175	7
2023-09-25T12:00	4766	575	-2.9	-43.5	173	6
2023-09-25T12:00	4799	572	-3.1	-44.6	172	6
2023-09-25T12:00	4820	571	-3.2	-45.2	171	5
2023-09-25T12:00	4837	569	-3.3	-45.9	169	5
2023-09-25T12:00	4874	567	-3.5	-46.0	165	4
2023-09-25T12:00	4912	564	-3.6	-45.0	159	4
2023-09-25T12:00	4932	563	-3.4	-44.8	153	4
2023-09-25T12:00	4951	561	-3.5	-44.4	147	3
2023-09-25T12:00	4969	560	-3.7	-44.0	143	3
2023-09-25T12:00	4988	559	-3.8	-43.6	140	3
2023-09-25T12:00	5006	557	-4.0	-43.3	139	3
2023-09-25T12:00	5023	556	-4.2	-43.1	140	3
2023-09-25T12:00	5046	554	-4.4	-42.8	143	3
2023-09-25T12:00	5081	552	-4.6	-42.6	146	3
2023-09-25T12:00	5108	550	-4.8	-42.4	148	3
2023-09-25T12:00	5125	549	-4.9	-42.4	149	3
2023-09-25T12:00	5142	548	-5.0	-42.2	150	3
2023-09-25T12:00	5161	546	-5.2	-42.7	153	3
2023-09-25T12:00	5179	545	-5.4	-42.8	157	3
2023-09-25T12:00	5200	544	-5.5	-42.9	161	3
2023-09-25T12:00	5221	542	-5.7	-43.0	164	3
2023-09-25T12:00	5245	541	-5.8	-43.5	166	2
2023-09-25T12:00	5271	539	-6.1	-43.0	165	2
2023-09-25T12:00	5302	537	-6.4	-42.9	163	2
2023-09-25T12:00	5324	535	-6.6	-42.7	160	2
2023-09-25T12:00	5352	533	-6.9	-42.3	156	2
2023-09-25T12:00	5390	531	-7.1	-42.4	153	2
2023-09-25T12:00	5428	528	-7.3	-42.9	150	2
2023-09-25T12:00	5445	527	-7.5	-42.7	149	2
2023-09-25T12:00	5464	526	-7.6	-42.2	149	2
2023-09-25T12:00	5482	524	-7.8	-41.8	152	3
2023-09-25T12:00	5500	523	-7.9	-42.2	156	3
2023-09-25T12:00	5519	522	-8.1	-42.3	161	2
2023-09-25T12:00	5538	521	-8.3	-42.5	167	2
2023-09-25T12:00	5559	519	-8.5	-42.9	173	2
2023-09-25T12:00	5581	518	-8.6	-42.5	178	2
2023-09-25T12:00	5613	516	-8.8	-42.3	183	2
2023-09-25T12:00	5644	514	-8.9	-44.4	186	2
2023-09-25T12:00	5668	512	-8.9	-45.4	188	2
2023-09-25T12:00	5687	511	-9.0	-45.1	190	2
2023-09-25T12:00	5702	510	-9.1	-45.2	193	2
2023-09-25T12:00	5720	509	-9.2	-44.9	195	3
2023-09-25T12:00	5738	507	-9.4	-44.2	198	3
2023-09-25T12:00	5755	506	-9.5	-43.7	201	3
2023-09-25T12:00	5775	505	-9.7	-43.8	207	2
2023-09-25T12:00	5798	504	-9.9	-43.7	216	2
2023-09-25T12:00	5825	502	-10.1	-43.3	224	3
2023-09-25T12:00	5857	500	-10.3	-43.7	227	3
2023-09-25T12:00	5883	498	-10.4	-44.4	226	4
2023-09-25T12:00	5907	496	-10.5	-44.4	221	4
2023-09-25T12:00	5935	495	-10.7	-44.6	215	5
2023-09-25T12:00	5965	493	-10.9	-44.7	209	5
2023-09-25T12:00	6000	491	-11.3	-45.6	203	5
2023-09-25T12:00	6024	489	-11.5	-45.8	199	5
2023-09-25T12:00	6051	487	-11.7	-46.2	198	5
2023-09-25T12:00	6066	486	-11.8	-46.3	199	4
2023-09-25T12:00	6086	485	-11.9	-46.3	203	4
2023-09-25T12:00	6101	484	-12.1	-46.2	209	4
2023-09-25T12:00	6122	483	-12.3	-46.6	213	4
2023-09-25T12:00	6141	481	-12.4	-47.0	215	4
2023-09-25T12:00	6161	480	-12.5	-47.4	215	4
2023-09-25T12:00	6178	479	-12.6	-47.8	214	4
2023-09-25T12:00	6197	478	-12.8	-48.0	212	4
2023-09-25T12:00	6214	477	-12.9	-47.7	210	4
2023-09-25T12:00	6234	476	-13.0	-47.8	208	4
2023-09-25T12:00	6253	475	-13.2	-47.3	205	4
2023-09-25T12:00	6271	473	-13.3	-47.7	203	4
2023-09-25T12:00	6288	472	-13.4		202	4
2023-09-25T12:00	6303	471	-13.5	-47.9	201	4
2023-09-25T12:00	6320	470	-13.7	-47.7	201	4
2023-09-25T12:00	6338	469	-13.8	-47.8	201	4
2023-09-25T12:00	6356	468	-13.9	-47.9	202	4
2023-09-25T12:00	6374	467	-14.0	-48.5	203	4
2023-09-25T12:00	6392	466	-14.2	-48.7	204	4
2023-09-25T12:00	6410	465	-14.3	-48.8	205	4
2023-09-25T12:00	6429	464	-14.5	-48.9	207	4
2023-09-25T12:00	6447	462	-14.6	-48.7	208	4
2023-09-25T12:00	6465	461	-14.8	-48.5	210	4
2023-09-25T12:00	6484	460	-14.9	-48.9	213	4
2023-09-25T12:00	6502	459	-15.1	-49.1	215	4
2023-09-25T12:00	6521	458	-15.3	-48.9	218	5
2023-09-25T12:00	6539	457	-15.4	-49.0	220	5
2023-09-25T12:00	6557	456	-15.5	-49.1	221	5
2023-09-25T12:00	6576	455	-15.7	-49.2	220	5
2023-09-25T12:00	6597	453	-15.8	-49.6	218	5
2023-09-25T12:00	6615	452	-15.9	-48.8	215	5
2023-09-25T12:00	6639	451	-16.0	-48.1	212	5
2023-09-25T12:00	6665	449	-16.1	-47.9	210	5
2023-09-25T12:00	6696	447	-16.3	-48.1	209	5
2023-09-25T12:00	6730	446	-16.6	-48.6	209	5
2023-09-25T12:00	6755	444	-16.9	-48.8	208	5
2023-09-25T12:00	6777	443	-17.0	-49.1	207	5
2023-09-25T12:00	6792	442	-17.0	-48.9	206	5
2023-09-25T12:00	6813	441	-17.1	-48.7	206	5
2023-09-25T12:00	6836	439	-17.2	-48.3	206	5
2023-09-25T12:00	6868	437	-17.5	-48.1	207	4
2023-09-25T12:00	6896	436	-17.7	-47.2	209	4
2023-09-25T12:00	6914	435	-17.8	-47.1	212	4
2023-09-25T12:00	6934	434	-18.0	-46.2	214	4
2023-09-25T12:00	6952	432	-18.1	-46.5	216	4
2023-09-25T12:00	6969	431	-18.3	-47.0	217	4
2023-09-25T12:00	6990	430	-18.5	-46.6	216	4
2023-09-25T12:00	7012	429	-18.6	-46.8	214	4
2023-09-25T12:00	7037	428	-18.9	-46.6	212	4
2023-09-25T12:00	7063	426	-19.1	-46.9	210	4
2023-09-25T12:00	7091	424	-19.3	-47.2	208	4
2023-09-25T12:00	7117	423	-19.5	-47.2	206	4
2023-09-25T12:00	7150	421	-19.8	-47.8	203	4
2023-09-25T12:00	7189	419	-20.1	-47.9	201	4
2023-09-25T12:00	7227	417	-20.2	-49.0	199	4
2023-09-25T12:00	7245	416	-20.3	-49.3	199	4
2023-09-25T12:00	7262	415	-20.4	-49.3	199	5
2023-09-25T12:00	7280	414	-20.6	-49.9	199	5
2023-09-25T12:00	7302	413	-20.7	-50.2	197	5
2023-09-25T12:00	7321	411	-20.7	-51.2	194	5
2023-09-25T12:00	7340	410	-20.8	-51.8	189	5
2023-09-25T12:00	7359	409	-20.7	-52.5	185	5
2023-09-25T12:00	7379	408	-20.8	-53.1	181	5
2023-09-25T12:00	7397	407	-20.9	-53.2	179	5
2023-09-25T12:00	7419	406	-21.0	-53.5	179	5
2023-09-25T12:00	7438	405	-21.1	-53.6	180	5
2023-09-25T12:00	7458	404	-21.3	-53.8	181	5
2023-09-25T12:00	7485	402	-21.4	-54.4	181	4
2023-09-25T12:00	7520	401	-21.5	-55.2	179	3
2023-09-25T12:00	7550	399	-21.6	-54.9	171	3
2023-09-25T12:00	7585	397	-21.5	-55.2	154	2
2023-09-25T12:00	7615	395	-21.5	-53.9	134	3
2023-09-25T12:00	7647	394	-21.6	-52.2	121	3
2023-09-25T12:00	7680	392	-21.8	-49.9	113	3
2023-09-25T12:00	7710	390	-21.9	-47.9	106	3
2023-09-25T12:00	7740	389	-22.1	-46.8	98	3
2023-09-25T12:00	7775	387	-22.2		87	2
2023-09-25T12:00	7806	385	-22.5	-46.9	72	2
2023-09-25T12:00	7834	384	-22.7	-46.8	54	1
2023-09-25T12:00	7866	382	-22.9	-46.9	37	1
2023-09-25T12:00	7901	380	-23.2	-46.9	23	1
2023-09-25T12:00	7928	379	-23.5	-47.0	11	1
2023-09-25T12:00	7952	378	-23.7	-46.9	359	1
2023-09-25T12:00	7978	376	-24.0	-46.9	340	1
2023-09-25T12:00	8004	375	-24.2	-47.0	317	1
2023-09-25T12:00	8032	373	-24.5	-47.0	303	2
2023-09-25T12:00	8068	372	-24.8	-47.3	299	3
2023-09-25T12:00	8098	370	-25.0	-47.4	300	3
2023-09-25T12:00	8115	369	-25.2	-47.4	306	3
2023-09-25T12:00	8137	368	-25.3	-47.4	314	3
2023-09-25T12:00	8160	367	-25.5	-47.7	322	3
2023-09-25T12:00	8185	366	-25.6	-48.1	327	2
2023-09-25T12:00	8211	365	-25.6	-49.5	325	2
2023-09-25T12:00	8236	363	-25.6	-49.9	318	2
2023-09-25T12:00	8266	362	-25.9	-50.1	309	2
2023-09-25T12:00	8298	360	-26.2	-50.3	301	2
2023-09-25T12:00	8331	358	-26.4	-51.0	292	2
2023-09-25T12:00	8363	357	-26.5	-51.4	281	2
2023-09-25T12:00	8393	355	-26.6		267	2
2023-09-25T12:00	8424	354	-26.8	-51.2	253	2
2023-09-25T12:00	8449	353	-27.0	-51.5	245	2
2023-09-25T12:00	8474	351	-27.2	-51.4	244	2
2023-09-25T12:00	8502	350	-27.4	-50.6	250	2
2023-09-25T12:00	8535	348	-27.7	-49.2	258	2
2023-09-25T12:00	8564	347	-27.9	-49.3	261	2
2023-09-25T12:00	8595	346	-28.2	-49.5	254	1
2023-09-25T12:00	8626	344	-28.5	-49.4	236	1
2023-09-25T12:00	8654	343	-28.7	-49.2	211	1
2023-09-25T12:00	8684	341	-29.0	-48.5	190	2
2023-09-25T12:00	8714	340	-29.2	-47.9	174	2
2023-09-25T12:00	8748	338	-29.5	-48.6	162	2
2023-09-25T12:00	8782	337	-29.7	-47.4	155	3
2023-09-25T12:00	8806	336	-29.9	-47.1	150	3
2023-09-25T12:00	8829	334	-30.1	-46.4	148	3
2023-09-25T12:00	8848	334	-30.3	-46.1	147	3
2023-09-25T12:00	8867	333	-30.5	-46.1	148	3
2023-09-25T12:00	8884	332	-30.7	-46.0	149	3
2023-09-25T12:00	8905	331	-30.9	-45.7	149	3
2023-09-25T12:00	8923	330	-31.1	-46.0	150	3
2023-09-25T12:00	8941	329	-31.3	-46.1	151	4
2023-09-25T12:00	8961	328	-31.4	-46.0	152	4
2023-09-25T12:00	8982	327	-31.6	-46.0	151	4
2023-09-25T12:00	9001	326	-31.8	-45.9	151	4
2023-09-25T12:00	9020	326	-32.0	-45.9	149	4
2023-09-25T12:00	9045	324	-32.2	-46.0	147	4
2023-09-25T12:00	9071	323	-32.5	-46.2	145	4
2023-09-25T12:00	9096	322	-32.7	-46.2	145	4
2023-09-25T12:00	9124	321	-33.0	-46.3	147	4
2023-09-25T12:00	9151	319	-33.3	-46.2	151	4
2023-09-25T12:00	9182	318	-33.5	-46.2	156	3
2023-09-25T12:00	9210	317	-33.8	-46.5	161	3
2023-09-25T12:00	9235	316	-33.9	-46.5	167	3
2023-09-25T12:00	9259	315	-34.3	-46.9	171	4
2023-09-25T12:00	9284	313	-34.5	-47.7	172	4
2023-09-25T12:00	9309	312	-34.6	-48.2	170	4
2023-09-25T12:00	9331	311	-34.8	-48.0	166	4
2023-09-25T12:00	9352	310	-34.9	-48.9	162	5
2023-09-25T12:00	9373	310	-34.8	-49.7	160	5
2023-09-25T12:00	9392	309	-34.9	-50.4	158	5
2023-09-25T12:00	9409	308	-35.0	-50.7	158	5
2023-09-25T12:00	9427	307	-35.1	-50.4	158	5
2023-09-25T12:00	9444	306	-35.2	-50.4	159	5
2023-09-25T12:00	9461	306	-35.4	-50.7	159	6
2023-09-25T12:00	9480	305	-35.5	-51.0	158	6
2023-09-25T12:00	9499	304	-35.6	-50.9	158	6
2023-09-25T12:00	9515	303	-35.7	-51.1	158	6
2023-09-25T12:00	9533	302	-35.8	-51.1	158	6
2023-09-25T12:00	9551	302	-35.9	-51.1	158	6
2023-09-25T12:00	9570	301	-36.1	-51.2	157	6
2023-09-25T12:00	9587	300	-36.2	-51.2	157	6
2023-09-25T12:00	9605	299	-36.3	-51.2	158	6
2023-09-25T12:00	9621	299	-36.5	-51.2	159	6
2023-09-25T12:00	9640	298	-36.5	-51.2	161	6
2023-09-25T12:00	9657	297	-36.5	-52.1	163	6
2023-09-25T12:00	9672	296	-36.4	-53.2	166	5
2023-09-25T12:00	9690	296	-36.2	-53.6	169	5
2023-09-25T12:00	9705	295	-36.1	-53.6	171	5
2023-09-25T12:00	9723	294	-36.1	-54.1	172	4
2023-09-25T12:00	9740	294	-36.3	-54.5	173	4
2023-09-25T12:00	9756	293	-36.4	-54.7	173	4
2023-09-25T12:00	9772	292	-36.5	-54.7	173	5
2023-09-25T12:00	9790	292	-36.6	-54.6	174	5
2023-09-25T12:00	9804	291	-36.7	-54.6	174	5
2023-09-25T12:00	9823	290	-36.9	-54.4	174	5
2023-09-25T12:00	9842	289	-37.0	-53.9	173	5
2023-09-25T12:00	9860	289	-37.1	-53.7	172	5
2023-09-25T12:00	9876	288	-37.3	-53.7	172	4
2023-09-25T12:00	9893	287	-37.4	-53.8	171	4
2023-09-25T12:00	9909	287	-37.6	-53.9	172	4
2023-09-25T12:00	9929	286	-37.8	-53.9	172	4
2023-09-25T12:00	9946	285	-37.9	-53.9	173	4
2023-09-25T12:00	9964	284	-38.1	-53.9	174	4
2023-09-25T12:00	9984	283	-38.3	-54.1	175	4
2023-09-25T12:00	10003	283	-38.4	-54.3	177	4
2023-09-25T12:00	10020	282	-38.5	-54.3	179	4
2023-09-25T12:00	10041	281	-38.7	-54.4	180	3
2023-09-25T12:00	10060	280	-38.8	-54.8	181	3
2023-09-25T12:00	10078	280	-38.9	-55.1	182	3
2023-09-25T12:00	10096	279	-39.0	-55.2	182	3
2023-09-25T12:00	10115	278	-39.2	-55.4	182	3
2023-09-25T12:00	10133	277	-39.3	-55.5	183	3
2023-09-25T12:00	10150	277	-39.5	-55.6	186	3
2023-09-25T12:00	10168	276	-39.6	-55.7	191	3
2023-09-25T12:00	10189	275	-39.8	-56.0	196	3
2023-09-25T12:00	10208	274	-39.9	-56.4	202	3
2023-09-25T12:00	10228	274	-40.0	-56.9	208	3
2023-09-25T12:00	10247	273	-40.2	-57.3	212	3
2023-09-25T12:00	10265	272	-40.3	-57.7	216	3
2023-09-25T12:00	10285	271	-40.4	-57.8	220	3
2023-09-25T12:00	10304	271	-40.6	-57.9	223	3
2023-09-25T12:00	10320	270	-40.6	-58.0	228	3
2023-09-25T12:00	10339	269	-40.8	-58.1	232	3
2023-09-25T12:00	10359	268	-40.9	-57.7	237	3
2023-09-25T12:00	10380	267	-41.1	-57.5	241	3
2023-09-25T12:00	10401	267	-41.3	-57.4	245	3
2023-09-25T12:00	10421	266	-41.4	-57.2	249	2
2023-09-25T12:00	10438	265	-41.6	-57.3	251	2
2023-09-25T12:00	10458	264	-41.7	-57.4	252	2
2023-09-25T12:00	10478	264	-41.9		253	2
2023-09-25T12:00	10497	263	-42.0	-57.4	252	2
2023-09-25T12:00	10514	262	-42.2	-57.5	251	2
2023-09-25T12:00	10534	261	-42.4	-57.5	250	2
2023-09-25T12:00	10554	261	-42.5	-57.7	248	2
2023-09-25T12:00	10571	260	-42.7	-58.1	247	2
2023-09-25T12:00	10593	259	-42.8	-58.4	247	2
2023-09-25T12:00	10613	258	-43.0	-58.6	247	2
2023-09-25T12:00	10632	258	-43.2	-58.5	248	2
2023-09-25T12:00	10653	257	-43.3	-58.5	252	2
2023-09-25T12:00	10668	256	-43.5	-58.6	260	2
2023-09-25T12:00	10692	255	-43.6	-58.1	270	2
2023-09-25T12:00	10716	254	-43.7	-57.5	280	2
2023-09-25T12:00	10737	254	-43.9	-57.5	288	3
2023-09-25T12:00	10760	253	-43.9	-57.3	292	3
2023-09-25T12:00	10780	252	-44.1	-57.0	293	3
2023-09-25T12:00	10801	251	-44.3	-56.5	292	4
2023-09-25T12:00	10832	250	-44.5	-55.4	292	4
2023-09-25T12:00	10863	249	-44.7	-54.9	293	4
2023-09-25T12:00	10884	248	-44.9	-55.1	295	4
2023-09-25T12:00	10908	247	-45.2	-54.9	298	4
2023-09-25T12:00	10929	247	-45.4	-54.8	302	4
2023-09-25T12:00	10951	246	-45.6	-54.8	307	4
2023-09-25T12:00	10969	245	-45.7	-54.5	310	4
2023-09-25T12:00	10993	244	-45.9	-54.4	313	4
2023-09-25T12:00	11018	243	-46.2	-54.6	314	4
2023-09-25T12:00	11036	243	-46.3	-54.7	316	4
2023-09-25T12:00	11055	242	-46.5	-54.8	321	4
2023-09-25T12:00	11077	241	-46.7	-54.6	329	4
2023-09-25T12:00	11112	240	-47.0	-54.6	338	4
2023-09-25T12:00	11138	239	-47.3	-54.9	344	5
2023-09-25T12:00	11164	238	-47.5	-55.0	345	6
2023-09-25T12:00	11190	237	-47.8	-54.9	342	6
2023-09-25T12:00	11216	236	-48.1	-54.9	338	7
2023-09-25T12:00	11241	235	-48.3	-55.0	334	7
2023-09-25T12:00	11267	234	-48.5	-55.0	332	7
2023-09-25T12:00	11298	233	-48.8	-55.0	331	7
2023-09-25T12:00	11331	232	-49.0	-55.0	332	7
2023-09-25T12:00	11368	231	-49.4	-55.2	333	7
2023-09-25T12:00	11394	230	-49.7	-55.3	332	7
2023-09-25T12:00	11416	229	-49.9	-55.4	329	7
2023-09-25T12:00	11437	228	-50.0	-55.2	326	8
2023-09-25T12:00	11454	228	-50.2	-55.3	323	8
2023-09-25T12:00	11473	227	-50.3	-55.3	321	9
2023-09-25T12:00	11499	226	-50.5	-55.6	321	9
2023-09-25T12:00	11519	225	-50.7	-55.7	320	10
2023-09-25T12:00	11542	225	-50.8	-55.6	320	10
2023-09-25T12:00	11560	224	-50.8	-55.4	320	10
2023-09-25T12:00	11584	223	-50.9	-55.6	320	10
2023-09-25T12:00	11604	223	-51.0	-55.9	320	10
2023-09-25T12:00	11622	222	-51.2	-56.0	320	10
2023-09-25T12:00	11645	221	-51.4	-56.1	320	10
2023-09-25T12:00	11664	220	-51.5	-56.1	320	10
2023-09-25T12:00	11686	220	-51.7	-56.3	320	10
2023-09-25T12:00	11707	219	-51.8	-56.6	321	10
2023-09-25T12:00	11726	218	-52.0	-57.0	321	10
2023-09-25T12:00	11747	218	-52.1	-57.3	321	9
2023-09-25T12:00	11768	217	-52.2	-57.6	321	9
2023-09-25T12:00	11789	216	-52.3	-57.5	320	9
2023-09-25T12:00	11808	216	-52.5	-57.6	320	9
2023-09-25T12:00	11830	215	-52.6	-57.6	319	9
2023-09-25T12:00	11849	214	-52.8	-57.7	318	10
2023-09-25T12:00	11869	214	-53.0	-57.6	318	10
2023-09-25T12:00	11890	213	-53.1	-57.6	317	10
2023-09-25T12:00	11910	212	-53.2	-58.2	316	10
2023-09-25T12:00	11931	212	-53.4	-58.9	316	10
2023-09-25T12:00	11948	211	-53.5	-59.1	316	11
2023-09-25T12:00	11970	210	-53.6	-58.7	316	11
2023-09-25T12:00	11990	210	-53.8	-58.6	315	11
2023-09-25T12:00	12013	209	-53.9	-58.5	315	11
2023-09-25T12:00	12034	208	-54.1	-58.6	315	10
2023-09-25T12:00	12054	207	-54.3	-58.7	315	10
2023-09-25T12:00	12076	207	-54.4	-58.8	315	10
2023-09-25T12:00	12095	206	-54.5	-59.1	316	10
2023-09-25T12:00	12114	206	-54.7	-59.8	316	10
2023-09-25T12:00	12135	205	-54.9	-60.2	317	10
2023-09-25T12:00	12154	204	-55.1	-60.2	317	10
2023-09-25T12:00	12173	204	-55.2	-60.0	317	10
2023-09-25T12:00	12196	203	-55.4	-60.0	318	9
2023-09-25T12:00	12216	202	-55.6	-60.1	318	9
2023-09-25T12:00	12237	202	-55.7	-60.1	319	9
2023-09-25T12:00	12258	201	-55.8	-60.1	320	8
2023-09-25T12:00	12281	200	-55.9	-60.1	321	8
2023-09-25T12:00	12303	200	-56.1	-60.2	322	8
2023-09-25T12:00	12323	199	-56.2	-60.2	323	7
2023-09-25T12:00	12347	198	-56.3	-60.2	322	7
2023-09-25T12:00	12365	198	-56.4		321	7
2023-09-25T12:00	12386	197	-56.5	-60.4	320	7
2023-09-25T12:00	12407	196	-56.6	-60.5	318	7
2023-09-25T12:00	12429	196	-56.8	-60.7	317	7
2023-09-25T12:00	12450	195	-56.9	-60.8	316	6
2023-09-25T12:00	12470	194	-57.1	-61.0	317	6
2023-09-25T12:00	12494	194	-57.3	-61.2	317	6
2023-09-25T12:00	12514	193	-57.5	-61.3	316	6
2023-09-25T12:00	12534	192	-57.6	-61.4	315	6
2023-09-25T12:00	12555	192	-57.8	-61.7	313	6
2023-09-25T12:00	12576	191	-57.9	-62.0	311	6
2023-09-25T12:00	12597	191	-57.9	-62.2	309	6
2023-09-25T12:00	12618	190	-58.0	-62.4	306	6
2023-09-25T12:00	12638	189	-58.1	-62.5	304	6
2023-09-25T12:00	12659	189	-58.3	-62.7	303	5
2023-09-25T12:00	12680	188	-58.4	-62.7	302	5
2023-09-25T12:00	12701	187	-58.6	-62.8	301	5
2023-09-25T12:00	12723	187	-58.7	-62.9	301	5
2023-09-25T12:00	12743	186	-58.9	-63.0	301	5
2023-09-25T12:00	12764	186	-59.0	-63.1	301	5
2023-09-25T12:00	12784	185	-59.1	-63.3	301	5
2023-09-25T12:00	12805	184	-59.2	-63.5	302	5
2023-09-25T12:00	12822	184	-59.3	-63.6	302	4
2023-09-25T12:00	12843	183	-59.5	-63.8	302	4
2023-09-25T12:00	12863	183	-59.7	-64.0	302	4
2023-09-25T12:00	12884	182	-59.8	-64.2	302	4
2023-09-25T12:00	12902	181	-60.0	-64.6	301	4
2023-09-25T12:00	12921	181	-60.1	-64.8	300	4
2023-09-25T12:00	12937	180	-60.2	-64.9	299	4
2023-09-25T12:00	12957	180	-60.2		297	4
2023-09-25T12:00	12973	179	-60.4	-65.0	293	4
2023-09-25T12:00	12993	179	-60.5	-65.4	286	4
2023-09-25T12:00	13013	178	-60.4	-66.1	277	4
2023-09-25T12:00	13034	178	-60.1	-67.2	269	4
2023-09-25T12:00	13056	177	-60.0	-68.5	265	5
2023-09-25T12:00	13090	176	-60.1	-69.7	263	6
2023-09-25T12:00	13116	175	-60.3	-70.3	263	7
2023-09-25T12:00	13150	174	-60.1	-70.2	264	8
2023-09-25T12:00	13175	174	-60.3	-70.4	264	9
2023-09-25T12:00	13200	173	-60.4	-70.3	263	9
2023-09-25T12:00	13230	172	-60.6	-70.1	263	10
2023-09-25T12:00	13263	171	-60.9	-70.1	265	11
2023-09-25T12:00	13288	171	-61.1	-70.1	268	11
2023-09-25T12:00	13313	170	-61.2	-70.4	272	12
2023-09-25T12:00	13338	169	-61.2	-70.8	276	12
2023-09-25T12:00	13354	169	-61.0	-71.0	279	13
2023-09-25T12:00	13375	168	-60.9	-71.2	281	13
2023-09-25T12:00	13393	168	-61.0	-71.3	283	13
2023-09-25T12:00	13412	167	-61.2	-71.5	284	12
2023-09-25T12:00	13432	167	-61.3	-71.5	286	12
2023-09-25T12:00	13450	166	-61.3	-71.6	288	12
2023-09-25T12:00	13471	166	-61.4	-71.9	290	12
2023-09-25T12:00	13490	165	-61.5	-72.3	291	12
2023-09-25T12:00	13512	165	-61.5	-72.6	292	13
2023-09-25T12:00	13531	164	-61.5	-72.9	292	13
2023-09-25T12:00	13548	164	-61.3	-72.9	292	13
2023-09-25T12:00	13569	163	-61.3	-73.2	292	13
2023-09-25T12:00	13590	162	-61.2	-73.5	292	13
2023-09-25T12:00	13609	162	-61.1	-73.9	292	13
2023-09-25T12:00	13630	161	-61.0	-74.4	293	13
2023-09-25T12:00	13651	161	-60.9	-74.8	294	13
2023-09-25T12:00	13672	160	-61.0	-75.5	296	12
2023-09-25T12:00	13695	160	-60.9	-75.9	298	12
2023-09-25T12:00	13713	159	-60.8	-76.4	299	12
2023-09-25T12:00	13734	159	-60.7	-76.8	301	11
2023-09-25T12:00	13756	158	-60.6	-77.2	302	11
2023-09-25T12:00	13778	158	-60.4	-77.4	303	11
2023-09-25T12:00	13800	157	-60.4	-77.6	303	11
2023-09-25T12:00	13818	157	-60.3	-77.6	303	11
2023-09-25T12:00	13844	156	-60.3	-77.8	303	12
2023-09-25T12:00	13862	156	-60.2	-77.9	303	12
2023-09-25T12:00	13884	155	-60.1	-78.1	303	13
2023-09-25T12:00	13903	154	-59.9	-78.3	303	13
2023-09-25T12:00	13926	154	-59.7	-78.4	303	13
2023-09-25T12:00	13946	153	-59.6	-78.5	304	14
2023-09-25T12:00	13967	153	-59.6	-78.7	304	14
2023-09-25T12:00	13990	152	-59.6	-78.8	304	14
2023-09-25T12:00	14009	152	-59.6	-79.0	304	14
2023-09-25T12:00	14029	151	-59.6	-79.0	304	14
2023-09-25T12:00	14049	151	-59.7	-79.1	305	15
2023-09-25T12:00	14069	150	-59.7	-79.4	305	15
2023-09-25T12:00	14090	150	-59.7	-79.5	306	15
2023-09-25T12:00	14110	149	-59.7	-79.6	307	15
2023-09-25T12:00	14130	149	-59.8	-79.8	308	15
2023-09-25T12:00	14153	148	-59.9	-79.9	308	16
2023-09-25T12:00	14173	148	-60.0	-80.0	309	16
2023-09-25T12:00	14194	147	-60.2	-80.0	309	16
2023-09-25T12:00	14214	147	-60.3	-80.0	310	16
2023-09-25T12:00	14235	147	-60.5	-80.1	310	16
2023-09-25T12:00	14255	146	-60.6	-80.1	310	16
2023-09-25T12:00	14277	146	-60.8	-80.2	311	17
2023-09-25T12:00	14300	145	-61.0	-80.2	311	17
2023-09-25T12:00	14321	144	-61.1	-80.3	311	18
2023-09-25T12:00	14341	144	-61.2	-80.3	312	18
2023-09-25T12:00	14359	144	-61.3	-80.4	312	18
2023-09-25T12:00	14383	143	-61.3	-80.5	314	18
2023-09-25T12:00	14402	143	-61.2	-80.6	315	17
2023-09-25T12:00	14422	142	-61.2	-80.8	317	16
2023-09-25T12:00	14448	142	-60.9	-80.9	319	15
2023-09-25T12:00	14480	141	-60.8	-81.0	322	14
2023-09-25T12:00	14515	140	-60.9	-81.3	323	13
2023-09-25T12:00	14545	139	-61.1	-81.5	322	12
2023-09-25T12:00	14578	139	-61.2	-81.7	319	10
2023-09-25T12:00	14599	138	-61.4	-81.9	315	9
2023-09-25T12:00	14629	137	-61.6	-82.0	313	8
2023-09-25T12:00	14660	137	-61.7	-82.1	314	7
2023-09-25T12:00	14697	136	-61.8	-82.2	317	6
2023-09-25T12:00	14723	135	-61.8	-82.2	321	6
2023-09-25T12:00	14747	135	-61.9	-82.3	322	6
2023-09-25T12:00	14777	134	-62.2	-82.5	321	6
2023-09-25T12:00	14800	134	-62.2	-82.5	318	5
2023-09-25T12:00	14820	133	-62.1	-82.3	315	5
2023-09-25T12:00	14839	133	-62.2	-82.4	313	4
2023-09-25T12:00	14862	132	-62.4	-82.4	312	4
2023-09-25T12:00	14880	132	-62.6	-82.6	311	4
2023-09-25T12:00	14900	132	-62.6	-82.5	311	4
2023-09-25T12:00	14920	131	-62.6	-82.5	311	3
2023-09-25T12:00	14937	131	-62.7	-82.5	311	3
2023-09-25T12:00	14960	130	-62.7	-82.5	312	3
2023-09-25T12:00	14979	130	-62.8	-82.5	312	3
2023-09-25T12:00	15000	129	-62.9	-82.6	314	3
2023-09-25T12:00	15019	129	-63.0	-82.6	317	3
2023-09-25T12:00	15039	129	-63.1	-82.6	322	3
2023-09-25T12:00	15060	128	-63.2	-82.7	327	3
2023-09-25T12:00	15081	128	-63.4	-82.8	330	3
2023-09-25T12:00	15103	127	-63.5	-82.7	332	3
2023-09-25T12:00	15122	127	-63.7	-82.8	331	3
2023-09-25T12:00	15143	127	-63.8	-82.9	329	3
2023-09-25T12:00	15164	126	-63.9	-82.8	325	3
2023-09-25T12:00	15184	126	-64.0	-82.8	320	3
2023-09-25T12:00	15205	125	-64.1	-82.9	316	3
2023-09-25T12:00	15225	125	-64.4	-83.0	311	3
2023-09-25T12:00	15248	124	-64.5	-83.0	305	3
2023-09-25T12:00	15267	124	-64.6	-83.0	300	4
2023-09-25T12:00	15286	124	-64.8	-83.1	295	4
2023-09-25T12:00	15308	123	-65.0	-83.1	290	4
2023-09-25T12:00	15329	123	-65.1	-83.1	286	4
2023-09-25T12:00	15348	122	-65.2	-83.1	283	4
2023-09-25T12:00	15369	122	-65.2	-83.0	281	5
2023-09-25T12:00	15387	122	-65.3	-83.0	280	5
2023-09-25T12:00	15410	121	-65.3	-83.0	279	5
2023-09-25T12:00	15430	121	-65.5	-83.1	278	6
2023-09-25T12:00	15451	120	-65.6	-83.1	278	6
2023-09-25T12:00	15470	120	-65.8	-83.2	279	6
2023-09-25T12:00	15495	119	-66.0	-83.2	280	6
2023-09-25T12:00	15514	119	-66.1	-83.2	281	7
2023-09-25T12:00	15534	119	-66.2	-83.2	282	7
2023-09-25T12:00	15552	118	-66.3	-83.2	283	8
2023-09-25T12:00	15574	118	-66.4	-83.3	284	8
2023-09-25T12:00	15595	117	-66.5	-83.5	286	9
2023-09-25T12:00	15613	117	-66.4	-83.5	288	9
2023-09-25T12:00	15635	117	-66.1	-83.4	291	10
2023-09-25T12:00	15660	116	-65.9	-83.5	293	10
2023-09-25T12:00	15678	116	-65.9	-83.8	296	10
2023-09-25T12:00	15701	115	-65.2	-83.5	298	10
2023-09-25T12:00	15720	115	-64.7	-83.4	299	10
2023-09-25T12:00	15747	115	-64.3	-83.3	301	9
2023-09-25T12:00	15766	114	-64.2	-83.3	301	8
2023-09-25T12:00	15789	114	-64.2	-83.3	300	8
2023-09-25T12:00	15811	113	-64.3	-83.4	300	7
2023-09-25T12:00	15832	113	-64.3	-83.4	298	7
2023-09-25T12:00	15855	113	-64.4	-83.5	297	6
2023-09-25T12:00	15880	112	-64.5	-83.4	295	6
2023-09-25T12:00	15905	112	-64.6	-83.4	293	5
2023-09-25T12:00	15926	111	-64.8	-83.5	290	5
2023-09-25T12:00	15945	111	-64.9	-83.5	288	5
2023-09-25T12:00	15968	110	-65.1	-83.6	284	5
2023-09-25T12:00	15990	110	-65.2	-83.7	281	5
2023-09-25T12:00	16011	110	-64.9	-83.6	277	5
2023-09-25T12:00	16034	109	-64.5	-83.4	274	5
2023-09-25T12:00	16056	109	-64.4	-83.5	272	5
2023-09-25T12:00	16081	108	-64.3	-83.5	271	5
2023-09-25T12:00	16103	108	-64.3	-83.6	272	6
2023-09-25T12:00	16125	108	-64.4	-83.7	274	6
2023-09-25T12:00	16146	107	-64.4	-83.7	277	7
2023-09-25T12:00	16171	107	-64.4	-83.8	280	8
2023-09-25T12:00	16195	106	-64.5	-83.9	282	9
2023-09-25T12:00	16213	106	-64.5	-84.0	283	9
2023-09-25T12:00	16238	106	-64.5	-84.2	283	10
2023-09-25T12:00	16259	105	-64.5	-84.3	283	10
2023-09-25T12:00	16281	105	-64.2	-84.3	283	9
2023-09-25T12:00	16304	105	-63.7	-84.0	282	9
2023-09-25T12:00	16330	104	-63.5	-84.1	280	8
2023-09-25T12:00	16354	104	-63.6	-84.4	277	8
2023-09-25T12:00	16378	103	-63.7	-84.4	274	7
2023-09-25T12:00	16402	103	-63.9	-84.6	271	7
2023-09-25T12:00	16422	103	-63.9	-84.7	268	7
2023-09-25T12:00	16445	102	-63.7	-84.6	267	7
2023-09-25T12:00	16466	102	-63.6	-84.7	266	7
2023-09-25T12:00	16492	101	-63.6	-84.7	266	7
2023-09-25T12:00	16513	101	-63.5	-84.7	264	6
2023-09-25T12:00	16536	101	-63.5	-84.7	262	6
2023-09-25T12:00	16558	100	-63.5	-84.9	259	6
2023-09-25T12:00	16581	100	-63.4	-84.8	257	7
2023-09-25T12:00	16604	100	-63.3	-84.9	256	7
2023-09-25T12:00	16626	99	-63.4	-85.0	257	7
2023-09-25T12:00	16646	99	-63.5	-85.0	258	7
2023-09-25T12:00	16670	99	-63.6	-85.1	260	8
2023-09-25T12:00	16691	98	-63.6	-85.1	262	8
2023-09-25T12:00	16712	98	-63.4	-85.1	264	7
2023-09-25T12:00	16735	97	-63.0	-85.0	267	7
2023-09-25T12:00	16755	97	-62.7	-84.9	269	6
2023-09-25T12:00	16781	97	-62.5	-84.9	271	6
2023-09-25T12:00	16800	96	-62.5	-84.9	274	5
2023-09-25T12:00	16822	96	-62.5	-85.1	276	5
2023-09-25T12:00	16844	96	-62.6	-85.2	278	5
2023-09-25T12:00	16866	95	-62.7	-85.1	280	4
2023-09-25T12:00	16889	95	-62.8	-85.2	283	4
2023-09-25T12:00	16905	95	-62.9	-85.1	285	3
2023-09-25T12:00	16931	94	-63.0	-85.2	287	3
2023-09-25T12:00	16954	94	-63.2	-85.3	288	3
2023-09-25T12:00	16975	94	-63.2	-85.3	285	3
2023-09-25T12:00	16999	93	-63.1	-85.2	278	3
2023-09-25T12:00	17022	93	-63.2	-85.3	268	3
2023-09-25T12:00	17045	93	-63.3	-85.4	257	3
2023-09-25T12:00	17068	92	-63.5	-85.6	249	3
2023-09-25T12:00	17090	92	-63.5	-85.4	245	4
2023-09-25T12:00	17109	92	-63.4	-85.3	244	4
2023-09-25T12:00	17136	91	-63.6	-85.5	247	4
2023-09-25T12:00	17154	91	-63.8	-85.6	250	5
2023-09-25T12:00	17177	91	-63.8	-85.6	255	5
2023-09-25T12:00	17202	90	-64.0	-85.8	259	5
2023-09-25T12:00	17227	90	-63.9	-85.9	262	6
2023-09-25T12:00	17251	90	-63.7	-85.9	264	6
2023-09-25T12:00	17272	89	-63.6	-86.0	264	6
2023-09-25T12:00	17296	89	-63.4	-86.2	264	6
2023-09-25T12:00	17320	89	-63.1	-86.2	264	7
2023-09-25T12:00	17341	88	-62.7	-86.3	264	7
2023-09-25T12:00	17363	88	-62.0	-86.3	265	8
2023-09-25T12:00	17387	88	-61.8	-86.4	266	8
2023-09-25T12:00	17408	87	-61.8	-86.4	267	9
2023-09-25T12:00	17433	87	-61.8	-86.4	267	9
2023-09-25T12:00	17455	87	-61.8	-86.4	266	9
2023-09-25T12:00	17479	86	-61.7	-86.3	265	9
2023-09-25T12:00	17500	86	-61.8	-86.4	265	8
2023-09-25T12:00	17523	86	-61.7	-86.3	265	8
2023-09-25T12:00	17545	85	-61.7	-86.3	267	7
2023-09-25T12:00	17565	85	-61.7	-86.3	270	7
2023-09-25T12:00	17586	85	-61.7	-86.3	273	7
2023-09-25T12:00	17611	85	-61.9	-86.4	278	7
2023-09-25T12:00	17629	84	-62.1	-86.6	283	7
2023-09-25T12:00	17651	84	-62.1	-86.6	288	7
2023-09-25T12:00	17674	84	-62.0	-86.8	292	8
2023-09-25T12:00	17692	83	-61.8	-86.6	296	7
2023-09-25T12:00	17712	83	-61.7	-87.1	300	7
2023-09-25T12:00	17735	83	-61.4	-87.2	306	6
2023-09-25T12:00	17756	83	-60.6	-86.9	311	5
2023-09-25T12:00	17778	82	-59.4	-86.7	318	4
2023-09-25T12:00	17805	82	-59.0	-86.4	324	3
2023-09-25T12:00	17831	82	-59.1	-86.5	330	3
2023-09-25T12:00	17860	81	-59.2	-86.5	336	2
2023-09-25T12:00	17888	81	-59.3	-86.6	349	1
2023-09-25T12:00	17913	81	-59.5	-86.4	117	0
2023-09-25T12:00	17937	80	-59.7	-86.5	145	1
2023-09-25T12:00	17967	80	-60.0	-86.4	150	2
2023-09-25T12:00	17995	80	-60.2	-86.3	151	2
2023-09-25T12:00	18015	79	-60.4		151	3
2023-09-25T12:00	18037	79	-60.6	-86.3	151	3
2023-09-25T12:00	18059	79	-60.9	-86.5	151	3
2023-09-25T12:00	18082	78	-61.1	-86.6	152	3
2023-09-25T12:00	18107	78	-61.3	-86.8	154	4
2023-09-25T12:00	18132	78	-61.4	-86.9	157	4
2023-09-25T12:00	18158	77	-61.5	-87.0	159	5
2023-09-25T12:00	18185	77	-61.5	-87.0	162	5
2023-09-25T12:00	18211	77	-61.6	-87.0	165	6
2023-09-25T12:00	18235	77	-61.7	-87.1	169	6
2023-09-25T12:00	18253	76	-61.7	-87.1	175	6
2023-09-25T12:00	18277	76	-61.7	-87.1	179	7
2023-09-25T12:00	18300	76	-61.7	-87.4	183	8
2023-09-25T12:00	18326	75	-61.5	-87.3	185	8
2023-09-25T12:00	18347	75	-61.3	-87.4	186	9
2023-09-25T12:00	18368	75	-61.2	-87.3	186	10
2023-09-25T12:00	18390	75	-61.2	-87.3	186	10
2023-09-25T12:00	18413	74	-61.3	-87.4	186	10
2023-09-25T12:00	18437	74	-61.4	-87.5	187	10
2023-09-25T12:00	18458	74	-61.5	-87.6	188	10
2023-09-25T12:00	18483	74	-61.3	-87.1	189	10
2023-09-25T12:00	18505	73	-61.4	-87.2	190	10
2023-09-25T12:00	18529	73	-61.3	-87.1	192	10
2023-09-25T12:00	18552	73	-61.5	-87.3	194	10
2023-09-25T12:00	18576	72	-61.6	-87.3	197	10
2023-09-25T12:00	18597	72	-61.7	-87.4	201	10
2023-09-25T12:00	18617	72	-61.7	-87.4	205	10
2023-09-25T12:00	18637	72	-61.7	-87.4	208	10
2023-09-25T12:00	18664	71	-61.8	-87.5	212	10
2023-09-25T12:00	18687	71	-61.8	-87.5	216	10
2023-09-25T12:00	18709	71	-61.8	-87.5	219	10
2023-09-25T12:00	18733	71	-61.8	-87.5	221	10
2023-09-25T12:00	18753	70	-61.8	-87.5	224	10
2023-09-25T12:00	18775	70	-61.8	-87.5	226	9
2023-09-25T12:00	18797	70	-61.9	-87.6	229	9
2023-09-25T12:00	18824	70	-62.0	-87.6	233	8
2023-09-25T12:00	18846	69	-62.0	-87.6	238	8
2023-09-25T12:00	18869	69	-62.1	-87.7	242	8
2023-09-25T12:00	18885	69	-62.2	-87.5	246	7
2023-09-25T12:00	18914	69	-62.3	-87.6	251	7
2023-09-25T12:00	18936	68	-62.3		255	7
2023-09-25T12:00	18957	68	-62.4	-88.0	259	6
2023-09-25T12:00	18981	68	-62.3		262	6
2023-09-25T12:00	19005	68	-62.3		266	5
2023-09-25T12:00	19024	67	-62.1	-88.0	268	5
2023-09-25T12:00	19050	67	-61.9	-87.9	269	4
2023-09-25T12:00	19073	67	-61.8	-87.8	267	4
2023-09-25T12:00	19094	67	-61.7	-88.1	263	4
2023-09-25T12:00	19116	66	-61.5	-87.9	257	4
2023-09-25T12:00	19138	66	-61.5	-87.6	252	4
2023-09-25T12:00	19158	66	-61.6	-87.7	249	5
2023-09-25T12:00	19182	66	-61.6	-87.7	247	5
2023-09-25T12:00	19204	65	-61.6	-87.7	246	6
2023-09-25T12:00	19229	65	-61.6	-87.7	245	6
2023-09-25T12:00	19252	65	-61.6	-87.7	244	5
2023-09-25T12:00	19272	65	-61.5	-87.6	242	5
2023-09-25T12:00	19290	64	-61.4	-87.5	239	4
2023-09-25T12:00	19312	64	-61.4	-87.8	237	4
2023-09-25T12:00	19338	64	-61.4	-87.8	237	4
2023-09-25T12:00	19359	64	-61.3	-87.4	241	4
2023-09-25T12:00	19382	64	-61.3	-87.4	247	4
2023-09-25T12:00	19406	63	-61.4	-87.8	254	4
2023-09-25T12:00	19428	63	-61.4	-87.8	262	4
2023-09-25T12:00	19450	63	-61.4	-87.8	268	3
2023-09-25T12:00	19472	63	-61.1	-87.6	273	3
2023-09-25T12:00	19494	62	-61.0	-87.5	277	4
2023-09-25T12:00	19515	62	-61.0	-87.9	278	4
2023-09-25T12:00	19539	62	-61.0	-87.9	277	4
2023-09-25T12:00	19558	62	-60.9	-87.8	274	4
2023-09-25T12:00	19588	62	-60.7	-87.7	269	4
2023-09-25T12:00	19604	61	-60.7	-87.7	263	4
2023-09-25T12:00	19627	61	-60.6	-87.6	256	3
2023-09-25T12:00	19647	61	-60.5	-87.5	252	3
2023-09-25T12:00	19673	61	-60.6	-87.6	251	3
2023-09-25T12:00	19696	60	-60.6	-87.6	255	3
2023-09-25T12:00	19714	60	-60.5	-87.5	261	3
2023-09-25T12:00	19742	60	-60.5	-87.5	268	3
2023-09-25T12:00	19762	60	-60.5	-87.5	274	3
2023-09-25T12:00	19786	60	-60.6	-87.6	277	3
2023-09-25T12:00	19807	59	-60.7	-87.7	278	4
2023-09-25T12:00	19836	59	-60.5	-87.5	277	4
2023-09-25T12:00	19855	59	-60.4	-87.4	277	4
2023-09-25T12:00	19882	59	-60.4	-87.4	277	3
2023-09-25T12:00	19902	58	-60.4	-87.4	278	3
2023-09-25T12:00	19933	58	-60.3	-87.4	279	3
2023-09-25T12:00	19948	58	-60.3	-87.4	279	2
2023-09-25T12:00	19970	58	-60.4	-87.4	278	2
2023-09-25T12:00	19996	58	-60.4	-87.4	273	2
2023-09-25T12:00	20017	57	-60.4	-87.4	265	2
2023-09-25T12:00	20044	57	-60.4	-87.4	257	2
2023-09-25T12:00	20063	57	-60.4	-87.4	251	3
2023-09-25T12:00	20088	57	-60.4	-87.4	246	3
2023-09-25T12:00	20109	57	-60.5	-87.2	243	4
2023-09-25T12:00	20137	56	-60.6	-87.2	240	4
2023-09-25T12:00	20157	56	-60.8	-87.4	239	5
2023-09-25T12:00	20174	56	-60.9	-87.5	239	5
2023-09-25T12:00	20201	56	-61.0	-87.5	241	5
2023-09-25T12:00	20223	56	-61.1	-87.6	244	6
2023-09-25T12:00	20244	55	-61.1	-87.6	248	6
2023-09-25T12:00	20269	55	-60.8	-87.4	252	7
2023-09-25T12:00	20291	55	-60.5	-87.5	256	7
2023-09-25T12:00	20311	55	-60.5	-87.5	259	7
2023-09-25T12:00	20335	55	-60.5	-87.5	262	7
2023-09-25T12:00	20357	54	-60.5	-87.5	265	7
2023-09-25T12:00	20382	54	-60.4	-87.4	267	7
2023-09-25T12:00	20400	54	-60.4	-87.4	271	7
2023-09-25T12:00	20429	54	-60.4	-87.4	274	7
2023-09-25T12:00	20449	54	-60.2	-87.7	277	7
2023-09-25T12:00	20470	53	-59.9	-87.4	280	6
2023-09-25T12:00	20490	53	-59.7	-87.3	282	5
2023-09-25T12:00	20514	53	-59.8	-87.4	283	5
2023-09-25T12:00	20545	53	-59.8	-87.4	283	5
2023-09-25T12:00	20572	53	-59.7	-87.3	281	4
2023-09-25T12:00	20591	52	-59.7	-87.3	279	4
2023-09-25T12:00	20620	52	-59.5	-87.6	276	4
2023-09-25T12:00	20636	52	-59.2	-87.3	274	4
2023-09-25T12:00	20666	52	-58.9	-87.1	272	4
2023-09-25T12:00	20687	52	-58.8	-87.5	268	4
2023-09-25T12:00	20717	51	-58.4	-87.2	263	4
2023-09-25T12:00	20745	51	-58.1	-87.0	256	4
2023-09-25T12:00	20770	51	-57.9	-86.8	248	4
2023-09-25T12:00	20790	51	-57.9	-86.8	241	4
2023-09-25T12:00	20821	50	-58.0	-86.4	235	5
2023-09-25T12:00	20844	50	-58.2	-86.6	231	5
2023-09-25T12:00	20867	50	-58.3	-86.7	228	5
2023-09-25T12:00	20892	50	-58.4	-86.7	224	6
2023-09-25T12:00	20921	50	-58.3	-86.7	219	6
2023-09-25T12:00	20943	49	-58.3	-86.7	215	6
2023-09-25T12:00	20968	49	-58.4	-86.7	212	6
2023-09-25T12:00	20991	49	-58.6	-86.9	210	6
2023-09-25T12:00	21021	49	-58.7	-87.0	210	7
2023-09-25T12:00	21040	49	-58.8	-86.6	211	7
2023-09-25T12:00	21068	49	-58.8	-86.6	214	7
2023-09-25T12:00	21089	48	-58.9	-86.7	218	7
2023-09-25T12:00	21116	48	-59.1	-86.8	221	7
2023-09-25T12:00	21141	48	-59.4	-86.7	222	7
2023-09-25T12:00	21168	48	-59.5	-86.8	223	7
2023-09-25T12:00	21192	48	-59.4	-86.7	224	7
2023-09-25T12:00	21221	47	-59.4	-86.7	224	7
2023-09-25T12:00	21251	47	-59.6	-86.8	225	7
2023-09-25T12:00	21270	47	-59.8	-87.0	227	7
2023-09-25T12:00	21296	47	-59.8	-87.4	230	7
2023-09-25T12:00	21319	47	-59.8	-87.4	234	7
2023-09-25T12:00	21347	46	-59.7	-87.3	237	7
2023-09-25T12:00	21370	46	-59.7	-87.3	240	7
2023-09-25T12:00	21393	46	-59.7	-87.3	244	7
2023-09-25T12:00	21414	46	-59.7	-87.3	247	7
2023-09-25T12:00	21442	46	-59.8	-87.4	250	7
2023-09-25T12:00	21465	46	-59.9	-87.4	253	8
2023-09-25T12:00	21492	45	-60.0	-87.5	255	8
2023-09-25T12:00	21517	45	-60.1	-87.6	256	9
2023-09-25T12:00	21536	45	-60.0	-87.5	256	9
2023-09-25T12:00	21561	45	-59.9	-87.4	256	9
2023-09-25T12:00	21584	45	-59.8	-87.4	257	9
2023-09-25T12:00	21605	45	-59.9	-87.4	258	10
2023-09-25T12:00	21637	44	-59.8	-87.4	260	10
2023-09-25T12:00	21655	44	-59.6	-87.2	263	11
2023-09-25T12:00	21672	44	-59.5	-87.6	266	11
2023-09-25T12:00	21698	44	-59.6	-87.6	268	12
2023-09-25T12:00	21723	44	-59.3	-87.4	270	12
2023-09-25T12:00	21743	44	-59.2	-87.3	271	12
2023-09-25T12:00	21768	43	-59.3	-87.0	273	12
2023-09-25T12:00	21789	43	-59.4	-87.1	274	11
2023-09-25T12:00	21812	43	-59.6	-87.2	275	11
2023-09-25T12:00	21838	43	-59.6	-87.2	276	10
2023-09-25T12:00	21859	43	-59.6	-87.6	276	10
2023-09-25T12:00	21885	43	-59.3	-87.4	276	9
2023-09-25T12:00	21906	42	-59.0	-87.2	277	8
2023-09-25T12:00	21929	42	-58.9	-87.6	277	8
2023-09-25T12:00	21955	42	-58.7	-87.4	278	8
2023-09-25T12:00	21982	42	-58.5	-87.3	280	7
2023-09-25T12:00	22004	42	-58.3	-87.1	282	8
2023-09-25T12:00	22030	42	-58.2	-87.0	285	8
2023-09-25T12:00	22054	41	-58.2	-87.0	288	8
2023-09-25T12:00	22077	41	-58.2	-87.0	291	8
2023-09-25T12:00	22105	41	-58.1	-87.0	294	9
2023-09-25T12:00	22130	41	-57.9	-86.8	296	9
2023-09-25T12:00	22160	41	-57.8	-86.7	299	9
2023-09-25T12:00	22181	41	-57.8	-86.7	302	9
2023-09-25T12:00	22213	40	-57.7	-86.7	304	9
2023-09-25T12:00	22243	40	-57.6	-86.6	307	9
2023-09-25T12:00	22267	40	-57.8	-86.7	309	9
2023-09-25T12:00	22302	40	-57.8	-87.2	311	8
2023-09-25T12:00	22328	40	-57.5	-87.0	312	7
2023-09-25T12:00	22361	39	-57.2	-86.8	313	6
2023-09-25T12:00	22391	39	-56.9	-86.6	314	4
2023-09-25T12:00	22416	39	-56.9	-86.6	314	3
2023-09-25T12:00	22446	39	-57.0	-86.6	311	2
2023-09-25T12:00	22469	39	-57.0	-86.6	288	0
2023-09-25T12:00	22510	39	-57.0	-86.1	172	1
2023-09-25T12:00	22530	38	-57.2	-86.3	164	1
2023-09-25T12:00	22558	38	-57.4	-86.4	167	2
2023-09-25T12:00	22587	38	-57.6	-86.6	172	3
2023-09-25T12:00	22617	38	-57.8	-86.3	178	3
2023-09-25T12:00	22643	38	-58.0	-86.4	183	4
2023-09-25T12:00	22667	38	-58.0	-86.9	187	5
2023-09-25T12:00	22691	37	-57.9	-86.8	191	6
2023-09-25T12:00	22723	37	-58.0	-86.9	194	6
2023-09-25T12:00	22753	37	-58.0	-86.9	196	7
2023-09-25T12:00	22779	37	-58.1	-86.5	198	8
2023-09-25T12:00	22804	37	-58.2	-86.6	199	8
2023-09-25T12:00	22833	37	-58.4	-86.7	200	8
2023-09-25T12:00	22864	36	-58.6	-86.9	201	9
2023-09-25T12:00	22886	36	-58.7	-87.0	203	9
2023-09-25T12:00	22908	36	-58.8	-87.0	205	9
2023-09-25T12:00	22933	36	-59.0	-87.2	208	9
2023-09-25T12:00	22964	36	-59.1	-87.3	210	9
2023-09-25T12:00	22986	36	-59.1	-87.3	213	9
2023-09-25T12:00	23015	36	-59.0	-87.2	214	9
2023-09-25T12:00	23042	35	-58.9	-87.1	216	10
2023-09-25T12:00	23062	35	-59.0	-87.2	216	10
2023-09-25T12:00	23093	35	-59.2	-87.3	217	10
2023-09-25T12:00	23117	35	-59.3	-87.4	218	10
2023-09-25T12:00	23142	35	-59.5	-87.6	219	9
2023-09-25T12:00	23180	35	-59.5	-87.6	221	9
2023-09-25T12:00	23212	35	-59.4	-87.5	223	8
2023-09-25T12:00	23229	34	-59.4	-87.5	225	8
2023-09-25T12:00	23256	34	-59.5	-87.6	228	8
2023-09-25T12:00	23291	34	-59.6	-87.2	231	8
2023-09-25T12:00	23319	34	-59.8	-87.4	234	7
2023-09-25T12:00	23340	34	-59.9	-87.4	238	7
2023-09-25T12:00	23372	34	-60.0	-87.5	242	7
2023-09-25T12:00	23407	33	-60.0	-87.5	247	7
2023-09-25T12:00	23428	33	-60.0	-87.9	252	7
2023-09-25T12:00	23457	33	-59.7	-87.7	256	6
2023-09-25T12:00	23485	33	-59.4	-87.5	259	6
2023-09-25T12:00	23514	33	-59.4	-87.5	261	5
2023-09-25T12:00	23540	33	-59.5	-87.6	263	5
2023-09-25T12:00	23565	33	-59.7	-87.7	265	4
2023-09-25T12:00	23595	32	-60.0	-87.5	265	4
2023-09-25T12:00	23626	32	-60.1	-87.6	264	4
2023-09-25T12:00	23649	32	-60.2	-87.7	262	3
2023-09-25T12:00	23676	32	-60.3	-87.8	257	3
2023-09-25T12:00	23700	32	-60.2	-87.7	253	4
2023-09-25T12:00	23728	32	-60.2	-87.7	250	4
2023-09-25T12:00	23756	32	-60.3	-88.2	249	5
2023-09-25T12:00	23782	31	-60.1	-88.0	251	5
2023-09-25T12:00	23811	31	-59.7	-88.2	254	6
2023-09-25T12:00	23837	31	-59.3	-87.9	258	6
2023-09-25T12:00	23867	31	-59.1	-87.7	262	7
2023-09-25T12:00	23898	31	-59.1	-87.7	266	7
2023-09-25T12:00	23923	31	-59.2	-87.8	271	7
2023-09-25T12:00	23947	31	-59.3	-87.9	275	8
2023-09-25T12:00	23974	31	-59.3	-87.9	278	8
2023-09-25T12:00	23998	30	-59.0	-87.6	281	8
2023-09-25T12:00	24035	30	-58.9	-87.6	282	7
2023-09-25T12:00	24060	30	-58.7	-87.4	281	7
2023-09-25T12:00	24089	30	-58.7	-87.4	279	7
2023-09-25T12:00	24108	30	-58.7	-87.9	275	7
2023-09-25T12:00	24141	30	-58.5	-87.7	270	7
2023-09-25T12:00	24160	30	-58.3	-87.6	266	7
2023-09-25T12:00	24191	29	-58.3	-87.6	263	7
2023-09-25T12:00	24223	29	-58.1	-87.4	263	7
2023-09-25T12:00	24243	29	-57.9	-87.3	265	7
2023-09-25T12:00	24272	29	-57.6	-87.1	269	7
2023-09-25T12:00	24297	29	-57.5	-87.0	275	8
2023-09-25T12:00	24324	29	-57.3	-86.9	281	8
2023-09-25T12:00	24362	29	-57.4	-86.9	287	8
2023-09-25T12:00	24388	29	-57.4	-86.9	292	9
2023-09-25T12:00	24401	29	-57.3	-86.9	296	9
2023-09-25T12:00	24424	28	-57.0	-86.6	299	9
2023-09-25T12:00	24449	28	-57.0	-86.6	302	8
2023-09-25T12:00	24476	28	-57.1	-86.7	303	7
2023-09-25T12:00	24498	28	-57.1	-86.7	302	7
2023-09-25T12:00	24529	28	-57.0	-86.6	298	6
2023-09-25T12:00	24552	28	-56.8	-86.5	290	5
2023-09-25T12:00	24581	28	-56.9	-86.6	279	5
2023-09-25T12:00	24598	28	-56.8	-86.5	267	5
2023-09-25T12:00	24635	28	-56.9	-86.6	257	5
2023-09-25T12:00	24667	27	-56.9	-86.6	251	6
2023-09-25T12:00	24683	27	-56.9	-86.6	247	7
2023-09-25T12:00	24710	27	-56.9	-86.6	246	7
2023-09-25T12:00	24737	27	-56.8	-86.5	247	7
2023-09-25T12:00	24759	27	-56.8	-86.5	250	7
2023-09-25T12:00	24790	27	-56.9	-87.1	254	7
2023-09-25T12:00	24815	27	-57.0	-87.2	258	7
2023-09-25T12:00	24846	27	-56.8	-86.5	263	7
2023-09-25T12:00	24870	26	-56.5	-86.3	267	6
2023-09-25T12:00	24900	26	-56.4	-86.2	271	6
2023-09-25T12:00	24926	26	-56.6	-86.3	275	6
2023-09-25T12:00	24957	26	-56.8	-86.5	279	5
2023-09-25T12:00	24996	26	-56.9	-86.6	281	5
2023-09-25T12:00	25023	26	-56.9	-86.6	281	5
2023-09-25T12:00	25050	26	-57.0	-86.6	279	5
2023-09-25T12:00	25073	26	-57.1	-86.7	276	6
2023-09-25T12:00	25112	26	-57.4	-86.4	274	6
2023-09-25T12:00	25137	25	-57.5	-86.5	274	6
2023-09-25T12:00	25170	25	-57.5	-86.5	275	7
2023-09-25T12:00	25197	25	-57.5	-86.5	278	7
2023-09-25T12:00	25218	25	-57.5	-86.5	281	7
2023-09-25T12:00	25259	25	-57.6	-87.1	284	8
2023-09-25T12:00	25280	25	-57.7	-87.2	286	8
2023-09-25T12:00	25309	25	-57.7	-87.2	287	8
2023-09-25T12:00	25341	25	-57.7	-87.2	288	8
2023-09-25T12:00	25368	25	-57.5	-87.0	290	8
2023-09-25T12:00	25387	24	-57.3	-87.4	291	8
2023-09-25T12:00	25414	24	-57.0	-87.2	293	8
2023-09-25T12:00	25442	24	-56.6	-86.9	293	8
2023-09-25T12:00	25469	24	-56.4		292	8
2023-09-25T12:00	25493	24	-56.2	-86.6	290	8
2023-09-25T12:00	25519	24	-56.1	-86.5	288	8
2023-09-25T12:00	25547	24	-56.2	-86.6	286	8
2023-09-25T12:00	25567	24	-56.3	-86.6	284	8
2023-09-25T12:00	25592	24	-56.3	-86.6	282	8
2023-09-25T12:00	25614	24	-56.2	-86.6	280	9
2023-09-25T12:00	25641	23	-56.1	-86.5	279	9
2023-09-25T12:00	25663	23	-56.2	-86.6	278	10
2023-09-25T12:00	25684	23	-56.0	-86.4	279	11
2023-09-25T12:00	25706	23	-55.7	-86.8	280	11
2023-09-25T12:00	25725	23	-55.4	-86.6	281	11
2023-09-25T12:00	25756	23	-55.2	-86.4	282	11
2023-09-25T12:00	25772	23	-55.0	-86.3	282	11
2023-09-25T12:00	25797	23	-54.9	-86.2	283	11
2023-09-25T12:00	25806	23	-54.9	-86.2	285	11
2023-09-25T12:00	25833	23	-55.0	-86.3	286	11
2023-09-25T12:00	25855	23	-55.1	-86.4	289	11
2023-09-25T12:00	25890	23	-55.0	-86.3	292	10
2023-09-25T12:00	25914	23	-54.8	-86.1	295	10
2023-09-25T12:00	25936	22	-54.6	-86.0	298	10
2023-09-25T12:00	25966	22	-54.7	-85.5	301	10
2023-09-25T12:00	25987	22	-54.8	-85.5	305	10
2023-09-25T12:00	26024	22	-55.0	-85.7	307	9
2023-09-25T12:00	26037	22	-55.1	-85.8	308	9
2023-09-25T12:00	26069	22	-55.2	-85.8	308	8
2023-09-25T12:00	26102	22	-55.3	-85.9	307	8
2023-09-25T12:00	26129	22	-55.1	-85.8	304	8
2023-09-25T12:00	26158	22	-54.9	-86.2	301	7
2023-09-25T12:00	26188	22	-54.7	-86.1	297	7
2023-09-25T12:00	26205	21	-54.7	-86.1	294	7
2023-09-25T12:00	26246	21	-54.6	-86.0	290	7
2023-09-25T12:00	26287	21	-54.5	-85.9	286	7
2023-09-25T12:00	26317	21	-54.4	-85.8	281	7
2023-09-25T12:00	26338	21	-54.4	-85.8	275	7
2023-09-25T12:00	26367	21	-54.2	-85.7	267	7
2023-09-25T12:00	26404	21	-54.2	-85.7	258	7
2023-09-25T12:00	26433	21	-54.2	-85.7	251	7
2023-09-25T12:00	26460	21	-54.3	-85.8	244	7
2023-09-25T12:00	26503	21	-54.3	-85.8	241	7
2023-09-25T12:00	26531	20	-54.4	-85.8	239	7
2023-09-25T12:00	26569	20	-54.6	-85.4	239	7
2023-09-25T12:00	26591	20	-54.7	-85.5	241	7
2023-09-25T12:00	26611	20	-54.8	-85.5	244	7
2023-09-25T12:00	26649	20	-55.0	-85.7	247	7
2023-09-25T12:00	26676	20	-54.9	-86.2	251	7
2023-09-25T12:00	26703	20	-54.5	-85.9	254	7
2023-09-25T12:00	26742	20	-54.1	-85.6	258	7
2023-09-25T12:00	26767	20	-54.1	-85.6	261	8
2023-09-25T12:00	26798	20	-54.1	-85.6	262	8
2023-09-25T12:00	26816	20	-54.2	-85.7	263	8
2023-09-25T12:00	26839	19	-54.1	-85.6	264	8
2023-09-25T12:00	26859	19	-54.0	-85.5	265	8
2023-09-25T12:00	26896	19	-53.8	-85.4	266	8
2023-09-25T12:00	26927	19	-53.7	-86.0	267	8
2023-09-25T12:00	26944	19	-53.7	-86.0	269	8
2023-09-25T12:00	26964	19	-53.6		271	9
2023-09-25T12:00	26994	19	-53.5	-85.9	274	9
2023-09-25T12:00	27007	19	-53.4	-85.8	276	9
2023-09-25T12:00	27037	19	-53.3	-85.7	278	10
2023-09-25T12:00	27060	19	-53.3	-85.7	280	10
2023-09-25T12:00	27064	19	-53.2	-85.6	282	10
2023-09-25T12:00	27081	19	-52.9	-85.4	283	10
2023-09-25T12:00	27100	19	-52.8	-85.3	284	10
2023-09-25T12:00	27115	19	-52.6		284	9
2023-09-25T12:00	27143	19	-52.2	-85.7	285	9
2023-09-25T12:00	27153	19	-51.9	-85.5	285	8
2023-09-25T12:00	27171	19	-51.7	-85.3	285	8
2023-09-25T12:00	27191	18	-51.6	-85.2	286	7
2023-09-25T12:00	27211	18	-51.4	-85.1	286	7
2023-09-25T12:00	27226	18	-51.2	-85.0	285	7
2023-09-25T12:00	27248	18	-51.0	-84.8	283	7
2023-09-25T12:00	27271	18	-51.0	-84.8	281	8
2023-09-25T12:00	27306	18	-50.8	-84.7	278	8
2023-09-25T12:00	27319	18	-50.6	-84.5	275	7
2023-09-25T12:00	27346	18	-50.3	-84.3	273	7
2023-09-25T12:00	27365	18	-50.2	-84.2	271	7
2023-09-25T12:00	27385	18	-50.3	-84.3	268	6
2023-09-25T12:00	27414	18	-50.5	-84.5	266	6
2023-09-25T12:00	27445	18	-50.7	-83.8	265	6
2023-09-25T12:00	27471	18	-50.9	-84.0	264	5
2023-09-25T12:00	27491	18	-51.1	-84.1	263	5
2023-09-25T12:00	27526	18	-51.2	-84.2	262	5
2023-09-25T12:00	27550	17	-51.5	-84.4	261	5
2023-09-25T12:00	27572	17	-51.7	-83.9	260	5
2023-09-25T12:00	27609	17	-52.0	-84.1	259	5
2023-09-25T12:00	27646	17	-52.2	-84.2	258	5
2023-09-25T12:00	27669	17	-52.5	-84.4	256	5
2023-09-25T12:00	27700	17	-52.7	-84.6	255	4
2023-09-25T12:00	27730	17	-52.9	-84.7	253	4
2023-09-25T12:00	27762	17	-53.1	-84.9	251	4
2023-09-25T12:00	27788	17	-53.3	-85.0	250	3
2023-09-25T12:00	27822	17	-53.6	-85.3	248	3
2023-09-25T12:00	27837	17	-53.6	-85.3	244	3
2023-09-25T12:00	27875	17	-53.7	-85.3	240	3
2023-09-25T12:00	27907	17	-53.8	-85.4	235	3
2023-09-25T12:00	27941	16	-53.7	-85.3	229	3
2023-09-25T12:00	27983	16	-53.7	-85.3	225	3
2023-09-25T12:00	28008	16	-53.7	-85.3	222	3
2023-09-25T12:00	28038	16	-53.8	-85.4	222	3
2023-09-25T12:00	28066	16	-53.9	-85.5	222	3
2023-09-25T12:00	28085	16	-54.0	-85.5	224	3
2023-09-25T12:00	28128	16	-54.1	-85.6	226	3
2023-09-25T12:00	28152	16	-54.0	-85.5	226	3
2023-09-25T12:00	28177	16	-53.9	-85.5	227	4
2023-09-25T12:00	28209	16	-53.7	-85.3	226	3
2023-09-25T12:00	28243	16	-53.5	-85.9	225	3
2023-09-25T12:00	28287	16	-53.6		225	3
2023-09-25T12:00	28311	16	-53.7	-86.0	226	3
2023-09-25T12:00	28338	15	-53.8	-86.1	229	3
2023-09-25T12:00	28367	15	-53.7	-86.0	230	4
2023-09-25T12:00	28394	15	-53.6	-85.3	230	4
2023-09-25T12:00	28426	15	-53.6	-85.3	229	4
2023-09-25T12:00	28457	15	-53.5	-85.2	226	5
2023-09-25T12:00	28491	15	-53.6	-85.3	225	6
2023-09-25T12:00	28511	15	-53.8	-85.4	223	6
2023-09-25T12:00	28548	15	-54.0	-85.5	221	7
2023-09-25T12:00	28559	15	-54.0	-85.5	220	8
2023-09-25T12:00	28589	15	-54.1	-85.6	219	8
2023-09-25T12:00	28621	15	-54.2	-85.7	218	8
2023-09-25T12:00	28651	15	-54.2	-85.7	219	8
2023-09-25T12:00	28670	15	-54.3	-85.8	220	8
2023-09-25T12:00	28700	15	-54.4	-85.8	223	7
2023-09-25T12:00	28712	15	-54.4	-85.8	226	7
2023-09-25T12:00	28752	15	-54.4	-85.8	230	7
2023-09-25T12:00	28769	14	-54.4	-85.8	233	7
2023-09-25T12:00	28787	14	-54.3	-85.8	236	7
2023-09-25T12:00	28821	14	-54.3	-85.8	238	7
2023-09-25T12:00	28831	14	-54.4	-85.8	241	7
2023-09-25T12:00	28865	14	-54.4	-85.8	244	7
2023-09-25T12:00	28895	14	-54.3	-85.8	246	8
2023-09-25T12:00	28916	14	-54.2	-85.7	249	8
2023-09-25T12:00	28934	14	-54.2	-85.7	251	9
2023-09-25T12:00	28973	14	-54.2	-85.7	253	9
2023-09-25T12:00	28982	14	-54.2	-86.4	256	9
2023-09-25T12:00	29016	14	-54.0	-86.2	258	10
2023-09-25T12:00	29043	14	-53.9	-86.2	261	10
2023-09-25T12:00	29061	14	-53.6		265	10
2023-09-25T12:00	29089	14	-53.3	-85.7	268	10
2023-09-25T12:00	29105	14	-53.0	-85.5	271	10
2023-09-25T12:00	29131	14	-52.9	-85.4	273	10
2023-09-25T12:00	29150	14	-52.9	-85.4	274	10
2023-09-25T12:00	29187	14	-52.9	-85.4	275	10
2023-09-25T12:00	29210	13	-52.8	-85.3	274	10
2023-09-25T12:00	29258	13	-52.8	-85.3	273	10
2023-09-25T12:00	29263	13	-52.8	-85.3	271	10
2023-09-25T12:00	29299	13	-52.9	-85.4	270	10
2023-09-25T12:00	29324	13	-52.9	-85.4	268	10
2023-09-25T12:00	29368	13	-52.8	-85.3	268	10
2023-09-25T12:00	29373	13	-52.7	-85.3	267	10
2023-09-25T12:00	29412	13	-52.6	-85.2	267	10
2023-09-25T12:00	29423	13	-52.5	-85.9	265	10
2023-09-25T12:00	29467	13	-52.3	-85.8	263	11
2023-09-25T12:00	29482	13	-52.1	-85.6	261	11
2023-09-25T12:00	29505	13	-52.0	-85.5	260	11
2023-09-25T12:00	29541	13	-51.8	-85.4	258	12
2023-09-25T12:00	29582	13	-51.7	-85.3	257	12
2023-09-25T12:00	29617	13	-51.6	-85.2	255	12
2023-09-25T12:00	29635	13	-51.5	-85.2	253	13
2023-09-25T12:00	29654	13	-51.3	-85.0	251	14
2023-09-25T12:00	29686	13	-51.2	-85.0	250	14
2023-09-25T12:00	29716	12	-51.2	-85.0	249	15
2023-09-25T12:00	29749	12	-51.3	-85.0	248	15
2023-09-25T12:00	29774	12	-51.4	-84.3	248	15
2023-09-25T12:00	29817	12	-51.6	-84.5	249	15
2023-09-25T12:00	29857	12	-51.8	-84.6	249	14
2023-09-25T12:00	29860	12	-51.9	-84.7	249	14
2023-09-25T12:00	29886	12	-52.0	-84.8	250	14
2023-09-25T12:00	29925	12	-52.0	-84.8	250	14
2023-09-25T12:00	29949	12	-51.9	-85.5	250	14
2023-09-25T12:00	29956	12	-51.6	-85.2	251	14
2023-09-25T12:00	29990	12	-51.3	-85.0	251	14
2023-09-25T12:00	30034	12	-51.2	-85.0	253	13
2023-09-25T12:00	30061	12	-51.3	-85.0	254	13
2023-09-25T12:00	30088	12	-51.3	-85.0	257	13
2023-09-25T12:00	30097	12	-51.3	-85.0	259	13
2023-09-25T12:00	30100	12	-51.2	-85.0	260	13
2023-09-25T12:00	30142	12	-51.2	-85.0	261	12
2023-09-25T12:00	30159	12	-51.2	-85.0	262	12
2023-09-25T12:00	30197	12	-51.3	-85.0	263	12
2023-09-25T12:00	30199	12	-51.4	-85.1	264	11
2023-09-25T12:00	30241	12	-51.5	-85.2	266	11
2023-09-25T12:00	30260	11	-51.5	-85.2	269	11
2023-09-25T12:00	30283	11	-51.3	-85.0	271	11
2023-09-25T12:00	30299	11	-51.2	-85.0	273	11
2023-09-25T12:00	30329	11	-50.9	-84.7	274	12
2023-09-25T12:00	30360	11	-50.9	-84.7	274	12
2023-09-25T12:00	30382	11	-50.9	-84.7	274	13
2023-09-25T12:00	30407	11	-51.0	-84.8	275	13
2023-09-25T12:00	30429	11	-51.1	-84.9	275	14
2023-09-25T12:00	30448	11	-51.0	-84.8	276	14
2023-09-25T12:00	30486	11	-50.8	-84.7	276	15
2023-09-25T12:00	30519	11	-50.5	-84.5	277	15
2023-09-25T12:00	30561	11	-50.3	-84.3	278	16
2023-09-25T12:00	30580	11	-50.3	-84.3	279	16
2023-09-25T12:00	30615	11	-50.4	-84.4	280	16
2023-09-25T12:00	30632	11	-50.5	-84.5	281	16
2023-09-25T12:00	30663	11	-50.7	-84.6	282	16
2023-09-25T12:00	30704	11	-50.8	-84.7	282	16
2023-09-25T12:00	30746	11	-50.9	-84.7	281	16
2023-09-25T12:00	30756	11	-51.0	-84.8	280	16
2023-09-25T12:00	30799	11	-50.9	-84.7	279	16
2023-09-25T12:00	30829	11	-50.6	-84.5	278	16
2023-09-25T12:00	30870	10	-50.3	-84.3	277	16
2023-09-25T12:00	30909	10	-50.2	-84.2	276	16
2023-09-25T12:00	30942	10	-50.2	-85.1	275	16
2023-09-25T12:00	30965	10	-50.2	-85.1	275	16
2023-09-25T12:00	30986	10	-50.0	-85.0	275	17
2023-09-25T12:00	31021	10	-49.9	-84.9	275	17
2023-09-25T12:00	31070	10	-49.9	-84.9	275	18
2023-09-25T12:00	31110	10	-49.9	-84.0	276	18
2023-09-25T12:00	31146	10	-49.8	-84.0	276	18
2023-09-25T12:00	31164	10	-49.9	-84.0	276	18
2023-09-25T12:00	31220	10	-49.9	-84.0	277	18
2023-09-25T12:00	31264	10	-50.0	-84.1	278	18
2023-09-25T12:00	31277	10	-50.1	-84.2	279	18
2023-09-25T12:00	31325	10	-50.1	-84.2	280	18
2023-09-25T12:00	31340	10	-50.1	-84.2	280	18
2023-09-25T12:00	31410	10	-49.9	-84.9	280	18
2023-09-25T12:00	31428	10	-49.5	-84.6	281	19
2023-09-25T12:00	31464	10	-49.3	-84.5	281	19
2023-09-25T12:00	31486	9	-49.2	-84.4	281	19
2023-09-25T12:00	31524	9	-49.1	-84.3	280	19
2023-09-25T12:00	31551	9	-48.8	-84.1	279	19
2023-09-25T12:00	31580	9	-48.5	-83.9	277	19
2023-09-25T12:00	31596	9	-48.4	-83.8	275	18
2023-09-25T12:00	31616	9	-48.2	-84.8	272	17
2023-09-25T12:00	31655	9	-47.9	-84.6	270	17
2023-09-25T12:00	31670	9	-47.7	-84.4	269	16
2023-09-25T12:00	31694	9	-47.6	-84.3	267	15
2023-09-25T12:00	31707	9	-47.5	-84.3	265	15
2023-09-25T12:00	31757	9	-47.4	-84.2	264	14
2023-09-25T12:00	31758	9	-47.3	-84.1	263	13
2023-09-25T12:00	31779	9	-47.4	-83.1	262	13
2023-09-25T12:00	31822	9	-47.5	-83.2	262	13
2023-09-25T12:00	31848	9	-47.6	-83.3	261	12
2023-09-25T12:00	31851	9	-47.6	-83.3	259	12
2023-09-25T12:00	31894	9	-47.5	-83.2	258	12
2023-09-25T12:00	31914	9	-47.3	-83.1	255	12
2023-09-25T12:00	31918	9	-47.2	-83.0	254	13
2023-09-25T12:00	31954	9	-47.1	-84.0	253	14
2023-09-25T12:00	31961	9	-47.0	-83.9	253	14
2023-09-25T12:00	32006	9	-47.0	-83.9	254	15
2023-09-25T12:00	32041	9	-46.9	-83.9	254	15
2023-09-25T12:00	32042	9	-46.8	-83.8	254	16
2023-09-25T12:00	32065	9	-46.6	-83.6	255	16
2023-09-25T12:00	32071	9	-46.3	-83.4	255	16
2023-09-25T12:00	32109	9	-46.1	-83.3	256	16
2023-09-25T12:00	32135	9	-45.9	-83.2	257	16
2023-09-25T12:00	32155	9	-45.9	-83.2	259	16
2023-09-25T12:00	32186	9	-45.9	-83.2	261	17
2023-09-25T12:00	32191	9	-45.9	-83.2	262	17
2023-09-25T12:00	32204	9	-45.8	-83.1	264	18
2023-09-25T12:00	32270	8	-45.5	-82.9	266	18
2023-09-25T12:00	32297	8	-45.0	-82.5	269	19
2023-09-25T12:00	32315	8	-44.9	-82.5	270	19
2023-09-25T12:00	32359	8	-44.6	-82.2	271	19
2023-09-25T12:00	32390	8	-44.4	-82.1	272	18
2023-09-25T12:00	32411	8	-44.5	-82.2	274	18
2023-09-25T12:00	32436	8	-44.6	-82.2	275	18
2023-09-25T12:00	32480	8	-44.7	-82.3	276	17
2023-09-25T12:00	32489	8	-44.8	-82.4	278	17
2023-09-25T12:00	32492	8	-44.8	-82.4	281	16
2023-09-25T12:00	32552	8	-44.9	-82.5	283	16
2023-09-25T12:00	32598	8	-45.0	-82.5	284	15
2023-09-25T12:00	32605	8	-45.0	-82.5	285	15
2023-09-25T12:00	32641	8	-45.0	-82.5	285	15
2023-09-25T12:00	32665	8	-44.9	-82.5	284	14
2023-09-25T12:00	32715	8	-44.8	-82.4	282	14
2023-09-25T12:00	32730	8	-44.7	-82.3	280	14
2023-09-25T12:00	32767	8	-44.5	-82.2	276	14
2023-09-25T12:00	32814	8	-44.5	-82.2	275	14
2023-09-25T12:00	32822	8	-44.6	-82.2	273	14
2023-09-25T12:00	32867	8	-44.7	-82.3	272	14
2023-09-25T12:00	32900	8	-44.8	-82.4	271	13
2023-09-25T12:00	32911	8	-45.0	-82.5	270	13
2023-09-25T12:00	32919	8	-45.1	-82.6	270	13
2023-09-25T12:00	32958	8	-45.2	-82.7	270	13
2023-09-25T12:00	32998	8	-45.2	-82.7	271	13
2023-09-25T18:00	112	1012	17.7	12.8	110	2
2023-09-25T18:00	137	1009	18.7	12.7	107	2
2023-09-25T18:00	165	1006	18.9	12.4	110	3
2023-09-25T18:00	190	1003	18.8	12.4	111	4
2023-09-25T18:00	214	1000	18.6	12.3	112	5
2023-09-25T18:00	236	997	18.5	12.3	112	5
2023-09-25T18:00	263	994	18.2	12.3	113	6
2023-09-25T18:00	291	991	18.0	12.2	114	6
2023-09-25T18:00	316	988	17.8	12.3	116	6
2023-09-25T18:00	340	985	17.5	12.2	119	6
2023-09-25T18:00	366	983	17.3	12.2	121	6
2023-09-25T18:00	390	980	17.0	12.0	122	6
2023-09-25T18:00	413	977	16.8	12.0	123	6
2023-09-25T18:00	436	974	16.6	12.0	124	6
2023-09-25T18:00	462	971	16.4	11.9	124	6
2023-09-25T18:00	491	968	16.1	11.7	125	6
2023-09-25T18:00	519	965	15.9	11.8	127	6
2023-09-25T18:00	546	962	15.6	11.6	128	6
2023-09-25T18:00	571	959	15.4	11.7	129	7
2023-09-25T18:00	595	956	15.2	11.5	130	7
2023-09-25T18:00	620	954	15.0	11.5	130	7
2023-09-25T18:00	646	951	14.8	11.5	131	8
2023-09-25T18:00	673	948	14.5	11.4	131	8
2023-09-25T18:00	699	945	14.4	11.3	132	8
2023-09-25T18:00	725	942	14.1	11.2	133	8
2023-09-25T18:00	756	938	13.8	11.1	134	8
2023-09-25T18:00	785	935	13.5	11.1	135	8
2023-09-25T18:00	819	932	13.3	11.0	137	8
2023-09-25T18:00	847	928	13.1	10.8	138	8
2023-09-25T18:00	879	925	12.9	10.7	139	8
2023-09-25T18:00	910	922	12.6	10.6	141	8
2023-09-25T18:00	936	918	12.4	10.5	142	8
2023-09-25T18:00	965	915	12.2	10.2	145	8
2023-09-25T18:00	993	912	12.0	10.2	148	8
2023-09-25T18:00	1023	909	11.9	9.8	151	7
2023-09-25T18:00	1049	906	11.8	9.5	155	7
2023-09-25T18:00	1075	903	11.7	9.2	159	7
2023-09-25T18:00	1105	900	11.4	9.1	162	6
2023-09-25T18:00	1131	897	11.2	8.8	165	6
2023-09-25T18:00	1160	894	11.2	8.2	168	6
2023-09-25T18:00	1188	891	11.0	7.9	171	6
2023-09-25T18:00	1217	888	10.7	7.7	173	6
2023-09-25T18:00	1245	885	10.5	7.5	175	6
2023-09-25T18:00	1275	882	10.3	7.5	176	6
2023-09-25T18:00	1305	879	10.0	7.5	176	7
2023-09-25T18:00	1334	876	9.7	7.5	176	7
2023-09-25T18:00	1359	873	9.5	7.5	176	7
2023-09-25T18:00	1390	870	9.3	7.6	176	7
2023-09-25T18:00	1418	867	9.1	7.6	177	8
2023-09-25T18:00	1444	864	8.9	7.4	180	8
2023-09-25T18:00	1477	861	8.6	7.2	184	8
2023-09-25T18:00	1505	858	8.4	7.3	189	8
2023-09-25T18:00	1530	855	8.3	7.4	194	7
2023-09-25T18:00	1560	852	8.6	7.3	199	7
2023-09-25T18:00	1590	849	10.1	5.6	202	7
2023-09-25T18:00	1619	846	10.7	4.9	203	7
2023-09-25T18:00	1650	843	11.0	4.5	203	7
2023-09-25T18:00	1685	840	11.3	4.3	202	7
2023-09-25T18:00	1717	836	11.5	4.0	200	7
2023-09-25T18:00	1750	833	11.5	3.7	200	7
2023-09-25T18:00	1775	830	11.6	3.0	201	7
2023-09-25T18:00	1806	828	11.5	3.0	203	7
2023-09-25T18:00	1838	825	11.3	2.9	207	7
2023-09-25T18:00	1864	822	11.2	2.8	210	7
2023-09-25T18:00	1891	819	11.0	2.6	212	7
2023-09-25T18:00	1918	816	10.9	2.5	214	7
2023-09-25T18:00	1947	814	10.6	2.3	215	7
2023-09-25T18:00	1976	811	10.4	2.1	216	7
2023-09-25T18:00	2007	808	10.2	2.2	217	7
2023-09-25T18:00	2039	805	9.9	2.3	218	7
2023-09-25T18:00	2068	802	9.7	2.3	218	7
2023-09-25T18:00	2099	799	9.5	2.3	218	8
2023-09-25T18:00	2130	796	9.3	2.2	217	8
2023-09-25T18:00	2160	793	9.0	2.2	217	8
2023-09-25T18:00	2191	790	8.8	2.2	217	8
2023-09-25T18:00	2220	787	8.6	2.1	217	8
2023-09-25T18:00	2250	785	8.4	2.1	217	8
2023-09-25T18:00	2281	782	8.1	1.9	219	8
2023-09-25T18:00	2312	779	8.0	1.9	221	8
2023-09-25T18:00	2340	776	7.9	1.5	224	8
2023-09-25T18:00	2370	773	7.7	1.2	227	7
2023-09-25T18:00	2401	770	7.5	1.3	229	7
2023-09-25T18:00	2430	768	7.3	1.3	230	7
2023-09-25T18:00	2461	765	7.1	1.2	230	6
2023-09-25T18:00	2490	762	6.9	0.9	228	5
2023-09-25T18:00	2522	759	6.8	0.5	225	5
2023-09-25T18:00	2553	756	7.2	-0.3	220	4
2023-09-25T18:00	2581	754	7.6	-0.9	214	3
2023-09-25T18:00	2613	751	7.7	-1.1	210	2
2023-09-25T18:00	2641	748	7.6	-1.6	211	2
2023-09-25T18:00	2673	745	7.9	-2.2	218	2
2023-09-25T18:00	2704	743	8.0	-2.4	228	2
2023-09-25T18:00	2732	740	7.9	-2.6	238	3
2023-09-25T18:00	2761	737	7.7	-2.7	246	3
2023-09-25T18:00	2792	735	7.5	-2.9	251	3
2023-09-25T18:00	2822	732	7.3	-3.1	256	4
2023-09-25T18:00	2852	729	7.1	-3.4	260	4
2023-09-25T18:00	2884	727	7.0	-3.8	264	4
2023-09-25T18:00	2912	724	6.9	-4.5	268	4
2023-09-25T18:00	2943	721	6.8	-5.2	271	4
2023-09-25T18:00	2976	718	6.6	-6.0	274	5
2023-09-25T18:00	3008	716	6.5	-9.0	275	5
2023-09-25T18:00	3038	713	6.3	-9.8	276	5
2023-09-25T18:00	3068	710	6.0	-9.9	275	5
2023-09-25T18:00	3100	708	5.8	-8.7	273	5
2023-09-25T18:00	3131	705	5.8	-9.1	270	5
2023-09-25T18:00	3161	702	5.5	-7.6	266	5
2023-09-25T18:00	3193	700	5.4	-7.6	262	5
2023-09-25T18:00	3226	697	5.2	-8.0	260	5
2023-09-25T18:00	3256	694	5.0	-8.5	258	5
2023-09-25T18:00	3289	691	4.9	-11.1	256	5
2023-09-25T18:00	3321	689	4.9	-13.5	254	5
2023-09-25T18:00	3354	686	4.6	-13.6	251	5
2023-09-25T18:00	3385	683	4.5	-13.3	247	5
2023-09-25T18:00	3417	681	4.4	-12.7	244	6
2023-09-25T18:00	3450	678	4.2	-11.3	242	6
2023-09-25T18:00	3481	675	4.0	-10.6	241	6
2023-09-25T18:00	3513	673	3.7	-10.0	240	7
2023-09-25T18:00	3542	670	3.4	-10.0	239	7
2023-09-25T18:00	3572	668	3.2	-9.2	238	7
2023-09-25T18:00	3604	665	3.0	-9.7	235	6
2023-09-25T18:00	3637	662	3.0	-11.0	232	6
2023-09-25T18:00	3667	660	2.9	-13.0	228	6
2023-09-25T18:00	3699	657	2.9	-14.0	225	6
2023-09-25T18:00	3728	655	2.8	-16.0	223	6
2023-09-25T18:00	3762	652	2.6	-16.5	222	6
2023-09-25T18:00	3790	650	2.5	-17.2	222	6
2023-09-25T18:00	3824	647	2.4	-18.4	221	6
2023-09-25T18:00	3855	645	2.3	-22.7	220	6
2023-09-25T18:00	3887	642	2.1	-23.3	219	7
2023-09-25T18:00	3919	640	1.8	-21.5	217	7
2023-09-25T18:00	3953	637	1.7	-19.7	216	7
2023-09-25T18:00	3984	635	1.5	-15.8	215	8
2023-09-25T18:00	4016	632	1.1	-14.7	216	8
2023-09-25T18:00	4049	630	0.9	-14.0	216	8
2023-09-25T18:00	4078	627	0.6	-13.2	217	8
2023-09-25T18:00	4106	625	0.3	-13.6	218	8
2023-09-25T18:00	4141	622	0.1	-14.4	218	8
2023-09-25T18:00	4172	620	-0.2	-15.6	218	8
2023-09-25T18:00	4203	617	-0.4	-15.9	218	8
2023-09-25T18:00	4232	615	-0.5	-19.2	218	8
2023-09-25T18:00	4264	613	-0.6	-26.3	218	8
2023-09-25T18:00	4293	611	-0.7	-33.4	218	8
2023-09-25T18:00	4321	608	-0.7	-34.9	218	8
2023-09-25T18:00	4353	606	-0.5	-28.5	219	7
2023-09-25T18:00	4385	604	-0.6	-32.4	219	7
2023-09-25T18:00	4414	601	-0.7	-36.2	219	7
2023-09-25T18:00	4448	599	-1.0	-37.0	220	6
2023-09-25T18:00	4480	596	-1.2	-38.3	220	6
2023-09-25T18:00	4512	594	-1.5	-41.1	220	5
2023-09-25T18:00	4545	592	-1.8	-42.2	221	5
2023-09-25T18:00	4579	589	-2.1	-42.9	224	4
2023-09-25T18:00	4612	587	-2.3	-43.5	229	4
2023-09-25T18:00	4644	584	-2.5	-44.2	236	4
2023-09-25T18:00	4676	582	-2.6	-45.4	245	3
2023-09-25T18:00	4708	579	-2.6	-46.0	255	3
2023-09-25T18:00	4741	577	-2.7	-46.1	266	3
2023-09-25T18:00	4773	575	-2.6	-45.4	276	3
2023-09-25T18:00	4804	572	-2.5	-44.2	284	3
2023-09-25T18:00	4835	570	-2.7	-42.8	289	3
2023-09-25T18:00	4864	568	-2.9	-41.7	291	3
2023-09-25T18:00	4889	566	-3.2	-40.1	289	3
2023-09-25T18:00	4923	564	-3.4	-39.4	285	3
2023-09-25T18:00	4951	562	-3.7	-39.3	282	3
2023-09-25T18:00	4978	560	-3.9	-38.9	281	3
2023-09-25T18:00	5009	558	-4.2	-38.9	282	4
2023-09-25T18:00	5037	556	-4.4	-37.1	282	4
2023-09-25T18:00	5065	554	-4.7	-36.5	282	4
2023-09-25T18:00	5095	552	-4.9	-36.7	281	4
2023-09-25T18:00	5122	550	-5.2	-36.7	280	4
2023-09-25T18:00	5155	548	-5.4	-36.9	279	4
2023-09-25T18:00	5186	545	-5.7	-36.9	278	4
2023-09-25T18:00	5219	543	-5.9	-37.2	278	4
2023-09-25T18:00	5247	541	-6.2	-37.3	278	4
2023-09-25T18:00	5277	539	-6.4	-37.4	278	4
2023-09-25T18:00	5310	537	-6.6	-37.8	278	4
2023-09-25T18:00	5338	535	-6.7	-38.7	278	5
2023-09-25T18:00	5371	533	-6.9	-39.9	278	5
2023-09-25T18:00	5400	531	-7.1	-39.2	278	5
2023-09-25T18:00	5430	529	-7.4	-39.2	278	5
2023-09-25T18:00	5463	526	-7.7	-39.2	279	5
2023-09-25T18:00	5493	524	-8.0	-39.3	279	5
2023-09-25T18:00	5526	522	-8.3	-39.3	279	5
2023-09-25T18:00	5560	520	-8.6	-39.5	278	5
2023-09-25T18:00	5593	518	-8.8	-39.9	276	4
2023-09-25T18:00	5627	515	-9.1	-40.1	273	4
2023-09-25T18:00	5657	513	-9.4	-40.6	271	4
2023-09-25T18:00	5687	511	-9.6	-41.8	268	4
2023-09-25T18:00	5716	509	-9.8	-43.6	266	5
2023-09-25T18:00	5746	507	-10.0	-43.8	263	5
2023-09-25T18:00	5779	505	-10.3	-43.7	260	5
2023-09-25T18:00	5805	504	-10.4	-44.1	256	5
2023-09-25T18:00	5836	502	-10.6	-46.3	253	4
2023-09-25T18:00	5864	500	-10.8	-46.8	250	4
2023-09-25T18:00	5896	498	-11.1	-47.0	248	4
2023-09-25T18:00	5928	495	-11.3	-47.2	248	4
2023-09-25T18:00	5959	494	-11.5	-47.3	248	4
2023-09-25T18:00	5987	492	-11.7	-47.5	247	4
2023-09-25T18:00	6021	490	-12.0	-46.1	246	4
2023-09-25T18:00	6054	488	-12.3	-44.8	246	5
2023-09-25T18:00	6083	486	-12.5	-46.5	246	5
2023-09-25T18:00	6119	484	-12.7	-48.6	247	5
2023-09-25T18:00	6145	482	-12.8	-47.0	249	5
2023-09-25T18:00	6175	480	-13.0	-46.3	252	5
2023-09-25T18:00	6207	478	-13.2	-45.5	255	5
2023-09-25T18:00	6239	476	-13.4	-45.1	258	6
2023-09-25T18:00	6270	474	-13.7	-45.2	261	6
2023-09-25T18:00	6303	472	-13.9	-45.3	263	6
2023-09-25T18:00	6335	470	-14.2	-45.1	265	6
2023-09-25T18:00	6366	468	-14.4	-43.5	266	6
2023-09-25T18:00	6401	466	-14.5	-44.0	264	6
2023-09-25T18:00	6426	464	-14.6	-44.0	261	6
2023-09-25T18:00	6455	462	-14.8	-44.0	256	6
2023-09-25T18:00	6480	461	-15.0	-43.8	253	6
2023-09-25T18:00	6513	459	-15.2	-43.7	251	6
2023-09-25T18:00	6546	457	-15.4	-44.5	251	6
2023-09-25T18:00	6572	455	-15.7	-45.1	254	7
2023-09-25T18:00	6600	454	-16.0	-45.5	257	7
2023-09-25T18:00	6633	452	-16.2	-48.3	262	7
2023-09-25T18:00	6663	450	-16.4	-47.0	266	7
2023-09-25T18:00	6696	448	-16.6	-45.8	270	7
2023-09-25T18:00	6730	446	-16.9	-46.2	272	7
2023-09-25T18:00	6760	444	-17.1	-48.7	273	7
2023-09-25T18:00	6793	442	-17.3	-49.6	272	7
2023-09-25T18:00	6819	440	-17.5	-49.8	269	8
2023-09-25T18:00	6852	439	-17.6	-49.6	266	8
2023-09-25T18:00	6884	437	-17.8		262	9
2023-09-25T18:00	6917	435	-18.0	-46.5	259	9
2023-09-25T18:00	6948	433	-18.2	-46.7	257	9
2023-09-25T18:00	6978	431	-18.4	-47.0	257	9
2023-09-25T18:00	7005	430	-18.6	-47.0	258	9
2023-09-25T18:00	7041	428	-19.0	-47.2	259	9
2023-09-25T18:00	7073	426	-19.3	-48.3	260	9
2023-09-25T18:00	7102	424	-19.5	-48.8	263	9
2023-09-25T18:00	7129	423	-19.7	-49.0	265	9
2023-09-25T18:00	7166	420	-19.9	-49.5	269	8
2023-09-25T18:00	7206	418	-20.3	-50.1	273	8
2023-09-25T18:00	7237	416	-20.4	-51.0	276	8
2023-09-25T18:00	7273	415	-20.5	-52.3	280	8
2023-09-25T18:00	7304	413	-20.8	-52.3	282	7
2023-09-25T18:00	7341	411	-20.9	-51.9	284	7
2023-09-25T18:00	7371	409	-21.2	-51.9	284	7
2023-09-25T18:00	7401	408	-21.4	-51.8	283	7
2023-09-25T18:00	7425	406	-21.6	-51.9	280	7
2023-09-25T18:00	7454	404	-21.5	-47.5	275	7
2023-09-25T18:00	7488	403	-21.5	-49.0	268	7
2023-09-25T18:00	7523	401	-21.2	-49.1	261	7
2023-09-25T18:00	7555	399	-21.1	-48.8	253	7
2023-09-25T18:00	7590	397	-21.3	-49.5	247	6
2023-09-25T18:00	7617	396	-21.4	-49.4	241	6
2023-09-25T18:00	7650	394	-21.4	-48.7	237	6
2023-09-25T18:00	7682	392	-21.6	-47.8	234	5
2023-09-25T18:00	7713	390	-21.8	-47.4	231	5
2023-09-25T18:00	7742	389	-22.0	-47.3	228	4
2023-09-25T18:00	7779	387	-22.3	-47.2	224	4
2023-09-25T18:00	7812	385	-22.6	-47.2	219	4
2023-09-25T18:00	7841	384	-22.9	-47.3	215	4
2023-09-25T18:00	7871	382	-23.2	-47.0	214	4
2023-09-25T18:00	7898	381	-23.3	-46.9	218	4
2023-09-25T18:00	7931	379	-23.5	-46.7	224	4
2023-09-25T18:00	7961	378	-23.7	-46.6	229	4
2023-09-25T18:00	7992	376	-24.0	-46.4	233	4
2023-09-25T18:00	8023	374	-24.3	-45.3	235	4
2023-09-25T18:00	8055	373	-24.6	-45.0	236	4
2023-09-25T18:00	8089	371	-24.9	-45.1	236	3
2023-09-25T18:00	8117	369	-25.2	-45.0	235	3
2023-09-25T18:00	8155	368	-25.6	-45.1	235	3
2023-09-25T18:00	8190	366	-25.9	-45.3	237	3
2023-09-25T18:00	8222	364	-26.2	-45.5	240	4
2023-09-25T18:00	8253	363	-26.6	-45.6	244	4
2023-09-25T18:00	8288	361	-26.9	-44.9	249	4
2023-09-25T18:00	8321	359	-27.2	-44.4	252	4
2023-09-25T18:00	8351	358	-27.5	-44.2	252	4
2023-09-25T18:00	8386	356	-27.8	-44.2	251	4
2023-09-25T18:00	8411	355	-28.1	-44.2	248	5
2023-09-25T18:00	8445	353	-28.3	-43.1	245	5
2023-09-25T18:00	8471	352	-28.3	-42.0	242	5
2023-09-25T18:00	8501	350	-28.4	-42.6	241	5
2023-09-25T18:00	8529	349	-28.5	-42.7	241	4
2023-09-25T18:00	8561	348	-28.7	-43.5	243	4
2023-09-25T18:00	8588	346	-28.8	-43.3	246	5
2023-09-25T18:00	8615	345	-29.0	-43.2	249	5
2023-09-25T18:00	8638	344	-29.1	-45.3	253	5
2023-09-25T18:00	8670	342	-29.2	-49.1	256	5
2023-09-25T18:00	8698	341	-29.5	-47.7	257	5
2023-09-25T18:00	8725	340	-29.7	-46.5	256	5
2023-09-25T18:00	8751	338	-30.0	-45.9	254	5
2023-09-25T18:00	8775	337	-30.2	-47.0	251	5
2023-09-25T18:00	8808	336	-30.4	-48.1	249	5
2023-09-25T18:00	8829	335	-30.6	-48.1	247	5
2023-09-25T18:00	8854	333	-30.8		245	6
2023-09-25T18:00	8881	332	-31.0	-48.6	243	6
2023-09-25T18:00	8905	331	-31.2	-49.2	240	6
2023-09-25T18:00	8931	330	-31.4	-48.6	238	6
2023-09-25T18:00	8952	329	-31.6	-49.1	235	5
2023-09-25T18:00	8976	328	-31.8	-50.2	232	5
2023-09-25T18:00	9004	326	-32.0	-50.9	228	5
2023-09-25T18:00	9032	325	-32.2	-50.2	224	5
2023-09-25T18:00	9061	324	-32.5	-50.0	220	5
2023-09-25T18:00	9086	323	-32.7	-49.8	217	6
2023-09-25T18:00	9117	321	-33.0	-49.7	215	6
2023-09-25T18:00	9151	320	-33.3	-49.6	215	6
2023-09-25T18:00	9180	318	-33.6	-50.4	215	6
2023-09-25T18:00	9200	317	-33.7	-50.4	216	7
2023-09-25T18:00	9225	316	-33.9	-50.8	215	7
2023-09-25T18:00	9254	315	-34.1	-52.4	215	6
2023-09-25T18:00	9278	314	-34.3	-53.0	213	6
2023-09-25T18:00	9302	313	-34.4	-53.3	211	6
2023-09-25T18:00	9326	312	-34.7	-53.7	208	6
2023-09-25T18:00	9357	310	-34.9	-53.9	205	6
2023-09-25T18:00	9383	309	-35.1	-53.8	203	7
2023-09-25T18:00	9417	308	-35.4	-53.6	200	7
2023-09-25T18:00	9446	307	-35.6	-53.8	199	7
2023-09-25T18:00	9470	305	-35.8	-53.7	199	7
2023-09-25T18:00	9492	304	-36.0	-53.7	200	7
2023-09-25T18:00	9517	303	-36.2	-53.8	202	7
2023-09-25T18:00	9542	302	-36.4	-54.1	207	7
2023-09-25T18:00	9572	301	-36.5	-54.7	212	7
2023-09-25T18:00	9599	300	-36.6	-55.1	217	7
2023-09-25T18:00	9630	299	-36.8	-55.1	222	7
2023-09-25T18:00	9659	297	-37.0	-55.0	225	7
2023-09-25T18:00	9694	296	-37.2	-55.0	226	8
2023-09-25T18:00	9716	295	-37.3	-55.3	226	8
2023-09-25T18:00	9740	294	-37.4	-55.2	225	8
2023-09-25T18:00	9762	293	-37.5	-54.5	224	8
2023-09-25T18:00	9785	292	-37.7	-54.1	222	8
2023-09-25T18:00	9811	291	-37.9	-53.6	220	8
2023-09-25T18:00	9838	290	-38.1	-53.5	218	8
2023-09-25T18:00	9868	288	-38.3	-53.5	216	8
2023-09-25T18:00	9893	287	-38.6	-53.5	214	8
2023-09-25T18:00	9921	286	-38.8	-52.9	213	8
2023-09-25T18:00	9947	285	-39.0	-52.8	215	8
2023-09-25T18:00	9973	284	-39.2	-52.9	218	8
2023-09-25T18:00	10005	283	-39.5	-53.0	223	8
2023-09-25T18:00	10031	282	-39.6	-53.5	228	8
2023-09-25T18:00	10061	280	-39.7	-53.7	232	8
2023-09-25T18:00	10104	279	-40.0	-53.7	235	8
2023-09-25T18:00	10130	277	-40.3	-54.1	237	8
2023-09-25T18:00	10161	276	-40.5	-54.1	237	8
2023-09-25T18:00	10183	275	-40.7	-54.1	236	8
2023-09-25T18:00	10209	274	-40.9	-54.2	236	8
2023-09-25T18:00	10234	273	-41.0	-54.4	236	9
2023-09-25T18:00	10259	272	-41.2	-54.6	236	9
2023-09-25T18:00	10285	271	-41.4	-54.9	237	9
2023-09-25T18:00	10309	270	-41.5	-55.1	237	9
2023-09-25T18:00	10331	269	-41.7	-55.1	237	8
2023-09-25T18:00	10354	269	-41.9	-55.0	238	8
2023-09-25T18:00	10378	268	-42.2	-55.2	238	8
2023-09-25T18:00	10404	267	-42.4	-55.3	237	8
2023-09-25T18:00	10429	266	-42.6	-55.4	236	8
2023-09-25T18:00	10453	265	-42.8	-55.6	234	8
2023-09-25T18:00	10477	264	-43.0	-55.8	233	8
2023-09-25T18:00	10500	263	-43.1	-55.8	232	8
2023-09-25T18:00	10522	262	-43.3	-56.1	231	8
2023-09-25T18:00	10548	261	-43.5	-56.2	232	8
2023-09-25T18:00	10572	260	-43.7	-56.2	232	8
2023-09-25T18:00	10596	259	-43.9	-56.4	233	8
2023-09-25T18:00	10624	258	-44.1	-56.5	233	8
2023-09-25T18:00	10648	257	-44.3	-56.5	233	7
2023-09-25T18:00	10674	256	-44.6	-56.9	231	7
2023-09-25T18:00	10696	255	-44.6	-57.7	228	7
2023-09-25T18:00	10721	254	-44.7	-58.1	224	7
2023-09-25T18:00	10749	253	-44.6	-57.6	220	7
2023-09-25T18:00	10777	252	-44.7	-57.6	217	7
2023-09-25T18:00	10802	251	-45.0	-58.1	213	7
2023-09-25T18:00	10838	250	-45.2	-57.9	209	7
2023-09-25T18:00	10868	249	-45.2	-56.3	204	7
2023-09-25T18:00	10896	248	-45.4	-54.8	199	7
2023-09-25T18:00	10932	246	-45.6	-53.5	193	7
2023-09-25T18:00	10968	245	-45.9	-53.6	187	7
2023-09-25T18:00	10993	244	-46.1	-54.0	183	6
2023-09-25T18:00	11018	243	-46.4	-54.2	181	6
2023-09-25T18:00	11043	242	-46.6	-54.2	180	6
2023-09-25T18:00	11066	241	-46.8	-54.2	180	6
2023-09-25T18:00	11087	241	-47.0	-54.3	182	6
2023-09-25T18:00	11109	240	-47.2		184	6
2023-09-25T18:00	11137	239	-47.5	-54.3	187	6
2023-09-25T18:00	11160	238	-47.7	-54.3	193	6
2023-09-25T18:00	11189	237	-48.0	-54.5	201	6
2023-09-25T18:00	11216	236	-48.1	-54.9	212	5
2023-09-25T18:00	11246	235	-47.9	-55.6	224	5
2023-09-25T18:00	11284	234	-48.1	-56.3	234	6
2023-09-25T18:00	11321	232	-48.1	-56.4	242	6
2023-09-25T18:00	11359	231	-48.4	-56.6	246	6
2023-09-25T18:00	11395	230	-48.7	-56.4	247	7
2023-09-25T18:00	11434	228	-49.1	-56.5	246	7
2023-09-25T18:00	11466	227	-49.4	-56.5	245	7
2023-09-25T18:00	11494	226	-49.7	-56.7	243	8
2023-09-25T18:00	11529	225	-50.0	-56.8	241	8
2023-09-25T18:00	11554	224	-50.2	-56.9	240	8
2023-09-25T18:00	11583	223	-50.4	-57.2	239	8
2023-09-25T18:00	11607	222	-50.5	-57.6	239	8
2023-09-25T18:00	11633	221	-50.6	-58.0	240	8
2023-09-25T18:00	11661	221	-50.7	-58.1	240	8
2023-09-25T18:00	11686	220	-50.9	-57.9	241	8
2023-09-25T18:00	11713	219	-51.1	-57.7	241	8
2023-09-25T18:00	11738	218	-51.3	-57.5	241	8
2023-09-25T18:00	11769	217	-51.5	-57.3	241	9
2023-09-25T18:00	11804	216	-51.6	-57.5	243	9
2023-09-25T18:00	11828	215	-51.8	-58.1	245	9
2023-09-25T18:00	11852	214	-51.9		248	9
2023-09-25T18:00	11875	213	-52.1	-58.7	250	9
2023-09-25T18:00	11900	213	-52.4	-58.8	252	9
2023-09-25T18:00	11929	212	-52.6	-58.8	252	9
2023-09-25T18:00	11952	211	-52.8	-58.9	251	9
2023-09-25T18:00	11977	210	-53.1	-59.0	249	9
2023-09-25T18:00	12001	209	-53.3	-58.9	247	8
2023-09-25T18:00	12025	208	-53.5	-58.9	246	8
2023-09-25T18:00	12049	208	-53.7	-58.9	246	8
2023-09-25T18:00	12076	207	-54.0	-58.9	246	8
2023-09-25T18:00	12106	206	-54.3	-59.0	247	8
2023-09-25T18:00	12133	205	-54.5	-59.1	248	8
2023-09-25T18:00	12159	204	-54.8	-59.2	248	8
2023-09-25T18:00	12184	203	-55.0	-59.2	248	8
2023-09-25T18:00	12209	203	-55.2	-59.2	248	9
2023-09-25T18:00	12236	202	-55.5	-59.3	248	9
2023-09-25T18:00	12260	201	-55.7	-59.3	249	9
2023-09-25T18:00	12287	200	-56.0	-59.4	250	9
2023-09-25T18:00	12312	199	-56.2	-59.4	251	9
2023-09-25T18:00	12339	198	-56.5	-59.5	252	9
2023-09-25T18:00	12364	198	-56.7	-59.5	254	9
2023-09-25T18:00	12390	197	-56.9	-59.6	255	9
2023-09-25T18:00	12425	196	-57.3	-60.0	257	9
2023-09-25T18:00	12453	195	-57.4	-60.5	259	9
2023-09-25T18:00	12479	194	-57.5	-61.2	262	8
2023-09-25T18:00	12510	193	-57.8	-62.1	266	8
2023-09-25T18:00	12536	192	-57.9	-62.8	269	8
2023-09-25T18:00	12560	192	-58.0	-63.5	272	8
2023-09-25T18:00	12586	191	-58.2	-64.4	274	8
2023-09-25T18:00	12606	190	-58.3	-65.4	275	8
2023-09-25T18:00	12628	190	-58.2	-66.4	276	8
2023-09-25T18:00	12650	189	-58.2	-67.1	277	8
2023-09-25T18:00	12675	188	-58.3	-67.5	278	8
2023-09-25T18:00	12700	187	-58.5	-67.5	279	8
2023-09-25T18:00	12723	187	-58.6	-67.4	279	8
2023-09-25T18:00	12746	186	-58.8	-67.3	278	9
2023-09-25T18:00	12769	185	-59.0	-67.3	276	9
2023-09-25T18:00	12792	185	-59.2	-67.4	274	9
2023-09-25T18:00	12815	184	-59.2	-67.6	272	9
2023-09-25T18:00	12839	183	-59.3	-68.0	270	9
2023-09-25T18:00	12862	183	-59.3	-68.2	267	9
2023-09-25T18:00	12887	182	-59.5	-68.5	265	9
2023-09-25T18:00	12910	181	-59.7	-68.6	264	9
2023-09-25T18:00	12929	181	-59.9	-68.6	263	9
2023-09-25T18:00	12954	180	-60.1	-68.7	263	10
2023-09-25T18:00	12979	179	-60.2	-68.8	264	10
2023-09-25T18:00	13003	179	-60.3	-69.0	265	11
2023-09-25T18:00	13029	178	-60.5	-69.2	267	11
2023-09-25T18:00	13054	177	-60.7	-69.5	268	11
2023-09-25T18:00	13076	176	-60.8	-69.7	270	11
2023-09-25T18:00	13098	176	-60.9	-70.0	272	11
2023-09-25T18:00	13122	175	-61.0	-70.1	274	11
2023-09-25T18:00	13148	174	-61.2	-70.3	275	11
2023-09-25T18:00	13170	174	-61.4	-70.4	277	11
2023-09-25T18:00	13195	173	-61.6	-70.6	278	11
2023-09-25T18:00	13218	172	-61.8	-71.0	278	11
2023-09-25T18:00	13242	172	-61.9	-71.5	278	11
2023-09-25T18:00	13265	171	-61.7	-71.8	278	11
2023-09-25T18:00	13285	171	-61.7	-72.2	277	11
2023-09-25T18:00	13311	170	-61.7	-72.5	276	11
2023-09-25T18:00	13333	169	-61.8	-72.6	275	12
2023-09-25T18:00	13354	169	-61.9	-72.6	274	12
2023-09-25T18:00	13379	168	-62.1	-72.7	273	12
2023-09-25T18:00	13402	167	-62.2	-72.8	271	12
2023-09-25T18:00	13424	167	-62.2	-72.7	269	12
2023-09-25T18:00	13445	166	-62.4	-72.9	267	12
2023-09-25T18:00	13473	166	-62.5	-73.1	265	12
2023-09-25T18:00	13495	165	-62.7	-73.4	264	13
2023-09-25T18:00	13518	164	-62.7	-73.5	264	13
2023-09-25T18:00	13543	164	-62.8	-73.8	265	14
2023-09-25T18:00	13566	163	-62.7	-73.9	266	14
2023-09-25T18:00	13589	162	-62.8	-74.3	268	14
2023-09-25T18:00	13608	162	-62.6	-74.7	270	15
2023-09-25T18:00	13631	161	-62.2	-75.0	272	15
2023-09-25T18:00	13655	161	-61.6	-75.2	274	16
2023-09-25T18:00	13676	160	-61.4	-75.7	275	16
2023-09-25T18:00	13698	160	-61.3	-76.0	276	17
2023-09-25T18:00	13720	159	-61.3	-76.3	277	17
2023-09-25T18:00	13742	158	-61.3	-76.5	277	17
2023-09-25T18:00	13764	158	-61.2	-76.5	277	17
2023-09-25T18:00	13789	157	-61.2	-76.7	277	17
2023-09-25T18:00	13809	157	-61.1	-77.0	277	17
2023-09-25T18:00	13831	156	-60.8	-77.2	277	16
2023-09-25T18:00	13854	156	-60.5	-77.6	276	16
2023-09-25T18:00	13877	155	-60.2	-78.4	276	16
2023-09-25T18:00	13900	155	-60.0	-79.2	275	15
2023-09-25T18:00	13921	154	-59.6	-79.6	275	15
2023-09-25T18:00	13943	153	-59.6	-79.9	276	15
2023-09-25T18:00	13963	153	-59.7	-79.8	277	15
2023-09-25T18:00	13984	152	-59.4	-79.2	278	15
2023-09-25T18:00	14008	152	-59.2	-79.0	280	15
2023-09-25T18:00	14027	151	-59.2	-79.0	282	15
2023-09-25T18:00	14054	151	-58.9	-78.9	284	15
2023-09-25T18:00	14073	150	-58.8	-79.0	285	15
2023-09-25T18:00	14096	150	-58.7	-79.0	287	14
2023-09-25T18:00	14120	149	-58.7	-79.1	288	13
2023-09-25T18:00	14141	149	-58.6	-79.1	288	12
2023-09-25T18:00	14161	148	-58.6	-79.2	286	11
2023-09-25T18:00	14201	147	-58.8	-79.5	284	9
2023-09-25T18:00	14236	146	-58.6	-79.6	279	8
2023-09-25T18:00	14265	146	-58.1	-79.6	272	7
2023-09-25T18:00	14296	145	-58.3	-80.1	264	6
2023-09-25T18:00	14328	144	-58.4	-80.3	255	6
2023-09-25T18:00	14358	144	-58.4	-80.4	247	6
2023-09-25T18:00	14387	143	-58.6	-80.8	241	6
2023-09-25T18:00	14418	142	-58.7	-80.8	235	7
2023-09-25T18:00	14439	142	-58.9	-81.0	231	7
2023-09-25T18:00	14467	141	-59.0	-80.9	227	7
2023-09-25T18:00	14496	141	-59.2	-80.9	223	7
2023-09-25T18:00	14523	140	-59.5	-81.0	219	8
2023-09-25T18:00	14553	139	-59.7	-81.0	215	8
2023-09-25T18:00	14588	138	-60.0	-81.0	213	8
2023-09-25T18:00	14626	138	-60.4	-81.0	212	8
2023-09-25T18:00	14662	137	-60.8	-81.2	212	8
2023-09-25T18:00	14688	136	-61.0	-81.2	213	8
2023-09-25T18:00	14718	136	-61.3	-81.3	214	8
2023-09-25T18:00	14749	135	-61.6	-81.3	215	8
2023-09-25T18:00	14777	134	-61.9	-81.4	215	8
2023-09-25T18:00	14809	134	-62.2	-81.4	214	9
2023-09-25T18:00	14833	133	-62.4	-81.5	214	9
2023-09-25T18:00	14860	133	-62.7	-81.6	214	10
2023-09-25T18:00	14887	132	-62.9		215	10
2023-09-25T18:00	14911	131	-63.1	-81.9	216	10
2023-09-25T18:00	14935	131	-63.2		219	11
2023-09-25T18:00	14961	130	-63.4	-82.1	222	11
2023-09-25T18:00	14989	130	-63.6	-82.3	226	11
2023-09-25T18:00	15015	129	-63.7	-82.5	229	11
2023-09-25T18:00	15040	129	-63.8	-82.7	232	12
2023-09-25T18:00	15062	128	-63.7	-82.7	235	12
2023-09-25T18:00	15087	128	-63.6	-82.7	237	12
2023-09-25T18:00	15112	127	-63.6	-82.7	240	11
2023-09-25T18:00	15135	127	-63.3	-82.5	242	11
2023-09-25T18:00	15162	126	-63.4	-82.5	244	11
2023-09-25T18:00	15190	126	-63.7	-82.6	246	11
2023-09-25T18:00	15219	125	-63.8	-82.5	248	11
2023-09-25T18:00	15245	124	-64.0	-82.6	249	11
2023-09-25T18:00	15272	124	-64.2	-82.7	251	11
2023-09-25T18:00	15297	123	-64.3	-82.6	252	11
2023-09-25T18:00	15321	123	-64.5	-82.6	254	11
2023-09-25T18:00	15346	122	-64.8	-82.8	256	12
2023-09-25T18:00	15374	122	-65.0	-82.8	259	12
2023-09-25T18:00	15399	121	-65.2	-82.8	261	13
2023-09-25T18:00	15425	121	-65.4	-82.9	263	13
2023-09-25T18:00	15448	120	-65.6	-83.1	265	14
2023-09-25T18:00	15472	120	-65.6	-83.1	267	14
2023-09-25T18:00	15497	119	-65.7	-83.3	269	14
2023-09-25T18:00	15520	119	-65.6	-83.4	269	13
2023-09-25T18:00	15554	118	-65.4	-83.6	269	12
2023-09-25T18:00	15603	117	-64.3	-83.0	267	11
2023-09-25T18:00	15627	117	-63.9	-83.0	264	10
2023-09-25T18:00	15650	116	-64.1	-83.2	260	9
2023-09-25T18:00	15679	116	-64.0	-83.3	256	9
2023-09-25T18:00	15702	115	-64.1	-83.5	251	9
2023-09-25T18:00	15723	115	-64.2	-83.5	246	9
2023-09-25T18:00	15748	115	-64.2	-83.7	241	9
2023-09-25T18:00	15770	114	-64.2	-83.7	238	9
2023-09-25T18:00	15791	114	-63.8	-83.5	237	10
2023-09-25T18:00	15815	113	-63.5		237	10
2023-09-25T18:00	15837	113	-63.5	-83.5	239	11
2023-09-25T18:00	15859	113	-63.5	-83.6	241	11
2023-09-25T18:00	15881	112	-63.6	-83.7	244	11
2023-09-25T18:00	15903	112	-63.6	-83.7	248	11
2023-09-25T18:00	15927	111	-63.5	-83.7	251	12
2023-09-25T18:00	15950	111	-63.5	-83.7	255	12
2023-09-25T18:00	15971	110	-63.5	-83.9	259	12
2023-09-25T18:00	15995	110	-63.5	-84.0	262	12
2023-09-25T18:00	16014	110	-63.4	-84.0	266	12
2023-09-25T18:00	16036	109	-63.3	-84.1	269	12
2023-09-25T18:00	16055	109	-63.0	-84.0	273	12
2023-09-25T18:00	16079	109	-63.1	-84.2	276	12
2023-09-25T18:00	16099	108	-63.0	-84.3	279	11
2023-09-25T18:00	16119	108	-62.8	-84.3	282	10
2023-09-25T18:00	16138	108	-62.2	-84.2	284	10
2023-09-25T18:00	16161	107	-61.7	-84.1	285	9
2023-09-25T18:00	16180	107	-61.6	-84.4	284	8
2023-09-25T18:00	16204	106	-61.1	-84.2	281	7
2023-09-25T18:00	16225	106	-60.9	-84.3	277	7
2023-09-25T18:00	16248	106	-60.9	-84.3	273	6
2023-09-25T18:00	16272	105	-61.0	-84.3	270	6
2023-09-25T18:00	16293	105	-61.2	-84.5	267	7
2023-09-25T18:00	16314	105	-61.3	-84.4	264	7
2023-09-25T18:00	16337	104	-61.5	-84.5	260	7
2023-09-25T18:00	16361	104	-61.7	-84.7	257	6
2023-09-25T18:00	16386	103	-61.9	-84.7	253	6
2023-09-25T18:00	16409	103	-61.9	-84.7	249	6
2023-09-25T18:00	16430	103	-62.1	-84.8	247	6
2023-09-25T18:00	16452	102	-62.1	-84.6	246	7
2023-09-25T18:00	16474	102	-62.2	-84.7	245	7
2023-09-25T18:00	16500	101	-62.2	-84.7	246	7
2023-09-25T18:00	16520	101	-62.2	-84.7	246	7
2023-09-25T18:00	16546	101	-62.1	-84.6	247	7
2023-09-25T18:00	16569	100	-62.3	-84.8	249	8
2023-09-25T18:00	16593	100	-62.5	-84.8	250	8
2023-09-25T18:00	16615	100	-62.6	-84.8	252	8
2023-09-25T18:00	16639	99	-62.8	-84.8	254	9
2023-09-25T18:00	16663	99	-63.0	-84.8	256	9
2023-09-25T18:00	16686	98	-63.1	-84.9	257	10
2023-09-25T18:00	16707	98	-63.3	-84.9	258	10
2023-09-25T18:00	16733	98	-63.5	-85.0	258	10
2023-09-25T18:00	16755	97	-63.5	-85.0	258	9
2023-09-25T18:00	16784	97	-63.5	-85.0	258	9
2023-09-25T18:00	16807	97	-63.5	-85.0	258	8
2023-09-25T18:00	16829	96	-63.7	-85.2	258	8
2023-09-25T18:00	16857	96	-63.7	-85.2	258	7
2023-09-25T18:00	16881	95	-63.9	-85.2	259	6
2023-09-25T18:00	16906	95	-64.0	-85.3	259	6
2023-09-25T18:00	16929	95	-64.1	-85.5	260	6
2023-09-25T18:00	16951	94	-63.9	-85.4	261	5
2023-09-25T18:00	16977	94	-63.9	-85.4	262	5
2023-09-25T18:00	17002	94	-63.9	-85.4	262	5
2023-09-25T18:00	17027	93	-63.8	-85.3	262	4
2023-09-25T18:00	17051	93	-63.9	-85.4	260	4
2023-09-25T18:00	17074	92	-64.1	-85.5	257	4
2023-09-25T18:00	17099	92	-64.2	-85.6	255	5
2023-09-25T18:00	17125	92	-64.4	-85.8	255	5
2023-09-25T18:00	17149	91	-64.5	-85.9	257	6
2023-09-25T18:00	17172	91	-64.4	-85.9	259	7
2023-09-25T18:00	17198	91	-63.8	-85.8	261	8
2023-09-25T18:00	17221	90	-63.8	-86.0	263	9
2023-09-25T18:00	17246	90	-63.2	-85.9	265	9
2023-09-25T18:00	17269	89	-62.8	-86.0	266	10
2023-09-25T18:00	17295	89	-62.2	-85.9	268	10
2023-09-25T18:00	17318	89	-62.1	-86.1	269	10
2023-09-25T18:00	17344	88	-62.1	-86.1	270	9
2023-09-25T18:00	17370	88	-62.0	-86.3	270	9
2023-09-25T18:00	17396	88	-62.1	-86.3	270	8
2023-09-25T18:00	17423	87	-61.8	-86.4	268	7
2023-09-25T18:00	17447	87	-61.5	-86.4	267	7
2023-09-25T18:00	17473	87	-61.4	-86.6	265	7
2023-09-25T18:00	17500	86	-60.7	-86.0	264	6
2023-09-25T18:00	17525	86	-60.8	-86.1	265	6
2023-09-25T18:00	17549	86	-60.9	-86.2	267	7
2023-09-25T18:00	17575	85	-61.1	-86.4	269	7
2023-09-25T18:00	17602	85	-61.3	-86.5	271	7
2023-09-25T18:00	17624	85	-61.4	-86.6	272	7
2023-09-25T18:00	17652	84	-61.5	-86.4	273	7
2023-09-25T18:00	17675	84	-61.6	-86.5	274	7
2023-09-25T18:00	17705	83	-61.7	-86.8	274	7
2023-09-25T18:00	17728	83	-61.8	-86.9	274	7
2023-09-25T18:00	17756	83	-61.6	-86.7	274	7
2023-09-25T18:00	17783	82	-61.3	-86.8	273	6
2023-09-25T18:00	17808	82	-61.3	-86.8	272	6
2023-09-25T18:00	17833	82	-61.4	-86.6	271	6
2023-09-25T18:00	17858	81	-61.6	-86.7	268	5
2023-09-25T18:00	17884	81	-61.8	-86.9	265	5
2023-09-25T18:00	17914	81	-62.0	-86.8	259	5
2023-09-25T18:00	17938	80	-62.2	-86.9	252	4
2023-09-25T18:00	17960	80	-62.3	-87.3	242	4
2023-09-25T18:00	17986	80	-62.2	-87.2	233	5
2023-09-25T18:00	18013	79	-62.2	-87.2	225	5
2023-09-25T18:00	18034	79	-61.9	-87.0	220	5
2023-09-25T18:00	18062	79	-61.8	-87.2	217	5
2023-09-25T18:00	18086	78	-62.0	-87.3	217	6
2023-09-25T18:00	18114	78	-62.2	-87.2	219	6
2023-09-25T18:00	18136	78	-62.3	-87.3	223	6
2023-09-25T18:00	18163	77	-62.4	-87.4	228	6
2023-09-25T18:00	18184	77	-62.5	-87.4	233	7
2023-09-25T18:00	18212	77	-62.4	-87.7	238	7
2023-09-25T18:00	18238	77	-62.3	-87.6	242	8
2023-09-25T18:00	18264	76	-62.1	-87.7	247	9
2023-09-25T18:00	18286	76	-62.0	-87.6	251	9
2023-09-25T18:00	18314	76	-61.8	-87.5	256	9
2023-09-25T18:00	18338	75	-61.8	-87.5	262	10
2023-09-25T18:00	18367	75	-61.8	-87.8	267	10
2023-09-25T18:00	18394	75	-61.9	-87.9	272	11
2023-09-25T18:00	18420	74	-61.9	-87.9	276	11
2023-09-25T18:00	18447	74	-61.8	-87.8	280	11
2023-09-25T18:00	18471	74	-61.5	-87.9	283	12
2023-09-25T18:00	18498	73	-61.2	-87.7	286	12
2023-09-25T18:00	18523	73	-61.2	-87.7	289	11
2023-09-25T18:00	18545	73	-61.2	-87.7	291	11
2023-09-25T18:00	18570	73	-61.3	-87.8	292	10
2023-09-25T18:00	18593	72	-61.2	-87.7	293	9
2023-09-25T18:00	18616	72	-61.1	-87.6	292	8
2023-09-25T18:00	18643	72	-60.9	-87.8	290	7
2023-09-25T18:00	18663	71	-61.0	-87.9	289	7
2023-09-25T18:00	18693	71	-61.0	-87.9	288	6
2023-09-25T18:00	18719	71	-60.8	-87.7	290	6
2023-09-25T18:00	18743	71	-60.7	-87.7	293	6
2023-09-25T18:00	18768	70	-60.8	-87.7	296	5
2023-09-25T18:00	18795	70	-60.8	-87.7	299	5
2023-09-25T18:00	18815	70	-60.7	-87.7	302	5
2023-09-25T18:00	18842	69	-60.7	-87.7	303	4
2023-09-25T18:00	18865	69	-60.7	-87.7	302	4
2023-09-25T18:00	18891	69	-60.7	-87.7	297	3
2023-09-25T18:00	18913	69	-60.6	-87.6	286	3
2023-09-25T18:00	18942	68	-60.6	-88.0	269	3
2023-09-25T18:00	18969	68	-60.5	-87.9	252	3
2023-09-25T18:00	18991	68	-60.6	-88.0	239	3
2023-09-25T18:00	19018	68	-60.6	-88.0	231	3
2023-09-25T18:00	19043	67	-60.7	-87.7	227	3
2023-09-25T18:00	19066	67	-60.7	-87.7	227	3
2023-09-25T18:00	19089	67	-60.6	-87.6	228	2
2023-09-25T18:00	19119	66	-60.6	-87.6	232	2
2023-09-25T18:00	19143	66	-60.7	-87.7	236	1
2023-09-25T18:00	19165	66	-60.8	-87.7	236	1
2023-09-25T18:00	19193	66	-60.9	-87.8	229	1
2023-09-25T18:00	19214	65	-60.9	-87.8	220	1
2023-09-25T18:00	19238	65	-60.8	-87.7	214	1
2023-09-25T18:00	19264	65	-60.8	-87.7	213	1
2023-09-25T18:00	19293	65	-61.0	-87.9	213	1
2023-09-25T18:00	19311	64	-61.2	-88.1	214	1
2023-09-25T18:00	19341	64	-61.4	-88.2	215	1
2023-09-25T18:00	19366	64	-61.3	-87.8	214	1
2023-09-25T18:00	19392	64	-61.4	-87.8	213	1
2023-09-25T18:00	19417	63	-61.5	-87.9	213	1
2023-09-25T18:00	19441	63	-61.7	-88.1	217	2
2023-09-25T18:00	19468	63	-61.8	-88.2	222	2
2023-09-25T18:00	19494	63	-61.9	-88.2	227	3
2023-09-25T18:00	19521	62	-62.1	-88.4	231	4
2023-09-25T18:00	19539	62	-62.2	-88.1	235	4
2023-09-25T18:00	19569	62	-62.1	-88.0	237	5
2023-09-25T18:00	19595	62	-62.3	-88.5	240	5
2023-09-25T18:00	19619	61	-62.2	-88.5	242	5
2023-09-25T18:00	19644	61	-62.0	-88.3	245	5
2023-09-25T18:00	19669	61	-61.8	-88.2	249	4
2023-09-25T18:00	19692	61	-61.7	-88.4	253	4
2023-09-25T18:00	19722	60	-61.5	-88.3	256	4
2023-09-25T18:00	19746	60	-61.4	-88.2	259	4
2023-09-25T18:00	19772	60	-61.5	-88.3	261	4
2023-09-25T18:00	19795	60	-61.5	-88.3	262	5
2023-09-25T18:00	19823	59	-61.4	-88.2	262	5
2023-09-25T18:00	19843	59	-61.4	-88.2	262	5
2023-09-25T18:00	19872	59	-61.4	-88.6	262	6
2023-09-25T18:00	19895	59	-61.1	-88.4	263	6
2023-09-25T18:00	19923	58	-60.8	-88.5	264	6
2023-09-25T18:00	19946	58	-60.3	-88.2	266	7
2023-09-25T18:00	19970	58	-60.1	-88.0	268	7
2023-09-25T18:00	20002	58	-60.0	-87.9	270	7
2023-09-25T18:00	20026	57	-59.8	-87.8	274	7
2023-09-25T18:00	20054	57	-59.7	-87.7	277	7
2023-09-25T18:00	20077	57	-59.6	-87.6	280	7
2023-09-25T18:00	20103	57	-59.5	-88.0	283	6
2023-09-25T18:00	20135	56	-59.4	-87.9	286	5
2023-09-25T18:00	20154	56	-59.3	-87.9	288	4
2023-09-25T18:00	20182	56	-58.9	-87.6	288	3
2023-09-25T18:00	20210	56	-58.8	-87.5	282	2
2023-09-25T18:00	20230	56	-58.7	-87.4	264	2
2023-09-25T18:00	20266	55	-58.6	-87.8	240	2
2023-09-25T18:00	20289	55	-58.1	-87.4	224	2
2023-09-25T18:00	20313	55	-58.0	-87.4	216	3
2023-09-25T18:00	20345	55	-58.1	-87.4	214	4
2023-09-25T18:00	20369	54	-58.1	-87.0	214	4
2023-09-25T18:00	20392	54	-58.2	-87.0	216	4
2023-09-25T18:00	20421	54	-58.3	-87.1	220	4
2023-09-25T18:00	20446	54	-58.2	-87.0	225	4
2023-09-25T18:00	20471	53	-58.2	-87.0	229	4
2023-09-25T18:00	20502	53	-58.4	-87.2	232	4
2023-09-25T18:00	20530	53	-58.4	-87.2	234	5
2023-09-25T18:00	20556	53	-58.4	-87.2	235	5
2023-09-25T18:00	20581	53	-58.5	-87.3	236	5
2023-09-25T18:00	20602	52	-58.6	-87.3	237	5
2023-09-25T18:00	20631	52	-58.5	-87.3	238	5
2023-09-25T18:00	20656	52	-58.4	-87.2	240	5
2023-09-25T18:00	20684	52	-58.6	-86.9	242	4
2023-09-25T18:00	20712	51	-58.8	-87.0	245	4
2023-09-25T18:00	20741	51	-59.0	-87.2	247	4
2023-09-25T18:00	20768	51	-59.1	-87.3	250	3
2023-09-25T18:00	20792	51	-59.2	-87.3	253	3
2023-09-25T18:00	20816	51	-59.1	-87.3	256	3
2023-09-25T18:00	20846	50	-59.2	-87.3	259	3
2023-09-25T18:00	20874	50	-59.3	-87.4	262	3
2023-09-25T18:00	20903	50	-59.2	-87.3	266	3
2023-09-25T18:00	20928	50	-59.2	-87.3	271	4
2023-09-25T18:00	20955	50	-59.2	-87.3	275	4
2023-09-25T18:00	20979	49	-59.1	-87.3	279	5
2023-09-25T18:00	21008	49	-59.3	-87.4	282	6
2023-09-25T18:00	21035	49	-59.4	-87.5	284	7
2023-09-25T18:00	21059	49	-59.4	-87.5	285	7
2023-09-25T18:00	21084	48	-59.4	-87.5	286	7
2023-09-25T18:00	21111	48	-59.3	-87.4	288	7
2023-09-25T18:00	21137	48	-59.1	-87.3	290	7
2023-09-25T18:00	21163	48	-59.0	-87.2	292	7
2023-09-25T18:00	21189	48	-59.0	-87.6	293	7
2023-09-25T18:00	21215	47	-59.1	-87.7	294	7
2023-09-25T18:00	21241	47	-59.1	-87.7	294	7
2023-09-25T18:00	21265	47	-59.0	-87.6	295	7
2023-09-25T18:00	21300	47	-58.8	-87.5	296	7
2023-09-25T18:00	21324	47	-58.8	-87.5	300	7
2023-09-25T18:00	21348	46	-59.0	-87.6	304	7
2023-09-25T18:00	21370	46	-58.8	-87.5	309	7
2023-09-25T18:00	21397	46	-58.9	-87.6	312	7
2023-09-25T18:00	21423	46	-58.6	-87.3	314	7
2023-09-25T18:00	21450	46	-58.6	-87.3	316	7
2023-09-25T18:00	21475	46	-58.4	-87.7	317	7
2023-09-25T18:00	21505	45	-58.3	-87.6	318	6
2023-09-25T18:00	21529	45	-58.4	-87.7	318	6
2023-09-25T18:00	21558	45	-58.3	-87.6	318	5
2023-09-25T18:00	21581	45	-58.0	-87.4	317	5
2023-09-25T18:00	21609	45	-57.9	-87.3	314	5
2023-09-25T18:00	21636	44	-57.8	-87.2	312	5
2023-09-25T18:00	21662	44	-57.8	-87.2	311	5
2023-09-25T18:00	21682	44	-57.8	-87.2	312	5
2023-09-25T18:00	21708	44	-58.0	-87.4	315	5
2023-09-25T18:00	21734	44	-57.7	-87.2	318	5
2023-09-25T18:00	21761	44	-57.8	-87.2	320	5
2023-09-25T18:00	21788	43	-57.7	-87.2	320	5
2023-09-25T18:00	21810	43	-57.3	-87.4	320	5
2023-09-25T18:00	21840	43	-57.4	-87.5	322	4
2023-09-25T18:00	21862	43	-57.2	-87.3	326	4
2023-09-25T18:00	21891	43	-57.0	-87.2	332	4
2023-09-25T18:00	21919	42	-56.9	-87.1	338	3
2023-09-25T18:00	21945	42	-56.8	-87.0	344	3
2023-09-25T18:00	21971	42	-56.7	-86.9	352	2
2023-09-25T18:00	21995	42	-56.7	-86.9	11	1
2023-09-25T18:00	22024	42	-56.7	-86.9	76	1
2023-09-25T18:00	22050	42	-56.7	-86.9	119	1
2023-09-25T18:00	22069	41	-56.8	-87.0	131	2
2023-09-25T18:00	22094	41	-56.8	-86.5	137	3
2023-09-25T18:00	22119	41	-57.0	-86.6	141	4
2023-09-25T18:00	22151	41	-57.1	-86.7	145	4
2023-09-25T18:00	22180	41	-57.2	-86.8	148	5
2023-09-25T18:00	22198	41	-57.3	-86.9	151	6
2023-09-25T18:00	22231	40	-57.4	-86.9	154	6
2023-09-25T18:00	22256	40	-57.6	-87.1	156	7
2023-09-25T18:00	22282	40	-57.7	-86.7	157	8
2023-09-25T18:00	22307	40	-57.9	-86.8	159	8
2023-09-25T18:00	22338	40	-58.1	-87.0	160	9
2023-09-25T18:00	22358	40	-58.2	-87.0	160	9
2023-09-25T18:00	22388	39	-58.4	-87.2	161	9
2023-09-25T18:00	22416	39	-58.5	-87.3	161	9
2023-09-25T18:00	22442	39	-58.7	-87.0	162	9
2023-09-25T18:00	22461	39	-58.9	-87.1	165	9
2023-09-25T18:00	22494	39	-59.2	-87.3	168	8
2023-09-25T18:00	22522	39	-59.4	-87.5	174	8
2023-09-25T18:00	22553	38	-59.5	-87.6	180	8
2023-09-25T18:00	22580	38	-59.7	-87.7	186	8
2023-09-25T18:00	22607	38	-59.7	-87.7	192	7
2023-09-25T18:00	22637	38	-59.9	-87.9	198	7
2023-09-25T18:00	22662	38	-59.9	-87.9	205	7
2023-09-25T18:00	22691	38	-60.0	-87.9	211	7
2023-09-25T18:00	22715	37	-60.2	-88.1	218	7
2023-09-25T18:00	22741	37	-60.4	-88.2	224	7
2023-09-25T18:00	22764	37	-60.3	-88.2	230	8
2023-09-25T18:00	22792	37	-60.2	-88.1	234	8
2023-09-25T18:00	22813	37	-60.3	-88.2	238	8
2023-09-25T18:00	22840	37	-60.3	-88.2	241	9
2023-09-25T18:00	22870	37	-60.5	-88.3	245	9
2023-09-25T18:00	22894	36	-60.6	-88.4	250	9
2023-09-25T18:00	22913	36	-60.7	-88.5	255	10
2023-09-25T18:00	22934	36	-60.7	-88.5	261	10
2023-09-25T18:00	22962	36	-60.4	-88.7	268	10
2023-09-25T18:00	22977	36	-59.9	-88.3	274	10
2023-09-25T18:00	23001	36	-59.7	-88.6	279	10
2023-09-25T18:00	23020	36	-59.5	-88.5	283	10
2023-09-25T18:00	23049	35	-58.9	-88.6	287	11
2023-09-25T18:00	23068	35	-58.8	-88.5	290	10
2023-09-25T18:00	23094	35	-58.0	-87.9	293	10
2023-09-25T18:00	23114	35	-57.9	-87.8	296	10
2023-09-25T18:00	23143	35	-58.0	-87.9	299	10
2023-09-25T18:00	23163	35	-58.1	-88.0	301	9
2023-09-25T18:00	23191	35	-58.1	-87.4	304	9
2023-09-25T18:00	23222	35	-58.0	-87.4	305	8
2023-09-25T18:00	23245	34	-58.1	-87.4	306	8
2023-09-25T18:00	23268	34	-58.4	-87.7	307	7
2023-09-25T18:00	23309	34	-58.4	-87.7	306	6
2023-09-25T18:00	23335	34	-58.5	-87.7	305	6
2023-09-25T18:00	23360	34	-58.4	-87.2	302	5
2023-09-25T18:00	23395	34	-58.5	-87.7	297	5
2023-09-25T18:00	23426	33	-58.8	-88.0	291	4
2023-09-25T18:00	23450	33	-58.8	-88.0	284	4
2023-09-25T18:00	23482	33	-58.5	-87.7	278	4
2023-09-25T18:00	23510	33	-58.4	-87.7	273	5
2023-09-25T18:00	23541	33	-58.4	-87.7	271	5
2023-09-25T18:00	23572	33	-58.5	-87.7	269	5
2023-09-25T18:00	23607	32	-58.6	-87.8	268	5
2023-09-25T18:00	23636	32	-58.5	-87.7	267	5
2023-09-25T18:00	23668	32	-58.4	-87.7	264	5
2023-09-25T18:00	23698	32	-58.3	-87.6	260	5
2023-09-25T18:00	23730	32	-58.5	-87.7	256	5
2023-09-25T18:00	23755	32	-58.7	-87.9	254	5
2023-09-25T18:00	23787	32	-58.9	-88.0	253	5
2023-09-25T18:00	23822	31	-59.0	-88.1	254	5
2023-09-25T18:00	23851	31	-58.8	-88.0	254	5
2023-09-25T18:00	23875	31	-58.7	-87.9	253	6
2023-09-25T18:00	23909	31	-58.6	-88.4	251	6
2023-09-25T18:00	23937	31	-58.2	-88.1	249	6
2023-09-25T18:00	23962	31	-58.2	-88.1	248	6
2023-09-25T18:00	23990	31	-58.2	-88.1	248	6
2023-09-25T18:00	24019	30	-57.8	-87.8	249	7
2023-09-25T18:00	24047	30	-57.7	-87.7	251	7
2023-09-25T18:00	24072	30	-57.5	-87.5	253	7
2023-09-25T18:00	24097	30	-57.6	-87.6	255	7
2023-09-25T18:00	24118	30	-57.6	-87.6	256	7
2023-09-25T18:00	24143	30	-57.7	-87.7	256	7
2023-09-25T18:00	24168	30	-57.8	-87.8	256	7
2023-09-25T18:00	24195	30	-57.9	-87.8	255	7
2023-09-25T18:00	24221	29	-57.8	-87.8	254	7
2023-09-25T18:00	24244	29	-57.7	-87.7	251	6
2023-09-25T18:00	24270	29	-57.8	-87.8	248	6
2023-09-25T18:00	24295	29	-57.8	-87.8	245	5
2023-09-25T18:00	24316	29	-57.9	-87.8	242	5
2023-09-25T18:00	24341	29	-57.9	-87.8	239	5
2023-09-25T18:00	24357	29	-58.0	-87.9	236	4
2023-09-25T18:00	24392	29	-58.2	-88.1	232	4
2023-09-25T18:00	24415	29	-58.0	-87.9	227	4
2023-09-25T18:00	24437	28	-57.8	-87.8	220	5
2023-09-25T18:00	24468	28	-57.6	-87.6	214	5
2023-09-25T18:00	24493	28	-57.4	-87.5	208	6
2023-09-25T18:00	24516	28	-57.5	-87.5	204	6
2023-09-25T18:00	24543	28	-57.6	-87.6	201	6
2023-09-25T18:00	24567	28	-57.7	-87.7	199	6
2023-09-25T18:00	24600	28	-57.8	-87.8	200	6
2023-09-25T18:00	24620	28	-57.9	-87.8	203	6
2023-09-25T18:00	24647	28	-58.1	-88.0	210	5
2023-09-25T18:00	24677	27	-57.9	-87.8	219	5
2023-09-25T18:00	24706	27	-57.9	-87.8	230	5
2023-09-25T18:00	24734	27	-58.1	-88.0	240	6
2023-09-25T18:00	24758	27	-57.9	-87.8	248	6
2023-09-25T18:00	24783	27	-57.7	-87.7	254	7
2023-09-25T18:00	24813	27	-57.8	-87.8	259	8
2023-09-25T18:00	24837	27	-57.8	-87.8	262	8
2023-09-25T18:00	24866	27	-57.8	-87.8	265	8
2023-09-25T18:00	24896	26	-57.7	-87.7	266	7
2023-09-25T18:00	24925	26	-57.3	-88.0	266	7
2023-09-25T18:00	24951	26	-57.2	-87.9	266	7
2023-09-25T18:00	24976	26	-57.3	-88.0	266	6
2023-09-25T18:00	25012	26	-57.4	-88.1	267	6
2023-09-25T18:00	25039	26	-57.5	-88.1	268	6
2023-09-25T18:00	25075	26	-57.5	-88.1	269	6
2023-09-25T18:00	25104	26	-57.2	-87.9	270	6
2023-09-25T18:00	25126	25	-57.0	-87.8	271	6
2023-09-25T18:00	25167	25	-57.0	-87.8	273	6
2023-09-25T18:00	25198	25	-56.9	-87.7	275	7
2023-09-25T18:00	25235	25	-56.9	-87.7	278	7
2023-09-25T18:00	25262	25	-57.1	-87.2	281	8
2023-09-25T18:00	25296	25	-57.2	-87.3	284	8
2023-09-25T18:00	25327	25	-57.4	-87.5	287	8
2023-09-25T18:00	25366	25	-57.5	-87.5	290	8
2023-09-25T18:00	25393	24	-57.6	-87.6	292	8
2023-09-25T18:00	25420	24	-57.6	-87.6	294	8
2023-09-25T18:00	25454	24	-57.5	-87.5	296	7
2023-09-25T18:00	25496	24	-57.0	-87.2	296	6
2023-09-25T18:00	25526	24	-57.0	-87.2	295	6
2023-09-25T18:00	25549	24	-57.2	-87.3	293	6
2023-09-25T18:00	25582	24	-57.3	-87.4	290	5
2023-09-25T18:00	25611	24	-57.4	-87.5	287	5
2023-09-25T18:00	25636	24	-57.6	-87.6	284	5
2023-09-25T18:00	25668	23	-57.8	-87.8	282	5
2023-09-25T18:00	25703	23	-57.9	-87.8	281	5
2023-09-25T18:00	25734	23	-57.8	-87.8	282	5
2023-09-25T18:00	25759	23	-57.7	-87.7	283	5
2023-09-25T18:00	25795	23	-57.9	-87.8	285	6
2023-09-25T18:00	25816	23	-58.0	-87.9	287	7
2023-09-25T18:00	25837	23	-58.0	-87.9	290	8
2023-09-25T18:00	25871	23	-58.0	-87.9	292	8
2023-09-25T18:00	25902	23	-58.0	-87.9	294	9
2023-09-25T18:00	25927	23	-57.9	-87.8	297	10
2023-09-25T18:00	25945	22	-57.8	-87.8	299	10
2023-09-25T18:00	25970	22	-57.6	-87.6	300	10
2023-09-25T18:00	26004	22	-57.8	-88.3	300	10
2023-09-25T18:00	26028	22	-57.9	-88.4	298	10
2023-09-25T18:00	26042	22	-57.4	-88.1	294	9
2023-09-25T18:00	26078	22	-57.3	-88.0	290	8
2023-09-25T18:00	26105	22	-57.0	-87.8	286	8
2023-09-25T18:00	26136	22	-56.8	-88.3	285	8
2023-09-25T18:00	26154	22	-56.5	-88.1	286	8
2023-09-25T18:00	26182	22	-56.6	-88.1	289	9
2023-09-25T18:00	26206	21	-56.1	-87.8	293	10
2023-09-25T18:00	26238	21	-55.9	-87.6	295	10
2023-09-25T18:00	26276	21	-56.1	-87.8	296	10
2023-09-25T18:00	26295	21	-56.2	-87.8	295	11
2023-09-25T18:00	26330	21	-56.3	-87.9	291	10
2023-09-25T18:00	26352	21	-55.6	-87.4	287	10
2023-09-25T18:00	26386	21	-55.7	-87.5	282	11
2023-09-25T18:00	26419	21	-55.8	-87.5	278	11
2023-09-25T18:00	26446	21	-55.7	-87.5	276	11
2023-09-25T18:00	26473	21	-55.4	-87.2	277	11
2023-09-25T18:00	26517	21	-55.0	-87.0	279	10
2023-09-25T18:00	26545	20	-54.9	-86.9	282	10
2023-09-25T18:00	26570	20	-55.1	-87.0	285	9
2023-09-25T18:00	26593	20	-55.2	-87.1	288	9
2023-09-25T18:00	26630	20	-55.4	-86.6	290	8
2023-09-25T18:00	26670	20	-55.4	-86.6	293	8
2023-09-25T18:00	26693	20	-55.6	-86.7	297	7
2023-09-25T18:00	26732	20	-55.9	-86.9	301	7
2023-09-25T18:00	26776	20	-56.0	-87.0	306	7
2023-09-25T18:00	26793	20	-56.0	-87.0	311	7
2023-09-25T18:00	26818	20	-56.2	-87.2	315	7
2023-09-25T18:00	26867	19	-56.3	-87.2	319	7
2023-09-25T18:00	26891	19	-56.3	-87.2	321	7
2023-09-25T18:00	26930	19	-56.2	-87.2	322	8
2023-09-25T18:00	26960	19	-56.2	-87.2	322	8
2023-09-25T18:00	27000	19	-56.5	-87.4	321	8
2023-09-25T18:00	27021	19	-56.3	-87.2	320	8
2023-09-25T18:00	27053	19	-56.1	-87.1	318	8
2023-09-25T18:00	27088	19	-56.0	-87.7	318	9
2023-09-25T18:00	27123	19	-55.7	-87.5	320	9
2023-09-25T18:00	27145	19	-55.6	-87.4	321	10
2023-09-25T18:00	27181	18	-55.9	-87.6	324	10
2023-09-25T18:00	27207	18	-56.0	-87.7	326	10
2023-09-25T18:00	27240	18	-55.6	-87.4	328	9
2023-09-25T18:00	27247	18	-55.4	-87.2	329	9
2023-09-25T18:00	27296	18	-55.2	-87.1	330	8
2023-09-25T18:00	27312	18	-55.1	-87.0	330	8
2023-09-25T18:00	27338	18	-55.2	-87.1	330	7
2023-09-25T18:00	27375	18	-55.3	-87.2	327	6
2023-09-25T18:00	27391	18	-55.4	-87.2	323	6
2023-09-25T18:00	27431	18	-55.3	-87.2	316	5
2023-09-25T18:00	27442	18	-55.2	-87.1	307	5
2023-09-25T18:00	27470	18	-55.0	-87.0	298	5
2023-09-25T18:00	27501	18	-54.8	-86.8	289	4
2023-09-25T18:00	27524	18	-54.7	-86.7	281	4
2023-09-25T18:00	27546	17	-54.6	-86.7	274	4
2023-09-25T18:00	27568	17	-54.5	-87.3	270	4
2023-09-25T18:00	27591	17	-54.2	-87.1	266	5
2023-09-25T18:00	27621	17	-54.0	-87.0	264	5
2023-09-25T18:00	27648	17	-54.0	-87.0	263	6
2023-09-25T18:00	27680	17	-54.0	-87.0	262	6
2023-09-25T18:00	27699	17	-54.1	-86.3	261	7
2023-09-25T18:00	27717	17	-54.0	-86.2	261	8
2023-09-25T18:00	27746	17	-54.0	-86.2	261	8
2023-09-25T18:00	27782	17	-54.0	-86.2	262	9
2023-09-25T18:00	27804	17	-53.9	-86.2	264	9
2023-09-25T18:00	27833	17	-53.9	-86.2	266	10
2023-09-25T18:00	27845	17	-53.8	-86.1	267	10
2023-09-25T18:00	27872	17	-53.7	-86.0	269	10
2023-09-25T18:00	27894	17	-53.8	-86.1	271	11
2023-09-25T18:00	27935	16	-53.9	-86.2	272	11
2023-09-25T18:00	27960	16	-53.8	-86.1	274	11
2023-09-25T18:00	27983	16	-54.0	-86.2	275	12
2023-09-25T18:00	28003	16	-54.0	-86.2	276	12
2023-09-25T18:00	28035	16	-54.0	-86.2	277	13
2023-09-25T18:00	28060	16	-53.8	-86.1	278	14
2023-09-25T18:00	28085	16	-53.8	-86.8	279	14
2023-09-25T18:00	28117	16	-53.5	-86.6	279	14
2023-09-25T18:00	28149	16	-53.5	-86.6	279	14
2023-09-25T18:00	28171	16	-53.0	-86.3	279	14
2023-09-25T18:00	28215	16	-52.3	-86.6	278	14
2023-09-25T18:00	28244	16	-51.9	-86.3	277	13
2023-09-25T18:00	28265	16	-51.6	-86.1	276	13
2023-09-25T18:00	28283	16	-51.5	-86.1	275	13
2023-09-25T18:00	28333	15	-51.2	-85.8	275	13
2023-09-25T18:00	28367	15	-51.4	-86.0	275	13
2023-09-25T18:00	28394	15	-51.4	-86.0	277	12
2023-09-25T18:00	28427	15	-51.4	-85.1	279	12
2023-09-25T18:00	28452	15	-51.6	-85.2	281	12
2023-09-25T18:00	28494	15	-51.8	-85.4	284	12
2023-09-25T18:00	28513	15	-51.9	-85.5	287	12
2023-09-25T18:00	28559	15	-52.0	-85.5	290	12
2023-09-25T18:00	28589	15	-52.2	-85.7	292	13
2023-09-25T18:00	28618	15	-52.3	-85.8	293	13
2023-09-25T18:00	28653	15	-52.4	-85.8	295	14
2023-09-25T18:00	28683	15	-52.4	-85.8	296	15
2023-09-25T18:00	28726	15	-52.5	-85.9	296	15
2023-09-25T18:00	28746	14	-52.6		298	15
2023-09-25T18:00	28802	14	-52.2	-85.7	299	15
2023-09-25T18:00	28816	14	-52.0	-85.5	301	15
2023-09-25T18:00	28856	14	-51.9	-85.5	302	14
2023-09-25T18:00	28888	14	-51.9	-85.5	304	14
2023-09-25T18:00	28917	14	-52.0	-85.5	305	13
2023-09-25T18:00	28940	14	-52.0	-85.5	305	13
2023-09-25T18:00	28983	14	-52.0	-85.5	306	12
2023-09-25T18:00	29016	14	-52.1	-85.6	306	12
2023-09-25T18:00	29033	14	-52.2	-85.7	306	11
2023-09-25T18:00	29061	14	-52.1	-85.6	306	11
2023-09-25T18:00	29094	14	-52.2	-85.7	305	11
2023-09-25T18:00	29144	14	-52.2	-85.7	304	10
2023-09-25T18:00	29159	14	-52.3	-85.8	301	10
2023-09-25T18:00	29186	14	-52.2	-85.7	298	10
2023-09-25T18:00	29214	13	-51.7	-86.2	293	10
2023-09-25T18:00	29231	13	-51.4	-86.0	288	10
2023-09-25T18:00	29262	13	-51.1	-85.8	284	10
2023-09-25T18:00	29289	13	-50.7	-85.5	281	10
2023-09-25T18:00	29314	13	-50.7	-85.5	278	10
2023-09-25T18:00	29344	13	-50.7	-85.5	276	10
2023-09-25T18:00	29368	13	-50.7	-85.5	274	9
2023-09-25T18:00	29416	13	-50.9	-85.6	273	9
2023-09-25T18:00	29441	13	-51.0	-84.8	273	9
2023-09-25T18:00	29448	13	-51.1	-84.9	274	10
2023-09-25T18:00	29488	13	-51.0	-84.8	276	10
2023-09-25T18:00	29519	13	-50.8	-84.7	280	10
2023-09-25T18:00	29557	13	-50.9	-85.6	283	11
2023-09-25T18:00	29579	13	-50.9	-85.6	287	11
2023-09-25T18:00	29599	13	-51.0	-85.7	289	11
2023-09-25T18:00	29635	13	-50.9	-85.6	291	11
2023-09-25T18:00	29669	13	-50.5	-85.3	291	10
2023-09-25T18:00	29699	13	-50.1	-85.1	291	10
2023-09-25T18:00	29719	12	-50.2	-85.1	289	9
2023-09-25T18:00	29747	12	-50.1	-85.1	286	9
2023-09-25T18:00	29786	12	-50.0	-85.0	284	9
2023-09-25T18:00	29810	12	-50.1	-85.1	282	9
2023-09-25T18:00	29847	12	-50.1	-85.1	280	9
2023-09-25T18:00	29877	12	-50.3	-85.2	279	9
2023-09-25T18:00	29898	12	-50.2	-85.1	278	10
2023-09-25T18:00	29938	12	-50.2	-85.1	278	10
2023-09-25T18:00	29973	12	-50.1	-85.1	278	9
2023-09-25T18:00	30000	12	-50.1	-85.1	278	9
2023-09-25T18:00	30026	12	-50.0	-85.0	278	8
2023-09-25T18:00	30068	12	-50.1	-85.1	279	8
2023-09-25T18:00	30083	12	-50.3	-85.2	280	8
2023-09-25T18:00	30130	12	-50.5	-85.3	281	7
2023-09-25T18:00	30174	12	-50.3	-85.2	284	7
2023-09-25T18:00	30216	12	-50.3	-85.2	286	8
2023-09-25T18:00	30243	12	-50.3	-85.2	288	8
2023-09-25T18:00	30271	11	-50.3	-85.2	289	8
2023-09-25T18:00	30287	11	-50.2	-85.1	290	9
2023-09-25T18:00	30318	11	-50.3	-85.2	290	9
2023-09-25T18:00	30366	11	-50.5	-85.3	291	9
2023-09-25T18:00	30391	11	-50.5	-84.5	291	9
2023-09-25T18:00	30415	11	-50.6	-84.5	291	8
2023-09-25T18:00	30461	11	-50.7	-84.6	292	8
2023-09-25T18:00	30477	11	-50.9	-84.7	293	8
2023-09-25T18:00	30519	11	-51.0	-84.8	296	8
2023-09-25T18:00	30558	11	-51.2	-85.0	299	9
2023-09-25T18:00	30580	11	-51.2	-85.0	302	10
2023-09-25T18:00	30616	11	-51.3	-85.0	305	10
2023-09-25T18:00	30660	11	-51.4	-85.1	308	11
2023-09-25T18:00	30680	11	-51.5	-85.2	311	11
2023-09-25T18:00	30712	11	-51.6	-85.2	313	11
2023-09-25T18:00	30739	11	-51.5	-85.2	316	11
2023-09-25T18:00	30772	11	-51.4	-85.1	317	11
2023-09-25T18:00	30794	11	-51.3	-85.0	319	11
2023-09-25T18:00	30850	11	-51.4	-85.1	319	11
2023-09-25T18:00	30856	10	-51.6	-85.2	319	11
2023-09-25T18:00	30895	10	-51.6	-85.2	318	11
2023-09-25T18:00	30908	10	-51.6	-85.2	319	11
2023-09-25T18:00	30963	10	-51.4	-85.1	320	11
2023-09-25T18:00	30985	10	-51.4	-85.1	321	11
2023-09-25T18:00	31016	10	-51.4	-86.0	323	11
2023-09-25T18:00	31048	10	-51.3	-85.9	325	11
2023-09-25T18:00	31075	10	-51.3	-85.9	325	11
2023-09-25T18:00	31105	10	-51.4	-86.0	324	11
2023-09-25T18:00	31126	10	-51.0	-85.7	322	11
2023-09-25T18:00	31162	10	-50.4	-85.3	319	11
2023-09-25T18:00	31208	10	-50.2	-86.2	315	11
2023-09-25T18:00	31266	10	-49.6	-85.8	307	11
2023-09-25T18:00	31309	10	-49.5	-85.7	304	12
2023-09-25T18:00	31322	10	-49.5	-85.7	301	12
2023-09-25T18:00	31348	10	-49.2	-85.5	298	12
2023-09-25T18:00	31384	10	-48.8	-85.2	296	12
2023-09-25T18:00	31410	10	-48.5	-85.0	295	13
2023-09-25T18:00	31435	10	-48.1	-84.7	295	13
2023-09-25T18:00	31462	10	-47.9	-84.6	295	14
2023-09-25T18:00	31495	9	-47.6	-84.3	295	14
2023-09-25T18:00	31535	9	-46.9	-83.9	296	15
2023-09-25T18:00	31588	9	-46.6	-83.6	296	16
2023-09-25T18:00	31605	9	-46.5	-83.6	297	16
2023-09-25T18:00	31637	9	-46.3	-83.4	298	17
2023-09-25T18:00	31694	9	-46.0	-83.2	298	18
2023-09-25T18:00	31707	9	-45.7	-83.0	299	18
2023-09-25T18:00	31736	9	-45.7	-83.0	299	18
2023-09-25T18:00	31790	9	-45.7	-83.0	300	18
2023-09-25T18:00	31834	9	-45.6	-82.9	300	17
2023-09-25T18:00	31876	9	-45.8	-83.1	300	15
2023-09-25T18:00	31910	9	-45.8	-83.1	299	14
2023-09-25T18:00	31937	9	-45.9	-83.2	297	13
2023-09-25T18:00	31984	9	-46.0	-83.2	296	12
2023-09-25T18:00	32014	9	-46.2	-83.4	295	12
2023-09-25T18:00	32049	9	-46.3	-83.4	295	12
2023-09-25T18:00	32066	9	-46.1	-83.3	296	12
2023-09-25T18:00	32098	9	-45.8	-83.1	298	13
2023-09-25T18:00	32153	9	-46.0	-83.2	299	13
2023-09-25T18:00	32172	9	-46.2	-83.4	300	14
2023-09-25T18:00	32211	9	-46.1	-83.3	301	14
2023-09-25T18:00	32216	9	-45.8	-83.1	302	14
2023-09-25T18:00	32253	8	-45.6	-82.9	303	14
2023-09-25T18:00	32286	8	-45.6	-82.9	304	14
2023-09-25T18:00	32315	8	-45.7	-83.0	305	14
2023-09-25T18:00	32357	8	-45.6	-82.9	305	14
2023-09-25T18:00	32380	8	-45.7	-83.0	305	13
2023-09-25T18:00	32401	8	-45.8	-83.1	305	13
2023-09-25T18:00	32428	8	-45.9	-83.2	304	12
2023-09-25T18:00	32476	8	-45.7	-83.0	303	12
2023-09-25T18:00	32510	8	-45.5	-82.9	301	11
2023-09-25T18:00	32521	8	-45.4	-82.8	299	11
2023-09-25T18:00	32574	8	-45.5	-82.9	296	11
2023-09-25T18:00	32578	8	-45.6	-82.9	293	10
2023-09-25T18:00	32622	8	-45.5	-82.9	291	10
2023-09-25T18:00	32637	8	-45.4	-82.8	288	11
2023-09-25T18:00	32672	8	-45.3	-82.7	286	11
2023-09-25T18:00	32703	8	-45.1	-82.6	285	11
2023-09-25T18:00	32713	8	-45.0	-82.5	283	12
2023-09-25T18:00	32759	8	-44.9	-82.5	280	12
2023-09-25T18:00	32791	8	-44.8	-82.4	278	13
2023-09-25T18:00	32813	8	-44.8	-82.4	277	13
2023-09-25T18:00	32837	8	-44.8	-82.4	277	13
2023-09-25T18:00	32873	8	-44.7	-82.3	279	14
2023-09-25T18:00	32917	8	-44.8	-82.4	282	14
2023-09-25T18:00	32931	8	-44.6	-82.2	286	14
2023-09-25T18:00	32972	8	-44.6	-82.2	290	15
2023-09-25T18:00	32986	8	-44.6	-82.2	293	15
2023-09-25T18:00	33047	8	-44.5	-82.2	296	15
2023-09-25T18:00	33084	7	-43.4	-81.4	301	14
2023-09-25T18:00	33111	7	-43.4	-81.4	304	14
2023-09-25T18:00	33165	7	-43.5	-81.5	307	14
2023-09-25T18:00	33183	7	-43.5	-81.5	309	13
2023-09-25T18:00	33192	7	-43.6	-81.5	311	13
2023-09-25T18:00	33257	7	-43.4	-81.4	312	12
2023-09-25T18:00	33266	7	-43.1	-81.2	311	11
2023-09-25T18:00	33350	7	-43.1	-81.2	308	11
2023-09-25T18:00	33386	7	-43.2	-81.3	303	11
2023-09-25T18:00	33416	7	-43.3	-81.3	299	11
2023-09-25T18:00	33444	7	-43.4	-81.4	295	12
2023-09-25T18:00	33478	7	-43.5	-81.5	292	12
2023-09-25T18:00	33525	7	-43.8	-81.7	290	13
2023-09-25T18:00	33577	7	-44.0	-81.8	289	13
2023-09-25T18:00	33599	7	-44.2	-82.0	289	13
2023-09-25T18:00	33630	7	-44.3	-82.0	288	13
2023-09-25T18:00	33674	7	-44.2	-82.0	288	13
2023-09-25T18:00	33719	7	-44.0	-81.8	289	12
2023-09-25T18:00	33760	7	-44.1	-81.9	291	10
2023-09-25T18:00	33812	7	-44.2	-82.0	293	10
2023-09-25T18:00	33826	7	-44.2	-82.0	295	9
2023-09-25T18:00	33868	7	-44.3	-82.0	296	8
2023-09-25T18:00	33885	7	-44.1	-81.9	297	8
2023-09-25T18:00	33946	7	-43.8	-81.7	297	8
2023-09-25T18:00	33960	7	-43.8	-81.7	295	7
2023-09-25T18:00	34004	7	-43.7	-81.6	294	7
2023-09-25T18:00	34050	7	-43.6	-81.5	292	8
2023-09-25T18:00	34063	7	-43.5	-81.5	291	8
2023-09-25T18:00	34073	6	-43.5	-81.5	291	8
2023-09-25T18:00	34084	6	-43.5	-81.5	291	8
2023-09-25T18:00	34155	6	-43.3	-81.3	293	8
2023-09-26T00:00	112	1012	14.9	13.3	110	3
2023-09-26T00:00	135	1009	15.3	13.4	154	2
2023-09-26T00:00	159	1006	16.3	13.5	158	3
2023-09-26T00:00	186	1003	16.7	13.6	162	5
2023-09-26T00:00	210	1000	17.0	13.7	164	6
2023-09-26T00:00	232	997	17.1	13.6	165	6
2023-09-26T00:00	258	994	17.0	13.3	164	7
2023-09-26T00:00	282	992	16.9	13.3	164	7
2023-09-26T00:00	307	989	16.7	13.1	164	6
2023-09-26T00:00	333	986	16.5	13.3	166	6
2023-09-26T00:00	357	983	16.4	13.4	169	6
2023-09-26T00:00	384	980	16.3	13.1	173	6
2023-09-26T00:00	414	977	16.1	12.8	177	6
2023-09-26T00:00	439	974	16.2	12.5	180	6
2023-09-26T00:00	463	971	16.2	12.5	182	6
2023-09-26T00:00	495	967	16.2	12.4	182	6
2023-09-26T00:00	521	964	16.2	12.3	181	5
2023-09-26T00:00	544	962	16.0	12.2	179	5
2023-09-26T00:00	569	959	15.9	11.9	176	5
2023-09-26T00:00	593	956	15.8	11.8	173	5
2023-09-26T00:00	616	953	15.6	11.6	170	4
2023-09-26T00:00	640	951	15.5	11.5	169	4
2023-09-26T00:00	665	948	15.3	11.2	169	4
2023-09-26T00:00	691	945	15.1	11.2	171	3
2023-09-26T00:00	717	942	14.9	11.0	174	3
2023-09-26T00:00	740	940	14.7	10.7	175	3
2023-09-26T00:00	765	937	14.5	10.5	173	3
2023-09-26T00:00	786	935	14.3	10.4	169	3
2023-09-26T00:00	815	932	14.1	10.2	165	3
2023-09-26T00:00	838	929	13.9	10.1	163	3
2023-09-26T00:00	867	926	13.7	9.6	163	3
2023-09-26T00:00	892	923	13.5	9.4	166	2
2023-09-26T00:00	918	920	13.4	9.1	175	2
2023-09-26T00:00	950	917	13.2	8.9	198	1
2023-09-26T00:00	976	914	12.9	8.8	232	2
2023-09-26T00:00	1002	911	12.7	8.7	253	2
2023-09-26T00:00	1028	908	12.5	8.5	262	3
2023-09-26T00:00	1048	906	12.4	8.4	265	3
2023-09-26T00:00	1073	904	12.2	8.2	266	4
2023-09-26T00:00	1096	901	12.1	8.1	267	4
2023-09-26T00:00	1126	898	11.9	8.0	268	3
2023-09-26T00:00	1150	895	11.7	8.0	269	3
2023-09-26T00:00	1173	893	11.6	8.0	270	3
2023-09-26T00:00	1195	890	11.4	7.9	271	2
2023-09-26T00:00	1224	887	11.3	8.0	272	2
2023-09-26T00:00	1249	884	11.0	7.9	269	2
2023-09-26T00:00	1278	882	10.9	7.7	261	2
2023-09-26T00:00	1304	879	10.8	7.4	240	1
2023-09-26T00:00	1333	876	10.8	7.1	198	1
2023-09-26T00:00	1359	873	10.6	7.1	165	2
2023-09-26T00:00	1384	870	10.9	6.9	152	3
2023-09-26T00:00	1420	867	11.2	5.8	148	3
2023-09-26T00:00	1444	864	12.3	4.0	151	3
2023-09-26T00:00	1468	862	13.1	3.7	158	3
2023-09-26T00:00	1494	859	13.1	3.6	166	4
2023-09-26T00:00	1521	856	13.0	3.7	173	4
2023-09-26T00:00	1539	854	12.9	3.8	177	4
2023-09-26T00:00	1562	852	12.7	3.6	178	4
2023-09-26T00:00	1586	850	12.6	3.4	178	4
2023-09-26T00:00	1613	847	12.4	3.6	177	4
2023-09-26T00:00	1638	844	12.2	3.6	176	4
2023-09-26T00:00	1658	842	12.0	3.7	175	4
2023-09-26T00:00	1680	840	11.9	3.6	174	5
2023-09-26T00:00	1702	838	11.8	3.4	172	5
2023-09-26T00:00	1724	836	11.8	3.3	172	5
2023-09-26T00:00	1746	833	11.7	3.1	172	5
2023-09-26T00:00	1770	831	11.5	2.1	173	5
2023-09-26T00:00	1797	829	11.4	2.7	174	5
2023-09-26T00:00	1821	826	11.2	2.9	173	6
2023-09-26T00:00	1847	824	10.9	2.8	171	6
2023-09-26T00:00	1868	821	10.8	2.8	169	6
2023-09-26T00:00	1890	819	10.6	2.7	168	6
2023-09-26T00:00	1909	818	10.5	2.8	168	6
2023-09-26T00:00	1928	816	10.3	2.7	169	6
2023-09-26T00:00	1946	814	10.2	2.7	168	6
2023-09-26T00:00	1970	811	10.0	2.6	166	5
2023-09-26T00:00	1997	809	9.8	2.5	162	5
2023-09-26T00:00	2020	807	9.6	2.5	159	5
2023-09-26T00:00	2049	804	9.4	2.5	159	5
2023-09-26T00:00	2072	802	9.2	2.5	163	5
2023-09-26T00:00	2100	799	9.0	2.1	169	5
2023-09-26T00:00	2137	796	8.9	1.8	176	4
2023-09-26T00:00	2167	793	8.9	1.0	183	4
2023-09-26T00:00	2193	790	9.2	-1.7	190	4
2023-09-26T00:00	2220	788	9.2	-2.4	195	4
2023-09-26T00:00	2243	785	9.1	-3.3	199	4
2023-09-26T00:00	2279	782	9.2	-5.6	198	3
2023-09-26T00:00	2307	779	9.3	-6.3	193	3
2023-09-26T00:00	2332	777	9.1	-6.6	186	3
2023-09-26T00:00	2356	775	9.0	-6.4	178	2
2023-09-26T00:00	2375	773	8.9	-6.8	175	2
2023-09-26T00:00	2394	771	8.8	-7.5	181	2
2023-09-26T00:00	2419	769	8.7	-7.4	190	2
2023-09-26T00:00	2440	767	8.6	-6.2	197	3
2023-09-26T00:00	2465	764	8.5	-4.0	201	3
2023-09-26T00:00	2488	762	8.4	-3.6	203	3
2023-09-26T00:00	2513	760	8.4	-4.2	204	3
2023-09-26T00:00	2530	758	8.4	-4.3	204	3
2023-09-26T00:00	2552	756	8.2	-4.5	203	3
2023-09-26T00:00	2581	754	8.0	-4.7	201	3
2023-09-26T00:00	2603	752	7.9	-4.8	198	3
2023-09-26T00:00	2624	750	7.7	-4.8	197	3
2023-09-26T00:00	2648	748	7.5	-5.0	196	3
2023-09-26T00:00	2679	745	7.4	-5.3	198	3
2023-09-26T00:00	2701	743	7.4	-5.7	201	4
2023-09-26T00:00	2724	741	7.3	-5.6	203	4
2023-09-26T00:00	2749	739	7.2	-6.4	205	5
2023-09-26T00:00	2771	737	7.0	-3.0	207	6
2023-09-26T00:00	2791	735	6.8	-2.5	207	7
2023-09-26T00:00	2812	733	6.6	-2.6	208	7
2023-09-26T00:00	2837	731	6.4	-2.8	209	7
2023-09-26T00:00	2859	729	6.4	-3.0	209	7
2023-09-26T00:00	2885	726	6.4		209	6
2023-09-26T00:00	2912	724	6.4	-3.7	209	6
2023-09-26T00:00	2932	722	6.3	-3.9	207	6
2023-09-26T00:00	2960	720	6.0	-3.8	205	6
2023-09-26T00:00	2985	718	5.9	-4.0	203	6
2023-09-26T00:00	3004	716	5.7	-4.2	199	6
2023-09-26T00:00	3028	714	5.7	-4.9	195	6
2023-09-26T00:00	3056	712	6.0	-5.9	190	6
2023-09-26T00:00	3077	710	6.1	-8.2	185	5
2023-09-26T00:00	3101	708	6.0	-8.5	179	5
2023-09-26T00:00	3123	706	5.8	-8.3	175	5
2023-09-26T00:00	3146	704	5.7	-8.4	172	5
2023-09-26T00:00	3170	702	5.5	-8.8	172	5
2023-09-26T00:00	3197	699	5.3	-8.7	173	5
2023-09-26T00:00	3223	697	5.2	-8.5	176	5
2023-09-26T00:00	3248	695	5.0	-7.4	179	6
2023-09-26T00:00	3271	693	5.0	-8.2	183	6
2023-09-26T00:00	3294	691	4.8	-9.2	189	6
2023-09-26T00:00	3326	688	4.9	-11.0	198	6
2023-09-26T00:00	3352	686	5.1	-11.3	208	6
2023-09-26T00:00	3379	684	5.2	-10.9	219	6
2023-09-26T00:00	3402	682	5.1	-11.2	228	6
2023-09-26T00:00	3429	680	5.0	-12.2	234	7
2023-09-26T00:00	3452	678	5.1	-13.4	237	8
2023-09-26T00:00	3472	676	5.1	-13.9	236	8
2023-09-26T00:00	3493	674	5.0	-13.9	232	8
2023-09-26T00:00	3520	672	4.8	-13.9	227	8
2023-09-26T00:00	3540	670	4.6	-14.1	221	9
2023-09-26T00:00	3570	668	4.4	-12.6	218	9
2023-09-26T00:00	3599	666	4.2	-11.9	217	9
2023-09-26T00:00	3621	664	4.1	-12.4	217	9
2023-09-26T00:00	3644	662	4.0	-12.4	216	8
2023-09-26T00:00	3673	660	4.0	-13.3	214	8
2023-09-26T00:00	3694	658	3.8	-13.4	213	8
2023-09-26T00:00	3716	656	3.7	-13.3	212	8
2023-09-26T00:00	3738	654	3.5	-13.5	211	8
2023-09-26T00:00	3758	653	3.3	-13.6	211	8
2023-09-26T00:00	3783	651	3.1	-13.7	210	7
2023-09-26T00:00	3814	648	2.8	-13.8	208	7
2023-09-26T00:00	3846	646	2.5	-13.9	205	7
2023-09-26T00:00	3875	643	2.2	-14.0	203	7
2023-09-26T00:00	3903	641	1.9	-13.9	202	7
2023-09-26T00:00	3946	638	1.5	-14.0	204	7
2023-09-26T00:00	3968	636	1.3	-14.0	207	8
2023-09-26T00:00	3986	634	1.1	-14.1	211	8
2023-09-26T00:00	4016	632	0.9	-14.0	215	7
2023-09-26T00:00	4043	630	0.6	-14.3	219	7
2023-09-26T00:00	4068	628	0.4	-14.6	221	7
2023-09-26T00:00	4095	626	0.4	-16.5	220	7
2023-09-26T00:00	4118	624	0.4		218	7
2023-09-26T00:00	4145	622	0.5	-19.4	215	7
2023-09-26T00:00	4174	620	0.4	-19.8	213	7
2023-09-26T00:00	4204	617	0.3	-20.6	212	7
2023-09-26T00:00	4234	615	0.5	-23.5	212	7
2023-09-26T00:00	4269	613	0.3	-23.5	214	7
2023-09-26T00:00	4301	610	0.0	-22.2	217	7
2023-09-26T00:00	4328	608	-0.2	-21.6	220	7
2023-09-26T00:00	4350	606	-0.4	-21.8	221	6
2023-09-26T00:00	4372	605	-0.6	-21.9	220	6
2023-09-26T00:00	4400	603	-0.8	-22.0	218	6
2023-09-26T00:00	4425	601	-1.0	-22.0	216	5
2023-09-26T00:00	4447	599	-1.2	-22.0	215	5
2023-09-26T00:00	4472	597	-1.5	-22.2	217	6
2023-09-26T00:00	4505	595	-1.8	-22.8	220	6
2023-09-26T00:00	4531	593	-2.0	-23.6	223	6
2023-09-26T00:00	4555	591	-2.0	-24.6	225	6
2023-09-26T00:00	4578	589	-2.2	-24.6	225	6
2023-09-26T00:00	4609	587	-2.1	-29.4	222	6
2023-09-26T00:00	4639	585	-2.1	-31.4	218	5
2023-09-26T00:00	4660	583	-2.1	-32.0	214	5
2023-09-26T00:00	4682	582	-1.9	-35.9	212	5
2023-09-26T00:00	4707	580	-2.0	-38.9	212	5
2023-09-26T00:00	4730	578	-2.2	-41.6	213	4
2023-09-26T00:00	4754	576	-2.4	-42.6	214	4
2023-09-26T00:00	4786	574	-2.6	-42.8	213	3
2023-09-26T00:00	4818	572	-2.8	-42.5	210	3
2023-09-26T00:00	4850	570	-3.1	-42.3	206	3
2023-09-26T00:00	4876	568	-3.3	-42.4	205	4
2023-09-26T00:00	4903	566	-3.5	-41.8	205	4
2023-09-26T00:00	4932	564	-3.7	-41.9	205	5
2023-09-26T00:00	4957	562	-3.9	-40.0	203	5
2023-09-26T00:00	4977	560	-4.0	-39.8	201	5
2023-09-26T00:00	5007	558	-4.3	-38.9	198	5
2023-09-26T00:00	5036	556	-4.6	-38.4	196	4
2023-09-26T00:00	5054	555	-4.8	-38.3	197	4
2023-09-26T00:00	5087	553	-5.1	-37.6	200	4
2023-09-26T00:00	5111	551	-5.2	-37.9	205	4
2023-09-26T00:00	5141	549	-5.5	-37.7	213	3
2023-09-26T00:00	5171	546	-5.8	-37.8	222	3
2023-09-26T00:00	5204	544	-6.0	-37.7	231	2
2023-09-26T00:00	5229	543	-6.2	-37.3	236	2
2023-09-26T00:00	5250	541	-6.4	-37.1	230	2
2023-09-26T00:00	5276	539	-6.6	-37.1	215	2
2023-09-26T00:00	5294	538	-6.8	-37.0	203	3
2023-09-26T00:00	5324	536	-7.1	-37.3	197	3
2023-09-26T00:00	5349	534	-7.3	-37.4	198	3
2023-09-26T00:00	5370	533	-7.5	-37.9	203	3
2023-09-26T00:00	5391	531	-7.7	-37.6	211	3
2023-09-26T00:00	5418	530	-7.9	-37.2	216	3
2023-09-26T00:00	5439	528	-8.1	-36.8	218	3
2023-09-26T00:00	5464	526	-8.3	-35.6	218	3
2023-09-26T00:00	5490	525	-8.5	-33.8	219	3
2023-09-26T00:00	5520	523	-8.8	-33.6	223	3
2023-09-26T00:00	5549	521	-8.9	-34.4	231	2
2023-09-26T00:00	5569	519	-9.0	-35.1	238	2
2023-09-26T00:00	5598	517	-9.2	-34.3	241	3
2023-09-26T00:00	5622	516	-9.2		241	3
2023-09-26T00:00	5645	514	-9.3	-34.9	239	3
2023-09-26T00:00	5675	512	-9.4	-36.4	238	3
2023-09-26T00:00	5700	511	-9.4	-39.3	239	2
2023-09-26T00:00	5726	509	-9.5	-40.1	242	2
2023-09-26T00:00	5758	507	-9.5	-40.6	247	1
2023-09-26T00:00	5778	505	-9.6	-38.7	246	1
2023-09-26T00:00	5805	504	-9.8	-38.1	232	1
2023-09-26T00:00	5834	502	-10.0	-38.4	217	2
2023-09-26T00:00	5857	500	-10.2	-38.0	211	2
2023-09-26T00:00	5885	498	-10.4	-38.4	210	3
2023-09-26T00:00	5916	496	-10.6	-38.9	210	4
2023-09-26T00:00	5942	495	-10.8	-38.6	208	4
2023-09-26T00:00	5961	494	-10.9	-38.4	205	4
2023-09-26T00:00	5985	492	-11.1	-38.6	199	4
2023-09-26T00:00	6020	490	-11.2	-41.0	193	5
2023-09-26T00:00	6039	489	-11.3	-41.8	190	5
2023-09-26T00:00	6055	488	-11.4	-41.7	192	5
2023-09-26T00:00	6071	486	-11.6	-41.9	199	5
2023-09-26T00:00	6091	485	-11.8	-41.9	209	4
2023-09-26T00:00	6118	484	-12.0		220	4
2023-09-26T00:00	6147	482	-12.2	-42.2	228	4
2023-09-26T00:00	6174	480	-12.4	-42.3	229	4
2023-09-26T00:00	6192	479	-12.5	-42.6	226	5
2023-09-26T00:00	6218	477	-12.6	-42.9	220	5
2023-09-26T00:00	6247	476	-12.8	-42.8	216	5
2023-09-26T00:00	6271	474	-13.0	-41.6	215	5
2023-09-26T00:00	6297	472	-13.2	-40.0	218	5
2023-09-26T00:00	6317	471	-13.4	-39.3	222	4
2023-09-26T00:00	6346	469	-13.6	-38.4	228	4
2023-09-26T00:00	6371	468	-13.9	-37.1	233	4
2023-09-26T00:00	6399	466	-14.2	-36.6	235	4
2023-09-26T00:00	6428	464	-14.3	-36.5	236	4
2023-09-26T00:00	6455	463	-14.5	-38.5	237	4
2023-09-26T00:00	6482	461	-14.7	-38.3	239	4
2023-09-26T00:00	6503	460	-14.9	-37.7	241	4
2023-09-26T00:00	6524	458	-15.1	-38.5	241	4
2023-09-26T00:00	6546	457	-15.2	-37.6	237	4
2023-09-26T00:00	6571	456	-15.4	-37.4	230	4
2023-09-26T00:00	6605	454	-15.5	-31.7	222	4
2023-09-26T00:00	6632	452	-15.8	-31.9	217	4
2023-09-26T00:00	6648	451	-15.9	-32.7	215	5
2023-09-26T00:00	6669	450	-16.1	-31.8	216	5
2023-09-26T00:00	6698	448	-16.4	-34.0	216	6
2023-09-26T00:00	6728	446	-16.6	-33.2	215	6
2023-09-26T00:00	6752	445	-16.8	-33.4	213	6
2023-09-26T00:00	6782	443	-17.1	-36.7	212	6
2023-09-26T00:00	6807	441	-17.3	-34.0	212	5
2023-09-26T00:00	6837	440	-17.6	-32.1	215	5
2023-09-26T00:00	6867	438	-17.8	-30.3	221	5
2023-09-26T00:00	6894	437	-18.1	-29.9	226	5
2023-09-26T00:00	6911	435	-18.3	-29.5	229	5
2023-09-26T00:00	6929	434	-18.5	-29.5	229	6
2023-09-26T00:00	6953	433	-18.7	-29.1	229	6
2023-09-26T00:00	6981	431	-18.9	-29.0	230	6
2023-09-26T00:00	7005	430	-19.1	-28.7	233	6
2023-09-26T00:00	7029	428	-19.3	-29.5	239	6
2023-09-26T00:00	7063	427	-19.6	-30.3	246	6
2023-09-26T00:00	7084	425	-19.7	-30.1	253	6
2023-09-26T00:00	7104	424	-19.8	-32.5	258	5
2023-09-26T00:00	7131	423	-20.0	-32.3	261	5
2023-09-26T00:00	7163	421	-20.1	-32.3	263	6
2023-09-26T00:00	7198	419	-20.4		266	6
2023-09-26T00:00	7227	417	-20.6	-33.0	270	7
2023-09-26T00:00	7252	416	-20.8	-33.2	273	7
2023-09-26T00:00	7270	415	-20.9	-33.5	275	7
2023-09-26T00:00	7290	414	-21.1	-33.5	277	8
2023-09-26T00:00	7308	413	-21.3	-33.5	278	8
2023-09-26T00:00	7325	412	-21.3	-34.2	279	8
2023-09-26T00:00	7346	411	-21.2	-34.8	280	8
2023-09-26T00:00	7368	409	-21.3	-34.8	280	8
2023-09-26T00:00	7393	408	-21.4	-34.8	281	8
2023-09-26T00:00	7428	406	-21.7	-34.9	281	8
2023-09-26T00:00	7453	405	-21.8	-34.6	281	8
2023-09-26T00:00	7470	404	-21.9	-33.9	282	8
2023-09-26T00:00	7489	403	-21.9	-33.6	284	8
2023-09-26T00:00	7510	402	-22.0	-33.6	285	8
2023-09-26T00:00	7539	400	-22.2	-33.8	286	8
2023-09-26T00:00	7568	399	-22.4	-34.0	285	8
2023-09-26T00:00	7585	397	-22.5	-34.0	282	8
2023-09-26T00:00	7610	396	-22.6	-33.9	277	7
2023-09-26T00:00	7641	394	-22.8	-34.0	273	7
2023-09-26T00:00	7674	393	-23.0	-34.3	269	7
2023-09-26T00:00	7710	391	-23.2	-37.4	267	7
2023-09-26T00:00	7733	390	-23.4	-37.7	266	7
2023-09-26T00:00	7755	388	-23.5	-37.5	266	7
2023-09-26T00:00	7772	387	-23.7	-36.8	266	7
2023-09-26T00:00	7792	386	-23.8	-36.6	266	7
2023-09-26T00:00	7812	385	-24.0	-36.5	267	6
2023-09-26T00:00	7838	384	-24.1	-37.1	268	6
2023-09-26T00:00	7864	383	-24.2	-38.5	269	6
2023-09-26T00:00	7896	381	-24.4	-38.8	271	7
2023-09-26T00:00	7920	380	-24.6	-39.3	272	7
2023-09-26T00:00	7940	379	-24.8	-39.3	272	7
2023-09-26T00:00	7960	377	-25.0	-39.2	273	7
2023-09-26T00:00	7991	376	-25.3	-39.7	273	7
2023-09-26T00:00	8023	374	-25.6	-39.7	270	6
2023-09-26T00:00	8044	373	-25.8	-39.7	266	6
2023-09-26T00:00	8065	372	-26.0	-39.7	260	6
2023-09-26T00:00	8095	371	-26.3	-39.8	255	6
2023-09-26T00:00	8126	369	-26.6	-40.2	254	6
2023-09-26T00:00	8149	368	-26.8	-40.2	256	6
2023-09-26T00:00	8181	366	-27.1	-40.4	260	6
2023-09-26T00:00	8209	365	-27.4	-40.4	264	6
2023-09-26T00:00	8241	363	-27.7	-40.4	265	6
2023-09-26T00:00	8270	362	-27.9	-40.5	262	6
2023-09-26T00:00	8301	360	-28.1	-40.8	259	7
2023-09-26T00:00	8328	359	-28.3	-40.6	256	7
2023-09-26T00:00	8358	357	-28.6	-40.2	256	8
2023-09-26T00:00	8384	356	-28.7	-39.3	257	8
2023-09-26T00:00	8409	355	-28.9	-39.4	259	9
2023-09-26T00:00	8439	353	-29.1	-39.8	261	9
2023-09-26T00:00	8468	352	-29.4	-40.5	261	8
2023-09-26T00:00	8492	351	-29.6	-40.9	259	8
2023-09-26T00:00	8521	349	-29.8	-40.8	257	8
2023-09-26T00:00	8554	348	-30.1	-40.4	256	8
2023-09-26T00:00	8588	346	-30.3	-39.5	255	8
2023-09-26T00:00	8619	344	-30.6	-38.1	256	8
2023-09-26T00:00	8653	343	-30.9	-37.9	259	8
2023-09-26T00:00	8688	341	-31.2	-37.8	261	8
2023-09-26T00:00	8706	340	-31.4	-37.6	263	8
2023-09-26T00:00	8727	339	-31.6	-37.6	263	8
2023-09-26T00:00	8749	338	-31.8	-37.7	263	8
2023-09-26T00:00	8769	337	-31.9	-37.9	262	9
2023-09-26T00:00	8790	336	-32.1	-38.0	262	9
2023-09-26T00:00	8811	335	-32.1	-38.0	261	9
2023-09-26T00:00	8833	334	-32.3	-38.2	260	9
2023-09-26T00:00	8853	333	-32.4	-38.8	258	9
2023-09-26T00:00	8875	332	-32.5	-40.0	256	10
2023-09-26T00:00	8896	331	-32.5	-38.7	253	10
2023-09-26T00:00	8919	330	-32.6	-38.7	250	11
2023-09-26T00:00	8948	329	-32.4	-41.7	247	11
2023-09-26T00:00	8978	327	-32.6	-44.0	245	12
2023-09-26T00:00	9007	326	-32.7	-45.2	243	12
2023-09-26T00:00	9043	325	-32.9	-44.7	243	12
2023-09-26T00:00	9070	323	-33.0	-43.5	243	12
2023-09-26T00:00	9101	322	-33.3	-38.1	245	12
2023-09-26T00:00	9133	320	-33.5	-39.7	246	12
2023-09-26T00:00	9161	319	-33.8	-41.0	247	12
2023-09-26T00:00	9188	318	-34.1	-40.6	246	12
2023-09-26T00:00	9221	316	-34.4	-38.1	246	12
2023-09-26T00:00	9251	315	-34.7	-38.9	245	12
2023-09-26T00:00	9282	314	-34.9	-39.1	245	12
2023-09-26T00:00	9310	312	-35.2	-39.2	246	12
2023-09-26T00:00	9340	311	-35.5	-39.6	247	12
2023-09-26T00:00	9368	310	-35.8	-39.9	247	12
2023-09-26T00:00	9396	308	-36.0	-40.0	246	12
2023-09-26T00:00	9430	307	-36.3	-40.2	244	12
2023-09-26T00:00	9462	306	-36.6	-40.3	242	12
2023-09-26T00:00	9494	304	-36.9	-40.1	241	12
2023-09-26T00:00	9524	303	-37.1	-39.9	240	12
2023-09-26T00:00	9556	301	-37.3	-40.2	241	12
2023-09-26T00:00	9587	300	-37.5	-40.8	243	12
2023-09-26T00:00	9618	299	-37.7	-41.2	245	12
2023-09-26T00:00	9648	297	-37.9		248	12
2023-09-26T00:00	9677	296	-38.0	-41.3	251	12
2023-09-26T00:00	9705	295	-38.2		254	12
2023-09-26T00:00	9741	293	-38.2	-41.6	256	12
2023-09-26T00:00	9775	292	-38.5	-41.9	258	12
2023-09-26T00:00	9800	291	-38.7	-41.9	258	12
2023-09-26T00:00	9829	290	-38.8	-42.0	258	13
2023-09-26T00:00	9862	288	-39.0	-42.2	257	13
2023-09-26T00:00	9895	287	-39.3	-42.4	255	13
2023-09-26T00:00	9929	285	-39.6	-42.6	254	12
2023-09-26T00:00	9963	284	-39.8	-42.9	253	12
2023-09-26T00:00	9989	283	-40.0	-42.9	253	12
2023-09-26T00:00	10015	282	-40.2	-42.8	252	12
2023-09-26T00:00	10042	281	-40.5	-43.0	252	12
2023-09-26T00:00	10071	280	-40.7	-43.4	250	12
2023-09-26T00:00	10099	278	-40.9	-43.6	249	12
2023-09-26T00:00	10133	277	-41.2	-44.0	247	12
2023-09-26T00:00	10156	276	-41.4	-44.2	246	11
2023-09-26T00:00	10178	275	-41.6	-44.3	244	11
2023-09-26T00:00	10205	274	-41.9	-44.2	243	11
2023-09-26T00:00	10236	273	-42.1	-44.4	243	11
2023-09-26T00:00	10259	272	-42.3	-44.9	243	11
2023-09-26T00:00	10279	271	-42.5	-45.1	242	11
2023-09-26T00:00	10302	270	-42.7	-45.0	242	11
2023-09-26T00:00	10324	269	-42.9	-45.2	241	11
2023-09-26T00:00	10351	268	-43.2	-45.4	240	11
2023-09-26T00:00	10382	267	-43.5	-45.5	240	12
2023-09-26T00:00	10414	266	-43.8	-45.6	240	12
2023-09-26T00:00	10445	265	-44.1	-45.9	241	12
2023-09-26T00:00	10474	263	-44.3	-46.5	242	12
2023-09-26T00:00	10505	262	-44.6	-47.2	244	11
2023-09-26T00:00	10535	261	-44.9	-47.5	246	11
2023-09-26T00:00	10563	260	-45.1	-47.8	248	12
2023-09-26T00:00	10584	259	-45.3	-48.0	249	12
2023-09-26T00:00	10608	258	-45.5	-48.2	249	12
2023-09-26T00:00	10628	257	-45.7	-48.6	249	12
2023-09-26T00:00	10650	257	-45.9	-48.8	249	12
2023-09-26T00:00	10671	256	-46.1	-49.2	248	12
2023-09-26T00:00	10689	255	-46.2	-49.5	248	12
2023-09-26T00:00	10711	254	-46.4	-49.6	247	12
2023-09-26T00:00	10730	253	-46.5	-49.8	247	12
2023-09-26T00:00	10750	253	-46.6	-50.2	247	13
2023-09-26T00:00	10770	252	-46.7	-50.6	247	13
2023-09-26T00:00	10789	251	-46.6	-50.5	247	13
2023-09-26T00:00	10810	250	-46.6	-50.5	247	13
2023-09-26T00:00	10830	250	-46.7	-50.6	246	13
2023-09-26T00:00	10850	249	-46.8	-50.7	246	13
2023-09-26T00:00	10872	248	-47.0	-51.0	246	13
2023-09-26T00:00	10891	247	-47.0	-51.1	245	13
2023-09-26T00:00	10911	247	-46.6	-50.8	245	13
2023-09-26T00:00	10931	246	-46.6	-50.9	244	13
2023-09-26T00:00	10951	245	-46.8	-51.1	244	13
2023-09-26T00:00	10971	244	-47.0	-51.3	243	13
2023-09-26T00:00	10991	244	-47.1	-51.3	242	13
2023-09-26T00:00	11008	243	-47.2	-51.3	241	13
2023-09-26T00:00	11029	242	-47.3	-51.5	240	14
2023-09-26T00:00	11048	242	-47.4	-51.7	239	14
2023-09-26T00:00	11069	241	-47.6	-52.0	238	14
2023-09-26T00:00	11090	240	-47.8	-52.2	237	14
2023-09-26T00:00	11109	239	-47.9	-52.3	236	14
2023-09-26T00:00	11129	239	-48.1	-52.4	235	14
2023-09-26T00:00	11147	238	-48.2	-52.6	234	14
2023-09-26T00:00	11167	237	-48.3	-52.7	233	14
2023-09-26T00:00	11184	237	-48.5	-52.9	231	14
2023-09-26T00:00	11206	236	-48.6	-53.0	230	14
2023-09-26T00:00	11227	235	-48.8	-53.2	229	14
2023-09-26T00:00	11243	235	-49.0	-53.6	227	14
2023-09-26T00:00	11264	234	-49.1	-53.9	226	14
2023-09-26T00:00	11284	233	-49.2	-54.5	225	14
2023-09-26T00:00	11302	232	-49.4	-55.3	225	14
2023-09-26T00:00	11321	232	-49.5	-55.8	225	14
2023-09-26T00:00	11338	231	-49.6	-56.0	225	14
2023-09-26T00:00	11356	230	-49.8	-56.2	225	14
2023-09-26T00:00	11377	230	-50.0	-56.3	224	14
2023-09-26T00:00	11397	229	-50.2	-56.4	224	14
2023-09-26T00:00	11416	228	-50.4		224	14
2023-09-26T00:00	11435	228	-50.5	-56.3	224	14
2023-09-26T00:00	11456	227	-50.7	-56.4	224	13
2023-09-26T00:00	11476	226	-50.9	-56.4	224	13
2023-09-26T00:00	11496	226	-51.1	-56.4	224	13
2023-09-26T00:00	11516	225	-51.2	-56.3	225	14
2023-09-26T00:00	11536	224	-51.4	-56.2	226	14
2023-09-26T00:00	11559	224	-51.6	-56.2	227	14
2023-09-26T00:00	11578	223	-51.7	-56.2	228	14
2023-09-26T00:00	11602	222	-51.9	-56.5	229	14
2023-09-26T00:00	11631	221	-52.1	-56.8	230	14
2023-09-26T00:00	11656	220	-52.3	-56.9	230	14
2023-09-26T00:00	11684	219	-52.6	-56.8	231	14
2023-09-26T00:00	11709	218	-52.9	-56.9	232	14
2023-09-26T00:00	11733	218	-53.1	-57.1	233	14
2023-09-26T00:00	11751	217	-53.2	-57.2	234	14
2023-09-26T00:00	11775	216	-53.4	-57.4	235	14
2023-09-26T00:00	11794	215	-53.6	-57.8	235	14
2023-09-26T00:00	11815	215	-53.8	-58.2	235	14
2023-09-26T00:00	11836	214	-54.0	-58.4	235	14
2023-09-26T00:00	11857	213	-54.2	-58.2	234	14
2023-09-26T00:00	11878	213	-54.4	-57.7	233	14
2023-09-26T00:00	11900	212	-54.5	-57.3	233	14
2023-09-26T00:00	11921	211	-54.7	-57.4	232	14
2023-09-26T00:00	11942	211	-54.9	-57.6	231	13
2023-09-26T00:00	11963	210	-55.0	-57.8	231	13
2023-09-26T00:00	11987	209	-55.1	-58.3	230	13
2023-09-26T00:00	12007	208	-55.3	-59.0	229	13
2023-09-26T00:00	12029	208	-55.5	-59.3	228	13
2023-09-26T00:00	12049	207	-55.7	-59.4	228	13
2023-09-26T00:00	12070	206	-55.8	-59.4	227	13
2023-09-26T00:00	12089	206	-55.9	-59.7	228	13
2023-09-26T00:00	12112	205	-56.0	-60.1	228	13
2023-09-26T00:00	12134	204	-56.2	-60.5	229	13
2023-09-26T00:00	12155	204	-56.3	-60.5	229	14
2023-09-26T00:00	12175	203	-56.5	-60.6	229	14
2023-09-26T00:00	12197	202	-56.7	-60.6	229	14
2023-09-26T00:00	12218	202	-56.9	-60.7	228	14
2023-09-26T00:00	12240	201	-57.1	-60.7	227	14
2023-09-26T00:00	12262	200	-57.3	-60.9	227	14
2023-09-26T00:00	12283	200	-57.5	-61.0	226	13
2023-09-26T00:00	12305	199	-57.7	-61.2	224	13
2023-09-26T00:00	12327	198	-57.8	-61.3	223	13
2023-09-26T00:00	12350	198	-58.0	-61.5	222	13
2023-09-26T00:00	12369	197	-58.0	-61.7	221	13
2023-09-26T00:00	12393	196	-58.1	-62.2	220	13
2023-09-26T00:00	12416	195	-58.2	-62.5	220	13
2023-09-26T00:00	12439	195	-58.3	-62.7	219	13
2023-09-26T00:00	12461	194	-58.5	-62.8	219	13
2023-09-26T00:00	12482	193	-58.7	-62.8	218	13
2023-09-26T00:00	12506	193	-58.9	-62.7	218	13
2023-09-26T00:00	12526	192	-59.1	-62.7	218	13
2023-09-26T00:00	12549	191	-59.3	-62.9	218	13
2023-09-26T00:00	12570	191	-59.5	-63.1	219	13
2023-09-26T00:00	12595	190	-59.7	-63.2	220	13
2023-09-26T00:00	12619	189	-59.9	-63.2	220	13
2023-09-26T00:00	12642	188	-60.1	-63.2	220	13
2023-09-26T00:00	12668	188	-60.4	-63.2	220	13
2023-09-26T00:00	12692	187	-60.6	-63.1	220	13
2023-09-26T00:00	12715	186	-60.8	-63.0	220	13
2023-09-26T00:00	12738	186	-60.9	-62.9	219	12
2023-09-26T00:00	12759	185	-61.1	-62.9	218	12
2023-09-26T00:00	12785	184	-61.4	-63.1	218	12
2023-09-26T00:00	12808	184	-61.5	-63.3	219	12
2023-09-26T00:00	12828	183	-61.5	-63.6	220	12
2023-09-26T00:00	12850	182	-61.4	-63.9	222	11
2023-09-26T00:00	12873	182	-61.4	-64.6	225	11
2023-09-26T00:00	12895	181	-61.5	-65.4	227	11
2023-09-26T00:00	12923	180	-61.6	-66.5	228	11
2023-09-26T00:00	12952	179	-61.7	-67.9	227	11
2023-09-26T00:00	12981	178	-61.8	-69.5	225	11
2023-09-26T00:00	13007	178	-61.5	-70.8	224	12
2023-09-26T00:00	13032	177	-61.0		223	12
2023-09-26T00:00	13056	176	-60.6	-72.5	224	13
2023-09-26T00:00	13084	176	-60.1	-73.3	225	13
2023-09-26T00:00	13112	175	-59.7	-74.3	226	14
2023-09-26T00:00	13138	174	-59.4	-75.5	227	14
2023-09-26T00:00	13162	173	-59.0	-76.4	228	14
2023-09-26T00:00	13184	173	-58.9	-77.2	229	14
2023-09-26T00:00	13203	172	-58.9	-77.3	230	14
2023-09-26T00:00	13223	172	-58.8	-76.9	232	14
2023-09-26T00:00	13243	171	-58.8	-76.7	234	14
2023-09-26T00:00	13261	171	-58.9	-76.7	236	14
2023-09-26T00:00	13279	170	-58.8	-76.5	238	14
2023-09-26T00:00	13299	170	-58.6	-76.3	240	14
2023-09-26T00:00	13317	169	-58.7	-76.4	242	14
2023-09-26T00:00	13336	169	-58.6	-76.5	243	14
2023-09-26T00:00	13357	168	-58.7	-76.7	245	15
2023-09-26T00:00	13378	168	-58.5	-76.4	248	15
2023-09-26T00:00	13397	167	-58.6	-76.3	249	15
2023-09-26T00:00	13417	166	-58.7	-76.2	251	15
2023-09-26T00:00	13435	166	-58.6	-76.1	252	16
2023-09-26T00:00	13454	165	-58.6	-76.1	253	16
2023-09-26T00:00	13473	165	-58.8	-76.2	253	16
2023-09-26T00:00	13493	164	-58.8	-76.2	253	16
2023-09-26T00:00	13509	164	-59.0	-76.6	253	16
2023-09-26T00:00	13529	164	-59.1	-76.9	253	16
2023-09-26T00:00	13549	163	-58.8	-76.9	254	16
2023-09-26T00:00	13568	162	-58.9	-77.3	255	16
2023-09-26T00:00	13588	162	-59.0	-77.5	257	16
2023-09-26T00:00	13609	161	-59.0	-77.5	258	16
2023-09-26T00:00	13627	161	-59.2	-77.6	259	17
2023-09-26T00:00	13646	161	-59.2	-77.7	260	17
2023-09-26T00:00	13664	160	-59.0	-77.7	261	17
2023-09-26T00:00	13683	160	-59.0	-77.9	262	17
2023-09-26T00:00	13702	159	-59.2	-78.2	262	17
2023-09-26T00:00	13722	159	-59.2	-78.2	263	16
2023-09-26T00:00	13739	158	-59.2	-78.2	263	16
2023-09-26T00:00	13758	158	-59.1	-78.2	264	16
2023-09-26T00:00	13777	157	-58.8	-78.1	265	15
2023-09-26T00:00	13796	157	-58.6	-78.1	265	15
2023-09-26T00:00	13816	156	-58.5	-78.2	265	15
2023-09-26T00:00	13836	156	-58.6	-78.2	266	14
2023-09-26T00:00	13857	155	-58.6	-78.2	266	14
2023-09-26T00:00	13877	155	-58.5	-78.2	266	14
2023-09-26T00:00	13898	154	-58.6	-78.3	266	14
2023-09-26T00:00	13917	154	-58.7	-78.3	265	14
2023-09-26T00:00	13940	153	-58.9	-78.5	264	14
2023-09-26T00:00	13963	153	-59.0	-78.6	263	13
2023-09-26T00:00	13983	152	-59.1	-78.6	261	13
2023-09-26T00:00	14003	152	-59.1	-78.6	259	13
2023-09-26T00:00	14026	151	-59.3	-78.8	256	13
2023-09-26T00:00	14050	150	-59.4	-79.0	254	12
2023-09-26T00:00	14074	150	-59.7	-79.3	252	12
2023-09-26T00:00	14103	149	-59.8	-79.3	250	12
2023-09-26T00:00	14133	148	-60.0	-79.5	249	12
2023-09-26T00:00	14160	148	-60.1	-79.7	248	12
2023-09-26T00:00	14185	147	-59.7	-79.6	246	12
2023-09-26T00:00	14213	147	-59.6	-79.8	244	12
2023-09-26T00:00	14236	146	-59.4	-79.8	241	13
2023-09-26T00:00	14262	145	-59.1	-79.7	239	13
2023-09-26T00:00	14288	145	-59.3	-80.0	237	13
2023-09-26T00:00	14311	144	-59.4	-80.1	235	13
2023-09-26T00:00	14339	144	-59.7	-80.2	234	13
2023-09-26T00:00	14367	143	-60.0	-80.3	233	14
2023-09-26T00:00	14390	143	-60.2	-80.4	232	14
2023-09-26T00:00	14411	142	-60.4	-80.4	232	14
2023-09-26T00:00	14433	142	-60.6	-80.3	232	14
2023-09-26T00:00	14451	141	-60.7	-80.3	232	14
2023-09-26T00:00	14472	141	-60.9	-80.2	232	14
2023-09-26T00:00	14493	140	-61.1	-80.3	232	14
2023-09-26T00:00	14514	140	-61.3	-80.3	233	14
2023-09-26T00:00	14537	139	-61.5	-80.2	233	14
2023-09-26T00:00	14559	139	-61.6	-80.0	234	15
2023-09-26T00:00	14578	138	-61.8	-79.9	234	15
2023-09-26T00:00	14597	138	-61.9	-79.7	234	15
2023-09-26T00:00	14621	137	-62.0	-79.6	233	15
2023-09-26T00:00	14641	137	-62.0	-79.6	232	15
2023-09-26T00:00	14662	136	-62.0	-79.6	230	15
2023-09-26T00:00	14684	136	-62.0	-79.8	229	15
2023-09-26T00:00	14704	135	-61.9	-79.8	229	15
2023-09-26T00:00	14725	135	-62.1	-80.0	229	15
2023-09-26T00:00	14743	135	-62.3	-80.1	229	15
2023-09-26T00:00	14761	134	-62.4	-80.2	229	15
2023-09-26T00:00	14781	134	-62.6	-80.3	229	15
2023-09-26T00:00	14799	133	-62.7	-80.4	229	15
2023-09-26T00:00	14820	133	-62.7	-80.4	229	15
2023-09-26T00:00	14839	133	-62.9	-80.5	230	15
2023-09-26T00:00	14860	132	-63.0	-80.6	231	15
2023-09-26T00:00	14880	132	-63.1	-80.8	233	15
2023-09-26T00:00	14902	131	-63.2	-81.0	235	15
2023-09-26T00:00	14924	131	-63.2	-81.2	237	15
2023-09-26T00:00	14943	130	-63.0	-81.1	239	15
2023-09-26T00:00	14966	130	-63.0	-81.3	240	16
2023-09-26T00:00	14987	129	-63.0	-81.4	242	16
2023-09-26T00:00	15010	129	-63.1	-81.5	243	17
2023-09-26T00:00	15030	128	-63.2	-81.6	244	17
2023-09-26T00:00	15052	128	-63.3	-81.6	246	17
2023-09-26T00:00	15075	128	-63.5	-81.8	247	18
2023-09-26T00:00	15094	127	-63.6	-81.8	249	18
2023-09-26T00:00	15116	127	-63.7	-81.9	251	18
2023-09-26T00:00	15134	126	-63.8	-81.9	252	18
2023-09-26T00:00	15155	126	-63.9	-82.0	254	18
2023-09-26T00:00	15175	125	-64.0	-82.1	256	18
2023-09-26T00:00	15195	125	-64.0	-82.1	258	18
2023-09-26T00:00	15218	125	-64.1	-82.3	260	18
2023-09-26T00:00	15239	124	-64.1	-82.3	261	18
2023-09-26T00:00	15259	124	-64.0	-82.2	263	17
2023-09-26T00:00	15281	123	-64.0	-82.3	265	17
2023-09-26T00:00	15304	123	-64.0	-82.3	267	16
2023-09-26T00:00	15325	122	-64.0	-82.4	269	16
2023-09-26T00:00	15347	122	-64.0	-82.4	271	15
2023-09-26T00:00	15368	122	-64.1	-82.6	274	15
2023-09-26T00:00	15390	121	-64.1	-82.7	276	14
2023-09-26T00:00	15413	121	-63.9	-82.7	277	14
2023-09-26T00:00	15439	120	-63.6	-82.8	277	13
2023-09-26T00:00	15459	120	-63.3	-82.9	276	12
2023-09-26T00:00	15485	119	-62.8	-82.9	274	12
2023-09-26T00:00	15506	119	-62.5	-82.9	272	12
2023-09-26T00:00	15528	118	-62.5	-83.0	270	12
2023-09-26T00:00	15550	118	-62.7	-83.3	268	12
2023-09-26T00:00	15570	118	-62.8	-83.4	267	12
2023-09-26T00:00	15595	117	-62.6	-83.4	267	12
2023-09-26T00:00	15615	117	-62.5	-83.3	268	11
2023-09-26T00:00	15638	116	-62.5	-83.5	269	11
2023-09-26T00:00	15660	116	-62.2	-83.4	269	10
2023-09-26T00:00	15686	115	-61.7	-83.1	268	10
2023-09-26T00:00	15706	115	-61.6	-83.2	267	10
2023-09-26T00:00	15728	115	-61.6	-83.2	264	9
2023-09-26T00:00	15748	114	-61.8	-83.4	261	9
2023-09-26T00:00	15773	114	-61.9	-83.4	259	9
2023-09-26T00:00	15795	113	-62.1	-83.4	256	9
2023-09-26T00:00	15816	113	-62.1	-83.4	255	9
2023-09-26T00:00	15838	113	-62.2	-83.4	255	9
2023-09-26T00:00	15860	112	-62.2	-83.4	256	10
2023-09-26T00:00	15879	112	-62.2	-83.4	257	10
2023-09-26T00:00	15902	112	-62.3	-83.4	258	10
2023-09-26T00:00	15924	111	-62.4	-83.5	259	10
2023-09-26T00:00	15946	111	-62.3	-83.4	259	10
2023-09-26T00:00	15968	110	-62.4	-83.5	259	9
2023-09-26T00:00	15991	110	-62.5	-83.6	260	9
2023-09-26T00:00	16011	110	-62.6	-83.5	260	9
2023-09-26T00:00	16032	109	-62.7	-83.6	260	9
2023-09-26T00:00	16054	109	-62.8	-83.7	261	8
2023-09-26T00:00	16074	108	-62.8	-83.9	262	8
2023-09-26T00:00	16097	108	-62.8	-83.9	262	8
2023-09-26T00:00	16120	108	-62.5	-83.8	263	7
2023-09-26T00:00	16141	107	-62.3	-83.8	262	6
2023-09-26T00:00	16165	107	-62.2	-83.8	260	6
2023-09-26T00:00	16186	106	-62.2	-84.0	256	6
2023-09-26T00:00	16209	106	-62.1	-84.1	251	5
2023-09-26T00:00	16231	106	-61.8	-84.0	246	6
2023-09-26T00:00	16255	105	-61.7	-83.9	242	6
2023-09-26T00:00	16278	105	-61.7	-83.9	239	6
2023-09-26T00:00	16303	104	-61.8	-84.0	236	6
2023-09-26T00:00	16331	104	-62.0	-84.0	233	6
2023-09-26T00:00	16355	104	-62.3	-84.1	228	6
2023-09-26T00:00	16380	103	-62.5	-84.2	223	6
2023-09-26T00:00	16408	103	-62.7	-84.2	219	6
2023-09-26T00:00	16432	102	-63.0	-84.3	215	7
2023-09-26T00:00	16459	102	-63.1	-84.4	215	7
2023-09-26T00:00	16481	102	-63.1	-84.4	217	8
2023-09-26T00:00	16504	101	-62.9	-84.2	221	8
2023-09-26T00:00	16527	101	-63.0	-84.3	226	8
2023-09-26T00:00	16550	100	-63.0	-84.5	231	8
2023-09-26T00:00	16572	100	-63.0	-84.5	236	8
2023-09-26T00:00	16597	100	-63.1	-84.6	240	8
2023-09-26T00:00	16621	99	-63.1	-84.6	244	9
2023-09-26T00:00	16646	99	-63.0	-84.6	248	9
2023-09-26T00:00	16668	98	-63.0	-84.6	252	9
2023-09-26T00:00	16694	98	-63.1	-84.7	255	9
2023-09-26T00:00	16715	98	-63.1	-84.7	258	9
2023-09-26T00:00	16744	97	-63.0	-84.8	261	9
2023-09-26T00:00	16769	97	-62.7	-84.7	262	9
2023-09-26T00:00	16790	97	-62.5	-84.8	262	9
2023-09-26T00:00	16814	96	-62.3	-84.6	261	8
2023-09-26T00:00	16840	96	-62.2	-84.7	260	8
2023-09-26T00:00	16864	95	-62.3	-84.8	258	8
2023-09-26T00:00	16888	95	-62.5	-84.8	256	8
2023-09-26T00:00	16913	95	-62.6	-84.8	254	8
2023-09-26T00:00	16939	94	-62.9	-84.9	253	8
2023-09-26T00:00	16963	94	-63.0	-85.0	253	8
2023-09-26T00:00	16987	94	-63.2	-85.1	254	9
2023-09-26T00:00	17011	93	-63.1	-85.1	255	9
2023-09-26T00:00	17031	93	-63.1	-85.1	257	9
2023-09-26T00:00	17056	92	-63.1	-85.1	258	8
2023-09-26T00:00	17079	92	-63.2	-85.1	259	8
2023-09-26T00:00	17102	92	-63.3	-85.2	259	8
2023-09-26T00:00	17123	91	-63.3	-85.2	260	8
2023-09-26T00:00	17145	91	-63.3	-85.2	260	8
2023-09-26T00:00	17169	91	-63.3	-85.4	259	8
2023-09-26T00:00	17190	90	-63.2	-85.3	258	8
2023-09-26T00:00	17211	90	-63.2	-85.5	257	8
2023-09-26T00:00	17232	90	-62.9	-85.5	256	9
2023-09-26T00:00	17254	90	-62.6	-85.4	255	9
2023-09-26T00:00	17278	89	-62.3	-85.4	255	9
2023-09-26T00:00	17300	89	-62.4	-85.5	254	9
2023-09-26T00:00	17324	89	-62.5	-85.7	253	9
2023-09-26T00:00	17344	88	-62.6	-85.8	251	8
2023-09-26T00:00	17364	88	-61.8	-85.4	249	8
2023-09-26T00:00	17385	88	-61.9	-85.7	247	8
2023-09-26T00:00	17409	87	-61.8	-85.6	246	8
2023-09-26T00:00	17427	87	-61.7	-85.8	246	7
2023-09-26T00:00	17451	87	-61.8	-85.9	245	7
2023-09-26T00:00	17471	86	-61.8	-85.9	243	7
2023-09-26T00:00	17489	86	-62.0	-86.0	238	6
2023-09-26T00:00	17512	86	-62.0	-86.0	232	6
2023-09-26T00:00	17535	86	-62.1	-86.1	224	6
2023-09-26T00:00	17558	85	-62.1	-86.3	216	6
2023-09-26T00:00	17582	85	-61.9	-86.2	210	7
2023-09-26T00:00	17605	85	-61.8	-86.1	206	7
2023-09-26T00:00	17628	84	-61.5	-86.1	204	8
2023-09-26T00:00	17648	84	-61.4	-86.0	204	8
2023-09-26T00:00	17670	84	-61.5	-86.1	204	9
2023-09-26T00:00	17693	83	-61.7	-86.3	205	9
2023-09-26T00:00	17711	83	-61.7	-86.3	206	10
2023-09-26T00:00	17733	83	-61.8	-86.4	208	10
2023-09-26T00:00	17757	83	-62.0	-86.5	210	10
2023-09-26T00:00	17779	82	-62.1	-86.6	213	10
2023-09-26T00:00	17801	82	-62.1	-86.6	215	11
2023-09-26T00:00	17823	82	-62.0	-86.8	218	11
2023-09-26T00:00	17845	81	-61.6	-86.7	220	11
2023-09-26T00:00	17868	81	-61.3	-86.5	223	11
2023-09-26T00:00	17890	81	-61.3	-86.8	226	11
2023-09-26T00:00	17913	80	-61.1	-86.6	228	11
2023-09-26T00:00	17935	80	-61.1	-86.6	231	11
2023-09-26T00:00	17963	80	-61.1	-86.6	232	11
2023-09-26T00:00	17982	80	-61.1	-86.6	234	11
2023-09-26T00:00	18007	79	-61.2	-86.7	235	10
2023-09-26T00:00	18027	79	-61.2	-86.7	236	10
2023-09-26T00:00	18049	79	-61.3	-86.8	237	9
2023-09-26T00:00	18073	78	-61.3	-86.8	238	9
2023-09-26T00:00	18096	78	-61.3	-86.8	240	8
2023-09-26T00:00	18119	78	-61.3	-86.8	241	8
2023-09-26T00:00	18144	78	-61.5	-86.7	244	8
2023-09-26T00:00	18166	77	-61.5	-86.7	247	7
2023-09-26T00:00	18191	77	-61.7	-86.8	251	7
2023-09-26T00:00	18214	77	-61.9	-86.7	255	7
2023-09-26T00:00	18236	76	-62.1	-86.9	259	7
2023-09-26T00:00	18259	76	-62.2	-86.9	262	6
2023-09-26T00:00	18283	76	-62.2	-86.9	265	6
2023-09-26T00:00	18305	76	-62.2	-86.9	268	5
2023-09-26T00:00	18330	75	-62.2	-87.2	269	4
2023-09-26T00:00	18354	75	-62.2	-87.2	267	4
2023-09-26T00:00	18379	75	-62.1	-87.4	262	3
2023-09-26T00:00	18398	74	-61.9	-87.3	255	3
2023-09-26T00:00	18422	74	-61.6	-87.3	249	3
2023-09-26T00:00	18446	74	-61.4	-87.2	244	3
2023-09-26T00:00	18467	74	-61.2	-87.0	241	3
2023-09-26T00:00	18491	73	-61.3	-87.1	238	3
2023-09-26T00:00	18518	73	-61.4	-87.2	235	3
2023-09-26T00:00	18543	73	-61.1	-87.0	230	4
2023-09-26T00:00	18565	72	-61.2	-87.0	225	4
2023-09-26T00:00	18588	72	-61.4	-87.2	220	4
2023-09-26T00:00	18614	72	-61.6	-87.0	215	4
2023-09-26T00:00	18636	72	-61.7	-87.1	213	5
2023-09-26T00:00	18659	71	-61.7	-87.1	212	5
2023-09-26T00:00	18679	71	-61.7	-87.1	214	6
2023-09-26T00:00	18705	71	-61.8	-87.2	217	6
2023-09-26T00:00	18728	71	-61.9	-87.3	221	6
2023-09-26T00:00	18753	70	-62.0	-87.3	224	6
2023-09-26T00:00	18777	70	-62.0	-87.3	227	6
2023-09-26T00:00	18797	70	-62.0	-87.6	229	7
2023-09-26T00:00	18817	70	-61.8	-87.5	231	7
2023-09-26T00:00	18843	69	-61.7	-87.4	234	7
2023-09-26T00:00	18863	69	-61.8	-87.8	239	7
2023-09-26T00:00	18887	69	-61.4	-87.5	244	7
2023-09-26T00:00	18913	69	-61.2	-87.7	249	8
2023-09-26T00:00	18934	68	-60.8	-87.4	253	8
2023-09-26T00:00	18958	68	-60.8	-87.4	257	8
2023-09-26T00:00	18983	68	-60.7	-87.3	261	7
2023-09-26T00:00	19007	67	-60.8	-87.4	264	7
2023-09-26T00:00	19032	67	-60.9	-87.5	267	7
2023-09-26T00:00	19056	67	-61.1	-87.3	270	7
2023-09-26T00:00	19081	67	-61.2	-87.3	271	6
2023-09-26T00:00	19104	66	-61.3	-87.4	271	6
2023-09-26T00:00	19128	66	-61.4	-87.5	267	5
2023-09-26T00:00	19154	66	-61.2	-87.3	261	5
2023-09-26T00:00	19182	66	-61.1	-87.3	253	4
2023-09-26T00:00	19203	65	-61.0	-87.2	246	4
2023-09-26T00:00	19232	65	-61.1	-87.3	243	4
2023-09-26T00:00	19253	65	-61.3	-87.4	245	4
2023-09-26T00:00	19281	65	-61.5	-87.6	250	4
2023-09-26T00:00	19303	64	-61.4	-87.5	259	4
2023-09-26T00:00	19329	64	-61.3	-87.8	268	5
2023-09-26T00:00	19353	64	-61.3	-87.8	275	5
2023-09-26T00:00	19377	64	-61.2	-87.7	281	5
2023-09-26T00:00	19401	63	-61.2	-87.7	286	5
2023-09-26T00:00	19426	63	-61.1	-87.6	289	4
2023-09-26T00:00	19448	63	-60.9	-87.8	291	4
2023-09-26T00:00	19474	63	-61.0	-87.9	290	3
2023-09-26T00:00	19495	62	-61.0	-87.9	286	3
2023-09-26T00:00	19518	62	-60.7	-87.7	278	3
2023-09-26T00:00	19541	62	-60.6	-87.6	267	2
2023-09-26T00:00	19566	62	-60.5	-87.5	253	2
2023-09-26T00:00	19587	61	-60.4	-87.4	240	2
2023-09-26T00:00	19609	61	-60.4	-87.4	232	2
2023-09-26T00:00	19635	61	-60.4	-87.4	227	2
2023-09-26T00:00	19653	61	-60.4	-87.4	228	1
2023-09-26T00:00	19676	61	-60.3	-87.4	233	1
2023-09-26T00:00	19698	60	-60.4	-87.4	244	1
2023-09-26T00:00	19721	60	-60.4	-87.4	261	1
2023-09-26T00:00	19742	60	-60.4	-87.1	291	1
2023-09-26T00:00	19764	60	-60.4	-87.1	330	1
2023-09-26T00:00	19785	60	-60.4	-87.4	9	1
2023-09-26T00:00	19808	59	-60.5	-87.5	42	1
2023-09-26T00:00	19831	59	-60.5	-87.5	70	1
2023-09-26T00:00	19853	59	-60.4	-87.4	93	1
2023-09-26T00:00	19874	59	-60.3	-87.4	108	1
2023-09-26T00:00	19897	58	-60.3	-87.4	119	1
2023-09-26T00:00	19921	58	-59.7	-87.3	129	2
2023-09-26T00:00	19944	58	-59.6	-87.2	139	2
2023-09-26T00:00	19965	58	-59.5	-87.1	151	2
2023-09-26T00:00	19990	58	-59.5	-87.1	162	3
2023-09-26T00:00	20014	57	-59.3	-87.0	171	3
2023-09-26T00:00	20039	57	-59.2	-87.3	177	4
2023-09-26T00:00	20064	57	-59.0	-87.2	181	5
2023-09-26T00:00	20084	57	-58.7	-87.0	185	6
2023-09-26T00:00	20109	57	-58.5	-86.8	188	6
2023-09-26T00:00	20136	56	-58.4	-86.7	191	6
2023-09-26T00:00	20157	56	-58.5	-86.4	194	6
2023-09-26T00:00	20184	56	-58.6	-86.5	198	7
2023-09-26T00:00	20207	56	-58.8	-86.6	202	7
2023-09-26T00:00	20233	55	-59.0	-86.8	206	7
2023-09-26T00:00	20257	55	-59.1	-86.5	211	7
2023-09-26T00:00	20283	55	-59.3	-86.6	216	7
2023-09-26T00:00	20307	55	-59.4	-86.7	222	7
2023-09-26T00:00	20329	55	-59.6	-86.8	227	7
2023-09-26T00:00	20355	54	-59.7	-86.9	232	7
2023-09-26T00:00	20384	54	-59.8	-87.0	236	7
2023-09-26T00:00	20409	54	-59.8	-87.0	240	7
2023-09-26T00:00	20436	54	-59.9	-87.1	244	6
2023-09-26T00:00	20459	53	-59.9	-87.1	248	6
2023-09-26T00:00	20488	53	-60.0	-87.1	253	5
2023-09-26T00:00	20514	53	-59.9	-87.1	258	5
2023-09-26T00:00	20537	53	-59.9	-87.1	263	4
2023-09-26T00:00	20566	53	-60.0	-87.1	268	4
2023-09-26T00:00	20595	52	-60.0	-87.1	273	4
2023-09-26T00:00	20616	52	-60.0	-87.1	275	4
2023-09-26T00:00	20645	52	-59.9	-87.1	276	3
2023-09-26T00:00	20670	52	-59.9	-87.1	274	3
2023-09-26T00:00	20698	51	-59.8	-87.0	268	2
2023-09-26T00:00	20720	51	-59.8	-87.0	256	2
2023-09-26T00:00	20746	51	-59.8	-87.0	239	2
2023-09-26T00:00	20771	51	-59.9	-87.1	226	2
2023-09-26T00:00	20796	51	-60.0	-87.1	219	2
2023-09-26T00:00	20818	50	-60.1	-87.2	216	3
2023-09-26T00:00	20845	50	-60.0	-87.1	215	3
2023-09-26T00:00	20867	50	-60.0	-87.1	216	4
2023-09-26T00:00	20891	50	-60.1	-87.2	218	5
2023-09-26T00:00	20911	50	-60.2	-87.3	220	5
2023-09-26T00:00	20938	50	-60.2	-87.3	222	6
2023-09-26T00:00	20960	49	-60.2	-87.3	224	6
2023-09-26T00:00	20981	49	-60.2	-87.3	226	6
2023-09-26T00:00	21008	49	-60.0	-87.1	228	6
2023-09-26T00:00	21032	49	-59.9	-87.1	229	6
2023-09-26T00:00	21055	49	-60.1	-87.2	229	5
2023-09-26T00:00	21079	48	-60.2	-87.3	228	5
2023-09-26T00:00	21100	48	-60.2	-87.3	226	5
2023-09-26T00:00	21127	48	-60.3	-87.4	225	6
2023-09-26T00:00	21148	48	-60.5	-87.5	224	6
2023-09-26T00:00	21174	48	-60.5	-87.5	224	6
2023-09-26T00:00	21198	48	-60.2	-87.3	226	7
2023-09-26T00:00	21218	47	-60.0	-87.5	228	7
2023-09-26T00:00	21243	47	-59.9	-87.4	231	7
2023-09-26T00:00	21267	47	-59.8	-87.4	233	8
2023-09-26T00:00	21289	47	-59.8	-87.4	235	8
2023-09-26T00:00	21317	47	-59.6	-87.2	236	8
2023-09-26T00:00	21341	46	-59.5	-87.1	236	8
2023-09-26T00:00	21364	46	-59.5	-87.1	235	8
2023-09-26T00:00	21388	46	-59.4	-87.1	234	8
2023-09-26T00:00	21416	46	-59.4	-87.1	233	8
2023-09-26T00:00	21439	46	-59.5	-87.1	233	8
2023-09-26T00:00	21464	46	-59.5	-87.1	234	8
2023-09-26T00:00	21490	45	-59.5	-87.1	235	7
2023-09-26T00:00	21516	45	-59.5	-87.1	237	7
2023-09-26T00:00	21540	45	-59.5	-87.1	240	7
2023-09-26T00:00	21566	45	-59.6	-87.2	242	7
2023-09-26T00:00	21593	45	-59.7	-87.3	241	7
2023-09-26T00:00	21619	44	-59.8	-87.4	239	7
2023-09-26T00:00	21645	44	-59.9	-87.4	235	8
2023-09-26T00:00	21673	44	-59.9	-87.4	231	8
2023-09-26T00:00	21700	44	-59.8	-87.4	228	8
2023-09-26T00:00	21725	44	-60.0	-87.1	226	9
2023-09-26T00:00	21749	43	-60.0	-87.1	226	9
2023-09-26T00:00	21774	43	-60.2	-87.3	227	9
2023-09-26T00:00	21802	43	-60.1	-87.2	230	8
2023-09-26T00:00	21830	43	-60.3	-87.4	233	8
2023-09-26T00:00	21854	43	-60.3	-87.4	236	8
2023-09-26T00:00	21885	43	-60.3	-87.4	239	8
2023-09-26T00:00	21909	42	-60.2	-87.3	240	7
2023-09-26T00:00	21936	42	-60.3	-87.4	241	7
2023-09-26T00:00	21965	42	-60.4	-87.4	241	6
2023-09-26T00:00	21985	42	-60.6	-87.2	242	6
2023-09-26T00:00	22015	42	-60.8	-87.4	244	6
2023-09-26T00:00	22041	41	-61.1	-87.6	245	6
2023-09-26T00:00	22069	41	-61.2	-87.7	245	6
2023-09-26T00:00	22097	41	-60.9	-87.5	243	6
2023-09-26T00:00	22124	41	-60.9	-87.8	241	7
2023-09-26T00:00	22150	41	-60.9	-87.8	239	7
2023-09-26T00:00	22174	41	-60.8	-87.7	238	7
2023-09-26T00:00	22201	40	-60.8	-87.7	239	7
2023-09-26T00:00	22228	40	-60.6	-88.0	242	7
2023-09-26T00:00	22258	40	-60.2	-87.7	246	7
2023-09-26T00:00	22285	40	-60.2	-87.7	251	7
2023-09-26T00:00	22308	40	-60.3	-87.8	256	7
2023-09-26T00:00	22336	40	-60.3	-87.8	262	8
2023-09-26T00:00	22363	39	-60.3	-87.8	268	8
2023-09-26T00:00	22387	39	-60.2	-87.7	273	8
2023-09-26T00:00	22415	39	-60.1	-87.6	277	8
2023-09-26T00:00	22443	39	-60.1	-88.0	281	8
2023-09-26T00:00	22468	39	-60.1	-88.0	285	8
2023-09-26T00:00	22502	39	-59.6	-87.6	289	8
2023-09-26T00:00	22519	38	-59.1	-87.7	293	8
2023-09-26T00:00	22545	38	-58.8	-87.5	298	8
2023-09-26T00:00	22574	38	-58.7	-87.4	303	8
2023-09-26T00:00	22600	38	-58.6	-87.3	308	8
2023-09-26T00:00	22625	38	-58.3	-87.1	312	8
2023-09-26T00:00	22647	38	-58.3	-87.1	317	8
2023-09-26T00:00	22672	38	-58.2	-87.0	321	7
2023-09-26T00:00	22694	37	-57.8	-86.7	325	7
2023-09-26T00:00	22720	37	-57.7	-86.7	328	6
2023-09-26T00:00	22743	37	-57.6	-86.6	330	6
2023-09-26T00:00	22760	37	-57.6	-86.6	331	6
2023-09-26T00:00	22785	37	-57.6	-86.6	331	5
2023-09-26T00:00	22806	37	-57.4	-86.4	330	4
2023-09-26T00:00	22834	37	-57.4	-86.4	327	4
2023-09-26T00:00	22853	36	-57.3	-86.4	322	3
2023-09-26T00:00	22875	36	-57.3	-86.4	308	2
2023-09-26T00:00	22897	36	-57.4	-86.4	279	1
2023-09-26T00:00	22925	36	-57.1	-86.2	243	2
2023-09-26T00:00	22947	36	-57.1	-86.2	223	2
2023-09-26T00:00	22971	36	-57.1	-86.2	215	3
2023-09-26T00:00	22997	36	-57.3	-86.4	211	4
2023-09-26T00:00	23019	36	-57.3	-86.4	209	4
2023-09-26T00:00	23042	35	-57.3	-86.4	208	5
2023-09-26T00:00	23074	35	-57.3	-86.4	209	5
2023-09-26T00:00	23095	35	-57.5	-86.5	211	5
2023-09-26T00:00	23118	35	-57.7	-86.7	215	6
2023-09-26T00:00	23145	35	-57.8	-86.7	219	6
2023-09-26T00:00	23169	35	-57.8	-86.7	222	6
2023-09-26T00:00	23190	35	-57.7	-86.7	226	6
2023-09-26T00:00	23218	34	-57.7	-86.7	229	6
2023-09-26T00:00	23246	34	-57.9	-86.4	233	5
2023-09-26T00:00	23270	34	-58.1	-86.5	236	6
2023-09-26T00:00	23292	34	-58.3	-86.7	239	6
2023-09-26T00:00	23319	34	-58.5	-86.8	241	6
2023-09-26T00:00	23343	34	-58.7	-87.0	244	6
2023-09-26T00:00	23369	34	-58.8	-87.0	248	7
2023-09-26T00:00	23396	33	-58.9	-87.1	251	7
2023-09-26T00:00	23422	33	-59.0	-86.8	256	7
2023-09-26T00:00	23449	33	-59.1	-87.3	261	7
2023-09-26T00:00	23474	33	-59.2	-87.3	266	8
2023-09-26T00:00	23500	33	-59.0	-87.2	270	8
2023-09-26T00:00	23527	33	-58.9	-87.6	274	9
2023-09-26T00:00	23554	33	-58.7	-87.4	276	9
2023-09-26T00:00	23579	33	-58.3	-87.1	279	9
2023-09-26T00:00	23600	32	-57.7	-87.2	281	9
2023-09-26T00:00	23625	32	-57.7	-87.2	283	8
2023-09-26T00:00	23654	32	-57.9	-87.3	286	8
2023-09-26T00:00	23677	32	-57.9	-86.8	289	7
2023-09-26T00:00	23702	32	-57.8	-86.7	293	7
2023-09-26T00:00	23723	32	-57.7	-86.7	296	7
2023-09-26T00:00	23750	32	-57.9	-86.8	299	7
2023-09-26T00:00	23780	31	-57.9	-86.8	301	7
2023-09-26T00:00	23802	31	-57.9	-86.8	301	7
2023-09-26T00:00	23830	31	-58.0	-86.9	300	7
2023-09-26T00:00	23854	31	-58.1	-86.5	299	7
2023-09-26T00:00	23884	31	-58.2	-86.6	298	7
2023-09-26T00:00	23907	31	-58.5	-86.8	298	8
2023-09-26T00:00	23929	31	-58.7	-87.0	299	8
2023-09-26T00:00	23957	31	-58.8	-87.0	301	8
2023-09-26T00:00	23986	30	-58.7	-87.4	302	8
2023-09-26T00:00	24007	30	-58.2	-87.0	304	8
2023-09-26T00:00	24029	30	-58.0	-86.9	307	7
2023-09-26T00:00	24055	30	-57.7	-87.2	309	7
2023-09-26T00:00	24076	30	-57.4	-86.9	312	6
2023-09-26T00:00	24102	30	-57.5	-87.0	313	6
2023-09-26T00:00	24127	30	-57.7	-87.2	311	6
2023-09-26T00:00	24153	30	-57.8	-87.2	308	6
2023-09-26T00:00	24174	30	-57.7	-87.2	304	7
2023-09-26T00:00	24207	29	-57.6	-87.1	300	7
2023-09-26T00:00	24225	29	-57.5	-87.0	296	8
2023-09-26T00:00	24246	29	-57.5	-87.0	294	9
2023-09-26T00:00	24276	29	-57.5	-87.0	292	9
2023-09-26T00:00	24296	29	-57.3	-86.9	292	9
2023-09-26T00:00	24318	29	-57.3	-86.9	292	10
2023-09-26T00:00	24349	29	-57.0	-86.6	294	10
2023-09-26T00:00	24367	29	-56.9	-87.1	298	10
2023-09-26T00:00	24395	29	-56.7	-86.9	302	10
2023-09-26T00:00	24418	28	-56.7	-86.9	306	10
2023-09-26T00:00	24443	28	-56.3	-86.6	311	10
2023-09-26T00:00	24468	28	-56.3	-86.1	314	10
2023-09-26T00:00	24490	28	-56.4	-86.2	317	9
2023-09-26T00:00	24521	28	-56.5	-86.3	319	9
2023-09-26T00:00	24539	28	-56.4	-86.2	320	9
2023-09-26T00:00	24571	28	-56.2	-86.0	320	8
2023-09-26T00:00	24597	28	-56.3	-86.1	320	8
2023-09-26T00:00	24621	28	-56.4	-86.2	319	7
2023-09-26T00:00	24651	27	-56.5	-86.3	319	7
2023-09-26T00:00	24678	27	-56.7	-86.4	318	6
2023-09-26T00:00	24702	27	-56.8	-86.5	315	6
2023-09-26T00:00	24733	27	-56.7	-86.4	311	6
2023-09-26T00:00	24752	27	-56.6	-86.3	305	5
2023-09-26T00:00	24779	27	-56.3	-86.1	297	5
2023-09-26T00:00	24812	27	-56.2	-86.6	290	5
2023-09-26T00:00	24840	27	-56.3	-86.6	285	4
2023-09-26T00:00	24865	27	-56.1	-86.5	283	4
2023-09-26T00:00	24891	26	-56.3	-86.6	284	5
2023-09-26T00:00	24921	26	-56.4		285	5
2023-09-26T00:00	24955	26	-56.2	-86.6	285	5
2023-09-26T00:00	24977	26	-56.1	-86.5	284	6
2023-09-26T00:00	25012	26	-56.2	-86.6	281	6
2023-09-26T00:00	25035	26	-55.7	-86.2	278	6
2023-09-26T00:00	25064	26	-55.5	-86.1	277	6
2023-09-26T00:00	25091	26	-55.0	-85.7	277	6
2023-09-26T00:00	25118	25	-55.1	-85.8	279	6
2023-09-26T00:00	25147	25	-55.0	-85.7	282	6
2023-09-26T00:00	25171	25	-55.2	-85.8	287	6
2023-09-26T00:00	25200	25	-55.1	-85.8	292	6
2023-09-26T00:00	25233	25	-55.1	-85.8	297	6
2023-09-26T00:00	25261	25	-55.2	-85.8	301	6
2023-09-26T00:00	25282	25	-55.4	-85.4	304	6
2023-09-26T00:00	25310	25	-55.6	-85.6	304	6
2023-09-26T00:00	25335	25	-55.7	-85.7	302	6
2023-09-26T00:00	25358	25	-55.6	-86.1	298	6
2023-09-26T00:00	25382	24	-55.1	-85.8	290	5
2023-09-26T00:00	25417	24	-55.3	-85.9	281	5
2023-09-26T00:00	25439	24	-55.5	-86.1	272	5
2023-09-26T00:00	25465	24	-55.7	-86.2	267	5
2023-09-26T00:00	25491	24	-55.8	-85.7	264	5
2023-09-26T00:00	25511	24	-55.9	-85.8	264	5
2023-09-26T00:00	25549	24	-55.8	-85.7	267	4
2023-09-26T00:00	25570	24	-55.6	-85.6	273	4
2023-09-26T00:00	25594	24	-55.7	-86.2	280	3
2023-09-26T00:00	25617	24	-55.8	-86.3	288	3
2023-09-26T00:00	25638	23	-55.7	-86.2	293	3
2023-09-26T00:00	25670	23	-55.4	-86.0	295	2
2023-09-26T00:00	25692	23	-55.4	-86.0	291	2
2023-09-26T00:00	25725	23	-55.4	-86.0	284	2
2023-09-26T00:00	25740	23	-55.2	-85.8	274	2
2023-09-26T00:00	25771	23	-55.1	-86.4	266	2
2023-09-26T00:00	25791	23	-55.0	-85.7	261	2
2023-09-26T00:00	25821	23	-54.9	-85.6	261	2
2023-09-26T00:00	25849	23	-54.9	-85.6	264	2
2023-09-26T00:00	25864	23	-54.9	-86.2	271	2
2023-09-26T00:00	25892	23	-54.9	-86.2	281	3
2023-09-26T00:00	25917	22	-55.0	-86.3	290	3
2023-09-26T00:00	25946	22	-55.0	-86.3	297	3
2023-09-26T00:00	25966	22	-54.9	-85.6	301	4
2023-09-26T00:00	25997	22	-54.6	-86.0	301	4
2023-09-26T00:00	26028	22	-54.7	-86.1	298	4
2023-09-26T00:00	26048	22	-54.8	-86.1	294	5
2023-09-26T00:00	26069	22	-54.5	-85.9	290	5
2023-09-26T00:00	26100	22	-54.6	-86.0	288	6
2023-09-26T00:00	26124	22	-54.5	-85.9	286	7
2023-09-26T00:00	26163	22	-54.5	-85.9	286	7
2023-09-26T00:00	26182	22	-54.4	-85.8	284	8
2023-09-26T00:00	26214	21	-54.5	-85.9	283	8
2023-09-26T00:00	26224	21	-54.3	-85.8	282	8
2023-09-26T00:00	26264	21	-53.9	-85.5	281	8
2023-09-26T00:00	26287	21	-54.1	-85.6	280	7
2023-09-26T00:00	26318	21	-54.3	-85.8	279	7
2023-09-26T00:00	26340	21	-54.5	-85.3	277	7
2023-09-26T00:00	26369	21	-54.7	-85.5	273	7
2023-09-26T00:00	26396	21	-54.8	-86.1	269	7
2023-09-26T00:00	26431	21	-54.4	-85.8	266	7
2023-09-26T00:00	26456	21	-54.2	-85.7	264	8
2023-09-26T00:00	26481	21	-54.1	-85.6	263	8
2023-09-26T00:00	26509	21	-54.3	-85.8	263	7
2023-09-26T00:00	26540	20	-54.2	-85.7	262	7
2023-09-26T00:00	26562	20	-53.4	-85.1	260	6
2023-09-26T00:00	26588	20	-53.5	-85.2	254	5
2023-09-26T00:00	26622	20	-53.6	-85.3	246	5
2023-09-26T00:00	26652	20	-53.7	-85.3	238	4
2023-09-26T00:00	26674	20	-53.6		234	4
2023-09-26T00:00	26707	20	-53.5	-85.9	234	4
2023-09-26T00:00	26728	20	-53.5	-85.9	236	3
2023-09-26T00:00	26763	20	-53.7	-86.0	239	3
2023-09-26T00:00	26784	20	-53.8	-86.1	239	3
2023-09-26T00:00	26815	20	-53.7	-85.3	235	3
2023-09-26T00:00	26851	19	-53.5	-85.2	230	4
2023-09-26T00:00	26875	19	-53.4	-85.1	226	4
2023-09-26T00:00	26907	19	-53.4	-85.1	224	5
2023-09-26T00:00	26930	19	-53.6	-85.3	223	5
2023-09-26T00:00	26958	19	-53.8	-85.4	224	6
2023-09-26T00:00	26977	19	-54.1	-85.0	224	6
2023-09-26T00:00	27009	19	-54.3	-85.2	224	6
2023-09-26T00:00	27049	19	-54.6	-85.4	224	7
2023-09-26T00:00	27067	19	-54.8	-85.5	223	7
2023-09-26T00:00	27096	19	-55.0	-85.7	222	8
2023-09-26T00:00	27120	19	-55.1	-85.8	221	9
2023-09-26T00:00	27149	19	-55.4	-86.0	220	9
2023-09-26T00:00	27188	18	-55.6	-86.1	220	10
2023-09-26T00:00	27206	18	-55.7	-86.2	220	10
2023-09-26T00:00	27239	18	-55.5	-86.1	220	10
2023-09-26T00:00	27263	18	-55.6	-86.1	222	9
2023-09-26T00:00	27301	18	-55.7	-86.2	224	9
2023-09-26T00:00	27321	18	-55.9	-85.8	228	9
2023-09-26T00:00	27346	18	-56.1	-86.0	234	9
2023-09-26T00:00	27378	18	-56.4	-86.2	241	9
2023-09-26T00:00	27405	18	-56.6	-86.9	248	9
2023-09-26T00:00	27425	18	-56.4		255	9
2023-09-26T00:00	27460	18	-56.3	-86.6	262	9
2023-09-26T00:00	27483	18	-55.7	-86.8	268	9
2023-09-26T00:00	27516	18	-55.8	-86.9	274	9
2023-09-26T00:00	27553	17	-55.8	-86.9	279	9
2023-09-26T00:00	27582	17	-55.5	-86.7	284	9
2023-09-26T00:00	27603	17	-55.5	-86.7	287	8
2023-09-26T00:00	27626	17	-55.4	-86.6	289	8
2023-09-26T00:00	27646	17	-55.4	-86.6	289	8
2023-09-26T00:00	27683	17	-55.2	-86.4	290	9
2023-09-26T00:00	27715	17	-55.0	-86.3	292	9
2023-09-26T00:00	27742	17	-54.9	-86.2	295	9
2023-09-26T00:00	27764	17	-54.9	-86.2	298	9
2023-09-26T00:00	27794	17	-55.0	-86.3	301	9
2023-09-26T00:00	27817	17	-54.7	-86.1	304	9
2023-09-26T00:00	27846	17	-54.4	-85.8	306	9
2023-09-26T00:00	27872	17	-54.4	-85.8	307	9
2023-09-26T00:00	27901	17	-54.5	-85.9	308	9
2023-09-26T00:00	27935	16	-54.6	-86.0	309	9
2023-09-26T00:00	27953	16	-54.7	-86.1	310	8
2023-09-26T00:00	27990	16	-54.8	-86.1	311	8
2023-09-26T00:00	28010	16	-54.8	-86.1	314	7
2023-09-26T00:00	28048	16	-54.9	-86.2	317	7
2023-09-26T00:00	28069	16	-55.0	-86.3	322	6
2023-09-26T00:00	28099	16	-55.0	-86.3	329	5
2023-09-26T00:00	28123	16	-55.0	-86.3	337	4
2023-09-26T00:00	28153	16	-54.9	-86.2	344	4
2023-09-26T00:00	28187	16	-54.8	-86.8	347	4
2023-09-26T00:00	28215	16	-54.7	-86.7	346	4
2023-09-26T00:00	28242	16	-54.6	-86.7	343	5
2023-09-26T00:00	28269	16	-54.7	-86.1	339	5
2023-09-26T00:00	28307	16	-54.6	-86.7	336	6
2023-09-26T00:00	28326	15	-54.4	-86.5	335	6
2023-09-26T00:00	28358	15	-54.3	-86.4	336	7
2023-09-26T00:00	28395	15	-54.2	-86.4	338	7
2023-09-26T00:00	28415	15	-54.4	-86.5	340	7
2023-09-26T00:00	28447	15	-54.6	-86.7	343	6
2023-09-26T00:00	28476	15	-54.8	-86.1	345	6
2023-09-26T00:00	28503	15	-54.4	-85.8	347	6
2023-09-26T00:00	28541	15	-54.4	-85.8	350	5
2023-09-26T00:00	28576	15	-54.4	-86.5	353	5
2023-09-26T00:00	28595	15	-54.4	-86.5	356	4
2023-09-26T00:00	28620	15	-54.1	-86.3	358	4
2023-09-26T00:00	28656	15	-54.0	-86.2	357	3
2023-09-26T00:00	28694	15	-54.1	-86.3	351	3
2023-09-26T00:00	28719	15	-54.3	-86.4	341	2
2023-09-26T00:00	28746	14	-54.4	-85.8	324	2
2023-09-26T00:00	28777	14	-54.6	-86.0	305	2
2023-09-26T00:00	28803	14	-54.6	-86.0	289	2
2023-09-26T00:00	28835	14	-54.8	-86.1	277	3
2023-09-26T00:00	28870	14	-55.0	-86.3	271	3
2023-09-26T00:00	28902	14	-55.1	-86.4	269	3
2023-09-26T00:00	28926	14	-55.0	-86.3	272	3
2023-09-26T00:00	28951	14	-55.0	-86.3	278	3
2023-09-26T00:00	28992	14	-55.0	-87.0	284	3
2023-09-26T00:00	29020	14	-55.0	-87.0	289	4
2023-09-26T00:00	29043	14	-54.9	-86.9	290	4
2023-09-26T00:00	29079	14	-54.7	-86.7	289	5
2023-09-26T00:00	29108	14	-54.6	-86.7	287	6
2023-09-26T00:00	29128	14	-54.7	-86.7	286	7
2023-09-26T00:00	29156	14	-54.6	-86.7	286	7
2023-09-26T00:00	29182	13	-54.7	-86.7	288	8
2023-09-26T00:00	29232	13	-54.8	-86.8	290	9
2023-09-26T00:00	29257	13	-54.9	-86.9	293	9
2023-09-26T00:00	29287	13	-54.7	-86.7	296	10
2023-09-26T00:00	29307	13	-54.7	-86.7	299	10
2023-09-26T00:00	29351	13	-54.7	-86.7	301	10
2023-09-26T00:00	29359	13	-54.7	-86.7	303	10
2023-09-26T00:00	29387	13	-54.4	-86.5	303	10
2023-09-26T00:00	29421	13	-54.3	-87.2	303	10
2023-09-26T00:00	29450	13	-53.9	-86.9	303	10
2023-09-26T00:00	29480	13	-53.9	-86.9	302	10
2023-09-26T00:00	29511	13	-53.8	-86.8	301	10
2023-09-26T00:00	29540	13	-53.7	-86.8	302	10
2023-09-26T00:00	29561	13	-53.6	-86.7	303	10
2023-09-26T00:00	29593	13	-53.4	-86.5	305	9
2023-09-26T00:00	29614	13	-53.2	-86.4	308	9
2023-09-26T00:00	29638	13	-53.2	-86.4	311	8
2023-09-26T00:00	29673	13	-53.2	-86.4	314	8
2023-09-26T00:00	29700	12	-53.4	-86.5	314	8
2023-09-26T00:00	29729	12	-53.4	-86.5	313	7
2023-09-26T00:00	29758	12	-53.2	-86.4	309	7
2023-09-26T00:00	29788	12	-53.1	-86.3	305	8
2023-09-26T00:00	29803	12	-53.0	-86.3	300	8
2023-09-26T00:00	29835	12	-52.6		295	8
2023-09-26T00:00	29870	12	-52.5	-85.9	291	9
2023-09-26T00:00	29898	12	-52.3	-85.8	286	10
2023-09-26T00:00	29931	12	-52.4	-85.8	282	10
2023-09-26T00:00	29959	12	-52.3	-86.6	278	11
2023-09-26T00:00	29985	12	-51.7	-86.2	276	12
2023-09-26T00:00	30024	12	-51.1	-85.8	274	12
2023-09-26T00:00	30056	12	-50.8	-85.6	273	12
2023-09-26T00:00	30075	12	-50.7	-85.5	273	12
2023-09-26T00:00	30102	12	-50.2	-85.1	273	12
2023-09-26T00:00	30145	12	-50.0	-85.0	272	13
2023-09-26T00:00	30155	12	-49.9	-84.9	272	13
2023-09-26T00:00	30199	12	-49.7	-84.8	272	13
2023-09-26T00:00	30215	12	-49.7	-84.8	272	13
2023-09-26T00:00	30246	11	-49.7	-84.8	273	13
2023-09-26T00:00	30269	11	-49.5	-84.6	273	13
2023-09-26T00:00	30318	11	-49.4	-84.6	273	14
2023-09-26T00:00	30337	11	-49.4	-84.6	272	14
2023-09-26T00:00	30381	11	-49.2	-84.4	271	14
2023-09-26T00:00	30403	11	-48.9	-84.2	270	15
2023-09-26T00:00	30440	11	-48.5	-83.9	269	15
2023-09-26T00:00	30463	11	-48.3	-84.8	268	16
2023-09-26T00:00	30496	11	-48.1	-84.7	267	16
2023-09-26T00:00	30537	11	-48.0	-84.6	267	16
2023-09-26T00:00	30555	11	-47.9	-84.6	266	17
2023-09-26T00:00	30591	11	-48.0	-83.6	266	17
2023-09-26T00:00	30609	11	-47.9	-83.5	267	17
2023-09-26T00:00	30650	11	-47.9	-83.5	267	17
2023-09-26T00:00	30689	11	-47.9	-83.5	268	18
2023-09-26T00:00	30703	11	-48.1	-83.6	269	18
2023-09-26T00:00	30734	11	-48.2	-83.7	270	18
2023-09-26T00:00	30769	11	-48.2	-83.7	271	18
2023-09-26T00:00	30795	11	-48.2	-83.7	273	18
2023-09-26T00:00	30834	10	-48.1	-83.6	275	17
2023-09-26T00:00	30865	10	-48.1	-83.6	278	17
2023-09-26T00:00	30887	10	-48.2	-83.7	280	17
2023-09-26T00:00	30918	10	-48.4	-83.8	281	18
2023-09-26T00:00	30938	10	-48.5	-83.9	282	18
2023-09-26T00:00	30963	10	-48.5	-83.9	283	18
2023-09-26T00:00	30993	10	-48.5	-83.9	283	19
2023-09-26T00:00	31025	10	-48.6		284	19
2023-09-26T00:00	31058	10	-48.7	-84.1	284	19
2023-09-26T00:00	31081	10	-48.8	-84.1	284	20
2023-09-26T00:00	31114	10	-48.8	-84.1	284	19
2023-09-26T00:00	31135	10	-48.4	-83.8	285	19
2023-09-26T00:00	31172	10	-48.5	-83.9	284	19
2023-09-26T00:00	31188	10	-48.6		285	18
2023-09-26T00:00	31226	10	-48.6		285	18
2023-09-26T00:00	31254	10	-48.6		286	18
2023-09-26T00:00	31291	10	-48.7	-84.1	287	17
2023-09-26T00:00	31315	10	-48.8	-84.1	288	17
2023-09-26T00:00	31340	10	-48.7	-84.1	289	16
2023-09-26T00:00	31375	10	-48.5	-83.9	290	16
2023-09-26T00:00	31407	10	-48.7	-84.1	292	15
2023-09-26T00:00	31455	10	-48.9	-84.2	293	15
2023-09-26T00:00	31467	10	-49.0	-84.3	294	14
2023-09-26T00:00	31490	9	-49.2	-84.4	296	14
2023-09-26T00:00	31523	9	-49.4	-84.6	296	14
2023-09-26T00:00	31556	9	-49.6	-84.7	296	13
2023-09-26T00:00	31596	9	-49.6	-84.7	296	13
2023-09-26T00:00	31620	9	-49.8	-84.8	294	12
2023-09-26T00:00	31656	9	-49.9	-84.9	292	12
2023-09-26T00:00	31687	9	-49.7	-84.8	290	11
2023-09-26T00:00	31720	9	-49.7	-84.8	288	11
2023-09-26T00:00	31750	9	-49.9	-84.9	287	11
2023-09-26T00:00	31776	9	-50.1	-85.1	285	11
2023-09-26T00:00	31811	9	-49.8	-84.8	284	11
2023-09-26T00:00	31827	9	-49.8	-84.8	283	11
2023-09-26T00:00	31860	9	-49.9	-84.9	283	11
2023-09-26T00:00	31914	9	-50.1	-85.1	283	12
2023-09-26T00:00	31944	9	-50.1	-85.1	283	12
2023-09-26T00:00	31975	9	-50.1	-85.1	283	12
2023-09-26T00:00	31999	9	-50.2	-85.1	284	13
2023-09-26T00:00	32037	9	-50.2	-85.1	284	13
2023-09-26T00:00	32073	9	-50.1	-85.1	284	13
2023-09-26T00:00	32087	9	-50.0	-85.0	284	13
2023-09-26T00:00	32113	9	-50.0	-85.0	284	13
2023-09-26T00:00	32155	9	-50.1	-85.1	285	14
2023-09-26T00:00	32191	9	-50.0	-85.0	285	14
2023-09-26T00:00	32209	9	-49.8	-84.8	286	14
2023-09-26T00:00	32221	8	-49.9	-84.9	287	14
2023-09-26T00:00	32261	8	-49.9	-84.9	288	14
2023-09-26T00:00	32286	8	-49.8	-84.8	289	14
2023-09-26T00:00	32311	8	-49.7	-84.8	290	14
2023-09-26T00:00	32337	8	-49.3	-84.5	290	14
2023-09-26T00:00	32379	8	-49.4	-84.6	291	14
2023-09-26T00:00	32383	8	-49.2	-84.4	292	15
2023-09-26T00:00	32411	8	-49.1	-84.3	292	15
2023-09-26T00:00	32454	8	-49.0	-84.3	293	16
2023-09-26T00:00	32458	8	-48.9	-84.2	293	16
2023-09-26T00:00	32491	8	-49.0	-84.3	293	16
2023-09-26T00:00	32520	8	-49.1	-85.4	293	16
2023-09-26T00:00	32551	8	-48.9	-85.3	292	16
2023-09-26T00:00	32577	8	-48.6	-85.0	292	16
2023-09-26T00:00	32599	8	-48.4	-84.9	292	17
2023-09-26T00:00	32628	8	-48.1	-84.7	293	17
2023-09-26T00:00	32669	8	-47.8	-84.5	295	17
2023-09-26T00:00	32706	8	-47.3	-84.1	301	16
2023-09-26T00:00	32737	8	-47.1	-84.0	305	16
2023-09-26T00:00	32756	8	-46.9	-83.9	308	16
2023-09-26T00:00	32799	8	-46.7	-83.7	311	16
2023-09-26T00:00	32816	8	-46.8	-83.8	313	15
2023-09-26T00:00	32858	8	-46.9	-83.9	314	15
2023-09-26T00:00	32876	8	-46.6	-83.6	315	14
2023-09-26T00:00	32916	8	-46.5	-83.6	315	14
2023-09-26T00:00	32941	8	-46.7	-83.7	314	14
2023-09-26T00:00	32967	8	-46.6	-83.6	312	14
2023-09-26T06:00	112	1011	12.6	12.3	110	3
2023-09-26T06:00	138	1008	14.3	13.5	125	2
2023-09-26T06:00	166	1004	15.2	13.2	126	3
2023-09-26T06:00	192	1001	17.1	13.2	126	4
2023-09-26T06:00	220	998	17.2	13.1	123	4
2023-09-26T06:00	239	996	17.2	12.9	119	4
2023-09-26T06:00	262	993	17.2	12.9	112	4
2023-09-26T06:00	291	990	17.1	13.0	106	4
2023-09-26T06:00	312	987	17.0	12.9	101	3
2023-09-26T06:00	336	985	16.8	12.6	99	3
2023-09-26T06:00	363	982	16.6	12.5	101	2
2023-09-26T06:00	383	979	16.4	12.5	105	2
2023-09-26T06:00	413	976	16.1	12.2	108	2
2023-09-26T06:00	434	973	15.9	12.0	107	2
2023-09-26T06:00	459	970	15.9	11.8	103	2
2023-09-26T06:00	482	968	15.9	11.9	98	1
2023-09-26T06:00	505	965	15.8	11.8	98	1
2023-09-26T06:00	527	963	15.7	11.8	106	1
2023-09-26T06:00	546	961	15.6	11.7	123	1
2023-09-26T06:00	568	958	15.5	11.4	139	2
2023-09-26T06:00	590	955	15.5	11.2	150	2
2023-09-26T06:00	616	953	15.3	11.1	156	2
2023-09-26T06:00	638	950	15.2	11.1	160	3
2023-09-26T06:00	666	947	15.0	11.0	162	3
2023-09-26T06:00	692	944	14.8	10.6	162	3
2023-09-26T06:00	717	941	14.7	10.7	162	3
2023-09-26T06:00	738	939	14.5	10.7	162	3
2023-09-26T06:00	763	936	14.4	10.2	162	3
2023-09-26T06:00	785	934	14.2	10.1	162	3
2023-09-26T06:00	818	930	14.0	9.5	161	3
2023-09-26T06:00	846	927	13.9	9.5	160	3
2023-09-26T06:00	874	924	13.7	9.5	158	3
2023-09-26T06:00	900	921	13.5	9.6	157	3
2023-09-26T06:00	920	919	13.3	9.4	159	3
2023-09-26T06:00	946	916	13.1	9.2	166	3
2023-09-26T06:00	969	914	13.0	8.9	175	3
2023-09-26T06:00	996	911	12.9	8.7	185	3
2023-09-26T06:00	1022	908	12.7	8.4	194	4
2023-09-26T06:00	1045	905	12.6	8.2	200	4
2023-09-26T06:00	1069	903	12.4	8.2	204	4
2023-09-26T06:00	1097	900	12.2	8.1	204	4
2023-09-26T06:00	1121	897	12.0	8.3	202	4
2023-09-26T06:00	1150	894	11.8	8.3	200	5
2023-09-26T06:00	1178	891	11.6	8.3	199	5
2023-09-26T06:00	1208	888	11.3	8.1	200	5
2023-09-26T06:00	1236	885	11.1	8.2	202	6
2023-09-26T06:00	1267	882	11.1	8.2	204	6
2023-09-26T06:00	1290	879	11.2	7.8	205	7
2023-09-26T06:00	1314	877	11.5	6.8	203	7
2023-09-26T06:00	1344	874	12.2	4.5	199	7
2023-09-26T06:00	1370	871	12.5	4.8	195	8
2023-09-26T06:00	1397	868	12.4	5.1	191	8
2023-09-26T06:00	1423	866	12.4	4.5	188	8
2023-09-26T06:00	1451	863	13.1	0.6	186	8
2023-09-26T06:00	1476	860	13.4	0.3	185	8
2023-09-26T06:00	1510	857	13.1	0.1	185	8
2023-09-26T06:00	1535	854	12.9	-0.1	185	8
2023-09-26T06:00	1557	852	12.8	0.0	185	8
2023-09-26T06:00	1583	849	12.6	-0.2	184	8
2023-09-26T06:00	1608	847	12.4	-0.5	182	8
2023-09-26T06:00	1629	845	12.2	-0.4	181	8
2023-09-26T06:00	1654	842	11.9	-0.6	181	8
2023-09-26T06:00	1675	840	11.8	-0.6	182	8
2023-09-26T06:00	1697	838	11.5	-0.7	184	9
2023-09-26T06:00	1724	835	11.3	-0.9	186	9
2023-09-26T06:00	1749	833	11.4	-1.1	189	9
2023-09-26T06:00	1769	831	11.5	-1.7	193	9
2023-09-26T06:00	1791	828	11.6	-3.1	197	9
2023-09-26T06:00	1814	826	11.7	-2.8	203	9
2023-09-26T06:00	1843	823	11.7	-4.9	207	9
2023-09-26T06:00	1876	820	11.6	-5.6	209	9
2023-09-26T06:00	1906	817	11.5	-6.1	210	9
2023-09-26T06:00	1928	815	11.5	-6.8	208	8
2023-09-26T06:00	1954	812	11.5	-7.3	207	8
2023-09-26T06:00	1975	810	11.6	-8.3	206	8
2023-09-26T06:00	1996	808	11.7	-7.5	207	8
2023-09-26T06:00	2023	806	11.6	-7.0	209	8
2023-09-26T06:00	2047	803	11.4	-6.7	211	8
2023-09-26T06:00	2071	801	11.3	-5.9	213	9
2023-09-26T06:00	2094	799	11.3	-5.2	214	9
2023-09-26T06:00	2120	796	11.1	-5.1	215	9
2023-09-26T06:00	2142	794	10.9	-5.0	215	9
2023-09-26T06:00	2166	792	10.7	-4.9	215	9
2023-09-26T06:00	2192	789	10.5	-4.8	215	9
2023-09-26T06:00	2220	787	10.2	-5.0	215	10
2023-09-26T06:00	2247	784	9.9	-5.2	215	10
2023-09-26T06:00	2274	782	9.7	-5.2	214	10
2023-09-26T06:00	2299	779	9.4	-5.3	214	10
2023-09-26T06:00	2325	777	9.3	-6.3	214	10
2023-09-26T06:00	2351	774	9.1	-6.7	215	10
2023-09-26T06:00	2383	772	8.9	-7.0	216	10
2023-09-26T06:00	2414	769	8.9	-5.2	218	10
2023-09-26T06:00	2435	767	8.7	-5.5	220	10
2023-09-26T06:00	2458	764	8.6	-5.0	221	10
2023-09-26T06:00	2485	762	8.3	-5.2	222	9
2023-09-26T06:00	2509	760	8.2	-5.7	222	9
2023-09-26T06:00	2531	758	8.1	-7.8	220	9
2023-09-26T06:00	2552	756	8.1	-9.7	217	9
2023-09-26T06:00	2578	754	8.1	-11.4	215	9
2023-09-26T06:00	2601	751	8.2	-13.0	213	9
2023-09-26T06:00	2630	749	8.1	-14.3	212	9
2023-09-26T06:00	2654	747	8.1	-15.2	211	9
2023-09-26T06:00	2678	744	8.1	-15.2	211	9
2023-09-26T06:00	2704	742	8.1	-16.7	211	9
2023-09-26T06:00	2725	740	8.1	-16.9	210	9
2023-09-26T06:00	2755	738	8.0	-17.3	210	9
2023-09-26T06:00	2786	735	7.8	-17.8	209	9
2023-09-26T06:00	2811	733	7.7	-18.3	207	9
2023-09-26T06:00	2835	730	7.5	-18.3	206	9
2023-09-26T06:00	2859	728	7.4	-18.7	206	9
2023-09-26T06:00	2880	726	7.3	-19.0	206	8
2023-09-26T06:00	2908	724	7.2	-19.6	208	7
2023-09-26T06:00	2935	721	7.1	-20.1	212	7
2023-09-26T06:00	2968	719	7.0	-20.9	217	7
2023-09-26T06:00	2997	716	6.8	-21.0	221	7
2023-09-26T06:00	3018	714	6.6	-21.1	224	7
2023-09-26T06:00	3046	712	6.5	-21.4	224	8
2023-09-26T06:00	3071	710	6.3	-21.6	223	8
2023-09-26T06:00	3094	708	6.1	-21.7	221	8
2023-09-26T06:00	3117	706	5.9	-21.7	221	7
2023-09-26T06:00	3141	704	5.7	-22.0	220	7
2023-09-26T06:00	3166	701	5.6	-22.0	219	7
2023-09-26T06:00	3193	699	5.4	-22.5	216	7
2023-09-26T06:00	3225	696	5.2	-22.7	212	6
2023-09-26T06:00	3252	694	4.9	-22.9	208	6
2023-09-26T06:00	3277	692	4.7	-23.2	205	6
2023-09-26T06:00	3303	690	4.5	-23.3	204	6
2023-09-26T06:00	3328	688	4.3	-23.7	203	5
2023-09-26T06:00	3353	686	4.2	-24.7	202	5
2023-09-26T06:00	3374	684	4.3	-24.5	201	4
2023-09-26T06:00	3400	681	4.2	-24.8	199	4
2023-09-26T06:00	3424	679	4.2	-22.7	196	4
2023-09-26T06:00	3450	677	4.2	-21.7	194	3
2023-09-26T06:00	3471	676	4.1	-16.8	194	3
2023-09-26T06:00	3499	673	3.9	-14.2	194	3
2023-09-26T06:00	3523	671	3.6	-13.8	193	3
2023-09-26T06:00	3549	669	3.4	-13.7	191	3
2023-09-26T06:00	3578	667	3.1	-14.0	189	3
2023-09-26T06:00	3602	665	2.9	-13.9	189	3
2023-09-26T06:00	3622	663	2.7	-13.7	191	4
2023-09-26T06:00	3650	661	2.5	-13.5	195	4
2023-09-26T06:00	3678	659	2.3	-14.5	198	4
2023-09-26T06:00	3698	657	2.3	-16.6	198	4
2023-09-26T06:00	3729	655	2.1	-19.0	197	4
2023-09-26T06:00	3752	653	2.0	-21.2	194	5
2023-09-26T06:00	3776	651	2.0	-20.9	193	5
2023-09-26T06:00	3805	648	1.9	-20.9	194	5
2023-09-26T06:00	3827	646	1.8	-21.6	197	5
2023-09-26T06:00	3856	644	1.9	-23.2	200	6
2023-09-26T06:00	3884	642	1.8	-26.3	204	6
2023-09-26T06:00	3909	640	1.7	-30.7	208	6
2023-09-26T06:00	3934	638	1.7	-33.8	209	6
2023-09-26T06:00	3953	636	1.5	-32.5	209	6
2023-09-26T06:00	3982	634	1.4	-33.5	205	6
2023-09-26T06:00	4007	632	1.3	-29.9	200	6
2023-09-26T06:00	4034	630	1.2	-26.5	194	7
2023-09-26T06:00	4058	628	1.1	-26.7	190	7
2023-09-26T06:00	4081	626	1.1	-27.0	188	6
2023-09-26T06:00	4104	625	1.0	-28.2	190	6
2023-09-26T06:00	4126	623	1.1	-28.8	196	6
2023-09-26T06:00	4150	621	1.1	-31.0	203	6
2023-09-26T06:00	4172	619	1.1	-33.2	210	6
2023-09-26T06:00	4202	617	0.9	-34.3	214	6
2023-09-26T06:00	4223	615	0.7	-35.2	216	7
2023-09-26T06:00	4245	614	0.6	-36.4	218	7
2023-09-26T06:00	4265	612	0.5	-37.4	219	6
2023-09-26T06:00	4290	610	0.4	-37.5	220	6
2023-09-26T06:00	4314	608	0.3	-37.6	219	6
2023-09-26T06:00	4339	607	0.2	-37.6	215	6
2023-09-26T06:00	4365	605	0.0	-37.4	212	6
2023-09-26T06:00	4389	603	-0.1	-37.5	210	6
2023-09-26T06:00	4416	601	-0.3	-33.7	211	6
2023-09-26T06:00	4440	599	-0.5	-29.1	215	6
2023-09-26T06:00	4464	597	-0.6	-31.0	220	7
2023-09-26T06:00	4498	595	-0.9	-33.2	224	7
2023-09-26T06:00	4528	593	-1.1	-32.6	227	7
2023-09-26T06:00	4552	591	-1.3	-33.1	229	7
2023-09-26T06:00	4578	589	-1.3	-34.9	230	7
2023-09-26T06:00	4610	587	-1.5	-35.1	231	7
2023-09-26T06:00	4635	585	-1.6	-35.9	231	7
2023-09-26T06:00	4658	583	-1.6	-41.6	230	7
2023-09-26T06:00	4683	581	-1.7	-42.6	229	6
2023-09-26T06:00	4706	579	-1.8	-42.7	229	6
2023-09-26T06:00	4729	578	-1.9	-41.4	229	5
2023-09-26T06:00	4753	576	-2.0	-40.3	232	4
2023-09-26T06:00	4777	574	-2.2	-40.4	238	3
2023-09-26T06:00	4804	572	-2.4	-41.0	247	3
2023-09-26T06:00	4833	570	-2.6	-41.1	253	3
2023-09-26T06:00	4853	569	-2.8	-41.3	254	3
2023-09-26T06:00	4875	567	-3.0	-41.4	251	4
2023-09-26T06:00	4902	565	-3.2	-40.5	246	4
2023-09-26T06:00	4937	563	-3.4	-40.3	240	4
2023-09-26T06:00	4960	561	-3.6	-39.5	234	5
2023-09-26T06:00	4988	559	-3.8	-39.4	230	5
2023-09-26T06:00	5009	558	-3.9	-39.4	228	6
2023-09-26T06:00	5028	556	-4.0	-39.8	229	6
2023-09-26T06:00	5049	555	-4.2	-39.1	232	6
2023-09-26T06:00	5072	553	-4.4	-39.0	236	6
2023-09-26T06:00	5102	551	-4.6	-40.0	240	6
2023-09-26T06:00	5132	549	-4.8	-41.0	244	7
2023-09-26T06:00	5160	547	-5.0	-41.8	248	7
2023-09-26T06:00	5197	544	-5.2	-38.9	252	7
2023-09-26T06:00	5221	543	-5.4	-38.8	255	6
2023-09-26T06:00	5252	541	-5.6	-38.7	257	6
2023-09-26T06:00	5278	539	-5.8	-37.6	257	5
2023-09-26T06:00	5301	537	-6.0	-36.6	254	5
2023-09-26T06:00	5319	536	-6.2	-36.4	250	5
2023-09-26T06:00	5341	534	-6.4	-36.4	247	6
2023-09-26T06:00	5372	532	-6.6	-36.4	245	6
2023-09-26T06:00	5400	530	-6.9	-37.1	244	6
2023-09-26T06:00	5418	529	-7.1	-37.6	243	6
2023-09-26T06:00	5446	527	-7.3	-38.3	241	6
2023-09-26T06:00	5477	525	-7.5	-39.5	239	6
2023-09-26T06:00	5501	524	-7.5	-41.9	237	6
2023-09-26T06:00	5524	522	-7.7	-41.5	236	5
2023-09-26T06:00	5556	520	-7.9	-41.4	236	5
2023-09-26T06:00	5581	518	-8.0	-40.3	237	5
2023-09-26T06:00	5600	517	-8.1	-38.6	239	5
2023-09-26T06:00	5626	515	-8.4	-36.4	240	5
2023-09-26T06:00	5656	513	-8.6	-37.3	240	5
2023-09-26T06:00	5681	512	-8.7	-37.5	240	6
2023-09-26T06:00	5700	510	-8.9	-37.4	238	6
2023-09-26T06:00	5719	509	-9.0	-37.6	237	6
2023-09-26T06:00	5752	507	-9.3	-37.4	236	6
2023-09-26T06:00	5772	506	-9.4	-37.6	236	6
2023-09-26T06:00	5793	504	-9.5	-37.9	239	6
2023-09-26T06:00	5828	502	-9.7	-38.7	244	6
2023-09-26T06:00	5858	500	-9.9	-39.0	250	6
2023-09-26T06:00	5885	498	-10.1	-34.9	258	6
2023-09-26T06:00	5907	497	-10.2	-28.8	264	6
2023-09-26T06:00	5937	495	-10.4	-27.1	268	6
2023-09-26T06:00	5961	493	-10.6	-27.2	269	6
2023-09-26T06:00	5980	492	-10.8	-27.0	268	6
2023-09-26T06:00	6004	491	-11.0	-27.0	265	6
2023-09-26T06:00	6034	489	-11.3	-27.3	262	6
2023-09-26T06:00	6057	487	-11.5	-27.0	261	6
2023-09-26T06:00	6079	486	-11.8	-27.1	262	6
2023-09-26T06:00	6109	484	-12.1	-27.4	263	6
2023-09-26T06:00	6129	483	-12.2	-28.4	264	6
2023-09-26T06:00	6150	481	-12.2	-29.1	264	6
2023-09-26T06:00	6175	480	-12.3	-26.2	263	6
2023-09-26T06:00	6201	478	-12.6	-24.8	262	6
2023-09-26T06:00	6233	476	-12.9	-24.8	260	5
2023-09-26T06:00	6260	474	-13.1	-24.4	258	5
2023-09-26T06:00	6287	473	-13.4	-24.7	256	5
2023-09-26T06:00	6310	471	-13.6	-24.7	252	5
2023-09-26T06:00	6339	469	-13.9	-25.3	249	6
2023-09-26T06:00	6373	467	-14.1	-25.8	247	6
2023-09-26T06:00	6404	466	-14.4	-25.7	246	6
2023-09-26T06:00	6428	464	-14.7	-26.0	245	5
2023-09-26T06:00	6462	462	-14.9	-26.4	244	5
2023-09-26T06:00	6492	460	-15.2	-27.0	244	4
2023-09-26T06:00	6519	459	-15.4	-26.8	244	4
2023-09-26T06:00	6541	457	-15.6	-26.6	246	4
2023-09-26T06:00	6571	455	-15.8	-27.0	247	4
2023-09-26T06:00	6603	453	-16.1	-27.3	248	4
2023-09-26T06:00	6626	452	-16.2	-27.5	248	5
2023-09-26T06:00	6656	450	-16.4	-27.1	245	5
2023-09-26T06:00	6692	448	-16.6	-27.3	242	6
2023-09-26T06:00	6714	447	-16.8	-27.7	238	6
2023-09-26T06:00	6744	445	-16.9	-28.1	234	6
2023-09-26T06:00	6776	443	-17.1	-29.1	230	6
2023-09-26T06:00	6796	442	-17.3	-29.3	228	6
2023-09-26T06:00	6817	441	-17.4	-29.4	228	5
2023-09-26T06:00	6840	439	-17.6	-29.5	228	5
2023-09-26T06:00	6868	438	-17.8	-29.6	230	5
2023-09-26T06:00	6899	436	-18.1	-29.9	232	5
2023-09-26T06:00	6930	434	-18.2	-30.7	235	5
2023-09-26T06:00	6961	432	-18.3	-31.6	240	5
2023-09-26T06:00	6993	431	-18.6	-30.3	246	5
2023-09-26T06:00	7014	429	-18.7	-29.0	252	4
2023-09-26T06:00	7035	428	-18.9	-28.9	257	5
2023-09-26T06:00	7059	427	-19.1	-28.3	260	5
2023-09-26T06:00	7083	425	-19.3	-27.6	260	5
2023-09-26T06:00	7103	424	-19.5	-27.5	259	5
2023-09-26T06:00	7127	423	-19.7	-26.3	257	6
2023-09-26T06:00	7148	421	-19.9	-26.2	256	6
2023-09-26T06:00	7176	420	-20.2	-24.6	254	7
2023-09-26T06:00	7207	418	-20.5	-22.8	253	7
2023-09-26T06:00	7237	417	-20.7	-23.6	254	7
2023-09-26T06:00	7262	415	-20.8	-23.7	254	7
2023-09-26T06:00	7284	414	-21.0	-24.2	254	6
2023-09-26T06:00	7314	412	-21.2	-25.3	254	6
2023-09-26T06:00	7341	411	-21.4	-25.5	251	6
2023-09-26T06:00	7370	409	-21.6	-24.5	247	6
2023-09-26T06:00	7399	407	-21.8	-24.3	243	6
2023-09-26T06:00	7428	406	-21.9	-24.3	241	6
2023-09-26T06:00	7457	404	-22.2	-25.0	240	7
2023-09-26T06:00	7484	403	-22.3	-25.6	241	7
2023-09-26T06:00	7513	401	-22.5	-26.2	242	7
2023-09-26T06:00	7538	400	-22.7	-26.3	242	7
2023-09-26T06:00	7563	398	-22.9	-26.7	241	7
2023-09-26T06:00	7595	397	-23.1	-27.1	240	7
2023-09-26T06:00	7618	396	-23.3	-27.2	239	7
2023-09-26T06:00	7639	394	-23.4	-27.2	237	7
2023-09-26T06:00	7666	393	-23.7	-27.5	236	8
2023-09-26T06:00	7695	391	-23.9	-27.5	235	8
2023-09-26T06:00	7722	390	-24.1	-27.4	234	8
2023-09-26T06:00	7752	388	-24.4	-27.6	232	7
2023-09-26T06:00	7778	387	-24.6	-27.8	231	7
2023-09-26T06:00	7803	386	-24.8	-28.2	230	7
2023-09-26T06:00	7826	384	-25.0	-28.3	230	7
2023-09-26T06:00	7845	383	-25.2	-28.4	231	7
2023-09-26T06:00	7865	382	-25.4	-28.5	232	7
2023-09-26T06:00	7888	381	-25.6	-28.6	233	7
2023-09-26T06:00	7916	380	-25.8	-28.8	234	6
2023-09-26T06:00	7943	378	-26.0	-28.9	234	6
2023-09-26T06:00	7970	377	-26.3	-29.1	234	6
2023-09-26T06:00	8002	375	-26.6	-29.8	232	6
2023-09-26T06:00	8033	374	-26.8	-30.1	230	6
2023-09-26T06:00	8060	372	-27.1	-29.9	227	6
2023-09-26T06:00	8090	371	-27.3	-30.1	225	6
2023-09-26T06:00	8117	369	-27.6	-30.4	223	6
2023-09-26T06:00	8146	368	-27.8	-30.4	222	6
2023-09-26T06:00	8171	366	-28.1	-30.7	223	6
2023-09-26T06:00	8200	365	-28.3	-30.9	224	6
2023-09-26T06:00	8227	364	-28.6	-31.0	225	6
2023-09-26T06:00	8248	362	-28.8	-31.2	225	6
2023-09-26T06:00	8274	361	-29.0	-31.1	224	6
2023-09-26T06:00	8300	360	-29.2	-31.2	223	6
2023-09-26T06:00	8327	359	-29.4	-31.4	220	6
2023-09-26T06:00	8351	357	-29.7	-31.6	217	6
2023-09-26T06:00	8384	356	-30.0	-31.8	214	6
2023-09-26T06:00	8417	354	-30.3	-32.1	213	6
2023-09-26T06:00	8446	353	-30.5	-32.5	214	6
2023-09-26T06:00	8474	351	-30.8	-32.5	217	6
2023-09-26T06:00	8501	350	-31.0	-32.5	221	7
2023-09-26T06:00	8527	349	-31.3	-32.8	225	7
2023-09-26T06:00	8551	347	-31.5	-32.8	229	7
2023-09-26T06:00	8574	346	-31.7	-33.0	233	8
2023-09-26T06:00	8598	345	-32.0	-33.4	237	8
2023-09-26T06:00	8617	344	-32.2	-33.5	241	8
2023-09-26T06:00	8641	343	-32.4	-33.6	246	8
2023-09-26T06:00	8667	342	-32.6	-34.4	251	8
2023-09-26T06:00	8701	340	-32.5	-36.7	255	8
2023-09-26T06:00	8726	339	-32.6	-36.7	259	8
2023-09-26T06:00	8756	338	-32.9	-36.7	262	9
2023-09-26T06:00	8773	337	-33.0	-37.9	264	9
2023-09-26T06:00	8792	336	-32.9	-40.9	265	9
2023-09-26T06:00	8811	335	-32.9	-40.8	265	9
2023-09-26T06:00	8830	334	-33.1	-39.8	265	9
2023-09-26T06:00	8849	333	-33.3	-39.4	263	9
2023-09-26T06:00	8872	332	-33.4	-39.3	262	9
2023-09-26T06:00	8894	331	-33.5	-40.3	260	9
2023-09-26T06:00	8917	330	-33.5	-41.0	258	9
2023-09-26T06:00	8946	328	-33.6	-41.3	256	9
2023-09-26T06:00	8972	327	-33.8	-41.5	255	9
2023-09-26T06:00	8997	326	-33.9	-41.8	254	10
2023-09-26T06:00	9024	325	-34.1	-41.2	254	9
2023-09-26T06:00	9051	324	-34.3	-41.4	255	9
2023-09-26T06:00	9076	322	-34.5	-41.9	255	9
2023-09-26T06:00	9102	321	-34.6	-43.3	256	9
2023-09-26T06:00	9126	320	-34.8	-43.6	256	9
2023-09-26T06:00	9152	319	-34.9	-45.0	255	9
2023-09-26T06:00	9173	318	-35.0	-45.7	255	9
2023-09-26T06:00	9194	317	-35.2	-47.0	254	9
2023-09-26T06:00	9215	316	-35.3	-47.5	253	9
2023-09-26T06:00	9236	315	-35.5	-48.0	253	9
2023-09-26T06:00	9257	314	-35.7	-47.8	253	9
2023-09-26T06:00	9278	313	-35.9	-48.4	253	9
2023-09-26T06:00	9297	312	-36.1	-49.4	254	9
2023-09-26T06:00	9318	311	-36.2	-50.9	254	9
2023-09-26T06:00	9336	311	-36.3	-52.1	255	8
2023-09-26T06:00	9357	310	-36.5	-52.6	255	8
2023-09-26T06:00	9375	309	-36.7	-54.5	256	8
2023-09-26T06:00	9395	308	-36.8	-55.5	256	8
2023-09-26T06:00	9413	307	-37.0	-56.5	257	8
2023-09-26T06:00	9435	306	-37.2	-56.8	257	8
2023-09-26T06:00	9453	305	-37.3	-57.5	257	8
2023-09-26T06:00	9473	305	-37.4	-58.4	256	7
2023-09-26T06:00	9493	304	-37.6	-58.8	255	7
2023-09-26T06:00	9513	303	-37.8	-58.8	254	7
2023-09-26T06:00	9531	302	-37.9	-59.0	253	7
2023-09-26T06:00	9551	301	-37.9	-58.9	252	7
2023-09-26T06:00	9573	300	-38.0	-58.2	253	7
2023-09-26T06:00	9595	299	-38.2	-57.5	253	7
2023-09-26T06:00	9614	298	-38.4	-56.1	254	7
2023-09-26T06:00	9634	297	-38.6	-56.0	255	7
2023-09-26T06:00	9654	297	-38.7	-56.7	256	7
2023-09-26T06:00	9675	296	-38.9	-57.3	257	7
2023-09-26T06:00	9696	295	-39.0	-55.3	258	7
2023-09-26T06:00	9718	294	-39.2	-53.6	260	6
2023-09-26T06:00	9738	293	-39.4	-53.0	261	6
2023-09-26T06:00	9757	292	-39.6	-53.1	262	6
2023-09-26T06:00	9776	291	-39.8	-52.9	262	6
2023-09-26T06:00	9796	291	-39.9	-52.5	261	6
2023-09-26T06:00	9817	290	-40.1	-52.3	259	6
2023-09-26T06:00	9837	289	-40.3	-52.6	258	7
2023-09-26T06:00	9858	288	-40.5	-52.7	258	7
2023-09-26T06:00	9879	287	-40.6	-52.8	259	7
2023-09-26T06:00	9898	286	-40.8	-53.2	259	7
2023-09-26T06:00	9919	285	-41.0	-53.0	260	7
2023-09-26T06:00	9940	284	-41.1	-52.9	260	7
2023-09-26T06:00	9960	284	-41.3	-53.0	260	7
2023-09-26T06:00	9982	283	-41.5	-53.1	260	8
2023-09-26T06:00	10003	282	-41.6	-53.3	260	8
2023-09-26T06:00	10023	281	-41.8	-53.5	259	8
2023-09-26T06:00	10044	280	-42.0	-53.6	259	8
2023-09-26T06:00	10066	279	-42.2	-53.7	259	8
2023-09-26T06:00	10086	278	-42.4	-53.8	258	8
2023-09-26T06:00	10108	278	-42.6	-53.8	258	8
2023-09-26T06:00	10129	277	-42.8	-54.0	256	8
2023-09-26T06:00	10150	276	-43.0	-54.3	254	8
2023-09-26T06:00	10170	275	-43.2	-54.6	252	8
2023-09-26T06:00	10191	274	-43.4	-55.0	250	8
2023-09-26T06:00	10211	273	-43.5	-55.2	248	8
2023-09-26T06:00	10231	272	-43.6	-55.4	246	8
2023-09-26T06:00	10253	272	-43.8	-55.9	243	8
2023-09-26T06:00	10278	271	-44.0	-57.0	240	8
2023-09-26T06:00	10306	269	-44.2	-57.7	238	8
2023-09-26T06:00	10336	268	-44.4	-59.1	236	8
2023-09-26T06:00	10361	267	-44.6	-60.2	235	9
2023-09-26T06:00	10389	266	-44.9	-60.9	235	9
2023-09-26T06:00	10416	265	-45.0	-60.0	235	9
2023-09-26T06:00	10445	264	-45.2	-59.5	235	9
2023-09-26T06:00	10470	263	-45.3	-58.8	236	9
2023-09-26T06:00	10499	262	-45.5	-57.5	237	9
2023-09-26T06:00	10527	261	-45.7	-57.4	238	9
2023-09-26T06:00	10550	260	-45.9	-57.6	239	9
2023-09-26T06:00	10573	259	-46.1	-57.8	240	9
2023-09-26T06:00	10598	258	-46.3	-57.7	241	9
2023-09-26T06:00	10625	257	-46.5	-57.6	242	9
2023-09-26T06:00	10654	256	-46.8	-57.4	242	9
2023-09-26T06:00	10678	255	-47.0	-57.4	242	9
2023-09-26T06:00	10706	254	-47.2	-57.4	242	9
2023-09-26T06:00	10732	253	-47.4	-57.4	242	9
2023-09-26T06:00	10758	252	-47.6	-57.9	242	9
2023-09-26T06:00	10783	251	-47.8	-58.2	242	9
2023-09-26T06:00	10806	250	-48.0	-58.4	243	10
2023-09-26T06:00	10830	249	-48.0	-58.7	243	10
2023-09-26T06:00	10858	248	-48.1	-59.2	242	10
2023-09-26T06:00	10885	247	-48.2	-59.3	241	10
2023-09-26T06:00	10911	246	-48.4	-59.8	239	11
2023-09-26T06:00	10940	245	-48.5	-60.6	238	11
2023-09-26T06:00	10969	244	-48.6	-61.2	236	11
2023-09-26T06:00	10994	243	-48.8	-61.9	235	12
2023-09-26T06:00	11016	242	-48.9	-62.2	234	12
2023-09-26T06:00	11036	241	-49.1	-62.5	234	13
2023-09-26T06:00	11059	241	-49.2	-62.6	234	13
2023-09-26T06:00	11079	240	-49.3	-62.6	234	13
2023-09-26T06:00	11098	239	-49.4	-62.5	234	13
2023-09-26T06:00	11116	238	-49.6	-62.4	234	13
2023-09-26T06:00	11139	238	-49.8	-62.3	234	14
2023-09-26T06:00	11157	237	-49.9	-61.9	235	14
2023-09-26T06:00	11176	236	-50.1	-61.7	235	14
2023-09-26T06:00	11199	235	-50.2	-61.2	235	14
2023-09-26T06:00	11220	235	-50.4	-60.9	236	15
2023-09-26T06:00	11241	234	-50.5	-60.8	236	15
2023-09-26T06:00	11262	233	-50.7	-60.8	237	15
2023-09-26T06:00	11282	232	-50.8	-60.6	237	15
2023-09-26T06:00	11301	232	-51.0	-60.0	236	16
2023-09-26T06:00	11324	231	-51.1	-58.4	236	16
2023-09-26T06:00	11345	230	-51.2	-56.3	235	16
2023-09-26T06:00	11367	229	-51.4	-55.2	235	16
2023-09-26T06:00	11385	229	-51.5	-55.2	234	17
2023-09-26T06:00	11408	228	-51.7	-55.5	234	17
2023-09-26T06:00	11428	227	-51.8	-55.6	233	16
2023-09-26T06:00	11448	227	-51.9	-55.6	232	16
2023-09-26T06:00	11469	226	-52.1	-55.8	231	16
2023-09-26T06:00	11489	225	-52.2	-55.9	230	16
2023-09-26T06:00	11510	224	-52.4	-56.3	230	16
2023-09-26T06:00	11530	224	-52.5	-56.4	229	16
2023-09-26T06:00	11552	223	-52.5	-56.3	229	16
2023-09-26T06:00	11572	222	-52.7	-56.6	229	16
2023-09-26T06:00	11593	222	-52.8	-57.1	229	16
2023-09-26T06:00	11615	221	-52.9	-57.4	228	17
2023-09-26T06:00	11638	220	-53.0	-57.2	228	17
2023-09-26T06:00	11663	219	-53.1	-57.0	227	17
2023-09-26T06:00	11683	218	-53.3	-57.1	226	17
2023-09-26T06:00	11705	218	-53.5	-57.2	226	17
2023-09-26T06:00	11727	217	-53.7	-57.2	226	17
2023-09-26T06:00	11747	216	-53.8	-57.2	226	17
2023-09-26T06:00	11771	216	-54.0	-57.3	226	17
2023-09-26T06:00	11792	215	-54.2	-57.4	226	17
2023-09-26T06:00	11814	214	-54.4	-57.5	226	17
2023-09-26T06:00	11835	213	-54.5	-57.4	227	17
2023-09-26T06:00	11856	213	-54.7	-57.4	227	17
2023-09-26T06:00	11879	212	-54.9	-57.4	228	17
2023-09-26T06:00	11901	211	-55.1	-57.6	228	17
2023-09-26T06:00	11921	210	-55.3	-58.0	229	17
2023-09-26T06:00	11945	210	-55.4	-58.3	230	17
2023-09-26T06:00	11967	209	-55.6	-58.6	230	17
2023-09-26T06:00	11996	208	-55.8	-59.0	230	17
2023-09-26T06:00	12021	207	-56.0	-59.9	230	17
2023-09-26T06:00	12047	206	-56.1	-60.6	231	17
2023-09-26T06:00	12068	206	-56.3	-60.9	231	17
2023-09-26T06:00	12091	205	-56.5	-60.6	231	17
2023-09-26T06:00	12114	204	-56.6	-60.3	231	16
2023-09-26T06:00	12139	203	-56.8	-60.5	230	16
2023-09-26T06:00	12159	203	-56.9	-61.4	230	16
2023-09-26T06:00	12181	202	-57.0	-62.9	230	15
2023-09-26T06:00	12204	201	-57.2	-64.8	231	15
2023-09-26T06:00	12227	201	-57.2	-66.4	233	15
2023-09-26T06:00	12253	200	-57.3	-67.7	235	15
2023-09-26T06:00	12281	199	-57.3	-68.3	236	15
2023-09-26T06:00	12304	198	-57.2	-68.2	237	16
2023-09-26T06:00	12328	197	-57.4	-68.2	238	16
2023-09-26T06:00	12350	197	-57.5	-68.0	238	16
2023-09-26T06:00	12372	196	-57.7	-67.8	238	16
2023-09-26T06:00	12394	195	-58.0		238	16
2023-09-26T06:00	12416	195	-58.2	-67.7	237	16
2023-09-26T06:00	12437	194	-58.3	-67.5	238	16
2023-09-26T06:00	12459	193	-58.6	-67.6	238	16
2023-09-26T06:00	12481	193	-58.8	-67.6	238	15
2023-09-26T06:00	12503	192	-59.0	-67.6	238	15
2023-09-26T06:00	12527	191	-59.2	-67.6	238	16
2023-09-26T06:00	12548	191	-59.4	-67.7	237	16
2023-09-26T06:00	12568	190	-59.5	-67.7	237	16
2023-09-26T06:00	12591	189	-59.6	-67.8	236	16
2023-09-26T06:00	12612	189	-59.8	-67.9	236	15
2023-09-26T06:00	12633	188	-59.9	-67.9	235	15
2023-09-26T06:00	12656	187	-60.1	-68.0	235	16
2023-09-26T06:00	12677	187	-60.2	-68.0	234	16
2023-09-26T06:00	12700	186	-60.4	-68.1	234	16
2023-09-26T06:00	12722	185	-60.5		233	16
2023-09-26T06:00	12744	185	-60.7	-68.2	233	16
2023-09-26T06:00	12765	184	-60.8	-68.4	232	16
2023-09-26T06:00	12787	183	-60.9	-68.6	232	16
2023-09-26T06:00	12809	183	-60.9	-68.7	232	16
2023-09-26T06:00	12829	182	-61.0	-69.0	233	16
2023-09-26T06:00	12851	182	-60.9	-69.2	234	16
2023-09-26T06:00	12875	181	-60.9	-69.4	236	17
2023-09-26T06:00	12895	180	-60.8	-69.5	238	17
2023-09-26T06:00	12917	180	-60.8		239	17
2023-09-26T06:00	12940	179	-60.9	-69.8	241	18
2023-09-26T06:00	12963	178	-61.1	-69.9	242	18
2023-09-26T06:00	12985	178	-61.2	-70.0	243	18
2023-09-26T06:00	13006	177	-61.3	-70.1	244	17
2023-09-26T06:00	13025	177	-61.4	-70.2	244	17
2023-09-26T06:00	13046	176	-61.5	-70.3	244	17
2023-09-26T06:00	13067	175	-61.5	-70.3	245	17
2023-09-26T06:00	13091	175	-61.6	-70.4	245	16
2023-09-26T06:00	13109	174	-61.7	-70.5	245	16
2023-09-26T06:00	13131	174	-61.6	-70.6	246	16
2023-09-26T06:00	13152	173	-61.5	-70.8	247	16
2023-09-26T06:00	13174	172	-61.6	-71.2	249	16
2023-09-26T06:00	13194	172	-61.4	-71.4	251	16
2023-09-26T06:00	13214	171	-61.2	-71.6	252	16
2023-09-26T06:00	13234	171	-61.0	-71.8	254	15
2023-09-26T06:00	13254	170	-60.9	-72.2	255	15
2023-09-26T06:00	13274	170	-60.6	-72.4	255	14
2023-09-26T06:00	13294	169	-60.4	-72.7	254	14
2023-09-26T06:00	13312	169	-60.2	-72.9	253	14
2023-09-26T06:00	13333	168	-60.2	-73.2	251	13
2023-09-26T06:00	13354	167	-60.2	-73.3	249	13
2023-09-26T06:00	13372	167	-60.2	-73.5	246	13
2023-09-26T06:00	13397	166	-60.3	-73.7	243	13
2023-09-26T06:00	13420	166	-60.2	-73.9	240	13
2023-09-26T06:00	13443	165	-60.3	-74.2	237	13
2023-09-26T06:00	13468	164	-60.3	-74.3	235	13
2023-09-26T06:00	13492	164	-60.4	-74.5	234	14
2023-09-26T06:00	13516	163	-60.6	-74.6	233	14
2023-09-26T06:00	13540	163	-60.8	-74.7	233	14
2023-09-26T06:00	13564	162	-61.0	-74.8	234	14
2023-09-26T06:00	13587	161	-61.1	-75.0	235	14
2023-09-26T06:00	13608	161	-61.1	-75.1	237	13
2023-09-26T06:00	13627	160	-61.0	-75.2	239	13
2023-09-26T06:00	13650	160	-61.1	-75.4	241	13
2023-09-26T06:00	13671	159	-61.3	-75.6	243	13
2023-09-26T06:00	13692	159	-61.4	-75.9	244	13
2023-09-26T06:00	13713	158	-61.4	-76.4	246	14
2023-09-26T06:00	13737	157	-60.7	-76.7	248	14
2023-09-26T06:00	13760	157	-60.1	-77.2	249	14
2023-09-26T06:00	13781	156	-59.8	-77.9	250	14
2023-09-26T06:00	13802	156	-59.9	-78.8	251	14
2023-09-26T06:00	13823	155	-59.7	-79.1	251	14
2023-09-26T06:00	13847	155	-59.4	-79.2	252	14
2023-09-26T06:00	13870	154	-59.5	-79.6	251	13
2023-09-26T06:00	13891	154	-59.4	-79.6	251	13
2023-09-26T06:00	13913	153	-59.6	-79.9	250	13
2023-09-26T06:00	13935	153	-59.5		248	12
2023-09-26T06:00	13956	152	-58.9	-79.8	245	13
2023-09-26T06:00	13980	151	-58.5	-79.9	242	13
2023-09-26T06:00	14003	151	-58.5	-80.1	239	13
2023-09-26T06:00	14028	150	-58.5	-80.2	236	14
2023-09-26T06:00	14049	150	-58.6	-80.4	234	14
2023-09-26T06:00	14074	149	-58.8	-80.6	233	14
2023-09-26T06:00	14098	149	-59.0	-80.8	232	14
2023-09-26T06:00	14121	148	-59.2	-81.1	232	14
2023-09-26T06:00	14142	148	-59.3	-81.5	233	14
2023-09-26T06:00	14166	147	-59.4	-81.9	234	13
2023-09-26T06:00	14188	146	-59.2	-81.9	236	13
2023-09-26T06:00	14211	146	-59.3	-82.0	238	13
2023-09-26T06:00	14236	145	-59.4	-81.9	240	12
2023-09-26T06:00	14261	145	-59.6	-81.9	242	12
2023-09-26T06:00	14286	144	-59.7	-81.7	244	12
2023-09-26T06:00	14309	144	-60.0	-81.6	246	12
2023-09-26T06:00	14334	143	-60.2	-81.4	247	12
2023-09-26T06:00	14358	143	-60.4	-81.5	249	12
2023-09-26T06:00	14379	142	-60.6	-81.5	249	12
2023-09-26T06:00	14404	142	-60.7	-81.4	249	12
2023-09-26T06:00	14427	141	-60.8	-81.6	248	12
2023-09-26T06:00	14446	141	-60.7	-81.7	247	12
2023-09-26T06:00	14472	140	-60.7	-81.9	245	12
2023-09-26T06:00	14495	139	-60.9	-82.2	244	12
2023-09-26T06:00	14516	139	-61.1	-82.5	244	12
2023-09-26T06:00	14539	138	-61.3	-82.6	243	12
2023-09-26T06:00	14560	138	-61.5	-82.8	243	12
2023-09-26T06:00	14582	138	-61.7	-83.0	243	13
2023-09-26T06:00	14604	137	-62.0	-83.1	244	13
2023-09-26T06:00	14627	137	-62.2		243	13
2023-09-26T06:00	14647	136	-62.3	-83.0	243	13
2023-09-26T06:00	14671	136	-62.5	-82.9	242	13
2023-09-26T06:00	14693	135	-62.7	-82.8	241	14
2023-09-26T06:00	14716	135	-62.8	-82.6	240	14
2023-09-26T06:00	14736	134	-63.0	-82.4	239	14
2023-09-26T06:00	14758	134	-63.2	-82.4	239	14
2023-09-26T06:00	14780	133	-63.3	-82.2	239	15
2023-09-26T06:00	14802	133	-63.4	-82.1	239	15
2023-09-26T06:00	14824	132	-63.4	-82.0	241	16
2023-09-26T06:00	14850	132	-63.5	-82.0	242	16
2023-09-26T06:00	14870	131	-63.6	-82.0	244	17
2023-09-26T06:00	14891	131	-63.6	-82.0	246	17
2023-09-26T06:00	14912	130	-63.7	-82.2	248	18
2023-09-26T06:00	14934	130	-63.7	-82.4	250	18
2023-09-26T06:00	14956	129	-63.7	-82.6	252	18
2023-09-26T06:00	14976	129	-63.3	-82.5	254	18
2023-09-26T06:00	14997	129	-63.1	-82.6	256	17
2023-09-26T06:00	15022	128	-62.8	-82.6	257	17
2023-09-26T06:00	15041	128	-62.6	-82.7	259	17
2023-09-26T06:00	15064	127	-62.7	-83.1	261	16
2023-09-26T06:00	15088	127	-62.5	-83.2	263	16
2023-09-26T06:00	15107	126	-62.3	-83.3	265	16
2023-09-26T06:00	15132	126	-62.0	-83.4	266	16
2023-09-26T06:00	15155	125	-61.8	-83.4	267	16
2023-09-26T06:00	15176	125	-61.8	-83.5	268	16
2023-09-26T06:00	15201	124	-61.9	-83.6	269	16
2023-09-26T06:00	15220	124	-62.0	-83.7	269	16
2023-09-26T06:00	15242	124	-62.1	-83.8	268	15
2023-09-26T06:00	15268	123	-62.2	-83.8	267	14
2023-09-26T06:00	15297	122	-62.0	-83.7	265	13
2023-09-26T06:00	15325	122	-61.7	-83.6	263	13
2023-09-26T06:00	15355	121	-61.3	-83.3	260	12
2023-09-26T06:00	15382	121	-61.6	-83.5	257	11
2023-09-26T06:00	15409	120	-61.8	-83.5	253	10
2023-09-26T06:00	15439	120	-61.7	-83.4	248	10
2023-09-26T06:00	15464	119	-61.9	-83.6	243	9
2023-09-26T06:00	15489	119	-62.1	-83.6	237	9
2023-09-26T06:00	15512	118	-62.0	-83.5	232	9
2023-09-26T06:00	15535	118	-62.1	-83.6	229	9
2023-09-26T06:00	15556	117	-62.1	-83.6	228	9
2023-09-26T06:00	15575	117	-61.9	-83.4	228	9
2023-09-26T06:00	15598	117	-61.9	-83.6	229	9
2023-09-26T06:00	15620	116	-61.8	-83.7	229	9
2023-09-26T06:00	15641	116	-61.8	-83.8	228	9
2023-09-26T06:00	15663	115	-61.8	-84.0	228	9
2023-09-26T06:00	15685	115	-61.6	-84.0	227	9
2023-09-26T06:00	15709	115	-61.4	-84.1	225	8
2023-09-26T06:00	15732	114	-61.2	-84.1	223	8
2023-09-26T06:00	15758	114	-61.2	-84.3	221	8
2023-09-26T06:00	15781	113	-61.1	-84.2	219	8
2023-09-26T06:00	15803	113	-61.2	-84.3	218	9
2023-09-26T06:00	15825	112	-61.3	-84.4	218	9
2023-09-26T06:00	15847	112	-61.5	-84.3	218	9
2023-09-26T06:00	15873	112	-61.7	-84.5	220	10
2023-09-26T06:00	15891	111	-61.8	-84.4	222	10
2023-09-26T06:00	15914	111	-61.8	-84.4	224	10
2023-09-26T06:00	15938	110	-61.9	-84.5	226	10
2023-09-26T06:00	15960	110	-61.9	-84.3	228	10
2023-09-26T06:00	15981	110	-62.0	-84.4	229	10
2023-09-26T06:00	16006	109	-62.1	-84.4	230	10
2023-09-26T06:00	16028	109	-62.2	-84.5	232	11
2023-09-26T06:00	16050	108	-62.4	-84.5	233	11
2023-09-26T06:00	16072	108	-62.4	-84.5	235	11
2023-09-26T06:00	16093	108	-62.5	-84.6	238	11
2023-09-26T06:00	16118	107	-62.6	-84.7	239	12
2023-09-26T06:00	16140	107	-62.6	-84.7	241	12
2023-09-26T06:00	16159	106	-62.5	-84.8	241	12
2023-09-26T06:00	16185	106	-62.5	-84.9	240	12
2023-09-26T06:00	16207	106	-62.1	-84.8	238	12
2023-09-26T06:00	16232	105	-61.6	-84.6	236	13
2023-09-26T06:00	16255	105	-61.7	-84.7	234	13
2023-09-26T06:00	16277	105	-61.9	-85.1	233	13
2023-09-26T06:00	16302	104	-62.0	-84.9	233	14
2023-09-26T06:00	16326	104	-62.2	-85.1	233	14
2023-09-26T06:00	16350	103	-62.3	-85.2	235	14
2023-09-26T06:00	16372	103	-62.4	-85.2	236	14
2023-09-26T06:00	16395	103	-62.5	-85.3	237	14
2023-09-26T06:00	16418	102	-62.6	-85.4	239	14
2023-09-26T06:00	16444	102	-62.6	-85.4	240	13
2023-09-26T06:00	16466	101	-62.4	-85.2	242	13
2023-09-26T06:00	16488	101	-62.3	-85.4	244	12
2023-09-26T06:00	16511	101	-62.2	-85.3	245	12
2023-09-26T06:00	16535	100	-62.0	-85.3	246	11
2023-09-26T06:00	16559	100	-62.0	-85.3	247	10
2023-09-26T06:00	16581	99	-62.0	-85.6	246	10
2023-09-26T06:00	16606	99	-62.0	-85.6	246	9
2023-09-26T06:00	16630	99	-61.8	-85.4	244	9
2023-09-26T06:00	16652	98	-61.7	-85.5	244	9
2023-09-26T06:00	16675	98	-61.7	-85.5	243	8
2023-09-26T06:00	16698	98	-61.8	-85.6	243	8
2023-09-26T06:00	16722	97	-61.9	-85.7	243	8
2023-09-26T06:00	16744	97	-62.0	-85.6	244	7
2023-09-26T06:00	16769	97	-62.1	-85.6	246	7
2023-09-26T06:00	16792	96	-62.0	-85.6	248	7
2023-09-26T06:00	16815	96	-62.2	-85.7	249	7
2023-09-26T06:00	16840	95	-62.4	-85.7	250	7
2023-09-26T06:00	16862	95	-62.6	-85.8	249	7
2023-09-26T06:00	16887	95	-62.8	-86.0	245	7
2023-09-26T06:00	16909	94	-62.8	-86.0	240	7
2023-09-26T06:00	16933	94	-62.7	-85.9	235	7
2023-09-26T06:00	16955	94	-62.7	-85.9	230	8
2023-09-26T06:00	16982	93	-62.5	-85.7	227	8
2023-09-26T06:00	17004	93	-62.6	-85.8	226	8
2023-09-26T06:00	17028	93	-62.8	-86.0	227	9
2023-09-26T06:00	17051	92	-63.0	-86.1	228	9
2023-09-26T06:00	17078	92	-63.2	-86.1	230	9
2023-09-26T06:00	17098	91	-63.4	-86.2	233	9
2023-09-26T06:00	17125	91	-63.5	-86.3	236	10
2023-09-26T06:00	17147	91	-63.6	-86.4	240	10
2023-09-26T06:00	17173	90	-63.6	-86.4	243	11
2023-09-26T06:00	17193	90	-63.6	-86.4	247	11
2023-09-26T06:00	17220	90	-63.4	-86.5	250	11
2023-09-26T06:00	17244	89	-63.2	-86.5	252	11
2023-09-26T06:00	17266	89	-63.0	-86.6	254	11
2023-09-26T06:00	17293	89	-62.8	-86.6	254	10
2023-09-26T06:00	17318	88	-62.8	-86.6	253	10
2023-09-26T06:00	17343	88	-62.7	-86.8	252	9
2023-09-26T06:00	17368	88	-62.8	-86.9	249	8
2023-09-26T06:00	17391	87	-62.6	-87.0	245	8
2023-09-26T06:00	17417	87	-62.6	-87.0	242	8
2023-09-26T06:00	17441	87	-62.4	-87.1	239	8
2023-09-26T06:00	17464	86	-62.4	-87.1	238	9
2023-09-26T06:00	17490	86	-62.2	-87.2	238	9
2023-09-26T06:00	17514	86	-62.1	-87.4	238	9
2023-09-26T06:00	17538	85	-62.0	-87.3	240	9
2023-09-26T06:00	17563	85	-61.9	-87.3	243	9
2023-09-26T06:00	17587	85	-62.0	-87.6	247	9
2023-09-26T06:00	17612	84	-62.0	-87.6	251	9
2023-09-26T06:00	17634	84	-61.8	-87.5	256	10
2023-09-26T06:00	17657	84	-61.9	-87.6	260	10
2023-09-26T06:00	17685	83	-62.0	-87.6	264	11
2023-09-26T06:00	17707	83	-62.1	-87.7	267	11
2023-09-26T06:00	17734	83	-62.1	-87.7	270	11
2023-09-26T06:00	17758	82	-62.1	-87.7	272	11
2023-09-26T06:00	17780	82	-62.1	-87.7	274	11
2023-09-26T06:00	17804	82	-62.2	-88.1	276	11
2023-09-26T06:00	17828	81	-62.2	-88.1	277	10
2023-09-26T06:00	17854	81	-62.1	-88.0	278	9
2023-09-26T06:00	17876	81	-62.0	-88.0	280	9
2023-09-26T06:00	17902	80	-61.9	-88.2	282	8
2023-09-26T06:00	17920	80	-61.9	-88.2	284	7
2023-09-26T06:00	17949	80	-61.9	-88.2	286	7
2023-09-26T06:00	17971	79	-62.0	-88.7	287	6
2023-09-26T06:00	17996	79	-61.8	-88.5	287	5
2023-09-26T06:00	18017	79	-61.3	-88.5	285	4
2023-09-26T06:00	18041	79	-61.0	-88.3	280	4
2023-09-26T06:00	18065	78	-60.9	-88.2	271	3
2023-09-26T06:00	18091	78	-60.8	-88.5	257	3
2023-09-26T06:00	18112	78	-60.8	-88.5	242	3
2023-09-26T06:00	18136	77	-60.9	-88.2	228	3
2023-09-26T06:00	18160	77	-61.0	-88.3	218	3
2023-09-26T06:00	18182	77	-61.1	-88.4	214	4
2023-09-26T06:00	18206	76	-61.2	-88.4	213	4
2023-09-26T06:00	18227	76	-61.2	-88.4	214	5
2023-09-26T06:00	18250	76	-61.2	-88.4	215	5
2023-09-26T06:00	18273	76	-61.3	-88.1	215	6
2023-09-26T06:00	18298	75	-61.4	-88.2	215	6
2023-09-26T06:00	18320	75	-61.6	-88.4	215	7
2023-09-26T06:00	18340	75	-61.8	-88.5	216	7
2023-09-26T06:00	18363	75	-61.9	-88.6	218	7
2023-09-26T06:00	18387	74	-61.7	-88.4	222	7
2023-09-26T06:00	18408	74	-61.5	-88.7	226	8
2023-09-26T06:00	18431	74	-61.6	-88.7	229	8
2023-09-26T06:00	18455	73	-61.6	-88.7	232	8
2023-09-26T06:00	18477	73	-61.7	-88.8	234	8
2023-09-26T06:00	18501	73	-61.8	-88.9	235	8
2023-09-26T06:00	18524	73	-61.9	-89.0	236	8
2023-09-26T06:00	18545	72	-62.0	-89.0	236	8
2023-09-26T06:00	18570	72	-62.0	-89.0	237	8
2023-09-26T06:00	18587	72	-62.0	-89.0	239	7
2023-09-26T06:00	18613	72	-62.0	-89.0	242	7
2023-09-26T06:00	18637	71	-61.8	-89.3	245	6
2023-09-26T06:00	18655	71	-61.5	-89.1	248	6
2023-09-26T06:00	18681	71	-61.4	-89.4	251	5
2023-09-26T06:00	18705	71	-61.3	-89.4	252	5
2023-09-26T06:00	18725	70	-61.1	-89.2	252	5
2023-09-26T06:00	18748	70	-60.8	-89.0	250	5
2023-09-26T06:00	18769	70	-60.7	-88.9	248	5
2023-09-26T06:00	18792	70	-60.9	-89.5	246	4
2023-09-26T06:00	18815	69	-60.7	-89.4	244	4
2023-09-26T06:00	18838	69	-60.2	-89.0	242	3
2023-09-26T06:00	18858	69	-60.1	-88.9	241	3
2023-09-26T06:00	18882	69	-60.0	-88.9	243	3
2023-09-26T06:00	18908	68	-59.8	-88.7	246	2
2023-09-26T06:00	18933	68	-59.8	-88.7	249	2
2023-09-26T06:00	18956	68	-59.9	-88.8	246	2
2023-09-26T06:00	18980	68	-59.9	-88.8	238	2
2023-09-26T06:00	19004	67	-59.8	-88.7	230	2
2023-09-26T06:00	19028	67	-59.8	-88.7	227	2
2023-09-26T06:00	19053	67	-59.9	-88.8	227	2
2023-09-26T06:00	19075	66	-60.0	-88.9	232	2
2023-09-26T06:00	19101	66	-60.1	-88.9	238	2
2023-09-26T06:00	19125	66	-60.0	-88.9	244	2
2023-09-26T06:00	19149	66	-59.9	-88.8	247	2
2023-09-26T06:00	19173	65	-60.0	-88.9	245	2
2023-09-26T06:00	19199	65	-60.0	-88.9	239	2
2023-09-26T06:00	19222	65	-60.1	-88.9	229	2
2023-09-26T06:00	19245	65	-60.1	-88.9	220	2
2023-09-26T06:00	19271	64	-60.2	-89.0	213	2
2023-09-26T06:00	19299	64	-60.4	-89.2	208	3
2023-09-26T06:00	19318	64	-60.3	-89.1	204	3
2023-09-26T06:00	19341	64	-60.4	-89.2	201	3
2023-09-26T06:00	19363	63	-60.5	-89.2	199	3
2023-09-26T06:00	19389	63	-60.7	-89.4	196	4
2023-09-26T06:00	19413	63	-60.8	-89.5	195	4
2023-09-26T06:00	19440	63	-61.0	-89.1	196	4
2023-09-26T06:00	19462	62	-61.2	-89.3	198	5
2023-09-26T06:00	19487	62	-61.1	-89.2	202	5
2023-09-26T06:00	19510	62	-61.1	-89.2	208	5
2023-09-26T06:00	19537	62	-61.2	-89.8	216	6
2023-09-26T06:00	19562	62	-61.3	-89.8	225	6
2023-09-26T06:00	19585	61	-61.3	-89.8	234	6
2023-09-26T06:00	19612	61	-61.1	-89.7	240	6
2023-09-26T06:00	19638	61	-61.1	-89.7	244	6
2023-09-26T06:00	19664	61	-61.1	-89.7	246	6
2023-09-26T06:00	19689	60	-61.1	-89.7	246	6
2023-09-26T06:00	19713	60	-61.0	-89.6	244	6
2023-09-26T06:00	19737	60	-60.8	-89.5	242	6
2023-09-26T06:00	19764	60	-60.8	-89.5	240	6
2023-09-26T06:00	19787	59	-60.9	-89.5	240	7
2023-09-26T06:00	19813	59	-60.9	-89.5	240	7
2023-09-26T06:00	19838	59	-60.8	-89.5	240	7
2023-09-26T06:00	19862	59	-60.7	-89.4	241	7
2023-09-26T06:00	19886	58	-60.6	-89.3	243	8
2023-09-26T06:00	19911	58	-60.6	-89.3	247	8
2023-09-26T06:00	19937	58	-60.5	-89.2	251	8
2023-09-26T06:00	19959	58	-60.2	-89.5	255	8
2023-09-26T06:00	19989	57	-60.1	-89.5	260	8
2023-09-26T06:00	20010	57	-60.2	-89.5	264	8
2023-09-26T06:00	20037	57	-60.2	-89.0	268	8
2023-09-26T06:00	20062	57	-60.2	-89.0	272	7
2023-09-26T06:00	20084	57	-60.3	-89.1	277	6
2023-09-26T06:00	20110	56	-60.4	-89.2	283	6
2023-09-26T06:00	20128	56	-60.3	-89.1	290	5
2023-09-26T06:00	20157	56	-60.2	-89.0	297	5
2023-09-26T06:00	20177	56	-60.2	-89.5	304	4
2023-09-26T06:00	20204	55	-60.1	-89.5	309	4
2023-09-26T06:00	20227	55	-60.1	-89.5	312	4
2023-09-26T06:00	20250	55	-60.1	-89.5	315	4
2023-09-26T06:00	20275	55	-59.8	-89.2	316	4
2023-09-26T06:00	20300	55	-59.6	-89.1	316	4
2023-09-26T06:00	20321	54	-59.7	-89.2	312	4
2023-09-26T06:00	20348	54	-59.6	-89.1	304	3
2023-09-26T06:00	20372	54	-59.6	-89.7	292	3
2023-09-26T06:00	20395	54	-59.1	-89.3	279	3
2023-09-26T06:00	20418	54	-58.8	-89.1	266	3
2023-09-26T06:00	20442	53	-58.8	-89.1	255	3
2023-09-26T06:00	20468	53	-58.9	-89.2	248	3
2023-09-26T06:00	20494	53	-58.9	-89.2	244	3
2023-09-26T06:00	20512	53	-58.8	-89.1	243	4
2023-09-26T06:00	20542	53	-58.5	-88.9	244	4
2023-09-26T06:00	20565	52	-58.5	-88.9	246	4
2023-09-26T06:00	20588	52	-58.6	-88.9	250	4
2023-09-26T06:00	20613	52	-58.6	-88.9	256	4
2023-09-26T06:00	20635	52	-58.5	-88.9	265	4
2023-09-26T06:00	20658	52	-58.4	-88.8	275	4
2023-09-26T06:00	20685	51	-58.5	-88.9	286	4
2023-09-26T06:00	20711	51	-58.6	-88.9	296	4
2023-09-26T06:00	20736	51	-58.6	-88.9	304	4
2023-09-26T06:00	20759	51	-58.7	-89.0	309	4
2023-09-26T06:00	20784	51	-58.7	-89.0	312	4
2023-09-26T06:00	20809	50	-58.6	-88.9	314	4
2023-09-26T06:00	20834	50	-58.5	-88.9	316	3
2023-09-26T06:00	20859	50	-58.5	-88.9	317	2
2023-09-26T06:00	20881	50	-58.7	-89.0	319	2
2023-09-26T06:00	20907	50	-58.9	-89.2	321	2
2023-09-26T06:00	20933	49	-59.0	-89.2	323	2
2023-09-26T06:00	20957	49	-58.8	-89.1	323	2
2023-09-26T06:00	20982	49	-58.9	-89.2	323	2
2023-09-26T06:00	21009	49	-58.9	-88.6	323	3
2023-09-26T06:00	21035	49	-59.1	-88.7	323	3
2023-09-26T06:00	21059	48	-59.2	-88.8	323	2
2023-09-26T06:00	21089	48	-59.5	-89.0	321	2
2023-09-26T06:00	21113	48	-59.4	-89.0	314	2
2023-09-26T06:00	21140	48	-59.3	-88.9	297	1
2023-09-26T06:00	21167	48	-59.3	-88.9	266	1
2023-09-26T06:00	21190	47	-59.4	-89.0	244	1
2023-09-26T06:00	21214	47	-59.4	-89.0	238	2
2023-09-26T06:00	21244	47	-59.4	-89.0	240	2
2023-09-26T06:00	21270	47	-59.5	-89.6	243	3
2023-09-26T06:00	21295	47	-59.4	-89.5	245	3
2023-09-26T06:00	21317	46	-59.4	-89.5	246	4
2023-09-26T06:00	21342	46	-59.3	-89.5	246	4
2023-09-26T06:00	21369	46	-59.2	-89.4	246	4
2023-09-26T06:00	21395	46	-59.2	-89.4	248	4
2023-09-26T06:00	21419	46	-59.3	-89.5	255	4
2023-09-26T06:00	21444	46	-59.4	-89.5	263	4
2023-09-26T06:00	21471	45	-59.2	-89.4	272	5
2023-09-26T06:00	21498	45	-59.3	-89.5	280	5
2023-09-26T06:00	21520	45	-59.4	-89.5	287	5
2023-09-26T06:00	21548	45	-59.5	-89.0	292	5
2023-09-26T06:00	21570	45	-59.4	-89.0	296	5
2023-09-26T06:00	21602	44	-59.4	-89.5	296	5
2023-09-26T06:00	21627	44	-59.4	-89.5	294	5
2023-09-26T06:00	21650	44	-59.4	-89.5	289	5
2023-09-26T06:00	21677	44	-59.2	-89.4	280	4
2023-09-26T06:00	21698	44	-59.1	-89.3	270	4
2023-09-26T06:00	21724	44	-59.2	-89.4	261	4
2023-09-26T06:00	21754	43	-59.2	-89.4	255	4
2023-09-26T06:00	21781	43	-59.2	-89.4	253	4
2023-09-26T06:00	21802	43	-58.9	-89.2	257	4
2023-09-26T06:00	21824	43	-58.7	-89.7	264	4
2023-09-26T06:00	21850	43	-58.6	-89.6	273	4
2023-09-26T06:00	21880	42	-58.5	-89.5	281	4
2023-09-26T06:00	21906	42	-58.6	-89.6	288	5
2023-09-26T06:00	21933	42	-58.7	-89.0	291	5
2023-09-26T06:00	21958	42	-58.9	-89.2	293	5
2023-09-26T06:00	21982	42	-59.1	-89.3	293	5
2023-09-26T06:00	22006	42	-59.1	-89.3	294	5
2023-09-26T06:00	22031	41	-59.1	-89.3	296	5
2023-09-26T06:00	22060	41	-59.2	-89.4	299	5
2023-09-26T06:00	22084	41	-59.2	-89.4	305	4
2023-09-26T06:00	22109	41	-59.1	-89.3	314	4
2023-09-26T06:00	22133	41	-59.0	-89.2	324	4
2023-09-26T06:00	22161	41	-59.0	-89.2	334	4
2023-09-26T06:00	22190	40	-59.0	-89.2	342	4
2023-09-26T06:00	22212	40	-59.0	-89.2	348	4
2023-09-26T06:00	22239	40	-59.0	-89.2	353	5
2023-09-26T06:00	22262	40	-59.0	-89.9	358	5
2023-09-26T06:00	22289	40	-59.0	-89.9	4	5
2023-09-26T06:00	22314	40	-58.8	-89.7	12	5
2023-09-26T06:00	22339	39	-58.8	-89.7	21	5
2023-09-26T06:00	22366	39	-58.7	-89.7	32	4
2023-09-26T06:00	22394	39	-58.5	-89.5	46	3
2023-09-26T06:00	22421	39	-58.4	-89.4	64	3
2023-09-26T06:00	22449	39	-58.4	-89.4	85	3
2023-09-26T06:00	22474	39	-58.5	-89.5	101	3
2023-09-26T06:00	22501	38	-58.5	-89.5	112	4
2023-09-26T06:00	22527	38	-58.4	-89.4	117	4
2023-09-26T06:00	22551	38	-58.3	-89.4	120	5
2023-09-26T06:00	22581	38	-58.5	-89.5	123	5
2023-09-26T06:00	22606	38	-58.6	-88.9	126	5
2023-09-26T06:00	22631	38	-58.8	-89.1	131	5
2023-09-26T06:00	22656	38	-58.9	-89.2	136	5
2023-09-26T06:00	22685	37	-59.1	-89.3	143	5
2023-09-26T06:00	22714	37	-59.3	-89.5	150	5
2023-09-26T06:00	22738	37	-59.4	-89.5	157	5
2023-09-26T06:00	22761	37	-59.5	-89.6	165	4
2023-09-26T06:00	22790	37	-59.4	-89.5	173	4
2023-09-26T06:00	22822	37	-59.4	-89.5	181	5
2023-09-26T06:00	22847	36	-59.5	-89.6	188	5
2023-09-26T06:00	22875	36	-59.6	-89.7	195	5
2023-09-26T06:00	22901	36	-59.6	-89.7	203	5
2023-09-26T06:00	22926	36	-59.3	-90.1	213	5
2023-09-26T06:00	22956	36	-59.3	-90.1	222	5
2023-09-26T06:00	22977	36	-59.2	-90.0	231	5
2023-09-26T06:00	23005	35	-59.1	-90.0	237	5
2023-09-26T06:00	23033	35	-59.0	-89.9	240	6
2023-09-26T06:00	23058	35	-58.8	-89.7	243	6
2023-09-26T06:00	23085	35	-58.8	-89.7	247	6
2023-09-26T06:00	23115	35	-58.7	-89.7	252	5
2023-09-26T06:00	23139	35	-58.6	-89.6	259	5
2023-09-26T06:00	23162	35	-58.6	-89.6	267	5
2023-09-26T06:00	23190	34	-58.6	-89.6	276	5
2023-09-26T06:00	23214	34	-58.6	-89.6	284	5
2023-09-26T06:00	23241	34	-58.4	-89.4	292	5
2023-09-26T06:00	23268	34	-58.3	-90.1	300	5
2023-09-26T06:00	23293	34	-58.1	-90.0	307	5
2023-09-26T06:00	23314	34	-58.1	-90.0	313	5
2023-09-26T06:00	23349	34	-58.1	-90.0	322	5
2023-09-26T06:00	23371	33	-58.0	-89.9	332	4
2023-09-26T06:00	23398	33	-58.0	-89.9	343	4
2023-09-26T06:00	23427	33	-57.9	-89.8	353	4
2023-09-26T06:00	23449	33	-57.9	-89.8	360	4
2023-09-26T06:00	23473	33	-57.9	-89.8	3	4
2023-09-26T06:00	23496	33	-57.9	-89.8	6	4
2023-09-26T06:00	23526	33	-57.7	-89.7	7	3
2023-09-26T06:00	23553	33	-57.6	-89.6	10	2
2023-09-26T06:00	23577	32	-57.6	-89.6	15	1
2023-09-26T06:00	23603	32	-57.6	-89.6	40	1
2023-09-26T06:00	23629	32	-57.7	-89.7	137	0
2023-09-26T06:00	23664	32	-57.7	-89.7	160	1
2023-09-26T06:00	23682	32	-57.6	-89.6	165	1
2023-09-26T06:00	23718	32	-57.5	-89.5	165	1
2023-09-26T06:00	23738	32	-57.4	-89.4	159	1
2023-09-26T06:00	23769	31	-57.6	-89.6	133	0
2023-09-26T06:00	23794	31	-57.7	-89.7	86	0
2023-09-26T06:00	23825	31	-57.8	-89.7	75	1
2023-09-26T06:00	23850	31	-57.8	-89.7	84	1
2023-09-26T06:00	23880	31	-57.9	-89.8	105	1
2023-09-26T06:00	23910	31	-58.0	-89.9	131	1
2023-09-26T06:00	23937	31	-58.1	-90.0	154	1
2023-09-26T06:00	23966	30	-58.0	-89.9	168	2
2023-09-26T06:00	23989	30	-58.0	-89.9	177	2
2023-09-26T06:00	24020	30	-58.0	-89.9	182	3
2023-09-26T06:00	24051	30	-58.1	-90.0	187	3
2023-09-26T06:00	24078	30	-58.1	-90.0	191	4
2023-09-26T06:00	24106	30	-58.1	-90.0	194	4
2023-09-26T06:00	24133	30	-58.2	-90.0	198	4
2023-09-26T06:00	24160	30	-58.3	-89.4	202	5
2023-09-26T06:00	24190	29	-58.5	-89.5	206	5
2023-09-26T06:00	24218	29	-58.6	-90.3	211	4
2023-09-26T06:00	24246	29	-58.5	-90.2	216	4
2023-09-26T06:00	24273	29	-58.3	-90.1	222	3
2023-09-26T06:00	24301	29	-58.3	-90.1	229	3
2023-09-26T06:00	24332	29	-58.3	-90.1	234	2
2023-09-26T06:00	24362	29	-58.2	-90.0	240	2
2023-09-26T06:00	24382	29	-58.2	-90.0	244	2
2023-09-26T06:00	24418	28	-58.2	-90.0	245	2
2023-09-26T06:00	24436	28	-58.3	-90.1	242	2
2023-09-26T06:00	24470	28	-57.9	-89.8	237	2
2023-09-26T06:00	24497	28	-57.7	-89.7	229	3
2023-09-26T06:00	24528	28	-57.6	-90.4	221	4
2023-09-26T06:00	24553	28	-57.5	-89.5	214	4
2023-09-26T06:00	24580	28	-57.7	-89.7	209	5
2023-09-26T06:00	24602	28	-57.8	-89.7	207	6
2023-09-26T06:00	24630	27	-57.8	-89.7	206	7
2023-09-26T06:00	24655	27	-57.8	-89.7	206	7
2023-09-26T06:00	24683	27	-57.9	-89.8	208	8
2023-09-26T06:00	24713	27	-57.8	-89.7	212	8
2023-09-26T06:00	24739	27	-57.8	-89.7	217	8
2023-09-26T06:00	24771	27	-57.8	-89.7	224	8
2023-09-26T06:00	24800	27	-58.0	-89.9	232	8
2023-09-26T06:00	24822	27	-58.0	-89.9	241	9
2023-09-26T06:00	24851	27	-57.9	-89.8	250	9
2023-09-26T06:00	24876	26	-57.8	-89.7	257	9
2023-09-26T06:00	24896	26	-57.7	-89.7	262	9
2023-09-26T06:00	24926	26	-57.6	-90.4	265	9
2023-09-26T06:00	24949	26	-57.4	-90.3	267	9
2023-09-26T06:00	24972	26	-57.3	-90.2	269	9
2023-09-26T06:00	25005	26	-57.3	-90.2	273	8
2023-09-26T06:00	25030	26	-57.4	-90.3	277	7
2023-09-26T06:00	25055	26	-57.5	-90.4	281	7
2023-09-26T06:00	25080	26	-57.7	-90.5	285	8
2023-09-26T06:00	25112	25	-57.6	-90.4	287	8
2023-09-26T06:00	25139	25	-57.2	-90.1	287	9
2023-09-26T06:00	25165	25	-57.0	-90.0	288	9
2023-09-26T06:00	25187	25	-56.9	-89.9	288	9
2023-09-26T06:00	25214	25	-56.7	-89.8	290	8
2023-09-26T06:00	25241	25	-56.3	-89.5	292	8
2023-09-26T06:00	25271	25	-56.2	-89.4	296	7
2023-09-26T06:00	25295	25	-56.2	-89.4	300	6
2023-09-26T06:00	25325	25	-56.4	-89.6	305	6
2023-09-26T06:00	25348	24	-56.7	-89.8	311	5
2023-09-26T06:00	25377	24	-56.8	-89.9	315	5
2023-09-26T06:00	25403	24	-57.0	-89.2	319	4
2023-09-26T06:00	25433	24	-57.2	-90.1	318	4
2023-09-26T06:00	25467	24	-57.0	-90.0	312	3
2023-09-26T06:00	25491	24	-56.7	-89.8	301	4
2023-09-26T06:00	25524	24	-56.5	-89.6	291	4
2023-09-26T06:00	25550	24	-56.6	-89.7	286	5
2023-09-26T06:00	25587	24	-56.7	-89.8	284	6
2023-09-26T06:00	25607	23	-56.8	-89.9	285	7
2023-09-26T06:00	25644	23	-56.8	-89.9	286	8
2023-09-26T06:00	25670	23	-56.8	-89.9	288	8
2023-09-26T06:00	25704	23	-57.0	-90.0	290	9
2023-09-26T06:00	25732	23	-56.6	-90.7	291	9
2023-09-26T06:00	25759	23	-56.0	-90.3	291	9
2023-09-26T06:00	25797	23	-55.9	-90.2	292	9
2023-09-26T06:00	25832	23	-55.5	-89.9	293	8
2023-09-26T06:00	25861	23	-55.1	-89.6	294	7
2023-09-26T06:00	25891	22	-54.9	-89.5	297	6
2023-09-26T06:00	25923	22	-54.9	-89.5	301	6
2023-09-26T06:00	25956	22	-55.0	-89.6	307	5
2023-09-26T06:00	25979	22	-55.1	-89.6	316	5
2023-09-26T06:00	26015	22	-55.3	-88.8	326	5
2023-09-26T06:00	26046	22	-55.5	-88.9	336	5
2023-09-26T06:00	26072	22	-55.6	-89.0	344	5
2023-09-26T06:00	26114	22	-55.5	-88.9	351	6
2023-09-26T06:00	26137	22	-55.5	-88.9	356	6
2023-09-26T06:00	26170	22	-55.7	-89.1	1	6
2023-09-26T06:00	26200	21	-55.9	-89.2	4	6
2023-09-26T06:00	26232	21	-56.0	-89.3	5	5
2023-09-26T06:00	26255	21	-56.1	-89.4	3	5
2023-09-26T06:00	26276	21	-56.2	-89.4	356	5
2023-09-26T06:00	26306	21	-56.3	-89.5	344	5
2023-09-26T06:00	26340	21	-56.2	-89.4	332	5
2023-09-26T06:00	26364	21	-56.3	-89.5	322	6
2023-09-26T06:00	26396	21	-56.3	-89.5	315	6
2023-09-26T06:00	26421	21	-56.4	-89.6	310	7
2023-09-26T06:00	26455	21	-56.4	-89.6	307	8
2023-09-26T06:00	26480	20	-56.5	-89.6	306	9
2023-09-26T06:00	26508	20	-56.6	-89.7	306	10
2023-09-26T06:00	26531	20	-56.7	-89.8	306	10
2023-09-26T06:00	26569	20	-56.6	-89.7	306	11
2023-09-26T06:00	26594	20	-56.5	-89.6	306	11
2023-09-26T06:00	26618	20	-56.4	-89.6	305	11
2023-09-26T06:00	26648	20	-56.3	-89.5	304	11
2023-09-26T06:00	26672	20	-56.1	-90.4	303	10
2023-09-26T06:00	26705	20	-56.1	-89.4	303	10
2023-09-26T06:00	26735	20	-56.1	-89.4	304	9
2023-09-26T06:00	26758	20	-56.1	-89.4	305	9
2023-09-26T06:00	26785	20	-56.2	-89.4	308	9
2023-09-26T06:00	26819	19	-56.3	-89.5	311	8
2023-09-26T06:00	26844	19	-56.3	-89.5	313	8
2023-09-26T06:00	26869	19	-56.3	-89.5	313	7
2023-09-26T06:00	26908	19	-56.3	-89.5	312	6
2023-09-26T06:00	26940	19	-56.3	-89.5	308	6
2023-09-26T06:00	26963	19	-56.2	-89.4	301	5
2023-09-26T06:00	26990	19	-56.2	-89.4	293	6
2023-09-26T06:00	27022	19	-56.3	-89.5	287	6
2023-09-26T06:00	27054	19	-56.3	-89.5	284	6
2023-09-26T06:00	27086	19	-56.4	-89.6	283	7
2023-09-26T06:00	27108	19	-56.5	-89.6	285	7
2023-09-26T06:00	27141	18	-56.5	-89.6	288	8
2023-09-26T06:00	27174	18	-56.5	-89.6	292	9
2023-09-26T06:00	27192	18	-56.6	-89.7	296	9
2023-09-26T06:00	27228	18	-56.6	-89.7	300	10
2023-09-26T06:00	27264	18	-56.7	-89.8	303	10
2023-09-26T06:00	27296	18	-56.8	-89.9	307	10
2023-09-26T06:00	27330	18	-56.9	-89.9	309	11
2023-09-26T06:00	27360	18	-56.9	-89.9	311	11
2023-09-26T06:00	27386	18	-57.0	-90.0	311	11
2023-09-26T06:00	27416	18	-57.0	-90.0	311	10
2023-09-26T06:00	27453	18	-56.9	-89.9	309	10
2023-09-26T06:00	27493	18	-57.0	-90.0	308	9
2023-09-26T06:00	27511	17	-57.0	-90.0	307	8
2023-09-26T06:00	27547	17	-57.0	-90.0	307	8
2023-09-26T06:00	27581	17	-56.9	-89.9	308	7
2023-09-26T06:00	27605	17	-56.8	-89.9	309	7
2023-09-26T06:00	27644	17	-56.7	-89.8	311	7
2023-09-26T06:00	27671	17	-56.6	-89.7	312	7
2023-09-26T06:00	27703	17	-56.7	-90.8	314	7
2023-09-26T06:00	27730	17	-56.6	-90.7	316	6
2023-09-26T06:00	27756	17	-56.5	-90.6	318	6
2023-09-26T06:00	27784	17	-56.5	-90.6	319	5
2023-09-26T06:00	27818	17	-56.5	-90.6	318	5
2023-09-26T06:00	27833	17	-56.5	-90.6	318	5
2023-09-26T06:00	27868	16	-56.4	-90.6	319	5
2023-09-26T06:00	27895	16	-56.3	-90.5	320	4
2023-09-26T06:00	27928	16	-56.2	-90.4	321	4
2023-09-26T06:00	27955	16	-56.1	-90.4	321	4
2023-09-26T06:00	27978	16	-56.0	-90.3	317	4
2023-09-26T06:00	28003	16	-55.8	-90.1	308	4
2023-09-26T06:00	28027	16	-55.3	-89.8	297	4
2023-09-26T06:00	28054	16	-55.1	-89.6	288	4
2023-09-26T06:00	28079	16	-55.1	-89.6	283	5
2023-09-26T06:00	28112	16	-55.1	-89.6	281	6
2023-09-26T06:00	28133	16	-55.2	-89.7	282	6
2023-09-26T06:00	28159	16	-55.1	-89.6	283	6
2023-09-26T06:00	28188	16	-55.0	-89.6	284	6
2023-09-26T06:00	28223	16	-54.8	-89.4	285	6
2023-09-26T06:00	28246	16	-54.7	-89.4	284	6
2023-09-26T06:00	28273	15	-54.5	-89.2	283	6
2023-09-26T06:00	28306	15	-54.4	-89.1	281	7
2023-09-26T06:00	28324	15	-54.2	-89.0	279	7
2023-09-26T06:00	28348	15	-53.9	-88.8	278	8
2023-09-26T06:00	28371	15	-53.7	-88.7	277	9
2023-09-26T06:00	28404	15	-53.7	-88.7	277	9
2023-09-26T06:00	28427	15	-53.6	-88.6	278	9
2023-09-26T06:00	28453	15	-53.5	-88.5	279	9
2023-09-26T06:00	28484	15	-53.3	-88.4	280	9
2023-09-26T06:00	28516	15	-53.2	-88.3	283	9
2023-09-26T06:00	28539	15	-53.1	-88.2	286	9
2023-09-26T06:00	28567	15	-53.1	-88.2	290	9
2023-09-26T06:00	28598	15	-53.1	-88.2	293	9
2023-09-26T06:00	28634	15	-53.3	-88.4	296	9
2023-09-26T06:00	28654	15	-53.5	-88.5	298	9
2023-09-26T06:00	28691	15	-53.4	-88.4	299	8
2023-09-26T06:00	28722	14	-53.1	-88.2	300	8
2023-09-26T06:00	28751	14	-52.8	-88.0	301	8
2023-09-26T06:00	28777	14	-52.8	-88.0	303	8
2023-09-26T06:00	28800	14	-52.9	-88.1	304	8
2023-09-26T06:00	28848	14	-53.0	-88.2	305	9
2023-09-26T06:00	28881	14	-53.1	-88.2	306	10
2023-09-26T06:00	28897	14	-53.2	-88.3	307	10
2023-09-26T06:00	28940	14	-53.3	-88.4	308	10
2023-09-26T06:00	28969	14	-53.2	-88.3	308	10
2023-09-26T06:00	29011	14	-53.0	-88.2	309	10
2023-09-26T06:00	29038	14	-52.7	-87.9	309	9
2023-09-26T06:00	29074	14	-52.4	-87.7	308	8
2023-09-26T06:00	29102	14	-52.3	-87.7	306	7
2023-09-26T06:00	29133	14	-52.2	-87.6	302	7
2023-09-26T06:00	29169	13	-52.0	-87.4	297	6
2023-09-26T06:00	29201	13	-52.0	-87.4	290	5
2023-09-26T06:00	29229	13	-52.1	-87.5	283	5
2023-09-26T06:00	29266	13	-52.2	-87.6	277	5
2023-09-26T06:00	29310	13	-52.4	-87.7	272	5
2023-09-26T06:00	29326	13	-52.5	-87.8	268	6
2023-09-26T06:00	29357	13	-52.6	-87.9	266	6
2023-09-26T06:00	29392	13	-52.7	-87.9	265	6
2023-09-26T06:00	29424	13	-52.7	-87.9	264	7
2023-09-26T06:00	29458	13	-52.5	-87.8	263	7
2023-09-26T06:00	29497	13	-52.3	-87.7	264	7
2023-09-26T06:00	29520	13	-52.0	-87.4	265	7
2023-09-26T06:00	29553	13	-51.7	-87.2	268	7
2023-09-26T06:00	29588	13	-51.6	-87.2	271	7
2023-09-26T06:00	29629	13	-51.6	-87.2	274	7
2023-09-26T06:00	29658	12	-51.8	-87.3	277	7
2023-09-26T06:00	29690	12	-51.8	-87.3	279	8
2023-09-26T06:00	29730	12	-51.7	-87.2	281	8
2023-09-26T06:00	29749	12	-51.7	-87.2	283	9
2023-09-26T06:00	29778	12	-51.8	-87.3	285	9
2023-09-26T06:00	29814	12	-52.0	-87.4	289	9
2023-09-26T06:00	29842	12	-52.0	-87.4	292	10
2023-09-26T06:00	29875	12	-52.0	-87.4	296	9
2023-09-26T06:00	29898	12	-51.7	-87.2	300	9
2023-09-26T06:00	29937	12	-51.5	-87.1	302	9
2023-09-26T06:00	29969	12	-51.2	-86.9	302	8
2023-09-26T06:00	29995	12	-51.1	-86.8	300	8
2023-09-26T06:00	30026	12	-51.1	-86.8	297	8
2023-09-26T06:00	30062	12	-51.1	-86.8	294	8
2023-09-26T06:00	30086	12	-51.2	-86.9	292	7
2023-09-26T06:00	30106	12	-51.3	-87.0	292	7
2023-09-26T06:00	30147	12	-51.3	-87.0	293	7
2023-09-26T06:00	30177	12	-51.3	-87.0	294	6
2023-09-26T06:00	30196	11	-51.3	-87.0	296	6
2023-09-26T06:00	30230	11	-51.4	-87.0	296	6
2023-09-26T06:00	30248	11	-51.4	-87.0	295	6
2023-09-26T06:00	30288	11	-51.3	-87.0	294	6
2023-09-26T06:00	30308	11	-51.2	-86.9	291	6
2023-09-26T06:00	30357	11	-51.0	-86.7	288	6
2023-09-26T06:00	30374	11	-50.7	-86.5	286	6
2023-09-26T06:00	30412	11	-50.4	-86.3	285	6
2023-09-26T06:00	30419	11	-50.1	-86.1	286	7
2023-09-26T06:00	30473	11	-50.1	-86.1	288	7
2023-09-26T06:00	30508	11	-50.1	-86.1	291	8
2023-09-26T06:00	30532	11	-50.1	-86.1	293	8
2023-09-26T06:00	30562	11	-49.9	-86.0	294	8
2023-09-26T06:00	30594	11	-49.6	-85.8	295	8
2023-09-26T06:00	30621	11	-49.5	-85.7	296	8
2023-09-26T06:00	30652	11	-49.4	-85.6	296	7
2023-09-26T06:00	30687	11	-49.4	-85.6	298	7
2023-09-26T06:00	30705	11	-49.3	-85.5	300	7
2023-09-26T06:00	30742	11	-49.4	-85.6	303	7
2023-09-26T06:00	30768	11	-49.5	-85.7	307	7
2023-09-26T06:00	30808	10	-49.7	-85.8	311	8
2023-09-26T06:00	30834	10	-49.7	-85.8	315	8
2023-09-26T06:00	30859	10	-49.6	-85.8	318	9
2023-09-26T06:00	30891	10	-49.5	-85.7	321	10
2023-09-26T06:00	30915	10	-49.4	-85.6	323	10
2023-09-26T06:00	30959	10	-49.4	-85.6	325	10
2023-09-26T06:00	30972	10	-49.5	-85.7	326	10
2023-09-26T06:00	31000	10	-49.5	-85.7	327	9
2023-09-26T06:00	31039	10	-49.5	-85.7	328	9
2023-09-26T06:00	31069	10	-49.5	-85.7	328	8
2023-09-26T06:00	31093	10	-49.4	-85.6	328	8
2023-09-26T06:00	31140	10	-49.3	-85.5	326	7
2023-09-26T06:00	31168	10	-48.9	-85.3	324	7
2023-09-26T06:00	31191	10	-48.8	-85.2	321	6
2023-09-26T06:00	31227	10	-48.9	-85.3	316	6
2023-09-26T06:00	31248	10	-49.1	-85.4	310	6
2023-09-26T06:00	31285	10	-49.2	-85.5	304	5
2023-09-26T06:00	31323	10	-49.3	-85.5	297	5
2023-09-26T06:00	31349	10	-49.3	-85.5	291	6
2023-09-26T06:00	31372	10	-49.2	-85.5	286	6
2023-09-26T06:00	31424	10	-49.3	-85.5	283	6
2023-09-26T06:00	31439	10	-49.3	-85.5	282	7
2023-09-26T06:00	31484	9	-49.3	-85.5	282	7
2023-09-26T06:00	31521	9	-49.3	-85.5	283	8
2023-09-26T06:00	31543	9	-49.2	-85.5	284	8
2023-09-26T06:00	31578	9	-49.1	-85.4	285	8
2023-09-26T06:00	31611	9	-49.1	-85.4	286	9
2023-09-26T06:00	31634	9	-49.2	-85.5	286	9
2023-09-26T06:00	31669	9	-49.2	-85.5	286	9
2023-09-26T06:00	31692	9	-49.3	-85.5	287	9
2023-09-26T06:00	31716	9	-49.4	-85.6	289	9
2023-09-26T06:00	31751	9	-49.5	-85.7	292	9
2023-09-26T06:00	31792	9	-49.7	-85.8	295	9
2023-09-26T06:00	31807	9	-49.7	-85.8	297	9
2023-09-26T06:00	31843	9	-49.4	-85.6	298	9
2023-09-26T06:00	31882	9	-49.3	-85.5	297	9
2023-09-26T06:00	31915	9	-49.4	-85.6	295	9
2023-09-26T06:00	31950	9	-49.3	-85.5	292	10
2023-09-26T06:00	31966	9	-49.2	-85.5	289	10
2023-09-26T06:00	31998	9	-49.1	-85.4	286	9
2023-09-26T06:00	32032	9	-49.0	-85.3	284	9
2023-09-26T06:00	32058	9	-49.1	-85.4	283	8
2023-09-26T06:00	32089	9	-49.1	-85.4	282	7
2023-09-26T06:00	32102	9	-49.1	-85.4	282	6
2023-09-26T06:00	32142	9	-48.9	-85.3	282	6
2023-09-26T06:00	32174	9	-48.9	-85.3	283	5
2023-09-26T06:00	32216	8	-49.0	-85.3	285	5
2023-09-26T06:00	32245	8	-49.3	-85.5	286	4
2023-09-26T06:00	32280	8	-49.5	-85.7	287	4
2023-09-26T06:00	32295	8	-49.5	-85.7	286	4
2023-09-26T06:00	32325	8	-49.5	-85.7	283	4
2023-09-26T06:00	32356	8	-49.5	-85.7	277	4
2023-09-26T06:00	32407	8	-49.4	-85.6	269	4
2023-09-26T06:00	32436	8	-49.2	-85.5	262	5
2023-09-26T06:00	32455	8	-49.0	-85.3	257	5
2023-09-26T06:00	32484	8	-48.9	-85.3	253	6
2023-09-26T06:00	32500	8	-48.7	-85.1	250	6
2023-09-26T06:00	32535	8	-48.6	-85.0	247	7
2023-09-26T06:00	32546	8	-48.4	-84.9	246	7
2023-09-26T06:00	32608	8	-48.3	-84.8	247	8
2023-09-26T06:00	32629	8	-48.3	-84.8	249	8
2023-09-26T06:00	32667	8	-48.2	-84.8	252	8
2023-09-26T06:00	32697	8	-48.1	-84.7	255	9
2023-09-26T06:00	32722	8	-47.9	-84.6	258	9
2023-09-26T06:00	32753	8	-47.9	-84.6	260	9
2023-09-26T06:00	32790	8	-47.9	-84.6	261	9
2023-09-26T06:00	32852	8	-47.8	-84.5	262	9
2023-09-26T06:00	32855	8	-47.7	-84.4	262	8
2023-09-26T06:00	32900	8	-47.6	-84.3	263	8
2023-09-26T06:00	32926	8	-47.4	-84.2	264	8
2023-09-26T06:00	32967	8	-47.2	-84.1	266	8
2023-09-26T06:00	33013	8	-47.2	-84.1	269	9
2023-09-26T06:00	33045	7	-47.2	-84.1	271	10
2023-09-26T06:00	33063	7	-47.3	-84.1	273	10
2023-09-26T06:00	33102	7	-47.4	-84.2	275	10
2023-09-26T06:00	33122	7	-47.5	-84.3	276	10
2023-09-26T06:00	33163	7	-47.5	-84.3	278	10
2023-09-26T06:00	33209	7	-47.4	-84.2	280	10
2023-09-26T06:00	33221	7	-47.4	-84.2	283	9
2023-09-26T06:00	33267	7	-47.5	-84.3	288	8
2023-09-26T06:00	33298	7	-47.6	-84.3	293	8
2023-09-26T06:00	33343	7	-47.6	-84.3	299	8
2023-09-26T06:00	33357	7	-47.6	-84.3	305	8
2023-09-26T06:00	33385	7	-47.5	-84.3	308	8
2023-09-26T06:00	33419	7	-47.3	-84.1	309	8
2023-09-26T06:00	33455	7	-47.2	-84.1	309	8
2023-09-26T06:00	33493	7	-47.1	-84.0	308	8
2023-09-26T06:00	33516	7	-46.9	-83.9	305	8
2023-09-26T06:00	33556	7	-46.8	-83.8	303	8
2023-09-26T06:00	33584	7	-46.7	-83.7	301	8
2023-09-26T06:00	33593	7	-46.4	-83.5	299	8
2023-09-26T06:00	33658	7	-46.3	-83.4	297	8
2023-09-26T06:00	33681	7	-46.2	-83.4	295	7
2023-09-26T06:00	33721	7	-46.2	-83.4	293	7
2023-09-26T06:00	33729	7	-46.2	-83.4	290	6
2023-09-26T06:00	33778	7	-46.1	-83.3	288	6
2023-09-26T06:00	33808	7	-46.1	-83.3	285	6
2023-09-26T06:00	33821	7	-46.1	-83.3	282	7
2023-09-26T06:00	33852	7	-46.0	-83.2	280	7
2023-09-26T06:00	33888	7	-45.9	-83.2	279	8
2023-09-26T06:00	33903	7	-46.0	-83.2	277	9
2023-09-26T06:00	33939	7	-46.1	-83.3	276	9
2023-09-26T06:00	33971	6	-46.1	-83.3	275	10
2023-09-26T06:00	33981	6	-46.2	-83.4	274	11
2023-09-26T06:00	34040	6	-46.2	-83.4	273	12
2023-09-26T06:00	34050	6	-46.0	-83.2	273	13
2023-09-26T06:00	34075	6	-45.5	-82.9	274	14
2023-09-26T06:00	34110	6	-44.8	-82.4	275	15
2023-09-26T06:00	34151	6	-44.3	-82.0	278	16
2023-09-26T06:00	34187	6	-43.9	-81.8	281	16
2023-09-26T06:00	34220	6	-43.5	-81.5	284	17
2023-09-26T06:00	34226	6	-43.3	-81.3	287	17
2023-09-26T06:00	34270	6	-43.2	-81.3	290	17
2023-09-26T06:00	34322	6	-43.1	-81.2	292	17
2023-09-26T06:00	34337	6	-43.1	-81.2	293	18
2023-09-26T06:00	34373	6	-42.9	-81.1	294	18
2023-09-26T06:00	34374	6	-42.8	-81.0	295	18
2023-09-26T06:00	34421	6	-42.7	-80.9	296	18
2023-09-26T06:00	34470	6	-42.8	-81.0	298	18
2023-09-26T06:00	34487	6	-43.0	-81.1	299	18
2023-09-26T06:00	34520	6	-43.3	-81.3	299	18
2023-09-26T06:00	34550	6	-43.5	-81.5	299	17
2023-09-26T06:00	34587	6	-43.5	-81.5	299	17
2023-09-26T06:00	34618	6	-43.4	-81.4	299	17
2023-09-26T06:00	34638	6	-43.4	-81.4	299	17
2023-09-26T06:00	34685	6	-43.3	-81.3	300	16
2023-09-26T06:00	34737	6	-43.3	-81.3	301	16
2023-09-26T06:00	34781	6	-43.4	-81.4	302	16
2023-09-26T06:00	34809	6	-43.3	-81.3	300	16
2023-09-26T06:00	34832	6	-43.0	-81.1	298	16
2023-09-26T06:00	34845	6	-42.8	-81.0	296	16
2023-09-26T06:00	34885	6	-42.6	-80.8	293	16
2023-09-26T06:00	34923	6	-42.3	-80.6	291	16
2023-09-26T06:00	34982	6	-41.7	-80.2	286	15
2023-09-26T06:00	35027	6	-41.5	-80.1	284	14
2023-09-26T06:00	35058	6	-41.3	-79.9	282	14
2023-09-26T06:00	35081	6	-41.1	-79.8	281	13
2023-09-26T06:00	35086	6	-40.9	-79.7	281	13
2023-09-26T06:00	35124	5	-40.7	-79.5	282	12
2023-09-26T06:00	35152	5	-40.6	-79.5	284	12
2023-09-26T06:00	35204	5	-40.4	-79.3	287	12
2023-09-26T06:00	35217	5	-40.3	-79.2	289	12
2023-09-26T06:00	35232	5	-40.0	-79.0	292	13
2023-09-26T06:00	35250	5	-39.8	-78.9	295	14
2023-09-26T06:00	35328	5	-39.7	-78.8	298	15
2023-09-26T06:00	35348	5	-39.7	-78.8	304	16
2023-09-26T06:00	35396	5	-39.5	-78.7	308	17
2023-09-26T06:00	35408	5	-39.2	-78.5	311	17
2023-09-26T06:00	35438	5	-38.9	-78.3	314	17
2023-09-26T06:00	35451	5	-38.7	-78.1	316	17
2023-09-26T06:00	35493	5	-38.4	-77.9	318	17
2023-09-26T06:00	35530	5	-38.3	-77.9	320	17
2023-09-26T06:00	35548	5	-38.1	-77.7	322	17
2023-09-26T06:00	35555	5	-37.9	-77.6	323	17
2023-09-26T12:00	112	1010	22.8	14.6	130	2
2023-09-26T12:00	140	1007	21.3	14.6	148	2
2023-09-26T12:00	172	1003	20.8	14.3	157	2
2023-09-26T12:00	202	1000	19.8	14.0	169	3
2023-09-26T12:00	223	997	19.6	13.9	181	3
2023-09-26T12:00	247	995	19.4		190	3
2023-09-26T12:00	265	992	19.2	13.7	196	3
2023-09-26T12:00	280	991	19.0	13.8	198	3
2023-09-26T12:00	296	989	19.0	13.8	195	3
2023-09-26T12:00	309	987	18.8	13.8	181	2
2023-09-26T12:00	325	986	18.7	13.7	159	2
2023-09-26T12:00	344	983	18.4	13.7	143	3
2023-09-26T12:00	366	981	18.3	13.6	138	4
2023-09-26T12:00	387	978	18.1	13.5	140	4
2023-09-26T12:00	411	976	18.0	13.2	147	4
2023-09-26T12:00	436	973	17.7	13.2	157	4
2023-09-26T12:00	465	970	17.4	13.0	167	5
2023-09-26T12:00	482	968	17.4	12.8	174	5
2023-09-26T12:00	504	965	17.3	13.0	176	5
2023-09-26T12:00	523	963	16.9	13.2	172	5
2023-09-26T12:00	544	961	16.8	13.0	164	5
2023-09-26T12:00	562	959	16.6	13.0	151	5
2023-09-26T12:00	576	957	16.5	12.7	139	5
2023-09-26T12:00	593	955	16.5	12.6	133	5
2023-09-26T12:00	610	953	16.3	12.7	135	6
2023-09-26T12:00	629	951	16.1	12.8	142	6
2023-09-26T12:00	651	949	16.0	12.4	153	7
2023-09-26T12:00	676	946	15.8	12.2	164	7
2023-09-26T12:00	697	944	15.8	12.1	173	7
2023-09-26T12:00	719	941	15.8	11.9	181	7
2023-09-26T12:00	734	940	15.6	11.8	188	6
2023-09-26T12:00	749	938	15.8	11.7	192	6
2023-09-26T12:00	767	936	15.6	11.7	195	5
2023-09-26T12:00	783	934	15.1	11.6	195	5
2023-09-26T12:00	801	932	15.5	11.3	192	4
2023-09-26T12:00	818	930	15.4	11.8	186	4
2023-09-26T12:00	837	928	15.2	11.8	178	4
2023-09-26T12:00	854	926	15.0	11.8	169	5
2023-09-26T12:00	871	924	14.9	11.8	163	6
2023-09-26T12:00	895	922	14.7	11.9	158	7
2023-09-26T12:00	912	920	14.6	11.9	155	7
2023-09-26T12:00	929	918	14.4	11.9	155	8
2023-09-26T12:00	949	916	14.3	11.8	156	9
2023-09-26T12:00	967	914	14.3	11.7	159	9
2023-09-26T12:00	990	912	14.2	11.5	164	9
2023-09-26T12:00	1011	909	14.2	11.2	170	9
2023-09-26T12:00	1032	907	14.1	10.8	177	9
2023-09-26T12:00	1054	905	14.0	10.2	184	9
2023-09-26T12:00	1074	903	14.0	10.2	188	9
2023-09-26T12:00	1096	900	14.0	10.2	190	9
2023-09-26T12:00	1118	898	13.9	10.2	191	10
2023-09-26T12:00	1140	896	13.9	10.1	190	10
2023-09-26T12:00	1160	893	13.7		190	11
2023-09-26T12:00	1181	891	13.6	9.6	191	11
2023-09-26T12:00	1204	889	13.4	9.5	193	11
2023-09-26T12:00	1226	886	13.2	9.4	194	10
2023-09-26T12:00	1249	884	13.1	9.4	196	11
2023-09-26T12:00	1273	882	12.9	9.5	197	11
2023-09-26T12:00	1295	879	12.8	9.6	198	11
2023-09-26T12:00	1317	877	12.6	9.7	199	11
2023-09-26T12:00	1342	874	12.4	9.6	198	10
2023-09-26T12:00	1365	872	12.2	9.5	197	10
2023-09-26T12:00	1388	869	12.1	9.6	194	9
2023-09-26T12:00	1414	867	12.0	9.4	189	8
2023-09-26T12:00	1434	865	11.9	9.5	185	8
2023-09-26T12:00	1458	862	12.0	8.2	182	8
2023-09-26T12:00	1481	860	12.1	7.6	180	8
2023-09-26T12:00	1504	858	12.1	7.2	179	9
2023-09-26T12:00	1528	855	12.2	7.0	178	9
2023-09-26T12:00	1550	853	12.0	7.1	179	9
2023-09-26T12:00	1573	851	11.8	7.1	181	10
2023-09-26T12:00	1597	848	11.7	7.3	184	10
2023-09-26T12:00	1620	846	11.7	7.1	187	9
2023-09-26T12:00	1643	843	11.6	7.0	190	9
2023-09-26T12:00	1669	841	11.7	6.6	191	8
2023-09-26T12:00	1692	839	11.7	6.4	189	7
2023-09-26T12:00	1715	836	11.8	6.2	186	7
2023-09-26T12:00	1733	834	11.8	6.3	182	7
2023-09-26T12:00	1758	832	11.8	6.2	181	7
2023-09-26T12:00	1781	830	11.7	6.3	181	8
2023-09-26T12:00	1803	828	11.5	6.3	182	8
2023-09-26T12:00	1823	826	11.5	6.1	185	8
2023-09-26T12:00	1845	823	11.4	6.1	188	8
2023-09-26T12:00	1867	821	11.4	6.2	192	7
2023-09-26T12:00	1888	819	11.5	6.1	195	7
2023-09-26T12:00	1909	817	11.4	5.2	198	6
2023-09-26T12:00	1928	815	11.3	5.2	199	6
2023-09-26T12:00	1950	813	11.3	5.0	197	5
2023-09-26T12:00	1969	811	11.2	5.0	190	5
2023-09-26T12:00	1991	809	11.2	4.9	178	5
2023-09-26T12:00	2012	807	11.1	4.5	166	5
2023-09-26T12:00	2033	805	11.0	4.2	158	5
2023-09-26T12:00	2055	803	10.8	4.0	156	6
2023-09-26T12:00	2074	801	10.7	3.1	160	6
2023-09-26T12:00	2094	799	10.8	2.7	168	6
2023-09-26T12:00	2115	797	10.7	2.6	178	6
2023-09-26T12:00	2137	795	10.7	2.3	186	5
2023-09-26T12:00	2158	793	10.6	1.9	190	5
2023-09-26T12:00	2177	791	10.6	1.6	187	5
2023-09-26T12:00	2197	789	10.5	1.4	180	5
2023-09-26T12:00	2218	787	10.4	0.9	173	6
2023-09-26T12:00	2239	785	10.3	0.6	169	6
2023-09-26T12:00	2261	783	10.2	-0.1	168	7
2023-09-26T12:00	2280	782	10.1	-0.8	169	7
2023-09-26T12:00	2301	780	10.1	-1.0	170	7
2023-09-26T12:00	2321	778	9.9	-1.1	173	7
2023-09-26T12:00	2341	776	9.8	-0.3	177	8
2023-09-26T12:00	2363	774	9.7	0.1	180	8
2023-09-26T12:00	2384	772	9.6	-0.1	182	9
2023-09-26T12:00	2403	770	9.5	-0.5	184	9
2023-09-26T12:00	2425	768	9.6	0.7	186	10
2023-09-26T12:00	2444	766	9.5	0.8	188	10
2023-09-26T12:00	2466	764	9.4	0.8	193	9
2023-09-26T12:00	2487	762	9.2	0.6	198	9
2023-09-26T12:00	2508	760	9.1	0.0	202	9
2023-09-26T12:00	2528	759	9.0	-0.6	204	9
2023-09-26T12:00	2550	757	8.9	-0.7	203	10
2023-09-26T12:00	2571	755	8.7	-0.7	201	10
2023-09-26T12:00	2591	753	8.6	-0.7	197	11
2023-09-26T12:00	2610	751	8.4	-0.8	194	11
2023-09-26T12:00	2631	749	8.3	-0.8	192	11
2023-09-26T12:00	2652	747	8.1	-0.8	190	11
2023-09-26T12:00	2673	745	7.9	-1.1	189	11
2023-09-26T12:00	2693	744	7.7	-1.3	187	10
2023-09-26T12:00	2713	742	7.6	-1.3	186	10
2023-09-26T12:00	2734	740	7.4	-1.5	185	10
2023-09-26T12:00	2753	738	7.3	-2.3	185	10
2023-09-26T12:00	2771	736	7.2	-2.5	186	10
2023-09-26T12:00	2795	734	7.1	-2.8	187	11
2023-09-26T12:00	2815	733	7.1	-3.5	188	11
2023-09-26T12:00	2837	731	7.0	-3.5	189	12
2023-09-26T12:00	2857	729	6.8	-3.9	190	12
2023-09-26T12:00	2880	727	6.7	-3.9	190	12
2023-09-26T12:00	2901	725	6.6	-4.2	189	13
2023-09-26T12:00	2922	723	6.5	-4.9	189	13
2023-09-26T12:00	2942	721	6.4	-5.6	189	13
2023-09-26T12:00	2964	720	6.3	-6.3	189	13
2023-09-26T12:00	2984	718	6.2	-6.9	189	13
2023-09-26T12:00	3005	716	6.1	-7.4	190	13
2023-09-26T12:00	3024	714	6.1	-7.8	190	13
2023-09-26T12:00	3044	712	6.0	-7.5	191	12
2023-09-26T12:00	3065	711	5.9	-8.2	192	12
2023-09-26T12:00	3084	709	5.8	-8.1	193	12
2023-09-26T12:00	3107	707	5.7	-8.6	194	12
2023-09-26T12:00	3127	705	5.6	-9.7	194	12
2023-09-26T12:00	3148	703	5.6	-10.6	194	11
2023-09-26T12:00	3170	702	5.6	-10.9	193	11
2023-09-26T12:00	3190	700	5.6	-10.4	192	10
2023-09-26T12:00	3219	697	5.4	-10.3	193	10
2023-09-26T12:00	3249	695	5.2	-8.8	195	9
2023-09-26T12:00	3276	693	5.0	-8.7	199	8
2023-09-26T12:00	3300	691	4.8	-9.4	205	7
2023-09-26T12:00	3319	689	4.8	-11.5	210	7
2023-09-26T12:00	3340	687	4.8	-14.2	213	7
2023-09-26T12:00	3359	685	4.8	-15.0	213	7
2023-09-26T12:00	3381	684	4.7	-15.6	211	8
2023-09-26T12:00	3401	682	4.6	-15.3	209	8
2023-09-26T12:00	3435	679	4.4	-15.3	207	9
2023-09-26T12:00	3463	677	4.3	-16.8	206	9
2023-09-26T12:00	3489	675	4.1	-15.4	207	9
2023-09-26T12:00	3510	673	3.9	-15.1	209	9
2023-09-26T12:00	3530	671	3.7	-15.1	211	8
2023-09-26T12:00	3549	670	3.6	-15.0	211	8
2023-09-26T12:00	3574	668	3.4	-15.1	208	9
2023-09-26T12:00	3594	666	3.2	-15.3	203	9
2023-09-26T12:00	3621	664	3.0	-15.8	199	10
2023-09-26T12:00	3645	662	2.9	-16.1	196	12
2023-09-26T12:00	3662	660	2.7	-16.8	194	13
2023-09-26T12:00	3686	658	2.6	-15.9	193	13
2023-09-26T12:00	3706	657	2.5	-17.9	192	13
2023-09-26T12:00	3728	655	2.5	-16.7	191	13
2023-09-26T12:00	3747	653	2.5	-17.4	189	12
2023-09-26T12:00	3778	651	2.9	-24.9	187	12
2023-09-26T12:00	3802	649	2.9	-28.0	184	12
2023-09-26T12:00	3824	647	2.9	-29.0	182	11
2023-09-26T12:00	3844	646	2.8	-29.3	181	11
2023-09-26T12:00	3867	644	2.7	-29.9	181	11
2023-09-26T12:00	3887	642	2.6	-29.9	182	10
2023-09-26T12:00	3906	641	2.8	-31.6	183	10
2023-09-26T12:00	3929	639	2.7	-30.8	185	9
2023-09-26T12:00	3949	637	2.6	-30.7	188	9
2023-09-26T12:00	3970	636	2.5	-29.5	191	8
2023-09-26T12:00	3990	634	2.4	-28.8	194	8
2023-09-26T12:00	4012	633	2.2	-28.0	200	7
2023-09-26T12:00	4032	631	2.0	-27.6	207	7
2023-09-26T12:00	4051	629	1.9	-27.7	214	7
2023-09-26T12:00	4073	628	1.7	-28.9	219	8
2023-09-26T12:00	4093	626	1.6	-31.2	223	9
2023-09-26T12:00	4123	624	1.7	-35.7	225	10
2023-09-26T12:00	4144	622	1.4	-35.6	227	11
2023-09-26T12:00	4164	620	1.4	-35.0	228	11
2023-09-26T12:00	4188	619	1.1	-35.2	231	12
2023-09-26T12:00	4209	617	0.9	-35.3	233	12
2023-09-26T12:00	4231	615	0.9	-35.6	236	12
2023-09-26T12:00	4256	614	0.8	-36.0	236	12
2023-09-26T12:00	4280	612	0.7	-35.2	235	11
2023-09-26T12:00	4307	610	0.5	-33.6	232	11
2023-09-26T12:00	4336	607	0.3	-30.0	228	11
2023-09-26T12:00	4357	606	0.0	-27.7	226	10
2023-09-26T12:00	4377	604	-0.2	-30.3	225	10
2023-09-26T12:00	4402	602	-0.3	-34.9	226	10
2023-09-26T12:00	4427	601	-0.5	-33.3	227	9
2023-09-26T12:00	4447	599	-0.6	-32.9	228	9
2023-09-26T12:00	4473	597	-0.7	-36.5	229	9
2023-09-26T12:00	4495	595	-1.0	-37.0	229	9
2023-09-26T12:00	4517	594	-0.9	-37.5	229	9
2023-09-26T12:00	4540	592	-1.0	-37.9	228	9
2023-09-26T12:00	4567	590	-1.2	-37.7	227	8
2023-09-26T12:00	4589	588	-1.3	-37.2	226	8
2023-09-26T12:00	4615	587	-1.5	-36.3	226	9
2023-09-26T12:00	4636	585	-1.6	-36.4	227	9
2023-09-26T12:00	4658	583	-1.7	-35.2	228	9
2023-09-26T12:00	4683	582	-1.9	-31.4	230	10
2023-09-26T12:00	4705	580	-2.0	-31.2	230	9
2023-09-26T12:00	4726	578	-2.3	-30.7	230	9
2023-09-26T12:00	4766	576	-2.6	-29.4	228	8
2023-09-26T12:00	4795	573	-2.5	-30.5	225	7
2023-09-26T12:00	4817	572	-2.4	-38.9	222	7
2023-09-26T12:00	4839	570	-2.5	-40.7	219	7
2023-09-26T12:00	4865	568	-2.6	-40.4	216	8
2023-09-26T12:00	4886	567	-2.7	-38.5	213	8
2023-09-26T12:00	4909	565	-2.9	-35.1	210	8
2023-09-26T12:00	4931	564	-3.0	-36.2	207	8
2023-09-26T12:00	4955	562	-3.2	-35.3	205	8
2023-09-26T12:00	4976	560	-3.4	-34.9	203	8
2023-09-26T12:00	4996	559	-3.6	-35.1	205	8
2023-09-26T12:00	5017	557	-3.8	-35.0	208	9
2023-09-26T12:00	5042	556	-4.1	-35.3	212	9
2023-09-26T12:00	5064	554	-4.2	-35.0	215	9
2023-09-26T12:00	5086	553	-4.4	-33.8	216	10
2023-09-26T12:00	5106	551	-4.5	-37.4	216	10
2023-09-26T12:00	5129	550	-4.6	-37.5	214	10
2023-09-26T12:00	5152	548	-4.8	-37.4	212	10
2023-09-26T12:00	5176	546	-5.0	-36.0	211	10
2023-09-26T12:00	5199	545	-5.2	-36.0	211	10
2023-09-26T12:00	5220	543	-5.3	-35.9	212	10
2023-09-26T12:00	5241	542	-5.5	-36.2	214	10
2023-09-26T12:00	5268	540	-5.6	-36.5	217	10
2023-09-26T12:00	5287	539	-5.8	-36.6	220	10
2023-09-26T12:00	5313	537	-5.9	-37.4	223	10
2023-09-26T12:00	5333	536	-6.1	-37.8	223	9
2023-09-26T12:00	5355	534	-6.3		221	9
2023-09-26T12:00	5382	532	-6.5	-38.3	219	8
2023-09-26T12:00	5401	531	-6.7	-39.3	218	8
2023-09-26T12:00	5428	529	-6.9	-39.2	218	7
2023-09-26T12:00	5451	527	-7.1	-39.6	220	7
2023-09-26T12:00	5470	526	-7.2	-39.5	221	8
2023-09-26T12:00	5497	524	-7.4	-40.1	221	8
2023-09-26T12:00	5521	523	-7.5	-40.6	220	9
2023-09-26T12:00	5546	521	-7.7	-40.3	220	9
2023-09-26T12:00	5572	519	-7.9	-39.6	219	9
2023-09-26T12:00	5606	517	-8.2	-36.0	217	9
2023-09-26T12:00	5630	516	-8.3	-35.5	215	9
2023-09-26T12:00	5648	514	-8.5	-35.4	211	9
2023-09-26T12:00	5674	513	-8.7	-35.6	207	9
2023-09-26T12:00	5697	511	-8.9	-35.6	205	9
2023-09-26T12:00	5719	510	-9.2	-35.7	205	9
2023-09-26T12:00	5740	508	-9.3	-35.7	206	9
2023-09-26T12:00	5767	506	-9.5	-36.0	207	8
2023-09-26T12:00	5791	505	-9.6	-35.6	206	8
2023-09-26T12:00	5826	503	-9.6	-30.9	203	7
2023-09-26T12:00	5847	501	-9.8	-30.5	200	7
2023-09-26T12:00	5866	500	-9.9	-28.3	198	7
2023-09-26T12:00	5886	499	-10.1	-28.4	200	8
2023-09-26T12:00	5906	497	-10.2	-27.9	205	8
2023-09-26T12:00	5931	496	-10.5	-27.1	209	9
2023-09-26T12:00	5954	494	-10.7	-26.9	213	9
2023-09-26T12:00	5974	493	-10.9	-27.1	215	9
2023-09-26T12:00	6005	491	-11.1	-27.3	216	9
2023-09-26T12:00	6031	489	-11.3	-28.1	217	8
2023-09-26T12:00	6052	488	-11.5	-28.1	218	7
2023-09-26T12:00	6079	486	-11.7	-27.1	218	7
2023-09-26T12:00	6101	485	-11.9		218	6
2023-09-26T12:00	6120	484	-12.1	-27.1	219	6
2023-09-26T12:00	6142	482	-12.2	-27.8	220	6
2023-09-26T12:00	6165	481	-12.4	-28.1	221	7
2023-09-26T12:00	6189	479	-12.6	-28.6	222	7
2023-09-26T12:00	6208	478	-12.7	-28.1	221	7
2023-09-26T12:00	6232	477	-12.9	-28.0	219	8
2023-09-26T12:00	6258	475	-13.1	-25.7	218	8
2023-09-26T12:00	6281	473	-13.2	-24.6	218	8
2023-09-26T12:00	6313	472	-13.6	-24.8	220	8
2023-09-26T12:00	6336	470	-13.8	-24.6	222	9
2023-09-26T12:00	6357	469	-14.0	-25.0	223	9
2023-09-26T12:00	6377	468	-14.1	-25.6	223	8
2023-09-26T12:00	6400	466	-14.4	-26.3	223	8
2023-09-26T12:00	6422	465	-14.4	-26.8	222	8
2023-09-26T12:00	6442	464	-14.5	-27.2	222	7
2023-09-26T12:00	6463	462	-14.6	-27.6	223	7
2023-09-26T12:00	6491	461	-14.8	-27.8	224	7
2023-09-26T12:00	6512	459	-14.9	-28.1	224	7
2023-09-26T12:00	6535	458	-15.0	-28.0	223	7
2023-09-26T12:00	6555	457	-15.2	-28.1	222	7
2023-09-26T12:00	6580	455	-15.4	-28.2	221	7
2023-09-26T12:00	6604	454	-15.6	-28.2	220	7
2023-09-26T12:00	6631	452	-15.8	-28.4	220	7
2023-09-26T12:00	6648	451	-16.0	-28.6	222	7
2023-09-26T12:00	6668	450	-16.1	-28.8	224	7
2023-09-26T12:00	6696	448	-16.3	-30.1	225	7
2023-09-26T12:00	6714	447	-16.3	-30.4	224	6
2023-09-26T12:00	6739	446	-16.3	-24.3	221	6
2023-09-26T12:00	6759	445	-16.4	-24.1	218	6
2023-09-26T12:00	6777	443	-16.6	-23.4	217	6
2023-09-26T12:00	6798	442	-16.8	-22.6	217	7
2023-09-26T12:00	6825	441	-17.1	-22.6	220	7
2023-09-26T12:00	6844	440	-17.2	-22.7	223	7
2023-09-26T12:00	6862	438	-17.4	-22.6	227	7
2023-09-26T12:00	6887	437	-17.6	-23.0	230	6
2023-09-26T12:00	6912	436	-17.9	-23.2	231	6
2023-09-26T12:00	6933	434	-18.1	-22.2	229	6
2023-09-26T12:00	6960	433	-18.4	-22.0	227	6
2023-09-26T12:00	6983	431	-18.6	-21.7	226	7
2023-09-26T12:00	7005	430	-18.7	-21.8	227	7
2023-09-26T12:00	7024	429	-18.9	-21.9	231	8
2023-09-26T12:00	7055	427	-19.1	-22.5	235	8
2023-09-26T12:00	7081	426	-19.2	-22.9	238	8
2023-09-26T12:00	7109	424	-19.4	-23.5	239	8
2023-09-26T12:00	7139	423	-19.6	-23.7	237	8
2023-09-26T12:00	7168	421	-19.8	-23.9	234	8
2023-09-26T12:00	7196	419	-20.0	-24.0	230	8
2023-09-26T12:00	7219	418	-20.2	-23.8	227	8
2023-09-26T12:00	7241	417	-20.4	-24.1	225	8
2023-09-26T12:00	7261	416	-20.6	-24.3	225	8
2023-09-26T12:00	7285	414	-20.7	-24.4	227	8
2023-09-26T12:00	7304	413	-21.0	-24.5	231	7
2023-09-26T12:00	7326	412	-21.1	-24.5	234	7
2023-09-26T12:00	7346	411	-21.3	-24.6	235	7
2023-09-26T12:00	7369	410	-21.6	-24.9	233	7
2023-09-26T12:00	7397	408	-21.8	-24.9	230	8
2023-09-26T12:00	7423	407	-22.1	-25.1	228	8
2023-09-26T12:00	7447	405	-22.3	-25.2	229	8
2023-09-26T12:00	7466	404	-22.5	-25.2	233	8
2023-09-26T12:00	7490	403	-22.7	-25.2	238	8
2023-09-26T12:00	7510	402	-22.9	-25.3	242	8
2023-09-26T12:00	7531	401	-23.1	-25.4	244	8
2023-09-26T12:00	7559	399	-23.4	-25.5	244	8
2023-09-26T12:00	7591	397	-23.7	-26.0	242	8
2023-09-26T12:00	7614	396	-23.9	-26.0	239	8
2023-09-26T12:00	7633	395	-24.0	-26.1	236	8
2023-09-26T12:00	7654	394	-24.2	-26.1	235	8
2023-09-26T12:00	7674	393	-24.4	-26.4	236	8
2023-09-26T12:00	7697	392	-24.5	-26.7	238	8
2023-09-26T12:00	7718	391	-24.7	-27.0	241	8
2023-09-26T12:00	7740	389	-24.9	-27.0	244	9
2023-09-26T12:00	7766	388	-25.1	-27.2	247	9
2023-09-26T12:00	7793	387	-25.2	-27.8	247	9
2023-09-26T12:00	7814	385	-25.3	-29.2	247	10
2023-09-26T12:00	7840	384	-25.5	-29.2	245	10
2023-09-26T12:00	7863	383	-25.6	-29.2	242	10
2023-09-26T12:00	7885	382	-25.9	-29.1	239	10
2023-09-26T12:00	7906	381	-26.1	-29.4	237	11
2023-09-26T12:00	7933	379	-26.4	-29.9	236	11
2023-09-26T12:00	7954	378	-26.5	-29.8	235	11
2023-09-26T12:00	7973	377	-26.7	-29.8	235	10
2023-09-26T12:00	7998	376	-26.9	-30.2	236	10
2023-09-26T12:00	8020	375	-27.1	-30.5	237	10
2023-09-26T12:00	8039	374	-27.3	-30.5	238	10
2023-09-26T12:00	8060	373	-27.5	-30.6	238	10
2023-09-26T12:00	8082	371	-27.7	-30.7	238	10
2023-09-26T12:00	8110	370	-28.0	-30.8	238	11
2023-09-26T12:00	8138	369	-28.3	-31.9	237	11
2023-09-26T12:00	8158	367	-28.4	-31.9	236	10
2023-09-26T12:00	8178	366	-28.6	-31.9	234	10
2023-09-26T12:00	8203	365	-28.8	-32.6	233	9
2023-09-26T12:00	8226	364	-28.9	-33.4	231	8
2023-09-26T12:00	8244	363	-29.1	-33.7	231	8
2023-09-26T12:00	8269	362	-29.2	-34.4	233	8
2023-09-26T12:00	8290	361	-29.3	-35.6	235	8
2023-09-26T12:00	8310	360	-29.2	-37.4	237	9
2023-09-26T12:00	8331	359	-29.3	-38.8	238	9
2023-09-26T12:00	8351	358	-29.4	-39.9	238	9
2023-09-26T12:00	8371	357	-29.5	-40.4	238	9
2023-09-26T12:00	8394	356	-29.7	-40.7	240	8
2023-09-26T12:00	8413	354	-29.9	-41.3	244	8
2023-09-26T12:00	8446	353	-30.1	-43.6	250	7
2023-09-26T12:00	8467	352	-30.0	-47.3	255	7
2023-09-26T12:00	8487	351	-29.9	-52.7	260	6
2023-09-26T12:00	8506	350	-29.8	-53.8	263	6
2023-09-26T12:00	8521	349	-29.7	-54.2	262	5
2023-09-26T12:00	8540	348	-29.8	-53.6	261	5
2023-09-26T12:00	8559	347	-29.7	-49.3	259	5
2023-09-26T12:00	8580	346	-29.8	-46.1	259	5
2023-09-26T12:00	8601	345	-30.0	-46.7	259	5
2023-09-26T12:00	8620	344	-30.1	-46.6	260	5
2023-09-26T12:00	8639	343	-30.3	-45.5	262	5
2023-09-26T12:00	8662	342	-30.5	-44.4	263	5
2023-09-26T12:00	8685	341	-30.6	-44.0	265	6
2023-09-26T12:00	8702	340	-30.8	-44.4	265	5
2023-09-26T12:00	8722	340	-31.0	-44.4	264	5
2023-09-26T12:00	8743	339	-31.2		263	5
2023-09-26T12:00	8764	337	-31.3	-44.6	261	4
2023-09-26T12:00	8785	336	-31.5	-44.9	260	4
2023-09-26T12:00	8805	336	-31.6	-44.7	260	4
2023-09-26T12:00	8824	335	-31.8	-44.7	260	4
2023-09-26T12:00	8847	334	-31.9	-44.6	259	4
2023-09-26T12:00	8865	333	-32.1	-44.9	256	4
2023-09-26T12:00	8890	332	-32.3	-45.1	252	4
2023-09-26T12:00	8908	331	-32.5	-45.4	247	4
2023-09-26T12:00	8930	330	-32.7	-45.4	244	4
2023-09-26T12:00	8948	329	-32.8		243	4
2023-09-26T12:00	8969	328	-33.0	-45.8	244	4
2023-09-26T12:00	8992	327	-33.2	-45.8	248	4
2023-09-26T12:00	9016	326	-33.4	-45.7	251	4
2023-09-26T12:00	9040	325	-33.6	-45.8	254	4
2023-09-26T12:00	9064	323	-33.8	-45.6	256	4
2023-09-26T12:00	9084	322	-34.0	-45.5	257	4
2023-09-26T12:00	9106	321	-34.2	-45.5	259	4
2023-09-26T12:00	9128	320	-34.4	-45.6	260	4
2023-09-26T12:00	9149	319	-34.7	-45.8	262	4
2023-09-26T12:00	9170	319	-34.8	-45.9	264	5
2023-09-26T12:00	9190	318	-35.0	-46.0	264	5
2023-09-26T12:00	9214	317	-35.2	-45.9	264	4
2023-09-26T12:00	9235	316	-35.3	-45.8	262	4
2023-09-26T12:00	9256	315	-35.5	-46.2	260	5
2023-09-26T12:00	9276	314	-35.6	-45.7	259	5
2023-09-26T12:00	9296	313	-35.9	-45.8	259	5
2023-09-26T12:00	9317	312	-36.1	-46.0	259	5
2023-09-26T12:00	9337	311	-36.2	-46.6	261	5
2023-09-26T12:00	9357	310	-36.3	-47.1	262	5
2023-09-26T12:00	9379	309	-36.6	-46.9	263	5
2023-09-26T12:00	9399	308	-36.8	-46.9	264	5
2023-09-26T12:00	9418	307	-37.0	-46.8	265	5
2023-09-26T12:00	9443	306	-37.2	-47.0	267	5
2023-09-26T12:00	9465	305	-37.4	-47.1	268	5
2023-09-26T12:00	9482	305	-37.5	-47.0	269	6
2023-09-26T12:00	9503	304	-37.7	-46.6	270	6
2023-09-26T12:00	9523	303	-37.9	-46.7	270	6
2023-09-26T12:00	9541	302	-38.1	-47.0	271	5
2023-09-26T12:00	9561	301	-38.2	-47.3	273	6
2023-09-26T12:00	9581	300	-38.4	-47.1	274	6
2023-09-26T12:00	9601	299	-38.7	-47.2	274	6
2023-09-26T12:00	9622	298	-38.8	-47.4	275	6
2023-09-26T12:00	9641	298	-38.9	-47.6	274	6
2023-09-26T12:00	9661	297	-39.2	-47.7	274	6
2023-09-26T12:00	9682	296	-39.3	-48.1	273	6
2023-09-26T12:00	9709	295	-39.5	-48.8	272	6
2023-09-26T12:00	9735	294	-39.7	-49.4	271	5
2023-09-26T12:00	9758	293	-39.7	-49.6	267	5
2023-09-26T12:00	9778	292	-40.0	-49.7	263	5
2023-09-26T12:00	9806	291	-40.1	-50.0	259	5
2023-09-26T12:00	9836	289	-40.5	-50.2	255	6
2023-09-26T12:00	9875	288	-40.8	-50.7	253	7
2023-09-26T12:00	9897	287	-40.9	-51.8	251	7
2023-09-26T12:00	9916	286	-41.0	-52.3	249	7
2023-09-26T12:00	9937	285	-41.2	-52.1	246	7
2023-09-26T12:00	9960	284	-41.4	-52.2	242	7
2023-09-26T12:00	9980	283	-41.5	-52.6	239	7
2023-09-26T12:00	10003	282	-41.7	-52.8	237	7
2023-09-26T12:00	10025	281	-41.9	-52.8	235	7
2023-09-26T12:00	10045	280	-42.0	-53.1	234	7
2023-09-26T12:00	10066	280	-42.2	-53.2	234	7
2023-09-26T12:00	10088	279	-42.3	-53.4	235	7
2023-09-26T12:00	10109	278	-42.5	-53.7	236	7
2023-09-26T12:00	10129	277	-42.7	-53.7	237	7
2023-09-26T12:00	10150	276	-42.8	-53.7	238	7
2023-09-26T12:00	10171	275	-42.9	-54.0	238	6
2023-09-26T12:00	10195	274	-43.1	-54.4	237	6
2023-09-26T12:00	10217	273	-43.2	-54.5	237	7
2023-09-26T12:00	10239	273	-43.4	-54.7	236	7
2023-09-26T12:00	10262	272	-43.6	-54.7	236	7
2023-09-26T12:00	10283	271	-43.8	-54.8	235	7
2023-09-26T12:00	10309	270	-44.0	-54.8	235	8
2023-09-26T12:00	10331	269	-44.3	-54.9	236	8
2023-09-26T12:00	10356	268	-44.4	-55.1	237	7
2023-09-26T12:00	10377	267	-44.6	-55.1	238	7
2023-09-26T12:00	10399	266	-44.8	-54.9	239	7
2023-09-26T12:00	10420	265	-45.0	-55.0	239	7
2023-09-26T12:00	10440	264	-45.3	-55.2	238	6
2023-09-26T12:00	10462	264	-45.5	-55.2	235	6
2023-09-26T12:00	10488	262	-45.7	-55.1	231	6
2023-09-26T12:00	10522	261	-46.1	-55.2	228	6
2023-09-26T12:00	10556	260	-46.3	-55.3	228	6
2023-09-26T12:00	10578	259	-46.6	-55.5	230	6
2023-09-26T12:00	10601	258	-46.8	-55.4	234	6
2023-09-26T12:00	10625	257	-47.0	-55.3	238	7
2023-09-26T12:00	10657	256	-47.3	-55.3	242	7
2023-09-26T12:00	10684	255	-47.6	-55.5	244	8
2023-09-26T12:00	10707	254	-47.8	-55.6	244	8
2023-09-26T12:00	10732	253	-48.0	-55.8	243	8
2023-09-26T12:00	10756	252	-48.1	-56.0	242	8
2023-09-26T12:00	10792	251	-48.4	-56.3	242	9
2023-09-26T12:00	10827	249	-48.7	-56.6	243	9
2023-09-26T12:00	10851	249	-48.9	-57.0	245	9
2023-09-26T12:00	10874	248	-49.1	-57.1	247	9
2023-09-26T12:00	10895	247	-49.2	-57.2	248	8
2023-09-26T12:00	10920	246	-49.4	-57.3	249	8
2023-09-26T12:00	10944	245	-49.6	-57.3	249	9
2023-09-26T12:00	10970	244	-49.9	-57.4	250	9
2023-09-26T12:00	10994	243	-50.1	-57.4	250	9
2023-09-26T12:00	11019	242	-50.4	-57.4	250	9
2023-09-26T12:00	11043	241	-50.5	-57.5	250	9
2023-09-26T12:00	11066	241	-50.6	-57.9	250	9
2023-09-26T12:00	11089	240	-50.8	-58.3	251	9
2023-09-26T12:00	11113	239	-50.9	-58.3	251	9
2023-09-26T12:00	11136	238	-51.1	-58.4	252	9
2023-09-26T12:00	11159	237	-51.3	-58.4	253	9
2023-09-26T12:00	11181	236	-51.5	-58.4	254	9
2023-09-26T12:00	11203	235	-51.8	-58.6	254	9
2023-09-26T12:00	11225	235	-51.9	-58.9	254	9
2023-09-26T12:00	11248	234	-51.9	-59.2	255	9
2023-09-26T12:00	11272	233	-52.1	-59.6	255	10
2023-09-26T12:00	11292	232	-52.2	-59.7	255	10
2023-09-26T12:00	11312	232	-52.3	-59.9	254	10
2023-09-26T12:00	11335	231	-52.3	-60.1	253	10
2023-09-26T12:00	11356	230	-52.4	-60.5	252	10
2023-09-26T12:00	11382	229	-52.5	-60.8	250	10
2023-09-26T12:00	11402	228	-52.8	-61.2	247	9
2023-09-26T12:00	11424	228	-52.8	-61.5	244	9
2023-09-26T12:00	11445	227	-52.9	-62.1	239	9
2023-09-26T12:00	11469	226	-53.0	-62.6	235	9
2023-09-26T12:00	11495	225	-53.2	-62.8	231	10
2023-09-26T12:00	11519	224	-53.3	-62.6	228	10
2023-09-26T12:00	11541	223	-53.4	-62.4	225	10
2023-09-26T12:00	11566	223	-53.7	-62.5	224	10
2023-09-26T12:00	11593	222	-53.8	-62.5	225	10
2023-09-26T12:00	11622	221	-54.1	-62.7	230	10
2023-09-26T12:00	11668	219	-54.6	-63.0	236	9
2023-09-26T12:00	11691	218	-54.7	-63.1	242	10
2023-09-26T12:00	11710	218	-54.9	-63.4	246	10
2023-09-26T12:00	11728	217	-55.0	-63.4	248	10
2023-09-26T12:00	11751	216	-55.2	-63.3	249	10
2023-09-26T12:00	11783	215	-55.4	-63.3	250	10
2023-09-26T12:00	11807	214	-55.5	-63.5	251	10
2023-09-26T12:00	11827	214	-55.5	-63.9	250	10
2023-09-26T12:00	11847	213	-55.4	-64.2	248	10
2023-09-26T12:00	11868	212	-55.3	-64.3	246	10
2023-09-26T12:00	11886	212	-55.3	-64.5	245	10
2023-09-26T12:00	11910	211	-55.4	-64.8	246	10
2023-09-26T12:00	11931	210	-55.4	-65.0	248	10
2023-09-26T12:00	11954	210	-55.3	-65.1	251	11
2023-09-26T12:00	11973	209	-55.2	-64.9	253	11
2023-09-26T12:00	11996	208	-55.4	-64.9	254	11
2023-09-26T12:00	12016	207	-55.5	-64.8	255	11
2023-09-26T12:00	12034	207	-55.7	-64.9	254	11
2023-09-26T12:00	12057	206	-55.8	-64.9	253	11
2023-09-26T12:00	12079	205	-55.8	-64.9	251	11
2023-09-26T12:00	12099	205	-55.8	-65.1	249	11
2023-09-26T12:00	12120	204	-55.8	-65.5	248	11
2023-09-26T12:00	12140	203	-55.8	-65.9	247	11
2023-09-26T12:00	12164	203	-55.8	-66.0	247	11
2023-09-26T12:00	12187	202	-56.0	-66.1	247	11
2023-09-26T12:00	12213	201	-56.2	-66.1	246	11
2023-09-26T12:00	12236	200	-56.4	-66.1	244	11
2023-09-26T12:00	12262	200	-56.7	-66.1	241	11
2023-09-26T12:00	12286	199	-56.9	-66.1	238	11
2023-09-26T12:00	12310	198	-57.1	-66.1	236	11
2023-09-26T12:00	12333	197	-57.2	-66.3	235	11
2023-09-26T12:00	12357	197	-57.2	-66.5	235	11
2023-09-26T12:00	12377	196	-57.4	-66.6	235	11
2023-09-26T12:00	12399	195	-57.6	-66.6	235	11
2023-09-26T12:00	12423	195	-57.9	-66.7	235	11
2023-09-26T12:00	12448	194	-58.1	-66.7	235	11
2023-09-26T12:00	12473	193	-58.3	-66.8	234	10
2023-09-26T12:00	12498	192	-58.4	-66.9	234	10
2023-09-26T12:00	12524	191	-58.7	-67.0	233	10
2023-09-26T12:00	12549	191	-59.0	-67.0	233	10
2023-09-26T12:00	12572	190	-59.2	-67.0	234	11
2023-09-26T12:00	12593	189	-59.4	-67.0	234	11
2023-09-26T12:00	12618	189	-59.6	-67.0	234	11
2023-09-26T12:00	12640	188	-59.8	-67.0	234	11
2023-09-26T12:00	12663	187	-60.0	-67.1	233	11
2023-09-26T12:00	12687	187	-60.2	-67.1	233	11
2023-09-26T12:00	12713	186	-60.4	-67.2	232	11
2023-09-26T12:00	12734	185	-60.6	-67.3	232	11
2023-09-26T12:00	12757	184	-60.7	-67.4	231	11
2023-09-26T12:00	12778	184	-60.8	-67.6	230	11
2023-09-26T12:00	12800	183	-60.9	-67.6	228	11
2023-09-26T12:00	12825	182	-61.2	-67.9	226	11
2023-09-26T12:00	12849	182	-61.2	-68.1	223	11
2023-09-26T12:00	12873	181	-61.1	-68.5	221	12
2023-09-26T12:00	12896	180	-61.0	-69.0	219	12
2023-09-26T12:00	12915	180	-60.8	-69.4	219	12
2023-09-26T12:00	12938	179	-61.0	-70.0	220	12
2023-09-26T12:00	12966	178	-61.0	-70.2	222	12
2023-09-26T12:00	12999	177	-61.3	-70.3	226	12
2023-09-26T12:00	13026	177	-61.5	-70.2	230	13
2023-09-26T12:00	13059	176	-61.7	-70.1	233	13
2023-09-26T12:00	13087	175	-61.9	-70.0	234	14
2023-09-26T12:00	13109	174	-62.1	-69.9	235	14
2023-09-26T12:00	13131	174	-62.2	-69.8	235	14
2023-09-26T12:00	13154	173	-62.4	-69.9	234	14
2023-09-26T12:00	13180	172	-62.6	-69.9	234	14
2023-09-26T12:00	13205	172	-62.8	-70.0	235	14
2023-09-26T12:00	13231	171	-62.9	-70.0	238	14
2023-09-26T12:00	13262	170	-63.0	-70.2	241	14
2023-09-26T12:00	13286	169	-63.2	-70.4	246	15
2023-09-26T12:00	13313	169	-63.3	-70.5	250	15
2023-09-26T12:00	13336	168	-63.5	-70.7	254	16
2023-09-26T12:00	13359	167	-63.6	-70.9	256	16
2023-09-26T12:00	13382	167	-63.6	-71.1	257	17
2023-09-26T12:00	13404	166	-63.6	-71.4	258	17
2023-09-26T12:00	13425	166	-63.4	-71.6	258	16
2023-09-26T12:00	13451	165	-63.2	-71.8	259	16
2023-09-26T12:00	13473	164	-63.2	-72.4	259	16
2023-09-26T12:00	13498	164	-62.8	-72.9	260	16
2023-09-26T12:00	13523	163	-62.3	-73.3	261	17
2023-09-26T12:00	13545	162	-62.0	-73.9	262	17
2023-09-26T12:00	13567	162	-62.0	-74.6	263	17
2023-09-26T12:00	13590	161	-61.9	-74.9	264	17
2023-09-26T12:00	13614	161	-61.7	-75.3	264	17
2023-09-26T12:00	13636	160	-61.6	-75.9	265	17
2023-09-26T12:00	13660	159	-61.0	-76.2	266	17
2023-09-26T12:00	13682	159	-60.4	-76.6	267	18
2023-09-26T12:00	13705	158	-60.4	-77.2	269	18
2023-09-26T12:00	13726	158	-60.4	-77.8	270	19
2023-09-26T12:00	13747	157	-60.0	-77.8	272	19
2023-09-26T12:00	13770	157	-59.9	-78.2	272	19
2023-09-26T12:00	13791	156	-59.9	-78.7	273	20
2023-09-26T12:00	13815	155	-59.6	-79.1	273	20
2023-09-26T12:00	13838	155	-59.4	-79.4	273	20
2023-09-26T12:00	13863	154	-59.4	-79.7	272	19
2023-09-26T12:00	13888	154	-59.4	-79.7	272	19
2023-09-26T12:00	13912	153	-59.3	-79.5	271	18
2023-09-26T12:00	13934	153	-59.2	-79.4	271	18
2023-09-26T12:00	13955	152	-59.3	-79.5	271	17
2023-09-26T12:00	13980	151	-59.3	-79.5	271	17
2023-09-26T12:00	14003	151	-59.4	-79.6	272	16
2023-09-26T12:00	14027	150	-59.5	-79.6	272	16
2023-09-26T12:00	14049	150	-59.7	-79.7	273	16
2023-09-26T12:00	14072	149	-59.8	-79.7	274	15
2023-09-26T12:00	14095	149	-59.9	-79.8	274	14
2023-09-26T12:00	14120	148	-59.8	-79.8	274	14
2023-09-26T12:00	14142	148	-59.8	-79.9	273	13
2023-09-26T12:00	14166	147	-59.8	-80.0	270	13
2023-09-26T12:00	14198	146	-59.9	-80.4	266	12
2023-09-26T12:00	14226	146	-59.8	-80.4	260	12
2023-09-26T12:00	14251	145	-59.7	-80.6	254	11
2023-09-26T12:00	14282	144	-59.8	-80.7	248	11
2023-09-26T12:00	14317	144	-59.9	-80.8	244	10
2023-09-26T12:00	14339	143	-59.9	-80.8	241	10
2023-09-26T12:00	14364	142	-60.0	-80.9	239	10
2023-09-26T12:00	14387	142	-60.1	-80.8	236	11
2023-09-26T12:00	14408	141	-60.3	-81.0	234	11
2023-09-26T12:00	14433	141	-60.5	-81.1	231	12
2023-09-26T12:00	14456	140	-60.6	-81.1	228	13
2023-09-26T12:00	14477	140	-60.8	-81.4	225	13
2023-09-26T12:00	14502	139	-60.8	-81.5	223	14
2023-09-26T12:00	14523	139	-60.7	-81.6	222	14
2023-09-26T12:00	14549	138	-60.4	-81.5	222	15
2023-09-26T12:00	14574	138	-60.4	-81.5	223	15
2023-09-26T12:00	14600	137	-60.7	-81.7	223	15
2023-09-26T12:00	14630	136	-61.0	-81.7	225	15
2023-09-26T12:00	14658	136	-61.2	-81.7	226	15
2023-09-26T12:00	14681	135	-61.4	-81.9	228	15
2023-09-26T12:00	14709	135	-61.4	-81.9	230	15
2023-09-26T12:00	14733	134	-61.4	-81.9	232	15
2023-09-26T12:00	14756	134	-61.4	-81.9	233	15
2023-09-26T12:00	14777	133	-61.5	-81.9	233	16
2023-09-26T12:00	14801	133	-61.7	-82.0	234	16
2023-09-26T12:00	14823	132	-61.8	-81.9	234	16
2023-09-26T12:00	14846	132	-62.1	-82.1	234	16
2023-09-26T12:00	14867	131	-62.2	-82.0	235	16
2023-09-26T12:00	14892	131	-62.5	-82.1	236	16
2023-09-26T12:00	14917	130	-62.7	-82.2	237	16
2023-09-26T12:00	14940	130	-62.7	-82.2	238	17
2023-09-26T12:00	14962	129	-62.9	-82.2	240	17
2023-09-26T12:00	14988	129	-62.9	-82.2	242	18
2023-09-26T12:00	15010	128	-63.0	-82.3	243	18
2023-09-26T12:00	15031	128	-63.1	-82.3	245	19
2023-09-26T12:00	15055	127	-63.2	-82.4	246	19
2023-09-26T12:00	15077	127	-63.1	-82.4	247	19
2023-09-26T12:00	15100	126	-63.1	-82.4	248	19
2023-09-26T12:00	15126	126	-63.1	-82.6	249	19
2023-09-26T12:00	15150	125	-63.0	-82.7	249	18
2023-09-26T12:00	15171	125	-62.8	-82.8	249	18
2023-09-26T12:00	15195	125	-62.4	-82.7	249	17
2023-09-26T12:00	15218	124	-62.2	-82.9	249	16
2023-09-26T12:00	15242	124	-62.1	-83.1	249	15
2023-09-26T12:00	15265	123	-61.8	-83.2	249	14
2023-09-26T12:00	15292	123	-61.1	-82.9	249	14
2023-09-26T12:00	15315	122	-60.9	-83.0	249	13
2023-09-26T12:00	15338	122	-60.8	-83.2	249	13
2023-09-26T12:00	15361	121	-60.6	-83.1	249	13
2023-09-26T12:00	15382	121	-60.4	-82.9	248	13
2023-09-26T12:00	15406	120	-60.3	-82.8	246	13
2023-09-26T12:00	15431	120	-60.4	-82.7	245	13
2023-09-26T12:00	15454	119	-60.5	-82.6	243	13
2023-09-26T12:00	15480	119	-60.5	-82.6	241	13
2023-09-26T12:00	15504	118	-60.7	-82.6	239	13
2023-09-26T12:00	15526	118	-60.8	-82.5	237	13
2023-09-26T12:00	15546	118	-61.0	-82.5	235	13
2023-09-26T12:00	15571	117	-61.2	-82.7	232	13
2023-09-26T12:00	15595	117	-61.5	-82.8	231	13
2023-09-26T12:00	15620	116	-61.5	-82.8	230	13
2023-09-26T12:00	15645	116	-61.4	-82.7	230	13
2023-09-26T12:00	15669	115	-61.4	-82.6	231	13
2023-09-26T12:00	15690	115	-61.6	-82.7	232	12
2023-09-26T12:00	15716	114	-61.7		232	12
2023-09-26T12:00	15741	114	-61.9	-82.8	232	12
2023-09-26T12:00	15766	114	-62.0	-82.9	231	12
2023-09-26T12:00	15790	113	-62.1	-83.0	231	12
2023-09-26T12:00	15814	113	-62.1	-82.8	231	11
2023-09-26T12:00	15837	112	-62.2	-82.9	232	11
2023-09-26T12:00	15859	112	-62.4	-83.1	233	11
2023-09-26T12:00	15880	111	-62.6	-83.1	235	11
2023-09-26T12:00	15905	111	-62.8	-83.1	236	11
2023-09-26T12:00	15930	111	-62.8	-83.1	237	11
2023-09-26T12:00	15954	110	-63.0	-83.3	238	12
2023-09-26T12:00	15978	110	-63.0	-83.3	238	12
2023-09-26T12:00	16003	109	-63.3	-83.6	240	12
2023-09-26T12:00	16027	109	-63.3	-83.8	241	13
2023-09-26T12:00	16051	108	-62.8	-83.7	244	13
2023-09-26T12:00	16077	108	-62.5	-83.8	246	13
2023-09-26T12:00	16099	108	-62.3	-83.8	250	14
2023-09-26T12:00	16124	107	-62.2	-83.8	253	14
2023-09-26T12:00	16146	107	-62.3	-83.9	256	14
2023-09-26T12:00	16172	106	-62.3	-84.1	260	14
2023-09-26T12:00	16195	106	-62.1	-84.1	263	14
2023-09-26T12:00	16219	106	-62.0	-84.0	267	14
2023-09-26T12:00	16244	105	-61.8	-84.0	270	14
2023-09-26T12:00	16266	105	-61.6	-84.0	273	14
2023-09-26T12:00	16288	104	-61.5	-84.0	275	14
2023-09-26T12:00	16312	104	-61.4	-84.1	277	13
2023-09-26T12:00	16338	104	-61.4	-84.1	279	12
2023-09-26T12:00	16363	103	-61.3	-84.2	279	11
2023-09-26T12:00	16387	103	-61.3	-84.2	280	10
2023-09-26T12:00	16416	102	-61.4	-84.3	280	8
2023-09-26T12:00	16449	102	-61.5	-84.5	280	7
2023-09-26T12:00	16478	101	-61.3	-84.4	281	5
2023-09-26T12:00	16499	101	-61.0	-84.3	281	5
2023-09-26T12:00	16523	100	-61.0	-84.5	278	4
2023-09-26T12:00	16548	100	-60.9	-84.5	272	4
2023-09-26T12:00	16573	100	-60.9	-84.5	265	4
2023-09-26T12:00	16603	99	-60.9	-84.5	257	5
2023-09-26T12:00	16629	99	-60.9	-84.5	249	5
2023-09-26T12:00	16656	98	-60.9	-84.5	241	5
2023-09-26T12:00	16684	98	-61.0	-84.3	235	5
2023-09-26T12:00	16711	97	-61.1	-84.4	231	6
2023-09-26T12:00	16735	97	-61.2	-84.3	228	6
2023-09-26T12:00	16762	97	-61.5	-84.3	227	6
2023-09-26T12:00	16789	96	-61.7	-84.5	227	6
2023-09-26T12:00	16814	96	-62.0	-84.5	227	6
2023-09-26T12:00	16841	95	-62.2	-84.5	226	6
2023-09-26T12:00	16867	95	-62.5	-84.8	224	7
2023-09-26T12:00	16899	95	-62.7	-84.7	222	7
2023-09-26T12:00	16930	94	-63.0	-84.8	222	8
2023-09-26T12:00	16963	94	-63.2	-84.8	224	8
2023-09-26T12:00	16985	93	-63.3	-84.9	227	9
2023-09-26T12:00	17002	93	-63.4	-85.0	230	9
2023-09-26T12:00	17029	93	-63.4	-85.0	232	9
2023-09-26T12:00	17053	92	-63.5	-85.2	232	9
2023-09-26T12:00	17076	92	-63.4	-85.3	230	9
2023-09-26T12:00	17103	92	-63.1	-85.2	228	8
2023-09-26T12:00	17124	91	-62.9	-85.3	225	8
2023-09-26T12:00	17147	91	-62.7	-85.5	221	8
2023-09-26T12:00	17170	91	-62.3	-85.4	218	8
2023-09-26T12:00	17194	90	-62.1	-85.6	215	8
2023-09-26T12:00	17221	90	-61.1	-85.3	212	9
2023-09-26T12:00	17247	89	-60.8	-85.3	211	9
2023-09-26T12:00	17270	89	-61.0	-85.5	211	10
2023-09-26T12:00	17295	89	-61.1	-85.6	212	10
2023-09-26T12:00	17318	88	-61.2	-85.6	214	10
2023-09-26T12:00	17342	88	-61.3	-85.7	218	10
2023-09-26T12:00	17366	88	-61.4	-85.5	223	9
2023-09-26T12:00	17391	87	-61.4	-85.8	228	9
2023-09-26T12:00	17417	87	-61.5	-85.9	233	9
2023-09-26T12:00	17446	87	-61.3	-85.7	239	8
2023-09-26T12:00	17472	86	-61.2	-85.6	243	8
2023-09-26T12:00	17495	86	-61.3	-86.0	247	8
2023-09-26T12:00	17518	86	-61.4	-86.0	250	7
2023-09-26T12:00	17543	85	-61.4	-86.0	251	6
2023-09-26T12:00	17568	85	-61.4	-86.0	251	6
2023-09-26T12:00	17591	85	-61.4	-86.0	251	5
2023-09-26T12:00	17617	84	-61.4	-86.0	250	4
2023-09-26T12:00	17640	84	-61.6	-86.2	249	3
2023-09-26T12:00	17662	84	-61.7	-86.3	246	3
2023-09-26T12:00	17686	83	-61.5	-86.1	240	3
2023-09-26T12:00	17709	83	-61.3	-86.2	228	3
2023-09-26T12:00	17738	83	-61.3	-86.2	213	3
2023-09-26T12:00	17768	82	-61.3	-86.5	200	3
2023-09-26T12:00	17796	82	-61.3	-86.5	192	4
2023-09-26T12:00	17819	81	-61.1	-86.4	188	5
2023-09-26T12:00	17844	81	-61.1	-86.4	187	5
2023-09-26T12:00	17870	81	-61.2	-86.4	187	6
2023-09-26T12:00	17895	80	-61.3	-86.5	189	6
2023-09-26T12:00	17922	80	-61.7	-86.5	190	7
2023-09-26T12:00	17951	80	-61.9	-86.7	192	8
2023-09-26T12:00	17975	79	-62.0	-86.8	194	9
2023-09-26T12:00	18003	79	-62.0	-86.8	196	10
2023-09-26T12:00	18025	79	-62.1	-86.9	198	10
2023-09-26T12:00	18053	78	-62.0	-86.8	200	11
2023-09-26T12:00	18081	78	-61.7	-86.8	203	11
2023-09-26T12:00	18104	78	-61.5	-86.7	206	11
2023-09-26T12:00	18129	78	-61.5	-86.7	209	11
2023-09-26T12:00	18153	77	-61.6	-86.7	213	11
2023-09-26T12:00	18176	77	-61.8	-86.9	216	10
2023-09-26T12:00	18205	77	-61.9	-87.0	220	10
2023-09-26T12:00	18232	76	-62.0	-86.8	224	10
2023-09-26T12:00	18259	76	-62.0	-87.1	229	10
2023-09-26T12:00	18285	76	-62.1	-87.1	232	9
2023-09-26T12:00	18309	75	-62.1	-87.1	235	9
2023-09-26T12:00	18336	75	-61.8	-87.2	236	9
2023-09-26T12:00	18359	75	-61.8	-87.2	237	8
2023-09-26T12:00	18387	74	-61.6	-87.0	237	8
2023-09-26T12:00	18410	74	-61.5	-87.0	238	8
2023-09-26T12:00	18435	74	-61.6	-87.0	239	8
2023-09-26T12:00	18460	74	-61.7	-87.4	241	8
2023-09-26T12:00	18483	73	-61.5	-87.3	243	8
2023-09-26T12:00	18506	73	-61.5	-87.3	244	8
2023-09-26T12:00	18530	73	-61.5	-87.3	246	7
2023-09-26T12:00	18555	72	-61.3	-87.1	248	7
2023-09-26T12:00	18578	72	-61.2	-87.0	248	6
2023-09-26T12:00	18601	72	-61.2	-87.3	248	6
2023-09-26T12:00	18628	72	-61.0	-87.2	246	5
2023-09-26T12:00	18651	71	-60.9	-87.1	243	5
2023-09-26T12:00	18674	71	-60.7	-87.3	239	5
2023-09-26T12:00	18701	71	-60.7	-87.3	236	5
2023-09-26T12:00	18725	70	-60.8	-87.0	233	5
2023-09-26T12:00	18747	70	-60.8	-87.0	233	5
2023-09-26T12:00	18770	70	-60.9	-87.1	233	5
2023-09-26T12:00	18793	70	-60.9	-87.1	235	5
2023-09-26T12:00	18817	69	-60.9	-87.1	236	5
2023-09-26T12:00	18840	69	-60.9	-87.1	236	5
2023-09-26T12:00	18870	69	-61.0	-87.2	234	5
2023-09-26T12:00	18891	69	-60.9	-87.5	230	5
2023-09-26T12:00	18918	68	-60.8	-87.4	226	5
2023-09-26T12:00	18944	68	-60.7	-87.3	223	5
2023-09-26T12:00	18969	68	-60.6	-86.9	222	5
2023-09-26T12:00	18995	67	-60.7	-87.0	221	6
2023-09-26T12:00	19018	67	-60.9	-87.1	221	6
2023-09-26T12:00	19043	67	-61.2	-87.3	222	6
2023-09-26T12:00	19065	67	-61.3	-87.1	223	7
2023-09-26T12:00	19090	66	-61.3	-87.4	223	6
2023-09-26T12:00	19120	66	-61.2	-87.3	223	6
2023-09-26T12:00	19143	66	-61.2	-87.3	223	6
2023-09-26T12:00	19166	66	-61.3	-87.4	222	5
2023-09-26T12:00	19192	65	-61.3	-87.8	222	5
2023-09-26T12:00	19221	65	-61.0	-87.5	223	5
2023-09-26T12:00	19243	65	-60.5	-87.5	227	5
2023-09-26T12:00	19270	65	-60.1	-87.2	231	6
2023-09-26T12:00	19297	64	-60.0	-87.1	235	6
2023-09-26T12:00	19324	64	-59.8	-87.0	239	6
2023-09-26T12:00	19350	64	-59.8	-87.0	241	6
2023-09-26T12:00	19373	63	-59.9	-87.1	242	6
2023-09-26T12:00	19397	63	-60.2	-87.3	242	6
2023-09-26T12:00	19424	63	-60.3	-87.4	241	6
2023-09-26T12:00	19449	63	-60.3	-87.0	240	5
2023-09-26T12:00	19475	62	-60.4	-87.1	240	5
2023-09-26T12:00	19500	62	-60.5	-87.2	240	4
2023-09-26T12:00	19527	62	-60.4	-87.1	241	4
2023-09-26T12:00	19554	62	-60.4	-87.1	244	3
2023-09-26T12:00	19578	61	-60.3	-87.4	249	2
2023-09-26T12:00	19605	61	-60.2	-87.3	256	2
2023-09-26T12:00	19629	61	-60.2	-87.3	261	2
2023-09-26T12:00	19652	61	-60.3	-87.4	264	2
2023-09-26T12:00	19678	60	-60.3	-87.4	263	2
2023-09-26T12:00	19702	60	-60.2	-87.3	259	2
2023-09-26T12:00	19725	60	-60.3	-87.4	252	2
2023-09-26T12:00	19750	60	-60.2	-87.3	242	2
2023-09-26T12:00	19776	59	-60.2	-87.3	232	2
2023-09-26T12:00	19800	59	-60.2	-87.3	226	2
2023-09-26T12:00	19822	59	-60.1	-87.2	226	2
2023-09-26T12:00	19849	59	-60.1	-87.2	228	2
2023-09-26T12:00	19874	59	-59.9	-87.1	233	2
2023-09-26T12:00	19900	58	-59.7	-86.9	237	2
2023-09-26T12:00	19921	58	-59.7	-86.9	238	2
2023-09-26T12:00	19947	58	-59.8	-87.0	236	2
2023-09-26T12:00	19972	58	-59.8	-87.0	230	2
2023-09-26T12:00	19995	57	-59.8	-86.6	222	2
2023-09-26T12:00	20020	57	-59.7	-86.9	212	2
2023-09-26T12:00	20044	57	-59.7	-86.9	202	2
2023-09-26T12:00	20074	57	-59.6	-86.8	195	3
2023-09-26T12:00	20098	56	-59.5	-86.8	190	3
2023-09-26T12:00	20121	56	-59.6	-86.8	187	4
2023-09-26T12:00	20144	56	-59.6	-86.8	186	4
2023-09-26T12:00	20170	56	-59.5	-86.8	185	4
2023-09-26T12:00	20197	56	-59.5	-86.8	185	5
2023-09-26T12:00	20220	55	-59.8	-87.0	185	5
2023-09-26T12:00	20246	55	-59.8	-87.0	186	5
2023-09-26T12:00	20270	55	-59.7	-86.9	187	6
2023-09-26T12:00	20298	55	-59.8	-87.0	188	6
2023-09-26T12:00	20324	54	-59.9	-86.7	191	7
2023-09-26T12:00	20349	54	-60.0	-86.8	194	7
2023-09-26T12:00	20377	54	-60.1	-86.8	198	7
2023-09-26T12:00	20400	54	-60.1	-86.8	201	8
2023-09-26T12:00	20427	54	-60.0	-86.8	205	8
2023-09-26T12:00	20456	53	-60.1	-86.8	209	7
2023-09-26T12:00	20480	53	-59.9	-87.1	213	7
2023-09-26T12:00	20504	53	-59.8	-87.0	216	6
2023-09-26T12:00	20531	53	-59.8	-87.0	219	6
2023-09-26T12:00	20557	53	-59.9	-87.1	222	6
2023-09-26T12:00	20582	52	-59.9	-87.1	224	6
2023-09-26T12:00	20609	52	-59.8	-87.0	224	5
2023-09-26T12:00	20635	52	-59.7	-86.9	224	5
2023-09-26T12:00	20662	52	-59.6	-86.8	219	5
2023-09-26T12:00	20686	51	-59.5	-86.8	211	4
2023-09-26T12:00	20712	51	-59.6	-87.2	200	5
2023-09-26T12:00	20741	51	-59.4	-87.1	191	5
2023-09-26T12:00	20765	51	-59.0	-86.8	187	6
2023-09-26T12:00	20790	51	-58.9	-86.7	187	6
2023-09-26T12:00	20817	50	-58.8	-86.6	189	6
2023-09-26T12:00	20845	50	-58.6	-86.5	194	7
2023-09-26T12:00	20868	50	-58.7	-86.5	198	7
2023-09-26T12:00	20896	50	-58.9	-86.7	201	7
2023-09-26T12:00	20920	50	-58.9	-86.7	201	7
2023-09-26T12:00	20945	49	-58.9	-86.7	199	8
2023-09-26T12:00	20971	49	-58.7	-86.5	197	8
2023-09-26T12:00	20997	49	-58.6	-86.5	194	8
2023-09-26T12:00	21018	49	-58.7	-86.5	193	9
2023-09-26T12:00	21048	49	-58.8	-86.6	193	9
2023-09-26T12:00	21074	48	-58.8	-86.6	194	9
2023-09-26T12:00	21098	48	-58.6	-86.5	197	8
2023-09-26T12:00	21122	48	-58.5	-86.4	200	8
2023-09-26T12:00	21150	48	-58.5	-86.4	204	7
2023-09-26T12:00	21175	48	-58.6	-86.5	209	7
2023-09-26T12:00	21200	47	-58.6	-86.5	213	6
2023-09-26T12:00	21223	47	-58.4	-86.3	215	6
2023-09-26T12:00	21251	47	-58.4	-86.7	215	6
2023-09-26T12:00	21274	47	-58.5	-86.8	213	6
2023-09-26T12:00	21301	47	-58.4	-86.3	211	7
2023-09-26T12:00	21326	46	-58.3	-86.2	208	7
2023-09-26T12:00	21348	46	-58.3	-86.2	206	7
2023-09-26T12:00	21377	46	-58.4	-86.3	203	7
2023-09-26T12:00	21401	46	-58.5	-86.4	201	7
2023-09-26T12:00	21427	46	-58.6	-86.5	198	7
2023-09-26T12:00	21451	46	-58.8	-86.6	195	7
2023-09-26T12:00	21477	45	-58.9	-86.7	193	7
2023-09-26T12:00	21504	45	-59.0	-86.8	193	7
2023-09-26T12:00	21528	45	-58.9	-86.7	194	6
2023-09-26T12:00	21555	45	-58.5	-86.4	196	6
2023-09-26T12:00	21580	45	-58.4	-86.3	198	6
2023-09-26T12:00	21606	44	-58.4	-86.3	201	6
2023-09-26T12:00	21627	44	-58.5	-86.4	205	6
2023-09-26T12:00	21654	44	-58.5	-86.4	210	6
2023-09-26T12:00	21683	44	-58.7	-86.5	216	6
2023-09-26T12:00	21707	44	-58.9	-86.7	223	6
2023-09-26T12:00	21730	44	-58.9	-86.7	229	7
2023-09-26T12:00	21754	43	-59.0	-86.4	234	7
2023-09-26T12:00	21780	43	-59.1	-86.5	237	7
2023-09-26T12:00	21806	43	-59.2	-86.9	238	8
2023-09-26T12:00	21834	43	-59.3	-87.0	238	8
2023-09-26T12:00	21854	43	-59.2	-86.9	237	8
2023-09-26T12:00	21887	42	-59.0	-86.8	235	7
2023-09-26T12:00	21909	42	-59.0	-86.8	231	7
2023-09-26T12:00	21940	42	-59.2	-86.9	227	6
2023-09-26T12:00	21963	42	-59.4	-87.1	222	5
2023-09-26T12:00	21989	42	-59.4	-86.7	216	5
2023-09-26T12:00	22014	42	-59.4	-86.7	211	5
2023-09-26T12:00	22042	41	-59.5	-87.1	208	5
2023-09-26T12:00	22070	41	-59.4	-87.1	208	5
2023-09-26T12:00	22095	41	-59.4	-87.1	210	6
2023-09-26T12:00	22118	41	-59.3	-87.0	212	6
2023-09-26T12:00	22148	41	-59.1	-87.3	214	7
2023-09-26T12:00	22174	41	-59.0	-87.2	216	7
2023-09-26T12:00	22196	40	-59.0	-87.2	217	8
2023-09-26T12:00	22226	40	-59.0	-86.8	217	8
2023-09-26T12:00	22249	40	-59.0	-86.8	217	9
2023-09-26T12:00	22278	40	-59.2	-86.9	218	9
2023-09-26T12:00	22302	40	-59.3	-87.0	220	9
2023-09-26T12:00	22335	40	-59.3	-87.0	222	10
2023-09-26T12:00	22361	39	-59.3	-87.0	224	10
2023-09-26T12:00	22386	39	-59.4	-87.1	226	10
2023-09-26T12:00	22415	39	-59.5	-87.1	229	9
2023-09-26T12:00	22444	39	-59.7	-86.9	231	9
2023-09-26T12:00	22471	39	-59.7	-87.3	234	9
2023-09-26T12:00	22500	39	-59.8	-87.4	239	8
2023-09-26T12:00	22519	38	-59.9	-87.4	245	8
2023-09-26T12:00	22548	38	-59.8	-87.4	253	8
2023-09-26T12:00	22574	38	-59.7	-87.3	261	7
2023-09-26T12:00	22601	38	-59.6	-87.6	269	7
2023-09-26T12:00	22624	38	-59.3	-87.4	275	7
2023-09-26T12:00	22654	38	-59.0	-87.2	278	7
2023-09-26T12:00	22682	37	-58.6	-87.3	281	7
2023-09-26T12:00	22708	37	-58.5	-87.3	283	7
2023-09-26T12:00	22736	37	-58.4	-87.2	285	7
2023-09-26T12:00	22759	37	-58.3	-87.1	287	6
2023-09-26T12:00	22788	37	-58.5	-86.8	290	6
2023-09-26T12:00	22813	37	-58.7	-87.0	292	7
2023-09-26T12:00	22842	36	-58.6	-86.9	294	7
2023-09-26T12:00	22867	36	-58.7	-87.0	296	7
2023-09-26T12:00	22895	36	-58.7	-87.0	298	7
2023-09-26T12:00	22921	36	-58.9	-87.1	300	8
2023-09-26T12:00	22950	36	-59.0	-87.2	303	8
2023-09-26T12:00	22979	36	-59.0	-87.2	305	8
2023-09-26T12:00	23007	36	-58.7	-87.0	308	7
2023-09-26T12:00	23033	35	-58.4	-86.7	310	6
2023-09-26T12:00	23057	35	-58.5	-86.8	311	5
2023-09-26T12:00	23088	35	-58.6	-86.9	312	5
2023-09-26T12:00	23114	35	-58.7	-87.0	311	4
2023-09-26T12:00	23141	35	-58.9	-87.1	307	3
2023-09-26T12:00	23167	35	-59.1	-87.3	297	2
2023-09-26T12:00	23192	34	-59.2	-87.3	264	1
2023-09-26T12:00	23219	34	-59.2	-87.3	207	1
2023-09-26T12:00	23245	34	-59.1	-87.3	185	2
2023-09-26T12:00	23274	34	-59.2	-87.3	178	3
2023-09-26T12:00	23303	34	-59.3	-87.4	177	4
2023-09-26T12:00	23328	34	-59.3	-87.4	178	4
2023-09-26T12:00	23352	34	-59.2	-87.3	181	5
2023-09-26T12:00	23382	33	-59.3	-87.4	185	5
2023-09-26T12:00	23408	33	-59.2	-87.3	190	6
2023-09-26T12:00	23436	33	-59.2	-87.3	196	6
2023-09-26T12:00	23457	33	-59.2	-87.3	203	6
2023-09-26T12:00	23486	33	-59.2	-87.3	210	6
2023-09-26T12:00	23517	33	-59.3	-87.4	216	7
2023-09-26T12:00	23540	33	-59.2	-87.3	222	7
2023-09-26T12:00	23568	32	-59.0	-87.2	227	8
2023-09-26T12:00	23595	32	-58.8	-87.5	231	8
2023-09-26T12:00	23620	32	-58.7	-87.4	236	9
2023-09-26T12:00	23650	32	-58.6	-87.3	241	9
2023-09-26T12:00	23678	32	-58.7	-87.4	247	9
2023-09-26T12:00	23702	32	-58.7	-87.4	252	9
2023-09-26T12:00	23731	32	-58.8	-87.5	258	10
2023-09-26T12:00	23758	32	-58.7	-87.4	262	10
2023-09-26T12:00	23786	31	-58.7	-87.4	265	9
2023-09-26T12:00	23813	31	-58.6	-87.3	267	9
2023-09-26T12:00	23838	31	-58.3	-87.1	268	9
2023-09-26T12:00	23863	31	-58.1	-87.4	267	8
2023-09-26T12:00	23894	31	-58.0	-87.4	267	8
2023-09-26T12:00	23922	31	-57.7	-87.2	268	8
2023-09-26T12:00	23949	31	-57.3	-86.9	270	8
2023-09-26T12:00	23979	30	-57.1	-86.7	273	8
2023-09-26T12:00	24010	30	-57.1	-86.7	276	8
2023-09-26T12:00	24037	30	-57.2	-86.8	279	8
2023-09-26T12:00	24064	30	-57.2	-86.8	280	8
2023-09-26T12:00	24092	30	-57.1	-87.2	280	7
2023-09-26T12:00	24118	30	-57.0	-87.2	279	7
2023-09-26T12:00	24148	30	-56.6	-86.9	276	7
2023-09-26T12:00	24175	29	-56.4		273	6
2023-09-26T12:00	24205	29	-56.3	-86.1	270	6
2023-09-26T12:00	24235	29	-56.4	-86.2	268	6
2023-09-26T12:00	24266	29	-56.8	-86.5	267	6
2023-09-26T12:00	24298	29	-56.9	-86.6	270	5
2023-09-26T12:00	24326	29	-56.8	-86.5	275	6
2023-09-26T12:00	24354	29	-56.6	-86.3	281	6
2023-09-26T12:00	24383	29	-56.5	-86.3	286	6
2023-09-26T12:00	24410	28	-56.6	-86.3	289	7
2023-09-26T12:00	24436	28	-56.6	-86.3	291	7
2023-09-26T12:00	24467	28	-56.6	-86.3	293	8
2023-09-26T12:00	24498	28	-56.6	-86.3	296	9
2023-09-26T12:00	24529	28	-56.6	-86.3	299	9
2023-09-26T12:00	24556	28	-56.6	-86.3	303	10
2023-09-26T12:00	24587	28	-56.6	-86.3	307	10
2023-09-26T12:00	24610	28	-56.6	-86.3	311	10
2023-09-26T12:00	24641	27	-56.6	-86.3	314	10
2023-09-26T12:00	24668	27	-56.7	-86.4	318	10
2023-09-26T12:00	24701	27	-56.8	-86.5	321	10
2023-09-26T12:00	24729	27	-56.9	-86.6	324	10
2023-09-26T12:00	24755	27	-57.0	-86.6	328	9
2023-09-26T12:00	24780	27	-56.8	-86.5	331	9
2023-09-26T12:00	24809	27	-56.6	-86.3	335	8
2023-09-26T12:00	24839	27	-56.8	-86.5	338	8
2023-09-26T12:00	24868	26	-56.7	-86.4	342	7
2023-09-26T12:00	24896	26	-56.7	-86.4	346	6
2023-09-26T12:00	24920	26	-57.1	-86.7	350	6
2023-09-26T12:00	24950	26	-57.3	-86.9	355	5
2023-09-26T12:00	24977	26	-57.4	-86.9	360	5
2023-09-26T12:00	25009	26	-57.3	-86.9	5	4
2023-09-26T12:00	25040	26	-57.3	-86.9	11	4
2023-09-26T12:00	25063	26	-57.2	-86.8	18	3
2023-09-26T12:00	25093	26	-57.0	-87.2	27	2
2023-09-26T12:00	25129	25	-56.7	-86.9	39	2
2023-09-26T12:00	25152	25	-56.6	-86.9	54	1
2023-09-26T12:00	25177	25	-56.5	-86.8	75	1
2023-09-26T12:00	25207	25	-56.4		115	1
2023-09-26T12:00	25238	25	-56.3	-86.6	166	1
2023-09-26T12:00	25263	25	-56.2	-86.6	189	1
2023-09-26T12:00	25295	25	-56.0	-86.4	197	2
2023-09-26T12:00	25325	25	-55.9	-86.3	203	2
2023-09-26T12:00	25355	25	-56.0	-86.4	210	2
2023-09-26T12:00	25384	24	-56.3	-86.6	219	3
2023-09-26T12:00	25414	24	-56.4		232	3
2023-09-26T12:00	25443	24	-56.4		249	3
2023-09-26T12:00	25473	24	-56.3	-86.6	269	3
2023-09-26T12:00	25502	24	-56.1	-86.5	292	3
2023-09-26T12:00	25530	24	-55.9	-86.3	312	3
2023-09-26T12:00	25557	24	-56.2	-86.6	326	4
2023-09-26T12:00	25598	24	-56.5	-86.8	334	5
2023-09-26T12:00	25617	24	-56.4		338	6
2023-09-26T12:00	25641	23	-56.5	-86.8	339	7
2023-09-26T12:00	25679	23	-56.6	-86.9	341	7
2023-09-26T12:00	25710	23	-56.4		342	7
2023-09-26T12:00	25740	23	-56.2	-86.6	344	6
2023-09-26T12:00	25766	23	-55.8	-86.9	345	6
2023-09-26T12:00	25802	23	-55.6	-86.7	347	5
2023-09-26T12:00	25828	23	-55.6	-86.7	347	4
2023-09-26T12:00	25861	23	-55.4	-86.6	345	2
2023-09-26T12:00	25892	23	-55.2	-86.4	335	1
2023-09-26T12:00	25917	22	-55.2	-86.4	257	1
2023-09-26T12:00	25958	22	-55.3	-86.5	202	1
2023-09-26T12:00	25982	22	-55.3	-85.9	198	2
2023-09-26T12:00	26008	22	-55.4	-86.0	200	3
2023-09-26T12:00	26044	22	-55.5	-86.1	205	4
2023-09-26T12:00	26070	22	-55.5	-86.1	210	5
2023-09-26T12:00	26101	22	-55.5	-86.1	215	5
2023-09-26T12:00	26130	22	-55.5	-86.1	220	6
2023-09-26T12:00	26159	22	-55.6	-86.1	224	6
2023-09-26T12:00	26188	22	-55.7	-86.2	229	6
2023-09-26T12:00	26217	21	-55.7	-86.2	235	6
2023-09-26T12:00	26243	21	-55.7	-86.2	243	6
2023-09-26T12:00	26275	21	-55.6	-86.1	253	5
2023-09-26T12:00	26303	21	-55.4	-86.6	267	5
2023-09-26T12:00	26341	21	-55.2	-86.4	282	4
2023-09-26T12:00	26360	21	-55.0	-86.3	298	4
2023-09-26T12:00	26397	21	-55.0	-86.3	313	4
2023-09-26T12:00	26428	21	-55.2	-86.4	326	5
2023-09-26T12:00	26460	21	-55.3	-85.9	335	5
2023-09-26T12:00	26480	21	-55.4	-86.0	342	6
2023-09-26T12:00	26515	20	-55.5	-86.1	346	6
2023-09-26T12:00	26541	20	-55.5	-86.1	348	6
2023-09-26T12:00	26576	20	-55.5	-86.7	348	6
2023-09-26T12:00	26603	20	-55.3	-86.5	345	5
2023-09-26T12:00	26633	20	-54.9	-86.2	338	4
2023-09-26T12:00	26668	20	-54.7	-86.1	326	4
2023-09-26T12:00	26701	20	-54.7	-86.1	308	3
2023-09-26T12:00	26719	20	-54.7	-86.1	290	3
2023-09-26T12:00	26758	20	-54.7	-86.1	276	4
2023-09-26T12:00	26785	20	-54.8	-86.1	267	5
2023-09-26T12:00	26814	20	-55.0	-85.7	262	6
2023-09-26T12:00	26840	19	-55.3	-85.9	260	6
2023-09-26T12:00	26874	19	-55.3	-85.9	260	6
2023-09-26T12:00	26900	19	-55.4	-86.0	260	6
2023-09-26T12:00	26935	19	-55.4	-86.0	261	6
2023-09-26T12:00	26957	19	-55.4	-86.0	261	6
2023-09-26T12:00	26988	19	-55.4	-86.0	259	5
2023-09-26T12:00	27022	19	-55.4	-86.6	258	5
2023-09-26T12:00	27050	19	-55.3	-86.5	256	4
2023-09-26T12:00	27077	19	-55.2	-86.4	257	4
2023-09-26T12:00	27096	19	-54.9	-86.2	259	4
2023-09-26T12:00	27137	19	-54.8	-86.1	263	3
2023-09-26T12:00	27166	18	-54.6	-86.0	265	3
2023-09-26T12:00	27203	18	-54.6	-86.0	264	3
2023-09-26T12:00	27222	18	-54.6	-86.0	261	4
2023-09-26T12:00	27254	18	-54.4	-85.8	258	4
2023-09-26T12:00	27289	18	-54.3	-86.4	257	4
2023-09-26T12:00	27320	18	-54.3	-86.4	258	4
2023-09-26T12:00	27354	18	-54.1	-86.3	263	3
2023-09-26T12:00	27376	18	-53.9	-86.2	271	3
2023-09-26T12:00	27406	18	-53.9	-86.2	280	3
2023-09-26T12:00	27438	18	-54.0	-86.2	285	3
2023-09-26T12:00	27464	18	-54.0	-86.2	285	3
2023-09-26T12:00	27498	18	-53.8	-86.1	283	3
2023-09-26T12:00	27522	17	-53.6		279	4
2023-09-26T12:00	27554	17	-53.5	-85.9	275	4
2023-09-26T12:00	27587	17	-53.5	-85.9	272	4
2023-09-26T12:00	27617	17	-53.3	-85.7	269	4
2023-09-26T12:00	27644	17	-53.4	-85.8	266	4
2023-09-26T12:00	27674	17	-53.6		265	4
2023-09-26T12:00	27703	17	-53.6		265	5
2023-09-26T12:00	27736	17	-53.3	-85.7	267	5
2023-09-26T12:00	27759	17	-53.0	-85.5	270	5
2023-09-26T12:00	27794	17	-52.9	-85.4	272	5
2023-09-26T12:00	27819	17	-52.8	-85.3	273	5
2023-09-26T12:00	27852	17	-52.8	-85.3	274	5
2023-09-26T12:00	27880	17	-52.9	-85.4	275	5
2023-09-26T12:00	27908	16	-52.9	-85.4	277	5
2023-09-26T12:00	27942	16	-52.9	-85.4	278	5
2023-09-26T12:00	27967	16	-53.0	-85.5	279	5
2023-09-26T12:00	27996	16	-52.9	-85.4	280	5
2023-09-26T12:00	28025	16	-52.8	-85.3	281	4
2023-09-26T12:00	28055	16	-52.7	-85.3	281	4
2023-09-26T12:00	28074	16	-52.7	-85.3	279	4
2023-09-26T12:00	28117	16	-52.9	-85.4	275	4
2023-09-26T12:00	28142	16	-52.9	-85.4	269	4
2023-09-26T12:00	28180	16	-52.9	-85.4	263	4
2023-09-26T12:00	28200	16	-53.0	-85.5	259	5
2023-09-26T12:00	28239	16	-53.0	-85.5	258	5
2023-09-26T12:00	28259	16	-53.0	-85.5	259	6
2023-09-26T12:00	28292	16	-53.0	-85.5	261	6
2023-09-26T12:00	28328	15	-52.9	-85.4	265	7
2023-09-26T12:00	28355	15	-53.0	-85.5	269	7
2023-09-26T12:00	28383	15	-53.0	-85.5	274	7
2023-09-26T12:00	28409	15	-52.8	-85.3	279	7
2023-09-26T12:00	28431	15	-52.7	-85.3	283	8
2023-09-26T12:00	28464	15	-52.5	-85.9	286	8
2023-09-26T12:00	28492	15	-52.0	-85.5	288	8
2023-09-26T12:00	28520	15	-51.6	-85.2	289	8
2023-09-26T12:00	28562	15	-51.4	-85.1	290	8
2023-09-26T12:00	28585	15	-51.2	-85.0	290	8
2023-09-26T12:00	28618	15	-51.0	-84.8	289	7
2023-09-26T12:00	28643	15	-50.8	-84.7	288	7
2023-09-26T12:00	28681	15	-50.7	-84.6	286	6
2023-09-26T12:00	28709	15	-50.4	-84.4	282	5
2023-09-26T12:00	28735	14	-50.3	-84.3	278	5
2023-09-26T12:00	28771	14	-50.5	-84.5	272	4
2023-09-26T12:00	28792	14	-50.7	-84.6	266	4
2023-09-26T12:00	28833	14	-50.6	-84.5	262	4
2023-09-26T12:00	28853	14	-50.6	-84.5	259	4
2023-09-26T12:00	28888	14	-50.7	-84.6	257	4
2023-09-26T12:00	28918	14	-50.9	-84.7	257	4
2023-09-26T12:00	28955	14	-51.1	-84.9	258	4
2023-09-26T12:00	28987	14	-51.2	-85.0	258	5
2023-09-26T12:00	29021	14	-51.0	-84.8	258	6
2023-09-26T12:00	29050	14	-50.9	-84.7	259	6
2023-09-26T12:00	29078	14	-50.8	-84.7	260	7
2023-09-26T12:00	29106	14	-50.7	-84.6	261	8
2023-09-26T12:00	29144	14	-50.7	-84.6	264	8
2023-09-26T12:00	29165	14	-50.7	-84.6	268	9
2023-09-26T12:00	29201	13	-50.6	-84.5	272	9
2023-09-26T12:00	29232	13	-50.6	-84.5	277	9
2023-09-26T12:00	29271	13	-50.5	-84.5	281	9
2023-09-26T12:00	29286	13	-50.6	-84.5	286	9
2023-09-26T12:00	29320	13	-50.8	-84.7	290	10
2023-09-26T12:00	29357	13	-51.0	-84.8	295	10
2023-09-26T12:00	29383	13	-51.3	-84.3	298	11
2023-09-26T12:00	29427	13	-51.5	-84.4	300	11
2023-09-26T12:00	29460	13	-51.7	-84.5	301	12
2023-09-26T12:00	29489	13	-51.8	-84.6	302	13
2023-09-26T12:00	29525	13	-51.9	-84.7	301	13
2023-09-26T12:00	29554	13	-51.8	-84.6	299	13
2023-09-26T12:00	29578	13	-51.6	-85.2	298	12
2023-09-26T12:00	29613	13	-51.5	-85.2	296	12
2023-09-26T12:00	29634	13	-51.5	-85.2	294	11
2023-09-26T12:00	29669	13	-51.7	-84.5	293	10
2023-09-26T12:00	29700	12	-52.0	-84.8	292	9
2023-09-26T12:00	29727	12	-52.1	-84.8	290	8
2023-09-26T12:00	29752	12	-52.3	-85.0	287	7
2023-09-26T12:00	29794	12	-52.5	-85.1	283	7
2023-09-26T12:00	29823	12	-52.7	-85.3	278	6
2023-09-26T12:00	29859	12	-52.9	-85.4	274	6
2023-09-26T12:00	29881	12	-52.9	-85.4	274	6
2023-09-26T12:00	29911	12	-52.7	-85.3	277	6
2023-09-26T12:00	29944	12	-52.5	-85.1	282	7
2023-09-26T12:00	29970	12	-52.4	-85.1	288	7
2023-09-26T12:00	29994	12	-52.4	-85.1	292	8
2023-09-26T12:00	30029	12	-52.5	-85.1	295	8
2023-09-26T12:00	30068	12	-52.6	-85.2	297	9
2023-09-26T12:00	30095	12	-52.8	-85.3	298	9
2023-09-26T12:00	30130	12	-52.9	-85.4	298	9
2023-09-26T12:00	30157	12	-53.0	-85.5	298	8
2023-09-26T12:00	30191	12	-53.1	-85.6	296	8
2023-09-26T12:00	30213	12	-53.3	-85.7	292	7
2023-09-26T12:00	30260	11	-53.4	-85.8	287	7
2023-09-26T12:00	30286	11	-53.5	-85.9	280	7
2023-09-26T12:00	30323	11	-53.5	-85.9	274	7
2023-09-26T12:00	30346	11	-53.5	-85.9	268	7
2023-09-26T12:00	30369	11	-53.4	-85.8	264	7
2023-09-26T12:00	30412	11	-53.3	-85.7	261	8
2023-09-26T12:00	30456	11	-53.0	-86.3	259	8
2023-09-26T12:00	30480	11	-52.8	-86.1	258	8
2023-09-26T12:00	30501	11	-52.9	-86.2	258	8
2023-09-26T12:00	30540	11	-52.7	-86.0	257	8
2023-09-26T12:00	30565	11	-52.6		257	8
2023-09-26T12:00	30602	11	-52.5	-85.9	257	8
2023-09-26T12:00	30633	11	-52.4	-85.8	258	8
2023-09-26T12:00	30663	11	-52.4	-85.8	260	7
2023-09-26T12:00	30708	11	-52.3	-85.8	263	7
2023-09-26T12:00	30733	11	-52.2	-85.7	267	6
2023-09-26T12:00	30774	11	-52.2	-85.7	270	6
2023-09-26T12:00	30802	11	-52.1	-85.6	270	5
2023-09-26T12:00	30836	10	-52.0	-85.5	267	5
2023-09-26T12:00	30874	10	-52.0	-85.5	262	5
2023-09-26T12:00	30898	10	-52.1	-85.6	257	5
2023-09-26T12:00	30945	10	-52.0	-85.5	252	5
2023-09-26T12:00	30965	10	-51.9	-85.5	247	6
2023-09-26T12:00	31002	10	-51.9	-85.5	243	6
2023-09-26T12:00	31019	10	-51.8	-85.4	239	6
2023-09-26T12:00	31054	10	-51.6	-85.2	237	7
2023-09-26T12:00	31093	10	-51.5	-85.2	237	8
2023-09-26T12:00	31131	10	-51.4	-85.1	238	9
2023-09-26T12:00	31152	10	-51.4	-86.0	241	10
2023-09-26T12:00	31185	10	-51.3	-85.9	244	11
2023-09-26T12:00	31218	10	-51.0	-85.7	248	12
2023-09-26T12:00	31246	10	-50.8	-85.6	250	13
2023-09-26T12:00	31269	10	-50.6	-85.4	252	14
2023-09-26T12:00	31314	10	-50.3	-85.2	253	14
2023-09-26T12:00	31319	10	-50.0	-85.0	253	15
2023-09-26T12:00	31369	10	-49.5	-85.7	252	14
2023-09-26T12:00	31400	10	-49.1	-85.4	252	14
2023-09-26T12:00	31422	10	-48.8	-85.2	252	14
2023-09-26T12:00	31455	10	-48.6	-85.0	253	14
2023-09-26T12:00	31479	9	-48.5	-85.0	254	14
2023-09-26T12:00	31523	9	-48.4	-84.9	256	14
2023-09-26T12:00	31543	9	-48.2	-84.8	258	14
2023-09-26T12:00	31559	9	-48.2	-84.8	261	14
2023-09-26T12:00	31593	9	-48.3	-84.8	265	14
2023-09-26T12:00	31626	9	-48.2	-84.8	270	14
2023-09-26T12:00	31660	9	-47.8	-84.5	275	14
2023-09-26T12:00	31681	9	-47.3	-84.1	279	14
2023-09-26T12:00	31694	9	-47.1	-84.0	283	14
2023-09-26T12:00	31730	9	-47.1	-84.0	286	14
2023-09-26T12:00	31771	9	-47.1	-84.0	289	14
2023-09-26T12:00	31789	9	-47.0	-83.9	290	13
2023-09-26T12:00	31821	9	-46.9	-83.9	291	13
2023-09-26T12:00	31848	9	-46.8	-83.8	291	13
2023-09-26T12:00	31866	9	-46.8	-83.8	291	13
2023-09-26T12:00	31908	9	-46.6	-83.6	291	13
2023-09-26T12:00	31941	9	-46.6	-83.6	292	14
2023-09-26T12:00	31952	9	-46.8	-83.8	294	14
2023-09-26T12:00	31974	9	-46.7	-83.7	295	14
2023-09-26T12:00	32017	9	-46.4	-83.5	297	14
2023-09-26T12:00	32034	9	-46.3	-83.4	297	15
2023-09-26T12:00	32083	9	-46.3	-83.4	298	15
2023-09-26T12:00	32096	9	-46.3	-83.4	297	15
2023-09-26T12:00	32131	9	-46.3	-83.4	296	14
2023-09-26T12:00	32146	9	-46.3	-83.4	294	14
2023-09-26T12:00	32186	9	-46.2	-83.4	292	14
2023-09-26T12:00	32233	8	-46.4	-83.5	291	13
2023-09-26T12:00	32241	8	-46.5	-83.6	289	13
2023-09-26T12:00	32274	8	-46.6	-83.6	289	13
2023-09-26T12:00	32317	8	-46.7	-83.7	290	13
2023-09-26T12:00	32371	8	-46.8	-83.8	291	13
2023-09-26T12:00	32376	8	-47.1	-84.0	293	13
2023-09-26T12:00	32408	8	-47.3	-84.1	295	13
2023-09-26T12:00	32449	8	-47.3	-83.1	295	13
2023-09-26T12:00	32461	8	-47.6	-84.3	294	13
2023-09-26T12:00	32501	8	-47.8	-84.5	292	14
2023-09-26T12:00	32542	8	-47.6	-84.3	289	14
2023-09-26T12:00	32566	8	-47.1	-84.0	285	14
2023-09-26T12:00	32593	8	-46.9	-83.9	282	14
2023-09-26T12:00	32623	8	-47.0	-83.9	279	15
2023-09-26T12:00	32659	8	-47.2	-84.1	277	16
2023-09-26T12:00	32694	8	-47.3	-84.1	276	16
2023-09-26T12:00	32718	8	-47.4	-84.2	277	17
2023-09-26T12:00	32752	8	-47.2	-84.1	278	17
2023-09-26T12:00	32784	8	-47.0	-83.9	281	17
2023-09-26T12:00	32816	8	-47.0	-83.9	283	17
2023-09-26T12:00	32881	8	-47.1	-84.0	286	17
2023-09-26T12:00	32908	8	-47.0	-83.9	290	16
2023-09-26T12:00	32956	8	-46.9	-83.9	293	16
2023-09-26T12:00	32976	8	-46.8	-83.8	296	16
2023-09-26T12:00	33003	8	-46.8	-83.8	298	16
2023-09-26T12:00	33038	8	-46.9	-83.9	298	16
2023-09-26T12:00	33066	7	-47.0	-83.9	298	15
2023-09-26T12:00	33092	7	-46.9	-83.9	295	15
2023-09-26T12:00	33135	7	-46.5	-83.6	292	15
2023-09-26T12:00	33144	7	-46.1	-83.3	289	14
2023-09-26T12:00	33191	7	-45.8	-83.1	287	14
2023-09-26T12:00	33208	7	-45.9	-83.2	286	14
2023-09-26T12:00	33224	7	-45.9	-83.2	287	13
2023-09-26T12:00	33270	7	-45.7	-83.0	290	13
2023-09-26T12:00	33298	7	-45.7	-83.0	293	13
2023-09-26T12:00	33334	7	-45.7	-83.0	296	13
2023-09-26T12:00	33354	7	-45.7	-83.0	299	13
2023-09-26T12:00	33372	7	-45.8	-83.1	301	12
2023-09-26T12:00	33402	7	-46.0	-83.2	303	12
2023-09-26T12:00	33415	7	-46.3	-83.4	305	12
2023-09-26T12:00	33447	7	-46.3	-83.4	306	12
2023-09-26T12:00	33477	7	-46.3	-83.4	308	12
2023-09-26T12:00	33512	7	-46.4	-83.5	310	12
2023-09-26T12:00	33520	7	-46.2	-83.4	312	12
2023-09-26T12:00	33549	7	-45.9	-83.2	314	12
2023-09-26T12:00	33567	7	-45.8	-83.1	315	11
2023-09-26T12:00	33602	7	-46.0	-83.2	314	11
2023-09-26T12:00	33616	7	-46.1	-83.3	310	11
2023-09-26T12:00	33621	7	-45.8	-83.1	305	10
2023-09-26T12:00	33664	7	-45.5	-82.9	300	10
2023-09-26T12:00	33678	7	-45.5	-82.9	295	9
2023-09-26T12:00	33703	7	-45.5	-82.9	294	10
2023-09-26T12:00	33733	7	-45.2	-82.7	294	11
2023-09-26T18:00	112	1008	20.9	15.2	100	3
2023-09-26T18:00	138	1005	21.5	15.4	91	3
2023-09-26T18:00	163	1002	21.4	15.2	93	4
2023-09-26T18:00	188	999	21.4	15.1	92	5
2023-09-26T18:00	213	997	21.3	15.0	91	6
2023-09-26T18:00	232	994	21.1	15.1	89	7
2023-09-26T18:00	259	991	20.9	15.1	88	7
2023-09-26T18:00	286	988	20.7	15.0	87	7
2023-09-26T18:00	312	985	20.4	14.9	88	7
2023-09-26T18:00	336	983	20.2	14.9	90	7
2023-09-26T18:00	361	980	20.0	14.9	93	7
2023-09-26T18:00	384	977	19.8	14.7	96	7
2023-09-26T18:00	408	974	19.6	14.7	100	7
2023-09-26T18:00	434	972	19.4	14.6	103	7
2023-09-26T18:00	455	969	19.2	14.6	107	7
2023-09-26T18:00	481	966	19.0	14.5	110	7
2023-09-26T18:00	506	964	18.9	14.4	113	7
2023-09-26T18:00	526	961	18.7	14.4	116	7
2023-09-26T18:00	547	959	18.6	14.3	118	7
2023-09-26T18:00	570	956	18.4	14.2	121	7
2023-09-26T18:00	593	954	18.3	14.2	124	7
2023-09-26T18:00	613	951	18.2	14.0	127	7
2023-09-26T18:00	639	949	18.0	13.9	131	7
2023-09-26T18:00	663	946	17.9	13.9	134	7
2023-09-26T18:00	686	943	17.9	13.9	137	7
2023-09-26T18:00	707	941	17.9	13.9	140	7
2023-09-26T18:00	728	939	17.8	13.9	143	7
2023-09-26T18:00	750	936	17.6	13.8	145	7
2023-09-26T18:00	772	934	17.4	13.7	146	7
2023-09-26T18:00	796	932	17.2	13.6	146	7
2023-09-26T18:00	817	929	17.1	13.5	145	7
2023-09-26T18:00	841	927	16.9	13.3	145	6
2023-09-26T18:00	864	924	16.7	13.2	146	6
2023-09-26T18:00	890	921	16.5	13.2	148	6
2023-09-26T18:00	911	919	16.3	13.3	151	6
2023-09-26T18:00	933	917	16.1	13.1	155	6
2023-09-26T18:00	955	914	16.0	13.0	159	6
2023-09-26T18:00	974	912	15.9	12.9	164	6
2023-09-26T18:00	1003	909	15.8	12.7	169	6
2023-09-26T18:00	1027	907	15.6	12.6	174	6
2023-09-26T18:00	1050	904	15.5	12.6	178	7
2023-09-26T18:00	1073	902	15.3	12.5	182	7
2023-09-26T18:00	1095	899	15.1	12.4	185	8
2023-09-26T18:00	1119	897	15.0	12.4	188	8
2023-09-26T18:00	1140	894	14.8	12.3	189	8
2023-09-26T18:00	1166	892	14.6	12.2	189	8
2023-09-26T18:00	1190	889	14.4	12.2	188	8
2023-09-26T18:00	1214	887	14.3	12.0	187	8
2023-09-26T18:00	1233	885	14.1	12.0	188	8
2023-09-26T18:00	1255	882	13.9	11.8	191	8
2023-09-26T18:00	1280	880	13.8	11.9	195	8
2023-09-26T18:00	1308	877	13.5	11.7	199	8
2023-09-26T18:00	1336	874	13.4	11.5	201	8
2023-09-26T18:00	1361	872	13.2	11.4	202	8
2023-09-26T18:00	1381	869	13.1	11.3	203	9
2023-09-26T18:00	1404	867	13.0	11.1	204	9
2023-09-26T18:00	1426	865	13.0	10.8	204	9
2023-09-26T18:00	1447	863	12.9	10.6	204	10
2023-09-26T18:00	1473	860	12.7	10.4	203	10
2023-09-26T18:00	1499	857	12.6	10.2	201	11
2023-09-26T18:00	1523	855	12.8	8.5	199	11
2023-09-26T18:00	1553	852	12.9	7.6	198	11
2023-09-26T18:00	1577	849	13.5	5.8	197	11
2023-09-26T18:00	1605	847	13.9	5.3	196	11
2023-09-26T18:00	1632	844	14.0	5.2	196	11
2023-09-26T18:00	1656	841	14.1	5.1	197	11
2023-09-26T18:00	1680	839	14.1	5.4	197	10
2023-09-26T18:00	1709	836	14.0	5.7	198	10
2023-09-26T18:00	1733	834	13.8	5.7	199	10
2023-09-26T18:00	1762	831	13.6	5.5	201	10
2023-09-26T18:00	1790	828	13.7	4.8	204	10
2023-09-26T18:00	1814	826	13.7	5.0	206	10
2023-09-26T18:00	1835	824	13.7	4.9	208	10
2023-09-26T18:00	1856	822	13.5	4.7	207	10
2023-09-26T18:00	1881	819	13.4	4.3	207	10
2023-09-26T18:00	1905	817	13.3	4.4	207	11
2023-09-26T18:00	1929	815	13.2	4.4	208	11
2023-09-26T18:00	1953	812	13.1	4.0	209	11
2023-09-26T18:00	1975	810	12.9	3.9	210	11
2023-09-26T18:00	1997	808	12.8	3.8	210	11
2023-09-26T18:00	2019	806	12.7	4.0	210	11
2023-09-26T18:00	2040	804	12.6	3.7	209	11
2023-09-26T18:00	2065	802	12.6	3.7	209	11
2023-09-26T18:00	2085	800	12.6	3.5	209	11
2023-09-26T18:00	2109	797	12.5	2.3	209	11
2023-09-26T18:00	2134	795	12.4	2.8	208	11
2023-09-26T18:00	2157	793	12.2	2.9	208	11
2023-09-26T18:00	2177	791	12.1	3.0	207	12
2023-09-26T18:00	2202	789	12.0	2.3	207	12
2023-09-26T18:00	2225	786	12.0	2.3	208	12
2023-09-26T18:00	2246	784	11.9	2.0	208	12
2023-09-26T18:00	2268	782	11.9	1.5	209	12
2023-09-26T18:00	2289	780	12.0	1.1	209	12
2023-09-26T18:00	2312	778	11.9	0.8	208	12
2023-09-26T18:00	2328	777	11.8	0.7	207	12
2023-09-26T18:00	2355	774	11.6	0.4	206	12
2023-09-26T18:00	2379	772	11.4	0.1	205	12
2023-09-26T18:00	2399	770	11.2	-0.1	205	11
2023-09-26T18:00	2426	768	11.1	-0.2	205	11
2023-09-26T18:00	2446	766	10.9	-0.2	206	10
2023-09-26T18:00	2467	764	10.8	-0.2	207	10
2023-09-26T18:00	2485	762	10.7	0.0	209	10
2023-09-26T18:00	2509	760	10.5	-0.2	211	10
2023-09-26T18:00	2530	758	10.4	-0.4	213	10
2023-09-26T18:00	2551	756	10.3	-0.5	216	11
2023-09-26T18:00	2573	754	10.3	-0.8	219	11
2023-09-26T18:00	2599	752	10.2	-1.3	222	11
2023-09-26T18:00	2618	750	10.2	-1.2	223	11
2023-09-26T18:00	2638	748	10.0	-1.4	223	10
2023-09-26T18:00	2661	746	9.9	-1.5	221	10
2023-09-26T18:00	2687	744	9.6	-1.6	217	10
2023-09-26T18:00	2713	742	9.4	-1.6	214	10
2023-09-26T18:00	2734	740	9.2	-1.6	213	10
2023-09-26T18:00	2759	738	9.0	-1.5	213	10
2023-09-26T18:00	2782	735	8.8	-1.5	215	9
2023-09-26T18:00	2809	733	8.5	-1.5	217	9
2023-09-26T18:00	2835	731	8.3	-1.6	220	9
2023-09-26T18:00	2857	729	8.1	-1.5	222	9
2023-09-26T18:00	2877	727	7.9	-1.6	222	9
2023-09-26T18:00	2901	725	7.8		221	9
2023-09-26T18:00	2923	723	7.7	-2.2	218	9
2023-09-26T18:00	2946	721	7.7	-2.7	215	10
2023-09-26T18:00	2975	719	7.5	-2.7	211	10
2023-09-26T18:00	3004	716	7.3	-3.2	207	10
2023-09-26T18:00	3025	714	7.2	-3.8	203	9
2023-09-26T18:00	3054	712	7.1	-4.2	201	9
2023-09-26T18:00	3075	710	6.9	-4.5	200	9
2023-09-26T18:00	3097	708	6.8	-4.8	201	9
2023-09-26T18:00	3118	706	6.6	-4.7	202	10
2023-09-26T18:00	3140	704	6.4	-4.7	202	10
2023-09-26T18:00	3163	702	6.3	-4.9	203	10
2023-09-26T18:00	3188	700	6.1	-5.1	204	10
2023-09-26T18:00	3212	698	5.9	-5.1	205	10
2023-09-26T18:00	3235	696	5.8	-5.3	207	9
2023-09-26T18:00	3259	694	5.6	-5.6	209	9
2023-09-26T18:00	3282	692	5.5	-6.0	210	9
2023-09-26T18:00	3308	690	5.3	-6.3	211	9
2023-09-26T18:00	3327	688	5.2	-6.3	210	9
2023-09-26T18:00	3346	687	5.3	-9.4	209	9
2023-09-26T18:00	3369	685	5.4	-13.1	207	10
2023-09-26T18:00	3390	683	5.3	-14.4	207	10
2023-09-26T18:00	3416	681	5.2	-14.5	206	10
2023-09-26T18:00	3441	679	5.1	-14.7	206	10
2023-09-26T18:00	3463	677	4.9	-14.9	207	10
2023-09-26T18:00	3488	675	4.7	-15.0	208	10
2023-09-26T18:00	3512	673	4.5	-15.4	208	10
2023-09-26T18:00	3539	671	4.3	-16.0	208	10
2023-09-26T18:00	3564	669	4.1	-16.1	207	10
2023-09-26T18:00	3591	666	3.9	-16.0	206	10
2023-09-26T18:00	3617	664	3.7	-16.1	206	10
2023-09-26T18:00	3644	662	3.5	-16.7	208	11
2023-09-26T18:00	3671	660	3.3	-17.7	212	11
2023-09-26T18:00	3691	658	3.2	-17.7	215	11
2023-09-26T18:00	3711	657	3.0	-18.5	218	11
2023-09-26T18:00	3732	655	2.8	-18.6	219	11
2023-09-26T18:00	3752	653	2.7	-19.4	219	10
2023-09-26T18:00	3779	651	2.6	-19.1	218	10
2023-09-26T18:00	3805	649	2.4	-19.2	218	10
2023-09-26T18:00	3827	647	2.3	-20.1	217	10
2023-09-26T18:00	3857	645	2.0	-20.6	218	10
2023-09-26T18:00	3881	643	1.8	-19.8	219	10
2023-09-26T18:00	3904	641	1.6	-18.5	220	10
2023-09-26T18:00	3925	639	1.4	-18.6	222	10
2023-09-26T18:00	3949	637	1.2	-18.9	223	11
2023-09-26T18:00	3978	635	0.9	-19.3	225	10
2023-09-26T18:00	4004	633	0.7	-20.0	226	10
2023-09-26T18:00	4033	631	0.5	-19.3	225	10
2023-09-26T18:00	4057	629	0.3	-18.5	224	10
2023-09-26T18:00	4085	627	0.0	-16.8	221	11
2023-09-26T18:00	4107	625	0.0	-17.8	220	11
2023-09-26T18:00	4131	623	0.1	-23.8	219	12
2023-09-26T18:00	4153	622	0.0	-24.9	221	12
2023-09-26T18:00	4175	620	0.0	-23.7	222	12
2023-09-26T18:00	4209	617	-0.3	-24.4	224	12
2023-09-26T18:00	4227	616	-0.4	-24.7	225	12
2023-09-26T18:00	4251	614	-0.5	-25.2	225	11
2023-09-26T18:00	4276	612	-0.6	-25.9	225	11
2023-09-26T18:00	4302	610	-0.7	-27.1	223	11
2023-09-26T18:00	4328	608	-0.8	-27.5	221	12
2023-09-26T18:00	4352	606	-0.8	-27.8	219	12
2023-09-26T18:00	4370	605	-0.9	-27.9	217	13
2023-09-26T18:00	4398	603	-0.7	-27.5	216	13
2023-09-26T18:00	4425	601	-0.4	-30.7	215	13
2023-09-26T18:00	4444	599	-0.5	-31.2	215	12
2023-09-26T18:00	4464	598	-0.6	-32.0	216	12
2023-09-26T18:00	4486	596	-0.8	-31.6	217	12
2023-09-26T18:00	4509	594	-1.0	-30.7	219	12
2023-09-26T18:00	4533	593	-1.1	-30.2	220	13
2023-09-26T18:00	4556	591	-1.4	-27.7	221	13
2023-09-26T18:00	4582	589	-1.6	-27.4	221	13
2023-09-26T18:00	4602	587	-1.7	-28.1	221	13
2023-09-26T18:00	4622	586	-1.9	-26.5	220	13
2023-09-26T18:00	4639	585	-2.0	-25.0	219	12
2023-09-26T18:00	4667	583	-2.2	-24.8	219	12
2023-09-26T18:00	4688	581	-2.3	-24.6	220	12
2023-09-26T18:00	4710	580	-2.4	-24.3	221	12
2023-09-26T18:00	4734	578	-2.6	-24.7	224	12
2023-09-26T18:00	4761	576	-2.7	-27.1	226	12
2023-09-26T18:00	4796	573	-2.7	-23.2	226	12
2023-09-26T18:00	4823	571	-3.0	-19.9	225	11
2023-09-26T18:00	4844	570	-3.2	-19.6	224	11
2023-09-26T18:00	4872	568	-3.4	-18.3	222	11
2023-09-26T18:00	4895	566	-3.6	-17.9	222	11
2023-09-26T18:00	4924	564	-3.8	-19.2	223	11
2023-09-26T18:00	4953	562	-4.0	-20.2	225	12
2023-09-26T18:00	4975	560	-4.2	-21.4	226	12
2023-09-26T18:00	4997	559	-4.3	-25.1	227	12
2023-09-26T18:00	5022	557	-4.4	-26.0	227	12
2023-09-26T18:00	5051	555	-4.5	-26.8	226	12
2023-09-26T18:00	5068	554	-4.7	-27.0	225	13
2023-09-26T18:00	5092	552	-4.9	-27.4	224	13
2023-09-26T18:00	5120	550	-5.1	-27.9	224	13
2023-09-26T18:00	5141	549	-5.3	-28.4	225	13
2023-09-26T18:00	5169	547	-5.5	-28.6	227	13
2023-09-26T18:00	5189	545	-5.7	-28.4	229	13
2023-09-26T18:00	5214	544	-5.9	-27.9	231	13
2023-09-26T18:00	5241	542	-6.2	-27.3	233	13
2023-09-26T18:00	5267	540	-6.4	-26.5	234	14
2023-09-26T18:00	5289	538	-6.6	-26.2	234	14
2023-09-26T18:00	5310	537	-6.8	-25.3	234	14
2023-09-26T18:00	5326	536	-6.8	-23.1	235	14
2023-09-26T18:00	5344	535	-7.0	-23.7	235	14
2023-09-26T18:00	5363	533	-7.1	-23.7	234	13
2023-09-26T18:00	5384	532	-7.3	-24.3	234	13
2023-09-26T18:00	5409	530	-7.5	-24.8	234	13
2023-09-26T18:00	5431	529	-7.6	-25.0	236	13
2023-09-26T18:00	5451	527	-7.8	-25.1	238	13
2023-09-26T18:00	5468	526	-8.0	-24.9	240	13
2023-09-26T18:00	5488	525	-8.1	-24.2	243	13
2023-09-26T18:00	5509	523	-8.1	-24.9	245	13
2023-09-26T18:00	5531	522	-8.2	-25.2	246	13
2023-09-26T18:00	5555	520	-8.4	-25.6	246	13
2023-09-26T18:00	5579	519	-8.6	-25.6	246	13
2023-09-26T18:00	5603	517	-8.8	-25.6	245	13
2023-09-26T18:00	5626	516	-9.0	-25.8	243	13
2023-09-26T18:00	5656	514	-9.2	-25.7	242	13
2023-09-26T18:00	5687	512	-9.5	-25.7	240	14
2023-09-26T18:00	5714	510	-9.7	-26.0	240	14
2023-09-26T18:00	5731	509	-9.9	-26.0	240	15
2023-09-26T18:00	5752	507	-10.1	-26.0	240	15
2023-09-26T18:00	5774	506	-10.3	-26.0	241	15
2023-09-26T18:00	5801	504	-10.5	-25.3	240	14
2023-09-26T18:00	5828	502	-10.7	-25.9	240	14
2023-09-26T18:00	5857	500	-10.9	-26.5	239	13
2023-09-26T18:00	5880	499	-11.0	-26.6	239	13
2023-09-26T18:00	5901	498	-11.1	-27.4	239	12
2023-09-26T18:00	5921	496	-11.2	-28.4	240	11
2023-09-26T18:00	5942	495	-11.3	-29.3	241	11
2023-09-26T18:00	5971	493	-11.6	-28.2	242	10
2023-09-26T18:00	6001	491	-11.8	-26.6	243	10
2023-09-26T18:00	6024	490	-12.0	-26.4	242	10
2023-09-26T18:00	6050	488	-12.2	-28.3	241	11
2023-09-26T18:00	6077	486	-12.3	-30.6	240	11
2023-09-26T18:00	6111	484	-12.6	-30.6	239	11
2023-09-26T18:00	6132	483	-12.8	-31.0	237	11
2023-09-26T18:00	6152	481	-12.9	-31.6	236	11
2023-09-26T18:00	6173	480	-13.1	-32.1	235	11
2023-09-26T18:00	6193	479	-13.2	-32.1	235	11
2023-09-26T18:00	6214	478	-13.3	-34.7	235	11
2023-09-26T18:00	6237	476	-13.4	-35.1	235	11
2023-09-26T18:00	6261	474	-13.6	-37.3	236	10
2023-09-26T18:00	6294	473	-13.7	-42.0	236	10
2023-09-26T18:00	6317	471	-13.7	-45.4	236	10
2023-09-26T18:00	6343	470	-13.9	-45.5	236	9
2023-09-26T18:00	6364	468	-14.0	-44.1	236	9
2023-09-26T18:00	6389	467	-14.0	-42.1	235	8
2023-09-26T18:00	6410	465	-14.1	-42.3	234	8
2023-09-26T18:00	6434	464	-14.1	-34.4	232	8
2023-09-26T18:00	6465	462	-14.3	-33.6	231	8
2023-09-26T18:00	6489	461	-14.4	-33.1	230	8
2023-09-26T18:00	6511	459	-14.5	-31.7	229	8
2023-09-26T18:00	6544	457	-14.7	-30.8	229	8
2023-09-26T18:00	6572	456	-14.9	-30.1	228	8
2023-09-26T18:00	6598	454	-15.1	-30.0	227	8
2023-09-26T18:00	6623	452	-15.3	-29.9	225	7
2023-09-26T18:00	6653	451	-15.6	-29.8	223	7
2023-09-26T18:00	6680	449	-15.9	-30.0	222	7
2023-09-26T18:00	6710	447	-16.1	-29.9	222	7
2023-09-26T18:00	6732	446	-16.4	-30.0	222	7
2023-09-26T18:00	6754	445	-16.5	-29.8	222	7
2023-09-26T18:00	6781	443	-16.8	-29.8	222	7
2023-09-26T18:00	6808	441	-17.0	-29.8	222	7
2023-09-26T18:00	6837	440	-17.2	-29.9	222	7
2023-09-26T18:00	6870	438	-17.5	-30.1	222	7
2023-09-26T18:00	6903	436	-17.7	-30.0	222	7
2023-09-26T18:00	6932	434	-17.9	-30.0	220	7
2023-09-26T18:00	6965	432	-18.2	-30.6	218	6
2023-09-26T18:00	6996	431	-18.4	-31.8	216	6
2023-09-26T18:00	7027	429	-18.6	-30.7	214	6
2023-09-26T18:00	7056	427	-18.8	-30.5	213	6
2023-09-26T18:00	7085	425	-19.1	-29.6	213	7
2023-09-26T18:00	7114	424	-19.3	-29.6	213	7
2023-09-26T18:00	7151	422	-19.7	-29.1	214	7
2023-09-26T18:00	7172	420	-19.9	-29.5	214	7
2023-09-26T18:00	7201	419	-20.1	-29.6	214	7
2023-09-26T18:00	7234	417	-20.5	-27.7	214	6
2023-09-26T18:00	7265	415	-20.8	-26.7	214	6
2023-09-26T18:00	7291	414	-21.1	-27.0	215	6
2023-09-26T18:00	7316	412	-21.3	-26.3	215	6
2023-09-26T18:00	7340	411	-21.5	-26.0	216	6
2023-09-26T18:00	7362	410	-21.8	-26.2	216	6
2023-09-26T18:00	7385	409	-22.0	-25.8	217	6
2023-09-26T18:00	7409	407	-22.2	-25.7	217	6
2023-09-26T18:00	7431	406	-22.5	-25.9	219	6
2023-09-26T18:00	7457	405	-22.7	-25.9	220	6
2023-09-26T18:00	7480	403	-22.9	-26.1	220	6
2023-09-26T18:00	7504	402	-23.2	-26.0	220	6
2023-09-26T18:00	7524	401	-23.4	-25.6	220	6
2023-09-26T18:00	7547	400	-23.6	-25.6	219	6
2023-09-26T18:00	7569	398	-23.8	-25.7	217	6
2023-09-26T18:00	7591	397	-24.0	-25.6	216	6
2023-09-26T18:00	7613	396	-24.2	-25.7	216	6
2023-09-26T18:00	7635	395	-24.4	-25.8	216	6
2023-09-26T18:00	7659	393	-24.6	-26.0	217	6
2023-09-26T18:00	7687	392	-24.8	-26.8	218	6
2023-09-26T18:00	7717	390	-25.1	-27.0	219	6
2023-09-26T18:00	7743	389	-25.4	-27.1	220	6
2023-09-26T18:00	7768	388	-25.6	-27.4	221	6
2023-09-26T18:00	7796	386	-25.9	-27.7	221	6
2023-09-26T18:00	7820	385	-26.1	-27.8	222	6
2023-09-26T18:00	7842	384	-26.3	-28.0	222	6
2023-09-26T18:00	7864	383	-26.5	-28.3	223	6
2023-09-26T18:00	7886	381	-26.7	-27.9	224	6
2023-09-26T18:00	7907	380	-26.9	-27.1	225	6
2023-09-26T18:00	7936	379	-27.2	-27.5	226	6
2023-09-26T18:00	7967	377	-27.4	-27.8	227	6
2023-09-26T18:00	7995	376	-27.7	-28.3	228	6
2023-09-26T18:00	8025	374	-27.9	-28.3	228	6
2023-09-26T18:00	8060	372	-28.3	-28.6	226	6
2023-09-26T18:00	8087	371	-28.5	-28.9	223	6
2023-09-26T18:00	8116	369	-28.7	-29.1	221	6
2023-09-26T18:00	8146	368	-29.0	-29.3	219	6
2023-09-26T18:00	8178	366	-29.2	-29.4	218	6
2023-09-26T18:00	8213	364	-29.5	-29.8	218	6
2023-09-26T18:00	8253	362	-29.8	-30.1	219	6
2023-09-26T18:00	8284	361	-30.3	-30.7	221	6
2023-09-26T18:00	8309	359	-30.4	-30.5	223	6
2023-09-26T18:00	8338	358	-30.6	-30.8	226	7
2023-09-26T18:00	8369	357	-31.0	-32.0	229	7
2023-09-26T18:00	8393	355	-31.3	-32.5	231	8
2023-09-26T18:00	8410	354	-31.4	-34.0	232	8
2023-09-26T18:00	8430	353	-31.5	-35.5	231	8
2023-09-26T18:00	8450	352	-31.4	-36.9	229	8
2023-09-26T18:00	8477	351	-31.5	-37.6	224	7
2023-09-26T18:00	8501	350	-31.6	-39.6	218	7
2023-09-26T18:00	8524	349	-31.7	-41.6	210	7
2023-09-26T18:00	8547	348	-31.7	-42.6	203	7
2023-09-26T18:00	8575	346	-31.8	-43.6	195	7
2023-09-26T18:00	8597	345	-31.6	-46.3	189	7
2023-09-26T18:00	8617	344	-31.4		185	7
2023-09-26T18:00	8638	343	-31.3	-52.0	183	7
2023-09-26T18:00	8660	342	-31.2	-53.6	182	7
2023-09-26T18:00	8682	341	-31.2	-52.9	183	7
2023-09-26T18:00	8701	340	-31.2	-50.7	184	7
2023-09-26T18:00	8723	339	-31.3	-47.6	187	6
2023-09-26T18:00	8743	338	-31.5	-46.8	190	6
2023-09-26T18:00	8763	337	-31.6	-48.0	194	6
2023-09-26T18:00	8784	336	-31.8	-47.6	197	6
2023-09-26T18:00	8807	335	-31.8	-45.3	200	6
2023-09-26T18:00	8828	334	-31.8	-45.8	202	6
2023-09-26T18:00	8849	333	-31.9	-46.4	203	6
2023-09-26T18:00	8868	332	-32.0	-46.3	203	6
2023-09-26T18:00	8888	331	-32.2	-46.5	202	6
2023-09-26T18:00	8909	330	-32.4	-46.6	201	6
2023-09-26T18:00	8931	329	-32.6	-46.6	201	6
2023-09-26T18:00	8950	328	-32.8	-46.3	201	6
2023-09-26T18:00	8971	327	-32.9	-46.1	202	6
2023-09-26T18:00	8994	326	-33.2	-46.3	202	6
2023-09-26T18:00	9014	325	-33.3	-46.2	203	6
2023-09-26T18:00	9037	324	-33.5	-46.2	205	6
2023-09-26T18:00	9056	323	-33.7	-46.3	206	6
2023-09-26T18:00	9075	323	-33.9	-46.7	208	6
2023-09-26T18:00	9097	322	-34.1	-46.7	210	6
2023-09-26T18:00	9117	321	-34.3	-47.1	212	6
2023-09-26T18:00	9135	320	-34.4	-47.1	214	6
2023-09-26T18:00	9153	319	-34.6	-47.0	214	6
2023-09-26T18:00	9172	318	-34.7	-47.1	215	6
2023-09-26T18:00	9192	317	-34.9	-47.0	217	6
2023-09-26T18:00	9212	316	-35.1	-46.7	219	5
2023-09-26T18:00	9234	315	-35.2	-46.6	222	5
2023-09-26T18:00	9257	314	-35.4	-47.2	225	5
2023-09-26T18:00	9277	313	-35.4	-47.2	228	5
2023-09-26T18:00	9297	313	-35.6	-46.9	230	4
2023-09-26T18:00	9315	312	-35.7	-46.4	233	4
2023-09-26T18:00	9337	311	-35.8	-46.8	235	4
2023-09-26T18:00	9358	310	-36.0	-47.4	237	4
2023-09-26T18:00	9378	309	-36.2	-47.6	240	4
2023-09-26T18:00	9400	308	-36.3	-47.3	243	4
2023-09-26T18:00	9420	307	-36.5	-46.8	247	4
2023-09-26T18:00	9440	306	-36.7	-46.5	250	4
2023-09-26T18:00	9465	305	-36.9	-46.7	252	5
2023-09-26T18:00	9486	304	-37.0	-47.3	254	5
2023-09-26T18:00	9507	303	-37.1	-47.6	255	5
2023-09-26T18:00	9529	302	-37.3	-47.8	255	5
2023-09-26T18:00	9548	301	-37.5	-48.1	255	5
2023-09-26T18:00	9570	300	-37.7	-48.1	254	5
2023-09-26T18:00	9590	300	-37.9	-48.2	254	5
2023-09-26T18:00	9611	299	-38.1	-48.4	255	5
2023-09-26T18:00	9633	298	-38.3	-48.6	255	5
2023-09-26T18:00	9652	297	-38.5	-48.7	256	5
2023-09-26T18:00	9672	296	-38.6	-48.7	257	6
2023-09-26T18:00	9695	295	-38.8	-48.7	258	6
2023-09-26T18:00	9714	294	-39.0	-48.7	259	6
2023-09-26T18:00	9736	293	-39.2	-48.9	259	6
2023-09-26T18:00	9756	292	-39.4	-49.2	259	6
2023-09-26T18:00	9778	291	-39.6	-49.2	258	6
2023-09-26T18:00	9799	291	-39.8	-49.4	258	6
2023-09-26T18:00	9818	290	-40.0	-49.5	257	6
2023-09-26T18:00	9839	289	-40.2	-49.6	257	6
2023-09-26T18:00	9861	288	-40.3	-49.6	256	6
2023-09-26T18:00	9881	287	-40.5	-49.9	256	6
2023-09-26T18:00	9901	286	-40.7	-50.1	257	6
2023-09-26T18:00	9923	285	-40.9	-50.3	258	6
2023-09-26T18:00	9944	284	-41.0	-51.0	259	6
2023-09-26T18:00	9962	284	-41.1	-51.2	259	6
2023-09-26T18:00	9981	283	-41.2	-50.4	259	6
2023-09-26T18:00	10001	282	-41.4	-49.9	258	6
2023-09-26T18:00	10022	281	-41.6	-50.0	257	6
2023-09-26T18:00	10042	280	-41.8	-49.9	256	6
2023-09-26T18:00	10063	280	-42.0	-50.2	256	6
2023-09-26T18:00	10083	279	-42.1	-50.5	256	6
2023-09-26T18:00	10103	278	-42.3	-50.7	256	6
2023-09-26T18:00	10122	277	-42.5	-50.8	256	6
2023-09-26T18:00	10144	276	-42.7	-51.3	256	6
2023-09-26T18:00	10163	275	-42.8	-52.2	256	6
2023-09-26T18:00	10183	275	-42.9	-52.7	257	6
2023-09-26T18:00	10204	274	-43.1	-52.6	257	6
2023-09-26T18:00	10225	273	-43.3	-52.4	258	6
2023-09-26T18:00	10243	272	-43.4	-52.6	259	6
2023-09-26T18:00	10264	271	-43.6	-53.1	259	6
2023-09-26T18:00	10284	270	-43.8	-53.4	259	6
2023-09-26T18:00	10303	270	-43.9	-53.6	258	6
2023-09-26T18:00	10324	269	-44.1	-53.6	258	6
2023-09-26T18:00	10344	268	-44.3	-53.7	257	6
2023-09-26T18:00	10363	267	-44.5		256	6
2023-09-26T18:00	10383	267	-44.6	-53.8	255	6
2023-09-26T18:00	10402	266	-44.8	-53.8	255	6
2023-09-26T18:00	10421	265	-45.0	-53.9	254	6
2023-09-26T18:00	10439	264	-45.2	-53.9	253	6
2023-09-26T18:00	10461	263	-45.3	-53.9	251	6
2023-09-26T18:00	10480	263	-45.5	-54.0	249	6
2023-09-26T18:00	10500	262	-45.7	-54.2	247	6
2023-09-26T18:00	10522	261	-45.9	-54.5	244	6
2023-09-26T18:00	10541	260	-46.0	-54.8	241	6
2023-09-26T18:00	10562	259	-46.2	-55.6	239	6
2023-09-26T18:00	10581	259	-46.3	-55.8	237	6
2023-09-26T18:00	10600	258	-46.5	-55.8	235	6
2023-09-26T18:00	10618	257	-46.6	-55.9	234	6
2023-09-26T18:00	10637	257	-46.8	-56.2	233	6
2023-09-26T18:00	10657	256	-46.9	-56.5	232	6
2023-09-26T18:00	10677	255	-47.0	-56.7	232	6
2023-09-26T18:00	10694	254	-47.2	-56.7	231	6
2023-09-26T18:00	10713	254	-47.4	-56.7	231	6
2023-09-26T18:00	10731	253	-47.5	-56.7	232	6
2023-09-26T18:00	10750	252	-47.7	-56.8	233	6
2023-09-26T18:00	10769	251	-47.8	-56.7	234	6
2023-09-26T18:00	10788	251	-48.0	-56.8	236	6
2023-09-26T18:00	10810	250	-48.2	-56.8	237	6
2023-09-26T18:00	10827	249	-48.4	-56.9	237	6
2023-09-26T18:00	10847	248	-48.6	-56.9	237	6
2023-09-26T18:00	10868	248	-48.8	-56.8	237	6
2023-09-26T18:00	10885	247	-48.9	-56.8	236	6
2023-09-26T18:00	10905	246	-49.1	-56.8	237	6
2023-09-26T18:00	10926	246	-49.3	-56.8	237	6
2023-09-26T18:00	10945	245	-49.5	-57.0	238	6
2023-09-26T18:00	10969	244	-49.7	-57.1	240	6
2023-09-26T18:00	10991	243	-49.9	-57.2	241	6
2023-09-26T18:00	11010	242	-50.1	-57.2	242	6
2023-09-26T18:00	11031	242	-50.3	-57.4	243	6
2023-09-26T18:00	11051	241	-50.4	-57.6	245	6
2023-09-26T18:00	11072	240	-50.5	-57.9	247	6
2023-09-26T18:00	11095	239	-50.7	-58.1	249	5
2023-09-26T18:00	11114	239	-50.9	-58.0	252	5
2023-09-26T18:00	11135	238	-51.1	-58.0	254	5
2023-09-26T18:00	11157	237	-51.3	-58.1	255	5
2023-09-26T18:00	11177	236	-51.5	-58.2	255	5
2023-09-26T18:00	11198	235	-51.6	-58.1	254	5
2023-09-26T18:00	11219	235	-51.8	-58.1	253	5
2023-09-26T18:00	11240	234	-52.0	-58.0	251	5
2023-09-26T18:00	11261	233	-52.2	-57.9	251	4
2023-09-26T18:00	11282	232	-52.4	-57.9	252	4
2023-09-26T18:00	11304	232	-52.5	-58.0	254	5
2023-09-26T18:00	11326	231	-52.7	-58.2	257	5
2023-09-26T18:00	11349	230	-52.9	-58.5	261	5
2023-09-26T18:00	11371	229	-53.0	-58.6	264	5
2023-09-26T18:00	11394	228	-53.2	-58.8	266	6
2023-09-26T18:00	11416	228	-53.4	-58.9	268	6
2023-09-26T18:00	11438	227	-53.5	-59.1	271	6
2023-09-26T18:00	11459	226	-53.7	-59.4	273	7
2023-09-26T18:00	11483	225	-53.9	-59.6	274	7
2023-09-26T18:00	11506	225	-54.0	-59.6	276	8
2023-09-26T18:00	11527	224	-54.2	-59.8	278	8
2023-09-26T18:00	11549	223	-54.4	-60.0	279	8
2023-09-26T18:00	11571	222	-54.5	-60.4	280	9
2023-09-26T18:00	11593	221	-54.6	-60.9	280	9
2023-09-26T18:00	11615	221	-54.7	-61.2	279	8
2023-09-26T18:00	11637	220	-54.8	-61.3	276	8
2023-09-26T18:00	11661	219	-54.9	-61.5	272	8
2023-09-26T18:00	11682	218	-55.0	-62.0	267	7
2023-09-26T18:00	11706	218	-54.8	-62.5	263	7
2023-09-26T18:00	11726	217	-54.7	-63.0	259	7
2023-09-26T18:00	11748	216	-54.7	-63.4	257	7
2023-09-26T18:00	11768	216	-54.7	-63.6	256	7
2023-09-26T18:00	11788	215	-54.9	-63.7	255	7
2023-09-26T18:00	11808	214	-54.9	-63.6	255	7
2023-09-26T18:00	11830	213	-55.0	-63.7	255	8
2023-09-26T18:00	11851	213	-55.1	-63.8	255	8
2023-09-26T18:00	11872	212	-55.1	-63.9	254	8
2023-09-26T18:00	11893	211	-55.3	-64.2	254	8
2023-09-26T18:00	11914	211	-55.2	-64.2	254	8
2023-09-26T18:00	11937	210	-55.3	-64.5	254	9
2023-09-26T18:00	11958	209	-55.3	-64.7	254	9
2023-09-26T18:00	11981	208	-55.3	-64.8	255	9
2023-09-26T18:00	12002	208	-55.5	-64.9	256	9
2023-09-26T18:00	12026	207	-55.7	-64.9	257	10
2023-09-26T18:00	12050	206	-55.9	-65.0	258	10
2023-09-26T18:00	12074	205	-56.1	-65.0	259	10
2023-09-26T18:00	12092	205	-56.3	-65.2	258	10
2023-09-26T18:00	12111	204	-56.5	-65.7	257	10
2023-09-26T18:00	12131	204	-56.6	-66.3	255	10
2023-09-26T18:00	12152	203	-56.7	-66.7	253	9
2023-09-26T18:00	12173	202	-56.6	-66.7	250	9
2023-09-26T18:00	12192	202	-56.7	-66.7	247	9
2023-09-26T18:00	12212	201	-56.8	-66.5	244	9
2023-09-26T18:00	12233	200	-56.9	-66.4	242	9
2023-09-26T18:00	12252	200	-57.0	-66.3	240	9
2023-09-26T18:00	12271	199	-57.1	-66.3	238	9
2023-09-26T18:00	12290	199	-57.2	-66.5	237	9
2023-09-26T18:00	12309	198	-57.4	-66.8	236	9
2023-09-26T18:00	12330	197	-57.5	-67.1	235	9
2023-09-26T18:00	12349	197	-57.5	-67.2	234	9
2023-09-26T18:00	12368	196	-57.7	-67.6	233	9
2023-09-26T18:00	12390	195	-57.8	-67.8	231	9
2023-09-26T18:00	12413	195	-57.9	-68.0	230	9
2023-09-26T18:00	12435	194	-58.1	-68.0	229	10
2023-09-26T18:00	12456	193	-58.3	-68.0	228	10
2023-09-26T18:00	12479	193	-58.5	-68.0	227	10
2023-09-26T18:00	12500	192	-58.7	-68.2	226	10
2023-09-26T18:00	12521	191	-58.9	-68.3	225	10
2023-09-26T18:00	12543	191	-59.1	-68.4	224	10
2023-09-26T18:00	12564	190	-59.3	-68.4	224	10
2023-09-26T18:00	12585	189	-59.5	-68.4	224	10
2023-09-26T18:00	12604	189	-59.7	-68.5	224	10
2023-09-26T18:00	12625	188	-59.9	-68.5	224	10
2023-09-26T18:00	12646	188	-60.1	-68.6	224	10
2023-09-26T18:00	12665	187	-60.2	-68.6	224	10
2023-09-26T18:00	12685	186	-60.4	-68.7	224	10
2023-09-26T18:00	12705	186	-60.6	-68.9	224	11
2023-09-26T18:00	12726	185	-60.7	-69.0	224	11
2023-09-26T18:00	12745	185	-60.9	-69.1	225	11
2023-09-26T18:00	12765	184	-61.1	-69.2	227	11
2023-09-26T18:00	12788	183	-61.3	-69.3	229	11
2023-09-26T18:00	12806	183	-61.5	-69.4	231	11
2023-09-26T18:00	12828	182	-61.6	-69.5	232	11
2023-09-26T18:00	12849	182	-61.7	-69.6	234	11
2023-09-26T18:00	12868	181	-61.8	-69.7	235	11
2023-09-26T18:00	12888	180	-62.0	-69.9	236	12
2023-09-26T18:00	12910	180	-62.1	-70.0	237	12
2023-09-26T18:00	12929	179	-62.2	-70.0	238	12
2023-09-26T18:00	12949	179	-62.3	-70.1	239	12
2023-09-26T18:00	12968	178	-62.4	-70.2	241	12
2023-09-26T18:00	12988	178	-62.5	-70.3	242	12
2023-09-26T18:00	13010	177	-62.6	-70.4	243	12
2023-09-26T18:00	13029	176	-62.7	-70.5	245	12
2023-09-26T18:00	13051	176	-62.8	-70.6	246	12
2023-09-26T18:00	13071	175	-62.9	-70.7	247	12
2023-09-26T18:00	13091	175	-63.0	-70.7	248	12
2023-09-26T18:00	13114	174	-63.1	-70.8	249	13
2023-09-26T18:00	13135	173	-63.3	-71.0	248	13
2023-09-26T18:00	13155	173	-63.5	-71.1	247	13
2023-09-26T18:00	13175	172	-63.5	-71.1	246	13
2023-09-26T18:00	13196	172	-63.5	-71.2	244	13
2023-09-26T18:00	13217	171	-63.6	-71.4	243	14
2023-09-26T18:00	13237	170	-63.6	-71.5	242	14
2023-09-26T18:00	13259	170	-63.7	-71.7	242	13
2023-09-26T18:00	13281	169	-63.6	-71.8	243	13
2023-09-26T18:00	13301	169	-63.4	-71.9	244	13
2023-09-26T18:00	13321	168	-63.2	-72.1	246	14
2023-09-26T18:00	13341	168	-63.1	-72.4	249	14
2023-09-26T18:00	13362	167	-62.9	-72.6	251	14
2023-09-26T18:00	13382	167	-62.6	-72.9	253	15
2023-09-26T18:00	13402	166	-62.1	-73.2	255	15
2023-09-26T18:00	13422	165	-61.5	-73.5	256	15
2023-09-26T18:00	13445	165	-61.2	-74.1	258	15
2023-09-26T18:00	13464	164	-61.0	-74.7	258	15
2023-09-26T18:00	13485	164	-61.0	-75.3	259	15
2023-09-26T18:00	13504	163	-61.0	-75.8	259	15
2023-09-26T18:00	13523	163	-60.8	-76.1	260	15
2023-09-26T18:00	13542	162	-60.6	-76.4	261	15
2023-09-26T18:00	13563	162	-60.2	-76.7	262	15
2023-09-26T18:00	13583	161	-60.0	-77.2	263	16
2023-09-26T18:00	13601	161	-59.8	-77.8	264	16
2023-09-26T18:00	13622	160	-59.8	-78.6	265	16
2023-09-26T18:00	13643	160	-59.7	-79.1	265	16
2023-09-26T18:00	13663	159	-59.6	-79.4	265	16
2023-09-26T18:00	13684	159	-59.3	-79.5	265	16
2023-09-26T18:00	13704	158	-59.3	-79.6	265	15
2023-09-26T18:00	13724	158	-59.2	-79.7	265	15
2023-09-26T18:00	13744	157	-59.1	-79.6	265	15
2023-09-26T18:00	13764	157	-59.0	-79.5	266	16
2023-09-26T18:00	13785	156	-59.1	-79.6	267	16
2023-09-26T18:00	13802	156	-59.1	-79.5	268	17
2023-09-26T18:00	13826	155	-59.2	-79.6	268	17
2023-09-26T18:00	13845	155	-59.3	-79.6	268	17
2023-09-26T18:00	13865	154	-59.3	-79.6	268	17
2023-09-26T18:00	13884	154	-59.1	-79.5	267	17
2023-09-26T18:00	13905	153	-59.1	-79.6	267	17
2023-09-26T18:00	13925	153	-59.1	-79.6	267	17
2023-09-26T18:00	13944	152	-59.1	-79.7	267	17
2023-09-26T18:00	13964	152	-59.0	-79.6	268	17
2023-09-26T18:00	13984	151	-59.0	-79.8	269	17
2023-09-26T18:00	14005	151	-59.1	-80.0	270	17
2023-09-26T18:00	14025	150	-59.2	-80.1	271	16
2023-09-26T18:00	14045	150	-59.3	-80.0	270	16
2023-09-26T18:00	14067	149	-59.4	-80.1	270	16
2023-09-26T18:00	14087	149	-59.4	-80.0	269	15
2023-09-26T18:00	14105	148	-59.5	-79.9	267	15
2023-09-26T18:00	14127	148	-59.5	-79.9	266	15
2023-09-26T18:00	14144	147	-59.6	-80.1	266	14
2023-09-26T18:00	14165	147	-59.5	-80.2	265	14
2023-09-26T18:00	14185	146	-59.3	-80.2	266	14
2023-09-26T18:00	14206	146	-59.3	-80.3	266	14
2023-09-26T18:00	14227	145	-59.4	-80.5	267	14
2023-09-26T18:00	14247	145	-59.4	-80.7	268	13
2023-09-26T18:00	14268	145	-59.4	-80.7	269	13
2023-09-26T18:00	14286	144	-59.4	-80.8	268	13
2023-09-26T18:00	14308	144	-59.4	-80.8	267	12
2023-09-26T18:00	14335	143	-59.4	-80.8	264	12
2023-09-26T18:00	14365	142	-59.5	-81.0	261	11
2023-09-26T18:00	14395	142	-59.4	-80.9	256	11
2023-09-26T18:00	14432	141	-59.7	-81.3	250	10
2023-09-26T18:00	14453	140	-59.6	-81.3	245	10
2023-09-26T18:00	14479	140	-59.7	-81.3	239	10
2023-09-26T18:00	14508	139	-59.9	-81.5	234	10
2023-09-26T18:00	14537	138	-60.0	-81.6	230	10
2023-09-26T18:00	14566	138	-60.2	-81.6	227	10
2023-09-26T18:00	14596	137	-60.5	-81.7	224	10
2023-09-26T18:00	14637	136	-60.9	-81.9	223	10
2023-09-26T18:00	14663	136	-61.1	-81.9	222	11
2023-09-26T18:00	14686	135	-61.3	-81.8	222	11
2023-09-26T18:00	14709	135	-61.5	-81.8	221	11
2023-09-26T18:00	14737	134	-61.8	-81.9	220	11
2023-09-26T18:00	14765	133	-62.0	-82.0	219	12
2023-09-26T18:00	14792	133	-62.3	-82.0	218	12
2023-09-26T18:00	14823	132	-62.6	-82.1	217	12
2023-09-26T18:00	14850	132	-62.9	-82.2	217	12
2023-09-26T18:00	14880	131	-63.1	-82.2	217	13
2023-09-26T18:00	14906	130	-63.3	-82.2	217	13
2023-09-26T18:00	14931	130	-63.5	-82.3	217	13
2023-09-26T18:00	14954	129	-63.7	-82.4	218	14
2023-09-26T18:00	14972	129	-63.9	-82.4	218	14
2023-09-26T18:00	14994	129	-64.0	-82.5	219	14
2023-09-26T18:00	15017	128	-64.1	-82.5	221	15
2023-09-26T18:00	15038	128	-64.3	-82.7	223	15
2023-09-26T18:00	15061	127	-64.3	-82.8	225	15
2023-09-26T18:00	15081	127	-64.3	-82.8	228	15
2023-09-26T18:00	15106	126	-64.2	-82.8	231	16
2023-09-26T18:00	15127	126	-64.1	-82.9	233	16
2023-09-26T18:00	15148	125	-64.2	-83.1	236	17
2023-09-26T18:00	15169	125	-64.0	-83.0	238	17
2023-09-26T18:00	15190	125	-63.7	-83.0	239	18
2023-09-26T18:00	15213	124	-63.7	-83.1	241	18
2023-09-26T18:00	15234	124	-63.8	-83.2	242	19
2023-09-26T18:00	15255	123	-63.8	-83.3	243	19
2023-09-26T18:00	15275	123	-63.8	-83.3	244	20
2023-09-26T18:00	15296	122	-63.9	-83.3	246	20
2023-09-26T18:00	15317	122	-64.0	-83.4	247	20
2023-09-26T18:00	15338	122	-64.1	-83.5	248	21
2023-09-26T18:00	15359	121	-64.1	-83.5	250	21
2023-09-26T18:00	15380	121	-64.2	-83.7	252	20
2023-09-26T18:00	15401	120	-64.1	-83.7	254	20
2023-09-26T18:00	15423	120	-63.9	-83.8	257	19
2023-09-26T18:00	15442	119	-63.7	-83.9	258	19
2023-09-26T18:00	15462	119	-62.7	-83.5	260	18
2023-09-26T18:00	15482	119	-62.2	-83.4	261	18
2023-09-26T18:00	15503	118	-62.1	-83.6	262	17
2023-09-26T18:00	15523	118	-62.2	-83.8	264	17
2023-09-26T18:00	15545	118	-62.1	-83.9	265	16
2023-09-26T18:00	15565	117	-62.0	-83.8	266	16
2023-09-26T18:00	15584	117	-62.0	-84.0	268	15
2023-09-26T18:00	15603	116	-61.7	-83.8	270	14
2023-09-26T18:00	15626	116	-61.6	-83.7	272	14
2023-09-26T18:00	15645	116	-61.6	-83.9	273	13
2023-09-26T18:00	15667	115	-61.6	-83.9	274	12
2023-09-26T18:00	15689	115	-61.5	-83.8	275	11
2023-09-26T18:00	15710	114	-61.4	-83.9	274	10
2023-09-26T18:00	15733	114	-61.2	-83.7	272	9
2023-09-26T18:00	15753	114	-61.0	-83.6	269	9
2023-09-26T18:00	15775	113	-61.1	-83.6	265	8
2023-09-26T18:00	15796	113	-61.2	-83.7	260	8
2023-09-26T18:00	15817	112	-61.1	-83.6	254	8
2023-09-26T18:00	15838	112	-61.1	-83.6	249	8
2023-09-26T18:00	15860	112	-61.1	-83.6	244	8
2023-09-26T18:00	15883	111	-61.1	-83.6	241	8
2023-09-26T18:00	15902	111	-61.2	-83.7	238	9
2023-09-26T18:00	15924	111	-61.4	-83.7	237	9
2023-09-26T18:00	15946	110	-61.5	-83.8	236	10
2023-09-26T18:00	15968	110	-61.7	-83.9	235	10
2023-09-26T18:00	15991	109	-61.8	-84.0	235	10
2023-09-26T18:00	16012	109	-61.9	-84.1	236	10
2023-09-26T18:00	16035	109	-61.8	-84.0	238	10
2023-09-26T18:00	16056	108	-61.6	-83.9	240	9
2023-09-26T18:00	16078	108	-61.8	-84.0	244	9
2023-09-26T18:00	16100	107	-62.0	-84.2	248	8
2023-09-26T18:00	16125	107	-62.1	-84.3	252	8
2023-09-26T18:00	16146	107	-62.3	-84.4	256	7
2023-09-26T18:00	16172	106	-62.4	-84.5	258	7
2023-09-26T18:00	16195	106	-62.4	-84.5	258	7
2023-09-26T18:00	16216	105	-62.1	-84.4	256	6
2023-09-26T18:00	16242	105	-62.0	-84.4	252	6
2023-09-26T18:00	16261	105	-62.1	-84.4	247	6
2023-09-26T18:00	16287	104	-62.3	-84.6	242	6
2023-09-26T18:00	16308	104	-62.4	-84.7	239	5
2023-09-26T18:00	16330	104	-62.6	-84.8	237	5
2023-09-26T18:00	16353	103	-62.7	-84.7	235	5
2023-09-26T18:00	16376	103	-62.8	-84.8	233	5
2023-09-26T18:00	16398	102	-62.8	-84.8	230	5
2023-09-26T18:00	16421	102	-62.9	-85.1	224	5
2023-09-26T18:00	16444	102	-62.9	-85.1	216	5
2023-09-26T18:00	16463	101	-62.8	-85.2	210	6
2023-09-26T18:00	16487	101	-62.6	-85.0	204	6
2023-09-26T18:00	16508	101	-62.5	-85.1	201	7
2023-09-26T18:00	16532	100	-62.3	-85.0	198	7
2023-09-26T18:00	16555	100	-62.3	-85.0	196	8
2023-09-26T18:00	16576	99	-62.5	-85.1	195	9
2023-09-26T18:00	16597	99	-62.6	-85.0	194	9
2023-09-26T18:00	16620	99	-62.7	-85.1	193	10
2023-09-26T18:00	16641	98	-62.8	-85.0	193	10
2023-09-26T18:00	16662	98	-62.9	-85.1	194	11
2023-09-26T18:00	16685	98	-63.1	-85.2	196	11
2023-09-26T18:00	16705	97	-63.1	-85.2	198	12
2023-09-26T18:00	16726	97	-62.9	-85.1	201	12
2023-09-26T18:00	16749	97	-62.9	-85.3	203	12
2023-09-26T18:00	16769	96	-63.0	-85.2	205	12
2023-09-26T18:00	16793	96	-63.1	-85.2	207	12
2023-09-26T18:00	16812	96	-63.3	-85.4	209	12
2023-09-26T18:00	16838	95	-63.4	-85.3	212	12
2023-09-26T18:00	16858	95	-63.6	-85.5	214	12
2023-09-26T18:00	16880	95	-63.7	-85.4	216	12
2023-09-26T18:00	16904	94	-63.8	-85.6	218	11
2023-09-26T18:00	16925	94	-63.8	-85.6	219	11
2023-09-26T18:00	16949	94	-63.6	-85.6	219	10
2023-09-26T18:00	16969	93	-63.5	-85.7	220	10
2023-09-26T18:00	16990	93	-63.2	-85.7	220	10
2023-09-26T18:00	17014	93	-63.0	-85.7	221	10
2023-09-26T18:00	17037	92	-62.6	-85.6	223	10
2023-09-26T18:00	17059	92	-62.3	-85.6	224	10
2023-09-26T18:00	17083	92	-62.2	-85.7	226	10
2023-09-26T18:00	17103	91	-61.9	-85.5	227	10
2023-09-26T18:00	17127	91	-62.0	-85.8	229	10
2023-09-26T18:00	17149	91	-62.2	-85.9	232	10
2023-09-26T18:00	17172	90	-62.3	-86.0	234	10
2023-09-26T18:00	17196	90	-62.2	-86.2	237	10
2023-09-26T18:00	17217	90	-61.9	-85.9	240	9
2023-09-26T18:00	17238	89	-61.9	-85.9	243	9
2023-09-26T18:00	17261	89	-61.6	-85.9	246	9
2023-09-26T18:00	17282	89	-61.6	-85.9	248	9
2023-09-26T18:00	17303	88	-61.6	-86.2	249	9
2023-09-26T18:00	17324	88	-61.7	-86.3	249	9
2023-09-26T18:00	17346	88	-61.7	-86.5	247	8
2023-09-26T18:00	17367	87	-61.1	-86.1	244	8
2023-09-26T18:00	17391	87	-60.9	-86.2	240	7
2023-09-26T18:00	17413	87	-60.9	-86.5	234	7
2023-09-26T18:00	17437	87	-60.9	-86.5	227	7
2023-09-26T18:00	17461	86	-60.9	-86.5	221	7
2023-09-26T18:00	17481	86	-60.7	-86.6	215	7
2023-09-26T18:00	17505	86	-60.6	-86.6	210	8
2023-09-26T18:00	17529	85	-60.7	-86.6	207	8
2023-09-26T18:00	17553	85	-60.8		206	9
2023-09-26T18:00	17576	85	-61.0	-86.9	206	9
2023-09-26T18:00	17598	84	-61.1	-87.0	207	10
2023-09-26T18:00	17622	84	-61.2	-87.0	209	10
2023-09-26T18:00	17643	84	-61.2	-87.0	210	11
2023-09-26T18:00	17665	83	-61.1	-87.0	212	11
2023-09-26T18:00	17688	83	-61.1	-87.0	214	11
2023-09-26T18:00	17712	83	-61.2	-87.0	217	11
2023-09-26T18:00	17734	82	-61.3	-87.1	219	11
2023-09-26T18:00	17758	82	-61.4	-87.2	222	12
2023-09-26T18:00	17779	82	-61.5	-87.3	225	12
2023-09-26T18:00	17801	82	-61.6	-87.3	229	12
2023-09-26T18:00	17823	81	-61.7	-87.4	233	12
2023-09-26T18:00	17849	81	-61.6	-87.3	237	12
2023-09-26T18:00	17870	81	-61.6	-87.7	241	12
2023-09-26T18:00	17894	80	-61.1	-87.3	246	12
2023-09-26T18:00	17915	80	-60.8	-87.4	250	12
2023-09-26T18:00	17943	80	-60.7	-87.3	254	11
2023-09-26T18:00	17965	79	-60.7	-87.3	258	11
2023-09-26T18:00	17987	79	-60.7	-87.3	262	10
2023-09-26T18:00	18011	79	-60.6	-87.2	265	9
2023-09-26T18:00	18034	79	-60.7	-87.3	269	9
2023-09-26T18:00	18058	78	-60.8	-87.7	272	8
2023-09-26T18:00	18082	78	-60.6	-87.6	275	7
2023-09-26T18:00	18103	78	-60.5	-87.5	276	7
2023-09-26T18:00	18126	77	-60.1	-87.2	276	6
2023-09-26T18:00	18151	77	-60.1	-87.6	273	5
2023-09-26T18:00	18175	77	-60.0	-87.5	269	5
2023-09-26T18:00	18194	77	-60.0	-87.5	264	5
2023-09-26T18:00	18220	76	-59.9	-87.4	259	5
2023-09-26T18:00	18242	76	-59.9	-87.4	255	5
2023-09-26T18:00	18264	76	-60.0	-87.5	252	5
2023-09-26T18:00	18287	75	-60.0	-87.5	247	5
2023-09-26T18:00	18313	75	-59.9	-87.9	242	5
2023-09-26T18:00	18337	75	-59.6	-87.6	235	5
2023-09-26T18:00	18358	75	-59.6	-87.6	226	5
2023-09-26T18:00	18381	74	-59.6	-87.6	216	4
2023-09-26T18:00	18404	74	-59.5	-87.6	208	4
2023-09-26T18:00	18428	74	-59.5	-88.0	201	4
2023-09-26T18:00	18449	74	-59.3	-87.9	196	4
2023-09-26T18:00	18473	73	-59.2	-87.8	195	5
2023-09-26T18:00	18496	73	-59.2	-87.8	196	5
2023-09-26T18:00	18523	73	-59.2	-87.3	198	5
2023-09-26T18:00	18544	72	-59.3	-87.4	201	5
2023-09-26T18:00	18567	72	-59.5	-87.6	204	5
2023-09-26T18:00	18588	72	-59.6	-87.6	205	5
2023-09-26T18:00	18614	72	-59.7	-87.7	206	6
2023-09-26T18:00	18634	71	-59.7	-87.7	205	6
2023-09-26T18:00	18657	71	-59.6	-87.6	205	6
2023-09-26T18:00	18680	71	-59.6	-87.6	205	6
2023-09-26T18:00	18703	71	-59.6	-87.6	207	7
2023-09-26T18:00	18729	70	-59.7	-87.7	210	7
2023-09-26T18:00	18753	70	-59.9	-87.9	213	7
2023-09-26T18:00	18776	70	-60.1	-88.0	218	7
2023-09-26T18:00	18802	70	-60.0	-87.9	223	7
2023-09-26T18:00	18824	69	-60.0	-87.9	228	6
2023-09-26T18:00	18849	69	-60.0	-87.9	234	6
2023-09-26T18:00	18871	69	-60.0	-88.4	240	6
2023-09-26T18:00	18893	68	-60.0	-88.4	244	5
2023-09-26T18:00	18916	68	-59.7	-88.2	246	5
2023-09-26T18:00	18940	68	-59.2	-87.8	247	5
2023-09-26T18:00	18963	68	-59.1	-88.2	245	5
2023-09-26T18:00	18987	67	-59.0	-88.1	243	5
2023-09-26T18:00	19011	67	-58.8	-88.0	242	5
2023-09-26T18:00	19033	67	-58.8	-88.0	242	5
2023-09-26T18:00	19056	67	-58.6	-87.8	245	5
2023-09-26T18:00	19082	66	-58.5	-88.3	248	5
2023-09-26T18:00	19105	66	-58.3	-87.6	252	5
2023-09-26T18:00	19126	66	-58.2	-87.5	256	5
2023-09-26T18:00	19153	66	-58.4	-87.7	258	5
2023-09-26T18:00	19177	65	-58.5	-87.7	260	4
2023-09-26T18:00	19202	65	-58.7	-87.9	260	4
2023-09-26T18:00	19226	65	-58.8	-88.0	259	4
2023-09-26T18:00	19249	65	-59.0	-88.1	259	4
2023-09-26T18:00	19274	64	-59.0	-88.1	259	4
2023-09-26T18:00	19295	64	-58.9	-88.0	259	4
2023-09-26T18:00	19320	64	-58.8	-88.0	259	4
2023-09-26T18:00	19343	64	-58.8	-88.0	257	4
2023-09-26T18:00	19367	64	-58.7	-87.9	253	4
2023-09-26T18:00	19391	63	-58.7	-87.9	247	4
2023-09-26T18:00	19413	63	-58.6	-87.8	241	5
2023-09-26T18:00	19436	63	-58.7	-87.9	235	5
2023-09-26T18:00	19459	63	-58.8	-88.0	232	5
2023-09-26T18:00	19485	62	-58.8	-88.0	229	5
2023-09-26T18:00	19508	62	-59.0	-88.1	228	5
2023-09-26T18:00	19531	62	-58.9	-88.0	225	5
2023-09-26T18:00	19557	62	-59.0	-88.1	221	5
2023-09-26T18:00	19577	61	-59.1	-88.2	216	5
2023-09-26T18:00	19602	61	-59.0	-88.1	210	4
2023-09-26T18:00	19626	61	-59.1	-88.2	205	4
2023-09-26T18:00	19650	61	-59.3	-88.3	202	4
2023-09-26T18:00	19673	60	-59.1	-88.2	203	4
2023-09-26T18:00	19695	60	-59.1	-87.7	207	4
2023-09-26T18:00	19718	60	-59.3	-87.9	213	4
2023-09-26T18:00	19746	60	-59.5	-88.0	222	4
2023-09-26T18:00	19771	60	-59.5	-88.0	230	4
2023-09-26T18:00	19793	59	-59.4	-87.9	237	3
2023-09-26T18:00	19817	59	-59.5	-88.0	240	3
2023-09-26T18:00	19842	59	-59.5	-88.0	240	3
2023-09-26T18:00	19863	59	-59.7	-88.2	235	3
2023-09-26T18:00	19886	58	-59.8	-88.2	227	3
2023-09-26T18:00	19911	58	-59.8	-88.2	219	3
2023-09-26T18:00	19937	58	-59.7	-88.2	213	3
2023-09-26T18:00	19960	58	-59.8	-88.2	211	4
2023-09-26T18:00	19987	58	-59.8	-88.2	213	4
2023-09-26T18:00	20011	57	-59.9	-88.3	217	4
2023-09-26T18:00	20034	57	-59.8	-88.2	223	4
2023-09-26T18:00	20059	57	-59.9	-88.3	229	4
2023-09-26T18:00	20084	57	-60.1	-88.0	234	4
2023-09-26T18:00	20108	56	-60.2	-88.1	238	5
2023-09-26T18:00	20131	56	-60.2	-88.1	241	5
2023-09-26T18:00	20158	56	-60.2	-88.5	244	5
2023-09-26T18:00	20182	56	-60.2	-88.5	247	5
2023-09-26T18:00	20204	56	-60.0	-88.4	252	6
2023-09-26T18:00	20229	55	-59.7	-88.6	257	6
2023-09-26T18:00	20253	55	-59.2	-88.3	263	6
2023-09-26T18:00	20280	55	-59.1	-88.2	268	6
2023-09-26T18:00	20304	55	-58.8	-88.0	273	6
2023-09-26T18:00	20327	54	-58.7	-87.9	275	6
2023-09-26T18:00	20354	54	-58.8	-88.0	276	6
2023-09-26T18:00	20379	54	-58.6	-87.8	276	5
2023-09-26T18:00	20401	54	-58.4	-87.7	272	5
2023-09-26T18:00	20426	54	-58.5	-87.7	265	4
2023-09-26T18:00	20453	53	-58.5	-87.7	253	3
2023-09-26T18:00	20477	53	-58.5	-88.3	239	3
2023-09-26T18:00	20502	53	-58.3	-88.1	224	3
2023-09-26T18:00	20526	53	-58.2	-88.1	214	3
2023-09-26T18:00	20547	53	-58.2	-88.1	208	4
2023-09-26T18:00	20571	52	-58.2	-87.5	206	4
2023-09-26T18:00	20599	52	-58.2	-87.5	207	5
2023-09-26T18:00	20623	52	-58.3	-87.6	209	5
2023-09-26T18:00	20647	52	-58.3	-87.6	212	6
2023-09-26T18:00	20670	52	-58.4	-87.7	215	6
2023-09-26T18:00	20695	51	-58.6	-87.8	218	7
2023-09-26T18:00	20720	51	-58.8	-88.0	220	7
2023-09-26T18:00	20741	51	-58.9	-87.6	223	7
2023-09-26T18:00	20767	51	-59.0	-87.6	227	7
2023-09-26T18:00	20794	51	-59.1	-87.7	230	7
2023-09-26T18:00	20814	50	-59.2	-88.3	235	7
2023-09-26T18:00	20837	50	-59.1	-88.2	239	6
2023-09-26T18:00	20864	50	-59.1	-88.2	244	6
2023-09-26T18:00	20889	50	-59.1	-88.2	248	6
2023-09-26T18:00	20913	50	-59.1	-88.2	252	6
2023-09-26T18:00	20938	49	-59.1	-88.2	256	6
2023-09-26T18:00	20962	49	-59.1	-88.2	259	6
2023-09-26T18:00	20988	49	-59.1	-88.2	262	6
2023-09-26T18:00	21013	49	-59.2	-87.8	263	6
2023-09-26T18:00	21037	49	-59.3	-87.9	265	6
2023-09-26T18:00	21062	48	-59.4	-87.9	267	6
2023-09-26T18:00	21088	48	-59.5	-88.0	270	6
2023-09-26T18:00	21109	48	-59.7	-88.2	273	6
2023-09-26T18:00	21135	48	-59.8	-88.2	276	6
2023-09-26T18:00	21160	48	-59.8	-88.2	277	6
2023-09-26T18:00	21183	48	-59.7	-88.2	277	5
2023-09-26T18:00	21206	47	-59.7	-88.2	276	5
2023-09-26T18:00	21230	47	-59.7	-88.6	273	4
2023-09-26T18:00	21258	47	-59.7	-88.6	270	4
2023-09-26T18:00	21281	47	-59.8	-88.7	267	4
2023-09-26T18:00	21305	47	-59.7	-88.6	267	4
2023-09-26T18:00	21331	46	-59.5	-88.5	268	4
2023-09-26T18:00	21354	46	-59.5	-88.5	269	4
2023-09-26T18:00	21376	46	-59.5	-88.5	270	5
2023-09-26T18:00	21401	46	-59.6	-88.6	271	5
2023-09-26T18:00	21425	46	-59.5	-88.5	270	6
2023-09-26T18:00	21449	46	-59.4	-88.4	270	6
2023-09-26T18:00	21475	45	-59.6	-88.6	269	6
2023-09-26T18:00	21497	45	-59.7	-88.6	267	6
2023-09-26T18:00	21524	45	-59.8	-88.7	263	6
2023-09-26T18:00	21549	45	-59.6	-88.6	256	5
2023-09-26T18:00	21572	45	-59.5	-88.5	248	5
2023-09-26T18:00	21593	45	-59.4	-88.4	240	5
2023-09-26T18:00	21622	44	-59.5	-88.5	234	5
2023-09-26T18:00	21645	44	-59.3	-88.3	231	5
2023-09-26T18:00	21668	44	-59.3	-88.3	231	4
2023-09-26T18:00	21695	44	-59.5	-88.5	231	4
2023-09-26T18:00	21717	44	-59.7	-88.6	233	4
2023-09-26T18:00	21743	43	-59.8	-88.7	235	3
2023-09-26T18:00	21770	43	-59.9	-88.3	237	3
2023-09-26T18:00	21796	43	-59.9	-88.8	243	3
2023-09-26T18:00	21822	43	-59.9	-88.8	252	3
2023-09-26T18:00	21840	43	-59.7	-88.6	263	3
2023-09-26T18:00	21866	43	-59.4	-88.4	273	3
2023-09-26T18:00	21895	42	-59.2	-88.8	280	4
2023-09-26T18:00	21915	42	-59.3	-88.9	283	5
2023-09-26T18:00	21943	42	-59.1	-88.7	283	5
2023-09-26T18:00	21968	42	-58.8	-88.5	280	5
2023-09-26T18:00	21992	42	-58.9	-88.6	277	6
2023-09-26T18:00	22014	42	-58.9	-88.6	273	6
2023-09-26T18:00	22040	41	-59.0	-88.7	270	6
2023-09-26T18:00	22069	41	-59.1	-88.7	270	6
2023-09-26T18:00	22093	41	-59.1	-88.7	272	7
2023-09-26T18:00	22112	41	-59.0	-88.7	276	7
2023-09-26T18:00	22143	41	-58.8	-88.5	281	7
2023-09-26T18:00	22166	41	-58.7	-88.4	286	7
2023-09-26T18:00	22197	40	-58.4	-88.8	291	7
2023-09-26T18:00	22218	40	-58.3	-88.7	296	6
2023-09-26T18:00	22244	40	-58.2	-88.6	301	6
2023-09-26T18:00	22271	40	-58.0	-88.5	305	5
2023-09-26T18:00	22299	40	-57.8	-88.3	309	5
2023-09-26T18:00	22321	40	-57.7	-88.3	311	5
2023-09-26T18:00	22345	40	-57.5	-88.1	311	6
2023-09-26T18:00	22367	39	-57.2	-87.9	311	6
2023-09-26T18:00	22397	39	-57.1	-87.8	311	6
2023-09-26T18:00	22419	39	-57.2	-87.9	311	6
2023-09-26T18:00	22444	39	-57.3	-88.0	310	5
2023-09-26T18:00	22470	39	-57.3	-88.0	309	5
2023-09-26T18:00	22491	39	-57.4	-88.1	307	5
2023-09-26T18:00	22517	38	-57.6	-88.2	306	5
2023-09-26T18:00	22540	38	-57.7	-87.7	306	4
2023-09-26T18:00	22566	38	-57.7	-87.7	307	4
2023-09-26T18:00	22586	38	-57.8	-87.8	311	4
2023-09-26T18:00	22609	38	-57.9	-87.8	317	4
2023-09-26T18:00	22635	38	-58.0	-87.9	323	4
2023-09-26T18:00	22660	38	-58.2	-88.1	329	4
2023-09-26T18:00	22681	37	-57.9	-88.4	336	4
2023-09-26T18:00	22706	37	-57.9	-88.4	342	4
2023-09-26T18:00	22730	37	-57.8	-88.3	348	4
2023-09-26T18:00	22757	37	-58.0	-88.5	354	3
2023-09-26T18:00	22778	37	-58.2	-88.6	359	4
2023-09-26T18:00	22802	37	-58.2	-88.1	5	4
2023-09-26T18:00	22830	37	-58.3	-88.1	10	4
2023-09-26T18:00	22851	36	-58.4	-88.2	15	4
2023-09-26T18:00	22875	36	-58.6	-88.4	20	4
2023-09-26T18:00	22900	36	-58.8	-88.5	25	4
2023-09-26T18:00	22925	36	-58.9	-88.6	29	4
2023-09-26T18:00	22948	36	-59.0	-88.7	33	4
2023-09-26T18:00	22974	36	-58.9	-88.6	36	3
2023-09-26T18:00	22995	36	-58.8	-89.1	37	3
2023-09-26T18:00	23024	35	-58.2	-88.6	35	2
2023-09-26T18:00	23050	35	-58.3	-88.7	24	1
2023-09-26T18:00	23074	35	-58.5	-88.9	300	0
2023-09-26T18:00	23099	35	-58.7	-88.4	246	1
2023-09-26T18:00	23125	35	-58.8	-88.5	239	2
2023-09-26T18:00	23151	35	-59.0	-88.7	239	3
2023-09-26T18:00	23177	35	-59.0	-88.7	242	4
2023-09-26T18:00	23207	34	-59.1	-88.7	247	5
2023-09-26T18:00	23231	34	-59.1	-88.7	254	5
2023-09-26T18:00	23260	34	-59.1	-88.7	263	5
2023-09-26T18:00	23286	34	-59.0	-89.2	272	5
2023-09-26T18:00	23309	34	-58.5	-88.9	282	5
2023-09-26T18:00	23340	34	-58.3	-89.4	291	6
2023-09-26T18:00	23368	34	-58.0	-89.1	299	6
2023-09-26T18:00	23392	33	-57.7	-88.9	306	6
2023-09-26T18:00	23422	33	-57.4	-88.7	311	6
2023-09-26T18:00	23449	33	-57.4	-88.7	316	6
2023-09-26T18:00	23469	33	-57.3	-88.6	320	5
2023-09-26T18:00	23505	33	-57.4	-88.7	324	5
2023-09-26T18:00	23534	33	-57.4	-88.7	328	5
2023-09-26T18:00	23557	33	-57.7	-88.3	333	5
2023-09-26T18:00	23585	32	-57.8	-88.3	337	5
2023-09-26T18:00	23615	32	-57.9	-88.4	341	5
2023-09-26T18:00	23634	32	-58.0	-88.5	345	5
2023-09-26T18:00	23665	32	-58.1	-88.6	348	5
2023-09-26T18:00	23696	32	-58.2	-88.6	352	4
2023-09-26T18:00	23721	32	-58.3	-88.7	356	4
2023-09-26T18:00	23746	32	-58.3	-88.7	360	4
2023-09-26T18:00	23770	32	-58.4	-88.8	2	4
2023-09-26T18:00	23795	31	-58.5	-88.9	5	3
2023-09-26T18:00	23815	31	-58.5	-88.9	7	3
2023-09-26T18:00	23844	31	-58.3	-89.4	10	3
2023-09-26T18:00	23868	31	-58.0	-89.1	13	3
2023-09-26T18:00	23894	31	-57.9	-89.1	17	3
2023-09-26T18:00	23916	31	-57.7	-88.9	22	3
2023-09-26T18:00	23939	31	-57.3	-88.6	28	2
2023-09-26T18:00	23967	31	-57.1	-88.5	34	2
2023-09-26T18:00	23992	30	-57.0	-88.4	40	2
2023-09-26T18:00	24017	30	-57.0	-88.4	45	3
2023-09-26T18:00	24039	30	-57.1	-88.5	51	3
2023-09-26T18:00	24063	30	-57.2	-88.6	57	3
2023-09-26T18:00	24089	30	-57.3	-88.6	65	3
2023-09-26T18:00	24112	30	-57.5	-88.8	75	3
2023-09-26T18:00	24140	30	-57.6	-88.9	88	3
2023-09-26T18:00	24167	30	-57.3	-88.6	105	2
2023-09-26T18:00	24188	29	-57.3	-88.6	127	2
2023-09-26T18:00	24217	29	-57.3	-88.6	156	2
2023-09-26T18:00	24239	29	-57.4	-88.7	186	2
2023-09-26T18:00	24263	29	-57.3	-88.6	208	2
2023-09-26T18:00	24287	29	-57.3	-88.6	220	3
2023-09-26T18:00	24308	29	-57.3	-88.6	224	3
2023-09-26T18:00	24339	29	-57.3	-88.6	224	3
2023-09-26T18:00	24360	29	-57.2	-88.6	219	3
2023-09-26T18:00	24386	29	-57.0	-88.4	212	3
2023-09-26T18:00	24413	28	-57.1	-88.5	203	3
2023-09-26T18:00	24431	28	-57.2	-88.6	195	3
2023-09-26T18:00	24462	28	-57.3	-88.6	189	3
2023-09-26T18:00	24485	28	-57.4	-88.7	185	3
2023-09-26T18:00	24510	28	-57.4	-88.7	182	3
2023-09-26T18:00	24541	28	-57.4	-88.7	180	3
2023-09-26T18:00	24557	28	-57.4	-88.7	179	3
2023-09-26T18:00	24583	28	-57.2	-88.6	179	3
2023-09-26T18:00	24612	28	-57.2	-88.6	180	3
2023-09-26T18:00	24634	27	-57.2	-88.6	180	3
2023-09-26T18:00	24668	27	-57.2	-88.6	180	4
2023-09-26T18:00	24689	27	-57.3	-88.6	181	5
2023-09-26T18:00	24713	27	-57.1	-88.5	183	5
2023-09-26T18:00	24746	27	-57.1	-88.5	187	6
2023-09-26T18:00	24767	27	-57.1	-88.5	192	6
2023-09-26T18:00	24799	27	-57.1	-88.5	198	6
2023-09-26T18:00	24826	27	-57.2	-88.6	204	6
2023-09-26T18:00	24850	27	-57.1	-88.5	210	7
2023-09-26T18:00	24877	26	-57.0	-88.4	216	7
2023-09-26T18:00	24902	26	-56.8	-88.3	222	7
2023-09-26T18:00	24927	26	-56.8	-89.0	228	7
2023-09-26T18:00	24956	26	-56.8	-89.0	234	8
2023-09-26T18:00	24981	26	-56.8	-89.0	241	8
2023-09-26T18:00	25015	26	-56.5	-88.8	247	8
2023-09-26T18:00	25035	26	-56.2	-88.6	253	8
2023-09-26T18:00	25069	26	-56.3	-88.6	258	8
2023-09-26T18:00	25099	26	-56.4	-88.7	263	8
2023-09-26T18:00	25128	25	-56.2	-88.6	268	7
2023-09-26T18:00	25154	25	-56.0	-88.4	273	7
2023-09-26T18:00	25189	25	-56.1	-88.5	278	6
2023-09-26T18:00	25208	25	-56.2	-88.6	283	6
2023-09-26T18:00	25248	25	-56.0	-88.4	285	7
2023-09-26T18:00	25264	25	-55.9	-88.4	287	7
2023-09-26T18:00	25297	25	-56.0	-88.4	288	8
2023-09-26T18:00	25327	25	-56.1	-88.5	289	8
2023-09-26T18:00	25358	25	-55.9	-88.4	290	8
2023-09-26T18:00	25382	24	-56.1	-88.5	291	8
2023-09-26T18:00	25416	24	-56.2	-88.6	292	8
2023-09-26T18:00	25437	24	-56.1	-88.5	294	7
2023-09-26T18:00	25470	24	-56.0	-88.4	295	6
2023-09-26T18:00	25499	24	-56.1	-88.5	297	5
2023-09-26T18:00	25527	24	-56.1	-88.5	299	4
2023-09-26T18:00	25557	24	-56.0	-88.4	300	3
2023-09-26T18:00	25579	24	-56.1	-88.5	301	2
2023-09-26T18:00	25604	24	-56.2	-88.6	300	1
2023-09-26T18:00	25634	23	-56.1	-88.5	295	1
2023-09-26T18:00	25657	23	-56.0	-88.4	286	1
2023-09-26T18:00	25685	23	-56.1	-88.5	275	1
2023-09-26T18:00	25714	23	-56.0	-88.4	265	1
2023-09-26T18:00	25733	23	-55.9	-88.4	258	2
2023-09-26T18:00	25764	23	-55.7	-88.2	254	2
2023-09-26T18:00	25790	23	-55.8	-88.3	256	2
2023-09-26T18:00	25819	23	-55.9	-88.4	261	3
2023-09-26T18:00	25839	23	-55.9	-88.4	269	4
2023-09-26T18:00	25871	23	-56.0	-88.4	276	4
2023-09-26T18:00	25895	23	-55.9	-88.4	280	5
2023-09-26T18:00	25923	22	-55.9	-88.4	284	6
2023-09-26T18:00	25954	22	-55.9	-88.4	287	8
2023-09-26T18:00	25975	22	-55.8	-88.3	290	8
2023-09-26T18:00	26002	22	-55.8	-88.3	294	9
2023-09-26T18:00	26026	22	-55.8	-88.3	298	10
2023-09-26T18:00	26058	22	-55.8	-88.3	302	11
2023-09-26T18:00	26076	22	-55.8	-88.3	305	12
2023-09-26T18:00	26108	22	-55.9	-88.4	307	12
2023-09-26T18:00	26129	22	-55.9	-88.4	309	13
2023-09-26T18:00	26160	22	-55.8	-88.3	310	13
2023-09-26T18:00	26187	22	-55.7	-88.2	311	13
2023-09-26T18:00	26204	21	-55.6	-88.1	313	12
2023-09-26T18:00	26239	21	-55.4	-88.0	315	11
2023-09-26T18:00	26262	21	-55.4	-88.0	317	11
2023-09-26T18:00	26293	21	-55.5	-88.1	320	10
2023-09-26T18:00	26314	21	-55.5	-88.1	322	10
2023-09-26T18:00	26342	21	-55.7	-88.2	324	9
2023-09-26T18:00	26367	21	-55.8	-88.3	325	9
2023-09-26T18:00	26401	21	-55.9	-88.4	324	8
2023-09-26T18:00	26421	21	-56.0	-88.4	322	7
2023-09-26T18:00	26449	21	-56.0	-88.4	317	7
2023-09-26T18:00	26477	21	-55.9	-88.4	311	6
2023-09-26T18:00	26498	20	-55.9	-88.4	304	6
2023-09-26T18:00	26531	20	-55.9	-88.4	297	6
2023-09-26T18:00	26559	20	-56.0	-88.4	292	6
2023-09-26T18:00	26593	20	-55.9	-88.4	290	6
2023-09-26T18:00	26609	20	-55.9	-88.4	289	6
2023-09-26T18:00	26641	20	-55.5	-88.1	290	6
2023-09-26T18:00	26667	20	-55.7	-88.2	292	6
2023-09-26T18:00	26694	20	-55.9	-88.4	294	6
2023-09-26T18:00	26723	20	-56.1	-88.5	296	6
2023-09-26T18:00	26753	20	-56.2	-88.6	300	6
2023-09-26T18:00	26782	20	-56.2	-88.6	303	7
2023-09-26T18:00	26813	20	-56.2	-88.6	306	7
2023-09-26T18:00	26836	19	-56.2	-88.6	308	8
2023-09-26T18:00	26855	19	-56.2	-88.6	309	8
2023-09-26T18:00	26879	19	-56.3	-88.6	309	9
2023-09-26T18:00	26918	19	-56.4	-88.7	309	9
2023-09-26T18:00	26947	19	-56.4	-88.7	309	9
2023-09-26T18:00	26977	19	-56.2	-88.6	309	10
2023-09-26T18:00	26994	19	-56.1	-88.5	310	10
2023-09-26T18:00	27027	19	-56.0	-88.4	312	10
2023-09-26T18:00	27059	19	-56.0	-88.4	313	10
2023-09-26T18:00	27089	19	-55.9	-89.2	314	10
2023-09-26T18:00	27125	19	-55.6	-89.0	316	10
2023-09-26T18:00	27144	19	-55.3	-88.8	319	10
2023-09-26T18:00	27176	18	-55.1	-88.6	323	10
2023-09-26T18:00	27205	18	-55.3	-88.8	326	10
2023-09-26T18:00	27238	18	-55.4	-88.9	329	9
2023-09-26T18:00	27269	18	-55.2	-88.7	331	9
2023-09-26T18:00	27288	18	-54.9	-88.5	331	8
2023-09-26T18:00	27329	18	-54.9	-88.5	332	7
2023-09-26T18:00	27357	18	-55.0	-88.6	332	6
2023-09-26T18:00	27379	18	-55.0	-88.6	332	5
2023-09-26T18:00	27414	18	-55.1	-87.8	333	4
2023-09-26T18:00	27436	18	-55.1	-87.8	335	3
2023-09-26T18:00	27470	18	-55.1	-87.8	338	2
2023-09-26T18:00	27493	18	-55.3	-87.9	338	2
2023-09-26T18:00	27522	17	-55.5	-88.1	332	1
2023-09-26T18:00	27555	17	-55.6	-88.1	312	1
2023-09-26T18:00	27586	17	-55.5	-88.1	289	1
2023-09-26T18:00	27597	17	-55.6	-88.1	275	2
2023-09-26T18:00	27641	17	-55.5	-88.9	269	3
2023-09-26T18:00	27663	17	-55.3	-88.8	267	4
2023-09-26T18:00	27696	17	-55.1	-88.6	267	5
2023-09-26T18:00	27733	17	-54.9	-88.5	268	6
2023-09-26T18:00	27748	17	-54.9	-88.5	271	6
2023-09-26T18:00	27783	17	-54.9	-88.5	275	7
2023-09-26T18:00	27813	17	-54.9	-88.5	279	7
2023-09-26T18:00	27834	17	-54.8	-88.4	284	8
2023-09-26T18:00	27865	17	-54.7	-88.4	288	8
2023-09-26T18:00	27892	16	-54.7	-88.4	290	8
2023-09-26T18:00	27914	16	-54.7	-88.4	291	8
2023-09-26T18:00	27945	16	-54.5	-88.2	292	8
2023-09-26T18:00	27972	16	-54.3	-88.1	292	7
2023-09-26T18:00	27995	16	-54.2	-88.0	292	7
2023-09-26T18:00	28023	16	-54.0	-87.8	293	7
2023-09-26T18:00	28057	16	-53.9	-87.8	293	7
2023-09-26T18:00	28084	16	-53.9	-87.8	293	7
2023-09-26T18:00	28112	16	-53.9	-87.8	293	7
2023-09-26T18:00	28134	16	-53.9	-87.8	292	8
2023-09-26T18:00	28173	16	-53.9	-87.8	292	8
2023-09-26T18:00	28202	16	-53.8	-87.7	293	8
2023-09-26T18:00	28217	16	-53.8	-87.7	295	8
2023-09-26T18:00	28253	16	-53.6	-87.6	299	8
2023-09-26T18:00	28281	16	-53.5	-87.5	303	8
2023-09-26T18:00	28305	15	-53.5	-87.5	307	8
2023-09-26T18:00	28327	15	-53.6	-87.6	310	8
2023-09-26T18:00	28354	15	-53.6	-87.6	312	8
2023-09-26T18:00	28386	15	-53.6	-87.6	314	8
2023-09-26T18:00	28413	15	-53.5	-87.5	315	8
2023-09-26T18:00	28450	15	-53.3	-87.3	317	7
2023-09-26T18:00	28472	15	-53.3	-87.3	318	7
2023-09-26T18:00	28501	15	-53.4	-87.4	319	7
2023-09-26T18:00	28534	15	-53.3	-87.3	319	6
2023-09-26T18:00	28550	15	-53.2	-88.3	320	6
2023-09-26T18:00	28578	15	-53.1	-88.2	321	6
2023-09-26T18:00	28624	15	-52.9	-87.1	322	6
2023-09-26T18:00	28640	15	-52.9	-87.1	324	6
2023-09-26T18:00	28681	15	-53.1	-87.2	326	5
2023-09-26T18:00	28694	15	-53.3	-87.3	327	4
2023-09-26T18:00	28738	14	-53.5	-87.5	326	4
2023-09-26T18:00	28765	14	-53.6	-87.6	322	4
2023-09-26T18:00	28800	14	-53.7	-87.6	314	3
2023-09-26T18:00	28826	14	-53.8	-87.7	306	4
2023-09-26T18:00	28854	14	-53.8	-87.7	299	4
2023-09-26T18:00	28883	14	-53.9	-87.8	294	5
2023-09-26T18:00	28908	14	-53.8	-87.7	291	5
2023-09-26T18:00	28944	14	-53.7	-87.6	289	6
2023-09-26T18:00	28977	14	-53.7	-87.6	287	7
2023-09-26T18:00	29002	14	-53.6	-87.6	284	8
2023-09-26T18:00	29035	14	-53.6	-87.6	282	9
2023-09-26T18:00	29070	14	-53.7	-87.6	280	10
2023-09-26T18:00	29101	14	-53.7	-87.6	280	10
2023-09-26T18:00	29125	14	-53.6	-87.6	281	11
2023-09-26T18:00	29173	14	-53.6	-87.6	283	12
2023-09-26T18:00	29193	13	-53.7	-87.6	286	12
2023-09-26T18:00	29222	13	-53.5	-87.5	290	12
2023-09-26T18:00	29249	13	-53.3	-87.3	294	12
2023-09-26T18:00	29278	13	-53.3	-87.3	298	11
2023-09-26T18:00	29316	13	-53.4	-87.4	302	11
2023-09-26T18:00	29335	13	-53.6	-87.6	305	11
2023-09-26T18:00	29386	13	-53.6	-87.6	308	11
2023-09-26T18:00	29394	13	-53.7	-87.6	311	10
2023-09-26T18:00	29425	13	-53.8	-87.7	312	10
2023-09-26T18:00	29464	13	-53.8	-87.7	311	10
2023-09-26T18:00	29489	13	-53.7	-87.6	309	10
2023-09-26T18:00	29503	13	-53.7	-87.6	305	10
2023-09-26T18:00	29551	13	-53.6	-87.6	300	10
2023-09-26T18:00	29565	13	-53.5	-88.5	296	9
2023-09-26T18:00	29591	13	-53.4	-88.4	292	9
2023-09-26T18:00	29619	13	-53.1	-88.2	290	9
2023-09-26T18:00	29658	13	-52.9	-88.1	288	9
2023-09-26T18:00	29687	12	-52.8	-88.0	286	10
2023-09-26T18:00	29706	12	-52.7	-87.9	284	10
2023-09-26T18:00	29729	12	-52.6	-87.9	282	11
2023-09-26T18:00	29769	12	-52.6	-87.9	281	11
2023-09-26T18:00	29791	12	-52.5	-87.8	279	12
2023-09-26T18:00	29810	12	-52.3	-87.7	279	12
2023-09-26T18:00	29839	12	-52.2	-87.6	278	12
2023-09-26T18:00	29867	12	-52.1	-87.5	278	12
2023-09-26T18:00	29892	12	-51.5	-87.1	278	12
2023-09-26T18:00	29919	12	-51.3	-87.0	278	12
2023-09-26T18:00	29941	12	-51.2	-86.9	279	12
2023-09-26T18:00	29966	12	-50.9	-86.7	280	12
2023-09-26T18:00	29996	12	-50.6	-86.5	281	13
2023-09-26T18:00	30024	12	-50.4	-86.3	282	14
2023-09-26T18:00	30039	12	-50.2	-86.2	283	15
2023-09-26T18:00	30066	12	-50.1	-86.1	285	15
2023-09-26T18:00	30092	12	-50.2	-86.2	286	16
2023-09-26T18:00	30114	12	-50.3	-86.2	288	16
2023-09-26T18:00	30151	12	-50.3	-86.2	291	17
2023-09-26T18:00	30169	12	-50.3	-86.2	293	17
2023-09-26T18:00	30204	12	-50.3	-86.2	295	17
2023-09-26T18:00	30224	11	-50.0	-86.0	296	16
2023-09-26T18:00	30247	11	-50.0	-86.0	296	16
2023-09-26T18:00	30277	11	-49.8	-85.9	296	16
2023-09-26T18:00	30299	11	-50.0	-86.0	296	16
2023-09-26T18:00	30345	11	-50.2	-86.2	297	15
2023-09-26T18:00	30367	11	-50.3	-86.2	298	15
2023-09-26T18:00	30398	11	-50.4	-86.3	299	16
2023-09-26T18:00	30424	11	-50.4	-86.3	300	16
2023-09-26T18:00	30456	11	-50.3	-86.2	302	16
2023-09-26T18:00	30490	11	-50.4	-86.3	303	16
2023-09-26T18:00	30519	11	-50.6	-86.5	304	16
2023-09-26T18:00	30548	11	-50.6	-86.5	305	16
2023-09-26T18:00	30588	11	-50.8	-86.6	306	16
2023-09-26T18:00	30603	11	-51.0	-86.7	306	15
2023-09-26T18:00	30634	11	-50.8	-86.6	305	15
2023-09-26T18:00	30674	11	-50.5	-86.4	304	14
2023-09-26T18:00	30705	11	-50.5	-86.4	303	14
2023-09-26T18:00	30756	11	-50.7	-86.5	303	14
2023-09-26T18:00	30759	11	-50.6	-86.5	303	14
2023-09-26T18:00	30792	11	-50.4	-86.3	303	15
2023-09-26T18:00	30845	10	-50.4	-86.3	302	15
2023-09-26T18:00	30869	10	-50.2	-86.2	301	15
2023-09-26T18:00	30891	10	-49.8	-85.9	299	15
2023-09-26T18:00	30923	10	-49.7	-85.8	299	15
2023-09-26T18:00	30962	10	-49.8	-85.9	299	14
2023-09-26T18:00	31002	10	-49.8	-85.9	300	14
2023-09-26T18:00	31028	10	-49.9	-86.0	303	14
2023-09-26T18:00	31069	10	-49.9	-86.0	305	14
2023-09-26T18:00	31090	10	-49.8	-85.9	308	15
2023-09-26T18:00	31112	10	-49.9	-86.0	310	15
2023-09-26T18:00	31150	10	-50.1	-86.1	313	15
2023-09-26T18:00	31186	10	-50.4	-86.3	316	15
2023-09-26T18:00	31219	10	-50.6	-86.5	319	15
2023-09-26T18:00	31242	10	-50.8	-86.6	323	15
2023-09-26T18:00	31279	10	-50.9	-86.7	327	15
2023-09-26T18:00	31303	10	-50.9	-86.7	331	15
2023-09-26T18:00	31343	10	-50.7	-86.5	334	14
2023-09-26T18:00	31366	10	-50.7	-86.5	337	14
2023-09-26T18:00	31409	10	-50.7	-86.5	340	13
2023-09-26T18:00	31422	10	-50.4	-86.3	343	12
2023-09-26T18:00	31458	10	-50.2	-86.2	346	11
2023-09-26T18:00	31488	9	-50.2	-86.2	348	10
2023-09-26T18:00	31525	9	-49.8	-85.9	350	9
2023-09-26T18:00	31552	9	-49.8	-85.9	351	8
2023-09-26T18:00	31589	9	-49.9	-86.0	350	7
2023-09-26T18:00	31621	9	-50.0	-86.0	350	6
2023-09-26T18:00	31641	9	-50.2	-86.2	349	6
2023-09-26T18:00	31691	9	-50.3	-86.2	348	5
2023-09-26T18:00	31702	9	-50.4	-86.3	346	4
2023-09-26T18:00	31747	9	-50.4	-86.3	342	4
2023-09-26T18:00	31780	9	-50.4	-86.3	336	4
2023-09-26T18:00	31798	9	-50.4	-86.3	326	4
2023-09-26T18:00	31818	9	-50.3	-86.2	316	4
2023-09-26T18:00	31860	9	-49.9	-86.0	308	5
2023-09-26T18:00	31878	9	-49.7	-85.8	301	6
2023-09-26T18:00	31916	9	-49.4	-85.6	296	7
2023-09-26T18:00	31946	9	-49.1	-85.4	292	8
2023-09-26T18:00	31955	9	-48.8	-85.2	287	8
2023-09-26T18:00	31997	9	-48.7	-85.1	283	9
2023-09-26T18:00	32013	9	-48.6	-85.0	279	9
2023-09-26T18:00	32048	9	-48.6	-85.0	276	9
2023-09-26T18:00	32086	9	-48.6	-85.0	274	10
2023-09-26T18:00	32117	9	-48.2	-84.8	272	10
2023-09-26T18:00	32128	9	-48.0	-84.6	271	10
2023-09-26T18:00	32169	9	-47.7	-84.4	271	11
2023-09-26T18:00	32201	9	-47.5	-84.3	272	12
2023-09-26T18:00	32206	8	-47.4	-84.2	273	12
2023-09-26T18:00	32252	8	-47.3	-84.1	276	13
2023-09-26T18:00	32281	8	-46.9	-83.9	279	14
2023-09-26T18:00	32305	8	-46.5	-83.6	283	14
2023-09-26T18:00	32326	8	-46.2	-83.4	287	14
2023-09-26T18:00	32366	8	-46.0	-83.2	291	14
2023-09-26T18:00	32404	8	-46.1	-83.3	295	14
2023-09-26T18:00	32423	8	-46.0	-83.2	300	13
2023-09-26T18:00	32469	8	-46.0	-83.2	304	13
2023-09-26T18:00	32489	8	-46.0	-83.2	308	12
2023-09-26T18:00	32523	8	-46.1	-83.3	312	12
2023-09-26T18:00	32556	8	-46.1	-83.3	316	11
2023-09-26T18:00	32591	8	-46.2	-83.4	318	10
2023-09-26T18:00	32616	8	-46.2	-83.4	320	10
2023-09-26T18:00	32651	8	-46.0	-83.2	321	10
2023-09-26T18:00	32669	8	-45.9	-83.2	322	9
2023-09-26T18:00	32706	8	-45.9	-83.2	321	9
2023-09-26T18:00	32746	8	-45.9	-83.2	321	9
2023-09-26T18:00	32764	8	-45.7	-83.0	321	9
2023-09-26T18:00	32788	8	-45.5	-82.9	323	8
2023-09-26T18:00	32809	8	-45.2	-82.7	327	8
2023-09-26T18:00	32844	8	-45.2	-82.7	332	8
2023-09-26T18:00	32887	8	-45.4	-82.8	337	9
2023-09-26T18:00	32922	8	-45.6	-82.9	340	9
2023-09-26T18:00	32940	8	-45.8	-83.1	341	9
2023-09-26T18:00	32981	8	-46.0	-83.2	339	9
2023-09-26T18:00	33007	8	-45.7	-83.0	335	9
2023-09-26T18:00	33041	8	-45.7	-83.0	330	8
2023-09-26T18:00	33061	7	-45.7	-83.0	323	8
2023-09-26T18:00	33095	7	-45.5	-82.9	316	8
2023-09-26T18:00	33133	7	-45.4	-82.8	310	8
2023-09-26T18:00	33162	7	-45.2	-82.7	307	8
2023-09-26T18:00	33167	7	-45.0	-82.5	304	8
2023-09-26T18:00	33228	7	-45.1	-82.6	302	9
2023-09-26T18:00	33240	7	-45.3	-82.7	300	9
2023-09-26T18:00	33283	7	-45.4	-82.8	297	10
2023-09-26T18:00	33325	7	-45.6	-82.9	295	11
2023-09-26T18:00	33340	7	-45.6	-82.9	294	12
2023-09-26T18:00	33361	7	-45.4	-82.8	292	13
2023-09-26T18:00	33400	7	-45.4	-82.8	291	14
2023-09-26T18:00	33428	7	-45.3	-82.7	291	14
2023-09-26T18:00	33473	7	-45.0	-82.5	292	15
2023-09-26T18:00	33495	7	-44.9	-82.5	294	16
2023-09-26T18:00	33513	7	-44.7	-82.3	296	16
2023-09-26T18:00	33563	7	-44.1	-81.9	299	17
2023-09-26T18:00	33586	7	-43.6	-81.5	301	18
2023-09-26T18:00	33622	7	-43.5	-81.5	303	18
2023-09-26T18:00	33660	7	-43.2	-81.3	305	19
2023-09-26T18:00	33704	7	-43.1	-81.2	306	19
2023-09-26T18:00	33734	7	-42.6	-80.8	307	19
2023-09-26T18:00	33751	7	-41.9	-80.4	309	19
2023-09-26T18:00	33797	7	-41.3	-79.9	311	19
2023-09-26T18:00	33812	7	-40.8	-79.6	313	19
2023-09-26T18:00	33813	7	-40.7	-79.5	315	18
2023-09-26T18:00	33886	7	-40.8	-79.6	316	18
2023-09-26T18:00	33903	7	-41.0	-79.7	318	18
2023-09-26T18:00	33938	7	-41.4	-80.0	320	18
2023-09-26T18:00	33958	7	-41.4	-80.0	321	18
2023-09-26T18:00	33969	7	-41.6	-80.1	323	18
2023-09-26T18:00	34007	6	-41.8	-80.3	324	18
2023-09-26T18:00	34046	6	-42.0	-80.4	325	18
2023-09-26T18:00	34086	6	-42.2	-80.6	327	18
2023-09-26T18:00	34110	6	-42.3	-80.6	327	18
2023-09-26T18:00	34143	6	-42.4	-80.7	328	17
2023-09-26T18:00	34158	6	-42.4	-80.7	329	17
2023-09-26T18:00	34189	6	-42.5	-80.8	329	17
2023-09-26T18:00	34216	6	-42.6	-80.8	329	17
2023-09-26T18:00	34251	6	-42.8	-81.0	329	17
2023-09-26T18:00	34274	6	-43.0	-81.1	329	17
2023-09-26T18:00	34307	6	-43.2	-81.3	328	17
2023-09-26T18:00	34317	6	-43.4	-81.4	326	17
2023-09-26T18:00	34334	6	-43.3	-81.3	325	16
2023-09-26T18:00	34359	6	-43.2	-81.3	324	16
2023-09-26T18:00	34409	6	-42.9	-81.1	324	16
2023-09-26T18:00	34413	6	-42.8	-81.0	324	16
2023-09-26T18:00	34441	6	-42.8	-81.0	325	15
2023-09-26T18:00	34477	6	-43.0	-81.1	327	15
2023-09-26T18:00	34496	6	-42.9	-81.1	327	15
2023-09-26T18:00	34536	6	-42.3	-80.6	327	16
2023-09-26T18:00	34570	6	-41.8	-80.3	326	16
2023-09-26T18:00	34594	6	-41.3	-79.9	321	17
2023-09-26T18:00	34602	6	-41.1	-79.8	319	18
2023-09-26T18:00	34639	6	-41.0	-79.7	317	18
2023-09-26T18:00	34672	6	-40.7	-79.5	316	18
2023-09-26T18:00	34690	6	-40.4	-79.3	314	18
2023-09-26T18:00	34751	6	-40.3	-79.2	314	18
2023-09-26T18:00	34785	6	-40.1	-79.1	313	17
2023-09-26T18:00	34795	6	-39.8	-78.9	313	17
2023-09-26T18:00	34837	6	-39.6	-78.8	313	16
2023-09-26T18:00	34867	6	-39.4	-78.6	312	15
2023-09-26T18:00	34894	6	-39.4	-78.6	312	14
2023-09-26T18:00	34906	6	-39.5	-78.7	313	13
2023-09-26T18:00	34931	6	-39.3	-78.5	316	12
2023-09-27T00:00	112	1008	17.4	15.9	130	3
2023-09-27T00:00	133	1006	17.9	16.3	141	3
2023-09-27T00:00	159	1003	18.1	16.2	149	4
2023-09-27T00:00	181	1000	18.6	16.3	158	6
2023-09-27T00:00	204	997	19.0	16.1	165	7
2023-09-27T00:00	226	995	19.8	16.1	172	8
2023-09-27T00:00	250	992	20.4	16.1	177	8
2023-09-27T00:00	270	990	21.3	15.5	180	8
2023-09-27T00:00	291	987	21.5	15.2	182	7
2023-09-27T00:00	314	985	21.4	14.7	182	7
2023-09-27T00:00	335	983	21.3	14.6	181	7
2023-09-27T00:00	354	980	21.2		180	7
2023-09-27T00:00	379	977	21.1	14.1	180	7
2023-09-27T00:00	408	974	20.9	13.1	180	7
2023-09-27T00:00	430	972	20.8	14.0	180	7
2023-09-27T00:00	458	969	20.6	14.2	180	7
2023-09-27T00:00	481	966	20.5	14.3	182	7
2023-09-27T00:00	502	963	20.4	14.4	184	7
2023-09-27T00:00	527	961	20.2	14.3	186	7
2023-09-27T00:00	558	958	20.0	14.1	189	7
2023-09-27T00:00	580	955	19.8	14.1	191	7
2023-09-27T00:00	606	952	19.5	13.8	193	7
2023-09-27T00:00	636	949	19.3	13.3	194	7
2023-09-27T00:00	660	946	19.2	12.7	195	7
2023-09-27T00:00	683	944	19.2	12.0	195	7
2023-09-27T00:00	711	941	19.0	11.6	195	8
2023-09-27T00:00	737	938	18.9	11.4	195	8
2023-09-27T00:00	760	935	18.7	11.7	196	8
2023-09-27T00:00	785	933	18.5	12.0	196	9
2023-09-27T00:00	809	930	18.3	12.2	197	9
2023-09-27T00:00	832	927	18.1	12.2	199	10
2023-09-27T00:00	856	925	18.0	12.3	200	10
2023-09-27T00:00	885	922	17.8	12.5	200	11
2023-09-27T00:00	910	919	17.6	12.9	201	11
2023-09-27T00:00	933	917	17.4	13.1	201	11
2023-09-27T00:00	956	914	17.2	13.4	201	11
2023-09-27T00:00	981	911	17.0	13.4	200	12
2023-09-27T00:00	1008	909	16.8	13.3	200	12
2023-09-27T00:00	1033	906	16.6	13.2	200	12
2023-09-27T00:00	1061	903	16.4	13.0	200	13
2023-09-27T00:00	1085	900	16.3	12.8	201	13
2023-09-27T00:00	1113	897	16.1	12.6	202	13
2023-09-27T00:00	1144	894	16.0	12.5	203	13
2023-09-27T00:00	1174	891	15.8	12.5	203	13
2023-09-27T00:00	1201	888	15.5	12.4	204	13
2023-09-27T00:00	1228	885	15.2	12.4	204	13
2023-09-27T00:00	1258	882	15.0	12.2	205	13
2023-09-27T00:00	1289	879	14.7	12.1	206	13
2023-09-27T00:00	1315	876	14.5	12.1	207	12
2023-09-27T00:00	1343	874	14.2	11.8	207	12
2023-09-27T00:00	1368	871	14.1	11.7	208	12
2023-09-27T00:00	1384	869	13.9	11.6	208	11
2023-09-27T00:00	1404	867	13.8	11.6	208	11
2023-09-27T00:00	1428	865	13.5	11.5	209	12
2023-09-27T00:00	1455	862	13.3	11.3	209	12
2023-09-27T00:00	1482	859	13.1	11.2	210	12
2023-09-27T00:00	1511	856	12.8	11.0	210	12
2023-09-27T00:00	1533	854	12.7	10.7	210	12
2023-09-27T00:00	1559	851	12.6	10.4	210	11
2023-09-27T00:00	1587	849	12.5	9.9	211	10
2023-09-27T00:00	1618	846	12.6	8.5	213	10
2023-09-27T00:00	1646	843	12.8	7.7	215	9
2023-09-27T00:00	1671	840	12.7	7.6	216	9
2023-09-27T00:00	1703	837	12.4	7.3	218	9
2023-09-27T00:00	1728	834	12.2	7.0	218	9
2023-09-27T00:00	1750	832	12.2	6.9	218	9
2023-09-27T00:00	1771	830	12.3	6.4	218	9
2023-09-27T00:00	1789	828	12.3	6.1	216	8
2023-09-27T00:00	1816	826	12.2	5.6	212	8
2023-09-27T00:00	1840	823	12.2	5.2	209	7
2023-09-27T00:00	1866	821	12.0	4.7	207	7
2023-09-27T00:00	1894	818	12.2	4.5	207	7
2023-09-27T00:00	1923	815	12.7	3.6	210	6
2023-09-27T00:00	1949	813	13.0	3.7	214	6
2023-09-27T00:00	1980	810	12.8	3.6	217	7
2023-09-27T00:00	2008	807	12.6	3.5	220	7
2023-09-27T00:00	2031	805	12.4	3.5	221	7
2023-09-27T00:00	2054	803	12.2	3.4	220	7
2023-09-27T00:00	2078	800	12.1	3.3	218	7
2023-09-27T00:00	2100	798	12.0	2.8	215	7
2023-09-27T00:00	2128	796	11.9	2.2	212	7
2023-09-27T00:00	2154	793	11.7	2.5	208	7
2023-09-27T00:00	2181	791	11.5	2.8	206	7
2023-09-27T00:00	2203	789	11.4	3.1	204	7
2023-09-27T00:00	2223	786	11.3	3.1	204	7
2023-09-27T00:00	2250	784	11.1	2.7	205	7
2023-09-27T00:00	2271	782	10.9	2.6	207	7
2023-09-27T00:00	2301	779	10.7	2.5	208	7
2023-09-27T00:00	2330	777	10.5	2.5	208	7
2023-09-27T00:00	2352	775	10.3	2.2	208	7
2023-09-27T00:00	2379	772	10.1	2.3	208	7
2023-09-27T00:00	2406	770	9.8	1.9	207	7
2023-09-27T00:00	2429	767	9.7	1.7	208	7
2023-09-27T00:00	2456	765	9.6	0.9	208	8
2023-09-27T00:00	2480	763	9.5	0.7	209	8
2023-09-27T00:00	2500	761	9.5	-1.0	211	8
2023-09-27T00:00	2523	759	9.6	-2.0	212	8
2023-09-27T00:00	2548	756	9.6	-2.7	212	8
2023-09-27T00:00	2575	754	9.6	-3.4	212	8
2023-09-27T00:00	2591	752	9.5	-3.5	211	8
2023-09-27T00:00	2616	750	9.3	-3.0	210	9
2023-09-27T00:00	2642	748	9.3	-3.7	208	9
2023-09-27T00:00	2672	745	9.1	-4.3	207	9
2023-09-27T00:00	2707	742	8.9	-3.8	205	9
2023-09-27T00:00	2729	740	8.8	-3.6	204	9
2023-09-27T00:00	2749	738	8.6	-3.4	203	9
2023-09-27T00:00	2772	736	8.5	-3.5	202	9
2023-09-27T00:00	2792	734	8.3	-3.6	201	9
2023-09-27T00:00	2818	732	8.2	-3.8	201	9
2023-09-27T00:00	2844	730	8.0	-3.8	202	9
2023-09-27T00:00	2862	728	7.9	-3.7	204	9
2023-09-27T00:00	2887	726	7.7	-4.0	205	9
2023-09-27T00:00	2908	724	7.6	-4.3	205	9
2023-09-27T00:00	2939	722	7.3	-4.7	203	9
2023-09-27T00:00	2966	719	7.2	-5.0	201	9
2023-09-27T00:00	2984	718	7.0	-5.0	198	9
2023-09-27T00:00	3000	716	6.9	-4.7	196	9
2023-09-27T00:00	3017	715	6.9	-4.5	195	10
2023-09-27T00:00	3034	713	6.9	-5.7	195	10
2023-09-27T00:00	3054	711	6.8	-5.3	195	10
2023-09-27T00:00	3084	709	6.7	-5.2	195	10
2023-09-27T00:00	3115	706	6.5	-5.0	195	10
2023-09-27T00:00	3138	704	6.4	-4.9	195	10
2023-09-27T00:00	3174	701	6.2		194	10
2023-09-27T00:00	3197	699	6.1	-5.8	194	10
2023-09-27T00:00	3230	697	5.9	-5.7	194	10
2023-09-27T00:00	3249	695	5.8	-5.4	196	10
2023-09-27T00:00	3272	693	5.6	-5.2	198	11
2023-09-27T00:00	3298	691	5.4	-4.5	201	11
2023-09-27T00:00	3318	689	5.3	-4.6	204	11
2023-09-27T00:00	3344	687	5.1	-4.8	206	11
2023-09-27T00:00	3372	684	4.9	-4.8	206	11
2023-09-27T00:00	3406	682	4.6	-4.9	205	11
2023-09-27T00:00	3438	679	4.4	-5.0	205	10
2023-09-27T00:00	3463	677	4.2	-6.1	204	10
2023-09-27T00:00	3488	675	4.2	-9.1	205	10
2023-09-27T00:00	3505	673	4.2	-8.7	206	10
2023-09-27T00:00	3527	672	4.0	-7.4	206	10
2023-09-27T00:00	3550	669	3.8	-6.3	206	10
2023-09-27T00:00	3592	666	3.5	-6.4	204	10
2023-09-27T00:00	3623	664	3.4	-7.3	203	10
2023-09-27T00:00	3645	662	3.4	-8.2	201	10
2023-09-27T00:00	3668	660	3.2	-8.2	200	10
2023-09-27T00:00	3695	658	3.0	-8.3	200	10
2023-09-27T00:00	3716	656	2.8	-8.4	202	10
2023-09-27T00:00	3743	654	2.6	-8.6	203	10
2023-09-27T00:00	3767	652	2.4	-8.7	204	10
2023-09-27T00:00	3790	650	2.2	-8.7	203	10
2023-09-27T00:00	3814	648	2.1	-8.8	202	10
2023-09-27T00:00	3836	646	1.9	-9.0	200	9
2023-09-27T00:00	3856	645	1.8	-9.1	198	9
2023-09-27T00:00	3876	643	1.8	-8.7	197	9
2023-09-27T00:00	3901	641	1.6	-9.0	198	9
2023-09-27T00:00	3919	640	1.5	-9.4	200	9
2023-09-27T00:00	3936	638	1.5	-9.7	203	10
2023-09-27T00:00	3955	637	1.4	-9.5	207	10
2023-09-27T00:00	3972	635	1.3	-9.9	210	11
2023-09-27T00:00	4003	633	1.1	-10.7	212	11
2023-09-27T00:00	4027	631	1.0	-11.6	214	11
2023-09-27T00:00	4053	629	0.9	-11.6	214	11
2023-09-27T00:00	4073	628	0.7	-11.5	214	12
2023-09-27T00:00	4091	626	0.6	-11.4	213	12
2023-09-27T00:00	4118	624	0.4	-11.7	213	12
2023-09-27T00:00	4138	623	0.3	-12.0	213	12
2023-09-27T00:00	4153	621	0.2	-12.1	213	12
2023-09-27T00:00	4181	619	0.0	-12.1	214	12
2023-09-27T00:00	4216	617	-0.2	-12.5	215	12
2023-09-27T00:00	4241	615	-0.4	-11.9	216	12
2023-09-27T00:00	4270	612	-0.6	-11.7	216	12
2023-09-27T00:00	4299	610	-0.9	-12.0	217	12
2023-09-27T00:00	4318	609	-1.0	-11.8	216	12
2023-09-27T00:00	4346	606	-1.2	-11.9	216	12
2023-09-27T00:00	4373	604	-1.4	-12.0	216	12
2023-09-27T00:00	4402	603	-1.5	-12.0	217	11
2023-09-27T00:00	4424	601	-1.7	-12.4	219	11
2023-09-27T00:00	4450	599	-1.8	-12.0	220	11
2023-09-27T00:00	4480	597	-1.9	-13.1	221	11
2023-09-27T00:00	4498	595	-2.0	-13.2	222	12
2023-09-27T00:00	4514	594	-2.2	-13.4	221	12
2023-09-27T00:00	4533	592	-2.2	-13.6	220	12
2023-09-27T00:00	4552	591	-2.3	-13.3	219	12
2023-09-27T00:00	4572	590	-2.4	-13.4	219	12
2023-09-27T00:00	4589	588	-2.5	-13.4	219	12
2023-09-27T00:00	4612	587	-2.7	-13.6	220	12
2023-09-27T00:00	4635	585	-2.9	-13.7	220	13
2023-09-27T00:00	4660	583	-3.1	-13.8	220	13
2023-09-27T00:00	4690	581	-3.4	-14.0	220	13
2023-09-27T00:00	4715	579	-3.6	-14.0	220	13
2023-09-27T00:00	4738	577	-3.8	-14.0	221	13
2023-09-27T00:00	4764	576	-4.0	-14.3	221	13
2023-09-27T00:00	4790	573	-4.0	-14.8	222	12
2023-09-27T00:00	4820	572	-4.2	-15.2	223	11
2023-09-27T00:00	4838	570	-4.2	-15.6	224	11
2023-09-27T00:00	4858	569	-4.3	-16.3	225	10
2023-09-27T00:00	4879	567	-4.4	-16.6	225	10
2023-09-27T00:00	4909	565	-4.5	-17.5	226	10
2023-09-27T00:00	4935	563	-4.4	-18.0	226	10
2023-09-27T00:00	4955	562	-4.4	-18.8	226	10
2023-09-27T00:00	4973	560	-4.6	-19.2	225	10
2023-09-27T00:00	4992	559	-4.7	-19.6	224	10
2023-09-27T00:00	5009	558	-4.9	-20.5	223	10
2023-09-27T00:00	5028	556	-4.9	-21.8	222	10
2023-09-27T00:00	5046	555	-5.0	-21.8	220	9
2023-09-27T00:00	5068	554	-5.2	-22.4	219	9
2023-09-27T00:00	5098	552	-5.4	-22.1	218	9
2023-09-27T00:00	5122	550	-5.5	-22.9	217	9
2023-09-27T00:00	5142	549	-5.7	-23.2	216	9
2023-09-27T00:00	5160	547	-5.8	-22.7	216	9
2023-09-27T00:00	5179	546	-6.0	-22.7	216	9
2023-09-27T00:00	5198	545	-6.1	-22.6	216	9
2023-09-27T00:00	5220	543	-6.3	-22.8	216	9
2023-09-27T00:00	5251	541	-6.4	-24.3	216	9
2023-09-27T00:00	5277	539	-6.6	-24.5	216	10
2023-09-27T00:00	5306	537	-6.8	-24.6	217	10
2023-09-27T00:00	5322	536	-7.0	-24.9	217	10
2023-09-27T00:00	5340	535	-7.1	-25.0	218	10
2023-09-27T00:00	5361	533	-7.1	-24.7	219	10
2023-09-27T00:00	5381	532	-7.3	-21.7	220	11
2023-09-27T00:00	5411	530	-7.6	-20.0	220	11
2023-09-27T00:00	5435	528	-7.8	-19.6	220	11
2023-09-27T00:00	5461	526	-7.9	-20.2	219	10
2023-09-27T00:00	5493	524	-7.9	-20.8	217	10
2023-09-27T00:00	5519	523	-8.0	-21.2	214	10
2023-09-27T00:00	5538	521	-8.2	-21.4	211	10
2023-09-27T00:00	5565	520	-8.3	-21.5	209	10
2023-09-27T00:00	5589	518	-8.5	-21.8	208	10
2023-09-27T00:00	5613	516	-8.7	-22.4	208	10
2023-09-27T00:00	5631	515	-8.8	-22.9	208	10
2023-09-27T00:00	5661	513	-9.1	-22.9	208	10
2023-09-27T00:00	5695	511	-9.4	-23.2	209	10
2023-09-27T00:00	5714	510	-9.6	-23.3	209	10
2023-09-27T00:00	5733	508	-9.7	-23.4	210	10
2023-09-27T00:00	5751	507	-9.9	-23.5	211	10
2023-09-27T00:00	5770	506	-10.0	-24.8	211	10
2023-09-27T00:00	5787	505	-10.1	-25.3	211	10
2023-09-27T00:00	5810	503	-10.3	-25.9	211	10
2023-09-27T00:00	5839	501	-10.4	-27.3	211	10
2023-09-27T00:00	5867	499	-10.6	-27.6	211	10
2023-09-27T00:00	5897	498	-10.8	-27.3	212	11
2023-09-27T00:00	5925	496	-11.0	-27.5	213	11
2023-09-27T00:00	5940	495	-11.2	-27.9	214	11
2023-09-27T00:00	5962	493	-11.3	-28.0	214	11
2023-09-27T00:00	5981	492	-11.5	-28.3	215	11
2023-09-27T00:00	5999	491	-11.7	-28.4	215	12
2023-09-27T00:00	6022	490	-11.9	-28.6	215	12
2023-09-27T00:00	6048	488	-12.1	-28.7	214	12
2023-09-27T00:00	6077	486	-12.3	-29.0	213	13
2023-09-27T00:00	6103	484	-12.5	-29.4	212	13
2023-09-27T00:00	6128	483	-12.8	-29.6	212	14
2023-09-27T00:00	6159	481	-13.0	-29.6	212	14
2023-09-27T00:00	6184	479	-13.3	-29.9	212	14
2023-09-27T00:00	6213	478	-13.5	-30.4	212	14
2023-09-27T00:00	6230	476	-13.7	-30.6	213	14
2023-09-27T00:00	6246	475	-13.8	-30.6	215	14
2023-09-27T00:00	6265	474	-14.0	-30.7	217	13
2023-09-27T00:00	6284	473	-14.1	-30.8	219	13
2023-09-27T00:00	6305	472	-14.3	-30.9	220	12
2023-09-27T00:00	6332	470	-14.6	-31.2	220	12
2023-09-27T00:00	6359	468	-14.8	-31.0	219	11
2023-09-27T00:00	6393	466	-15.1	-31.0	217	11
2023-09-27T00:00	6416	465	-15.4	-30.9	215	11
2023-09-27T00:00	6433	464	-15.5	-30.7	214	12
2023-09-27T00:00	6454	463	-15.7	-30.2	213	12
2023-09-27T00:00	6475	461	-15.9	-30.3	213	12
2023-09-27T00:00	6503	460	-16.2	-30.5	213	12
2023-09-27T00:00	6522	458	-16.4	-30.6	213	12
2023-09-27T00:00	6540	457	-16.6	-30.4	213	12
2023-09-27T00:00	6560	456	-16.8	-30.2	213	11
2023-09-27T00:00	6578	455	-16.9	-30.3	213	11
2023-09-27T00:00	6612	453	-17.3	-30.1	212	11
2023-09-27T00:00	6634	452	-17.5	-30.4	212	11
2023-09-27T00:00	6651	451	-17.7	-30.2	213	11
2023-09-27T00:00	6669	449	-17.8	-30.1	214	11
2023-09-27T00:00	6687	448	-18.0	-30.3	216	11
2023-09-27T00:00	6705	447	-18.2	-30.4	217	11
2023-09-27T00:00	6723	446	-18.3	-30.4	218	11
2023-09-27T00:00	6740	445	-18.5	-30.6	218	11
2023-09-27T00:00	6760	444	-18.7	-30.7	218	11
2023-09-27T00:00	6778	443	-18.8	-30.9	219	11
2023-09-27T00:00	6795	442	-19.0	-31.0	220	11
2023-09-27T00:00	6814	441	-19.2	-31.2	221	10
2023-09-27T00:00	6835	440	-19.4	-31.4	222	10
2023-09-27T00:00	6854	438	-19.5	-32.4	223	10
2023-09-27T00:00	6871	437	-19.6	-33.8	223	10
2023-09-27T00:00	6890	436	-19.7	-34.9	223	10
2023-09-27T00:00	6908	435	-19.8	-36.1	223	10
2023-09-27T00:00	6930	434	-20.0	-36.7	223	10
2023-09-27T00:00	6951	433	-20.1	-37.9	224	9
2023-09-27T00:00	6974	431	-20.2	-40.6	224	9
2023-09-27T00:00	7001	430	-20.3	-43.6	225	8
2023-09-27T00:00	7030	428	-20.5	-44.6	224	8
2023-09-27T00:00	7060	426	-20.6	-45.6	223	8
2023-09-27T00:00	7091	425	-20.8	-45.3	221	7
2023-09-27T00:00	7114	423	-20.9	-45.0	218	7
2023-09-27T00:00	7139	422	-21.2	-46.0	215	7
2023-09-27T00:00	7168	420	-21.4	-46.2	210	7
2023-09-27T00:00	7196	419	-21.6	-46.0	204	7
2023-09-27T00:00	7226	417	-21.8		199	8
2023-09-27T00:00	7255	415	-22.0	-39.4	195	8
2023-09-27T00:00	7283	414	-22.2	-38.7	192	8
2023-09-27T00:00	7308	412	-22.4	-38.3	191	8
2023-09-27T00:00	7336	411	-22.7	-37.4	191	7
2023-09-27T00:00	7359	410	-22.8	-36.6	192	7
2023-09-27T00:00	7379	408	-23.0	-36.4	196	7
2023-09-27T00:00	7393	407	-23.1	-36.1	200	7
2023-09-27T00:00	7415	406	-23.3	-36.0	205	7
2023-09-27T00:00	7434	405	-23.5	-36.4	208	7
2023-09-27T00:00	7449	404	-23.6	-37.0	211	7
2023-09-27T00:00	7472	403	-23.7	-36.6	213	7
2023-09-27T00:00	7490	402	-23.9	-35.5	214	7
2023-09-27T00:00	7510	401	-24.0	-35.9	215	7
2023-09-27T00:00	7531	400	-24.2	-35.2	215	7
2023-09-27T00:00	7563	398	-24.4	-34.8	216	7
2023-09-27T00:00	7583	397	-24.6	-34.7	215	8
2023-09-27T00:00	7599	396	-24.7	-34.5	214	7
2023-09-27T00:00	7617	395	-24.8	-34.3	212	7
2023-09-27T00:00	7636	394	-25.0	-34.4	211	7
2023-09-27T00:00	7653	393	-25.1	-34.3	209	7
2023-09-27T00:00	7673	392	-25.3	-34.5	209	7
2023-09-27T00:00	7690	391	-25.4	-34.5	209	7
2023-09-27T00:00	7714	390	-25.6	-34.4	210	7
2023-09-27T00:00	7741	389	-25.8	-34.4	212	7
2023-09-27T00:00	7763	387	-26.0	-34.6	213	7
2023-09-27T00:00	7782	386	-26.2	-34.7	213	7
2023-09-27T00:00	7806	385	-26.4	-34.7	214	7
2023-09-27T00:00	7827	384	-26.6	-35.0	213	7
2023-09-27T00:00	7849	383	-26.8	-35.0	213	7
2023-09-27T00:00	7869	382	-27.0	-35.2	212	7
2023-09-27T00:00	7890	381	-27.1	-35.4	212	7
2023-09-27T00:00	7913	379	-27.3	-35.7	212	8
2023-09-27T00:00	7932	378	-27.4	-35.7	212	8
2023-09-27T00:00	7950	377	-27.6	-35.7	213	8
2023-09-27T00:00	7969	376	-27.7	-35.6	215	8
2023-09-27T00:00	7990	375	-27.9	-35.7	216	9
2023-09-27T00:00	8014	374	-28.1	-35.9	217	9
2023-09-27T00:00	8042	373	-28.4	-35.9	216	9
2023-09-27T00:00	8066	371	-28.6	-35.8	215	9
2023-09-27T00:00	8090	370	-28.8	-35.8	213	9
2023-09-27T00:00	8118	369	-29.0	-35.8	211	9
2023-09-27T00:00	8143	367	-29.2	-35.8	210	9
2023-09-27T00:00	8169	366	-29.4	-35.8	210	9
2023-09-27T00:00	8193	365	-29.6	-35.1	210	9
2023-09-27T00:00	8215	364	-29.7	-35.8	209	9
2023-09-27T00:00	8239	363	-29.9	-36.6	208	9
2023-09-27T00:00	8259	361	-30.0	-38.3	207	9
2023-09-27T00:00	8277	361	-30.0	-39.6	207	9
2023-09-27T00:00	8292	360	-30.1	-40.0	207	9
2023-09-27T00:00	8311	359	-30.1	-40.0	207	10
2023-09-27T00:00	8331	358	-30.2	-40.1	208	10
2023-09-27T00:00	8347	357	-30.4	-40.3	208	10
2023-09-27T00:00	8365	356	-30.5	-40.4	208	10
2023-09-27T00:00	8383	355	-30.6	-40.3	208	10
2023-09-27T00:00	8401	354	-30.8	-40.4	208	10
2023-09-27T00:00	8418	353	-30.9	-40.2	208	10
2023-09-27T00:00	8435	353	-31.1		207	10
2023-09-27T00:00	8454	352	-31.2	-40.3	207	10
2023-09-27T00:00	8472	351	-31.4	-40.3	206	10
2023-09-27T00:00	8489	350	-31.6	-40.4	206	10
2023-09-27T00:00	8504	349	-31.7	-40.4	206	11
2023-09-27T00:00	8522	348	-31.9	-40.4	207	11
2023-09-27T00:00	8538	347	-32.0	-40.4	208	11
2023-09-27T00:00	8558	347	-32.2	-40.4	209	11
2023-09-27T00:00	8574	346	-32.3	-40.3	212	11
2023-09-27T00:00	8590	345	-32.5	-40.1	214	11
2023-09-27T00:00	8609	344	-32.6	-40.4	218	11
2023-09-27T00:00	8630	343	-32.8	-40.7	221	11
2023-09-27T00:00	8651	342	-32.8	-41.5	223	11
2023-09-27T00:00	8669	341	-32.9	-41.9	225	11
2023-09-27T00:00	8686	340	-33.0	-42.0	226	11
2023-09-27T00:00	8708	339	-33.1	-42.0	226	11
2023-09-27T00:00	8726	338	-33.3	-42.1	227	11
2023-09-27T00:00	8743	338	-33.4	-41.9	227	11
2023-09-27T00:00	8761	337	-33.6	-41.9	226	11
2023-09-27T00:00	8781	336	-33.7	-41.8	226	11
2023-09-27T00:00	8799	335	-33.8	-42.0	225	11
2023-09-27T00:00	8818	334	-34.0	-42.8	225	11
2023-09-27T00:00	8835	333	-34.1	-42.4	225	11
2023-09-27T00:00	8855	332	-34.3	-42.4	225	11
2023-09-27T00:00	8873	331	-34.5	-42.5	226	12
2023-09-27T00:00	8893	330	-34.6	-42.6	227	12
2023-09-27T00:00	8912	330	-34.7	-41.9	229	12
2023-09-27T00:00	8931	329	-34.8	-42.5	229	11
2023-09-27T00:00	8953	328	-34.9	-42.8	229	11
2023-09-27T00:00	8972	327	-34.9	-42.9	228	11
2023-09-27T00:00	8989	326	-34.8	-45.1	226	11
2023-09-27T00:00	9007	325	-34.7	-47.5	224	10
2023-09-27T00:00	9026	324	-34.6	-49.6	221	10
2023-09-27T00:00	9043	323	-34.6	-50.8	219	10
2023-09-27T00:00	9062	322	-34.5	-51.6	217	10
2023-09-27T00:00	9080	322	-34.6	-51.5	216	11
2023-09-27T00:00	9099	321	-34.7	-51.4	215	11
2023-09-27T00:00	9116	320	-34.9	-51.4	215	10
2023-09-27T00:00	9138	319	-35.0	-51.9	214	10
2023-09-27T00:00	9158	318	-35.1	-53.5	213	10
2023-09-27T00:00	9176	317	-35.2	-50.0	213	10
2023-09-27T00:00	9194	316	-35.3	-49.1	212	10
2023-09-27T00:00	9211	316	-35.4	-49.0	211	10
2023-09-27T00:00	9230	315	-35.5	-49.0	211	10
2023-09-27T00:00	9250	314	-35.7	-49.4	211	10
2023-09-27T00:00	9269	313	-35.8	-49.4	211	10
2023-09-27T00:00	9284	312	-35.9	-49.2	211	10
2023-09-27T00:00	9303	312	-36.1	-49.2	210	10
2023-09-27T00:00	9322	311	-36.3	-49.3	210	10
2023-09-27T00:00	9342	310	-36.4	-49.3	208	9
2023-09-27T00:00	9362	309	-36.5	-49.4	207	9
2023-09-27T00:00	9381	308	-36.7	-49.7	204	9
2023-09-27T00:00	9401	307	-36.8	-50.0	201	9
2023-09-27T00:00	9421	306	-37.0	-50.2	198	9
2023-09-27T00:00	9439	305	-37.1	-50.4	195	9
2023-09-27T00:00	9459	305	-37.2	-50.8	193	9
2023-09-27T00:00	9479	304	-37.4	-50.8	192	9
2023-09-27T00:00	9497	303	-37.5	-51.1	192	9
2023-09-27T00:00	9517	302	-37.6	-51.2	192	9
2023-09-27T00:00	9537	301	-37.8	-51.2	192	9
2023-09-27T00:00	9554	300	-37.9	-50.9	192	9
2023-09-27T00:00	9573	300	-38.1	-50.6	192	9
2023-09-27T00:00	9595	299	-38.3	-50.6	193	9
2023-09-27T00:00	9617	298	-38.5	-50.6	194	8
2023-09-27T00:00	9639	297	-38.7	-50.5	195	8
2023-09-27T00:00	9665	296	-39.0	-50.6	197	8
2023-09-27T00:00	9692	294	-39.2	-50.5	198	8
2023-09-27T00:00	9721	293	-39.5	-50.6	199	8
2023-09-27T00:00	9743	292	-39.7	-50.6	200	7
2023-09-27T00:00	9767	291	-40.0	-50.7	200	7
2023-09-27T00:00	9791	290	-40.2	-50.6	200	7
2023-09-27T00:00	9809	289	-40.3	-50.3	201	7
2023-09-27T00:00	9827	289	-40.5	-50.2	202	6
2023-09-27T00:00	9841	288	-40.6	-50.3	202	6
2023-09-27T00:00	9862	287	-40.7	-50.7	203	6
2023-09-27T00:00	9879	287	-40.8	-50.9	203	6
2023-09-27T00:00	9897	286	-40.9	-50.8	203	7
2023-09-27T00:00	9914	285	-41.1	-50.8	203	7
2023-09-27T00:00	9933	284	-41.2	-50.7	203	7
2023-09-27T00:00	9953	283	-41.4	-50.6	204	7
2023-09-27T00:00	9973	283	-41.6	-50.5	205	7
2023-09-27T00:00	9990	282	-41.8	-50.6	206	7
2023-09-27T00:00	10008	281	-41.9	-50.5	207	7
2023-09-27T00:00	10026	280	-42.1	-50.6	208	6
2023-09-27T00:00	10047	279	-42.3	-50.8	208	6
2023-09-27T00:00	10068	279	-42.4	-50.7	209	6
2023-09-27T00:00	10084	278	-42.6	-50.7	209	6
2023-09-27T00:00	10104	277	-42.8	-50.7	208	6
2023-09-27T00:00	10125	276	-43.0	-50.6	208	6
2023-09-27T00:00	10141	276	-43.2	-50.4	208	6
2023-09-27T00:00	10163	275	-43.3	-50.1	208	6
2023-09-27T00:00	10182	274	-43.5	-50.4	208	6
2023-09-27T00:00	10201	273	-43.7	-50.8	208	6
2023-09-27T00:00	10222	272	-43.8	-50.9	209	6
2023-09-27T00:00	10241	272	-44.0	-51.0	210	6
2023-09-27T00:00	10263	271	-44.2	-51.1	211	6
2023-09-27T00:00	10281	270	-44.3	-51.3	213	6
2023-09-27T00:00	10300	269	-44.5	-52.1	215	6
2023-09-27T00:00	10321	268	-44.6	-52.5	217	6
2023-09-27T00:00	10342	267	-44.8	-52.6	219	7
2023-09-27T00:00	10362	267	-44.9	-52.9	221	7
2023-09-27T00:00	10383	266	-45.0	-53.2	223	7
2023-09-27T00:00	10403	265	-45.1	-53.6	224	7
2023-09-27T00:00	10424	264	-45.2	-53.7	224	7
2023-09-27T00:00	10443	263	-45.4	-54.3	224	7
2023-09-27T00:00	10464	263	-45.4	-55.2	223	7
2023-09-27T00:00	10484	262	-45.5	-55.4	222	7
2023-09-27T00:00	10506	261	-45.6	-55.7	220	7
2023-09-27T00:00	10524	260	-45.8	-56.1	219	7
2023-09-27T00:00	10542	260	-45.9	-55.9	218	7
2023-09-27T00:00	10560	259	-46.1	-55.7	218	7
2023-09-27T00:00	10583	258	-46.3	-55.8	217	7
2023-09-27T00:00	10603	257	-46.4	-55.9	217	7
2023-09-27T00:00	10624	256	-46.6	-55.6	217	7
2023-09-27T00:00	10642	256	-46.8	-55.3	216	6
2023-09-27T00:00	10663	255	-46.9		215	6
2023-09-27T00:00	10683	254	-47.1	-55.5	214	6
2023-09-27T00:00	10701	253	-47.3	-55.8	213	6
2023-09-27T00:00	10719	253	-47.4	-56.1	212	6
2023-09-27T00:00	10739	252	-47.6	-56.2	211	6
2023-09-27T00:00	10759	251	-47.7	-56.2	210	6
2023-09-27T00:00	10776	251	-47.8	-56.5	209	6
2023-09-27T00:00	10796	250	-47.9	-56.8	209	6
2023-09-27T00:00	10816	249	-48.1	-56.7	210	6
2023-09-27T00:00	10834	248	-48.3	-56.7	211	6
2023-09-27T00:00	10851	248	-48.4	-56.8	213	6
2023-09-27T00:00	10871	247	-48.5	-57.0	216	6
2023-09-27T00:00	10887	246	-48.7	-57.1	218	6
2023-09-27T00:00	10908	246	-48.9	-57.0	219	6
2023-09-27T00:00	10924	245	-49.0	-56.9	220	6
2023-09-27T00:00	10943	244	-49.2	-57.1	221	6
2023-09-27T00:00	10962	244	-49.3	-57.4	223	6
2023-09-27T00:00	10980	243	-49.4	-57.6	224	6
2023-09-27T00:00	10997	242	-49.6	-57.6	225	6
2023-09-27T00:00	11016	242	-49.7	-57.7	226	6
2023-09-27T00:00	11031	241	-49.8	-57.9	226	6
2023-09-27T00:00	11050	240	-50.0	-58.1	227	6
2023-09-27T00:00	11068	240	-50.2	-58.1	227	6
2023-09-27T00:00	11085	239	-50.3	-58.2	227	6
2023-09-27T00:00	11104	238	-50.4	-58.3	228	6
2023-09-27T00:00	11123	238	-50.6	-58.4	229	6
2023-09-27T00:00	11142	237	-50.8	-58.5	229	6
2023-09-27T00:00	11160	236	-50.9	-58.9	229	6
2023-09-27T00:00	11176	236	-50.9	-59.2	230	7
2023-09-27T00:00	11196	235	-51.0	-59.2	230	7
2023-09-27T00:00	11213	234	-51.2	-59.2	230	7
2023-09-27T00:00	11227	234	-51.4	-59.2	231	7
2023-09-27T00:00	11247	233	-51.5	-59.2	230	7
2023-09-27T00:00	11265	233	-51.7	-59.2	229	7
2023-09-27T00:00	11283	232	-51.8	-59.2	227	7
2023-09-27T00:00	11300	231	-52.0	-59.2	225	7
2023-09-27T00:00	11319	231	-52.2	-59.4	222	7
2023-09-27T00:00	11340	230	-52.3	-59.6	219	7
2023-09-27T00:00	11354	229	-52.4	-59.9	216	7
2023-09-27T00:00	11369	229	-52.5	-59.9	214	7
2023-09-27T00:00	11386	228	-52.7	-60.0	212	7
2023-09-27T00:00	11404	228	-52.8	-60.0	210	7
2023-09-27T00:00	11422	227	-52.9	-60.2	210	8
2023-09-27T00:00	11442	226	-53.1	-60.5	210	8
2023-09-27T00:00	11457	226	-53.1	-60.8	210	8
2023-09-27T00:00	11475	225	-53.2	-61.2	211	9
2023-09-27T00:00	11493	224	-53.3	-61.3	212	9
2023-09-27T00:00	11509	224	-53.4	-61.4	213	9
2023-09-27T00:00	11528	223	-53.6	-61.6	213	9
2023-09-27T00:00	11548	223	-53.6	-61.9	213	10
2023-09-27T00:00	11565	222	-53.6	-62.4	213	10
2023-09-27T00:00	11583	221	-53.6	-62.7	212	10
2023-09-27T00:00	11601	221	-53.7	-62.8	212	10
2023-09-27T00:00	11620	220	-53.8	-62.9	211	10
2023-09-27T00:00	11639	219	-53.9	-63.1	211	11
2023-09-27T00:00	11654	219	-54.0	-63.2	210	11
2023-09-27T00:00	11675	218	-54.1	-63.4	209	11
2023-09-27T00:00	11691	218	-54.2	-63.6	209	11
2023-09-27T00:00	11710	217	-54.3	-63.7	208	11
2023-09-27T00:00	11729	216	-54.5	-63.8	208	11
2023-09-27T00:00	11747	216	-54.6	-63.8	209	11
2023-09-27T00:00	11765	215	-54.7	-63.8	209	11
2023-09-27T00:00	11781	215	-54.9	-64.0	210	12
2023-09-27T00:00	11802	214	-54.9	-64.0	211	12
2023-09-27T00:00	11821	213	-55.1	-64.3	211	12
2023-09-27T00:00	11836	213	-55.2	-64.3	212	12
2023-09-27T00:00	11854	212	-55.4	-64.4	212	12
2023-09-27T00:00	11871	212	-55.5	-64.4	213	12
2023-09-27T00:00	11890	211	-55.7	-64.5	214	11
2023-09-27T00:00	11906	210	-55.9	-64.6	215	11
2023-09-27T00:00	11926	210	-56.0	-64.7	215	11
2023-09-27T00:00	11942	209	-56.0	-64.9	216	11
2023-09-27T00:00	11962	209	-56.1	-65.1	216	11
2023-09-27T00:00	11980	208	-56.3	-65.1	216	11
2023-09-27T00:00	11997	207	-56.4	-65.1	216	11
2023-09-27T00:00	12016	207	-56.6	-65.1	216	10
2023-09-27T00:00	12034	206	-56.8	-65.1	216	10
2023-09-27T00:00	12051	206	-56.9	-65.1	215	10
2023-09-27T00:00	12070	205	-57.1	-65.1	215	10
2023-09-27T00:00	12089	204	-57.3	-65.2	216	10
2023-09-27T00:00	12107	204	-57.4	-65.2	216	10
2023-09-27T00:00	12124	203	-57.6	-65.3	218	10
2023-09-27T00:00	12149	203	-57.8	-65.3	220	10
2023-09-27T00:00	12164	202	-58.0	-65.3	222	9
2023-09-27T00:00	12185	201	-58.2	-65.4	224	9
2023-09-27T00:00	12204	201	-58.3	-65.4	226	9
2023-09-27T00:00	12222	200	-58.5	-65.6	227	9
2023-09-27T00:00	12241	200	-58.6	-65.7	227	9
2023-09-27T00:00	12259	199	-58.7	-65.9	225	9
2023-09-27T00:00	12277	198	-58.8	-66.0	222	9
2023-09-27T00:00	12297	198	-58.9	-66.3	220	9
2023-09-27T00:00	12316	197	-59.0	-66.5	217	9
2023-09-27T00:00	12337	197	-59.0	-66.7	215	9
2023-09-27T00:00	12355	196	-59.1	-67.0	213	9
2023-09-27T00:00	12373	195	-59.2	-67.1	211	10
2023-09-27T00:00	12393	195	-59.3	-67.3	210	10
2023-09-27T00:00	12412	194	-59.4	-67.4	209	10
2023-09-27T00:00	12432	194	-59.5	-67.5	208	10
2023-09-27T00:00	12452	193	-59.6	-67.6	207	11
2023-09-27T00:00	12470	192	-59.7	-67.6	206	11
2023-09-27T00:00	12492	192	-59.9	-67.7	206	11
2023-09-27T00:00	12512	191	-60.0	-67.7	206	12
2023-09-27T00:00	12529	191	-60.2	-67.8	207	12
2023-09-27T00:00	12553	190	-60.3	-67.8	208	12
2023-09-27T00:00	12574	189	-60.5	-67.9	209	12
2023-09-27T00:00	12593	189	-60.6	-67.9	210	12
2023-09-27T00:00	12616	188	-60.8	-68.0	211	13
2023-09-27T00:00	12632	187	-60.9	-68.0	212	13
2023-09-27T00:00	12655	187	-61.1	-68.0	214	13
2023-09-27T00:00	12676	186	-61.3	-68.1	215	13
2023-09-27T00:00	12693	186	-61.5	-68.2	217	13
2023-09-27T00:00	12714	185	-61.6	-68.2	220	14
2023-09-27T00:00	12736	184	-61.7	-68.3	222	14
2023-09-27T00:00	12755	184	-61.8	-68.3	225	14
2023-09-27T00:00	12778	183	-62.0	-68.4	227	14
2023-09-27T00:00	12798	182	-62.1	-68.3	229	14
2023-09-27T00:00	12821	182	-62.2	-68.3	231	14
2023-09-27T00:00	12841	181	-62.4	-68.3	233	14
2023-09-27T00:00	12858	181	-62.5	-68.3	234	15
2023-09-27T00:00	12877	180	-62.6	-68.2	234	15
2023-09-27T00:00	12897	180	-62.7	-68.2	234	15
2023-09-27T00:00	12918	179	-62.8	-68.4	233	15
2023-09-27T00:00	12939	178	-62.8	-68.7	232	14
2023-09-27T00:00	12964	178	-62.5	-68.9	229	14
2023-09-27T00:00	12986	177	-62.2	-69.2	226	14
2023-09-27T00:00	13008	176	-62.2	-69.8	223	14
2023-09-27T00:00	13028	176	-62.2	-70.3	221	14
2023-09-27T00:00	13048	175	-62.3	-70.7	220	15
2023-09-27T00:00	13068	175	-62.2	-70.9	220	16
2023-09-27T00:00	13086	174	-62.2	-71.3	221	17
2023-09-27T00:00	13103	174	-61.9	-71.4	222	18
2023-09-27T00:00	13122	173	-61.7	-71.9	224	19
2023-09-27T00:00	13142	173	-61.4	-72.4	224	19
2023-09-27T00:00	13158	172	-60.9	-73.0	225	20
2023-09-27T00:00	13179	172	-60.2	-73.5	225	20
2023-09-27T00:00	13194	171	-59.9	-74.2	226	20
2023-09-27T00:00	13215	171	-60.0	-74.8	226	19
2023-09-27T00:00	13233	170	-60.1	-75.1	227	19
2023-09-27T00:00	13252	170	-60.0	-75.1	229	20
2023-09-27T00:00	13268	169	-59.9	-75.3	230	20
2023-09-27T00:00	13287	169	-59.7	-75.3	232	20
2023-09-27T00:00	13309	168	-59.6	-75.6	233	20
2023-09-27T00:00	13324	168	-59.5	-75.9	235	20
2023-09-27T00:00	13346	167	-59.3	-76.1	237	19
2023-09-27T00:00	13365	167	-59.1	-76.4	239	19
2023-09-27T00:00	13384	166	-59.0	-76.7	240	19
2023-09-27T00:00	13405	166	-59.0		242	19
2023-09-27T00:00	13427	165	-59.1	-76.9	243	19
2023-09-27T00:00	13443	164	-59.3	-77.1	244	19
2023-09-27T00:00	13464	164	-59.4	-77.1	245	19
2023-09-27T00:00	13485	163	-59.4	-77.0	245	19
2023-09-27T00:00	13503	163	-59.5	-77.0	246	18
2023-09-27T00:00	13523	162	-59.7	-77.2	246	18
2023-09-27T00:00	13542	162	-59.8	-77.2	245	18
2023-09-27T00:00	13559	161	-59.9	-77.3	245	18
2023-09-27T00:00	13583	161	-60.0	-77.4	244	17
2023-09-27T00:00	13600	160	-60.1	-77.6	243	17
2023-09-27T00:00	13618	160	-60.3	-77.8	243	17
2023-09-27T00:00	13636	159	-60.4	-78.1	241	17
2023-09-27T00:00	13658	159	-60.2	-78.1	240	17
2023-09-27T00:00	13677	158	-60.2	-78.3	238	17
2023-09-27T00:00	13697	158	-60.2	-78.5	236	17
2023-09-27T00:00	13718	157	-60.2	-78.5	234	17
2023-09-27T00:00	13736	157	-60.1	-78.7	234	17
2023-09-27T00:00	13758	156	-60.2	-78.9	234	17
2023-09-27T00:00	13780	156	-60.2	-79.1	235	17
2023-09-27T00:00	13798	155	-59.9	-79.2	236	17
2023-09-27T00:00	13822	155	-59.8	-79.3	239	17
2023-09-27T00:00	13838	154	-59.8	-79.6	241	17
2023-09-27T00:00	13859	154	-59.9	-79.6	243	18
2023-09-27T00:00	13878	153	-59.9	-79.8	244	18
2023-09-27T00:00	13899	153	-60.1	-80.0	246	18
2023-09-27T00:00	13919	152	-60.2	-80.1	247	18
2023-09-27T00:00	13939	152	-59.9	-80.0	247	18
2023-09-27T00:00	13960	151	-59.9	-80.1	248	18
2023-09-27T00:00	13978	151	-60.0	-80.3	249	17
2023-09-27T00:00	14000	150	-60.1	-80.4	249	17
2023-09-27T00:00	14020	150	-60.1	-80.4	250	17
2023-09-27T00:00	14037	150	-60.2	-80.5	250	17
2023-09-27T00:00	14063	149	-60.3	-80.6	250	17
2023-09-27T00:00	14083	148	-60.2	-80.5	250	17
2023-09-27T00:00	14101	148	-60.1	-80.4	249	17
2023-09-27T00:00	14122	148	-60.0	-80.5	248	17
2023-09-27T00:00	14144	147	-60.1	-80.5	247	16
2023-09-27T00:00	14166	147	-60.0	-80.5	246	16
2023-09-27T00:00	14187	146	-60.0	-80.5	245	16
2023-09-27T00:00	14208	146	-60.1	-80.5	244	15
2023-09-27T00:00	14226	145	-60.1	-80.7	244	15
2023-09-27T00:00	14248	145	-59.9	-80.6	244	15
2023-09-27T00:00	14268	144	-59.9	-80.6	244	15
2023-09-27T00:00	14291	144	-59.9	-80.8	244	16
2023-09-27T00:00	14308	143	-60.0	-80.9	244	16
2023-09-27T00:00	14331	143	-59.9	-80.8	245	16
2023-09-27T00:00	14353	142	-60.0	-80.9	245	16
2023-09-27T00:00	14373	142	-60.0	-81.0	244	16
2023-09-27T00:00	14394	141	-60.0	-81.0	244	16
2023-09-27T00:00	14417	141	-60.2	-81.2	243	15
2023-09-27T00:00	14437	140	-60.3	-81.2	241	15
2023-09-27T00:00	14456	140	-60.4	-81.3	239	15
2023-09-27T00:00	14477	139	-60.5	-81.3	237	15
2023-09-27T00:00	14496	139	-60.5	-81.4	235	15
2023-09-27T00:00	14520	138	-60.4	-81.3	232	15
2023-09-27T00:00	14542	138	-60.5	-81.4	230	15
2023-09-27T00:00	14564	137	-60.6	-81.5	228	15
2023-09-27T00:00	14586	137	-60.7	-81.6	226	15
2023-09-27T00:00	14606	137	-60.9	-81.7	223	15
2023-09-27T00:00	14625	136	-61.0	-81.7	221	15
2023-09-27T00:00	14649	136	-61.1	-81.8	219	15
2023-09-27T00:00	14672	135	-61.3	-81.8	218	15
2023-09-27T00:00	14688	135	-61.4	-81.9	216	16
2023-09-27T00:00	14710	134	-61.5	-81.8	216	16
2023-09-27T00:00	14731	134	-61.6	-81.9	215	16
2023-09-27T00:00	14749	133	-61.8	-81.9	215	17
2023-09-27T00:00	14774	133	-62.0	-82.0	215	17
2023-09-27T00:00	14797	132	-62.2	-82.1	215	18
2023-09-27T00:00	14819	132	-62.3	-82.1	216	18
2023-09-27T00:00	14837	132	-62.4	-82.1	217	18
2023-09-27T00:00	14855	131	-62.5	-82.1	219	18
2023-09-27T00:00	14881	131	-62.6	-82.2	220	18
2023-09-27T00:00	14897	130	-62.7	-82.3	221	18
2023-09-27T00:00	14917	130	-62.8	-82.3	222	18
2023-09-27T00:00	14938	129	-62.9	-82.5	223	18
2023-09-27T00:00	14959	129	-62.9	-82.5	225	18
2023-09-27T00:00	14977	129	-63.0	-82.7	227	18
2023-09-27T00:00	14998	128	-62.9	-82.6	230	18
2023-09-27T00:00	15020	128	-62.9	-82.7	232	18
2023-09-27T00:00	15039	127	-62.8	-82.8	233	19
2023-09-27T00:00	15063	127	-62.7	-82.8	235	20
2023-09-27T00:00	15083	126	-62.5	-82.6	236	20
2023-09-27T00:00	15105	126	-62.6	-82.8	237	21
2023-09-27T00:00	15129	126	-62.8	-83.0	238	21
2023-09-27T00:00	15145	125	-62.9	-83.1	239	21
2023-09-27T00:00	15164	125	-63.0	-83.0	241	22
2023-09-27T00:00	15187	124	-63.0	-83.0	243	22
2023-09-27T00:00	15207	124	-63.1	-83.1	245	22
2023-09-27T00:00	15229	123	-63.0	-83.0	247	22
2023-09-27T00:00	15247	123	-63.1	-83.3	249	21
2023-09-27T00:00	15271	123	-63.0	-83.3	251	21
2023-09-27T00:00	15289	122	-62.7	-83.2	253	20
2023-09-27T00:00	15309	122	-62.4	-83.1	254	19
2023-09-27T00:00	15330	121	-62.4	-83.2	254	18
2023-09-27T00:00	15349	121	-62.4	-83.4	254	17
2023-09-27T00:00	15370	121	-62.4	-83.4	253	16
2023-09-27T00:00	15386	120	-62.4	-83.5	251	16
2023-09-27T00:00	15404	120	-62.5	-83.6	249	15
2023-09-27T00:00	15425	120	-62.6	-83.7	247	14
2023-09-27T00:00	15439	119	-62.5	-83.8	245	14
2023-09-27T00:00	15462	119	-62.0	-83.5	243	13
2023-09-27T00:00	15480	118	-62.0	-83.7	243	12
2023-09-27T00:00	15501	118	-61.8	-83.8	244	12
2023-09-27T00:00	15518	118	-61.1	-83.5	245	11
2023-09-27T00:00	15539	117	-61.1	-83.6	246	11
2023-09-27T00:00	15556	117	-61.2	-83.9	246	11
2023-09-27T00:00	15577	117	-61.2	-83.9	245	10
2023-09-27T00:00	15596	116	-61.1	-84.0	243	10
2023-09-27T00:00	15616	116	-61.0	-84.1	239	10
2023-09-27T00:00	15634	116	-60.7	-83.9	235	9
2023-09-27T00:00	15657	115	-60.4	-83.9	230	9
2023-09-27T00:00	15674	115	-60.4	-83.9	226	9
2023-09-27T00:00	15699	114	-60.4	-83.9	222	10
2023-09-27T00:00	15718	114	-60.5	-83.7	219	10
2023-09-27T00:00	15740	114	-60.6	-83.8	217	10
2023-09-27T00:00	15758	113	-60.8	-83.8	214	10
2023-09-27T00:00	15782	113	-60.9	-83.9	213	10
2023-09-27T00:00	15804	113	-61.1	-84.0	212	11
2023-09-27T00:00	15824	112	-61.3	-84.0	210	11
2023-09-27T00:00	15850	112	-61.5	-84.0	209	11
2023-09-27T00:00	15870	111	-61.7	-83.9	208	12
2023-09-27T00:00	15894	111	-61.9	-83.9	207	12
2023-09-27T00:00	15914	111	-62.0	-84.0	207	13
2023-09-27T00:00	15934	110	-62.2	-84.0	206	13
2023-09-27T00:00	15954	110	-62.3	-83.9	207	13
2023-09-27T00:00	15975	109	-62.5	-84.1	208	13
2023-09-27T00:00	15995	109	-62.6	-84.0	210	13
2023-09-27T00:00	16018	109	-62.4	-83.8	211	12
2023-09-27T00:00	16040	108	-62.5	-83.9	213	12
2023-09-27T00:00	16059	108	-62.6	-84.0	214	12
2023-09-27T00:00	16077	108	-62.7	-84.2	214	11
2023-09-27T00:00	16103	107	-62.4	-84.2	214	11
2023-09-27T00:00	16125	107	-62.1	-83.9	213	11
2023-09-27T00:00	16145	106	-62.0	-84.0	213	11
2023-09-27T00:00	16167	106	-62.2	-84.2	212	11
2023-09-27T00:00	16190	106	-62.4	-84.3	212	11
2023-09-27T00:00	16209	105	-62.5	-84.2	212	11
2023-09-27T00:00	16231	105	-62.6	-84.3	212	11
2023-09-27T00:00	16254	105	-62.8	-84.3	212	12
2023-09-27T00:00	16272	104	-62.9	-84.4	212	12
2023-09-27T00:00	16294	104	-63.1	-84.6	211	13
2023-09-27T00:00	16319	104	-63.1	-84.7	212	13
2023-09-27T00:00	16341	103	-63.0	-84.6	212	14
2023-09-27T00:00	16359	103	-63.0	-84.8	213	14
2023-09-27T00:00	16381	102	-63.0	-84.8	214	15
2023-09-27T00:00	16404	102	-62.8	-84.8	215	16
2023-09-27T00:00	16423	102	-62.5	-84.8	216	16
2023-09-27T00:00	16443	101	-62.3	-84.6	217	17
2023-09-27T00:00	16470	101	-62.4	-84.9	218	17
2023-09-27T00:00	16485	101	-62.4	-84.9	219	17
2023-09-27T00:00	16503	100	-62.5	-84.9	221	18
2023-09-27T00:00	16527	100	-62.6	-84.8	222	18
2023-09-27T00:00	16547	100	-62.7	-84.9	224	18
2023-09-27T00:00	16565	99	-62.8	-85.0	226	18
2023-09-27T00:00	16581	99	-62.9	-85.1	227	18
2023-09-27T00:00	16603	99	-62.9	-85.1	229	17
2023-09-27T00:00	16623	99	-62.9	-85.1	230	17
2023-09-27T00:00	16642	98	-62.7	-85.1	231	16
2023-09-27T00:00	16660	98	-62.6	-85.2	233	15
2023-09-27T00:00	16678	98	-62.4	-85.2	234	15
2023-09-27T00:00	16698	97	-62.1	-85.2	236	14
2023-09-27T00:00	16717	97	-61.7	-85.1	237	14
2023-09-27T00:00	16734	97	-61.4	-85.1	239	14
2023-09-27T00:00	16752	96	-61.2	-85.2	240	13
2023-09-27T00:00	16775	96	-61.2	-85.4	241	12
2023-09-27T00:00	16793	96	-61.1	-85.3	241	12
2023-09-27T00:00	16811	96	-60.8	-85.3	242	11
2023-09-27T00:00	16832	95	-60.7	-85.2	243	10
2023-09-27T00:00	16852	95	-60.6	-85.4	244	10
2023-09-27T00:00	16873	95	-60.5	-85.3	245	9
2023-09-27T00:00	16892	94	-60.6	-85.4	245	8
2023-09-27T00:00	16912	94	-60.5	-85.3	245	8
2023-09-27T00:00	16933	94	-60.5	-85.6	243	7
2023-09-27T00:00	16955	93	-60.6	-85.7	240	6
2023-09-27T00:00	16972	93	-60.4	-85.5	236	6
2023-09-27T00:00	16993	93	-60.4	-85.5	230	6
2023-09-27T00:00	17013	92	-60.3	-85.5	224	6
2023-09-27T00:00	17037	92	-60.4	-85.8	219	6
2023-09-27T00:00	17057	92	-60.5	-85.9	215	7
2023-09-27T00:00	17076	92	-60.4	-85.8	213	7
2023-09-27T00:00	17096	91	-60.3	-85.7	213	8
2023-09-27T00:00	17120	91	-60.5	-85.6	214	8
2023-09-27T00:00	17138	91	-60.5	-85.6	216	8
2023-09-27T00:00	17161	90	-60.7	-85.8	219	9
2023-09-27T00:00	17185	90	-60.9	-85.9	222	9
2023-09-27T00:00	17203	90	-61.0	-85.7	224	9
2023-09-27T00:00	17223	89	-61.1	-85.8	227	9
2023-09-27T00:00	17246	89	-61.2	-86.2	229	9
2023-09-27T00:00	17267	89	-61.0	-86.0	230	9
2023-09-27T00:00	17291	88	-60.7	-85.8	232	8
2023-09-27T00:00	17310	88	-60.7	-86.0	233	8
2023-09-27T00:00	17336	88	-60.7	-86.0	232	8
2023-09-27T00:00	17357	88	-60.6	-86.3	230	7
2023-09-27T00:00	17383	87	-60.6	-86.3	227	7
2023-09-27T00:00	17404	87	-60.4	-86.1	224	7
2023-09-27T00:00	17425	87	-60.4	-86.1	221	8
2023-09-27T00:00	17447	86	-60.6	-86.3	219	8
2023-09-27T00:00	17470	86	-60.7	-86.3	219	9
2023-09-27T00:00	17491	86	-60.9	-86.5	220	9
2023-09-27T00:00	17512	85	-61.1	-86.6	222	9
2023-09-27T00:00	17535	85	-61.1	-86.6	226	9
2023-09-27T00:00	17556	85	-61.0	-86.6	230	10
2023-09-27T00:00	17578	84	-61.0	-86.6	235	10
2023-09-27T00:00	17600	84	-61.1	-86.6	238	10
2023-09-27T00:00	17619	84	-61.1	-87.0	241	10
2023-09-27T00:00	17641	84	-61.0	-86.9	242	10
2023-09-27T00:00	17660	83	-60.7	-87.0	242	9
2023-09-27T00:00	17683	83	-60.7	-87.0	241	9
2023-09-27T00:00	17710	83	-60.7	-87.0	239	8
2023-09-27T00:00	17729	82	-60.4	-87.1	238	8
2023-09-27T00:00	17751	82	-60.3	-87.0	235	7
2023-09-27T00:00	17776	82	-60.2	-86.9	233	7
2023-09-27T00:00	17796	82	-60.2	-87.3	230	6
2023-09-27T00:00	17818	81	-60.1	-87.2	226	6
2023-09-27T00:00	17838	81	-60.0	-87.1	222	5
2023-09-27T00:00	17856	81	-59.6	-87.2	217	5
2023-09-27T00:00	17886	80	-59.4	-87.1	211	5
2023-09-27T00:00	17907	80	-59.4	-87.1	205	5
2023-09-27T00:00	17926	80	-59.4	-87.5	200	5
2023-09-27T00:00	17950	80	-59.2	-87.3	196	5
2023-09-27T00:00	17974	79	-59.1	-87.3	194	5
2023-09-27T00:00	17995	79	-59.2	-87.3	192	6
2023-09-27T00:00	18017	79	-59.1	-86.8	191	6
2023-09-27T00:00	18044	78	-59.3	-87.0	192	7
2023-09-27T00:00	18068	78	-59.4	-87.1	194	7
2023-09-27T00:00	18086	78	-59.6	-87.2	196	8
2023-09-27T00:00	18108	78	-59.7	-87.3	199	8
2023-09-27T00:00	18132	77	-59.8	-87.4	202	8
2023-09-27T00:00	18156	77	-59.9	-87.4	204	9
2023-09-27T00:00	18174	77	-60.0	-87.5	206	9
2023-09-27T00:00	18201	76	-60.1	-87.6	208	9
2023-09-27T00:00	18219	76	-60.3	-87.8	210	8
2023-09-27T00:00	18244	76	-60.4	-87.8	211	8
2023-09-27T00:00	18266	76	-60.2	-87.7	213	8
2023-09-27T00:00	18289	75	-60.1	-87.6	214	8
2023-09-27T00:00	18313	75	-60.1	-87.6	216	8
2023-09-27T00:00	18332	75	-60.0	-87.9	218	9
2023-09-27T00:00	18351	75	-59.9	-87.9	220	9
2023-09-27T00:00	18377	74	-59.8	-87.8	223	10
2023-09-27T00:00	18399	74	-59.8	-87.8	226	10
2023-09-27T00:00	18417	74	-59.8	-87.8	229	10
2023-09-27T00:00	18438	74	-59.9	-87.9	233	10
2023-09-27T00:00	18465	73	-60.0	-87.9	236	10
2023-09-27T00:00	18490	73	-59.9	-87.9	239	10
2023-09-27T00:00	18511	73	-59.8	-87.8	242	9
2023-09-27T00:00	18526	73	-59.7	-87.7	244	9
2023-09-27T00:00	18553	72	-59.8	-88.2	245	8
2023-09-27T00:00	18574	72	-59.7	-88.2	246	8
2023-09-27T00:00	18599	72	-59.6	-88.1	248	9
2023-09-27T00:00	18619	72	-59.5	-88.0	250	9
2023-09-27T00:00	18639	71	-59.1	-87.7	253	9
2023-09-27T00:00	18659	71	-59.0	-88.1	256	9
2023-09-27T00:00	18678	71	-59.0	-88.1	259	9
2023-09-27T00:00	18700	71	-59.0	-88.1	261	9
2023-09-27T00:00	18723	70	-59.0	-87.6	263	9
2023-09-27T00:00	18743	70	-59.0	-87.6	265	8
2023-09-27T00:00	18763	70	-59.0	-87.6	266	8
2023-09-27T00:00	18786	70	-59.0	-87.6	266	8
2023-09-27T00:00	18811	69	-59.0	-87.6	265	7
2023-09-27T00:00	18835	69	-59.1	-87.7	262	7
2023-09-27T00:00	18856	69	-59.2	-87.8	259	7
2023-09-27T00:00	18876	69	-59.0	-87.6	255	7
2023-09-27T00:00	18902	68	-59.0	-87.6	252	7
2023-09-27T00:00	18921	68	-59.2	-87.8	249	7
2023-09-27T00:00	18945	68	-59.4	-87.9	247	7
2023-09-27T00:00	18974	68	-59.6	-88.1	245	8
2023-09-27T00:00	18992	67	-59.8	-88.2	244	8
2023-09-27T00:00	19007	67	-60.0	-87.9	244	8
2023-09-27T00:00	19033	67	-60.0	-87.9	245	8
2023-09-27T00:00	19061	67	-60.0	-88.4	247	8
2023-09-27T00:00	19077	66	-59.9	-88.3	250	8
2023-09-27T00:00	19106	66	-59.8	-88.2	252	8
2023-09-27T00:00	19129	66	-59.9	-88.3	255	8
2023-09-27T00:00	19146	66	-60.0	-88.4	257	8
2023-09-27T00:00	19173	65	-60.1	-88.5	258	8
2023-09-27T00:00	19195	65	-60.1	-88.5	260	7
2023-09-27T00:00	19213	65	-60.3	-88.2	260	7
2023-09-27T00:00	19235	65	-60.4	-88.2	259	6
2023-09-27T00:00	19259	65	-60.5	-88.8	256	6
2023-09-27T00:00	19286	64	-60.3	-88.6	253	5
2023-09-27T00:00	19303	64	-60.1	-88.5	250	5
2023-09-27T00:00	19329	64	-60.0	-88.9	250	5
2023-09-27T00:00	19353	64	-59.8	-88.7	252	5
2023-09-27T00:00	19377	63	-59.7	-88.6	256	5
2023-09-27T00:00	19399	63	-59.7	-88.6	259	5
2023-09-27T00:00	19424	63	-59.7	-88.6	262	5
2023-09-27T00:00	19442	63	-59.9	-88.8	264	5
2023-09-27T00:00	19470	62	-59.9	-88.8	265	4
2023-09-27T00:00	19488	62	-59.9	-88.8	265	4
2023-09-27T00:00	19516	62	-59.9	-88.8	266	5
2023-09-27T00:00	19538	62	-59.8	-88.7	265	5
2023-09-27T00:00	19562	62	-59.8	-88.7	264	5
2023-09-27T00:00	19582	61	-59.8	-88.7	260	5
2023-09-27T00:00	19607	61	-59.8	-88.7	256	5
2023-09-27T00:00	19629	61	-59.8	-88.7	251	6
2023-09-27T00:00	19653	61	-59.7	-88.6	248	6
2023-09-27T00:00	19678	60	-59.7	-88.6	245	6
2023-09-27T00:00	19698	60	-59.6	-88.6	244	6
2023-09-27T00:00	19719	60	-59.5	-88.5	243	5
2023-09-27T00:00	19746	60	-59.5	-88.5	241	5
2023-09-27T00:00	19768	59	-59.4	-88.4	238	5
2023-09-27T00:00	19791	59	-59.4	-88.4	235	4
2023-09-27T00:00	19814	59	-59.4	-88.4	234	4
2023-09-27T00:00	19840	59	-59.5	-88.5	234	4
2023-09-27T00:00	19861	59	-59.4	-88.4	235	4
2023-09-27T00:00	19882	58	-59.4	-88.4	237	4
2023-09-27T00:00	19908	58	-59.4	-88.4	238	4
2023-09-27T00:00	19930	58	-59.4	-88.4	237	4
2023-09-27T00:00	19947	58	-59.3	-88.3	237	4
2023-09-27T00:00	19974	58	-59.2	-88.3	237	4
2023-09-27T00:00	19996	57	-59.3	-88.3	239	3
2023-09-27T00:00	20021	57	-59.1	-88.2	243	4
2023-09-27T00:00	20042	57	-59.1	-88.2	248	4
2023-09-27T00:00	20065	57	-59.1	-88.2	251	4
2023-09-27T00:00	20081	57	-59.1	-88.2	254	4
2023-09-27T00:00	20110	56	-59.1	-88.2	255	4
2023-09-27T00:00	20127	56	-59.1	-88.2	254	5
2023-09-27T00:00	20150	56	-59.2	-88.3	253	5
2023-09-27T00:00	20171	56	-59.2	-88.3	252	5
2023-09-27T00:00	20196	56	-59.2	-88.3	251	5
2023-09-27T00:00	20225	55	-59.3	-88.3	249	5
2023-09-27T00:00	20238	55	-59.4	-88.4	246	4
2023-09-27T00:00	20261	55	-59.5	-88.5	243	4
2023-09-27T00:00	20284	55	-59.5	-88.5	237	3
2023-09-27T00:00	20307	55	-59.5	-88.0	229	2
2023-09-27T00:00	20329	54	-59.5	-88.0	217	2
2023-09-27T00:00	20349	54	-59.5	-88.0	207	2
2023-09-27T00:00	20376	54	-59.6	-88.1	201	2
2023-09-27T00:00	20398	54	-59.7	-88.2	201	2
2023-09-27T00:00	20421	54	-59.8	-88.2	203	3
2023-09-27T00:00	20443	53	-59.7	-88.2	206	3
2023-09-27T00:00	20467	53	-59.6	-88.6	206	3
2023-09-27T00:00	20487	53	-59.6	-88.6	205	4
2023-09-27T00:00	20508	53	-59.6	-88.6	204	4
2023-09-27T00:00	20532	53	-59.6	-88.1	203	4
2023-09-27T00:00	20553	52	-59.7	-88.2	203	4
2023-09-27T00:00	20577	52	-59.7	-88.2	206	5
2023-09-27T00:00	20601	52	-59.8	-88.2	210	5
2023-09-27T00:00	20629	52	-59.9	-88.3	215	5
2023-09-27T00:00	20649	52	-59.9	-88.3	221	5
2023-09-27T00:00	20671	52	-60.0	-88.4	228	5
2023-09-27T00:00	20689	51	-60.2	-88.5	237	5
2023-09-27T00:00	20719	51	-60.3	-88.6	246	5
2023-09-27T00:00	20742	51	-60.3	-88.6	256	5
2023-09-27T00:00	20764	51	-60.1	-88.5	265	5
2023-09-27T00:00	20782	51	-60.0	-88.4	272	4
2023-09-27T00:00	20809	50	-60.1	-88.5	277	4
2023-09-27T00:00	20833	50	-60.0	-88.4	278	3
2023-09-27T00:00	20858	50	-60.0	-88.9	275	3
2023-09-27T00:00	20888	50	-59.9	-88.8	266	2
2023-09-27T00:00	20904	50	-59.8	-88.7	249	2
2023-09-27T00:00	20934	49	-59.9	-88.8	233	2
2023-09-27T00:00	20950	49	-59.6	-88.6	223	2
2023-09-27T00:00	20973	49	-59.5	-88.5	219	2
2023-09-27T00:00	21002	49	-59.5	-88.5	220	2
2023-09-27T00:00	21022	49	-59.4	-88.4	223	2
2023-09-27T00:00	21046	49	-59.4	-88.4	226	3
2023-09-27T00:00	21071	48	-59.5	-88.5	227	3
2023-09-27T00:00	21098	48	-59.5	-88.5	226	3
2023-09-27T00:00	21121	48	-59.6	-88.6	223	3
2023-09-27T00:00	21146	48	-59.6	-88.6	221	4
2023-09-27T00:00	21171	48	-59.5	-88.5	221	4
2023-09-27T00:00	21200	47	-59.6	-88.6	222	4
2023-09-27T00:00	21219	47	-59.6	-88.6	226	4
2023-09-27T00:00	21243	47	-59.4	-88.4	231	3
2023-09-27T00:00	21269	47	-59.2	-88.3	237	3
2023-09-27T00:00	21284	47	-59.3	-88.3	242	2
2023-09-27T00:00	21317	46	-59.3	-88.3	244	2
2023-09-27T00:00	21338	46	-59.2	-88.3	240	1
2023-09-27T00:00	21361	46	-59.3	-88.3	226	1
2023-09-27T00:00	21377	46	-59.4	-88.4	202	1
2023-09-27T00:00	21406	46	-59.5	-88.5	186	1
2023-09-27T00:00	21428	46	-59.6	-88.6	184	2
2023-09-27T00:00	21450	45	-59.7	-88.6	188	2
2023-09-27T00:00	21474	45	-59.6	-88.6	195	2
2023-09-27T00:00	21498	45	-59.6	-88.6	203	3
2023-09-27T00:00	21520	45	-59.7	-88.6	211	3
2023-09-27T00:00	21552	45	-59.5	-88.5	217	4
2023-09-27T00:00	21571	45	-59.2	-88.3	223	4
2023-09-27T00:00	21596	44	-59.2	-88.3	228	4
2023-09-27T00:00	21617	44	-59.4	-88.4	232	5
2023-09-27T00:00	21646	44	-59.6	-88.6	236	5
2023-09-27T00:00	21668	44	-59.8	-88.7	238	5
2023-09-27T00:00	21694	44	-59.9	-88.8	239	5
2023-09-27T00:00	21713	44	-59.8	-88.7	238	5
2023-09-27T00:00	21734	43	-59.4	-88.4	236	5
2023-09-27T00:00	21759	43	-59.3	-88.9	230	5
2023-09-27T00:00	21782	43	-59.4	-89.0	223	5
2023-09-27T00:00	21813	43	-59.2	-88.8	216	5
2023-09-27T00:00	21837	43	-59.0	-88.7	207	5
2023-09-27T00:00	21856	43	-58.8	-88.5	200	5
2023-09-27T00:00	21878	42	-58.8	-88.5	195	5
2023-09-27T00:00	21908	42	-58.8	-88.5	194	5
2023-09-27T00:00	21928	42	-58.7	-88.4	196	5
2023-09-27T00:00	21944	42	-58.7	-88.4	200	4
2023-09-27T00:00	21981	42	-58.8	-88.5	204	4
2023-09-27T00:00	21997	42	-58.8	-88.5	207	4
2023-09-27T00:00	22017	42	-58.8	-88.5	209	4
2023-09-27T00:00	22048	41	-58.9	-88.6	211	3
2023-09-27T00:00	22067	41	-59.1	-88.2	214	3
2023-09-27T00:00	22090	41	-59.3	-88.3	218	2
2023-09-27T00:00	22119	41	-59.6	-88.6	223	2
2023-09-27T00:00	22141	41	-59.7	-88.6	230	1
2023-09-27T00:00	22168	41	-59.7	-88.6	238	1
2023-09-27T00:00	22194	40	-59.8	-88.7	248	0
2023-09-27T00:00	22217	40	-59.8	-88.7	266	0
2023-09-27T00:00	22235	40	-59.6	-88.6	72	0
2023-09-27T00:00	22268	40	-59.6	-88.6	102	0
2023-09-27T00:00	22295	40	-59.6	-89.1	153	0
2023-09-27T00:00	22314	40	-59.5	-89.0	187	1
2023-09-27T00:00	22333	39	-59.5	-89.0	198	1
2023-09-27T00:00	22364	39	-59.4	-89.0	201	2
2023-09-27T00:00	22391	39	-59.3	-88.9	200	2
2023-09-27T00:00	22411	39	-59.3	-88.9	196	3
2023-09-27T00:00	22438	39	-59.3	-88.9	191	3
2023-09-27T00:00	22471	39	-59.4	-89.0	187	4
2023-09-27T00:00	22490	39	-59.6	-89.1	182	4
2023-09-27T00:00	22517	38	-59.6	-89.1	180	4
2023-09-27T00:00	22539	38	-59.6	-89.1	179	5
2023-09-27T00:00	22568	38	-59.6	-89.1	181	5
2023-09-27T00:00	22581	38	-59.8	-89.2	185	5
2023-09-27T00:00	22610	38	-59.8	-89.2	191	5
2023-09-27T00:00	22633	38	-59.7	-89.2	197	5
2023-09-27T00:00	22669	37	-59.2	-88.8	202	5
2023-09-27T00:00	22689	37	-59.0	-88.7	206	5
2023-09-27T00:00	22713	37	-58.9	-89.2	208	5
2023-09-27T00:00	22734	37	-59.0	-88.7	209	6
2023-09-27T00:00	22763	37	-59.1	-88.7	210	6
2023-09-27T00:00	22784	37	-59.1	-88.7	211	7
2023-09-27T00:00	22808	37	-59.0	-88.7	212	7
2023-09-27T00:00	22838	36	-58.9	-88.6	215	8
2023-09-27T00:00	22855	36	-58.9	-89.2	219	8
2023-09-27T00:00	22884	36	-58.9	-89.2	224	8
2023-09-27T00:00	22909	36	-58.7	-89.0	230	8
2023-09-27T00:00	22936	36	-58.6	-88.9	236	9
2023-09-27T00:00	22955	36	-58.3	-88.7	242	9
2023-09-27T00:00	22981	36	-58.0	-89.1	248	8
2023-09-27T00:00	23004	35	-57.9	-89.1	254	8
2023-09-27T00:00	23026	35	-57.7	-88.9	259	8
2023-09-27T00:00	23050	35	-57.6	-88.9	264	8
2023-09-27T00:00	23081	35	-57.7	-88.9	267	7
2023-09-27T00:00	23098	35	-57.7	-88.9	268	7
2023-09-27T00:00	23126	35	-57.5	-88.1	268	7
2023-09-27T00:00	23152	35	-57.5	-88.1	268	7
2023-09-27T00:00	23168	35	-57.6	-88.2	267	7
2023-09-27T00:00	23195	34	-57.6	-88.2	267	7
2023-09-27T00:00	23220	34	-57.6	-88.2	268	6
2023-09-27T00:00	23245	34	-57.8	-88.3	269	6
2023-09-27T00:00	23263	34	-57.9	-88.4	269	5
2023-09-27T00:00	23285	34	-58.0	-88.5	269	5
2023-09-27T00:00	23313	34	-58.1	-88.6	267	4
2023-09-27T00:00	23335	34	-58.1	-88.6	262	3
2023-09-27T00:00	23363	34	-58.3	-88.7	251	3
2023-09-27T00:00	23386	33	-58.4	-88.8	234	2
2023-09-27T00:00	23404	33	-58.6	-88.9	213	2
2023-09-27T00:00	23440	33	-58.6	-88.9	198	3
2023-09-27T00:00	23454	33	-58.6	-88.9	192	3
2023-09-27T00:00	23489	33	-58.5	-88.9	194	3
2023-09-27T00:00	23510	33	-58.5	-88.9	199	4
2023-09-27T00:00	23534	33	-58.6	-88.9	203	4
2023-09-27T00:00	23558	33	-58.6	-88.9	207	5
2023-09-27T00:00	23586	32	-58.6	-88.9	209	5
2023-09-27T00:00	23606	32	-58.6	-88.9	210	5
2023-09-27T00:00	23633	32	-58.4	-89.4	211	5
2023-09-27T00:00	23652	32	-58.2	-89.3	215	5
2023-09-27T00:00	23684	32	-58.1	-89.2	219	5
2023-09-27T00:00	23712	32	-58.1	-89.2	225	5
2023-09-27T00:00	23739	32	-58.1	-89.2	231	5
2023-09-27T00:00	23756	31	-57.9	-89.1	236	5
2023-09-27T00:00	23784	31	-57.9	-89.1	241	6
2023-09-27T00:00	23807	31	-58.0	-89.1	244	6
2023-09-27T00:00	23837	31	-58.1	-89.2	247	6
2023-09-27T00:00	23864	31	-58.1	-88.6	249	6
2023-09-27T00:00	23889	31	-58.3	-88.7	251	5
2023-09-27T00:00	23917	31	-58.4	-88.8	252	5
2023-09-27T00:00	23933	31	-58.6	-88.9	254	5
2023-09-27T00:00	23958	31	-58.5	-88.9	255	4
2023-09-27T00:00	23977	30	-58.4	-88.8	258	4
2023-09-27T00:00	24007	30	-58.3	-88.7	261	4
2023-09-27T00:00	24042	30	-58.3	-88.7	264	4
2023-09-27T00:00	24055	30	-58.4	-88.8	268	5
2023-09-27T00:00	24079	30	-58.5	-89.5	272	5
2023-09-27T00:00	24101	30	-58.4	-89.4	276	5
2023-09-27T00:00	24122	30	-58.4	-89.4	279	5
2023-09-27T00:00	24151	30	-58.4	-89.4	281	6
2023-09-27T00:00	24185	29	-58.4	-89.4	283	6
2023-09-27T00:00	24203	29	-58.3	-89.4	285	6
2023-09-27T00:00	24226	29	-58.1	-89.2	287	7
2023-09-27T00:00	24251	29	-58.1	-89.2	290	7
2023-09-27T00:00	24269	29	-58.1	-89.2	294	6
2023-09-27T00:00	24304	29	-57.8	-89.0	299	6
2023-09-27T00:00	24332	29	-57.7	-88.9	304	6
2023-09-27T00:00	24354	29	-57.8	-89.7	307	6
2023-09-27T00:00	24376	29	-57.4	-89.4	308	6
2023-09-27T00:00	24400	28	-57.4	-89.4	307	6
2023-09-27T00:00	24412	28	-57.3	-89.4	304	6
2023-09-27T00:00	24450	28	-57.3	-89.4	302	7
2023-09-27T00:00	24468	28	-57.0	-89.2	300	7
2023-09-27T00:00	24502	28	-56.8	-89.0	300	7
2023-09-27T00:00	24518	28	-56.7	-88.9	300	7
2023-09-27T00:00	24550	28	-56.8	-89.0	300	7
2023-09-27T00:00	24575	28	-56.7	-88.9	301	7
2023-09-27T00:00	24597	28	-56.6	-88.9	303	7
2023-09-27T00:00	24613	27	-56.6	-88.9	306	7
2023-09-27T00:00	24649	27	-56.7	-88.9	310	7
2023-09-27T00:00	24680	27	-56.7	-88.9	315	7
2023-09-27T00:00	24712	27	-56.5	-88.8	321	8
2023-09-27T00:00	24727	27	-56.2	-88.6	326	9
2023-09-27T00:00	24752	27	-56.1	-88.5	331	9
2023-09-27T00:00	24771	27	-55.9	-89.2	335	9
2023-09-27T00:00	24796	27	-55.6	-89.0	339	10
2023-09-27T00:00	24824	27	-55.4	-88.9	342	9
2023-09-27T00:00	24853	26	-55.4	-88.9	344	9
2023-09-27T00:00	24877	26	-55.3	-87.9	345	9
2023-09-27T00:00	24902	26	-55.3	-87.9	345	8
2023-09-27T00:00	24927	26	-55.4	-88.0	344	7
2023-09-27T00:00	24955	26	-55.5	-88.1	344	7
2023-09-27T00:00	24976	26	-55.7	-88.2	344	6
2023-09-27T00:00	25001	26	-55.7	-88.2	347	6
2023-09-27T00:00	25028	26	-55.8	-88.3	351	5
2023-09-27T00:00	25060	26	-55.7	-88.2	355	5
2023-09-27T00:00	25086	26	-55.5	-88.1	359	5
2023-09-27T00:00	25117	25	-55.5	-88.1	2	5
2023-09-27T00:00	25134	25	-55.4	-88.9	3	5
2023-09-27T00:00	25164	25	-55.2	-88.7	2	5
2023-09-27T00:00	25183	25	-55.0	-88.6	1	5
2023-09-27T00:00	25213	25	-54.9	-88.5	359	5
2023-09-27T00:00	25235	25	-54.9	-88.5	355	4
2023-09-27T00:00	25266	25	-54.8	-88.4	351	4
2023-09-27T00:00	25301	25	-54.8	-88.4	348	4
2023-09-27T00:00	25312	25	-54.8	-88.4	346	4
2023-09-27T00:00	25335	25	-54.7	-88.4	343	4
2023-09-27T00:00	25364	24	-54.7	-88.4	340	4
2023-09-27T00:00	25393	24	-54.7	-88.4	334	4
2023-09-27T00:00	25408	24	-54.7	-88.4	327	4
2023-09-27T00:00	25444	24	-54.7	-88.4	320	4
2023-09-27T00:00	25467	24	-54.6	-88.3	315	5
2023-09-27T00:00	25487	24	-54.6	-88.3	311	5
2023-09-27T00:00	25522	24	-54.5	-88.2	310	5
2023-09-27T00:00	25534	24	-54.7	-88.4	311	4
2023-09-27T00:00	25567	24	-54.7	-88.4	313	4
2023-09-27T00:00	25591	24	-54.7	-88.4	315	4
2023-09-27T00:00	25619	24	-54.8	-88.4	316	4
2023-09-27T00:00	25635	23	-54.8	-88.4	316	3
2023-09-27T00:00	25671	23	-54.7	-88.4	317	3
2023-09-27T00:00	25685	23	-54.7	-88.4	321	3
2023-09-27T00:00	25722	23	-54.9	-88.5	330	2
2023-09-27T00:00	25755	23	-54.9	-88.5	348	2
2023-09-27T00:00	25761	23	-54.8	-88.4	12	2
2023-09-27T00:00	25778	23	-54.9	-88.5	28	2
2023-09-27T00:00	25817	23	-54.9	-88.5	36	3
2023-09-27T00:00	25838	23	-55.0	-87.7	39	3
2023-09-27T00:00	25864	23	-55.2	-87.8	40	4
2023-09-27T00:00	25895	23	-55.3	-87.9	41	4
2023-09-27T00:00	25929	22	-55.5	-88.1	41	5
2023-09-27T00:00	25943	22	-55.3	-87.9	41	5
2023-09-27T00:00	25970	22	-55.1	-88.6	41	5
2023-09-27T00:00	25997	22	-55.1	-88.6	39	4
2023-09-27T00:00	26026	22	-55.2	-88.7	35	4
2023-09-27T00:00	26054	22	-55.0	-88.6	28	4
2023-09-27T00:00	26084	22	-55.0	-88.6	19	3
2023-09-27T00:00	26100	22	-54.9	-88.5	8	3
2023-09-27T00:00	26135	22	-54.8	-88.4	357	3
2023-09-27T00:00	26156	22	-54.7	-88.4	346	3
2023-09-27T00:00	26181	22	-54.5	-88.2	335	3
2023-09-27T00:00	26206	21	-54.2	-88.0	323	3
2023-09-27T00:00	26253	21	-54.1	-87.9	309	3
2023-09-27T00:00	26276	21	-54.2	-88.0	296	3
2023-09-27T00:00	26304	21	-54.1	-87.9	285	3
2023-09-27T00:00	26330	21	-53.9	-87.8	279	4
2023-09-27T00:00	26352	21	-54.2	-88.0	276	4
2023-09-27T00:00	26396	21	-54.5	-88.2	275	4
2023-09-27T00:00	26414	21	-54.4	-88.1	277	4
2023-09-27T00:00	26431	21	-54.4	-88.1	282	4
2023-09-27T00:00	26468	21	-54.5	-88.2	289	4
2023-09-27T00:00	26502	20	-54.5	-88.2	297	4
2023-09-27T00:00	26518	20	-54.7	-88.4	305	4
2023-09-27T00:00	26543	20	-54.6	-88.3	309	4
2023-09-27T00:00	26578	20	-54.6	-88.3	312	4
2023-09-27T00:00	26605	20	-54.6	-88.3	314	4
2023-09-27T00:00	26636	20	-54.7	-88.4	317	4
2023-09-27T00:00	26670	20	-54.9	-88.5	322	4
2023-09-27T00:00	26691	20	-54.8	-88.4	328	4
2023-09-27T00:00	26725	20	-54.8	-88.4	334	4
2023-09-27T00:00	26748	20	-54.8	-88.4	340	3
2023-09-27T00:00	26774	20	-54.7	-88.4	346	3
2023-09-27T00:00	26788	20	-54.7	-88.4	355	3
2023-09-27T00:00	26818	19	-54.6	-88.3	6	3
2023-09-27T00:00	26855	19	-54.5	-88.2	15	3
2023-09-27T00:00	26881	19	-54.5	-88.2	20	4
2023-09-27T00:00	26905	19	-54.5	-88.2	23	5
2023-09-27T00:00	26936	19	-54.7	-88.4	24	5
2023-09-27T00:00	26952	19	-54.7	-88.4	24	6
2023-09-27T00:00	26981	19	-54.9	-88.5	24	6
2023-09-27T00:00	27018	19	-55.1	-88.6	24	5
2023-09-27T00:00	27052	19	-55.3	-88.8	23	5
2023-09-27T00:00	27072	19	-54.9	-88.5	21	5
2023-09-27T00:00	27084	19	-54.7	-88.4	16	4
2023-09-27T00:00	27132	19	-54.7	-88.4	8	4
2023-09-27T00:00	27176	18	-54.9	-88.5	338	3
2023-09-27T00:00	27212	18	-54.9	-88.5	321	3
2023-09-27T00:00	27226	18	-54.9	-88.5	305	4
2023-09-27T00:00	27250	18	-55.0	-88.6	294	4
2023-09-27T00:00	27271	18	-55.1	-88.6	286	5
2023-09-27T00:00	27301	18	-55.2	-88.7	282	6
2023-09-27T00:00	27318	18	-55.2	-88.7	278	7
2023-09-27T00:00	27350	18	-55.2	-88.7	276	8
2023-09-27T00:00	27390	18	-55.1	-88.6	274	8
2023-09-27T00:00	27391	18	-55.3	-88.8	272	9
2023-09-27T00:00	27443	18	-55.4	-88.9	271	9
2023-09-27T00:00	27446	18	-55.6	-89.0	271	10
2023-09-27T00:00	27494	18	-55.6	-89.0	272	10
2023-09-27T00:00	27507	18	-55.6	-89.0	274	10
2023-09-27T00:00	27528	17	-55.5	-88.9	277	10
2023-09-27T00:00	27569	17	-55.2	-88.7	281	9
2023-09-27T00:00	27576	17	-55.2	-88.7	286	9
2023-09-27T00:00	27616	17	-55.4	-88.9	292	8
2023-09-27T00:00	27638	17	-55.5	-88.9	298	8
2023-09-27T00:00	27663	17	-55.2	-88.7	303	8
2023-09-27T00:00	27707	17	-55.2	-88.7	308	8
2023-09-27T00:00	27730	17	-55.3	-88.8	313	7
2023-09-27T00:00	27766	17	-55.3	-88.8	319	7
2023-09-27T00:00	27792	17	-55.2	-88.7	326	6
2023-09-27T00:00	27832	17	-55.4	-88.9	341	5
2023-09-27T00:00	27879	17	-55.5	-88.9	350	5
2023-09-27T00:00	27895	16	-55.7	-88.2	2	4
2023-09-27T00:00	27916	16	-55.9	-88.4	15	4
2023-09-27T00:00	27939	16	-56.1	-88.5	26	5
2023-09-27T00:00	27987	16	-56.2	-88.6	36	5
2023-09-27T00:00	28004	16	-56.3	-88.6	42	5
2023-09-27T00:00	28034	16	-56.2	-89.4	45	4
2023-09-27T00:00	28072	16	-56.0	-89.3	46	4
2023-09-27T00:00	28093	16	-55.9	-89.2	43	3
2023-09-27T00:00	28130	16	-55.8	-89.1	32	2
2023-09-27T00:00	28158	16	-55.7	-89.1	355	1
2023-09-27T00:00	28164	16	-55.6	-89.0	288	1
2023-09-27T00:00	28203	16	-55.6	-89.0	264	1
2023-09-27T00:00	28225	16	-55.6	-89.0	256	2
2023-09-27T00:00	28256	16	-55.6	-89.0	255	2
2023-09-27T00:00	28292	15	-55.5	-88.9	258	2
2023-09-27T00:00	28320	15	-55.5	-88.9	263	2
2023-09-27T00:00	28344	15	-55.3	-88.8	270	2
2023-09-27T00:00	28364	15	-55.2	-88.7	279	2
2023-09-27T00:00	28388	15	-55.1	-88.6	286	1
2023-09-27T00:00	28437	15	-55.1	-88.6	289	1
2023-09-27T00:00	28445	15	-55.1	-89.6	288	1
2023-09-27T00:00	28470	15	-54.9	-89.5	284	2
2023-09-27T00:00	28499	15	-54.8	-89.4	281	2
2023-09-27T00:00	28520	15	-54.7	-89.4	279	2
2023-09-27T00:00	28546	15	-54.8	-89.4	276	3
2023-09-27T00:00	28583	15	-54.8	-89.4	273	3
2023-09-27T00:00	28586	15	-54.7	-89.4	269	3
2023-09-27T00:00	28627	15	-54.6	-89.3	266	4
2023-09-27T00:00	28645	15	-54.4	-89.1	264	4
2023-09-27T00:00	28690	15	-54.1	-88.9	263	4
2023-09-27T00:00	28698	15	-53.9	-88.8	264	4
2023-09-27T00:00	28708	14	-53.9	-88.8	266	4
2023-09-27T00:00	28765	14	-54.0	-88.9	268	5
2023-09-27T00:00	28772	14	-54.0	-88.9	270	5
2023-09-27T00:00	28815	14	-53.8	-88.7	273	6
2023-09-27T00:00	28821	14	-53.6	-88.6	276	6
2023-09-27T00:00	28834	14	-53.5	-88.5	280	7
2023-09-27T00:00	28877	14	-53.6	-88.6	285	8
2023-09-27T00:00	28918	14	-53.5	-88.5	289	9
2023-09-27T00:00	28945	14	-53.3	-88.4	295	9
2023-09-27T00:00	28991	14	-53.1	-88.2	298	9
2023-09-27T00:00	28996	14	-52.7	-87.9	300	8
2023-09-27T00:00	29025	14	-52.4	-87.7	303	7
2023-09-27T00:00	29056	14	-52.3	-87.7	306	6
2023-09-27T00:00	29088	14	-52.2	-87.6	310	5
2023-09-27T00:00	29092	14	-52.2	-87.6	314	4
2023-09-27T00:00	29109	14	-52.3	-87.7	319	3
2023-09-27T00:00	29160	14	-52.5	-87.8	325	2
2023-09-27T00:00	29201	13	-52.7	-87.9	339	1
2023-09-27T00:00	29220	13	-52.9	-88.1	24	1
2023-09-27T00:00	29224	13	-53.1	-88.2	72	1
2023-09-27T00:00	29266	13	-53.2	-88.3	86	2
2023-09-27T00:00	29306	13	-53.4	-88.4	93	2
2023-09-27T00:00	29354	13	-53.2	-88.3	108	1
2023-09-27T00:00	29378	13	-53.2	-88.3	164	0
2023-09-27T00:00	29390	13	-52.9	-88.1	256	1
2023-09-27T00:00	29436	13	-52.5	-87.8	274	2
2023-09-27T00:00	29446	13	-52.5	-87.8	282	2
2023-09-27T00:00	29470	13	-52.6	-87.9	288	3
2023-09-27T00:00	29523	13	-52.5	-87.8	290	4
2023-09-27T00:00	29542	13	-52.5	-87.8	291	4
2023-09-27T00:00	29562	13	-52.7	-87.9	291	5
2023-09-27T00:00	29603	13	-52.6	-87.9	290	5
2023-09-27T00:00	29636	13	-52.5	-87.8	288	5
2023-09-27T00:00	29644	13	-52.5	-87.8	286	4
2023-09-27T00:00	29668	12	-52.3	-87.7	284	4
2023-09-27T00:00	29717	12	-52.0	-87.4	283	4
2023-09-27T00:00	29734	12	-52.1	-87.5	285	4
2023-09-27T00:00	29783	12	-52.0	-87.4	288	4
2023-09-27T00:00	29817	12	-51.9	-87.4	294	4
2023-09-27T00:00	29837	12	-51.9	-87.4	305	5
2023-09-27T00:00	29885	12	-51.7	-87.2	309	6
2023-09-27T00:00	29920	12	-51.6	-87.2	313	6
2023-09-27T00:00	29938	12	-51.7	-87.2	315	7
2023-09-27T00:00	29983	12	-51.8	-87.3	319	7
2023-09-27T00:00	29994	12	-52.0	-87.4	322	7
2023-09-27T00:00	29999	12	-52.1	-87.5	326	7
2023-09-27T00:00	30040	12	-52.2	-87.6	331	7
2023-09-27T00:00	30091	12	-52.3	-87.7	334	7
2023-09-27T00:00	30110	12	-52.4	-87.7	337	7
2023-09-27T00:00	30127	12	-52.5	-87.8	338	7
2023-09-27T00:00	30152	12	-52.5	-87.8	338	7
2023-09-27T00:00	30198	12	-52.4	-87.7	338	7
2023-09-27T00:00	30232	11	-52.3	-87.7	340	7
2023-09-27T00:00	30257	11	-51.9	-87.4	342	6
2023-09-27T00:00	30281	11	-51.8	-87.3	345	6
2023-09-27T00:00	30290	11	-51.6	-87.2	347	5
2023-09-27T00:00	30295	11	-51.6	-87.2	348	5
2023-09-27T00:00	30334	11	-51.6	-87.2	347	4
2023-09-27T00:00	30371	11	-51.6	-87.2	345	4
2023-09-27T00:00	30412	11	-51.7	-87.2	342	3
2023-09-27T00:00	30460	11	-51.8	-87.3	326	2
2023-09-27T00:00	30503	11	-51.8	-87.3	302	1
2023-09-27T00:00	30516	11	-51.8	-87.3	260	2
2023-09-27T00:00	30576	11	-51.7	-87.2	256	3
2023-09-27T00:00	30585	11	-51.5	-87.1	255	4
2023-09-27T00:00	30618	11	-51.3	-87.0	256	4
2023-09-27T00:00	30641	11	-51.2	-86.9	257	5
2023-09-27T00:00	30661	11	-51.2	-86.9	258	5
2023-09-27T00:00	30673	11	-51.2	-86.9	259	5
2023-09-27T00:00	30717	11	-51.2	-86.9	259	6
2023-09-27T00:00	30726	11	-51.3	-87.0	259	6
2023-09-27T00:00	30774	11	-51.4	-87.0	259	6
2023-09-27T00:00	30806	11	-51.5	-87.1	260	7
2023-09-27T00:00	30835	10	-51.5	-87.1	263	7
2023-09-27T00:00	30862	10	-51.6	-87.2	266	7
2023-09-27T00:00	30877	10	-51.5	-87.1	271	7
2023-09-27T00:00	30910	10	-51.4	-87.0	275	8
2023-09-27T00:00	30942	10	-51.2	-86.9	280	8
2023-09-27T00:00	30993	10	-51.1	-86.8	283	8
2023-09-27T00:00	30996	10	-50.8	-86.6	286	8
2023-09-27T00:00	31015	10	-50.7	-86.5	286	8
2023-09-27T00:00	31072	10	-50.5	-86.4	285	8
2023-09-27T00:00	31092	10	-50.5	-86.4	282	8
2023-09-27T00:00	31135	10	-50.4	-86.3	278	8
2023-09-27T00:00	31142	10	-50.3	-86.2	273	8
2023-09-27T00:00	31192	10	-50.1	-86.1	268	8
2023-09-27T00:00	31211	10	-50.3	-86.2	264	9
2023-09-27T00:00	31239	10	-50.4	-86.3	260	9
2023-09-27T00:00	31282	10	-50.3	-86.2	258	9
2023-09-27T00:00	31290	10	-50.2	-86.2	257	10
2023-09-27T00:00	31321	10	-49.9	-86.0	257	11
2023-09-27T00:00	31342	10	-49.8	-85.9	258	12
2023-09-27T00:00	31399	10	-49.9	-86.0	258	13
2023-09-27T00:00	31422	10	-49.8	-85.9	258	13
2023-09-27T00:00	31430	10	-49.8	-85.9	258	14
2023-09-27T00:00	31477	9	-49.9	-86.0	258	14
2023-09-27T00:00	31540	9	-50.0	-86.0	257	15
2023-09-27T00:00	31546	9	-50.1	-86.1	257	16
2023-09-27T00:00	31610	9	-50.2	-86.2	256	16
2023-09-27T00:00	31625	9	-50.2	-86.2	256	16
2023-09-27T00:00	31638	9	-49.8	-85.9	256	17
2023-09-27T00:00	31668	9	-49.8	-85.9	256	16
2023-09-27T00:00	31704	9	-49.8	-85.9	257	16
2023-09-27T00:00	31732	9	-49.7	-85.8	258	16
2023-09-27T00:00	31758	9	-49.4	-85.6	258	16
2023-09-27T00:00	31786	9	-49.4	-85.6	259	16
2023-09-27T00:00	31803	9	-49.3	-85.5	260	15
2023-09-27T00:00	31838	9	-49.3	-85.5	261	15
2023-09-27T00:00	31876	9	-49.5	-85.7	263	15
2023-09-27T00:00	31903	9	-49.7	-85.8	265	14
2023-09-27T00:00	31925	9	-49.8	-85.9	267	14
2023-09-27T00:00	31962	9	-49.8	-85.9	269	13
2023-09-27T00:00	31972	9	-49.7	-85.8	272	13
2023-09-27T00:00	31996	9	-49.6	-85.8	274	13
2023-09-27T00:00	32030	9	-49.3	-85.5	277	13
2023-09-27T00:00	32070	9	-49.3	-85.5	280	13
2023-09-27T00:00	32098	9	-49.4	-85.6	283	13
2023-09-27T00:00	32127	9	-49.7	-85.8	289	14
2023-09-27T00:00	32162	9	-49.9	-86.0	292	14
2023-09-27T00:00	32202	8	-50.0	-86.0	295	14
2023-09-27T00:00	32220	8	-50.1	-86.1	298	15
2023-09-27T00:00	32251	8	-50.2	-86.2	299	15
2023-09-27T00:00	32263	8	-50.3	-86.2	300	15
2023-09-27T00:00	32275	8	-50.1	-86.1	299	15
2023-09-27T00:00	32287	8	-49.7	-85.8	299	15
2023-09-27T00:00	32345	8	-49.6	-85.8	299	15
2023-09-27T00:00	32387	8	-49.4	-85.6	301	15
2023-09-27T00:00	32454	8	-49.4	-85.6	302	15
2023-09-27T00:00	32459	8	-49.4	-85.6	305	16
2023-09-27T00:00	32475	8	-49.4	-85.6	305	16
2023-09-27T00:00	32524	8	-49.2	-85.5	305	16
2023-09-27T00:00	32556	8	-48.8	-85.2	305	15
2023-09-27T00:00	32580	8	-48.6	-85.0	303	15
2023-09-27T00:00	32583	8	-48.4	-84.9	301	14
2023-09-27T00:00	32621	8	-48.4	-84.9	299	14
2023-09-27T00:00	32636	8	-48.5	-85.0	297	13
2023-09-27T00:00	32671	8	-48.5	-85.0	294	13
2023-09-27T00:00	32690	8	-48.5	-85.0	290	13
2023-09-27T00:00	32736	8	-48.4	-84.9	287	13
2023-09-27T00:00	32737	8	-48.2	-84.8	284	13
2023-09-27T00:00	32771	8	-48.1	-84.7	281	13
2023-09-27T00:00	32807	8	-48.0	-84.6	279	13
2023-09-27T00:00	32816	8	-47.8	-84.5	277	14
2023-09-27T00:00	32862	8	-47.5	-84.3	276	14
2023-09-27T00:00	32910	8	-47.5	-84.3	274	14
2023-09-27T00:00	32936	8	-47.6	-84.3	272	15
2023-09-27T00:00	32962	8	-47.7	-84.4	272	16
2023-09-27T00:00	32999	8	-47.7	-84.4	271	17
2023-09-27T00:00	33049	7	-47.6	-84.3	272	18
2023-09-27T00:00	33092	7	-47.5	-84.3	272	18
2023-09-27T00:00	33117	7	-47.2	-84.1	276	18
2023-09-27T00:00	33128	7	-47.2	-84.1	278	17
2023-09-27T00:00	33204	7	-47.1	-84.0	281	16
2023-09-27T00:00	33237	7	-47.1	-84.0	284	16
2023-09-27T00:00	33260	7	-47.2	-84.1	289	15
2023-09-27T00:00	33299	7	-47.2	-84.1	291	14
2023-09-27T00:00	33319	7	-47.3	-84.1	292	14
2023-09-27T00:00	33356	7	-47.4	-84.2	292	14
2023-09-27T00:00	33383	7	-47.5	-84.3	292	14
2023-09-27T00:00	33401	7	-47.3	-84.1	292	14
2023-09-27T00:00	33438	7	-47.4	-84.2	292	14
2023-09-27T00:00	33458	7	-47.4	-84.2	293	14
2023-09-27T00:00	33495	7	-47.3	-84.1	293	14
2023-09-27T00:00	33536	7	-47.3	-84.1	293	14
2023-09-27T00:00	33575	7	-47.2	-84.1	292	13
2023-09-27T00:00	33583	7	-47.1	-84.0	290	13
2023-09-27T00:00	33638	7	-47.0	-83.9	287	13
2023-09-27T00:00	33699	7	-46.7	-83.7	280	13
2023-09-27T00:00	33729	7	-46.5	-83.6	277	13
2023-09-27T00:00	33747	7	-46.3	-83.4	274	14
2023-09-27T00:00	33790	7	-46.2	-83.4	271	14
2023-09-27T00:00	33801	7	-46.1	-83.3	270	14
2023-09-27T00:00	33824	7	-46.0	-83.2	269	14
2023-09-27T00:00	33825	7	-45.9	-83.2	270	15
2023-09-27T00:00	33875	7	-45.6	-82.9	273	15
2023-09-27T00:00	33888	7	-45.3	-82.7	275	16
2023-09-27T00:00	33918	7	-44.6	-82.2	279	17
2023-09-27T00:00	33994	6	-44.4	-82.1	279	18
2023-09-27T00:00	34015	6	-44.2	-82.0	279	19
2023-09-27T00:00	34050	6	-43.9	-81.8	278	19
2023-09-27T00:00	34052	6	-43.6	-81.5	278	20
2023-09-27T00:00	34056	6	-43.3	-81.3	277	20
2023-09-27T00:00	34106	6	-43.4	-81.4	276	20
2023-09-27T00:00	34144	6	-43.4	-81.4	275	20
2023-09-27T00:00	34160	6	-43.5	-81.5	274	21
2023-09-27T00:00	34169	6	-43.5	-81.5	272	21
2023-09-27T00:00	34177	6	-43.6	-81.5	271	21
2023-09-27T00:00	34202	6	-43.7	-81.6	271	22
2023-09-27T00:00	34242	6	-43.8	-81.7	273	23
2023-09-27T00:00	34301	6	-43.7	-81.6	274	23
2023-09-27T00:00	34310	6	-43.4	-81.4	276	24
2023-09-27T00:00	34327	6	-43.2	-81.3	277	24
2023-09-27T00:00	34346	6	-43.0	-81.1	281	24
2023-09-27T00:00	34399	6	-42.2	-80.6	283	23
2023-09-27T00:00	34429	6	-41.8	-80.3	286	22
2023-09-27T00:00	34463	6	-41.7	-80.2	289	22
2023-09-27T00:00	34502	6	-42.0	-80.4	292	21
2023-09-27T00:00	34533	6	-42.2	-80.6	295	21
2023-09-27T00:00	34602	6	-42.3	-80.6	297	21
2023-09-27T00:00	34603	6	-42.9	-81.1	301	20
2023-09-27T00:00	34642	6	-42.9	-81.1	303	20
2023-09-27T00:00	34644	6	-43.0	-81.1	305	19
2023-09-27T00:00	34738	6	-43.1	-81.2	307	19
2023-09-27T00:00	34758	6	-43.0	-81.1	311	18
2023-09-27T00:00	34759	6	-43.0	-81.1	313	18
2023-09-27T00:00	34790	6	-42.8	-81.0	315	17
2023-09-27T00:00	34823	6	-42.7	-80.9	315	17
2023-09-27T00:00	34851	6	-42.7	-80.9	316	17
2023-09-27T00:00	34899	6	-42.9	-81.1	317	17
2023-09-27T00:00	34927	6	-42.8	-81.0	318	17
2023-09-27T00:00	34943	6	-43.3	-81.3	319	17
2023-09-27T00:00	35016	6	-43.4	-81.4	320	17
2023-09-27T00:00	35043	6	-43.5	-81.5	319	17
2023-09-27T00:00	35052	6	-43.7	-81.6	317	17
2023-09-27T00:00	35098	6	-43.5	-81.5	315	17
2023-09-27T00:00	35133	5	-43.6	-81.5	312	18
2023-09-27T00:00	35189	5	-43.6	-81.5	310	18
2023-09-27T00:00	35204	5	-43.5	-81.5	310	18
2023-09-27T00:00	35225	5	-43.5	-81.5	309	18
2023-09-27T00:00	35240	5	-43.5	-81.5	308	19
2023-09-27T00:00	35273	5	-43.5	-81.5	308	19
2023-09-27T00:00	35291	5	-43.6	-81.5	308	19
2023-09-27T00:00	35298	5	-43.7	-81.6	308	19
2023-09-27T00:00	35334	5	-43.6	-81.5	309	19
2023-09-27T00:00	35373	5	-43.6	-81.5	309	19
2023-09-27T00:00	35392	5	-43.6	-81.5	310	19
2023-09-27T00:00	35406	5	-43.3	-81.3	312	19
2023-09-27T00:00	35446	5	-43.3	-81.3	314	19
2023-09-27T00:00	35473	5	-43.2	-81.3	315	18
2023-09-27T00:00	35524	5	-42.9	-81.1	315	17
2023-09-27T06:00	112	1008	15.4	15.2	150	2
2023-09-27T06:00	142	1005	16.0	15.6	252	1
2023-09-27T06:00	168	1001	18.2		247	2
2023-09-27T06:00	197	998	19.5	14.0	248	2
2023-09-27T06:00	220	995	19.6	14.2	249	2
2023-09-27T06:00	246	992	19.9	14.0	250	3
2023-09-27T06:00	275	989	19.9	13.9	249	2
2023-09-27T06:00	303	986	19.7	13.9	246	2
2023-09-27T06:00	333	983	19.8	13.9	241	1
2023-09-27T06:00	363	979	19.8	13.8	233	1
2023-09-27T06:00	391	976	19.7	13.8	224	1
2023-09-27T06:00	419	973	19.5	13.8	218	1
2023-09-27T06:00	450	969	19.3	13.8	212	1
2023-09-27T06:00	482	966	19.1	13.7	207	1
2023-09-27T06:00	506	963	18.9	13.5	198	1
2023-09-27T06:00	536	960	18.8	13.6	189	1
2023-09-27T06:00	568	956	18.7	13.4	183	2
2023-09-27T06:00	595	953	18.5	13.0	182	2
2023-09-27T06:00	624	950	18.3	13.0	187	2
2023-09-27T06:00	652	947	18.1	13.0	197	2
2023-09-27T06:00	682	943	17.9	12.8	208	2
2023-09-27T06:00	712	940	18.0	11.7	216	3
2023-09-27T06:00	746	937	18.3	9.8	220	3
2023-09-27T06:00	777	933	18.0	11.9	221	3
2023-09-27T06:00	806	930	17.7	11.9	220	4
2023-09-27T06:00	833	927	17.5	12.0	217	4
2023-09-27T06:00	861	924	17.2	12.0	213	4
2023-09-27T06:00	889	921	17.0	11.9	210	5
2023-09-27T06:00	917	918	16.7	11.9	207	5
2023-09-27T06:00	947	915	16.5	11.9	205	5
2023-09-27T06:00	974	912	16.4	11.7	204	5
2023-09-27T06:00	1003	909	16.3	10.6	205	5
2023-09-27T06:00	1031	906	16.2	10.3	207	5
2023-09-27T06:00	1061	903	16.1	10.2	209	5
2023-09-27T06:00	1089	900	15.9	9.7	211	5
2023-09-27T06:00	1118	897	15.7	10.1	212	5
2023-09-27T06:00	1145	893	15.5	9.4	214	5
2023-09-27T06:00	1177	890	15.4	9.1	216	5
2023-09-27T06:00	1204	887	15.2	9.0	218	5
2023-09-27T06:00	1234	884	14.9	9.0	220	5
2023-09-27T06:00	1264	881	14.7	9.2	221	6
2023-09-27T06:00	1296	878	14.4	9.6	221	6
2023-09-27T06:00	1323	875	14.2	9.9	220	6
2023-09-27T06:00	1350	872	13.9	10.1	218	6
2023-09-27T06:00	1379	869	13.8	9.6	216	6
2023-09-27T06:00	1412	866	13.8	9.1	213	6
2023-09-27T06:00	1441	863	13.8	6.7	209	6
2023-09-27T06:00	1471	860	13.9	5.3	206	5
2023-09-27T06:00	1500	857	13.9	5.7	202	5
2023-09-27T06:00	1531	854	13.7	5.4	199	6
2023-09-27T06:00	1559	851	13.5	5.0	196	6
2023-09-27T06:00	1589	848	13.3	4.7	195	6
2023-09-27T06:00	1619	845	13.1	4.6	195	6
2023-09-27T06:00	1649	842	12.9	4.5	196	6
2023-09-27T06:00	1679	839	12.7	4.6	197	6
2023-09-27T06:00	1708	836	12.4	4.5	198	6
2023-09-27T06:00	1737	833	12.3	4.5	198	6
2023-09-27T06:00	1764	830	12.2	4.4	198	6
2023-09-27T06:00	1792	828	12.1	4.4	198	6
2023-09-27T06:00	1823	825	12.1	4.2	198	6
2023-09-27T06:00	1850	822	12.2	4.2	198	6
2023-09-27T06:00	1878	819	11.9	4.1	198	6
2023-09-27T06:00	1910	816	11.7	4.0	198	7
2023-09-27T06:00	1938	813	11.5	3.6	197	7
2023-09-27T06:00	1966	811	11.5	2.2	195	6
2023-09-27T06:00	1994	808	11.5	0.6	193	6
2023-09-27T06:00	2021	805	11.5	2.2	190	6
2023-09-27T06:00	2050	803	11.4	2.9	188	6
2023-09-27T06:00	2077	800	11.2	2.7	187	6
2023-09-27T06:00	2103	797	11.1	2.4	189	6
2023-09-27T06:00	2130	795	11.2	1.7	191	7
2023-09-27T06:00	2157	792	11.4	0.8	194	7
2023-09-27T06:00	2184	790	11.5	-1.4	195	7
2023-09-27T06:00	2209	787	11.9	-3.3	196	8
2023-09-27T06:00	2234	785	11.8	-2.9	196	8
2023-09-27T06:00	2260	783	11.6	-3.1	197	8
2023-09-27T06:00	2286	780	11.4	-3.4	197	7
2023-09-27T06:00	2312	778	11.2	-2.9	198	7
2023-09-27T06:00	2339	775	11.0	-2.2	199	7
2023-09-27T06:00	2365	773	10.8	-1.3	199	7
2023-09-27T06:00	2392	770	10.6	-1.0	200	7
2023-09-27T06:00	2418	768	10.5	-1.3	200	7
2023-09-27T06:00	2445	766	10.3	-1.8	201	7
2023-09-27T06:00	2471	763	10.2	-2.2	203	7
2023-09-27T06:00	2496	761	10.2	-2.6	207	7
2023-09-27T06:00	2523	758	10.0	-2.9	210	7
2023-09-27T06:00	2550	756	9.9	-3.3	213	7
2023-09-27T06:00	2574	754	9.7	-3.7	216	7
2023-09-27T06:00	2601	751	9.7	-4.1	217	7
2023-09-27T06:00	2628	749	9.5	-4.0	218	8
2023-09-27T06:00	2655	746	9.3	-4.1	218	8
2023-09-27T06:00	2682	744	9.2	-4.7	217	8
2023-09-27T06:00	2712	741	9.0	-4.3	217	8
2023-09-27T06:00	2738	739	8.9	-4.3	217	8
2023-09-27T06:00	2765	736	8.7	-4.5	217	8
2023-09-27T06:00	2791	734	8.5	-4.5	217	8
2023-09-27T06:00	2819	732	8.3	-4.7	217	8
2023-09-27T06:00	2847	729	8.0	-5.1	218	8
2023-09-27T06:00	2875	727	7.7	-5.2	219	8
2023-09-27T06:00	2906	724	7.5	-5.6	221	8
2023-09-27T06:00	2934	722	7.3	-5.9	223	8
2023-09-27T06:00	2962	719	7.0	-5.9	225	8
2023-09-27T06:00	2991	717	6.7	-6.1	227	8
2023-09-27T06:00	3019	714	6.5	-5.7	227	8
2023-09-27T06:00	3045	712	6.3	-5.9	228	8
2023-09-27T06:00	3072	710	6.1	-5.3	228	8
2023-09-27T06:00	3100	707	5.8	-5.0	229	8
2023-09-27T06:00	3127	705	5.6	-4.9	230	7
2023-09-27T06:00	3154	702	5.5	-4.8	231	7
2023-09-27T06:00	3184	700	5.5	-4.5	232	7
2023-09-27T06:00	3211	698	5.5	-4.8	233	8
2023-09-27T06:00	3241	695	5.3	-4.4	234	8
2023-09-27T06:00	3269	693	5.3	-5.8	235	8
2023-09-27T06:00	3297	690	5.1	-6.7	235	8
2023-09-27T06:00	3325	688	5.0	-6.2	235	8
2023-09-27T06:00	3355	685	4.7	-5.4	235	8
2023-09-27T06:00	3382	683	4.5	-5.2	235	8
2023-09-27T06:00	3412	681	4.2	-5.3	235	8
2023-09-27T06:00	3440	678	4.0	-5.5	235	8
2023-09-27T06:00	3469	676	3.8	-5.7	235	8
2023-09-27T06:00	3497	674	3.6	-5.9	235	8
2023-09-27T06:00	3526	671	3.3	-6.0	235	7
2023-09-27T06:00	3553	669	3.1	-6.2	235	7
2023-09-27T06:00	3584	666	2.9	-6.6	236	7
2023-09-27T06:00	3612	664	2.7	-7.6	236	7
2023-09-27T06:00	3640	662	2.6	-7.3	236	7
2023-09-27T06:00	3670	659	2.4	-8.0	235	7
2023-09-27T06:00	3699	657	2.2	-9.5	234	7
2023-09-27T06:00	3728	655	2.0	-9.7	233	7
2023-09-27T06:00	3757	652	1.8	-10.2	233	7
2023-09-27T06:00	3787	650	1.6	-9.5	233	7
2023-09-27T06:00	3817	647	1.5	-9.4	234	8
2023-09-27T06:00	3845	645	1.4	-10.3	237	8
2023-09-27T06:00	3875	643	1.3	-10.9	240	8
2023-09-27T06:00	3905	640	1.3	-11.8	243	9
2023-09-27T06:00	3934	638	1.3	-11.9	246	9
2023-09-27T06:00	3964	636	1.2	-12.6	249	9
2023-09-27T06:00	3993	633	1.5	-22.7	250	8
2023-09-27T06:00	4024	631	1.4	-22.5	251	8
2023-09-27T06:00	4054	629	1.3	-22.6	252	8
2023-09-27T06:00	4084	626	1.2	-21.7	252	8
2023-09-27T06:00	4114	624	1.0	-19.2	251	8
2023-09-27T06:00	4143	622	0.7	-19.3	251	8
2023-09-27T06:00	4171	619	0.6	-20.4	251	8
2023-09-27T06:00	4203	617	0.6	-22.0	252	8
2023-09-27T06:00	4232	615	0.4	-22.3	254	8
2023-09-27T06:00	4261	613	0.2	-22.2	255	8
2023-09-27T06:00	4291	610	0.2	-26.1	255	8
2023-09-27T06:00	4321	608	0.2	-22.3	255	8
2023-09-27T06:00	4350	606	-0.1	-23.4	254	8
2023-09-27T06:00	4379	604	-0.3	-20.6	252	8
2023-09-27T06:00	4409	601	-0.5	-21.1	251	8
2023-09-27T06:00	4441	599	-0.8	-21.1	249	8
2023-09-27T06:00	4470	597	-1.0	-21.0	248	8
2023-09-27T06:00	4500	594	-1.0	-21.0	247	8
2023-09-27T06:00	4532	592	-1.3	-19.5	246	8
2023-09-27T06:00	4562	590	-1.6	-19.3	247	8
2023-09-27T06:00	4595	588	-1.9	-19.2	247	9
2023-09-27T06:00	4625	585	-2.2	-18.7	248	9
2023-09-27T06:00	4657	583	-2.5	-19.0	249	9
2023-09-27T06:00	4688	581	-2.7	-19.2	249	9
2023-09-27T06:00	4718	578	-3.0	-19.5	248	9
2023-09-27T06:00	4749	576	-3.2	-19.8	247	9
2023-09-27T06:00	4779	574	-3.4	-19.9	247	9
2023-09-27T06:00	4812	572	-3.6	-20.1	246	8
2023-09-27T06:00	4840	570	-3.9		245	8
2023-09-27T06:00	4871	567	-4.1	-21.4	244	8
2023-09-27T06:00	4900	565	-4.3	-21.7	243	8
2023-09-27T06:00	4934	563	-4.6	-21.5	243	8
2023-09-27T06:00	4964	561	-4.9	-21.5	242	8
2023-09-27T06:00	4994	558	-5.2	-21.8	242	8
2023-09-27T06:00	5025	556	-5.4	-22.0	242	8
2023-09-27T06:00	5056	554	-5.7	-22.3	242	8
2023-09-27T06:00	5086	552	-6.0	-22.2	242	8
2023-09-27T06:00	5118	550	-6.3	-22.3	242	8
2023-09-27T06:00	5151	547	-6.5	-23.0	241	8
2023-09-27T06:00	5181	545	-6.7	-21.9	241	8
2023-09-27T06:00	5212	543	-6.9	-21.8	241	8
2023-09-27T06:00	5244	541	-7.1	-23.6	242	8
2023-09-27T06:00	5276	539	-7.4	-25.4	242	7
2023-09-27T06:00	5309	536	-7.6	-30.5	242	7
2023-09-27T06:00	5342	534	-7.9	-32.3	241	7
2023-09-27T06:00	5373	532	-8.2	-33.7	241	7
2023-09-27T06:00	5407	530	-8.4	-33.5	241	7
2023-09-27T06:00	5439	528	-8.7	-33.9	241	7
2023-09-27T06:00	5473	525	-8.9	-34.0	242	7
2023-09-27T06:00	5507	523	-9.2	-34.6	243	7
2023-09-27T06:00	5540	521	-9.4	-34.7	244	7
2023-09-27T06:00	5573	518	-9.7	-35.4	245	7
2023-09-27T06:00	5605	516	-9.9	-35.9	245	7
2023-09-27T06:00	5638	514	-10.1	-31.9	245	7
2023-09-27T06:00	5672	512	-10.3	-30.0	245	7
2023-09-27T06:00	5702	510	-10.4	-29.7	245	6
2023-09-27T06:00	5732	508	-10.7	-28.8	244	6
2023-09-27T06:00	5765	506	-10.9	-27.0	245	6
2023-09-27T06:00	5798	504	-11.2	-25.8	246	6
2023-09-27T06:00	5830	501	-11.5	-25.5	247	6
2023-09-27T06:00	5863	499	-11.8	-25.2	249	6
2023-09-27T06:00	5895	497	-12.1	-26.7	250	6
2023-09-27T06:00	5926	495	-12.3	-27.1	252	6
2023-09-27T06:00	5960	493	-12.4	-25.4	252	6
2023-09-27T06:00	5991	491	-12.6	-26.4	252	6
2023-09-27T06:00	6023	489	-12.8	-25.7	251	6
2023-09-27T06:00	6056	487	-13.0	-24.8	250	6
2023-09-27T06:00	6089	485	-13.3	-24.7	249	6
2023-09-27T06:00	6121	483	-13.6	-24.6	248	6
2023-09-27T06:00	6156	481	-13.9	-23.6	248	6
2023-09-27T06:00	6188	478	-14.2	-21.6	249	6
2023-09-27T06:00	6219	476	-14.5	-20.9	251	6
2023-09-27T06:00	6250	474	-14.7	-20.3	254	7
2023-09-27T06:00	6284	472	-14.9	-21.7	256	7
2023-09-27T06:00	6318	470	-15.2	-20.7	259	7
2023-09-27T06:00	6351	468	-15.5	-20.7	261	8
2023-09-27T06:00	6384	466	-15.8	-20.8	263	8
2023-09-27T06:00	6415	464	-16.0	-21.0	264	8
2023-09-27T06:00	6445	462	-16.2	-21.3	264	8
2023-09-27T06:00	6478	460	-16.3	-20.6	264	9
2023-09-27T06:00	6510	458	-16.6	-21.2	263	9
2023-09-27T06:00	6538	457	-16.8	-21.6	263	9
2023-09-27T06:00	6568	455	-17.0	-21.7	262	8
2023-09-27T06:00	6597	453	-17.3	-21.9	262	8
2023-09-27T06:00	6626	451	-17.6	-21.8	262	8
2023-09-27T06:00	6653	450	-17.9	-21.9	262	8
2023-09-27T06:00	6682	448	-18.1	-21.9	262	8
2023-09-27T06:00	6710	446	-18.4	-21.9	262	8
2023-09-27T06:00	6739	445	-18.7	-22.0	262	8
2023-09-27T06:00	6771	443	-19.0	-22.1	261	8
2023-09-27T06:00	6800	441	-19.2	-22.1	261	8
2023-09-27T06:00	6830	439	-19.5	-22.4	260	8
2023-09-27T06:00	6860	437	-19.8	-22.8	260	8
2023-09-27T06:00	6891	436	-20.1		260	8
2023-09-27T06:00	6923	434	-20.4	-23.3	260	8
2023-09-27T06:00	6951	432	-20.7	-23.5	260	8
2023-09-27T06:00	6982	430	-20.9	-23.5	259	8
2023-09-27T06:00	7013	429	-21.2	-23.7	259	8
2023-09-27T06:00	7041	427	-21.5	-24.1	257	8
2023-09-27T06:00	7070	425	-21.5	-25.3	256	9
2023-09-27T06:00	7101	424	-21.7	-25.6	254	9
2023-09-27T06:00	7126	422	-21.8	-25.7	253	9
2023-09-27T06:00	7157	420	-22.0	-25.3	253	9
2023-09-27T06:00	7194	418	-22.2	-26.4	253	9
2023-09-27T06:00	7228	416	-22.5	-27.3	254	9
2023-09-27T06:00	7260	414	-22.8	-28.0	255	9
2023-09-27T06:00	7295	412	-23.0	-28.9	255	9
2023-09-27T06:00	7328	411	-23.3	-28.9	255	9
2023-09-27T06:00	7364	409	-23.6	-28.4	255	9
2023-09-27T06:00	7396	407	-24.0	-28.6	255	9
2023-09-27T06:00	7433	405	-24.3	-28.4	254	9
2023-09-27T06:00	7465	403	-24.6	-28.6	254	9
2023-09-27T06:00	7501	401	-24.9	-28.7	255	9
2023-09-27T06:00	7536	399	-25.2	-29.7	256	9
2023-09-27T06:00	7572	397	-25.5	-30.8	257	10
2023-09-27T06:00	7606	395	-25.7	-31.8	258	10
2023-09-27T06:00	7641	393	-26.0	-32.2	260	10
2023-09-27T06:00	7675	391	-26.3	-32.5	261	10
2023-09-27T06:00	7708	390	-26.4	-33.3	262	11
2023-09-27T06:00	7742	388	-26.7	-33.5	262	11
2023-09-27T06:00	7775	386	-27.0	-33.4	262	11
2023-09-27T06:00	7810	384	-27.3	-33.6	261	11
2023-09-27T06:00	7842	382	-27.6	-33.8	259	11
2023-09-27T06:00	7873	381	-27.9	-33.7	258	10
2023-09-27T06:00	7907	379	-28.2	-33.6	258	10
2023-09-27T06:00	7940	377	-28.5	-33.6	258	10
2023-09-27T06:00	7972	376	-28.8	-33.6	258	10
2023-09-27T06:00	8009	374	-29.2	-33.6	258	10
2023-09-27T06:00	8039	372	-29.5	-33.7	257	10
2023-09-27T06:00	8067	371	-29.7	-33.7	256	10
2023-09-27T06:00	8096	369	-30.0	-33.9	254	10
2023-09-27T06:00	8129	367	-30.3	-34.0	253	10
2023-09-27T06:00	8157	366	-30.6	-34.2	254	10
2023-09-27T06:00	8192	364	-30.9	-34.8	255	10
2023-09-27T06:00	8225	362	-31.2	-34.7	257	10
2023-09-27T06:00	8259	361	-31.5	-35.0	260	10
2023-09-27T06:00	8288	359	-31.8	-35.1	262	10
2023-09-27T06:00	8321	358	-32.1	-35.1	263	10
2023-09-27T06:00	8344	356	-32.2	-35.3	264	10
2023-09-27T06:00	8370	355	-32.4	-35.4	265	10
2023-09-27T06:00	8401	354	-32.6	-35.2	264	10
2023-09-27T06:00	8433	352	-32.9	-35.7	263	10
2023-09-27T06:00	8457	351	-33.1	-35.6	261	10
2023-09-27T06:00	8484	349	-33.3	-35.4	260	10
2023-09-27T06:00	8508	348	-33.5	-35.3	260	10
2023-09-27T06:00	8531	347	-33.7	-35.6	261	10
2023-09-27T06:00	8554	346	-33.8	-36.3	262	10
2023-09-27T06:00	8580	345	-34.0	-37.3	262	10
2023-09-27T06:00	8610	343	-34.2	-37.5	262	11
2023-09-27T06:00	8636	342	-34.4	-36.8	262	11
2023-09-27T06:00	8661	341	-34.6	-36.8	262	11
2023-09-27T06:00	8690	339	-34.8	-37.6	262	11
2023-09-27T06:00	8711	338	-34.9	-37.9	262	11
2023-09-27T06:00	8734	337	-35.1	-38.0	262	11
2023-09-27T06:00	8755	336	-35.2	-38.0	262	11
2023-09-27T06:00	8778	335	-35.4	-37.7	261	11
2023-09-27T06:00	8802	334	-35.6	-38.2	260	11
2023-09-27T06:00	8833	332	-35.8	-39.0	257	11
2023-09-27T06:00	8865	331	-35.9	-41.0	255	11
2023-09-27T06:00	8899	329	-36.1	-42.3	253	11
2023-09-27T06:00	8931	328	-36.4	-43.4	251	11
2023-09-27T06:00	8964	326	-36.6	-43.9	251	11
2023-09-27T06:00	8992	325	-36.8	-44.0	251	11
2023-09-27T06:00	9014	324	-37.0	-44.1	250	12
2023-09-27T06:00	9039	323	-37.2	-43.6	249	12
2023-09-27T06:00	9064	321	-37.4	-44.1	247	12
2023-09-27T06:00	9092	320	-37.6	-44.7	246	12
2023-09-27T06:00	9123	319	-37.9	-44.6	245	12
2023-09-27T06:00	9152	317	-38.1	-44.2	245	11
2023-09-27T06:00	9177	316	-38.2	-44.8	247	11
2023-09-27T06:00	9205	315	-38.5	-46.0	249	10
2023-09-27T06:00	9240	313	-38.5	-49.4	252	10
2023-09-27T06:00	9263	312	-38.4	-53.0	254	10
2023-09-27T06:00	9286	311	-38.4	-46.3	255	10
2023-09-27T06:00	9310	310	-38.5	-41.0	255	10
2023-09-27T06:00	9333	309	-38.6	-42.5	255	10
2023-09-27T06:00	9356	308	-38.6	-47.7	254	10
2023-09-27T06:00	9380	307	-38.7	-48.2	255	10
2023-09-27T06:00	9404	306	-38.9	-49.5	255	11
2023-09-27T06:00	9428	305	-39.0	-49.4	256	11
2023-09-27T06:00	9449	304	-39.2	-48.9	256	11
2023-09-27T06:00	9471	303	-39.3	-48.3	256	11
2023-09-27T06:00	9494	302	-39.5	-47.6	255	12
2023-09-27T06:00	9517	301	-39.7	-47.4	254	12
2023-09-27T06:00	9536	300	-39.8	-47.7	253	12
2023-09-27T06:00	9559	299	-40.0	-48.9	253	12
2023-09-27T06:00	9581	298	-40.1	-50.7	252	12
2023-09-27T06:00	9602	297	-40.3	-51.7	251	12
2023-09-27T06:00	9623	296	-40.5	-51.4	249	12
2023-09-27T06:00	9645	295	-40.5	-51.5	248	12
2023-09-27T06:00	9666	294	-40.6	-51.7	246	12
2023-09-27T06:00	9690	293	-40.7	-52.8	244	12
2023-09-27T06:00	9713	292	-40.7	-53.5	243	12
2023-09-27T06:00	9737	291	-40.7	-52.2	242	12
2023-09-27T06:00	9761	290	-40.9	-52.2	242	12
2023-09-27T06:00	9784	289	-41.0	-50.3	242	11
2023-09-27T06:00	9810	288	-41.2	-49.9	242	11
2023-09-27T06:00	9831	287	-41.4	-50.4	241	11
2023-09-27T06:00	9858	286	-41.7	-51.3	241	11
2023-09-27T06:00	9882	285	-41.9	-52.1	240	11
2023-09-27T06:00	9907	284	-42.0	-52.1	239	11
2023-09-27T06:00	9934	283	-42.1	-52.3	238	11
2023-09-27T06:00	9956	282	-42.3	-52.2	237	12
2023-09-27T06:00	9981	281	-42.5	-52.2	235	12
2023-09-27T06:00	10004	280	-42.7	-52.5	234	12
2023-09-27T06:00	10027	279	-42.9	-52.9	232	12
2023-09-27T06:00	10050	278	-43.0	-53.1	231	12
2023-09-27T06:00	10077	277	-43.2	-53.2	230	12
2023-09-27T06:00	10102	276	-43.4	-53.2	229	12
2023-09-27T06:00	10130	275	-43.6	-53.1	227	12
2023-09-27T06:00	10158	274	-43.8	-52.9	226	12
2023-09-27T06:00	10182	273	-44.0	-52.9	225	12
2023-09-27T06:00	10209	272	-44.3	-53.0	225	12
2023-09-27T06:00	10233	271	-44.5	-52.9	224	12
2023-09-27T06:00	10263	270	-44.8	-53.0	223	12
2023-09-27T06:00	10288	269	-45.1	-53.3	223	12
2023-09-27T06:00	10314	267	-45.3	-53.3	222	12
2023-09-27T06:00	10347	266	-45.6	-53.3	222	12
2023-09-27T06:00	10381	265	-45.9	-53.7	222	12
2023-09-27T06:00	10406	264	-46.1	-54.0	222	12
2023-09-27T06:00	10430	263	-46.3	-54.2	222	12
2023-09-27T06:00	10453	262	-46.5	-54.3	223	12
2023-09-27T06:00	10484	261	-46.7	-54.4	223	12
2023-09-27T06:00	10510	260	-47.0	-54.7	223	12
2023-09-27T06:00	10534	259	-47.1	-55.0	223	12
2023-09-27T06:00	10559	258	-47.3	-55.1	223	11
2023-09-27T06:00	10584	257	-47.5	-55.0	223	11
2023-09-27T06:00	10607	256	-47.7	-54.9	223	11
2023-09-27T06:00	10632	255	-47.9	-54.9	223	11
2023-09-27T06:00	10658	254	-48.2	-54.9	223	11
2023-09-27T06:00	10684	253	-48.4	-54.9	223	11
2023-09-27T06:00	10712	252	-48.7	-54.9	224	11
2023-09-27T06:00	10735	251	-48.9	-54.8	226	11
2023-09-27T06:00	10760	250	-49.1	-54.6	229	11
2023-09-27T06:00	10788	249	-49.4	-54.5	232	11
2023-09-27T06:00	10828	248	-49.8	-54.9	236	12
2023-09-27T06:00	10855	246	-49.8	-56.2	239	12
2023-09-27T06:00	10882	245	-49.8	-57.1	240	13
2023-09-27T06:00	10909	244	-50.0	-56.7	241	13
2023-09-27T06:00	10939	243	-50.3	-56.2	240	13
2023-09-27T06:00	10966	242	-50.6	-56.2	239	13
2023-09-27T06:00	10991	241	-50.8	-56.3	239	13
2023-09-27T06:00	11015	241	-51.0	-56.4	238	13
2023-09-27T06:00	11037	240	-51.2	-56.5	238	13
2023-09-27T06:00	11058	239	-51.4	-56.5	238	12
2023-09-27T06:00	11083	238	-51.6	-56.5	237	12
2023-09-27T06:00	11105	237	-51.8	-56.7	236	12
2023-09-27T06:00	11127	236	-52.0	-57.2	235	12
2023-09-27T06:00	11149	236	-52.1	-57.4	234	12
2023-09-27T06:00	11175	235	-52.3	-57.4	233	12
2023-09-27T06:00	11198	234	-52.5	-57.2	233	12
2023-09-27T06:00	11220	233	-52.7	-57.2	233	12
2023-09-27T06:00	11242	232	-52.9	-57.6	233	12
2023-09-27T06:00	11265	231	-53.0	-58.1	232	12
2023-09-27T06:00	11287	231	-53.1	-58.4	231	11
2023-09-27T06:00	11310	230	-53.4	-58.5	229	11
2023-09-27T06:00	11333	229	-53.6	-58.4	227	11
2023-09-27T06:00	11356	228	-53.8	-58.4	225	11
2023-09-27T06:00	11382	227	-54.1	-58.5	223	11
2023-09-27T06:00	11403	226	-54.2	-58.5	221	12
2023-09-27T06:00	11428	226	-54.5	-58.9	221	12
2023-09-27T06:00	11451	225	-54.6	-59.1	221	12
2023-09-27T06:00	11483	224	-54.8	-59.8	222	12
2023-09-27T06:00	11515	223	-54.7	-60.2	223	12
2023-09-27T06:00	11548	221	-55.0	-60.7	225	12
2023-09-27T06:00	11578	220	-55.3	-60.6	226	13
2023-09-27T06:00	11610	219	-55.6	-60.4	227	13
2023-09-27T06:00	11642	218	-55.9	-60.3	228	13
2023-09-27T06:00	11672	217	-56.2	-60.2	229	13
2023-09-27T06:00	11703	216	-56.5	-60.2	229	14
2023-09-27T06:00	11735	215	-56.8	-60.3	230	14
2023-09-27T06:00	11761	214	-57.0	-60.4	231	14
2023-09-27T06:00	11783	213	-57.2	-60.7	232	14
2023-09-27T06:00	11809	212	-57.4	-61.1	233	15
2023-09-27T06:00	11833	212	-57.5	-61.7	234	15
2023-09-27T06:00	11858	211	-57.4	-62.3	234	15
2023-09-27T06:00	11882	210	-57.4	-63.0	233	15
2023-09-27T06:00	11909	209	-57.4	-63.5	232	15
2023-09-27T06:00	11930	208	-57.5	-63.8	231	14
2023-09-27T06:00	11952	208	-57.7	-64.0	229	14
2023-09-27T06:00	11975	207	-57.8	-64.0	227	14
2023-09-27T06:00	11999	206	-58.0	-64.0	226	14
2023-09-27T06:00	12019	206	-58.1	-64.1	225	14
2023-09-27T06:00	12042	205	-58.3	-64.3	224	14
2023-09-27T06:00	12066	204	-58.4	-64.5	223	15
2023-09-27T06:00	12088	203	-58.5	-64.8	222	15
2023-09-27T06:00	12113	203	-58.6	-65.1	222	16
2023-09-27T06:00	12135	202	-58.6	-65.3	221	16
2023-09-27T06:00	12159	201	-58.7	-65.6	221	17
2023-09-27T06:00	12183	200	-58.8	-65.9	221	17
2023-09-27T06:00	12206	200	-58.8	-66.0	221	17
2023-09-27T06:00	12229	199	-58.9	-66.3	221	18
2023-09-27T06:00	12252	198	-58.9	-66.4	222	18
2023-09-27T06:00	12278	197	-59.0	-66.5	223	19
2023-09-27T06:00	12302	196	-59.2	-66.8	224	19
2023-09-27T06:00	12324	196	-59.2	-66.9	226	19
2023-09-27T06:00	12346	195	-59.2	-67.0	227	19
2023-09-27T06:00	12369	194	-59.3	-67.0	228	19
2023-09-27T06:00	12392	194	-59.3	-66.8	228	19
2023-09-27T06:00	12414	193	-59.4	-66.5	229	19
2023-09-27T06:00	12437	192	-59.6	-66.3	230	18
2023-09-27T06:00	12460	192	-59.8	-66.0	231	18
2023-09-27T06:00	12484	191	-60.0	-65.8	232	18
2023-09-27T06:00	12506	190	-60.0	-65.4	232	17
2023-09-27T06:00	12529	189	-60.1	-65.3	233	17
2023-09-27T06:00	12551	189	-60.2	-65.4	233	17
2023-09-27T06:00	12576	188	-60.4	-65.9	232	17
2023-09-27T06:00	12599	187	-60.2	-66.5	232	17
2023-09-27T06:00	12621	187	-59.8	-67.5	233	18
2023-09-27T06:00	12642	186	-59.5	-69.1	234	18
2023-09-27T06:00	12668	185	-58.7		235	19
2023-09-27T06:00	12709	184	-58.6	-71.3	236	19
2023-09-27T06:00	12749	183	-58.9	-71.8	237	20
2023-09-27T06:00	12772	182	-58.9	-71.7	237	20
2023-09-27T06:00	12794	182	-58.9	-71.6	237	20
2023-09-27T06:00	12820	181	-59.1	-71.5	236	20
2023-09-27T06:00	12844	180	-59.2	-71.3	236	20
2023-09-27T06:00	12871	179	-59.4	-71.3	236	20
2023-09-27T06:00	12895	179	-59.5	-71.2	235	20
2023-09-27T06:00	12918	178	-59.7	-71.4	235	19
2023-09-27T06:00	12941	177	-59.9	-71.8	234	19
2023-09-27T06:00	12960	177	-59.9	-72.5	232	19
2023-09-27T06:00	12983	176	-58.8	-72.5	231	19
2023-09-27T06:00	13006	176	-58.9	-73.6	231	18
2023-09-27T06:00	13028	175	-58.8	-74.0	230	18
2023-09-27T06:00	13052	174	-58.6	-74.4	230	19
2023-09-27T06:00	13074	174	-58.0	-74.6	230	19
2023-09-27T06:00	13096	173	-57.7	-75.2	231	19
2023-09-27T06:00	13122	172	-57.5	-75.8	232	20
2023-09-27T06:00	13152	172	-57.6	-76.4	235	20
2023-09-27T06:00	13175	171	-57.4	-76.4	237	20
2023-09-27T06:00	13199	170	-57.5	-76.4	239	20
2023-09-27T06:00	13220	170	-57.7	-76.4	241	20
2023-09-27T06:00	13245	169	-57.7	-76.0	242	19
2023-09-27T06:00	13266	168	-57.9	-75.9	243	18
2023-09-27T06:00	13288	168	-58.0	-75.7	243	18
2023-09-27T06:00	13309	167	-58.0	-75.7	242	17
2023-09-27T06:00	13336	167	-58.2	-75.8	241	17
2023-09-27T06:00	13360	166	-58.4	-76.0	240	17
2023-09-27T06:00	13380	165	-58.6	-76.2	238	17
2023-09-27T06:00	13404	165	-58.7	-76.3	237	17
2023-09-27T06:00	13427	164	-58.8	-76.4	236	17
2023-09-27T06:00	13449	164	-59.0	-76.6	235	17
2023-09-27T06:00	13472	163	-59.1	-76.6	234	17
2023-09-27T06:00	13495	162	-59.3	-76.8	232	16
2023-09-27T06:00	13525	162	-59.4	-76.8	230	16
2023-09-27T06:00	13547	161	-59.5	-77.1	229	16
2023-09-27T06:00	13573	160	-59.5	-77.3	229	16
2023-09-27T06:00	13601	160	-59.6	-77.6	229	16
2023-09-27T06:00	13627	159	-59.3		230	15
2023-09-27T06:00	13658	158	-59.5	-77.5	232	15
2023-09-27T06:00	13695	157	-59.7	-77.5	234	15
2023-09-27T06:00	13720	157	-60.0	-77.5	235	15
2023-09-27T06:00	13749	156	-60.2	-77.4	236	15
2023-09-27T06:00	13776	155	-60.5	-77.4	236	15
2023-09-27T06:00	13800	155	-60.7	-77.3	235	15
2023-09-27T06:00	13822	154	-60.9	-77.4	234	15
2023-09-27T06:00	13846	154	-61.1	-77.5	233	15
2023-09-27T06:00	13869	153	-61.2	-77.7	232	15
2023-09-27T06:00	13893	152	-61.2	-77.9	230	15
2023-09-27T06:00	13918	152	-61.0	-78.0	229	15
2023-09-27T06:00	13939	151	-61.0		228	15
2023-09-27T06:00	13967	151	-61.1	-78.4	226	15
2023-09-27T06:00	13988	150	-61.2	-78.5	225	15
2023-09-27T06:00	14012	150	-61.1	-78.7	223	15
2023-09-27T06:00	14034	149	-60.9	-78.8	221	15
2023-09-27T06:00	14055	148	-60.9	-79.0	219	15
2023-09-27T06:00	14080	148	-61.0	-79.4	218	16
2023-09-27T06:00	14102	147	-61.0	-79.8	216	16
2023-09-27T06:00	14125	147	-60.6	-79.8	214	17
2023-09-27T06:00	14147	146	-60.3	-80.0	212	17
2023-09-27T06:00	14170	146	-60.4	-80.3	211	18
2023-09-27T06:00	14191	145	-60.3	-80.3	210	18
2023-09-27T06:00	14214	145	-60.2	-80.4	210	18
2023-09-27T06:00	14237	144	-60.2	-80.4	210	19
2023-09-27T06:00	14258	144	-60.1	-80.4	211	19
2023-09-27T06:00	14282	143	-60.0	-80.3	211	19
2023-09-27T06:00	14303	143	-60.0	-80.5	212	19
2023-09-27T06:00	14325	142	-60.0	-80.5	212	19
2023-09-27T06:00	14348	142	-60.2	-80.8	213	19
2023-09-27T06:00	14372	141	-60.2	-80.8	214	19
2023-09-27T06:00	14394	141	-60.2	-80.9	214	19
2023-09-27T06:00	14418	140	-60.1	-80.9	215	19
2023-09-27T06:00	14440	140	-60.0	-81.0	215	19
2023-09-27T06:00	14460	139	-59.9	-80.9	216	19
2023-09-27T06:00	14483	139	-60.0	-81.0	217	19
2023-09-27T06:00	14505	138	-60.0	-80.9	218	19
2023-09-27T06:00	14526	138	-60.0	-80.9	219	18
2023-09-27T06:00	14548	137	-60.2	-80.9	220	18
2023-09-27T06:00	14575	137	-60.4	-81.0	221	18
2023-09-27T06:00	14595	136	-60.5	-81.0	222	18
2023-09-27T06:00	14618	136	-60.7	-81.0	223	18
2023-09-27T06:00	14642	135	-60.8	-81.1	224	18
2023-09-27T06:00	14664	135	-61.0	-81.2	224	18
2023-09-27T06:00	14687	134	-61.2	-81.3	225	18
2023-09-27T06:00	14709	134	-61.3	-81.4	226	18
2023-09-27T06:00	14733	133	-61.4	-81.5	227	18
2023-09-27T06:00	14756	133	-61.2	-81.4	228	17
2023-09-27T06:00	14780	132	-61.0	-81.4	229	17
2023-09-27T06:00	14802	132	-61.1	-81.5	229	17
2023-09-27T06:00	14825	131	-61.2	-81.6	229	17
2023-09-27T06:00	14847	131	-61.3	-81.5	229	17
2023-09-27T06:00	14870	130	-61.5	-81.7	230	17
2023-09-27T06:00	14895	130	-61.6	-81.8	230	17
2023-09-27T06:00	14917	129	-61.7	-81.9	231	17
2023-09-27T06:00	14938	129	-61.8	-81.9	231	17
2023-09-27T06:00	14960	128	-61.9	-82.0	232	17
2023-09-27T06:00	14985	128	-62.0	-82.1	233	17
2023-09-27T06:00	15006	127	-62.0	-82.1	235	16
2023-09-27T06:00	15029	127	-62.1	-82.2	236	16
2023-09-27T06:00	15053	126	-61.9	-82.3	238	16
2023-09-27T06:00	15075	126	-61.6	-82.3	238	16
2023-09-27T06:00	15098	126	-61.4	-82.4	237	15
2023-09-27T06:00	15120	125	-61.1	-82.5	236	15
2023-09-27T06:00	15142	125	-60.7	-82.5	235	15
2023-09-27T06:00	15163	124	-60.7	-82.6	234	15
2023-09-27T06:00	15186	124	-60.7	-82.8	234	15
2023-09-27T06:00	15207	123	-60.3	-82.6	235	15
2023-09-27T06:00	15227	123	-60.1	-82.5	235	15
2023-09-27T06:00	15249	123	-60.0	-82.4	235	15
2023-09-27T06:00	15272	122	-60.0	-82.4	234	15
2023-09-27T06:00	15295	122	-60.1	-82.5	233	15
2023-09-27T06:00	15319	121	-60.3	-82.6	232	15
2023-09-27T06:00	15343	121	-60.4	-82.5	233	15
2023-09-27T06:00	15368	120	-60.5	-82.6	234	15
2023-09-27T06:00	15392	120	-60.5	-82.6	237	14
2023-09-27T06:00	15425	119	-60.6	-82.5	240	15
2023-09-27T06:00	15453	119	-60.9	-82.8	243	15
2023-09-27T06:00	15475	118	-61.0	-82.7	245	15
2023-09-27T06:00	15495	118	-61.0	-82.7	246	14
2023-09-27T06:00	15518	117	-61.1	-82.9	245	14
2023-09-27T06:00	15537	117	-61.2	-83.0	244	14
2023-09-27T06:00	15561	117	-61.1	-83.1	241	13
2023-09-27T06:00	15585	116	-60.7	-82.8	238	13
2023-09-27T06:00	15613	116	-60.8	-82.9	234	12
2023-09-27T06:00	15645	115	-61.0	-83.0	230	12
2023-09-27T06:00	15673	114	-60.9	-82.8	228	12
2023-09-27T06:00	15697	114	-61.0	-82.9	226	12
2023-09-27T06:00	15718	114	-61.0	-82.7	227	12
2023-09-27T06:00	15740	113	-61.2	-82.7	229	11
2023-09-27T06:00	15764	113	-61.4	-82.7	231	11
2023-09-27T06:00	15785	112	-61.6	-82.9	233	11
2023-09-27T06:00	15809	112	-61.7		236	11
2023-09-27T06:00	15833	112	-61.9	-83.0	238	11
2023-09-27T06:00	15857	111	-61.9	-83.0	239	11
2023-09-27T06:00	15880	111	-61.9	-83.1	239	11
2023-09-27T06:00	15903	110	-61.9	-83.1	238	11
2023-09-27T06:00	15925	110	-61.9	-83.1	236	12
2023-09-27T06:00	15951	109	-61.8	-82.9	234	12
2023-09-27T06:00	15974	109	-62.0	-83.1	233	13
2023-09-27T06:00	15997	109	-62.2		232	13
2023-09-27T06:00	16020	108	-62.3	-83.0	231	13
2023-09-27T06:00	16042	108	-62.4	-83.0	231	14
2023-09-27T06:00	16067	107	-62.6	-83.0	232	14
2023-09-27T06:00	16091	107	-62.9	-83.2	232	15
2023-09-27T06:00	16114	107	-63.1	-83.3	233	15
2023-09-27T06:00	16136	106	-63.1	-83.1	235	15
2023-09-27T06:00	16158	106	-63.3	-83.4	237	16
2023-09-27T06:00	16180	105	-63.4	-83.6	241	16
2023-09-27T06:00	16203	105	-63.5	-84.0	245	16
2023-09-27T06:00	16226	105	-62.8	-84.0	249	17
2023-09-27T06:00	16249	104	-61.3	-83.3	252	17
2023-09-27T06:00	16272	104	-60.8	-83.4	254	17
2023-09-27T06:00	16298	103	-60.8	-83.8	256	17
2023-09-27T06:00	16321	103	-61.1	-84.2	256	16
2023-09-27T06:00	16348	103	-60.9	-84.1	256	16
2023-09-27T06:00	16372	102	-60.8	-84.0	255	15
2023-09-27T06:00	16395	102	-61.0	-84.1	255	15
2023-09-27T06:00	16421	101	-61.1	-84.0	254	14
2023-09-27T06:00	16447	101	-61.2	-84.1	254	14
2023-09-27T06:00	16471	101	-61.3	-84.0	254	14
2023-09-27T06:00	16492	100	-61.4	-84.1	255	14
2023-09-27T06:00	16518	100	-61.4	-84.1	255	14
2023-09-27T06:00	16540	99	-61.5	-84.1	256	13
2023-09-27T06:00	16565	99	-61.7	-84.1	257	13
2023-09-27T06:00	16591	99	-61.8	-84.2	258	13
2023-09-27T06:00	16611	98	-61.9	-84.3	259	13
2023-09-27T06:00	16635	98	-61.9	-84.1	259	13
2023-09-27T06:00	16657	98	-62.0	-84.2	260	13
2023-09-27T06:00	16680	97	-62.2	-84.5	262	13
2023-09-27T06:00	16703	97	-62.2	-84.7	264	13
2023-09-27T06:00	16725	97	-61.8	-84.6	266	12
2023-09-27T06:00	16748	96	-61.7	-84.9	268	12
2023-09-27T06:00	16771	96	-61.1	-84.6	270	11
2023-09-27T06:00	16793	96	-60.6	-84.7	272	10
2023-09-27T06:00	16818	95	-60.4	-84.8	273	9
2023-09-27T06:00	16839	95	-60.2	-84.8	273	8
2023-09-27T06:00	16859	95	-60.1	-84.8	273	7
2023-09-27T06:00	16883	94	-60.1	-84.8	271	6
2023-09-27T06:00	16907	94	-60.1	-84.8	268	6
2023-09-27T06:00	16934	93	-60.2	-84.8	264	5
2023-09-27T06:00	16957	93	-60.2	-84.8	259	5
2023-09-27T06:00	16984	93	-60.2	-84.6	251	4
2023-09-27T06:00	17010	92	-60.4	-84.8	243	4
2023-09-27T06:00	17041	92	-60.6	-84.7	234	4
2023-09-27T06:00	17064	91	-60.9	-84.9	227	5
2023-09-27T06:00	17090	91	-60.9	-84.7	223	5
2023-09-27T06:00	17112	91	-61.0	-84.8	222	6
2023-09-27T06:00	17137	90	-61.1	-84.6	223	6
2023-09-27T06:00	17160	90	-61.3	-84.8	226	7
2023-09-27T06:00	17183	90	-61.4	-84.9	229	7
2023-09-27T06:00	17205	89	-61.5	-84.7	233	7
2023-09-27T06:00	17229	89	-61.6	-84.8	236	7
2023-09-27T06:00	17252	89	-61.7	-84.9	238	7
2023-09-27T06:00	17276	88	-61.7	-84.9	240	7
2023-09-27T06:00	17301	88	-61.8	-85.0	241	7
2023-09-27T06:00	17327	88	-61.7	-85.1	241	6
2023-09-27T06:00	17348	87	-61.6	-85.2	240	6
2023-09-27T06:00	17374	87	-61.7	-85.3	238	5
2023-09-27T06:00	17397	87	-61.5	-85.4	236	5
2023-09-27T06:00	17421	86	-61.1	-85.3	232	4
2023-09-27T06:00	17447	86	-60.9	-85.2	227	4
2023-09-27T06:00	17471	86	-61.0	-85.5	220	4
2023-09-27T06:00	17499	85	-61.0	-85.5	211	4
2023-09-27T06:00	17522	85	-61.2	-85.4	204	4
2023-09-27T06:00	17551	85	-61.2	-85.4	199	4
2023-09-27T06:00	17574	84	-61.2	-85.4	197	4
2023-09-27T06:00	17601	84	-61.2	-85.4	199	5
2023-09-27T06:00	17625	84	-61.2	-85.6	202	5
2023-09-27T06:00	17650	83	-61.2	-85.6	205	5
2023-09-27T06:00	17678	83	-61.1	-85.6	208	5
2023-09-27T06:00	17703	83	-60.8	-85.6	210	5
2023-09-27T06:00	17726	82	-60.6	-85.7	212	5
2023-09-27T06:00	17752	82	-60.2	-85.4	215	6
2023-09-27T06:00	17778	82	-60.0	-85.5	217	6
2023-09-27T06:00	17804	81	-60.1	-85.6	220	7
2023-09-27T06:00	17830	81	-60.1	-85.6	222	8
2023-09-27T06:00	17854	81	-60.0	-85.5	224	9
2023-09-27T06:00	17879	80	-60.0	-85.5	226	9
2023-09-27T06:00	17902	80	-60.1	-85.6	228	10
2023-09-27T06:00	17927	80	-60.1	-85.6	229	10
2023-09-27T06:00	17950	79	-60.2	-85.7	230	10
2023-09-27T06:00	17974	79	-60.2	-85.7	231	10
2023-09-27T06:00	17997	79	-60.1	-85.6	232	10
2023-09-27T06:00	18023	78	-60.1	-85.6	232	10
2023-09-27T06:00	18048	78	-60.0	-85.8	231	9
2023-09-27T06:00	18067	78	-59.8	-85.6	231	9
2023-09-27T06:00	18088	78	-59.9	-85.7	229	8
2023-09-27T06:00	18112	77	-60.0	-85.8	227	7
2023-09-27T06:00	18136	77	-60.0	-85.8	223	7
2023-09-27T06:00	18160	77	-59.8	-85.6	220	6
2023-09-27T06:00	18183	76	-59.7	-85.6	218	6
2023-09-27T06:00	18205	76	-59.7	-85.9	217	6
2023-09-27T06:00	18230	76	-59.5	-85.7	218	5
2023-09-27T06:00	18252	76	-59.4	-85.6	221	5
2023-09-27T06:00	18276	75	-59.2	-85.8	226	5
2023-09-27T06:00	18298	75	-59.1	-85.7	231	5
2023-09-27T06:00	18322	75	-59.2	-85.8	236	5
2023-09-27T06:00	18346	74	-59.3	-85.6	240	5
2023-09-27T06:00	18372	74	-59.4	-85.6	242	5
2023-09-27T06:00	18394	74	-59.5	-85.7	242	5
2023-09-27T06:00	18417	74	-59.5	-85.7	240	5
2023-09-27T06:00	18442	73	-59.3	-85.6	237	5
2023-09-27T06:00	18462	73	-59.2	-85.5	233	5
2023-09-27T06:00	18488	73	-59.2	-85.8	230	4
2023-09-27T06:00	18513	72	-59.3	-85.9	229	4
2023-09-27T06:00	18538	72	-59.4	-85.6	230	4
2023-09-27T06:00	18566	72	-59.4	-85.6	233	3
2023-09-27T06:00	18590	72	-59.4	-85.6	240	3
2023-09-27T06:00	18616	71	-59.6	-85.8	248	2
2023-09-27T06:00	18644	71	-59.8	-85.6	259	2
2023-09-27T06:00	18669	71	-60.1	-85.9	270	2
2023-09-27T06:00	18695	70	-60.2	-85.9	281	2
2023-09-27T06:00	18719	70	-60.4	-85.8	289	1
2023-09-27T06:00	18746	70	-60.5	-85.9	289	1
2023-09-27T06:00	18769	70	-60.5	-85.9	266	1
2023-09-27T06:00	18794	69	-60.5	-86.2	221	1
2023-09-27T06:00	18821	69	-60.3	-86.0	202	1
2023-09-27T06:00	18845	69	-60.4	-86.1	196	2
2023-09-27T06:00	18870	68	-60.6	-86.3	196	2
2023-09-27T06:00	18899	68	-60.8	-86.4	200	3
2023-09-27T06:00	18926	68	-60.9	-86.5	206	3
2023-09-27T06:00	18952	68	-60.8	-86.4	214	3
2023-09-27T06:00	18976	67	-60.6	-86.3	222	3
2023-09-27T06:00	19001	67	-60.7	-86.3	229	3
2023-09-27T06:00	19025	67	-60.7	-86.3	233	3
2023-09-27T06:00	19051	66	-60.7	-86.3	234	3
2023-09-27T06:00	19078	66	-60.6	-86.6	233	3
2023-09-27T06:00	19103	66	-60.6	-86.6	231	3
2023-09-27T06:00	19127	66	-60.4		227	3
2023-09-27T06:00	19152	65	-60.1	-86.5	223	3
2023-09-27T06:00	19180	65	-59.8	-86.3	218	3
2023-09-27T06:00	19207	65	-59.7	-86.2	215	4
2023-09-27T06:00	19232	65	-59.9	-86.3	214	4
2023-09-27T06:00	19255	64	-60.1	-86.2	215	5
2023-09-27T06:00	19278	64	-60.3	-86.3	217	5
2023-09-27T06:00	19305	64	-60.4		221	5
2023-09-27T06:00	19328	64	-60.5	-86.5	225	5
2023-09-27T06:00	19351	63	-60.4		229	5
2023-09-27T06:00	19379	63	-60.4		231	5
2023-09-27T06:00	19408	63	-60.5	-86.5	234	5
2023-09-27T06:00	19431	63	-60.5	-86.5	236	5
2023-09-27T06:00	19457	62	-60.4		239	5
2023-09-27T06:00	19483	62	-60.5	-86.5	243	5
2023-09-27T06:00	19511	62	-60.2	-86.3	247	5
2023-09-27T06:00	19532	62	-60.0	-86.4	250	5
2023-09-27T06:00	19558	61	-60.0	-86.4	253	6
2023-09-27T06:00	19583	61	-60.0	-86.4	254	6
2023-09-27T06:00	19606	61	-59.9	-86.3	256	6
2023-09-27T06:00	19636	61	-59.8	-86.3	258	6
2023-09-27T06:00	19660	60	-59.6	-86.1	260	7
2023-09-27T06:00	19683	60	-59.4	-86.3	263	7
2023-09-27T06:00	19711	60	-59.4	-86.3	266	7
2023-09-27T06:00	19738	60	-59.1		269	7
2023-09-27T06:00	19760	59	-58.7	-85.8	271	7
2023-09-27T06:00	19787	59	-58.6	-86.1	272	7
2023-09-27T06:00	19812	59	-58.4	-85.9	274	6
2023-09-27T06:00	19838	59	-58.4	-85.9	277	6
2023-09-27T06:00	19864	58	-58.0	-85.6	280	6
2023-09-27T06:00	19888	58	-57.9	-85.5	284	5
2023-09-27T06:00	19912	58	-58.0	-85.6	288	4
2023-09-27T06:00	19941	58	-58.1	-85.3	293	4
2023-09-27T06:00	19967	57	-58.0	-85.2	298	3
2023-09-27T06:00	19995	57	-58.1	-85.3	303	3
2023-09-27T06:00	20021	57	-58.2	-85.4	305	3
2023-09-27T06:00	20048	57	-58.4	-85.5	302	2
2023-09-27T06:00	20076	56	-58.4	-85.5	290	2
2023-09-27T06:00	20103	56	-58.3	-85.5	269	2
2023-09-27T06:00	20132	56	-58.3	-85.5	249	2
2023-09-27T06:00	20158	56	-58.2	-85.4	236	3
2023-09-27T06:00	20184	55	-58.2	-85.4	229	4
2023-09-27T06:00	20211	55	-58.2	-85.4	225	5
2023-09-27T06:00	20239	55	-58.3	-85.5	223	5
2023-09-27T06:00	20265	55	-58.5	-85.6	222	6
2023-09-27T06:00	20286	55	-58.6	-85.7	224	6
2023-09-27T06:00	20313	54	-58.6	-85.4	226	6
2023-09-27T06:00	20339	54	-58.6	-85.4	229	6
2023-09-27T06:00	20364	54	-58.6	-85.4	232	6
2023-09-27T06:00	20391	54	-58.7	-85.4	235	6
2023-09-27T06:00	20414	53	-58.8	-85.5	237	6
2023-09-27T06:00	20440	53	-58.9	-85.6	237	6
2023-09-27T06:00	20466	53	-59.1	-85.7	236	5
2023-09-27T06:00	20492	53	-59.1	-85.7	234	5
2023-09-27T06:00	20515	53	-59.1	-85.7	229	4
2023-09-27T06:00	20541	52	-59.1	-85.7	223	4
2023-09-27T06:00	20567	52	-58.9	-85.6	216	4
2023-09-27T06:00	20591	52	-58.8	-85.5	208	3
2023-09-27T06:00	20617	52	-58.8	-85.5	200	4
2023-09-27T06:00	20641	52	-58.9	-85.6	194	4
2023-09-27T06:00	20668	51	-59.0	-85.7	190	4
2023-09-27T06:00	20686	51	-59.1	-85.7	188	5
2023-09-27T06:00	20715	51	-59.2	-85.8	190	5
2023-09-27T06:00	20740	51	-59.3	-85.9	193	6
2023-09-27T06:00	20761	51	-59.3	-85.9	198	6
2023-09-27T06:00	20791	50	-59.3	-85.6	204	7
2023-09-27T06:00	20812	50	-59.4	-85.6	211	7
2023-09-27T06:00	20840	50	-59.6	-85.8	218	7
2023-09-27T06:00	20858	50	-59.8	-85.9	224	8
2023-09-27T06:00	20884	50	-59.8	-85.9	229	8
2023-09-27T06:00	20907	49	-59.8	-86.3	234	8
2023-09-27T06:00	20930	49	-59.7	-86.2	238	8
2023-09-27T06:00	20957	49	-59.5	-86.0	243	8
2023-09-27T06:00	20983	49	-59.3	-85.9	248	7
2023-09-27T06:00	21009	49	-59.3	-85.9	254	7
2023-09-27T06:00	21032	48	-59.4	-86.0	259	7
2023-09-27T06:00	21057	48	-59.5	-86.0	264	7
2023-09-27T06:00	21080	48	-59.7	-86.2	267	6
2023-09-27T06:00	21105	48	-59.7	-86.2	266	6
2023-09-27T06:00	21130	48	-59.6	-86.1	264	6
2023-09-27T06:00	21152	48	-59.5	-86.0	259	6
2023-09-27T06:00	21178	47	-59.5	-86.0	253	6
2023-09-27T06:00	21206	47	-59.5	-86.4	248	5
2023-09-27T06:00	21227	47	-59.5	-86.4	244	5
2023-09-27T06:00	21254	47	-59.5	-86.4	242	5
2023-09-27T06:00	21279	47	-59.2	-86.2	244	5
2023-09-27T06:00	21304	46	-59.1		250	4
2023-09-27T06:00	21336	46	-59.2	-86.2	258	4
2023-09-27T06:00	21359	46	-59.3	-85.9	265	4
2023-09-27T06:00	21390	46	-59.4	-86.0	271	5
2023-09-27T06:00	21413	46	-59.5	-86.0	274	5
2023-09-27T06:00	21434	45	-59.4	-86.0	275	5
2023-09-27T06:00	21466	45	-59.4	-86.0	275	4
2023-09-27T06:00	21492	45	-59.3	-86.2	273	4
2023-09-27T06:00	21519	45	-59.3	-86.2	272	4
2023-09-27T06:00	21548	45	-59.3	-86.2	270	4
2023-09-27T06:00	21576	44	-59.2	-86.2	269	4
2023-09-27T06:00	21605	44	-59.0	-86.0	267	4
2023-09-27T06:00	21632	44	-59.0	-86.0	266	4
2023-09-27T06:00	21660	44	-59.0	-86.0	266	4
2023-09-27T06:00	21684	44	-59.1		267	4
2023-09-27T06:00	21712	43	-59.1		270	4
2023-09-27T06:00	21738	43	-59.2	-86.2	274	4
2023-09-27T06:00	21769	43	-59.2	-86.2	278	4
2023-09-27T06:00	21794	43	-59.4	-86.3	281	4
2023-09-27T06:00	21819	43	-59.5	-86.0	281	5
2023-09-27T06:00	21849	43	-59.6	-86.1	280	4
2023-09-27T06:00	21875	42	-59.7	-86.2	278	4
2023-09-27T06:00	21905	42	-59.6	-86.1	275	4
2023-09-27T06:00	21929	42	-59.4	-86.0	274	3
2023-09-27T06:00	21953	42	-59.5	-86.0	273	3
2023-09-27T06:00	21979	42	-59.6	-86.1	272	3
2023-09-27T06:00	22005	42	-59.8	-86.3	267	3
2023-09-27T06:00	22025	41	-60.0	-86.4	257	2
2023-09-27T06:00	22051	41	-60.2	-86.6	242	2
2023-09-27T06:00	22077	41	-60.2	-86.6	228	3
2023-09-27T06:00	22108	41	-60.1	-86.5	216	3
2023-09-27T06:00	22124	41	-60.1	-86.5	209	4
2023-09-27T06:00	22148	41	-60.1	-86.8	204	4
2023-09-27T06:00	22172	40	-59.8	-86.6	203	5
2023-09-27T06:00	22194	40	-59.5	-86.8	204	5
2023-09-27T06:00	22216	40	-59.4	-86.7	209	5
2023-09-27T06:00	22238	40	-59.1	-86.5	215	5
2023-09-27T06:00	22257	40	-59.0	-86.4	223	5
2023-09-27T06:00	22285	40	-59.0	-86.4	232	5
2023-09-27T06:00	22303	40	-59.0	-86.8	240	5
2023-09-27T06:00	22325	39	-58.9	-86.7	247	5
2023-09-27T06:00	22354	39	-58.6	-86.5	252	6
2023-09-27T06:00	22377	39	-58.2	-86.2	256	6
2023-09-27T06:00	22399	39	-58.0	-86.4	258	6
2023-09-27T06:00	22425	39	-57.7	-86.2	260	6
2023-09-27T06:00	22456	39	-57.7	-86.2	263	6
2023-09-27T06:00	22482	38	-57.8	-86.3	265	6
2023-09-27T06:00	22508	38	-57.7	-86.2	269	6
2023-09-27T06:00	22529	38	-57.6	-86.1	273	6
2023-09-27T06:00	22558	38	-57.4	-86.0	277	7
2023-09-27T06:00	22584	38	-57.3	-85.5	282	7
2023-09-27T06:00	22612	38	-57.3	-85.5	286	7
2023-09-27T06:00	22635	38	-57.4	-85.6	292	7
2023-09-27T06:00	22661	37	-57.5	-85.6	297	8
2023-09-27T06:00	22690	37	-57.3	-85.5	303	7
2023-09-27T06:00	22720	37	-57.1	-85.3	308	7
2023-09-27T06:00	22753	37	-57.2	-85.4	314	7
2023-09-27T06:00	22775	37	-57.4	-85.6	321	7
2023-09-27T06:00	22806	37	-57.5	-85.6	329	6
2023-09-27T06:00	22836	36	-57.6	-85.7	338	6
2023-09-27T06:00	22865	36	-57.6	-85.7	348	5
2023-09-27T06:00	22890	36	-57.6	-85.7	359	5
2023-09-27T06:00	22923	36	-57.7	-85.8	9	5
2023-09-27T06:00	22949	36	-57.7	-85.8	19	5
2023-09-27T06:00	22978	36	-57.8	-85.9	28	5
2023-09-27T06:00	23009	35	-57.8	-85.9	37	5
2023-09-27T06:00	23037	35	-57.9		46	5
2023-09-27T06:00	23070	35	-58.0	-86.0	57	5
2023-09-27T06:00	23098	35	-58.2	-86.2	68	4
2023-09-27T06:00	23124	35	-58.1		78	4
2023-09-27T06:00	23157	35	-58.1		85	4
2023-09-27T06:00	23184	34	-57.9		92	3
2023-09-27T06:00	23212	34	-57.9		98	2
2023-09-27T06:00	23241	34	-57.9		109	1
2023-09-27T06:00	23269	34	-57.9		152	1
2023-09-27T06:00	23300	34	-58.0	-86.0	236	1
2023-09-27T06:00	23321	34	-58.1		254	2
2023-09-27T06:00	23351	34	-58.1		261	3
2023-09-27T06:00	23377	33	-58.2	-86.2	266	3
2023-09-27T06:00	23394	33	-58.1	-86.5	271	3
2023-09-27T06:00	23426	33	-58.0	-86.4	277	4
2023-09-27T06:00	23450	33	-57.8	-86.3	285	4
2023-09-27T06:00	23476	33	-57.6	-86.1	294	4
2023-09-27T06:00	23505	33	-57.5	-86.5	302	4
2023-09-27T06:00	23531	33	-57.2	-86.3	308	4
2023-09-27T06:00	23557	32	-57.2	-86.3	313	4
2023-09-27T06:00	23579	32	-57.1	-86.2	316	4
2023-09-27T06:00	23606	32	-57.0	-86.1	318	4
2023-09-27T06:00	23634	32	-56.7	-85.9	319	4
2023-09-27T06:00	23660	32	-56.6	-85.8	317	3
2023-09-27T06:00	23686	32	-56.6	-85.8	312	3
2023-09-27T06:00	23708	32	-56.6	-85.8	302	3
2023-09-27T06:00	23733	32	-56.5	-85.8	290	3
2023-09-27T06:00	23761	31	-56.4	-85.7	284	3
2023-09-27T06:00	23789	31	-56.4	-85.7	285	3
2023-09-27T06:00	23812	31	-56.3	-85.6	290	3
2023-09-27T06:00	23836	31	-56.2	-85.5	299	4
2023-09-27T06:00	23871	31	-56.1	-85.5	309	4
2023-09-27T06:00	23895	31	-55.9	-85.3	317	5
2023-09-27T06:00	23919	31	-55.8	-85.2	322	5
2023-09-27T06:00	23954	30	-55.8	-85.2	326	6
2023-09-27T06:00	23977	30	-55.9	-85.3	328	6
2023-09-27T06:00	24006	30	-56.1	-85.5	330	6
2023-09-27T06:00	24033	30	-56.2	-85.5	331	6
2023-09-27T06:00	24066	30	-56.3	-85.1	331	5
2023-09-27T06:00	24091	30	-56.3	-85.1	330	5
2023-09-27T06:00	24121	30	-56.5	-85.3	326	4
2023-09-27T06:00	24148	30	-56.6	-85.4	319	3
2023-09-27T06:00	24177	29	-56.7	-85.4	309	3
2023-09-27T06:00	24197	29	-56.6	-85.8	300	3
2023-09-27T06:00	24229	29	-56.4	-85.7	293	3
2023-09-27T06:00	24261	29	-56.3	-85.6	291	3
2023-09-27T06:00	24288	29	-56.3	-85.6	292	3
2023-09-27T06:00	24319	29	-56.4	-85.7	295	3
2023-09-27T06:00	24344	29	-56.5	-85.8	300	3
2023-09-27T06:00	24376	29	-56.7	-85.9	306	3
2023-09-27T06:00	24403	28	-56.9	-86.1	312	3
2023-09-27T06:00	24439	28	-56.9	-86.1	318	4
2023-09-27T06:00	24470	28	-56.7	-85.9	324	4
2023-09-27T06:00	24499	28	-56.5	-85.8	330	4
2023-09-27T06:00	24525	28	-56.3	-85.6	338	4
2023-09-27T06:00	24556	28	-56.2	-85.5	346	4
2023-09-27T06:00	24588	28	-56.2	-85.5	353	4
2023-09-27T06:00	24613	27	-56.3	-85.6	0	4
2023-09-27T06:00	24644	27	-56.5	-85.8	7	4
2023-09-27T06:00	24673	27	-56.6	-85.4	12	4
2023-09-27T06:00	24701	27	-56.8	-85.5	16	3
2023-09-27T06:00	24738	27	-57.0	-85.7	19	3
2023-09-27T06:00	24763	27	-57.1	-85.7	20	2
2023-09-27T06:00	24791	27	-57.1	-85.7	20	1
2023-09-27T06:00	24820	27	-57.0	-85.7	10	1
2023-09-27T06:00	24846	26	-57.1	-85.7	273	0
2023-09-27T06:00	24879	26	-57.2	-85.8	241	1
2023-09-27T06:00	24903	26	-57.3	-85.9	244	1
2023-09-27T06:00	24930	26	-57.2	-86.3	254	2
2023-09-27T06:00	24964	26	-57.0	-86.1	266	2
2023-09-27T06:00	24988	26	-56.8	-86.0	278	3
2023-09-27T06:00	25023	26	-56.7	-85.9	287	3
2023-09-27T06:00	25046	26	-56.9	-86.1	293	4
2023-09-27T06:00	25072	26	-56.9	-86.1	295	5
2023-09-27T06:00	25106	25	-56.9	-86.1	296	5
2023-09-27T06:00	25125	25	-56.9	-86.1	296	6
2023-09-27T06:00	25158	25	-56.8	-86.0	296	6
2023-09-27T06:00	25179	25	-56.7	-85.9	295	5
2023-09-27T06:00	25206	25	-56.7	-85.9	296	5
2023-09-27T06:00	25234	25	-56.6	-85.8	296	5
2023-09-27T06:00	25262	25	-56.6	-85.8	296	4
2023-09-27T06:00	25292	25	-56.8	-85.5	295	4
2023-09-27T06:00	25316	25	-56.9	-85.6	294	4
2023-09-27T06:00	25345	24	-57.1	-85.7	294	4
2023-09-27T06:00	25370	24	-57.2	-85.8	296	4
2023-09-27T06:00	25399	24	-57.2	-85.8	300	4
2023-09-27T06:00	25428	24	-57.2	-85.8	304	4
2023-09-27T06:00	25455	24	-57.3	-85.9	309	4
2023-09-27T06:00	25485	24	-57.4	-86.0	311	4
2023-09-27T06:00	25514	24	-57.5	-86.1	311	4
2023-09-27T06:00	25544	24	-57.5	-86.1	311	4
2023-09-27T06:00	25571	24	-57.6	-86.1	312	4
2023-09-27T06:00	25602	24	-57.6	-86.1	316	4
2023-09-27T06:00	25624	23	-57.5	-86.1	323	4
2023-09-27T06:00	25651	23	-57.5	-86.1	332	4
2023-09-27T06:00	25679	23	-57.6	-86.1	339	4
2023-09-27T06:00	25710	23	-57.5	-86.1	342	4
2023-09-27T06:00	25742	23	-57.4	-86.0	342	4
2023-09-27T06:00	25776	23	-57.5	-86.1	337	4
2023-09-27T06:00	25802	23	-57.6	-86.1	331	4
2023-09-27T06:00	25829	23	-57.6	-86.6	324	4
2023-09-27T06:00	25858	23	-57.6	-86.6	316	4
2023-09-27T06:00	25897	22	-57.6	-86.6	306	4
2023-09-27T06:00	25926	22	-57.5	-86.5	295	3
2023-09-27T06:00	25959	22	-57.3	-86.4	280	3
2023-09-27T06:00	25984	22	-57.2	-86.3	265	3
2023-09-27T06:00	26019	22	-57.2	-86.3	252	4
2023-09-27T06:00	26047	22	-57.2	-86.3	241	4
2023-09-27T06:00	26079	22	-57.2	-86.3	233	4
2023-09-27T06:00	26107	22	-57.0	-86.1	229	4
2023-09-27T06:00	26135	22	-56.7	-85.9	228	4
2023-09-27T06:00	26170	21	-56.7	-85.9	230	4
2023-09-27T06:00	26200	21	-56.8	-86.0	236	4
2023-09-27T06:00	26231	21	-56.8	-86.0	244	4
2023-09-27T06:00	26270	21	-56.7	-85.9	253	4
2023-09-27T06:00	26292	21	-56.7	-85.9	262	4
2023-09-27T06:00	26330	21	-56.9	-86.1	271	4
2023-09-27T06:00	26364	21	-57.1	-86.2	282	4
2023-09-27T06:00	26391	21	-57.2	-85.8	293	4
2023-09-27T06:00	26418	21	-57.4	-86.0	305	4
2023-09-27T06:00	26452	21	-57.5	-86.1	316	3
2023-09-27T06:00	26487	20	-57.5	-86.1	327	3
2023-09-27T06:00	26519	20	-57.7	-86.2	337	3
2023-09-27T06:00	26545	20	-57.8	-86.3	346	3
2023-09-27T06:00	26573	20	-57.7	-86.2	355	3
2023-09-27T06:00	26606	20	-57.6	-86.6	3	3
2023-09-27T06:00	26639	20	-57.5	-86.5	12	2
2023-09-27T06:00	26666	20	-57.4	-86.4	21	2
2023-09-27T06:00	26705	20	-57.4	-86.4	30	2
2023-09-27T06:00	26727	20	-57.4	-86.4	36	2
2023-09-27T06:00	26761	20	-57.5	-86.5	38	2
2023-09-27T06:00	26787	19	-57.5	-86.5	36	2
2023-09-27T06:00	26814	19	-57.5	-86.5	34	1
2023-09-27T06:00	26849	19	-57.5	-86.5	32	1
2023-09-27T06:00	26878	19	-57.4	-86.4	26	0
2023-09-27T06:00	26908	19	-57.4	-86.4	228	0
2023-09-27T06:00	26939	19	-57.5	-86.5	227	1
2023-09-27T06:00	26972	19	-57.6	-86.6	230	2
2023-09-27T06:00	27011	19	-57.6	-86.6	232	3
2023-09-27T06:00	27033	19	-57.6	-86.6	233	3
2023-09-27T06:00	27065	19	-57.5	-86.5	232	4
2023-09-27T06:00	27094	19	-57.4	-86.9	231	4
2023-09-27T06:00	27115	18	-57.2	-86.8	230	5
2023-09-27T06:00	27150	18	-57.0	-86.6	231	5
2023-09-27T06:00	27175	18	-56.8	-86.5	233	5
2023-09-27T06:00	27208	18	-56.8	-86.5	238	5
2023-09-27T06:00	27236	18	-57.0	-86.6	245	5
2023-09-27T06:00	27264	18	-57.0	-86.6	255	4
2023-09-27T06:00	27296	18	-57.0	-86.6	267	4
2023-09-27T06:00	27323	18	-56.6	-86.3	280	4
2023-09-27T06:00	27347	18	-56.5	-86.3	293	4
2023-09-27T06:00	27382	18	-56.5	-86.3	305	5
2023-09-27T06:00	27408	18	-56.4	-86.2	314	5
2023-09-27T06:00	27437	18	-56.3	-86.1	321	6
2023-09-27T06:00	27470	18	-56.4	-86.2	325	7
2023-09-27T06:00	27503	17	-56.3	-86.1	327	7
2023-09-27T06:00	27527	17	-56.3	-86.1	328	7
2023-09-27T06:00	27549	17	-56.2	-86.0	327	6
2023-09-27T06:00	27573	17	-56.2	-86.0	326	6
2023-09-27T06:00	27602	17	-56.3	-86.1	323	5
2023-09-27T06:00	27633	17	-56.2	-86.0	318	5
2023-09-27T06:00	27666	17	-56.0	-86.4	312	4
2023-09-27T06:00	27688	17	-55.9	-86.3	303	4
2023-09-27T06:00	27726	17	-55.7	-86.2	291	4
2023-09-27T06:00	27753	17	-55.3	-85.9	279	4
2023-09-27T06:00	27781	17	-55.1	-85.8	270	5
2023-09-27T06:00	27796	17	-55.1	-85.8	264	5
2023-09-27T06:00	27836	17	-55.1	-85.8	261	6
2023-09-27T06:00	27855	16	-55.0	-85.7	260	7
2023-09-27T06:00	27886	16	-55.0	-85.7	259	7
2023-09-27T06:00	27916	16	-55.1	-85.8	259	8
2023-09-27T06:00	27943	16	-55.2	-85.3	261	8
2023-09-27T06:00	27986	16	-55.2	-85.3	263	8
2023-09-27T06:00	27995	16	-55.3	-85.4	266	8
2023-09-27T06:00	28025	16	-55.3	-85.4	269	9
2023-09-27T06:00	28041	16	-55.4	-85.4	273	9
2023-09-27T06:00	28079	16	-55.4	-85.4	276	8
2023-09-27T06:00	28112	16	-55.5	-85.5	279	8
2023-09-27T06:00	28135	16	-55.5	-85.5	281	8
2023-09-27T06:00	28171	16	-55.4	-85.4	285	8
2023-09-27T06:00	28195	16	-55.3	-85.9	289	7
2023-09-27T06:00	28226	16	-55.3	-85.9	294	7
2023-09-27T06:00	28246	15	-55.2	-85.8	299	7
2023-09-27T06:00	28277	15	-55.1	-85.8	302	7
2023-09-27T06:00	28310	15	-55.1	-85.8	304	7
2023-09-27T06:00	28340	15	-55.0	-85.7	303	7
2023-09-27T06:00	28371	15	-54.9	-85.6	300	7
2023-09-27T06:00	28408	15	-54.9	-85.6	296	7
2023-09-27T06:00	28439	15	-55.1	-85.8	291	7
2023-09-27T06:00	28465	15	-55.1	-85.8	288	7
2023-09-27T06:00	28488	15	-55.1	-85.2	285	7
2023-09-27T06:00	28527	15	-55.1	-85.2	283	7
2023-09-27T06:00	28550	15	-55.1	-85.8	283	8
2023-09-27T06:00	28584	15	-55.1	-85.8	283	8
2023-09-27T06:00	28621	15	-55.1	-85.8	285	8
2023-09-27T06:00	28649	15	-55.1	-85.8	289	8
2023-09-27T06:00	28687	14	-55.0	-85.7	294	8
2023-09-27T06:00	28721	14	-55.0	-85.7	300	8
2023-09-27T06:00	28742	14	-55.0	-85.7	306	8
2023-09-27T06:00	28776	14	-55.1	-85.2	311	9
2023-09-27T06:00	28816	14	-55.3	-85.4	317	9
2023-09-27T06:00	28846	14	-55.5	-85.5	321	9
2023-09-27T06:00	28877	14	-55.7	-85.7	325	9
2023-09-27T06:00	28912	14	-55.8	-85.7	329	10
2023-09-27T06:00	28936	14	-55.8	-85.7	331	10
2023-09-27T06:00	28982	14	-55.7	-85.7	332	10
2023-09-27T06:00	29018	14	-55.6	-85.6	332	9
2023-09-27T06:00	29046	14	-55.6	-85.6	331	9
2023-09-27T06:00	29076	14	-55.6	-86.1	330	8
2023-09-27T06:00	29106	14	-55.7	-86.2	329	8
2023-09-27T06:00	29143	13	-55.7	-86.2	328	8
2023-09-27T06:00	29183	13	-55.4	-86.0	327	7
2023-09-27T06:00	29212	13	-55.0	-85.7	325	7
2023-09-27T06:00	29244	13	-54.8	-85.5	322	7
2023-09-27T06:00	29274	13	-54.7	-86.1	317	7
2023-09-27T06:00	29311	13	-54.6	-85.4	311	7
2023-09-27T06:00	29346	13	-54.5	-85.3	305	6
2023-09-27T06:00	29373	13	-54.5	-85.3	300	6
2023-09-27T06:00	29408	13	-54.7	-85.5	295	6
2023-09-27T06:00	29433	13	-55.0	-85.1	290	6
2023-09-27T06:00	29468	13	-55.2	-85.3	287	6
2023-09-27T06:00	29489	13	-55.4	-85.4	283	6
2023-09-27T06:00	29527	13	-55.7	-85.7	282	7
2023-09-27T06:00	29554	13	-56.0	-85.9	282	7
2023-09-27T06:00	29594	13	-56.1	-86.0	284	7
2023-09-27T06:00	29621	13	-56.0	-85.9	288	7
2023-09-27T06:00	29652	12	-55.8	-85.7	293	7
2023-09-27T06:00	29685	12	-55.6	-86.1	299	7
2023-09-27T06:00	29712	12	-55.7	-86.2	305	7
2023-09-27T06:00	29738	12	-55.7	-86.2	311	7
2023-09-27T06:00	29770	12	-55.5	-86.1	317	7
2023-09-27T06:00	29803	12	-55.3	-85.9	324	7
2023-09-27T06:00	29828	12	-55.2	-85.8	331	6
2023-09-27T06:00	29858	12	-55.1	-86.4	338	6
2023-09-27T06:00	29889	12	-54.7	-86.1	344	5
2023-09-27T06:00	29921	12	-54.4	-85.8	348	5
2023-09-27T06:00	29957	12	-54.3	-85.8	351	4
2023-09-27T06:00	29978	12	-54.4	-85.8	351	3
2023-09-27T06:00	30018	12	-54.2	-85.7	348	3
2023-09-27T06:00	30040	12	-54.0	-85.5	340	3
2023-09-27T06:00	30080	12	-53.7	-85.3	328	3
2023-09-27T06:00	30110	12	-53.6	-85.3	317	3
2023-09-27T06:00	30135	12	-53.6	-85.3	306	3
2023-09-27T06:00	30181	11	-53.3	-85.0	298	3
2023-09-27T06:00	30218	11	-53.1	-84.9	292	3
2023-09-27T06:00	30246	11	-53.1	-84.9	288	4
2023-09-27T06:00	30263	11	-53.0	-85.5	286	5
2023-09-27T06:00	30311	11	-52.9	-85.4	286	6
2023-09-27T06:00	30349	11	-52.8	-85.3	286	6
2023-09-27T06:00	30377	11	-52.6	-85.2	288	7
2023-09-27T06:00	30409	11	-52.2	-84.9	289	7
2023-09-27T06:00	30440	11	-52.0	-84.8	291	8
2023-09-27T06:00	30465	11	-51.8	-84.6	291	8
2023-09-27T06:00	30510	11	-51.8	-84.6	290	8
2023-09-27T06:00	30535	11	-51.8	-84.6	289	8
2023-09-27T06:00	30563	11	-51.7	-84.5	287	9
2023-09-27T06:00	30600	11	-51.4	-84.3	286	10
2023-09-27T06:00	30622	11	-51.3	-84.3	286	10
2023-09-27T06:00	30660	11	-51.2	-84.2	287	11
2023-09-27T06:00	30697	11	-51.1	-84.1	291	10
2023-09-27T06:00	30738	11	-51.0	-84.0	295	10
2023-09-27T06:00	30760	10	-50.9	-84.0	301	9
2023-09-27T06:00	30789	10	-50.7	-83.8	308	8
2023-09-27T06:00	30835	10	-50.7	-83.8	316	8
2023-09-27T06:00	30847	10	-50.8	-83.9	323	7
2023-09-27T06:00	30888	10	-50.9	-84.0	331	7
2023-09-27T06:00	30920	10	-51.0	-84.0	337	7
2023-09-27T06:00	30957	10	-51.0	-84.0	340	7
2023-09-27T06:00	30980	10	-51.0	-84.0	339	7
2023-09-27T06:00	31015	10	-51.0	-84.0	334	7
2023-09-27T06:00	31035	10	-50.9	-84.0	327	7
2023-09-27T06:00	31087	10	-50.7	-83.8	320	8
2023-09-27T06:00	31119	10	-50.5	-83.7	314	9
2023-09-27T06:00	31146	10	-50.4	-84.4	310	10
2023-09-27T06:00	31175	10	-50.3	-84.3	307	11
2023-09-27T06:00	31209	10	-50.2	-84.2	305	13
2023-09-27T06:00	31247	10	-50.0	-84.1	304	14
2023-09-27T06:00	31281	10	-49.7	-83.9	304	15
2023-09-27T06:00	31324	10	-49.5	-83.7	304	16
2023-09-27T06:00	31347	10	-49.6	-83.8	305	17
2023-09-27T06:00	31382	10	-49.5	-83.7	306	18
2023-09-27T06:00	31403	9	-49.2	-83.5	307	18
2023-09-27T06:00	31439	9	-48.8	-83.2	309	17
2023-09-27T06:00	31473	9	-48.8	-83.2	311	17
2023-09-27T06:00	31499	9	-48.9	-83.3	314	16
2023-09-27T06:00	31538	9	-49.1	-83.4	316	16
2023-09-27T06:00	31586	9	-49.1	-83.4	318	15
2023-09-27T06:00	31609	9	-49.2	-82.7	321	15
2023-09-27T06:00	31644	9	-49.5	-82.9	323	15
2023-09-27T06:00	31677	9	-49.6	-83.0	325	14
2023-09-27T06:00	31687	9	-49.5	-82.9	327	14
2023-09-27T06:00	31738	9	-49.4	-83.7	328	14
2023-09-27T06:00	31767	9	-49.5	-83.7	329	14
2023-09-27T06:00	31794	9	-49.6	-83.8	329	13
2023-09-27T06:00	31828	9	-49.6	-83.8	330	13
2023-09-27T06:00	31860	9	-49.5	-83.7	329	12
2023-09-27T06:00	31888	9	-49.6	-83.8	328	12
2023-09-27T06:00	31929	9	-49.5	-83.7	326	12
2023-09-27T06:00	31942	9	-49.4	-83.7	323	12
2023-09-27T06:00	31985	9	-49.4	-83.7	320	12
2023-09-27T06:00	32018	9	-49.5	-83.7	318	12
2023-09-27T06:00	32054	9	-49.4	-83.7	315	12
2023-09-27T06:00	32091	9	-49.2	-83.5	314	12
2023-09-27T06:00	32106	9	-49.0	-83.4	313	12
2023-09-27T06:00	32143	8	-48.8	-84.1	312	12
2023-09-27T06:00	32174	8	-48.7	-84.1	311	12
2023-09-27T06:00	32201	8	-48.4	-83.8	311	12
2023-09-27T06:00	32245	8	-48.4	-83.8	312	12
2023-09-27T06:00	32262	8	-48.3	-83.8	313	13
2023-09-27T06:00	32309	8	-47.9	-83.5	314	13
2023-09-27T06:00	32333	8	-47.6	-83.3	316	14
2023-09-27T06:00	32359	8	-47.6	-83.3	317	14
2023-09-27T06:00	32394	8	-47.7	-83.4	319	14
2023-09-27T06:00	32431	8	-47.5	-83.2	321	14
2023-09-27T06:00	32450	8	-47.3	-83.1	323	14
2023-09-27T06:00	32465	8	-47.3	-83.1	324	14
2023-09-27T06:00	32503	8	-47.3	-83.1	325	14
2023-09-27T06:00	32535	8	-47.3	-83.1	326	15
2023-09-27T06:00	32560	8	-47.2	-83.0	326	15
2023-09-27T06:00	32594	8	-47.2	-83.0	325	15
2023-09-27T06:00	32618	8	-47.3	-83.1	324	16
2023-09-27T06:00	32668	8	-47.4	-83.1	323	16
2023-09-27T06:00	32694	8	-47.3	-83.1	321	16
2023-09-27T06:00	32724	8	-47.2	-83.0	320	16
2023-09-27T06:00	32754	8	-47.1	-82.9	319	16
2023-09-27T06:00	32803	8	-47.1	-82.9	319	15
2023-09-27T06:00	32809	8	-47.1	-82.9	320	15
2023-09-27T06:00	32852	8	-47.2	-83.0	320	15
2023-09-27T06:00	32865	8	-47.2	-83.0	321	14
2023-09-27T06:00	32901	8	-47.2	-83.0	321	14
2023-09-27T06:00	32936	8	-47.2	-83.0	321	14
2023-09-27T06:00	32955	8	-47.2	-83.0	321	14
2023-09-27T06:00	32980	7	-47.2	-83.0	322	14
2023-09-27T06:00	33028	7	-47.2	-83.0	323	14
2023-09-27T06:00	33040	7	-47.2	-83.0	326	14
2023-09-27T06:00	33085	7	-47.1	-82.9	329	14
2023-09-27T06:00	33103	7	-46.9	-82.8	332	14
2023-09-27T06:00	33145	7	-46.5	-83.6	335	13
2023-09-27T06:00	33171	7	-46.2	-83.4	335	13
2023-09-27T06:00	33208	7	-45.9	-83.2	333	13
2023-09-27T06:00	33225	7	-45.3	-82.7	329	14
2023-09-27T06:00	33251	7	-44.8	-82.4	325	14
2023-09-27T06:00	33283	7	-44.6	-82.2	321	15
2023-09-27T06:00	33327	7	-44.5	-82.2	317	16
2023-09-27T12:00	-999					
2023-09-27T12:00	138	1006	23.0	15.3	106	1
2023-09-27T12:00	164	1003	22.4	15.3	108	2
2023-09-27T12:00	198	999	22.4	15.3	109	2
2023-09-27T12:00	233	995	22.1	15.2	108	2
2023-09-27T12:00	258	992	21.5	15.1	104	2
2023-09-27T12:00	287	989	21.2	15.0	95	1
2023-09-27T12:00	314	986	21.0	15.0	85	1
2023-09-27T12:00	336	983	20.8	15.0	78	1
2023-09-27T12:00	366	980	20.6	15.0	74	1
2023-09-27T12:00	391	977	20.2	14.9	71	1
2023-09-27T12:00	414	974	19.9	14.7	66	1
2023-09-27T12:00	440	972	19.7	14.6	51	0
2023-09-27T12:00	463	969	19.6	14.8	358	0
2023-09-27T12:00	490	966	19.3	14.8	292	0
2023-09-27T12:00	515	963	19.0	14.5	266	1
2023-09-27T12:00	543	960	18.7	14.4	247	1
2023-09-27T12:00	566	957	18.6	14.2	227	1
2023-09-27T12:00	594	954	18.5	14.3	203	1
2023-09-27T12:00	620	952	18.4	14.2	180	2
2023-09-27T12:00	641	949	18.2	13.9	164	2
2023-09-27T12:00	666	946	18.1	13.9	157	3
2023-09-27T12:00	686	944	17.8	14.0	155	3
2023-09-27T12:00	712	941	17.8	13.9	156	3
2023-09-27T12:00	740	938	17.6	13.7	160	4
2023-09-27T12:00	768	935	17.4	13.5	164	5
2023-09-27T12:00	796	932	17.1	13.6	167	5
2023-09-27T12:00	831	928	17.2	13.2	170	6
2023-09-27T12:00	859	925	17.5	13.0	172	6
2023-09-27T12:00	886	922	17.3	12.9	174	6
2023-09-27T12:00	910	920	17.1	13.0	177	6
2023-09-27T12:00	928	918	17.0	12.8	178	5
2023-09-27T12:00	948	915	17.0	12.8	178	5
2023-09-27T12:00	982	912	16.9	12.5	176	4
2023-09-27T12:00	1006	909	16.7	12.5	170	4
2023-09-27T12:00	1035	907	16.6	12.5	164	5
2023-09-27T12:00	1055	904	16.3	12.6	159	5
2023-09-27T12:00	1075	902	16.2	12.6	157	6
2023-09-27T12:00	1096	900	16.0	12.4	157	6
2023-09-27T12:00	1118	897	15.8	12.3	158	6
2023-09-27T12:00	1144	895	15.7	12.2	161	6
2023-09-27T12:00	1167	892	15.5	12.1	164	6
2023-09-27T12:00	1188	890	15.4	11.8	168	6
2023-09-27T12:00	1216	887	15.2	11.5	171	7
2023-09-27T12:00	1239	885	15.1	11.4	173	7
2023-09-27T12:00	1265	882	15.0	11.2	173	8
2023-09-27T12:00	1291	880	14.9	11.0	173	8
2023-09-27T12:00	1318	877	14.7	10.9	173	8
2023-09-27T12:00	1343	874	14.5	10.6	172	7
2023-09-27T12:00	1366	872	14.4	10.5	171	7
2023-09-27T12:00	1387	870	14.2	10.3	171	6
2023-09-27T12:00	1409	867	14.0	10.0	173	6
2023-09-27T12:00	1434	865	14.1	9.5	177	6
2023-09-27T12:00	1455	863	13.9	9.3	181	7
2023-09-27T12:00	1477	860	13.7	9.2	184	7
2023-09-27T12:00	1496	858	13.5	9.1	186	7
2023-09-27T12:00	1525	855	13.3	8.9	185	8
2023-09-27T12:00	1556	853	13.1	9.1	184	8
2023-09-27T12:00	1573	850	12.9	9.0	184	8
2023-09-27T12:00	1601	848	12.7	8.7	184	8
2023-09-27T12:00	1627	845	12.5	8.3	186	9
2023-09-27T12:00	1658	842	12.4	8.0	187	9
2023-09-27T12:00	1678	840	12.2	8.1	186	9
2023-09-27T12:00	1700	838	12.0	8.1	184	9
2023-09-27T12:00	1724	836	12.0	7.5	181	8
2023-09-27T12:00	1748	833	11.8	6.9	178	7
2023-09-27T12:00	1773	831	12.3	4.4	176	6
2023-09-27T12:00	1794	828	12.2	4.3	176	5
2023-09-27T12:00	1814	826	12.2	4.0	181	4
2023-09-27T12:00	1837	824	12.0	3.9	190	3
2023-09-27T12:00	1858	822	11.9	3.3	199	3
2023-09-27T12:00	1876	820	12.1	2.4	201	4
2023-09-27T12:00	1900	818	12.2	2.3	199	4
2023-09-27T12:00	1923	816	12.3	0.3	195	4
2023-09-27T12:00	1945	814	12.2	1.8	193	4
2023-09-27T12:00	1962	812	12.3	1.7	195	4
2023-09-27T12:00	1986	810	12.2	0.9	200	4
2023-09-27T12:00	2016	807	12.1	2.3	207	4
2023-09-27T12:00	2037	805	11.9	1.0	213	4
2023-09-27T12:00	2056	803	11.9	-1.2	217	4
2023-09-27T12:00	2076	801	12.0	-0.3	217	4
2023-09-27T12:00	2100	799	11.9	1.1	214	4
2023-09-27T12:00	2124	797	11.6	0.9	210	4
2023-09-27T12:00	2148	794	11.4	0.4	208	3
2023-09-27T12:00	2171	792	11.6	-0.4	209	3
2023-09-27T12:00	2193	790	11.8	-0.3	214	3
2023-09-27T12:00	2220	787	11.6	-0.8	222	3
2023-09-27T12:00	2245	785	11.7	-2.4	232	3
2023-09-27T12:00	2270	783	11.6	-1.5	241	3
2023-09-27T12:00	2297	780	11.6	-2.9	246	3
2023-09-27T12:00	2323	778	11.7	-3.4	247	3
2023-09-27T12:00	2346	776	11.5	-3.3	247	3
2023-09-27T12:00	2366	774	11.3	-3.3	246	4
2023-09-27T12:00	2392	771	11.3	-3.0	244	4
2023-09-27T12:00	2411	770	11.2	-2.9	240	4
2023-09-27T12:00	2433	768	11.1	-2.9	233	4
2023-09-27T12:00	2452	766	11.1	-3.1	222	3
2023-09-27T12:00	2479	764	11.0	-2.7	206	3
2023-09-27T12:00	2500	761	10.9	-3.8	188	3
2023-09-27T12:00	2520	760	10.9	-4.3	173	2
2023-09-27T12:00	2542	758	11.0	-5.2	168	2
2023-09-27T12:00	2562	756	10.8	-5.6	178	1
2023-09-27T12:00	2584	754	10.7	-5.5	192	2
2023-09-27T12:00	2605	752	10.6	-5.8	194	3
2023-09-27T12:00	2629	750	10.3	-6.0	191	3
2023-09-27T12:00	2649	748	10.2	-5.4	187	4
2023-09-27T12:00	2672	746	10.1	-5.2	184	4
2023-09-27T12:00	2694	744	9.9	-5.6	182	4
2023-09-27T12:00	2716	742	9.8	-6.9	182	4
2023-09-27T12:00	2737	740	9.6	-7.2	183	3
2023-09-27T12:00	2758	738	9.4	-7.3	185	3
2023-09-27T12:00	2783	736	9.3	-8.0	188	2
2023-09-27T12:00	2808	734	9.2	-9.8	192	2
2023-09-27T12:00	2827	732	9.0	-9.9	197	2
2023-09-27T12:00	2849	730	8.8	-9.7	200	2
2023-09-27T12:00	2869	728	8.7	-10.9	201	2
2023-09-27T12:00	2894	726	8.6	-9.7	199	2
2023-09-27T12:00	2918	724	8.4	-8.2	194	3
2023-09-27T12:00	2939	722	8.2	-8.2	189	3
2023-09-27T12:00	2960	720	8.2	-8.5	181	4
2023-09-27T12:00	2980	719	8.0	-8.6	175	4
2023-09-27T12:00	3000	717	7.9	-9.2	171	4
2023-09-27T12:00	3021	715	7.7	-9.4	172	3
2023-09-27T12:00	3043	713	7.5	-9.4	181	3
2023-09-27T12:00	3067	711	7.4	-8.0	199	2
2023-09-27T12:00	3086	709	7.3	-8.0	216	2
2023-09-27T12:00	3107	708	7.2	-7.3	217	2
2023-09-27T12:00	3129	706	7.1	-7.4	205	2
2023-09-27T12:00	3161	703	6.9	-7.7	194	3
2023-09-27T12:00	3182	701	6.8	-7.6	190	4
2023-09-27T12:00	3203	699	6.7	-8.3	191	5
2023-09-27T12:00	3229	697	6.5	-9.1	196	6
2023-09-27T12:00	3248	696	6.3	-8.1	201	6
2023-09-27T12:00	3267	694	6.2	-8.6	204	7
2023-09-27T12:00	3290	692	6.1	-8.5	206	7
2023-09-27T12:00	3310	690	6.0	-8.3	205	6
2023-09-27T12:00	3338	688	6.0	-7.5	203	6
2023-09-27T12:00	3363	686	5.8	-6.3	202	6
2023-09-27T12:00	3384	684	5.7	-6.2	202	6
2023-09-27T12:00	3407	682	5.5	-6.4	203	6
2023-09-27T12:00	3427	680	5.4	-6.5	205	6
2023-09-27T12:00	3451	679	5.2	-6.7	207	6
2023-09-27T12:00	3472	677	5.1	-7.2	209	5
2023-09-27T12:00	3492	675	5.1	-7.6	210	5
2023-09-27T12:00	3521	673	5.0	-8.0	211	5
2023-09-27T12:00	3545	671	4.8	-8.7	210	6
2023-09-27T12:00	3567	669	4.6	-8.9	208	7
2023-09-27T12:00	3586	667	4.5	-9.8	205	8
2023-09-27T12:00	3608	666	4.4	-10.4	201	8
2023-09-27T12:00	3626	664	4.2	-9.8	200	8
2023-09-27T12:00	3648	662	4.1	-10.7	200	7
2023-09-27T12:00	3671	661	4.0	-10.5	205	6
2023-09-27T12:00	3690	659	3.9	-10.3	213	6
2023-09-27T12:00	3713	657	3.8	-10.6	219	5
2023-09-27T12:00	3738	655	3.6	-10.2	220	6
2023-09-27T12:00	3770	653	3.4	-10.1	215	6
2023-09-27T12:00	3792	651	3.1	-10.1	207	7
2023-09-27T12:00	3812	649	2.9	-9.9	200	7
2023-09-27T12:00	3830	647	2.7	-10.5	193	8
2023-09-27T12:00	3852	646	2.7	-11.2	190	8
2023-09-27T12:00	3872	644	2.5	-11.3	189	8
2023-09-27T12:00	3896	642	2.3	-11.3	191	8
2023-09-27T12:00	3919	640	2.1	-11.5	197	8
2023-09-27T12:00	3954	638	1.9	-12.2	203	7
2023-09-27T12:00	3970	636	1.7	-12.4	208	7
2023-09-27T12:00	3991	635	1.6	-11.7	208	7
2023-09-27T12:00	4013	633	1.5	-12.4	205	7
2023-09-27T12:00	4039	631	1.5	-13.3	201	8
2023-09-27T12:00	4064	629	1.6	-19.5	199	9
2023-09-27T12:00	4085	627	1.6	-22.3	199	10
2023-09-27T12:00	4107	626	1.5	-22.5	199	10
2023-09-27T12:00	4128	624	1.4	-22.7	199	10
2023-09-27T12:00	4147	623	1.3	-23.3	197	10
2023-09-27T12:00	4167	621	1.3	-24.2	195	10
2023-09-27T12:00	4198	619	1.2	-21.4	193	9
2023-09-27T12:00	4216	617	0.9	-21.6	192	8
2023-09-27T12:00	4242	615	0.8	-21.5	193	8
2023-09-27T12:00	4265	614	0.5	-21.6	197	8
2023-09-27T12:00	4286	612	0.3	-22.3	202	8
2023-09-27T12:00	4317	610	0.4	-25.0	206	8
2023-09-27T12:00	4341	608	0.2	-19.1	208	9
2023-09-27T12:00	4362	606	0.0	-18.7	211	9
2023-09-27T12:00	4380	605	-0.1	-18.5	213	9
2023-09-27T12:00	4401	603	-0.3	-18.6	217	9
2023-09-27T12:00	4429	601	-0.4	-18.5	220	8
2023-09-27T12:00	4455	599	-0.7	-18.6	223	8
2023-09-27T12:00	4473	598	-0.8	-19.3	226	7
2023-09-27T12:00	4499	596	-0.9	-20.3	228	7
2023-09-27T12:00	4534	593	-1.1	-20.5	228	6
2023-09-27T12:00	4559	592	-1.4	-20.5	229	6
2023-09-27T12:00	4577	590	-1.7	-20.6	228	6
2023-09-27T12:00	4603	588	-1.8	-21.0	226	6
2023-09-27T12:00	4625	587	-2.0	-21.2	223	7
2023-09-27T12:00	4645	585	-2.1	-21.4	219	7
2023-09-27T12:00	4672	583	-2.4	-21.6	217	8
2023-09-27T12:00	4692	582	-2.6	-21.7	215	8
2023-09-27T12:00	4715	580	-2.7	-21.4	213	8
2023-09-27T12:00	4738	578	-3.0	-21.1	212	8
2023-09-27T12:00	4759	577	-3.1	-21.0	211	8
2023-09-27T12:00	4782	575	-3.3	-20.9	212	8
2023-09-27T12:00	4803	573	-3.4	-21.7	214	8
2023-09-27T12:00	4826	572	-3.4	-25.2	217	9
2023-09-27T12:00	4846	570	-3.6	-25.9	220	8
2023-09-27T12:00	4865	569	-3.6	-26.5	223	8
2023-09-27T12:00	4890	567	-3.7	-32.4	226	7
2023-09-27T12:00	4913	566	-3.9	-32.0	228	6
2023-09-27T12:00	4939	564	-4.0	-34.2	230	6
2023-09-27T12:00	4961	562	-4.1	-34.1	229	6
2023-09-27T12:00	4980	561	-4.2	-33.5	227	6
2023-09-27T12:00	5005	559	-4.3	-34.6	224	6
2023-09-27T12:00	5028	557	-4.5	-34.9	221	7
2023-09-27T12:00	5049	556	-4.5	-35.1	218	7
2023-09-27T12:00	5071	554	-4.8	-34.0	215	7
2023-09-27T12:00	5093	553	-4.9	-34.7	212	7
2023-09-27T12:00	5117	551	-5.1	-35.2	208	7
2023-09-27T12:00	5137	550	-5.2	-35.6	205	6
2023-09-27T12:00	5157	548	-5.3	-32.8	207	6
2023-09-27T12:00	5182	547	-5.5	-29.1	214	6
2023-09-27T12:00	5207	545	-5.7	-28.4	223	6
2023-09-27T12:00	5226	543	-5.9	-27.9	232	6
2023-09-27T12:00	5255	542	-6.1	-27.8	236	6
2023-09-27T12:00	5273	540	-6.3	-27.7	236	6
2023-09-27T12:00	5294	539	-6.4	-27.4	233	6
2023-09-27T12:00	5314	537	-6.6	-26.5	228	6
2023-09-27T12:00	5336	536	-6.7	-24.3	221	6
2023-09-27T12:00	5360	534	-6.8	-25.9	213	6
2023-09-27T12:00	5379	533	-6.8	-28.1	206	6
2023-09-27T12:00	5403	531	-7.0	-27.9	203	7
2023-09-27T12:00	5420	530	-7.1	-26.0	205	7
2023-09-27T12:00	5440	529	-7.2	-25.9	208	7
2023-09-27T12:00	5466	527	-7.4	-25.6	213	6
2023-09-27T12:00	5487	525	-7.6	-24.1	217	5
2023-09-27T12:00	5512	524	-7.8	-24.3	219	5
2023-09-27T12:00	5534	522	-8.0	-21.1	217	4
2023-09-27T12:00	5557	521	-8.2	-20.7	214	4
2023-09-27T12:00	5581	519	-8.4	-20.7	213	5
2023-09-27T12:00	5601	518	-8.6	-21.4	215	5
2023-09-27T12:00	5623	516	-8.8	-22.4	219	6
2023-09-27T12:00	5648	515	-9.0	-22.3	224	6
2023-09-27T12:00	5670	513	-9.3	-22.5	228	6
2023-09-27T12:00	5692	512	-9.5	-22.3	230	6
2023-09-27T12:00	5719	510	-9.7	-22.3	228	6
2023-09-27T12:00	5742	509	-9.9	-22.2	225	5
2023-09-27T12:00	5765	507	-10.2	-22.1	220	5
2023-09-27T12:00	5793	505	-10.4	-22.1	217	5
2023-09-27T12:00	5825	503	-10.7	-21.5	217	5
2023-09-27T12:00	5853	501	-11.0	-22.0	222	5
2023-09-27T12:00	5877	500	-11.2	-21.9	229	6
2023-09-27T12:00	5900	498	-11.5	-22.2	236	6
2023-09-27T12:00	5922	497	-11.8	-22.8	242	6
2023-09-27T12:00	5954	495	-12.0	-23.2	246	7
2023-09-27T12:00	5981	493	-12.2	-24.1	247	7
2023-09-27T12:00	6012	491	-12.5	-25.5	246	7
2023-09-27T12:00	6033	490	-12.7	-27.1	246	7
2023-09-27T12:00	6060	488	-12.8	-27.2	247	7
2023-09-27T12:00	6082	487	-13.1	-27.1	251	7
2023-09-27T12:00	6102	485	-13.3	-27.1	256	7
2023-09-27T12:00	6127	484	-13.4	-27.0	260	7
2023-09-27T12:00	6145	482	-13.6	-26.9	261	7
2023-09-27T12:00	6174	481	-13.8	-27.1	259	7
2023-09-27T12:00	6203	479	-14.1	-27.2	258	7
2023-09-27T12:00	6227	477	-14.4	-28.0	256	7
2023-09-27T12:00	6247	476	-14.5	-25.9	253	7
2023-09-27T12:00	6273	474	-14.7	-23.1	248	6
2023-09-27T12:00	6303	473	-14.9	-22.8	240	6
2023-09-27T12:00	6331	471	-15.1	-22.5	232	6
2023-09-27T12:00	6353	469	-15.5	-22.4	225	6
2023-09-27T12:00	6381	468	-15.7	-22.4	221	6
2023-09-27T12:00	6416	466	-16.0	-23.3	219	6
2023-09-27T12:00	6438	464	-16.2	-22.4	218	6
2023-09-27T12:00	6460	463	-16.4	-23.3	217	7
2023-09-27T12:00	6485	461	-16.5	-24.8	216	7
2023-09-27T12:00	6511	460	-16.7	-26.1	217	6
2023-09-27T12:00	6538	458	-16.9	-26.5	218	5
2023-09-27T12:00	6563	456	-17.1	-27.3	219	4
2023-09-27T12:00	6584	455	-17.3	-27.8	219	4
2023-09-27T12:00	6605	454	-17.4	-27.8	219	3
2023-09-27T12:00	6628	453	-17.7	-27.9	217	3
2023-09-27T12:00	6651	451	-17.9	-27.6	215	3
2023-09-27T12:00	6671	450	-18.1	-27.5	212	3
2023-09-27T12:00	6698	448	-18.2	-28.6	208	3
2023-09-27T12:00	6719	447	-18.3	-30.5	200	2
2023-09-27T12:00	6745	446	-18.4	-32.4	184	2
2023-09-27T12:00	6764	444	-18.6	-33.3	154	1
2023-09-27T12:00	6791	443	-18.7	-33.8	127	1
2023-09-27T12:00	6810	441	-18.9	-35.0	116	1
2023-09-27T12:00	6837	440	-18.9	-37.0	112	1
2023-09-27T12:00	6859	439	-19.0	-42.8	107	1
2023-09-27T12:00	6881	437	-19.0	-43.7	96	1
2023-09-27T12:00	6907	436	-19.1	-43.2	83	2
2023-09-27T12:00	6931	434	-19.2	-43.3	73	2
2023-09-27T12:00	6959	433	-19.5	-43.4	67	3
2023-09-27T12:00	6986	431	-19.7	-43.9	60	3
2023-09-27T12:00	7005	430	-19.9	-44.2	52	4
2023-09-27T12:00	7032	429	-20.2	-44.3	43	4
2023-09-27T12:00	7055	427	-20.4	-44.9	33	4
2023-09-27T12:00	7077	426	-20.5	-45.5	25	4
2023-09-27T12:00	7099	425	-20.6	-45.5	20	4
2023-09-27T12:00	7122	423	-20.9	-45.5	21	4
2023-09-27T12:00	7148	422	-21.1	-45.4	32	3
2023-09-27T12:00	7184	420	-21.4	-45.6	53	3
2023-09-27T12:00	7208	419	-21.6	-45.6	72	3
2023-09-27T12:00	7229	417	-21.8	-45.6	82	4
2023-09-27T12:00	7252	416	-22.0	-45.6	82	4
2023-09-27T12:00	7276	415	-22.1	-45.5	74	4
2023-09-27T12:00	7311	413	-22.4	-45.6	58	4
2023-09-27T12:00	7332	411	-22.7	-45.4	41	4
2023-09-27T12:00	7353	410	-22.9	-45.3	29	4
2023-09-27T12:00	7373	409	-22.9	-44.4	26	5
2023-09-27T12:00	7403	408	-23.0	-43.5	26	5
2023-09-27T12:00	7435	406	-23.3	-43.6	27	5
2023-09-27T12:00	7473	404	-23.5	-43.7	25	5
2023-09-27T12:00	7505	402	-23.9	-43.9	20	5
2023-09-27T12:00	7525	401	-24.1	-43.8	12	5
2023-09-27T12:00	7549	400	-24.4	-44.0	6	5
2023-09-27T12:00	7568	398	-24.6	-43.9	5	5
2023-09-27T12:00	7596	397	-24.7	-44.0	7	5
2023-09-27T12:00	7621	395	-25.0	-44.0	10	5
2023-09-27T12:00	7654	394	-25.2	-44.2	12	5
2023-09-27T12:00	7675	393	-25.5	-44.4	11	5
2023-09-27T12:00	7701	391	-25.6	-44.3	8	4
2023-09-27T12:00	7720	390	-25.9	-44.4	2	4
2023-09-27T12:00	7744	389	-26.0	-44.4	357	4
2023-09-27T12:00	7775	387	-26.2	-44.4	351	5
2023-09-27T12:00	7804	386	-26.6	-44.6	347	5
2023-09-27T12:00	7825	385	-26.9	-44.5	345	5
2023-09-27T12:00	7845	383	-27.1	-44.7	345	5
2023-09-27T12:00	7868	382	-27.3	-44.7	347	5
2023-09-27T12:00	7888	381	-27.5	-44.7	352	5
2023-09-27T12:00	7909	380	-27.6	-45.0	357	5
2023-09-27T12:00	7941	378	-27.8	-45.0	1	5
2023-09-27T12:00	7974	377	-28.2	-45.1	2	5
2023-09-27T12:00	7997	375	-28.5	-45.3	1	5
2023-09-27T12:00	8026	374	-28.7	-45.2	359	5
2023-09-27T12:00	8048	373	-29.0	-45.2	357	6
2023-09-27T12:00	8072	372	-29.2	-45.3	355	6
2023-09-27T12:00	8093	371	-29.4	-45.3	354	6
2023-09-27T12:00	8115	369	-29.6	-45.5	353	6
2023-09-27T12:00	8140	368	-29.8	-45.4	351	6
2023-09-27T12:00	8162	367	-30.1	-45.5	349	6
2023-09-27T12:00	8183	366	-30.3	-45.8	348	6
2023-09-27T12:00	8209	365	-30.5	-45.9	348	7
2023-09-27T12:00	8229	363	-30.6	-46.2	348	7
2023-09-27T12:00	8250	362	-30.7	-45.7	350	7
2023-09-27T12:00	8274	361	-30.9	-45.6	351	7
2023-09-27T12:00	8292	360	-31.1	-45.3	351	6
2023-09-27T12:00	8317	359	-31.2	-45.2	351	6
2023-09-27T12:00	8342	358	-31.4	-45.8	353	6
2023-09-27T12:00	8372	356	-31.5	-47.9	357	5
2023-09-27T12:00	8396	355	-31.7	-48.7	6	5
2023-09-27T12:00	8419	354	-31.9	-48.8	19	4
2023-09-27T12:00	8443	353	-32.0	-49.1	31	5
2023-09-27T12:00	8469	351	-32.3	-49.3	39	5
2023-09-27T12:00	8492	350	-32.4	-49.6	40	5
2023-09-27T12:00	8517	349	-32.6	-50.0	35	4
2023-09-27T12:00	8540	348	-32.8	-49.9	27	4
2023-09-27T12:00	8572	346	-33.0	-49.8	18	4
2023-09-27T12:00	8601	345	-33.3	-49.9	14	4
2023-09-27T12:00	8620	344	-33.5	-50.2	13	5
2023-09-27T12:00	8642	343	-33.7	-50.4	13	5
2023-09-27T12:00	8664	342	-33.8	-50.5	12	6
2023-09-27T12:00	8684	341	-34.0	-50.5	11	6
2023-09-27T12:00	8707	340	-34.2	-50.6	10	6
2023-09-27T12:00	8730	339	-34.5	-50.6	10	6
2023-09-27T12:00	8750	338	-34.6	-50.6	10	6
2023-09-27T12:00	8773	336	-34.8	-50.5	9	6
2023-09-27T12:00	8800	335	-35.0	-49.9	7	6
2023-09-27T12:00	8828	334	-35.4	-49.7	6	6
2023-09-27T12:00	8847	333	-35.6	-49.4	6	7
2023-09-27T12:00	8876	332	-35.7	-48.8	8	7
2023-09-27T12:00	8904	330	-36.0		10	7
2023-09-27T12:00	8924	329	-36.2	-48.4	11	8
2023-09-27T12:00	8945	328	-36.4	-47.4	10	8
2023-09-27T12:00	8970	327	-36.5	-47.2	8	8
2023-09-27T12:00	8993	326	-36.6	-47.8	6	8
2023-09-27T12:00	9015	325	-36.8	-47.6	5	8
2023-09-27T12:00	9038	324	-37.1	-47.6	6	8
2023-09-27T12:00	9060	323	-37.3	-47.5	7	8
2023-09-27T12:00	9082	322	-37.6	-47.7	9	8
2023-09-27T12:00	9105	321	-37.7	-47.7	9	8
2023-09-27T12:00	9126	320	-37.9	-47.9	9	8
2023-09-27T12:00	9148	319	-38.0	-49.7	7	8
2023-09-27T12:00	9175	318	-38.2	-50.0	5	8
2023-09-27T12:00	9198	316	-38.4	-50.0	4	8
2023-09-27T12:00	9226	315	-38.7	-50.6	4	8
2023-09-27T12:00	9250	314	-38.9	-50.9	5	8
2023-09-27T12:00	9270	313	-39.0	-50.9	6	8
2023-09-27T12:00	9292	312	-39.2	-51.9	7	8
2023-09-27T12:00	9319	311	-39.4	-51.8	7	7
2023-09-27T12:00	9347	310	-39.7	-52.5	5	7
2023-09-27T12:00	9379	308	-39.9	-53.1	1	6
2023-09-27T12:00	9407	307	-40.2	-53.1	357	5
2023-09-27T12:00	9432	306	-40.4	-53.6	353	5
2023-09-27T12:00	9452	305	-40.5	-53.7	349	5
2023-09-27T12:00	9482	304	-40.7	-53.7	347	5
2023-09-27T12:00	9511	302	-41.1	-54.5	345	6
2023-09-27T12:00	9533	301	-41.2	-54.9	342	6
2023-09-27T12:00	9556	300	-41.4	-55.2	339	6
2023-09-27T12:00	9579	299	-41.6	-54.8	338	6
2023-09-27T12:00	9598	298	-41.8	-55.1	338	7
2023-09-27T12:00	9622	297	-41.8	-55.0	339	7
2023-09-27T12:00	9645	296	-42.2		340	7
2023-09-27T12:00	9674	295	-42.5	-54.9	340	7
2023-09-27T12:00	9699	294	-42.7	-55.3	339	8
2023-09-27T12:00	9725	293	-43.0	-55.2	338	7
2023-09-27T12:00	9748	292	-43.2	-55.2	336	7
2023-09-27T12:00	9767	291	-43.3	-55.4	336	7
2023-09-27T12:00	9785	290	-43.6	-55.6	336	7
2023-09-27T12:00	9807	289	-43.7	-55.6	335	7
2023-09-27T12:00	9832	288	-43.9	-56.1	333	7
2023-09-27T12:00	9861	287	-44.1	-56.6	331	7
2023-09-27T12:00	9896	286	-44.5	-56.5	330	7
2023-09-27T12:00	9923	284	-44.8	-56.5	330	8
2023-09-27T12:00	9941	284	-44.9	-56.4	331	8
2023-09-27T12:00	9962	283	-45.1	-56.4	333	8
2023-09-27T12:00	9987	282	-45.1	-56.3	334	9
2023-09-27T12:00	10008	281	-45.5	-56.6	335	9
2023-09-27T12:00	10029	280	-45.6	-56.9	334	9
2023-09-27T12:00	10049	279	-45.9	-57.1	333	9
2023-09-27T12:00	10077	278	-46.1	-57.0	332	9
2023-09-27T12:00	10096	277	-46.3	-57.3	330	9
2023-09-27T12:00	10118	276	-46.5	-57.8	330	9
2023-09-27T12:00	10141	275	-46.7	-58.0	329	9
2023-09-27T12:00	10170	274	-46.8	-58.4	327	9
2023-09-27T12:00	10188	273	-46.8	-59.2	325	9
2023-09-27T12:00	10213	272	-46.9	-60.1	322	9
2023-09-27T12:00	10243	271	-46.9	-60.8	320	9
2023-09-27T12:00	10268	270	-46.9	-61.7	320	8
2023-09-27T12:00	10294	269	-46.9	-62.0	322	7
2023-09-27T12:00	10317	268	-47.1	-62.0	326	6
2023-09-27T12:00	10345	267	-47.2	-61.7	331	5
2023-09-27T12:00	10371	266	-47.4	-61.9	335	4
2023-09-27T12:00	10397	265	-47.6	-62.0	334	3
2023-09-27T12:00	10421	264	-47.8	-61.8	327	2
2023-09-27T12:00	10444	263	-48.0	-61.9	304	1
2023-09-27T12:00	10465	262	-48.1	-61.8	265	1
2023-09-27T12:00	10492	261	-48.4	-61.9	244	2
2023-09-27T12:00	10518	260	-48.6	-62.1	239	2
2023-09-27T12:00	10541	259	-48.7	-62.2	240	3
2023-09-27T12:00	10566	258	-49.0	-62.2	242	3
2023-09-27T12:00	10591	257	-49.2	-62.3	241	4
2023-09-27T12:00	10619	256	-49.4	-62.4	238	4
2023-09-27T12:00	10645	255	-49.6	-62.5	235	5
2023-09-27T12:00	10673	254	-49.7	-62.7	232	6
2023-09-27T12:00	10701	253	-50.0	-63.1	232	6
2023-09-27T12:00	10720	252	-50.1	-63.1	233	7
2023-09-27T12:00	10742	251	-50.0	-63.1	234	7
2023-09-27T12:00	10763	250	-50.2	-63.3	235	7
2023-09-27T12:00	10783	250	-50.4	-63.4	236	7
2023-09-27T12:00	10805	249	-50.4	-63.5	237	7
2023-09-27T12:00	10826	248	-50.5	-63.5	238	8
2023-09-27T12:00	10848	247	-50.7	-63.6	239	8
2023-09-27T12:00	10871	246	-50.9	-63.8	240	8
2023-09-27T12:00	10893	245	-51.0	-63.9	241	8
2023-09-27T12:00	10915	245	-51.1	-63.9	242	8
2023-09-27T12:00	10938	244	-51.3	-64.3	242	9
2023-09-27T12:00	10957	243	-51.1	-64.4	242	9
2023-09-27T12:00	10978	242	-51.3	-64.6	242	9
2023-09-27T12:00	10998	242	-51.4	-64.5	243	9
2023-09-27T12:00	11017	241	-51.7	-64.5	243	9
2023-09-27T12:00	11039	240	-51.8	-64.4	243	9
2023-09-27T12:00	11062	239	-52.0	-64.7	244	9
2023-09-27T12:00	11085	238	-52.1	-64.9	245	9
2023-09-27T12:00	11104	238	-52.2	-65.0	247	9
2023-09-27T12:00	11128	237	-52.3	-65.0	248	9
2023-09-27T12:00	11150	236	-52.5	-65.2	250	9
2023-09-27T12:00	11170	235	-52.7	-65.4	251	9
2023-09-27T12:00	11192	234	-52.8	-65.3	251	9
2023-09-27T12:00	11213	234	-53.0	-65.3	250	9
2023-09-27T12:00	11235	233	-53.2	-65.5	250	10
2023-09-27T12:00	11260	232	-53.1	-65.6	248	10
2023-09-27T12:00	11288	231	-53.2	-65.7	247	10
2023-09-27T12:00	11312	230	-53.5	-65.9	246	10
2023-09-27T12:00	11337	229	-53.5	-65.8	244	11
2023-09-27T12:00	11363	228	-53.8	-65.9	243	11
2023-09-27T12:00	11389	227	-54.1	-65.7	243	11
2023-09-27T12:00	11415	226	-54.4	-65.6	244	12
2023-09-27T12:00	11447	225	-54.6	-65.5	244	12
2023-09-27T12:00	11468	225	-54.9	-65.5	243	12
2023-09-27T12:00	11491	224	-54.9	-65.0	241	13
2023-09-27T12:00	11515	223	-55.3	-64.7	239	13
2023-09-27T12:00	11534	222	-55.4	-64.2	238	13
2023-09-27T12:00	11557	221	-55.5	-64.0	237	13
2023-09-27T12:00	11575	221	-55.6	-64.4	237	12
2023-09-27T12:00	11596	220	-55.5	-65.0	237	12
2023-09-27T12:00	11614	219	-55.6	-65.9	239	12
2023-09-27T12:00	11637	219	-55.6	-66.4	240	12
2023-09-27T12:00	11659	218	-55.6	-66.8	241	12
2023-09-27T12:00	11681	217	-55.7	-67.1	242	12
2023-09-27T12:00	11703	216	-55.8	-67.1	244	12
2023-09-27T12:00	11726	216	-55.9	-67.2	244	11
2023-09-27T12:00	11749	215	-56.1	-67.5	245	11
2023-09-27T12:00	11770	214	-56.1	-67.8	245	11
2023-09-27T12:00	11792	213	-56.0	-68.0	244	11
2023-09-27T12:00	11813	213	-56.1	-68.3	243	11
2023-09-27T12:00	11833	212	-56.3	-68.5	242	10
2023-09-27T12:00	11853	211	-56.4	-68.6	242	10
2023-09-27T12:00	11875	211	-56.4	-68.6	241	10
2023-09-27T12:00	11895	210	-56.4	-68.5	241	10
2023-09-27T12:00	11916	209	-56.6	-68.6	241	10
2023-09-27T12:00	11937	209	-56.9	-68.7	241	10
2023-09-27T12:00	11955	208	-57.0	-68.7	240	9
2023-09-27T12:00	11975	207	-57.2	-68.8	239	9
2023-09-27T12:00	11994	207	-57.5	-69.0	236	9
2023-09-27T12:00	12020	206	-57.5	-68.9	234	9
2023-09-27T12:00	12043	205	-57.6	-68.9	231	9
2023-09-27T12:00	12064	204	-57.9	-69.0	228	10
2023-09-27T12:00	12083	204	-58.0	-69.0	226	10
2023-09-27T12:00	12105	203	-58.0	-68.9	225	10
2023-09-27T12:00	12124	202	-58.2	-69.1	224	10
2023-09-27T12:00	12143	202	-58.3	-69.1	224	10
2023-09-27T12:00	12165	201	-58.4	-69.0	225	10
2023-09-27T12:00	12187	200	-58.7	-69.1	227	10
2023-09-27T12:00	12208	200	-58.8	-69.0	228	10
2023-09-27T12:00	12228	199	-59.1	-69.2	230	10
2023-09-27T12:00	12248	199	-59.1	-69.0	231	10
2023-09-27T12:00	12268	198	-59.1	-69.0	232	10
2023-09-27T12:00	12290	197	-59.4	-69.2	233	10
2023-09-27T12:00	12311	197	-59.6	-69.2	233	10
2023-09-27T12:00	12329	196	-59.8	-69.3	233	10
2023-09-27T12:00	12351	195	-59.9	-69.3	233	10
2023-09-27T12:00	12372	195	-60.0	-69.4	232	10
2023-09-27T12:00	12394	194	-60.0	-69.5	233	10
2023-09-27T12:00	12418	193	-60.2	-69.7	235	11
2023-09-27T12:00	12440	193	-60.3	-69.7	237	11
2023-09-27T12:00	12463	192	-60.5	-69.9	239	11
2023-09-27T12:00	12486	191	-60.5	-70.1	241	12
2023-09-27T12:00	12505	191	-60.5	-70.2	243	12
2023-09-27T12:00	12524	190	-60.4	-70.2	243	13
2023-09-27T12:00	12544	189	-60.3	-70.4	244	13
2023-09-27T12:00	12567	189	-60.2	-70.6	245	13
2023-09-27T12:00	12585	188	-60.2	-70.9	246	13
2023-09-27T12:00	12607	187	-60.1	-71.1	247	13
2023-09-27T12:00	12628	187	-60.0	-71.3	249	14
2023-09-27T12:00	12651	186	-59.9	-71.3	251	14
2023-09-27T12:00	12676	185	-60.1	-71.5	252	15
2023-09-27T12:00	12696	185	-60.2	-71.9	253	15
2023-09-27T12:00	12716	184	-60.1	-72.4	254	15
2023-09-27T12:00	12738	184	-59.7	-72.7	253	15
2023-09-27T12:00	12756	183	-59.2	-73.2	253	15
2023-09-27T12:00	12776	182	-58.9	-73.7	252	14
2023-09-27T12:00	12797	182	-58.6	-74.0	251	14
2023-09-27T12:00	12818	181	-58.5	-74.3	250	13
2023-09-27T12:00	12840	181	-58.6	-74.8	249	13
2023-09-27T12:00	12864	180	-58.7	-75.3	247	13
2023-09-27T12:00	12888	179	-58.6	-75.6	244	13
2023-09-27T12:00	12910	179	-58.7	-75.8	241	13
2023-09-27T12:00	12943	178	-58.8	-75.7	239	12
2023-09-27T12:00	12967	177	-58.8	-75.6	236	12
2023-09-27T12:00	12995	176	-58.7	-75.6	233	12
2023-09-27T12:00	13024	175	-58.8	-75.8	230	12
2023-09-27T12:00	13046	175	-58.7	-75.9	228	12
2023-09-27T12:00	13069	174	-58.7	-76.2	226	12
2023-09-27T12:00	13092	173	-58.6	-76.2	225	12
2023-09-27T12:00	13113	173	-58.4	-76.2	226	13
2023-09-27T12:00	13139	172	-58.5	-76.2	226	13
2023-09-27T12:00	13160	172	-58.5	-76.2	227	13
2023-09-27T12:00	13183	171	-58.8	-76.2	227	13
2023-09-27T12:00	13211	170	-59.1	-76.1	227	13
2023-09-27T12:00	13237	170	-59.3	-76.0	227	13
2023-09-27T12:00	13260	169	-59.6	-75.9	227	13
2023-09-27T12:00	13283	168	-59.7	-75.6	226	14
2023-09-27T12:00	13304	168	-59.9	-75.6	226	14
2023-09-27T12:00	13326	167	-60.2	-75.6	226	14
2023-09-27T12:00	13350	166	-60.4	-75.5	225	14
2023-09-27T12:00	13375	166	-60.5	-75.3	224	15
2023-09-27T12:00	13397	165	-60.8		224	15
2023-09-27T12:00	13419	165	-60.8	-75.1	224	16
2023-09-27T12:00	13439	164	-61.1	-75.3	223	16
2023-09-27T12:00	13459	164	-61.0	-75.4	222	16
2023-09-27T12:00	13481	163	-60.8	-75.6	221	16
2023-09-27T12:00	13505	162	-60.6	-75.9	221	15
2023-09-27T12:00	13525	162	-60.5	-76.4	220	15
2023-09-27T12:00	13547	161	-60.5	-77.1	221	15
2023-09-27T12:00	13570	161	-60.4	-77.7	221	15
2023-09-27T12:00	13593	160	-60.0	-77.9	222	15
2023-09-27T12:00	13616	160	-60.1	-78.4	222	15
2023-09-27T12:00	13638	159	-60.3	-78.7	222	15
2023-09-27T12:00	13659	158	-60.3	-78.8	221	14
2023-09-27T12:00	13685	158	-60.4	-79.2	220	14
2023-09-27T12:00	13713	157	-60.5	-79.6	219	14
2023-09-27T12:00	13734	156	-59.9	-79.3	218	14
2023-09-27T12:00	13758	156	-60.1	-79.6	218	15
2023-09-27T12:00	13780	155	-60.3	-79.6	219	15
2023-09-27T12:00	13802	155	-60.4		220	15
2023-09-27T12:00	13822	154	-60.6	-79.6	220	15
2023-09-27T12:00	13844	154	-60.8	-79.5	221	15
2023-09-27T12:00	13866	153	-61.0	-79.6	222	15
2023-09-27T12:00	13887	153	-61.0	-79.5	224	15
2023-09-27T12:00	13909	152	-61.3	-79.8	225	16
2023-09-27T12:00	13933	152	-61.4	-79.6	226	16
2023-09-27T12:00	13953	151	-61.6	-79.7	227	16
2023-09-27T12:00	13973	151	-61.6	-79.6	228	16
2023-09-27T12:00	13995	150	-61.6	-79.7	228	16
2023-09-27T12:00	14017	150	-61.5	-79.7	229	16
2023-09-27T12:00	14039	149	-61.5	-80.0	229	16
2023-09-27T12:00	14060	148	-61.1	-79.9	228	16
2023-09-27T12:00	14082	148	-60.9	-80.0	227	16
2023-09-27T12:00	14107	147	-60.3	-80.0	225	15
2023-09-27T12:00	14129	147	-59.8	-80.0	224	15
2023-09-27T12:00	14153	146	-59.8	-80.3	223	16
2023-09-27T12:00	14178	146	-59.7	-80.5	222	16
2023-09-27T12:00	14202	145	-59.7	-80.5	222	17
2023-09-27T12:00	14222	145	-60.0	-80.7	222	17
2023-09-27T12:00	14242	144	-60.2	-80.9	222	18
2023-09-27T12:00	14264	144	-60.1	-80.9	222	18
2023-09-27T12:00	14284	143	-60.1	-81.1	222	19
2023-09-27T12:00	14309	143	-60.1	-81.2	222	19
2023-09-27T12:00	14329	142	-60.2	-81.4	222	19
2023-09-27T12:00	14354	142	-60.2	-81.6	222	19
2023-09-27T12:00	14378	141	-60.1	-81.5	223	19
2023-09-27T12:00	14402	141	-60.2	-81.6	223	18
2023-09-27T12:00	14425	140	-60.4	-81.8	224	18
2023-09-27T12:00	14449	140	-60.4	-81.9	225	18
2023-09-27T12:00	14476	139	-60.3	-82.0	226	17
2023-09-27T12:00	14500	138	-60.1	-82.0	228	17
2023-09-27T12:00	14522	138	-60.0	-82.1	229	16
2023-09-27T12:00	14545	137	-60.0	-82.2	231	16
2023-09-27T12:00	14565	137	-59.6	-82.3	233	16
2023-09-27T12:00	14590	136	-59.4	-82.3	234	15
2023-09-27T12:00	14612	136	-59.3	-82.4	233	15
2023-09-27T12:00	14634	135	-59.1	-82.4	233	15
2023-09-27T12:00	14660	135	-58.9	-82.5	231	15
2023-09-27T12:00	14684	134	-59.0	-82.8	230	15
2023-09-27T12:00	14707	134	-59.0	-83.0	229	15
2023-09-27T12:00	14730	133	-58.9	-82.9	228	16
2023-09-27T12:00	14754	133	-59.1	-83.0	227	16
2023-09-27T12:00	14777	132	-59.2	-83.1	226	16
2023-09-27T12:00	14800	132	-59.2	-83.1	226	16
2023-09-27T12:00	14823	131	-59.2	-83.1	226	16
2023-09-27T12:00	14846	131	-59.4	-83.3	226	16
2023-09-27T12:00	14867	130	-59.4	-83.3	227	16
2023-09-27T12:00	14890	130	-59.3	-83.2	227	17
2023-09-27T12:00	14914	130	-59.3	-83.2	227	17
2023-09-27T12:00	14938	129	-59.4	-83.5	226	17
2023-09-27T12:00	14960	129	-59.4	-83.5	226	17
2023-09-27T12:00	14984	128	-59.4	-83.5	225	17
2023-09-27T12:00	15004	128	-59.4	-83.5	225	17
2023-09-27T12:00	15024	127	-59.2	-83.6	225	16
2023-09-27T12:00	15045	127	-59.1	-83.5	225	16
2023-09-27T12:00	15070	126	-59.0	-83.7	225	16
2023-09-27T12:00	15093	126	-59.1	-83.7	225	15
2023-09-27T12:00	15119	125	-59.3	-83.9	226	15
2023-09-27T12:00	15144	125	-59.2	-83.8	228	15
2023-09-27T12:00	15168	124	-59.3	-83.9	230	15
2023-09-27T12:00	15195	124	-59.2	-83.6	232	15
2023-09-27T12:00	15221	123	-59.4	-83.7	234	14
2023-09-27T12:00	15248	123	-59.5	-83.8	236	14
2023-09-27T12:00	15272	122	-59.7	-84.0	236	14
2023-09-27T12:00	15297	122	-59.7	-84.0	237	14
2023-09-27T12:00	15322	121	-59.7	-84.0	236	13
2023-09-27T12:00	15343	121	-59.7	-84.0	236	13
2023-09-27T12:00	15371	120	-59.8	-84.1	235	13
2023-09-27T12:00	15395	120	-59.8	-84.1	235	13
2023-09-27T12:00	15418	119	-59.9	-84.1	234	13
2023-09-27T12:00	15445	119	-59.9	-84.1	234	13
2023-09-27T12:00	15471	119	-60.0	-84.2	234	13
2023-09-27T12:00	15491	118	-60.0	-84.2	235	12
2023-09-27T12:00	15518	118	-60.2	-84.1	237	12
2023-09-27T12:00	15540	117	-60.2	-84.1	238	12
2023-09-27T12:00	15564	117	-60.0	-84.2	240	12
2023-09-27T12:00	15589	116	-59.8	-84.1	241	11
2023-09-27T12:00	15610	116	-59.8	-84.3	241	11
2023-09-27T12:00	15634	115	-59.5	-84.1	240	11
2023-09-27T12:00	15666	115	-59.6	-84.1	238	11
2023-09-27T12:00	15696	114	-59.7	-84.2	235	11
2023-09-27T12:00	15725	114	-59.8	-84.3	231	11
2023-09-27T12:00	15758	113	-60.2	-84.4	229	10
2023-09-27T12:00	15790	113	-60.4	-84.3	227	10
2023-09-27T12:00	15823	112	-60.8	-84.6	227	10
2023-09-27T12:00	15848	112	-61.2	-84.7	227	10
2023-09-27T12:00	15871	111	-61.3	-84.8	227	11
2023-09-27T12:00	15895	111	-61.5	-84.9	228	11
2023-09-27T12:00	15918	110	-61.5	-84.9	227	12
2023-09-27T12:00	15937	110	-61.5	-84.9	227	12
2023-09-27T12:00	15961	110	-61.6	-85.0	227	12
2023-09-27T12:00	15986	109	-61.7	-85.1	226	12
2023-09-27T12:00	16008	109	-61.7	-85.1	226	13
2023-09-27T12:00	16033	108	-61.7	-84.9	227	13
2023-09-27T12:00	16056	108	-61.9	-85.1	228	13
2023-09-27T12:00	16081	107	-62.0	-84.9	230	13
2023-09-27T12:00	16105	107	-62.3	-85.2	232	13
2023-09-27T12:00	16129	107	-62.4	-85.1	235	14
2023-09-27T12:00	16154	106	-62.4	-85.1	237	14
2023-09-27T12:00	16179	106	-62.5	-84.9	239	14
2023-09-27T12:00	16204	105	-62.6	-85.0	241	14
2023-09-27T12:00	16229	105	-62.6	-84.8	243	15
2023-09-27T12:00	16253	104	-62.8	-85.0	244	15
2023-09-27T12:00	16276	104	-62.9	-85.1	246	15
2023-09-27T12:00	16300	104	-63.0	-85.2	247	14
2023-09-27T12:00	16326	103	-63.0	-85.2	248	13
2023-09-27T12:00	16350	103	-63.0	-85.3	248	12
2023-09-27T12:00	16375	102	-62.6	-85.2	247	11
2023-09-27T12:00	16402	102	-62.3	-85.2	244	10
2023-09-27T12:00	16426	102	-62.1	-85.2	240	9
2023-09-27T12:00	16450	101	-61.8	-85.2	236	8
2023-09-27T12:00	16473	101	-61.7	-85.3	231	7
2023-09-27T12:00	16494	100	-61.7	-85.5	227	7
2023-09-27T12:00	16521	100	-61.6	-85.7	223	7
2023-09-27T12:00	16543	100	-61.1	-85.6	219	7
2023-09-27T12:00	16568	99	-60.7	-85.5	217	7
2023-09-27T12:00	16593	99	-60.5	-85.6	215	7
2023-09-27T12:00	16616	99	-60.6	-85.7	214	7
2023-09-27T12:00	16641	98	-60.7	-85.8	215	7
2023-09-27T12:00	16664	98	-60.8	-85.8	216	7
2023-09-27T12:00	16688	97	-60.8	-85.8	218	7
2023-09-27T12:00	16709	97	-60.7	-85.8	219	7
2023-09-27T12:00	16734	97	-60.7	-86.0	218	7
2023-09-27T12:00	16759	96	-60.6	-86.0	216	8
2023-09-27T12:00	16783	96	-60.6	-86.3	213	8
2023-09-27T12:00	16807	96	-60.4	-86.1	209	8
2023-09-27T12:00	16831	95	-60.0	-86.1	205	9
2023-09-27T12:00	16857	95	-60.1	-86.2	202	10
2023-09-27T12:00	16881	94	-60.4		200	10
2023-09-27T12:00	16904	94	-60.6	-86.6	199	11
2023-09-27T12:00	16928	94	-60.6	-86.3	200	11
2023-09-27T12:00	16952	93	-60.8	-86.4	201	12
2023-09-27T12:00	16975	93	-60.9	-86.5	203	12
2023-09-27T12:00	16997	93	-60.8	-86.4	206	12
2023-09-27T12:00	17022	92	-61.1	-86.6	209	12
2023-09-27T12:00	17047	92	-61.1	-86.6	213	12
2023-09-27T12:00	17070	92	-61.1	-86.6	216	13
2023-09-27T12:00	17094	91	-61.3	-86.8	220	13
2023-09-27T12:00	17121	91	-61.4	-86.9	223	12
2023-09-27T12:00	17145	90	-61.3	-86.8	226	12
2023-09-27T12:00	17172	90	-61.2	-87.0	229	12
2023-09-27T12:00	17196	90	-61.0	-86.9	232	11
2023-09-27T12:00	17222	89	-60.7	-87.0	233	11
2023-09-27T12:00	17244	89	-60.5	-87.2	234	11
2023-09-27T12:00	17269	89	-60.4	-87.1	233	11
2023-09-27T12:00	17297	88	-60.4	-87.1	231	11
2023-09-27T12:00	17322	88	-60.4	-87.1	230	11
2023-09-27T12:00	17350	88	-60.3	-87.0	229	11
2023-09-27T12:00	17380	87	-60.4	-86.7	228	11
2023-09-27T12:00	17402	87	-60.7	-87.0	227	11
2023-09-27T12:00	17431	86	-61.1	-87.0	227	11
2023-09-27T12:00	17451	86	-61.1	-87.0	227	12
2023-09-27T12:00	17477	86	-61.3	-86.8	228	12
2023-09-27T12:00	17500	85	-61.8	-87.2	229	12
2023-09-27T12:00	17525	85	-61.9	-87.6	231	12
2023-09-27T12:00	17549	85	-61.6	-87.3	233	12
2023-09-27T12:00	17573	84	-61.2	-87.3	235	12
2023-09-27T12:00	17597	84	-60.7	-87.3	236	12
2023-09-27T12:00	17625	84	-60.5	-87.2	237	12
2023-09-27T12:00	17646	83	-60.5	-87.2	238	12
2023-09-27T12:00	17671	83	-60.4	-87.1	239	12
2023-09-27T12:00	17698	83	-60.4	-87.1	239	12
2023-09-27T12:00	17723	82	-60.5	-87.2	240	12
2023-09-27T12:00	17745	82	-60.7	-87.3	241	12
2023-09-27T12:00	17769	82	-60.7	-87.3	242	11
2023-09-27T12:00	17795	82	-60.6	-87.2	243	11
2023-09-27T12:00	17818	81	-60.7	-87.3	244	11
2023-09-27T12:00	17842	81	-60.9	-87.5	245	10
2023-09-27T12:00	17866	81	-60.8	-87.7	247	10
2023-09-27T12:00	17892	80	-60.7	-87.7	248	9
2023-09-27T12:00	17915	80	-60.7	-87.7	249	9
2023-09-27T12:00	17935	80	-60.6	-88.0	251	9
2023-09-27T12:00	17963	79	-60.3	-87.8	252	8
2023-09-27T12:00	17987	79	-60.4	-87.8	253	8
2023-09-27T12:00	18011	79	-60.5	-87.9	254	8
2023-09-27T12:00	18036	78	-60.5	-87.9	255	7
2023-09-27T12:00	18062	78	-60.6	-88.0	256	7
2023-09-27T12:00	18086	78	-60.5	-87.9	257	6
2023-09-27T12:00	18108	78	-60.3	-87.8	257	6
2023-09-27T12:00	18128	77	-60.3	-88.2	255	5
2023-09-27T12:00	18156	77	-60.4	-88.2	252	5
2023-09-27T12:00	18179	77	-60.4	-88.2	247	5
2023-09-27T12:00	18206	76	-60.3	-88.2	241	5
2023-09-27T12:00	18230	76	-60.3	-88.2	237	6
2023-09-27T12:00	18256	76	-60.0	-88.4	235	6
2023-09-27T12:00	18280	75	-60.0	-88.4	235	6
2023-09-27T12:00	18306	75	-59.7	-88.2	235	6
2023-09-27T12:00	18331	75	-59.7	-88.2	235	6
2023-09-27T12:00	18356	74	-59.8	-88.7	235	5
2023-09-27T12:00	18381	74	-59.4	-88.4	233	5
2023-09-27T12:00	18408	74	-59.0	-88.1	231	5
2023-09-27T12:00	18433	74	-59.1	-88.2	228	5
2023-09-27T12:00	18456	73	-59.3	-88.3	226	5
2023-09-27T12:00	18482	73	-59.2	-88.3	224	5
2023-09-27T12:00	18508	73	-59.1	-88.2	222	5
2023-09-27T12:00	18532	72	-59.1	-88.2	221	5
2023-09-27T12:00	18560	72	-59.2	-88.3	218	5
2023-09-27T12:00	18586	72	-59.4	-88.4	216	6
2023-09-27T12:00	18613	72	-59.4	-88.4	213	6
2023-09-27T12:00	18636	71	-59.4	-88.4	212	7
2023-09-27T12:00	18660	71	-59.6	-88.6	211	7
2023-09-27T12:00	18688	71	-59.7	-88.6	211	8
2023-09-27T12:00	18712	70	-59.8	-88.7	212	8
2023-09-27T12:00	18738	70	-59.7	-88.6	214	8
2023-09-27T12:00	18760	70	-59.6	-88.6	216	8
2023-09-27T12:00	18787	70	-59.7	-88.6	218	7
2023-09-27T12:00	18811	69	-59.7	-88.6	221	7
2023-09-27T12:00	18834	69	-59.6	-88.6	222	7
2023-09-27T12:00	18860	69	-59.4	-88.4	222	7
2023-09-27T12:00	18886	68	-59.2	-88.8	222	7
2023-09-27T12:00	18910	68	-59.1	-88.7	220	7
2023-09-27T12:00	18935	68	-59.1	-88.7	219	7
2023-09-27T12:00	18959	68	-59.2	-88.8	218	7
2023-09-27T12:00	18984	67	-59.1	-88.7	218	8
2023-09-27T12:00	19009	67	-59.3	-88.3	219	8
2023-09-27T12:00	19033	67	-59.3	-88.3	221	8
2023-09-27T12:00	19058	67	-59.4	-88.4	224	8
2023-09-27T12:00	19083	66	-59.5	-88.5	228	8
2023-09-27T12:00	19106	66	-59.6	-88.6	232	8
2023-09-27T12:00	19132	66	-59.6	-88.6	237	8
2023-09-27T12:00	19154	66	-59.6	-88.6	243	7
2023-09-27T12:00	19179	65	-59.6	-89.1	248	7
2023-09-27T12:00	19204	65	-59.4	-89.0	253	7
2023-09-27T12:00	19226	65	-59.2	-88.8	258	7
2023-09-27T12:00	19248	65	-59.3	-88.9	261	6
2023-09-27T12:00	19273	64	-59.0	-88.7	264	6
2023-09-27T12:00	19297	64	-58.9	-89.2	265	6
2023-09-27T12:00	19322	64	-59.0	-89.2	265	5
2023-09-27T12:00	19346	64	-59.0	-89.2	263	5
2023-09-27T12:00	19368	63	-58.8	-89.1	261	4
2023-09-27T12:00	19391	63	-58.6	-88.9	258	4
2023-09-27T12:00	19416	63	-58.3	-88.7	255	4
2023-09-27T12:00	19439	63	-58.2	-88.6	252	3
2023-09-27T12:00	19463	62	-58.1	-88.6	249	3
2023-09-27T12:00	19490	62	-57.9	-89.1	245	3
2023-09-27T12:00	19512	62	-57.9	-89.1	239	3
2023-09-27T12:00	19539	62	-57.7	-88.9	231	2
2023-09-27T12:00	19562	61	-57.4	-88.7	222	2
2023-09-27T12:00	19587	61	-57.5	-88.1	214	2
2023-09-27T12:00	19613	61	-57.6	-88.2	207	2
2023-09-27T12:00	19639	61	-57.7	-88.3	203	2
2023-09-27T12:00	19662	60	-57.7	-88.3	200	2
2023-09-27T12:00	19686	60	-57.9	-88.4	199	2
2023-09-27T12:00	19713	60	-58.0	-87.9	196	2
2023-09-27T12:00	19740	60	-58.3	-88.1	192	2
2023-09-27T12:00	19764	60	-58.6	-88.4	184	2
2023-09-27T12:00	19789	59	-58.8	-88.5	172	2
2023-09-27T12:00	19813	59	-58.9	-88.0	163	2
2023-09-27T12:00	19842	59	-59.1	-88.2	159	3
2023-09-27T12:00	19868	59	-59.3	-88.3	160	3
2023-09-27T12:00	19890	58	-59.4	-88.4	165	4
2023-09-27T12:00	19921	58	-59.7	-89.2	171	4
2023-09-27T12:00	19943	58	-59.5	-89.0	178	5
2023-09-27T12:00	19970	58	-59.3	-88.9	184	5
2023-09-27T12:00	20000	57	-59.5	-89.0	189	6
2023-09-27T12:00	20023	57	-59.4	-88.4	192	6
2023-09-27T12:00	20050	57	-59.2	-88.3	194	7
2023-09-27T12:00	20076	57	-59.4	-88.4	196	7
2023-09-27T12:00	20105	56	-59.6	-88.6	199	7
2023-09-27T12:00	20131	56	-59.3	-88.9	204	8
2023-09-27T12:00	20162	56	-58.9	-88.6	209	8
2023-09-27T12:00	20187	56	-59.0	-88.7	216	8
2023-09-27T12:00	20217	55	-59.0	-88.7	223	8
2023-09-27T12:00	20245	55	-59.2	-88.8	230	8
2023-09-27T12:00	20276	55	-59.1	-88.7	236	8
2023-09-27T12:00	20302	55	-59.2	-88.8	243	7
2023-09-27T12:00	20328	54	-59.2	-88.8	248	7
2023-09-27T12:00	20350	54	-59.1	-88.7	253	7
2023-09-27T12:00	20376	54	-59.2	-88.8	257	6
2023-09-27T12:00	20402	54	-59.3	-88.9	261	6
2023-09-27T12:00	20428	54	-59.3	-88.9	262	5
2023-09-27T12:00	20452	53	-59.2	-88.8	262	5
2023-09-27T12:00	20481	53	-59.0	-88.7	260	4
2023-09-27T12:00	20506	53	-58.9	-88.6	256	4
2023-09-27T12:00	20534	53	-58.6	-88.4	252	4
2023-09-27T12:00	20559	52	-58.7	-88.4	250	4
2023-09-27T12:00	20589	52	-58.8	-88.5	252	4
2023-09-27T12:00	20612	52	-58.9	-88.6	258	4
2023-09-27T12:00	20641	52	-58.9	-88.6	266	4
2023-09-27T12:00	20664	52	-58.8	-88.5	274	5
2023-09-27T12:00	20688	51	-58.8	-88.5	282	5
2023-09-27T12:00	20713	51	-58.8	-88.5	288	5
2023-09-27T12:00	20742	51	-59.1	-88.7	294	5
2023-09-27T12:00	20766	51	-59.2	-88.8	299	5
2023-09-27T12:00	20789	51	-59.2	-88.8	304	5
2023-09-27T12:00	20815	50	-58.9	-88.6	308	4
2023-09-27T12:00	20839	50	-58.8	-88.5	312	4
2023-09-27T12:00	20866	50	-58.6	-88.9	315	3
2023-09-27T12:00	20893	50	-58.5	-88.9	314	2
2023-09-27T12:00	20920	50	-58.5	-88.9	304	1
2023-09-27T12:00	20947	49	-58.4	-88.8	277	1
2023-09-27T12:00	20971	49	-58.2	-88.6	244	1
2023-09-27T12:00	20995	49	-58.1	-88.6	231	1
2023-09-27T12:00	21024	49	-58.0	-88.5	232	1
2023-09-27T12:00	21048	49	-58.0	-88.5	239	1
2023-09-27T12:00	21075	48	-57.9	-88.4	244	1
2023-09-27T12:00	21101	48	-58.0	-88.5	244	1
2023-09-27T12:00	21128	48	-58.0	-88.5	238	2
2023-09-27T12:00	21155	48	-57.9	-88.4	230	2
2023-09-27T12:00	21180	47	-58.1	-88.6	224	2
2023-09-27T12:00	21209	47	-58.5	-88.3	220	3
2023-09-27T12:00	21235	47	-58.6	-88.4	217	3
2023-09-27T12:00	21258	47	-58.5	-88.3	216	3
2023-09-27T12:00	21284	47	-58.5	-88.3	214	4
2023-09-27T12:00	21312	47	-58.5	-88.3	212	4
2023-09-27T12:00	21335	46	-58.7	-88.4	210	4
2023-09-27T12:00	21364	46	-58.8	-88.5	207	4
2023-09-27T12:00	21392	46	-58.7	-88.4	205	4
2023-09-27T12:00	21418	46	-58.8	-88.5	203	4
2023-09-27T12:00	21447	46	-58.8	-88.5	203	4
2023-09-27T12:00	21469	45	-58.9	-88.6	205	4
2023-09-27T12:00	21497	45	-58.8	-88.5	208	4
2023-09-27T12:00	21521	45	-58.7	-89.0	211	3
2023-09-27T12:00	21549	45	-58.5	-88.9	214	3
2023-09-27T12:00	21575	45	-58.4	-88.8	214	3
2023-09-27T12:00	21604	44	-58.2	-88.6	211	3
2023-09-27T12:00	21627	44	-57.9	-88.4	207	3
2023-09-27T12:00	21653	44	-57.9	-88.4	204	3
2023-09-27T12:00	21680	44	-58.0	-88.5	201	3
2023-09-27T12:00	21704	44	-58.1	-88.6	200	3
2023-09-27T12:00	21732	44	-57.9	-88.4	201	2
2023-09-27T12:00	21761	43	-57.9	-88.4	204	2
2023-09-27T12:00	21784	43	-57.8	-88.3	209	2
2023-09-27T12:00	21812	43	-57.7	-88.3	215	2
2023-09-27T12:00	21837	43	-57.8	-88.3	223	2
2023-09-27T12:00	21864	43	-57.8	-88.3	232	2
2023-09-27T12:00	21893	42	-57.9	-88.4	240	2
2023-09-27T12:00	21919	42	-58.1	-88.6	247	2
2023-09-27T12:00	21945	42	-58.0	-88.5	252	3
2023-09-27T12:00	21968	42	-58.0	-88.5	255	3
2023-09-27T12:00	21992	42	-58.1	-88.6	259	3
2023-09-27T12:00	22026	42	-58.2	-88.6	263	4
2023-09-27T12:00	22051	41	-58.2	-88.6	268	4
2023-09-27T12:00	22075	41	-58.4	-88.8	272	5
2023-09-27T12:00	22101	41	-58.4	-88.8	276	5
2023-09-27T12:00	22128	41	-58.3	-88.7	278	6
2023-09-27T12:00	22152	41	-58.3	-88.7	281	6
2023-09-27T12:00	22176	41	-58.4	-88.8	282	6
2023-09-27T12:00	22204	40	-58.2	-89.3	284	6
2023-09-27T12:00	22230	40	-57.9	-89.1	287	6
2023-09-27T12:00	22254	40	-57.7	-88.9	289	6
2023-09-27T12:00	22280	40	-57.6	-88.9	293	5
2023-09-27T12:00	22307	40	-57.8	-89.0	299	5
2023-09-27T12:00	22328	40	-58.0	-89.1	307	4
2023-09-27T12:00	22355	39	-58.0	-89.1	316	4
2023-09-27T12:00	22381	39	-58.0	-89.1	326	3
2023-09-27T12:00	22407	39	-57.9	-89.1	336	3
2023-09-27T12:00	22432	39	-57.8	-89.0	346	3
2023-09-27T12:00	22460	39	-57.8	-89.0	356	3
2023-09-27T12:00	22483	39	-57.9	-89.1	6	3
2023-09-27T12:00	22512	38	-57.9	-89.1	17	3
2023-09-27T12:00	22541	38	-58.0	-89.1	30	2
2023-09-27T12:00	22564	38	-57.9	-89.1	46	2
2023-09-27T12:00	22589	38	-57.7	-88.9	68	2
2023-09-27T12:00	22619	38	-57.4	-88.7	92	2
2023-09-27T12:00	22647	38	-57.4	-88.7	113	2
2023-09-27T12:00	22672	37	-57.7	-88.9	128	3
2023-09-27T12:00	22701	37	-57.6	-88.9	139	4
2023-09-27T12:00	22733	37	-57.5	-88.8	148	4
2023-09-27T12:00	22754	37	-57.5	-88.8	157	5
2023-09-27T12:00	22783	37	-57.5	-88.8	165	6
2023-09-27T12:00	22812	37	-57.6	-88.9	171	6
2023-09-27T12:00	22841	37	-57.7	-88.9	177	7
2023-09-27T12:00	22864	36	-57.7	-88.9	183	7
2023-09-27T12:00	22890	36	-57.6	-88.9	188	8
2023-09-27T12:00	22922	36	-57.7	-88.3	193	8
2023-09-27T12:00	22947	36	-57.8	-88.3	200	9
2023-09-27T12:00	22980	36	-58.1	-88.6	206	9
2023-09-27T12:00	23010	36	-58.2	-89.3	213	10
2023-09-27T12:00	23040	35	-58.1	-89.2	219	11
2023-09-27T12:00	23071	35	-58.0	-89.1	223	11
2023-09-27T12:00	23099	35	-57.7	-88.9	227	11
2023-09-27T12:00	23134	35	-57.6	-88.9	230	11
2023-09-27T12:00	23157	35	-57.5	-88.8	232	11
2023-09-27T12:00	23186	35	-57.4	-89.4	233	10
2023-09-27T12:00	23207	34	-57.2	-89.3	233	9
2023-09-27T12:00	23232	34	-57.0	-89.2	233	8
2023-09-27T12:00	23257	34	-57.1	-89.2	234	8
2023-09-27T12:00	23282	34	-57.1	-89.2	237	7
2023-09-27T12:00	23311	34	-57.1	-89.2	242	6
2023-09-27T12:00	23344	34	-57.2	-89.3	250	6
2023-09-27T12:00	23366	34	-57.2	-89.3	259	5
2023-09-27T12:00	23397	33	-57.1	-88.5	269	5
2023-09-27T12:00	23424	33	-57.1	-88.5	276	5
2023-09-27T12:00	23452	33	-57.2	-88.6	282	5
2023-09-27T12:00	23480	33	-57.4	-88.7	285	4
2023-09-27T12:00	23510	33	-57.6	-88.9	285	4
2023-09-27T12:00	23538	33	-57.6	-88.9	282	4
2023-09-27T12:00	23567	33	-57.6	-88.9	276	4
2023-09-27T12:00	23595	32	-57.7	-88.9	268	3
2023-09-27T12:00	23619	32	-57.9	-89.1	258	3
2023-09-27T12:00	23646	32	-58.1	-89.2	248	3
2023-09-27T12:00	23674	32	-58.1	-89.2	237	3
2023-09-27T12:00	23706	32	-58.2	-89.3	227	3
2023-09-27T12:00	23731	32	-58.3	-89.4	218	3
2023-09-27T12:00	23756	32	-58.3	-89.4	214	3
2023-09-27T12:00	23784	31	-58.4	-89.4	215	3
2023-09-27T12:00	23812	31	-58.4	-89.4	221	3
2023-09-27T12:00	23838	31	-58.3	-89.4	232	3
2023-09-27T12:00	23865	31	-58.4	-89.4	244	4
2023-09-27T12:00	23892	31	-58.5	-89.5	254	4
2023-09-27T12:00	23916	31	-58.5	-89.5	263	5
2023-09-27T12:00	23947	31	-58.5	-89.5	269	5
2023-09-27T12:00	23974	31	-58.4	-89.4	275	6
2023-09-27T12:00	24003	30	-58.3	-89.4	279	6
2023-09-27T12:00	24034	30	-58.3	-89.4	282	6
2023-09-27T12:00	24055	30	-58.3	-89.4	284	6
2023-09-27T12:00	24082	30	-58.2	-89.3	285	6
2023-09-27T12:00	24115	30	-58.1	-89.2	285	5
2023-09-27T12:00	24143	30	-58.1	-89.2	283	5
2023-09-27T12:00	24166	30	-58.2	-89.3	279	4
2023-09-27T12:00	24201	29	-58.1	-89.2	274	4
2023-09-27T12:00	24227	29	-58.1	-89.2	268	3
2023-09-27T12:00	24252	29	-58.3	-89.4	265	4
2023-09-27T12:00	24285	29	-58.4	-89.4	265	4
2023-09-27T12:00	24311	29	-58.3	-89.4	269	4
2023-09-27T12:00	24336	29	-58.2	-89.3	273	5
2023-09-27T12:00	24366	29	-58.2	-90.0	277	5
2023-09-27T12:00	24391	29	-58.1	-90.0	279	5
2023-09-27T12:00	24421	28	-57.8	-89.7	281	5
2023-09-27T12:00	24451	28	-57.4	-89.4	282	5
2023-09-27T12:00	24477	28	-57.2	-89.3	284	5
2023-09-27T12:00	24502	28	-57.3	-89.4	286	4
2023-09-27T12:00	24535	28	-57.3	-89.4	288	4
2023-09-27T12:00	24559	28	-57.1	-89.2	290	4
2023-09-27T12:00	24592	28	-56.9	-89.1	291	4
2023-09-27T12:00	24617	28	-56.8	-89.0	291	4
2023-09-27T12:00	24645	27	-56.8	-89.0	288	4
2023-09-27T12:00	24678	27	-56.8	-89.0	285	4
2023-09-27T12:00	24702	27	-56.8	-89.0	282	4
2023-09-27T12:00	24730	27	-56.8	-89.0	281	5
2023-09-27T12:00	24762	27	-56.8	-89.0	281	5
2023-09-27T12:00	24789	27	-56.8	-89.0	283	5
2023-09-27T12:00	24816	27	-56.9	-89.1	286	6
2023-09-27T12:00	24842	27	-57.0	-89.2	290	6
2023-09-27T12:00	24877	26	-56.8	-89.0	293	6
2023-09-27T12:00	24902	26	-56.6	-89.7	297	6
2023-09-27T12:00	24933	26	-56.5	-89.6	301	6
2023-09-27T12:00	24959	26	-56.3	-89.5	307	6
2023-09-27T12:00	24990	26	-56.0	-89.3	313	6
2023-09-27T12:00	25016	26	-56.1	-89.4	321	6
2023-09-27T12:00	25046	26	-56.4	-89.6	328	5
2023-09-27T12:00	25072	26	-56.5	-88.8	333	5
2023-09-27T12:00	25102	26	-56.6	-88.9	336	4
2023-09-27T12:00	25133	25	-56.8	-89.0	335	3
2023-09-27T12:00	25161	25	-56.7	-88.9	329	3
2023-09-27T12:00	25186	25	-56.7	-88.9	319	3
2023-09-27T12:00	25211	25	-56.6	-88.9	307	3
2023-09-27T12:00	25241	25	-56.5	-89.6	299	3
2023-09-27T12:00	25270	25	-56.3	-89.5	294	4
2023-09-27T12:00	25298	25	-56.1	-89.4	293	4
2023-09-27T12:00	25320	25	-56.1	-89.4	293	4
2023-09-27T12:00	25351	25	-56.2	-89.4	292	5
2023-09-27T12:00	25378	24	-56.0	-89.3	291	4
2023-09-27T12:00	25408	24	-55.7	-89.1	286	4
2023-09-27T12:00	25435	24	-55.6	-89.0	279	4
2023-09-27T12:00	25461	24	-55.5	-88.9	272	4
2023-09-27T12:00	25489	24	-55.4	-88.9	266	4
2023-09-27T12:00	25520	24	-55.3	-88.8	264	4
2023-09-27T12:00	25546	24	-55.2	-88.7	268	4
2023-09-27T12:00	25578	24	-55.1	-88.6	277	3
2023-09-27T12:00	25605	24	-55.1	-88.6	289	3
2023-09-27T12:00	25632	23	-55.2	-88.7	302	4
2023-09-27T12:00	25661	23	-55.0	-88.6	312	4
2023-09-27T12:00	25687	23	-55.1	-88.6	319	5
2023-09-27T12:00	25718	23	-55.3	-88.8	323	5
2023-09-27T12:00	25745	23	-55.2	-88.7	324	6
2023-09-27T12:00	25780	23	-55.3	-88.8	325	6
2023-09-27T12:00	25803	23	-55.4	-88.9	326	6
2023-09-27T12:00	25833	23	-55.5	-88.9	326	7
2023-09-27T12:00	25859	23	-55.5	-88.9	327	7
2023-09-27T12:00	25888	23	-55.5	-88.9	328	8
2023-09-27T12:00	25919	22	-55.6	-89.0	330	8
2023-09-27T12:00	25954	22	-55.7	-89.1	332	8
2023-09-27T12:00	25977	22	-55.8	-89.1	336	8
2023-09-27T12:00	26003	22	-55.7	-89.1	340	7
2023-09-27T12:00	26034	22	-55.6	-89.0	346	7
2023-09-27T12:00	26058	22	-55.6	-89.0	352	6
2023-09-27T12:00	26090	22	-55.6	-89.0	358	5
2023-09-27T12:00	26131	22	-55.7	-89.1	1	5
2023-09-27T12:00	26159	22	-55.8	-89.1	1	4
2023-09-27T12:00	26185	22	-55.8	-89.1	354	4
2023-09-27T12:00	26213	21	-55.7	-89.1	341	3
2023-09-27T12:00	26245	21	-55.4	-88.9	322	3
2023-09-27T12:00	26275	21	-55.4	-88.9	306	3
2023-09-27T12:00	26300	21	-55.4	-88.9	297	4
2023-09-27T12:00	26326	21	-55.6	-89.0	295	4
2023-09-27T12:00	26359	21	-55.7	-89.1	297	5
2023-09-27T12:00	26393	21	-55.6	-89.0	300	5
2023-09-27T12:00	26413	21	-55.4	-88.9	305	5
2023-09-27T12:00	26438	21	-55.3	-88.8	310	5
2023-09-27T12:00	26471	21	-55.2	-89.7	315	5
2023-09-27T12:00	26500	21	-55.1	-89.6	319	5
2023-09-27T12:00	26529	20	-55.0	-89.6	322	5
2023-09-27T12:00	26554	20	-55.0	-89.6	323	6
2023-09-27T12:00	26583	20	-55.0	-89.6	323	6
2023-09-27T12:00	26610	20	-55.0	-89.6	323	6
2023-09-27T12:00	26639	20	-54.9	-89.5	321	6
2023-09-27T12:00	26663	20	-54.8	-89.4	321	6
2023-09-27T12:00	26694	20	-54.9	-89.5	322	6
2023-09-27T12:00	26720	20	-55.0	-89.6	324	6
2023-09-27T12:00	26749	20	-54.9	-89.5	327	6
2023-09-27T12:00	26777	20	-54.8	-89.4	329	6
2023-09-27T12:00	26801	20	-54.7	-89.4	331	5
2023-09-27T12:00	26835	19	-54.7	-89.4	332	5
2023-09-27T12:00	26859	19	-54.6	-89.3	333	5
2023-09-27T12:00	26887	19	-54.5	-89.2	333	5
2023-09-27T12:00	26917	19	-54.5	-89.2	333	5
2023-09-27T12:00	26953	19	-54.5	-89.2	335	5
2023-09-27T12:00	26972	19	-54.4	-89.1	336	5
2023-09-27T12:00	27003	19	-54.2	-89.0	339	5
2023-09-27T12:00	27028	19	-53.9	-88.8	343	5
2023-09-27T12:00	27060	19	-53.7	-88.7	348	4
2023-09-27T12:00	27091	19	-53.9	-88.8	356	4
2023-09-27T12:00	27121	19	-54.0	-88.9	5	3
2023-09-27T12:00	27152	19	-54.1	-88.9	12	3
2023-09-27T12:00	27179	18	-54.0	-88.9	15	3
2023-09-27T12:00	27210	18	-53.9	-88.8	12	2
2023-09-27T12:00	27238	18	-54.0	-88.9	3	2
2023-09-27T12:00	27277	18	-54.0	-88.9	352	2
2023-09-27T12:00	27299	18	-54.0	-88.9	347	2
2023-09-27T12:00	27334	18	-54.0	-88.9	350	2
2023-09-27T12:00	27356	18	-54.0	-88.9	358	2
2023-09-27T12:00	27392	18	-54.0	-88.9	4	2
2023-09-27T12:00	27427	18	-54.0	-88.9	6	3
2023-09-27T12:00	27451	18	-53.9	-88.8	3	3
2023-09-27T12:00	27485	18	-53.9	-88.8	358	3
2023-09-27T12:00	27518	18	-53.9	-88.8	349	3
2023-09-27T12:00	27547	17	-54.0	-88.9	339	3
2023-09-27T12:00	27577	17	-54.2	-89.0	330	4
2023-09-27T12:00	27612	17	-54.3	-89.1	323	4
2023-09-27T12:00	27643	17	-54.5	-89.2	320	4
2023-09-27T12:00	27672	17	-54.6	-88.3	319	4
2023-09-27T12:00	27699	17	-54.7	-88.4	319	4
2023-09-27T12:00	27735	17	-54.7	-89.4	320	4
2023-09-27T12:00	27760	17	-54.6	-89.3	321	4
2023-09-27T12:00	27795	17	-54.7	-89.4	322	4
2023-09-27T12:00	27828	17	-54.6	-89.3	324	4
2023-09-27T12:00	27863	17	-54.4	-89.1	326	4
2023-09-27T12:00	27884	17	-54.2	-89.0	329	5
2023-09-27T12:00	27918	16	-54.1	-88.9	333	5
2023-09-27T12:00	27951	16	-54.1	-88.9	336	5
2023-09-27T12:00	27974	16	-54.0	-88.9	339	6
2023-09-27T12:00	28005	16	-54.1	-88.9	341	6
2023-09-27T12:00	28035	16	-54.2	-89.0	343	5
2023-09-27T12:00	28066	16	-54.2	-89.0	345	5
2023-09-27T12:00	28094	16	-54.1	-88.9	347	4
2023-09-27T12:00	28119	16	-54.0	-88.9	349	3
2023-09-27T12:00	28151	16	-53.8	-88.7	347	3
2023-09-27T12:00	28171	16	-53.6	-88.6	343	3
2023-09-27T12:00	28213	16	-53.5	-88.5	338	4
2023-09-27T12:00	28238	16	-53.5	-88.5	334	5
2023-09-27T12:00	28274	16	-53.5	-88.5	332	5
2023-09-27T12:00	28293	16	-53.5	-88.5	331	6
2023-09-27T12:00	28318	15	-53.4	-88.4	330	6
2023-09-27T12:00	28351	15	-53.1	-88.2	331	5
2023-09-27T12:00	28376	15	-52.7	-87.9	331	4
2023-09-27T12:00	28403	15	-52.5	-87.8	331	4
2023-09-27T12:00	28437	15	-52.3	-87.7	331	3
2023-09-27T12:00	28462	15	-52.1	-87.5	332	2
2023-09-27T12:00	28482	15	-52.0	-87.4	332	1
2023-09-27T12:00	28525	15	-51.9	-87.4	324	1
2023-09-27T12:00	28542	15	-52.0	-87.4	307	1
2023-09-27T12:00	28560	15	-52.0	-87.4	287	1
2023-09-27T12:00	28595	15	-52.0	-87.4	272	2
2023-09-27T12:00	28620	15	-52.0	-87.4	262	2
2023-09-27T12:00	28647	15	-51.9	-87.4	254	2
2023-09-27T12:00	28684	15	-51.9	-87.4	250	2
2023-09-27T12:00	28710	15	-51.9	-87.4	249	3
2023-09-27T12:00	28738	14	-51.8	-87.3	252	3
2023-09-27T12:00	28772	14	-51.8	-87.3	257	3
2023-09-27T12:00	28794	14	-51.9	-87.4	262	4
2023-09-27T12:00	28823	14	-51.9	-87.4	266	4
2023-09-27T12:00	28858	14	-52.1	-87.5	269	5
2023-09-27T12:00	28881	14	-52.3	-87.7	273	5
2023-09-27T12:00	28916	14	-52.5	-87.8	276	6
2023-09-27T12:00	28948	14	-52.7	-87.9	279	7
2023-09-27T12:00	28973	14	-52.7	-87.9	283	7
2023-09-27T12:00	29003	14	-52.5	-87.8	287	8
2023-09-27T12:00	29035	14	-52.3	-87.7	292	8
2023-09-27T12:00	29058	14	-52.0	-87.4	297	8
2023-09-27T12:00	29094	14	-51.9	-87.4	302	8
2023-09-27T12:00	29120	14	-51.9	-87.4	306	8
2023-09-27T12:00	29154	14	-52.0	-87.4	310	8
2023-09-27T12:00	29189	14	-52.1	-87.5	313	8
2023-09-27T12:00	29224	13	-52.3	-87.7	315	8
2023-09-27T12:00	29243	13	-52.2	-87.6	317	8
2023-09-27T12:00	29278	13	-52.1	-87.5	318	8
2023-09-27T12:00	29319	13	-52.2	-87.6	319	8
2023-09-27T12:00	29343	13	-52.3	-87.7	317	7
2023-09-27T12:00	29376	13	-52.4	-87.7	315	7
2023-09-27T12:00	29398	13	-52.5	-87.8	311	6
2023-09-27T12:00	29445	13	-52.5	-87.8	307	6
2023-09-27T12:00	29467	13	-52.6	-87.9	303	6
2023-09-27T12:00	29496	13	-52.8	-88.0	299	6
2023-09-27T12:00	29530	13	-52.9	-88.1	297	6
2023-09-27T12:00	29554	13	-52.8	-88.0	296	6
2023-09-27T12:00	29604	13	-52.7	-87.9	296	7
2023-09-27T12:00	29615	13	-52.7	-87.9	298	8
2023-09-27T12:00	29646	13	-52.8	-88.0	300	8
2023-09-27T12:00	29679	13	-52.8	-88.0	302	8
2023-09-27T12:00	29714	12	-52.6	-87.9	304	8
2023-09-27T12:00	29739	12	-52.5	-87.8	305	8
2023-09-27T12:00	29775	12	-52.6	-87.9	305	8
2023-09-27T12:00	29789	12	-52.4	-87.7	305	8
2023-09-27T12:00	29834	12	-52.2	-87.6	304	8
2023-09-27T12:00	29858	12	-52.1	-87.5	302	8
2023-09-27T12:00	29892	12	-52.0	-87.4	301	9
2023-09-27T12:00	29923	12	-52.0	-87.4	299	8
2023-09-27T12:00	29945	12	-51.9	-87.4	296	8
2023-09-27T12:00	29971	12	-52.0	-87.4	294	8
2023-09-27T12:00	30007	12	-52.0	-87.4	291	8
2023-09-27T12:00	30030	12	-51.8	-87.3	289	8
2023-09-27T12:00	30063	12	-51.8	-87.3	288	9
2023-09-27T12:00	30094	12	-51.8	-87.3	288	9
2023-09-27T12:00	30120	12	-51.8	-87.3	288	10
2023-09-27T12:00	30142	12	-51.7	-87.2	289	11
2023-09-27T12:00	30183	12	-51.7	-87.2	291	11
2023-09-27T12:00	30214	12	-51.7	-87.2	293	11
2023-09-27T12:00	30233	11	-51.5	-87.1	295	11
2023-09-27T12:00	30267	11	-51.3	-87.0	297	11
2023-09-27T12:00	30300	11	-51.0	-86.7	297	10
2023-09-27T12:00	30318	11	-50.9	-86.7	297	10
2023-09-27T12:00	30342	11	-50.9	-86.7	296	9
2023-09-27T12:00	30380	11	-50.6	-86.5	294	9
2023-09-27T12:00	30413	11	-50.5	-86.4	292	8
2023-09-27T12:00	30432	11	-50.5	-86.4	290	8
2023-09-27T12:00	30463	11	-50.5	-86.4	289	8
2023-09-27T12:00	30505	11	-50.5	-86.4	291	9
2023-09-27T12:00	30533	11	-50.4	-86.3	294	9
2023-09-27T12:00	30556	11	-50.1	-86.1	299	9
2023-09-27T12:00	30585	11	-49.9	-86.0	303	9
2023-09-27T12:00	30619	11	-49.9	-86.0	307	10
2023-09-27T12:00	30639	11	-50.0	-86.0	311	10
2023-09-27T12:00	30689	11	-50.1	-86.1	313	10
2023-09-27T12:00	30703	11	-50.4	-86.3	315	11
2023-09-27T12:00	30735	11	-50.6	-86.5	318	11
2023-09-27T12:00	30771	11	-50.5	-86.4	320	11
2023-09-27T12:00	30796	11	-50.4	-86.3	322	11
2023-09-27T12:00	30832	11	-50.6	-86.5	325	11
2023-09-27T12:00	30862	10	-50.7	-86.5	327	10
2023-09-27T12:00	30886	10	-50.8	-86.6	328	9
2023-09-27T12:00	30920	10	-50.8	-86.6	329	9
2023-09-27T12:00	30950	10	-50.8	-86.6	328	8
2023-09-27T12:00	30981	10	-50.6	-86.5	327	7
2023-09-27T12:00	31016	10	-50.6	-86.5	324	6
2023-09-27T12:00	31043	10	-50.7	-86.5	319	5
2023-09-27T12:00	31071	10	-50.9	-86.7	311	5
2023-09-27T12:00	31103	10	-50.9	-86.7	303	5
2023-09-27T12:00	31135	10	-50.9	-86.7	295	5
2023-09-27T12:00	31179	10	-50.9	-86.7	292	5
2023-09-27T12:00	31203	10	-51.0	-86.7	294	5
2023-09-27T12:00	31233	10	-51.1	-86.8	300	5
2023-09-27T12:00	31266	10	-51.1	-86.8	305	5
2023-09-27T12:00	31291	10	-51.2	-86.9	308	5
2023-09-27T12:00	31327	10	-51.3	-87.0	307	6
2023-09-27T12:00	31362	10	-51.2	-86.9	303	6
2023-09-27T12:00	31385	10	-51.0	-86.7	295	6
2023-09-27T12:00	31415	10	-50.8	-86.6	285	5
2023-09-27T12:00	31445	10	-50.7	-86.5	273	5
2023-09-27T12:00	31476	10	-50.6	-86.5	260	5
2023-09-27T12:00	31505	9	-50.5	-86.4	249	6
2023-09-27T12:00	31537	9	-50.4	-86.3	241	7
2023-09-27T12:00	31570	9	-50.3	-86.2	235	8
2023-09-27T12:00	31601	9	-50.1	-86.1	232	9
2023-09-27T12:00	31621	9	-49.9	-86.0	231	10
2023-09-27T12:00	31657	9	-49.8	-85.9	231	11
2023-09-27T12:00	31688	9	-49.7	-85.8	232	11
2023-09-27T12:00	31713	9	-49.6	-85.8	235	11
2023-09-27T12:00	31760	9	-49.5	-85.7	238	11
2023-09-27T12:00	31787	9	-49.4	-85.6	241	11
2023-09-27T12:00	31814	9	-49.2	-85.5	243	11
2023-09-27T12:00	31843	9	-49.0	-85.3	246	10
2023-09-27T12:00	31860	9	-49.0	-85.3	249	10
2023-09-27T12:00	31899	9	-49.0	-85.3	253	10
2023-09-27T12:00	31932	9	-49.0	-85.3	257	10
2023-09-27T12:00	31950	9	-49.0	-85.3	262	11
2023-09-27T12:00	31987	9	-49.0	-85.3	266	11
2023-09-27T12:00	32020	9	-49.0	-85.3	269	12
2023-09-27T12:00	32035	9	-49.0	-85.3	272	12
2023-09-27T12:00	32076	9	-49.2	-85.5	274	13
2023-09-27T12:00	32112	9	-49.3	-85.5	275	13
2023-09-27T12:00	32128	9	-49.4	-85.6	275	13
2023-09-27T12:00	32174	9	-49.4	-85.6	275	13
2023-09-27T12:00	32190	9	-49.3	-85.5	274	13
2023-09-27T12:00	32208	8	-49.2	-85.5	273	13
2023-09-27T12:00	32243	8	-48.9	-85.3	271	13
2023-09-27T12:00	32274	8	-48.7	-85.1	269	13
2023-09-27T12:00	32305	8	-48.6	-85.0	267	13
2023-09-27T12:00	32328	8	-48.4	-84.9	264	12
2023-09-27T12:00	32359	8	-48.4	-84.9	261	12
2023-09-27T12:00	32400	8	-48.3	-84.8	258	12
2023-09-27T12:00	32428	8	-48.3	-84.8	256	12
2023-09-27T12:00	32447	8	-48.2	-84.8	254	12
2023-09-27T12:00	32458	8	-48.1	-84.7	253	12
2023-09-27T12:00	32496	8	-47.9	-84.6	252	13
2023-09-27T12:00	32516	8	-47.8	-84.5	251	13
2023-09-27T12:00	32559	8	-47.7	-84.4	249	13
2023-09-27T12:00	32587	8	-47.6	-84.3	248	13
2023-09-27T12:00	32627	8	-47.4	-84.2	247	13
2023-09-27T12:00	32643	8	-47.1	-84.0	247	14
2023-09-27T12:00	32665	8	-46.7	-83.7	248	14
2023-09-27T12:00	32690	8	-46.4	-83.5	250	14
2023-09-27T12:00	32716	8	-46.3	-83.4	252	14
2023-09-27T12:00	32747	8	-46.3	-83.4	254	14
2023-09-27T12:00	32788	8	-46.5	-83.6	257	14
2023-09-27T12:00	32789	8	-46.6	-83.6	259	15
2023-09-27T12:00	32833	8	-46.7	-83.7	262	15
2023-09-27T12:00	32863	8	-46.8	-83.8	264	15
2023-09-27T12:00	32889	8	-46.9	-83.9	266	16
2023-09-27T12:00	32930	8	-47.0	-83.9	268	16
2023-09-27T12:00	32950	8	-47.1	-84.0	270	17
2023-09-27T12:00	32978	8	-47.1	-84.0	272	17
2023-09-27T12:00	33015	8	-46.9	-83.9	273	18
2023-09-27T12:00	33038	8	-46.8	-83.8	274	19
2023-09-27T12:00	33059	7	-46.7	-83.7	275	19
2023-09-27T12:00	33100	7	-46.6	-83.6	277	19
2023-09-27T12:00	33120	7	-46.4	-83.5	278	19
2023-09-27T12:00	33151	7	-46.2	-83.4	280	19
2023-09-27T12:00	33190	7	-45.9	-83.2	283	18
2023-09-27T12:00	33198	7	-45.6	-82.9	285	18
2023-09-27T12:00	33235	7	-45.5	-82.9	285	17
2023-09-27T18:00	118	1006	23.7	15.0	110	2
2023-09-27T18:00	143	1003	24.1	14.4	117	3
2023-09-27T18:00	168	1000	24.9	13.7	122	4
2023-09-27T18:00	190	997	24.7	13.8	125	5
2023-09-27T18:00	215	995	24.5	13.3	128	6
2023-09-27T18:00	241	992	24.7	11.4	131	6
2023-09-27T18:00	269	989	24.5	11.6	134	6
2023-09-27T18:00	294	986	24.2	11.3	137	6
2023-09-27T18:00	317	983	24.1	10.7	140	6
2023-09-27T18:00	341	980	24.0	9.8	143	6
2023-09-27T18:00	368	978	23.7	9.7	145	6
2023-09-27T18:00	390	975	23.5	9.7	147	6
2023-09-27T18:00	416	972	23.3	9.9	147	6
2023-09-27T18:00	441	969	23.0	9.5	148	6
2023-09-27T18:00	466	966	22.9	8.8	148	6
2023-09-27T18:00	492	963	22.7	8.8	149	6
2023-09-27T18:00	520	960	22.4	8.6	150	6
2023-09-27T18:00	550	957	22.2	8.9	152	6
2023-09-27T18:00	578	954	21.9	8.7	154	7
2023-09-27T18:00	605	951	21.6	8.7	155	7
2023-09-27T18:00	632	948	21.4	8.9	155	7
2023-09-27T18:00	659	945	21.1	8.8	155	7
2023-09-27T18:00	683	943	20.9	8.6	155	7
2023-09-27T18:00	710	940	20.6	8.6	155	7
2023-09-27T18:00	734	937	20.3	8.7	154	6
2023-09-27T18:00	762	934	20.1	9.0	153	6
2023-09-27T18:00	791	931	19.8	9.1	152	6
2023-09-27T18:00	819	928	19.5	9.0	150	6
2023-09-27T18:00	840	925	19.3	9.0	148	6
2023-09-27T18:00	869	923	19.0	8.9	147	6
2023-09-27T18:00	897	920	18.8	9.1	147	6
2023-09-27T18:00	923	917	18.5	8.9	147	6
2023-09-27T18:00	953	914	18.2	8.8	147	7
2023-09-27T18:00	980	911	18.0	9.0	147	7
2023-09-27T18:00	1008	908	17.7	9.0	147	7
2023-09-27T18:00	1037	905	17.4	8.9	147	7
2023-09-27T18:00	1065	902	17.1	8.8	146	7
2023-09-27T18:00	1097	898	16.8	8.8	145	7
2023-09-27T18:00	1125	895	16.6	8.8	143	6
2023-09-27T18:00	1151	892	16.3	9.2	141	6
2023-09-27T18:00	1183	889	16.0	9.1	140	6
2023-09-27T18:00	1208	887	15.7	9.0	141	6
2023-09-27T18:00	1238	883	15.4	8.9	143	6
2023-09-27T18:00	1267	881	15.2	8.9	146	6
2023-09-27T18:00	1293	878	14.9	8.7	148	5
2023-09-27T18:00	1320	875	14.6	8.7	149	5
2023-09-27T18:00	1347	872	14.4	8.7	148	5
2023-09-27T18:00	1374	869	14.2	8.6	146	5
2023-09-27T18:00	1400	867	13.9	8.6	145	5
2023-09-27T18:00	1427	864	13.7	8.6	144	5
2023-09-27T18:00	1453	861	13.4	8.4	145	5
2023-09-27T18:00	1481	858	13.1	8.4	146	6
2023-09-27T18:00	1512	855	12.8	8.4	148	6
2023-09-27T18:00	1544	852	12.5	8.2	148	6
2023-09-27T18:00	1571	849	12.2	8.4	148	6
2023-09-27T18:00	1597	846	12.0	8.4	148	5
2023-09-27T18:00	1628	844	11.7	8.3	146	5
2023-09-27T18:00	1656	841	11.4	8.2	145	5
2023-09-27T18:00	1686	838	11.1	8.2	144	4
2023-09-27T18:00	1715	835	10.8	8.2	143	4
2023-09-27T18:00	1744	832	10.6	8.4	143	4
2023-09-27T18:00	1769	829	10.3	8.3	144	3
2023-09-27T18:00	1798	826	10.0	8.2	144	3
2023-09-27T18:00	1826	824	9.8	8.3	142	4
2023-09-27T18:00	1855	821	9.5	8.4	139	4
2023-09-27T18:00	1886	818	9.3	8.4	134	4
2023-09-27T18:00	1912	815	10.0	3.3	130	4
2023-09-27T18:00	1939	813	11.2	-0.8	126	4
2023-09-27T18:00	1970	810	11.6	-3.7	123	5
2023-09-27T18:00	1996	807	12.3	-7.5	123	5
2023-09-27T18:00	2023	804	12.2	-3.8	125	5
2023-09-27T18:00	2052	802	12.4	-6.4	128	5
2023-09-27T18:00	2082	799	12.5	-4.8	130	6
2023-09-27T18:00	2112	796	12.4	-4.7	132	6
2023-09-27T18:00	2137	794	12.2	-4.9	134	6
2023-09-27T18:00	2164	791	12.1	-5.0	135	6
2023-09-27T18:00	2193	788	11.9	-5.3	135	6
2023-09-27T18:00	2219	786	11.9	-6.0	136	6
2023-09-27T18:00	2249	783	11.8	-8.7	136	6
2023-09-27T18:00	2276	781	11.9	-7.1	137	6
2023-09-27T18:00	2306	778	11.7	-6.7	138	6
2023-09-27T18:00	2333	775	11.4	-6.2	139	7
2023-09-27T18:00	2362	773	11.2	-6.1	140	7
2023-09-27T18:00	2392	770	11.1	-6.9	141	7
2023-09-27T18:00	2420	767	11.1	-7.2	142	7
2023-09-27T18:00	2447	765	10.9	-7.2	143	7
2023-09-27T18:00	2474	762	10.8	-7.7	145	7
2023-09-27T18:00	2500	760	10.8	-9.0	147	7
2023-09-27T18:00	2525	758	10.7	-9.0	150	7
2023-09-27T18:00	2552	755	10.6	-9.8	152	7
2023-09-27T18:00	2578	753	10.5	-11.9	154	7
2023-09-27T18:00	2606	750	10.4	-15.0	154	6
2023-09-27T18:00	2637	748	10.4	-19.0	155	6
2023-09-27T18:00	2668	745	10.2	-17.2	154	6
2023-09-27T18:00	2696	742	9.9	-15.7	154	5
2023-09-27T18:00	2722	740	9.6	-11.2	154	5
2023-09-27T18:00	2748	737	9.4	-10.6	154	6
2023-09-27T18:00	2777	735	9.5	-10.5	155	6
2023-09-27T18:00	2807	732	9.4	-11.0	154	6
2023-09-27T18:00	2833	730	9.3	-11.6	154	6
2023-09-27T18:00	2861	728	9.2	-11.8	155	6
2023-09-27T18:00	2888	725	9.1	-12.1	155	6
2023-09-27T18:00	2918	723	9.1	-12.7	156	6
2023-09-27T18:00	2944	720	8.9	-13.2	156	5
2023-09-27T18:00	2969	718	8.8	-13.0	158	5
2023-09-27T18:00	2997	716	8.5	-12.8	160	5
2023-09-27T18:00	3026	713	8.3	-12.5	166	4
2023-09-27T18:00	3054	711	8.1	-12.9	174	4
2023-09-27T18:00	3082	708	8.0	-13.4	183	4
2023-09-27T18:00	3106	706	7.9	-14.3	190	4
2023-09-27T18:00	3133	704	7.9	-14.5	194	4
2023-09-27T18:00	3159	702	7.9	-15.2	196	4
2023-09-27T18:00	3189	699	7.7	-16.2	195	4
2023-09-27T18:00	3220	697	7.5	-15.0	195	4
2023-09-27T18:00	3247	694	7.2	-14.5	194	4
2023-09-27T18:00	3275	692	7.1	-15.6	194	4
2023-09-27T18:00	3304	690	7.2	-16.6	195	4
2023-09-27T18:00	3333	687	7.0	-17.3	196	4
2023-09-27T18:00	3358	685	6.8	-17.6	198	4
2023-09-27T18:00	3385	683	6.6	-16.3	199	4
2023-09-27T18:00	3415	680	6.5	-15.7	200	4
2023-09-27T18:00	3443	678	6.2	-16.5	200	4
2023-09-27T18:00	3471	676	6.0	-17.1	200	5
2023-09-27T18:00	3498	673	5.8	-17.1	199	5
2023-09-27T18:00	3527	671	5.5	-16.8	199	5
2023-09-27T18:00	3553	669	5.4	-16.5	200	5
2023-09-27T18:00	3578	667	5.3	-17.0	202	5
2023-09-27T18:00	3603	665	5.1	-16.5	205	5
2023-09-27T18:00	3630	663	5.0	-17.0	207	6
2023-09-27T18:00	3657	660	4.8	-16.8	209	6
2023-09-27T18:00	3686	658	4.7	-16.5	210	6
2023-09-27T18:00	3715	656	4.5	-16.7	209	6
2023-09-27T18:00	3743	653	4.3	-17.3	208	6
2023-09-27T18:00	3772	651	4.2	-17.6	205	7
2023-09-27T18:00	3803	649	4.0	-17.7	203	7
2023-09-27T18:00	3832	646	3.9	-17.6	202	7
2023-09-27T18:00	3860	644	3.6	-17.8	201	7
2023-09-27T18:00	3886	642	3.5	-17.7	201	8
2023-09-27T18:00	3913	640	3.3	-17.8	202	8
2023-09-27T18:00	3940	638	3.1	-17.9	202	8
2023-09-27T18:00	3968	636	2.9	-17.7	202	9
2023-09-27T18:00	3993	634	2.7	-17.5	202	9
2023-09-27T18:00	4019	631	2.5	-17.5	202	9
2023-09-27T18:00	4045	629	2.4	-17.1	202	9
2023-09-27T18:00	4073	627	2.2	-17.0	201	9
2023-09-27T18:00	4103	625	2.0	-17.4	201	8
2023-09-27T18:00	4130	623	1.8	-17.1	202	8
2023-09-27T18:00	4159	621	1.6	-17.1	203	8
2023-09-27T18:00	4188	618	1.3	-17.1	203	8
2023-09-27T18:00	4217	616	1.1	-17.1	203	8
2023-09-27T18:00	4246	614	0.9	-16.8	202	8
2023-09-27T18:00	4276	612	0.7	-17.0	201	8
2023-09-27T18:00	4305	610	0.5	-17.1	200	8
2023-09-27T18:00	4336	607	0.2	-17.3	200	8
2023-09-27T18:00	4365	605	0.0	-17.2	200	9
2023-09-27T18:00	4394	603	-0.3	-17.2	200	9
2023-09-27T18:00	4422	601	-0.5	-16.9	200	9
2023-09-27T18:00	4450	598	-0.8	-17.1	200	9
2023-09-27T18:00	4480	596	-1.0	-17.0	199	9
2023-09-27T18:00	4512	594	-1.2	-17.4	199	10
2023-09-27T18:00	4543	592	-1.4	-17.4	199	10
2023-09-27T18:00	4573	589	-1.7	-18.0	199	10
2023-09-27T18:00	4605	587	-1.9	-18.1	200	10
2023-09-27T18:00	4630	585	-2.1	-18.2	202	9
2023-09-27T18:00	4658	583	-2.2	-19.1	204	9
2023-09-27T18:00	4687	581	-2.4	-19.4	207	9
2023-09-27T18:00	4718	579	-2.6	-18.6	209	9
2023-09-27T18:00	4747	577	-2.8	-18.5	211	9
2023-09-27T18:00	4776	575	-3.1	-18.5	213	9
2023-09-27T18:00	4802	573	-3.3	-19.2	214	9
2023-09-27T18:00	4832	571	-3.3	-24.9	215	9
2023-09-27T18:00	4859	568	-3.5	-24.0	215	9
2023-09-27T18:00	4888	566	-3.7	-22.8	217	9
2023-09-27T18:00	4917	564	-3.9	-24.8	218	10
2023-09-27T18:00	4945	562	-4.0	-24.6	221	10
2023-09-27T18:00	4972	560	-4.2	-23.7	223	10
2023-09-27T18:00	4993	559	-4.3	-23.1	225	10
2023-09-27T18:00	5026	557	-4.6	-22.7	227	10
2023-09-27T18:00	5053	555	-4.8	-22.4	228	10
2023-09-27T18:00	5083	553	-5.0	-22.6	228	10
2023-09-27T18:00	5109	551	-5.3	-22.8	229	10
2023-09-27T18:00	5140	549	-5.5	-23.6	229	10
2023-09-27T18:00	5167	547	-5.7	-23.8	229	10
2023-09-27T18:00	5197	544	-5.8	-24.3	230	9
2023-09-27T18:00	5228	542	-6.0	-24.8	231	9
2023-09-27T18:00	5256	540	-6.2	-25.4	231	9
2023-09-27T18:00	5285	539	-6.4	-26.0	232	9
2023-09-27T18:00	5314	537	-6.7	-25.5	232	9
2023-09-27T18:00	5342	535	-7.0	-23.6	233	9
2023-09-27T18:00	5368	533	-7.1	-24.1	233	9
2023-09-27T18:00	5396	531	-7.3		234	8
2023-09-27T18:00	5427	529	-7.6	-23.2	235	8
2023-09-27T18:00	5456	527	-7.8	-24.5	235	8
2023-09-27T18:00	5486	525	-8.0	-24.7	234	8
2023-09-27T18:00	5512	523	-8.1	-24.5	233	7
2023-09-27T18:00	5538	521	-8.3	-25.4	231	7
2023-09-27T18:00	5568	519	-8.5	-25.8	228	7
2023-09-27T18:00	5599	517	-8.7	-26.0	226	6
2023-09-27T18:00	5631	515	-8.9	-26.4	225	7
2023-09-27T18:00	5660	513	-9.2	-26.5	225	7
2023-09-27T18:00	5687	511	-9.4	-26.5	225	7
2023-09-27T18:00	5713	510	-9.6	-26.8	225	7
2023-09-27T18:00	5742	508	-9.8	-27.8	224	7
2023-09-27T18:00	5767	506	-10.0	-28.5	222	6
2023-09-27T18:00	5796	504	-10.2	-28.8	218	6
2023-09-27T18:00	5822	502	-10.4	-28.1	213	6
2023-09-27T18:00	5851	501	-10.7	-27.7	209	6
2023-09-27T18:00	5871	499	-10.9	-27.5	207	6
2023-09-27T18:00	5893	498	-11.0	-27.1	206	6
2023-09-27T18:00	5917	496	-11.2	-27.2	206	6
2023-09-27T18:00	5942	495	-11.4	-26.6	206	6
2023-09-27T18:00	5967	493	-11.6	-25.1	206	6
2023-09-27T18:00	5991	492	-11.9	-25.0	206	6
2023-09-27T18:00	6016	490	-12.1	-24.3	205	6
2023-09-27T18:00	6045	488	-12.4	-22.6	203	6
2023-09-27T18:00	6075	486	-12.7	-22.5	200	6
2023-09-27T18:00	6105	484	-12.9	-22.7	198	7
2023-09-27T18:00	6133	483	-13.2	-22.9	196	7
2023-09-27T18:00	6154	481	-13.4	-22.8	196	7
2023-09-27T18:00	6181	479	-13.7	-22.9	196	6
2023-09-27T18:00	6212	477	-14.0	-23.1	197	6
2023-09-27T18:00	6241	476	-14.3	-23.3	198	6
2023-09-27T18:00	6265	474	-14.5	-23.3	199	6
2023-09-27T18:00	6286	473	-14.7	-23.6	198	6
2023-09-27T18:00	6315	471	-14.9	-24.2	196	7
2023-09-27T18:00	6343	469	-15.1	-24.6	192	7
2023-09-27T18:00	6369	468	-15.3	-24.9	189	8
2023-09-27T18:00	6400	466	-15.6	-25.3	186	8
2023-09-27T18:00	6427	464	-15.8	-25.6	185	9
2023-09-27T18:00	6454	462	-16.1	-26.4	184	9
2023-09-27T18:00	6484	461	-16.3	-26.3	183	9
2023-09-27T18:00	6506	459	-16.6	-26.3	184	9
2023-09-27T18:00	6534	457	-16.8	-26.5	184	9
2023-09-27T18:00	6562	456	-17.1	-26.6	184	9
2023-09-27T18:00	6593	454	-17.4	-26.5	184	9
2023-09-27T18:00	6624	452	-17.7	-26.5	182	9
2023-09-27T18:00	6647	451	-17.9	-26.5	179	9
2023-09-27T18:00	6677	449	-18.1	-26.9	175	8
2023-09-27T18:00	6710	447	-18.2	-28.6	170	8
2023-09-27T18:00	6742	445	-18.3	-29.6	164	8
2023-09-27T18:00	6768	443	-18.5	-30.8	158	8
2023-09-27T18:00	6798	442	-18.7	-31.6	152	8
2023-09-27T18:00	6830	440	-18.8	-34.2	146	8
2023-09-27T18:00	6856	438	-18.9	-36.1	141	8
2023-09-27T18:00	6885	437	-19.1	-36.7	136	8
2023-09-27T18:00	6914	435	-19.2	-38.7	133	8
2023-09-27T18:00	6941	433	-19.3	-40.7	129	8
2023-09-27T18:00	6975	431	-19.4	-42.5	127	8
2023-09-27T18:00	7006	429	-19.6	-42.8	125	8
2023-09-27T18:00	7040	428	-19.8	-43.1	123	8
2023-09-27T18:00	7069	426	-19.9	-43.1	122	9
2023-09-27T18:00	7099	424	-20.1	-43.2	120	9
2023-09-27T18:00	7126	423	-20.4	-43.4	119	9
2023-09-27T18:00	7154	421	-20.6	-43.2	118	9
2023-09-27T18:00	7186	419	-20.8	-43.2	116	9
2023-09-27T18:00	7218	417	-21.1	-43.2	115	8
2023-09-27T18:00	7251	416	-21.5	-43.3	114	8
2023-09-27T18:00	7275	414	-21.7	-43.2	114	8
2023-09-27T18:00	7302	413	-21.9	-43.2	114	8
2023-09-27T18:00	7337	411	-22.1	-43.8	114	8
2023-09-27T18:00	7367	409	-22.2	-44.7	114	8
2023-09-27T18:00	7395	407	-22.5	-44.9	113	7
2023-09-27T18:00	7419	406	-22.7	-45.0	112	7
2023-09-27T18:00	7441	405	-22.9	-45.0	111	7
2023-09-27T18:00	7473	403	-23.2	-45.3	110	7
2023-09-27T18:00	7503	402	-23.5	-45.7	109	7
2023-09-27T18:00	7526	400	-23.7	-45.9	109	7
2023-09-27T18:00	7552	399	-23.8	-46.9	108	7
2023-09-27T18:00	7575	398	-23.7	-47.6	107	7
2023-09-27T18:00	7598	396	-23.8	-46.9	106	7
2023-09-27T18:00	7619	395	-24.0	-46.2	104	7
2023-09-27T18:00	7643	394	-24.2	-46.3	103	7
2023-09-27T18:00	7675	392	-24.5	-46.4	102	8
2023-09-27T18:00	7709	390	-24.8	-46.3	101	8
2023-09-27T18:00	7737	389	-25.1	-45.6	101	8
2023-09-27T18:00	7767	387	-25.4	-45.8	100	8
2023-09-27T18:00	7794	386	-25.6	-46.1	100	7
2023-09-27T18:00	7819	384	-25.8	-46.8	100	7
2023-09-27T18:00	7849	383	-26.0	-47.5	100	7
2023-09-27T18:00	7878	381	-26.2	-47.9	101	7
2023-09-27T18:00	7904	380	-26.4	-48.6	103	7
2023-09-27T18:00	7932	378	-26.6	-48.6	105	7
2023-09-27T18:00	7957	377	-26.9	-48.8	108	7
2023-09-27T18:00	7979	376	-27.1	-48.5	110	8
2023-09-27T18:00	8002	375	-27.2	-48.8	112	8
2023-09-27T18:00	8024	374	-27.4	-49.2	112	7
2023-09-27T18:00	8052	372	-27.7	-49.0	110	7
2023-09-27T18:00	8081	371	-27.9	-48.8	107	7
2023-09-27T18:00	8108	369	-28.2	-48.5	104	7
2023-09-27T18:00	8138	368	-28.5	-47.7	101	7
2023-09-27T18:00	8166	366	-28.7	-46.8	100	7
2023-09-27T18:00	8190	365	-28.9	-46.2	99	7
2023-09-27T18:00	8220	363	-29.1	-46.9	98	7
2023-09-27T18:00	8252	362	-29.4	-46.9	97	7
2023-09-27T18:00	8285	360	-29.6	-47.6	95	6
2023-09-27T18:00	8309	359	-29.7	-47.9	92	6
2023-09-27T18:00	8335	358	-29.8	-48.5	88	5
2023-09-27T18:00	8371	356	-30.1	-48.6	83	5
2023-09-27T18:00	8396	355	-30.3	-48.0	79	5
2023-09-27T18:00	8425	353	-30.5	-47.0	76	5
2023-09-27T18:00	8453	352	-30.7	-47.2	75	5
2023-09-27T18:00	8481	351	-30.8	-48.6	74	5
2023-09-27T18:00	8506	349	-31.0	-48.8	73	5
2023-09-27T18:00	8539	348	-31.3	-49.0	73	5
2023-09-27T18:00	8566	346	-31.6	-49.6	72	5
2023-09-27T18:00	8587	345	-31.7	-48.6	71	5
2023-09-27T18:00	8610	344	-31.9	-47.9	69	5
2023-09-27T18:00	8635	343	-32.2	-48.1	68	5
2023-09-27T18:00	8664	341	-32.5	-48.2	67	5
2023-09-27T18:00	8697	340	-32.8	-48.1	65	4
2023-09-27T18:00	8726	339	-33.1	-48.1	63	4
2023-09-27T18:00	8760	337	-33.4	-47.9	60	4
2023-09-27T18:00	8782	336	-33.6	-47.8	57	4
2023-09-27T18:00	8807	335	-33.8	-47.5	54	4
2023-09-27T18:00	8834	333	-34.1	-47.7	53	4
2023-09-27T18:00	8862	332	-34.3	-47.3	52	4
2023-09-27T18:00	8890	331	-34.6	-47.4	50	4
2023-09-27T18:00	8920	329	-34.9	-48.0	44	4
2023-09-27T18:00	8949	328	-35.1	-48.8	36	4
2023-09-27T18:00	8972	327	-35.2	-48.8	28	4
2023-09-27T18:00	8996	326	-35.4	-49.0	22	5
2023-09-27T18:00	9023	324	-35.7	-49.2	19	5
2023-09-27T18:00	9055	323	-36.0	-49.5	18	5
2023-09-27T18:00	9078	322	-36.2	-50.1	19	5
2023-09-27T18:00	9104	321	-36.4	-51.1	20	5
2023-09-27T18:00	9127	320	-36.6	-52.7	21	5
2023-09-27T18:00	9147	319	-36.7	-53.5	20	5
2023-09-27T18:00	9170	318	-36.8	-53.7	17	5
2023-09-27T18:00	9189	317	-36.9	-53.8	13	5
2023-09-27T18:00	9215	316	-37.1	-53.5	10	5
2023-09-27T18:00	9238	314	-37.4	-53.4	7	5
2023-09-27T18:00	9267	313	-37.6	-53.4	7	5
2023-09-27T18:00	9294	312	-37.9	-53.5	8	5
2023-09-27T18:00	9320	311	-38.1	-53.4	10	5
2023-09-27T18:00	9349	310	-38.4	-53.7	11	6
2023-09-27T18:00	9372	308	-38.6	-53.8	13	6
2023-09-27T18:00	9395	307	-38.9	-53.8	12	6
2023-09-27T18:00	9423	306	-39.1	-53.9	10	6
2023-09-27T18:00	9451	305	-39.3	-54.8	7	6
2023-09-27T18:00	9484	303	-39.6	-55.6	2	6
2023-09-27T18:00	9514	302	-39.9	-55.8	357	6
2023-09-27T18:00	9541	301	-39.9	-56.0	354	7
2023-09-27T18:00	9563	300	-40.1	-55.4	352	7
2023-09-27T18:00	9588	299	-40.4	-54.9	351	7
2023-09-27T18:00	9611	298	-40.6	-53.6	349	8
2023-09-27T18:00	9636	297	-40.8	-52.2	348	8
2023-09-27T18:00	9659	296	-41.0	-53.3	346	8
2023-09-27T18:00	9684	295	-41.1	-55.2	344	8
2023-09-27T18:00	9707	294	-41.3	-54.8	343	8
2023-09-27T18:00	9742	292	-41.5	-55.4	344	8
2023-09-27T18:00	9771	291	-41.7	-54.1	346	9
2023-09-27T18:00	9800	290	-42.0	-53.5	349	9
2023-09-27T18:00	9823	289	-42.2	-53.2	351	9
2023-09-27T18:00	9851	288	-42.3	-52.6	351	9
2023-09-27T18:00	9881	286	-42.4	-52.2	349	10
2023-09-27T18:00	9924	285	-42.7	-52.6	347	10
2023-09-27T18:00	9952	283	-42.9	-52.8	344	11
2023-09-27T18:00	9989	282	-43.2	-53.0	343	11
2023-09-27T18:00	10010	281	-43.4	-53.1	342	12
2023-09-27T18:00	10033	280	-43.6	-53.3	342	12
2023-09-27T18:00	10058	279	-43.8	-53.5	341	12
2023-09-27T18:00	10083	278	-44.0	-53.4	341	12
2023-09-27T18:00	10111	277	-44.3	-53.5	340	12
2023-09-27T18:00	10137	276	-44.6	-53.7	339	12
2023-09-27T18:00	10161	275	-44.8	-54.0	338	12
2023-09-27T18:00	10182	274	-45.0	-54.3	338	12
2023-09-27T18:00	10208	273	-45.2	-54.3	338	12
2023-09-27T18:00	10231	272	-45.4	-54.4	338	12
2023-09-27T18:00	10257	271	-45.6	-54.9	338	12
2023-09-27T18:00	10280	270	-45.7	-56.1	338	12
2023-09-27T18:00	10305	269	-46.0	-56.7	338	12
2023-09-27T18:00	10331	268	-46.2	-56.8	339	13
2023-09-27T18:00	10355	267	-46.4	-56.8	339	13
2023-09-27T18:00	10381	266	-46.7	-56.6	339	13
2023-09-27T18:00	10408	265	-46.9	-56.5	339	13
2023-09-27T18:00	10440	263	-47.2	-56.9	338	13
2023-09-27T18:00	10465	262	-47.4	-57.0	337	13
2023-09-27T18:00	10487	261	-47.6	-57.1	336	13
2023-09-27T18:00	10509	261	-47.8	-57.3	335	13
2023-09-27T18:00	10531	260	-48.0	-57.9	335	13
2023-09-27T18:00	10558	259	-48.2	-58.7	335	13
2023-09-27T18:00	10581	258	-48.4	-59.2	335	12
2023-09-27T18:00	10609	257	-48.6	-59.5	335	12
2023-09-27T18:00	10630	256	-48.7	-59.7	335	12
2023-09-27T18:00	10649	255	-48.9	-60.2	336	12
2023-09-27T18:00	10668	254	-49.0	-60.4	337	12
2023-09-27T18:00	10690	254	-49.2	-60.4	338	12
2023-09-27T18:00	10710	253	-49.4	-60.5	338	12
2023-09-27T18:00	10731	252	-49.6	-60.6	339	12
2023-09-27T18:00	10753	251	-49.8	-60.7	340	12
2023-09-27T18:00	10776	250	-50.0	-61.0	341	12
2023-09-27T18:00	10797	249	-50.2	-61.3	341	12
2023-09-27T18:00	10818	249	-50.3	-61.0	342	12
2023-09-27T18:00	10844	248	-50.5	-60.7	343	12
2023-09-27T18:00	10872	247	-50.8	-60.7	343	11
2023-09-27T18:00	10897	246	-51.0	-60.7	343	11
2023-09-27T18:00	10921	245	-51.3	-60.8	343	11
2023-09-27T18:00	10946	244	-51.5	-61.1	343	11
2023-09-27T18:00	10975	243	-51.8	-61.5	343	12
2023-09-27T18:00	11000	242	-52.0	-61.8	343	12
2023-09-27T18:00	11026	241	-52.3	-62.1	343	12
2023-09-27T18:00	11055	240	-52.5	-62.4	343	12
2023-09-27T18:00	11082	239	-52.7	-63.0	343	12
2023-09-27T18:00	11107	238	-52.9	-63.6	343	12
2023-09-27T18:00	11129	237	-53.0	-64.1	343	12
2023-09-27T18:00	11150	236	-53.1	-64.5	343	12
2023-09-27T18:00	11173	235	-53.2	-64.7	343	13
2023-09-27T18:00	11197	234	-53.4	-64.6	343	12
2023-09-27T18:00	11222	234	-53.6	-64.4	344	12
2023-09-27T18:00	11255	232	-53.9	-64.4	345	12
2023-09-27T18:00	11294	231	-54.2	-64.6	347	12
2023-09-27T18:00	11336	229	-54.6	-65.0	349	11
2023-09-27T18:00	11371	228	-54.9	-65.5	352	11
2023-09-27T18:00	11405	227	-55.0	-66.0	354	10
2023-09-27T18:00	11443	226	-55.2	-66.3	355	9
2023-09-27T18:00	11483	224	-55.5	-66.5	355	9
2023-09-27T18:00	11522	223	-55.9	-66.7	354	8
2023-09-27T18:00	11560	221	-56.2	-66.8	355	8
2023-09-27T18:00	11598	220	-56.5	-66.9	357	7
2023-09-27T18:00	11631	219	-56.8	-67.1	1	7
2023-09-27T18:00	11663	218	-57.0	-67.2	8	7
2023-09-27T18:00	11704	217	-57.4	-67.4	15	7
2023-09-27T18:00	11734	216	-57.7	-67.6	22	7
2023-09-27T18:00	11759	215	-57.8	-67.6	26	7
2023-09-27T18:00	11792	214	-58.1	-67.7	28	7
2023-09-27T18:00	11822	212	-58.3	-67.6	27	7
2023-09-27T18:00	11857	211	-58.7	-67.7	27	7
2023-09-27T18:00	11892	210	-59.0	-67.7	27	7
2023-09-27T18:00	11926	209	-59.3	-67.8	30	7
2023-09-27T18:00	11963	208	-59.6	-67.8	34	7
2023-09-27T18:00	11994	207	-59.9	-67.8	39	6
2023-09-27T18:00	12032	206	-60.2	-67.8	46	5
2023-09-27T18:00	12060	205	-60.3	-67.8	53	5
2023-09-27T18:00	12089	204	-60.4	-67.9	61	4
2023-09-27T18:00	12113	203	-60.6	-68.1	70	3
2023-09-27T18:00	12138	202	-60.6	-68.2	83	2
2023-09-27T18:00	12175	201	-60.6	-68.4	109	1
2023-09-27T18:00	12205	200	-60.6	-68.6	161	1
2023-09-27T18:00	12240	199	-61.0	-69.1	197	2
2023-09-27T18:00	12269	198	-61.2	-69.3	210	3
2023-09-27T18:00	12291	197	-61.3	-69.4	217	4
2023-09-27T18:00	12323	196	-61.3	-69.5	222	4
2023-09-27T18:00	12346	195	-61.3	-69.6	226	5
2023-09-27T18:00	12366	195	-61.2	-69.7	232	5
2023-09-27T18:00	12389	194	-61.1	-69.7	237	6
2023-09-27T18:00	12414	193	-61.0	-69.8	242	6
2023-09-27T18:00	12436	193	-61.1	-70.1	246	7
2023-09-27T18:00	12459	192	-61.1	-70.3	248	7
2023-09-27T18:00	12481	191	-61.2	-70.5	250	8
2023-09-27T18:00	12503	190	-61.3	-70.7	253	8
2023-09-27T18:00	12530	190	-61.2	-70.8	255	9
2023-09-27T18:00	12559	189	-61.2	-71.0	258	9
2023-09-27T18:00	12582	188	-61.3	-71.2	261	10
2023-09-27T18:00	12604	187	-61.3	-71.6	263	10
2023-09-27T18:00	12626	187	-61.3	-72.2	265	9
2023-09-27T18:00	12652	186	-61.0	-72.7	267	9
2023-09-27T18:00	12674	185	-60.7	-73.2	269	8
2023-09-27T18:00	12697	185	-60.4	-73.8	270	7
2023-09-27T18:00	12718	184	-60.3	-74.3	271	7
2023-09-27T18:00	12742	183	-60.3	-74.7	271	6
2023-09-27T18:00	12764	183	-60.3	-75.0	271	6
2023-09-27T18:00	12786	182	-60.4	-75.2	269	5
2023-09-27T18:00	12809	181	-60.5	-75.3	266	5
2023-09-27T18:00	12828	181	-60.6	-75.4	263	5
2023-09-27T18:00	12853	180	-60.7	-75.5	260	5
2023-09-27T18:00	12873	179	-60.8	-75.7	258	5
2023-09-27T18:00	12898	179	-60.6	-75.6	257	5
2023-09-27T18:00	12918	178	-60.7	-75.6	257	5
2023-09-27T18:00	12943	177	-60.9	-75.7	257	5
2023-09-27T18:00	12965	177	-61.1	-75.7	256	5
2023-09-27T18:00	12992	176	-61.3	-76.0	252	4
2023-09-27T18:00	13014	175	-61.2	-76.0	246	4
2023-09-27T18:00	13042	175	-61.1	-76.2	238	4
2023-09-27T18:00	13067	174	-60.9	-76.6	229	4
2023-09-27T18:00	13093	173	-60.9	-77.1	224	4
2023-09-27T18:00	13121	172	-60.7		221	4
2023-09-27T18:00	13144	172	-60.7	-77.9	221	4
2023-09-27T18:00	13167	171	-60.7	-78.2	222	5
2023-09-27T18:00	13187	171	-60.9	-78.7	223	5
2023-09-27T18:00	13209	170	-60.9	-78.9	222	5
2023-09-27T18:00	13228	169	-60.9	-79.0	221	5
2023-09-27T18:00	13250	169	-61.1	-79.3	219	5
2023-09-27T18:00	13273	168	-61.1	-79.3	217	6
2023-09-27T18:00	13296	168	-61.2	-79.5	216	6
2023-09-27T18:00	13317	167	-61.4	-79.6	216	6
2023-09-27T18:00	13343	166	-61.4	-79.6	217	6
2023-09-27T18:00	13361	166	-61.4	-79.6	219	7
2023-09-27T18:00	13386	165	-61.6	-79.8	221	7
2023-09-27T18:00	13409	165	-61.8	-80.0	223	7
2023-09-27T18:00	13433	164	-61.8	-80.1	225	7
2023-09-27T18:00	13455	163	-61.7	-79.9	228	8
2023-09-27T18:00	13481	163	-61.9	-80.1	231	8
2023-09-27T18:00	13504	162	-62.0	-80.1	234	8
2023-09-27T18:00	13527	162	-62.1	-80.0	238	9
2023-09-27T18:00	13550	161	-62.0	-79.9	241	9
2023-09-27T18:00	13573	160	-62.1	-80.0	245	10
2023-09-27T18:00	13597	160	-62.0	-80.1	247	10
2023-09-27T18:00	13624	159	-61.6	-80.1	249	11
2023-09-27T18:00	13649	158	-61.7	-80.3	249	11
2023-09-27T18:00	13674	158	-61.7	-80.4	250	12
2023-09-27T18:00	13696	157	-61.8	-80.5	250	12
2023-09-27T18:00	13720	157	-61.7	-80.5	250	12
2023-09-27T18:00	13740	156	-61.2	-80.3	250	13
2023-09-27T18:00	13762	156	-60.8	-80.3	250	13
2023-09-27T18:00	13783	155	-60.6	-80.3	251	13
2023-09-27T18:00	13804	154	-60.7	-80.5	252	13
2023-09-27T18:00	13827	154	-60.6	-80.5	254	13
2023-09-27T18:00	13848	153	-60.4	-80.4	255	13
2023-09-27T18:00	13868	153	-60.4	-80.5	255	14
2023-09-27T18:00	13890	152	-60.1	-80.4	255	14
2023-09-27T18:00	13913	152	-60.0	-80.6	254	13
2023-09-27T18:00	13933	151	-59.8	-80.8	252	13
2023-09-27T18:00	13957	151	-59.6	-81.0	250	12
2023-09-27T18:00	13977	150	-59.3	-81.2	249	11
2023-09-27T18:00	14000	150	-59.1	-81.3	248	11
2023-09-27T18:00	14020	149	-59.0	-81.6	247	10
2023-09-27T18:00	14040	149	-58.9	-81.7	247	10
2023-09-27T18:00	14064	148	-59.0	-81.8	246	10
2023-09-27T18:00	14087	148	-59.2	-81.9	246	9
2023-09-27T18:00	14110	147	-59.4	-82.1	246	9
2023-09-27T18:00	14132	147	-59.3	-82.0	247	9
2023-09-27T18:00	14153	146	-59.5	-82.0	248	9
2023-09-27T18:00	14176	146	-59.6	-82.1	248	9
2023-09-27T18:00	14198	145	-59.7	-82.2	247	9
2023-09-27T18:00	14219	144	-59.9	-82.3	247	9
2023-09-27T18:00	14245	144	-60.0	-82.4	245	9
2023-09-27T18:00	14266	143	-59.9	-82.3	244	9
2023-09-27T18:00	14288	143	-59.5	-82.2	244	9
2023-09-27T18:00	14310	142	-59.7	-82.3	245	9
2023-09-27T18:00	14332	142	-59.8	-82.4	247	9
2023-09-27T18:00	14353	141	-59.9	-82.5	248	9
2023-09-27T18:00	14377	141	-60.1	-82.5	249	9
2023-09-27T18:00	14398	140	-60.2	-82.6	250	9
2023-09-27T18:00	14420	140	-60.3	-82.6	249	9
2023-09-27T18:00	14441	140	-60.3	-82.6	248	9
2023-09-27T18:00	14464	139	-60.4	-82.7	247	9
2023-09-27T18:00	14489	138	-60.6	-82.9	246	9
2023-09-27T18:00	14510	138	-60.6	-82.9	245	10
2023-09-27T18:00	14532	137	-60.7	-83.1	245	11
2023-09-27T18:00	14556	137	-60.4	-83.1	245	11
2023-09-27T18:00	14577	136	-60.2	-83.1	245	12
2023-09-27T18:00	14599	136	-60.2	-83.1	245	12
2023-09-27T18:00	14622	136	-60.2	-83.1	245	12
2023-09-27T18:00	14642	135	-60.2	-83.1	245	12
2023-09-27T18:00	14664	135	-60.3	-83.2	244	11
2023-09-27T18:00	14687	134	-60.3	-83.2	244	11
2023-09-27T18:00	14712	134	-60.4	-83.3	244	11
2023-09-27T18:00	14733	133	-60.4	-83.3	244	11
2023-09-27T18:00	14754	133	-60.4	-83.3	245	11
2023-09-27T18:00	14777	132	-60.5	-83.3	246	11
2023-09-27T18:00	14799	132	-60.6	-83.4	248	11
2023-09-27T18:00	14822	131	-60.7	-83.5	251	11
2023-09-27T18:00	14844	131	-60.6	-83.4	252	11
2023-09-27T18:00	14868	130	-60.8	-83.6	253	11
2023-09-27T18:00	14889	130	-60.9	-83.7	253	11
2023-09-27T18:00	14910	129	-61.0	-83.7	252	11
2023-09-27T18:00	14931	129	-60.8	-83.6	250	10
2023-09-27T18:00	14952	129	-60.9	-83.7	248	10
2023-09-27T18:00	14974	128	-60.9	-83.7	246	10
2023-09-27T18:00	14994	128	-60.8	-83.8	245	10
2023-09-27T18:00	15016	127	-60.8	-83.8	243	10
2023-09-27T18:00	15040	127	-60.8	-83.8	242	10
2023-09-27T18:00	15062	126	-60.9	-83.9	241	10
2023-09-27T18:00	15085	126	-61.0	-83.7	241	10
2023-09-27T18:00	15108	125	-61.1	-83.8	241	10
2023-09-27T18:00	15131	125	-61.3	-84.0	242	10
2023-09-27T18:00	15153	124	-61.1	-83.8	244	10
2023-09-27T18:00	15175	124	-61.1	-83.8	246	10
2023-09-27T18:00	15196	124	-61.2	-83.9	247	10
2023-09-27T18:00	15217	123	-61.3	-84.0	247	10
2023-09-27T18:00	15238	123	-61.2	-83.9	247	10
2023-09-27T18:00	15260	122	-61.2	-83.9	247	10
2023-09-27T18:00	15285	122	-61.4	-84.1	246	10
2023-09-27T18:00	15307	121	-61.6	-84.2	245	10
2023-09-27T18:00	15328	121	-61.8	-84.2	244	10
2023-09-27T18:00	15351	121	-61.8	-84.2	242	10
2023-09-27T18:00	15372	120	-61.9	-84.3	240	10
2023-09-27T18:00	15395	120	-61.9	-84.3	239	10
2023-09-27T18:00	15418	119	-61.9	-84.3	238	10
2023-09-27T18:00	15440	119	-62.0	-84.4	237	10
2023-09-27T18:00	15462	118	-62.1	-84.4	237	10
2023-09-27T18:00	15487	118	-62.2	-84.5	237	10
2023-09-27T18:00	15508	117	-62.2	-84.3	238	11
2023-09-27T18:00	15529	117	-62.3	-84.4	238	11
2023-09-27T18:00	15552	117	-62.4	-84.5	239	11
2023-09-27T18:00	15575	116	-62.4	-84.5	239	11
2023-09-27T18:00	15597	116	-62.4	-84.7	239	11
2023-09-27T18:00	15620	115	-62.3	-84.6	239	11
2023-09-27T18:00	15643	115	-62.1	-84.8	237	10
2023-09-27T18:00	15665	115	-61.7	-84.7	236	9
2023-09-27T18:00	15685	114	-61.4	-84.9	233	9
2023-09-27T18:00	15706	114	-60.3	-84.4	231	8
2023-09-27T18:00	15730	113	-59.7	-84.5	229	8
2023-09-27T18:00	15751	113	-59.5	-84.6	228	9
2023-09-27T18:00	15774	113	-59.4	-84.5	227	9
2023-09-27T18:00	15797	112	-59.4	-84.5	227	10
2023-09-27T18:00	15821	112	-59.5	-84.6	227	10
2023-09-27T18:00	15840	111	-59.5	-84.3	229	11
2023-09-27T18:00	15864	111	-59.6	-84.4	231	11
2023-09-27T18:00	15888	111	-59.7	-84.5	235	11
2023-09-27T18:00	15910	110	-59.6	-84.4	239	11
2023-09-27T18:00	15932	110	-59.4	-84.2	244	11
2023-09-27T18:00	15954	109	-59.4	-84.5	247	11
2023-09-27T18:00	15978	109	-59.5	-84.6	250	11
2023-09-27T18:00	16000	109	-59.5	-84.6	253	12
2023-09-27T18:00	16023	108	-59.5	-84.6	255	12
2023-09-27T18:00	16046	108	-59.4	-84.7	257	12
2023-09-27T18:00	16071	107	-59.2	-84.6	258	12
2023-09-27T18:00	16095	107	-59.0	-84.7	258	11
2023-09-27T18:00	16116	107	-58.8	-84.6	258	11
2023-09-27T18:00	16138	106	-58.8	-84.6	256	11
2023-09-27T18:00	16162	106	-58.9	-84.9	254	10
2023-09-27T18:00	16184	105	-58.9	-84.9	251	10
2023-09-27T18:00	16209	105	-58.9	-84.9	247	10
2023-09-27T18:00	16233	105	-58.9	-84.9	243	10
2023-09-27T18:00	16259	104	-59.1	-84.8	239	10
2023-09-27T18:00	16288	104	-59.1	-84.8	235	10
2023-09-27T18:00	16317	103	-59.2	-84.9	231	10
2023-09-27T18:00	16342	103	-59.4	-85.0	229	10
2023-09-27T18:00	16371	102	-59.6	-85.2	227	11
2023-09-27T18:00	16393	102	-59.8	-85.1	226	11
2023-09-27T18:00	16417	102	-59.9	-85.1	226	11
2023-09-27T18:00	16438	101	-59.9	-85.1	226	11
2023-09-27T18:00	16463	101	-60.0	-85.2	226	11
2023-09-27T18:00	16486	100	-60.1	-85.3	226	11
2023-09-27T18:00	16508	100	-60.2	-85.1	226	11
2023-09-27T18:00	16530	100	-60.4	-85.3	226	11
2023-09-27T18:00	16552	99	-60.5	-85.3	225	11
2023-09-27T18:00	16577	99	-60.7	-85.5	226	11
2023-09-27T18:00	16598	99	-60.7	-85.5	227	11
2023-09-27T18:00	16622	98	-60.8	-85.6	228	10
2023-09-27T18:00	16645	98	-60.9	-85.7	230	10
2023-09-27T18:00	16666	98	-60.8	-85.8	232	10
2023-09-27T18:00	16692	97	-60.2	-85.4	235	10
2023-09-27T18:00	16715	97	-60.1	-85.6	237	10
2023-09-27T18:00	16737	96	-59.9	-85.4	240	10
2023-09-27T18:00	16760	96	-60.1	-85.9	243	9
2023-09-27T18:00	16783	96	-60.1	-85.9	247	9
2023-09-27T18:00	16806	95	-60.1	-85.6	249	8
2023-09-27T18:00	16827	95	-60.0	-85.5	252	8
2023-09-27T18:00	16848	95	-60.1	-85.6	254	7
2023-09-27T18:00	16872	94	-60.1	-85.9	257	7
2023-09-27T18:00	16892	94	-60.1	-85.9	258	7
2023-09-27T18:00	16913	94	-60.1	-85.9	259	6
2023-09-27T18:00	16937	93	-60.1	-85.9	257	6
2023-09-27T18:00	16957	93	-59.9	-86.0	254	6
2023-09-27T18:00	16986	93	-59.8	-85.9	251	7
2023-09-27T18:00	17008	92	-59.7	-85.9	248	7
2023-09-27T18:00	17027	92	-59.6	-85.8	246	7
2023-09-27T18:00	17053	92	-59.7	-85.9	244	8
2023-09-27T18:00	17076	91	-59.9	-86.0	244	8
2023-09-27T18:00	17100	91	-60.1	-86.2	243	8
2023-09-27T18:00	17125	91	-60.3	-86.3	243	8
2023-09-27T18:00	17150	90	-60.5	-86.5	243	9
2023-09-27T18:00	17172	90	-60.5	-86.5	244	9
2023-09-27T18:00	17193	90	-60.6	-86.6	246	9
2023-09-27T18:00	17216	89	-60.8		248	8
2023-09-27T18:00	17241	89	-60.8		251	8
2023-09-27T18:00	17264	89	-60.9	-86.8	253	8
2023-09-27T18:00	17286	88	-60.9	-86.8	255	8
2023-09-27T18:00	17312	88	-61.0	-86.9	255	8
2023-09-27T18:00	17337	88	-61.0	-87.2	254	7
2023-09-27T18:00	17361	87	-60.8	-87.0	253	7
2023-09-27T18:00	17383	87	-60.5	-87.2	252	7
2023-09-27T18:00	17409	87	-60.3	-87.0	253	6
2023-09-27T18:00	17433	86	-60.2	-87.3	256	6
2023-09-27T18:00	17458	86	-60.1	-87.2	261	6
2023-09-27T18:00	17481	86	-59.4	-87.1	268	6
2023-09-27T18:00	17507	85	-59.2	-86.9	276	6
2023-09-27T18:00	17531	85	-59.4	-87.1	284	5
2023-09-27T18:00	17555	85	-59.4	-87.1	291	5
2023-09-27T18:00	17582	84	-59.2	-87.3	296	5
2023-09-27T18:00	17605	84	-58.9	-87.1	299	4
2023-09-27T18:00	17628	84	-58.8	-87.0	300	3
2023-09-27T18:00	17655	83	-58.6	-86.9	295	2
2023-09-27T18:00	17679	83	-58.6	-86.9	269	1
2023-09-27T18:00	17704	83	-58.6	-86.9	215	1
2023-09-27T18:00	17731	82	-58.7	-87.0	195	1
2023-09-27T18:00	17753	82	-58.5	-86.8	194	2
2023-09-27T18:00	17777	82	-58.5	-86.8	200	2
2023-09-27T18:00	17804	81	-58.7	-87.0	208	2
2023-09-27T18:00	17827	81	-58.8	-87.0	216	2
2023-09-27T18:00	17851	81	-59.0	-86.8	223	2
2023-09-27T18:00	17877	80	-59.2	-86.9	229	3
2023-09-27T18:00	17897	80	-59.4	-87.1	234	3
2023-09-27T18:00	17925	80	-59.6	-87.2	238	3
2023-09-27T18:00	17946	80	-59.7	-87.3	241	4
2023-09-27T18:00	17970	79	-59.9	-87.4	244	4
2023-09-27T18:00	17993	79	-59.8	-87.4	246	4
2023-09-27T18:00	18014	79	-59.6	-87.2	247	4
2023-09-27T18:00	18039	78	-59.6	-87.6	247	4
2023-09-27T18:00	18065	78	-59.6	-87.6	247	4
2023-09-27T18:00	18090	78	-59.5	-87.6	247	4
2023-09-27T18:00	18113	77	-59.6	-87.6	248	4
2023-09-27T18:00	18139	77	-59.5	-87.6	249	4
2023-09-27T18:00	18162	77	-59.6	-87.6	250	3
2023-09-27T18:00	18188	77	-59.8	-87.8	251	3
2023-09-27T18:00	18210	76	-60.0	-87.9	250	3
2023-09-27T18:00	18235	76	-60.1	-88.0	245	3
2023-09-27T18:00	18258	76	-59.9	-87.9	239	3
2023-09-27T18:00	18282	75	-59.4	-87.9	234	3
2023-09-27T18:00	18305	75	-59.3	-87.9	230	4
2023-09-27T18:00	18332	75	-58.9	-87.6	227	4
2023-09-27T18:00	18354	74	-59.0	-87.6	225	5
2023-09-27T18:00	18377	74	-59.2	-87.8	222	6
2023-09-27T18:00	18403	74	-59.4	-87.5	221	6
2023-09-27T18:00	18429	74	-59.5	-87.6	221	7
2023-09-27T18:00	18453	73	-59.7	-87.7	222	7
2023-09-27T18:00	18478	73	-59.8	-87.8	225	7
2023-09-27T18:00	18502	73	-59.8	-87.8	229	8
2023-09-27T18:00	18528	72	-59.9	-87.9	233	8
2023-09-27T18:00	18553	72	-60.0	-87.9	238	8
2023-09-27T18:00	18577	72	-60.0	-87.9	242	8
2023-09-27T18:00	18603	72	-60.0	-87.9	247	8
2023-09-27T18:00	18626	71	-59.8	-87.8	251	8
2023-09-27T18:00	18651	71	-59.7	-87.7	255	7
2023-09-27T18:00	18676	71	-59.8	-87.8	259	7
2023-09-27T18:00	18698	71	-59.9	-88.3	262	6
2023-09-27T18:00	18721	70	-59.9	-88.3	265	6
2023-09-27T18:00	18748	70	-60.0	-88.4	266	5
2023-09-27T18:00	18773	70	-59.7	-88.2	266	5
2023-09-27T18:00	18795	69	-59.7	-88.2	263	4
2023-09-27T18:00	18820	69	-59.7	-88.2	258	4
2023-09-27T18:00	18842	69	-59.7	-88.2	253	4
2023-09-27T18:00	18869	69	-59.6	-88.1	248	5
2023-09-27T18:00	18891	68	-59.6	-88.1	244	5
2023-09-27T18:00	18917	68	-59.5	-88.0	241	5
2023-09-27T18:00	18940	68	-59.4	-87.9	238	5
2023-09-27T18:00	18965	68	-59.3	-87.9	236	5
2023-09-27T18:00	18986	67	-59.3	-88.3	234	5
2023-09-27T18:00	19012	67	-59.2	-88.3	235	5
2023-09-27T18:00	19034	67	-58.9	-88.0	237	5
2023-09-27T18:00	19057	67	-59.0	-88.1	239	5
2023-09-27T18:00	19081	66	-59.2	-88.3	241	5
2023-09-27T18:00	19105	66	-59.0	-88.1	241	5
2023-09-27T18:00	19127	66	-59.1	-88.2	240	4
2023-09-27T18:00	19154	66	-59.2	-88.3	238	4
2023-09-27T18:00	19176	65	-59.1	-88.2	236	3
2023-09-27T18:00	19198	65	-59.0	-88.1	236	3
2023-09-27T18:00	19223	65	-58.8	-88.0	236	2
2023-09-27T18:00	19246	65	-58.7	-87.9	237	2
2023-09-27T18:00	19271	64	-58.7	-87.9	234	2
2023-09-27T18:00	19296	64	-58.7	-87.9	228	2
2023-09-27T18:00	19325	64	-58.7	-87.9	221	3
2023-09-27T18:00	19352	64	-58.7	-87.9	216	3
2023-09-27T18:00	19377	63	-58.8	-88.0	214	3
2023-09-27T18:00	19402	63	-59.0	-88.1	216	4
2023-09-27T18:00	19427	63	-59.2	-87.8	219	4
2023-09-27T18:00	19452	63	-59.4	-87.9	223	4
2023-09-27T18:00	19476	62	-59.6	-88.1	228	4
2023-09-27T18:00	19501	62	-59.7	-88.2	232	5
2023-09-27T18:00	19524	62	-59.9	-88.3	235	5
2023-09-27T18:00	19548	62	-60.0	-88.4	238	5
2023-09-27T18:00	19574	61	-60.2	-88.5	240	5
2023-09-27T18:00	19595	61	-60.2	-88.5	241	5
2023-09-27T18:00	19621	61	-60.2	-88.5	242	5
2023-09-27T18:00	19650	61	-60.0	-88.4	243	4
2023-09-27T18:00	19672	60	-60.2	-88.5	243	4
2023-09-27T18:00	19698	60	-60.3	-88.6	242	4
2023-09-27T18:00	19720	60	-60.5	-88.8	241	4
2023-09-27T18:00	19746	60	-60.5	-88.8	241	4
2023-09-27T18:00	19771	59	-60.5	-88.8	242	4
2023-09-27T18:00	19795	59	-60.4	-88.7	244	4
2023-09-27T18:00	19819	59	-60.4	-88.7	247	4
2023-09-27T18:00	19840	59	-60.6	-88.8	252	4
2023-09-27T18:00	19862	59	-60.6	-88.8	257	5
2023-09-27T18:00	19888	58	-60.6	-88.8	263	5
2023-09-27T18:00	19914	58	-60.6	-88.8	267	5
2023-09-27T18:00	19934	58	-60.5	-88.8	271	6
2023-09-27T18:00	19960	58	-60.3	-88.6	274	6
2023-09-27T18:00	19984	57	-60.2	-88.5	277	6
2023-09-27T18:00	20007	57	-60.1	-88.5	283	7
2023-09-27T18:00	20031	57	-59.9	-88.8	289	7
2023-09-27T18:00	20054	57	-59.8	-88.7	297	7
2023-09-27T18:00	20078	57	-59.5	-88.5	305	7
2023-09-27T18:00	20103	56	-59.6	-88.6	311	7
2023-09-27T18:00	20124	56	-59.4	-89.0	317	6
2023-09-27T18:00	20149	56	-59.0	-88.7	322	6
2023-09-27T18:00	20172	56	-58.5	-88.3	327	5
2023-09-27T18:00	20195	56	-58.6	-88.4	334	5
2023-09-27T18:00	20219	55	-58.7	-88.4	341	4
2023-09-27T18:00	20242	55	-58.8	-88.5	348	3
2023-09-27T18:00	20267	55	-58.8	-88.0	355	3
2023-09-27T18:00	20291	55	-58.8	-88.0	2	2
2023-09-27T18:00	20317	54	-58.8	-88.0	12	2
2023-09-27T18:00	20339	54	-58.7	-87.9	37	1
2023-09-27T18:00	20364	54	-58.6	-88.4	85	1
2023-09-27T18:00	20388	54	-58.5	-88.3	116	1
2023-09-27T18:00	20414	54	-58.4	-88.2	131	1
2023-09-27T18:00	20439	53	-58.4	-88.2	146	2
2023-09-27T18:00	20463	53	-58.3	-88.1	162	2
2023-09-27T18:00	20489	53	-58.1	-88.0	178	2
2023-09-27T18:00	20511	53	-58.2	-88.1	189	2
2023-09-27T18:00	20535	53	-58.3	-88.1	193	3
2023-09-27T18:00	20560	52	-58.3	-88.1	191	2
2023-09-27T18:00	20587	52	-58.1	-88.0	182	2
2023-09-27T18:00	20609	52	-57.9	-87.8	170	2
2023-09-27T18:00	20634	52	-58.0	-87.9	162	3
2023-09-27T18:00	20659	52	-57.9	-87.8	160	3
2023-09-27T18:00	20683	51	-58.0	-87.9	165	3
2023-09-27T18:00	20707	51	-58.1	-88.0	172	4
2023-09-27T18:00	20733	51	-58.1	-88.0	180	4
2023-09-27T18:00	20761	51	-58.2	-88.1	187	5
2023-09-27T18:00	20784	51	-58.3	-88.1	195	5
2023-09-27T18:00	20805	50	-58.2	-88.1	203	5
2023-09-27T18:00	20833	50	-58.1	-88.0	211	5
2023-09-27T18:00	20858	50	-58.0	-87.9	219	5
2023-09-27T18:00	20881	50	-58.0	-87.9	226	5
2023-09-27T18:00	20904	50	-58.0	-87.9	232	5
2023-09-27T18:00	20933	49	-58.0	-87.9	236	5
2023-09-27T18:00	20956	49	-58.1	-88.0	238	4
2023-09-27T18:00	20985	49	-58.0	-87.9	239	4
2023-09-27T18:00	21009	49	-58.1	-88.0	239	4
2023-09-27T18:00	21035	49	-58.2	-88.1	239	4
2023-09-27T18:00	21060	48	-57.9	-87.8	239	3
2023-09-27T18:00	21084	48	-57.8	-87.8	241	3
2023-09-27T18:00	21113	48	-57.8	-87.8	246	3
2023-09-27T18:00	21137	48	-57.8	-87.8	252	3
2023-09-27T18:00	21166	48	-57.8	-87.8	259	3
2023-09-27T18:00	21190	47	-58.0	-87.9	266	4
2023-09-27T18:00	21216	47	-58.0	-87.9	270	4
2023-09-27T18:00	21242	47	-58.0	-87.9	272	4
2023-09-27T18:00	21265	47	-58.0	-87.9	273	4
2023-09-27T18:00	21292	47	-58.1	-88.0	272	4
2023-09-27T18:00	21320	46	-58.2	-88.1	270	3
2023-09-27T18:00	21347	46	-58.3	-88.1	267	3
2023-09-27T18:00	21371	46	-58.4	-88.2	263	3
2023-09-27T18:00	21397	46	-58.5	-88.3	259	3
2023-09-27T18:00	21420	46	-58.5	-88.3	254	3
2023-09-27T18:00	21448	45	-58.3	-88.1	251	3
2023-09-27T18:00	21476	45	-58.3	-88.1	249	4
2023-09-27T18:00	21500	45	-58.5	-88.3	249	4
2023-09-27T18:00	21525	45	-58.6	-87.8	249	4
2023-09-27T18:00	21554	45	-58.7	-87.9	251	4
2023-09-27T18:00	21578	45	-58.8	-88.5	250	4
2023-09-27T18:00	21606	44	-58.8	-88.5	248	4
2023-09-27T18:00	21630	44	-58.8	-88.5	242	4
2023-09-27T18:00	21654	44	-58.4	-88.2	235	4
2023-09-27T18:00	21679	44	-58.2	-88.6	227	4
2023-09-27T18:00	21707	44	-57.8	-88.3	223	4
2023-09-27T18:00	21731	43	-57.8	-88.3	220	5
2023-09-27T18:00	21752	43	-57.8	-88.3	220	5
2023-09-27T18:00	21782	43	-58.0	-87.9	220	5
2023-09-27T18:00	21807	43	-58.1	-88.0	219	5
2023-09-27T18:00	21831	43	-58.2	-88.1	217	4
2023-09-27T18:00	21859	43	-58.1	-88.0	214	4
2023-09-27T18:00	21881	42	-58.1	-88.0	211	4
2023-09-27T18:00	21904	42	-57.9	-88.4	210	3
2023-09-27T18:00	21933	42	-57.8	-88.3	212	3
2023-09-27T18:00	21959	42	-57.7	-88.3	217	2
2023-09-27T18:00	21984	42	-57.8	-88.3	226	2
2023-09-27T18:00	22007	42	-57.8	-87.8	243	1
2023-09-27T18:00	22034	41	-57.9	-87.8	285	1
2023-09-27T18:00	22061	41	-58.0	-88.5	338	1
2023-09-27T18:00	22087	41	-58.1	-88.6	357	2
2023-09-27T18:00	22111	41	-58.0	-88.5	4	2
2023-09-27T18:00	22139	41	-57.6	-88.2	8	2
2023-09-27T18:00	22162	41	-57.7	-88.3	13	2
2023-09-27T18:00	22187	40	-57.6	-88.2	21	1
2023-09-27T18:00	22215	40	-57.5	-88.1	45	1
2023-09-27T18:00	22239	40	-57.2	-87.9	128	1
2023-09-27T18:00	22268	40	-57.1	-87.8	170	1
2023-09-27T18:00	22291	40	-56.9	-87.7	184	2
2023-09-27T18:00	22324	40	-57.0	-87.8	193	2
2023-09-27T18:00	22345	39	-57.3	-88.0	200	3
2023-09-27T18:00	22371	39	-57.5	-87.5	205	4
2023-09-27T18:00	22398	39	-57.7	-87.7	209	4
2023-09-27T18:00	22427	39	-57.9	-87.8	212	5
2023-09-27T18:00	22451	39	-58.0	-87.9	215	6
2023-09-27T18:00	22478	39	-58.1	-88.0	217	7
2023-09-27T18:00	22504	38	-58.1	-88.0	220	7
2023-09-27T18:00	22529	38	-58.2	-88.1	222	7
2023-09-27T18:00	22558	38	-58.2	-88.6	225	7
2023-09-27T18:00	22588	38	-58.0	-88.5	228	7
2023-09-27T18:00	22612	38	-57.9	-88.4	232	7
2023-09-27T18:00	22636	38	-57.8	-88.3	235	7
2023-09-27T18:00	22665	38	-57.7	-88.3	238	7
2023-09-27T18:00	22692	37	-57.9	-88.4	242	8
2023-09-27T18:00	22720	37	-58.0	-87.9	246	8
2023-09-27T18:00	22750	37	-58.1	-88.0	251	8
2023-09-27T18:00	22774	37	-58.3	-88.1	256	9
2023-09-27T18:00	22807	37	-58.3	-88.1	261	9
2023-09-27T18:00	22833	37	-58.4	-88.2	266	9
2023-09-27T18:00	22857	36	-58.4	-88.2	270	9
2023-09-27T18:00	22887	36	-58.6	-88.4	274	9
2023-09-27T18:00	22913	36	-58.5	-88.3	278	9
2023-09-27T18:00	22938	36	-58.4	-88.2	282	8
2023-09-27T18:00	22968	36	-58.6	-88.4	286	8
2023-09-27T18:00	22993	36	-58.8	-88.5	292	8
2023-09-27T18:00	23021	35	-59.0	-88.7	298	8
2023-09-27T18:00	23050	35	-58.9	-89.2	304	8
2023-09-27T18:00	23073	35	-58.7	-89.0	311	8
2023-09-27T18:00	23099	35	-58.4	-88.8	318	8
2023-09-27T18:00	23125	35	-58.1	-89.2	324	8
2023-09-27T18:00	23157	35	-57.6	-88.9	329	7
2023-09-27T18:00	23178	35	-57.3	-88.6	332	6
2023-09-27T18:00	23203	34	-57.1	-88.5	334	6
2023-09-27T18:00	23227	34	-57.0	-88.4	336	5
2023-09-27T18:00	23254	34	-56.9	-88.3	337	4
2023-09-27T18:00	23279	34	-57.0	-88.4	340	3
2023-09-27T18:00	23304	34	-56.8	-88.3	343	2
2023-09-27T18:00	23331	34	-56.9	-88.3	346	2
2023-09-27T18:00	23352	34	-56.9	-88.3	346	1
2023-09-27T18:00	23382	33	-57.0	-87.8	332	1
2023-09-27T18:00	23408	33	-57.1	-87.8	288	1
2023-09-27T18:00	23434	33	-57.2	-87.9	260	1
2023-09-27T18:00	23460	33	-57.2	-88.6	251	1
2023-09-27T18:00	23483	33	-57.1	-88.5	245	2
2023-09-27T18:00	23511	33	-56.8	-88.3	241	2
2023-09-27T18:00	23534	33	-56.8	-88.3	237	3
2023-09-27T18:00	23561	33	-56.7	-88.2	235	4
2023-09-27T18:00	23585	32	-56.6	-88.1	235	4
2023-09-27T18:00	23609	32	-56.3	-88.6	237	4
2023-09-27T18:00	23635	32	-56.0	-88.4	241	4
2023-09-27T18:00	23658	32	-55.9	-88.4	247	3
2023-09-27T18:00	23687	32	-55.7	-88.2	253	3
2023-09-27T18:00	23707	32	-55.7	-88.2	257	3
2023-09-27T18:00	23737	32	-55.9	-87.6	258	3
2023-09-27T18:00	23760	32	-55.9	-87.6	258	3
2023-09-27T18:00	23790	31	-55.7	-87.5	258	4
2023-09-27T18:00	23814	31	-55.8	-87.5	259	4
2023-09-27T18:00	23841	31	-56.0	-87.7	259	4
2023-09-27T18:00	23865	31	-56.1	-87.8	259	5
2023-09-27T18:00	23895	31	-56.2	-87.8	258	5
2023-09-27T18:00	23918	31	-56.2	-87.8	258	5
2023-09-27T18:00	23941	31	-56.4	-88.0	257	5
2023-09-27T18:00	23969	31	-56.3	-87.9	258	5
2023-09-27T18:00	23992	30	-56.3	-87.9	261	5
2023-09-27T18:00	24024	30	-56.3	-87.9	264	5
2023-09-27T18:00	24052	30	-56.1	-88.5	269	6
2023-09-27T18:00	24082	30	-55.8	-88.3	275	6
2023-09-27T18:00	24107	30	-55.6	-88.1	281	6
2023-09-27T18:00	24129	30	-55.5	-88.1	288	6
2023-09-27T18:00	24158	30	-55.6	-88.1	295	6
2023-09-27T18:00	24183	30	-55.6	-88.1	301	7
2023-09-27T18:00	24210	29	-55.6	-88.1	307	7
2023-09-27T18:00	24243	29	-55.4	-88.0	311	7
2023-09-27T18:00	24264	29	-55.3	-87.9	314	7
2023-09-27T18:00	24297	29	-55.3	-87.9	316	7
2023-09-27T18:00	24325	29	-55.5	-88.1	318	7
2023-09-27T18:00	24354	29	-55.6	-87.4	319	6
2023-09-27T18:00	24381	29	-55.8	-87.5	319	6
2023-09-27T18:00	24409	28	-55.8	-87.5	320	5
2023-09-27T18:00	24437	28	-55.9	-87.6	320	5
2023-09-27T18:00	24464	28	-56.0	-87.7	321	4
2023-09-27T18:00	24494	28	-56.1	-87.8	322	4
2023-09-27T18:00	24522	28	-56.2	-87.8	323	4
2023-09-27T18:00	24549	28	-56.4	-88.0	324	4
2023-09-27T18:00	24585	28	-56.5	-88.1	323	4
2023-09-27T18:00	24608	28	-56.7	-88.2	321	4
2023-09-27T18:00	24638	27	-56.6	-88.1	319	4
2023-09-27T18:00	24663	27	-56.3	-87.9	317	4
2023-09-27T18:00	24695	27	-56.3	-87.9	316	4
2023-09-27T18:00	24719	27	-56.4	-88.0	315	4
2023-09-27T18:00	24745	27	-56.4	-88.7	316	5
2023-09-27T18:00	24779	27	-56.4	-88.7	316	5
2023-09-27T18:00	24800	27	-56.3	-88.6	318	5
2023-09-27T18:00	24828	27	-56.2	-88.6	320	5
2023-09-27T18:00	24861	27	-56.2	-87.8	322	5
2023-09-27T18:00	24882	26	-56.3	-87.9	325	5
2023-09-27T18:00	24913	26	-56.4	-88.0	326	4
2023-09-27T18:00	24942	26	-56.5	-88.1	325	4
2023-09-27T18:00	24968	26	-56.5	-88.1	321	4
2023-09-27T18:00	24996	26	-56.7	-88.2	315	4
2023-09-27T18:00	25028	26	-56.6	-88.1	308	4
2023-09-27T18:00	25053	26	-56.4	-88.0	300	4
2023-09-27T18:00	25075	26	-56.5	-88.1	292	4
2023-09-27T18:00	25113	26	-56.5	-88.1	286	4
2023-09-27T18:00	25131	25	-56.6	-88.1	283	4
2023-09-27T18:00	25161	25	-56.6	-88.1	283	4
2023-09-27T18:00	25196	25	-56.5	-88.8	286	4
2023-09-27T18:00	25219	25	-56.5	-88.8	291	5
2023-09-27T18:00	25244	25	-56.3	-88.6	298	5
2023-09-27T18:00	25273	25	-56.3	-88.6	306	5
2023-09-27T18:00	25304	25	-56.0	-88.4	314	5
2023-09-27T18:00	25325	25	-55.9	-88.4	320	5
2023-09-27T18:00	25351	25	-55.8	-88.3	324	5
2023-09-27T18:00	25380	24	-55.9	-88.4	327	5
2023-09-27T18:00	25408	24	-56.0	-88.4	328	4
2023-09-27T18:00	25436	24	-56.1	-88.5	329	4
2023-09-27T18:00	25459	24	-56.2	-88.6	330	4
2023-09-27T18:00	25494	24	-56.1	-88.5	330	4
2023-09-27T18:00	25519	24	-56.0	-88.4	330	4
2023-09-27T18:00	25556	24	-55.8	-88.3	330	4
2023-09-27T18:00	25578	24	-55.9	-88.4	329	4
2023-09-27T18:00	25597	24	-55.9	-88.4	328	4
2023-09-27T18:00	25634	24	-55.8	-88.3	326	3
2023-09-27T18:00	25660	23	-55.7	-88.2	323	3
2023-09-27T18:00	25690	23	-55.6	-88.1	318	2
2023-09-27T18:00	25717	23	-55.7	-88.2	306	1
2023-09-27T18:00	25740	23	-55.5	-88.1	282	1
2023-09-27T18:00	25773	23	-55.5	-88.1	250	1
2023-09-27T18:00	25801	23	-55.4	-88.0	226	1
2023-09-27T18:00	25826	23	-55.4	-88.0	213	0
2023-09-27T18:00	25853	23	-55.5	-88.1	222	0
2023-09-27T18:00	25882	23	-55.5	-88.1	296	0
2023-09-27T18:00	25914	22	-55.6	-88.1	302	1
2023-09-27T18:00	25941	22	-55.3	-87.9	290	1
2023-09-27T18:00	25972	22	-55.1	-87.8	278	2
2023-09-27T18:00	25989	22	-54.9	-87.6	267	2
2023-09-27T18:00	26030	22	-55.0	-87.7	259	3
2023-09-27T18:00	26052	22	-55.1	-87.8	254	3
2023-09-27T18:00	26082	22	-55.1	-87.8	252	3
2023-09-27T18:00	26106	22	-55.1	-87.8	254	4
2023-09-27T18:00	26130	22	-55.2	-87.8	260	4
2023-09-27T18:00	26162	22	-55.2	-87.8	268	4
2023-09-27T18:00	26193	22	-55.1	-87.8	277	4
2023-09-27T18:00	26218	21	-55.1	-87.8	286	4
2023-09-27T18:00	26244	21	-55.2	-87.8	293	4
2023-09-27T18:00	26270	21	-55.4	-88.0	301	4
2023-09-27T18:00	26300	21	-55.6	-88.1	308	4
2023-09-27T18:00	26322	21	-55.8	-88.3	317	4
2023-09-27T18:00	26353	21	-56.0	-88.4	325	3
2023-09-27T18:00	26378	21	-56.1	-88.5	333	3
2023-09-27T18:00	26403	21	-56.2	-88.6	339	3
2023-09-27T18:00	26428	21	-56.2	-88.6	342	3
2023-09-27T18:00	26456	21	-56.1	-88.5	342	3
2023-09-27T18:00	26481	21	-55.9	-88.4	340	2
2023-09-27T18:00	26511	20	-55.6	-89.0	338	2
2023-09-27T18:00	26536	20	-55.3	-88.8	337	2
2023-09-27T18:00	26570	20	-55.3	-88.8	339	2
2023-09-27T18:00	26597	20	-55.2	-88.7	341	2
2023-09-27T18:00	26621	20	-55.3	-88.8	343	2
2023-09-27T18:00	26647	20	-55.3	-88.8	344	3
2023-09-27T18:00	26675	20	-55.2	-88.7	344	3
2023-09-27T18:00	26703	20	-55.2	-88.7	344	4
2023-09-27T18:00	26728	20	-55.1	-87.8	345	4
2023-09-27T18:00	26746	20	-55.1	-87.8	346	5
2023-09-27T18:00	26779	20	-55.0	-87.7	347	5
2023-09-27T18:00	26809	20	-55.1	-87.8	348	6
2023-09-27T18:00	26834	19	-55.2	-87.8	348	6
2023-09-27T18:00	26863	19	-55.3	-87.9	347	7
2023-09-27T18:00	26883	19	-55.5	-88.1	346	7
2023-09-27T18:00	26910	19	-55.6	-88.1	344	7
2023-09-27T18:00	26937	19	-55.5	-88.1	342	6
2023-09-27T18:00	26967	19	-55.5	-88.1	339	6
2023-09-27T18:00	26998	19	-55.5	-88.1	336	6
2023-09-27T18:00	27024	19	-55.5	-88.1	333	6
2023-09-27T18:00	27051	19	-55.4	-88.0	331	6
2023-09-27T18:00	27077	19	-55.4	-88.0	329	6
2023-09-27T18:00	27108	19	-55.3	-87.9	328	6
2023-09-27T18:00	27138	19	-55.4	-88.0	325	6
2023-09-27T18:00	27166	18	-55.5	-88.1	320	6
2023-09-27T18:00	27186	18	-55.6	-88.1	314	6
2023-09-27T18:00	27228	18	-55.7	-88.2	308	6
2023-09-27T18:00	27260	18	-55.7	-88.2	303	6
2023-09-27T18:00	27285	18	-55.8	-88.3	300	6
2023-09-27T18:00	27307	18	-55.7	-88.2	299	6
2023-09-27T18:00	27341	18	-55.4	-88.0	300	6
2023-09-27T18:00	27369	18	-55.4	-88.0	301	6
2023-09-27T18:00	27401	18	-55.3	-87.9	302	6
2023-09-27T18:00	27432	18	-55.4	-88.0	303	6
2023-09-27T18:00	27460	18	-55.7	-88.2	303	6
2023-09-27T18:00	27496	18	-55.7	-88.2	304	6
2023-09-27T18:00	27523	17	-55.7	-88.2	304	6
2023-09-27T18:00	27554	17	-55.7	-88.2	306	6
2023-09-27T18:00	27577	17	-55.8	-88.3	307	6
2023-09-27T18:00	27609	17	-55.8	-88.3	308	6
2023-09-27T18:00	27648	17	-55.8	-88.3	307	6
2023-09-27T18:00	27671	17	-55.7	-88.2	306	6
2023-09-27T18:00	27700	17	-55.7	-88.2	303	6
2023-09-27T18:00	27730	17	-55.6	-88.1	300	6
2023-09-27T18:00	27760	17	-55.5	-88.1	297	6
2023-09-27T18:00	27784	17	-55.6	-88.1	294	6
2023-09-27T18:00	27817	17	-55.6	-88.1	292	6
2023-09-27T18:00	27853	17	-55.7	-88.2	292	6
2023-09-27T18:00	27880	17	-55.8	-88.3	292	6
2023-09-27T18:00	27915	16	-55.9	-88.4	294	6
2023-09-27T18:00	27941	16	-55.9	-88.4	297	6
2023-09-27T18:00	27968	16	-56.0	-88.4	301	6
2023-09-27T18:00	27996	16	-56.1	-88.5	304	6
2023-09-27T18:00	28030	16	-56.2	-88.6	306	7
2023-09-27T18:00	28052	16	-56.0	-88.4	309	7
2023-09-27T18:00	28089	16	-55.8	-88.3	312	8
2023-09-27T18:00	28113	16	-55.6	-88.1	314	8
2023-09-27T18:00	28148	16	-55.8	-88.3	316	9
2023-09-27T18:00	28168	16	-55.9	-88.4	317	9
2023-09-27T18:00	28208	16	-55.8	-89.1	319	9
2023-09-27T18:00	28227	16	-55.8	-89.1	321	9
2023-09-27T18:00	28255	16	-55.7	-89.1	322	8
2023-09-27T18:00	28297	16	-55.7	-89.1	324	7
2023-09-27T18:00	28327	15	-55.8	-89.1	324	7
2023-09-27T18:00	28351	15	-55.7	-89.1	323	6
2023-09-27T18:00	28382	15	-55.5	-88.9	322	6
2023-09-27T18:00	28403	15	-55.4	-88.9	319	7
2023-09-27T18:00	28429	15	-55.5	-88.9	317	7
2023-09-27T18:00	28461	15	-55.3	-88.8	315	8
2023-09-27T18:00	28491	15	-54.9	-88.5	313	8
2023-09-27T18:00	28523	15	-54.9	-88.5	312	9
2023-09-27T18:00	28551	15	-54.8	-88.4	311	9
2023-09-27T18:00	28572	15	-54.6	-89.3	309	9
2023-09-27T18:00	28600	15	-54.3	-89.1	307	9
2023-09-27T18:00	28630	15	-54.1	-88.9	303	8
2023-09-27T18:00	28658	15	-53.9	-88.8	300	8
2023-09-27T18:00	28690	15	-54.0	-88.9	296	8
2023-09-27T18:00	28715	15	-54.0	-88.9	294	8
2023-09-27T18:00	28746	14	-54.1	-88.9	295	9
2023-09-27T18:00	28769	14	-53.9	-88.8	296	9
2023-09-27T18:00	28809	14	-53.7	-88.7	299	9
2023-09-27T18:00	28824	14	-53.4	-88.4	302	10
2023-09-27T18:00	28863	14	-53.0	-88.2	305	10
2023-09-27T18:00	28881	14	-52.9	-88.1	307	10
2023-09-27T18:00	28919	14	-52.9	-88.1	309	11
2023-09-27T18:00	28943	14	-52.9	-88.1	311	11
2023-09-27T18:00	28970	14	-52.9	-88.1	314	11
2023-09-27T18:00	28999	14	-53.1	-87.2	317	11
2023-09-27T18:00	29033	14	-53.2	-87.3	321	11
2023-09-27T18:00	29048	14	-53.2	-87.3	325	11
2023-09-27T18:00	29091	14	-53.2	-87.3	329	11
2023-09-27T18:00	29125	14	-53.3	-87.3	332	11
2023-09-27T18:00	29141	14	-53.4	-87.4	334	11
2023-09-27T18:00	29176	14	-53.5	-87.5	335	11
2023-09-27T18:00	29207	13	-53.6	-87.6	335	10
2023-09-27T18:00	29235	13	-53.3	-87.3	334	10
2023-09-27T18:00	29268	13	-53.0	-87.1	331	10
2023-09-27T18:00	29296	13	-53.1	-88.2	328	9
2023-09-27T18:00	29336	13	-53.1	-88.2	324	9
2023-09-27T18:00	29360	13	-53.2	-88.3	320	9
2023-09-27T18:00	29394	13	-53.2	-88.3	316	9
2023-09-27T18:00	29424	13	-53.2	-88.3	313	9
2023-09-27T18:00	29457	13	-53.2	-88.3	310	9
2023-09-27T18:00	29472	13	-53.0	-88.2	308	9
2023-09-27T18:00	29512	13	-53.1	-88.2	307	9
2023-09-27T18:00	29543	13	-53.2	-87.3	308	9
2023-09-27T18:00	29570	13	-53.2	-87.3	310	10
2023-09-27T18:00	29602	13	-53.1	-87.2	312	10
2023-09-27T18:00	29634	13	-53.2	-87.3	313	10
2023-09-27T18:00	29660	13	-53.2	-87.3	314	10
2023-09-27T18:00	29688	12	-53.2	-87.3	314	10
2023-09-27T18:00	29722	12	-53.2	-87.3	314	10
2023-09-27T18:00	29739	12	-53.3	-87.3	315	10
2023-09-27T18:00	29773	12	-53.3	-87.3	316	10
2023-09-27T18:00	29805	12	-53.3	-87.3	318	11
2023-09-27T18:00	29825	12	-53.2	-87.3	321	11
2023-09-27T18:00	29856	12	-53.0	-88.2	324	11
2023-09-27T18:00	29887	12	-53.1	-88.2	326	11
2023-09-27T18:00	29918	12	-53.2	-88.3	329	11
2023-09-27T18:00	29950	12	-53.0	-88.2	331	11
2023-09-27T18:00	29971	12	-52.7	-87.9	332	11
2023-09-27T18:00	30006	12	-52.6	-87.9	333	11
2023-09-27T18:00	30042	12	-52.3	-87.7	333	11
2023-09-27T18:00	30056	12	-52.5	-87.8	332	11
2023-09-27T18:00	30084	12	-52.5	-87.8	331	11
2023-09-27T18:00	30122	12	-52.3	-87.7	330	11
2023-09-27T18:00	30155	12	-51.9	-87.4	329	12
2023-09-27T18:00	30185	12	-51.6	-87.2	328	12
2023-09-27T18:00	30217	12	-51.5	-87.1	328	12
2023-09-27T18:00	30241	11	-51.2	-86.9	327	12
2023-09-27T18:00	30268	11	-50.6	-86.5	328	11
2023-09-27T18:00	30293	11	-50.5	-86.4	328	10
2023-09-27T18:00	30323	11	-50.6	-86.5	329	10
2023-09-27T18:00	30353	11	-50.7	-86.5	330	9
2023-09-27T18:00	30383	11	-50.5	-86.4	330	8
2023-09-27T18:00	30417	11	-50.3	-86.2	329	8
2023-09-27T18:00	30443	11	-50.1	-86.1	327	7
2023-09-27T18:00	30463	11	-49.9	-86.0	323	7
2023-09-27T18:00	30489	11	-49.8	-85.9	319	7
2023-09-27T18:00	30523	11	-49.5	-85.7	314	8
2023-09-27T18:00	30551	11	-49.3	-85.5	310	8
2023-09-27T18:00	30587	11	-49.4	-85.6	306	8
2023-09-27T18:00	30609	11	-49.4	-85.6	302	9
2023-09-27T18:00	30644	11	-49.4	-85.6	300	9
2023-09-27T18:00	30661	11	-49.5	-85.7	299	9
2023-09-27T18:00	30678	11	-49.3	-85.5	300	9
2023-09-27T18:00	30724	11	-48.9	-85.3	303	10
2023-09-27T18:00	30762	11	-48.7	-85.1	307	10
2023-09-27T18:00	30781	11	-48.7	-85.1	310	10
2023-09-27T18:00	30825	10	-48.7	-85.1	312	11
2023-09-27T18:00	30856	10	-48.6	-85.0	313	11
2023-09-27T18:00	30883	10	-48.7	-85.1	313	11
2023-09-27T18:00	30911	10	-48.6	-85.0	312	11
2023-09-27T18:00	30946	10	-48.3	-84.8	311	11
2023-09-27T18:00	30966	10	-48.3	-84.8	310	11
2023-09-27T18:00	30999	10	-48.3	-84.8	312	11
2023-09-27T18:00	31027	10	-48.1	-84.7	314	11
2023-09-27T18:00	31072	10	-48.1	-84.7	317	12
2023-09-27T18:00	31090	10	-48.4	-84.9	319	12
2023-09-27T18:00	31129	10	-48.5	-85.0	320	13
2023-09-27T18:00	31154	10	-48.6	-85.0	319	13
2023-09-27T18:00	31179	10	-48.6	-85.0	316	13
2023-09-27T18:00	31215	10	-48.3	-84.8	313	13
2023-09-27T18:00	31237	10	-47.9	-84.6	310	13
2023-09-27T18:00	31288	10	-47.7	-84.4	307	13
2023-09-27T18:00	31300	10	-47.5	-84.3	306	14
2023-09-27T18:00	31341	10	-47.7	-84.4	307	14
2023-09-27T18:00	31376	10	-47.5	-84.3	308	14
2023-09-27T18:00	31402	10	-47.7	-84.4	309	14
2023-09-27T18:00	31417	10	-48.0	-84.6	310	14
2023-09-27T18:00	31447	10	-48.1	-84.7	311	14
2023-09-27T18:00	31480	9	-48.2	-84.8	311	14
2023-09-27T18:00	31510	9	-48.1	-84.7	311	14
2023-09-27T18:00	31542	9	-47.9	-84.6	311	14
2023-09-27T18:00	31587	9	-47.7	-84.4	311	15
2023-09-27T18:00	31604	9	-47.7	-84.4	311	15
2023-09-27T18:00	31627	9	-47.6	-84.3	311	15
2023-09-27T18:00	31655	9	-47.2	-84.1	312	15
2023-09-27T18:00	31674	9	-46.9	-83.9	314	14
2023-09-27T18:00	31710	9	-46.8	-83.8	315	14
2023-09-27T18:00	31743	9	-46.9	-83.9	317	13
2023-09-27T18:00	31777	9	-47.1	-84.0	318	13
2023-09-27T18:00	31789	9	-47.1	-84.0	320	13
2023-09-27T18:00	31816	9	-47.1	-84.0	322	13
2023-09-27T18:00	31862	9	-46.5	-83.6	324	13
2023-09-27T18:00	31882	9	-46.4	-83.5	326	13
2023-09-27T18:00	31920	9	-46.1	-83.3	327	13
2023-09-27T18:00	31946	9	-46.2	-83.4	329	14
2023-09-27T18:00	31969	9	-46.4	-83.5	330	14
2023-09-27T18:00	31999	9	-46.6	-83.6	331	14
2023-09-27T18:00	32036	9	-46.8	-83.8	331	14
2023-09-27T18:00	32073	9	-46.6	-83.6	331	14
2023-09-27T18:00	32101	9	-46.3	-83.4	331	13
2023-09-27T18:00	32138	9	-46.1	-83.3	330	13
2023-09-27T18:00	32154	9	-46.0	-83.2	331	12
2023-09-27T18:00	32176	9	-46.2	-83.4	331	12
2023-09-27T18:00	32209	9	-46.2	-83.4	332	11
2023-09-27T18:00	32245	8	-46.2	-83.4	334	11
2023-09-27T18:00	32275	8	-46.2	-83.4	335	11
2023-09-27T18:00	32321	8	-46.3	-83.4	336	11
2023-09-27T18:00	32352	8	-46.3	-83.4	336	11
2023-09-27T18:00	32380	8	-46.4	-83.5	336	11
2023-09-27T18:00	32391	8	-46.4	-83.5	335	10
2023-09-27T18:00	32444	8	-46.2	-83.4	334	10
2023-09-27T18:00	32470	8	-46.2	-83.4	333	10
2023-09-27T18:00	32496	8	-46.2	-83.4	332	10
2023-09-27T18:00	32508	8	-46.2	-83.4	331	9
2023-09-27T18:00	32560	8	-46.2	-83.4	329	9
2023-09-27T18:00	32600	8	-46.3	-83.4	326	8
2023-09-27T18:00	32626	8	-46.3	-83.4	323	8
2023-09-27T18:00	32658	8	-46.4	-83.5	320	7
2023-09-27T18:00	32683	8	-46.4	-83.5	316	7
2023-09-27T18:00	32704	8	-46.4	-83.5	313	7
2023-09-27T18:00	32754	8	-46.5	-83.6	311	6
2023-09-27T18:00	32790	8	-46.6	-83.6	310	6
2023-09-27T18:00	32804	8	-46.8	-83.8	309	6
2023-09-27T18:00	32831	8	-46.8	-83.8	309	6
2023-09-27T18:00	32869	8	-47.0	-83.9	307	7
2023-09-27T18:00	32915	8	-47.1	-84.0	305	7
2023-09-27T18:00	32928	8	-47.3	-84.1	303	8
2023-09-27T18:00	32960	8	-47.2	-84.1	302	9
2023-09-27T18:00	32989	8	-47.2	-84.1	302	10
2023-09-27T18:00	33033	8	-47.0	-83.9	302	11
2023-09-27T18:00	33045	8	-47.0	-83.9	303	12
2023-09-27T18:00	33078	7	-46.6	-83.6	304	13
2023-09-27T18:00	33115	7	-46.3	-83.4	304	13
2023-09-27T18:00	33136	7	-46.0	-83.2	304	14
2023-09-27T18:00	33184	7	-46.0	-83.2	304	14
2023-09-27T18:00	33193	7	-46.0	-83.2	304	15
2023-09-27T18:00	33222	7	-46.1	-83.3	304	15
2023-09-27T18:00	33237	7	-45.5	-82.9	304	15
2023-09-27T18:00	33278	7	-45.5	-82.9	305	15
2023-09-27T18:00	33296	7	-45.2	-82.7	306	14
2023-09-27T18:00	33332	7	-45.0	-82.5	308	14
2023-09-27T18:00	33359	7	-45.1	-82.6	310	14
2023-09-27T18:00	33378	7	-45.1	-82.6	312	14
2023-09-27T18:00	33385	7	-45.1	-82.6	313	14
2023-09-27T18:00	33443	7	-45.0	-82.5	315	14
2023-09-28T00:00	-999					
2023-09-28T00:00	132	1003	18.4	13.1	125	3
2023-09-28T00:00	157	1000	19.2	12.5	132	5
2023-09-28T00:00	183	997	20.8	11.3	138	6
2023-09-28T00:00	211	994	23.5	9.9	143	7
2023-09-28T00:00	231	991	23.6	10.0	148	8
2023-09-28T00:00	251	989	23.5	9.8	151	8
2023-09-28T00:00	278	986	23.3	9.7	153	9
2023-09-28T00:00	301	983	23.1	9.6	154	9
2023-09-28T00:00	324	981	22.9	9.6	155	9
2023-09-28T00:00	349	978	22.6	9.5	156	9
2023-09-28T00:00	370	976	22.5	9.6	158	9
2023-09-28T00:00	395	973	22.3	9.5	160	9
2023-09-28T00:00	416	970	22.0	9.3	161	10
2023-09-28T00:00	438	968	21.9	9.4	162	10
2023-09-28T00:00	462	965	21.6	9.1	162	11
2023-09-28T00:00	484	963	21.5	9.0	162	11
2023-09-28T00:00	498	961	21.3	8.9	162	11
2023-09-28T00:00	523	959	21.3	8.8	163	11
2023-09-28T00:00	546	956	21.2	8.7	165	11
2023-09-28T00:00	571	953	21.1	8.6	168	10
2023-09-28T00:00	594	951	21.0	8.5	171	10
2023-09-28T00:00	622	948	20.8	8.2	173	10
2023-09-28T00:00	645	945	20.6	7.9	175	9
2023-09-28T00:00	672	942	20.4	7.8	176	9
2023-09-28T00:00	697	939	20.2	7.8	176	9
2023-09-28T00:00	723	937	20.0	7.5	176	9
2023-09-28T00:00	752	934	19.8	7.6	175	9
2023-09-28T00:00	781	930	19.5	7.7	175	8
2023-09-28T00:00	803	928	19.3	7.8	175	8
2023-09-28T00:00	828	925	19.1	7.9	175	8
2023-09-28T00:00	852	923	18.8	7.7	176	8
2023-09-28T00:00	877	920	18.6	7.9	177	8
2023-09-28T00:00	901	917	18.4	7.8	177	9
2023-09-28T00:00	926	915	18.1	7.7	178	9
2023-09-28T00:00	953	912	17.9	7.8	177	9
2023-09-28T00:00	986	909	17.5	7.6	175	10
2023-09-28T00:00	1010	906	17.3		173	10
2023-09-28T00:00	1031	904	17.1	7.6	171	10
2023-09-28T00:00	1051	902	16.9	7.5	169	10
2023-09-28T00:00	1068	900	16.7	7.5	169	10
2023-09-28T00:00	1086	898	16.5	7.4	170	9
2023-09-28T00:00	1109	895	16.4	7.5	172	9
2023-09-28T00:00	1133	893	16.1	7.4	173	9
2023-09-28T00:00	1156	890	15.9	7.4	174	9
2023-09-28T00:00	1183	888	15.6	7.3	174	9
2023-09-28T00:00	1211	885	15.4	7.3	175	9
2023-09-28T00:00	1237	882	15.1	7.2	175	10
2023-09-28T00:00	1264	879	14.8	7.1	177	10
2023-09-28T00:00	1293	876	14.6	7.2	179	10
2023-09-28T00:00	1320	873	14.3	7.1	181	10
2023-09-28T00:00	1349	871	14.0	6.9	182	10
2023-09-28T00:00	1367	868	13.8	6.8	182	10
2023-09-28T00:00	1391	866	13.6	6.8	180	10
2023-09-28T00:00	1410	864	13.4	6.9	179	10
2023-09-28T00:00	1434	862	13.2	6.8	177	10
2023-09-28T00:00	1454	860	13.0	6.8	176	9
2023-09-28T00:00	1477	857	12.8	6.7	175	9
2023-09-28T00:00	1500	855	12.5	6.7	175	9
2023-09-28T00:00	1523	852	12.3	6.6	175	9
2023-09-28T00:00	1553	850	12.0	6.5	176	9
2023-09-28T00:00	1579	847	11.8	6.7	175	9
2023-09-28T00:00	1604	844	11.5	6.5	174	8
2023-09-28T00:00	1627	842	11.3	6.4	171	8
2023-09-28T00:00	1648	840	11.1	6.4	168	8
2023-09-28T00:00	1667	838	10.9	6.3	166	8
2023-09-28T00:00	1685	836	10.7	6.2	167	8
2023-09-28T00:00	1703	834	10.6	6.3	170	9
2023-09-28T00:00	1729	832	10.3	6.2	173	9
2023-09-28T00:00	1753	829	10.1	6.1	176	9
2023-09-28T00:00	1781	827	9.9	5.7	176	10
2023-09-28T00:00	1801	825	10.3	1.7	175	9
2023-09-28T00:00	1825	822	10.5	0.4	172	9
2023-09-28T00:00	1852	820	11.3	-5.5	169	9
2023-09-28T00:00	1876	817	12.0	-12.8	166	8
2023-09-28T00:00	1897	815	12.4	-16.5	164	7
2023-09-28T00:00	1916	813	12.5	-19.5	164	7
2023-09-28T00:00	1932	812	13.0	-22.7	165	7
2023-09-28T00:00	1958	809	13.4	-23.2	166	8
2023-09-28T00:00	1980	807	13.5	-24.3	168	9
2023-09-28T00:00	2003	805	13.7		170	9
2023-09-28T00:00	2019	803	13.6	-24.7	172	10
2023-09-28T00:00	2046	801	13.7	-25.3	174	10
2023-09-28T00:00	2072	798	13.7	-25.6	178	10
2023-09-28T00:00	2098	796	13.8	-26.4	183	9
2023-09-28T00:00	2117	794	13.7	-26.1	188	9
2023-09-28T00:00	2136	792	13.8	-25.8	192	9
2023-09-28T00:00	2149	791	14.1	-26.5	194	8
2023-09-28T00:00	2175	789	14.3	-27.6	194	8
2023-09-28T00:00	2197	787	14.3	-27.9	193	8
2023-09-28T00:00	2216	785	14.4	-28.9	193	8
2023-09-28T00:00	2238	783	14.4	-29.3	195	7
2023-09-28T00:00	2265	780	14.3	-29.3	197	7
2023-09-28T00:00	2291	778	14.1	-29.5	200	8
2023-09-28T00:00	2316	776	14.1	-28.7	201	8
2023-09-28T00:00	2340	773	14.1	-29.1	202	9
2023-09-28T00:00	2360	772	13.9	-28.8	201	10
2023-09-28T00:00	2381	770	13.8	-28.9	200	10
2023-09-28T00:00	2406	767	13.6	-29.0	200	10
2023-09-28T00:00	2427	765	13.5	-28.7	200	11
2023-09-28T00:00	2449	763	13.5	-28.7	200	11
2023-09-28T00:00	2475	761	13.6	-29.8	200	11
2023-09-28T00:00	2504	758	13.6	-29.4	200	12
2023-09-28T00:00	2532	756	13.4	-28.5	200	12
2023-09-28T00:00	2551	754	13.2	-28.3	201	12
2023-09-28T00:00	2572	752	13.0	-26.9	201	13
2023-09-28T00:00	2600	750	12.8	-22.7	201	13
2023-09-28T00:00	2622	748	12.6	-20.4	201	13
2023-09-28T00:00	2641	746	12.3	-15.9	200	13
2023-09-28T00:00	2661	744	12.1	-12.7	200	12
2023-09-28T00:00	2689	742	11.9	-13.0	199	12
2023-09-28T00:00	2709	740	11.8	-13.3	198	11
2023-09-28T00:00	2728	738	11.6	-13.7	198	10
2023-09-28T00:00	2759	736	11.4		198	10
2023-09-28T00:00	2782	734	11.2	-13.9	197	10
2023-09-28T00:00	2802	732	11.0	-13.9	196	10
2023-09-28T00:00	2827	730	10.8	-13.7	195	10
2023-09-28T00:00	2850	728	10.5	-13.2	195	10
2023-09-28T00:00	2877	725	10.3	-12.8	195	11
2023-09-28T00:00	2896	723	10.1	-12.9	195	11
2023-09-28T00:00	2927	721	9.9	-14.1	194	11
2023-09-28T00:00	2958	718	9.8	-18.3	192	10
2023-09-28T00:00	2985	716	9.6	-14.9	190	10
2023-09-28T00:00	3011	714	9.4	-14.8	189	10
2023-09-28T00:00	3033	712	9.2	-15.8	187	9
2023-09-28T00:00	3048	710	9.2	-17.7	187	9
2023-09-28T00:00	3070	708	9.1	-17.1	188	9
2023-09-28T00:00	3109	705	8.8	-15.1	190	9
2023-09-28T00:00	3136	703	8.6	-15.1	192	9
2023-09-28T00:00	3161	701	8.4	-15.4	194	10
2023-09-28T00:00	3188	699	8.1	-15.8	196	10
2023-09-28T00:00	3207	697	7.9	-16.4	197	10
2023-09-28T00:00	3224	695	7.8	-17.7	198	11
2023-09-28T00:00	3242	694	7.7	-17.6	197	11
2023-09-28T00:00	3267	692	7.5	-15.5	197	12
2023-09-28T00:00	3293	690	7.3	-16.2	196	12
2023-09-28T00:00	3312	688	7.2	-16.3	197	12
2023-09-28T00:00	3346	685	7.0	-17.6	197	12
2023-09-28T00:00	3373	683	6.8	-15.6	198	11
2023-09-28T00:00	3391	681	6.7	-16.2	200	11
2023-09-28T00:00	3412	680	6.5	-16.8	201	10
2023-09-28T00:00	3432	678	6.4	-17.7	202	9
2023-09-28T00:00	3456	676	6.2	-19.1	203	9
2023-09-28T00:00	3476	674	6.1	-20.2	204	9
2023-09-28T00:00	3507	672	5.9	-20.0	204	9
2023-09-28T00:00	3531	670	5.8	-20.0	205	9
2023-09-28T00:00	3549	668	5.7	-20.4	205	9
2023-09-28T00:00	3568	667	5.5	-19.0	205	9
2023-09-28T00:00	3588	665	5.4	-18.5	205	9
2023-09-28T00:00	3617	663	5.1	-17.7	205	9
2023-09-28T00:00	3633	662	5.0	-17.5	206	10
2023-09-28T00:00	3659	660	4.7	-16.7	206	10
2023-09-28T00:00	3682	658	4.5		207	10
2023-09-28T00:00	3713	655	4.3	-16.5	209	9
2023-09-28T00:00	3736	653	4.1	-16.5	210	9
2023-09-28T00:00	3761	651	3.9	-16.5	211	8
2023-09-28T00:00	3778	650	3.7	-16.5	211	8
2023-09-28T00:00	3799	648	3.5	-16.5	211	8
2023-09-28T00:00	3827	646	3.3	-16.5	210	8
2023-09-28T00:00	3853	644	3.1	-16.9	208	8
2023-09-28T00:00	3872	642	3.1	-17.2	206	8
2023-09-28T00:00	3898	640	2.9	-17.3	204	9
2023-09-28T00:00	3921	639	2.8	-17.2	203	9
2023-09-28T00:00	3939	637	2.6	-17.3	203	9
2023-09-28T00:00	3960	635	2.4	-17.3	205	10
2023-09-28T00:00	3987	633	2.3	-16.9	207	10
2023-09-28T00:00	4025	631	2.0	-17.8	208	11
2023-09-28T00:00	4057	628	1.9	-17.8	209	12
2023-09-28T00:00	4084	626	1.7	-17.6	210	13
2023-09-28T00:00	4102	624	1.5	-17.5	210	13
2023-09-28T00:00	4133	622	1.2	-17.3	210	13
2023-09-28T00:00	4158	620	1.1	-17.4	210	13
2023-09-28T00:00	4174	619	0.9	-17.6	210	13
2023-09-28T00:00	4193	617	0.7	-17.6	209	12
2023-09-28T00:00	4211	616	0.6	-17.6	209	12
2023-09-28T00:00	4229	615	0.4	-17.6	208	12
2023-09-28T00:00	4245	613	0.2	-17.6	207	12
2023-09-28T00:00	4270	611	0.0	-17.6	206	11
2023-09-28T00:00	4296	609	-0.2	-17.9	206	11
2023-09-28T00:00	4318	608	-0.4	-18.0	205	11
2023-09-28T00:00	4340	606	-0.6	-18.1	204	11
2023-09-28T00:00	4362	604	-0.8	-18.4	204	11
2023-09-28T00:00	4381	603	-1.0	-18.5	203	11
2023-09-28T00:00	4406	601	-1.2	-18.3	203	11
2023-09-28T00:00	4439	599	-1.5	-19.2	203	11
2023-09-28T00:00	4457	597	-1.6	-19.2	202	11
2023-09-28T00:00	4485	595	-1.8	-19.4	201	11
2023-09-28T00:00	4503	594	-2.0	-19.6	199	11
2023-09-28T00:00	4526	592	-2.2	-19.7	198	12
2023-09-28T00:00	4549	590	-2.4	-19.9	196	12
2023-09-28T00:00	4575	588	-2.6	-20.5	195	13
2023-09-28T00:00	4604	586	-2.8	-20.3	195	13
2023-09-28T00:00	4625	585	-3.0	-19.6	195	13
2023-09-28T00:00	4645	583	-3.3	-19.7	196	13
2023-09-28T00:00	4668	582	-3.5	-19.4	198	13
2023-09-28T00:00	4691	580	-3.7	-19.9	201	12
2023-09-28T00:00	4722	578	-3.9	-20.8	202	12
2023-09-28T00:00	4744	576	-4.1	-21.1	203	12
2023-09-28T00:00	4773	574	-4.3	-21.0	202	12
2023-09-28T00:00	4792	573	-4.5	-21.1	201	11
2023-09-28T00:00	4811	571	-4.6	-20.4	198	11
2023-09-28T00:00	4832	569	-4.7	-21.0	196	10
2023-09-28T00:00	4866	567	-4.9	-21.3	193	10
2023-09-28T00:00	4885	566	-5.0	-21.1	191	9
2023-09-28T00:00	4912	564	-5.2	-21.5	189	9
2023-09-28T00:00	4938	562	-5.4	-21.7	189	9
2023-09-28T00:00	4958	560	-5.5	-22.2	189	10
2023-09-28T00:00	4991	558	-5.6	-23.2	191	10
2023-09-28T00:00	5009	557	-5.7	-23.2	192	10
2023-09-28T00:00	5027	556	-5.8	-23.3	193	10
2023-09-28T00:00	5045	554	-5.9	-23.5	193	10
2023-09-28T00:00	5062	553	-6.0	-23.7	192	11
2023-09-28T00:00	5081	552	-6.1	-23.0	190	11
2023-09-28T00:00	5100	551	-6.2	-23.0	189	11
2023-09-28T00:00	5118	549	-6.3	-22.8	189	11
2023-09-28T00:00	5138	548	-6.3	-23.6	188	11
2023-09-28T00:00	5157	546	-6.2	-24.8	188	11
2023-09-28T00:00	5177	545	-6.3	-24.2	187	11
2023-09-28T00:00	5198	544	-6.4	-22.4	186	11
2023-09-28T00:00	5225	542	-6.7	-21.8	185	11
2023-09-28T00:00	5251	540	-6.9	-22.0	184	12
2023-09-28T00:00	5283	538	-7.2	-22.0	183	12
2023-09-28T00:00	5305	536	-7.4	-22.0	183	12
2023-09-28T00:00	5324	535	-7.5	-21.9	182	13
2023-09-28T00:00	5343	534	-7.7	-21.9	182	12
2023-09-28T00:00	5362	532	-7.9	-21.9	182	12
2023-09-28T00:00	5382	531	-8.0	-21.8	181	12
2023-09-28T00:00	5401	530	-8.2	-21.9	181	12
2023-09-28T00:00	5422	528	-8.4	-21.9	181	12
2023-09-28T00:00	5442	527	-8.6	-22.0	181	12
2023-09-28T00:00	5469	525	-8.9	-22.1	180	13
2023-09-28T00:00	5503	523	-9.2	-22.5	180	13
2023-09-28T00:00	5543	520	-9.5	-22.7	180	13
2023-09-28T00:00	5566	518	-9.8	-22.9	180	13
2023-09-28T00:00	5585	517	-9.9	-22.8	179	13
2023-09-28T00:00	5605	516	-10.1	-22.9	179	12
2023-09-28T00:00	5625	514	-10.3	-23.0	179	12
2023-09-28T00:00	5656	512	-10.6	-23.2	179	12
2023-09-28T00:00	5686	510	-10.9	-23.4	179	12
2023-09-28T00:00	5712	509	-11.1	-23.8	179	12
2023-09-28T00:00	5731	507	-11.2	-24.1	179	12
2023-09-28T00:00	5750	506	-11.4	-24.0	179	12
2023-09-28T00:00	5768	505	-11.5	-23.6	179	12
2023-09-28T00:00	5787	504	-11.7	-23.8	179	12
2023-09-28T00:00	5804	503	-11.9	-23.1	179	12
2023-09-28T00:00	5823	501	-12.1	-22.8	179	12
2023-09-28T00:00	5840	500	-12.2	-22.8	179	12
2023-09-28T00:00	5859	499	-12.4	-22.8	178	11
2023-09-28T00:00	5879	498	-12.6	-22.8	177	11
2023-09-28T00:00	5899	496	-12.8	-23.0	176	11
2023-09-28T00:00	5925	495	-13.0	-22.6	175	11
2023-09-28T00:00	5955	493	-13.3	-22.8	174	11
2023-09-28T00:00	5992	491	-13.6	-22.5	173	10
2023-09-28T00:00	6012	489	-13.8	-22.6	173	10
2023-09-28T00:00	6027	488	-13.9	-22.8	173	10
2023-09-28T00:00	6047	487	-14.0	-23.2	174	10
2023-09-28T00:00	6065	486	-14.2	-23.6	176	10
2023-09-28T00:00	6083	485	-14.3	-23.9	178	10
2023-09-28T00:00	6105	483	-14.5	-24.0	181	10
2023-09-28T00:00	6132	481	-14.7	-24.3	183	10
2023-09-28T00:00	6169	479	-14.9	-25.0	184	10
2023-09-28T00:00	6191	478	-15.0	-25.1	185	10
2023-09-28T00:00	6209	477	-15.2	-25.2	185	10
2023-09-28T00:00	6229	475	-15.3	-25.3	186	9
2023-09-28T00:00	6250	474	-15.4	-25.8	187	9
2023-09-28T00:00	6273	473	-15.5	-27.0	189	8
2023-09-28T00:00	6300	471	-15.5	-27.8	190	8
2023-09-28T00:00	6324	469	-15.7	-28.4	190	8
2023-09-28T00:00	6351	468	-15.9	-28.6	188	9
2023-09-28T00:00	6378	466	-16.0	-30.2	184	9
2023-09-28T00:00	6408	464	-16.1	-30.3	180	9
2023-09-28T00:00	6433	462	-16.3	-30.3	176	9
2023-09-28T00:00	6464	461	-16.5	-31.1	173	9
2023-09-28T00:00	6488	459	-16.5	-31.3	171	9
2023-09-28T00:00	6514	458	-16.6	-30.8	171	9
2023-09-28T00:00	6545	456	-16.9	-31.1	172	10
2023-09-28T00:00	6571	454	-17.1	-31.9	174	10
2023-09-28T00:00	6602	452	-17.4	-32.6	175	11
2023-09-28T00:00	6627	451	-17.6	-33.1	176	11
2023-09-28T00:00	6643	450	-17.8	-33.2	176	11
2023-09-28T00:00	6661	449	-17.9	-33.2	175	11
2023-09-28T00:00	6678	448	-18.1	-33.3	173	10
2023-09-28T00:00	6696	447	-18.2	-33.3	171	10
2023-09-28T00:00	6716	445	-18.4	-33.6	170	10
2023-09-28T00:00	6742	444	-18.6	-33.4	170	10
2023-09-28T00:00	6768	442	-18.8	-32.4	170	10
2023-09-28T00:00	6795	441	-18.9	-31.2	171	9
2023-09-28T00:00	6823	439	-18.7	-32.5	173	9
2023-09-28T00:00	6850	438	-18.8	-31.7	175	9
2023-09-28T00:00	6879	436	-18.9	-33.5	177	9
2023-09-28T00:00	6905	434	-19.1	-34.3	179	9
2023-09-28T00:00	6933	433	-19.3	-33.6	180	9
2023-09-28T00:00	6963	431	-19.5	-33.9	181	10
2023-09-28T00:00	6992	429	-19.6	-35.1	182	10
2023-09-28T00:00	7019	428	-19.7	-35.6	183	10
2023-09-28T00:00	7042	426	-19.8	-36.1	184	10
2023-09-28T00:00	7075	425	-20.1	-35.9	183	10
2023-09-28T00:00	7093	423	-20.2	-36.0	182	10
2023-09-28T00:00	7117	422	-20.5	-36.1	179	10
2023-09-28T00:00	7143	421	-20.7	-36.1	177	9
2023-09-28T00:00	7173	419	-21.0	-36.2	176	9
2023-09-28T00:00	7204	417	-21.3	-36.3	176	9
2023-09-28T00:00	7234	415	-21.6	-36.4	177	9
2023-09-28T00:00	7259	414	-21.8	-36.2	178	8
2023-09-28T00:00	7289	412	-22.1	-36.2	179	8
2023-09-28T00:00	7316	411	-22.4	-36.2	179	8
2023-09-28T00:00	7339	410	-22.6	-36.2	178	8
2023-09-28T00:00	7364	408	-22.7	-35.6	177	8
2023-09-28T00:00	7389	407	-22.8	-35.4	176	8
2023-09-28T00:00	7419	405	-23.0	-35.1	176	7
2023-09-28T00:00	7448	403	-23.2	-35.3	176	7
2023-09-28T00:00	7479	402	-23.4	-36.1	177	6
2023-09-28T00:00	7502	401	-23.5	-37.5	178	6
2023-09-28T00:00	7528	399	-23.6	-39.1	179	5
2023-09-28T00:00	7554	398	-23.7	-42.1	178	5
2023-09-28T00:00	7578	396	-23.7	-47.0	177	4
2023-09-28T00:00	7605	395	-23.6	-51.9	175	4
2023-09-28T00:00	7629	394	-23.6	-52.0	173	3
2023-09-28T00:00	7658	392	-23.8		171	3
2023-09-28T00:00	7687	391	-23.9	-51.7	169	2
2023-09-28T00:00	7716	389	-24.1	-51.7	165	2
2023-09-28T00:00	7743	387	-24.3	-51.9	158	2
2023-09-28T00:00	7775	386	-24.5	-52.0	152	2
2023-09-28T00:00	7806	384	-24.8	-51.9	147	3
2023-09-28T00:00	7835	383	-25.0	-51.4	145	3
2023-09-28T00:00	7863	381	-25.2	-50.7	143	3
2023-09-28T00:00	7891	380	-25.5	-51.0	142	3
2023-09-28T00:00	7922	378	-25.6	-52.6	141	2
2023-09-28T00:00	7950	377	-25.8	-52.6	136	2
2023-09-28T00:00	7976	375	-26.0	-52.7	125	1
2023-09-28T00:00	8006	374	-26.3	-52.6	108	1
2023-09-28T00:00	8039	372	-26.5	-52.6	100	1
2023-09-28T00:00	8068	371	-26.8	-52.7	102	1
2023-09-28T00:00	8098	369	-27.0	-52.7	104	1
2023-09-28T00:00	8132	367	-27.3	-52.8	101	2
2023-09-28T00:00	8158	366	-27.6	-52.9	94	2
2023-09-28T00:00	8185	365	-27.8	-53.0	85	2
2023-09-28T00:00	8212	363	-28.1	-53.2	76	2
2023-09-28T00:00	8237	362	-28.3	-53.2	69	2
2023-09-28T00:00	8262	361	-28.5	-53.3	67	2
2023-09-28T00:00	8287	359	-28.7	-53.3	71	2
2023-09-28T00:00	8314	358	-29.0	-53.4	79	2
2023-09-28T00:00	8347	356	-29.3	-53.5	89	2
2023-09-28T00:00	8378	355	-29.6	-53.6	96	2
2023-09-28T00:00	8404	354	-29.8	-53.7	100	2
2023-09-28T00:00	8431	352	-30.0	-54.1	101	3
2023-09-28T00:00	8455	351	-30.2	-54.4	101	3
2023-09-28T00:00	8478	350	-30.4	-54.4	100	3
2023-09-28T00:00	8506	349	-30.6	-54.6	102	3
2023-09-28T00:00	8535	347	-30.9	-54.6	105	3
2023-09-28T00:00	8562	346	-31.1	-54.7	107	4
2023-09-28T00:00	8585	345	-31.4	-54.9	109	4
2023-09-28T00:00	8605	344	-31.5	-54.8	110	4
2023-09-28T00:00	8626	343	-31.7	-55.0	110	4
2023-09-28T00:00	8647	342	-31.9	-54.9	109	4
2023-09-28T00:00	8669	341	-32.1	-54.7	108	4
2023-09-28T00:00	8688	340	-32.2	-54.6	108	4
2023-09-28T00:00	8708	339	-32.4	-54.6	108	4
2023-09-28T00:00	8728	338	-32.6	-54.7	108	4
2023-09-28T00:00	8747	337	-32.8	-55.1	107	4
2023-09-28T00:00	8766	336	-32.9	-55.3	105	3
2023-09-28T00:00	8786	335	-33.1	-55.6	104	3
2023-09-28T00:00	8807	334	-33.2	-55.7	104	3
2023-09-28T00:00	8826	333	-33.4	-55.8	104	3
2023-09-28T00:00	8851	332	-33.6	-56.1	106	3
2023-09-28T00:00	8876	331	-33.8	-56.1	107	3
2023-09-28T00:00	8903	329	-34.1	-56.1	108	3
2023-09-28T00:00	8929	328	-34.4	-56.0	105	3
2023-09-28T00:00	8958	327	-34.6	-55.9	100	3
2023-09-28T00:00	8985	326	-34.9	-56.1	94	3
2023-09-28T00:00	9012	324	-35.2	-56.2	87	3
2023-09-28T00:00	9037	323	-35.4	-55.9	82	3
2023-09-28T00:00	9062	322	-35.6	-56.2	79	3
2023-09-28T00:00	9088	321	-35.9	-56.0	78	3
2023-09-28T00:00	9111	320	-36.1	-56.0	78	3
2023-09-28T00:00	9134	319	-36.4	-56.2	79	3
2023-09-28T00:00	9154	318	-36.6	-56.2	80	3
2023-09-28T00:00	9171	317	-36.7	-56.1	82	3
2023-09-28T00:00	9189	316	-36.9	-55.9	83	3
2023-09-28T00:00	9209	315	-37.1	-55.8	84	3
2023-09-28T00:00	9228	314	-37.3	-55.8	85	3
2023-09-28T00:00	9249	313	-37.5	-55.1	84	3
2023-09-28T00:00	9270	313	-37.7	-54.7	82	3
2023-09-28T00:00	9288	312	-37.8	-54.4	81	3
2023-09-28T00:00	9307	311	-38.0	-54.0	79	3
2023-09-28T00:00	9324	310	-38.2	-53.9	79	3
2023-09-28T00:00	9344	309	-38.3	-53.9	80	3
2023-09-28T00:00	9363	308	-38.5	-54.4	81	3
2023-09-28T00:00	9382	307	-38.7	-54.8	82	3
2023-09-28T00:00	9402	307	-38.9	-54.5	82	3
2023-09-28T00:00	9419	306	-39.0	-52.2	82	4
2023-09-28T00:00	9438	305	-39.2	-50.8	82	4
2023-09-28T00:00	9457	304	-39.4	-50.5	81	4
2023-09-28T00:00	9479	303	-39.6	-50.1	80	4
2023-09-28T00:00	9501	302	-39.7	-49.2	79	4
2023-09-28T00:00	9520	301	-39.9		77	4
2023-09-28T00:00	9541	300	-40.0	-47.7	77	4
2023-09-28T00:00	9564	299	-40.3	-47.9	77	4
2023-09-28T00:00	9582	299	-40.4	-48.2	77	4
2023-09-28T00:00	9603	298	-40.6	-48.1	77	4
2023-09-28T00:00	9633	296	-40.9	-46.8	76	4
2023-09-28T00:00	9661	295	-41.2	-46.4	76	4
2023-09-28T00:00	9687	294	-41.4	-47.5	75	4
2023-09-28T00:00	9712	293	-41.7	-48.2	77	3
2023-09-28T00:00	9737	292	-41.9	-46.8	80	3
2023-09-28T00:00	9757	291	-42.1	-46.6	84	3
2023-09-28T00:00	9776	290	-42.3	-46.6	88	4
2023-09-28T00:00	9797	289	-42.5	-47.6	89	4
2023-09-28T00:00	9817	288	-42.6	-48.0	90	4
2023-09-28T00:00	9835	288	-42.8	-48.0	90	4
2023-09-28T00:00	9854	287	-42.9	-48.4	90	4
2023-09-28T00:00	9872	286	-43.1	-48.9	89	4
2023-09-28T00:00	9893	285	-43.2	-49.1	88	4
2023-09-28T00:00	9913	284	-43.3	-49.7	87	4
2023-09-28T00:00	9932	284	-43.3	-50.6	86	4
2023-09-28T00:00	9951	283	-43.5	-51.2	84	4
2023-09-28T00:00	9970	282	-43.6	-52.0	83	4
2023-09-28T00:00	9989	281	-43.8	-52.0	81	4
2023-09-28T00:00	10008	280	-44.0	-51.5	80	4
2023-09-28T00:00	10026	280	-44.0	-51.3	80	5
2023-09-28T00:00	10047	279	-44.1	-51.4	81	5
2023-09-28T00:00	10065	278	-44.3	-51.6	82	5
2023-09-28T00:00	10087	277	-44.4	-52.3	83	5
2023-09-28T00:00	10105	276	-44.6	-52.4	84	5
2023-09-28T00:00	10125	276	-44.8	-52.7	83	5
2023-09-28T00:00	10143	275	-44.9	-54.1	82	6
2023-09-28T00:00	10163	274	-45.1	-53.9	81	6
2023-09-28T00:00	10180	273	-45.2	-53.1	80	6
2023-09-28T00:00	10200	272	-45.4	-52.6	79	6
2023-09-28T00:00	10219	272	-45.6	-52.4	78	6
2023-09-28T00:00	10238	271	-45.7	-53.1	78	6
2023-09-28T00:00	10257	270	-45.8	-54.1	77	6
2023-09-28T00:00	10276	269	-45.9	-54.7	77	6
2023-09-28T00:00	10294	269	-46.1	-54.5	76	6
2023-09-28T00:00	10313	268	-46.2	-54.1	75	6
2023-09-28T00:00	10333	267	-46.4	-54.2	75	6
2023-09-28T00:00	10352	266	-46.6	-54.8	76	6
2023-09-28T00:00	10371	265	-46.7	-55.9	77	6
2023-09-28T00:00	10391	265	-46.9	-56.0	76	5
2023-09-28T00:00	10411	264	-47.1	-55.7	75	5
2023-09-28T00:00	10431	263	-47.2	-55.6	71	5
2023-09-28T00:00	10451	262	-47.4	-55.6	67	5
2023-09-28T00:00	10478	261	-47.6	-55.4	62	4
2023-09-28T00:00	10499	260	-47.8	-55.5	59	4
2023-09-28T00:00	10519	260	-48.0	-55.8	59	4
2023-09-28T00:00	10538	259	-48.2	-55.7	60	4
2023-09-28T00:00	10557	258	-48.3	-55.7	63	3
2023-09-28T00:00	10577	257	-48.5	-56.0	64	3
2023-09-28T00:00	10595	257	-48.6	-56.4	64	3
2023-09-28T00:00	10613	256	-48.8	-57.6	63	3
2023-09-28T00:00	10631	255	-48.9	-58.8	61	3
2023-09-28T00:00	10650	255	-49.0	-58.9	61	3
2023-09-28T00:00	10668	254	-49.1	-58.4	61	3
2023-09-28T00:00	10685	253	-49.3	-58.2	61	3
2023-09-28T00:00	10703	252	-49.5	-58.0	61	3
2023-09-28T00:00	10723	252	-49.7	-57.9	62	3
2023-09-28T00:00	10741	251	-49.8	-57.9	62	3
2023-09-28T00:00	10759	250	-50.0	-58.4	63	3
2023-09-28T00:00	10779	250	-50.1	-59.4	63	3
2023-09-28T00:00	10800	249	-50.2	-60.8	64	2
2023-09-28T00:00	10818	248	-50.2	-61.6	63	2
2023-09-28T00:00	10836	247	-50.4	-61.7	62	2
2023-09-28T00:00	10855	247	-50.5	-61.7	61	2
2023-09-28T00:00	10872	246	-50.7	-61.7	61	2
2023-09-28T00:00	10891	245	-50.8	-61.9	60	2
2023-09-28T00:00	10912	245	-50.9	-62.7	58	2
2023-09-28T00:00	10930	244	-51.0	-63.4	56	2
2023-09-28T00:00	10950	243	-51.2	-63.5	51	2
2023-09-28T00:00	10967	242	-51.3	-63.2	45	2
2023-09-28T00:00	10985	242	-51.5	-63.1	37	2
2023-09-28T00:00	11003	241	-51.7	-63.2	31	1
2023-09-28T00:00	11022	240	-51.8	-63.6	30	1
2023-09-28T00:00	11040	240	-51.9	-64.0	38	1
2023-09-28T00:00	11064	239	-52.0	-64.1	60	1
2023-09-28T00:00	11088	238	-52.2	-64.3	86	1
2023-09-28T00:00	11116	237	-52.4	-64.5	99	1
2023-09-28T00:00	11138	236	-52.6	-64.5	104	1
2023-09-28T00:00	11159	235	-52.8	-64.6	105	1
2023-09-28T00:00	11182	235	-53.0	-64.8	106	1
2023-09-28T00:00	11203	234	-53.2	-64.9	113	1
2023-09-28T00:00	11226	233	-53.4	-64.9	123	1
2023-09-28T00:00	11247	232	-53.6	-64.9	133	2
2023-09-28T00:00	11267	231	-53.7	-64.9	138	2
2023-09-28T00:00	11286	231	-53.9	-65.1	138	2
2023-09-28T00:00	11305	230	-54.0	-65.1	132	2
2023-09-28T00:00	11324	229	-54.2		120	1
2023-09-28T00:00	11341	229	-54.4	-65.2	104	1
2023-09-28T00:00	11361	228	-54.5	-65.2	88	1
2023-09-28T00:00	11379	227	-54.7	-65.3	77	1
2023-09-28T00:00	11399	227	-54.9	-65.3	73	1
2023-09-28T00:00	11417	226	-55.0	-65.2	80	0
2023-09-28T00:00	11436	225	-55.2	-65.3	112	0
2023-09-28T00:00	11455	225	-55.4	-65.3	163	0
2023-09-28T00:00	11474	224	-55.6	-65.5	193	0
2023-09-28T00:00	11493	223	-55.7	-65.5	266	0
2023-09-28T00:00	11513	223	-55.9	-65.6	326	0
2023-09-28T00:00	11533	222	-56.1	-65.6	331	0
2023-09-28T00:00	11551	221	-56.3	-65.6	324	0
2023-09-28T00:00	11572	221	-56.4	-65.4	312	1
2023-09-28T00:00	11590	220	-56.6	-65.5	302	1
2023-09-28T00:00	11609	219	-56.8	-65.5	294	1
2023-09-28T00:00	11628	219	-57.0	-65.6	286	1
2023-09-28T00:00	11650	218	-57.1	-65.6	278	1
2023-09-28T00:00	11670	217	-57.3	-65.7	270	2
2023-09-28T00:00	11692	216	-57.5	-66.1	264	2
2023-09-28T00:00	11716	216	-57.7	-66.6	260	2
2023-09-28T00:00	11736	215	-57.9	-66.8	258	3
2023-09-28T00:00	11755	214	-58.1	-66.9	258	3
2023-09-28T00:00	11776	214	-58.2	-67.0	259	3
2023-09-28T00:00	11798	213	-58.3	-67.1	263	3
2023-09-28T00:00	11816	212	-58.5	-67.3	269	3
2023-09-28T00:00	11837	212	-58.6	-67.3	276	3
2023-09-28T00:00	11856	211	-58.8	-67.2	282	3
2023-09-28T00:00	11876	210	-58.9	-67.0	286	3
2023-09-28T00:00	11894	210	-59.1	-67.0	288	3
2023-09-28T00:00	11916	209	-59.3	-67.0	289	4
2023-09-28T00:00	11935	208	-59.5	-67.0	289	4
2023-09-28T00:00	11957	208	-59.6	-67.0	290	4
2023-09-28T00:00	11977	207	-59.8	-67.1	290	4
2023-09-28T00:00	11996	206	-60.0	-67.3	291	5
2023-09-28T00:00	12016	206	-60.1	-67.4	291	5
2023-09-28T00:00	12037	205	-60.3	-67.7	292	5
2023-09-28T00:00	12057	204	-60.4	-67.8	292	5
2023-09-28T00:00	12080	204	-60.6	-68.1	293	5
2023-09-28T00:00	12098	203	-60.8	-68.1	295	5
2023-09-28T00:00	12120	202	-60.8	-68.0	296	6
2023-09-28T00:00	12141	202	-60.9	-67.9	297	6
2023-09-28T00:00	12161	201	-61.0	-67.8	298	6
2023-09-28T00:00	12180	200	-61.1	-67.7	298	6
2023-09-28T00:00	12199	200	-61.2	-67.6	299	7
2023-09-28T00:00	12219	199	-61.2	-67.7	298	7
2023-09-28T00:00	12239	198	-61.0	-67.8	298	8
2023-09-28T00:00	12258	198	-60.7	-68.0	298	8
2023-09-28T00:00	12278	197	-60.4	-68.2	298	8
2023-09-28T00:00	12298	197	-60.2	-68.4	298	8
2023-09-28T00:00	12315	196	-60.2	-68.5	298	8
2023-09-28T00:00	12334	195	-60.2	-68.5	297	8
2023-09-28T00:00	12352	195	-60.3	-68.4	298	9
2023-09-28T00:00	12372	194	-60.4	-68.5	298	9
2023-09-28T00:00	12391	194	-60.5	-68.6	298	9
2023-09-28T00:00	12409	193	-60.5	-68.9	299	9
2023-09-28T00:00	12427	192	-60.3	-68.9	299	9
2023-09-28T00:00	12445	192	-60.4	-69.1	300	9
2023-09-28T00:00	12462	191	-60.5	-69.1	301	9
2023-09-28T00:00	12478	191	-60.7	-69.2	303	8
2023-09-28T00:00	12495	190	-60.7		304	8
2023-09-28T00:00	12520	190	-60.7	-69.4	307	6
2023-09-28T00:00	12548	189	-60.6	-69.8	309	5
2023-09-28T00:00	12565	188	-60.5	-70.3	310	5
2023-09-28T00:00	12580	188	-60.1	-70.7	311	4
2023-09-28T00:00	12599	187	-59.9	-71.3	310	4
2023-09-28T00:00	12620	187	-59.7	-71.6	308	4
2023-09-28T00:00	12638	186	-59.7	-71.7	306	5
2023-09-28T00:00	12659	185	-59.9	-71.9	302	5
2023-09-28T00:00	12678	185	-60.0	-71.8	299	5
2023-09-28T00:00	12700	184	-60.3	-71.9	296	5
2023-09-28T00:00	12728	183	-60.5	-71.9	294	6
2023-09-28T00:00	12745	183	-60.6	-71.8	293	5
2023-09-28T00:00	12765	182	-60.8	-71.9	293	5
2023-09-28T00:00	12791	182	-60.8	-72.1	293	4
2023-09-28T00:00	12815	181	-60.8	-72.3	289	4
2023-09-28T00:00	12834	180	-60.7	-72.6	283	3
2023-09-28T00:00	12856	180	-60.4	-72.8	274	2
2023-09-28T00:00	12877	179	-60.5	-73.2	260	2
2023-09-28T00:00	12899	178	-60.7	-73.4	230	1
2023-09-28T00:00	12926	178	-61.0	-73.5	187	1
2023-09-28T00:00	12964	177	-61.3	-73.6	166	1
2023-09-28T00:00	12985	176	-61.4	-73.6	167	2
2023-09-28T00:00	13007	175	-61.7	-73.8	178	2
2023-09-28T00:00	13027	175	-61.9	-74.1	195	2
2023-09-28T00:00	13049	174	-61.9	-74.1	210	2
2023-09-28T00:00	13071	174	-62.0	-74.2	222	3
2023-09-28T00:00	13091	173	-62.1	-74.4	230	3
2023-09-28T00:00	13111	172	-62.3	-74.7	235	3
2023-09-28T00:00	13132	172	-62.2	-74.8	238	3
2023-09-28T00:00	13152	171	-62.2	-75.1	238	4
2023-09-28T00:00	13174	171	-62.1	-75.4	238	4
2023-09-28T00:00	13193	170	-62.0	-75.8	238	4
2023-09-28T00:00	13213	170	-62.0	-76.4	239	5
2023-09-28T00:00	13233	169	-61.7	-76.7	241	5
2023-09-28T00:00	13252	169	-61.8	-77.3	243	5
2023-09-28T00:00	13272	168	-61.7	-77.6	246	5
2023-09-28T00:00	13293	167	-61.4	-77.7	248	6
2023-09-28T00:00	13312	167	-61.4	-78.0	250	6
2023-09-28T00:00	13330	166	-61.0	-78.0	251	6
2023-09-28T00:00	13348	166	-60.9	-78.1	252	6
2023-09-28T00:00	13365	165	-60.8	-78.3	253	6
2023-09-28T00:00	13384	165	-60.8	-78.4	255	6
2023-09-28T00:00	13403	164	-61.0	-78.6	258	6
2023-09-28T00:00	13420	164	-61.1	-78.7	262	6
2023-09-28T00:00	13439	164	-61.2	-78.8	264	6
2023-09-28T00:00	13457	163	-61.3	-78.9	266	6
2023-09-28T00:00	13478	163	-61.0	-78.9	266	6
2023-09-28T00:00	13496	162	-60.8	-79.2	264	5
2023-09-28T00:00	13513	162	-60.2	-79.5	263	5
2023-09-28T00:00	13534	161	-59.7	-79.6	261	5
2023-09-28T00:00	13554	161	-59.6	-80.0	260	5
2023-09-28T00:00	13573	160	-59.5	-80.2	259	5
2023-09-28T00:00	13593	160	-59.7	-80.3	257	5
2023-09-28T00:00	13612	159	-59.8	-80.3	255	5
2023-09-28T00:00	13634	159	-60.0	-80.5	252	5
2023-09-28T00:00	13653	158	-60.1	-80.4	248	4
2023-09-28T00:00	13674	157	-60.2	-80.5	246	4
2023-09-28T00:00	13696	157	-60.3	-80.6	243	4
2023-09-28T00:00	13718	156	-60.4		242	4
2023-09-28T00:00	13741	156	-60.5	-80.7	241	4
2023-09-28T00:00	13762	155	-60.7	-80.9	240	4
2023-09-28T00:00	13785	155	-60.7	-81.0	238	4
2023-09-28T00:00	13808	154	-60.7	-81.2	237	4
2023-09-28T00:00	13829	154	-60.8	-81.4	235	5
2023-09-28T00:00	13852	153	-60.8	-81.5	232	5
2023-09-28T00:00	13874	153	-60.9	-81.9	229	5
2023-09-28T00:00	13895	152	-60.9	-82.2	226	6
2023-09-28T00:00	13917	151	-60.5	-82.3	223	6
2023-09-28T00:00	13938	151	-60.0	-82.6	220	7
2023-09-28T00:00	13962	150	-59.4	-82.5	217	7
2023-09-28T00:00	13981	150	-59.2	-82.5	215	7
2023-09-28T00:00	14002	149	-59.2	-82.7	213	7
2023-09-28T00:00	14021	149	-59.4	-82.9	212	7
2023-09-28T00:00	14043	148	-59.4	-82.9	211	8
2023-09-28T00:00	14067	148	-59.4	-82.9	209	8
2023-09-28T00:00	14086	147	-59.5	-82.9	208	8
2023-09-28T00:00	14107	147	-59.5	-82.7	208	8
2023-09-28T00:00	14128	146	-59.6	-82.8	207	8
2023-09-28T00:00	14147	146	-59.8	-83.0	207	8
2023-09-28T00:00	14168	146	-60.0	-82.9	206	8
2023-09-28T00:00	14186	145	-60.2	-82.9	205	8
2023-09-28T00:00	14206	145	-60.3	-83.0	204	8
2023-09-28T00:00	14226	144	-60.4	-82.9	204	8
2023-09-28T00:00	14246	144	-60.5	-83.0	204	8
2023-09-28T00:00	14265	143	-60.7	-83.1	204	7
2023-09-28T00:00	14285	143	-60.8	-83.0	204	7
2023-09-28T00:00	14306	142	-61.0	-83.2	205	7
2023-09-28T00:00	14325	142	-61.1	-83.1	205	7
2023-09-28T00:00	14343	141	-61.2	-83.2	205	7
2023-09-28T00:00	14362	141	-61.1	-83.1	205	7
2023-09-28T00:00	14383	141	-61.2	-83.0	206	8
2023-09-28T00:00	14403	140	-61.3	-83.1	207	8
2023-09-28T00:00	14422	140	-61.5	-83.1	208	8
2023-09-28T00:00	14444	139	-61.7	-83.3	210	9
2023-09-28T00:00	14464	139	-61.7	-83.1	211	9
2023-09-28T00:00	14484	138	-61.8	-83.2	213	9
2023-09-28T00:00	14503	138	-61.8	-83.2	215	10
2023-09-28T00:00	14525	137	-62.0	-83.4	218	10
2023-09-28T00:00	14546	137	-62.0	-83.4	220	11
2023-09-28T00:00	14566	136	-62.0	-83.4	222	11
2023-09-28T00:00	14585	136	-61.5	-83.1	224	11
2023-09-28T00:00	14605	136	-61.4	-83.0	225	11
2023-09-28T00:00	14625	135	-61.6	-83.2	227	11
2023-09-28T00:00	14647	135	-61.8	-83.4	229	12
2023-09-28T00:00	14667	134	-61.8	-83.4	231	12
2023-09-28T00:00	14687	134	-61.6	-83.2	233	12
2023-09-28T00:00	14708	133	-61.5	-83.3	234	12
2023-09-28T00:00	14730	133	-61.6	-83.3	235	13
2023-09-28T00:00	14750	132	-61.7	-83.4	234	13
2023-09-28T00:00	14769	132	-61.7	-83.4	234	13
2023-09-28T00:00	14791	132	-61.7	-83.6	234	12
2023-09-28T00:00	14812	131	-61.4	-83.7	234	12
2023-09-28T00:00	14833	131	-60.8	-83.4	235	12
2023-09-28T00:00	14855	130	-60.7	-83.5	236	12
2023-09-28T00:00	14875	130	-60.6	-83.6	238	12
2023-09-28T00:00	14898	129	-60.7	-83.7	240	12
2023-09-28T00:00	14919	129	-60.7	-83.7	242	12
2023-09-28T00:00	14939	128	-60.8	-84.0	243	13
2023-09-28T00:00	14961	128	-60.8	-84.0	244	13
2023-09-28T00:00	14983	128	-60.5	-83.9	243	12
2023-09-28T00:00	15004	127	-59.9	-83.9	242	12
2023-09-28T00:00	15024	127	-60.0	-84.2	241	12
2023-09-28T00:00	15044	126	-59.3	-83.9	239	11
2023-09-28T00:00	15066	126	-58.9		238	11
2023-09-28T00:00	15086	125	-58.9	-84.1	236	11
2023-09-28T00:00	15107	125	-59.0	-84.2	235	11
2023-09-28T00:00	15127	125	-59.0	-84.2	233	11
2023-09-28T00:00	15149	124	-58.9	-84.4	231	11
2023-09-28T00:00	15168	124	-58.8	-84.3	230	11
2023-09-28T00:00	15190	123	-58.8	-84.3	230	10
2023-09-28T00:00	15210	123	-58.9	-84.1	231	10
2023-09-28T00:00	15234	123	-59.1	-84.2	232	10
2023-09-28T00:00	15255	122	-59.2	-84.3	233	10
2023-09-28T00:00	15278	122	-59.3	-84.1	235	10
2023-09-28T00:00	15298	121	-59.5	-84.3	236	10
2023-09-28T00:00	15322	121	-59.7	-84.2	236	10
2023-09-28T00:00	15344	120	-59.9	-84.4	236	10
2023-09-28T00:00	15365	120	-60.1	-84.5	235	10
2023-09-28T00:00	15383	120	-60.1	-84.3	234	10
2023-09-28T00:00	15403	119	-60.2	-84.4	233	10
2023-09-28T00:00	15423	119	-60.4	-84.5	232	11
2023-09-28T00:00	15445	119	-60.6	-84.5	232	11
2023-09-28T00:00	15466	118	-60.7	-84.5	232	11
2023-09-28T00:00	15487	118	-60.7	-84.5	233	12
2023-09-28T00:00	15508	117	-60.8	-84.4	235	12
2023-09-28T00:00	15530	117	-61.0	-84.5	236	12
2023-09-28T00:00	15549	117	-61.1	-84.6	239	12
2023-09-28T00:00	15569	116	-61.3	-84.8	241	11
2023-09-28T00:00	15591	116	-61.4	-84.9	243	12
2023-09-28T00:00	15611	115	-61.3	-84.8	244	12
2023-09-28T00:00	15633	115	-61.0	-84.5	246	12
2023-09-28T00:00	15653	115	-61.0	-84.8	246	13
2023-09-28T00:00	15671	114	-61.0	-85.0	247	13
2023-09-28T00:00	15693	114	-60.5	-84.6	248	14
2023-09-28T00:00	15713	113	-60.6	-84.9	248	13
2023-09-28T00:00	15735	113	-60.6	-84.9	248	13
2023-09-28T00:00	15759	113	-60.3	-84.9	246	12
2023-09-28T00:00	15781	112	-59.9	-84.6	244	11
2023-09-28T00:00	15809	112	-59.9	-84.9	240	11
2023-09-28T00:00	15831	111	-59.9	-84.9	236	10
2023-09-28T00:00	15854	111	-60.1	-85.0	233	10
2023-09-28T00:00	15876	111	-60.2	-85.1	230	10
2023-09-28T00:00	15897	110	-60.2	-85.1	229	11
2023-09-28T00:00	15918	110	-60.4	-85.0	228	11
2023-09-28T00:00	15939	109	-60.5	-85.1	229	11
2023-09-28T00:00	15959	109	-60.7	-85.2	230	12
2023-09-28T00:00	15980	109	-60.8	-85.1	233	12
2023-09-28T00:00	16001	108	-61.0	-85.2	235	12
2023-09-28T00:00	16021	108	-61.1	-85.3	237	12
2023-09-28T00:00	16044	108	-61.0	-85.2	239	12
2023-09-28T00:00	16063	107	-60.9	-85.2	242	12
2023-09-28T00:00	16086	107	-60.9	-85.4	245	12
2023-09-28T00:00	16107	107	-60.8	-85.3	248	12
2023-09-28T00:00	16126	106	-60.9	-85.4	251	12
2023-09-28T00:00	16147	106	-61.0	-85.5	253	12
2023-09-28T00:00	16167	106	-61.1	-85.6	254	11
2023-09-28T00:00	16187	105	-61.1	-85.6	254	11
2023-09-28T00:00	16207	105	-60.8	-85.3	252	11
2023-09-28T00:00	16228	104	-60.9	-85.4	250	11
2023-09-28T00:00	16248	104	-60.8	-85.3	247	11
2023-09-28T00:00	16269	104	-60.8	-85.3	246	11
2023-09-28T00:00	16289	103	-60.9	-85.4	246	11
2023-09-28T00:00	16310	103	-60.9	-85.4	246	11
2023-09-28T00:00	16332	103	-60.9	-85.4	247	11
2023-09-28T00:00	16351	102	-60.8	-85.3	248	10
2023-09-28T00:00	16371	102	-60.8	-85.6	248	10
2023-09-28T00:00	16393	102	-60.7	-85.5	248	10
2023-09-28T00:00	16415	101	-60.4	-85.5	248	9
2023-09-28T00:00	16434	101	-60.2	-85.4	247	9
2023-09-28T00:00	16456	101	-60.0	-85.5	245	9
2023-09-28T00:00	16476	100	-60.0	-85.5	243	9
2023-09-28T00:00	16497	100	-60.1	-85.6	241	9
2023-09-28T00:00	16519	100	-60.1	-85.6	239	9
2023-09-28T00:00	16538	99	-60.1	-85.6	237	9
2023-09-28T00:00	16558	99	-60.2	-85.7	236	9
2023-09-28T00:00	16582	99	-60.3	-85.7	235	9
2023-09-28T00:00	16603	98	-60.4	-85.8	235	9
2023-09-28T00:00	16621	98	-60.4	-85.5	235	9
2023-09-28T00:00	16645	98	-60.5	-85.6	236	8
2023-09-28T00:00	16669	97	-60.6	-85.7	238	8
2023-09-28T00:00	16687	97	-60.6	-85.7	240	9
2023-09-28T00:00	16710	97	-60.7	-85.8	243	9
2023-09-28T00:00	16733	96	-60.9	-85.9	246	9
2023-09-28T00:00	16753	96	-60.8	-86.1	249	9
2023-09-28T00:00	16776	96	-60.7	-86.0	251	9
2023-09-28T00:00	16799	95	-60.6	-86.0	254	9
2023-09-28T00:00	16821	95	-60.6	-86.0	255	9
2023-09-28T00:00	16841	95	-60.8	-86.1	255	8
2023-09-28T00:00	16870	94	-60.9	-86.2	253	8
2023-09-28T00:00	16900	94	-60.5	-86.2	249	7
2023-09-28T00:00	16926	93	-60.3	-86.0	241	6
2023-09-28T00:00	16951	93	-59.9	-86.0	232	5
2023-09-28T00:00	16974	93	-60.0	-86.1	222	5
2023-09-28T00:00	17000	92	-60.0	-86.1	213	5
2023-09-28T00:00	17020	92	-60.1	-86.2	206	5
2023-09-28T00:00	17041	92	-60.2	-86.3	203	6
2023-09-28T00:00	17065	91	-60.2	-86.3	201	6
2023-09-28T00:00	17084	91	-60.2	-86.3	202	6
2023-09-28T00:00	17106	91	-60.3	-86.3	205	7
2023-09-28T00:00	17129	90	-60.1	-86.2	210	7
2023-09-28T00:00	17153	90	-60.2	-86.3	214	7
2023-09-28T00:00	17170	90	-60.3	-86.3	218	7
2023-09-28T00:00	17193	89	-60.4		222	7
2023-09-28T00:00	17217	89	-60.5	-86.5	226	7
2023-09-28T00:00	17239	89	-60.6	-86.6	230	7
2023-09-28T00:00	17260	89	-60.8	-86.4	235	7
2023-09-28T00:00	17285	88	-60.9	-86.5	239	7
2023-09-28T00:00	17307	88	-61.1	-86.6	243	8
2023-09-28T00:00	17329	88	-60.9	-86.5	245	8
2023-09-28T00:00	17349	87	-60.9	-86.8	245	7
2023-09-28T00:00	17369	87	-60.6	-86.6	244	7
2023-09-28T00:00	17389	87	-60.3	-86.7	242	7
2023-09-28T00:00	17414	86	-60.3	-86.7	239	7
2023-09-28T00:00	17434	86	-60.3	-87.0	236	6
2023-09-28T00:00	17457	86	-60.3	-87.0	231	6
2023-09-28T00:00	17477	86	-60.3	-87.0	226	6
2023-09-28T00:00	17497	85	-60.1	-86.8	220	6
2023-09-28T00:00	17518	85	-60.0	-87.1	213	5
2023-09-28T00:00	17537	85	-60.0	-87.1	205	5
2023-09-28T00:00	17559	84	-59.9	-87.1	198	6
2023-09-28T00:00	17579	84	-59.9	-87.1	191	6
2023-09-28T00:00	17600	84	-60.0	-87.1	186	6
2023-09-28T00:00	17618	84	-59.9	-87.1	183	7
2023-09-28T00:00	17641	83	-60.0	-87.1	182	7
2023-09-28T00:00	17661	83	-60.1	-87.2	182	8
2023-09-28T00:00	17683	83	-59.9	-87.1	183	8
2023-09-28T00:00	17705	82	-59.9	-87.1	185	9
2023-09-28T00:00	17723	82	-60.0	-87.1	187	9
2023-09-28T00:00	17748	82	-60.1	-87.2	190	9
2023-09-28T00:00	17767	82	-60.2	-87.3	192	9
2023-09-28T00:00	17789	81	-60.4	-87.4	195	9
2023-09-28T00:00	17811	81	-60.5	-87.2	197	9
2023-09-28T00:00	17830	81	-60.6	-87.2	199	9
2023-09-28T00:00	17852	81	-60.8	-87.4	202	9
2023-09-28T00:00	17873	80	-60.9	-87.5	204	9
2023-09-28T00:00	17892	80	-60.9	-87.5	207	10
2023-09-28T00:00	17911	80	-61.0	-87.5	210	10
2023-09-28T00:00	17934	79	-61.1	-88.0	213	10
2023-09-28T00:00	17954	79	-61.1	-88.0	217	9
2023-09-28T00:00	17978	79	-60.8	-88.1	220	9
2023-09-28T00:00	17998	79	-60.7	-88.1	223	9
2023-09-28T00:00	18017	78	-60.2	-87.7	225	9
2023-09-28T00:00	18038	78	-60.0	-87.9	226	8
2023-09-28T00:00	18060	78	-59.6	-87.6	228	8
2023-09-28T00:00	18082	78	-59.6	-87.6	229	7
2023-09-28T00:00	18104	77	-59.8	-87.8	230	7
2023-09-28T00:00	18126	77	-59.9	-87.9	231	7
2023-09-28T00:00	18147	77	-60.0	-87.9	232	8
2023-09-28T00:00	18167	77	-60.0	-87.9	233	8
2023-09-28T00:00	18191	76	-59.7	-87.7	234	8
2023-09-28T00:00	18215	76	-59.8	-87.8	236	8
2023-09-28T00:00	18237	76	-59.9	-87.9	239	9
2023-09-28T00:00	18261	75	-59.7	-88.2	242	9
2023-09-28T00:00	18285	75	-59.1	-87.7	247	8
2023-09-28T00:00	18305	75	-58.8	-87.5	251	8
2023-09-28T00:00	18328	75	-58.6	-87.8	255	8
2023-09-28T00:00	18353	74	-58.6	-87.8	259	8
2023-09-28T00:00	18377	74	-58.6	-87.8	262	7
2023-09-28T00:00	18398	74	-58.7	-87.9	264	6
2023-09-28T00:00	18421	74	-58.6	-87.8	266	6
2023-09-28T00:00	18442	73	-58.4	-87.7	266	5
2023-09-28T00:00	18464	73	-58.3	-87.6	267	5
2023-09-28T00:00	18488	73	-58.2	-87.5	267	4
2023-09-28T00:00	18511	72	-58.2	-87.5	269	4
2023-09-28T00:00	18533	72	-58.1	-87.4	271	4
2023-09-28T00:00	18556	72	-58.1	-87.4	272	4
2023-09-28T00:00	18578	72	-58.2	-87.5	272	4
2023-09-28T00:00	18602	71	-58.1	-87.4	270	4
2023-09-28T00:00	18623	71	-58.2	-87.5	266	5
2023-09-28T00:00	18646	71	-58.2	-87.5	262	5
2023-09-28T00:00	18668	71	-58.1	-87.4	259	5
2023-09-28T00:00	18691	70	-58.1	-87.4	257	5
2023-09-28T00:00	18714	70	-58.3	-87.6	256	5
2023-09-28T00:00	18735	70	-58.5	-87.3	257	5
2023-09-28T00:00	18761	70	-58.7	-87.4	258	5
2023-09-28T00:00	18783	69	-58.9	-87.6	259	6
2023-09-28T00:00	18807	69	-59.1	-87.7	260	6
2023-09-28T00:00	18830	69	-59.3	-87.9	261	6
2023-09-28T00:00	18853	69	-59.5	-88.0	262	6
2023-09-28T00:00	18879	68	-59.5	-88.0	263	6
2023-09-28T00:00	18904	68	-59.5	-88.0	263	5
2023-09-28T00:00	18927	68	-59.4	-87.9	261	5
2023-09-28T00:00	18948	68	-59.1	-87.7	257	4
2023-09-28T00:00	18970	67	-59.2	-87.8	249	4
2023-09-28T00:00	18993	67	-59.2	-87.8	241	4
2023-09-28T00:00	19013	67	-59.3	-87.9	235	3
2023-09-28T00:00	19036	67	-59.3	-87.9	230	3
2023-09-28T00:00	19058	66	-59.4	-87.9	228	3
2023-09-28T00:00	19077	66	-59.5	-88.0	226	3
2023-09-28T00:00	19103	66	-59.6	-88.1	225	3
2023-09-28T00:00	19129	66	-59.5	-88.0	225	3
2023-09-28T00:00	19152	65	-59.6	-88.1	226	3
2023-09-28T00:00	19172	65	-59.6	-88.1	228	3
2023-09-28T00:00	19197	65	-59.5	-88.0	231	3
2023-09-28T00:00	19221	65	-59.3	-87.9	234	4
2023-09-28T00:00	19243	64	-59.3	-88.3	237	4
2023-09-28T00:00	19266	64	-59.2	-88.3	238	4
2023-09-28T00:00	19292	64	-59.0	-88.1	239	5
2023-09-28T00:00	19315	64	-59.1	-87.7	240	5
2023-09-28T00:00	19336	64	-59.3	-87.9	241	5
2023-09-28T00:00	19359	63	-59.5	-88.0	242	6
2023-09-28T00:00	19383	63	-59.7	-88.2	245	6
2023-09-28T00:00	19406	63	-59.9	-88.3	247	6
2023-09-28T00:00	19428	63	-59.9	-88.3	249	6
2023-09-28T00:00	19450	62	-59.6	-88.1	251	5
2023-09-28T00:00	19473	62	-59.5	-88.5	252	5
2023-09-28T00:00	19499	62	-59.5	-88.5	252	5
2023-09-28T00:00	19519	62	-59.6	-88.6	252	5
2023-09-28T00:00	19540	61	-59.2	-88.3	252	5
2023-09-28T00:00	19564	61	-59.0	-88.7	252	5
2023-09-28T00:00	19586	61	-58.9	-88.6	252	5
2023-09-28T00:00	19608	61	-58.5	-88.3	253	5
2023-09-28T00:00	19629	61	-58.2	-88.1	255	5
2023-09-28T00:00	19655	60	-57.8	-87.8	257	5
2023-09-28T00:00	19676	60	-57.8	-87.8	259	4
2023-09-28T00:00	19701	60	-57.9	-87.8	260	4
2023-09-28T00:00	19724	60	-57.9	-87.8	261	4
2023-09-28T00:00	19747	60	-57.9	-87.8	262	4
2023-09-28T00:00	19769	59	-58.1	-88.0	262	3
2023-09-28T00:00	19793	59	-58.2	-88.1	261	3
2023-09-28T00:00	19815	59	-58.3	-88.1	257	3
2023-09-28T00:00	19840	59	-58.3	-88.1	249	2
2023-09-28T00:00	19864	58	-58.4	-88.2	234	2
2023-09-28T00:00	19887	58	-58.2	-88.1	215	2
2023-09-28T00:00	19910	58	-57.9	-87.8	201	3
2023-09-28T00:00	19938	58	-57.8	-87.8	194	3
2023-09-28T00:00	19955	58	-57.8	-87.8	191	4
2023-09-28T00:00	19982	57	-57.9	-87.8	190	4
2023-09-28T00:00	20003	57	-58.0	-87.9	191	5
2023-09-28T00:00	20028	57	-58.1	-87.4	194	5
2023-09-28T00:00	20048	57	-58.3	-87.6	199	5
2023-09-28T00:00	20073	57	-58.5	-87.7	206	6
2023-09-28T00:00	20092	56	-58.6	-87.8	213	6
2023-09-28T00:00	20118	56	-58.6	-87.8	219	7
2023-09-28T00:00	20141	56	-58.6	-87.8	224	7
2023-09-28T00:00	20161	56	-58.5	-87.7	229	8
2023-09-28T00:00	20182	56	-58.6	-87.8	233	8
2023-09-28T00:00	20207	55	-58.7	-87.9	237	9
2023-09-28T00:00	20229	55	-58.7	-87.9	241	9
2023-09-28T00:00	20250	55	-58.7	-87.9	244	9
2023-09-28T00:00	20272	55	-58.7	-87.9	248	10
2023-09-28T00:00	20298	55	-58.7	-87.9	252	10
2023-09-28T00:00	20318	54	-58.6	-87.8	255	10
2023-09-28T00:00	20342	54	-58.4	-87.7	258	9
2023-09-28T00:00	20363	54	-58.5	-87.7	261	9
2023-09-28T00:00	20384	54	-58.6	-87.8	265	8
2023-09-28T00:00	20410	54	-58.6	-87.8	268	7
2023-09-28T00:00	20431	53	-58.4	-88.2	272	7
2023-09-28T00:00	20457	53	-58.2	-88.1	277	6
2023-09-28T00:00	20475	53	-58.2	-88.1	281	6
2023-09-28T00:00	20497	53	-58.3	-88.1	285	6
2023-09-28T00:00	20520	53	-58.3	-88.1	287	6
2023-09-28T00:00	20543	52	-58.3	-88.1	288	6
2023-09-28T00:00	20566	52	-58.3	-87.6	288	6
2023-09-28T00:00	20590	52	-58.3	-87.6	286	6
2023-09-28T00:00	20613	52	-58.1	-87.4	284	6
2023-09-28T00:00	20636	52	-58.2	-87.5	283	6
2023-09-28T00:00	20655	51	-58.3	-87.6	282	6
2023-09-28T00:00	20679	51	-58.5	-87.7	283	6
2023-09-28T00:00	20703	51	-58.6	-87.8	285	6
2023-09-28T00:00	20727	51	-58.7	-87.9	287	6
2023-09-28T00:00	20749	51	-58.6	-87.8	288	6
2023-09-28T00:00	20773	51	-58.4	-87.7	290	6
2023-09-28T00:00	20798	50	-58.1	-88.0	291	6
2023-09-28T00:00	20820	50	-58.1	-88.0	292	6
2023-09-28T00:00	20843	50	-58.0	-87.9	292	5
2023-09-28T00:00	20864	50	-58.2	-88.1	291	4
2023-09-28T00:00	20889	50	-58.2	-88.1	288	4
2023-09-28T00:00	20915	49	-58.3	-88.1	283	3
2023-09-28T00:00	20939	49	-58.3	-87.6	273	2
2023-09-28T00:00	20961	49	-58.4	-87.7	260	2
2023-09-28T00:00	20983	49	-58.4	-87.7	244	2
2023-09-28T00:00	21006	49	-58.5	-87.7	231	2
2023-09-28T00:00	21029	49	-58.6	-87.8	222	2
2023-09-28T00:00	21054	48	-58.6	-87.8	217	3
2023-09-28T00:00	21078	48	-58.5	-88.3	215	3
2023-09-28T00:00	21101	48	-58.4	-88.2	214	3
2023-09-28T00:00	21119	48	-58.3	-88.1	213	4
2023-09-28T00:00	21144	48	-58.1	-88.0	213	4
2023-09-28T00:00	21168	47	-58.0	-87.9	213	4
2023-09-28T00:00	21194	47	-58.0	-87.9	213	5
2023-09-28T00:00	21217	47	-58.0	-87.9	214	5
2023-09-28T00:00	21240	47	-58.0	-87.9	214	4
2023-09-28T00:00	21265	47	-58.1	-88.0	216	4
2023-09-28T00:00	21292	47	-58.1	-88.0	219	4
2023-09-28T00:00	21314	46	-58.1	-88.0	224	3
2023-09-28T00:00	21337	46	-58.1	-88.0	231	3
2023-09-28T00:00	21359	46	-57.9	-87.8	235	3
2023-09-28T00:00	21382	46	-57.8	-87.8	236	3
2023-09-28T00:00	21406	46	-57.9	-87.8	234	3
2023-09-28T00:00	21429	46	-57.9	-87.8	229	2
2023-09-28T00:00	21454	45	-57.5	-87.5	225	2
2023-09-28T00:00	21475	45	-57.5	-87.5	225	2
2023-09-28T00:00	21496	45	-57.6	-87.6	235	2
2023-09-28T00:00	21522	45	-57.5	-87.5	256	1
2023-09-28T00:00	21543	45	-57.5	-88.1	274	2
2023-09-28T00:00	21566	45	-57.5	-88.1	283	2
2023-09-28T00:00	21591	44	-57.4	-88.1	287	3
2023-09-28T00:00	21615	44	-57.4	-88.1	289	4
2023-09-28T00:00	21640	44	-57.5	-88.1	290	4
2023-09-28T00:00	21662	44	-57.5	-88.1	290	5
2023-09-28T00:00	21686	44	-57.3	-88.0	290	5
2023-09-28T00:00	21710	44	-57.2	-87.9	288	5
2023-09-28T00:00	21734	43	-57.4	-88.1	285	6
2023-09-28T00:00	21759	43	-57.4	-88.1	282	6
2023-09-28T00:00	21780	43	-57.4	-88.1	279	6
2023-09-28T00:00	21805	43	-57.4	-88.1	275	5
2023-09-28T00:00	21830	43	-57.4	-87.5	272	5
2023-09-28T00:00	21854	43	-57.4	-87.5	270	5
2023-09-28T00:00	21878	42	-57.6	-87.6	267	5
2023-09-28T00:00	21907	42	-57.7	-87.7	264	4
2023-09-28T00:00	21928	42	-57.8	-87.8	263	4
2023-09-28T00:00	21956	42	-58.0	-87.9	261	4
2023-09-28T00:00	21978	42	-58.2	-88.1	260	4
2023-09-28T00:00	22003	42	-58.4	-88.2	256	4
2023-09-28T00:00	22026	41	-58.4	-88.2	251	4
2023-09-28T00:00	22050	41	-58.4	-88.2	244	5
2023-09-28T00:00	22074	41	-58.5	-88.3	236	5
2023-09-28T00:00	22100	41	-58.3	-88.1	231	5
2023-09-28T00:00	22124	41	-58.3	-88.1	227	6
2023-09-28T00:00	22150	41	-58.5	-88.3	226	6
2023-09-28T00:00	22175	40	-58.6	-88.4	228	6
2023-09-28T00:00	22200	40	-58.6	-88.4	231	6
2023-09-28T00:00	22228	40	-58.3	-88.1	235	6
2023-09-28T00:00	22251	40	-58.2	-88.1	241	6
2023-09-28T00:00	22277	40	-58.3	-88.1	248	6
2023-09-28T00:00	22304	40	-58.3	-88.1	255	6
2023-09-28T00:00	22326	40	-58.3	-88.1	262	6
2023-09-28T00:00	22352	39	-58.4	-88.2	269	7
2023-09-28T00:00	22380	39	-58.6	-88.4	276	7
2023-09-28T00:00	22401	39	-58.7	-88.4	283	7
2023-09-28T00:00	22431	39	-58.6	-88.4	289	7
2023-09-28T00:00	22456	39	-58.4	-88.2	293	8
2023-09-28T00:00	22479	39	-58.2	-88.6	297	8
2023-09-28T00:00	22505	38	-58.3	-88.1	300	9
2023-09-28T00:00	22529	38	-58.4	-88.2	303	9
2023-09-28T00:00	22553	38	-58.5	-88.3	307	9
2023-09-28T00:00	22582	38	-58.6	-88.4	311	8
2023-09-28T00:00	22605	38	-58.8	-88.5	316	8
2023-09-28T00:00	22630	38	-58.6	-88.4	321	8
2023-09-28T00:00	22658	37	-58.6	-88.4	326	8
2023-09-28T00:00	22678	37	-58.6	-88.4	330	7
2023-09-28T00:00	22702	37	-58.6	-88.4	335	7
2023-09-28T00:00	22731	37	-58.7	-89.0	340	7
2023-09-28T00:00	22754	37	-58.5	-88.9	345	6
2023-09-28T00:00	22778	37	-58.2	-88.6	351	6
2023-09-28T00:00	22801	37	-57.9	-88.4	358	6
2023-09-28T00:00	22826	36	-57.9	-88.4	6	5
2023-09-28T00:00	22850	36	-57.9	-88.4	16	5
2023-09-28T00:00	22877	36	-57.8	-88.3	27	5
2023-09-28T00:00	22902	36	-57.8	-88.3	39	4
2023-09-28T00:00	22926	36	-57.8	-88.3	52	4
2023-09-28T00:00	22949	36	-58.0	-88.5	66	4
2023-09-28T00:00	22975	36	-57.9	-88.4	80	4
2023-09-28T00:00	22995	36	-58.0	-88.5	96	4
2023-09-28T00:00	23022	35	-58.1	-88.6	112	4
2023-09-28T00:00	23046	35	-58.1	-88.6	128	4
2023-09-28T00:00	23068	35	-57.9	-88.4	143	4
2023-09-28T00:00	23094	35	-57.5	-88.1	155	5
2023-09-28T00:00	23125	35	-57.4	-88.1	165	6
2023-09-28T00:00	23143	35	-57.2	-88.6	172	6
2023-09-28T00:00	23170	35	-57.3	-88.0	177	6
2023-09-28T00:00	23193	34	-57.4	-88.1	181	6
2023-09-28T00:00	23219	34	-57.5	-88.1	184	6
2023-09-28T00:00	23241	34	-57.6	-88.2	185	6
2023-09-28T00:00	23268	34	-57.6	-88.2	186	5
2023-09-28T00:00	23289	34	-57.7	-88.3	188	5
2023-09-28T00:00	23315	34	-57.9	-88.4	190	4
2023-09-28T00:00	23339	34	-57.9	-88.4	194	4
2023-09-28T00:00	23365	34	-58.0	-88.5	200	4
2023-09-28T00:00	23391	33	-58.0	-88.5	207	4
2023-09-28T00:00	23417	33	-58.0	-88.5	214	4
2023-09-28T00:00	23442	33	-57.9	-88.4	221	5
2023-09-28T00:00	23463	33	-57.8	-88.3	228	5
2023-09-28T00:00	23488	33	-57.7	-88.3	235	5
2023-09-28T00:00	23517	33	-57.5	-88.1	241	4
2023-09-28T00:00	23543	33	-57.6	-88.2	247	4
2023-09-28T00:00	23566	32	-57.6	-88.2	253	4
2023-09-28T00:00	23593	32	-57.6	-88.2	257	3
2023-09-28T00:00	23616	32	-57.7	-88.3	260	3
2023-09-28T00:00	23640	32	-57.7	-88.3	262	3
2023-09-28T00:00	23668	32	-57.8	-88.3	264	2
2023-09-28T00:00	23693	32	-58.0	-88.5	265	2
2023-09-28T00:00	23716	32	-58.0	-88.5	266	2
2023-09-28T00:00	23744	32	-58.0	-88.5	265	2
2023-09-28T00:00	23769	31	-58.1	-88.6	259	1
2023-09-28T00:00	23796	31	-58.1	-88.6	250	2
2023-09-28T00:00	23825	31	-58.3	-88.7	243	2
2023-09-28T00:00	23843	31	-58.3	-88.7	239	2
2023-09-28T00:00	23872	31	-58.3	-88.7	238	2
2023-09-28T00:00	23902	31	-58.2	-88.6	238	2
2023-09-28T00:00	23924	31	-58.1	-88.6	238	2
2023-09-28T00:00	23953	31	-58.0	-88.5	237	2
2023-09-28T00:00	23978	30	-58.0	-88.5	235	2
2023-09-28T00:00	24007	30	-58.0	-88.5	234	1
2023-09-28T00:00	24033	30	-58.0	-88.5	234	1
2023-09-28T00:00	24055	30	-58.2	-88.6	236	1
2023-09-28T00:00	24080	30	-58.1	-88.6	234	0
2023-09-28T00:00	24105	30	-58.0	-89.1	219	0
2023-09-28T00:00	24134	30	-57.8	-89.0	204	1
2023-09-28T00:00	24158	30	-57.5	-88.8	199	1
2023-09-28T00:00	24180	29	-57.3	-88.6	199	1
2023-09-28T00:00	24207	29	-57.2	-88.6	199	2
2023-09-28T00:00	24233	29	-57.3	-88.6	199	2
2023-09-28T00:00	24259	29	-57.4	-88.7	201	2
2023-09-28T00:00	24286	29	-57.5	-88.8	203	2
2023-09-28T00:00	24313	29	-57.4	-88.7	206	2
2023-09-28T00:00	24335	29	-57.2	-88.6	210	2
2023-09-28T00:00	24359	29	-57.0	-88.4	215	2
2023-09-28T00:00	24388	29	-57.0	-88.4	220	2
2023-09-28T00:00	24408	28	-56.9	-88.3	225	2
2023-09-28T00:00	24433	28	-56.8	-88.3	228	2
2023-09-28T00:00	24457	28	-56.8	-89.0	228	1
2023-09-28T00:00	24479	28	-56.5	-88.8	221	1
2023-09-28T00:00	24507	28	-56.0	-88.4	205	1
2023-09-28T00:00	24530	28	-55.9	-88.4	189	1
2023-09-28T00:00	24553	28	-55.8	-88.3	182	1
2023-09-28T00:00	24580	28	-55.9	-88.4	182	2
2023-09-28T00:00	24606	28	-56.0	-87.7	186	2
2023-09-28T00:00	24636	27	-56.1	-87.8	191	2
2023-09-28T00:00	24657	27	-56.1	-87.8	197	2
2023-09-28T00:00	24684	27	-56.1	-87.8	202	2
2023-09-28T00:00	24708	27	-56.2	-87.8	206	3
2023-09-28T00:00	24736	27	-56.2	-87.8	209	3
2023-09-28T00:00	24759	27	-56.2	-87.8	210	3
2023-09-28T00:00	24784	27	-56.2	-87.8	211	3
2023-09-28T00:00	24807	27	-56.3	-87.9	211	3
2023-09-28T00:00	24838	27	-56.4	-88.0	211	3
2023-09-28T00:00	24861	26	-56.5	-88.1	213	2
2023-09-28T00:00	24889	26	-56.5	-88.1	217	2
2023-09-28T00:00	24909	26	-56.6	-88.1	222	2
2023-09-28T00:00	24936	26	-56.7	-88.2	230	2
2023-09-28T00:00	24960	26	-56.8	-88.3	237	2
2023-09-28T00:00	24985	26	-56.7	-88.2	243	1
2023-09-28T00:00	25012	26	-56.8	-88.3	246	1
2023-09-28T00:00	25039	26	-56.6	-88.1	244	1
2023-09-28T00:00	25062	26	-56.5	-88.1	221	0
2023-09-28T00:00	25084	26	-56.6	-88.1	146	0
2023-09-28T00:00	25111	25	-56.6	-88.1	130	1
2023-09-28T00:00	25139	25	-56.7	-88.2	134	1
2023-09-28T00:00	25160	25	-56.8	-88.3	144	1
2023-09-28T00:00	25198	25	-56.8	-88.3	158	2
2023-09-28T00:00	25217	25	-56.7	-88.2	173	2
2023-09-28T00:00	25241	25	-56.9	-88.3	189	2
2023-09-28T00:00	25271	25	-56.9	-88.3	204	2
2023-09-28T00:00	25298	25	-56.8	-88.3	217	2
2023-09-28T00:00	25322	25	-56.7	-88.2	227	3
2023-09-28T00:00	25348	25	-56.5	-88.8	235	3
2023-09-28T00:00	25373	24	-56.5	-88.8	239	3
2023-09-28T00:00	25399	24	-56.5	-88.8	240	3
2023-09-28T00:00	25422	24	-56.4	-88.7	238	3
2023-09-28T00:00	25455	24	-56.3	-88.6	234	3
2023-09-28T00:00	25478	24	-56.3	-88.6	228	2
2023-09-28T00:00	25507	24	-56.3	-88.6	223	2
2023-09-28T00:00	25530	24	-56.1	-88.5	222	2
2023-09-28T00:00	25557	24	-56.1	-88.5	226	2
2023-09-28T00:00	25582	24	-56.2	-88.6	234	2
2023-09-28T00:00	25614	24	-56.1	-87.8	244	2
2023-09-28T00:00	25641	23	-56.1	-87.8	253	2
2023-09-28T00:00	25666	23	-56.2	-87.8	259	2
2023-09-28T00:00	25696	23	-56.3	-87.9	264	3
2023-09-28T00:00	25723	23	-56.4	-88.0	268	3
2023-09-28T00:00	25750	23	-56.4	-88.0	271	4
2023-09-28T00:00	25774	23	-56.5	-88.1	275	4
2023-09-28T00:00	25799	23	-56.6	-88.1	278	5
2023-09-28T00:00	25830	23	-56.7	-88.2	282	5
2023-09-28T00:00	25861	23	-56.7	-88.2	286	5
2023-09-28T00:00	25889	23	-56.8	-88.3	289	6
2023-09-28T00:00	25913	22	-56.9	-88.3	292	6
2023-09-28T00:00	25940	22	-56.8	-88.3	293	6
2023-09-28T00:00	25963	22	-56.7	-88.2	294	6
2023-09-28T00:00	25990	22	-56.6	-88.1	295	6
2023-09-28T00:00	26016	22	-56.6	-88.1	295	5
2023-09-28T00:00	26040	22	-56.7	-88.2	295	5
2023-09-28T00:00	26074	22	-57.0	-88.4	294	4
2023-09-28T00:00	26099	22	-57.0	-88.4	291	4
2023-09-28T00:00	26119	22	-56.8	-88.3	286	3
2023-09-28T00:00	26148	22	-56.6	-88.1	281	3
2023-09-28T00:00	26173	22	-56.5	-88.8	277	3
2023-09-28T00:00	26199	21	-56.3	-88.6	278	4
2023-09-28T00:00	26226	21	-56.2	-88.6	282	5
2023-09-28T00:00	26256	21	-56.2	-88.6	287	5
2023-09-28T00:00	26283	21	-56.0	-88.4	291	6
2023-09-28T00:00	26302	21	-56.0	-88.4	295	7
2023-09-28T00:00	26329	21	-55.8	-88.3	298	7
2023-09-28T00:00	26356	21	-55.7	-88.2	299	8
2023-09-28T00:00	26385	21	-55.7	-88.2	300	8
2023-09-28T00:00	26409	21	-55.6	-88.1	300	8
2023-09-28T00:00	26436	21	-55.6	-88.1	299	8
2023-09-28T00:00	26458	21	-55.5	-88.1	297	8
2023-09-28T00:00	26487	20	-55.5	-88.1	295	8
2023-09-28T00:00	26514	20	-55.3	-87.9	293	8
2023-09-28T00:00	26534	20	-55.1	-87.8	291	8
2023-09-28T00:00	26556	20	-54.9	-87.6	290	7
2023-09-28T00:00	26588	20	-54.9	-87.6	290	7
2023-09-28T00:00	26618	20	-54.9	-87.6	291	6
2023-09-28T00:00	26642	20	-54.9	-87.6	295	6
2023-09-28T00:00	26668	20	-54.9	-87.6	300	5
2023-09-28T00:00	26693	20	-54.9	-87.6	307	5
2023-09-28T00:00	26716	20	-54.6	-87.4	313	5
2023-09-28T00:00	26745	20	-54.7	-87.5	317	5
2023-09-28T00:00	26769	20	-54.7	-87.5	320	6
2023-09-28T00:00	26793	20	-54.7	-87.5	323	6
2023-09-28T00:00	26823	19	-54.7	-87.5	326	6
2023-09-28T00:00	26851	19	-54.7	-87.5	328	7
2023-09-28T00:00	26872	19	-54.9	-87.6	329	7
2023-09-28T00:00	26895	19	-54.9	-87.6	328	7
2023-09-28T00:00	26923	19	-55.0	-87.7	325	8
2023-09-28T00:00	26956	19	-55.1	-87.8	323	8
2023-09-28T00:00	26982	19	-55.2	-87.8	320	9
2023-09-28T00:00	27004	19	-55.1	-87.8	319	9
2023-09-28T00:00	27043	19	-55.1	-87.8	320	9
2023-09-28T00:00	27054	19	-55.0	-87.7	321	9
2023-09-28T00:00	27090	19	-54.6	-88.3	323	9
2023-09-28T00:00	27113	19	-54.5	-88.2	326	9
2023-09-28T00:00	27134	19	-54.4	-88.1	329	9
2023-09-28T00:00	27163	18	-54.4	-88.1	333	9
2023-09-28T00:00	27192	18	-54.5	-88.2	336	9
2023-09-28T00:00	27220	18	-54.5	-88.2	339	9
2023-09-28T00:00	27243	18	-54.3	-88.1	341	9
2023-09-28T00:00	27267	18	-54.0	-87.8	344	9
2023-09-28T00:00	27304	18	-53.7	-87.6	345	9
2023-09-28T00:00	27326	18	-53.6	-87.6	345	8
2023-09-28T00:00	27348	18	-53.6	-87.6	343	8
2023-09-28T00:00	27382	18	-53.6	-87.6	340	8
2023-09-28T00:00	27410	18	-53.6	-87.6	338	8
2023-09-28T00:00	27440	18	-53.6	-87.6	337	7
2023-09-28T00:00	27467	18	-53.6	-87.6	339	7
2023-09-28T00:00	27489	18	-53.6	-87.6	344	7
2023-09-28T00:00	27524	17	-53.7	-87.6	351	7
2023-09-28T00:00	27550	17	-53.8	-87.7	360	7
2023-09-28T00:00	27574	17	-53.8	-86.8	7	7
2023-09-28T00:00	27597	17	-53.8	-86.8	13	7
2023-09-28T00:00	27636	17	-54.0	-87.0	18	7
2023-09-28T00:00	27660	17	-54.1	-87.1	22	7
2023-09-28T00:00	27689	17	-54.3	-87.2	25	7
2023-09-28T00:00	27715	17	-54.6	-87.4	28	7
2023-09-28T00:00	27743	17	-54.8	-87.6	32	7
2023-09-28T00:00	27770	17	-55.0	-87.7	34	7
2023-09-28T00:00	27799	17	-55.3	-87.9	37	7
2023-09-28T00:00	27826	17	-55.5	-88.1	40	7
2023-09-28T00:00	27855	17	-55.6	-88.1	42	7
2023-09-28T00:00	27880	16	-54.9	-87.6	45	6
2023-09-28T00:00	27913	16	-54.4	-88.1	46	5
2023-09-28T00:00	27941	16	-54.5	-88.2	47	5
2023-09-28T00:00	27963	16	-54.5	-88.2	46	4
2023-09-28T00:00	27989	16	-54.7	-88.4	44	4
2023-09-28T00:00	28007	16	-54.8	-87.6	40	4
2023-09-28T00:00	28038	16	-54.9	-87.6	34	3
2023-09-28T00:00	28071	16	-55.1	-87.8	25	3
2023-09-28T00:00	28093	16	-55.3	-87.9	11	3
2023-09-28T00:00	28119	16	-55.5	-88.1	355	3
2023-09-28T00:00	28153	16	-55.6	-88.1	343	3
2023-09-28T00:00	28179	16	-55.5	-88.1	338	3
2023-09-28T00:00	28211	16	-55.4	-88.0	338	4
2023-09-28T00:00	28234	16	-55.3	-87.9	341	5
2023-09-28T00:00	28263	16	-55.2	-87.8	342	5
2023-09-28T00:00	28301	15	-55.1	-87.8	341	6
2023-09-28T00:00	28319	15	-55.0	-88.6	338	6
2023-09-28T00:00	28342	15	-55.1	-88.6	333	6
2023-09-28T00:00	28379	15	-54.9	-88.5	327	6
2023-09-28T00:00	28400	15	-55.0	-88.6	321	7
2023-09-28T00:00	28429	15	-54.8	-88.4	318	7
2023-09-28T00:00	28453	15	-54.6	-88.3	316	7
2023-09-28T00:00	28488	15	-54.0	-87.8	317	7
2023-09-28T00:00	28519	15	-53.7	-87.6	321	7
2023-09-28T00:00	28538	15	-53.8	-87.7	324	7
2023-09-28T00:00	28566	15	-53.6	-87.6	328	8
2023-09-28T00:00	28587	15	-53.5	-87.5	331	8
2023-09-28T00:00	28627	15	-53.5	-87.5	334	8
2023-09-28T00:00	28653	15	-53.4	-87.4	335	8
2023-09-28T00:00	28681	15	-53.4	-87.4	335	8
2023-09-28T00:00	28708	14	-53.5	-87.5	334	7
2023-09-28T00:00	28733	14	-53.6	-87.6	332	7
2023-09-28T00:00	28763	14	-53.5	-87.5	329	7
2023-09-28T00:00	28791	14	-53.3	-87.3	327	6
2023-09-28T00:00	28814	14	-53.4	-87.4	326	6
2023-09-28T00:00	28845	14	-53.5	-87.5	327	6
2023-09-28T00:00	28867	14	-53.5	-87.5	330	6
2023-09-28T00:00	28889	14	-53.5	-87.5	333	7
2023-09-28T00:00	28927	14	-53.5	-87.5	336	7
2023-09-28T00:00	28948	14	-53.5	-87.5	337	8
2023-09-28T00:00	28983	14	-53.5	-87.5	337	8
2023-09-28T00:00	28999	14	-53.6	-87.6	336	8
2023-09-28T00:00	29039	14	-53.6	-87.6	333	8
2023-09-28T00:00	29059	14	-53.6	-87.6	329	8
2023-09-28T00:00	29087	14	-53.7	-87.6	326	8
2023-09-28T00:00	29124	14	-53.8	-87.7	322	8
2023-09-28T00:00	29141	14	-53.7	-87.6	319	9
2023-09-28T00:00	29179	13	-53.8	-87.7	317	9
2023-09-28T00:00	29201	13	-53.7	-87.6	317	10
2023-09-28T00:00	29239	13	-53.7	-87.6	317	10
2023-09-28T00:00	29272	13	-53.4	-87.4	317	11
2023-09-28T00:00	29290	13	-53.0	-87.1	319	11
2023-09-28T00:00	29315	13	-52.8	-88.0	320	10
2023-09-28T00:00	29343	13	-52.6	-87.9	322	10
2023-09-28T00:00	29372	13	-52.7	-87.9	323	10
2023-09-28T00:00	29407	13	-52.8	-88.0	324	9
2023-09-28T00:00	29430	13	-52.7	-86.9	325	9
2023-09-28T00:00	29468	13	-52.6	-86.8	325	9
2023-09-28T00:00	29485	13	-52.6	-86.8	325	9
2023-09-28T00:00	29514	13	-52.7	-86.9	325	9
2023-09-28T00:00	29556	13	-52.8	-87.0	324	9
2023-09-28T00:00	29584	13	-52.7	-86.9	323	9
2023-09-28T00:00	29611	13	-52.6	-86.8	321	9
2023-09-28T00:00	29633	13	-52.5	-86.8	318	9
2023-09-28T00:00	29663	13	-52.5	-86.8	316	9
2023-09-28T00:00	29688	12	-52.3	-86.6	315	9
2023-09-28T00:00	29722	12	-52.4	-86.7	316	9
2023-09-28T00:00	29744	12	-52.5	-86.8	318	8
2023-09-28T00:00	29783	12	-52.5	-86.8	321	8
2023-09-28T00:00	29803	12	-52.5	-86.8	323	8
2023-09-28T00:00	29826	12	-52.4	-86.7	324	7
2023-09-28T00:00	29867	12	-52.2	-87.6	323	7
2023-09-28T00:00	29884	12	-52.2	-87.6	323	7
2023-09-28T00:00	29909	12	-52.1	-87.5	322	7
2023-09-28T00:00	29936	12	-51.7	-87.2	322	6
2023-09-28T00:00	29957	12	-51.6	-87.2	322	6
2023-09-28T00:00	29991	12	-51.5	-87.1	320	6
2023-09-28T00:00	30021	12	-51.5	-87.1	317	5
2023-09-28T00:00	30043	12	-51.4	-87.0	310	5
2023-09-28T00:00	30071	12	-51.5	-87.1	301	4
2023-09-28T00:00	30093	12	-51.3	-87.0	293	4
2023-09-28T00:00	30122	12	-51.1	-86.8	290	5
2023-09-28T00:00	30144	12	-50.9	-86.7	290	5
2023-09-28T00:00	30170	12	-50.9	-86.7	293	5
2023-09-28T00:00	30194	12	-50.8	-86.6	297	6
2023-09-28T00:00	30223	11	-50.8	-86.6	301	7
2023-09-28T00:00	30249	11	-50.9	-86.7	303	7
2023-09-28T00:00	30276	11	-50.9	-86.7	305	8
2023-09-28T00:00	30300	11	-50.7	-86.5	306	8
2023-09-28T00:00	30331	11	-50.3	-86.2	307	8
2023-09-28T00:00	30353	11	-50.0	-86.0	308	8
2023-09-28T00:00	30380	11	-49.8	-85.9	309	8
2023-09-28T00:00	30399	11	-49.7	-85.8	310	8
2023-09-28T00:00	30430	11	-49.5	-85.7	310	8
2023-09-28T00:00	30443	11	-49.4	-85.6	312	8
2023-09-28T00:00	30468	11	-49.2	-85.5	314	8
2023-09-28T00:00	30500	11	-49.1	-85.4	316	8
2023-09-28T00:00	30525	11	-49.2	-85.5	320	8
2023-09-28T00:00	30551	11	-49.1	-85.4	324	8
2023-09-28T00:00	30571	11	-49.0	-85.3	328	8
2023-09-28T00:00	30602	11	-49.2	-85.5	331	8
2023-09-28T00:00	30615	11	-49.3	-85.5	333	7
2023-09-28T00:00	30657	11	-49.4	-85.6	335	7
2023-09-28T00:00	30678	11	-49.5	-85.7	336	7
2023-09-28T00:00	30706	11	-49.6	-85.8	338	7
2023-09-28T00:00	30727	11	-49.5	-85.7	340	6
2023-09-28T00:00	30752	11	-49.6	-85.8	342	6
2023-09-28T00:00	30777	11	-49.7	-85.8	346	6
2023-09-28T00:00	30810	10	-49.8	-85.9	348	5
2023-09-28T00:00	30833	10	-49.8	-85.9	351	5
2023-09-28T00:00	30856	10	-49.8	-85.9	353	4
2023-09-28T00:00	30884	10	-49.8	-85.9	354	4
2023-09-28T00:00	30910	10	-49.8	-85.9	354	3
2023-09-28T00:00	30944	10	-50.0	-86.0	349	2
2023-09-28T00:00	30958	10	-50.1	-86.1	336	2
2023-09-28T00:00	30994	10	-50.0	-86.0	318	2
2023-09-28T00:00	31012	10	-49.9	-86.0	305	3
2023-09-28T00:00	31031	10	-49.8	-85.9	298	4
2023-09-28T00:00	31071	10	-49.7	-85.8	296	5
2023-09-28T00:00	31096	10	-49.7	-85.8	296	5
2023-09-28T00:00	31128	10	-49.7	-85.8	297	6
2023-09-28T00:00	31160	10	-49.7	-85.8	299	6
2023-09-28T00:00	31185	10	-49.7	-85.8	301	7
2023-09-28T00:00	31213	10	-49.8	-85.9	302	7
2023-09-28T00:00	31239	10	-49.8	-85.9	303	7
2023-09-28T00:00	31265	10	-49.9	-86.0	303	8
2023-09-28T00:00	31281	10	-49.9	-86.0	303	8
2023-09-28T00:00	31327	10	-49.9	-86.0	302	9
2023-09-28T00:00	31362	10	-49.8	-85.9	302	9
2023-09-28T00:00	31387	10	-49.7	-85.8	302	10
2023-09-28T00:00	31411	10	-49.4	-85.6	303	10
2023-09-28T00:00	31432	10	-49.2	-85.5	305	10
2023-09-28T00:00	31466	9	-49.2	-85.5	307	10
2023-09-28T00:00	31493	9	-49.2	-85.5	309	9
2023-09-28T00:00	31523	9	-49.1	-85.4	311	9
2023-09-28T00:00	31543	9	-49.1	-85.4	313	9
2023-09-28T00:00	31568	9	-49.1	-85.4	314	8
2023-09-28T00:00	31607	9	-49.2	-85.5	315	8
2023-09-28T00:00	31640	9	-49.3	-85.5	314	8
2023-09-28T00:00	31663	9	-49.3	-85.5	313	8
2023-09-28T00:00	31684	9	-49.2	-85.5	311	7
2023-09-28T00:00	31716	9	-49.1	-85.4	310	7
2023-09-28T00:00	31731	9	-49.1	-85.4	309	7
2023-09-28T00:00	31771	9	-49.0	-85.3	310	7
2023-09-28T00:00	31806	9	-49.0	-85.3	311	8
2023-09-28T00:00	31824	9	-48.9	-85.3	314	8
2023-09-28T00:00	31851	9	-48.9	-85.3	315	8
2023-09-28T00:00	31880	9	-48.9	-85.3	316	8
2023-09-28T00:00	31896	9	-49.1	-85.4	314	8
2023-09-28T00:00	31929	9	-49.2	-85.5	310	9
2023-09-28T00:00	31953	9	-49.1	-85.4	305	9
2023-09-28T00:00	31979	9	-49.1	-85.4	299	9
2023-09-28T00:00	32016	9	-49.1	-85.4	293	9
2023-09-28T00:00	32031	9	-49.0	-85.3	288	10
2023-09-28T00:00	32069	9	-49.0	-85.3	284	10
2023-09-28T00:00	32087	9	-48.7	-85.1	282	10
2023-09-28T00:00	32116	9	-48.6	-85.0	279	11
2023-09-28T00:00	32137	9	-48.6	-85.0	277	11
2023-09-28T00:00	32172	9	-48.7	-85.1	275	11
2023-09-28T00:00	32198	9	-48.8	-85.2	272	11
2023-09-28T00:00	32223	8	-48.9	-85.3	270	12
2023-09-28T00:00	32252	8	-49.1	-85.4	269	12
2023-09-28T00:00	32286	8	-49.2	-85.5	268	12
2023-09-28T00:00	32319	8	-49.2	-85.5	268	13
2023-09-28T00:00	32331	8	-49.2	-85.5	269	13
2023-09-28T00:00	32353	8	-49.0	-85.3	272	13
2023-09-28T00:00	32395	8	-49.0	-85.3	274	13
2023-09-28T00:00	32415	8	-48.8	-85.2	277	13
2023-09-28T00:00	32447	8	-48.8	-85.2	279	13
2023-09-28T00:00	32473	8	-48.8	-85.2	281	13
2023-09-28T00:00	32491	8	-48.7	-85.1	283	14
2023-09-28T00:00	32513	8	-48.7	-85.1	284	15
2023-09-28T00:00	32548	8	-48.9	-85.3	286	15
2023-09-28T00:00	32553	8	-49.0	-85.3	287	16
2023-09-28T00:00	32586	8	-49.2	-85.5	288	16
2023-09-28T00:00	32588	8	-49.3	-85.5	289	16
2023-09-28T00:00	32637	8	-49.3	-85.5	289	16
2023-09-28T00:00	32663	8	-49.2	-85.5	289	16
2023-09-28T00:00	32687	8	-48.9	-85.3	289	16
2023-09-28T00:00	32706	8	-48.8	-85.2	288	16
2023-09-28T00:00	32737	8	-48.8	-85.2	288	17
2023-09-28T00:00	32767	8	-48.8	-85.2	289	17
2023-09-28T00:00	32778	8	-48.7	-85.1	289	17
2023-09-28T00:00	32818	8	-48.7	-85.1	289	18
2023-09-28T00:00	32835	8	-48.8	-85.2	290	18
2023-09-28T00:00	32842	8	-48.9	-85.3	289	18
2023-09-28T00:00	32893	8	-48.9	-85.3	289	18
2023-09-28T00:00	32895	8	-48.9	-85.3	288	18
2023-09-28T00:00	32912	8	-48.8	-85.2	287	18
2023-09-28T00:00	32950	8	-48.6	-85.0	287	18
2023-09-28T00:00	32976	8	-48.7	-85.1	286	17
2023-09-28T00:00	33005	8	-48.8	-85.2	285	17
2023-09-28T00:00	33010	8	-48.9	-85.3	285	17
2023-09-28T00:00	33041	7	-48.9	-85.3	285	18
2023-09-28T00:00	33056	7	-48.9	-85.3	286	18
2023-09-28T00:00	33104	7	-48.9	-85.3	287	18
2023-09-28T00:00	33113	7	-48.9	-85.3	289	18
2023-09-28T00:00	33137	7	-48.9	-85.3	291	19
2023-09-28T00:00	33166	7	-48.8	-85.2	294	19
2023-09-28T00:00	33203	7	-48.5	-85.0	296	19
2023-09-28T00:00	33222	7	-48.4	-84.9	298	19
2023-09-28T00:00	33243	7	-48.4	-84.9	300	20
2023-09-28T00:00	33267	7	-48.4	-84.9	301	20
2023-09-28T00:00	33283	7	-48.2	-84.8	303	19
2023-09-28T00:00	33312	7	-48.0	-84.6	304	19
2023-09-28T00:00	33343	7	-47.9	-84.6	305	19
2023-09-28T00:00	33357	7	-47.7	-84.4	307	19
2023-09-28T00:00	33375	7	-47.6	-84.3	308	19
2023-09-28T00:00	33402	7	-47.6	-84.3	309	19
2023-09-28T00:00	33430	7	-47.5	-84.3	309	19
2023-09-28T00:00	33445	7	-47.3	-84.1	309	19
2023-09-28T00:00	33489	7	-47.2	-84.1	308	18
2023-09-28T00:00	33522	7	-47.1	-84.0	306	17
2023-09-28T00:00	33526	7	-46.9	-83.9	303	17
2023-09-28T00:00	33553	7	-46.7	-83.7	300	16
2023-09-28T00:00	33578	7	-46.5	-83.6	297	16
2023-09-28T00:00	33610	7	-46.2	-83.4	294	16
2023-09-28T00:00	33640	7	-46.2	-83.4	293	15
2023-09-28T00:00	33661	7	-46.4	-83.5	293	15
2023-09-28T00:00	33689	7	-46.5	-83.6	293	15
2023-09-28T00:00	33703	7	-46.5	-83.6	294	15
2023-09-28T00:00	33721	7	-46.7	-83.7	294	15
2023-09-28T00:00	33757	7	-46.8	-83.8	295	15
2023-09-28T00:00	33801	7	-47.0	-83.9	295	15
2023-09-28T00:00	33812	7	-47.2	-84.1	296	15
2023-09-28T00:00	33852	7	-47.2	-84.1	296	15
2023-09-28T00:00	33853	7	-47.2	-84.1	297	15
2023-09-28T00:00	33881	7	-47.3	-84.1	297	15
2023-09-28T00:00	33904	7	-47.3	-84.1	296	16
2023-09-28T00:00	33933	7	-47.4	-84.2	296	16
2023-09-28T00:00	33971	7	-47.4	-84.2	295	16
2023-09-28T00:00	33994	6	-47.3	-84.1	294	16
2023-09-28T00:00	34031	6	-47.2	-84.1	293	17
2023-09-28T00:00	34037	6	-47.2	-84.1	292	17
2023-09-28T00:00	34063	6	-47.1	-84.0	291	17
2023-09-28T00:00	34090	6	-47.1	-84.0	290	17
2023-09-28T00:00	34101	6	-47.1	-84.0	290	17
2023-09-28T00:00	34131	6	-47.1	-84.0	291	17
2023-09-28T06:00	115	1004	14.6	11.5	158	3
2023-09-28T06:00	143	1001	15.1	11.1	171	4
2023-09-28T06:00	169	997	15.5	10.7	173	6
2023-09-28T06:00	194	994	16.6	10.4	177	8
2023-09-28T06:00	223	991	18.5	10.3	181	9
2023-09-28T06:00	248	988	18.7	10.4	185	9
2023-09-28T06:00	275	985	19.1	10.6	190	9
2023-09-28T06:00	299	982	19.3	11.0	194	9
2023-09-28T06:00	323	979	19.4	11.7	199	8
2023-09-28T06:00	355	976	19.5	12.0	204	8
2023-09-28T06:00	379	973	19.8	12.1	209	7
2023-09-28T06:00	405	970	20.5	12.2	214	7
2023-09-28T06:00	432	967	20.3	12.9	219	7
2023-09-28T06:00	457	964	20.2	12.6	224	7
2023-09-28T06:00	486	961	20.2	12.5	227	7
2023-09-28T06:00	513	958	20.3	12.0	229	7
2023-09-28T06:00	543	955	20.1	11.8	229	7
2023-09-28T06:00	572	952	19.9	11.7	228	7
2023-09-28T06:00	600	949	19.7	11.2	227	7
2023-09-28T06:00	625	946	19.6	10.9	227	7
2023-09-28T06:00	653	943	19.4	10.9	227	7
2023-09-28T06:00	681	940	19.2	10.9	228	8
2023-09-28T06:00	707	937	19.1	11.0	228	8
2023-09-28T06:00	732	934	18.9	11.1	228	8
2023-09-28T06:00	760	931	18.7	11.0	226	8
2023-09-28T06:00	786	928	18.5	10.9	224	8
2023-09-28T06:00	812	926	18.3	11.2	222	8
2023-09-28T06:00	838	923	18.2	11.4	221	8
2023-09-28T06:00	866	920	18.0	11.3	220	8
2023-09-28T06:00	895	917	17.8	11.3	219	8
2023-09-28T06:00	923	914	17.5	11.0	219	9
2023-09-28T06:00	948	911	17.3	11.0	218	9
2023-09-28T06:00	973	908	17.1	10.9	218	9
2023-09-28T06:00	1000	906	16.9	10.8	218	9
2023-09-28T06:00	1028	903	16.7	10.7	217	9
2023-09-28T06:00	1054	900	16.4	10.4	216	9
2023-09-28T06:00	1078	897	16.2	10.3	215	9
2023-09-28T06:00	1106	894	16.0	10.2	214	9
2023-09-28T06:00	1130	892	15.7	10.1	212	9
2023-09-28T06:00	1159	889	15.5	10.1	211	9
2023-09-28T06:00	1186	886	15.2	9.9	210	9
2023-09-28T06:00	1216	883	15.0	9.8	209	9
2023-09-28T06:00	1240	880	14.8	9.5	209	10
2023-09-28T06:00	1267	878	14.6	9.2	208	10
2023-09-28T06:00	1295	875	14.3	9.0	207	10
2023-09-28T06:00	1320	872	14.1	8.7	206	10
2023-09-28T06:00	1347	869	13.9	8.7	205	10
2023-09-28T06:00	1373	866	13.7	8.4	205	10
2023-09-28T06:00	1401	864	13.5	8.1	205	10
2023-09-28T06:00	1429	861	13.3	8.0	207	10
2023-09-28T06:00	1458	858	13.2	7.5	210	10
2023-09-28T06:00	1488	855	13.2	6.0	213	10
2023-09-28T06:00	1519	852	13.2	5.3	216	10
2023-09-28T06:00	1545	849	13.1	4.5	219	10
2023-09-28T06:00	1576	846	13.1	3.2	223	9
2023-09-28T06:00	1608	843	12.9	3.0	226	9
2023-09-28T06:00	1632	840	12.6	3.1	228	9
2023-09-28T06:00	1662	837	12.5	2.1	230	9
2023-09-28T06:00	1694	834	12.4	0.7	230	8
2023-09-28T06:00	1722	831	12.5	-0.6	229	8
2023-09-28T06:00	1750	829	12.4	-0.6	226	7
2023-09-28T06:00	1777	826	12.2	-0.6	222	7
2023-09-28T06:00	1808	823	12.1	-1.6	217	7
2023-09-28T06:00	1836	820	12.2	-2.9	213	6
2023-09-28T06:00	1864	817	12.7	-6.4	211	6
2023-09-28T06:00	1891	815	12.9	-7.3	211	6
2023-09-28T06:00	1921	812	12.8	-7.7	212	6
2023-09-28T06:00	1949	809	12.7	-6.4	215	6
2023-09-28T06:00	1982	806	12.8	-5.7	216	6
2023-09-28T06:00	2012	803	12.7	-7.6	216	6
2023-09-28T06:00	2044	800	12.6	-12.2	216	6
2023-09-28T06:00	2076	797	12.8	-14.5	215	6
2023-09-28T06:00	2102	794	12.6	-14.6	215	6
2023-09-28T06:00	2131	792	12.4	-13.1	216	6
2023-09-28T06:00	2158	789	12.2	-12.8	216	6
2023-09-28T06:00	2186	786	12.1	-14.2	216	6
2023-09-28T06:00	2217	784	11.9	-14.1	215	7
2023-09-28T06:00	2245	781	11.6	-10.4	214	7
2023-09-28T06:00	2275	778	11.5	-8.9	212	7
2023-09-28T06:00	2305	776	11.6		211	8
2023-09-28T06:00	2335	773	11.8	-21.3	211	8
2023-09-28T06:00	2362	770	11.8	-25.2	210	8
2023-09-28T06:00	2393	767	12.1	-26.6	209	8
2023-09-28T06:00	2420	765	12.0	-27.0	207	8
2023-09-28T06:00	2449	762	11.9	-27.0	205	8
2023-09-28T06:00	2478	760	11.7	-27.2	202	8
2023-09-28T06:00	2505	757	11.6	-27.5	200	8
2023-09-28T06:00	2533	754	11.4	-27.6	199	8
2023-09-28T06:00	2562	752	11.2	-28.0	199	8
2023-09-28T06:00	2589	749	11.3	-28.3	200	8
2023-09-28T06:00	2620	747	11.0	-28.5	202	8
2023-09-28T06:00	2648	744	10.8	-28.3	205	7
2023-09-28T06:00	2677	742	10.7	-28.6	207	8
2023-09-28T06:00	2706	739	10.6	-28.4	209	8
2023-09-28T06:00	2734	736	10.5	-28.5	210	8
2023-09-28T06:00	2762	734	10.4	-28.8	212	8
2023-09-28T06:00	2794	731	10.1	-28.8	215	8
2023-09-28T06:00	2820	729	9.9	-28.6	217	9
2023-09-28T06:00	2849	726	9.8	-28.7	218	9
2023-09-28T06:00	2881	724	9.8	-28.1	219	9
2023-09-28T06:00	2913	721	9.6	-27.8	219	9
2023-09-28T06:00	2943	718	9.4	-27.9	219	9
2023-09-28T06:00	2974	716	9.1	-27.9	218	9
2023-09-28T06:00	3004	713	8.9	-27.8	217	9
2023-09-28T06:00	3036	710	8.6	-28.0	216	9
2023-09-28T06:00	3065	708	8.5	-28.3	215	9
2023-09-28T06:00	3096	705	8.5	-26.3	215	9
2023-09-28T06:00	3126	702	8.4	-25.4	215	9
2023-09-28T06:00	3155	700	8.2	-25.4	216	9
2023-09-28T06:00	3186	697	7.9	-25.2	216	9
2023-09-28T06:00	3218	695	7.7	-25.0	215	9
2023-09-28T06:00	3248	692	7.5	-24.8	213	9
2023-09-28T06:00	3278	690	7.2	-25.5	210	9
2023-09-28T06:00	3309	687	7.1	-24.2	207	9
2023-09-28T06:00	3341	684	6.8	-23.7	205	10
2023-09-28T06:00	3374	682	6.5	-23.5	204	10
2023-09-28T06:00	3406	679	6.2	-22.9	204	10
2023-09-28T06:00	3437	676	5.9	-23.0	203	10
2023-09-28T06:00	3468	674	5.6	-21.4	203	10
2023-09-28T06:00	3497	671	5.3	-21.6	201	10
2023-09-28T06:00	3528	669	5.0	-18.2	200	10
2023-09-28T06:00	3562	666	4.8	-17.6	199	10
2023-09-28T06:00	3593	664	4.6	-17.3	198	10
2023-09-28T06:00	3622	661	4.3	-17.3	197	10
2023-09-28T06:00	3650	659	4.0	-17.2	197	10
2023-09-28T06:00	3679	657	3.7	-17.0	198	10
2023-09-28T06:00	3710	654	3.5	-16.9	198	10
2023-09-28T06:00	3739	652	3.3	-16.9	198	10
2023-09-28T06:00	3769	649	3.1	-16.4	198	9
2023-09-28T06:00	3802	647	2.9	-16.5	198	9
2023-09-28T06:00	3830	644	2.7	-16.6	198	9
2023-09-28T06:00	3859	642	2.5	-16.4	198	9
2023-09-28T06:00	3888	640	2.2	-16.3	198	9
2023-09-28T06:00	3920	637	1.9	-16.4	197	9
2023-09-28T06:00	3949	635	1.7	-16.3	197	9
2023-09-28T06:00	3977	633	1.4	-16.2	196	9
2023-09-28T06:00	4008	630	1.2	-16.4	195	9
2023-09-28T06:00	4038	628	1.0	-16.4	195	9
2023-09-28T06:00	4068	626	0.7	-16.5	195	9
2023-09-28T06:00	4096	623	0.5	-16.8	194	9
2023-09-28T06:00	4128	621	0.3	-17.0	194	9
2023-09-28T06:00	4157	619	0.0	-17.3	195	9
2023-09-28T06:00	4188	616	-0.2	-17.5	195	8
2023-09-28T06:00	4219	614	-0.4	-18.0	196	9
2023-09-28T06:00	4253	611	-0.6	-18.3	197	9
2023-09-28T06:00	4284	609	-0.9	-18.5	197	9
2023-09-28T06:00	4313	607	-1.1	-18.8	198	9
2023-09-28T06:00	4340	604	-1.3	-19.6	198	9
2023-09-28T06:00	4376	602	-1.5	-19.6	197	10
2023-09-28T06:00	4405	600	-1.7	-19.7	197	10
2023-09-28T06:00	4434	598	-2.0	-19.9	196	9
2023-09-28T06:00	4463	595	-2.2	-20.2	196	9
2023-09-28T06:00	4493	593	-2.5	-20.1	195	9
2023-09-28T06:00	4523	591	-2.7	-20.2	194	9
2023-09-28T06:00	4554	589	-3.0	-20.3	193	9
2023-09-28T06:00	4582	587	-3.3	-20.6	191	9
2023-09-28T06:00	4609	584	-3.5	-20.8	190	10
2023-09-28T06:00	4639	582	-3.7	-21.1	189	10
2023-09-28T06:00	4670	580	-3.8	-21.1	189	10
2023-09-28T06:00	4698	578	-4.0	-19.3	189	10
2023-09-28T06:00	4725	576	-4.3	-17.5	190	10
2023-09-28T06:00	4752	574	-4.5	-18.0	190	10
2023-09-28T06:00	4781	572	-4.6	-22.2	191	10
2023-09-28T06:00	4814	570	-4.7	-23.2	191	10
2023-09-28T06:00	4841	568	-5.0	-22.6	191	10
2023-09-28T06:00	4872	565	-5.3	-19.4	190	10
2023-09-28T06:00	4899	563	-5.5	-19.2	189	10
2023-09-28T06:00	4930	561	-5.8	-19.0	188	10
2023-09-28T06:00	4956	559	-6.1	-19.6	188	10
2023-09-28T06:00	4986	557	-6.4	-19.6	188	10
2023-09-28T06:00	5016	555	-6.6	-20.3	189	10
2023-09-28T06:00	5046	553	-6.9	-21.1	189	10
2023-09-28T06:00	5075	551	-7.2	-20.0	188	10
2023-09-28T06:00	5105	549	-7.4	-21.0	188	10
2023-09-28T06:00	5136	547	-7.5	-22.6	187	10
2023-09-28T06:00	5164	545	-7.7	-23.3	186	11
2023-09-28T06:00	5193	543	-7.8	-23.0	186	11
2023-09-28T06:00	5218	541	-8.0	-23.1	185	11
2023-09-28T06:00	5250	539	-8.1		186	11
2023-09-28T06:00	5279	537	-8.3	-25.3	186	11
2023-09-28T06:00	5309	535	-8.5	-26.1	186	11
2023-09-28T06:00	5337	533	-8.8	-26.8	187	11
2023-09-28T06:00	5366	531	-9.0	-26.0	187	11
2023-09-28T06:00	5396	529	-9.2	-24.5	187	11
2023-09-28T06:00	5425	527	-9.5	-24.3	187	11
2023-09-28T06:00	5453	525	-9.8	-23.8	188	12
2023-09-28T06:00	5486	522	-10.1	-23.1	188	12
2023-09-28T06:00	5514	520	-10.3	-23.5	189	12
2023-09-28T06:00	5545	518	-10.5	-26.0	190	12
2023-09-28T06:00	5573	516	-10.6	-27.8	191	12
2023-09-28T06:00	5603	515	-10.8	-28.6	193	12
2023-09-28T06:00	5632	513	-11.1	-28.8	194	13
2023-09-28T06:00	5660	511	-11.3	-29.6	195	13
2023-09-28T06:00	5691	509	-11.4	-29.9	196	14
2023-09-28T06:00	5722	507	-11.6	-30.3	197	14
2023-09-28T06:00	5750	505	-11.7	-29.7	198	14
2023-09-28T06:00	5779	503	-11.8	-29.6	199	14
2023-09-28T06:00	5809	501	-12.0	-28.5	200	14
2023-09-28T06:00	5837	499	-12.2	-27.7	202	14
2023-09-28T06:00	5867	497	-12.5	-27.6	202	14
2023-09-28T06:00	5898	495	-12.8	-26.8	202	14
2023-09-28T06:00	5930	493	-13.0	-26.8	202	14
2023-09-28T06:00	5960	491	-13.3	-26.8	202	14
2023-09-28T06:00	5988	489	-13.6	-26.9	202	14
2023-09-28T06:00	6018	487	-13.8	-27.3	202	14
2023-09-28T06:00	6047	485	-14.0	-27.6	202	14
2023-09-28T06:00	6078	483	-14.3	-28.2	202	14
2023-09-28T06:00	6110	481	-14.5	-28.5	202	14
2023-09-28T06:00	6141	480	-14.7	-28.9	202	14
2023-09-28T06:00	6171	478	-15.0	-29.6	201	14
2023-09-28T06:00	6201	476	-15.2	-29.7	201	14
2023-09-28T06:00	6233	474	-15.5	-30.7	202	14
2023-09-28T06:00	6266	472	-15.7	-32.0	202	14
2023-09-28T06:00	6297	470	-15.8	-33.6	202	14
2023-09-28T06:00	6329	468	-15.8	-34.5	202	14
2023-09-28T06:00	6361	466	-16.0	-33.2	202	14
2023-09-28T06:00	6395	464	-16.3	-33.2	201	14
2023-09-28T06:00	6428	462	-16.7	-33.1	201	14
2023-09-28T06:00	6462	460	-17.0	-33.1	201	14
2023-09-28T06:00	6494	458	-17.3		201	14
2023-09-28T06:00	6526	456	-17.6	-32.7	201	14
2023-09-28T06:00	6559	454	-17.9	-32.1	201	15
2023-09-28T06:00	6592	452	-18.2	-33.6	201	15
2023-09-28T06:00	6628	449	-18.4	-34.7	200	15
2023-09-28T06:00	6661	447	-18.7	-33.3	200	15
2023-09-28T06:00	6696	445	-19.0	-32.8	199	15
2023-09-28T06:00	6728	443	-19.1	-37.2	199	15
2023-09-28T06:00	6763	441	-19.3	-36.3	199	15
2023-09-28T06:00	6792	440	-19.5	-37.3	200	15
2023-09-28T06:00	6823	438	-19.8	-37.8	201	15
2023-09-28T06:00	6857	436	-20.0	-38.0	202	15
2023-09-28T06:00	6887	434	-20.3	-38.4	202	15
2023-09-28T06:00	6923	432	-20.4	-37.9	202	14
2023-09-28T06:00	6957	430	-20.7	-36.3	202	14
2023-09-28T06:00	6988	428	-20.9	-35.7	201	14
2023-09-28T06:00	7021	426	-21.2	-36.1	201	15
2023-09-28T06:00	7053	424	-21.6	-37.0	201	15
2023-09-28T06:00	7086	422	-21.9	-36.1	201	15
2023-09-28T06:00	7118	421	-22.1		202	15
2023-09-28T06:00	7149	419	-22.4	-36.6	202	15
2023-09-28T06:00	7177	417	-22.7	-37.0	203	14
2023-09-28T06:00	7211	415	-23.0		203	14
2023-09-28T06:00	7244	413	-23.2	-38.3	203	13
2023-09-28T06:00	7277	412	-23.4	-39.5	203	13
2023-09-28T06:00	7313	410	-23.6	-40.2	202	12
2023-09-28T06:00	7345	408	-23.8	-41.0	200	12
2023-09-28T06:00	7374	406	-24.0	-42.3	197	11
2023-09-28T06:00	7405	404	-24.2	-43.2	194	11
2023-09-28T06:00	7441	403	-24.5	-43.9	192	11
2023-09-28T06:00	7468	401	-24.7	-44.9	192	10
2023-09-28T06:00	7495	399	-24.9	-46.4	192	10
2023-09-28T06:00	7530	398	-24.8	-48.5	195	10
2023-09-28T06:00	7562	396	-25.0	-48.8	198	10
2023-09-28T06:00	7595	394	-24.9	-50.1	200	10
2023-09-28T06:00	7628	392	-25.1	-49.5	202	10
2023-09-28T06:00	7659	391	-25.3	-48.5	203	11
2023-09-28T06:00	7684	389	-25.4	-47.1	203	11
2023-09-28T06:00	7715	388	-25.7	-46.4	203	12
2023-09-28T06:00	7746	386	-25.9	-45.5	203	12
2023-09-28T06:00	7781	384	-26.2	-43.9	202	12
2023-09-28T06:00	7814	382	-26.5	-43.3	202	13
2023-09-28T06:00	7848	381	-26.8	-42.6	201	13
2023-09-28T06:00	7880	379	-27.1	-41.9	201	13
2023-09-28T06:00	7913	377	-27.4	-39.1	200	13
2023-09-28T06:00	7943	375	-27.7	-39.0	199	13
2023-09-28T06:00	7976	374	-28.0	-39.1	198	13
2023-09-28T06:00	8014	372	-28.3	-39.2	197	13
2023-09-28T06:00	8041	370	-28.6	-39.4	196	12
2023-09-28T06:00	8072	369	-28.8	-40.0	194	12
2023-09-28T06:00	8109	367	-29.1	-40.5	193	12
2023-09-28T06:00	8140	365	-29.4	-40.7	192	12
2023-09-28T06:00	8174	364	-29.7	-41.1	192	12
2023-09-28T06:00	8212	362	-30.0	-41.6	192	12
2023-09-28T06:00	8241	360	-30.3		192	12
2023-09-28T06:00	8270	359	-30.6	-42.3	192	12
2023-09-28T06:00	8306	357	-30.9	-42.7	192	12
2023-09-28T06:00	8339	355	-31.2	-42.4	192	12
2023-09-28T06:00	8374	354	-31.5	-42.7	191	12
2023-09-28T06:00	8401	352	-31.8	-42.7	191	12
2023-09-28T06:00	8439	350	-32.1	-42.6	191	12
2023-09-28T06:00	8472	349	-32.5	-42.7	191	12
2023-09-28T06:00	8505	347	-32.8	-42.7	190	11
2023-09-28T06:00	8543	345	-33.1	-42.7	190	11
2023-09-28T06:00	8576	343	-33.5	-42.9	190	11
2023-09-28T06:00	8611	342	-33.8	-42.7	189	11
2023-09-28T06:00	8644	340	-34.0	-42.2	189	11
2023-09-28T06:00	8683	338	-34.2	-42.7	188	11
2023-09-28T06:00	8710	337	-34.3	-42.4	187	11
2023-09-28T06:00	8745	335	-34.5	-42.6	185	11
2023-09-28T06:00	8773	334	-34.6	-42.8	184	10
2023-09-28T06:00	8803	332	-34.8	-43.0	182	10
2023-09-28T06:00	8840	331	-35.0	-43.3	183	10
2023-09-28T06:00	8872	329	-35.3	-43.8	184	10
2023-09-28T06:00	8907	328	-35.6	-44.1	187	10
2023-09-28T06:00	8941	326	-35.9		189	10
2023-09-28T06:00	8973	325	-36.1	-44.9	190	11
2023-09-28T06:00	8997	323	-36.3	-44.8	189	11
2023-09-28T06:00	9033	322	-36.6	-46.1	188	11
2023-09-28T06:00	9068	320	-36.8	-47.5	186	11
2023-09-28T06:00	9096	319	-37.0	-45.3	185	10
2023-09-28T06:00	9120	318	-37.2	-44.8	186	10
2023-09-28T06:00	9147	316	-37.4	-44.8	187	10
2023-09-28T06:00	9178	315	-37.7	-44.9	189	9
2023-09-28T06:00	9201	314	-37.9	-45.3	191	9
2023-09-28T06:00	9228	313	-38.1	-45.4	192	9
2023-09-28T06:00	9253	312	-38.3	-45.3	194	9
2023-09-28T06:00	9277	311	-38.6	-45.5	195	9
2023-09-28T06:00	9306	309	-38.8	-45.5	196	10
2023-09-28T06:00	9336	308	-39.1	-45.8	198	10
2023-09-28T06:00	9369	306	-39.4	-46.9	200	10
2023-09-28T06:00	9391	305	-39.5	-47.1	201	10
2023-09-28T06:00	9416	304	-39.7	-46.8	202	10
2023-09-28T06:00	9440	303	-39.9	-47.0	203	10
2023-09-28T06:00	9465	302	-40.1	-46.9	203	10
2023-09-28T06:00	9494	301	-40.4	-47.0	204	9
2023-09-28T06:00	9524	299	-40.6	-47.6	206	9
2023-09-28T06:00	9561	298	-40.9	-49.0	208	8
2023-09-28T06:00	9593	297	-41.2	-50.7	211	8
2023-09-28T06:00	9626	295	-41.1	-54.8	213	7
2023-09-28T06:00	9650	294	-41.2	-57.0	214	6
2023-09-28T06:00	9682	293	-41.4	-58.9	214	6
2023-09-28T06:00	9712	291	-41.4	-60.4	213	5
2023-09-28T06:00	9737	290	-41.6	-60.7	211	5
2023-09-28T06:00	9763	289	-41.8	-61.3	209	5
2023-09-28T06:00	9791	288	-41.9	-61.6	207	5
2023-09-28T06:00	9812	287	-42.0	-62.0	203	5
2023-09-28T06:00	9837	286	-42.2	-62.0	198	6
2023-09-28T06:00	9864	285	-42.4	-62.0	193	6
2023-09-28T06:00	9896	284	-42.6	-62.1	189	6
2023-09-28T06:00	9930	282	-42.9	-62.6	185	6
2023-09-28T06:00	9956	281	-43.0	-62.8	183	6
2023-09-28T06:00	9980	280	-43.2	-62.9	181	6
2023-09-28T06:00	10013	279	-43.5	-62.9	181	5
2023-09-28T06:00	10038	278	-43.7	-62.9	181	5
2023-09-28T06:00	10063	277	-43.8		183	5
2023-09-28T06:00	10085	276	-44.0	-62.4	188	4
2023-09-28T06:00	10111	275	-44.2	-61.9	195	4
2023-09-28T06:00	10132	274	-44.4	-61.4	203	4
2023-09-28T06:00	10153	273	-44.5	-61.3	209	4
2023-09-28T06:00	10177	272	-44.6	-61.7	212	4
2023-09-28T06:00	10200	271	-44.7	-61.9	213	4
2023-09-28T06:00	10228	270	-44.9	-62.2	210	4
2023-09-28T06:00	10259	269	-45.1	-62.3	207	4
2023-09-28T06:00	10282	268	-45.3	-62.4	203	3
2023-09-28T06:00	10304	267	-45.5	-62.6	199	3
2023-09-28T06:00	10327	266	-45.7	-62.6	194	3
2023-09-28T06:00	10355	265	-45.9	-62.7	188	3
2023-09-28T06:00	10387	264	-46.1	-62.8	182	3
2023-09-28T06:00	10416	262	-46.4	-63.0	177	2
2023-09-28T06:00	10446	261	-46.6	-62.7	172	2
2023-09-28T06:00	10482	260	-47.0	-62.1	168	1
2023-09-28T06:00	10510	259	-47.2	-61.5	170	1
2023-09-28T06:00	10540	257	-47.5	-61.6	178	1
2023-09-28T06:00	10570	256	-47.7	-61.5	187	1
2023-09-28T06:00	10600	255	-48.0	-61.1	192	1
2023-09-28T06:00	10636	254	-48.4	-61.1	196	1
2023-09-28T06:00	10669	253	-48.7	-60.5	201	2
2023-09-28T06:00	10695	252	-48.9	-59.7	210	2
2023-09-28T06:00	10718	251	-49.1	-59.5	223	2
2023-09-28T06:00	10741	250	-49.3	-59.5	238	2
2023-09-28T06:00	10766	249	-49.6	-59.6	249	2
2023-09-28T06:00	10789	248	-49.8	-59.2	256	2
2023-09-28T06:00	10810	247	-49.8	-58.9	259	2
2023-09-28T06:00	10839	246	-50.0	-59.0	259	2
2023-09-28T06:00	10864	245	-50.2	-59.1	259	2
2023-09-28T06:00	10893	244	-50.5	-59.2	259	2
2023-09-28T06:00	10922	243	-50.7	-59.3	261	1
2023-09-28T06:00	10948	242	-51.0	-59.4	264	1
2023-09-28T06:00	10973	241	-51.2	-59.2	268	1
2023-09-28T06:00	10996	240	-51.4	-59.4	269	1
2023-09-28T06:00	11029	239	-51.7	-59.8	264	1
2023-09-28T06:00	11055	238	-52.0	-60.1	251	1
2023-09-28T06:00	11083	237	-52.2	-60.3	232	1
2023-09-28T06:00	11115	236	-52.5	-60.6	210	1
2023-09-28T06:00	11146	235	-52.7	-61.0	189	1
2023-09-28T06:00	11175	234	-52.9	-61.4	166	1
2023-09-28T06:00	11198	233	-53.1	-61.6	143	1
2023-09-28T06:00	11229	232	-53.3	-61.7	127	1
2023-09-28T06:00	11257	231	-53.6	-61.8	123	1
2023-09-28T06:00	11284	230	-53.8	-61.9	128	2
2023-09-28T06:00	11326	228	-54.2	-62.1	137	2
2023-09-28T06:00	11355	227	-54.4	-62.1	147	2
2023-09-28T06:00	11390	226	-54.7	-62.3	160	1
2023-09-28T06:00	11417	225	-54.9	-62.4	182	1
2023-09-28T06:00	11442	224	-55.1	-62.6	211	1
2023-09-28T06:00	11467	223	-55.3	-62.9	230	2
2023-09-28T06:00	11496	222	-55.5	-63.1	237	2
2023-09-28T06:00	11523	221	-55.7	-63.2	240	2
2023-09-28T06:00	11553	220	-55.9	-63.3	243	3
2023-09-28T06:00	11579	219	-56.1	-63.3	247	3
2023-09-28T06:00	11606	218	-56.4	-63.5	253	3
2023-09-28T06:00	11635	217	-56.6	-63.5	258	3
2023-09-28T06:00	11660	217	-56.7	-63.6	261	4
2023-09-28T06:00	11684	216	-56.8	-63.6	263	4
2023-09-28T06:00	11711	215	-57.0	-63.8	264	4
2023-09-28T06:00	11738	214	-57.0	-64.0	265	5
2023-09-28T06:00	11765	213	-57.1	-64.6	266	5
2023-09-28T06:00	11793	212	-57.2	-65.1	267	5
2023-09-28T06:00	11819	211	-57.2	-65.4	269	5
2023-09-28T06:00	11847	210	-57.3	-65.5	270	5
2023-09-28T06:00	11873	209	-57.5	-65.6	269	4
2023-09-28T06:00	11905	208	-57.6	-66.0	266	3
2023-09-28T06:00	11945	207	-57.1	-66.4	250	2
2023-09-28T06:00	11984	206	-56.9	-67.1	189	1
2023-09-28T06:00	12021	205	-57.1	-67.8	151	2
2023-09-28T06:00	12051	204	-57.2	-68.0	145	3
2023-09-28T06:00	12087	202	-57.4	-68.0	146	4
2023-09-28T06:00	12114	202	-57.6	-67.9	149	4
2023-09-28T06:00	12143	201	-57.9	-68.0	152	4
2023-09-28T06:00	12176	200	-58.2	-68.0	156	4
2023-09-28T06:00	12202	199	-58.4	-68.0	159	4
2023-09-28T06:00	12222	198	-58.6	-67.9	162	4
2023-09-28T06:00	12248	197	-58.8	-67.9	166	5
2023-09-28T06:00	12273	197	-59.1	-68.0	169	5
2023-09-28T06:00	12297	196	-59.3	-68.0	172	6
2023-09-28T06:00	12320	195	-59.5	-68.1	175	6
2023-09-28T06:00	12341	194	-59.6	-68.2	179	6
2023-09-28T06:00	12366	194	-59.7	-68.6	184	7
2023-09-28T06:00	12386	193	-59.7	-69.1	189	7
2023-09-28T06:00	12413	192	-59.6	-69.7	195	7
2023-09-28T06:00	12441	191	-59.6	-70.4	201	7
2023-09-28T06:00	12468	190	-59.5	-70.8	208	7
2023-09-28T06:00	12495	190	-59.6	-71.1	215	8
2023-09-28T06:00	12518	189	-59.6	-71.2	221	8
2023-09-28T06:00	12545	188	-59.8	-71.3	226	8
2023-09-28T06:00	12566	188	-59.9	-71.4	229	8
2023-09-28T06:00	12589	187	-59.9	-71.5	231	8
2023-09-28T06:00	12612	186	-60.0	-71.7	233	8
2023-09-28T06:00	12633	186	-60.1	-71.7	235	8
2023-09-28T06:00	12657	185	-60.2	-71.8	237	9
2023-09-28T06:00	12680	184	-60.3	-72.0	239	9
2023-09-28T06:00	12702	183	-60.4	-72.1	241	9
2023-09-28T06:00	12725	183	-60.5	-72.2	242	10
2023-09-28T06:00	12747	182	-60.5	-72.3	242	10
2023-09-28T06:00	12771	181	-60.7	-72.6	241	10
2023-09-28T06:00	12793	181	-60.7	-72.8	240	10
2023-09-28T06:00	12815	180	-60.6		237	10
2023-09-28T06:00	12840	179	-60.2	-73.5	234	10
2023-09-28T06:00	12861	179	-59.8	-74.0	230	9
2023-09-28T06:00	12889	178	-59.5	-74.5	228	9
2023-09-28T06:00	12910	177	-59.3	-75.0	227	9
2023-09-28T06:00	12936	177	-59.0	-75.2	227	9
2023-09-28T06:00	12960	176	-58.9	-75.3	229	9
2023-09-28T06:00	12991	175	-59.1	-75.5	232	10
2023-09-28T06:00	13015	174	-59.4	-75.6	234	10
2023-09-28T06:00	13044	174	-59.6	-75.6	237	10
2023-09-28T06:00	13067	173	-59.8	-75.5	240	11
2023-09-28T06:00	13091	172	-60.0	-75.7	243	11
2023-09-28T06:00	13115	172	-60.1	-75.9	246	11
2023-09-28T06:00	13135	171	-59.7	-75.8	248	11
2023-09-28T06:00	13158	171	-59.8	-76.3	250	10
2023-09-28T06:00	13180	170	-59.4	-76.4	252	11
2023-09-28T06:00	13203	169	-59.0	-76.3	252	11
2023-09-28T06:00	13225	169	-59.1	-76.7	251	11
2023-09-28T06:00	13247	168	-59.2	-76.9	251	11
2023-09-28T06:00	13270	168	-59.2	-76.9	250	10
2023-09-28T06:00	13293	167	-59.2	-76.9	250	10
2023-09-28T06:00	13316	166	-59.3	-77.0	251	10
2023-09-28T06:00	13339	166	-59.2	-76.9	251	10
2023-09-28T06:00	13360	165	-59.0		251	10
2023-09-28T06:00	13383	165	-58.4	-76.3	251	10
2023-09-28T06:00	13404	164	-58.5	-76.3	250	10
2023-09-28T06:00	13430	163	-58.7	-76.4	249	9
2023-09-28T06:00	13452	163	-58.8	-76.4	247	9
2023-09-28T06:00	13475	162	-58.9	-76.4	245	9
2023-09-28T06:00	13499	162	-59.1	-76.5	242	8
2023-09-28T06:00	13520	161	-59.2	-76.4	238	8
2023-09-28T06:00	13547	160	-59.3	-76.5	232	7
2023-09-28T06:00	13573	160	-59.6	-76.8	225	7
2023-09-28T06:00	13600	159	-59.6	-76.9	219	7
2023-09-28T06:00	13629	158	-59.5	-77.0	216	7
2023-09-28T06:00	13653	158	-59.5	-77.1	214	8
2023-09-28T06:00	13676	157	-59.7	-77.3	214	8
2023-09-28T06:00	13700	156	-59.9	-77.4	214	8
2023-09-28T06:00	13725	156	-60.2	-77.5	214	8
2023-09-28T06:00	13748	155	-60.4	-77.6	213	9
2023-09-28T06:00	13773	155	-60.6	-77.6	212	9
2023-09-28T06:00	13795	154	-60.8	-77.8	212	9
2023-09-28T06:00	13819	153	-61.0		212	10
2023-09-28T06:00	13845	153	-61.1	-78.5	213	10
2023-09-28T06:00	13870	152	-61.0	-79.0	215	10
2023-09-28T06:00	13892	152	-61.0	-79.7	218	11
2023-09-28T06:00	13917	151	-61.0	-80.4	221	11
2023-09-28T06:00	13942	150	-61.0	-80.9	225	11
2023-09-28T06:00	13964	150	-61.1	-81.2	229	11
2023-09-28T06:00	13988	149	-61.1		233	11
2023-09-28T06:00	14015	149	-61.3	-81.3	236	12
2023-09-28T06:00	14046	148	-61.2	-81.2	238	12
2023-09-28T06:00	14073	147	-61.0	-81.3	239	13
2023-09-28T06:00	14099	147	-59.8	-80.8	239	13
2023-09-28T06:00	14123	146	-59.8	-81.4	238	13
2023-09-28T06:00	14145	146	-59.9	-81.8	237	12
2023-09-28T06:00	14169	145	-59.4	-81.6	235	12
2023-09-28T06:00	14192	145	-59.5	-81.7	234	12
2023-09-28T06:00	14213	144	-59.7	-81.8	234	12
2023-09-28T06:00	14237	143	-59.8	-81.9	233	12
2023-09-28T06:00	14259	143	-59.9	-82.0	233	12
2023-09-28T06:00	14283	142	-60.0	-81.9	233	12
2023-09-28T06:00	14308	142	-60.2	-82.1	234	12
2023-09-28T06:00	14329	141	-60.4	-82.2	234	12
2023-09-28T06:00	14351	141	-60.4	-82.2	235	12
2023-09-28T06:00	14374	140	-60.5	-82.3	236	12
2023-09-28T06:00	14397	140	-60.4	-82.2	237	12
2023-09-28T06:00	14423	139	-60.5	-82.5	238	13
2023-09-28T06:00	14447	139	-60.6	-82.5	239	13
2023-09-28T06:00	14472	138	-60.7	-82.6	240	13
2023-09-28T06:00	14496	138	-60.8	-82.9	240	12
2023-09-28T06:00	14519	137	-60.7	-82.8	241	12
2023-09-28T06:00	14544	137	-60.7	-82.8	242	12
2023-09-28T06:00	14568	136	-60.7	-82.8	243	12
2023-09-28T06:00	14591	136	-60.8	-82.9	243	11
2023-09-28T06:00	14613	135	-61.0	-82.9	243	11
2023-09-28T06:00	14639	135	-61.3	-82.9	243	11
2023-09-28T06:00	14665	134	-61.5	-83.0	243	10
2023-09-28T06:00	14688	133	-61.7	-83.1	243	10
2023-09-28T06:00	14713	133	-61.9	-83.1	244	10
2023-09-28T06:00	14738	132	-62.0	-83.2	244	10
2023-09-28T06:00	14759	132	-61.9	-83.3	244	9
2023-09-28T06:00	14783	131	-61.8	-83.4	244	10
2023-09-28T06:00	14808	131	-61.8	-83.7	244	10
2023-09-28T06:00	14833	130	-61.5	-83.6	245	10
2023-09-28T06:00	14856	130	-61.2	-83.4	245	11
2023-09-28T06:00	14881	129	-61.5	-83.8	245	11
2023-09-28T06:00	14905	129	-61.7	-83.9	246	12
2023-09-28T06:00	14930	128	-61.4	-83.7	246	12
2023-09-28T06:00	14958	128	-61.4	-83.9	246	12
2023-09-28T06:00	14980	127	-61.5	-84.0	247	12
2023-09-28T06:00	15005	127	-61.8	-84.2	248	12
2023-09-28T06:00	15028	126	-61.6	-84.2	249	11
2023-09-28T06:00	15052	126	-61.2	-84.1	249	11
2023-09-28T06:00	15077	125	-61.2	-84.5	248	10
2023-09-28T06:00	15101	125	-60.6	-84.5	244	9
2023-09-28T06:00	15134	124	-60.0	-84.7	237	8
2023-09-28T06:00	15179	123	-58.4	-84.0	229	8
2023-09-28T06:00	15226	122	-58.6	-84.4	222	8
2023-09-28T06:00	15273	122	-58.8	-84.6	216	8
2023-09-28T06:00	15297	121	-59.0	-84.4	212	8
2023-09-28T06:00	15320	121	-59.3	-84.7	209	8
2023-09-28T06:00	15344	120	-59.5	-84.6	207	9
2023-09-28T06:00	15368	120	-59.7	-84.7	206	9
2023-09-28T06:00	15390	119	-59.9	-84.6	206	9
2023-09-28T06:00	15417	119	-60.1	-84.8	206	9
2023-09-28T06:00	15442	118	-60.3	-84.7	207	9
2023-09-28T06:00	15468	118	-60.5	-84.8	209	9
2023-09-28T06:00	15493	117	-60.5	-84.8	212	9
2023-09-28T06:00	15520	117	-60.6	-84.7	214	9
2023-09-28T06:00	15547	116	-60.7	-84.8	217	9
2023-09-28T06:00	15571	116	-60.9	-84.9	220	10
2023-09-28T06:00	15596	115	-61.1	-84.8	223	10
2023-09-28T06:00	15620	115	-61.2	-84.9	226	10
2023-09-28T06:00	15643	114	-61.3	-85.0	229	10
2023-09-28T06:00	15669	114	-61.3	-85.0	231	11
2023-09-28T06:00	15693	114	-61.3	-85.2	233	11
2023-09-28T06:00	15718	113	-61.3	-85.2	235	12
2023-09-28T06:00	15745	113	-61.4	-85.1	236	12
2023-09-28T06:00	15772	112	-61.5	-85.2	237	13
2023-09-28T06:00	15795	112	-61.6	-85.2	239	13
2023-09-28T06:00	15817	111	-61.5	-85.4	240	13
2023-09-28T06:00	15842	111	-60.9	-85.2	242	13
2023-09-28T06:00	15865	110	-60.8	-85.1	244	12
2023-09-28T06:00	15891	110	-60.8	-85.3	246	11
2023-09-28T06:00	15913	110	-60.6	-85.4	248	10
2023-09-28T06:00	15937	109	-60.4	-85.5	250	10
2023-09-28T06:00	15964	109	-60.1	-85.6	252	9
2023-09-28T06:00	15988	108	-59.6	-85.5	252	9
2023-09-28T06:00	16011	108	-59.4	-85.3	252	8
2023-09-28T06:00	16034	107	-59.5	-85.4	250	8
2023-09-28T06:00	16058	107	-59.6	-85.8	249	8
2023-09-28T06:00	16082	107	-59.2	-85.5	247	7
2023-09-28T06:00	16106	106	-58.7	-85.4	245	7
2023-09-28T06:00	16131	106	-58.7	-85.4	243	7
2023-09-28T06:00	16154	105	-58.5	-85.3	242	7
2023-09-28T06:00	16181	105	-58.4	-85.2	240	7
2023-09-28T06:00	16206	105	-58.6	-85.4	239	7
2023-09-28T06:00	16230	104	-58.8	-85.5	239	7
2023-09-28T06:00	16253	104	-59.0	-85.3	240	7
2023-09-28T06:00	16277	103	-59.2	-85.5	242	8
2023-09-28T06:00	16300	103	-59.4	-85.6	244	8
2023-09-28T06:00	16324	103	-59.6	-85.5	246	8
2023-09-28T06:00	16349	102	-59.7	-85.6	248	9
2023-09-28T06:00	16373	102	-59.8	-85.6	250	9
2023-09-28T06:00	16395	101	-59.9	-85.7	252	9
2023-09-28T06:00	16417	101	-59.8	-85.6	253	9
2023-09-28T06:00	16442	101	-59.7	-85.9	253	9
2023-09-28T06:00	16463	100	-59.7	-85.9	253	9
2023-09-28T06:00	16488	100	-59.4	-85.6	253	9
2023-09-28T06:00	16512	100	-59.4	-85.6	252	8
2023-09-28T06:00	16532	99	-59.5	-86.0	251	8
2023-09-28T06:00	16557	99	-59.6	-85.8	249	8
2023-09-28T06:00	16581	99	-59.8	-85.9	247	8
2023-09-28T06:00	16604	98	-59.8	-85.9	244	8
2023-09-28T06:00	16628	98	-59.9	-86.0	242	8
2023-09-28T06:00	16652	97	-60.1	-86.2	241	8
2023-09-28T06:00	16676	97	-60.2	-86.3	239	8
2023-09-28T06:00	16699	97	-60.1	-86.2	239	8
2023-09-28T06:00	16723	96	-60.1	-86.2	239	8
2023-09-28T06:00	16748	96	-60.0	-86.4	239	8
2023-09-28T06:00	16771	96	-59.9	-86.3	239	8
2023-09-28T06:00	16794	95	-59.8	-86.6	239	8
2023-09-28T06:00	16818	95	-59.9	-86.7	238	8
2023-09-28T06:00	16843	94	-59.6	-86.5	237	7
2023-09-28T06:00	16869	94	-59.3	-86.6	235	7
2023-09-28T06:00	16895	94	-59.1	-86.5	233	7
2023-09-28T06:00	16919	93	-59.2	-86.5	232	8
2023-09-28T06:00	16944	93	-59.3	-86.6	232	8
2023-09-28T06:00	16969	93	-59.5	-86.4	233	8
2023-09-28T06:00	16994	92	-59.6	-86.5	235	8
2023-09-28T06:00	17019	92	-59.7	-86.5	237	8
2023-09-28T06:00	17044	91	-59.9	-86.7	240	8
2023-09-28T06:00	17072	91	-60.1	-86.5	242	8
2023-09-28T06:00	17098	91	-60.1	-86.5	245	8
2023-09-28T06:00	17123	90	-60.2	-86.6	247	8
2023-09-28T06:00	17149	90	-60.3	-86.7	250	8
2023-09-28T06:00	17175	90	-60.4	-86.7	252	8
2023-09-28T06:00	17203	89	-60.4	-86.7	255	8
2023-09-28T06:00	17228	89	-60.4	-86.7	258	8
2023-09-28T06:00	17257	88	-60.2	-86.9	260	7
2023-09-28T06:00	17286	88	-60.0	-86.8	262	7
2023-09-28T06:00	17311	88	-59.8	-87.0	261	6
2023-09-28T06:00	17338	87	-59.8	-87.0	256	5
2023-09-28T06:00	17366	87	-59.6	-86.8	247	5
2023-09-28T06:00	17395	86	-59.4	-86.7	235	4
2023-09-28T06:00	17426	86	-59.6	-86.8	223	5
2023-09-28T06:00	17458	86	-59.7	-86.9	215	5
2023-09-28T06:00	17486	85	-59.9	-87.1	210	6
2023-09-28T06:00	17513	85	-60.1	-87.2	208	6
2023-09-28T06:00	17537	85	-60.2	-87.3	208	7
2023-09-28T06:00	17563	84	-60.3	-87.4	210	7
2023-09-28T06:00	17591	84	-60.3	-87.0	213	7
2023-09-28T06:00	17615	83	-60.4	-87.1	216	8
2023-09-28T06:00	17641	83	-60.6	-87.2	220	8
2023-09-28T06:00	17670	83	-60.7	-87.3	224	9
2023-09-28T06:00	17693	82	-60.9	-87.5	228	9
2023-09-28T06:00	17719	82	-60.9	-87.5	233	9
2023-09-28T06:00	17744	82	-61.0	-87.9	237	9
2023-09-28T06:00	17770	81	-61.0	-87.9	242	9
2023-09-28T06:00	17797	81	-60.8	-87.7	247	9
2023-09-28T06:00	17820	81	-60.7	-87.7	251	9
2023-09-28T06:00	17846	80	-60.8	-88.1	255	10
2023-09-28T06:00	17869	80	-60.7	-88.1	258	10
2023-09-28T06:00	17894	80	-60.6	-88.0	260	10
2023-09-28T06:00	17920	79	-60.6	-88.0	262	11
2023-09-28T06:00	17945	79	-60.6	-88.0	264	11
2023-09-28T06:00	17972	79	-60.8	-87.7	266	12
2023-09-28T06:00	17995	79	-61.0	-87.9	269	12
2023-09-28T06:00	18017	78	-61.1	-88.0	272	12
2023-09-28T06:00	18044	78	-61.1	-88.4	275	12
2023-09-28T06:00	18069	78	-61.1	-88.4	278	11
2023-09-28T06:00	18092	77	-60.9	-88.2	280	10
2023-09-28T06:00	18113	77	-60.7	-88.5	282	9
2023-09-28T06:00	18138	77	-60.3	-88.2	282	8
2023-09-28T06:00	18162	76	-60.0	-88.4	280	8
2023-09-28T06:00	18186	76	-59.8	-88.2	278	7
2023-09-28T06:00	18211	76	-59.7	-88.2	275	6
2023-09-28T06:00	18236	76	-59.6	-88.6	273	6
2023-09-28T06:00	18261	75	-59.5	-88.5	272	5
2023-09-28T06:00	18285	75	-59.2	-88.3	273	5
2023-09-28T06:00	18308	75	-59.2	-88.3	274	4
2023-09-28T06:00	18337	74	-59.2	-88.3	276	3
2023-09-28T06:00	18362	74	-59.1	-88.2	278	3
2023-09-28T06:00	18388	74	-59.2	-88.3	278	3
2023-09-28T06:00	18414	73	-59.2	-88.3	275	2
2023-09-28T06:00	18438	73	-59.2	-88.3	268	2
2023-09-28T06:00	18461	73	-59.3	-88.3	259	2
2023-09-28T06:00	18490	73	-59.1	-88.2	248	3
2023-09-28T06:00	18516	72	-59.1	-88.2	238	3
2023-09-28T06:00	18540	72	-58.9	-88.0	228	3
2023-09-28T06:00	18565	72	-58.8	-88.0	220	4
2023-09-28T06:00	18594	71	-59.0	-88.1	215	4
2023-09-28T06:00	18622	71	-59.2	-88.3	211	4
2023-09-28T06:00	18645	71	-59.2	-88.3	210	5
2023-09-28T06:00	18669	70	-59.3	-88.3	210	5
2023-09-28T06:00	18694	70	-59.4	-88.4	211	5
2023-09-28T06:00	18724	70	-59.4	-88.4	215	5
2023-09-28T06:00	18746	70	-59.3	-88.3	220	5
2023-09-28T06:00	18771	69	-59.1	-88.7	225	5
2023-09-28T06:00	18796	69	-59.1	-88.7	231	5
2023-09-28T06:00	18819	69	-58.9	-88.6	234	5
2023-09-28T06:00	18845	69	-58.7	-88.4	235	6
2023-09-28T06:00	18871	68	-58.7	-88.4	235	6
2023-09-28T06:00	18898	68	-58.7	-88.4	234	6
2023-09-28T06:00	18925	68	-58.7	-88.4	234	7
2023-09-28T06:00	18951	67	-58.5	-88.3	234	7
2023-09-28T06:00	18975	67	-58.2	-88.1	234	7
2023-09-28T06:00	19001	67	-58.2	-88.1	235	7
2023-09-28T06:00	19030	67	-58.3	-88.1	237	7
2023-09-28T06:00	19058	66	-58.1	-88.0	238	6
2023-09-28T06:00	19085	66	-57.9	-88.4	241	6
2023-09-28T06:00	19111	66	-58.0	-88.5	245	6
2023-09-28T06:00	19135	65	-57.9	-88.4	249	5
2023-09-28T06:00	19161	65	-57.6	-88.2	253	5
2023-09-28T06:00	19188	65	-57.6	-88.2	256	5
2023-09-28T06:00	19219	65	-57.6	-88.2	257	5
2023-09-28T06:00	19246	64	-57.4	-88.1	256	4
2023-09-28T06:00	19274	64	-57.5	-88.1	255	4
2023-09-28T06:00	19300	64	-57.5	-88.1	255	4
2023-09-28T06:00	19323	64	-57.4	-88.1	256	4
2023-09-28T06:00	19354	63	-57.3	-88.0	258	4
2023-09-28T06:00	19382	63	-57.4	-88.1	261	3
2023-09-28T06:00	19406	63	-57.5	-88.1	264	3
2023-09-28T06:00	19436	62	-57.6	-88.2	266	3
2023-09-28T06:00	19463	62	-57.6	-88.2	269	3
2023-09-28T06:00	19491	62	-57.7	-88.3	272	3
2023-09-28T06:00	19519	62	-57.8	-88.3	277	2
2023-09-28T06:00	19546	61	-58.0	-87.9	284	2
2023-09-28T06:00	19573	61	-58.1	-88.0	290	2
2023-09-28T06:00	19601	61	-58.3	-88.1	293	2
2023-09-28T06:00	19629	61	-58.3	-88.1	292	3
2023-09-28T06:00	19656	60	-58.3	-88.1	289	3
2023-09-28T06:00	19683	60	-58.4	-88.2	284	3
2023-09-28T06:00	19709	60	-58.5	-88.3	279	3
2023-09-28T06:00	19735	60	-58.7	-88.4	275	3
2023-09-28T06:00	19760	59	-58.9	-88.6	273	3
2023-09-28T06:00	19788	59	-58.9	-88.6	271	4
2023-09-28T06:00	19811	59	-59.0	-88.1	270	4
2023-09-28T06:00	19837	59	-59.0	-88.1	270	4
2023-09-28T06:00	19863	58	-59.1	-88.2	270	4
2023-09-28T06:00	19888	58	-59.3	-88.3	271	5
2023-09-28T06:00	19915	58	-59.3	-88.3	273	5
2023-09-28T06:00	19938	58	-59.3	-88.3	273	5
2023-09-28T06:00	19966	57	-59.4	-88.4	274	5
2023-09-28T06:00	19993	57	-59.4	-88.4	274	6
2023-09-28T06:00	20016	57	-59.5	-88.5	275	5
2023-09-28T06:00	20042	57	-59.6	-88.6	276	5
2023-09-28T06:00	20065	56	-59.7	-88.6	279	5
2023-09-28T06:00	20091	56	-59.5	-88.5	284	5
2023-09-28T06:00	20117	56	-59.3	-88.9	290	5
2023-09-28T06:00	20141	56	-59.3	-88.9	296	5
2023-09-28T06:00	20165	56	-59.4	-88.4	303	5
2023-09-28T06:00	20192	55	-59.4	-88.4	309	5
2023-09-28T06:00	20218	55	-59.3	-88.3	314	5
2023-09-28T06:00	20238	55	-59.4	-88.4	317	5
2023-09-28T06:00	20264	55	-59.6	-88.6	320	5
2023-09-28T06:00	20292	54	-59.6	-89.1	322	5
2023-09-28T06:00	20314	54	-59.2	-88.8	324	5
2023-09-28T06:00	20340	54	-59.0	-88.7	327	5
2023-09-28T06:00	20365	54	-58.9	-88.6	331	4
2023-09-28T06:00	20386	54	-58.8	-88.5	335	3
2023-09-28T06:00	20417	53	-58.7	-88.4	340	2
2023-09-28T06:00	20442	53	-58.8	-88.5	348	1
2023-09-28T06:00	20471	53	-58.9	-88.6	14	1
2023-09-28T06:00	20494	53	-58.9	-88.6	124	1
2023-09-28T06:00	20517	53	-58.9	-88.6	143	1
2023-09-28T06:00	20547	52	-58.6	-88.4	146	2
2023-09-28T06:00	20571	52	-58.5	-88.3	145	2
2023-09-28T06:00	20600	52	-58.5	-88.3	143	3
2023-09-28T06:00	20622	52	-58.7	-88.4	141	3
2023-09-28T06:00	20651	51	-58.7	-88.4	141	4
2023-09-28T06:00	20675	51	-58.6	-88.4	143	4
2023-09-28T06:00	20702	51	-58.6	-88.4	147	4
2023-09-28T06:00	20729	51	-58.5	-88.3	152	3
2023-09-28T06:00	20755	51	-58.5	-88.3	160	3
2023-09-28T06:00	20778	50	-58.6	-88.4	169	3
2023-09-28T06:00	20808	50	-58.4	-88.2	180	3
2023-09-28T06:00	20836	50	-58.4	-88.2	193	2
2023-09-28T06:00	20865	50	-58.2	-88.6	208	2
2023-09-28T06:00	20893	50	-58.1	-88.6	223	2
2023-09-28T06:00	20919	49	-58.2	-88.6	233	3
2023-09-28T06:00	20948	49	-58.3	-88.1	238	3
2023-09-28T06:00	20974	49	-58.3	-88.1	240	3
2023-09-28T06:00	21001	49	-58.3	-88.1	242	4
2023-09-28T06:00	21026	48	-58.4	-88.2	246	4
2023-09-28T06:00	21053	48	-58.5	-88.3	252	4
2023-09-28T06:00	21079	48	-58.5	-88.3	260	4
2023-09-28T06:00	21107	48	-58.6	-88.4	269	4
2023-09-28T06:00	21131	48	-58.6	-88.4	277	5
2023-09-28T06:00	21160	47	-58.6	-88.4	284	5
2023-09-28T06:00	21183	47	-58.5	-88.3	290	4
2023-09-28T06:00	21215	47	-58.5	-88.3	295	4
2023-09-28T06:00	21242	47	-58.5	-88.3	299	4
2023-09-28T06:00	21269	47	-58.5	-88.3	303	3
2023-09-28T06:00	21296	46	-58.5	-88.3	306	2
2023-09-28T06:00	21323	46	-58.5	-88.3	310	2
2023-09-28T06:00	21351	46	-58.4	-88.2	315	1
2023-09-28T06:00	21379	46	-58.4	-88.2	321	1
2023-09-28T06:00	21404	46	-58.5	-88.3	323	1
2023-09-28T06:00	21430	45	-58.5	-88.3	299	0
2023-09-28T06:00	21460	45	-58.5	-88.3	213	0
2023-09-28T06:00	21489	45	-58.4	-88.2	202	1
2023-09-28T06:00	21517	45	-58.4	-88.2	203	1
2023-09-28T06:00	21541	45	-58.4	-88.8	203	2
2023-09-28T06:00	21570	44	-58.4	-88.8	200	2
2023-09-28T06:00	21599	44	-58.5	-88.9	193	2
2023-09-28T06:00	21627	44	-58.4	-88.2	183	2
2023-09-28T06:00	21654	44	-58.4	-88.2	173	2
2023-09-28T06:00	21682	44	-58.5	-88.3	166	3
2023-09-28T06:00	21708	43	-58.8	-88.5	162	3
2023-09-28T06:00	21734	43	-59.0	-88.7	160	3
2023-09-28T06:00	21761	43	-59.1	-88.7	159	3
2023-09-28T06:00	21791	43	-59.3	-88.9	158	3
2023-09-28T06:00	21814	43	-59.3	-88.9	156	2
2023-09-28T06:00	21840	43	-59.3	-88.9	154	2
2023-09-28T06:00	21867	42	-59.4	-89.0	153	2
2023-09-28T06:00	21892	42	-59.4	-89.0	158	2
2023-09-28T06:00	21919	42	-59.3	-88.9	168	2
2023-09-28T06:00	21949	42	-59.2	-88.8	182	2
2023-09-28T06:00	21971	42	-59.1	-88.7	194	2
2023-09-28T06:00	22001	42	-59.1	-88.7	203	2
2023-09-28T06:00	22025	41	-59.0	-89.2	212	2
2023-09-28T06:00	22051	41	-58.9	-89.2	222	2
2023-09-28T06:00	22077	41	-58.9	-89.2	235	2
2023-09-28T06:00	22105	41	-59.0	-88.7	251	2
2023-09-28T06:00	22133	41	-59.2	-88.8	266	2
2023-09-28T06:00	22154	40	-59.3	-88.9	276	2
2023-09-28T06:00	22180	40	-59.2	-88.8	282	2
2023-09-28T06:00	22213	40	-59.2	-89.4	285	2
2023-09-28T06:00	22239	40	-59.0	-89.2	282	2
2023-09-28T06:00	22265	40	-58.6	-88.9	266	1
2023-09-28T06:00	22294	40	-58.5	-88.9	204	1
2023-09-28T06:00	22319	39	-58.5	-88.9	163	1
2023-09-28T06:00	22347	39	-58.6	-88.9	153	2
2023-09-28T06:00	22373	39	-58.6	-88.9	150	3
2023-09-28T06:00	22400	39	-58.7	-89.0	149	4
2023-09-28T06:00	22430	39	-58.7	-89.0	150	4
2023-09-28T06:00	22459	39	-58.4	-88.8	151	5
2023-09-28T06:00	22485	38	-58.2	-88.6	153	6
2023-09-28T06:00	22513	38	-58.2	-89.3	156	6
2023-09-28T06:00	22540	38	-58.2	-89.3	160	7
2023-09-28T06:00	22569	38	-58.0	-89.1	163	7
2023-09-28T06:00	22595	38	-57.6	-88.9	167	8
2023-09-28T06:00	22625	38	-57.5	-88.8	170	8
2023-09-28T06:00	22654	37	-57.7	-88.9	173	8
2023-09-28T06:00	22680	37	-57.9	-88.4	178	8
2023-09-28T06:00	22708	37	-58.1	-88.6	183	8
2023-09-28T06:00	22741	37	-58.2	-88.6	190	8
2023-09-28T06:00	22767	37	-58.2	-88.6	197	7
2023-09-28T06:00	22793	37	-58.4	-88.8	203	7
2023-09-28T06:00	22818	36	-58.5	-88.9	209	8
2023-09-28T06:00	22847	36	-58.5	-88.9	214	8
2023-09-28T06:00	22879	36	-58.7	-89.0	219	8
2023-09-28T06:00	22908	36	-58.7	-89.0	224	8
2023-09-28T06:00	22941	36	-58.6	-88.9	230	8
2023-09-28T06:00	22969	36	-58.3	-88.7	237	8
2023-09-28T06:00	22994	35	-58.4	-88.8	244	8
2023-09-28T06:00	23019	35	-58.5	-88.9	250	9
2023-09-28T06:00	23052	35	-58.5	-88.9	256	9
2023-09-28T06:00	23079	35	-58.4	-88.8	262	9
2023-09-28T06:00	23109	35	-58.3	-89.4	266	8
2023-09-28T06:00	23139	35	-58.0	-89.1	270	8
2023-09-28T06:00	23165	34	-58.0	-89.1	274	7
2023-09-28T06:00	23196	34	-58.0	-89.1	278	6
2023-09-28T06:00	23224	34	-58.0	-89.1	284	6
2023-09-28T06:00	23251	34	-57.8	-89.0	291	5
2023-09-28T06:00	23283	34	-57.9	-89.1	300	4
2023-09-28T06:00	23309	34	-57.9	-89.1	308	4
2023-09-28T06:00	23331	34	-58.0	-89.1	315	4
2023-09-28T06:00	23364	33	-57.8	-89.0	319	3
2023-09-28T06:00	23385	33	-57.7	-88.9	319	3
2023-09-28T06:00	23417	33	-57.4	-88.7	314	2
2023-09-28T06:00	23445	33	-57.3	-88.6	302	2
2023-09-28T06:00	23474	33	-57.3	-88.6	280	1
2023-09-28T06:00	23502	33	-57.3	-88.6	258	2
2023-09-28T06:00	23527	33	-57.3	-88.6	245	2
2023-09-28T06:00	23557	32	-57.2	-88.6	240	2
2023-09-28T06:00	23588	32	-57.2	-88.6	240	2
2023-09-28T06:00	23615	32	-57.2	-88.6	245	2
2023-09-28T06:00	23646	32	-57.1	-88.5	254	2
2023-09-28T06:00	23675	32	-57.1	-88.5	268	2
2023-09-28T06:00	23702	32	-57.1	-88.5	285	2
2023-09-28T06:00	23732	32	-57.2	-88.6	297	2
2023-09-28T06:00	23758	31	-57.2	-88.6	304	3
2023-09-28T06:00	23784	31	-57.3	-88.6	306	3
2023-09-28T06:00	23813	31	-57.4	-88.7	305	3
2023-09-28T06:00	23842	31	-57.6	-88.9	302	3
2023-09-28T06:00	23864	31	-57.6	-88.9	300	3
2023-09-28T06:00	23889	31	-57.6	-88.9	299	3
2023-09-28T06:00	23922	31	-57.5	-88.8	298	3
2023-09-28T06:00	23948	30	-57.4	-88.7	296	4
2023-09-28T06:00	23978	30	-57.3	-88.6	292	4
2023-09-28T06:00	24006	30	-57.3	-88.6	288	4
2023-09-28T06:00	24042	30	-57.4	-88.7	284	4
2023-09-28T06:00	24064	30	-57.5	-88.8	281	5
2023-09-28T06:00	24090	30	-57.3	-88.6	280	5
2023-09-28T06:00	24116	30	-57.2	-89.3	281	6
2023-09-28T06:00	24150	30	-57.0	-89.2	282	6
2023-09-28T06:00	24175	29	-56.7	-88.9	284	6
2023-09-28T06:00	24203	29	-56.6	-88.9	285	6
2023-09-28T06:00	24231	29	-56.5	-88.8	287	6
2023-09-28T06:00	24259	29	-56.2	-88.6	290	6
2023-09-28T06:00	24289	29	-56.0	-88.4	295	6
2023-09-28T06:00	24313	29	-56.1	-88.5	301	5
2023-09-28T06:00	24340	29	-56.2	-88.6	308	5
2023-09-28T06:00	24366	29	-56.2	-88.6	314	5
2023-09-28T06:00	24395	28	-56.1	-88.5	319	5
2023-09-28T06:00	24423	28	-56.2	-88.6	322	6
2023-09-28T06:00	24451	28	-56.3	-88.6	323	6
2023-09-28T06:00	24483	28	-56.3	-87.9	323	6
2023-09-28T06:00	24513	28	-56.3	-87.9	323	6
2023-09-28T06:00	24540	28	-56.5	-88.1	323	6
2023-09-28T06:00	24572	28	-56.7	-88.2	323	6
2023-09-28T06:00	24597	28	-56.8	-88.3	322	6
2023-09-28T06:00	24627	27	-56.9	-88.3	321	6
2023-09-28T06:00	24653	27	-57.1	-88.5	318	5
2023-09-28T06:00	24687	27	-57.2	-88.6	314	5
2023-09-28T06:00	24719	27	-57.3	-88.6	309	5
2023-09-28T06:00	24742	27	-57.4	-88.7	303	5
2023-09-28T06:00	24774	27	-57.3	-89.4	300	5
2023-09-28T06:00	24801	27	-56.7	-88.9	297	5
2023-09-28T06:00	24830	27	-56.0	-89.3	296	5
2023-09-28T06:00	24860	26	-55.7	-89.1	296	5
2023-09-28T06:00	24889	26	-55.5	-88.9	295	5
2023-09-28T06:00	24912	26	-55.5	-88.9	294	4
2023-09-28T06:00	24948	26	-55.5	-88.9	294	4
2023-09-28T06:00	24977	26	-55.5	-88.9	296	4
2023-09-28T06:00	25007	26	-55.4	-88.9	300	4
2023-09-28T06:00	25040	26	-55.3	-87.9	306	5
2023-09-28T06:00	25064	26	-55.3	-87.9	314	5
2023-09-28T06:00	25100	25	-55.3	-87.9	322	5
2023-09-28T06:00	25124	25	-55.3	-87.9	331	5
2023-09-28T06:00	25155	25	-55.4	-88.0	338	5
2023-09-28T06:00	25182	25	-55.5	-88.1	343	5
2023-09-28T06:00	25210	25	-55.5	-88.1	345	5
2023-09-28T06:00	25237	25	-55.5	-88.1	343	4
2023-09-28T06:00	25266	25	-55.5	-88.1	337	4
2023-09-28T06:00	25299	25	-55.5	-88.1	329	4
2023-09-28T06:00	25323	25	-55.3	-88.8	322	3
2023-09-28T06:00	25357	24	-54.9	-88.5	317	3
2023-09-28T06:00	25386	24	-54.8	-88.4	316	3
2023-09-28T06:00	25419	24	-54.6	-88.3	320	3
2023-09-28T06:00	25450	24	-54.5	-88.2	329	2
2023-09-28T06:00	25476	24	-54.4	-88.1	340	3
2023-09-28T06:00	25504	24	-54.4	-88.1	348	3
2023-09-28T06:00	25538	24	-54.3	-88.1	354	3
2023-09-28T06:00	25567	24	-54.2	-88.0	360	4
2023-09-28T06:00	25594	24	-54.1	-87.9	6	4
2023-09-28T06:00	25626	23	-54.1	-87.9	13	4
2023-09-28T06:00	25658	23	-54.1	-87.9	20	4
2023-09-28T06:00	25691	23	-54.1	-87.9	26	5
2023-09-28T06:00	25725	23	-54.1	-87.9	30	5
2023-09-28T06:00	25748	23	-54.2	-88.0	32	5
2023-09-28T06:00	25777	23	-54.4	-88.1	31	5
2023-09-28T06:00	25805	23	-54.4	-88.1	29	5
2023-09-28T06:00	25835	23	-54.4	-88.1	26	5
2023-09-28T06:00	25868	23	-54.5	-88.2	25	5
2023-09-28T06:00	25896	22	-54.5	-88.2	25	5
2023-09-28T06:00	25930	22	-54.5	-88.2	27	5
2023-09-28T06:00	25959	22	-54.6	-88.3	29	5
2023-09-28T06:00	25992	22	-54.6	-88.3	31	5
2023-09-28T06:00	26022	22	-54.7	-88.4	33	5
2023-09-28T06:00	26054	22	-54.7	-88.4	34	5
2023-09-28T06:00	26090	22	-54.7	-88.4	36	5
2023-09-28T06:00	26117	22	-54.7	-88.4	40	5
2023-09-28T06:00	26143	22	-54.6	-88.3	43	5
2023-09-28T06:00	26176	21	-54.4	-88.1	46	5
2023-09-28T06:00	26200	21	-54.3	-88.1	47	5
2023-09-28T06:00	26239	21	-54.3	-88.1	46	5
2023-09-28T06:00	26267	21	-54.4	-88.1	42	5
2023-09-28T06:00	26301	21	-54.6	-88.3	37	5
2023-09-28T06:00	26324	21	-54.7	-88.4	31	5
2023-09-28T06:00	26360	21	-54.7	-88.4	26	5
2023-09-28T06:00	26393	21	-54.7	-88.4	24	5
2023-09-28T06:00	26425	21	-54.5	-88.2	25	5
2023-09-28T06:00	26454	21	-54.4	-88.1	28	4
2023-09-28T06:00	26483	20	-54.5	-88.2	32	4
2023-09-28T06:00	26513	20	-54.6	-88.3	34	4
2023-09-28T06:00	26548	20	-54.7	-88.4	34	3
2023-09-28T06:00	26572	20	-54.8	-88.4	32	3
2023-09-28T06:00	26604	20	-54.7	-88.4	28	2
2023-09-28T06:00	26636	20	-54.6	-88.3	27	2
2023-09-28T06:00	26666	20	-54.7	-88.4	28	2
2023-09-28T06:00	26699	20	-54.7	-88.4	29	2
2023-09-28T06:00	26732	20	-54.8	-88.4	28	2
2023-09-28T06:00	26759	20	-54.9	-88.5	25	2
2023-09-28T06:00	26788	20	-55.0	-88.6	22	3
2023-09-28T06:00	26819	19	-55.0	-87.7	21	3
2023-09-28T06:00	26852	19	-55.1	-87.8	23	3
2023-09-28T06:00	26883	19	-55.2	-87.8	28	3
2023-09-28T06:00	26914	19	-55.4	-88.0	33	3
2023-09-28T06:00	26945	19	-55.5	-88.1	39	4
2023-09-28T06:00	26969	19	-55.6	-88.1	43	4
2023-09-28T06:00	27007	19	-55.7	-88.2	47	4
2023-09-28T06:00	27034	19	-55.9	-88.4	51	4
2023-09-28T06:00	27068	19	-56.0	-88.4	56	4
2023-09-28T06:00	27101	19	-56.0	-88.4	62	4
2023-09-28T06:00	27130	19	-55.9	-88.4	68	4
2023-09-28T06:00	27154	18	-55.9	-88.4	75	3
2023-09-28T06:00	27192	18	-56.0	-88.4	80	3
2023-09-28T06:00	27225	18	-56.0	-88.4	82	2
2023-09-28T06:00	27253	18	-56.1	-88.5	78	2
2023-09-28T06:00	27286	18	-56.0	-88.4	63	1
2023-09-28T06:00	27325	18	-56.0	-88.4	30	1
2023-09-28T06:00	27346	18	-56.1	-88.5	358	1
2023-09-28T06:00	27381	18	-56.0	-89.3	340	2
2023-09-28T06:00	27419	18	-55.8	-89.1	330	2
2023-09-28T06:00	27448	18	-55.8	-89.1	323	3
2023-09-28T06:00	27476	18	-55.8	-89.1	318	3
2023-09-28T06:00	27517	17	-55.8	-89.1	313	3
2023-09-28T06:00	27545	17	-55.9	-89.2	310	4
2023-09-28T06:00	27572	17	-55.8	-89.1	306	4
2023-09-28T06:00	27602	17	-55.7	-89.1	303	5
2023-09-28T06:00	27634	17	-55.7	-89.1	299	5
2023-09-28T06:00	27667	17	-55.7	-89.1	295	5
2023-09-28T06:00	27694	17	-55.6	-89.0	289	6
2023-09-28T06:00	27730	17	-55.6	-89.0	283	6
2023-09-28T06:00	27760	17	-55.7	-89.1	278	7
2023-09-28T06:00	27791	17	-55.7	-89.1	275	8
2023-09-28T06:00	27826	17	-55.7	-89.1	273	8
2023-09-28T06:00	27858	17	-55.8	-88.3	273	9
2023-09-28T06:00	27889	16	-55.9	-88.4	273	9
2023-09-28T06:00	27922	16	-55.9	-88.4	273	9
2023-09-28T06:00	27942	16	-55.9	-88.4	274	9
2023-09-28T06:00	27978	16	-56.1	-88.5	276	8
2023-09-28T06:00	28014	16	-56.4	-88.7	279	8
2023-09-28T06:00	28049	16	-56.6	-88.9	285	7
2023-09-28T06:00	28076	16	-57.0	-89.2	292	7
2023-09-28T06:00	28104	16	-57.2	-89.3	299	8
2023-09-28T06:00	28140	16	-56.9	-89.1	306	8
2023-09-28T06:00	28176	16	-56.6	-88.9	311	8
2023-09-28T06:00	28206	16	-56.3	-89.5	315	9
2023-09-28T06:00	28235	16	-56.2	-89.4	318	9
2023-09-28T06:00	28270	15	-56.2	-89.4	322	8
2023-09-28T06:00	28299	15	-56.2	-89.4	327	8
2023-09-28T06:00	28332	15	-56.2	-88.6	333	7
2023-09-28T06:00	28361	15	-56.3	-88.6	339	7
2023-09-28T06:00	28395	15	-56.5	-88.8	343	6
2023-09-28T06:00	28432	15	-56.6	-88.9	345	6
2023-09-28T06:00	28454	15	-56.6	-88.9	342	6
2023-09-28T06:00	28482	15	-56.5	-88.8	337	6
2023-09-28T06:00	28510	15	-56.4	-89.6	331	7
2023-09-28T06:00	28548	15	-56.4	-89.6	327	7
2023-09-28T06:00	28575	15	-56.2	-89.4	325	7
2023-09-28T06:00	28605	15	-56.1	-89.4	324	7
2023-09-28T06:00	28632	15	-55.8	-89.1	324	7
2023-09-28T06:00	28665	15	-55.5	-89.9	324	6
2023-09-28T06:00	28694	14	-55.2	-89.7	325	5
2023-09-28T06:00	28724	14	-54.9	-89.5	326	5
2023-09-28T06:00	28750	14	-54.8	-89.4	325	4
2023-09-28T06:00	28787	14	-54.7	-89.4	323	4
2023-09-28T06:00	28814	14	-54.5	-89.2	319	4
2023-09-28T06:00	28843	14	-54.4	-89.1	314	5
2023-09-28T06:00	28870	14	-54.5	-89.2	309	5
2023-09-28T06:00	28904	14	-54.4	-89.1	303	5
2023-09-28T06:00	28929	14	-54.5	-89.2	299	5
2023-09-28T06:00	28959	14	-54.4	-88.1	297	6
2023-09-28T06:00	29002	14	-54.4	-88.1	299	6
2023-09-28T06:00	29017	14	-54.4	-88.1	302	7
2023-09-28T06:00	29041	14	-54.3	-88.1	306	7
2023-09-28T06:00	29074	14	-54.1	-88.9	309	8
2023-09-28T06:00	29112	14	-54.0	-88.9	312	8
2023-09-28T06:00	29132	14	-53.8	-88.7	314	9
2023-09-28T06:00	29156	13	-53.7	-88.7	317	8
2023-09-28T06:00	29188	13	-53.7	-88.7	319	8
2023-09-28T06:00	29214	13	-53.8	-88.7	322	8
2023-09-28T06:00	29257	13	-53.8	-88.7	325	9
2023-09-28T06:00	29279	13	-53.7	-88.7	327	9
2023-09-28T06:00	29305	13	-53.8	-88.7	327	10
2023-09-28T06:00	29344	13	-53.8	-88.7	327	11
2023-09-28T06:00	29368	13	-53.8	-88.7	326	12
2023-09-28T06:00	29395	13	-53.9	-88.8	324	12
2023-09-28T06:00	29427	13	-53.9	-88.8	322	13
2023-09-28T06:00	29461	13	-53.8	-88.7	320	14
2023-09-28T06:00	29483	13	-53.7	-88.7	318	14
2023-09-28T06:00	29509	13	-53.6	-88.6	317	14
2023-09-28T06:00	29549	13	-53.6	-88.6	317	14
2023-09-28T06:00	29582	13	-53.6	-88.6	318	14
2023-09-28T06:00	29616	13	-53.6	-88.6	319	14
2023-09-28T06:00	29635	13	-53.5	-88.5	321	14
2023-09-28T06:00	29677	12	-53.4	-88.4	324	14
2023-09-28T06:00	29701	12	-53.3	-88.4	326	15
2023-09-28T06:00	29727	12	-53.1	-88.2	329	15
2023-09-28T06:00	29767	12	-52.9	-88.1	331	16
2023-09-28T06:00	29791	12	-52.8	-88.0	333	17
2023-09-28T06:00	29843	12	-52.9	-88.1	335	17
2023-09-28T06:00	29860	12	-52.9	-88.1	337	17
2023-09-28T06:00	29900	12	-52.7	-87.9	339	16
2023-09-28T06:00	29929	12	-52.5	-87.8	341	16
2023-09-28T06:00	29950	12	-52.3	-87.7	343	15
2023-09-28T06:00	29997	12	-52.3	-87.7	345	14
2023-09-28T06:00	30022	12	-52.3	-87.7	347	14
2023-09-28T06:00	30062	12	-52.4	-87.7	349	13
2023-09-28T06:00	30092	12	-52.4	-87.7	351	13
2023-09-28T06:00	30125	12	-52.5	-87.8	353	13
2023-09-28T06:00	30155	12	-52.6	-87.9	356	13
2023-09-28T06:00	30211	11	-52.6	-87.9	357	13
2023-09-28T06:00	30224	11	-52.7	-87.9	358	13
2023-09-28T06:00	30273	11	-52.9	-88.1	357	13
2023-09-28T06:00	30294	11	-53.1	-88.2	355	12
2023-09-28T06:00	30332	11	-53.1	-88.2	351	12
2023-09-28T06:00	30366	11	-53.0	-88.2	346	11
2023-09-28T06:00	30397	11	-53.1	-88.2	340	11
2023-09-28T06:00	30430	11	-53.2	-88.3	336	11
2023-09-28T06:00	30462	11	-53.2	-88.3	333	11
2023-09-28T06:00	30492	11	-53.2	-88.3	333	11
2023-09-28T06:00	30528	11	-52.9	-88.1	335	12
2023-09-28T06:00	30556	11	-52.3	-87.7	337	12
2023-09-28T06:00	30605	11	-51.8	-87.3	340	12
2023-09-28T06:00	30627	11	-51.9	-87.4	342	12
2023-09-28T06:00	30662	11	-52.0	-87.4	342	12
2023-09-28T06:00	30681	11	-52.0	-87.4	342	12
2023-09-28T06:00	30730	11	-51.6	-87.2	340	12
2023-09-28T06:00	30745	11	-51.4	-87.0	338	11
2023-09-28T06:00	30785	10	-51.5	-87.1	334	10
2023-09-28T06:00	30806	10	-51.4	-87.0	330	10
2023-09-28T06:00	30840	10	-51.2	-86.9	327	9
2023-09-28T06:00	30874	10	-51.2	-86.9	324	9
2023-09-28T06:00	30900	10	-51.1	-86.8	321	9
2023-09-28T06:00	30934	10	-51.0	-86.7	319	9
2023-09-28T06:00	30961	10	-50.9	-86.7	317	9
2023-09-28T06:00	30994	10	-50.8	-86.6	315	9
2023-09-28T06:00	31026	10	-50.8	-86.6	313	10
2023-09-28T06:00	31045	10	-50.8	-86.6	312	10
2023-09-28T06:00	31070	10	-50.7	-86.5	311	11
2023-09-28T06:00	31105	10	-50.6	-86.5	311	11
2023-09-28T06:00	31136	10	-50.4	-86.3	311	11
2023-09-28T06:00	31152	10	-50.2	-86.2	313	11
2023-09-28T06:00	31183	10	-49.9	-86.0	314	11
2023-09-28T06:00	31222	10	-49.7	-85.8	317	11
2023-09-28T06:00	31246	10	-49.3	-85.5	319	11
2023-09-28T06:00	31267	10	-48.9	-85.3	320	11
2023-09-28T06:00	31298	10	-48.6	-85.0	320	10
2023-09-28T06:00	31330	10	-48.4	-84.9	318	10
2023-09-28T06:00	31357	10	-48.3	-84.8	315	9
2023-09-28T06:00	31390	10	-48.2	-84.8	312	8
2023-09-28T06:00	31424	10	-48.1	-84.7	307	8
2023-09-28T06:00	31451	9	-47.9	-84.6	303	8
2023-09-28T06:00	31478	9	-47.6	-84.3	299	8
2023-09-28T06:00	31516	9	-47.2	-84.1	294	8
2023-09-28T06:00	31527	9	-46.8	-83.8	289	8
2023-09-28T06:00	31556	9	-46.6	-83.6	284	8
2023-09-28T06:00	31590	9	-46.5	-83.6	279	8
2023-09-28T06:00	31626	9	-46.4	-83.5	276	8
2023-09-28T06:00	31639	9	-46.3	-83.4	274	9
2023-09-28T06:00	31680	9	-46.2	-83.4	274	9
2023-09-28T06:00	31714	9	-46.0	-83.2	275	10
2023-09-28T06:00	31744	9	-45.8	-83.1	276	11
2023-09-28T06:00	31786	9	-45.8	-83.1	277	12
2023-09-28T06:00	31806	9	-45.6	-82.9	277	13
2023-09-28T06:00	31833	9	-45.4	-82.8	278	14
2023-09-28T06:00	31886	9	-45.4	-82.8	278	14
2023-09-28T06:00	31898	9	-45.6	-82.9	279	15
2023-09-28T06:00	31936	9	-45.8	-83.1	280	15
2023-09-28T06:00	31975	9	-45.9	-83.2	281	16
2023-09-28T06:00	32020	9	-46.1	-83.3	282	17
2023-09-28T06:00	32042	9	-46.3	-83.4	283	17
2023-09-28T06:00	32066	9	-46.4	-83.5	285	18
2023-09-28T06:00	32092	9	-46.5	-83.6	286	18
2023-09-28T06:00	32128	9	-46.5	-83.6	288	18
2023-09-28T06:00	32180	9	-46.5	-83.6	290	19
2023-09-28T06:00	32195	8	-46.7	-83.7	292	18
2023-09-28T06:00	32238	8	-46.9	-83.9	294	18
2023-09-28T06:00	32282	8	-47.1	-84.0	295	17
2023-09-28T06:00	32292	8	-47.3	-84.1	297	17
2023-09-28T06:00	32341	8	-47.5	-84.3	298	16
2023-09-28T06:00	32366	8	-47.7	-84.4	300	15
2023-09-28T06:00	32403	8	-47.8	-84.5	302	15
2023-09-28T06:00	32442	8	-48.0	-84.6	303	14
2023-09-28T06:00	32483	8	-48.1	-84.7	304	14
2023-09-28T06:00	32522	8	-48.2	-84.8	304	14
2023-09-28T06:00	32537	8	-48.1	-84.7	303	14
2023-09-28T06:00	32575	8	-48.1	-84.7	300	14
2023-09-28T06:00	32599	8	-47.9	-84.6	297	14
2023-09-28T06:00	32648	8	-47.8	-84.5	295	14
2023-09-28T06:00	32674	8	-47.6	-84.3	294	15
2023-09-28T06:00	32716	8	-47.4	-84.2	294	15
2023-09-28T06:00	32744	8	-47.0	-83.9	296	15
2023-09-28T06:00	32764	8	-46.6	-83.6	300	15
2023-09-28T06:00	32800	8	-46.4	-83.5	304	14
2023-09-28T06:00	32830	8	-46.3	-83.4	308	14
2023-09-28T06:00	32862	8	-46.4	-83.5	311	15
2023-09-28T06:00	32889	8	-46.4	-83.5	313	15
2023-09-28T06:00	32936	8	-46.4	-83.5	314	15
2023-09-28T06:00	32959	8	-46.3	-83.4	314	15
2023-09-28T06:00	33008	8	-46.2	-83.4	313	15
2023-09-28T06:00	33041	7	-46.1	-83.3	313	14
2023-09-28T06:00	33072	7	-46.0	-83.2	313	14
2023-09-28T06:00	33087	7	-45.9	-83.2	313	13
2023-09-28T06:00	33127	7	-45.9	-83.2	313	12
2023-09-28T06:00	33153	7	-45.9	-83.2	312	11
2023-09-28T06:00	33185	7	-46.0	-83.2	310	11
2023-09-28T06:00	33222	7	-46.0	-83.2	307	10
2023-09-28T06:00	33248	7	-45.9	-83.2	303	10
2023-09-28T06:00	33265	7	-45.9	-83.2	299	10
2023-09-28T06:00	33319	7	-45.9	-83.2	296	11
2023-09-28T06:00	33343	7	-45.8	-83.1	295	11
2023-09-28T06:00	33375	7	-45.7	-83.0	295	11
2023-09-28T06:00	33402	7	-45.6	-82.9	295	12
2023-09-28T06:00	33449	7	-45.3	-82.7	297	12
2023-09-28T06:00	33467	7	-45.2	-82.7	299	13
2023-09-28T06:00	33485	7	-45.3	-82.7	301	14
2023-09-28T06:00	33537	7	-45.5	-82.9	304	14
2023-09-28T06:00	33561	7	-45.6	-82.9	307	15
2023-09-28T06:00	33588	7	-45.6	-82.9	309	16
2023-09-28T06:00	33623	7	-45.5	-82.9	312	16
2023-09-28T06:00	33647	7	-45.4	-82.8	313	16
2023-09-28T06:00	33680	7	-45.5	-82.9	314	16
2023-09-28T06:00	33726	7	-45.5	-82.9	314	16
2023-09-28T06:00	33754	7	-45.5	-82.9	313	16
2023-09-28T06:00	33792	7	-45.5	-82.9	312	16
2023-09-28T12:00	112	1005	24.4	14.8	240	4
2023-09-28T12:00	143	1002	22.5	14.9	233	3
2023-09-28T12:00	172	998	22.3	14.8	229	3
2023-09-28T12:00	203	995	22.0	14.7	227	3
2023-09-28T12:00	228	992	21.7	14.5	224	3
2023-09-28T12:00	249	989	21.5	14.5	223	3
2023-09-28T12:00	275	986	21.3	14.6	222	3
2023-09-28T12:00	305	983	21.1	14.6	221	3
2023-09-28T12:00	332	980	20.8	14.5	220	3
2023-09-28T12:00	365	977	20.5	14.4	217	2
2023-09-28T12:00	393	973	20.2	14.4	212	2
2023-09-28T12:00	425	970	19.9	14.3	206	2
2023-09-28T12:00	451	966	19.6	14.2	199	2
2023-09-28T12:00	484	963	19.3	14.2	195	2
2023-09-28T12:00	514	960	19.0	14.1	192	2
2023-09-28T12:00	540	957	18.8	14.1	191	3
2023-09-28T12:00	560	954	18.6	14.1	190	3
2023-09-28T12:00	584	952	18.4	14.1	186	3
2023-09-28T12:00	614	948	18.1	14.0	181	3
2023-09-28T12:00	643	945	17.8	13.9	174	4
2023-09-28T12:00	677	942	17.6	13.9	168	4
2023-09-28T12:00	706	939	17.2	13.7	165	4
2023-09-28T12:00	733	935	16.9	13.7	165	4
2023-09-28T12:00	765	932	16.7	13.7	168	4
2023-09-28T12:00	793	929	16.4	13.6	172	5
2023-09-28T12:00	817	926	16.2	13.5	177	5
2023-09-28T12:00	839	924	16.0	13.5	181	5
2023-09-28T12:00	865	921	15.8	13.2	185	5
2023-09-28T12:00	892	918	15.6	12.9	189	6
2023-09-28T12:00	913	916	16.1	11.1	192	6
2023-09-28T12:00	940	913	16.0	10.5	195	7
2023-09-28T12:00	963	910	15.8		198	7
2023-09-28T12:00	992	907	15.6	10.3	202	7
2023-09-28T12:00	1018	905	15.4	10.2	206	7
2023-09-28T12:00	1044	902	15.2	10.1	210	7
2023-09-28T12:00	1077	899	15.0	9.8	214	7
2023-09-28T12:00	1104	896	15.1	4.9	217	7
2023-09-28T12:00	1132	892	15.4	2.1	219	7
2023-09-28T12:00	1171	889	15.5	-2.1	222	7
2023-09-28T12:00	1202	885	15.5	-2.7	225	6
2023-09-28T12:00	1229	882	15.4	-2.4	231	6
2023-09-28T12:00	1257	880	15.2	-2.0	239	5
2023-09-28T12:00	1281	877	15.1	-1.9	247	6
2023-09-28T12:00	1301	875	15.0	-2.2	252	6
2023-09-28T12:00	1328	872	15.0	-2.7	253	6
2023-09-28T12:00	1365	869	14.9	-3.7	251	7
2023-09-28T12:00	1391	866	14.7	-3.8	246	6
2023-09-28T12:00	1411	864	14.6	-4.0	238	6
2023-09-28T12:00	1432	861	14.5	-4.6	226	5
2023-09-28T12:00	1455	859	14.5	-5.3	213	5
2023-09-28T12:00	1476	857	14.4	-5.7	204	5
2023-09-28T12:00	1500	855	14.4	-6.1	200	6
2023-09-28T12:00	1521	852	14.4	-6.8	201	6
2023-09-28T12:00	1541	850	14.6	-8.5	204	6
2023-09-28T12:00	1568	848	14.8	-10.6	207	6
2023-09-28T12:00	1591	845	14.8	-10.0	210	6
2023-09-28T12:00	1615	843	14.8	-11.2	212	6
2023-09-28T12:00	1642	840	14.8	-10.2	215	5
2023-09-28T12:00	1661	838	14.8	-11.3	219	5
2023-09-28T12:00	1682	836	14.9	-12.6	223	5
2023-09-28T12:00	1708	834	15.1	-13.5	227	5
2023-09-28T12:00	1736	831	14.9	-13.2	230	5
2023-09-28T12:00	1758	829	14.9	-14.5	232	5
2023-09-28T12:00	1782	826	15.0	-16.5	234	5
2023-09-28T12:00	1808	824	15.0	-16.7	237	4
2023-09-28T12:00	1833	822	14.9	-17.8	240	4
2023-09-28T12:00	1853	820	14.9	-17.7	244	4
2023-09-28T12:00	1873	818	14.8	-15.4	245	4
2023-09-28T12:00	1893	816	14.8	-16.4	244	4
2023-09-28T12:00	1916	813	14.6	-16.3	241	4
2023-09-28T12:00	1938	811	14.5	-15.7	239	4
2023-09-28T12:00	1959	809	14.3	-15.7	240	4
2023-09-28T12:00	1982	807	14.2	-15.9	243	4
2023-09-28T12:00	1997	805	14.1	-16.1	248	4
2023-09-28T12:00	2025	803	13.9	-16.1	254	4
2023-09-28T12:00	2050	801	13.8	-15.6	261	4
2023-09-28T12:00	2072	799	13.7	-15.9	268	4
2023-09-28T12:00	2092	797	13.7	-16.5	272	4
2023-09-28T12:00	2119	794	13.5	-16.4	273	5
2023-09-28T12:00	2140	792	13.4	-16.1	271	5
2023-09-28T12:00	2157	790	13.2	-15.9	267	5
2023-09-28T12:00	2182	788	13.0	-13.4	263	5
2023-09-28T12:00	2207	786	12.8	-12.8	261	5
2023-09-28T12:00	2237	783	12.7	-12.4	263	4
2023-09-28T12:00	2267	780	12.6	-12.2	269	4
2023-09-28T12:00	2297	778	12.3	-11.9	277	3
2023-09-28T12:00	2317	775	12.2	-12.1	282	4
2023-09-28T12:00	2338	773	12.1	-12.2	282	4
2023-09-28T12:00	2364	771	11.9	-12.7	279	4
2023-09-28T12:00	2389	769	11.7	-13.2	274	4
2023-09-28T12:00	2412	767	11.5	-13.7	268	3
2023-09-28T12:00	2441	764	11.2	-12.9	262	3
2023-09-28T12:00	2469	762	11.0	-13.2	258	3
2023-09-28T12:00	2494	759	10.8	-13.8	258	3
2023-09-28T12:00	2520	757	10.7	-13.8	261	4
2023-09-28T12:00	2543	755	10.4	-11.5	265	5
2023-09-28T12:00	2566	753	10.3	-11.5	269	5
2023-09-28T12:00	2590	750	10.1	-12.2	272	5
2023-09-28T12:00	2623	748	9.9	-13.9	273	5
2023-09-28T12:00	2647	745	9.8	-14.8	269	5
2023-09-28T12:00	2673	743	9.6	-14.3	263	5
2023-09-28T12:00	2695	741	9.4	-13.2	257	5
2023-09-28T12:00	2715	739	9.2	-12.6	252	5
2023-09-28T12:00	2739	737	9.1	-11.9	249	5
2023-09-28T12:00	2768	735	8.8	-10.9	249	5
2023-09-28T12:00	2793	732	8.6	-11.0	251	5
2023-09-28T12:00	2813	731	8.5	-10.9	254	5
2023-09-28T12:00	2837	729	8.3	-11.3	257	5
2023-09-28T12:00	2855	727	8.1	-11.6	259	5
2023-09-28T12:00	2880	725	8.0	-11.8	261	6
2023-09-28T12:00	2903	723	7.8	-12.6	262	6
2023-09-28T12:00	2933	720	7.6	-15.0	265	6
2023-09-28T12:00	2961	718	7.5	-22.1	266	6
2023-09-28T12:00	2985	716	7.5	-18.9	267	7
2023-09-28T12:00	3004	714	7.4	-17.8	266	7
2023-09-28T12:00	3030	712	7.3	-14.2	263	7
2023-09-28T12:00	3057	709	7.0	-13.4	259	7
2023-09-28T12:00	3075	708	6.9	-13.1	257	7
2023-09-28T12:00	3102	705	6.6	-13.0	257	6
2023-09-28T12:00	3129	703	6.4	-13.1	261	6
2023-09-28T12:00	3159	701	6.1		265	7
2023-09-28T12:00	3185	698	5.8	-13.7	267	7
2023-09-28T12:00	3206	696	5.7	-13.9	266	7
2023-09-28T12:00	3234	694	5.4	-14.6	262	6
2023-09-28T12:00	3263	692	5.2	-16.8	257	7
2023-09-28T12:00	3291	689	5.1	-15.9	253	7
2023-09-28T12:00	3321	687	4.9	-14.7	251	7
2023-09-28T12:00	3342	685	4.8	-14.8	249	7
2023-09-28T12:00	3361	683	4.7	-12.7	248	7
2023-09-28T12:00	3388	681	4.4	-12.1	246	7
2023-09-28T12:00	3408	679	4.3	-14.5	244	7
2023-09-28T12:00	3434	677	4.2	-17.8	242	7
2023-09-28T12:00	3455	675	4.2	-18.5	240	7
2023-09-28T12:00	3485	673	4.0	-19.4	239	7
2023-09-28T12:00	3514	670	3.9	-18.8	238	7
2023-09-28T12:00	3546	668	3.6	-18.1	237	7
2023-09-28T12:00	3583	665	3.3	-18.2	237	7
2023-09-28T12:00	3616	662	3.1	-18.5	237	8
2023-09-28T12:00	3646	660	2.8	-18.5	237	9
2023-09-28T12:00	3680	657	2.5	-18.7	238	10
2023-09-28T12:00	3707	655	2.2	-18.5	237	10
2023-09-28T12:00	3737	652	2.0	-17.9	237	10
2023-09-28T12:00	3765	650	1.8	-18.2	235	9
2023-09-28T12:00	3787	648	1.6	-18.5	231	9
2023-09-28T12:00	3810	646	1.4	-18.6	226	9
2023-09-28T12:00	3840	644	1.1	-19.2	220	9
2023-09-28T12:00	3861	642	1.0	-20.5	214	10
2023-09-28T12:00	3894	640	0.8	-23.0	209	10
2023-09-28T12:00	3917	638	0.7	-24.5	207	11
2023-09-28T12:00	3933	637	0.6	-26.9	206	11
2023-09-28T12:00	3954	635	0.7	-30.7	207	11
2023-09-28T12:00	3984	633	0.7	-29.2	208	11
2023-09-28T12:00	4013	630	0.5	-21.6	209	11
2023-09-28T12:00	4036	628	0.2	-17.9	209	11
2023-09-28T12:00	4057	627	0.0	-17.4	210	11
2023-09-28T12:00	4078	625	-0.1	-17.4	211	12
2023-09-28T12:00	4096	624	-0.3	-17.4	211	12
2023-09-28T12:00	4117	622	-0.5	-17.5	212	12
2023-09-28T12:00	4147	620	-0.7	-17.4	211	12
2023-09-28T12:00	4168	618	-0.9	-17.5	209	12
2023-09-28T12:00	4198	616	-1.2	-17.6	207	12
2023-09-28T12:00	4225	614	-1.4	-17.7	206	12
2023-09-28T12:00	4254	612	-1.7	-18.2	206	12
2023-09-28T12:00	4276	610	-1.8	-20.7	207	12
2023-09-28T12:00	4299	608	-2.0	-23.2	210	12
2023-09-28T12:00	4338	605	-1.9	-33.4	214	12
2023-09-28T12:00	4358	603	-1.9	-28.4	217	11
2023-09-28T12:00	4390	601	-2.1	-28.6	219	11
2023-09-28T12:00	4410	600	-2.2	-30.0	220	11
2023-09-28T12:00	4428	598	-2.4	-30.0	220	11
2023-09-28T12:00	4449	597	-2.6	-29.1	220	11
2023-09-28T12:00	4479	595	-2.8	-27.8	220	11
2023-09-28T12:00	4509	592	-3.1	-27.0	219	11
2023-09-28T12:00	4531	590	-3.3	-24.4	218	11
2023-09-28T12:00	4560	588	-3.6	-19.1	217	12
2023-09-28T12:00	4581	587	-3.8	-19.2	215	12
2023-09-28T12:00	4608	585	-4.0	-19.1	213	12
2023-09-28T12:00	4641	582	-4.4	-19.0	211	12
2023-09-28T12:00	4667	581	-4.6	-19.1	210	12
2023-09-28T12:00	4686	579	-4.7	-19.3	211	12
2023-09-28T12:00	4712	577	-4.8	-19.7	212	12
2023-09-28T12:00	4751	575	-5.1	-19.7	214	13
2023-09-28T12:00	4775	573	-5.3	-20.2	216	13
2023-09-28T12:00	4791	571	-5.4	-20.7	218	13
2023-09-28T12:00	4813	570	-5.5	-20.8	219	13
2023-09-28T12:00	4840	568	-5.8	-20.1	219	13
2023-09-28T12:00	4874	566	-6.0	-19.9	219	14
2023-09-28T12:00	4893	564	-6.1	-20.7	219	14
2023-09-28T12:00	4914	563	-6.1	-20.8	218	14
2023-09-28T12:00	4932	561	-6.3	-20.9	217	14
2023-09-28T12:00	4953	560	-6.5	-21.1	216	14
2023-09-28T12:00	4974	558	-6.7	-21.3	215	14
2023-09-28T12:00	5002	556	-6.9	-20.4	214	14
2023-09-28T12:00	5034	554	-7.2	-19.9	212	15
2023-09-28T12:00	5060	552	-7.4	-19.9	211	15
2023-09-28T12:00	5083	550	-7.6	-19.7	209	15
2023-09-28T12:00	5107	549	-7.8	-19.8	209	15
2023-09-28T12:00	5141	546	-8.0	-20.8	210	15
2023-09-28T12:00	5171	544	-8.2	-21.3	212	15
2023-09-28T12:00	5195	542	-8.3	-21.9	215	14
2023-09-28T12:00	5226	540	-8.5	-22.2	217	14
2023-09-28T12:00	5259	538	-8.7	-22.5	218	14
2023-09-28T12:00	5290	536	-8.9	-23.1	218	14
2023-09-28T12:00	5321	534	-9.0	-23.4	217	14
2023-09-28T12:00	5341	532	-9.2	-23.4	215	14
2023-09-28T12:00	5364	531	-9.4	-23.5	214	14
2023-09-28T12:00	5384	529	-9.5	-23.5	213	14
2023-09-28T12:00	5410	528	-9.8	-24.6	214	14
2023-09-28T12:00	5438	526	-10.0	-24.6	214	14
2023-09-28T12:00	5466	524	-10.2	-24.1	215	13
2023-09-28T12:00	5493	522	-10.4	-24.2	215	13
2023-09-28T12:00	5509	521	-10.6	-24.5	214	13
2023-09-28T12:00	5529	520	-10.7	-24.9	212	14
2023-09-28T12:00	5547	518	-10.8	-25.3	209	14
2023-09-28T12:00	5570	517	-11.1	-25.4	207	14
2023-09-28T12:00	5602	515	-11.3	-26.4	206	14
2023-09-28T12:00	5627	513	-11.5	-27.0	206	14
2023-09-28T12:00	5656	511	-11.6	-27.2	207	14
2023-09-28T12:00	5679	509	-11.7	-27.6	207	14
2023-09-28T12:00	5715	507	-11.8	-28.8	208	14
2023-09-28T12:00	5733	506	-11.9	-28.9	209	14
2023-09-28T12:00	5752	505	-12.0	-29.0	210	14
2023-09-28T12:00	5774	503	-12.1	-29.4	211	14
2023-09-28T12:00	5807	501	-12.3	-29.2	212	14
2023-09-28T12:00	5848	499	-12.6	-28.8	214	15
2023-09-28T12:00	5867	497	-12.8	-28.9	215	15
2023-09-28T12:00	5887	496	-13.0	-29.0	217	15
2023-09-28T12:00	5915	494	-13.2	-29.1	219	15
2023-09-28T12:00	5945	492	-13.5	-28.9	220	15
2023-09-28T12:00	5975	490	-13.7	-28.6	221	15
2023-09-28T12:00	5998	489	-13.9	-28.9	220	16
2023-09-28T12:00	6022	487	-14.1	-28.9	219	16
2023-09-28T12:00	6052	485	-14.3	-28.7	217	16
2023-09-28T12:00	6080	483	-14.5	-29.0	214	15
2023-09-28T12:00	6113	481	-14.8	-29.7	213	15
2023-09-28T12:00	6139	480	-15.0	-30.0	212	15
2023-09-28T12:00	6162	478	-15.2	-30.8	212	15
2023-09-28T12:00	6192	476	-15.3	-32.3	213	15
2023-09-28T12:00	6221	474	-15.4	-32.1	216	14
2023-09-28T12:00	6252	473	-15.7	-31.5	218	14
2023-09-28T12:00	6281	471	-15.9	-30.6	220	14
2023-09-28T12:00	6301	469	-16.1	-30.7	220	14
2023-09-28T12:00	6331	468	-16.3	-29.7	221	14
2023-09-28T12:00	6365	465	-16.5	-28.9	220	14
2023-09-28T12:00	6400	463	-16.7	-29.8	220	15
2023-09-28T12:00	6424	462	-16.8	-30.5	220	15
2023-09-28T12:00	6441	461	-16.9	-30.6	220	16
2023-09-28T12:00	6460	460	-17.0	-30.5	220	16
2023-09-28T12:00	6480	458	-17.2	-30.5	220	16
2023-09-28T12:00	6500	457	-17.4	-30.8	221	16
2023-09-28T12:00	6520	456	-17.5	-30.7	222	16
2023-09-28T12:00	6544	454	-17.8	-30.9	223	16
2023-09-28T12:00	6575	453	-18.0	-31.1	224	15
2023-09-28T12:00	6604	451	-18.2	-32.1	225	15
2023-09-28T12:00	6631	449	-18.3		225	14
2023-09-28T12:00	6661	447	-18.5	-33.3	224	14
2023-09-28T12:00	6688	446	-18.7	-33.7	222	14
2023-09-28T12:00	6720	444	-19.0	-34.1	219	14
2023-09-28T12:00	6747	442	-19.2	-34.5	217	14
2023-09-28T12:00	6765	441	-19.3	-34.7	216	14
2023-09-28T12:00	6785	440	-19.5	-34.8	216	15
2023-09-28T12:00	6804	439	-19.6	-35.1	216	15
2023-09-28T12:00	6823	438	-19.8	-35.6	216	16
2023-09-28T12:00	6845	437	-19.9	-35.8	216	16
2023-09-28T12:00	6868	435	-20.1	-36.4	216	16
2023-09-28T12:00	6895	434	-20.3	-37.0	216	15
2023-09-28T12:00	6925	432	-20.5	-37.1	217	15
2023-09-28T12:00	6957	430	-20.8	-37.1	217	15
2023-09-28T12:00	6980	428	-20.9	-37.1	218	15
2023-09-28T12:00	7015	427	-21.1	-37.4	219	16
2023-09-28T12:00	7054	424	-21.4	-37.7	219	16
2023-09-28T12:00	7076	423	-21.6	-37.7	219	16
2023-09-28T12:00	7095	422	-21.8	-37.8	219	16
2023-09-28T12:00	7116	421	-22.0	-37.8	219	16
2023-09-28T12:00	7136	420	-22.2	-37.8	219	16
2023-09-28T12:00	7159	418	-22.4	-37.9	219	16
2023-09-28T12:00	7192	416	-22.7	-38.1	219	16
2023-09-28T12:00	7231	414	-22.9	-38.8	220	16
2023-09-28T12:00	7251	413	-23.0	-39.7	219	16
2023-09-28T12:00	7273	412	-23.1	-41.2	218	15
2023-09-28T12:00	7294	411	-23.2	-42.1	216	15
2023-09-28T12:00	7315	409	-23.2	-40.2	215	15
2023-09-28T12:00	7337	408	-23.4	-39.4	215	15
2023-09-28T12:00	7363	407	-23.7	-37.5	215	15
2023-09-28T12:00	7393	405	-23.9	-37.7	215	15
2023-09-28T12:00	7418	404	-24.1	-37.7	214	15
2023-09-28T12:00	7447	402	-24.4	-38.6	213	15
2023-09-28T12:00	7479	401	-24.6	-39.3	212	16
2023-09-28T12:00	7499	399	-24.8	-39.1	212	16
2023-09-28T12:00	7520	398	-25.0	-38.9	212	16
2023-09-28T12:00	7539	397	-25.2	-38.7	212	17
2023-09-28T12:00	7560	396	-25.3	-38.7	213	17
2023-09-28T12:00	7582	395	-25.5	-38.6	213	17
2023-09-28T12:00	7612	393	-25.8	-38.3	212	17
2023-09-28T12:00	7638	392	-26.1	-38.4	211	17
2023-09-28T12:00	7667	390	-26.3	-37.7	210	17
2023-09-28T12:00	7699	388	-26.5	-40.0	209	17
2023-09-28T12:00	7729	387	-26.7	-42.0	209	17
2023-09-28T12:00	7755	385	-26.9	-51.3	209	17
2023-09-28T12:00	7786	384	-27.0	-47.9	210	17
2023-09-28T12:00	7812	382	-27.2	-46.6	210	17
2023-09-28T12:00	7843	381	-27.5	-47.0	210	18
2023-09-28T12:00	7865	380	-27.7	-47.2	210	18
2023-09-28T12:00	7890	378	-27.9	-45.4	210	18
2023-09-28T12:00	7919	377	-28.0	-47.8	211	19
2023-09-28T12:00	7941	375	-28.2	-49.5	213	19
2023-09-28T12:00	7982	373	-28.4	-45.8	215	19
2023-09-28T12:00	8022	372	-28.7	-43.9	216	19
2023-09-28T12:00	8042	370	-28.8	-44.4	217	19
2023-09-28T12:00	8062	369	-28.9	-44.6	217	19
2023-09-28T12:00	8080	368	-29.0	-45.5	217	19
2023-09-28T12:00	8100	367	-29.1	-45.9	216	18
2023-09-28T12:00	8120	366	-29.3	-45.9	214	19
2023-09-28T12:00	8140	365	-29.4	-44.3	213	19
2023-09-28T12:00	8165	364	-29.6	-43.1	212	19
2023-09-28T12:00	8198	362	-29.9	-42.5	211	19
2023-09-28T12:00	8237	360	-30.2	-42.8	211	20
2023-09-28T12:00	8273	359	-30.5	-43.1	210	19
2023-09-28T12:00	8294	357	-30.6	-43.3	210	19
2023-09-28T12:00	8312	357	-30.8	-44.4	211	18
2023-09-28T12:00	8331	356	-30.9	-44.5	212	18
2023-09-28T12:00	8351	355	-31.1	-45.7	213	17
2023-09-28T12:00	8372	354	-31.2	-46.8	213	16
2023-09-28T12:00	8394	353	-31.4	-48.2	213	16
2023-09-28T12:00	8415	351	-31.5	-49.7	213	16
2023-09-28T12:00	8439	350	-31.7	-50.5	214	15
2023-09-28T12:00	8470	349	-31.9	-51.1	215	15
2023-09-28T12:00	8507	347	-32.2	-50.6	217	14
2023-09-28T12:00	8540	345	-32.5	-49.9	219	14
2023-09-28T12:00	8570	344	-32.6	-51.4	221	14
2023-09-28T12:00	8607	342	-32.7	-51.0	222	14
2023-09-28T12:00	8631	341	-32.8	-46.7	223	14
2023-09-28T12:00	8661	339	-33.1	-44.3	224	14
2023-09-28T12:00	8694	338	-33.3	-44.1	225	14
2023-09-28T12:00	8726	336	-33.6	-44.2	226	14
2023-09-28T12:00	8753	335	-33.8	-44.3	227	14
2023-09-28T12:00	8774	334	-34.0	-44.4	227	14
2023-09-28T12:00	8797	333	-34.2	-44.6	228	14
2023-09-28T12:00	8816	332	-34.4	-44.7	228	14
2023-09-28T12:00	8841	331	-34.7	-45.0	228	14
2023-09-28T12:00	8870	329	-34.9	-45.2	229	14
2023-09-28T12:00	8902	328	-35.2	-45.6	230	15
2023-09-28T12:00	8935	326	-35.5	-45.3	231	15
2023-09-28T12:00	8965	325	-35.8	-43.6	231	14
2023-09-28T12:00	8996	323	-36.0	-42.1	232	14
2023-09-28T12:00	9029	322	-36.2	-41.2	233	14
2023-09-28T12:00	9058	321	-36.4	-40.1	234	14
2023-09-28T12:00	9088	319	-36.6	-40.9	234	15
2023-09-28T12:00	9113	318	-36.9	-42.1	235	15
2023-09-28T12:00	9138	317	-37.1	-48.3	234	15
2023-09-28T12:00	9163	316	-37.2	-43.0	234	15
2023-09-28T12:00	9189	315	-37.2	-40.3	233	16
2023-09-28T12:00	9211	314	-37.3	-40.9	233	16
2023-09-28T12:00	9234	313	-37.5	-42.7	233	16
2023-09-28T12:00	9258	311	-37.7	-40.9	232	15
2023-09-28T12:00	9285	310	-37.9	-42.4	232	15
2023-09-28T12:00	9310	309	-38.1	-43.9	233	15
2023-09-28T12:00	9334	308	-38.3	-42.8	233	15
2023-09-28T12:00	9357	307	-38.4	-42.2	233	15
2023-09-28T12:00	9380	306	-38.3	-42.5	233	14
2023-09-28T12:00	9410	305	-38.5	-42.9	233	14
2023-09-28T12:00	9441	303	-38.7	-42.8	233	14
2023-09-28T12:00	9470	302	-38.9	-42.8	234	14
2023-09-28T12:00	9495	301	-39.1	-43.1	234	14
2023-09-28T12:00	9518	300	-39.3	-43.2	235	14
2023-09-28T12:00	9541	299	-39.5	-43.1	234	14
2023-09-28T12:00	9568	298	-39.7	-43.1	234	14
2023-09-28T12:00	9596	297	-39.9	-43.4	234	14
2023-09-28T12:00	9622	295	-40.1	-43.7	233	13
2023-09-28T12:00	9648	294	-40.3	-43.8	234	13
2023-09-28T12:00	9674	293	-40.4	-44.2	234	13
2023-09-28T12:00	9707	292	-40.6	-44.0	235	13
2023-09-28T12:00	9741	290	-40.9	-44.1	235	13
2023-09-28T12:00	9769	289	-41.1	-44.3	236	13
2023-09-28T12:00	9794	288	-41.3	-44.7	236	13
2023-09-28T12:00	9820	287	-41.5	-45.2	236	13
2023-09-28T12:00	9846	286	-41.6	-45.1	237	13
2023-09-28T12:00	9873	285	-41.9	-44.7	238	13
2023-09-28T12:00	9898	284	-42.1	-44.9	238	13
2023-09-28T12:00	9923	283	-42.3	-45.4	239	13
2023-09-28T12:00	9948	282	-42.5	-45.5	239	13
2023-09-28T12:00	9974	280	-42.7	-45.8	239	14
2023-09-28T12:00	10003	279	-43.0	-46.2	239	14
2023-09-28T12:00	10033	278	-43.3	-46.6	239	14
2023-09-28T12:00	10065	277	-43.5	-47.0	238	14
2023-09-28T12:00	10094	276	-43.8	-47.4	238	14
2023-09-28T12:00	10118	275	-44.0	-47.1	237	14
2023-09-28T12:00	10140	274	-44.2	-47.1	237	14
2023-09-28T12:00	10162	273	-44.4	-47.8	237	14
2023-09-28T12:00	10184	272	-44.6	-48.0	237	14
2023-09-28T12:00	10209	271	-44.9	-48.0	237	14
2023-09-28T12:00	10235	270	-45.1	-48.2	237	14
2023-09-28T12:00	10259	269	-45.3	-48.9	236	14
2023-09-28T12:00	10280	268	-45.3	-49.7	236	15
2023-09-28T12:00	10302	267	-45.5	-49.6	236	15
2023-09-28T12:00	10325	266	-45.7	-49.5	236	14
2023-09-28T12:00	10352	265	-45.9	-49.8	236	14
2023-09-28T12:00	10378	264	-46.1	-50.8	236	14
2023-09-28T12:00	10401	263	-46.4	-52.2	236	14
2023-09-28T12:00	10427	262	-46.6	-53.0	236	14
2023-09-28T12:00	10453	261	-46.8	-52.8	235	14
2023-09-28T12:00	10481	260	-47.1	-52.8	236	14
2023-09-28T12:00	10504	259	-47.3	-53.0	236	14
2023-09-28T12:00	10526	258	-47.5	-53.0	236	14
2023-09-28T12:00	10547	257	-47.8	-53.0	235	14
2023-09-28T12:00	10567	257	-47.9	-53.0	235	14
2023-09-28T12:00	10589	256	-48.1	-53.1	234	14
2023-09-28T12:00	10610	255	-48.3	-53.1	233	14
2023-09-28T12:00	10632	254	-48.5	-53.2	232	14
2023-09-28T12:00	10655	253	-48.8	-53.3	230	14
2023-09-28T12:00	10679	252	-49.0	-53.5	229	14
2023-09-28T12:00	10702	251	-49.2	-53.4	228	14
2023-09-28T12:00	10731	250	-49.5	-53.0	228	14
2023-09-28T12:00	10766	249	-49.8	-52.6	228	13
2023-09-28T12:00	10799	248	-50.1	-52.5	228	13
2023-09-28T12:00	10836	246	-50.4	-52.7	229	13
2023-09-28T12:00	10864	245	-50.7	-52.9	228	12
2023-09-28T12:00	10888	244	-50.9	-52.9	227	12
2023-09-28T12:00	10910	244	-51.1	-53.4	225	12
2023-09-28T12:00	10930	243	-51.3	-54.5	223	12
2023-09-28T12:00	10954	242	-51.4	-55.5	220	12
2023-09-28T12:00	10981	241	-51.6	-57.0	218	12
2023-09-28T12:00	11007	240	-51.5	-58.9	216	11
2023-09-28T12:00	11036	239	-51.6	-59.5	214	11
2023-09-28T12:00	11065	238	-51.9	-59.0	212	11
2023-09-28T12:00	11089	237	-52.1	-58.5	210	11
2023-09-28T12:00	11118	236	-52.3	-58.2	208	11
2023-09-28T12:00	11142	235	-52.5	-58.1	206	11
2023-09-28T12:00	11162	234	-52.7	-58.1	205	11
2023-09-28T12:00	11183	233	-52.9	-58.0	205	12
2023-09-28T12:00	11205	233	-53.1	-57.9	205	12
2023-09-28T12:00	11226	232	-53.3	-58.1	206	12
2023-09-28T12:00	11246	231	-53.4	-58.7	206	12
2023-09-28T12:00	11265	230	-53.6	-59.6	207	12
2023-09-28T12:00	11286	230	-53.7	-60.4	207	12
2023-09-28T12:00	11305	229	-53.9	-60.7	209	12
2023-09-28T12:00	11328	228	-54.0	-60.5	210	12
2023-09-28T12:00	11348	228	-54.2	-60.7	212	12
2023-09-28T12:00	11371	227	-54.1	-61.1	214	12
2023-09-28T12:00	11394	226	-54.2	-62.2	216	12
2023-09-28T12:00	11418	225	-54.2	-63.1	218	12
2023-09-28T12:00	11440	224	-54.4	-63.5	219	12
2023-09-28T12:00	11463	224	-54.6	-63.3	219	12
2023-09-28T12:00	11482	223	-54.8	-63.1	220	12
2023-09-28T12:00	11503	222	-55.0	-63.0	220	12
2023-09-28T12:00	11526	221	-55.2	-63.0	220	12
2023-09-28T12:00	11546	221	-55.4	-63.0	220	12
2023-09-28T12:00	11569	220	-55.6	-63.0	219	12
2023-09-28T12:00	11590	219	-55.8	-62.9	219	12
2023-09-28T12:00	11611	218	-56.0	-63.0	219	12
2023-09-28T12:00	11632	218	-56.2	-63.0	218	12
2023-09-28T12:00	11654	217	-56.4	-63.1	218	12
2023-09-28T12:00	11673	216	-56.6	-63.1	217	12
2023-09-28T12:00	11695	216	-56.8	-63.1	216	12
2023-09-28T12:00	11715	215	-57.0	-63.1	215	12
2023-09-28T12:00	11735	214	-57.2	-63.2	214	12
2023-09-28T12:00	11756	213	-57.4	-63.2	214	12
2023-09-28T12:00	11777	213	-57.6	-63.3	214	12
2023-09-28T12:00	11796	212	-57.8	-63.3	214	12
2023-09-28T12:00	11819	211	-58.0	-63.4	213	12
2023-09-28T12:00	11841	211	-58.2	-63.5	213	12
2023-09-28T12:00	11862	210	-58.4	-63.5	211	12
2023-09-28T12:00	11885	209	-58.6	-63.5	209	11
2023-09-28T12:00	11920	208	-58.9	-63.7	208	11
2023-09-28T12:00	11944	207	-59.0	-63.7	207	11
2023-09-28T12:00	11965	206	-59.2	-64.0	208	11
2023-09-28T12:00	11987	206	-59.4	-64.3	210	12
2023-09-28T12:00	12012	205	-59.5	-64.4	212	12
2023-09-28T12:00	12035	204	-59.6	-64.5	213	12
2023-09-28T12:00	12057	203	-59.5	-64.7	215	12
2023-09-28T12:00	12077	203	-59.6	-65.0	216	13
2023-09-28T12:00	12099	202	-59.8	-65.2	217	13
2023-09-28T12:00	12119	201	-59.9	-65.3	218	14
2023-09-28T12:00	12140	201	-60.1	-65.6	219	14
2023-09-28T12:00	12160	200	-60.0	-66.0	218	14
2023-09-28T12:00	12183	199	-59.5	-66.2	218	15
2023-09-28T12:00	12202	199	-59.3	-66.7	217	15
2023-09-28T12:00	12221	198	-59.4	-67.2	216	15
2023-09-28T12:00	12243	197	-59.5	-67.3	215	15
2023-09-28T12:00	12265	197	-59.6	-67.5	215	15
2023-09-28T12:00	12284	196	-59.6	-67.6	216	15
2023-09-28T12:00	12304	196	-59.8	-67.8	216	15
2023-09-28T12:00	12323	195	-59.9	-67.8	217	14
2023-09-28T12:00	12342	194	-60.0	-67.9	219	14
2023-09-28T12:00	12365	194	-59.9		220	14
2023-09-28T12:00	12381	193	-59.8	-68.8	223	14
2023-09-28T12:00	12404	192	-59.3	-69.3	226	14
2023-09-28T12:00	12427	192	-59.0	-70.0	228	15
2023-09-28T12:00	12449	191	-58.9	-70.7	231	15
2023-09-28T12:00	12472	190	-59.0	-71.3	233	16
2023-09-28T12:00	12497	190	-59.0	-71.5	235	16
2023-09-28T12:00	12519	189	-59.1	-71.8	236	16
2023-09-28T12:00	12541	188	-59.2	-72.0	238	16
2023-09-28T12:00	12562	188	-59.3	-72.2	239	16
2023-09-28T12:00	12580	187	-59.4	-72.3	241	16
2023-09-28T12:00	12600	186	-59.5	-72.4	242	16
2023-09-28T12:00	12623	186	-59.5	-72.5	243	16
2023-09-28T12:00	12645	185	-59.5	-72.6	243	16
2023-09-28T12:00	12666	185	-59.5	-72.7	244	16
2023-09-28T12:00	12686	184	-59.7	-73.0	243	15
2023-09-28T12:00	12708	183	-59.7	-73.1	242	15
2023-09-28T12:00	12728	183	-59.7	-73.5	241	14
2023-09-28T12:00	12750	182	-59.5	-73.7	238	14
2023-09-28T12:00	12772	181	-59.4	-74.0	236	13
2023-09-28T12:00	12793	181	-59.3	-74.2	233	13
2023-09-28T12:00	12816	180	-59.3	-74.2	231	13
2023-09-28T12:00	12836	180	-59.4	-74.1	230	14
2023-09-28T12:00	12859	179	-59.6	-74.2	230	14
2023-09-28T12:00	12879	178	-59.8	-74.2	231	14
2023-09-28T12:00	12902	178	-59.9	-74.1	232	14
2023-09-28T12:00	12924	177	-60.1	-74.1	233	15
2023-09-28T12:00	12946	176	-60.4	-74.3	235	15
2023-09-28T12:00	12968	176	-60.5	-74.4	237	15
2023-09-28T12:00	12990	175	-60.6	-74.6	240	15
2023-09-28T12:00	13012	175	-60.4	-74.9	242	15
2023-09-28T12:00	13035	174	-60.0	-75.1	245	15
2023-09-28T12:00	13056	173	-59.9	-75.4	247	15
2023-09-28T12:00	13079	173	-59.9	-75.9	250	15
2023-09-28T12:00	13100	172	-59.8	-76.0	252	15
2023-09-28T12:00	13120	172	-59.9	-76.2	253	14
2023-09-28T12:00	13142	171	-60.0	-76.4	255	14
2023-09-28T12:00	13163	170	-60.1	-76.7	256	14
2023-09-28T12:00	13183	170	-59.9	-76.9	258	14
2023-09-28T12:00	13202	169	-59.8	-77.2	259	13
2023-09-28T12:00	13225	169	-59.8	-77.5	259	13
2023-09-28T12:00	13244	168	-60.0	-77.9	258	13
2023-09-28T12:00	13265	168	-60.0	-78.1	257	13
2023-09-28T12:00	13287	167	-59.9	-78.2	254	13
2023-09-28T12:00	13306	167	-59.8	-78.4	252	13
2023-09-28T12:00	13330	166	-59.6	-78.5	249	13
2023-09-28T12:00	13351	165	-59.5	-78.6	246	13
2023-09-28T12:00	13371	165	-59.3	-78.3	245	14
2023-09-28T12:00	13392	164	-59.4	-78.3	244	14
2023-09-28T12:00	13414	164	-59.4	-78.2	243	14
2023-09-28T12:00	13434	163	-59.4	-78.2	244	14
2023-09-28T12:00	13456	163	-59.5	-78.4	245	14
2023-09-28T12:00	13478	162	-59.5	-78.6	246	14
2023-09-28T12:00	13497	162	-59.1	-78.6	247	14
2023-09-28T12:00	13520	161	-58.6	-78.7	247	13
2023-09-28T12:00	13541	160	-58.5	-79.0	245	13
2023-09-28T12:00	13568	160	-58.4		242	12
2023-09-28T12:00	13592	159	-58.3	-79.3	238	12
2023-09-28T12:00	13614	159	-58.4	-79.4	234	12
2023-09-28T12:00	13641	158	-58.5	-79.4	229	12
2023-09-28T12:00	13673	157	-58.8	-79.5	227	13
2023-09-28T12:00	13702	156	-59.0	-79.5	225	13
2023-09-28T12:00	13724	156	-59.2	-79.6	225	13
2023-09-28T12:00	13747	155	-59.2	-79.6	226	13
2023-09-28T12:00	13782	154	-59.4	-79.7	228	14
2023-09-28T12:00	13811	154	-59.5	-79.8	230	14
2023-09-28T12:00	13831	153	-59.6	-79.9	231	14
2023-09-28T12:00	13854	153	-59.8	-80.0	232	14
2023-09-28T12:00	13877	152	-59.9	-80.0	233	13
2023-09-28T12:00	13899	152	-60.1	-80.0	233	13
2023-09-28T12:00	13923	151	-60.4	-80.1	233	13
2023-09-28T12:00	13947	150	-60.7	-80.2	233	14
2023-09-28T12:00	13970	150	-60.9	-80.1	234	14
2023-09-28T12:00	13993	149	-61.0	-80.1	234	14
2023-09-28T12:00	14016	149	-61.2	-80.3	233	14
2023-09-28T12:00	14042	148	-61.1	-80.2	234	14
2023-09-28T12:00	14065	148	-61.1	-80.2	234	14
2023-09-28T12:00	14090	147	-61.2	-80.4	236	14
2023-09-28T12:00	14115	146	-61.2	-80.7	238	13
2023-09-28T12:00	14138	146	-60.4	-80.5	241	13
2023-09-28T12:00	14160	145	-60.0	-80.7	244	12
2023-09-28T12:00	14183	145	-59.9	-81.1	246	12
2023-09-28T12:00	14206	144	-60.0		248	11
2023-09-28T12:00	14227	144	-60.1	-81.7	248	11
2023-09-28T12:00	14250	143	-60.0	-81.7	248	11
2023-09-28T12:00	14272	143	-59.6	-81.7	247	10
2023-09-28T12:00	14295	142	-59.6	-81.9	246	10
2023-09-28T12:00	14315	142	-59.6	-81.9	246	10
2023-09-28T12:00	14337	141	-59.5	-81.8	246	10
2023-09-28T12:00	14356	141	-59.6	-81.9	246	10
2023-09-28T12:00	14378	140	-59.7	-82.0	247	10
2023-09-28T12:00	14398	140	-59.8	-82.1	246	10
2023-09-28T12:00	14420	139	-59.7	-82.0	244	9
2023-09-28T12:00	14441	139	-59.6	-82.1	239	8
2023-09-28T12:00	14471	138	-59.5	-82.2	231	7
2023-09-28T12:00	14511	137	-59.3	-82.2	221	7
2023-09-28T12:00	14545	137	-59.3	-82.4	214	7
2023-09-28T12:00	14574	136	-59.4	-82.5	212	8
2023-09-28T12:00	14615	135	-59.7	-82.7	214	9
2023-09-28T12:00	14636	135	-60.0	-82.8	217	9
2023-09-28T12:00	14658	134	-59.9	-82.7	220	10
2023-09-28T12:00	14678	134	-60.0	-82.9	223	10
2023-09-28T12:00	14699	133	-60.1	-83.0	225	10
2023-09-28T12:00	14720	133	-60.2	-83.1	226	11
2023-09-28T12:00	14741	132	-60.1	-83.0	226	11
2023-09-28T12:00	14764	132	-60.2	-83.1	226	11
2023-09-28T12:00	14786	131	-60.3	-83.2	227	11
2023-09-28T12:00	14807	131	-60.5	-83.3	227	11
2023-09-28T12:00	14828	131	-60.7	-83.5	227	11
2023-09-28T12:00	14847	130	-60.7	-83.5	228	11
2023-09-28T12:00	14869	130	-60.6	-83.6	229	11
2023-09-28T12:00	14890	129	-60.4	-83.5	230	11
2023-09-28T12:00	14912	129	-60.5	-83.7	232	11
2023-09-28T12:00	14932	128	-60.6	-83.8	234	11
2023-09-28T12:00	14954	128	-60.8	-83.8	237	12
2023-09-28T12:00	14976	128	-60.9	-83.9	240	12
2023-09-28T12:00	14998	127	-60.9	-83.9	242	13
2023-09-28T12:00	15018	127	-60.8	-84.0	245	13
2023-09-28T12:00	15040	126	-60.8	-84.0	247	14
2023-09-28T12:00	15062	126	-60.9	-84.3	248	14
2023-09-28T12:00	15085	125	-60.8	-84.4	250	15
2023-09-28T12:00	15107	125	-60.6	-84.5	251	15
2023-09-28T12:00	15129	124	-60.4	-84.5	253	14
2023-09-28T12:00	15148	124	-59.9	-84.4	254	14
2023-09-28T12:00	15169	124	-59.7	-84.5	256	14
2023-09-28T12:00	15188	123	-59.6	-84.4	258	14
2023-09-28T12:00	15209	123	-59.5	-84.6	260	13
2023-09-28T12:00	15231	122	-59.5	-84.6	261	13
2023-09-28T12:00	15252	122	-59.5	-84.6	262	12
2023-09-28T12:00	15273	122	-59.4	-84.7	262	12
2023-09-28T12:00	15296	121	-59.3	-84.7	261	11
2023-09-28T12:00	15320	121	-59.2	-84.9	258	10
2023-09-28T12:00	15345	120	-59.1	-84.8	254	9
2023-09-28T12:00	15371	120	-58.8	-84.9	248	9
2023-09-28T12:00	15395	119	-58.7	-84.8	243	9
2023-09-28T12:00	15418	119	-58.8	-84.9	238	10
2023-09-28T12:00	15445	118	-59.0	-85.0	235	10
2023-09-28T12:00	15467	118	-59.0	-85.0	233	11
2023-09-28T12:00	15492	117	-59.2	-84.9	232	11
2023-09-28T12:00	15519	117	-59.4	-85.0	232	11
2023-09-28T12:00	15543	116	-59.6	-84.9	232	11
2023-09-28T12:00	15567	116	-59.8	-85.1	232	12
2023-09-28T12:00	15586	116	-60.0	-84.9	232	12
2023-09-28T12:00	15613	115	-60.2	-85.1	232	12
2023-09-28T12:00	15636	115	-60.4	-85.0	232	12
2023-09-28T12:00	15660	114	-60.7	-85.2	232	13
2023-09-28T12:00	15681	114	-60.9	-85.4	232	13
2023-09-28T12:00	15704	113	-61.0	-85.2	232	14
2023-09-28T12:00	15728	113	-61.1	-85.3	233	14
2023-09-28T12:00	15751	113	-61.3	-85.5	234	14
2023-09-28T12:00	15773	112	-61.4	-85.5	235	14
2023-09-28T12:00	15794	112	-61.4	-85.5	237	14
2023-09-28T12:00	15816	111	-61.4	-85.5	240	13
2023-09-28T12:00	15839	111	-61.3	-85.5	242	13
2023-09-28T12:00	15861	111	-61.0	-85.5	245	12
2023-09-28T12:00	15881	110	-60.8	-85.6	247	12
2023-09-28T12:00	15900	110	-60.6	-85.4	249	11
2023-09-28T12:00	15920	110	-60.4	-85.5	250	11
2023-09-28T12:00	15945	109	-60.4	-85.5	250	10
2023-09-28T12:00	15967	109	-60.3	-85.5	251	10
2023-09-28T12:00	15989	108	-60.2	-85.7	250	10
2023-09-28T12:00	16011	108	-60.1	-85.6	250	10
2023-09-28T12:00	16033	108	-60.0	-85.5	249	10
2023-09-28T12:00	16054	107	-59.9	-85.4	248	10
2023-09-28T12:00	16075	107	-60.0	-85.5	247	11
2023-09-28T12:00	16098	107	-60.2	-85.7	246	11
2023-09-28T12:00	16119	106	-60.3	-85.7	246	11
2023-09-28T12:00	16141	106	-60.5	-85.6	246	12
2023-09-28T12:00	16160	105	-60.6	-85.7	247	12
2023-09-28T12:00	16179	105	-60.7	-85.8	248	13
2023-09-28T12:00	16203	105	-60.7	-85.8	251	13
2023-09-28T12:00	16222	104	-60.6	-85.7	253	13
2023-09-28T12:00	16244	104	-60.5	-85.9	255	13
2023-09-28T12:00	16265	104	-60.4	-85.8	257	13
2023-09-28T12:00	16286	103	-60.3	-86.0	259	13
2023-09-28T12:00	16308	103	-60.0	-86.1	259	13
2023-09-28T12:00	16330	103	-59.7	-85.9	259	12
2023-09-28T12:00	16352	102	-59.5	-85.7	258	11
2023-09-28T12:00	16374	102	-59.6	-86.1	256	11
2023-09-28T12:00	16395	102	-59.7	-86.2	254	10
2023-09-28T12:00	16419	101	-59.6	-86.1	252	10
2023-09-28T12:00	16440	101	-59.7	-86.2	250	9
2023-09-28T12:00	16463	100	-59.7	-85.9	249	9
2023-09-28T12:00	16487	100	-59.8	-85.9	248	8
2023-09-28T12:00	16509	100	-59.8	-85.9	247	8
2023-09-28T12:00	16532	99	-60.0	-86.1	247	8
2023-09-28T12:00	16552	99	-60.1	-86.2	247	8
2023-09-28T12:00	16577	99	-60.3	-86.3	246	8
2023-09-28T12:00	16597	98	-60.5	-86.2	246	8
2023-09-28T12:00	16621	98	-60.5	-86.2	244	8
2023-09-28T12:00	16643	98	-60.6	-86.3	243	9
2023-09-28T12:00	16666	97	-60.7	-86.3	243	9
2023-09-28T12:00	16690	97	-60.8	-86.1	242	9
2023-09-28T12:00	16714	97	-61.0	-86.3	243	10
2023-09-28T12:00	16737	96	-61.2	-86.4	244	10
2023-09-28T12:00	16760	96	-61.3	-86.5	245	10
2023-09-28T12:00	16784	95	-61.4	-86.3	247	10
2023-09-28T12:00	16805	95	-61.5	-86.4	249	10
2023-09-28T12:00	16828	95	-61.7	-86.5	251	10
2023-09-28T12:00	16852	94	-61.8	-86.6	252	11
2023-09-28T12:00	16872	94	-61.8	-86.6	253	11
2023-09-28T12:00	16893	94	-61.8	-86.6	254	11
2023-09-28T12:00	16916	93	-61.7	-86.8	255	11
2023-09-28T12:00	16937	93	-61.7	-86.8	255	11
2023-09-28T12:00	16959	93	-61.7	-87.1	255	10
2023-09-28T12:00	16980	92	-61.3	-87.1	254	10
2023-09-28T12:00	17004	92	-60.8	-87.0	252	9
2023-09-28T12:00	17026	92	-60.7	-87.0	248	9
2023-09-28T12:00	17047	91	-60.8	-87.4	243	8
2023-09-28T12:00	17068	91	-60.7	-87.3	238	8
2023-09-28T12:00	17090	91	-60.6	-87.6	233	8
2023-09-28T12:00	17109	91	-60.2	-87.3	230	8
2023-09-28T12:00	17132	90	-59.9	-87.4	229	8
2023-09-28T12:00	17152	90	-59.6	-87.2	229	8
2023-09-28T12:00	17172	90	-59.5	-87.6	230	8
2023-09-28T12:00	17192	89	-59.1	-87.3	231	8
2023-09-28T12:00	17214	89	-58.8	-87.0	232	8
2023-09-28T12:00	17233	89	-58.7	-87.4	232	8
2023-09-28T12:00	17255	88	-58.8	-87.5	232	8
2023-09-28T12:00	17276	88	-58.6	-87.3	233	8
2023-09-28T12:00	17299	88	-58.1	-87.0	235	8
2023-09-28T12:00	17319	88	-58.1	-87.0	237	9
2023-09-28T12:00	17342	87	-58.2	-87.0	240	9
2023-09-28T12:00	17363	87	-58.2	-87.0	242	9
2023-09-28T12:00	17387	87	-58.1	-87.0	245	9
2023-09-28T12:00	17409	86	-58.2	-87.0	248	9
2023-09-28T12:00	17432	86	-58.4	-87.2	251	9
2023-09-28T12:00	17455	86	-58.6	-86.9	254	9
2023-09-28T12:00	17476	85	-58.7	-87.0	258	9
2023-09-28T12:00	17499	85	-58.8	-87.0	261	8
2023-09-28T12:00	17521	85	-58.8	-87.5	264	8
2023-09-28T12:00	17547	84	-58.7	-87.4	266	7
2023-09-28T12:00	17569	84	-58.6	-87.3	268	7
2023-09-28T12:00	17595	84	-58.6	-87.3	269	6
2023-09-28T12:00	17616	84	-58.6	-87.3	270	5
2023-09-28T12:00	17641	83	-58.6	-87.3	269	5
2023-09-28T12:00	17663	83	-58.6	-87.3	268	4
2023-09-28T12:00	17686	83	-58.7	-87.4	269	4
2023-09-28T12:00	17712	82	-58.8	-87.5	269	4
2023-09-28T12:00	17735	82	-59.0	-87.6	271	3
2023-09-28T12:00	17761	82	-59.2	-87.8	272	3
2023-09-28T12:00	17787	81	-59.3	-87.4	273	3
2023-09-28T12:00	17812	81	-59.4	-87.5	272	3
2023-09-28T12:00	17834	81	-59.6	-87.6	268	2
2023-09-28T12:00	17859	80	-59.6	-87.6	259	2
2023-09-28T12:00	17881	80	-59.7	-87.7	243	2
2023-09-28T12:00	17908	80	-59.9	-87.9	224	1
2023-09-28T12:00	17931	79	-59.8	-88.2	209	2
2023-09-28T12:00	17956	79	-59.5	-88.0	203	2
2023-09-28T12:00	17978	79	-59.5	-88.0	206	2
2023-09-28T12:00	18002	79	-59.6	-88.1	214	2
2023-09-28T12:00	18029	78	-59.7	-88.2	222	2
2023-09-28T12:00	18051	78	-59.7	-88.2	227	2
2023-09-28T12:00	18073	78	-59.7	-88.2	225	2
2023-09-28T12:00	18098	77	-59.6	-88.1	219	2
2023-09-28T12:00	18121	77	-59.4	-87.9	211	2
2023-09-28T12:00	18144	77	-59.3	-87.9	205	2
2023-09-28T12:00	18167	76	-59.4	-87.9	202	2
2023-09-28T12:00	18189	76	-59.6	-88.1	200	2
2023-09-28T12:00	18214	76	-59.8	-88.2	200	3
2023-09-28T12:00	18238	76	-60.0	-88.4	200	4
2023-09-28T12:00	18263	75	-60.2	-88.5	201	4
2023-09-28T12:00	18286	75	-60.2	-88.5	202	5
2023-09-28T12:00	18308	75	-60.2	-88.1	203	5
2023-09-28T12:00	18333	74	-60.3	-88.2	206	6
2023-09-28T12:00	18357	74	-60.4	-88.2	210	6
2023-09-28T12:00	18384	74	-60.6	-88.4	215	7
2023-09-28T12:00	18409	74	-60.7	-88.5	220	8
2023-09-28T12:00	18431	73	-60.7	-88.9	224	8
2023-09-28T12:00	18458	73	-60.4	-88.7	228	9
2023-09-28T12:00	18483	73	-60.1	-88.5	231	10
2023-09-28T12:00	18505	72	-60.1	-88.5	234	10
2023-09-28T12:00	18531	72	-60.3	-88.6	237	10
2023-09-28T12:00	18554	72	-60.4	-88.7	240	10
2023-09-28T12:00	18579	72	-60.4	-88.7	244	10
2023-09-28T12:00	18601	71	-60.4	-88.7	247	10
2023-09-28T12:00	18626	71	-60.3	-88.6	251	9
2023-09-28T12:00	18650	71	-60.1	-88.5	254	9
2023-09-28T12:00	18673	71	-60.1	-88.9	256	9
2023-09-28T12:00	18696	70	-60.1	-88.9	257	9
2023-09-28T12:00	18721	70	-60.2	-89.0	258	9
2023-09-28T12:00	18748	70	-60.1	-88.9	259	10
2023-09-28T12:00	18772	69	-59.9	-89.3	260	9
2023-09-28T12:00	18795	69	-59.7	-89.2	261	9
2023-09-28T12:00	18821	69	-59.3	-88.9	263	9
2023-09-28T12:00	18843	69	-59.2	-88.8	265	8
2023-09-28T12:00	18867	68	-59.2	-88.8	268	7
2023-09-28T12:00	18892	68	-59.2	-88.8	272	6
2023-09-28T12:00	18916	68	-59.0	-88.7	276	6
2023-09-28T12:00	18940	68	-58.9	-89.2	281	6
2023-09-28T12:00	18961	67	-58.7	-89.0	285	6
2023-09-28T12:00	18987	67	-58.5	-88.9	288	6
2023-09-28T12:00	19015	67	-58.6	-88.9	290	6
2023-09-28T12:00	19039	67	-58.7	-89.0	292	6
2023-09-28T12:00	19061	66	-58.8	-89.1	294	6
2023-09-28T12:00	19084	66	-58.7	-89.0	297	6
2023-09-28T12:00	19111	66	-58.6	-88.9	298	6
2023-09-28T12:00	19133	66	-58.6	-88.9	300	6
2023-09-28T12:00	19156	65	-58.7	-89.0	301	6
2023-09-28T12:00	19180	65	-58.7	-89.0	301	5
2023-09-28T12:00	19204	65	-58.6	-88.9	301	5
2023-09-28T12:00	19231	65	-58.5	-88.9	300	4
2023-09-28T12:00	19255	64	-58.6	-88.9	299	3
2023-09-28T12:00	19279	64	-58.7	-88.4	295	3
2023-09-28T12:00	19304	64	-58.9	-88.6	287	2
2023-09-28T12:00	19330	64	-59.0	-88.7	270	2
2023-09-28T12:00	19354	63	-59.0	-88.7	250	2
2023-09-28T12:00	19377	63	-59.1	-88.7	236	2
2023-09-28T12:00	19402	63	-59.1	-88.7	229	2
2023-09-28T12:00	19426	63	-59.1	-88.7	225	3
2023-09-28T12:00	19450	62	-59.1	-88.7	224	3
2023-09-28T12:00	19475	62	-59.2	-88.8	223	3
2023-09-28T12:00	19498	62	-59.3	-88.9	222	3
2023-09-28T12:00	19519	62	-59.2	-89.4	222	3
2023-09-28T12:00	19544	61	-59.1	-89.3	221	3
2023-09-28T12:00	19567	61	-59.1	-89.3	220	3
2023-09-28T12:00	19589	61	-59.1	-89.3	219	3
2023-09-28T12:00	19612	61	-59.1	-89.3	215	3
2023-09-28T12:00	19638	60	-59.1	-89.3	211	3
2023-09-28T12:00	19658	60	-59.0	-89.2	206	3
2023-09-28T12:00	19680	60	-58.9	-89.2	202	3
2023-09-28T12:00	19702	60	-58.9	-89.2	201	3
2023-09-28T12:00	19725	60	-59.0	-89.2	204	3
2023-09-28T12:00	19748	59	-58.9	-89.2	211	3
2023-09-28T12:00	19767	59	-58.8	-89.1	219	3
2023-09-28T12:00	19788	59	-58.8	-89.1	227	4
2023-09-28T12:00	19808	59	-58.7	-89.0	232	4
2023-09-28T12:00	19830	59	-58.5	-88.9	233	4
2023-09-28T12:00	19852	58	-58.4	-88.8	229	4
2023-09-28T12:00	19877	58	-58.4	-88.8	220	4
2023-09-28T12:00	19899	58	-58.1	-89.2	210	4
2023-09-28T12:00	19920	58	-57.9	-89.1	200	4
2023-09-28T12:00	19943	58	-57.8	-89.0	192	4
2023-09-28T12:00	19966	57	-57.6	-88.9	186	4
2023-09-28T12:00	19988	57	-57.4	-88.7	182	5
2023-09-28T12:00	20012	57	-57.3	-88.6	179	5
2023-09-28T12:00	20034	57	-57.4	-88.7	177	5
2023-09-28T12:00	20058	57	-57.5	-88.8	176	5
2023-09-28T12:00	20083	56	-57.5	-88.8	177	5
2023-09-28T12:00	20106	56	-57.4	-88.1	178	5
2023-09-28T12:00	20130	56	-57.5	-88.1	180	6
2023-09-28T12:00	20156	56	-57.4	-88.1	182	6
2023-09-28T12:00	20180	55	-57.5	-88.1	183	6
2023-09-28T12:00	20205	55	-57.7	-88.3	184	7
2023-09-28T12:00	20230	55	-57.9	-88.4	185	7
2023-09-28T12:00	20254	55	-58.0	-88.5	185	7
2023-09-28T12:00	20278	55	-58.1	-88.0	186	8
2023-09-28T12:00	20301	54	-58.3	-88.1	187	8
2023-09-28T12:00	20328	54	-58.6	-88.4	188	8
2023-09-28T12:00	20348	54	-58.8	-88.5	190	8
2023-09-28T12:00	20376	54	-58.9	-88.6	192	8
2023-09-28T12:00	20401	54	-59.0	-88.7	195	8
2023-09-28T12:00	20426	53	-59.0	-88.7	198	8
2023-09-28T12:00	20449	53	-59.0	-88.7	202	7
2023-09-28T12:00	20476	53	-59.0	-88.7	207	7
2023-09-28T12:00	20500	53	-59.1	-88.7	213	7
2023-09-28T12:00	20524	53	-59.2	-88.8	220	7
2023-09-28T12:00	20551	52	-59.3	-88.9	227	7
2023-09-28T12:00	20574	52	-59.3	-88.9	233	7
2023-09-28T12:00	20596	52	-59.3	-88.9	239	7
2023-09-28T12:00	20619	52	-59.2	-88.8	243	7
2023-09-28T12:00	20641	52	-59.1	-88.7	246	7
2023-09-28T12:00	20665	51	-58.8	-89.1	247	7
2023-09-28T12:00	20688	51	-58.8	-89.1	248	7
2023-09-28T12:00	20711	51	-58.8	-88.5	249	7
2023-09-28T12:00	20736	51	-58.8	-88.5	250	6
2023-09-28T12:00	20758	51	-58.8	-88.5	252	6
2023-09-28T12:00	20783	50	-58.9	-88.6	254	6
2023-09-28T12:00	20805	50	-58.8	-88.5	256	6
2023-09-28T12:00	20831	50	-58.8	-88.5	258	5
2023-09-28T12:00	20852	50	-58.8	-88.5	259	5
2023-09-28T12:00	20879	50	-58.9	-88.6	259	5
2023-09-28T12:00	20899	49	-59.1	-88.7	259	5
2023-09-28T12:00	20921	49	-59.2	-88.8	259	5
2023-09-28T12:00	20945	49	-59.2	-88.8	258	5
2023-09-28T12:00	20968	49	-59.1	-88.7	256	5
2023-09-28T12:00	20991	49	-59.0	-88.7	256	4
2023-09-28T12:00	21012	49	-58.9	-89.2	256	4
2023-09-28T12:00	21036	48	-58.7	-89.0	257	3
2023-09-28T12:00	21060	48	-58.6	-88.9	261	2
2023-09-28T12:00	21081	48	-58.7	-89.0	265	2
2023-09-28T12:00	21106	48	-58.7	-89.0	268	1
2023-09-28T12:00	21126	48	-58.8	-88.5	266	1
2023-09-28T12:00	21148	48	-59.0	-88.7	254	1
2023-09-28T12:00	21171	47	-59.1	-88.7	238	1
2023-09-28T12:00	21196	47	-59.1	-88.7	228	1
2023-09-28T12:00	21219	47	-59.1	-88.7	223	2
2023-09-28T12:00	21240	47	-59.0	-88.7	221	2
2023-09-28T12:00	21265	47	-59.1	-88.7	221	2
2023-09-28T12:00	21287	46	-59.1	-88.7	224	3
2023-09-28T12:00	21312	46	-59.1	-88.7	228	3
2023-09-28T12:00	21337	46	-59.2	-88.8	233	3
2023-09-28T12:00	21360	46	-59.1	-88.7	239	3
2023-09-28T12:00	21385	46	-59.1	-88.7	245	3
2023-09-28T12:00	21408	46	-59.3	-88.9	249	4
2023-09-28T12:00	21436	45	-59.4	-89.0	252	4
2023-09-28T12:00	21459	45	-59.6	-89.1	254	4
2023-09-28T12:00	21487	45	-59.7	-89.2	256	5
2023-09-28T12:00	21511	45	-59.6	-89.1	258	5
2023-09-28T12:00	21536	45	-59.5	-89.6	259	5
2023-09-28T12:00	21562	45	-59.2	-89.4	260	6
2023-09-28T12:00	21586	44	-58.8	-89.1	260	6
2023-09-28T12:00	21609	44	-58.4	-89.4	260	6
2023-09-28T12:00	21636	44	-58.2	-89.3	258	6
2023-09-28T12:00	21659	44	-58.0	-89.1	256	6
2023-09-28T12:00	21687	44	-58.0	-89.1	254	7
2023-09-28T12:00	21713	43	-58.0	-89.1	253	7
2023-09-28T12:00	21738	43	-58.0	-89.1	253	7
2023-09-28T12:00	21764	43	-57.8	-89.0	253	6
2023-09-28T12:00	21790	43	-57.8	-89.0	254	6
2023-09-28T12:00	21821	43	-57.8	-89.0	256	6
2023-09-28T12:00	21846	43	-57.7	-88.9	258	6
2023-09-28T12:00	21875	42	-57.7	-88.9	259	5
2023-09-28T12:00	21899	42	-57.8	-89.0	259	5
2023-09-28T12:00	21927	42	-58.0	-89.1	258	4
2023-09-28T12:00	21953	42	-58.0	-89.1	254	4
2023-09-28T12:00	21981	42	-58.0	-89.1	250	4
2023-09-28T12:00	22005	41	-58.0	-89.1	246	4
2023-09-28T12:00	22027	41	-57.9	-89.1	243	4
2023-09-28T12:00	22056	41	-57.8	-89.0	242	4
2023-09-28T12:00	22085	41	-57.9	-89.1	241	4
2023-09-28T12:00	22116	41	-57.9	-89.1	240	4
2023-09-28T12:00	22140	41	-57.9	-89.1	240	5
2023-09-28T12:00	22166	40	-57.8	-89.0	240	5
2023-09-28T12:00	22191	40	-57.8	-89.0	240	5
2023-09-28T12:00	22220	40	-57.8	-89.0	241	6
2023-09-28T12:00	22245	40	-57.9	-89.1	242	6
2023-09-28T12:00	22271	40	-57.9	-89.1	244	7
2023-09-28T12:00	22296	40	-57.9	-89.1	247	8
2023-09-28T12:00	22327	39	-58.0	-89.1	250	8
2023-09-28T12:00	22353	39	-58.2	-89.3	253	9
2023-09-28T12:00	22376	39	-58.2	-89.3	257	9
2023-09-28T12:00	22403	39	-58.1	-89.2	260	9
2023-09-28T12:00	22427	39	-58.1	-89.2	262	9
2023-09-28T12:00	22455	39	-58.2	-89.3	264	9
2023-09-28T12:00	22479	38	-58.2	-89.3	265	10
2023-09-28T12:00	22501	38	-58.4	-89.4	265	10
2023-09-28T12:00	22530	38	-58.6	-88.9	266	10
2023-09-28T12:00	22554	38	-58.7	-89.0	267	10
2023-09-28T12:00	22581	38	-58.9	-89.2	270	10
2023-09-28T12:00	22605	38	-59.0	-89.2	273	9
2023-09-28T12:00	22633	38	-59.0	-89.2	277	9
2023-09-28T12:00	22657	37	-58.8	-89.1	281	9
2023-09-28T12:00	22684	37	-58.8	-89.1	285	8
2023-09-28T12:00	22707	37	-59.0	-89.2	289	8
2023-09-28T12:00	22735	37	-59.1	-89.3	293	8
2023-09-28T12:00	22760	37	-59.0	-89.2	297	8
2023-09-28T12:00	22781	37	-59.1	-89.3	300	8
2023-09-28T12:00	22807	37	-59.2	-89.4	304	7
2023-09-28T12:00	22830	36	-59.3	-89.5	308	7
2023-09-28T12:00	22857	36	-59.3	-89.5	313	7
2023-09-28T12:00	22878	36	-59.2	-89.4	318	6
2023-09-28T12:00	22908	36	-59.2	-89.4	323	6
2023-09-28T12:00	22932	36	-59.1	-89.3	327	5
2023-09-28T12:00	22958	36	-59.1	-89.3	332	5
2023-09-28T12:00	22980	36	-59.1	-89.3	337	5
2023-09-28T12:00	23005	35	-59.2	-89.4	342	5
2023-09-28T12:00	23032	35	-59.4	-89.5	348	4
2023-09-28T12:00	23058	35	-59.6	-89.7	357	4
2023-09-28T12:00	23078	35	-59.7	-89.8	10	4
2023-09-28T12:00	23105	35	-59.7	-89.8	27	3
2023-09-28T12:00	23128	35	-59.5	-90.3	46	3
2023-09-28T12:00	23152	35	-59.2	-90.0	64	3
2023-09-28T12:00	23176	34	-59.0	-89.9	81	4
2023-09-28T12:00	23198	34	-58.8	-90.5	97	4
2023-09-28T12:00	23222	34	-58.6	-90.3	111	4
2023-09-28T12:00	23250	34	-58.4	-90.2	124	4
2023-09-28T12:00	23274	34	-58.2	-90.0	136	4
2023-09-28T12:00	23299	34	-58.2	-90.0	147	4
2023-09-28T12:00	23319	34	-58.1	-90.0	157	4
2023-09-28T12:00	23346	34	-58.0	-89.9	165	5
2023-09-28T12:00	23366	33	-58.0	-89.9	171	5
2023-09-28T12:00	23395	33	-58.1	-90.0	177	5
2023-09-28T12:00	23424	33	-58.1	-90.0	184	4
2023-09-28T12:00	23449	33	-57.8	-89.7	193	4
2023-09-28T12:00	23471	33	-57.7	-89.7	205	3
2023-09-28T12:00	23497	33	-57.7	-89.7	220	3
2023-09-28T12:00	23524	33	-57.8	-89.7	235	3
2023-09-28T12:00	23547	32	-58.0	-89.9	247	3
2023-09-28T12:00	23578	32	-57.9	-89.8	255	3
2023-09-28T12:00	23603	32	-57.6	-89.6	259	3
2023-09-28T12:00	23627	32	-57.4	-89.4	259	3
2023-09-28T12:00	23656	32	-57.4	-89.4	253	3
2023-09-28T12:00	23685	32	-57.5	-89.5	243	3
2023-09-28T12:00	23711	32	-57.5	-89.5	232	3
2023-09-28T12:00	23735	32	-57.2	-89.3	225	3
2023-09-28T12:00	23761	31	-57.1	-89.2	222	3
2023-09-28T12:00	23790	31	-57.1	-89.2	224	3
2023-09-28T12:00	23818	31	-57.0	-89.2	228	3
2023-09-28T12:00	23841	31	-57.0	-89.2	233	3
2023-09-28T12:00	23868	31	-57.1	-89.2	238	4
2023-09-28T12:00	23894	31	-57.0	-89.2	243	4
2023-09-28T12:00	23918	31	-56.9	-89.1	249	4
2023-09-28T12:00	23951	30	-56.8	-89.0	255	4
2023-09-28T12:00	23976	30	-56.7	-88.9	259	4
2023-09-28T12:00	23998	30	-56.7	-88.9	261	4
2023-09-28T12:00	24030	30	-56.8	-89.0	263	4
2023-09-28T12:00	24058	30	-56.8	-89.0	264	4
2023-09-28T12:00	24087	30	-56.7	-88.9	268	4
2023-09-28T12:00	24114	30	-56.7	-88.9	274	3
2023-09-28T12:00	24142	30	-56.6	-89.7	282	3
2023-09-28T12:00	24164	29	-56.6	-89.7	287	3
2023-09-28T12:00	24189	29	-56.5	-89.6	288	3
2023-09-28T12:00	24212	29	-56.5	-89.6	286	3
2023-09-28T12:00	24245	29	-56.5	-89.6	281	3
2023-09-28T12:00	24270	29	-56.4	-89.6	274	3
2023-09-28T12:00	24295	29	-56.3	-89.5	268	3
2023-09-28T12:00	24324	29	-56.3	-89.5	261	3
2023-09-28T12:00	24348	29	-56.3	-89.5	254	3
2023-09-28T12:00	24382	28	-56.4	-88.7	249	4
2023-09-28T12:00	24406	28	-56.5	-88.8	246	4
2023-09-28T12:00	24432	28	-56.7	-88.9	246	4
2023-09-28T12:00	24456	28	-56.7	-88.9	248	4
2023-09-28T12:00	24476	28	-56.7	-88.9	251	4
2023-09-28T12:00	24510	28	-56.7	-88.9	257	3
2023-09-28T12:00	24539	28	-56.6	-88.9	264	3
2023-09-28T12:00	24565	28	-56.5	-89.6	272	2
2023-09-28T12:00	24589	28	-56.5	-89.6	281	2
2023-09-28T12:00	24615	27	-56.4	-89.6	290	3
2023-09-28T12:00	24638	27	-56.2	-89.4	297	3
2023-09-28T12:00	24663	27	-56.1	-89.4	302	3
2023-09-28T12:00	24689	27	-56.1	-89.4	306	3
2023-09-28T12:00	24715	27	-56.1	-89.4	309	3
2023-09-28T12:00	24740	27	-56.1	-89.4	310	3
2023-09-28T12:00	24767	27	-56.2	-89.4	309	2
2023-09-28T12:00	24793	27	-56.3	-88.6	305	2
2023-09-28T12:00	24821	27	-56.4	-88.7	293	1
2023-09-28T12:00	24847	26	-56.6	-88.9	268	1
2023-09-28T12:00	24877	26	-56.7	-88.9	241	1
2023-09-28T12:00	24901	26	-56.7	-88.9	228	1
2023-09-28T12:00	24923	26	-56.6	-88.9	225	2
2023-09-28T12:00	24952	26	-56.5	-89.6	228	1
2023-09-28T12:00	24984	26	-56.4	-89.6	236	1
2023-09-28T12:00	25003	26	-56.3	-89.5	249	1
2023-09-28T12:00	25032	26	-56.2	-89.4	262	1
2023-09-28T12:00	25058	26	-56.3	-89.5	258	0
2023-09-28T12:00	25081	25	-56.3	-89.5	198	0
2023-09-28T12:00	25113	25	-56.3	-89.5	182	1
2023-09-28T12:00	25136	25	-56.3	-89.5	186	1
2023-09-28T12:00	25166	25	-56.3	-89.5	193	2
2023-09-28T12:00	25191	25	-56.4	-89.6	203	2
2023-09-28T12:00	25218	25	-56.5	-89.6	213	2
2023-09-28T12:00	25245	25	-56.6	-89.7	224	3
2023-09-28T12:00	25268	25	-56.7	-89.8	233	3
2023-09-28T12:00	25298	25	-56.5	-89.6	242	3
2023-09-28T12:00	25324	25	-56.2	-89.4	250	3
2023-09-28T12:00	25349	24	-55.9	-89.2	256	3
2023-09-28T12:00	25379	24	-55.8	-89.1	260	2
2023-09-28T12:00	25409	24	-55.9	-89.2	264	2
2023-09-28T12:00	25430	24	-55.9	-89.2	267	2
2023-09-28T12:00	25461	24	-55.9	-89.2	270	2
2023-09-28T12:00	25488	24	-55.8	-89.1	274	2
2023-09-28T12:00	25514	24	-55.7	-89.1	277	2
2023-09-28T12:00	25539	24	-55.6	-89.0	279	2
2023-09-28T12:00	25569	24	-55.5	-88.9	279	2
2023-09-28T12:00	25593	24	-55.5	-88.9	276	2
2023-09-28T12:00	25616	23	-55.5	-88.9	271	2
2023-09-28T12:00	25648	23	-55.5	-88.9	265	2
2023-09-28T12:00	25676	23	-55.4	-88.9	257	2
2023-09-28T12:00	25700	23	-55.2	-88.7	249	2
2023-09-28T12:00	25729	23	-55.1	-89.6	242	2
2023-09-28T12:00	25758	23	-55.1	-89.6	237	2
2023-09-28T12:00	25779	23	-55.0	-89.6	236	3
2023-09-28T12:00	25805	23	-54.9	-89.5	237	3
2023-09-28T12:00	25838	23	-54.9	-89.5	241	3
2023-09-28T12:00	25865	23	-55.0	-89.6	246	2
2023-09-28T12:00	25889	22	-55.0	-88.6	250	2
2023-09-28T12:00	25915	22	-55.1	-88.6	251	2
2023-09-28T12:00	25935	22	-55.0	-89.6	247	2
2023-09-28T12:00	25967	22	-54.8	-89.4	239	2
2023-09-28T12:00	25993	22	-54.6	-89.3	231	3
2023-09-28T12:00	26012	22	-54.7	-89.4	224	3
2023-09-28T12:00	26044	22	-54.7	-89.4	219	3
2023-09-28T12:00	26070	22	-54.7	-89.4	216	4
2023-09-28T12:00	26093	22	-54.7	-89.4	214	4
2023-09-28T12:00	26116	22	-54.7	-89.4	214	4
2023-09-28T12:00	26151	22	-54.7	-89.4	215	4
2023-09-28T12:00	26174	22	-54.7	-89.4	218	4
2023-09-28T12:00	26201	21	-54.8	-89.4	222	4
2023-09-28T12:00	26231	21	-54.8	-89.4	227	4
2023-09-28T12:00	26251	21	-54.7	-89.4	232	4
2023-09-28T12:00	26273	21	-54.7	-89.4	236	4
2023-09-28T12:00	26304	21	-54.6	-89.3	237	4
2023-09-28T12:00	26330	21	-54.6	-89.3	237	3
2023-09-28T12:00	26362	21	-54.6	-89.3	237	3
2023-09-28T12:00	26389	21	-54.6	-89.3	240	3
2023-09-28T12:00	26411	21	-54.6	-89.3	249	3
2023-09-28T12:00	26441	21	-54.5	-89.2	261	3
2023-09-28T12:00	26466	21	-54.3	-89.1	275	3
2023-09-28T12:00	26499	20	-54.4	-89.1	288	4
2023-09-28T12:00	26524	20	-54.5	-89.2	298	4
2023-09-28T12:00	26546	20	-54.4	-89.1	305	5
2023-09-28T12:00	26587	20	-54.3	-89.1	309	5
2023-09-28T12:00	26609	20	-54.3	-89.1	309	6
2023-09-28T12:00	26640	20	-54.2	-89.0	307	6
2023-09-28T12:00	26668	20	-54.2	-89.0	303	6
2023-09-28T12:00	26694	20	-54.3	-89.1	297	6
2023-09-28T12:00	26722	20	-54.3	-89.1	291	6
2023-09-28T12:00	26749	20	-54.3	-89.1	286	7
2023-09-28T12:00	26785	20	-54.3	-89.1	281	7
2023-09-28T12:00	26811	19	-54.3	-89.1	278	7
2023-09-28T12:00	26837	19	-54.3	-89.1	276	8
2023-09-28T12:00	26872	19	-54.3	-89.1	276	8
2023-09-28T12:00	26897	19	-54.1	-88.9	278	8
2023-09-28T12:00	26927	19	-53.9	-88.8	281	8
2023-09-28T12:00	26953	19	-53.7	-88.7	285	8
2023-09-28T12:00	26984	19	-53.6	-88.6	291	8
2023-09-28T12:00	27014	19	-53.7	-88.7	298	7
2023-09-28T12:00	27041	19	-53.6	-88.6	305	7
2023-09-28T12:00	27070	19	-53.4	-88.4	313	7
2023-09-28T12:00	27106	19	-53.3	-88.4	319	6
2023-09-28T12:00	27137	19	-53.4	-88.4	325	6
2023-09-28T12:00	27165	18	-53.6	-88.6	330	6
2023-09-28T12:00	27197	18	-53.8	-88.7	334	5
2023-09-28T12:00	27222	18	-54.0	-88.9	338	5
2023-09-28T12:00	27256	18	-54.2	-89.0	342	5
2023-09-28T12:00	27281	18	-54.4	-89.1	348	4
2023-09-28T12:00	27309	18	-54.5	-88.2	356	4
2023-09-28T12:00	27350	18	-54.7	-88.4	4	4
2023-09-28T12:00	27375	18	-54.8	-88.4	13	4
2023-09-28T12:00	27401	18	-54.9	-88.5	19	4
2023-09-28T12:00	27427	18	-55.0	-88.6	22	4
2023-09-28T12:00	27455	18	-55.1	-88.6	20	4
2023-09-28T12:00	27487	18	-55.2	-88.7	13	4
2023-09-28T12:00	27514	17	-55.3	-88.8	4	4
2023-09-28T12:00	27538	17	-55.3	-89.8	354	4
2023-09-28T12:00	27570	17	-55.0	-89.6	347	5
2023-09-28T12:00	27597	17	-54.8	-89.4	342	5
2023-09-28T12:00	27629	17	-54.8	-89.4	338	5
2023-09-28T12:00	27651	17	-54.7	-89.4	335	5
2023-09-28T12:00	27688	17	-54.6	-89.3	332	5
2023-09-28T12:00	27712	17	-54.5	-89.2	330	4
2023-09-28T12:00	27736	17	-54.4	-89.1	329	4
2023-09-28T12:00	27761	17	-54.3	-89.1	330	3
2023-09-28T12:00	27789	17	-54.1	-88.9	332	3
2023-09-28T12:00	27815	17	-53.9	-88.8	333	2
2023-09-28T12:00	27833	17	-53.8	-88.7	330	2
2023-09-28T12:00	27868	17	-53.6	-88.6	318	2
2023-09-28T12:00	27891	16	-53.5	-88.5	299	2
2023-09-28T12:00	27927	16	-53.3	-88.4	283	2
2023-09-28T12:00	27950	16	-53.2	-88.3	274	3
2023-09-28T12:00	27972	16	-53.1	-88.2	268	4
2023-09-28T12:00	27997	16	-53.0	-88.2	265	4
2023-09-28T12:00	28019	16	-52.9	-88.1	263	4
2023-09-28T12:00	28047	16	-52.7	-87.9	264	4
2023-09-28T12:00	28075	16	-52.6	-87.9	268	4
2023-09-28T12:00	28106	16	-52.5	-87.8	277	4
2023-09-28T12:00	28131	16	-52.4	-87.7	291	4
2023-09-28T12:00	28154	16	-52.5	-87.8	307	4
2023-09-28T12:00	28182	16	-52.6	-87.9	319	4
2023-09-28T12:00	28209	16	-52.6	-87.9	328	5
2023-09-28T12:00	28239	16	-52.6	-87.9	333	6
2023-09-28T12:00	28266	16	-52.7	-87.9	335	6
2023-09-28T12:00	28291	15	-52.7	-87.9	335	7
2023-09-28T12:00	28316	15	-52.5	-87.8	333	7
2023-09-28T12:00	28348	15	-52.4	-87.7	332	7
2023-09-28T12:00	28377	15	-52.5	-87.8	330	6
2023-09-28T12:00	28399	15	-52.6	-87.9	327	6
2023-09-28T12:00	28429	15	-52.6	-87.9	324	6
2023-09-28T12:00	28457	15	-52.6	-87.9	321	5
2023-09-28T12:00	28494	15	-52.8	-88.0	317	5
2023-09-28T12:00	28515	15	-52.9	-88.1	312	5
2023-09-28T12:00	28548	15	-53.0	-88.2	305	5
2023-09-28T12:00	28571	15	-53.1	-88.2	299	5
2023-09-28T12:00	28606	15	-53.2	-88.3	293	5
2023-09-28T12:00	28632	15	-53.3	-88.4	291	5
2023-09-28T12:00	28661	15	-53.4	-88.4	290	6
2023-09-28T12:00	28687	15	-53.4	-88.4	291	6
2023-09-28T12:00	28717	14	-53.3	-88.4	293	7
2023-09-28T12:00	28747	14	-53.1	-88.2	294	7
2023-09-28T12:00	28776	14	-52.9	-88.1	294	7
2023-09-28T12:00	28801	14	-52.8	-88.0	295	6
2023-09-28T12:00	28833	14	-52.8	-88.0	296	6
2023-09-28T12:00	28855	14	-52.7	-87.9	298	6
2023-09-28T12:00	28885	14	-52.7	-87.9	301	5
2023-09-28T12:00	28904	14	-52.8	-88.0	304	5
2023-09-28T12:00	28935	14	-52.7	-87.9	306	5
2023-09-28T12:00	28968	14	-52.5	-87.8	305	5
2023-09-28T12:00	28990	14	-52.4	-87.7	303	5
2023-09-28T12:00	29015	14	-52.2	-87.6	300	5
2023-09-28T12:00	29040	14	-52.1	-87.5	298	5
2023-09-28T12:00	29065	14	-51.9	-87.4	297	5
2023-09-28T12:00	29083	14	-51.8	-87.3	300	5
2023-09-28T12:00	29111	14	-51.6	-87.2	305	4
2023-09-28T12:00	29146	14	-51.4	-87.0	313	4
2023-09-28T12:00	29175	14	-51.3	-87.0	320	4
2023-09-28T12:00	29196	13	-51.1	-86.8	326	5
2023-09-28T12:00	29217	13	-51.0	-86.7	330	5
2023-09-28T12:00	29240	13	-50.7	-86.5	333	5
2023-09-28T12:00	29267	13	-50.3	-86.2	336	6
2023-09-28T12:00	29293	13	-50.1	-86.1	339	6
2023-09-28T12:00	29310	13	-50.1	-86.1	343	5
2023-09-28T12:00	29341	13	-50.1	-86.1	349	5
2023-09-28T12:00	29361	13	-50.1	-86.1	356	5
2023-09-28T12:00	29389	13	-50.1	-86.1	4	5
2023-09-28T12:00	29410	13	-50.1	-86.1	11	5
2023-09-28T12:00	29435	13	-50.0	-86.0	16	5
2023-09-28T12:00	29456	13	-50.0	-86.0	18	5
2023-09-28T12:00	29487	13	-49.9	-86.0	15	5
2023-09-28T12:00	29509	13	-49.7	-85.8	10	4
2023-09-28T12:00	29535	13	-49.6	-85.8	0	4
2023-09-28T12:00	29551	13	-49.5	-85.7	347	4
2023-09-28T12:00	29579	13	-49.5	-85.7	333	4
2023-09-28T12:00	29605	13	-49.5	-85.7	318	4
2023-09-28T12:00	29638	13	-49.6	-85.8	304	5
2023-09-28T12:00	29660	13	-49.6	-85.8	294	5
2023-09-28T12:00	29692	12	-49.6	-85.8	287	6
2023-09-28T12:00	29714	12	-49.6	-85.8	283	7
2023-09-28T12:00	29738	12	-49.6	-85.8	282	8
2023-09-28T12:00	29764	12	-49.4	-85.6	282	9
2023-09-28T12:00	29789	12	-49.2	-85.5	284	9
2023-09-28T12:00	29825	12	-49.2	-85.5	287	10
2023-09-28T12:00	29847	12	-49.1	-85.4	290	10
2023-09-28T12:00	29873	12	-49.1	-85.4	292	11
2023-09-28T12:00	29901	12	-49.0	-85.3	293	12
2023-09-28T12:00	29928	12	-49.1	-85.4	294	13
2023-09-28T12:00	29966	12	-48.9	-85.3	295	14
2023-09-28T12:00	29992	12	-48.6	-85.0	295	15
2023-09-28T12:00	30020	12	-48.5	-85.0	295	16
2023-09-28T12:00	30051	12	-48.5	-85.0	295	16
2023-09-28T12:00	30074	12	-48.6	-85.0	296	17
2023-09-28T12:00	30099	12	-48.7	-85.1	297	16
2023-09-28T12:00	30135	12	-48.8	-85.2	298	16
2023-09-28T12:00	30156	12	-48.9	-85.3	300	15
2023-09-28T12:00	30190	12	-49.1	-85.4	302	15
2023-09-28T12:00	30212	12	-49.3	-85.5	305	14
2023-09-28T12:00	30250	11	-49.5	-85.7	307	13
2023-09-28T12:00	30277	11	-49.6	-85.8	310	12
2023-09-28T12:00	30301	11	-49.8	-85.9	314	12
2023-09-28T12:00	30332	11	-49.9	-86.0	317	11
2023-09-28T12:00	30368	11	-50.0	-86.0	319	11
2023-09-28T12:00	30384	11	-49.9	-86.0	321	10
2023-09-28T12:00	30430	11	-49.8	-85.9	322	10
2023-09-28T12:00	30456	11	-49.8	-85.9	323	10
2023-09-28T12:00	30478	11	-49.8	-85.9	323	9
2023-09-28T12:00	30521	11	-49.8	-85.9	323	9
2023-09-28T12:00	30538	11	-49.9	-86.0	323	8
2023-09-28T12:00	30568	11	-50.0	-86.0	322	7
2023-09-28T12:00	30604	11	-50.2	-86.2	319	7
2023-09-28T12:00	30635	11	-50.5	-86.4	315	6
2023-09-28T12:00	30655	11	-50.7	-86.5	310	6
2023-09-28T12:00	30681	11	-50.7	-86.5	305	6
2023-09-28T12:00	30710	11	-50.5	-86.4	301	6
2023-09-28T12:00	30741	11	-50.4	-86.3	298	7
2023-09-28T12:00	30770	11	-50.4	-86.3	296	8
2023-09-28T12:00	30792	11	-50.4	-86.3	294	8
2023-09-28T12:00	30819	11	-50.5	-86.4	292	9
2023-09-28T12:00	30854	10	-50.7	-86.5	290	10
2023-09-28T12:00	30877	10	-50.8	-86.6	288	10
2023-09-28T12:00	30902	10	-50.9	-86.7	286	11
2023-09-28T12:00	30932	10	-51.1	-86.8	285	12
2023-09-28T12:00	30964	10	-51.2	-86.9	285	12
2023-09-28T12:00	30997	10	-51.4	-87.0	284	13
2023-09-28T12:00	31031	10	-51.5	-87.1	285	14
2023-09-28T12:00	31050	10	-51.6	-87.2	286	14
2023-09-28T12:00	31074	10	-51.7	-87.2	287	15
2023-09-28T12:00	31097	10	-51.7	-87.2	289	15
2023-09-28T12:00	31127	10	-51.8	-87.3	292	14
2023-09-28T12:00	31150	10	-51.8	-87.3	295	14
2023-09-28T12:00	31171	10	-51.8	-87.3	298	14
2023-09-28T12:00	31204	10	-51.7	-87.2	302	14
2023-09-28T12:00	31227	10	-51.5	-87.1	305	14
2023-09-28T12:00	31253	10	-51.4	-87.0	308	14
2023-09-28T12:00	31287	10	-51.3	-87.0	311	14
2023-09-28T12:00	31309	10	-51.1	-86.8	314	14
2023-09-28T12:00	31338	10	-50.8	-86.6	318	14
2023-09-28T12:00	31361	10	-50.6	-86.5	321	14
2023-09-28T12:00	31384	10	-50.6	-86.5	324	14
2023-09-28T12:00	31415	10	-50.6	-86.5	327	13
2023-09-28T12:00	31441	10	-50.6	-86.5	329	13
2023-09-28T12:00	31464	10	-50.7	-86.5	331	12
2023-09-28T12:00	31495	9	-50.8	-86.6	333	12
2023-09-28T12:00	31534	9	-51.0	-86.7	335	11
2023-09-28T12:00	31560	9	-51.2	-86.9	336	11
2023-09-28T12:00	31576	9	-51.3	-87.0	337	10
2023-09-28T12:00	31615	9	-51.2	-86.9	335	10
2023-09-28T12:00	31637	9	-51.2	-86.9	332	9
2023-09-28T12:00	31663	9	-51.3	-87.0	328	9
2023-09-28T12:00	31694	9	-51.3	-87.0	324	9
2023-09-28T12:00	31716	9	-51.2	-86.9	319	9
2023-09-28T12:00	31744	9	-51.1	-86.8	316	9
2023-09-28T12:00	31766	9	-51.1	-86.8	313	9
2023-09-28T12:00	31801	9	-51.1	-86.8	311	10
2023-09-28T12:00	31835	9	-51.2	-86.9	311	10
2023-09-28T12:00	31837	9	-51.2	-86.9	311	10
2023-09-28T12:00	31884	9	-51.2	-86.9	312	11
2023-09-28T12:00	31889	9	-51.2	-86.9	314	12
2023-09-28T12:00	31918	9	-51.3	-87.0	316	13
2023-09-28T12:00	31949	9	-51.3	-87.0	317	14
2023-09-28T12:00	31973	9	-51.2	-86.9	318	15
2023-09-28T12:00	32003	9	-51.2	-86.9	319	16
2023-09-28T12:00	32029	9	-51.0	-86.7	319	17
2023-09-28T12:00	32059	9	-50.8	-86.6	319	17
2023-09-28T12:00	32080	9	-50.7	-86.5	318	17
2023-09-28T12:00	32117	9	-50.5	-86.4	317	17
2023-09-28T18:00	114	1005	23.8	13.6	210	1
2023-09-28T18:00	143	1001	24.5	13.5	202	1
2023-09-28T18:00	167	998	24.3	13.4	187	1
2023-09-28T18:00	196	995	24.1	13.5	185	1
2023-09-28T18:00	221	992	23.9	13.4	186	2
2023-09-28T18:00	244	990	23.7	13.4	188	2
2023-09-28T18:00	268	987	23.5	13.0	188	2
2023-09-28T18:00	293	984	23.3	12.8	186	2
2023-09-28T18:00	318	981	23.1	12.8	184	2
2023-09-28T18:00	346	978	22.8	12.6	183	3
2023-09-28T18:00	369	976	22.6	12.2	183	3
2023-09-28T18:00	391	973	22.4	12.3	186	3
2023-09-28T18:00	419	970	22.2	12.3	189	3
2023-09-28T18:00	440	968	22.0	12.2	193	3
2023-09-28T18:00	461	965	21.8	12.1	196	3
2023-09-28T18:00	484	963	21.5	12.0	199	3
2023-09-28T18:00	509	960	21.3	12.2	200	3
2023-09-28T18:00	536	957	21.1	12.3	201	3
2023-09-28T18:00	559	955	20.8	12.2	201	3
2023-09-28T18:00	581	952	20.6	12.2	200	3
2023-09-28T18:00	604	949	20.4	12.2	200	3
2023-09-28T18:00	631	947	20.1	12.2	200	3
2023-09-28T18:00	655	944	19.9	12.3	202	3
2023-09-28T18:00	678	942	19.7	12.4	204	3
2023-09-28T18:00	700	939	19.4	12.4	207	3
2023-09-28T18:00	721	937	19.2	12.3	208	4
2023-09-28T18:00	745	934	19.0	12.3	209	4
2023-09-28T18:00	769	932	18.8	12.3	210	4
2023-09-28T18:00	795	929	18.5	12.1	211	4
2023-09-28T18:00	821	926	18.3	12.1	212	4
2023-09-28T18:00	844	923	18.1	12.1	213	4
2023-09-28T18:00	869	921	17.8	11.9	216	4
2023-09-28T18:00	896	918	17.6	11.6	219	4
2023-09-28T18:00	921	915	17.5	10.9	223	4
2023-09-28T18:00	947	913	17.3	10.6	226	4
2023-09-28T18:00	971	910	17.2	10.3	228	4
2023-09-28T18:00	997	907	17.0	9.8	228	4
2023-09-28T18:00	1026	904	16.8	9.3	226	3
2023-09-28T18:00	1055	901	16.9	6.3	222	3
2023-09-28T18:00	1084	898	17.0	4.2	214	3
2023-09-28T18:00	1113	895	17.6	-1.7	204	2
2023-09-28T18:00	1140	892	17.7	-3.2	192	2
2023-09-28T18:00	1164	890	17.6	-3.6	180	2
2023-09-28T18:00	1189	887	17.6	-4.3	170	2
2023-09-28T18:00	1210	885	17.6	-4.9	164	1
2023-09-28T18:00	1235	882	17.5	-5.4	166	1
2023-09-28T18:00	1263	879	17.3	-5.4	262	0
2023-09-28T18:00	1296	876	17.0	-5.6	332	1
2023-09-28T18:00	1321	873	16.8	-5.6	340	1
2023-09-28T18:00	1346	871	16.6	-5.0	346	2
2023-09-28T18:00	1369	868	16.4	-3.4	349	2
2023-09-28T18:00	1395	866	16.2	-1.9	350	3
2023-09-28T18:00	1423	863	16.0	-1.3	350	3
2023-09-28T18:00	1454	860	15.7	-1.5	351	3
2023-09-28T18:00	1477	857	15.6	-1.5	353	3
2023-09-28T18:00	1501	855	15.4	-1.6	357	3
2023-09-28T18:00	1526	852	15.3	-1.9	1	3
2023-09-28T18:00	1551	850	15.1	-0.3	4	3
2023-09-28T18:00	1577	847	14.9	-1.7	2	2
2023-09-28T18:00	1599	845	14.8	-2.0	355	2
2023-09-28T18:00	1624	843	14.7	-2.6	344	2
2023-09-28T18:00	1646	840	14.6	-3.7	335	2
2023-09-28T18:00	1673	838	14.5	-4.0	329	2
2023-09-28T18:00	1699	835	14.3	-3.9	327	2
2023-09-28T18:00	1724	833	14.2	-4.7	326	2
2023-09-28T18:00	1754	830	14.2	-6.3	324	2
2023-09-28T18:00	1782	827	14.2	-6.6	322	2
2023-09-28T18:00	1807	824	14.1	-6.4	321	2
2023-09-28T18:00	1835	822	14.1	-7.0	321	3
2023-09-28T18:00	1865	819	14.0	-7.5	322	3
2023-09-28T18:00	1892	816	13.9	-7.5	323	4
2023-09-28T18:00	1915	814	13.7	-7.6	323	4
2023-09-28T18:00	1943	811	13.5	-7.5	322	5
2023-09-28T18:00	1966	809	13.3	-7.3	322	5
2023-09-28T18:00	1991	807	13.1	-7.2	321	5
2023-09-28T18:00	2020	804	12.8	-6.8	321	5
2023-09-28T18:00	2050	801	12.6	-5.9	320	5
2023-09-28T18:00	2081	798	12.4	-6.6	318	5
2023-09-28T18:00	2110	795	12.4	-8.5	317	4
2023-09-28T18:00	2138	793	12.2	-8.8	316	4
2023-09-28T18:00	2167	790	12.0	-9.0	315	4
2023-09-28T18:00	2196	787	11.7	-9.3	315	4
2023-09-28T18:00	2228	784	11.5	-9.4	314	4
2023-09-28T18:00	2254	782	11.3	-9.4	314	4
2023-09-28T18:00	2287	779	11.0	-9.5	313	4
2023-09-28T18:00	2313	776	10.8	-10.2	312	4
2023-09-28T18:00	2339	774	10.8	-12.3	310	4
2023-09-28T18:00	2375	771	10.8	-11.1	307	4
2023-09-28T18:00	2400	768	10.7	-11.6	302	4
2023-09-28T18:00	2428	766	10.5	-12.2	296	4
2023-09-28T18:00	2457	763	10.5	-11.7	290	4
2023-09-28T18:00	2484	760	10.3	-10.8	286	4
2023-09-28T18:00	2516	758	10.0		285	4
2023-09-28T18:00	2546	755	9.9	-6.6	285	4
2023-09-28T18:00	2575	752	9.7	-7.0	285	4
2023-09-28T18:00	2603	750	9.6	-7.6	284	4
2023-09-28T18:00	2630	747	9.4	-7.7	283	4
2023-09-28T18:00	2657	745	9.2	-7.9	281	4
2023-09-28T18:00	2686	742	8.9	-7.7	281	4
2023-09-28T18:00	2714	739	8.7	-5.0	281	4
2023-09-28T18:00	2745	737	8.4	-5.2	282	4
2023-09-28T18:00	2774	734	8.1	-5.3	285	4
2023-09-28T18:00	2802	732	7.8	-4.9	288	4
2023-09-28T18:00	2831	729	7.5	-4.9	291	4
2023-09-28T18:00	2858	727	7.3	-4.8	293	4
2023-09-28T18:00	2888	724	7.0	-4.7	293	4
2023-09-28T18:00	2921	721	6.7	-4.6	292	4
2023-09-28T18:00	2951	719	6.4	-4.8	292	4
2023-09-28T18:00	2978	716	6.1	-4.9	293	3
2023-09-28T18:00	3005	714	5.8	-4.9	294	3
2023-09-28T18:00	3034	711	5.6	-4.7	296	3
2023-09-28T18:00	3061	709	5.3	-4.3	296	3
2023-09-28T18:00	3093	706	5.1	-4.0	294	3
2023-09-28T18:00	3121	704	4.9	-4.2	291	3
2023-09-28T18:00	3151	701	4.7	-4.5	288	3
2023-09-28T18:00	3179	699	4.5	-5.4	286	3
2023-09-28T18:00	3204	697	4.3	-5.5	286	3
2023-09-28T18:00	3234	694	4.1	-6.7	285	3
2023-09-28T18:00	3263	692	3.9	-8.1	283	3
2023-09-28T18:00	3289	689	3.7	-5.7	279	3
2023-09-28T18:00	3319	687	3.4	-4.8	274	3
2023-09-28T18:00	3348	684	3.2	-5.0	268	3
2023-09-28T18:00	3378	682	3.1	-4.9	260	3
2023-09-28T18:00	3408	679	3.0	-5.2	251	3
2023-09-28T18:00	3437	677	2.9	-6.0	243	3
2023-09-28T18:00	3467	675	2.8	-6.4	239	3
2023-09-28T18:00	3493	672	2.7	-6.6	237	4
2023-09-28T18:00	3520	670	2.6	-6.3	239	4
2023-09-28T18:00	3550	668	2.3	-4.9	242	4
2023-09-28T18:00	3576	665	2.1	-4.9	246	4
2023-09-28T18:00	3604	663	1.9	-5.3	249	4
2023-09-28T18:00	3633	661	1.7	-6.2	251	5
2023-09-28T18:00	3661	659	1.5	-6.4	253	5
2023-09-28T18:00	3688	656	1.3	-6.5	252	4
2023-09-28T18:00	3715	654	1.0	-6.5	251	5
2023-09-28T18:00	3739	652	0.8	-6.2	249	5
2023-09-28T18:00	3765	650	0.7	-6.6	246	5
2023-09-28T18:00	3796	648	0.4	-6.2	244	5
2023-09-28T18:00	3824	645	0.2	-6.1	240	5
2023-09-28T18:00	3849	643	-0.1	-6.1	236	5
2023-09-28T18:00	3874	641	-0.3	-6.1	233	5
2023-09-28T18:00	3899	639	-0.5	-6.2	231	5
2023-09-28T18:00	3923	637	-0.7	-6.4	231	5
2023-09-28T18:00	3951	635	-0.8	-6.4	233	5
2023-09-28T18:00	3979	633	-1.1	-6.3	235	5
2023-09-28T18:00	4010	630	-1.4	-6.3	236	5
2023-09-28T18:00	4037	628	-1.7	-6.3	236	5
2023-09-28T18:00	4063	626	-1.9	-6.4	235	5
2023-09-28T18:00	4091	624	-2.1	-6.5	234	6
2023-09-28T18:00	4117	622	-2.2	-6.6	233	6
2023-09-28T18:00	4144	620	-2.3	-7.1	232	6
2023-09-28T18:00	4172	618	-2.2	-7.4	231	7
2023-09-28T18:00	4199	616	-2.4	-7.8	230	7
2023-09-28T18:00	4228	613	-2.5	-9.3	229	7
2023-09-28T18:00	4256	611	-2.5	-11.7	229	7
2023-09-28T18:00	4284	609	-2.5	-13.4	229	7
2023-09-28T18:00	4310	607	-2.6	-12.8	230	7
2023-09-28T18:00	4336	605	-2.9	-12.1	231	7
2023-09-28T18:00	4364	603	-3.2	-10.2	232	7
2023-09-28T18:00	4392	601	-3.5	-10.1	234	7
2023-09-28T18:00	4421	599	-3.7	-11.9	235	7
2023-09-28T18:00	4446	597	-3.8	-13.4	236	7
2023-09-28T18:00	4475	595	-3.8	-17.1	237	7
2023-09-28T18:00	4502	593	-4.0	-12.4	236	7
2023-09-28T18:00	4529	590	-4.2	-12.4	235	8
2023-09-28T18:00	4558	588	-4.5	-11.8	233	8
2023-09-28T18:00	4587	586	-4.7	-12.1	232	8
2023-09-28T18:00	4614	584	-5.0	-11.7	230	8
2023-09-28T18:00	4644	582	-5.1	-11.7	229	9
2023-09-28T18:00	4674	580	-5.0	-13.1	228	9
2023-09-28T18:00	4705	577	-5.2	-14.2	227	9
2023-09-28T18:00	4735	575	-5.4	-15.4	227	9
2023-09-28T18:00	4760	573	-5.6	-16.0	227	10
2023-09-28T18:00	4791	571	-5.8	-16.9	227	10
2023-09-28T18:00	4819	569	-5.8	-22.2	227	11
2023-09-28T18:00	4846	567	-5.6	-24.3	227	11
2023-09-28T18:00	4875	565	-5.6	-24.1	226	11
2023-09-28T18:00	4904	563	-5.7	-25.0	224	11
2023-09-28T18:00	4934	561	-5.9	-19.3	222	11
2023-09-28T18:00	4965	558	-6.1	-19.3	221	11
2023-09-28T18:00	4997	556	-6.1	-25.4	220	11
2023-09-28T18:00	5027	554	-6.3	-24.4	220	11
2023-09-28T18:00	5055	552	-6.5	-24.5	221	11
2023-09-28T18:00	5084	550	-6.7	-24.3	223	11
2023-09-28T18:00	5113	548	-6.9	-24.3	224	11
2023-09-28T18:00	5149	546	-7.1	-24.1	225	11
2023-09-28T18:00	5181	543	-7.3	-24.3	226	12
2023-09-28T18:00	5211	541	-7.5	-24.3	225	12
2023-09-28T18:00	5240	539	-7.8	-24.5	225	12
2023-09-28T18:00	5270	537	-8.0	-24.5	225	12
2023-09-28T18:00	5300	535	-8.3	-24.7	225	12
2023-09-28T18:00	5334	533	-8.6	-24.7	226	12
2023-09-28T18:00	5363	531	-8.9	-24.8	226	12
2023-09-28T18:00	5394	529	-9.2	-25.0	227	12
2023-09-28T18:00	5423	527	-9.4	-24.7	228	12
2023-09-28T18:00	5453	525	-9.7	-24.2	228	12
2023-09-28T18:00	5483	523	-10.0	-23.8	229	12
2023-09-28T18:00	5514	521	-10.2	-23.8	229	12
2023-09-28T18:00	5546	518	-10.5	-24.0	228	13
2023-09-28T18:00	5577	516	-10.8	-23.4	228	13
2023-09-28T18:00	5605	514	-11.0	-20.0	228	13
2023-09-28T18:00	5636	512	-11.2	-18.9	229	13
2023-09-28T18:00	5665	510	-11.4	-20.3	229	13
2023-09-28T18:00	5695	508	-11.6	-20.8	230	13
2023-09-28T18:00	5727	506	-11.7	-21.6	230	13
2023-09-28T18:00	5756	504	-12.0	-19.3	229	13
2023-09-28T18:00	5786	502	-12.1	-18.6	229	14
2023-09-28T18:00	5818	500	-12.2	-20.3	229	14
2023-09-28T18:00	5848	498	-12.3	-22.4	228	14
2023-09-28T18:00	5877	496	-12.4	-23.6	228	14
2023-09-28T18:00	5907	494	-12.6	-18.5	228	14
2023-09-28T18:00	5936	493	-12.7	-18.2	228	13
2023-09-28T18:00	5968	491	-12.9	-18.5	228	13
2023-09-28T18:00	5997	489	-13.1	-18.1	228	13
2023-09-28T18:00	6027	487	-13.3	-18.7	228	13
2023-09-28T18:00	6058	485	-13.5	-18.9	229	12
2023-09-28T18:00	6089	483	-13.8	-19.0	229	12
2023-09-28T18:00	6117	481	-14.0	-18.8	230	12
2023-09-28T18:00	6148	479	-14.3	-18.7	231	11
2023-09-28T18:00	6177	477	-14.4	-18.5	232	11
2023-09-28T18:00	6209	475	-14.6	-18.6	234	11
2023-09-28T18:00	6238	473	-14.9	-18.7	236	11
2023-09-28T18:00	6269	471	-15.1	-19.0	238	11
2023-09-28T18:00	6301	469	-15.4	-19.2	241	11
2023-09-28T18:00	6332	467	-15.6	-19.4	242	11
2023-09-28T18:00	6365	466	-15.7	-20.3	242	11
2023-09-28T18:00	6393	464	-16.0	-20.4	242	11
2023-09-28T18:00	6416	462	-16.2	-20.4	241	11
2023-09-28T18:00	6447	460	-16.5	-20.6	241	11
2023-09-28T18:00	6478	458	-16.8	-20.8	241	11
2023-09-28T18:00	6510	457	-17.1	-20.9	241	11
2023-09-28T18:00	6542	455	-17.4	-20.8	241	11
2023-09-28T18:00	6573	453	-17.6	-20.9	241	11
2023-09-28T18:00	6607	451	-18.0	-21.4	241	11
2023-09-28T18:00	6639	449	-18.2	-21.4	239	11
2023-09-28T18:00	6673	447	-18.5	-21.1	238	11
2023-09-28T18:00	6704	445	-18.7	-21.1	236	11
2023-09-28T18:00	6737	443	-19.1	-21.1	235	11
2023-09-28T18:00	6765	441	-19.3	-21.3	233	11
2023-09-28T18:00	6795	439	-19.5	-23.1	232	11
2023-09-28T18:00	6827	438	-19.7	-23.1	231	11
2023-09-28T18:00	6859	436	-20.0	-23.5	229	10
2023-09-28T18:00	6886	434	-20.2	-23.8	228	10
2023-09-28T18:00	6916	432	-20.4	-24.7	226	10
2023-09-28T18:00	6947	431	-20.6	-26.8	225	10
2023-09-28T18:00	6971	429	-20.7	-27.3	225	10
2023-09-28T18:00	6998	428	-20.9	-28.7	224	10
2023-09-28T18:00	7022	426	-21.1	-28.4	223	10
2023-09-28T18:00	7054	425	-21.2	-28.6	222	10
2023-09-28T18:00	7075	423	-21.3	-28.3	222	10
2023-09-28T18:00	7098	422	-21.5	-26.8	221	10
2023-09-28T18:00	7118	421	-21.7	-26.2	221	10
2023-09-28T18:00	7140	420	-21.8	-27.8	222	10
2023-09-28T18:00	7160	418	-22.0	-28.6	224	10
2023-09-28T18:00	7182	417	-22.1	-31.2	226	11
2023-09-28T18:00	7205	416	-21.9	-35.6	228	11
2023-09-28T18:00	7227	415	-21.8	-35.7	230	11
2023-09-28T18:00	7248	413	-21.9	-35.2	232	11
2023-09-28T18:00	7273	412	-22.1	-35.2	234	11
2023-09-28T18:00	7300	410	-22.3	-35.6	236	12
2023-09-28T18:00	7330	409	-22.6	-36.4	238	12
2023-09-28T18:00	7364	407	-22.7	-37.8	239	12
2023-09-28T18:00	7392	405	-22.8	-40.1	240	12
2023-09-28T18:00	7421	404	-22.8	-42.9	240	12
2023-09-28T18:00	7449	402	-23.0	-43.4	241	12
2023-09-28T18:00	7480	401	-23.3	-44.8	241	12
2023-09-28T18:00	7509	399	-23.5	-46.1	241	11
2023-09-28T18:00	7537	397	-23.7	-47.8	242	11
2023-09-28T18:00	7560	396	-23.9	-48.3	243	10
2023-09-28T18:00	7592	394	-24.2	-51.8	244	10
2023-09-28T18:00	7623	393	-24.4	-52.3	245	10
2023-09-28T18:00	7646	391	-24.4	-54.3	245	9
2023-09-28T18:00	7678	390	-24.6	-55.2	246	9
2023-09-28T18:00	7711	388	-24.5	-55.4	247	8
2023-09-28T18:00	7740	386	-24.6	-55.5	250	7
2023-09-28T18:00	7772	385	-24.7	-55.3	253	6
2023-09-28T18:00	7806	383	-24.9	-55.4	258	6
2023-09-28T18:00	7843	381	-25.1	-55.3	264	5
2023-09-28T18:00	7875	379	-25.4	-55.3	271	5
2023-09-28T18:00	7910	378	-25.6	-54.8	278	5
2023-09-28T18:00	7942	376	-25.7	-54.5	287	4
2023-09-28T18:00	7972	374	-26.0	-54.7	297	4
2023-09-28T18:00	8006	373	-26.3	-54.4	310	4
2023-09-28T18:00	8038	371	-26.6	-54.4	324	4
2023-09-28T18:00	8072	369	-26.8	-54.0	336	5
2023-09-28T18:00	8103	368	-27.0	-53.5	343	6
2023-09-28T18:00	8135	366	-27.1	-52.3	348	7
2023-09-28T18:00	8162	364	-27.3	-51.9	352	7
2023-09-28T18:00	8195	363	-27.5	-51.6	355	8
2023-09-28T18:00	8225	361	-27.7	-50.9	358	9
2023-09-28T18:00	8256	360	-27.9	-49.9	360	9
2023-09-28T18:00	8285	358	-28.1	-49.3	2	9
2023-09-28T18:00	8309	357	-28.3	-49.4	2	9
2023-09-28T18:00	8333	356	-28.5	-49.3	2	9
2023-09-28T18:00	8353	355	-28.7	-49.2	1	9
2023-09-28T18:00	8376	354	-28.9	-49.2	360	9
2023-09-28T18:00	8399	353	-29.1	-49.2	359	9
2023-09-28T18:00	8423	352	-29.4	-49.2	358	9
2023-09-28T18:00	8447	350	-29.5	-48.7	356	9
2023-09-28T18:00	8472	349	-29.7	-48.5	355	9
2023-09-28T18:00	8498	348	-29.9	-48.7	353	9
2023-09-28T18:00	8528	346	-30.2	-49.0	351	9
2023-09-28T18:00	8558	345	-30.5	-49.0	350	10
2023-09-28T18:00	8592	343	-30.8	-47.8	349	10
2023-09-28T18:00	8621	342	-31.1	-46.5	349	10
2023-09-28T18:00	8653	340	-31.4	-47.0	349	10
2023-09-28T18:00	8680	339	-31.6	-47.2	350	10
2023-09-28T18:00	8702	338	-31.9	-46.5	351	11
2023-09-28T18:00	8732	337	-32.0	-48.4	351	11
2023-09-28T18:00	8758	335	-32.2	-48.6	351	11
2023-09-28T18:00	8783	334	-32.4	-47.7	350	11
2023-09-28T18:00	8806	333	-32.6	-47.5	349	11
2023-09-28T18:00	8839	332	-33.0	-47.0	346	11
2023-09-28T18:00	8866	330	-33.2	-45.4	344	11
2023-09-28T18:00	8894	329	-33.4		342	11
2023-09-28T18:00	8920	328	-33.6	-45.2	341	11
2023-09-28T18:00	8946	326	-33.8	-45.1	340	10
2023-09-28T18:00	8978	325	-34.1	-45.5	339	10
2023-09-28T18:00	9010	324	-34.4	-46.4	338	10
2023-09-28T18:00	9041	322	-34.6	-47.7	337	10
2023-09-28T18:00	9075	321	-34.9	-48.4	337	11
2023-09-28T18:00	9099	319	-35.1	-48.3	336	11
2023-09-28T18:00	9124	318	-35.3	-48.3	335	11
2023-09-28T18:00	9151	317	-35.6	-48.7	334	11
2023-09-28T18:00	9179	316	-35.8	-48.7	334	11
2023-09-28T18:00	9209	314	-36.1	-48.8	333	10
2023-09-28T18:00	9238	313	-36.4	-49.2	333	10
2023-09-28T18:00	9270	312	-36.7	-49.2	334	10
2023-09-28T18:00	9300	310	-36.9	-50.3	334	10
2023-09-28T18:00	9325	309	-37.1	-51.3	334	10
2023-09-28T18:00	9357	308	-37.4	-50.7	333	11
2023-09-28T18:00	9395	306	-37.7	-50.9	332	11
2023-09-28T18:00	9422	305	-38.0	-51.2	330	11
2023-09-28T18:00	9449	304	-38.2	-50.7	329	11
2023-09-28T18:00	9477	302	-38.4	-50.5	327	11
2023-09-28T18:00	9510	301	-38.7	-50.4	326	11
2023-09-28T18:00	9533	300	-38.9	-50.4	325	10
2023-09-28T18:00	9563	299	-39.2	-50.2	323	10
2023-09-28T18:00	9586	298	-39.4	-50.6	322	11
2023-09-28T18:00	9614	296	-39.7	-50.9	321	11
2023-09-28T18:00	9641	295	-40.0	-51.6	321	11
2023-09-28T18:00	9666	294	-40.2	-52.1	320	11
2023-09-28T18:00	9693	293	-40.4	-52.7	319	11
2023-09-28T18:00	9715	292	-40.6	-52.9	318	11
2023-09-28T18:00	9740	291	-40.8	-52.6	317	11
2023-09-28T18:00	9763	290	-41.0	-51.3	315	11
2023-09-28T18:00	9790	289	-41.1	-54.2	315	11
2023-09-28T18:00	9820	288	-41.4	-55.5	315	11
2023-09-28T18:00	9843	287	-41.6	-54.8	315	11
2023-09-28T18:00	9878	285	-41.9	-54.5	316	11
2023-09-28T18:00	9903	284	-42.1		317	10
2023-09-28T18:00	9927	283	-42.3	-55.1	317	10
2023-09-28T18:00	9949	282	-42.6	-55.1	316	10
2023-09-28T18:00	9973	281	-42.8	-55.1	315	10
2023-09-28T18:00	9998	280	-43.1	-55.1	314	10
2023-09-28T18:00	10028	279	-43.3	-55.1	313	10
2023-09-28T18:00	10057	278	-43.6	-55.4	312	10
2023-09-28T18:00	10080	277	-43.8	-55.5	311	11
2023-09-28T18:00	10102	276	-44.0	-55.3	309	11
2023-09-28T18:00	10124	275	-44.1	-55.4	307	11
2023-09-28T18:00	10152	274	-44.3	-55.7	306	12
2023-09-28T18:00	10183	273	-44.5	-56.1	305	12
2023-09-28T18:00	10209	271	-44.8	-56.5	304	13
2023-09-28T18:00	10235	270	-45.0	-56.7	304	13
2023-09-28T18:00	10256	269	-45.1	-57.0	305	13
2023-09-28T18:00	10287	268	-45.3	-57.1	305	14
2023-09-28T18:00	10319	267	-45.5	-57.2	305	14
2023-09-28T18:00	10345	266	-45.7	-57.1	306	14
2023-09-28T18:00	10370	265	-45.9	-57.5	307	15
2023-09-28T18:00	10394	264	-46.1	-57.9	308	15
2023-09-28T18:00	10420	263	-46.4	-57.9	308	15
2023-09-28T18:00	10445	262	-46.6	-58.0	309	15
2023-09-28T18:00	10466	261	-46.8	-58.2	310	15
2023-09-28T18:00	10488	260	-47.0	-58.2	311	15
2023-09-28T18:00	10511	259	-47.2	-58.2	311	15
2023-09-28T18:00	10534	259	-47.4	-58.3	312	15
2023-09-28T18:00	10557	258	-47.6	-58.6	312	15
2023-09-28T18:00	10583	257	-47.8	-58.9	311	16
2023-09-28T18:00	10611	256	-48.0	-59.5	311	16
2023-09-28T18:00	10641	254	-48.1	-59.8	311	17
2023-09-28T18:00	10675	253	-48.3	-59.9	311	17
2023-09-28T18:00	10707	252	-48.6	-60.0	311	17
2023-09-28T18:00	10736	251	-48.9	-59.8	312	18
2023-09-28T18:00	10768	250	-49.1	-59.4	312	18
2023-09-28T18:00	10791	249	-49.3	-59.4	313	18
2023-09-28T18:00	10815	248	-49.6	-59.5	313	19
2023-09-28T18:00	10839	247	-49.8	-59.7	313	19
2023-09-28T18:00	10861	246	-50.0	-59.7	312	19
2023-09-28T18:00	10884	245	-50.1	-59.1	311	19
2023-09-28T18:00	10906	244	-50.3	-58.8	311	19
2023-09-28T18:00	10925	244	-50.4	-59.0	310	19
2023-09-28T18:00	10947	243	-50.6	-59.5	309	19
2023-09-28T18:00	10968	242	-50.7	-59.7	308	20
2023-09-28T18:00	10988	241	-50.8	-60.0	308	20
2023-09-28T18:00	11010	240	-51.0	-60.1	308	20
2023-09-28T18:00	11032	240	-51.1	-60.1	309	20
2023-09-28T18:00	11055	239	-51.3	-60.1	310	20
2023-09-28T18:00	11087	237	-51.6	-60.2	310	21
2023-09-28T18:00	11124	236	-51.7	-60.3	312	22
2023-09-28T18:00	11148	235	-51.8	-60.4	313	22
2023-09-28T18:00	11173	234	-52.0	-60.4	314	23
2023-09-28T18:00	11199	233	-52.2	-60.2	315	23
2023-09-28T18:00	11227	233	-52.3	-60.0	317	23
2023-09-28T18:00	11252	232	-52.5	-60.1	318	23
2023-09-28T18:00	11275	231	-52.6	-60.3	319	24
2023-09-28T18:00	11297	230	-52.6	-60.3	320	24
2023-09-28T18:00	11319	229	-52.7	-60.4	321	24
2023-09-28T18:00	11341	228	-52.8	-60.5	321	25
2023-09-28T18:00	11365	227	-52.9	-60.6	322	26
2023-09-28T18:00	11400	226	-53.2	-60.7	323	27
2023-09-28T18:00	11436	225	-53.4	-60.6	324	27
2023-09-28T18:00	11460	224	-53.4	-60.3	325	28
2023-09-28T18:00	11488	223	-53.7	-60.3	325	28
2023-09-28T18:00	11520	222	-54.0	-60.2	325	29
2023-09-28T18:00	11561	221	-54.3	-60.1	325	30
2023-09-28T18:00	11592	220	-54.6	-60.1	325	31
2023-09-28T18:00	11626	219	-54.9	-60.2	325	32
2023-09-28T18:00	11662	217	-55.1	-60.3	324	33
2023-09-28T18:00	11695	216	-55.4	-60.5	324	33
2023-09-28T18:00	11721	215	-55.5	-60.6	324	34
2023-09-28T18:00	11747	214	-55.7	-60.8	324	35
2023-09-28T18:00	11771	214	-55.9	-61.1	323	35
2023-09-28T18:00	11791	213	-56.0	-61.3	323	35
2023-09-28T18:00	11812	212	-56.0	-61.5	323	35
2023-09-28T18:00	11832	212	-56.0	-61.4	323	35
2023-09-28T18:00	11853	211	-56.0	-61.2	323	34
2023-09-28T18:00	11874	210	-56.1	-60.9	323	34
2023-09-28T18:00	11894	210	-56.3	-61.1	323	33
2023-09-28T18:00	11916	209	-56.4	-61.6	324	32
2023-09-28T18:00	11937	208	-56.4	-62.3	324	32
2023-09-28T18:00	11958	207	-56.5	-63.2	324	31
2023-09-28T18:00	11979	207	-56.4	-63.9	324	30
2023-09-28T18:00	12001	206	-56.4	-64.3	324	30
2023-09-28T18:00	12024	205	-56.5	-64.6	324	29
2023-09-28T18:00	12045	205	-56.6	-64.8	324	29
2023-09-28T18:00	12070	204	-56.7	-64.9	324	28
2023-09-28T18:00	12091	203	-56.8	-65.0	323	28
2023-09-28T18:00	12115	202	-57.0	-65.1	323	28
2023-09-28T18:00	12133	202	-57.1	-65.0	322	28
2023-09-28T18:00	12155	201	-57.3	-65.1	321	28
2023-09-28T18:00	12180	200	-57.5	-65.4	320	28
2023-09-28T18:00	12205	199	-57.6	-65.7	319	29
2023-09-28T18:00	12236	198	-57.7	-66.0	318	29
2023-09-28T18:00	12271	197	-57.9	-66.3	318	29
2023-09-28T18:00	12303	196	-58.1	-66.5	319	28
2023-09-28T18:00	12339	195	-58.1	-66.8	319	27
2023-09-28T18:00	12376	194	-58.1	-67.6	320	26
2023-09-28T18:00	12413	193	-58.1	-68.5	322	25
2023-09-28T18:00	12458	192	-58.0	-69.2	323	23
2023-09-28T18:00	12500	190	-58.3	-70.0	324	22
2023-09-28T18:00	12538	189	-58.6	-70.5	325	21
2023-09-28T18:00	12570	188	-58.7	-70.9	326	21
2023-09-28T18:00	12594	187	-58.7	-71.2	328	21
2023-09-28T18:00	12641	186	-59.0	-71.5	330	20
2023-09-28T18:00	12671	185	-59.3	-71.5	331	19
2023-09-28T18:00	12711	184	-59.6	-71.4	333	19
2023-09-28T18:00	12746	183	-60.0	-71.4	333	18
2023-09-28T18:00	12779	182	-60.3	-71.4	333	17
2023-09-28T18:00	12818	181	-60.6	-71.4	333	16
2023-09-28T18:00	12847	180	-61.0	-71.5	331	15
2023-09-28T18:00	12884	179	-61.3	-71.7	330	15
2023-09-28T18:00	12916	178	-61.5	-71.9	328	15
2023-09-28T18:00	12943	177	-61.7	-72.0	327	15
2023-09-28T18:00	12989	176	-62.1	-72.3	327	15
2023-09-28T18:00	13025	175	-62.4	-72.5	326	15
2023-09-28T18:00	13064	174	-62.7	-72.8	325	14
2023-09-28T18:00	13095	173	-62.8	-73.1	322	13
2023-09-28T18:00	13132	172	-62.9	-73.4	317	12
2023-09-28T18:00	13166	171	-63.2	-73.8	309	11
2023-09-28T18:00	13208	170	-63.5	-74.3	300	10
2023-09-28T18:00	13239	169	-63.5	-74.7	291	10
2023-09-28T18:00	13262	168	-63.4	-75.0	285	10
2023-09-28T18:00	13292	168	-63.4	-75.5	281	10
2023-09-28T18:00	13322	167	-63.3	-76.0	279	11
2023-09-28T18:00	13349	166	-63.0	-76.2	279	11
2023-09-28T18:00	13373	165	-63.1	-76.6	280	12
2023-09-28T18:00	13394	165	-63.0	-77.0	282	12
2023-09-28T18:00	13417	164	-62.8	-77.3	284	12
2023-09-28T18:00	13438	164	-62.2	-77.2	286	12
2023-09-28T18:00	13458	163	-62.2	-77.8	288	12
2023-09-28T18:00	13479	163	-61.6	-77.7	288	12
2023-09-28T18:00	13497	162	-61.7	-78.0	289	12
2023-09-28T18:00	13517	162	-61.8	-78.3	288	12
2023-09-28T18:00	13538	161	-61.7	-78.3	288	12
2023-09-28T18:00	13558	160	-61.6	-78.4	287	12
2023-09-28T18:00	13579	160	-61.5	-78.6	286	12
2023-09-28T18:00	13601	159	-61.0	-78.6	286	12
2023-09-28T18:00	13624	159	-60.1	-78.4	286	11
2023-09-28T18:00	13649	158	-60.2	-79.0	286	10
2023-09-28T18:00	13678	157	-60.2	-79.7	286	10
2023-09-28T18:00	13706	157	-58.9	-79.4	286	9
2023-09-28T18:00	13745	156	-58.4	-79.6	285	8
2023-09-28T18:00	13780	155	-58.7	-80.1	284	8
2023-09-28T18:00	13808	154	-58.9	-80.2	282	7
2023-09-28T18:00	13834	154	-59.1	-80.1	281	7
2023-09-28T18:00	13858	153	-59.3	-80.0	279	7
2023-09-28T18:00	13880	152	-59.5	-79.9	278	7
2023-09-28T18:00	13902	152	-59.7	-80.0	276	7
2023-09-28T18:00	13927	151	-59.8	-79.8	274	7
2023-09-28T18:00	13951	151	-60.0	-79.8	271	7
2023-09-28T18:00	13978	150	-60.2	-79.9	269	8
2023-09-28T18:00	14003	149	-60.4	-79.9	268	8
2023-09-28T18:00	14027	149	-60.6	-80.2	267	8
2023-09-28T18:00	14051	148	-60.8	-80.5	267	9
2023-09-28T18:00	14076	148	-60.5	-80.5	269	9
2023-09-28T18:00	14102	147	-60.4	-80.5	272	10
2023-09-28T18:00	14126	147	-60.4	-80.8	275	11
2023-09-28T18:00	14153	146	-60.5	-81.0	278	12
2023-09-28T18:00	14186	145	-60.6	-81.1	280	12
2023-09-28T18:00	14210	145	-60.4	-81.0	282	13
2023-09-28T18:00	14232	144	-60.4	-81.2	283	13
2023-09-28T18:00	14255	144	-60.3	-81.2	284	13
2023-09-28T18:00	14275	143	-60.4	-81.5	283	13
2023-09-28T18:00	14297	143	-60.3	-81.5	283	12
2023-09-28T18:00	14318	142	-60.2	-81.6	282	12
2023-09-28T18:00	14340	142	-60.3	-81.7	281	12
2023-09-28T18:00	14361	141	-60.4	-81.9	280	12
2023-09-28T18:00	14380	141	-60.4	-81.9	279	11
2023-09-28T18:00	14400	140	-60.4	-81.9	277	11
2023-09-28T18:00	14423	140	-60.6	-82.1	276	12
2023-09-28T18:00	14443	139	-60.7	-82.3	276	12
2023-09-28T18:00	14465	139	-60.7	-82.3	275	12
2023-09-28T18:00	14486	138	-60.7	-82.3	275	12
2023-09-28T18:00	14505	138	-60.7	-82.5	275	12
2023-09-28T18:00	14525	137	-60.8	-82.5	275	12
2023-09-28T18:00	14543	137	-60.9	-82.6	275	13
2023-09-28T18:00	14565	137	-61.0	-82.7	276	12
2023-09-28T18:00	14584	136	-61.0	-82.9	277	12
2023-09-28T18:00	14602	136	-61.0	-82.9	277	12
2023-09-28T18:00	14623	135	-61.0	-82.9	278	12
2023-09-28T18:00	14644	135	-61.0	-82.9	280	12
2023-09-28T18:00	14665	134	-61.0	-82.9	282	12
2023-09-28T18:00	14686	134	-61.1	-82.8	284	12
2023-09-28T18:00	14707	133	-61.0	-82.7	287	12
2023-09-28T18:00	14728	133	-61.1	-82.8	290	12
2023-09-28T18:00	14750	133	-61.3	-82.8	292	13
2023-09-28T18:00	14771	132	-61.5	-83.0	294	13
2023-09-28T18:00	14791	132	-61.6	-83.0	295	14
2023-09-28T18:00	14814	131	-61.6	-82.9	296	14
2023-09-28T18:00	14835	131	-61.6	-82.9	297	14
2023-09-28T18:00	14856	130	-61.7	-83.1	298	14
2023-09-28T18:00	14881	130	-61.8	-83.2	299	13
2023-09-28T18:00	14906	129	-61.7	-83.3	299	12
2023-09-28T18:00	14928	129	-61.4	-83.0	298	11
2023-09-28T18:00	14952	128	-61.2	-83.0	295	10
2023-09-28T18:00	14981	128	-61.3	-83.1	291	10
2023-09-28T18:00	15010	127	-61.4	-83.2	287	9
2023-09-28T18:00	15042	126	-61.5	-83.1	282	8
2023-09-28T18:00	15067	126	-61.7	-83.3	278	8
2023-09-28T18:00	15091	125	-61.7	-83.1	273	7
2023-09-28T18:00	15115	125	-61.9	-83.3	268	7
2023-09-28T18:00	15140	124	-62.0	-83.2	265	7
2023-09-28T18:00	15162	124	-62.2	-83.4	262	7
2023-09-28T18:00	15182	124	-62.4	-83.4	261	7
2023-09-28T18:00	15205	123	-62.5	-83.5	260	8
2023-09-28T18:00	15228	123	-62.7	-83.5	259	8
2023-09-28T18:00	15252	122	-62.8	-83.6	259	9
2023-09-28T18:00	15274	122	-62.9	-83.5	259	9
2023-09-28T18:00	15295	121	-63.0	-83.6	260	10
2023-09-28T18:00	15316	121	-63.1	-83.7	262	10
2023-09-28T18:00	15337	121	-63.2	-83.9	264	11
2023-09-28T18:00	15358	120	-63.3	-84.1	267	11
2023-09-28T18:00	15378	120	-62.6	-83.8	269	11
2023-09-28T18:00	15400	119	-61.9	-83.6	271	11
2023-09-28T18:00	15422	119	-61.8	-83.7	273	11
2023-09-28T18:00	15444	118	-61.7	-83.8	274	12
2023-09-28T18:00	15467	118	-61.8	-83.8	276	12
2023-09-28T18:00	15489	118	-61.8	-83.8	278	12
2023-09-28T18:00	15511	117	-61.9	-83.9	280	12
2023-09-28T18:00	15533	117	-62.0	-84.0	282	12
2023-09-28T18:00	15555	116	-62.1	-84.1	283	12
2023-09-28T18:00	15577	116	-62.0	-84.2	283	12
2023-09-28T18:00	15599	116	-62.0	-84.2	282	11
2023-09-28T18:00	15623	115	-61.7	-84.1	280	11
2023-09-28T18:00	15644	115	-61.6	-84.2	276	11
2023-09-28T18:00	15667	114	-60.9	-83.9	273	10
2023-09-28T18:00	15688	114	-60.9	-83.9	270	10
2023-09-28T18:00	15710	113	-60.8	-83.8	269	10
2023-09-28T18:00	15730	113	-60.9	-83.9	269	10
2023-09-28T18:00	15750	113	-61.0	-84.1	271	10
2023-09-28T18:00	15773	112	-61.0	-84.1	273	9
2023-09-28T18:00	15793	112	-61.0	-84.1	275	9
2023-09-28T18:00	15814	112	-60.7	-84.1	277	9
2023-09-28T18:00	15834	111	-60.5	-83.9	279	9
2023-09-28T18:00	15855	111	-60.6	-84.2	279	8
2023-09-28T18:00	15882	110	-60.7	-84.3	278	7
2023-09-28T18:00	15909	110	-60.3	-84.2	275	7
2023-09-28T18:00	15932	110	-60.0	-84.0	272	6
2023-09-28T18:00	15957	109	-60.1	-84.3	268	6
2023-09-28T18:00	15978	109	-60.0	-84.2	265	6
2023-09-28T18:00	16002	108	-60.2	-84.1	262	6
2023-09-28T18:00	16027	108	-60.4	-84.3	259	6
2023-09-28T18:00	16053	107	-60.6	-84.2	257	6
2023-09-28T18:00	16081	107	-60.9	-84.3	255	7
2023-09-28T18:00	16105	107	-61.1	-84.2	254	7
2023-09-28T18:00	16129	106	-61.3	-84.4	255	8
2023-09-28T18:00	16149	106	-61.5	-84.5	256	8
2023-09-28T18:00	16173	105	-61.6	-84.6	259	8
2023-09-28T18:00	16194	105	-61.5	-84.7	262	8
2023-09-28T18:00	16217	105	-61.4	-84.7	265	9
2023-09-28T18:00	16240	104	-61.0	-84.5	268	9
2023-09-28T18:00	16264	104	-60.9	-84.5	270	9
2023-09-28T18:00	16284	103	-60.8	-84.6	271	9
2023-09-28T18:00	16306	103	-60.7	-84.5	272	8
2023-09-28T18:00	16328	103	-60.5	-84.4	272	8
2023-09-28T18:00	16350	102	-60.4	-84.3	272	8
2023-09-28T18:00	16370	102	-60.4	-84.3	270	8
2023-09-28T18:00	16391	102	-60.6	-84.5	268	7
2023-09-28T18:00	16414	101	-60.6	-84.5	264	7
2023-09-28T18:00	16435	101	-60.6	-84.5	259	7
2023-09-28T18:00	16457	101	-60.7	-84.5	253	7
2023-09-28T18:00	16478	100	-60.4	-84.5	248	7
2023-09-28T18:00	16500	100	-60.0	-84.4	245	7
2023-09-28T18:00	16518	100	-60.0	-84.4	244	7
2023-09-28T18:00	16541	99	-59.9	-84.6	246	7
2023-09-28T18:00	16562	99	-59.7	-84.5	248	8
2023-09-28T18:00	16582	99	-59.5	-84.3	250	8
2023-09-28T18:00	16603	98	-59.5	-84.3	252	9
2023-09-28T18:00	16625	98	-59.5	-84.3	254	9
2023-09-28T18:00	16647	98	-59.6	-84.4	256	10
2023-09-28T18:00	16670	97	-59.7	-84.5	257	10
2023-09-28T18:00	16694	97	-59.8	-84.5	259	11
2023-09-28T18:00	16716	97	-60.0	-84.7	262	11
2023-09-28T18:00	16741	96	-59.9	-84.6	264	12
2023-09-28T18:00	16761	96	-59.6	-84.4	266	12
2023-09-28T18:00	16786	95	-59.5	-84.3	269	12
2023-09-28T18:00	16811	95	-59.5	-84.6	271	11
2023-09-28T18:00	16834	95	-59.6	-84.6	274	11
2023-09-28T18:00	16858	94	-59.6	-84.9	276	10
2023-09-28T18:00	16879	94	-59.4	-84.7	278	9
2023-09-28T18:00	16904	94	-59.0	-84.7	280	8
2023-09-28T18:00	16929	93	-58.7	-84.8	280	7
2023-09-28T18:00	16953	93	-58.5	-84.6	279	6
2023-09-28T18:00	16975	93	-58.1	-84.6	277	6
2023-09-28T18:00	17000	92	-57.9	-84.5	274	5
2023-09-28T18:00	17020	92	-57.8	-84.4	271	5
2023-09-28T18:00	17045	92	-57.9	-84.5	270	5
2023-09-28T18:00	17066	91	-58.1	-84.6	270	5
2023-09-28T18:00	17090	91	-58.1	-84.3	272	5
2023-09-28T18:00	17113	91	-58.0	-84.2	275	5
2023-09-28T18:00	17137	90	-58.2	-84.4	277	5
2023-09-28T18:00	17158	90	-58.4	-84.6	278	5
2023-09-28T18:00	17181	90	-58.6	-84.7	276	5
2023-09-28T18:00	17204	89	-58.7	-84.8	274	5
2023-09-28T18:00	17227	89	-58.6	-84.7	270	5
2023-09-28T18:00	17249	89	-58.6	-84.4	265	5
2023-09-28T18:00	17270	88	-58.7	-84.5	260	5
2023-09-28T18:00	17293	88	-58.9	-84.6	255	5
2023-09-28T18:00	17317	88	-59.0	-84.7	251	5
2023-09-28T18:00	17338	87	-59.1	-84.8	248	5
2023-09-28T18:00	17359	87	-59.2	-84.9	248	6
2023-09-28T18:00	17383	87	-59.3	-85.0	250	6
2023-09-28T18:00	17404	87	-59.5	-85.1	253	6
2023-09-28T18:00	17428	86	-59.6	-85.2	257	7
2023-09-28T18:00	17449	86	-59.7	-85.3	261	7
2023-09-28T18:00	17474	86	-59.3	-85.0	264	7
2023-09-28T18:00	17495	85	-59.2	-85.2	265	7
2023-09-28T18:00	17517	85	-59.1	-85.1	264	6
2023-09-28T18:00	17544	85	-59.1	-85.1	260	5
2023-09-28T18:00	17565	84	-59.0	-85.0	255	5
2023-09-28T18:00	17591	84	-59.0	-85.0	249	4
2023-09-28T18:00	17612	84	-59.1	-85.1	242	4
2023-09-28T18:00	17637	83	-59.0	-85.0	237	4
2023-09-28T18:00	17660	83	-58.9	-84.9	234	4
2023-09-28T18:00	17686	83	-58.9	-84.9	232	4
2023-09-28T18:00	17707	82	-58.9	-84.9	230	5
2023-09-28T18:00	17732	82	-59.1	-85.1	229	5
2023-09-28T18:00	17755	82	-59.3	-85.2	228	6
2023-09-28T18:00	17779	82	-59.3	-85.2	227	6
2023-09-28T18:00	17802	81	-59.1	-85.1	227	6
2023-09-28T18:00	17829	81	-59.2	-85.2	227	7
2023-09-28T18:00	17853	81	-59.3	-85.2	228	7
2023-09-28T18:00	17877	80	-59.3	-85.2	229	8
2023-09-28T18:00	17903	80	-59.3	-85.2	230	8
2023-09-28T18:00	17926	80	-59.4	-85.3	231	8
2023-09-28T18:00	17951	79	-59.5	-85.4	232	9
2023-09-28T18:00	17973	79	-59.6	-85.5	233	9
2023-09-28T18:00	17998	79	-59.8	-85.6	234	9
2023-09-28T18:00	18021	78	-59.9	-85.7	235	9
2023-09-28T18:00	18044	78	-59.6	-85.5	236	9
2023-09-28T18:00	18069	78	-59.5	-85.4	236	9
2023-09-28T18:00	18089	78	-59.5	-85.4	236	9
2023-09-28T18:00	18109	77	-59.7	-85.6	236	8
2023-09-28T18:00	18134	77	-59.8	-85.6	236	8
2023-09-28T18:00	18160	77	-59.9	-85.4	235	8
2023-09-28T18:00	18183	76	-60.0	-85.5	236	8
2023-09-28T18:00	18206	76	-60.2	-85.7	237	8
2023-09-28T18:00	18231	76	-60.4	-85.8	238	8
2023-09-28T18:00	18253	76	-60.6	-85.7	242	8
2023-09-28T18:00	18278	75	-60.7	-85.8	245	9
2023-09-28T18:00	18304	75	-60.8	-85.8	250	9
2023-09-28T18:00	18327	75	-60.8	-86.1	254	10
2023-09-28T18:00	18351	74	-60.9	-86.2	257	10
2023-09-28T18:00	18373	74	-60.6	-86.0	261	10
2023-09-28T18:00	18400	74	-60.5	-85.9	265	10
2023-09-28T18:00	18423	74	-60.4	-86.1	268	10
2023-09-28T18:00	18446	73	-60.4	-86.1	271	10
2023-09-28T18:00	18470	73	-60.5	-86.2	273	10
2023-09-28T18:00	18492	73	-60.5	-86.2	274	10
2023-09-28T18:00	18516	72	-60.5	-86.2	275	11
2023-09-28T18:00	18538	72	-60.3	-86.3	275	10
2023-09-28T18:00	18564	72	-60.0	-86.1	277	10
2023-09-28T18:00	18586	72	-59.8	-85.9	278	10
2023-09-28T18:00	18610	71	-59.7	-86.2	281	9
2023-09-28T18:00	18633	71	-59.7	-86.2	283	8
2023-09-28T18:00	18655	71	-59.8	-85.9	286	7
2023-09-28T18:00	18681	71	-59.9	-86.0	289	6
2023-09-28T18:00	18701	70	-60.0	-86.4	291	6
2023-09-28T18:00	18726	70	-59.8	-86.3	292	5
2023-09-28T18:00	18749	70	-59.4	-86.0	291	4
2023-09-28T18:00	18775	70	-59.3	-85.9	288	4
2023-09-28T18:00	18799	69	-59.4	-86.0	280	3
2023-09-28T18:00	18821	69	-59.5	-86.0	267	3
2023-09-28T18:00	18841	69	-59.4	-86.0	251	3
2023-09-28T18:00	18864	69	-59.3	-86.2	237	3
2023-09-28T18:00	18886	68	-59.0	-86.0	227	4
2023-09-28T18:00	18912	68	-58.8	-85.9	221	4
2023-09-28T18:00	18935	68	-58.7	-85.8	218	4
2023-09-28T18:00	18962	67	-58.8	-85.9	218	4
2023-09-28T18:00	18984	67	-58.9	-85.9	219	4
2023-09-28T18:00	19008	67	-58.9	-85.6	223	4
2023-09-28T18:00	19030	67	-59.1	-85.7	225	4
2023-09-28T18:00	19053	66	-59.3	-85.9	226	4
2023-09-28T18:00	19078	66	-59.4	-86.0	225	4
2023-09-28T18:00	19102	66	-59.4	-86.0	222	4
2023-09-28T18:00	19125	66	-59.3	-85.9	219	4
2023-09-28T18:00	19146	65	-59.3	-85.9	215	4
2023-09-28T18:00	19169	65	-59.4	-86.0	212	5
2023-09-28T18:00	19196	65	-59.5	-86.0	210	5
2023-09-28T18:00	19220	65	-59.5	-86.0	209	5
2023-09-28T18:00	19244	64	-59.5	-86.0	210	5
2023-09-28T18:00	19267	64	-59.3	-85.9	212	5
2023-09-28T18:00	19292	64	-59.4	-86.3	215	6
2023-09-28T18:00	19315	64	-59.1		218	6
2023-09-28T18:00	19341	63	-59.1		221	6
2023-09-28T18:00	19362	63	-59.1	-85.7	224	7
2023-09-28T18:00	19389	63	-59.2	-85.8	227	7
2023-09-28T18:00	19413	63	-59.4	-86.0	230	7
2023-09-28T18:00	19439	63	-59.5	-86.0	235	7
2023-09-28T18:00	19460	62	-59.4	-86.0	240	7
2023-09-28T18:00	19486	62	-59.3	-86.2	244	7
2023-09-28T18:00	19511	62	-59.2	-86.2	247	7
2023-09-28T18:00	19536	62	-59.1		248	7
2023-09-28T18:00	19560	61	-59.0	-86.0	248	7
2023-09-28T18:00	19584	61	-58.8	-85.9	247	7
2023-09-28T18:00	19608	61	-58.8	-86.2	244	6
2023-09-28T18:00	19632	61	-58.7	-86.1	242	6
2023-09-28T18:00	19655	60	-58.6	-86.1	239	6
2023-09-28T18:00	19680	60	-58.1	-85.7	237	6
2023-09-28T18:00	19705	60	-58.1	-85.7	237	5
2023-09-28T18:00	19727	60	-58.1	-85.7	237	5
2023-09-28T18:00	19753	59	-58.2	-85.8	238	5
2023-09-28T18:00	19777	59	-58.3	-85.5	239	5
2023-09-28T18:00	19804	59	-58.5	-85.6	241	5
2023-09-28T18:00	19829	59	-58.5	-85.6	244	4
2023-09-28T18:00	19852	59	-58.5	-85.6	246	4
2023-09-28T18:00	19876	58	-58.5	-85.6	249	4
2023-09-28T18:00	19900	58	-58.6	-85.7	251	4
2023-09-28T18:00	19925	58	-58.6	-85.7	252	4
2023-09-28T18:00	19948	58	-58.6	-85.7	253	4
2023-09-28T18:00	19975	57	-58.5	-85.6	254	5
2023-09-28T18:00	19998	57	-58.3	-85.5	256	5
2023-09-28T18:00	20022	57	-58.4	-85.5	258	6
2023-09-28T18:00	20046	57	-58.4	-85.5	260	7
2023-09-28T18:00	20069	57	-58.6	-85.7	262	8
2023-09-28T18:00	20094	56	-58.7	-85.8	263	8
2023-09-28T18:00	20118	56	-58.7	-85.4	264	9
2023-09-28T18:00	20143	56	-58.7	-85.4	265	9
2023-09-28T18:00	20165	56	-58.7	-85.4	267	9
2023-09-28T18:00	20193	55	-58.9	-85.6	270	9
2023-09-28T18:00	20215	55	-59.0	-85.7	274	9
2023-09-28T18:00	20238	55	-58.8	-85.9	278	9
2023-09-28T18:00	20264	55	-58.7	-85.8	283	9
2023-09-28T18:00	20288	55	-58.7	-85.8	287	8
2023-09-28T18:00	20310	54	-58.8	-85.9	291	8
2023-09-28T18:00	20335	54	-58.7	-85.8	295	7
2023-09-28T18:00	20361	54	-58.5	-85.6	299	6
2023-09-28T18:00	20382	54	-58.3	-85.5	303	6
2023-09-28T18:00	20406	54	-58.2	-85.8	306	6
2023-09-28T18:00	20434	53	-58.3	-85.5	308	5
2023-09-28T18:00	20461	53	-58.4	-85.5	309	5
2023-09-28T18:00	20480	53	-58.5	-85.6	311	5
2023-09-28T18:00	20507	53	-58.3	-85.5	313	5
2023-09-28T18:00	20531	53	-58.3	-85.5	316	5
2023-09-28T18:00	20555	52	-58.4	-85.5	319	5
2023-09-28T18:00	20583	52	-58.4	-85.5	323	4
2023-09-28T18:00	20607	52	-58.4	-85.5	325	3
2023-09-28T18:00	20633	52	-58.2	-85.4	324	3
2023-09-28T18:00	20659	51	-58.2	-85.4	318	2
2023-09-28T18:00	20685	51	-58.3	-85.5	304	1
2023-09-28T18:00	20710	51	-58.4	-85.5	273	1
2023-09-28T18:00	20733	51	-58.5	-85.6	233	1
2023-09-28T18:00	20760	51	-58.6	-85.7	215	1
2023-09-28T18:00	20786	50	-58.6	-85.7	213	2
2023-09-28T18:00	20811	50	-58.6	-85.7	218	2
2023-09-28T18:00	20839	50	-58.6	-85.7	225	2
2023-09-28T18:00	20866	50	-58.5	-85.6	232	2
2023-09-28T18:00	20889	50	-58.5	-85.6	238	3
2023-09-28T18:00	20915	49	-58.5	-85.6	244	3
2023-09-28T18:00	20938	49	-58.3	-85.8	247	3
2023-09-28T18:00	20965	49	-58.2	-85.8	248	3
2023-09-28T18:00	20989	49	-58.3	-85.8	246	3
2023-09-28T18:00	21013	49	-58.4	-85.9	241	3
2023-09-28T18:00	21040	48	-58.2	-85.8	236	3
2023-09-28T18:00	21064	48	-58.1	-85.7	231	4
2023-09-28T18:00	21087	48	-58.1	-85.7	227	4
2023-09-28T18:00	21111	48	-58.1	-85.3	225	4
2023-09-28T18:00	21143	48	-58.1	-85.3	225	4
2023-09-28T18:00	21162	48	-58.3	-85.5	227	4
2023-09-28T18:00	21189	47	-58.4	-85.5	230	4
2023-09-28T18:00	21212	47	-58.4	-85.5	232	4
2023-09-28T18:00	21240	47	-58.5	-85.6	234	4
2023-09-28T18:00	21264	47	-58.6	-85.7	234	3
2023-09-28T18:00	21289	47	-58.7	-85.8	234	3
2023-09-28T18:00	21314	46	-58.7	-85.8	235	3
2023-09-28T18:00	21336	46	-58.8	-85.9	236	3
2023-09-28T18:00	21358	46	-58.3	-85.8	237	3
2023-09-28T18:00	21386	46	-58.2	-85.8	239	3
2023-09-28T18:00	21416	46	-58.3	-85.8	241	3
2023-09-28T18:00	21435	46	-58.1	-85.7	244	3
2023-09-28T18:00	21459	45	-58.0	-85.6	249	3
2023-09-28T18:00	21480	45	-58.2	-85.8	257	3
2023-09-28T18:00	21508	45	-58.4	-85.9	267	3
2023-09-28T18:00	21533	45	-58.6	-85.7	276	3
2023-09-28T18:00	21553	45	-58.5	-85.6	285	3
2023-09-28T18:00	21579	44	-58.4	-85.5	291	3
2023-09-28T18:00	21605	44	-58.5	-85.6	296	3
2023-09-28T18:00	21629	44	-58.5	-85.6	300	2
2023-09-28T18:00	21656	44	-58.6	-85.7	303	2
2023-09-28T18:00	21678	44	-58.7	-86.1	304	1
2023-09-28T18:00	21700	44	-58.6	-86.1	302	1
2023-09-28T18:00	21726	43	-58.3	-85.8	290	1
2023-09-28T18:00	21748	43	-58.1		272	1
2023-09-28T18:00	21771	43	-57.8	-85.9	265	1
2023-09-28T18:00	21795	43	-57.6	-85.7	265	1
2023-09-28T18:00	21820	43	-57.7	-85.8	266	2
2023-09-28T18:00	21845	43	-57.8	-85.5	267	3
2023-09-28T18:00	21870	42	-58.0	-85.6	268	3
2023-09-28T18:00	21894	42	-58.2	-85.8	270	4
2023-09-28T18:00	21922	42	-58.4	-85.9	272	4
2023-09-28T18:00	21947	42	-58.4	-85.9	274	4
2023-09-28T18:00	21973	42	-58.2	-85.8	274	4
2023-09-28T18:00	21996	42	-58.0	-85.6	273	4
2023-09-28T18:00	22016	41	-57.8	-85.9	271	4
2023-09-28T18:00	22043	41	-57.8	-85.9	269	4
2023-09-28T18:00	22064	41	-57.7	-85.8	268	4
2023-09-28T18:00	22091	41	-57.8	-85.5	269	4
2023-09-28T18:00	22114	41	-57.9	-85.5	271	4
2023-09-28T18:00	22139	41	-58.1	-85.7	274	4
2023-09-28T18:00	22166	41	-58.2	-85.8	278	4
2023-09-28T18:00	22190	40	-58.4	-85.5	283	4
2023-09-28T18:00	22217	40	-58.6	-85.7	290	3
2023-09-28T18:00	22240	40	-58.5	-85.6	298	3
2023-09-28T18:00	22268	40	-58.4	-85.5	306	2
2023-09-28T18:00	22292	40	-58.5	-86.0	316	2
2023-09-28T18:00	22317	40	-58.7	-86.1	325	2
2023-09-28T18:00	22345	39	-58.9	-86.3	332	1
2023-09-28T18:00	22369	39	-59.0	-86.4	335	1
2023-09-28T18:00	22394	39	-58.6	-86.1	328	1
2023-09-28T18:00	22419	39	-58.5	-86.4	312	1
2023-09-28T18:00	22445	39	-58.3	-86.2	291	1
2023-09-28T18:00	22471	39	-58.2	-86.2	264	1
2023-09-28T18:00	22494	38	-57.7	-86.2	207	0
2023-09-28T18:00	22521	38	-57.5	-86.1	160	1
2023-09-28T18:00	22546	38	-57.2	-85.8	147	1
2023-09-28T18:00	22575	38	-56.9	-85.6	146	2
2023-09-28T18:00	22602	38	-56.9	-85.6	149	3
2023-09-28T18:00	22628	38	-57.0	-85.7	155	3
2023-09-28T18:00	22650	37	-57.1	-85.7	163	3
2023-09-28T18:00	22682	37	-57.0	-85.7	172	3
2023-09-28T18:00	22704	37	-56.9	-85.2	182	3
2023-09-28T18:00	22734	37	-56.9	-85.2	191	4
2023-09-28T18:00	22762	37	-56.9	-85.2	198	4
2023-09-28T18:00	22783	37	-56.9	-85.2	201	4
2023-09-28T18:00	22809	37	-57.0	-85.2	202	5
2023-09-28T18:00	22838	36	-57.2	-85.4	201	6
2023-09-28T18:00	22867	36	-57.3	-85.5	200	7
2023-09-28T18:00	22891	36	-57.3	-85.5	200	7
2023-09-28T18:00	22915	36	-57.2	-85.4	200	8
2023-09-28T18:00	22943	36	-57.2	-85.4	202	9
2023-09-28T18:00	22969	36	-57.3	-85.5	205	10
2023-09-28T18:00	22990	36	-57.2	-85.4	209	10
2023-09-28T18:00	23018	35	-57.2	-85.4	212	10
2023-09-28T18:00	23045	35	-57.3	-85.5	217	10
2023-09-28T18:00	23074	35	-57.4	-85.6	220	10
2023-09-28T18:00	23094	35	-57.0	-85.2	224	9
2023-09-28T18:00	23125	35	-56.9	-85.2	228	9
2023-09-28T18:00	23145	35	-57.0	-85.2	232	8
2023-09-28T18:00	23175	35	-57.3	-85.5	236	8
2023-09-28T18:00	23195	34	-57.4	-85.6	241	7
2023-09-28T18:00	23226	34	-57.5	-85.6	246	7
2023-09-28T18:00	23254	34	-57.4	-85.6	251	7
2023-09-28T18:00	23275	34	-57.2	-85.4	255	6
2023-09-28T18:00	23301	34	-57.1	-85.7	258	6
2023-09-28T18:00	23327	34	-56.8	-85.5	260	6
2023-09-28T18:00	23350	34	-56.7	-85.4	261	5
2023-09-28T18:00	23375	33	-56.8	-85.5	261	5
2023-09-28T18:00	23398	33	-56.7	-85.4	261	5
2023-09-28T18:00	23422	33	-56.7	-85.4	262	4
2023-09-28T18:00	23442	33	-56.7	-85.4	264	4
2023-09-28T18:00	23471	33	-56.7	-85.4	268	4
2023-09-28T18:00	23496	33	-56.6	-85.4	272	5
2023-09-28T18:00	23523	33	-56.5	-85.3	276	5
2023-09-28T18:00	23546	33	-56.5	-85.3	279	5
2023-09-28T18:00	23570	32	-56.4	-85.2	281	5
2023-09-28T18:00	23595	32	-56.4	-85.2	282	5
2023-09-28T18:00	23625	32	-56.2	-85.1	282	4
2023-09-28T18:00	23653	32	-56.1	-85.0	282	4
2023-09-28T18:00	23677	32	-56.1	-85.0	283	4
2023-09-28T18:00	23704	32	-56.2	-85.1	284	4
2023-09-28T18:00	23733	32	-56.2	-85.1	287	3
2023-09-28T18:00	23763	32	-56.1	-85.0	290	3
2023-09-28T18:00	23784	31	-56.2	-85.1	293	3
2023-09-28T18:00	23811	31	-56.1	-85.0	293	3
2023-09-28T18:00	23837	31	-56.0	-84.9	291	3
2023-09-28T18:00	23861	31	-56.1	-85.0	286	3
2023-09-28T18:00	23890	31	-56.1	-85.0	280	2
2023-09-28T18:00	23920	31	-56.0	-84.9	272	2
2023-09-28T18:00	23945	31	-55.9	-84.8	266	2
2023-09-28T18:00	23967	30	-56.1	-85.0	262	2
2023-09-28T18:00	24001	30	-56.2	-85.1	259	2
2023-09-28T18:00	24030	30	-56.4	-85.2	257	3
2023-09-28T18:00	24058	30	-56.6	-85.4	256	3
2023-09-28T18:00	24082	30	-56.6	-85.4	254	4
2023-09-28T18:00	24112	30	-56.7	-85.4	252	4
2023-09-28T18:00	24140	30	-56.7	-85.4	249	4
2023-09-28T18:00	24169	30	-56.5	-85.3	246	4
2023-09-28T18:00	24195	29	-56.3	-85.1	243	4
2023-09-28T18:00	24225	29	-56.1	-85.0	242	3
2023-09-28T18:00	24250	29	-56.1	-85.0	243	3
2023-09-28T18:00	24277	29	-56.1	-85.0	248	3
2023-09-28T18:00	24310	29	-56.2	-85.5	256	3
2023-09-28T18:00	24342	29	-56.2	-85.5	265	3
2023-09-28T18:00	24368	29	-56.0		272	4
2023-09-28T18:00	24396	28	-55.9	-85.3	277	4
2023-09-28T18:00	24425	28	-56.0		280	4
2023-09-28T18:00	24452	28	-56.1	-85.0	282	5
2023-09-28T18:00	24482	28	-56.1	-85.0	284	5
2023-09-28T18:00	24509	28	-56.1	-85.0	286	5
2023-09-28T18:00	24531	28	-56.1	-85.0	288	5
2023-09-28T18:00	24558	28	-56.1	-85.0	289	5
2023-09-28T18:00	24584	28	-56.3	-85.1	290	5
2023-09-28T18:00	24611	28	-56.2	-85.1	290	5
2023-09-28T18:00	24642	27	-56.3	-85.1	291	6
2023-09-28T18:00	24666	27	-56.4	-85.2	291	6
2023-09-28T18:00	24699	27	-56.4	-85.2	293	6
2023-09-28T18:00	24719	27	-56.3	-85.1	295	6
2023-09-28T18:00	24744	27	-56.4	-85.2	297	6
2023-09-28T18:00	24774	27	-56.4	-85.2	300	6
2023-09-28T18:00	24796	27	-56.5	-85.3	302	5
2023-09-28T18:00	24822	27	-56.7	-85.4	303	5
2023-09-28T18:00	24850	27	-56.7	-85.4	303	5
2023-09-28T18:00	24872	26	-56.7	-85.4	301	5
2023-09-28T18:00	24900	26	-56.7	-85.4	296	5
2023-09-28T18:00	24923	26	-56.7	-85.4	291	5
2023-09-28T18:00	24953	26	-56.6	-85.4	287	6
2023-09-28T18:00	24978	26	-56.4	-85.7	285	6
2023-09-28T18:00	25005	26	-56.4	-85.7	285	6
2023-09-28T18:00	25026	26	-56.4	-85.7	287	7
2023-09-28T18:00	25055	26	-55.9	-85.3	290	7
2023-09-28T18:00	25074	26	-55.7	-85.7	293	7
2023-09-28T18:00	25103	25	-55.6	-85.6	295	7
2023-09-28T18:00	25130	25	-55.3	-85.4	297	8
2023-09-28T18:00	25157	25	-55.0	-85.1	300	8
2023-09-28T18:00	25183	25	-54.7	-84.9	303	8
2023-09-28T18:00	25207	25	-54.7	-84.9	308	8
2023-09-28T18:00	25237	25	-54.8	-85.0	313	8
2023-09-28T18:00	25260	25	-54.7	-84.9	318	7
2023-09-28T18:00	25287	25	-54.8	-85.0	323	6
2023-09-28T18:00	25317	25	-54.8	-85.0	327	6
2023-09-28T18:00	25346	25	-54.8	-84.5	328	6
2023-09-28T18:00	25372	24	-54.8	-84.5	327	6
2023-09-28T18:00	25393	24	-54.8	-84.5	325	6
2023-09-28T18:00	25428	24	-55.0	-84.6	322	6
2023-09-28T18:00	25450	24	-55.0	-84.6	321	6
2023-09-28T18:00	25482	24	-55.1	-84.7	321	6
2023-09-28T18:00	25507	24	-55.0	-84.6	321	6
2023-09-28T18:00	25536	24	-54.9	-84.6	322	6
2023-09-28T18:00	25570	24	-54.9	-85.1	322	6
2023-09-28T18:00	25597	24	-54.9	-85.1	321	5
2023-09-28T18:00	25623	24	-54.8	-85.0	319	5
2023-09-28T18:00	25652	23	-54.8	-85.0	318	6
2023-09-28T18:00	25679	23	-54.8	-85.0	316	6
2023-09-28T18:00	25710	23	-54.8	-85.0	316	6
2023-09-28T18:00	25737	23	-54.8	-85.0	316	7
2023-09-28T18:00	25765	23	-54.9	-85.1	316	7
2023-09-28T18:00	25796	23	-54.7	-84.9	317	7
2023-09-28T18:00	25828	23	-54.8	-85.0	319	7
2023-09-28T18:00	25854	23	-54.7	-84.9	322	7
2023-09-28T18:00	25881	23	-54.6	-84.8	326	7
2023-09-28T18:00	25914	22	-54.7	-84.9	329	7
2023-09-28T18:00	25942	22	-54.7	-84.9	332	7
2023-09-28T18:00	25973	22	-54.8	-85.0	334	7
2023-09-28T18:00	26003	22	-54.8	-85.0	334	7
2023-09-28T18:00	26030	22	-54.6	-84.8	333	7
2023-09-28T18:00	26055	22	-54.6	-84.8	333	7
2023-09-28T18:00	26085	22	-54.6	-84.8	332	7
2023-09-28T18:00	26116	22	-54.7	-84.9	332	7
2023-09-28T18:00	26148	22	-54.8	-85.0	333	7
2023-09-28T18:00	26174	22	-54.8	-85.0	334	7
2023-09-28T18:00	26204	21	-54.5	-84.8	335	7
2023-09-28T18:00	26225	21	-54.4	-84.7	335	7
2023-09-28T18:00	26255	21	-54.5	-84.8	335	8
2023-09-28T18:00	26280	21	-54.7	-84.9	333	8
2023-09-28T18:00	26307	21	-54.7	-84.9	331	8
2023-09-28T18:00	26340	21	-54.5	-84.8	330	8
2023-09-28T18:00	26364	21	-54.5	-84.8	328	7
2023-09-28T18:00	26392	21	-54.2	-84.5	327	7
2023-09-28T18:00	26423	21	-54.2	-84.5	327	6
2023-09-28T18:00	26442	21	-54.3	-84.6	328	6
2023-09-28T18:00	26463	21	-54.3	-84.6	329	6
2023-09-28T18:00	26500	21	-54.4	-84.7	330	5
2023-09-28T18:00	26521	20	-54.5	-84.8	333	5
2023-09-28T18:00	26552	20	-54.3	-84.6	336	5
2023-09-28T18:00	26585	20	-54.2	-84.5	341	5
2023-09-28T18:00	26602	20	-54.2	-84.5	347	5
2023-09-28T18:00	26624	20	-54.2	-84.5	353	5
2023-09-28T18:00	26652	20	-54.4	-84.7	359	5
2023-09-28T18:00	26685	20	-54.5	-84.8	3	5
2023-09-28T18:00	26705	20	-54.6	-84.8	4	5
2023-09-28T18:00	26733	20	-54.8	-85.0	1	5
2023-09-28T18:00	26763	20	-54.7	-84.9	355	5
2023-09-28T18:00	26789	20	-54.4	-84.7	348	5
2023-09-28T18:00	26818	20	-54.4	-84.7	343	5
2023-09-28T18:00	26842	19	-54.3	-85.2	340	6
2023-09-28T18:00	26871	19	-54.3	-85.2	340	6
2023-09-28T18:00	26899	19	-54.3	-85.2	342	6
2023-09-28T18:00	26919	19	-54.0	-84.9	346	5
2023-09-28T18:00	26950	19	-54.1	-84.5	349	5
2023-09-28T18:00	26975	19	-54.2	-84.5	350	5
2023-09-28T18:00	27006	19	-54.4	-84.7	349	5
2023-09-28T18:00	27024	19	-54.4	-84.7	346	6
2023-09-28T18:00	27057	19	-54.3	-84.6	345	7
2023-09-28T18:00	27083	19	-54.2	-84.5	345	7
2023-09-28T18:00	27110	19	-54.1	-84.5	347	7
2023-09-28T18:00	27138	19	-54.0	-84.4	349	7
2023-09-28T18:00	27172	18	-54.1	-84.5	351	7
2023-09-28T18:00	27201	18	-54.1	-84.5	352	6
2023-09-28T18:00	27231	18	-54.3	-84.6	351	5
2023-09-28T18:00	27256	18	-54.4	-84.7	346	5
2023-09-28T18:00	27279	18	-54.6	-84.8	338	4
2023-09-28T18:00	27321	18	-54.7	-84.9	328	4
2023-09-28T18:00	27340	18	-54.6	-84.8	318	4
2023-09-28T18:00	27359	18	-54.6	-84.8	311	5
2023-09-28T18:00	27396	18	-54.6	-84.8	307	5
2023-09-28T18:00	27427	18	-54.4	-85.2	308	6
2023-09-28T18:00	27451	18	-54.0	-84.9	310	6
2023-09-28T18:00	27482	18	-53.9	-84.9	314	6
2023-09-28T18:00	27504	18	-53.8	-84.8	318	7
2023-09-28T18:00	27535	17	-53.8	-84.8	322	7
2023-09-28T18:00	27566	17	-53.8	-84.8	324	7
2023-09-28T18:00	27591	17	-54.0	-84.9	326	7
2023-09-28T18:00	27623	17	-53.9	-84.9	327	7
2023-09-28T18:00	27661	17	-53.9	-84.9	328	7
2023-09-28T18:00	27688	17	-53.9	-84.9	330	7
2023-09-28T18:00	27718	17	-54.0	-84.9	331	7
2023-09-28T18:00	27746	17	-54.0	-84.9	333	7
2023-09-28T18:00	27769	17	-54.0	-84.9	333	7
2023-09-28T18:00	27803	17	-54.1	-85.0	333	7
2023-09-28T18:00	27831	17	-53.9	-84.9	332	7
2023-09-28T18:00	27860	17	-53.7	-84.7	331	6
2023-09-28T18:00	27896	17	-53.8	-84.8	329	6
2023-09-28T18:00	27915	16	-53.7	-84.7	328	6
2023-09-28T18:00	27941	16	-53.6	-84.6	328	7
2023-09-28T18:00	27970	16	-53.3	-84.4	331	7
2023-09-28T18:00	28004	16	-53.3	-84.4	334	7
2023-09-28T18:00	28035	16	-53.5	-84.6	339	7
2023-09-28T18:00	28061	16	-53.7	-84.7	344	7
2023-09-28T18:00	28086	16	-53.8	-84.8	349	7
2023-09-28T18:00	28120	16	-53.9	-84.9	353	7
2023-09-28T18:00	28149	16	-54.0	-84.9	356	7
2023-09-28T18:00	28176	16	-54.1	-85.0	0	7
2023-09-28T18:00	28209	16	-54.1	-85.0	4	7
2023-09-28T18:00	28234	16	-54.0	-84.9	6	7
2023-09-28T18:00	28256	16	-54.0	-84.9	7	6
2023-09-28T18:00	28291	16	-54.0	-84.9	6	6
2023-09-28T18:00	28315	15	-54.1	-85.0	4	5
2023-09-28T18:00	28343	15	-54.1	-85.0	0	4
2023-09-28T18:00	28377	15	-54.2	-85.1	357	4
2023-09-28T18:00	28405	15	-54.1	-85.0	355	3
2023-09-28T18:00	28431	15	-54.1	-85.0	356	3
2023-09-28T18:00	28457	15	-54.1	-85.0	358	3
2023-09-28T18:00	28489	15	-54.2	-85.1	360	3
2023-09-28T18:00	28511	15	-54.1	-85.0	358	3
2023-09-28T18:00	28551	15	-53.8	-84.8	353	3
2023-09-28T18:00	28572	15	-53.7	-84.7	344	3
2023-09-28T18:00	28599	15	-53.7	-85.3	336	4
2023-09-28T18:00	28618	15	-53.5	-85.2	330	5
2023-09-28T18:00	28656	15	-53.2	-85.0	328	5
2023-09-28T18:00	28684	15	-53.0	-84.8	328	6
2023-09-28T18:00	28711	15	-52.8	-84.7	329	7
2023-09-28T18:00	28738	14	-52.6	-84.5	330	7
2023-09-28T18:00	28762	14	-52.4	-85.1	330	7
2023-09-28T18:00	28789	14	-52.1	-84.8	329	7
2023-09-28T18:00	28816	14	-51.9	-84.7	328	7
2023-09-28T18:00	28849	14	-51.7	-84.5	327	6
2023-09-28T18:00	28871	14	-51.5	-84.4	326	6
2023-09-28T18:00	28905	14	-51.4	-83.6	326	6
2023-09-28T18:00	28927	14	-51.5	-83.7	326	5
2023-09-28T18:00	28959	14	-51.8	-83.9	325	6
2023-09-28T18:00	28988	14	-52.0	-84.1	323	6
2023-09-28T18:00	29010	14	-52.2	-84.2	322	7
2023-09-28T18:00	29046	14	-51.7	-83.9	321	7
2023-09-28T18:00	29066	14	-51.5	-83.7	322	8
2023-09-28T18:00	29091	14	-51.4	-83.6	322	9
2023-09-28T18:00	29132	14	-51.2	-84.2	323	9
2023-09-28T18:00	29150	14	-51.2	-84.2	324	9
2023-09-28T18:00	29186	14	-51.1	-84.1	325	9
2023-09-28T18:00	29210	13	-50.9	-84.0	326	9
2023-09-28T18:00	29238	13	-50.7	-83.8	328	8
2023-09-28T18:00	29258	13	-50.8	-83.9	329	7
2023-09-28T18:00	29288	13	-50.8	-83.9	331	7
2023-09-28T18:00	29320	13	-50.8	-83.2	331	6
2023-09-28T18:00	29354	13	-50.8	-83.2	330	6
2023-09-28T18:00	29387	13	-50.9	-83.3	327	6
2023-09-28T18:00	29408	13	-51.0	-83.3	322	6
2023-09-28T18:00	29435	13	-51.2	-83.5	316	6
2023-09-28T18:00	29477	13	-50.9	-84.0	310	6
2023-09-28T18:00	29500	13	-50.6	-83.7	305	6
2023-09-28T18:00	29535	13	-50.6	-83.7	301	6
2023-09-28T18:00	29551	13	-50.7	-83.8	298	7
2023-09-28T18:00	29589	13	-50.8	-83.2	296	7
2023-09-28T18:00	29612	13	-50.9	-83.3	295	7
2023-09-28T18:00	29645	13	-51.1	-83.4	294	8
2023-09-28T18:00	29678	13	-51.3	-83.6	295	8
2023-09-28T18:00	29705	12	-51.4	-83.6	297	8
2023-09-28T18:00	29731	12	-51.3	-83.6	300	8
2023-09-28T18:00	29770	12	-51.4	-83.6	304	8
2023-09-28T18:00	29796	12	-51.6	-83.8	308	8
2023-09-28T18:00	29823	12	-51.5	-83.7	312	8
2023-09-28T18:00	29854	12	-51.6	-83.8	315	9
2023-09-28T18:00	29890	12	-51.7	-83.9	317	9
2023-09-28T18:00	29906	12	-51.6	-83.8	319	10
2023-09-28T18:00	29950	12	-51.6	-83.8	321	10
2023-09-28T18:00	29964	12	-51.6	-83.8	322	11
2023-09-28T18:00	30002	12	-51.5	-83.7	323	12
2023-09-28T18:00	30026	12	-51.5	-83.7	324	12
2023-09-28T18:00	30061	12	-51.4	-84.3	324	12
2023-09-28T18:00	30081	12	-51.4	-84.3	325	13
2023-09-28T18:00	30102	12	-51.4	-84.3	325	13
2023-09-28T18:00	30146	12	-51.2	-84.2	326	13
2023-09-28T18:00	30176	12	-51.3	-84.3	326	13
2023-09-28T18:00	30211	12	-51.3	-84.3	326	12
2023-09-28T18:00	30244	12	-51.4	-84.3	326	12
2023-09-28T18:00	30264	11	-51.4	-84.3	325	11
2023-09-28T18:00	30291	11	-51.2	-84.2	323	11
2023-09-28T18:00	30314	11	-51.0	-84.0	319	10
2023-09-28T18:00	30364	11	-50.9	-84.0	315	10
2023-09-28T18:00	30384	11	-50.8	-83.9	311	9
2023-09-28T18:00	30413	11	-50.7	-83.8	308	9
2023-09-28T18:00	30428	11	-50.4	-83.6	307	9
2023-09-28T18:00	30462	11	-50.1	-84.2	308	9
2023-09-28T18:00	30499	11	-49.7	-83.9	310	9
2023-09-28T18:00	30520	11	-49.6	-83.8	313	10
2023-09-28T18:00	30561	11	-49.6	-83.8	316	11
2023-09-28T18:00	30583	11	-49.7	-83.1	318	12
2023-09-28T18:00	30611	11	-49.7	-83.1	320	13
2023-09-28T18:00	30635	11	-49.8	-83.2	322	13
2023-09-28T18:00	30670	11	-50.0	-83.3	324	14
2023-09-28T18:00	30697	11	-50.0	-83.3	326	15
2023-09-28T18:00	30704	11	-49.5	-82.9	327	15
2023-09-28T18:00	30750	11	-49.6	-83.0	329	16
2023-09-28T18:00	30785	11	-49.7	-83.1	331	15
2023-09-28T18:00	30815	11	-49.7	-83.1	332	15
2023-09-28T18:00	30834	10	-49.7	-83.1	334	14
2023-09-28T18:00	30872	10	-49.6	-83.0	334	13
2023-09-28T18:00	30892	10	-49.3	-82.8	334	12
2023-09-28T18:00	30919	10	-49.4	-82.9	332	11
2023-09-28T18:00	30955	10	-49.4	-82.9	329	10
2023-09-28T18:00	30977	10	-49.3	-83.6	325	9
2023-09-28T18:00	31017	10	-49.3	-83.6	319	8
2023-09-28T18:00	31038	10	-49.3	-83.6	313	7
2023-09-28T18:00	31076	10	-49.2	-83.5	307	7
2023-09-28T18:00	31089	10	-49.2	-82.7	300	6
2023-09-28T18:00	31135	10	-49.3	-82.8	294	6
2023-09-28T18:00	31160	10	-49.4	-82.9	289	5
2023-09-28T18:00	31196	10	-49.4	-82.9	285	5
2023-09-28T18:00	31215	10	-49.4	-82.9	283	5
2023-09-28T18:00	31242	10	-49.4	-82.9	282	4
2023-09-28T18:00	31278	10	-49.4	-82.9	281	4
2023-09-28T18:00	31320	10	-49.5	-82.9	278	4
2023-09-28T18:00	31336	10	-49.7	-83.1	274	4
2023-09-28T18:00	31362	10	-50.0	-83.3	268	4
2023-09-28T18:00	31400	10	-50.0	-83.3	262	5
2023-09-28T18:00	31425	10	-50.0	-83.3	258	5
2023-09-28T18:00	31454	10	-50.0	-83.3	255	6
2023-09-28T18:00	31492	10	-50.1	-83.4	254	7
2023-09-28T18:00	31512	9	-50.2	-83.5	255	7
2023-09-28T18:00	31541	9	-50.1	-83.4	257	8
2023-09-28T18:00	31584	9	-50.2	-83.5	259	9
2023-09-28T18:00	31604	9	-50.3	-83.5	263	9
2023-09-28T18:00	31638	9	-50.3	-83.5	267	10
2023-09-28T18:00	31677	9	-50.5	-83.7	272	10
2023-09-28T18:00	31691	9	-50.5	-83.7	277	10
2023-09-28T18:00	31723	9	-50.6	-83.7	284	10
2023-09-28T18:00	31745	9	-50.3	-83.5	291	10
2023-09-28T18:00	31798	9	-50.3	-83.5	299	10
2023-09-28T18:00	31817	9	-50.3	-83.5	306	10
2023-09-28T18:00	31842	9	-50.2	-83.5	312	10
2023-09-28T18:00	31878	9	-50.2	-83.5	317	10
2023-09-28T18:00	31899	9	-50.3	-83.5	321	10
2023-09-28T18:00	31944	9	-50.4	-83.6	324	10
2023-09-28T18:00	31972	9	-50.4	-83.6	326	10
2023-09-28T18:00	32014	9	-50.3	-83.5	326	10
2023-09-28T18:00	32036	9	-50.2	-83.5	325	10
2023-09-28T18:00	32055	9	-50.0	-84.1	322	11
2023-09-28T18:00	32101	9	-49.8	-84.0	318	11
2023-09-28T18:00	32119	9	-49.8	-84.0	314	11
2023-09-28T18:00	32165	9	-49.8	-84.0	309	12
2023-09-28T18:00	32183	9	-49.6	-83.8	306	13
2023-09-28T18:00	32217	9	-49.6	-83.8	303	13
2023-09-28T18:00	32248	8	-49.3	-83.6	301	14
2023-09-28T18:00	32262	8	-49.3	-83.6	299	14
2023-09-28T18:00	32303	8	-49.2	-83.5	297	15
2023-09-28T18:00	32336	8	-49.3	-83.6	295	15
2023-09-28T18:00	32363	8	-49.4	-83.7	292	15
2023-09-28T18:00	32394	8	-49.5	-83.7	289	16
2023-09-28T18:00	32416	8	-49.6	-83.8	286	16
2023-09-28T18:00	32447	8	-49.7	-83.9	284	16
2023-09-28T18:00	32481	8	-49.5	-83.7	282	17
2023-09-28T18:00	32494	8	-48.6	-83.1	281	17
2023-09-28T18:00	32530	8	-48.3	-83.8	280	17
2023-09-28T18:00	32551	8	-47.9	-83.5	279	16
2023-09-28T18:00	32586	8	-47.4	-83.1	279	16
2023-09-28T18:00	32621	8	-47.2	-83.0	280	16
2023-09-28T18:00	32658	8	-47.3	-83.1	282	15
2023-09-28T18:00	32661	8	-47.2	-83.0	284	15
2023-09-28T18:00	32684	8	-47.2	-83.0	286	15
2023-09-28T18:00	32730	8	-47.5	-83.2	289	14
2023-09-28T18:00	32750	8	-47.6	-82.4	291	14
2023-09-28T18:00	32777	8	-47.6	-82.4	294	14
2023-09-28T18:00	32807	8	-47.4	-82.2	296	15
2023-09-28T18:00	32841	8	-47.3	-82.2	299	15
2023-09-28T18:00	32867	8	-47.3	-82.2	301	15
2023-09-28T18:00	32901	8	-47.5	-83.2	304	16
2023-09-28T18:00	32917	8	-47.4	-83.1	306	16
2023-09-28T18:00	32948	8	-47.4	-83.1	307	16
2023-09-28T18:00	32973	8	-47.3	-83.1	308	16
2023-09-28T18:00	32994	8	-46.9	-82.8	308	16
2023-09-28T18:00	33049	8	-46.6	-82.6	307	16
2023-09-28T18:00	33057	7	-46.4	-82.4	305	15
2023-09-28T18:00	33101	7	-46.1	-82.2	303	15
2023-09-28T18:00	33135	7	-46.0	-82.1	300	16
2023-09-28T18:00	33142	7	-46.0	-82.1	297	16
2023-09-28T18:00	33167	7	-46.2	-82.3	294	17
2023-09-28T18:00	33217	7	-46.4	-82.4	292	17
2023-09-28T18:00	33227	7	-46.3	-82.4	289	18
2023-09-28T18:00	33235	7	-46.2	-82.3	287	18
2023-09-28T18:00	33276	7	-46.0	-82.1	285	19
2023-09-28T18:00	33300	7	-45.9	-82.1	283	19
2023-09-28T18:00	33326	7	-45.9	-82.1	282	20
2023-09-28T18:00	33328	7	-45.9	-82.1	281	20
2023-09-28T18:00	33379	7	-45.9	-82.1	281	20
2023-09-28T18:00	33414	7	-45.9	-82.1	282	21
2023-09-28T18:00	33439	7	-45.8	-82.0	283	21
2023-09-28T18:00	33474	7	-45.6	-81.9	285	21
2023-09-28T18:00	33500	7	-45.5	-81.8	286	21
2023-09-28T18:00	33535	7	-45.5	-81.8	288	21
2023-09-28T18:00	33556	7	-45.7	-81.9	290	21
2023-09-28T18:00	33577	7	-45.9	-82.1	292	21
2023-09-28T18:00	33609	7	-46.1	-82.2	294	22
2023-09-28T18:00	33619	7	-46.2	-82.3	295	22
2023-09-28T18:00	33667	7	-46.3	-82.4	296	23
2023-09-28T18:00	33689	7	-46.4	-82.4	297	23
2023-09-28T18:00	33719	7	-46.3	-82.4	297	24
2023-09-28T18:00	33786	7	-46.2	-82.3	298	24
2023-09-28T18:00	33803	7	-45.8	-82.0	298	25
2023-09-28T18:00	33814	7	-45.7	-81.9	299	25
2023-09-28T18:00	33864	7	-45.6	-81.9	299	26
2023-09-28T18:00	33890	7	-45.8	-82.0	300	26
2023-09-28T18:00	33914	7	-46.0	-82.1	300	25
2023-09-28T18:00	33929	7	-46.0	-82.1	301	25
2023-09-28T18:00	33967	7	-45.9	-82.1	301	24
2023-09-28T18:00	33983	7	-46.0	-82.1	302	24
2023-09-28T18:00	34015	6	-46.0	-82.1	303	23
2023-09-28T18:00	34054	6	-45.8	-82.0	304	23
2023-09-28T18:00	34059	6	-45.8	-82.0	306	22
2023-09-28T18:00	34081	6	-46.0	-82.1	307	22
2023-09-28T18:00	34116	6	-46.0	-82.1	309	22
2023-09-28T18:00	34134	6	-45.8	-82.0	310	22
2023-09-28T18:00	34155	6	-45.8	-82.0	311	22
2023-09-28T18:00	34196	6	-45.8	-82.0	311	22
2023-09-28T18:00	34219	6	-45.8	-82.0	312	22
2023-09-28T18:00	34257	6	-45.9	-82.1	313	22
2023-09-28T18:00	34297	6	-45.8	-82.0	313	22
2023-09-28T18:00	34306	6	-45.6	-81.9	314	23
2023-09-28T18:00	34317	6	-45.4	-81.7	315	23
2023-09-28T18:00	34346	6	-45.3	-81.6	316	23
2023-09-28T18:00	34362	6	-45.3	-82.7	317	23
2023-09-28T18:00	34382	6	-45.4	-81.7	318	22
2023-09-28T18:00	34429	6	-45.3	-82.7	318	22
2023-09-28T18:00	34457	6	-45.3	-82.7	319	22
2023-09-28T18:00	34506	6	-45.2	-82.7	318	21
2023-09-28T18:00	34515	6	-45.0	-82.5	318	21
2023-09-28T18:00	34566	6	-44.9	-82.5	318	20
2023-09-28T18:00	34572	6	-44.8	-82.4	318	19
2023-09-28T18:00	34612	6	-44.3	-82.0	318	18
2023-09-28T18:00	34616	6	-43.6	-81.5	319	17
2023-09-28T18:00	34648	6	-43.3	-81.3	320	16
2023-09-28T18:00	34678	6	-42.9	-81.1	320	16
2023-09-28T18:00	34701	6	-42.6	-80.8	321	16
2023-09-28T18:00	34741	6	-42.0	-80.4	321	16
2023-09-28T18:00	34751	6	-41.9	-80.4	322	16
2023-09-28T18:00	34776	6	-41.9	-80.4	323	16
2023-09-28T18:00	34818	6	-41.8	-80.3	324	15
2023-09-28T18:00	34845	6	-41.8	-80.3	324	15
2023-09-28T18:00	34879	6	-41.7	-80.2	325	14
2023-09-28T18:00	34893	6	-41.5	-80.1	322	13
2023-09-28T18:00	34937	6	-41.2	-79.9	319	12
2023-09-28T18:00	34964	6	-41.0	-79.7	316	12
2023-09-28T18:00	34979	6	-41.0	-79.7	314	12
2023-09-28T18:00	35000	6	-40.9	-79.7	312	12
2023-09-28T18:00	35031	6	-40.5	-79.4	312	12
2023-09-28T18:00	35064	6	-40.3	-79.2	312	12
2023-09-28T18:00	35110	6	-39.7	-78.8	313	13
2023-09-29T00:00	114	1005	17.6	12.6	194	2
2023-09-29T00:00	138	1002	18.9	12.2	213	3
2023-09-29T00:00	168	999	21.0	11.4	211	4
2023-09-29T00:00	197	996	22.3	11.4	211	5
2023-09-29T00:00	222	993	22.8	11.4	212	5
2023-09-29T00:00	244	990	23.1	10.9	212	5
2023-09-29T00:00	263	988	23.1	10.6	213	5
2023-09-29T00:00	296	984	23.0	10.6	213	5
2023-09-29T00:00	324	981	22.8	10.6	215	5
2023-09-29T00:00	348	978	22.6	10.8	216	4
2023-09-29T00:00	375	975	22.3	11.2	217	4
2023-09-29T00:00	406	972	22.1	11.3	217	4
2023-09-29T00:00	432	969	21.9	11.2	217	4
2023-09-29T00:00	457	966	21.8	11.2	218	4
2023-09-29T00:00	480	963	21.6	11.3	218	4
2023-09-29T00:00	506	961	21.4	11.4	219	4
2023-09-29T00:00	530	958	21.2	11.3	220	4
2023-09-29T00:00	555	955	21.0	11.3	221	4
2023-09-29T00:00	579	953	20.8	10.9	222	4
2023-09-29T00:00	606	950	20.6	10.6	223	4
2023-09-29T00:00	633	947	20.4	10.1	225	4
2023-09-29T00:00	657	944	20.2	9.9	227	4
2023-09-29T00:00	684	941	20.0	9.8	228	4
2023-09-29T00:00	709	938	19.7	9.8	230	4
2023-09-29T00:00	734	936	19.5	9.9	231	4
2023-09-29T00:00	760	933	19.3	9.9	232	4
2023-09-29T00:00	789	930	19.0	9.3	233	4
2023-09-29T00:00	814	927	18.8	9.1	234	4
2023-09-29T00:00	837	924	18.6	9.3	237	4
2023-09-29T00:00	867	921	18.3	9.5	241	4
2023-09-29T00:00	897	918	18.1	9.4	244	3
2023-09-29T00:00	922	915	17.9	9.4	245	3
2023-09-29T00:00	950	913	17.6	9.3	244	3
2023-09-29T00:00	973	910	17.4	9.1	243	3
2023-09-29T00:00	1001	907	17.2	8.9	241	4
2023-09-29T00:00	1029	904	17.0	8.6	240	4
2023-09-29T00:00	1050	902	16.9	8.6	239	5
2023-09-29T00:00	1072	899	16.7	8.6	238	5
2023-09-29T00:00	1097	897	16.7	7.8	238	5
2023-09-29T00:00	1129	894	16.6	6.3	238	4
2023-09-29T00:00	1154	891	16.6	5.2	238	4
2023-09-29T00:00	1173	889	16.5	5.0	237	4
2023-09-29T00:00	1194	887	16.4	4.6	233	4
2023-09-29T00:00	1215	884	16.4	3.3	227	4
2023-09-29T00:00	1236	882	16.4	1.8	219	4
2023-09-29T00:00	1258	880	16.6	-0.1	211	4
2023-09-29T00:00	1277	878	16.6	0.9	207	4
2023-09-29T00:00	1295	876	16.6	2.3	208	4
2023-09-29T00:00	1315	874	16.5	1.9	215	4
2023-09-29T00:00	1335	872	16.4	1.8	224	5
2023-09-29T00:00	1354	870	16.3	2.0	234	5
2023-09-29T00:00	1378	868	16.2	2.2	242	5
2023-09-29T00:00	1404	865	16.0	1.5	248	5
2023-09-29T00:00	1426	863	15.9	1.5	251	5
2023-09-29T00:00	1452	860	15.8	0.6	251	5
2023-09-29T00:00	1481	857	15.6	0.4	250	5
2023-09-29T00:00	1508	855	15.4	0.3	249	5
2023-09-29T00:00	1537	852	15.1	0.9	248	5
2023-09-29T00:00	1560	849	14.9	0.5	248	5
2023-09-29T00:00	1584	847	14.8	0.3	248	5
2023-09-29T00:00	1607	844	14.6	0.4	248	6
2023-09-29T00:00	1628	842	14.4	0.2	248	6
2023-09-29T00:00	1649	840	14.4	0.5	248	6
2023-09-29T00:00	1666	839	14.2	0.5	247	6
2023-09-29T00:00	1689	836	14.1	0.6	245	6
2023-09-29T00:00	1717	834	14.0	0.4	242	5
2023-09-29T00:00	1741	831	14.0	-2.4	238	5
2023-09-29T00:00	1760	829	14.2	-3.3	232	4
2023-09-29T00:00	1787	827	14.1	-4.9	225	4
2023-09-29T00:00	1811	824	14.0	-5.5	216	4
2023-09-29T00:00	1838	822	13.9	-5.6	210	4
2023-09-29T00:00	1869	819	13.7	-4.6	206	4
2023-09-29T00:00	1891	817	13.5	-4.3	207	4
2023-09-29T00:00	1909	815	13.4	-4.6	210	4
2023-09-29T00:00	1932	813	13.2	-4.5	215	4
2023-09-29T00:00	1958	810	13.0	-3.6	220	3
2023-09-29T00:00	1984	808	12.7	-2.4	224	3
2023-09-29T00:00	2012	805	12.5	-2.6	227	2
2023-09-29T00:00	2032	803	12.3	-2.3	228	2
2023-09-29T00:00	2056	801	12.2	-2.0	227	2
2023-09-29T00:00	2078	799	12.0	-2.2	224	2
2023-09-29T00:00	2102	796	11.8	-2.4	219	3
2023-09-29T00:00	2129	794	11.6	-2.4	213	3
2023-09-29T00:00	2152	792	11.4	-2.5	206	4
2023-09-29T00:00	2173	789	11.2	-2.5	199	4
2023-09-29T00:00	2197	787	11.0	-2.6	194	4
2023-09-29T00:00	2215	785	10.8	-2.5	192	3
2023-09-29T00:00	2235	784	10.6	-2.6	200	2
2023-09-29T00:00	2257	782	10.4	-2.7	228	2
2023-09-29T00:00	2276	780	10.2	-2.5	260	2
2023-09-29T00:00	2295	778	10.1	-2.3	272	3
2023-09-29T00:00	2318	776	9.9	-2.1	273	3
2023-09-29T00:00	2344	774	9.7	-1.3	270	4
2023-09-29T00:00	2368	771	9.8	-2.9	266	4
2023-09-29T00:00	2394	769	9.7	-3.7	262	4
2023-09-29T00:00	2412	767	9.7	-3.2	259	4
2023-09-29T00:00	2429	766	9.6	-2.9	255	4
2023-09-29T00:00	2452	764	9.5		251	4
2023-09-29T00:00	2469	762	9.4	-2.6	245	4
2023-09-29T00:00	2499	759	9.2	-2.9	239	4
2023-09-29T00:00	2527	757	9.1	-3.9	234	4
2023-09-29T00:00	2552	754	9.2	-5.2	231	4
2023-09-29T00:00	2579	752	9.1	-5.0	229	4
2023-09-29T00:00	2607	749	8.9	-4.4	227	4
2023-09-29T00:00	2630	747	8.7	-4.4	222	4
2023-09-29T00:00	2648	746	8.5	-4.5	216	3
2023-09-29T00:00	2669	744	8.3	-4.0	210	3
2023-09-29T00:00	2698	741	8.0	-4.1	205	3
2023-09-29T00:00	2715	739	7.9	-3.9	204	4
2023-09-29T00:00	2743	737	7.6	-3.8	205	4
2023-09-29T00:00	2770	735	7.4	-3.8	208	4
2023-09-29T00:00	2792	733	7.2	-3.9	211	4
2023-09-29T00:00	2812	731	7.1	-4.2	214	4
2023-09-29T00:00	2832	729	6.9	-4.2	216	5
2023-09-29T00:00	2857	727	6.7	-4.5	218	5
2023-09-29T00:00	2884	725	6.5	-4.0	219	6
2023-09-29T00:00	2906	723	6.2	-4.1	220	6
2023-09-29T00:00	2924	721	6.1	-4.0	221	6
2023-09-29T00:00	2943	719	5.9	-3.9	222	6
2023-09-29T00:00	2970	717	5.6	-4.0	224	6
2023-09-29T00:00	3000	714	5.4		225	6
2023-09-29T00:00	3024	712	5.2	-4.6	227	5
2023-09-29T00:00	3046	710	5.0	-4.9	230	5
2023-09-29T00:00	3075	708	4.8	-5.2	232	5
2023-09-29T00:00	3100	706	4.6	-4.9	231	5
2023-09-29T00:00	3124	703	4.4	-3.4	227	5
2023-09-29T00:00	3154	701	4.1	-3.3	223	6
2023-09-29T00:00	3176	699	3.9	-3.3	218	6
2023-09-29T00:00	3195	697	3.8	-3.9	215	7
2023-09-29T00:00	3225	695	3.7	-5.4	213	7
2023-09-29T00:00	3256	692	3.6	-4.8	212	7
2023-09-29T00:00	3277	691	3.4	-3.3	214	6
2023-09-29T00:00	3299	689	3.2	-3.0	216	7
2023-09-29T00:00	3323	687	3.0	-3.2	219	7
2023-09-29T00:00	3344	685	2.8	-3.4	222	7
2023-09-29T00:00	3378	682	2.6	-5.0	224	8
2023-09-29T00:00	3402	680	2.6	-4.1	225	8
2023-09-29T00:00	3425	678	2.4	-3.7	226	8
2023-09-29T00:00	3447	676	2.3	-5.6	226	8
2023-09-29T00:00	3481	673	2.2	-7.2	225	8
2023-09-29T00:00	3506	671	2.0	-6.1	222	8
2023-09-29T00:00	3528	669	1.8	-4.6	218	7
2023-09-29T00:00	3555	667	1.6	-4.8	214	8
2023-09-29T00:00	3577	665	1.4	-5.1	211	8
2023-09-29T00:00	3596	664	1.4	-5.1	210	9
2023-09-29T00:00	3624	661	1.3	-4.2	209	9
2023-09-29T00:00	3647	660	1.2	-3.6	209	9
2023-09-29T00:00	3666	658	1.1	-4.1	209	9
2023-09-29T00:00	3696	656	1.3	-6.8	209	9
2023-09-29T00:00	3723	653	1.2	-8.2	208	9
2023-09-29T00:00	3744	651	1.2	-9.1	208	8
2023-09-29T00:00	3779	649	1.0		209	8
2023-09-29T00:00	3801	647	0.8	-9.6	212	8
2023-09-29T00:00	3825	645	0.7	-9.5	216	8
2023-09-29T00:00	3852	643	0.4	-9.6	218	9
2023-09-29T00:00	3871	641	0.3	-9.8	219	10
2023-09-29T00:00	3889	640	0.1	-9.7	218	10
2023-09-29T00:00	3908	638	-0.1	-9.5	217	11
2023-09-29T00:00	3931	637	-0.2	-9.6	217	11
2023-09-29T00:00	3962	634	-0.4	-9.7	218	11
2023-09-29T00:00	3986	632	-0.6	-10.0	220	10
2023-09-29T00:00	4009	631	-0.8	-10.3	223	10
2023-09-29T00:00	4027	629	-0.9	-10.6	225	10
2023-09-29T00:00	4044	627	-1.0	-11.2	227	10
2023-09-29T00:00	4074	626	-1.1	-11.5	229	10
2023-09-29T00:00	4094	624	-1.3	-12.1	230	10
2023-09-29T00:00	4109	623	-1.4	-12.6	230	11
2023-09-29T00:00	4127	621	-1.5	-13.7	230	11
2023-09-29T00:00	4147	620	-1.5	-13.9	229	11
2023-09-29T00:00	4171	618	-1.7	-13.3	227	11
2023-09-29T00:00	4204	615	-1.8	-12.5	224	11
2023-09-29T00:00	4226	614	-1.8	-12.5	222	11
2023-09-29T00:00	4243	612	-1.8	-13.1	221	10
2023-09-29T00:00	4260	611	-1.8	-11.6	220	11
2023-09-29T00:00	4288	609	-2.1	-11.9	220	11
2023-09-29T00:00	4316	607	-2.3	-12.0	220	11
2023-09-29T00:00	4343	604	-2.5	-11.7	220	11
2023-09-29T00:00	4374	602	-2.7	-12.9	220	11
2023-09-29T00:00	4397	600	-2.8	-13.1	220	11
2023-09-29T00:00	4418	599	-3.0	-13.1	221	11
2023-09-29T00:00	4445	597	-3.3	-13.0	222	12
2023-09-29T00:00	4476	595	-3.6	-13.1	223	12
2023-09-29T00:00	4495	593	-3.8	-13.2	224	12
2023-09-29T00:00	4519	591	-4.0	-13.2	224	12
2023-09-29T00:00	4549	589	-4.2	-13.4	222	11
2023-09-29T00:00	4577	587	-4.4		221	11
2023-09-29T00:00	4599	585	-4.6	-13.5	219	11
2023-09-29T00:00	4615	584	-4.8	-13.4	217	10
2023-09-29T00:00	4636	582	-4.9	-13.3	217	11
2023-09-29T00:00	4668	580	-5.2	-13.6	218	11
2023-09-29T00:00	4693	578	-5.2	-13.3	220	11
2023-09-29T00:00	4723	576	-5.4	-13.2	221	12
2023-09-29T00:00	4746	574	-5.7	-13.4	222	12
2023-09-29T00:00	4769	573	-5.9	-13.2	222	11
2023-09-29T00:00	4789	571	-6.1	-13.3	222	11
2023-09-29T00:00	4807	570	-6.3	-13.3	221	11
2023-09-29T00:00	4828	568	-6.4	-12.6	221	11
2023-09-29T00:00	4847	567	-6.5	-12.4	220	11
2023-09-29T00:00	4868	565	-6.6	-12.3	220	11
2023-09-29T00:00	4896	563	-6.8	-12.1	220	11
2023-09-29T00:00	4928	561	-7.0	-12.2	220	12
2023-09-29T00:00	4949	560	-7.1	-12.3	219	12
2023-09-29T00:00	4967	558	-7.3	-12.3	219	12
2023-09-29T00:00	4984	557	-7.3	-12.1	219	12
2023-09-29T00:00	5005	556	-7.3	-12.3	220	12
2023-09-29T00:00	5028	554	-7.3	-12.6	223	11
2023-09-29T00:00	5058	552	-7.2	-13.2	226	11
2023-09-29T00:00	5075	551	-7.2	-13.5	229	10
2023-09-29T00:00	5097	549	-7.2	-13.6	230	10
2023-09-29T00:00	5123	547	-7.4	-13.8	230	9
2023-09-29T00:00	5153	545	-7.5	-14.7	228	9
2023-09-29T00:00	5184	543	-7.7	-15.1	226	9
2023-09-29T00:00	5208	541	-7.9	-14.8	225	9
2023-09-29T00:00	5227	540	-8.1	-14.7	224	9
2023-09-29T00:00	5246	539	-8.2	-15.0	223	9
2023-09-29T00:00	5267	537	-8.4	-15.3	222	9
2023-09-29T00:00	5294	535	-8.6	-14.8	221	10
2023-09-29T00:00	5322	533	-8.9	-14.8	222	10
2023-09-29T00:00	5352	531	-9.1	-15.3	223	10
2023-09-29T00:00	5374	530	-9.3	-15.2	224	11
2023-09-29T00:00	5396	528	-9.4	-15.3	225	11
2023-09-29T00:00	5419	527	-9.5	-15.1	226	12
2023-09-29T00:00	5438	526	-9.6	-15.3	226	12
2023-09-29T00:00	5460	524	-9.8	-15.4	226	13
2023-09-29T00:00	5488	522	-10.0	-15.5	226	13
2023-09-29T00:00	5514	520	-10.3	-15.6	226	13
2023-09-29T00:00	5541	519	-10.4	-16.4	225	14
2023-09-29T00:00	5567	517	-10.4	-16.9	224	14
2023-09-29T00:00	5601	515	-10.6	-18.3	221	14
2023-09-29T00:00	5625	513	-10.7	-19.2	219	14
2023-09-29T00:00	5641	512	-10.8	-19.2	217	13
2023-09-29T00:00	5661	511	-10.9	-19.3	216	13
2023-09-29T00:00	5685	509	-11.1	-19.3	215	13
2023-09-29T00:00	5712	507	-11.2	-20.3	214	13
2023-09-29T00:00	5739	506	-11.4	-20.0	212	13
2023-09-29T00:00	5758	504	-11.6	-20.3	209	13
2023-09-29T00:00	5785	502	-11.7	-20.3	206	13
2023-09-29T00:00	5809	501	-11.9	-20.2	204	14
2023-09-29T00:00	5830	499	-12.1	-20.2	203	14
2023-09-29T00:00	5854	498	-12.3	-20.2	203	14
2023-09-29T00:00	5882	496	-12.5	-20.5	205	13
2023-09-29T00:00	5916	494	-12.6	-21.8	207	12
2023-09-29T00:00	5936	493	-12.7	-22.7	209	12
2023-09-29T00:00	5954	491	-12.7	-24.6	211	11
2023-09-29T00:00	5979	490	-12.5	-27.7	213	10
2023-09-29T00:00	6006	488	-12.4	-29.3	215	10
2023-09-29T00:00	6038	486	-12.5	-31.1	216	9
2023-09-29T00:00	6063	484	-12.5	-33.6	217	9
2023-09-29T00:00	6082	483	-12.3	-37.8	215	9
2023-09-29T00:00	6108	482	-12.0		213	9
2023-09-29T00:00	6135	480	-12.1	-43.7	209	9
2023-09-29T00:00	6157	478	-12.3	-44.8	205	8
2023-09-29T00:00	6183	477	-12.5	-45.4	201	8
2023-09-29T00:00	6210	475	-12.7	-46.1	197	8
2023-09-29T00:00	6233	474	-12.8	-46.5	195	7
2023-09-29T00:00	6263	472	-13.1	-47.6	196	6
2023-09-29T00:00	6292	470	-13.2	-48.9	200	6
2023-09-29T00:00	6308	469	-13.2	-49.7	207	5
2023-09-29T00:00	6324	468	-13.3	-49.8	214	5
2023-09-29T00:00	6343	467	-13.4	-50.2	218	5
2023-09-29T00:00	6359	466	-13.4	-50.6	219	6
2023-09-29T00:00	6383	464	-13.4	-50.6	220	6
2023-09-29T00:00	6411	463	-13.6	-50.8	221	6
2023-09-29T00:00	6441	461	-13.7	-50.9	224	6
2023-09-29T00:00	6458	460	-13.9	-51.0	229	6
2023-09-29T00:00	6477	459	-14.0	-51.1	235	5
2023-09-29T00:00	6495	458	-14.0	-50.7	241	5
2023-09-29T00:00	6512	457	-13.9	-49.5	244	5
2023-09-29T00:00	6533	455	-13.9	-48.8	247	4
2023-09-29T00:00	6559	454	-13.8	-46.7	249	4
2023-09-29T00:00	6584	452	-13.9	-43.5	253	4
2023-09-29T00:00	6609	451	-14.1	-42.8	260	4
2023-09-29T00:00	6640	449	-14.4	-42.4	267	4
2023-09-29T00:00	6666	448	-14.5	-41.3	272	5
2023-09-29T00:00	6690	446	-14.7	-40.7	275	5
2023-09-29T00:00	6713	445	-14.9	-40.2	276	5
2023-09-29T00:00	6736	443	-15.1	-40.1	276	5
2023-09-29T00:00	6759	442	-15.2	-39.6	274	5
2023-09-29T00:00	6786	440	-15.4	-39.3	272	5
2023-09-29T00:00	6814	439	-15.5	-38.8	269	5
2023-09-29T00:00	6834	438	-15.4	-38.6	268	6
2023-09-29T00:00	6853	437	-15.4	-39.0	267	6
2023-09-29T00:00	6874	435	-15.5	-39.3	266	6
2023-09-29T00:00	6898	434	-15.7	-39.5	265	6
2023-09-29T00:00	6929	432	-16.0	-39.9	262	6
2023-09-29T00:00	6963	430	-16.2	-40.7	258	6
2023-09-29T00:00	6994	428	-16.3	-41.4	254	7
2023-09-29T00:00	7027	427	-16.6	-42.5	250	7
2023-09-29T00:00	7055	425	-16.7		246	7
2023-09-29T00:00	7085	423	-16.8	-45.1	242	7
2023-09-29T00:00	7118	422	-17.0	-45.1	238	7
2023-09-29T00:00	7139	420	-17.2	-45.1	235	7
2023-09-29T00:00	7158	419	-17.4	-44.9	235	7
2023-09-29T00:00	7177	418	-17.6	-44.9	236	7
2023-09-29T00:00	7197	417	-17.8	-44.8	238	7
2023-09-29T00:00	7218	416	-18.0	-44.1	240	7
2023-09-29T00:00	7249	414	-18.2	-43.5	241	7
2023-09-29T00:00	7272	413	-18.5	-43.3	240	7
2023-09-29T00:00	7294	412	-18.7	-43.1	238	7
2023-09-29T00:00	7321	410	-18.9	-42.8	236	7
2023-09-29T00:00	7355	408	-19.3	-43.1	235	7
2023-09-29T00:00	7383	407	-19.5	-43.0	235	7
2023-09-29T00:00	7406	405	-19.8	-42.1	234	7
2023-09-29T00:00	7430	404	-20.0	-42.1	232	6
2023-09-29T00:00	7466	402	-20.3	-42.0	229	6
2023-09-29T00:00	7504	400	-20.7	-41.7	225	6
2023-09-29T00:00	7524	399	-20.9	-40.6	222	6
2023-09-29T00:00	7541	398	-21.1	-40.6	222	6
2023-09-29T00:00	7559	397	-21.3	-40.7	224	6
2023-09-29T00:00	7578	396	-21.5	-40.4	227	6
2023-09-29T00:00	7598	395	-21.6	-40.1	231	6
2023-09-29T00:00	7617	394	-21.8	-40.1	234	6
2023-09-29T00:00	7634	393	-22.0	-40.2	238	6
2023-09-29T00:00	7653	392	-22.2	-40.3	243	6
2023-09-29T00:00	7675	391	-22.4	-40.5	248	6
2023-09-29T00:00	7706	389	-22.7	-41.1	251	6
2023-09-29T00:00	7731	388	-22.8	-41.5	250	6
2023-09-29T00:00	7756	387	-23.1	-41.6	245	6
2023-09-29T00:00	7780	385	-23.3	-41.6	238	6
2023-09-29T00:00	7805	384	-23.6	-42.0	233	7
2023-09-29T00:00	7829	383	-23.8	-41.9	231	7
2023-09-29T00:00	7854	381	-24.0	-42.1	232	8
2023-09-29T00:00	7886	380	-24.3	-42.0	236	8
2023-09-29T00:00	7907	379	-24.6	-42.2	240	8
2023-09-29T00:00	7925	378	-24.7	-42.2	244	8
2023-09-29T00:00	7947	377	-24.9	-41.7	247	8
2023-09-29T00:00	7976	375	-25.2	-41.5	248	8
2023-09-29T00:00	7999	374	-25.4	-41.7	249	8
2023-09-29T00:00	8020	373	-25.6	-41.5	250	8
2023-09-29T00:00	8045	372	-25.8	-41.3	251	8
2023-09-29T00:00	8067	370	-26.1	-41.4	252	9
2023-09-29T00:00	8093	369	-26.3	-40.9	253	9
2023-09-29T00:00	8124	368	-26.6	-40.8	254	9
2023-09-29T00:00	8155	366	-26.9	-40.6	255	9
2023-09-29T00:00	8185	365	-27.2	-40.7	255	10
2023-09-29T00:00	8215	363	-27.5	-40.8	255	10
2023-09-29T00:00	8247	361	-27.8	-40.8	255	9
2023-09-29T00:00	8277	360	-28.1	-40.9	255	9
2023-09-29T00:00	8304	358	-28.3	-40.9	254	9
2023-09-29T00:00	8333	357	-28.6	-41.1	253	9
2023-09-29T00:00	8362	356	-28.9	-41.5	253	9
2023-09-29T00:00	8386	354	-29.1	-41.3	253	9
2023-09-29T00:00	8408	353	-29.3	-41.2	253	9
2023-09-29T00:00	8433	352	-29.6	-41.3	255	9
2023-09-29T00:00	8455	351	-29.8	-41.5	257	9
2023-09-29T00:00	8481	350	-30.1	-41.7	258	9
2023-09-29T00:00	8507	348	-30.3	-41.6	259	9
2023-09-29T00:00	8535	347	-30.6	-40.1	261	9
2023-09-29T00:00	8565	346	-30.8	-38.0	262	9
2023-09-29T00:00	8595	344	-31.1	-37.3	264	9
2023-09-29T00:00	8622	343	-31.4	-37.1	267	10
2023-09-29T00:00	8652	341	-31.6	-35.8	269	10
2023-09-29T00:00	8679	340	-31.7	-35.8	271	10
2023-09-29T00:00	8702	339	-31.7	-36.0	272	10
2023-09-29T00:00	8732	338	-31.9	-35.9	273	10
2023-09-29T00:00	8754	336	-32.1	-35.8	273	11
2023-09-29T00:00	8783	335	-32.4	-35.9	274	11
2023-09-29T00:00	8808	334	-32.6	-35.9	275	11
2023-09-29T00:00	8830	333	-32.8	-36.0	276	12
2023-09-29T00:00	8852	332	-33.0	-36.0	277	12
2023-09-29T00:00	8873	331	-33.3	-36.0	278	12
2023-09-29T00:00	8895	330	-33.4	-35.9	278	11
2023-09-29T00:00	8917	329	-33.6	-35.9	278	11
2023-09-29T00:00	8943	328	-33.8	-36.2	278	11
2023-09-29T00:00	8965	327	-34.0	-37.2	277	11
2023-09-29T00:00	8988	326	-34.1	-38.0	277	11
2023-09-29T00:00	9009	325	-34.3	-37.9	277	10
2023-09-29T00:00	9032	323	-34.5	-38.3	277	10
2023-09-29T00:00	9052	322	-34.6	-39.4	277	10
2023-09-29T00:00	9077	321	-34.8	-39.6	278	10
2023-09-29T00:00	9103	320	-35.0	-39.4	279	10
2023-09-29T00:00	9129	319	-35.3	-39.5	280	10
2023-09-29T00:00	9160	318	-35.6	-39.6	281	10
2023-09-29T00:00	9185	316	-35.8	-39.6	281	10
2023-09-29T00:00	9209	315	-36.0	-39.6	281	11
2023-09-29T00:00	9236	314	-36.3	-39.5	281	11
2023-09-29T00:00	9261	313	-36.5	-39.7	281	12
2023-09-29T00:00	9283	312	-36.6	-40.2	281	12
2023-09-29T00:00	9307	311	-36.8	-39.8	281	12
2023-09-29T00:00	9329	310	-36.9	-39.8	282	12
2023-09-29T00:00	9351	309	-37.0		283	12
2023-09-29T00:00	9374	308	-37.2	-40.4	285	12
2023-09-29T00:00	9396	307	-37.4	-40.4	286	13
2023-09-29T00:00	9417	306	-37.6	-40.3	288	13
2023-09-29T00:00	9438	305	-37.7	-40.5	289	13
2023-09-29T00:00	9461	304	-37.9	-40.5	290	13
2023-09-29T00:00	9480	303	-38.0	-40.8	291	13
2023-09-29T00:00	9501	302	-38.0	-41.1	292	13
2023-09-29T00:00	9521	301	-38.1	-41.4	292	13
2023-09-29T00:00	9543	301	-38.2		293	12
2023-09-29T00:00	9562	300	-38.3	-41.8	293	12
2023-09-29T00:00	9582	299	-38.4	-42.3	294	12
2023-09-29T00:00	9603	298	-38.6	-42.5	294	12
2023-09-29T00:00	9623	297	-38.8	-42.8	294	12
2023-09-29T00:00	9643	296	-38.9	-43.3	295	12
2023-09-29T00:00	9662	295	-39.0	-43.9	295	11
2023-09-29T00:00	9682	294	-38.9	-44.8	296	11
2023-09-29T00:00	9703	294	-39.0	-45.3	297	11
2023-09-29T00:00	9722	293	-39.1	-45.5	298	11
2023-09-29T00:00	9742	292	-39.3	-45.8	299	11
2023-09-29T00:00	9763	291	-39.4	-46.2	300	10
2023-09-29T00:00	9782	290	-39.6	-46.5	301	10
2023-09-29T00:00	9801	289	-39.6	-46.5	302	10
2023-09-29T00:00	9820	289	-39.8	-46.3	303	10
2023-09-29T00:00	9840	288	-39.9	-46.2	304	10
2023-09-29T00:00	9860	287	-40.1	-46.3	305	10
2023-09-29T00:00	9878	286	-40.3	-46.5	306	10
2023-09-29T00:00	9898	285	-40.5	-46.6	307	10
2023-09-29T00:00	9919	284	-40.6	-46.7	308	10
2023-09-29T00:00	9937	284	-40.8	-46.9	308	11
2023-09-29T00:00	9957	283	-41.0	-47.0	310	11
2023-09-29T00:00	9976	282	-41.1	-47.1	311	11
2023-09-29T00:00	10000	281	-41.3	-47.2	313	11
2023-09-29T00:00	10019	280	-41.5	-47.7	315	12
2023-09-29T00:00	10043	279	-41.7	-47.8	316	12
2023-09-29T00:00	10072	278	-41.9	-48.1	316	12
2023-09-29T00:00	10099	277	-42.1	-48.1	316	13
2023-09-29T00:00	10128	276	-42.4	-48.2	316	13
2023-09-29T00:00	10161	274	-42.7	-48.3	316	13
2023-09-29T00:00	10189	273	-42.9	-48.5	316	13
2023-09-29T00:00	10214	272	-43.2	-48.6	316	13
2023-09-29T00:00	10237	271	-43.4	-48.7	317	14
2023-09-29T00:00	10260	270	-43.6	-49.0	317	14
2023-09-29T00:00	10293	269	-43.9	-49.1	317	15
2023-09-29T00:00	10316	268	-44.1	-49.3	317	15
2023-09-29T00:00	10337	267	-44.2	-49.5	317	15
2023-09-29T00:00	10359	266	-44.4	-49.5	317	16
2023-09-29T00:00	10380	266	-44.6	-49.6	316	16
2023-09-29T00:00	10402	265	-44.7	-49.8	316	16
2023-09-29T00:00	10421	264	-44.8	-49.9	316	16
2023-09-29T00:00	10440	263	-45.0	-50.1	316	17
2023-09-29T00:00	10460	262	-45.2	-50.4	316	17
2023-09-29T00:00	10480	262	-45.3	-50.6	316	17
2023-09-29T00:00	10500	261	-45.5	-50.6	316	17
2023-09-29T00:00	10521	260	-45.7	-50.6	316	17
2023-09-29T00:00	10542	259	-45.9	-50.7	316	17
2023-09-29T00:00	10564	258	-46.1	-50.8	316	17
2023-09-29T00:00	10584	258	-46.3	-51.0	316	17
2023-09-29T00:00	10605	257	-46.5	-51.1	316	17
2023-09-29T00:00	10626	256	-46.7	-51.3	316	17
2023-09-29T00:00	10646	255	-46.9	-51.5	316	17
2023-09-29T00:00	10665	254	-47.0	-51.7	315	17
2023-09-29T00:00	10686	254	-47.1	-51.8	315	17
2023-09-29T00:00	10706	253	-47.3	-52.0	315	17
2023-09-29T00:00	10726	252	-47.4	-52.1	315	17
2023-09-29T00:00	10748	251	-47.6	-52.2	315	17
2023-09-29T00:00	10766	251	-47.7	-52.3	314	17
2023-09-29T00:00	10787	250	-47.9	-52.5	314	17
2023-09-29T00:00	10808	249	-48.1	-52.9	314	17
2023-09-29T00:00	10826	248	-48.3	-53.1	314	17
2023-09-29T00:00	10846	248	-48.4	-53.1	313	17
2023-09-29T00:00	10865	247	-48.6	-53.2	313	17
2023-09-29T00:00	10885	246	-48.7	-53.4	312	17
2023-09-29T00:00	10903	245	-48.9	-53.6	312	17
2023-09-29T00:00	10923	245	-49.0	-53.6	313	17
2023-09-29T00:00	10943	244	-49.2	-53.6	313	17
2023-09-29T00:00	10964	243	-49.4	-53.7	314	17
2023-09-29T00:00	10984	242	-49.5		315	17
2023-09-29T00:00	11005	242	-49.7	-54.1	316	17
2023-09-29T00:00	11026	241	-49.9	-54.4	317	18
2023-09-29T00:00	11049	240	-50.1		317	18
2023-09-29T00:00	11069	239	-50.2	-54.6	318	18
2023-09-29T00:00	11090	239	-50.4	-54.7	318	19
2023-09-29T00:00	11111	238	-50.6	-54.8	318	19
2023-09-29T00:00	11133	237	-50.7	-54.9	318	19
2023-09-29T00:00	11153	236	-50.9	-55.1	318	20
2023-09-29T00:00	11175	236	-51.0	-55.2	318	20
2023-09-29T00:00	11194	235	-51.2	-55.5	318	20
2023-09-29T00:00	11215	234	-51.4	-55.7	317	20
2023-09-29T00:00	11235	233	-51.5	-55.7	317	20
2023-09-29T00:00	11256	233	-51.7	-55.9	317	20
2023-09-29T00:00	11274	232	-51.9	-56.1	317	20
2023-09-29T00:00	11295	231	-52.1	-56.3	317	20
2023-09-29T00:00	11314	230	-52.2	-56.5	317	20
2023-09-29T00:00	11333	230	-52.4	-56.7	317	20
2023-09-29T00:00	11354	229	-52.5	-56.8	317	21
2023-09-29T00:00	11373	228	-52.7	-57.0	317	21
2023-09-29T00:00	11393	228	-52.9	-57.1	317	21
2023-09-29T00:00	11413	227	-53.0	-57.3	316	21
2023-09-29T00:00	11433	226	-53.2	-57.5	316	21
2023-09-29T00:00	11452	226	-53.4	-57.7	315	21
2023-09-29T00:00	11471	225	-53.5	-57.9	315	22
2023-09-29T00:00	11490	224	-53.7	-58.0	315	22
2023-09-29T00:00	11511	224	-53.9	-58.2	315	22
2023-09-29T00:00	11527	223	-54.0	-58.3	315	22
2023-09-29T00:00	11549	222	-54.2	-58.6	314	23
2023-09-29T00:00	11568	222	-54.4	-58.8	314	23
2023-09-29T00:00	11588	221	-54.5	-58.9	313	23
2023-09-29T00:00	11607	220	-54.5	-58.9	312	23
2023-09-29T00:00	11627	220	-54.6	-58.9	312	23
2023-09-29T00:00	11647	219	-54.7	-59.0	312	23
2023-09-29T00:00	11667	218	-54.8	-59.2	312	23
2023-09-29T00:00	11688	217	-55.0	-59.4	312	23
2023-09-29T00:00	11706	217	-55.1	-59.6	312	24
2023-09-29T00:00	11728	216	-55.2	-59.7	312	24
2023-09-29T00:00	11745	215	-55.4	-60.0	312	24
2023-09-29T00:00	11767	215	-55.6	-60.2	313	24
2023-09-29T00:00	11790	214	-55.8	-60.4	313	25
2023-09-29T00:00	11809	213	-55.9	-60.5	314	25
2023-09-29T00:00	11828	213	-56.1	-60.7	314	25
2023-09-29T00:00	11847	212	-56.3	-60.9	314	25
2023-09-29T00:00	11867	211	-56.5	-61.1	315	25
2023-09-29T00:00	11886	211	-56.7	-61.3	315	26
2023-09-29T00:00	11908	210	-56.9	-61.5	315	26
2023-09-29T00:00	11929	209	-57.0	-61.7	316	26
2023-09-29T00:00	11949	209	-57.1	-61.8	316	26
2023-09-29T00:00	11970	208	-57.2	-61.8	316	26
2023-09-29T00:00	11989	207	-57.4	-61.8	316	26
2023-09-29T00:00	12010	207	-57.6	-61.8	316	27
2023-09-29T00:00	12028	206	-57.8	-61.8	316	27
2023-09-29T00:00	12049	205	-57.9	-61.8	316	27
2023-09-29T00:00	12070	205	-58.1	-62.0	316	27
2023-09-29T00:00	12090	204	-58.3	-62.1	316	27
2023-09-29T00:00	12110	203	-58.5	-62.3	316	26
2023-09-29T00:00	12131	203	-58.6	-62.4	316	26
2023-09-29T00:00	12150	202	-58.8	-62.8	316	26
2023-09-29T00:00	12169	201	-59.0	-63.2	316	26
2023-09-29T00:00	12191	201	-59.1	-63.6	316	26
2023-09-29T00:00	12209	200	-59.3	-64.0	316	26
2023-09-29T00:00	12230	200	-59.5	-64.4	316	26
2023-09-29T00:00	12252	199	-59.6	-64.7	316	26
2023-09-29T00:00	12272	198	-59.8	-65.2	316	25
2023-09-29T00:00	12292	198	-59.9	-65.5	316	25
2023-09-29T00:00	12313	197	-60.1	-65.8	316	25
2023-09-29T00:00	12332	196	-60.2	-66.0	317	25
2023-09-29T00:00	12353	196	-60.3	-65.9	317	25
2023-09-29T00:00	12372	195	-60.5	-65.7	317	26
2023-09-29T00:00	12396	194	-60.6	-65.0	317	26
2023-09-29T00:00	12418	194	-60.8	-64.3	317	26
2023-09-29T00:00	12436	193	-61.0	-63.8	317	27
2023-09-29T00:00	12457	192	-61.1	-63.4	317	27
2023-09-29T00:00	12475	192	-61.3	-63.4	317	27
2023-09-29T00:00	12493	191	-61.4	-63.5	318	27
2023-09-29T00:00	12513	191	-61.5	-63.9	318	27
2023-09-29T00:00	12533	190	-61.5	-64.3	318	28
2023-09-29T00:00	12555	189	-61.4	-64.7	318	28
2023-09-29T00:00	12573	189	-61.5	-65.3	318	28
2023-09-29T00:00	12595	188	-61.6	-65.7	318	28
2023-09-29T00:00	12616	188	-61.6	-66.0	319	28
2023-09-29T00:00	12636	187	-61.7	-66.2	319	27
2023-09-29T00:00	12659	186	-61.7	-66.4	319	26
2023-09-29T00:00	12680	186	-61.8	-66.7	318	25
2023-09-29T00:00	12716	185	-61.9	-67.2	316	24
2023-09-29T00:00	12747	184	-61.7	-67.5	314	22
2023-09-29T00:00	12778	183	-61.6	-67.9	312	22
2023-09-29T00:00	12803	182	-61.7	-68.3	312	21
2023-09-29T00:00	12826	181	-61.8	-68.5	312	21
2023-09-29T00:00	12853	180	-61.9	-68.6	314	20
2023-09-29T00:00	12887	180	-62.3	-68.9	315	19
2023-09-29T00:00	12916	179	-62.4	-68.8	314	18
2023-09-29T00:00	12944	178	-62.6	-68.9	313	17
2023-09-29T00:00	12977	177	-62.6	-68.9	310	16
2023-09-29T00:00	12998	176	-62.8	-69.1	307	15
2023-09-29T00:00	13019	176	-62.9	-69.2	305	15
2023-09-29T00:00	13040	175	-63.0	-69.2	302	14
2023-09-29T00:00	13060	175	-63.1	-69.4	300	14
2023-09-29T00:00	13078	174	-63.1	-69.6	298	14
2023-09-29T00:00	13100	173	-63.0	-70.1	296	13
2023-09-29T00:00	13120	173	-62.6	-70.6	294	13
2023-09-29T00:00	13140	172	-61.9	-71.1	293	13
2023-09-29T00:00	13160	172	-61.5	-72.0	292	12
2023-09-29T00:00	13179	171	-61.2	-72.9	292	12
2023-09-29T00:00	13199	171	-61.1	-73.6	291	12
2023-09-29T00:00	13218	170	-61.0		290	12
2023-09-29T00:00	13239	170	-61.0	-74.3	289	12
2023-09-29T00:00	13258	169	-61.2	-74.5	288	12
2023-09-29T00:00	13278	169	-61.3	-74.6	288	12
2023-09-29T00:00	13299	168	-61.5	-74.6	289	12
2023-09-29T00:00	13320	167	-61.7	-74.6	289	13
2023-09-29T00:00	13340	167	-61.9	-74.5	290	13
2023-09-29T00:00	13359	166	-62.1	-74.5	291	13
2023-09-29T00:00	13380	166	-62.3	-74.5	291	14
2023-09-29T00:00	13401	165	-62.3	-74.4	291	14
2023-09-29T00:00	13422	165	-62.4	-74.4	291	14
2023-09-29T00:00	13440	164	-62.4	-74.4	290	15
2023-09-29T00:00	13462	164	-62.6	-74.6	291	15
2023-09-29T00:00	13484	163	-62.8	-74.7	291	15
2023-09-29T00:00	13506	162	-63.0	-75.0	292	16
2023-09-29T00:00	13526	162	-63.0	-75.1	292	16
2023-09-29T00:00	13547	161	-62.8	-75.2	293	17
2023-09-29T00:00	13570	161	-62.8		293	17
2023-09-29T00:00	13591	160	-62.9	-75.6	293	18
2023-09-29T00:00	13614	160	-63.0	-75.8	293	18
2023-09-29T00:00	13634	159	-63.1	-76.0	294	19
2023-09-29T00:00	13655	159	-63.2	-76.2	295	19
2023-09-29T00:00	13674	158	-63.3	-76.5	296	19
2023-09-29T00:00	13694	158	-63.2	-76.6	297	20
2023-09-29T00:00	13715	157	-63.2	-76.8	298	20
2023-09-29T00:00	13734	157	-63.2	-77.0	299	20
2023-09-29T00:00	13753	156	-63.2	-77.2	300	20
2023-09-29T00:00	13771	156	-63.2	-77.4	301	19
2023-09-29T00:00	13790	155	-63.2	-77.7	302	19
2023-09-29T00:00	13810	155	-63.2	-78.1	303	18
2023-09-29T00:00	13830	154	-62.7	-78.2	304	18
2023-09-29T00:00	13851	154	-62.4	-78.4	304	17
2023-09-29T00:00	13870	153	-62.3	-78.9	303	16
2023-09-29T00:00	13896	152	-62.0	-79.3	302	15
2023-09-29T00:00	13933	152	-61.2	-79.0	300	13
2023-09-29T00:00	13958	151	-61.2	-79.4	299	12
2023-09-29T00:00	13984	150	-61.3	-79.6	300	11
2023-09-29T00:00	14016	150	-61.5	-79.7	301	10
2023-09-29T00:00	14048	149	-61.6	-79.8	302	9
2023-09-29T00:00	14072	148	-61.8	-79.9	301	9
2023-09-29T00:00	14091	148	-62.0	-79.9	297	8
2023-09-29T00:00	14113	147	-62.2	-80.0	292	8
2023-09-29T00:00	14139	147	-62.3	-80.0	288	8
2023-09-29T00:00	14164	146	-62.4	-79.9	284	8
2023-09-29T00:00	14186	145	-62.6	-79.9	282	8
2023-09-29T00:00	14210	145	-62.8	-80.0	280	8
2023-09-29T00:00	14231	144	-63.0		280	8
2023-09-29T00:00	14255	144	-63.2	-80.1	280	8
2023-09-29T00:00	14279	143	-63.5	-80.2	280	8
2023-09-29T00:00	14302	143	-63.6	-80.2	280	9
2023-09-29T00:00	14322	142	-63.7	-80.2	279	9
2023-09-29T00:00	14345	142	-63.8	-80.2	278	10
2023-09-29T00:00	14366	141	-64.0	-80.2	277	11
2023-09-29T00:00	14388	141	-64.2	-80.3	275	11
2023-09-29T00:00	14407	140	-64.4	-80.5	275	12
2023-09-29T00:00	14425	140	-64.5	-80.6	274	13
2023-09-29T00:00	14446	139	-64.4	-80.6	275	13
2023-09-29T00:00	14467	139	-64.4	-80.8	276	14
2023-09-29T00:00	14489	138	-64.4	-80.9	278	14
2023-09-29T00:00	14507	138	-64.0	-80.8	280	15
2023-09-29T00:00	14528	138	-64.0	-81.1	282	15
2023-09-29T00:00	14548	137	-63.8	-81.2	284	15
2023-09-29T00:00	14569	137	-63.5	-81.3	286	15
2023-09-29T00:00	14587	136	-63.2	-81.3	288	15
2023-09-29T00:00	14607	136	-63.1	-81.5	290	15
2023-09-29T00:00	14626	135	-63.0	-81.6	291	15
2023-09-29T00:00	14646	135	-63.1	-81.9	292	14
2023-09-29T00:00	14682	134	-63.1	-82.2	293	13
2023-09-29T00:00	14714	134	-62.5	-81.9	294	12
2023-09-29T00:00	14732	133	-62.2	-81.9	294	11
2023-09-29T00:00	14752	133	-62.1	-82.1	293	10
2023-09-29T00:00	14777	132	-62.1	-82.2	291	10
2023-09-29T00:00	14797	132	-62.3	-82.3	289	9
2023-09-29T00:00	14818	131	-62.4	-82.4	287	9
2023-09-29T00:00	14842	131	-62.6	-82.5	285	9
2023-09-29T00:00	14861	130	-62.7	-82.5	282	8
2023-09-29T00:00	14882	130	-62.9	-82.6	278	8
2023-09-29T00:00	14904	129	-63.0	-82.7	275	9
2023-09-29T00:00	14926	129	-63.1	-82.8	272	9
2023-09-29T00:00	14948	129	-63.2	-82.7	269	9
2023-09-29T00:00	14967	128	-63.4	-82.8	267	10
2023-09-29T00:00	14985	128	-63.5	-82.8	265	10
2023-09-29T00:00	15006	127	-63.6	-82.8	263	10
2023-09-29T00:00	15026	127	-63.7	-82.9	262	11
2023-09-29T00:00	15046	126	-63.7	-82.9	262	12
2023-09-29T00:00	15068	126	-63.9	-83.1	263	12
2023-09-29T00:00	15090	126	-63.9	-83.2	264	13
2023-09-29T00:00	15108	125	-63.9	-83.3	266	13
2023-09-29T00:00	15130	125	-64.0	-83.5	269	14
2023-09-29T00:00	15150	124	-63.6	-83.3	271	14
2023-09-29T00:00	15170	124	-63.3	-83.3	273	15
2023-09-29T00:00	15188	124	-63.4	-83.5	275	15
2023-09-29T00:00	15206	123	-63.4	-83.6	276	15
2023-09-29T00:00	15227	123	-63.4	-83.8	277	16
2023-09-29T00:00	15246	122	-63.1	-83.7	278	16
2023-09-29T00:00	15266	122	-63.1	-84.1	279	15
2023-09-29T00:00	15285	122	-62.9	-84.2	280	15
2023-09-29T00:00	15301	121	-62.0	-84.0	281	14
2023-09-29T00:00	15323	121	-61.3	-83.8	282	14
2023-09-29T00:00	15339	121	-61.2	-83.9	283	13
2023-09-29T00:00	15360	120	-61.2	-84.3	284	12
2023-09-29T00:00	15381	120	-61.1	-84.4	285	11
2023-09-29T00:00	15401	119	-60.9	-84.3	285	11
2023-09-29T00:00	15420	119	-60.6	-84.2	286	10
2023-09-29T00:00	15439	119	-60.6	-84.2	286	9
2023-09-29T00:00	15461	118	-60.6	-84.2	286	9
2023-09-29T00:00	15481	118	-60.7	-84.3	285	8
2023-09-29T00:00	15504	117	-60.8	-84.4	284	8
2023-09-29T00:00	15526	117	-61.0	-84.5	281	7
2023-09-29T00:00	15548	117	-61.1	-84.4	277	6
2023-09-29T00:00	15568	116	-61.3	-84.6	271	5
2023-09-29T00:00	15593	116	-61.4	-84.7	263	5
2023-09-29T00:00	15612	115	-61.4	-84.7	255	4
2023-09-29T00:00	15633	115	-61.4	-84.9	247	4
2023-09-29T00:00	15655	115	-61.4	-84.9	242	4
2023-09-29T00:00	15674	114	-61.5	-84.9	238	5
2023-09-29T00:00	15697	114	-61.7	-84.9	236	5
2023-09-29T00:00	15719	113	-61.8	-85.0	235	5
2023-09-29T00:00	15739	113	-62.0	-84.9	234	6
2023-09-29T00:00	15759	113	-62.2	-85.1	236	6
2023-09-29T00:00	15781	112	-62.4	-85.2	238	6
2023-09-29T00:00	15801	112	-62.6	-85.2	241	7
2023-09-29T00:00	15823	112	-62.6	-85.2	245	8
2023-09-29T00:00	15845	111	-62.8	-85.4	249	8
2023-09-29T00:00	15867	111	-62.7	-85.5	252	9
2023-09-29T00:00	15885	110	-62.6	-85.4	254	10
2023-09-29T00:00	15907	110	-62.6	-85.4	256	10
2023-09-29T00:00	15927	110	-62.6	-85.4	258	11
2023-09-29T00:00	15947	109	-62.7	-85.5	260	12
2023-09-29T00:00	15971	109	-62.7	-85.7	262	12
2023-09-29T00:00	15991	109	-62.7	-85.7	264	11
2023-09-29T00:00	16014	108	-62.6	-85.8	267	11
2023-09-29T00:00	16036	108	-62.4	-85.7	269	10
2023-09-29T00:00	16058	107	-62.1	-85.6	270	10
2023-09-29T00:00	16080	107	-62.0	-85.6	269	9
2023-09-29T00:00	16100	107	-62.0	-85.8	267	8
2023-09-29T00:00	16123	106	-62.0	-86.0	262	8
2023-09-29T00:00	16142	106	-61.9	-85.9	256	7
2023-09-29T00:00	16162	106	-61.2	-85.6	251	7
2023-09-29T00:00	16187	105	-61.1	-85.6	247	8
2023-09-29T00:00	16207	105	-61.1	-85.8	244	8
2023-09-29T00:00	16228	104	-60.9	-85.7	243	8
2023-09-29T00:00	16251	104	-61.0	-85.7	242	8
2023-09-29T00:00	16271	104	-61.1	-85.8	241	9
2023-09-29T00:00	16294	103	-61.3	-85.7	241	9
2023-09-29T00:00	16317	103	-61.5	-85.9	241	10
2023-09-29T00:00	16337	103	-61.7	-85.8	242	10
2023-09-29T00:00	16360	102	-61.8	-85.9	243	11
2023-09-29T00:00	16383	102	-61.8	-85.9	244	11
2023-09-29T00:00	16403	102	-61.9	-86.2	246	12
2023-09-29T00:00	16427	101	-61.8	-86.1	248	12
2023-09-29T00:00	16447	101	-61.9	-86.2	250	12
2023-09-29T00:00	16467	100	-61.9	-86.2	252	12
2023-09-29T00:00	16488	100	-61.5	-86.1	254	12
2023-09-29T00:00	16509	100	-61.5	-86.4	255	11
2023-09-29T00:00	16531	99	-61.0	-86.3	256	11
2023-09-29T00:00	16549	99	-60.6	-86.3	256	10
2023-09-29T00:00	16570	99	-60.5	-86.2	256	10
2023-09-29T00:00	16589	99	-60.4		255	11
2023-09-29T00:00	16609	98	-60.1	-86.2	254	11
2023-09-29T00:00	16630	98	-60.2	-86.3	253	12
2023-09-29T00:00	16650	98	-60.2	-86.3	253	12
2023-09-29T00:00	16668	97	-60.3	-86.3	253	12
2023-09-29T00:00	16687	97	-60.5	-86.2	253	13
2023-09-29T00:00	16706	97	-60.6	-86.3	254	13
2023-09-29T00:00	16727	96	-60.6	-86.3	255	12
2023-09-29T00:00	16746	96	-60.6	-86.6	257	12
2023-09-29T00:00	16764	96	-60.4		259	12
2023-09-29T00:00	16787	95	-60.1	-86.2	262	12
2023-09-29T00:00	16807	95	-60.0	-86.4	264	12
2023-09-29T00:00	16827	95	-59.6	-86.5	265	12
2023-09-29T00:00	16844	95	-59.2	-86.2	265	11
2023-09-29T00:00	16867	94	-59.2	-86.5	264	11
2023-09-29T00:00	16890	94	-59.0	-86.4	262	10
2023-09-29T00:00	16910	94	-58.3	-86.2	259	10
2023-09-29T00:00	16931	93	-58.2	-86.2	255	9
2023-09-29T00:00	16952	93	-58.3	-86.2	252	9
2023-09-29T00:00	16974	93	-58.4	-86.3	249	8
2023-09-29T00:00	16995	92	-58.5	-86.4	247	8
2023-09-29T00:00	17017	92	-58.5	-86.4	246	8
2023-09-29T00:00	17039	92	-58.5	-86.4	246	7
2023-09-29T00:00	17061	91	-58.5	-86.8	246	7
2023-09-29T00:00	17083	91	-57.9	-86.4	246	7
2023-09-29T00:00	17103	91	-57.5	-86.1	246	7
2023-09-29T00:00	17126	90	-57.5	-86.1	247	6
2023-09-29T00:00	17149	90	-57.6	-86.1	248	6
2023-09-29T00:00	17169	90	-57.8	-86.3	248	6
2023-09-29T00:00	17195	89	-57.8	-86.3	248	6
2023-09-29T00:00	17215	89	-57.8	-86.3	247	7
2023-09-29T00:00	17238	89	-57.8	-86.3	245	7
2023-09-29T00:00	17261	89	-57.9	-86.4	243	7
2023-09-29T00:00	17284	88	-58.0	-86.4	242	7
2023-09-29T00:00	17306	88	-58.1		241	7
2023-09-29T00:00	17330	88	-58.3	-86.2	241	8
2023-09-29T00:00	17354	87	-58.5	-86.4	242	8
2023-09-29T00:00	17376	87	-58.7	-86.5	243	8
2023-09-29T00:00	17400	87	-58.9	-86.7	244	9
2023-09-29T00:00	17422	86	-59.1	-86.5	246	9
2023-09-29T00:00	17444	86	-59.3	-86.6	247	10
2023-09-29T00:00	17465	86	-59.2	-86.5	248	10
2023-09-29T00:00	17489	85	-59.3	-86.6	249	10
2023-09-29T00:00	17512	85	-59.4	-86.7	249	11
2023-09-29T00:00	17533	85	-59.6	-86.8	250	11
2023-09-29T00:00	17555	84	-59.7	-86.9	251	11
2023-09-29T00:00	17576	84	-59.9	-87.1	252	11
2023-09-29T00:00	17600	84	-60.0	-86.8	253	12
2023-09-29T00:00	17620	84	-60.2	-86.9	255	12
2023-09-29T00:00	17645	83	-60.3	-87.0	256	13
2023-09-29T00:00	17666	83	-60.4	-87.1	257	13
2023-09-29T00:00	17688	83	-60.4	-87.1	258	14
2023-09-29T00:00	17709	82	-60.5	-87.2	260	14
2023-09-29T00:00	17732	82	-60.4	-87.1	261	14
2023-09-29T00:00	17755	82	-60.6	-87.2	262	14
2023-09-29T00:00	17776	82	-60.6	-87.2	263	14
2023-09-29T00:00	17798	81	-60.7	-87.3	265	14
2023-09-29T00:00	17818	81	-60.8	-87.4	266	13
2023-09-29T00:00	17838	81	-61.0	-87.5	268	12
2023-09-29T00:00	17862	80	-60.9	-87.5	268	12
2023-09-29T00:00	17882	80	-60.9	-87.5	268	11
2023-09-29T00:00	17903	80	-60.8	-87.7	268	10
2023-09-29T00:00	17925	80	-60.7	-87.7	266	9
2023-09-29T00:00	17946	79	-60.4	-87.8	264	9
2023-09-29T00:00	17968	79	-60.1	-87.6	263	9
2023-09-29T00:00	17990	79	-60.0	-87.5	262	9
2023-09-29T00:00	18013	79	-60.0	-87.9	262	10
2023-09-29T00:00	18034	78	-59.7	-87.7	263	10
2023-09-29T00:00	18054	78	-59.7	-87.7	265	10
2023-09-29T00:00	18075	78	-59.5	-87.6	267	10
2023-09-29T00:00	18098	77	-59.1	-87.7	269	10
2023-09-29T00:00	18122	77	-59.2	-87.8	270	9
2023-09-29T00:00	18142	77	-59.0	-87.6	271	9
2023-09-29T00:00	18164	77	-58.8	-87.5	270	8
2023-09-29T00:00	18186	76	-58.6	-87.3	268	8
2023-09-29T00:00	18210	76	-58.5	-87.3	264	7
2023-09-29T00:00	18232	76	-58.6	-87.3	261	7
2023-09-29T00:00	18256	76	-58.7	-87.4	258	7
2023-09-29T00:00	18281	75	-58.8	-87.5	257	7
2023-09-29T00:00	18301	75	-58.9	-87.6	259	7
2023-09-29T00:00	18324	75	-59.0	-87.6	262	7
2023-09-29T00:00	18345	74	-58.8	-87.5	265	7
2023-09-29T00:00	18365	74	-58.7	-87.4	267	7
2023-09-29T00:00	18388	74	-58.7	-87.4	268	7
2023-09-29T00:00	18409	74	-58.7	-87.4	269	7
2023-09-29T00:00	18433	73	-58.8	-87.5	269	7
2023-09-29T00:00	18456	73	-58.8	-88.0	269	6
2023-09-29T00:00	18479	73	-58.8	-88.0	269	6
2023-09-29T00:00	18499	73	-58.7	-87.9	269	5
2023-09-29T00:00	18522	72	-58.8	-87.5	267	5
2023-09-29T00:00	18543	72	-58.9	-87.6	263	4
2023-09-29T00:00	18569	72	-58.9	-88.0	253	4
2023-09-29T00:00	18592	72	-58.9	-88.0	239	4
2023-09-29T00:00	18618	71	-58.8	-88.0	224	4
2023-09-29T00:00	18638	71	-58.7	-87.9	212	4
2023-09-29T00:00	18657	71	-58.5	-87.7	205	5
2023-09-29T00:00	18681	71	-58.4	-87.7	202	6
2023-09-29T00:00	18705	70	-58.4	-87.7	201	6
2023-09-29T00:00	18728	70	-58.5	-87.7	201	7
2023-09-29T00:00	18750	70	-58.7	-87.9	202	7
2023-09-29T00:00	18771	70	-58.8	-88.0	202	8
2023-09-29T00:00	18793	69	-58.9	-87.6	203	8
2023-09-29T00:00	18816	69	-59.0	-87.6	204	8
2023-09-29T00:00	18838	69	-59.2	-87.8	206	8
2023-09-29T00:00	18861	69	-59.4	-87.9	208	8
2023-09-29T00:00	18883	68	-59.6	-88.1	210	8
2023-09-29T00:00	18908	68	-59.8	-87.8	213	8
2023-09-29T00:00	18928	68	-60.0	-87.9	217	8
2023-09-29T00:00	18950	68	-60.2	-88.1	222	9
2023-09-29T00:00	18972	67	-60.3	-88.2	227	9
2023-09-29T00:00	18994	67	-60.3	-88.6	233	9
2023-09-29T00:00	19017	67	-60.3	-88.6	238	10
2023-09-29T00:00	19037	67	-60.3	-88.6	242	10
2023-09-29T00:00	19059	66	-60.3	-88.6	246	10
2023-09-29T00:00	19079	66	-60.1	-88.5	248	9
2023-09-29T00:00	19102	66	-59.9	-88.3	250	9
2023-09-29T00:00	19122	66	-59.8	-88.2	252	9
2023-09-29T00:00	19144	66	-59.8	-88.2	253	9
2023-09-29T00:00	19165	65	-59.9	-88.3	254	8
2023-09-29T00:00	19188	65	-60.0	-88.4	255	9
2023-09-29T00:00	19209	65	-60.1	-88.5	255	9
2023-09-29T00:00	19232	65	-59.9	-88.3	256	9
2023-09-29T00:00	19256	64	-60.0	-88.4	257	9
2023-09-29T00:00	19277	64	-60.0	-88.4	258	9
2023-09-29T00:00	19295	64	-60.1	-88.5	259	10
2023-09-29T00:00	19319	64	-60.1	-88.5	261	10
2023-09-29T00:00	19342	63	-60.2	-88.5	263	10
2023-09-29T00:00	19363	63	-60.1	-88.5	265	10
2023-09-29T00:00	19385	63	-60.0	-88.4	267	10
2023-09-29T00:00	19403	63	-60.0	-88.9	269	10
2023-09-29T00:00	19426	63	-60.0	-88.9	270	10
2023-09-29T00:00	19447	62	-60.1	-88.9	271	10
2023-09-29T00:00	19468	62	-60.0	-88.9	272	10
2023-09-29T00:00	19490	62	-59.8	-88.7	272	10
2023-09-29T00:00	19510	62	-59.8	-88.7	273	10
2023-09-29T00:00	19534	62	-59.8	-88.7	275	9
2023-09-29T00:00	19556	61	-59.8	-88.7	275	9
2023-09-29T00:00	19578	61	-59.5	-88.5	276	8
2023-09-29T00:00	19601	61	-59.6	-89.1	277	7
2023-09-29T00:00	19620	61	-59.4	-89.0	277	6
2023-09-29T00:00	19644	61	-59.3	-88.9	277	6
2023-09-29T00:00	19668	60	-59.3	-88.9	275	5
2023-09-29T00:00	19689	60	-59.3	-88.9	272	4
2023-09-29T00:00	19713	60	-59.3	-88.9	266	3
2023-09-29T00:00	19732	60	-59.1	-88.7	258	3
2023-09-29T00:00	19754	59	-58.8	-88.5	252	3
2023-09-29T00:00	19777	59	-58.7	-88.4	247	4
2023-09-29T00:00	19800	59	-58.7	-88.4	244	4
2023-09-29T00:00	19821	59	-58.6	-88.4	241	4
2023-09-29T00:00	19844	59	-58.6	-88.4	240	5
2023-09-29T00:00	19863	58	-58.4	-88.2	240	5
2023-09-29T00:00	19886	58	-58.4	-88.2	241	5
2023-09-29T00:00	19907	58	-58.5	-88.3	243	6
2023-09-29T00:00	19928	58	-58.7	-88.4	247	6
2023-09-29T00:00	19950	58	-58.6	-88.4	250	6
2023-09-29T00:00	19973	57	-58.5	-88.3	254	5
2023-09-29T00:00	19994	57	-58.3	-88.1	256	5
2023-09-29T00:00	20019	57	-58.4	-88.2	259	5
2023-09-29T00:00	20041	57	-58.3	-88.1	261	4
2023-09-29T00:00	20063	57	-58.4	-88.2	262	4
2023-09-29T00:00	20087	56	-58.2	-88.1	264	4
2023-09-29T00:00	20106	56	-58.0	-87.9	265	4
2023-09-29T00:00	20129	56	-58.0	-87.9	267	4
2023-09-29T00:00	20152	56	-57.9	-87.8	268	4
2023-09-29T00:00	20173	56	-57.8	-87.8	269	4
2023-09-29T00:00	20196	55	-57.7	-87.7	268	4
2023-09-29T00:00	20218	55	-57.9	-87.8	265	3
2023-09-29T00:00	20240	55	-58.0	-87.9	257	3
2023-09-29T00:00	20264	55	-58.2	-88.1	243	3
2023-09-29T00:00	20286	55	-58.1	-88.0	223	3
2023-09-29T00:00	20311	54	-58.0	-87.9	206	3
2023-09-29T00:00	20334	54	-58.0	-87.9	196	3
2023-09-29T00:00	20358	54	-58.1	-88.0	191	4
2023-09-29T00:00	20384	54	-58.0	-87.9	191	5
2023-09-29T00:00	20405	54	-58.0	-87.9	192	5
2023-09-29T00:00	20427	53	-58.1	-88.0	194	5
2023-09-29T00:00	20453	53	-58.2	-88.1	197	6
2023-09-29T00:00	20474	53	-58.2	-88.1	201	6
2023-09-29T00:00	20498	53	-58.2	-88.1	204	6
2023-09-29T00:00	20519	53	-58.1	-88.0	208	6
2023-09-29T00:00	20543	52	-58.0	-87.9	213	6
2023-09-29T00:00	20568	52	-58.0	-87.9	217	6
2023-09-29T00:00	20592	52	-58.1	-88.0	221	6
2023-09-29T00:00	20614	52	-58.2	-88.1	225	7
2023-09-29T00:00	20636	52	-58.1	-88.0	229	7
2023-09-29T00:00	20659	51	-58.1	-88.0	231	7
2023-09-29T00:00	20681	51	-58.1	-88.0	234	7
2023-09-29T00:00	20705	51	-58.2	-88.1	237	7
2023-09-29T00:00	20727	51	-58.4	-88.2	240	7
2023-09-29T00:00	20750	51	-58.5	-88.3	243	7
2023-09-29T00:00	20775	51	-58.5	-88.3	247	7
2023-09-29T00:00	20797	50	-58.6	-88.4	251	7
2023-09-29T00:00	20822	50	-58.6	-88.4	255	7
2023-09-29T00:00	20848	50	-58.4	-88.2	258	7
2023-09-29T00:00	20873	50	-58.4	-88.2	262	6
2023-09-29T00:00	20894	50	-58.4	-88.2	265	6
2023-09-29T00:00	20919	49	-58.5	-88.3	269	5
2023-09-29T00:00	20943	49	-58.6	-88.4	272	5
2023-09-29T00:00	20962	49	-58.7	-88.4	275	5
2023-09-29T00:00	20985	49	-58.8	-88.5	275	4
2023-09-29T00:00	21011	49	-58.7	-88.4	274	4
2023-09-29T00:00	21031	49	-58.6	-88.4	271	4
2023-09-29T00:00	21058	48	-58.4	-88.2	266	3
2023-09-29T00:00	21079	48	-58.4	-88.2	261	3
2023-09-29T00:00	21100	48	-58.5	-88.3	257	3
2023-09-29T00:00	21122	48	-58.6	-88.4	254	3
2023-09-29T00:00	21147	48	-58.8	-88.5	254	4
2023-09-29T00:00	21176	47	-58.9	-88.6	255	4
2023-09-29T00:00	21195	47	-58.9	-88.6	257	4
2023-09-29T00:00	21218	47	-59.0	-88.7	259	5
2023-09-29T00:00	21239	47	-58.6	-88.4	260	5
2023-09-29T00:00	21264	47	-58.6	-88.4	260	6
2023-09-29T00:00	21288	47	-58.6	-88.4	261	6
2023-09-29T00:00	21313	46	-58.7	-88.4	261	7
2023-09-29T00:00	21336	46	-58.8	-88.5	261	7
2023-09-29T00:00	21356	46	-59.0	-88.7	261	7
2023-09-29T00:00	21382	46	-59.1	-88.2	260	6
2023-09-29T00:00	21407	46	-59.1	-88.7	260	6
2023-09-29T00:00	21430	46	-58.9	-88.6	259	5
2023-09-29T00:00	21457	45	-58.7	-88.4	257	5
2023-09-29T00:00	21482	45	-58.7	-88.4	254	5
2023-09-29T00:00	21499	45	-58.8	-88.5	251	5
2023-09-29T00:00	21529	45	-58.6	-88.9	249	5
2023-09-29T00:00	21550	45	-58.5	-88.9	247	5
2023-09-29T00:00	21575	45	-58.0	-88.5	245	5
2023-09-29T00:00	21598	44	-57.9	-88.4	244	6
2023-09-29T00:00	21619	44	-58.1	-88.6	243	6
2023-09-29T00:00	21645	44	-58.2	-88.1	242	6
2023-09-29T00:00	21668	44	-58.3	-88.1	243	7
2023-09-29T00:00	21688	44	-58.4	-88.2	244	7
2023-09-29T00:00	21715	44	-58.6	-88.4	246	7
2023-09-29T00:00	21737	43	-58.5	-88.3	249	6
2023-09-29T00:00	21759	43	-58.5	-88.3	251	6
2023-09-29T00:00	21781	43	-58.7	-88.4	254	6
2023-09-29T00:00	21804	43	-58.9	-88.6	257	6
2023-09-29T00:00	21827	43	-59.0	-88.7	260	5
2023-09-29T00:00	21850	43	-59.1	-88.7	261	5
2023-09-29T00:00	21870	42	-59.0	-88.7	261	5
2023-09-29T00:00	21896	42	-59.1	-88.7	260	5
2023-09-29T00:00	21917	42	-59.0	-88.7	257	5
2023-09-29T00:00	21938	42	-59.0	-88.7	255	5
2023-09-29T00:00	21964	42	-59.0	-88.7	252	4
2023-09-29T00:00	21984	42	-58.9	-89.2	250	4
2023-09-29T00:00	22007	42	-58.8	-89.1	248	4
2023-09-29T00:00	22028	41	-58.4	-88.8	247	4
2023-09-29T00:00	22057	41	-58.3	-88.7	248	5
2023-09-29T00:00	22074	41	-58.3	-88.7	250	5
2023-09-29T00:00	22103	41	-58.1	-89.2	252	6
2023-09-29T00:00	22125	41	-58.0	-89.1	255	6
2023-09-29T00:00	22146	41	-57.8	-89.0	256	6
2023-09-29T00:00	22165	41	-57.6	-88.9	256	7
2023-09-29T00:00	22190	40	-57.4	-88.7	255	7
2023-09-29T00:00	22213	40	-57.0	-88.4	252	7
2023-09-29T00:00	22239	40	-56.9	-88.3	250	7
2023-09-29T00:00	22260	40	-57.1	-88.5	248	7
2023-09-29T00:00	22284	40	-57.2	-88.6	248	8
2023-09-29T00:00	22313	40	-57.3	-88.6	250	8
2023-09-29T00:00	22335	39	-57.4	-88.7	252	8
2023-09-29T00:00	22360	39	-57.3	-88.6	254	8
2023-09-29T00:00	22387	39	-57.0	-88.4	257	8
2023-09-29T00:00	22409	39	-57.0	-88.4	260	8
2023-09-29T00:00	22436	39	-57.0	-88.4	263	8
2023-09-29T00:00	22461	39	-57.1	-88.5	266	7
2023-09-29T00:00	22483	39	-57.3	-88.6	269	7
2023-09-29T00:00	22507	38	-57.3	-88.6	271	6
2023-09-29T00:00	22532	38	-57.1	-88.5	272	6
2023-09-29T00:00	22558	38	-57.3	-88.0	271	6
2023-09-29T00:00	22579	38	-57.3	-88.0	269	6
2023-09-29T00:00	22603	38	-57.4	-88.1	267	6
2023-09-29T00:00	22626	38	-57.4	-88.1	265	6
2023-09-29T00:00	22652	38	-57.6	-88.2	265	6
2023-09-29T00:00	22674	37	-57.8	-88.3	266	6
2023-09-29T00:00	22703	37	-57.9	-88.4	268	7
2023-09-29T00:00	22725	37	-57.8	-88.3	271	7
2023-09-29T00:00	22751	37	-57.9	-88.4	274	7
2023-09-29T00:00	22779	37	-58.0	-88.5	276	8
2023-09-29T00:00	22806	37	-58.0	-88.5	278	8
2023-09-29T00:00	22826	36	-58.0	-88.5	279	8
2023-09-29T00:00	22852	36	-58.1	-88.6	280	8
2023-09-29T00:00	22876	36	-57.8	-88.3	282	8
2023-09-29T00:00	22903	36	-57.7	-88.9	283	8
2023-09-29T00:00	22925	36	-57.9	-89.1	285	8
2023-09-29T00:00	22950	36	-58.0	-88.5	286	8
2023-09-29T00:00	22974	36	-58.1	-88.6	287	9
2023-09-29T00:00	23002	36	-58.2	-88.6	287	9
2023-09-29T00:00	23024	35	-58.2	-88.6	288	9
2023-09-29T00:00	23048	35	-58.3	-88.7	289	9
2023-09-29T00:00	23076	35	-58.2	-88.6	290	9
2023-09-29T00:00	23093	35	-58.1	-88.6	291	9
2023-09-29T00:00	23121	35	-58.0	-88.5	293	9
2023-09-29T00:00	23144	35	-58.0	-88.5	295	9
2023-09-29T00:00	23174	35	-58.1	-88.6	298	8
2023-09-29T00:00	23193	34	-58.0	-88.5	302	8
2023-09-29T00:00	23214	34	-57.9	-88.4	305	7
2023-09-29T00:00	23241	34	-58.0	-89.1	309	7
2023-09-29T00:00	23270	34	-57.9	-89.1	313	6
2023-09-29T00:00	23291	34	-57.5	-88.8	317	6
2023-09-29T00:00	23316	34	-57.3	-88.6	320	5
2023-09-29T00:00	23341	34	-57.3	-88.6	323	5
2023-09-29T00:00	23366	34	-57.3	-88.6	325	5
2023-09-29T00:00	23388	33	-57.4	-88.7	327	4
2023-09-29T00:00	23416	33	-57.5	-88.8	327	4
2023-09-29T00:00	23441	33	-57.6	-88.9	326	4
2023-09-29T00:00	23465	33	-57.6	-88.9	323	3
2023-09-29T00:00	23487	33	-57.4	-88.7	318	3
2023-09-29T00:00	23515	33	-57.3	-88.6	309	2
2023-09-29T00:00	23540	33	-57.5	-88.8	298	2
2023-09-29T00:00	23562	32	-57.6	-88.9	287	2
2023-09-29T00:00	23592	32	-57.7	-88.9	278	2
2023-09-29T00:00	23615	32	-57.9	-89.1	273	2
2023-09-29T00:00	23635	32	-58.0	-89.1	272	1
2023-09-29T00:00	23660	32	-58.0	-89.1	273	1
2023-09-29T00:00	23689	32	-57.7	-88.9	271	1
2023-09-29T00:00	23711	32	-57.3	-88.6	261	1
2023-09-29T00:00	23738	32	-57.2	-88.6	246	1
2023-09-29T00:00	23760	31	-57.3	-88.6	235	1
2023-09-29T00:00	23781	31	-57.3	-88.6	233	1
2023-09-29T00:00	23810	31	-57.3	-88.6	237	1
2023-09-29T00:00	23836	31	-57.2	-88.6	242	2
2023-09-29T00:00	23858	31	-57.2	-88.6	246	2
2023-09-29T00:00	23883	31	-57.1	-88.5	247	2
2023-09-29T00:00	23916	31	-57.0	-88.4	246	2
2023-09-29T00:00	23936	31	-57.0	-88.4	243	3
2023-09-29T00:00	23961	31	-57.0	-88.4	241	3
2023-09-29T00:00	23985	30	-57.1	-88.5	240	4
2023-09-29T00:00	24009	30	-57.1	-88.5	240	4
2023-09-29T00:00	24038	30	-57.1	-88.5	242	4
2023-09-29T00:00	24061	30	-57.1	-88.5	245	4
2023-09-29T00:00	24085	30	-57.0	-88.4	251	3
2023-09-29T00:00	24111	30	-56.9	-89.1	258	3
2023-09-29T00:00	24135	30	-56.8	-89.0	266	3
2023-09-29T00:00	24161	30	-56.9	-89.1	272	3
2023-09-29T00:00	24188	29	-56.6	-88.9	275	3
2023-09-29T00:00	24215	29	-56.6	-88.9	276	3
2023-09-29T00:00	24241	29	-56.5	-88.8	274	2
2023-09-29T00:00	24261	29	-56.3	-88.6	273	2
2023-09-29T00:00	24287	29	-56.2	-88.6	274	2
2023-09-29T00:00	24315	29	-56.1	-88.5	280	2
2023-09-29T00:00	24336	29	-56.1	-88.5	291	2
2023-09-29T00:00	24364	29	-55.9	-88.4	305	2
2023-09-29T00:00	24385	29	-55.7	-89.1	318	3
2023-09-29T00:00	24412	28	-55.6	-89.0	329	3
2023-09-29T00:00	24441	28	-55.3	-88.8	338	4
2023-09-29T00:00	24464	28	-55.3	-87.9	345	4
2023-09-29T00:00	24491	28	-55.5	-88.1	350	5
2023-09-29T00:00	24511	28	-55.6	-88.1	353	5
2023-09-29T00:00	24533	28	-55.7	-88.2	355	5
2023-09-29T00:00	24563	28	-55.6	-88.1	357	5
2023-09-29T00:00	24588	28	-55.8	-88.3	359	5
2023-09-29T00:00	24609	28	-55.9	-88.4	2	5
2023-09-29T00:00	24640	27	-56.0	-88.4	7	4
2023-09-29T00:00	24664	27	-56.1	-88.5	12	4
2023-09-29T00:00	24690	27	-56.3	-88.6	17	4
2023-09-29T00:00	24711	27	-56.4	-88.7	22	3
2023-09-29T00:00	24740	27	-56.5	-88.8	26	3
2023-09-29T00:00	24766	27	-56.4	-88.7	27	3
2023-09-29T00:00	24791	27	-56.5	-88.8	23	2
2023-09-29T00:00	24823	27	-56.5	-88.8	15	2
2023-09-29T00:00	24844	27	-56.5	-88.8	2	2
2023-09-29T00:00	24874	26	-56.6	-88.9	347	2
2023-09-29T00:00	24894	26	-56.7	-88.9	333	2
2023-09-29T00:00	24917	26	-56.8	-88.3	324	2
2023-09-29T00:00	24945	26	-57.0	-88.4	320	2
2023-09-29T00:00	24971	26	-57.1	-88.5	322	2
2023-09-29T00:00	24993	26	-57.1	-88.5	328	2
2023-09-29T00:00	25021	26	-57.1	-89.2	337	2
2023-09-29T00:00	25047	26	-56.8	-89.0	345	3
2023-09-29T00:00	25074	26	-56.7	-88.9	352	3
2023-09-29T00:00	25099	26	-56.4	-88.7	356	3
2023-09-29T00:00	25127	25	-56.3	-88.6	359	3
2023-09-29T00:00	25154	25	-56.2	-88.6	2	3
2023-09-29T00:00	25179	25	-56.0	-88.4	4	2
2023-09-29T00:00	25204	25	-56.1	-88.5	6	1
2023-09-29T00:00	25228	25	-56.3	-88.6	9	1
2023-09-29T00:00	25264	25	-56.5	-88.8	11	0
2023-09-29T00:00	25286	25	-56.6	-88.9	10	0
2023-09-29T00:00	25307	25	-56.7	-88.9	237	0
2023-09-29T00:00	25333	25	-56.6	-88.9	267	0
2023-09-29T00:00	25354	24	-56.5	-88.8	288	1
2023-09-29T00:00	25380	24	-56.5	-88.8	297	1
2023-09-29T00:00	25406	24	-56.4	-88.7	300	2
2023-09-29T00:00	25438	24	-56.5	-88.8	300	3
2023-09-29T00:00	25461	24	-56.3	-88.6	300	3
2023-09-29T00:00	25485	24	-56.2	-88.6	300	4
2023-09-29T00:00	25507	24	-56.1	-88.5	301	4
2023-09-29T00:00	25543	24	-56.2	-88.6	304	4
2023-09-29T00:00	25570	24	-56.1	-88.5	308	5
2023-09-29T00:00	25591	24	-56.2	-88.6	311	5
2023-09-29T00:00	25620	23	-56.3	-88.6	312	4
2023-09-29T00:00	25639	23	-56.4	-88.7	311	4
2023-09-29T00:00	25669	23	-56.4	-88.7	308	4
2023-09-29T00:00	25695	23	-56.4	-88.7	306	3
2023-09-29T00:00	25724	23	-56.4	-88.7	306	3
2023-09-29T00:00	25750	23	-56.5	-88.8	311	2
2023-09-29T00:00	25776	23	-56.6	-88.9	321	2
2023-09-29T00:00	25802	23	-56.5	-88.8	338	2
2023-09-29T00:00	25828	23	-56.3	-88.6	3	1
2023-09-29T00:00	25858	23	-56.2	-88.6	33	1
2023-09-29T00:00	25889	23	-56.2	-89.4	58	1
2023-09-29T00:00	25909	22	-56.1	-89.4	76	1
2023-09-29T00:00	25937	22	-55.7	-89.1	94	0
2023-09-29T00:00	25963	22	-55.5	-88.9	183	0
2023-09-29T00:00	25991	22	-55.3	-88.8	247	0
2023-09-29T00:00	26015	22	-55.1	-88.6	267	0
2023-09-29T00:00	26046	22	-54.9	-88.5	47	0
2023-09-29T00:00	26064	22	-54.9	-89.5	64	0
2023-09-29T00:00	26091	22	-54.8	-89.4	71	0
2023-09-29T00:00	26126	22	-54.5	-89.2	87	0
2023-09-29T00:00	26147	22	-54.3	-89.1	150	0
2023-09-29T00:00	26171	22	-54.2	-89.0	191	1
2023-09-29T00:00	26201	21	-54.1	-88.9	200	1
2023-09-29T00:00	26229	21	-54.0	-88.9	204	1
2023-09-29T00:00	26252	21	-53.7	-87.6	207	2
2023-09-29T00:00	26283	21	-53.8	-87.7	211	2
2023-09-29T00:00	26310	21	-53.8	-87.7	218	2
2023-09-29T00:00	26335	21	-53.7	-87.6	227	1
2023-09-29T00:00	26362	21	-53.8	-87.7	238	1
2023-09-29T00:00	26388	21	-54.0	-87.8	247	1
2023-09-29T00:00	26420	21	-54.2	-88.0	248	1
2023-09-29T00:00	26444	21	-54.4	-88.1	245	2
2023-09-29T00:00	26476	21	-54.3	-88.1	243	2
2023-09-29T00:00	26496	20	-54.1	-87.9	244	3
2023-09-29T00:00	26525	20	-54.0	-87.8	246	4
2023-09-29T00:00	26547	20	-54.0	-87.8	249	5
2023-09-29T00:00	26575	20	-53.9	-87.8	252	5
2023-09-29T00:00	26602	20	-53.8	-88.7	254	6
2023-09-29T00:00	26625	20	-53.7	-88.7	255	6
2023-09-29T00:00	26653	20	-53.8	-88.7	256	6
2023-09-29T00:00	26678	20	-53.8	-88.7	256	6
2023-09-29T00:00	26707	20	-53.8	-87.7	257	5
2023-09-29T00:00	26737	20	-53.7	-87.6	260	5
2023-09-29T00:00	26762	20	-53.7	-87.6	264	5
2023-09-29T00:00	26789	20	-53.7	-87.6	270	5
2023-09-29T00:00	26818	19	-53.7	-87.6	275	4
2023-09-29T00:00	26844	19	-53.8	-87.7	280	4
2023-09-29T00:00	26864	19	-53.7	-88.7	282	4
2023-09-29T00:00	26895	19	-53.5	-88.5	283	4
2023-09-29T00:00	26919	19	-53.4	-88.4	282	4
2023-09-29T00:00	26940	19	-53.2	-88.3	281	4
2023-09-29T00:00	26971	19	-53.1	-88.2	280	4
2023-09-29T00:00	26998	19	-53.2	-88.3	281	4
2023-09-29T00:00	27024	19	-53.1	-88.2	283	4
2023-09-29T00:00	27051	19	-53.1	-88.2	288	4
2023-09-29T00:00	27080	19	-52.7	-87.9	295	3
2023-09-29T00:00	27107	19	-52.6	-87.9	302	4
2023-09-29T00:00	27131	19	-52.7	-87.9	310	4
2023-09-29T00:00	27160	18	-52.8	-88.0	317	4
2023-09-29T00:00	27188	18	-52.9	-88.1	326	4
2023-09-29T00:00	27211	18	-53.0	-88.2	334	4
2023-09-29T00:00	27240	18	-53.0	-88.2	343	4
2023-09-29T00:00	27262	18	-53.0	-88.2	350	4
2023-09-29T00:00	27287	18	-52.9	-88.1	356	4
2023-09-29T00:00	27315	18	-53.0	-88.2	0	4
2023-09-29T00:00	27339	18	-53.1	-88.2	2	4
2023-09-29T00:00	27369	18	-53.0	-88.2	1	3
2023-09-29T00:00	27396	18	-53.1	-88.2	355	3
2023-09-29T00:00	27418	18	-53.2	-88.3	343	2
2023-09-29T00:00	27446	18	-52.9	-88.1	323	2
2023-09-29T00:00	27472	18	-52.8	-88.0	299	2
2023-09-29T00:00	27507	18	-52.8	-88.0	278	2
2023-09-29T00:00	27529	17	-52.8	-88.0	264	2
2023-09-29T00:00	27561	17	-52.9	-88.1	257	2
2023-09-29T00:00	27580	17	-52.9	-88.1	256	2
2023-09-29T00:00	27613	17	-52.8	-88.0	260	2
2023-09-29T00:00	27632	17	-52.8	-88.0	268	2
2023-09-29T00:00	27664	17	-52.7	-87.9	279	2
2023-09-29T00:00	27684	17	-52.7	-87.9	288	2
2023-09-29T00:00	27716	17	-52.7	-87.9	293	3
2023-09-29T00:00	27744	17	-52.8	-88.0	294	3
2023-09-29T00:00	27770	17	-52.7	-87.9	293	3
2023-09-29T00:00	27802	17	-52.7	-87.9	290	4
2023-09-29T00:00	27819	17	-52.6	-87.9	286	4
2023-09-29T00:00	27855	17	-52.5	-87.8	280	5
2023-09-29T00:00	27878	17	-52.4	-87.7	274	5
2023-09-29T00:00	27899	16	-52.5	-87.8	270	5
2023-09-29T00:00	27927	16	-52.5	-87.8	267	5
2023-09-29T00:00	27967	16	-52.5	-87.8	267	6
2023-09-29T00:00	27985	16	-52.5	-87.8	269	6
2023-09-29T00:00	28008	16	-52.4	-87.7	271	6
2023-09-29T00:00	28043	16	-52.1	-87.5	273	7
2023-09-29T00:00	28068	16	-52.1	-87.5	275	7
2023-09-29T00:00	28097	16	-52.2	-87.6	278	7
2023-09-29T00:00	28124	16	-52.3	-87.7	281	8
2023-09-29T00:00	28158	16	-52.2	-87.6	284	8
2023-09-29T00:00	28176	16	-52.2	-87.6	287	9
2023-09-29T00:00	28205	16	-52.0	-87.4	290	9
2023-09-29T00:00	28229	16	-51.9	-87.4	292	10
2023-09-29T00:00	28269	16	-51.7	-87.2	294	10
2023-09-29T00:00	28295	16	-51.4	-87.0	295	10
2023-09-29T00:00	28324	15	-51.5	-87.1	296	10
2023-09-29T00:00	28341	15	-51.5	-87.1	297	10
2023-09-29T00:00	28367	15	-51.6	-87.2	298	10
2023-09-29T00:00	28400	15	-51.5	-87.1	298	10
2023-09-29T00:00	28423	15	-51.5	-87.1	300	9
2023-09-29T00:00	28446	15	-51.5	-87.1	301	8
2023-09-29T00:00	28479	15	-51.8	-87.3	305	8
2023-09-29T00:00	28504	15	-51.8	-87.3	309	7
2023-09-29T00:00	28527	15	-51.7	-87.2	314	7
2023-09-29T00:00	28559	15	-51.7	-87.2	318	7
2023-09-29T00:00	28588	15	-51.7	-87.2	321	6
2023-09-29T00:00	28611	15	-51.7	-87.2	321	6
2023-09-29T00:00	28643	15	-51.4	-87.0	319	6
2023-09-29T00:00	28669	15	-51.3	-87.0	316	5
2023-09-29T00:00	28685	15	-51.4	-87.0	314	5
2023-09-29T00:00	28710	15	-51.4	-87.0	313	5
2023-09-29T00:00	28748	14	-51.2	-86.9	315	6
2023-09-29T00:00	28767	14	-50.9	-86.7	317	6
2023-09-29T00:00	28792	14	-50.8	-86.6	320	6
2023-09-29T00:00	28825	14	-50.8	-86.6	323	6
2023-09-29T00:00	28847	14	-51.1	-86.8	325	7
2023-09-29T00:00	28876	14	-51.3	-87.0	327	8
2023-09-29T00:00	28903	14	-51.5	-87.1	328	8
2023-09-29T00:00	28936	14	-51.8	-87.3	328	9
2023-09-29T00:00	28972	14	-51.8	-87.3	329	9
2023-09-29T00:00	28993	14	-51.8	-87.3	331	9
2023-09-29T00:00	29014	14	-51.4	-87.0	333	8
2023-09-29T00:00	29042	14	-50.9	-86.7	335	8
2023-09-29T00:00	29080	14	-50.9	-86.7	337	7
2023-09-29T00:00	29099	14	-50.9	-86.7	339	6
2023-09-29T00:00	29131	14	-51.0	-86.7	340	5
2023-09-29T00:00	29153	14	-51.1	-86.8	341	5
2023-09-29T00:00	29180	14	-51.3	-87.0	343	4
2023-09-29T00:00	29213	13	-51.3	-87.0	347	3
2023-09-29T00:00	29241	13	-51.4	-87.0	354	3
2023-09-29T00:00	29257	13	-51.6	-87.2	3	2
2023-09-29T00:00	29295	13	-51.7	-87.2	10	2
2023-09-29T00:00	29326	13	-51.9	-87.4	10	2
2023-09-29T00:00	29347	13	-52.0	-87.4	0	2
2023-09-29T00:00	29371	13	-52.0	-87.4	343	2
2023-09-29T00:00	29408	13	-52.0	-87.4	326	2
2023-09-29T00:00	29428	13	-52.0	-87.4	314	3
2023-09-29T00:00	29464	13	-51.9	-87.4	305	3
2023-09-29T00:00	29491	13	-52.0	-87.4	299	4
2023-09-29T00:00	29513	13	-52.1	-87.5	295	4
2023-09-29T00:00	29538	13	-52.1	-87.5	292	4
2023-09-29T00:00	29561	13	-52.1	-87.5	290	4
2023-09-29T00:00	29601	13	-52.2	-87.6	289	4
2023-09-29T00:00	29630	13	-52.1	-87.5	288	4
2023-09-29T00:00	29658	13	-52.3	-87.7	287	3
2023-09-29T00:00	29687	13	-52.4	-87.7	285	3
2023-09-29T00:00	29702	12	-52.5	-87.8	283	3
2023-09-29T00:00	29733	12	-52.7	-87.9	281	3
2023-09-29T00:00	29760	12	-52.9	-88.1	281	3
2023-09-29T00:00	29791	12	-52.8	-88.0	283	4
2023-09-29T00:00	29823	12	-52.8	-88.0	285	4
2023-09-29T00:00	29839	12	-52.9	-88.1	287	5
2023-09-29T00:00	29871	12	-52.9	-88.1	288	5
2023-09-29T00:00	29898	12	-53.0	-88.2	289	6
2023-09-29T00:00	29911	12	-52.9	-88.1	288	7
2023-09-29T00:00	29942	12	-52.6	-87.9	287	7
2023-09-29T00:00	29977	12	-52.5	-87.8	285	8
2023-09-29T00:00	30008	12	-52.4	-87.7	283	8
2023-09-29T00:00	30028	12	-52.2	-87.6	282	8
2023-09-29T00:00	30048	12	-51.9	-87.4	282	8
2023-09-29T00:00	30082	12	-51.8	-87.3	283	9
2023-09-29T00:00	30106	12	-51.8	-87.3	285	9
2023-09-29T00:00	30143	12	-51.7	-87.2	287	9
2023-09-29T00:00	30173	12	-51.6	-87.2	289	10
2023-09-29T00:00	30193	12	-51.6	-87.2	291	10
2023-09-29T00:00	30222	12	-51.5	-87.1	293	11
2023-09-29T00:00	30253	11	-51.3	-87.0	295	11
2023-09-29T00:00	30269	11	-51.0	-86.7	297	12
2023-09-29T00:00	30293	11	-50.6	-86.5	299	13
2023-09-29T00:00	30322	11	-50.6	-86.5	301	13
2023-09-29T00:00	30353	11	-50.4	-86.3	302	13
2023-09-29T00:00	30386	11	-50.3	-86.2	303	13
2023-09-29T00:00	30403	11	-50.3	-86.2	305	13
2023-09-29T00:00	30444	11	-50.3	-86.2	306	13
2023-09-29T00:00	30460	11	-50.4	-86.3	307	13
2023-09-29T00:00	30484	11	-50.6	-86.5	309	12
2023-09-29T00:00	30509	11	-50.7	-86.5	310	12
2023-09-29T00:00	30539	11	-50.7	-86.5	312	11
2023-09-29T00:00	30560	11	-50.8	-86.6	314	10
2023-09-29T00:00	30596	11	-50.9	-86.7	316	10
2023-09-29T00:00	30624	11	-51.0	-86.7	319	9
2023-09-29T00:00	30651	11	-51.2	-86.9	323	9
2023-09-29T00:00	30670	11	-51.0	-86.7	326	8
2023-09-29T00:00	30707	11	-51.1	-86.8	329	8
2023-09-29T00:00	30736	11	-51.1	-86.8	332	7
2023-09-29T00:00	30761	11	-50.8	-86.6	332	7
2023-09-29T00:00	30784	11	-50.5	-86.4	331	6
2023-09-29T00:00	30813	11	-50.2	-86.2	326	5
2023-09-29T00:00	30839	11	-50.1	-86.1	316	4
2023-09-29T00:00	30875	10	-50.1	-86.1	301	3
2023-09-29T00:00	30896	10	-50.1	-86.1	284	3
2023-09-29T00:00	30915	10	-50.2	-86.2	269	3
2023-09-29T00:00	30946	10	-50.3	-86.2	261	3
2023-09-29T00:00	30977	10	-50.4	-86.3	258	3
2023-09-29T00:00	30994	10	-50.3	-86.2	260	3
2023-09-29T00:00	31030	10	-50.3	-86.2	267	3
2023-09-29T00:00	31062	10	-50.1	-86.1	276	4
2023-09-29T00:00	31077	10	-49.9	-86.0	285	4
2023-09-29T00:00	31111	10	-49.8	-85.9	292	4
2023-09-29T00:00	31127	10	-49.8	-85.9	297	5
2023-09-29T00:00	31158	10	-49.9	-86.0	299	5
2023-09-29T00:00	31179	10	-50.0	-86.0	300	5
2023-09-29T00:00	31195	10	-50.1	-86.1	300	6
2023-09-29T00:00	31230	10	-50.2	-86.2	299	6
2023-09-29T00:00	31255	10	-50.3	-86.2	298	7
2023-09-29T00:00	31268	10	-50.4	-86.3	297	7
2023-09-29T00:00	31315	10	-50.4	-86.3	297	8
2023-09-29T00:00	31338	10	-50.5	-86.4	296	9
2023-09-29T00:00	31366	10	-50.6	-86.5	296	9
2023-09-29T00:00	31377	10	-50.7	-86.5	295	10
2023-09-29T00:00	31400	10	-50.7	-86.5	295	11
2023-09-29T00:00	31440	10	-50.8	-86.6	296	11
2023-09-29T00:00	31459	10	-50.9	-86.7	297	12
2023-09-29T00:00	31471	10	-50.9	-86.7	299	12
2023-09-29T00:00	31505	9	-50.7	-86.5	301	13
2023-09-29T00:00	31536	9	-50.5	-86.4	303	13
2023-09-29T00:00	31555	9	-50.5	-86.4	305	13
2023-09-29T00:00	31574	9	-50.4	-86.3	307	13
2023-09-29T00:00	31611	9	-50.3	-86.2	308	12
2023-09-29T00:00	31630	9	-50.3	-86.2	309	12
2023-09-29T00:00	31646	9	-50.3	-86.2	309	12
2023-09-29T00:00	31682	9	-50.5	-86.4	308	11
2023-09-29T00:00	31698	9	-50.6	-86.5	306	11
2023-09-29T00:00	31736	9	-50.7	-86.5	304	10
2023-09-29T00:00	31760	9	-50.7	-86.5	301	9
2023-09-29T00:00	31783	9	-50.5	-86.4	298	9
2023-09-29T00:00	31808	9	-50.4	-86.3	295	8
2023-09-29T00:00	31818	9	-50.3	-86.2	291	8
2023-09-29T00:00	31863	9	-50.4	-86.3	286	7
2023-09-29T00:00	31895	9	-50.3	-86.2	282	7
2023-09-29T00:00	31915	9	-50.1	-86.1	278	7
2023-09-29T00:00	31931	9	-50.0	-86.0	275	7
2023-09-29T00:00	31942	9	-50.1	-86.1	272	7
2023-09-29T00:00	31983	9	-50.0	-86.0	270	7
2023-09-29T00:00	32024	9	-50.0	-86.0	268	7
2023-09-29T00:00	32070	9	-49.9	-86.0	264	7
2023-09-29T00:00	32087	9	-49.8	-85.9	264	7
2023-09-29T00:00	32101	9	-49.9	-86.0	265	7
2023-09-29T00:00	32144	9	-50.0	-86.0	267	7
2023-09-29T00:00	32171	9	-50.2	-86.2	271	8
2023-09-29T00:00	32191	9	-50.3	-86.2	275	8
2023-09-29T00:00	32215	8	-50.3	-86.2	279	9
2023-09-29T00:00	32249	8	-49.9	-86.0	282	10
2023-09-29T00:00	32280	8	-49.9	-86.0	284	11
2023-09-29T00:00	32291	8	-49.8	-85.9	286	12
2023-09-29T00:00	32319	8	-49.6	-85.8	287	12
2023-09-29T00:00	32358	8	-49.5	-85.7	289	13
2023-09-29T00:00	32368	8	-49.4	-85.6	290	14
2023-09-29T00:00	32407	8	-49.3	-85.5	292	15
2023-09-29T00:00	32436	8	-49.4	-85.6	294	16
2023-09-29T00:00	32457	8	-49.4	-85.6	295	17
2023-09-29T00:00	32460	8	-49.3	-85.5	297	18
2023-09-29T00:00	32495	8	-49.1	-85.4	298	19
2023-09-29T00:00	32513	8	-49.0	-85.3	300	19
2023-09-29T00:00	32549	8	-48.9	-85.3	301	19
2023-09-29T00:00	32576	8	-48.5	-85.0	302	19
2023-09-29T00:00	32628	8	-47.8	-84.5	303	18
2023-09-29T00:00	32647	8	-47.5	-84.3	303	16
2023-09-29T00:00	32655	8	-47.5	-84.3	303	15
2023-09-29T00:00	32703	8	-47.6	-84.3	302	14
2023-09-29T00:00	32722	8	-47.7	-84.4	301	14
2023-09-29T00:00	32745	8	-47.8	-84.5	300	13
2023-09-29T00:00	32772	8	-47.9	-84.6	301	12
2023-09-29T00:00	32815	8	-47.9	-84.6	301	12
2023-09-29T00:00	32832	8	-47.5	-84.3	303	11
2023-09-29T00:00	32846	8	-47.1	-84.0	304	11
2023-09-29T00:00	32903	8	-46.8	-83.8	306	11
2023-09-29T00:00	32920	8	-46.9	-83.9	308	11
2023-09-29T00:00	32944	8	-47.0	-83.9	309	12
2023-09-29T00:00	32958	8	-46.6	-83.6	309	12
2023-09-29T00:00	32989	8	-46.3	-83.4	309	12
2023-09-29T00:00	33014	8	-46.1	-83.3	309	13
2023-09-29T00:00	33038	8	-46.1	-83.3	309	13
2023-09-29T00:00	33064	7	-46.2	-83.4	310	13
2023-09-29T00:00	33099	7	-46.3	-83.4	310	14
2023-09-29T00:00	33121	7	-46.4	-83.5	310	14
2023-09-29T00:00	33142	7	-46.5	-83.6	310	14
2023-09-29T00:00	33186	7	-46.6	-83.6	309	14
2023-09-29T00:00	33228	7	-46.8	-83.8	307	15
2023-09-29T00:00	33233	7	-46.9	-83.9	306	15
2023-09-29T00:00	33255	7	-47.0	-83.9	305	15
2023-09-29T00:00	33286	7	-47.1	-84.0	304	16
2023-09-29T00:00	33311	7	-47.1	-84.0	303	16
2023-09-29T00:00	33327	7	-47.0	-83.9	302	17
2023-09-29T00:00	33365	7	-47.0	-83.9	302	18
2023-09-29T00:00	33388	7	-46.9	-83.9	302	18
2023-09-29T00:00	33402	7	-46.6	-83.6	303	18
2023-09-29T06:00	112	1004	12.9	11.6	140	3
2023-09-29T06:00	136	1002	13.2	11.8	187	4
2023-09-29T06:00	162	999	14.9	11.5	188	5
2023-09-29T06:00	184	996	17.2	11.6	189	7
2023-09-29T06:00	205	993	17.9	11.4	190	7
2023-09-29T06:00	235	990	21.2	9.8	191	7
2023-09-29T06:00	258	987	21.6	9.1	190	7
2023-09-29T06:00	282	985	21.8	8.8	190	7
2023-09-29T06:00	302	982	22.0	8.4	190	7
2023-09-29T06:00	327	979	22.4	9.0	192	7
2023-09-29T06:00	354	977	22.7	8.6	194	7
2023-09-29T06:00	376	974	22.6	8.7	196	7
2023-09-29T06:00	401	971	22.5	9.0	197	6
2023-09-29T06:00	428	968	22.3	9.5	198	6
2023-09-29T06:00	456	965	22.1	9.5	198	6
2023-09-29T06:00	482	962	21.9	9.4	198	6
2023-09-29T06:00	507	959	21.7	9.1	199	6
2023-09-29T06:00	531	957	21.6	8.8	201	6
2023-09-29T06:00	552	954	21.4	9.0	204	5
2023-09-29T06:00	574	952	21.4	9.1	208	5
2023-09-29T06:00	600	949	21.3	9.0	213	5
2023-09-29T06:00	622	947	21.1	8.9	217	5
2023-09-29T06:00	646	944	21.1	8.9	219	5
2023-09-29T06:00	674	941	20.9	8.9	220	5
2023-09-29T06:00	697	938	20.7	8.6	219	5
2023-09-29T06:00	728	935	20.4	8.4	218	6
2023-09-29T06:00	750	933	20.2	8.5	217	6
2023-09-29T06:00	774	930	20.0	8.5	218	6
2023-09-29T06:00	800	927	19.7	8.4	219	6
2023-09-29T06:00	821	925	19.5	8.2	220	6
2023-09-29T06:00	845	923	19.4	8.0	222	6
2023-09-29T06:00	868	920	19.2	7.9	222	6
2023-09-29T06:00	892	918	19.0	8.0	223	7
2023-09-29T06:00	916	915	18.8	7.8	223	7
2023-09-29T06:00	945	912	18.5	7.4	225	7
2023-09-29T06:00	971	909	18.3	7.2	227	7
2023-09-29T06:00	998	906	18.2	7.1	230	7
2023-09-29T06:00	1023	904	18.0	7.5	233	8
2023-09-29T06:00	1046	901	17.8	7.2	236	8
2023-09-29T06:00	1074	898	17.6	7.4	238	8
2023-09-29T06:00	1100	895	17.5	6.7	240	8
2023-09-29T06:00	1127	893	17.2	9.9	242	9
2023-09-29T06:00	1149	890	17.0	9.2	244	9
2023-09-29T06:00	1174	888	17.0	7.7	245	9
2023-09-29T06:00	1202	885	16.9	7.0	247	9
2023-09-29T06:00	1232	882	16.6	7.4	247	9
2023-09-29T06:00	1253	880	16.4	7.9	247	9
2023-09-29T06:00	1278	877	16.4	6.8	246	9
2023-09-29T06:00	1303	875	16.3	6.6	246	9
2023-09-29T06:00	1332	872	16.2	5.8	245	9
2023-09-29T06:00	1362	869	16.1	5.6	245	9
2023-09-29T06:00	1388	866	15.9	5.7	245	9
2023-09-29T06:00	1415	863	15.8	4.5	245	9
2023-09-29T06:00	1439	861	15.7	4.2	246	9
2023-09-29T06:00	1464	858	15.6	3.9	246	10
2023-09-29T06:00	1491	855	15.4	3.7	247	10
2023-09-29T06:00	1517	853	15.2	3.6	247	10
2023-09-29T06:00	1541	850	15.0	3.6	247	10
2023-09-29T06:00	1567	848	14.8	3.2	248	10
2023-09-29T06:00	1592	845	14.7	3.0	249	10
2023-09-29T06:00	1614	843	14.6	2.8	250	9
2023-09-29T06:00	1640	840	14.5	2.3	250	9
2023-09-29T06:00	1667	838	14.4	2.4	250	9
2023-09-29T06:00	1696	835	14.1	2.4	249	9
2023-09-29T06:00	1727	832	13.9	2.3	249	9
2023-09-29T06:00	1751	829	13.7	2.3	247	9
2023-09-29T06:00	1776	827	13.4	2.2	246	9
2023-09-29T06:00	1801	824	13.2	2.2	245	9
2023-09-29T06:00	1830	822	12.9	2.2	244	9
2023-09-29T06:00	1859	819	12.9	2.7	244	9
2023-09-29T06:00	1890	816	12.7	2.9	244	8
2023-09-29T06:00	1915	813	12.5	2.8	243	8
2023-09-29T06:00	1942	811	12.3	2.7	243	8
2023-09-29T06:00	1965	809	12.1	2.5	242	8
2023-09-29T06:00	1990	806	12.0	2.3	242	8
2023-09-29T06:00	2016	804	11.7	2.3	242	8
2023-09-29T06:00	2038	802	11.5	2.5	243	8
2023-09-29T06:00	2061	799	11.3	3.0	244	9
2023-09-29T06:00	2087	797	11.1	2.9	246	9
2023-09-29T06:00	2115	794	11.0	2.3	247	9
2023-09-29T06:00	2141	792	11.0	1.3	248	9
2023-09-29T06:00	2164	789	10.8	1.2	248	9
2023-09-29T06:00	2188	787	10.6	1.3	247	9
2023-09-29T06:00	2223	784	10.3	1.2	246	9
2023-09-29T06:00	2252	781	10.0	1.2	245	8
2023-09-29T06:00	2278	779	9.8	1.4	244	9
2023-09-29T06:00	2304	776	9.6	1.3	244	9
2023-09-29T06:00	2328	774	9.4	1.3	244	9
2023-09-29T06:00	2352	772	9.2	1.5	245	9
2023-09-29T06:00	2378	770	8.9	1.6	245	9
2023-09-29T06:00	2406	767	8.8	1.7	245	9
2023-09-29T06:00	2433	764	8.6	1.6	245	9
2023-09-29T06:00	2463	762	8.4	1.5	244	9
2023-09-29T06:00	2492	759	8.1	1.5	242	9
2023-09-29T06:00	2518	757	7.9	1.5	241	9
2023-09-29T06:00	2546	754	7.6	1.2	239	9
2023-09-29T06:00	2573	752	7.4	1.2	238	9
2023-09-29T06:00	2598	749	7.2	1.1	237	9
2023-09-29T06:00	2624	747	7.0	0.9	237	10
2023-09-29T06:00	2649	745	6.7	0.6	237	10
2023-09-29T06:00	2676	742	6.6	0.5	238	10
2023-09-29T06:00	2707	739	6.3	0.4	239	10
2023-09-29T06:00	2740	737	6.1	0.8	241	10
2023-09-29T06:00	2766	734	5.9	0.7	243	10
2023-09-29T06:00	2795	732	5.7	0.0	244	10
2023-09-29T06:00	2819	729	5.6	-0.1	245	10
2023-09-29T06:00	2848	727	5.5	-1.2	245	10
2023-09-29T06:00	2875	724	5.3	-0.9	244	10
2023-09-29T06:00	2902	722	5.1		243	10
2023-09-29T06:00	2931	719	4.8	-0.9	243	10
2023-09-29T06:00	2960	717	4.5	-0.8	243	10
2023-09-29T06:00	2986	715	4.3	-0.9	243	10
2023-09-29T06:00	3015	712	4.1	-1.9	244	11
2023-09-29T06:00	3043	710	3.9	-2.3	244	11
2023-09-29T06:00	3071	707	3.7	-2.2	244	11
2023-09-29T06:00	3098	705	3.5	-2.2	243	11
2023-09-29T06:00	3126	702	3.3	-2.7	242	11
2023-09-29T06:00	3156	700	3.3	-4.4	240	11
2023-09-29T06:00	3182	698	3.5	-6.0	238	11
2023-09-29T06:00	3208	695	3.6	-6.5	237	11
2023-09-29T06:00	3234	693	3.3	-6.6	237	11
2023-09-29T06:00	3261	691	3.1	-6.7	238	11
2023-09-29T06:00	3287	689	2.8	-6.9	239	11
2023-09-29T06:00	3317	686	2.6	-6.9	240	11
2023-09-29T06:00	3343	684	2.3	-7.0	240	11
2023-09-29T06:00	3370	682	2.1	-6.9	240	11
2023-09-29T06:00	3397	679	1.8	-7.0	239	11
2023-09-29T06:00	3423	677	1.6	-7.1	238	11
2023-09-29T06:00	3445	675	1.4	-7.1	238	11
2023-09-29T06:00	3473	673	1.1	-7.2	240	11
2023-09-29T06:00	3499	671	0.9	-7.2	243	11
2023-09-29T06:00	3522	669	0.7	-7.2	245	11
2023-09-29T06:00	3550	667	0.6	-7.9	245	11
2023-09-29T06:00	3573	665	0.7	-8.7	242	12
2023-09-29T06:00	3599	662	0.5	-8.3	239	12
2023-09-29T06:00	3625	660	0.3	-7.9	235	12
2023-09-29T06:00	3651	658	0.0	-6.5	231	12
2023-09-29T06:00	3672	656	-0.1	-6.1	229	12
2023-09-29T06:00	3704	654	-0.1	-6.4	229	12
2023-09-29T06:00	3729	652	-0.3	-6.2	229	12
2023-09-29T06:00	3757	650	-0.5	-6.0	231	12
2023-09-29T06:00	3783	647	-0.7	-6.2	232	12
2023-09-29T06:00	3813	645	-1.0	-6.5	232	12
2023-09-29T06:00	3838	643	-1.2	-6.2	232	12
2023-09-29T06:00	3867	641	-1.5	-6.5	232	12
2023-09-29T06:00	3894	638	-1.8	-6.2	231	12
2023-09-29T06:00	3923	636	-2.1	-6.3	230	12
2023-09-29T06:00	3950	634	-2.3	-6.8	230	12
2023-09-29T06:00	3979	632	-2.6	-7.2	230	12
2023-09-29T06:00	4013	629	-2.9	-7.5	231	12
2023-09-29T06:00	4042	627	-3.2	-7.7	232	12
2023-09-29T06:00	4069	624	-3.4	-8.0	234	12
2023-09-29T06:00	4097	622	-3.6	-8.8	236	12
2023-09-29T06:00	4124	620	-3.6	-11.5	238	13
2023-09-29T06:00	4152	618	-3.4	-15.0	239	13
2023-09-29T06:00	4180	616	-3.3	-17.4	239	12
2023-09-29T06:00	4210	614	-3.2	-20.5	239	12
2023-09-29T06:00	4238	611	-3.2	-24.4	239	12
2023-09-29T06:00	4268	609	-3.0	-32.0	239	12
2023-09-29T06:00	4296	607	-2.8	-37.3	240	12
2023-09-29T06:00	4327	605	-2.8	-37.0	240	11
2023-09-29T06:00	4358	602	-2.9	-34.9	239	11
2023-09-29T06:00	4383	600	-3.1	-34.9	236	11
2023-09-29T06:00	4413	598	-3.2	-35.8	234	11
2023-09-29T06:00	4441	596	-3.4	-35.7	232	10
2023-09-29T06:00	4472	593	-3.5	-36.9	230	10
2023-09-29T06:00	4496	592	-3.6	-37.6	231	10
2023-09-29T06:00	4517	590	-3.8	-38.5	232	10
2023-09-29T06:00	4546	588	-3.9	-38.9	234	10
2023-09-29T06:00	4568	586	-4.0	-39.8	234	10
2023-09-29T06:00	4590	585	-4.1	-39.9	234	11
2023-09-29T06:00	4616	583	-4.3	-39.7	233	11
2023-09-29T06:00	4642	581	-4.5	-39.6	233	11
2023-09-29T06:00	4670	579	-4.8	-39.8	234	11
2023-09-29T06:00	4698	577	-5.0	-40.0	235	11
2023-09-29T06:00	4725	575	-5.3	-40.2	236	11
2023-09-29T06:00	4754	573	-5.3	-40.8	237	11
2023-09-29T06:00	4785	570	-5.5	-40.9	238	11
2023-09-29T06:00	4819	568	-5.6	-41.0	238	12
2023-09-29T06:00	4849	566	-5.7	-40.8	238	12
2023-09-29T06:00	4877	564	-5.8	-41.5	237	13
2023-09-29T06:00	4906	562	-5.9	-41.5	237	13
2023-09-29T06:00	4929	560	-6.1	-41.7	237	14
2023-09-29T06:00	4951	558	-6.2	-41.8	237	14
2023-09-29T06:00	4975	557	-6.4	-41.9	237	15
2023-09-29T06:00	4998	555	-6.6	-42.4	238	15
2023-09-29T06:00	5023	553	-6.6	-42.7	238	15
2023-09-29T06:00	5048	551	-6.7	-42.4	239	14
2023-09-29T06:00	5071	550	-6.7	-41.8	240	13
2023-09-29T06:00	5096	548	-6.8	-41.4	240	13
2023-09-29T06:00	5121	546	-6.8	-41.6	240	12
2023-09-29T06:00	5149	544	-6.9	-42.3	239	12
2023-09-29T06:00	5179	542	-6.9	-42.9	238	12
2023-09-29T06:00	5208	540	-6.9	-43.2	237	12
2023-09-29T06:00	5232	539	-6.8	-43.8	236	11
2023-09-29T06:00	5262	537	-7.0	-44.0	236	11
2023-09-29T06:00	5288	535	-7.0	-44.4	236	10
2023-09-29T06:00	5310	533	-7.0	-44.7	237	10
2023-09-29T06:00	5332	532	-6.9	-44.3	237	10
2023-09-29T06:00	5356	530	-7.0	-44.4	237	10
2023-09-29T06:00	5376	529	-7.2	-44.1	236	9
2023-09-29T06:00	5400	527	-7.4	-44.3	236	9
2023-09-29T06:00	5425	525	-7.5	-44.4	236	9
2023-09-29T06:00	5455	523	-7.7	-44.9	237	8
2023-09-29T06:00	5477	522	-7.9	-45.0	236	8
2023-09-29T06:00	5498	520	-8.1	-45.2	235	8
2023-09-29T06:00	5519	519	-8.2	-45.2	233	7
2023-09-29T06:00	5545	517	-8.4	-45.4	232	7
2023-09-29T06:00	5573	516	-8.6	-45.5	233	7
2023-09-29T06:00	5595	514	-8.7	-46.0	234	7
2023-09-29T06:00	5617	513	-8.9	-46.1	237	7
2023-09-29T06:00	5643	511	-9.1	-46.3	241	7
2023-09-29T06:00	5675	509	-9.2		244	8
2023-09-29T06:00	5703	507	-9.2		246	8
2023-09-29T06:00	5731	505	-9.3	-46.4	248	8
2023-09-29T06:00	5759	503	-9.4	-46.1	248	8
2023-09-29T06:00	5786	501	-9.4	-45.4	247	9
2023-09-29T06:00	5812	500	-9.4	-43.3	246	9
2023-09-29T06:00	5839	498	-9.6	-43.0	244	9
2023-09-29T06:00	5869	496	-9.9	-42.7	242	8
2023-09-29T06:00	5895	494	-10.1	-42.6	239	8
2023-09-29T06:00	5929	492	-10.4	-42.6	234	8
2023-09-29T06:00	5960	490	-10.7	-42.8	230	8
2023-09-29T06:00	5991	488	-11.0	-43.1	228	7
2023-09-29T06:00	6017	487	-11.3	-43.3	228	7
2023-09-29T06:00	6046	485	-11.5	-41.3	230	7
2023-09-29T06:00	6074	483	-11.4	-35.5	233	7
2023-09-29T06:00	6103	481	-11.5	-32.8	236	7
2023-09-29T06:00	6135	479	-11.8	-32.6	239	8
2023-09-29T06:00	6165	477	-12.0	-32.5	241	8
2023-09-29T06:00	6191	476	-12.3	-32.6	243	8
2023-09-29T06:00	6213	474	-12.5	-32.6	246	7
2023-09-29T06:00	6234	473	-12.7	-32.3	248	8
2023-09-29T06:00	6257	472	-12.9	-32.3	251	8
2023-09-29T06:00	6280	470	-13.1	-31.9	252	8
2023-09-29T06:00	6300	469	-13.3	-31.3	253	9
2023-09-29T06:00	6326	467	-13.5	-29.6	253	9
2023-09-29T06:00	6354	466	-13.6	-27.9	252	10
2023-09-29T06:00	6388	464	-13.6	-27.5	251	10
2023-09-29T06:00	6416	462	-13.7	-27.5	250	10
2023-09-29T06:00	6442	460	-13.7	-26.4	249	11
2023-09-29T06:00	6472	459	-13.9	-24.8	249	11
2023-09-29T06:00	6497	457	-14.1	-24.5	248	11
2023-09-29T06:00	6524	455	-14.2	-24.9	247	11
2023-09-29T06:00	6545	454	-14.4	-26.0	246	11
2023-09-29T06:00	6571	453	-14.5	-26.8	244	11
2023-09-29T06:00	6595	451	-14.6	-27.3	242	11
2023-09-29T06:00	6619	450	-14.7	-29.0	240	11
2023-09-29T06:00	6639	448	-14.9	-29.1	239	11
2023-09-29T06:00	6667	447	-15.1	-29.6	238	11
2023-09-29T06:00	6691	445	-15.3	-29.3	237	11
2023-09-29T06:00	6712	444	-15.5	-28.6	237	11
2023-09-29T06:00	6734	443	-15.6	-29.2	235	11
2023-09-29T06:00	6757	442	-15.8	-30.2	234	11
2023-09-29T06:00	6782	440	-16.0	-30.4	233	11
2023-09-29T06:00	6808	439	-16.1	-32.5	232	11
2023-09-29T06:00	6834	437	-16.3	-34.0	232	11
2023-09-29T06:00	6857	436	-16.5	-34.7	231	11
2023-09-29T06:00	6887	434	-16.8	-35.4	231	11
2023-09-29T06:00	6918	432	-17.0	-34.1	230	11
2023-09-29T06:00	6948	431	-17.2	-30.3	228	10
2023-09-29T06:00	6970	429	-17.4	-29.4	227	10
2023-09-29T06:00	7003	427	-17.7	-29.3	226	10
2023-09-29T06:00	7029	426	-17.9	-29.0	225	10
2023-09-29T06:00	7049	425	-18.0	-27.4	226	10
2023-09-29T06:00	7070	423	-18.2	-26.4	227	10
2023-09-29T06:00	7092	422	-18.3	-26.5	229	10
2023-09-29T06:00	7114	421	-18.5	-26.3	230	10
2023-09-29T06:00	7136	420	-18.7	-26.2	230	10
2023-09-29T06:00	7158	419	-18.9	-26.2	229	10
2023-09-29T06:00	7180	417	-19.1	-26.3	227	10
2023-09-29T06:00	7200	416	-19.3	-26.2	226	10
2023-09-29T06:00	7222	415	-19.5	-25.4	225	10
2023-09-29T06:00	7247	414	-19.7	-24.1	224	11
2023-09-29T06:00	7277	412	-19.9	-22.7	224	11
2023-09-29T06:00	7306	410	-20.1	-23.1	225	11
2023-09-29T06:00	7332	409	-20.2		226	12
2023-09-29T06:00	7362	407	-20.4	-25.3	226	12
2023-09-29T06:00	7394	405	-20.6	-25.9	227	12
2023-09-29T06:00	7419	404	-20.8	-26.0	227	12
2023-09-29T06:00	7441	403	-21.0	-26.5	226	11
2023-09-29T06:00	7463	402	-21.2	-26.4	225	11
2023-09-29T06:00	7481	401	-21.3	-27.3	225	12
2023-09-29T06:00	7502	400	-21.5		224	12
2023-09-29T06:00	7524	398	-21.6	-28.1	223	12
2023-09-29T06:00	7544	397	-21.8	-28.4	223	12
2023-09-29T06:00	7564	396	-22.0	-28.5	223	12
2023-09-29T06:00	7582	395	-22.1	-28.5	223	12
2023-09-29T06:00	7602	394	-22.3	-28.9	223	12
2023-09-29T06:00	7625	393	-22.5	-28.7	224	12
2023-09-29T06:00	7646	392	-22.7	-29.0	225	12
2023-09-29T06:00	7671	390	-22.9	-29.3	226	12
2023-09-29T06:00	7695	389	-23.1	-28.7	228	13
2023-09-29T06:00	7720	388	-23.4	-28.8	229	13
2023-09-29T06:00	7740	387	-23.6	-28.9	230	13
2023-09-29T06:00	7760	386	-23.6	-28.9	232	13
2023-09-29T06:00	7781	385	-23.8	-28.4	233	13
2023-09-29T06:00	7803	383	-24.0	-27.8	234	13
2023-09-29T06:00	7827	382	-24.1	-27.7	234	13
2023-09-29T06:00	7848	381	-24.3	-28.1	235	13
2023-09-29T06:00	7869	380	-24.4	-28.0	235	13
2023-09-29T06:00	7891	379	-24.6	-28.0	235	13
2023-09-29T06:00	7913	378	-24.8	-28.2	235	12
2023-09-29T06:00	7936	377	-25.0	-28.7	235	12
2023-09-29T06:00	7955	376	-25.1	-29.0	235	12
2023-09-29T06:00	7976	374	-25.2	-29.5	234	11
2023-09-29T06:00	7997	373	-25.2	-30.6	234	11
2023-09-29T06:00	8018	372	-25.3	-31.5	235	11
2023-09-29T06:00	8041	371	-25.3	-31.7	236	11
2023-09-29T06:00	8064	370	-25.4	-31.9	238	11
2023-09-29T06:00	8086	369	-25.5	-31.7	240	11
2023-09-29T06:00	8122	367	-25.8	-31.3	242	11
2023-09-29T06:00	8148	366	-26.0	-31.1	244	11
2023-09-29T06:00	8175	364	-26.3	-31.0	245	11
2023-09-29T06:00	8202	363	-26.5	-31.0	247	12
2023-09-29T06:00	8224	362	-26.7	-30.9	248	12
2023-09-29T06:00	8244	361	-26.9	-30.9	248	12
2023-09-29T06:00	8268	360	-27.1	-30.8	249	12
2023-09-29T06:00	8289	359	-27.3	-30.9	248	12
2023-09-29T06:00	8310	358	-27.4	-31.0	248	12
2023-09-29T06:00	8331	357	-27.5	-31.5	248	11
2023-09-29T06:00	8352	356	-27.6	-31.8	248	11
2023-09-29T06:00	8372	355	-27.7	-31.9	248	11
2023-09-29T06:00	8392	353	-27.8	-31.9	249	11
2023-09-29T06:00	8417	352	-28.0	-32.0	250	12
2023-09-29T06:00	8439	351	-28.2	-32.2	251	12
2023-09-29T06:00	8462	350	-28.3	-32.5	252	12
2023-09-29T06:00	8487	349	-28.5	-32.7	252	12
2023-09-29T06:00	8508	348	-28.7	-33.3	253	12
2023-09-29T06:00	8536	346	-28.9	-34.3	254	12
2023-09-29T06:00	8574	345	-29.1	-34.4	254	12
2023-09-29T06:00	8598	344	-29.3	-34.3	254	13
2023-09-29T06:00	8621	342	-29.5	-34.3	253	13
2023-09-29T06:00	8644	341	-29.7	-34.7	252	13
2023-09-29T06:00	8667	340	-29.9	-35.3	251	13
2023-09-29T06:00	8690	339	-30.1	-35.4	252	13
2023-09-29T06:00	8718	338	-30.3	-35.6	252	13
2023-09-29T06:00	8740	337	-30.5	-35.5	253	13
2023-09-29T06:00	8766	336	-30.7	-35.1	254	13
2023-09-29T06:00	8791	334	-30.9	-34.9	255	12
2023-09-29T06:00	8815	333	-31.1	-35.3	255	12
2023-09-29T06:00	8838	332	-31.3	-35.5	254	12
2023-09-29T06:00	8859	331	-31.5	-35.4	253	12
2023-09-29T06:00	8882	330	-31.6	-35.4	252	12
2023-09-29T06:00	8905	329	-31.8	-35.9	251	12
2023-09-29T06:00	8928	328	-32.0	-36.3	251	12
2023-09-29T06:00	8949	327	-32.1	-36.8	251	12
2023-09-29T06:00	8970	326	-32.3	-37.1	251	11
2023-09-29T06:00	8990	325	-32.5	-37.2	251	11
2023-09-29T06:00	9013	324	-32.7	-37.3	251	11
2023-09-29T06:00	9033	323	-32.9	-37.4	251	11
2023-09-29T06:00	9055	322	-33.1	-37.5	251	11
2023-09-29T06:00	9077	321	-33.3	-37.5	252	11
2023-09-29T06:00	9098	320	-33.5	-37.6	252	11
2023-09-29T06:00	9120	319	-33.7	-37.7	252	11
2023-09-29T06:00	9142	318	-33.8	-38.0	252	11
2023-09-29T06:00	9162	317	-34.0	-38.1	252	11
2023-09-29T06:00	9183	316	-34.2	-38.2	252	11
2023-09-29T06:00	9203	315	-34.4	-38.4	252	11
2023-09-29T06:00	9224	314	-34.5	-39.4	252	11
2023-09-29T06:00	9244	313	-34.7	-40.5	252	11
2023-09-29T06:00	9266	312	-34.9	-40.3	252	11
2023-09-29T06:00	9287	312	-35.0	-40.3	252	11
2023-09-29T06:00	9308	311	-35.2	-40.6	252	11
2023-09-29T06:00	9328	310	-35.4	-40.9	251	11
2023-09-29T06:00	9348	309	-35.6	-40.9	251	11
2023-09-29T06:00	9369	308	-35.8	-40.5	251	11
2023-09-29T06:00	9391	307	-36.0	-40.5	251	11
2023-09-29T06:00	9413	306	-36.2	-40.4	252	11
2023-09-29T06:00	9434	305	-36.4	-40.3	252	11
2023-09-29T06:00	9456	304	-36.6	-40.4	252	11
2023-09-29T06:00	9476	303	-36.8	-40.6	253	11
2023-09-29T06:00	9497	302	-36.9	-41.2	253	11
2023-09-29T06:00	9518	301	-37.1	-41.4	253	11
2023-09-29T06:00	9539	300	-37.3	-41.7	252	11
2023-09-29T06:00	9561	300	-37.5	-41.8	252	11
2023-09-29T06:00	9581	299	-37.7	-41.8	251	11
2023-09-29T06:00	9600	298	-37.8	-41.9	251	11
2023-09-29T06:00	9621	297	-38.0	-41.9	250	11
2023-09-29T06:00	9641	296	-38.2	-41.9	250	10
2023-09-29T06:00	9664	295	-38.4	-42.0	250	10
2023-09-29T06:00	9684	294	-38.6	-42.1	250	11
2023-09-29T06:00	9703	293	-38.8	-42.4	250	11
2023-09-29T06:00	9725	292	-39.0	-42.7	251	11
2023-09-29T06:00	9747	292	-39.2	-43.5	251	11
2023-09-29T06:00	9768	291	-39.3	-43.8	252	11
2023-09-29T06:00	9789	290	-39.5	-44.2	252	11
2023-09-29T06:00	9810	289	-39.7	-44.4	252	11
2023-09-29T06:00	9831	288	-39.8	-44.7	253	11
2023-09-29T06:00	9853	287	-39.9	-44.8	253	11
2023-09-29T06:00	9875	286	-40.1	-44.7	254	11
2023-09-29T06:00	9897	285	-40.2	-45.3	255	11
2023-09-29T06:00	9920	284	-40.4	-45.9	256	11
2023-09-29T06:00	9942	283	-40.6	-45.9	257	11
2023-09-29T06:00	9964	282	-40.8	-46.0	258	11
2023-09-29T06:00	9985	282	-40.9	-46.3	258	11
2023-09-29T06:00	10006	281	-41.1	-46.5	259	11
2023-09-29T06:00	10027	280	-41.2	-47.0	259	11
2023-09-29T06:00	10049	279	-41.4	-47.6	259	10
2023-09-29T06:00	10071	278	-41.5	-47.7	259	10
2023-09-29T06:00	10092	277	-41.7	-47.6	259	10
2023-09-29T06:00	10115	276	-41.9	-47.9	259	10
2023-09-29T06:00	10136	275	-42.1	-48.2	259	10
2023-09-29T06:00	10156	274	-42.3	-48.4	259	10
2023-09-29T06:00	10176	274	-42.4	-48.2	258	10
2023-09-29T06:00	10196	273	-42.6	-48.3	258	10
2023-09-29T06:00	10217	272	-42.8	-48.6	258	10
2023-09-29T06:00	10236	271	-42.9	-48.7	258	10
2023-09-29T06:00	10259	270	-43.1	-48.9	259	10
2023-09-29T06:00	10278	270	-43.3	-49.3	259	10
2023-09-29T06:00	10302	269	-43.4	-49.6	259	9
2023-09-29T06:00	10323	268	-43.6	-50.0	260	9
2023-09-29T06:00	10347	267	-43.8	-50.1	260	9
2023-09-29T06:00	10367	266	-44.0	-50.2	261	9
2023-09-29T06:00	10389	265	-44.2	-50.5	262	9
2023-09-29T06:00	10412	264	-44.4	-51.0	263	9
2023-09-29T06:00	10435	263	-44.6	-51.2	263	9
2023-09-29T06:00	10456	263	-44.8	-51.2	264	9
2023-09-29T06:00	10477	262	-45.0	-51.2	265	9
2023-09-29T06:00	10502	261	-45.3	-51.2	265	9
2023-09-29T06:00	10525	260	-45.5	-51.3	265	9
2023-09-29T06:00	10547	259	-45.7	-51.7	265	9
2023-09-29T06:00	10569	258	-45.9	-52.3	265	9
2023-09-29T06:00	10590	257	-46.0	-52.4	265	9
2023-09-29T06:00	10612	256	-46.2	-52.2	264	9
2023-09-29T06:00	10634	256	-46.4	-52.0	264	9
2023-09-29T06:00	10654	255	-46.6	-52.0	263	9
2023-09-29T06:00	10675	254	-46.8	-52.1	263	9
2023-09-29T06:00	10696	253	-47.0	-52.5	264	9
2023-09-29T06:00	10717	252	-47.2	-53.1	264	9
2023-09-29T06:00	10738	252	-47.3	-53.4	265	9
2023-09-29T06:00	10760	251	-47.5	-53.6	265	10
2023-09-29T06:00	10783	250	-47.7	-53.8	266	10
2023-09-29T06:00	10803	249	-47.9	-53.9	267	10
2023-09-29T06:00	10826	248	-48.1	-54.1	267	10
2023-09-29T06:00	10848	247	-48.3	-54.5	268	10
2023-09-29T06:00	10868	247	-48.5	-54.7	268	11
2023-09-29T06:00	10888	246	-48.7	-54.9	268	11
2023-09-29T06:00	10910	245	-48.9	-55.2	268	11
2023-09-29T06:00	10932	244	-49.0	-55.6	268	11
2023-09-29T06:00	10956	243	-49.2	-56.2	268	12
2023-09-29T06:00	10977	243	-49.3	-56.4	268	12
2023-09-29T06:00	10999	242	-49.5	-56.4	268	12
2023-09-29T06:00	11019	241	-49.7	-56.4	268	12
2023-09-29T06:00	11041	240	-49.9	-56.4	269	12
2023-09-29T06:00	11061	240	-50.1	-56.5	269	12
2023-09-29T06:00	11083	239	-50.3	-56.6	269	13
2023-09-29T06:00	11105	238	-50.5	-56.6	270	13
2023-09-29T06:00	11126	237	-50.7	-56.7	270	13
2023-09-29T06:00	11148	236	-50.9	-56.9	270	13
2023-09-29T06:00	11170	236	-51.1	-57.1	270	13
2023-09-29T06:00	11191	235	-51.3	-57.2	270	13
2023-09-29T06:00	11212	234	-51.5	-57.2	269	14
2023-09-29T06:00	11233	233	-51.7	-57.2	269	14
2023-09-29T06:00	11254	233	-51.8	-57.2	268	14
2023-09-29T06:00	11276	232	-52.0		268	14
2023-09-29T06:00	11297	231	-52.2	-57.7	267	14
2023-09-29T06:00	11318	230	-52.4	-58.1	267	14
2023-09-29T06:00	11340	230	-52.5	-58.4	267	14
2023-09-29T06:00	11360	229	-52.7	-58.5	267	15
2023-09-29T06:00	11382	228	-52.8	-58.8	268	15
2023-09-29T06:00	11402	227	-52.9	-59.1	268	16
2023-09-29T06:00	11424	227	-53.0	-59.2	269	16
2023-09-29T06:00	11445	226	-53.1	-59.2	269	16
2023-09-29T06:00	11466	225	-53.2	-59.4	270	16
2023-09-29T06:00	11488	224	-53.3	-59.9	270	16
2023-09-29T06:00	11511	223	-53.5	-60.6	270	16
2023-09-29T06:00	11534	223	-53.6	-61.1	271	16
2023-09-29T06:00	11556	222	-53.6	-61.1	271	16
2023-09-29T06:00	11576	221	-53.8		272	16
2023-09-29T06:00	11599	220	-54.0	-60.9	272	16
2023-09-29T06:00	11621	220	-54.2	-60.6	272	16
2023-09-29T06:00	11644	219	-54.4		273	16
2023-09-29T06:00	11667	218	-54.6	-60.1	273	16
2023-09-29T06:00	11692	217	-54.8	-60.2	273	16
2023-09-29T06:00	11713	217	-55.1	-60.4	273	16
2023-09-29T06:00	11736	216	-55.2	-60.5	272	16
2023-09-29T06:00	11758	215	-55.4	-60.6	272	16
2023-09-29T06:00	11779	214	-55.6	-60.7	273	16
2023-09-29T06:00	11803	214	-55.9	-60.8	273	17
2023-09-29T06:00	11825	213	-56.1	-60.8	274	17
2023-09-29T06:00	11846	212	-56.3	-60.8	274	17
2023-09-29T06:00	11868	211	-56.4	-60.7	275	16
2023-09-29T06:00	11889	211	-56.6	-60.8	276	16
2023-09-29T06:00	11913	210	-56.7	-60.8	276	16
2023-09-29T06:00	11934	209	-56.9	-61.0	276	16
2023-09-29T06:00	11955	208	-57.0	-61.0	277	17
2023-09-29T06:00	11977	208	-57.3	-61.3	277	17
2023-09-29T06:00	12000	207	-57.4	-61.4	277	17
2023-09-29T06:00	12021	206	-57.6	-61.6	278	17
2023-09-29T06:00	12041	206	-57.8	-61.8	278	18
2023-09-29T06:00	12064	205	-58.1	-62.1	278	18
2023-09-29T06:00	12086	204	-58.3	-62.3	279	18
2023-09-29T06:00	12108	203	-58.5	-62.7	279	18
2023-09-29T06:00	12129	203	-58.7	-63.1	280	18
2023-09-29T06:00	12150	202	-58.9	-63.4	280	18
2023-09-29T06:00	12172	201	-59.0	-63.5	280	19
2023-09-29T06:00	12193	201	-59.2	-63.6	281	19
2023-09-29T06:00	12216	200	-59.4	-63.5	281	19
2023-09-29T06:00	12236	199	-59.5	-63.4	282	19
2023-09-29T06:00	12257	199	-59.6		282	20
2023-09-29T06:00	12278	198	-59.8	-63.6	282	20
2023-09-29T06:00	12298	197	-59.9	-64.0	283	20
2023-09-29T06:00	12320	197	-60.1	-64.7	284	20
2023-09-29T06:00	12341	196	-60.2	-65.2	285	20
2023-09-29T06:00	12364	195	-60.2	-65.5	286	20
2023-09-29T06:00	12385	195	-60.0	-65.6	287	20
2023-09-29T06:00	12406	194	-60.0	-65.6	288	19
2023-09-29T06:00	12425	193	-60.0	-65.6	288	19
2023-09-29T06:00	12447	193	-60.2	-65.7	288	19
2023-09-29T06:00	12469	192	-60.3	-65.7	287	18
2023-09-29T06:00	12489	191	-60.5	-65.7	287	18
2023-09-29T06:00	12510	191	-60.6	-65.8	287	18
2023-09-29T06:00	12533	190	-60.7	-65.8	287	18
2023-09-29T06:00	12552	190	-60.7	-65.7	288	17
2023-09-29T06:00	12571	189	-60.9	-65.7	288	18
2023-09-29T06:00	12593	188	-61.0	-65.5	289	18
2023-09-29T06:00	12613	188	-61.2	-65.4	290	18
2023-09-29T06:00	12634	187	-61.3	-65.3	292	18
2023-09-29T06:00	12654	186	-61.5	-65.4	293	18
2023-09-29T06:00	12679	186	-61.6	-65.5	294	18
2023-09-29T06:00	12699	185	-61.7	-65.5	295	18
2023-09-29T06:00	12720	184	-61.9	-65.6	295	18
2023-09-29T06:00	12742	184	-62.1	-65.7	296	19
2023-09-29T06:00	12763	183	-62.3	-65.6	296	19
2023-09-29T06:00	12781	183	-62.4	-65.5	296	18
2023-09-29T06:00	12802	182	-62.6	-65.6	296	18
2023-09-29T06:00	12824	181	-62.8	-65.7	296	17
2023-09-29T06:00	12852	181	-63.1	-66.0	295	16
2023-09-29T06:00	12886	180	-63.2	-66.2	294	16
2023-09-29T06:00	12916	179	-63.0	-66.2	293	15
2023-09-29T06:00	12938	178	-63.1	-66.6	291	14
2023-09-29T06:00	12960	177	-63.2	-66.9	288	14
2023-09-29T06:00	12984	177	-63.3	-67.0	286	13
2023-09-29T06:00	13009	176	-63.5	-67.2	284	13
2023-09-29T06:00	13034	175	-63.6	-67.3	282	13
2023-09-29T06:00	13060	175	-63.8	-67.5	279	12
2023-09-29T06:00	13081	174	-63.9	-67.6	277	12
2023-09-29T06:00	13102	173	-64.0	-67.8	275	12
2023-09-29T06:00	13125	173	-64.2	-67.9	273	12
2023-09-29T06:00	13146	172	-64.4	-68.1	272	12
2023-09-29T06:00	13170	171	-64.5	-68.1	270	13
2023-09-29T06:00	13191	171	-64.7	-68.3	268	13
2023-09-29T06:00	13213	170	-64.8	-68.4	267	14
2023-09-29T06:00	13235	170	-65.0	-68.9	267	15
2023-09-29T06:00	13258	169	-65.1	-69.5	267	16
2023-09-29T06:00	13282	168	-64.7	-69.7	268	17
2023-09-29T06:00	13305	168	-64.6	-70.5	269	18
2023-09-29T06:00	13332	167	-64.1	-71.0	270	19
2023-09-29T06:00	13358	166	-64.0	-71.7	270	19
2023-09-29T06:00	13384	166	-63.7	-72.1	271	20
2023-09-29T06:00	13405	165	-63.8	-72.6	272	20
2023-09-29T06:00	13426	164	-64.0	-73.1	273	20
2023-09-29T06:00	13446	164	-63.8	-73.3	274	20
2023-09-29T06:00	13470	163	-63.8	-73.5	275	20
2023-09-29T06:00	13492	163	-63.8	-73.9	277	21
2023-09-29T06:00	13516	162	-63.6	-74.1	278	21
2023-09-29T06:00	13537	161	-63.5	-74.4	279	22
2023-09-29T06:00	13559	161	-63.3	-74.5	280	22
2023-09-29T06:00	13582	160	-63.3	-74.8	281	23
2023-09-29T06:00	13605	160	-63.5	-75.2	283	23
2023-09-29T06:00	13629	159	-63.6	-75.6	284	23
2023-09-29T06:00	13653	158	-63.6	-75.9	286	23
2023-09-29T06:00	13678	158	-63.3	-76.3	288	23
2023-09-29T06:00	13703	157	-63.0	-76.9	290	22
2023-09-29T06:00	13728	156	-62.2	-77.1	292	21
2023-09-29T06:00	13755	156	-62.0	-77.9	293	20
2023-09-29T06:00	13780	155	-61.9	-78.6	293	18
2023-09-29T06:00	13808	154	-61.8	-79.0	294	17
2023-09-29T06:00	13835	154	-61.7	-79.3	294	16
2023-09-29T06:00	13862	153	-61.6	-79.4	293	15
2023-09-29T06:00	13886	153	-61.5	-79.4	293	14
2023-09-29T06:00	13912	152	-61.7	-79.5	292	14
2023-09-29T06:00	13935	151	-61.8	-79.5	291	13
2023-09-29T06:00	13961	151	-62.0	-79.6	290	13
2023-09-29T06:00	13987	150	-62.2	-79.6	287	12
2023-09-29T06:00	14010	149	-62.4	-79.6	285	12
2023-09-29T06:00	14039	149	-62.6	-79.6	283	12
2023-09-29T06:00	14061	148	-62.8	-79.6	280	12
2023-09-29T06:00	14087	148	-63.0	-79.7	278	11
2023-09-29T06:00	14111	147	-63.1	-79.6	275	11
2023-09-29T06:00	14134	147	-63.2	-79.6	272	11
2023-09-29T06:00	14153	146	-63.4	-79.8	270	11
2023-09-29T06:00	14175	146	-63.5	-79.9	267	12
2023-09-29T06:00	14195	145	-63.5	-79.9	265	12
2023-09-29T06:00	14216	145	-63.4	-80.0	263	12
2023-09-29T06:00	14236	144	-63.4	-80.1	262	13
2023-09-29T06:00	14257	144	-63.4	-80.2	261	13
2023-09-29T06:00	14278	143	-63.4	-80.4	260	14
2023-09-29T06:00	14298	143	-63.5	-80.6	260	14
2023-09-29T06:00	14319	142	-63.4	-80.7	261	14
2023-09-29T06:00	14341	142	-63.2	-80.8	261	14
2023-09-29T06:00	14363	141	-63.2	-81.0	261	15
2023-09-29T06:00	14384	141	-63.2	-81.2	261	15
2023-09-29T06:00	14404	140	-63.0	-81.1	261	16
2023-09-29T06:00	14426	140	-63.0	-81.2	260	16
2023-09-29T06:00	14447	139	-63.1	-81.3	260	17
2023-09-29T06:00	14469	139	-63.2	-81.3	260	17
2023-09-29T06:00	14490	138	-63.3	-81.3	261	18
2023-09-29T06:00	14510	138	-63.4	-81.3	262	18
2023-09-29T06:00	14531	137	-63.5	-81.4	263	18
2023-09-29T06:00	14551	137	-63.5	-81.4	265	18
2023-09-29T06:00	14573	136	-63.5	-81.5	267	19
2023-09-29T06:00	14595	136	-63.3	-81.5	269	19
2023-09-29T06:00	14618	135	-63.2	-81.6	271	19
2023-09-29T06:00	14638	135	-63.0	-81.7	273	19
2023-09-29T06:00	14658	135	-63.0	-81.9	275	20
2023-09-29T06:00	14678	134	-63.0	-82.0	277	20
2023-09-29T06:00	14702	134	-62.9	-82.1	279	21
2023-09-29T06:00	14721	133	-62.8	-82.2	280	21
2023-09-29T06:00	14742	133	-62.8	-82.4	282	22
2023-09-29T06:00	14763	132	-62.6	-82.3	283	22
2023-09-29T06:00	14783	132	-62.5	-82.5	284	22
2023-09-29T06:00	14802	131	-62.4	-82.6	286	22
2023-09-29T06:00	14824	131	-62.6	-82.8	288	22
2023-09-29T06:00	14846	131	-62.4	-83.0	290	21
2023-09-29T06:00	14870	130	-62.1	-82.8	293	21
2023-09-29T06:00	14893	130	-61.9	-83.0	295	20
2023-09-29T06:00	14917	129	-61.7	-83.1	297	19
2023-09-29T06:00	14938	129	-61.4	-83.0	298	18
2023-09-29T06:00	14962	128	-61.4	-83.2	300	17
2023-09-29T06:00	14988	128	-61.5	-83.4	301	16
2023-09-29T06:00	15015	127	-61.5	-83.4	302	15
2023-09-29T06:00	15039	127	-61.3	-83.3	304	14
2023-09-29T06:00	15065	126	-61.3	-83.3	305	13
2023-09-29T06:00	15089	125	-61.5	-83.4	306	12
2023-09-29T06:00	15118	125	-61.6	-83.3	306	11
2023-09-29T06:00	15146	124	-61.8	-83.5	305	10
2023-09-29T06:00	15172	124	-61.9	-83.4	304	10
2023-09-29T06:00	15195	123	-62.1	-83.6	302	9
2023-09-29T06:00	15222	123	-62.2	-83.5	300	9
2023-09-29T06:00	15249	122	-62.4	-83.5	298	9
2023-09-29T06:00	15274	122	-62.7	-83.8	296	9
2023-09-29T06:00	15301	121	-62.9	-83.8	294	8
2023-09-29T06:00	15330	121	-63.1	-83.8	291	8
2023-09-29T06:00	15354	120	-63.3	-83.8	288	8
2023-09-29T06:00	15379	120	-63.5	-83.9	285	9
2023-09-29T06:00	15405	119	-63.8	-84.0	282	9
2023-09-29T06:00	15427	119	-64.0	-84.0	279	9
2023-09-29T06:00	15450	118	-64.1	-83.9	276	9
2023-09-29T06:00	15475	118	-64.3	-84.1	274	10
2023-09-29T06:00	15495	117	-64.4	-84.1	273	10
2023-09-29T06:00	15518	117	-64.5	-84.0	272	11
2023-09-29T06:00	15540	117	-64.7	-84.2	272	11
2023-09-29T06:00	15564	116	-64.9	-84.4	273	12
2023-09-29T06:00	15585	116	-65.0	-84.4	273	12
2023-09-29T06:00	15608	115	-65.0	-84.4	274	12
2023-09-29T06:00	15629	115	-64.8	-84.4	275	12
2023-09-29T06:00	15652	115	-64.7	-84.4	276	12
2023-09-29T06:00	15673	114	-64.6	-84.5	276	12
2023-09-29T06:00	15695	114	-64.6	-84.7	275	12
2023-09-29T06:00	15716	113	-64.5	-84.9	273	12
2023-09-29T06:00	15741	113	-63.9	-84.7	270	12
2023-09-29T06:00	15767	112	-63.3	-84.6	266	11
2023-09-29T06:00	15789	112	-63.1	-84.6	262	11
2023-09-29T06:00	15812	112	-63.1	-84.7	259	11
2023-09-29T06:00	15834	111	-63.2	-84.8	258	11
2023-09-29T06:00	15856	111	-63.3	-85.1	258	12
2023-09-29T06:00	15880	110	-63.3	-85.1	260	13
2023-09-29T06:00	15902	110	-63.2	-85.1	262	14
2023-09-29T06:00	15924	110	-63.2	-85.1	263	15
2023-09-29T06:00	15947	109	-63.0	-85.2	265	15
2023-09-29T06:00	15967	109	-62.9	-85.1	267	16
2023-09-29T06:00	15988	108	-62.7	-85.1	268	16
2023-09-29T06:00	16008	108	-62.5	-85.1	270	16
2023-09-29T06:00	16032	108	-62.7	-85.3	272	16
2023-09-29T06:00	16053	107	-62.7	-85.3	274	16
2023-09-29T06:00	16076	107	-62.8	-85.4	277	16
2023-09-29T06:00	16098	106	-62.7	-85.5	279	16
2023-09-29T06:00	16119	106	-62.8	-85.6	282	16
2023-09-29T06:00	16140	106	-62.8	-85.8	284	15
2023-09-29T06:00	16166	105	-62.6	-85.6	285	15
2023-09-29T06:00	16190	105	-62.5	-85.7	286	14
2023-09-29T06:00	16215	104	-61.9	-85.5	286	14
2023-09-29T06:00	16240	104	-61.5	-85.4	285	13
2023-09-29T06:00	16265	104	-61.5	-85.6	283	12
2023-09-29T06:00	16289	103	-61.6	-85.7	281	11
2023-09-29T06:00	16316	103	-61.6	-85.7	278	10
2023-09-29T06:00	16338	102	-61.8	-85.9	274	9
2023-09-29T06:00	16360	102	-61.8	-86.1	270	8
2023-09-29T06:00	16381	102	-61.6	-85.9	266	8
2023-09-29T06:00	16406	101	-61.5	-85.9	262	8
2023-09-29T06:00	16428	101	-61.4	-86.0	257	8
2023-09-29T06:00	16452	101	-61.3	-86.0	252	8
2023-09-29T06:00	16473	100	-61.4	-86.0	249	9
2023-09-29T06:00	16499	100	-61.2	-85.9	246	9
2023-09-29T06:00	16522	99	-61.2	-86.2	244	10
2023-09-29T06:00	16544	99	-61.3	-86.2	244	10
2023-09-29T06:00	16569	99	-61.3	-86.2	246	11
2023-09-29T06:00	16592	98	-61.3	-86.2	249	11
2023-09-29T06:00	16614	98	-61.1	-86.1	253	12
2023-09-29T06:00	16639	98	-61.2	-86.4	257	12
2023-09-29T06:00	16664	97	-61.1	-86.4	261	13
2023-09-29T06:00	16688	97	-60.8	-86.4	265	13
2023-09-29T06:00	16710	96	-60.5	-86.2	268	14
2023-09-29T06:00	16736	96	-60.5	-86.2	272	14
2023-09-29T06:00	16758	96	-60.6	-86.6	275	14
2023-09-29T06:00	16782	95	-60.4		279	14
2023-09-29T06:00	16805	95	-60.3	-86.3	281	14
2023-09-29T06:00	16827	95	-60.2	-86.6	283	14
2023-09-29T06:00	16846	94	-60.1	-86.5	284	13
2023-09-29T06:00	16869	94	-59.9	-86.3	284	13
2023-09-29T06:00	16892	94	-59.8	-86.6	284	12
2023-09-29T06:00	16913	93	-59.7	-86.5	284	12
2023-09-29T06:00	16936	93	-59.8	-86.6	283	11
2023-09-29T06:00	16958	93	-60.0	-86.4	283	11
2023-09-29T06:00	16983	92	-60.1	-86.5	283	11
2023-09-29T06:00	17003	92	-60.3	-86.7	285	11
2023-09-29T06:00	17026	92	-60.3	-86.7	287	10
2023-09-29T06:00	17049	91	-60.3	-86.7	290	10
2023-09-29T06:00	17071	91	-60.1	-86.8	293	10
2023-09-29T06:00	17095	91	-60.0	-86.8	295	10
2023-09-29T06:00	17116	90	-60.0	-86.8	297	9
2023-09-29T06:00	17136	90	-60.0	-86.8	297	9
2023-09-29T06:00	17158	90	-60.0	-86.8	296	8
2023-09-29T06:00	17180	89	-60.0	-86.8	293	8
2023-09-29T06:00	17203	89	-59.9	-86.7	288	7
2023-09-29T06:00	17225	89	-59.8	-86.6	282	7
2023-09-29T06:00	17248	89	-59.9	-86.7	276	7
2023-09-29T06:00	17268	88	-60.0	-86.8	270	7
2023-09-29T06:00	17291	88	-60.1	-86.8	265	7
2023-09-29T06:00	17313	88	-60.2	-86.9	262	8
2023-09-29T06:00	17336	87	-60.1	-86.8	259	8
2023-09-29T06:00	17357	87	-60.1	-86.8	258	8
2023-09-29T06:00	17378	87	-60.1	-86.8	256	8
2023-09-29T06:00	17404	86	-60.3	-87.0	255	7
2023-09-29T06:00	17426	86	-60.3	-87.0	254	7
2023-09-29T06:00	17452	86	-60.4	-87.1	252	7
2023-09-29T06:00	17475	85	-60.4	-87.1	250	7
2023-09-29T06:00	17498	85	-60.5	-87.2	248	7
2023-09-29T06:00	17522	85	-60.5	-87.2	247	7
2023-09-29T06:00	17542	84	-60.7	-87.3	246	7
2023-09-29T06:00	17566	84	-60.8	-87.4	246	8
2023-09-29T06:00	17589	84	-60.7	-87.3	245	8
2023-09-29T06:00	17610	83	-60.6	-87.2	244	9
2023-09-29T06:00	17633	83	-60.6	-87.2	244	9
2023-09-29T06:00	17658	83	-60.7	-87.3	245	9
2023-09-29T06:00	17680	83	-60.8	-87.4	247	9
2023-09-29T06:00	17704	82	-61.0	-87.5	249	9
2023-09-29T06:00	17727	82	-60.9	-87.5	251	9
2023-09-29T06:00	17753	82	-60.5	-87.2	254	8
2023-09-29T06:00	17774	81	-60.4	-87.4	257	8
2023-09-29T06:00	17798	81	-60.4	-87.4	260	7
2023-09-29T06:00	17821	81	-60.2	-87.3	263	7
2023-09-29T06:00	17847	80	-60.0	-87.1	264	7
2023-09-29T06:00	17869	80	-60.0	-87.1	265	7
2023-09-29T06:00	17895	80	-60.1	-87.2	265	7
2023-09-29T06:00	17919	79	-60.2	-87.3	265	7
2023-09-29T06:00	17943	79	-60.3	-87.4	266	7
2023-09-29T06:00	17968	79	-60.5	-87.5	266	8
2023-09-29T06:00	17991	79	-60.6	-87.6	267	8
2023-09-29T06:00	18013	78	-60.5	-87.5	268	8
2023-09-29T06:00	18039	78	-60.4	-87.4	268	8
2023-09-29T06:00	18062	78	-60.3	-87.8	269	8
2023-09-29T06:00	18086	77	-60.3	-87.8	269	8
2023-09-29T06:00	18110	77	-60.1	-87.6	271	8
2023-09-29T06:00	18131	77	-60.1	-87.6	272	8
2023-09-29T06:00	18155	76	-60.0	-87.5	273	8
2023-09-29T06:00	18181	76	-60.0	-87.9	274	7
2023-09-29T06:00	18202	76	-59.8	-87.8	274	7
2023-09-29T06:00	18227	76	-59.8	-87.8	272	6
2023-09-29T06:00	18252	75	-59.7	-87.7	267	5
2023-09-29T06:00	18278	75	-59.5	-88.0	259	5
2023-09-29T06:00	18301	75	-59.3	-87.9	250	4
2023-09-29T06:00	18326	74	-59.2	-87.8	242	4
2023-09-29T06:00	18348	74	-59.2	-87.8	237	5
2023-09-29T06:00	18372	74	-59.3	-87.9	236	5
2023-09-29T06:00	18398	74	-59.4	-87.5	236	5
2023-09-29T06:00	18422	73	-59.5	-87.6	238	5
2023-09-29T06:00	18446	73	-59.6	-87.6	242	5
2023-09-29T06:00	18472	73	-59.7	-87.7	247	5
2023-09-29T06:00	18497	72	-59.7	-87.7	253	5
2023-09-29T06:00	18519	72	-59.7	-87.7	258	5
2023-09-29T06:00	18546	72	-59.7	-87.7	263	5
2023-09-29T06:00	18571	72	-59.7	-87.7	266	5
2023-09-29T06:00	18597	71	-59.8	-87.8	268	5
2023-09-29T06:00	18623	71	-59.7	-87.7	268	5
2023-09-29T06:00	18646	71	-59.8	-87.8	265	5
2023-09-29T06:00	18669	70	-59.8	-87.8	261	5
2023-09-29T06:00	18698	70	-59.8	-87.8	255	5
2023-09-29T06:00	18722	70	-59.9	-87.9	249	5
2023-09-29T06:00	18745	70	-59.9	-87.9	244	6
2023-09-29T06:00	18767	69	-59.9	-87.9	241	6
2023-09-29T06:00	18796	69	-60.0	-87.9	239	6
2023-09-29T06:00	18820	69	-60.2	-88.1	237	7
2023-09-29T06:00	18844	69	-60.5	-88.3	236	7
2023-09-29T06:00	18865	68	-60.6	-88.0	236	7
2023-09-29T06:00	18893	68	-60.8	-88.1	237	7
2023-09-29T06:00	18918	68	-60.9	-88.2	238	7
2023-09-29T06:00	18942	67	-60.9	-88.2	239	7
2023-09-29T06:00	18966	67	-60.9	-88.2	240	7
2023-09-29T06:00	18990	67	-61.0	-88.3	242	7
2023-09-29T06:00	19014	67	-61.1	-88.4	244	7
2023-09-29T06:00	19041	66	-61.3	-88.5	246	7
2023-09-29T06:00	19062	66	-61.2	-88.4	248	7
2023-09-29T06:00	19086	66	-61.2	-88.4	249	7
2023-09-29T06:00	19110	66	-61.3	-88.5	250	7
2023-09-29T06:00	19135	65	-61.3	-88.9	250	7
2023-09-29T06:00	19157	65	-61.2	-88.8	248	7
2023-09-29T06:00	19179	65	-60.9	-89.1	244	7
2023-09-29T06:00	19207	65	-60.3	-88.6	241	6
2023-09-29T06:00	19229	64	-60.2	-88.5	238	6
2023-09-29T06:00	19253	64	-60.3	-88.6	239	6
2023-09-29T06:00	19279	64	-60.4	-88.7	242	6
2023-09-29T06:00	19301	64	-60.3	-88.6	247	6
2023-09-29T06:00	19326	63	-60.3	-88.6	254	6
2023-09-29T06:00	19350	63	-60.2	-89.0	260	6
2023-09-29T06:00	19371	63	-60.2	-89.0	265	6
2023-09-29T06:00	19399	63	-60.0	-88.9	270	6
2023-09-29T06:00	19421	62	-59.8	-88.7	274	6
2023-09-29T06:00	19447	62	-59.9	-88.8	277	6
2023-09-29T06:00	19473	62	-60.1	-88.9	281	5
2023-09-29T06:00	19497	62	-60.2	-89.0	283	4
2023-09-29T06:00	19522	61	-60.1	-88.9	284	3
2023-09-29T06:00	19545	61	-59.9	-88.8	282	2
2023-09-29T06:00	19572	61	-59.8	-88.7	270	1
2023-09-29T06:00	19594	61	-59.6	-88.6	237	1
2023-09-29T06:00	19624	60	-59.5	-88.5	208	1
2023-09-29T06:00	19648	60	-59.4	-88.4	202	2
2023-09-29T06:00	19670	60	-59.4	-88.4	207	2
2023-09-29T06:00	19695	60	-59.6	-88.6	216	3
2023-09-29T06:00	19720	60	-59.8	-88.7	225	4
2023-09-29T06:00	19746	59	-59.9	-88.8	232	4
2023-09-29T06:00	19770	59	-59.9	-88.8	237	5
2023-09-29T06:00	19793	59	-59.9	-88.8	241	6
2023-09-29T06:00	19817	59	-59.9	-88.8	244	7
2023-09-29T06:00	19842	58	-59.9	-88.8	247	7
2023-09-29T06:00	19863	58	-59.8	-88.7	250	7
2023-09-29T06:00	19890	58	-59.6	-88.6	252	7
2023-09-29T06:00	19913	58	-59.5	-89.0	253	7
2023-09-29T06:00	19935	58	-59.4	-89.0	252	7
2023-09-29T06:00	19959	57	-59.3	-88.9	251	6
2023-09-29T06:00	19983	57	-59.1	-88.7	248	6
2023-09-29T06:00	20007	57	-58.9	-88.6	246	6
2023-09-29T06:00	20034	57	-58.9	-88.6	244	6
2023-09-29T06:00	20053	56	-59.0	-88.7	242	6
2023-09-29T06:00	20080	56	-59.0	-88.7	242	6
2023-09-29T06:00	20104	56	-59.0	-88.1	244	6
2023-09-29T06:00	20128	56	-58.8	-88.0	246	6
2023-09-29T06:00	20156	56	-58.9	-88.0	249	6
2023-09-29T06:00	20179	55	-59.1	-88.2	251	7
2023-09-29T06:00	20205	55	-59.0	-88.1	253	7
2023-09-29T06:00	20227	55	-59.1	-88.2	253	8
2023-09-29T06:00	20251	55	-59.2	-88.3	252	8
2023-09-29T06:00	20278	54	-59.3	-88.3	251	9
2023-09-29T06:00	20303	54	-59.2	-88.3	251	9
2023-09-29T06:00	20324	54	-59.3	-88.3	250	9
2023-09-29T06:00	20349	54	-59.3	-88.9	251	9
2023-09-29T06:00	20373	54	-59.2	-88.8	253	9
2023-09-29T06:00	20398	53	-59.0	-88.1	255	9
2023-09-29T06:00	20421	53	-59.0	-88.1	257	9
2023-09-29T06:00	20448	53	-59.0	-88.1	259	9
2023-09-29T06:00	20473	53	-59.2	-88.3	260	9
2023-09-29T06:00	20500	53	-59.2	-88.3	261	8
2023-09-29T06:00	20524	52	-59.2	-88.8	262	8
2023-09-29T06:00	20551	52	-59.1	-88.7	263	8
2023-09-29T06:00	20575	52	-59.1	-88.7	265	8
2023-09-29T06:00	20600	52	-58.9	-88.6	269	8
2023-09-29T06:00	20624	52	-58.7	-88.4	272	8
2023-09-29T06:00	20649	51	-58.5	-88.3	275	8
2023-09-29T06:00	20674	51	-58.4	-88.2	278	8
2023-09-29T06:00	20698	51	-58.4	-88.2	278	8
2023-09-29T06:00	20726	51	-58.3	-88.1	278	7
2023-09-29T06:00	20754	51	-58.3	-88.1	276	7
2023-09-29T06:00	20778	50	-58.3	-88.1	273	7
2023-09-29T06:00	20802	50	-58.3	-88.1	271	6
2023-09-29T06:00	20828	50	-58.3	-88.1	270	6
2023-09-29T06:00	20853	50	-58.3	-88.1	271	6
2023-09-29T06:00	20878	49	-58.2	-88.1	272	6
2023-09-29T06:00	20906	49	-58.3	-88.1	273	6
2023-09-29T06:00	20933	49	-58.4	-88.2	273	6
2023-09-29T06:00	20959	49	-58.4	-88.2	271	6
2023-09-29T06:00	20987	49	-58.4	-88.2	268	7
2023-09-29T06:00	21011	48	-58.4	-88.2	264	7
2023-09-29T06:00	21036	48	-58.4	-88.2	262	7
2023-09-29T06:00	21061	48	-58.3	-88.7	261	7
2023-09-29T06:00	21087	48	-57.9	-88.4	262	7
2023-09-29T06:00	21117	48	-57.5	-88.1	266	7
2023-09-29T06:00	21140	47	-57.3	-88.6	272	7
2023-09-29T06:00	21165	47	-57.0	-88.4	278	7
2023-09-29T06:00	21192	47	-56.8	-88.3	285	7
2023-09-29T06:00	21217	47	-56.6	-88.1	290	7
2023-09-29T06:00	21242	47	-56.6	-88.1	294	7
2023-09-29T06:00	21266	47	-56.6	-88.1	296	7
2023-09-29T06:00	21290	46	-56.6	-88.1	297	7
2023-09-29T06:00	21314	46	-56.6	-88.1	295	7
2023-09-29T06:00	21340	46	-56.5	-88.1	292	6
2023-09-29T06:00	21364	46	-56.4	-88.0	288	6
2023-09-29T06:00	21390	46	-56.3	-87.9	284	6
2023-09-29T06:00	21415	45	-56.4	-88.0	280	6
2023-09-29T06:00	21441	45	-56.5	-88.1	279	6
2023-09-29T06:00	21466	45	-56.6	-87.5	279	6
2023-09-29T06:00	21493	45	-56.6	-87.5	279	6
2023-09-29T06:00	21518	45	-56.7	-87.5	280	6
2023-09-29T06:00	21546	45	-56.8	-87.6	282	6
2023-09-29T06:00	21570	44	-56.8	-87.6	284	6
2023-09-29T06:00	21592	44	-56.9	-87.7	285	5
2023-09-29T06:00	21621	44	-56.8	-88.3	286	5
2023-09-29T06:00	21646	44	-56.6	-88.1	285	5
2023-09-29T06:00	21669	44	-56.4	-88.0	281	5
2023-09-29T06:00	21695	44	-56.1	-87.8	277	5
2023-09-29T06:00	21722	43	-56.2	-87.8	275	5
2023-09-29T06:00	21749	43	-56.3	-87.9	276	6
2023-09-29T06:00	21773	43	-56.2	-87.8	280	6
2023-09-29T06:00	21799	43	-56.2	-87.8	285	6
2023-09-29T06:00	21825	43	-56.1	-87.8	292	5
2023-09-29T06:00	21855	42	-56.2	-87.8	299	5
2023-09-29T06:00	21878	42	-56.4	-88.0	305	5
2023-09-29T06:00	21903	42	-56.4	-88.0	310	5
2023-09-29T06:00	21929	42	-56.4	-88.0	314	5
2023-09-29T06:00	21953	42	-56.5	-88.1	318	5
2023-09-29T06:00	21980	42	-56.5	-88.1	320	5
2023-09-29T06:00	22009	41	-56.3	-87.9	322	5
2023-09-29T06:00	22031	41	-56.1	-87.8	323	4
2023-09-29T06:00	22060	41	-55.8	-88.3	324	4
2023-09-29T06:00	22083	41	-55.7	-88.2	328	4
2023-09-29T06:00	22112	41	-55.8	-88.3	335	4
2023-09-29T06:00	22138	41	-55.9	-87.6	343	4
2023-09-29T06:00	22166	40	-56.1	-87.8	351	3
2023-09-29T06:00	22195	40	-56.3	-87.9	357	3
2023-09-29T06:00	22223	40	-56.5	-88.1	359	3
2023-09-29T06:00	22249	40	-56.6	-87.5	358	2
2023-09-29T06:00	22275	40	-56.8	-87.6	352	2
2023-09-29T06:00	22304	40	-57.0	-87.8	340	2
2023-09-29T06:00	22330	39	-57.2	-87.9	325	2
2023-09-29T06:00	22355	39	-57.3	-88.0	309	2
2023-09-29T06:00	22386	39	-57.3	-88.0	298	3
2023-09-29T06:00	22411	39	-57.5	-88.1	293	3
2023-09-29T06:00	22437	39	-57.6	-88.2	293	4
2023-09-29T06:00	22467	39	-57.7	-88.3	294	5
2023-09-29T06:00	22493	38	-57.7	-88.3	297	5
2023-09-29T06:00	22522	38	-57.7	-88.3	299	6
2023-09-29T06:00	22549	38	-57.7	-88.9	302	6
2023-09-29T06:00	22580	38	-57.6	-88.9	304	6
2023-09-29T06:00	22606	38	-57.5	-88.8	307	6
2023-09-29T06:00	22632	38	-57.4	-88.7	312	6
2023-09-29T06:00	22662	37	-57.3	-88.6	317	5
2023-09-29T06:00	22688	37	-57.2	-88.6	324	5
2023-09-29T06:00	22709	37	-57.1	-88.5	332	4
2023-09-29T06:00	22740	37	-57.1	-88.5	341	4
2023-09-29T06:00	22766	37	-57.1	-88.5	352	3
2023-09-29T06:00	22796	37	-57.2	-88.6	6	3
2023-09-29T06:00	22824	36	-57.3	-88.6	25	3
2023-09-29T06:00	22851	36	-57.4	-88.7	46	2
2023-09-29T06:00	22874	36	-57.4	-88.7	64	3
2023-09-29T06:00	22902	36	-57.5	-88.8	77	3
2023-09-29T06:00	22929	36	-57.5	-88.8	85	3
2023-09-29T06:00	22952	36	-57.3	-88.6	90	3
2023-09-29T06:00	22980	36	-57.3	-88.6	95	3
2023-09-29T06:00	23009	35	-57.4	-88.7	103	3
2023-09-29T06:00	23032	35	-57.5	-88.8	114	2
2023-09-29T06:00	23060	35	-57.6	-88.9	128	2
2023-09-29T06:00	23087	35	-57.5	-88.8	143	2
2023-09-29T06:00	23113	35	-57.4	-88.7	155	3
2023-09-29T06:00	23141	35	-57.5	-88.8	163	3
2023-09-29T06:00	23163	34	-57.5	-88.8	170	3
2023-09-29T06:00	23195	34	-57.5	-88.8	175	3
2023-09-29T06:00	23218	34	-57.4	-88.7	177	3
2023-09-29T06:00	23244	34	-57.4	-88.7	179	3
2023-09-29T06:00	23278	34	-57.3	-88.6	181	3
2023-09-29T06:00	23298	34	-57.4	-88.7	184	3
2023-09-29T06:00	23328	34	-57.4	-88.7	188	3
2023-09-29T06:00	23352	33	-57.5	-88.8	193	3
2023-09-29T06:00	23381	33	-57.4	-88.7	199	3
2023-09-29T06:00	23405	33	-57.3	-88.6	206	3
2023-09-29T06:00	23432	33	-57.2	-88.6	214	3
2023-09-29T06:00	23455	33	-57.2	-88.6	223	3
2023-09-29T06:00	23483	33	-57.4	-88.7	231	3
2023-09-29T06:00	23508	33	-57.5	-88.8	239	3
2023-09-29T06:00	23535	33	-57.6	-88.2	245	3
2023-09-29T06:00	23567	32	-57.6	-88.2	248	4
2023-09-29T06:00	23588	32	-57.6	-88.2	250	4
2023-09-29T06:00	23618	32	-57.6	-88.2	249	4
2023-09-29T06:00	23644	32	-57.7	-88.9	247	4
2023-09-29T06:00	23672	32	-57.6	-88.9	245	4
2023-09-29T06:00	23695	32	-57.6	-88.9	246	4
2023-09-29T06:00	23723	32	-57.6	-88.9	249	3
2023-09-29T06:00	23746	31	-57.7	-88.9	254	3
2023-09-29T06:00	23778	31	-57.6	-88.9	260	3
2023-09-29T06:00	23800	31	-57.5	-88.8	267	3
2023-09-29T06:00	23831	31	-57.5	-88.8	272	3
2023-09-29T06:00	23852	31	-57.4	-88.7	277	3
2023-09-29T06:00	23885	31	-57.3	-88.6	281	3
2023-09-29T06:00	23915	31	-57.4	-88.7	285	4
2023-09-29T06:00	23943	31	-57.4	-88.7	287	4
2023-09-29T06:00	23965	30	-57.3	-89.4	290	4
2023-09-29T06:00	23995	30	-57.0	-89.2	293	4
2023-09-29T06:00	24027	30	-56.7	-88.9	296	4
2023-09-29T06:00	24059	30	-56.6	-88.9	299	4
2023-09-29T06:00	24077	30	-56.5	-88.8	301	4
2023-09-29T06:00	24106	30	-56.5	-88.8	301	4
2023-09-29T06:00	24133	30	-56.5	-88.8	300	4
2023-09-29T06:00	24161	29	-56.6	-88.9	298	3
2023-09-29T06:00	24188	29	-56.7	-88.9	295	3
2023-09-29T06:00	24217	29	-56.8	-88.3	291	3
2023-09-29T06:00	24248	29	-56.8	-88.3	288	2
2023-09-29T06:00	24274	29	-56.8	-88.3	285	2
2023-09-29T06:00	24298	29	-56.7	-88.2	282	2
2023-09-29T06:00	24329	29	-56.7	-88.9	275	1
2023-09-29T06:00	24354	29	-56.7	-88.9	249	1
2023-09-29T06:00	24386	28	-56.7	-88.9	183	1
2023-09-29T06:00	24412	28	-56.8	-89.0	161	1
2023-09-29T06:00	24437	28	-56.7	-88.9	159	2
2023-09-29T06:00	24464	28	-56.6	-88.9	163	2
2023-09-29T06:00	24490	28	-56.7	-88.9	168	3
2023-09-29T06:00	24521	28	-56.8	-89.0	176	3
2023-09-29T06:00	24552	28	-56.7	-88.9	183	4
2023-09-29T06:00	24574	28	-56.7	-88.9	191	4
2023-09-29T06:00	24604	28	-56.6	-88.9	198	5
2023-09-29T06:00	24630	27	-56.5	-88.8	204	5
2023-09-29T06:00	24654	27	-56.4	-88.7	209	5
2023-09-29T06:00	24682	27	-56.3	-88.6	213	5
2023-09-29T06:00	24710	27	-56.3	-88.6	216	5
2023-09-29T06:00	24739	27	-56.2	-88.6	219	4
2023-09-29T06:00	24765	27	-56.1	-88.5	222	4
2023-09-29T06:00	24792	27	-56.2	-88.6	228	4
2023-09-29T06:00	24817	27	-56.2	-88.6	236	3
2023-09-29T06:00	24845	26	-56.0	-88.4	244	3
2023-09-29T06:00	24868	26	-55.8	-88.3	249	3
2023-09-29T06:00	24896	26	-55.6	-88.1	250	3
2023-09-29T06:00	24923	26	-55.5	-88.1	247	3
2023-09-29T06:00	24955	26	-55.5	-88.1	240	4
2023-09-29T06:00	24981	26	-55.4	-88.0	234	4
2023-09-29T06:00	25012	26	-55.6	-88.1	232	4
2023-09-29T06:00	25038	26	-55.7	-88.2	234	4
2023-09-29T06:00	25064	26	-55.9	-88.4	239	5
2023-09-29T06:00	25093	25	-55.9	-88.4	248	5
2023-09-29T06:00	25124	25	-56.0	-88.4	258	5
2023-09-29T06:00	25145	25	-56.0	-88.4	267	5
2023-09-29T06:00	25181	25	-56.0	-88.4	274	5
2023-09-29T06:00	25203	25	-56.0	-88.4	279	5
2023-09-29T06:00	25237	25	-56.0	-88.4	282	5
2023-09-29T06:00	25259	25	-55.8	-88.3	283	5
2023-09-29T06:00	25292	25	-55.6	-88.1	283	5
2023-09-29T06:00	25317	25	-55.7	-88.2	283	4
2023-09-29T06:00	25340	24	-55.8	-88.3	285	4
2023-09-29T06:00	25379	24	-56.0	-88.4	289	4
2023-09-29T06:00	25397	24	-56.1	-88.5	293	3
2023-09-29T06:00	25430	24	-56.2	-88.6	299	3
2023-09-29T06:00	25459	24	-56.3	-88.6	303	2
2023-09-29T06:00	25483	24	-56.3	-88.6	305	2
2023-09-29T06:00	25516	24	-56.2	-88.6	302	2
2023-09-29T06:00	25547	24	-56.1	-88.5	296	2
2023-09-29T06:00	25577	24	-56.0	-88.4	290	3
2023-09-29T06:00	25597	24	-55.9	-88.4	287	4
2023-09-29T06:00	25633	23	-55.8	-88.3	286	4
2023-09-29T06:00	25661	23	-55.8	-88.3	285	5
2023-09-29T06:00	25697	23	-55.8	-88.3	284	6
2023-09-29T06:00	25720	23	-55.9	-88.4	284	7
2023-09-29T06:00	25747	23	-55.8	-88.3	282	7
2023-09-29T06:00	25784	23	-55.8	-88.3	282	8
2023-09-29T06:00	25804	23	-55.7	-89.1	282	8
2023-09-29T06:00	25833	23	-55.6	-89.0	283	8
2023-09-29T06:00	25864	23	-55.5	-88.9	286	8
2023-09-29T06:00	25887	22	-55.4	-88.9	290	7
2023-09-29T06:00	25915	22	-55.5	-88.9	296	7
2023-09-29T06:00	25946	22	-55.5	-88.1	302	7
2023-09-29T06:00	25971	22	-55.5	-88.1	308	7
2023-09-29T06:00	26002	22	-55.6	-88.1	312	7
2023-09-29T06:00	26030	22	-55.7	-88.2	316	7
2023-09-29T06:00	26058	22	-55.7	-88.2	319	7
2023-09-29T06:00	26091	22	-55.7	-88.2	322	6
2023-09-29T06:00	26122	22	-55.7	-88.2	323	6
2023-09-29T06:00	26139	22	-55.7	-88.2	324	6
2023-09-29T06:00	26174	21	-55.9	-88.4	324	5
2023-09-29T06:00	26206	21	-56.0	-88.4	323	5
2023-09-29T06:00	26232	21	-56.1	-88.5	319	4
2023-09-29T06:00	26258	21	-56.2	-88.6	312	4
2023-09-29T06:00	26282	21	-56.3	-88.6	303	4
2023-09-29T06:00	26316	21	-56.3	-88.6	293	4
2023-09-29T06:00	26340	21	-56.2	-88.6	286	4
2023-09-29T06:00	26378	21	-56.1	-88.5	282	5
2023-09-29T06:00	26400	21	-56.1	-89.4	280	5
2023-09-29T06:00	26423	21	-55.9	-89.2	281	6
2023-09-29T06:00	26455	21	-55.6	-89.0	284	6
2023-09-29T06:00	26478	20	-55.5	-88.9	288	6
2023-09-29T06:00	26511	20	-55.4	-88.9	292	7
2023-09-29T06:00	26542	20	-55.4	-88.9	295	7
2023-09-29T06:00	26570	20	-55.4	-88.9	299	8
2023-09-29T06:00	26599	20	-55.4	-88.9	301	9
2023-09-29T06:00	26623	20	-55.5	-88.9	303	9
2023-09-29T06:00	26654	20	-55.6	-89.0	304	10
2023-09-29T06:00	26678	20	-55.7	-88.2	305	10
2023-09-29T06:00	26708	20	-55.6	-89.0	305	9
2023-09-29T06:00	26732	20	-55.5	-88.9	304	9
2023-09-29T06:00	26759	20	-55.5	-88.9	304	8
2023-09-29T06:00	26783	20	-55.6	-88.1	302	7
2023-09-29T06:00	26819	19	-55.7	-88.2	299	6
2023-09-29T06:00	26835	19	-55.8	-88.3	295	5
2023-09-29T06:00	26868	19	-55.9	-88.4	290	5
2023-09-29T06:00	26901	19	-55.8	-89.1	286	4
2023-09-29T06:00	26929	19	-55.7	-89.1	283	5
2023-09-29T06:00	26953	19	-55.6	-89.0	282	5
2023-09-29T06:00	26984	19	-55.4	-88.9	282	5
2023-09-29T06:00	27012	19	-55.2	-88.7	283	5
2023-09-29T06:00	27046	19	-55.1	-88.6	286	5
2023-09-29T06:00	27074	19	-54.9	-88.5	289	6
2023-09-29T06:00	27100	19	-54.6	-88.3	294	6
2023-09-29T06:00	27128	19	-54.6	-88.3	298	6
2023-09-29T06:00	27152	18	-54.5	-88.2	302	7
2023-09-29T06:00	27181	18	-54.5	-88.2	305	7
2023-09-29T06:00	27214	18	-54.6	-88.3	307	8
2023-09-29T06:00	27244	18	-54.6	-88.3	309	8
2023-09-29T06:00	27274	18	-54.4	-88.1	310	7
2023-09-29T06:00	27308	18	-54.4	-88.1	311	7
2023-09-29T06:00	27337	18	-54.4	-88.1	311	7
2023-09-29T06:00	27357	18	-54.4	-88.1	310	6
2023-09-29T06:00	27386	18	-54.5	-88.2	307	6
2023-09-29T06:00	27420	18	-54.7	-88.4	304	6
2023-09-29T06:00	27451	18	-54.8	-88.4	302	6
2023-09-29T06:00	27480	18	-54.8	-88.4	301	6
2023-09-29T06:00	27514	17	-54.8	-88.4	303	6
2023-09-29T06:00	27539	17	-54.8	-88.4	306	7
2023-09-29T06:00	27568	17	-54.8	-88.4	309	7
2023-09-29T06:00	27598	17	-54.9	-88.5	312	8
2023-09-29T06:00	27618	17	-54.9	-88.5	313	8
2023-09-29T06:00	27659	17	-54.9	-88.5	313	9
2023-09-29T06:00	27679	17	-54.8	-88.4	312	9
2023-09-29T06:00	27723	17	-54.7	-88.4	311	10
2023-09-29T06:00	27742	17	-54.5	-88.2	310	10
2023-09-29T06:00	27782	17	-54.4	-88.1	309	10
2023-09-29T06:00	27809	17	-54.3	-88.1	310	9
2023-09-29T06:00	27833	17	-54.3	-88.1	311	9
2023-09-29T06:00	27861	16	-54.2	-88.0	313	9
2023-09-29T06:00	27894	16	-54.2	-88.0	315	8
2023-09-29T06:00	27932	16	-54.2	-88.0	317	8
2023-09-29T06:00	27958	16	-54.3	-88.1	318	8
2023-09-29T06:00	27988	16	-54.2	-89.0	318	8
2023-09-29T06:00	28024	16	-54.1	-88.9	318	8
2023-09-29T06:00	28046	16	-53.9	-88.8	317	9
2023-09-29T06:00	28078	16	-53.7	-88.7	317	10
2023-09-29T06:00	28109	16	-53.7	-88.7	317	10
2023-09-29T06:00	28132	16	-53.5	-88.5	318	10
2023-09-29T06:00	28170	16	-53.3	-88.4	320	10
2023-09-29T06:00	28193	16	-53.1	-88.2	320	9
2023-09-29T06:00	28230	16	-52.9	-88.1	320	9
2023-09-29T06:00	28259	16	-52.8	-88.0	319	8
2023-09-29T06:00	28290	15	-52.8	-88.0	316	7
2023-09-29T06:00	28315	15	-52.8	-88.0	314	7
2023-09-29T06:00	28346	15	-52.6	-87.9	312	6
2023-09-29T06:00	28388	15	-52.2	-87.6	310	6
2023-09-29T06:00	28411	15	-51.9	-87.4	309	6
2023-09-29T06:00	28437	15	-51.8	-87.3	307	6
2023-09-29T06:00	28459	15	-51.7	-87.2	304	6
2023-09-29T06:00	28506	15	-51.8	-87.3	301	6
2023-09-29T06:00	28520	15	-51.9	-87.4	298	6
2023-09-29T06:00	28555	15	-52.1	-87.5	297	6
2023-09-29T06:00	28591	15	-52.4	-87.7	297	6
2023-09-29T06:00	28618	15	-52.6	-87.9	298	7
2023-09-29T06:00	28645	15	-52.7	-87.9	301	7
2023-09-29T06:00	28678	15	-52.8	-88.0	305	7
2023-09-29T06:00	28708	14	-52.7	-87.9	308	6
2023-09-29T06:00	28737	14	-52.7	-87.9	310	6
2023-09-29T06:00	28766	14	-52.6	-87.9	310	6
2023-09-29T06:00	28794	14	-52.5	-87.8	309	5
2023-09-29T06:00	28830	14	-52.5	-87.8	308	5
2023-09-29T06:00	28856	14	-52.3	-87.7	307	4
2023-09-29T06:00	28891	14	-52.3	-87.7	306	4
2023-09-29T06:00	28916	14	-52.4	-87.7	305	4
2023-09-29T06:00	28954	14	-52.4	-87.7	303	4
2023-09-29T06:00	28979	14	-52.4	-87.7	298	4
2023-09-29T06:00	29024	14	-52.5	-87.8	292	4
2023-09-29T06:00	29051	14	-52.6	-87.9	287	5
2023-09-29T06:00	29071	14	-52.7	-87.9	284	5
2023-09-29T06:00	29100	14	-52.7	-87.9	284	5
2023-09-29T06:00	29127	14	-52.7	-87.9	286	6
2023-09-29T06:00	29166	13	-52.7	-87.9	291	6
2023-09-29T06:00	29196	13	-52.6	-87.9	297	7
2023-09-29T06:00	29228	13	-52.6	-87.9	303	7
2023-09-29T06:00	29267	13	-52.8	-88.0	310	8
2023-09-29T06:00	29289	13	-52.7	-87.9	315	8
2023-09-29T06:00	29320	13	-52.5	-87.8	319	9
2023-09-29T06:00	29348	13	-52.5	-87.8	322	9
2023-09-29T06:00	29384	13	-52.4	-87.7	324	8
2023-09-29T06:00	29406	13	-52.3	-87.7	324	8
2023-09-29T06:00	29444	13	-52.3	-87.7	324	7
2023-09-29T06:00	29465	13	-52.4	-87.7	322	7
2023-09-29T06:00	29496	13	-52.4	-87.7	318	6
2023-09-29T06:00	29529	13	-52.4	-87.7	313	6
2023-09-29T06:00	29560	13	-52.5	-87.8	306	6
2023-09-29T06:00	29593	13	-52.6	-87.9	299	6
2023-09-29T06:00	29628	13	-52.7	-87.9	293	6
2023-09-29T06:00	29654	13	-52.8	-88.0	289	6
2023-09-29T06:00	29679	12	-52.8	-88.0	285	6
2023-09-29T06:00	29712	12	-52.9	-88.1	284	6
2023-09-29T06:00	29740	12	-52.9	-88.1	285	7
2023-09-29T06:00	29765	12	-52.8	-88.0	287	7
2023-09-29T06:00	29789	12	-52.7	-87.9	291	7
2023-09-29T06:00	29833	12	-52.5	-87.8	295	8
2023-09-29T06:00	29860	12	-52.2	-87.6	298	8
2023-09-29T06:00	29895	12	-52.0	-87.4	301	8
2023-09-29T06:00	29923	12	-52.0	-87.4	303	9
2023-09-29T06:00	29953	12	-52.0	-87.4	305	9
2023-09-29T06:00	29986	12	-52.0	-87.4	308	10
2023-09-29T06:00	30010	12	-52.0	-87.4	312	10
2023-09-29T06:00	30031	12	-51.9	-87.4	317	10
2023-09-29T06:00	30056	12	-51.7	-87.2	323	10
2023-09-29T06:00	30088	12	-51.5	-87.1	330	9
2023-09-29T06:00	30130	12	-51.4	-87.0	335	9
2023-09-29T06:00	30154	12	-51.5	-87.1	340	9
2023-09-29T06:00	30182	12	-51.7	-87.2	344	8
2023-09-29T06:00	30217	11	-51.7	-87.2	347	8
2023-09-29T06:00	30248	11	-51.8	-87.3	348	7
2023-09-29T06:00	30267	11	-51.8	-87.3	349	6
2023-09-29T06:00	30293	11	-51.7	-87.2	350	6
2023-09-29T06:00	30332	11	-51.3	-87.0	352	5
2023-09-29T06:00	30357	11	-51.0	-86.7	353	4
2023-09-29T06:00	30394	11	-50.9	-86.7	353	3
2023-09-29T06:00	30440	11	-50.9	-86.7	345	2
2023-09-29T06:00	30457	11	-50.8	-86.6	316	1
2023-09-29T06:00	30478	11	-50.7	-86.5	277	1
2023-09-29T06:00	30508	11	-50.6	-86.5	259	2
2023-09-29T06:00	30547	11	-50.6	-86.5	253	3
2023-09-29T06:00	30575	11	-50.7	-86.5	251	4
2023-09-29T06:00	30615	11	-50.7	-86.5	249	5
2023-09-29T06:00	30644	11	-50.7	-86.5	249	6
2023-09-29T06:00	30656	11	-50.6	-86.5	250	7
2023-09-29T06:00	30713	11	-50.6	-86.5	251	8
2023-09-29T06:00	30726	11	-50.7	-86.5	253	9
2023-09-29T06:00	30753	11	-50.7	-86.5	257	9
2023-09-29T06:00	30791	11	-50.6	-86.5	260	10
2023-09-29T06:00	30814	10	-50.5	-86.4	264	10
2023-09-29T06:00	30854	10	-50.4	-86.3	268	10
2023-09-29T06:00	30881	10	-50.3	-86.2	270	10
2023-09-29T06:00	30904	10	-50.2	-86.2	272	10
2023-09-29T06:00	30937	10	-50.1	-86.1	274	10
2023-09-29T06:00	30968	10	-50.1	-86.1	276	10
2023-09-29T06:00	31001	10	-50.2	-86.2	278	10
2023-09-29T06:00	31028	10	-50.3	-86.2	281	10
2023-09-29T06:00	31064	10	-50.5	-86.4	286	10
2023-09-29T06:00	31092	10	-50.7	-86.5	291	9
2023-09-29T06:00	31118	10	-50.8	-86.6	296	9
2023-09-29T06:00	31160	10	-50.8	-86.6	301	9
2023-09-29T06:00	31197	10	-50.9	-86.7	307	9
2023-09-29T06:00	31221	10	-51.0	-86.7	312	9
2023-09-29T06:00	31253	10	-51.1	-86.8	317	10
2023-09-29T06:00	31273	10	-51.3	-87.0	322	10
2023-09-29T06:00	31316	10	-51.5	-87.1	325	10
2023-09-29T06:00	31340	10	-51.7	-87.2	327	10
2023-09-29T06:00	31367	10	-51.8	-87.3	327	10
2023-09-29T06:00	31412	10	-51.9	-87.4	326	10
2023-09-29T06:00	31446	10	-52.0	-87.4	324	10
2023-09-29T06:00	31462	9	-52.0	-87.4	323	10
2023-09-29T06:00	31498	9	-51.9	-87.4	322	10
2023-09-29T06:00	31546	9	-51.9	-87.4	322	10
2023-09-29T06:00	31592	9	-52.0	-87.4	322	10
2023-09-29T06:00	31607	9	-52.0	-87.4	322	10
2023-09-29T06:00	31646	9	-52.0	-87.4	321	11
2023-09-29T06:00	31674	9	-52.0	-87.4	318	11
2023-09-29T06:00	31693	9	-52.0	-87.4	315	11
2023-09-29T06:00	31734	9	-52.0	-87.4	313	12
2023-09-29T06:00	31775	9	-51.8	-87.3	310	13
2023-09-29T06:00	31797	9	-51.7	-87.2	309	13
2023-09-29T06:00	31841	9	-51.6	-87.2	308	14
2023-09-29T06:00	31855	9	-51.4	-87.0	308	15
2023-09-29T06:00	31901	9	-51.0	-86.7	308	15
2023-09-29T06:00	31929	9	-50.9	-86.7	308	15
2023-09-29T06:00	31970	9	-50.8	-86.6	308	15
2023-09-29T06:00	31997	9	-50.8	-86.6	307	15
2023-09-29T06:00	32024	9	-50.8	-86.6	307	15
2023-09-29T06:00	32047	9	-50.9	-86.7	307	15
2023-09-29T06:00	32084	9	-50.8	-86.6	307	14
2023-09-29T06:00	32133	9	-50.8	-86.6	308	14
2023-09-29T06:00	32162	9	-50.8	-86.6	310	14
2023-09-29T06:00	32187	8	-50.7	-86.5	312	14
2023-09-29T06:00	32216	8	-50.4	-86.3	313	14
2023-09-29T12:00	112	1005	22.3	14.7	230	3
2023-09-29T12:00	138	1002	22.0	14.1	200	2
2023-09-29T12:00	162	999	21.8	13.6	199	2
2023-09-29T12:00	187	996	21.6	13.7	200	3
2023-09-29T12:00	215	993	21.3	13.6	204	4
2023-09-29T12:00	242	990	21.1	13.5	210	4
2023-09-29T12:00	269	987	20.8	13.5	216	5
2023-09-29T12:00	301	983	20.5	13.3	221	5
2023-09-29T12:00	320	981	20.5	12.9	224	6
2023-09-29T12:00	345	978	20.4	12.9	227	7
2023-09-29T12:00	374	975	20.6	12.3	229	7
2023-09-29T12:00	397	972	21.3	12.6	231	8
2023-09-29T12:00	422	969	21.2	13.1	235	8
2023-09-29T12:00	447	967	21.0	13.1	239	8
2023-09-29T12:00	468	964	20.9	12.8	243	8
2023-09-29T12:00	490	962	20.9	12.7	245	8
2023-09-29T12:00	522	958	20.7	12.4	246	8
2023-09-29T12:00	551	955	20.6	12.1	246	9
2023-09-29T12:00	573	952	20.4	12.0	244	9
2023-09-29T12:00	601	950	20.3	11.9	242	9
2023-09-29T12:00	627	947	20.1	12.6	241	9
2023-09-29T12:00	650	944	19.9	12.6	242	9
2023-09-29T12:00	669	942	19.7	12.5	243	9
2023-09-29T12:00	694	939	19.6	12.2	246	9
2023-09-29T12:00	722	936	19.4	12.5	247	9
2023-09-29T12:00	746	934	19.2	12.6	248	9
2023-09-29T12:00	771	931	18.9	12.5	248	9
2023-09-29T12:00	798	928	18.7	12.2	247	10
2023-09-29T12:00	822	925	18.5	12.6	246	10
2023-09-29T12:00	847	923	18.3	12.6	246	10
2023-09-29T12:00	876	920	18.0	12.5	247	10
2023-09-29T12:00	901	917	17.9	11.9	248	10
2023-09-29T12:00	930	914	17.8	11.0	249	10
2023-09-29T12:00	956	911	17.5	11.5	249	10
2023-09-29T12:00	982	908	17.3	10.8	248	10
2023-09-29T12:00	1012	905	17.3	9.0	247	10
2023-09-29T12:00	1039	902	17.2	7.3	246	11
2023-09-29T12:00	1063	900	17.2	7.7	246	10
2023-09-29T12:00	1084	898	17.0	9.2	246	10
2023-09-29T12:00	1103	896	17.0	7.6	247	10
2023-09-29T12:00	1121	894	17.1	6.5	248	9
2023-09-29T12:00	1140	892	17.0	6.1	249	9
2023-09-29T12:00	1159	890	16.9	6.0	250	10
2023-09-29T12:00	1186	887	16.8	5.4	252	10
2023-09-29T12:00	1216	884	16.5	6.0	253	11
2023-09-29T12:00	1241	881	16.4	5.5	254	11
2023-09-29T12:00	1274	878	16.2	4.4	256	12
2023-09-29T12:00	1297	875	16.1	2.7	259	11
2023-09-29T12:00	1321	873	16.1	2.8	261	11
2023-09-29T12:00	1340	871	15.9	3.6	262	11
2023-09-29T12:00	1366	868	15.7	3.8	262	12
2023-09-29T12:00	1389	866	15.6	3.7	260	12
2023-09-29T12:00	1414	864	15.4	3.9	258	11
2023-09-29T12:00	1440	861	15.2	3.9	255	11
2023-09-29T12:00	1466	858	15.0	3.9	253	10
2023-09-29T12:00	1493	856	14.9	3.0	251	10
2023-09-29T12:00	1514	853	14.8	1.9	251	9
2023-09-29T12:00	1537	851	14.6	1.8	250	9
2023-09-29T12:00	1560	849	14.4		249	9
2023-09-29T12:00	1582	846	14.2	3.6	248	9
2023-09-29T12:00	1607	844	13.9	4.7	248	9
2023-09-29T12:00	1629	842	13.7	4.9	248	10
2023-09-29T12:00	1648	840	13.4	6.2	250	10
2023-09-29T12:00	1668	838	13.2	6.5	251	10
2023-09-29T12:00	1687	836	13.0	6.9	251	10
2023-09-29T12:00	1708	834	12.8	7.2	251	10
2023-09-29T12:00	1735	831	12.5	6.8	248	10
2023-09-29T12:00	1762	829	12.3	6.6	246	10
2023-09-29T12:00	1786	826	12.2	6.4	245	10
2023-09-29T12:00	1806	824	12.0	6.9	246	10
2023-09-29T12:00	1829	822	11.8	7.1	247	10
2023-09-29T12:00	1856	819	11.6	6.9	247	10
2023-09-29T12:00	1884	816	11.3	6.8	247	10
2023-09-29T12:00	1912	814	11.1	6.8	247	10
2023-09-29T12:00	1937	811	10.9	6.2	246	9
2023-09-29T12:00	1964	809	10.7	5.8	246	9
2023-09-29T12:00	1986	807	10.5	6.5	247	9
2023-09-29T12:00	2003	805	10.4	6.5	249	9
2023-09-29T12:00	2036	802	10.1	6.2	251	9
2023-09-29T12:00	2063	799	9.9	6.3	252	10
2023-09-29T12:00	2088	797	9.7	6.1	251	10
2023-09-29T12:00	2108	795	9.5	5.9	248	10
2023-09-29T12:00	2132	793	9.3	5.1	245	10
2023-09-29T12:00	2155	790	9.2	5.3	241	10
2023-09-29T12:00	2182	788	8.9	5.7	237	10
2023-09-29T12:00	2205	786	8.7	6.1	235	10
2023-09-29T12:00	2223	784	8.5	6.3	234	9
2023-09-29T12:00	2250	781	8.3	6.1	235	9
2023-09-29T12:00	2280	779	8.1	5.8	236	9
2023-09-29T12:00	2309	776	8.0	5.0	238	10
2023-09-29T12:00	2333	774	7.9	4.5	239	10
2023-09-29T12:00	2354	772	7.7	4.2	240	10
2023-09-29T12:00	2374	770	7.6	4.0	242	9
2023-09-29T12:00	2393	768	7.5	3.7	244	9
2023-09-29T12:00	2408	766	7.4	3.3	247	9
2023-09-29T12:00	2430	765	7.3	2.6	249	10
2023-09-29T12:00	2448	763	7.2	2.6	250	10
2023-09-29T12:00	2468	761	7.0	2.3	250	11
2023-09-29T12:00	2501	758	6.8	2.1	248	11
2023-09-29T12:00	2529	756	6.6	3.3	245	11
2023-09-29T12:00	2547	754	6.4	3.4	242	11
2023-09-29T12:00	2568	752	6.2	3.2	238	11
2023-09-29T12:00	2591	750	6.0	3.1	235	11
2023-09-29T12:00	2612	748	5.9	2.3	234	12
2023-09-29T12:00	2635	746	5.7	2.0	234	12
2023-09-29T12:00	2657	744	5.6	1.6	236	12
2023-09-29T12:00	2685	741	5.4	2.3	238	12
2023-09-29T12:00	2715	739	5.3	1.7	240	12
2023-09-29T12:00	2737	737	5.1	0.8	241	11
2023-09-29T12:00	2758	735	5.0	1.3	240	11
2023-09-29T12:00	2776	733	4.9	1.6	239	11
2023-09-29T12:00	2802	731	4.8	1.1	237	11
2023-09-29T12:00	2828	728	4.9	0.6	235	11
2023-09-29T12:00	2859	726	4.7	0.3	234	12
2023-09-29T12:00	2880	724	4.5	-0.4	234	12
2023-09-29T12:00	2903	722	4.5	-3.5	233	11
2023-09-29T12:00	2926	720	4.4	-3.7	233	11
2023-09-29T12:00	2946	718	4.3	-5.2	232	11
2023-09-29T12:00	2972	716	4.1	-6.4	231	11
2023-09-29T12:00	3000	713	4.0	-6.8	230	11
2023-09-29T12:00	3023	711	3.9	-8.2	230	11
2023-09-29T12:00	3045	709	3.8	-7.1	229	10
2023-09-29T12:00	3067	707	3.6	-6.8	229	10
2023-09-29T12:00	3090	705	3.4	-7.1	229	10
2023-09-29T12:00	3109	704	3.3	-7.6	228	10
2023-09-29T12:00	3126	702	3.2	-6.3	228	10
2023-09-29T12:00	3149	700	3.1	-6.3	228	10
2023-09-29T12:00	3168	698	2.9	-7.0	228	9
2023-09-29T12:00	3192	697	2.8	-7.0	229	9
2023-09-29T12:00	3214	695	2.6	-5.4	230	9
2023-09-29T12:00	3234	693	2.5	-4.8	232	10
2023-09-29T12:00	3257	691	2.4	-4.0	234	10
2023-09-29T12:00	3276	689	2.1	-3.2	237	10
2023-09-29T12:00	3294	688	2.0	-2.9	239	10
2023-09-29T12:00	3311	686	1.8	-2.2	240	10
2023-09-29T12:00	3332	684	1.6	-1.5	239	10
2023-09-29T12:00	3362	682	1.3	-1.4	239	10
2023-09-29T12:00	3389	680	1.1	-1.5	238	10
2023-09-29T12:00	3419	677	0.9	-1.4	239	10
2023-09-29T12:00	3436	676	0.7	-0.9	241	10
2023-09-29T12:00	3454	674	0.5	-0.7	243	10
2023-09-29T12:00	3479	672	0.3	-0.6	244	10
2023-09-29T12:00	3507	670	0.3	-0.6	245	10
2023-09-29T12:00	3529	668	0.2	-0.7	245	10
2023-09-29T12:00	3548	666	0.1	-0.7	245	10
2023-09-29T12:00	3569	665	-0.1	-0.8	245	10
2023-09-29T12:00	3595	662	-0.3	-0.8	244	10
2023-09-29T12:00	3625	660	-0.4	-0.7	243	11
2023-09-29T12:00	3645	658	-0.4	-0.8	242	11
2023-09-29T12:00	3663	657	-0.6	-0.8	240	11
2023-09-29T12:00	3684	655	-0.7	-1.0	238	11
2023-09-29T12:00	3700	654	-0.9	-0.9	237	10
2023-09-29T12:00	3718	652	-1.0	-1.0	238	10
2023-09-29T12:00	3742	650	-1.2	-1.2	239	9
2023-09-29T12:00	3767	648	-1.3	-1.3	242	9
2023-09-29T12:00	3791	646	-1.5	-1.5	245	10
2023-09-29T12:00	3814	645	-1.6	-1.6	246	10
2023-09-29T12:00	3835	643	-1.7	-1.7	245	9
2023-09-29T12:00	3859	641	-1.9	-1.9	243	9
2023-09-29T12:00	3879	639	-2.0	-2.0	241	9
2023-09-29T12:00	3897	638	-2.1	-2.1	240	9
2023-09-29T12:00	3929	635	-2.3	-2.4	240	9
2023-09-29T12:00	3954	633	-2.3	-2.5	243	9
2023-09-29T12:00	3989	631	-2.3	-2.8	246	9
2023-09-29T12:00	4008	629	-2.3	-2.8	250	10
2023-09-29T12:00	4040	627	-2.5	-3.5	253	10
2023-09-29T12:00	4063	625	-2.6	-3.5	255	10
2023-09-29T12:00	4091	623	-2.6	-3.7	257	10
2023-09-29T12:00	4114	621	-2.7	-4.0	258	10
2023-09-29T12:00	4139	619	-2.8	-4.4	259	10
2023-09-29T12:00	4165	617	-2.9	-4.3	259	10
2023-09-29T12:00	4193	615	-3.0	-4.6	260	11
2023-09-29T12:00	4214	613	-3.2	-4.5	260	11
2023-09-29T12:00	4238	611	-3.4	-4.7	261	11
2023-09-29T12:00	4261	609	-3.2	-4.7	261	11
2023-09-29T12:00	4290	607	-3.3	-4.7	262	11
2023-09-29T12:00	4318	605	-3.3	-5.0	263	11
2023-09-29T12:00	4343	603	-3.4	-5.0	264	10
2023-09-29T12:00	4362	602	-3.4	-5.1	263	10
2023-09-29T12:00	4383	600	-3.4	-5.3	261	10
2023-09-29T12:00	4402	598	-3.4	-5.7	257	10
2023-09-29T12:00	4431	596	-3.3	-6.2	252	10
2023-09-29T12:00	4459	594	-3.4	-5.7	248	11
2023-09-29T12:00	4483	592	-3.3	-6.4	244	11
2023-09-29T12:00	4513	590	-3.4	-5.5	241	11
2023-09-29T12:00	4539	588	-3.5	-5.7	239	11
2023-09-29T12:00	4565	586	-3.7	-5.8	238	11
2023-09-29T12:00	4596	584	-3.9	-6.4	237	12
2023-09-29T12:00	4621	582	-3.9	-7.8	236	12
2023-09-29T12:00	4652	580	-4.0	-8.8	236	13
2023-09-29T12:00	4688	577	-4.3	-10.0	235	13
2023-09-29T12:00	4717	575	-4.5	-11.0	234	13
2023-09-29T12:00	4745	573	-4.6	-13.5	233	13
2023-09-29T12:00	4767	571	-4.6	-15.8	232	14
2023-09-29T12:00	4799	569	-4.6	-21.1	231	14
2023-09-29T12:00	4824	567	-4.8	-21.9	231	14
2023-09-29T12:00	4843	566	-4.9	-20.9	232	14
2023-09-29T12:00	4869	564	-5.0	-18.9	233	14
2023-09-29T12:00	4908	562	-5.4	-15.9	235	13
2023-09-29T12:00	4929	560	-5.6	-16.8	236	13
2023-09-29T12:00	4960	558	-5.8	-15.8	236	13
2023-09-29T12:00	4988	556	-6.0	-19.2	236	13
2023-09-29T12:00	5007	554	-6.2	-19.0	235	13
2023-09-29T12:00	5034	553	-6.5	-15.1	234	13
2023-09-29T12:00	5055	551	-6.7	-13.6	235	13
2023-09-29T12:00	5086	549	-7.1	-11.8	236	13
2023-09-29T12:00	5111	547	-7.3	-11.4	238	13
2023-09-29T12:00	5128	546	-7.5	-10.4	239	13
2023-09-29T12:00	5155	544	-7.8	-8.4	239	14
2023-09-29T12:00	5182	542	-8.1	-8.1	238	14
2023-09-29T12:00	5209	540	-8.3	-8.6	238	15
2023-09-29T12:00	5243	538	-8.6		238	15
2023-09-29T12:00	5269	536	-8.8	-9.5	238	15
2023-09-29T12:00	5288	535	-8.9	-9.9	238	15
2023-09-29T12:00	5310	533	-9.1	-10.3	239	14
2023-09-29T12:00	5332	532	-9.2	-11.8	239	14
2023-09-29T12:00	5356	530	-9.2	-12.3	240	14
2023-09-29T12:00	5380	528	-9.4	-12.3	240	14
2023-09-29T12:00	5406	527	-9.4	-12.1	240	14
2023-09-29T12:00	5427	525	-9.5	-11.5	239	14
2023-09-29T12:00	5461	523	-9.4	-14.4	237	15
2023-09-29T12:00	5486	521	-9.5	-16.4	235	15
2023-09-29T12:00	5510	519	-9.4	-20.7	233	15
2023-09-29T12:00	5538	518	-9.6	-21.9	231	15
2023-09-29T12:00	5562	516	-9.8	-22.0	230	15
2023-09-29T12:00	5584	515	-9.8	-21.4	230	15
2023-09-29T12:00	5609	513	-10.0	-21.6	231	15
2023-09-29T12:00	5632	511	-10.2	-21.1	234	15
2023-09-29T12:00	5658	510	-10.4	-18.6	236	15
2023-09-29T12:00	5686	508	-10.7	-16.9	238	15
2023-09-29T12:00	5710	506	-10.9	-16.7	239	14
2023-09-29T12:00	5736	505	-11.1	-15.3	240	14
2023-09-29T12:00	5766	503	-11.1	-11.7	241	14
2023-09-29T12:00	5790	501	-11.2	-11.7	240	14
2023-09-29T12:00	5822	499	-11.3	-11.8	240	14
2023-09-29T12:00	5845	497	-11.4	-12.0	239	14
2023-09-29T12:00	5872	496	-11.6	-12.4	239	14
2023-09-29T12:00	5897	494	-11.8	-12.4	240	14
2023-09-29T12:00	5926	492	-12.0	-12.6	241	14
2023-09-29T12:00	5952	490	-12.2	-12.9	242	14
2023-09-29T12:00	5978	489	-12.4	-13.1	243	15
2023-09-29T12:00	6002	487	-12.6	-13.6	243	15
2023-09-29T12:00	6025	486	-12.6	-14.4	243	15
2023-09-29T12:00	6052	484	-12.7	-14.5	242	16
2023-09-29T12:00	6077	483	-12.8	-14.8	242	16
2023-09-29T12:00	6108	481	-13.0	-15.0	241	16
2023-09-29T12:00	6132	479	-13.2	-15.4	241	16
2023-09-29T12:00	6158	477	-13.4	-15.6	241	16
2023-09-29T12:00	6185	476	-13.5	-15.6	240	16
2023-09-29T12:00	6209	474	-13.7	-15.6	240	16
2023-09-29T12:00	6235	473	-13.9	-15.7	238	16
2023-09-29T12:00	6260	471	-14.0	-15.6	237	17
2023-09-29T12:00	6286	470	-14.2	-15.8	236	17
2023-09-29T12:00	6310	468	-14.3	-16.1	235	17
2023-09-29T12:00	6334	467	-14.4	-16.4	234	18
2023-09-29T12:00	6358	465	-14.6	-16.5	233	18
2023-09-29T12:00	6382	464	-14.7	-16.5	233	18
2023-09-29T12:00	6409	462	-14.9	-16.4	232	18
2023-09-29T12:00	6434	460	-15.0	-16.5	232	18
2023-09-29T12:00	6458	459	-15.1	-16.6	233	18
2023-09-29T12:00	6479	458	-15.2	-16.7	233	18
2023-09-29T12:00	6505	456	-15.3	-16.7	235	17
2023-09-29T12:00	6533	454	-15.5	-16.7	235	17
2023-09-29T12:00	6561	453	-15.7	-16.8	235	16
2023-09-29T12:00	6585	451	-15.8	-16.9	234	15
2023-09-29T12:00	6609	450	-16.0	-17.2	233	15
2023-09-29T12:00	6634	448	-16.2	-17.2	231	15
2023-09-29T12:00	6660	447	-16.4	-17.3	230	15
2023-09-29T12:00	6689	445	-16.6	-17.8	230	15
2023-09-29T12:00	6719	443	-16.8	-18.0	229	15
2023-09-29T12:00	6742	442	-16.9	-18.0	229	15
2023-09-29T12:00	6770	440	-17.1	-18.2	228	16
2023-09-29T12:00	6794	439	-17.3	-18.6	227	16
2023-09-29T12:00	6821	437	-17.5	-18.7	226	16
2023-09-29T12:00	6845	436	-17.6	-19.0	226	16
2023-09-29T12:00	6872	434	-17.8	-19.3	225	16
2023-09-29T12:00	6896	433	-18.0	-19.8	225	16
2023-09-29T12:00	6924	431	-18.2	-20.0	224	16
2023-09-29T12:00	6950	430	-18.4	-20.5	225	16
2023-09-29T12:00	6983	428	-18.7	-20.9	226	17
2023-09-29T12:00	7009	427	-18.8	-21.1	228	17
2023-09-29T12:00	7034	425	-19.0	-21.2	230	17
2023-09-29T12:00	7063	423	-19.1	-21.6	231	18
2023-09-29T12:00	7084	422	-19.3		232	18
2023-09-29T12:00	7124	420	-19.5	-22.1	231	18
2023-09-29T12:00	7149	419	-19.7	-22.2	231	18
2023-09-29T12:00	7172	417	-19.9	-22.4	232	18
2023-09-29T12:00	7199	416	-20.1	-22.8	233	18
2023-09-29T12:00	7232	414	-20.3	-23.5	235	18
2023-09-29T12:00	7263	412	-20.6	-23.3	236	18
2023-09-29T12:00	7282	411	-20.8	-24.2	235	18
2023-09-29T12:00	7307	410	-21.0	-24.4	234	19
2023-09-29T12:00	7329	409	-21.2	-24.5	232	20
2023-09-29T12:00	7349	407	-21.3	-24.6	230	20
2023-09-29T12:00	7375	406	-21.5	-24.7	228	20
2023-09-29T12:00	7403	404	-21.7	-25.0	227	20
2023-09-29T12:00	7434	403	-21.9	-25.5	227	20
2023-09-29T12:00	7457	401	-22.1		228	20
2023-09-29T12:00	7479	400	-22.3	-25.5	229	20
2023-09-29T12:00	7509	399	-22.5	-25.6	230	19
2023-09-29T12:00	7538	397	-22.7	-25.8	230	19
2023-09-29T12:00	7569	395	-22.9	-26.0	230	18
2023-09-29T12:00	7594	394	-23.2	-26.1	229	18
2023-09-29T12:00	7619	393	-23.4	-26.2	228	18
2023-09-29T12:00	7641	391	-23.5	-26.4	227	18
2023-09-29T12:00	7668	390	-23.5	-26.6	227	19
2023-09-29T12:00	7686	389	-23.7	-26.6	228	19
2023-09-29T12:00	7709	388	-23.8	-26.9	229	19
2023-09-29T12:00	7737	386	-23.9	-27.1	229	19
2023-09-29T12:00	7767	385	-24.2	-27.4	230	19
2023-09-29T12:00	7798	383	-24.4	-27.6	230	19
2023-09-29T12:00	7815	382	-24.5	-27.5	230	19
2023-09-29T12:00	7842	381	-24.8	-27.8	231	20
2023-09-29T12:00	7871	379	-24.9	-28.1	232	20
2023-09-29T12:00	7897	378	-25.1	-28.2	234	20
2023-09-29T12:00	7930	376	-25.3	-28.1	236	20
2023-09-29T12:00	7955	375	-25.5	-28.3	237	20
2023-09-29T12:00	7976	374	-25.7	-28.4	238	20
2023-09-29T12:00	8000	373	-25.7	-28.4	239	20
2023-09-29T12:00	8025	371	-25.8	-28.6	240	19
2023-09-29T12:00	8054	370	-26.0	-28.6	241	19
2023-09-29T12:00	8077	369	-26.1	-29.0	242	19
2023-09-29T12:00	8098	368	-26.2	-29.0	242	19
2023-09-29T12:00	8127	366	-26.5	-29.1	243	18
2023-09-29T12:00	8153	365	-26.7	-29.4	243	19
2023-09-29T12:00	8176	364	-26.8	-29.3	243	19
2023-09-29T12:00	8210	362	-27.0	-29.5	243	19
2023-09-29T12:00	8244	360	-27.3	-30.2	243	20
2023-09-29T12:00	8266	359	-27.4	-30.3	242	20
2023-09-29T12:00	8288	358	-27.5	-30.6	242	20
2023-09-29T12:00	8317	357	-27.7	-30.9	242	20
2023-09-29T12:00	8349	355	-27.7	-30.9	242	20
2023-09-29T12:00	8381	354	-28.0	-30.9	242	20
2023-09-29T12:00	8414	352	-28.3	-31.1	242	20
2023-09-29T12:00	8435	351	-28.5	-31.0	242	21
2023-09-29T12:00	8454	350	-28.7	-31.0	242	21
2023-09-29T12:00	8478	349	-28.9	-30.9	243	21
2023-09-29T12:00	8501	348	-29.1	-31.1	243	22
2023-09-29T12:00	8530	346	-29.3	-31.2	243	22
2023-09-29T12:00	8553	345	-29.5	-31.5	243	22
2023-09-29T12:00	8578	344	-29.8	-31.7	243	22
2023-09-29T12:00	8601	343	-29.9	-32.1	243	22
2023-09-29T12:00	8628	341	-30.1	-32.4	243	22
2023-09-29T12:00	8662	340	-30.3	-32.8	243	21
2023-09-29T12:00	8692	338	-30.6	-33.1	243	21
2023-09-29T12:00	8722	337	-30.8	-33.3	244	20
2023-09-29T12:00	8745	336	-31.0	-33.5	244	20
2023-09-29T12:00	8781	334	-31.4	-33.9	245	20
2023-09-29T12:00	8810	333	-31.5	-34.4	245	20
2023-09-29T12:00	8828	332	-31.7	-34.2	245	20
2023-09-29T12:00	8851	331	-31.9	-34.4	244	20
2023-09-29T12:00	8870	330	-32.0	-34.6	243	20
2023-09-29T12:00	8893	329	-32.2	-34.8	241	20
2023-09-29T12:00	8915	328	-32.4	-35.1	240	20
2023-09-29T12:00	8937	327	-32.5	-35.4	239	20
2023-09-29T12:00	8960	326	-32.7	-35.4	238	21
2023-09-29T12:00	8982	325	-32.9	-35.7	237	21
2023-09-29T12:00	9008	324	-33.1	-36.0	236	20
2023-09-29T12:00	9040	322	-33.3	-36.4	235	20
2023-09-29T12:00	9069	321	-33.5	-36.8	235	20
2023-09-29T12:00	9097	320	-33.8	-37.3	235	20
2023-09-29T12:00	9126	318	-34.1	-37.6	236	20
2023-09-29T12:00	9163	317	-34.4	-37.9	236	20
2023-09-29T12:00	9188	315	-34.6	-38.2	236	21
2023-09-29T12:00	9209	315	-34.8	-38.2	236	20
2023-09-29T12:00	9230	314	-35.0	-38.3	236	21
2023-09-29T12:00	9252	313	-35.1	-38.4	236	21
2023-09-29T12:00	9274	311	-35.3	-38.7	235	21
2023-09-29T12:00	9302	310	-35.6	-39.0	235	21
2023-09-29T12:00	9328	309	-35.8	-39.0	235	21
2023-09-29T12:00	9354	308	-36.0	-39.2	235	21
2023-09-29T12:00	9385	307	-36.3	-39.5	235	21
2023-09-29T12:00	9419	305	-36.6	-39.9	235	21
2023-09-29T12:00	9453	304	-36.9	-40.3	235	21
2023-09-29T12:00	9478	303	-37.1	-40.5	234	22
2023-09-29T12:00	9505	301	-37.3	-40.5	233	22
2023-09-29T12:00	9537	300	-37.7	-40.5	232	22
2023-09-29T12:00	9576	298	-38.0	-41.0	232	22
2023-09-29T12:00	9598	297	-38.2	-41.3	232	22
2023-09-29T12:00	9622	296	-38.4	-41.4	233	22
2023-09-29T12:00	9647	295	-38.6	-41.4	235	23
2023-09-29T12:00	9674	294	-38.9	-41.7	236	23
2023-09-29T12:00	9706	293	-39.2	-42.2	237	23
2023-09-29T12:00	9744	291	-39.5	-42.5	238	23
2023-09-29T12:00	9779	290	-39.9	-42.9	238	24
2023-09-29T12:00	9801	289	-40.1	-42.9	238	24
2023-09-29T12:00	9825	288	-40.3	-42.9	238	24
2023-09-29T12:00	9859	286	-40.6	-43.0	238	24
2023-09-29T12:00	9884	285	-40.8	-43.4	238	24
2023-09-29T12:00	9904	284	-40.9	-43.6	238	24
2023-09-29T12:00	9926	283	-41.1	-43.2	238	24
2023-09-29T12:00	9958	282	-41.4	-43.3	238	24
2023-09-29T12:00	9978	281	-41.6	-43.6	238	24
2023-09-29T12:00	10004	280	-41.8	-43.7	238	24
2023-09-29T12:00	10033	279	-42.1	-44.0	238	24
2023-09-29T12:00	10059	278	-42.3	-44.6	238	24
2023-09-29T12:00	10085	277	-42.6	-45.1	239	24
2023-09-29T12:00	10114	276	-42.8	-45.4	239	24
2023-09-29T12:00	10140	275	-43.1	-46.0	240	24
2023-09-29T12:00	10168	273	-43.3	-46.3	241	24
2023-09-29T12:00	10197	272	-43.6	-46.1	241	24
2023-09-29T12:00	10226	271	-43.8	-45.7	242	23
2023-09-29T12:00	10251	270	-44.0	-45.8	242	23
2023-09-29T12:00	10274	269	-44.2	-46.0	242	23
2023-09-29T12:00	10299	268	-44.5	-46.1	242	23
2023-09-29T12:00	10321	267	-44.7	-46.2	241	23
2023-09-29T12:00	10342	266	-44.9	-46.3	242	23
2023-09-29T12:00	10362	266	-45.1	-46.5	242	23
2023-09-29T12:00	10381	265	-45.2	-47.0	243	22
2023-09-29T12:00	10403	264	-45.4	-47.5	244	22
2023-09-29T12:00	10424	263	-45.6	-48.6	245	22
2023-09-29T12:00	10444	262	-45.7	-50.4	245	21
2023-09-29T12:00	10468	261	-45.8	-50.4	246	21
2023-09-29T12:00	10491	261	-45.8	-49.2	246	21
2023-09-29T12:00	10513	260	-45.9	-47.9	245	21
2023-09-29T12:00	10533	259	-45.9	-47.6	246	21
2023-09-29T12:00	10553	258	-46.0	-48.1	246	21
2023-09-29T12:00	10575	257	-46.1	-48.7	246	21
2023-09-29T12:00	10595	257	-46.3	-48.9	246	21
2023-09-29T12:00	10615	256	-46.4	-49.1	246	22
2023-09-29T12:00	10637	255	-46.6	-49.4	246	22
2023-09-29T12:00	10659	254	-46.8	-49.5	246	22
2023-09-29T12:00	10679	253	-47.0	-49.7	246	22
2023-09-29T12:00	10699	252	-47.1	-50.1	245	22
2023-09-29T12:00	10721	252	-47.2	-50.8	245	22
2023-09-29T12:00	10741	251	-47.4	-51.2	245	22
2023-09-29T12:00	10761	250	-47.6	-51.3	245	22
2023-09-29T12:00	10782	249	-47.7	-51.4	246	22
2023-09-29T12:00	10803	249	-47.9	-51.7	246	22
2023-09-29T12:00	10826	248	-48.2	-51.8	246	22
2023-09-29T12:00	10849	247	-48.4	-52.2	247	22
2023-09-29T12:00	10875	246	-48.6	-53.4	248	22
2023-09-29T12:00	10897	245	-48.7	-54.5	248	22
2023-09-29T12:00	10920	244	-48.9	-55.3	248	22
2023-09-29T12:00	10943	243	-49.1	-55.9	248	22
2023-09-29T12:00	10967	242	-49.3	-56.4	248	22
2023-09-29T12:00	10991	242	-49.5	-56.2	247	22
2023-09-29T12:00	11013	241	-49.7	-55.7	246	22
2023-09-29T12:00	11039	240	-49.9	-55.4	246	21
2023-09-29T12:00	11061	239	-50.1	-55.5	246	21
2023-09-29T12:00	11085	238	-50.3	-55.8	246	21
2023-09-29T12:00	11110	237	-50.5	-55.6	246	21
2023-09-29T12:00	11134	236	-50.8	-55.5	246	21
2023-09-29T12:00	11155	236	-51.0	-55.2	246	21
2023-09-29T12:00	11179	235	-51.2		245	21
2023-09-29T12:00	11202	234	-51.4	-54.2	244	21
2023-09-29T12:00	11224	233	-51.5	-54.0	244	21
2023-09-29T12:00	11246	232	-51.7	-54.2	243	21
2023-09-29T12:00	11269	231	-51.9	-54.6	243	20
2023-09-29T12:00	11294	231	-52.1	-55.0	242	20
2023-09-29T12:00	11319	230	-52.3	-55.4	241	20
2023-09-29T12:00	11341	229	-52.4	-56.0	241	20
2023-09-29T12:00	11365	228	-52.5	-56.6	240	20
2023-09-29T12:00	11387	227	-52.6	-56.8	239	21
2023-09-29T12:00	11412	226	-52.7	-56.7	239	21
2023-09-29T12:00	11437	226	-53.0	-56.8	239	21
2023-09-29T12:00	11461	225	-53.1	-56.8	239	21
2023-09-29T12:00	11486	224	-53.4	-57.2	239	21
2023-09-29T12:00	11512	223	-53.6	-57.5	239	21
2023-09-29T12:00	11534	222	-53.8	-57.8	238	21
2023-09-29T12:00	11557	221	-54.0	-58.0	238	21
2023-09-29T12:00	11581	221	-54.2	-58.1	238	21
2023-09-29T12:00	11605	220	-54.5	-58.3	237	21
2023-09-29T12:00	11627	219	-54.6	-58.5	237	21
2023-09-29T12:00	11652	218	-54.9	-58.9	236	21
2023-09-29T12:00	11675	217	-55.0	-59.0	235	21
2023-09-29T12:00	11701	216	-55.3	-59.1	235	21
2023-09-29T12:00	11725	216	-55.5	-59.2	235	20
2023-09-29T12:00	11746	215	-55.7	-59.7	235	20
2023-09-29T12:00	11768	214	-55.8	-60.1	235	20
2023-09-29T12:00	11791	213	-56.0	-60.4	235	20
2023-09-29T12:00	11813	213	-56.2	-60.7	235	19
2023-09-29T12:00	11834	212	-56.4	-61.0	235	19
2023-09-29T12:00	11856	211	-56.6	-61.3	235	19
2023-09-29T12:00	11875	211	-56.8	-61.4	235	19
2023-09-29T12:00	11898	210	-57.0	-61.4	234	19
2023-09-29T12:00	11921	209	-57.2	-61.4	233	19
2023-09-29T12:00	11942	208	-57.4	-61.4	232	20
2023-09-29T12:00	11969	207	-57.7	-61.5	231	20
2023-09-29T12:00	11997	207	-57.9	-61.6	231	20
2023-09-29T12:00	12022	206	-58.1	-61.9	230	20
2023-09-29T12:00	12046	205	-58.3	-62.3	230	20
2023-09-29T12:00	12072	204	-58.5	-62.6	230	19
2023-09-29T12:00	12098	203	-58.9	-62.9	230	19
2023-09-29T12:00	12123	202	-59.1	-62.8	230	19
2023-09-29T12:00	12150	202	-59.3	-62.9	230	19
2023-09-29T12:00	12176	201	-59.5	-63.1	229	19
2023-09-29T12:00	12197	200	-59.7	-63.5	229	19
2023-09-29T12:00	12222	199	-59.9	-64.0	228	19
2023-09-29T12:00	12245	199	-60.1	-64.5	228	19
2023-09-29T12:00	12268	198	-60.3	-64.8	229	19
2023-09-29T12:00	12291	197	-60.5	-65.0	230	20
2023-09-29T12:00	12313	196	-60.7	-65.1	231	20
2023-09-29T12:00	12345	195	-61.0	-65.2	233	20
2023-09-29T12:00	12372	195	-61.1	-65.0	235	20
2023-09-29T12:00	12392	194	-61.2	-64.8	237	20
2023-09-29T12:00	12416	193	-61.4	-64.7	239	20
2023-09-29T12:00	12452	192	-61.6	-64.7	240	20
2023-09-29T12:00	12473	191	-61.6	-64.4	241	19
2023-09-29T12:00	12493	191	-61.7	-64.4	241	19
2023-09-29T12:00	12514	190	-61.7	-64.8	241	20
2023-09-29T12:00	12533	190	-61.4	-65.2	240	20
2023-09-29T12:00	12555	189	-61.0	-65.5	240	20
2023-09-29T12:00	12576	188	-60.6	-65.8	240	21
2023-09-29T12:00	12598	188	-60.5	-65.9	241	21
2023-09-29T12:00	12621	187	-60.6	-66.0	241	22
2023-09-29T12:00	12643	186	-60.7	-66.0	241	22
2023-09-29T12:00	12662	186	-60.8	-66.0	240	22
2023-09-29T12:00	12685	185	-61.0	-66.0	240	22
2023-09-29T12:00	12706	184	-61.2	-66.0	239	22
2023-09-29T12:00	12728	184	-61.4	-66.0	238	22
2023-09-29T12:00	12748	183	-61.6	-66.0	237	22
2023-09-29T12:00	12771	182	-61.8	-66.1	236	22
2023-09-29T12:00	12793	182	-62.0	-66.2	235	22
2023-09-29T12:00	12812	181	-62.1	-66.3	234	22
2023-09-29T12:00	12833	181	-62.3	-66.5	233	22
2023-09-29T12:00	12853	180	-62.2	-66.4	233	22
2023-09-29T12:00	12873	179	-62.3	-66.6	233	23
2023-09-29T12:00	12894	179	-62.4	-66.8	234	23
2023-09-29T12:00	12914	178	-62.6	-66.9	234	23
2023-09-29T12:00	12933	178	-62.7	-67.0	234	23
2023-09-29T12:00	12956	177	-62.9	-67.1	235	24
2023-09-29T12:00	12977	176	-63.0	-67.2	236	24
2023-09-29T12:00	12998	176	-63.2	-67.4	236	24
2023-09-29T12:00	13017	175	-63.4	-67.6	237	25
2023-09-29T12:00	13039	175	-63.5	-67.7	239	25
2023-09-29T12:00	13060	174	-63.6	-67.9	240	26
2023-09-29T12:00	13080	173	-63.6	-68.0	242	26
2023-09-29T12:00	13102	173	-63.6	-68.3	244	27
2023-09-29T12:00	13125	172	-63.6	-68.7	246	27
2023-09-29T12:00	13146	172	-63.7	-69.4	248	27
2023-09-29T12:00	13166	171	-63.3	-69.9	250	27
2023-09-29T12:00	13186	171	-62.8	-70.5	252	27
2023-09-29T12:00	13206	170	-62.5	-71.2	254	27
2023-09-29T12:00	13226	169	-62.4	-71.9	256	26
2023-09-29T12:00	13247	169	-62.4	-72.5	258	26
2023-09-29T12:00	13266	168	-62.5	-72.9	259	25
2023-09-29T12:00	13286	168	-62.4	-73.2	261	25
2023-09-29T12:00	13307	167	-62.4	-73.7	262	25
2023-09-29T12:00	13327	167	-62.3	-74.4	263	24
2023-09-29T12:00	13350	166	-62.1	-75.1	265	24
2023-09-29T12:00	13370	166	-61.8	-75.5	266	24
2023-09-29T12:00	13391	165	-61.6	-75.9	267	24
2023-09-29T12:00	13413	164	-61.5	-76.1	268	24
2023-09-29T12:00	13433	164	-61.5	-76.3	268	25
2023-09-29T12:00	13456	163	-61.6	-76.3	269	25
2023-09-29T12:00	13478	163	-61.7	-76.3	270	25
2023-09-29T12:00	13500	162	-61.8	-76.3	271	25
2023-09-29T12:00	13523	161	-61.8	-76.3	272	25
2023-09-29T12:00	13545	161	-61.8	-76.4	273	25
2023-09-29T12:00	13569	160	-61.8	-76.8	273	24
2023-09-29T12:00	13593	160	-61.6	-77.2	274	23
2023-09-29T12:00	13617	159	-60.8	-77.1	274	22
2023-09-29T12:00	13641	158	-60.6	-77.5	273	22
2023-09-29T12:00	13665	158	-60.7	-77.9	272	21
2023-09-29T12:00	13689	157	-60.7	-78.2	270	20
2023-09-29T12:00	13716	157	-60.7	-78.3	269	19
2023-09-29T12:00	13740	156	-60.8	-78.4	267	19
2023-09-29T12:00	13764	155	-60.9	-78.5	266	19
2023-09-29T12:00	13788	155	-61.1	-78.6	265	19
2023-09-29T12:00	13812	154	-61.3	-78.7	264	19
2023-09-29T12:00	13835	154	-61.5	-78.7	263	19
2023-09-29T12:00	13858	153	-61.7	-78.7	263	19
2023-09-29T12:00	13879	152	-61.9	-78.9	264	19
2023-09-29T12:00	13902	152	-62.0	-79.1	265	19
2023-09-29T12:00	13924	151	-61.7	-79.1	266	19
2023-09-29T12:00	13946	151	-61.5	-79.3	267	19
2023-09-29T12:00	13964	150	-61.4	-79.6	268	19
2023-09-29T12:00	13985	150	-61.2	-79.7	269	19
2023-09-29T12:00	14006	149	-61.1	-79.9	269	19
2023-09-29T12:00	14025	149	-61.1	-80.1	270	19
2023-09-29T12:00	14047	148	-61.0	-80.1	271	19
2023-09-29T12:00	14068	148	-60.9	-80.1	271	19
2023-09-29T12:00	14088	147	-61.1	-80.4	271	19
2023-09-29T12:00	14111	147	-61.2	-80.7	270	19
2023-09-29T12:00	14133	146	-61.2	-80.8	269	19
2023-09-29T12:00	14153	146	-60.9	-80.8	268	18
2023-09-29T12:00	14176	145	-60.8	-81.0	267	18
2023-09-29T12:00	14196	145	-60.9	-81.2	266	18
2023-09-29T12:00	14216	144	-61.0	-81.3	265	18
2023-09-29T12:00	14236	144	-61.1	-81.5	264	18
2023-09-29T12:00	14257	143	-61.0	-81.4	263	17
2023-09-29T12:00	14282	143	-61.0	-81.5	262	17
2023-09-29T12:00	14306	142	-61.0	-81.7	260	16
2023-09-29T12:00	14327	142	-61.0	-81.7	257	16
2023-09-29T12:00	14346	141	-61.0	-81.7	254	16
2023-09-29T12:00	14368	141	-61.1	-81.8	252	16
2023-09-29T12:00	14391	140	-61.1	-81.8	249	16
2023-09-29T12:00	14412	140	-61.3	-81.8	246	16
2023-09-29T12:00	14435	139	-61.5	-81.9	244	17
2023-09-29T12:00	14454	139	-61.6	-81.9	242	17
2023-09-29T12:00	14476	138	-61.6	-81.9	242	17
2023-09-29T12:00	14497	138	-61.6	-82.0	242	17
2023-09-29T12:00	14519	138	-61.5	-82.1	244	17
2023-09-29T12:00	14542	137	-61.3	-82.2	246	18
2023-09-29T12:00	14564	137	-61.2	-82.3	248	18
2023-09-29T12:00	14589	136	-60.9	-82.3	251	19
2023-09-29T12:00	14613	135	-60.9	-82.3	253	19
2023-09-29T12:00	14642	135	-61.0	-82.5	255	19
2023-09-29T12:00	14665	134	-61.1	-82.6	257	20
2023-09-29T12:00	14687	134	-61.3	-82.6	259	20
2023-09-29T12:00	14712	133	-61.3	-82.6	261	20
2023-09-29T12:00	14736	133	-61.4	-82.7	262	20
2023-09-29T12:00	14759	132	-61.5	-82.8	263	21
2023-09-29T12:00	14781	132	-61.6	-83.0	264	21
2023-09-29T12:00	14804	131	-61.6	-83.0	265	21
2023-09-29T12:00	14828	131	-61.6	-83.0	265	20
2023-09-29T12:00	14848	130	-61.6	-83.2	266	20
2023-09-29T12:00	14873	130	-61.6	-83.2	266	20
2023-09-29T12:00	14896	129	-61.7	-83.3	266	19
2023-09-29T12:00	14916	129	-61.8	-83.4	267	19
2023-09-29T12:00	14939	129	-61.8	-83.5	268	19
2023-09-29T12:00	14963	128	-61.8	-83.5	269	19
2023-09-29T12:00	14984	128	-61.9	-83.6	270	19
2023-09-29T12:00	15007	127	-61.9	-83.6	272	19
2023-09-29T12:00	15030	127	-62.0	-83.7	273	19
2023-09-29T12:00	15054	126	-62.2	-83.8	273	19
2023-09-29T12:00	15076	126	-62.3	-83.9	274	18
2023-09-29T12:00	15101	125	-62.3	-83.9	275	18
2023-09-29T12:00	15125	125	-62.2	-83.8	275	18
2023-09-29T12:00	15148	124	-62.1	-83.9	276	17
2023-09-29T12:00	15170	124	-62.1	-84.1	276	17
2023-09-29T12:00	15192	123	-62.2	-84.2	276	17
2023-09-29T12:00	15214	123	-62.0	-84.2	276	16
2023-09-29T12:00	15238	122	-61.8	-84.2	275	16
2023-09-29T12:00	15260	122	-61.9	-84.5	275	15
2023-09-29T12:00	15282	122	-61.7	-84.3	275	15
2023-09-29T12:00	15304	121	-61.3	-84.2	274	14
2023-09-29T12:00	15324	121	-61.4	-84.3	275	14
2023-09-29T12:00	15345	120	-61.4	-84.5	275	13
2023-09-29T12:00	15367	120	-61.4	-84.5	275	13
2023-09-29T12:00	15391	119	-61.4	-84.3	274	13
2023-09-29T12:00	15412	119	-61.4	-84.3	274	13
2023-09-29T12:00	15434	119	-61.5	-84.3	273	13
2023-09-29T12:00	15456	118	-61.7	-84.3	273	13
2023-09-29T12:00	15477	118	-61.7	-84.3	271	12
2023-09-29T12:00	15499	117	-61.7	-84.3	270	12
2023-09-29T12:00	15524	117	-61.9	-84.5	268	12
2023-09-29T12:00	15546	117	-62.0	-84.4	267	11
2023-09-29T12:00	15572	116	-62.1	-84.4	265	11
2023-09-29T12:00	15596	116	-62.4	-84.5	264	11
2023-09-29T12:00	15616	115	-62.4	-84.5	264	11
2023-09-29T12:00	15637	115	-62.6	-84.5	263	11
2023-09-29T12:00	15657	114	-62.8	-84.5	263	11
2023-09-29T12:00	15677	114	-62.9	-84.6	263	12
2023-09-29T12:00	15697	114	-63.0	-84.5	263	12
2023-09-29T12:00	15715	113	-63.2	-84.6	263	12
2023-09-29T12:00	15737	113	-63.3	-84.7	262	12
2023-09-29T12:00	15754	113	-63.4	-84.6	261	13
2023-09-29T12:00	15773	112	-63.4	-84.6	259	13
2023-09-29T12:00	15794	112	-63.5	-84.7	258	14
2023-09-29T12:00	15815	112	-63.5	-84.7	258	14
2023-09-29T12:00	15834	111	-63.6	-84.8	258	15
2023-09-29T12:00	15853	111	-63.7	-84.9	259	15
2023-09-29T12:00	15871	111	-63.6	-85.0	261	15
2023-09-29T12:00	15891	110	-63.5	-85.0	263	15
2023-09-29T12:00	15910	110	-63.4	-85.1	265	15
2023-09-29T12:00	15928	110	-63.2	-85.1	267	15
2023-09-29T12:00	15946	109	-62.8	-85.0	270	15
2023-09-29T12:00	15967	109	-62.5	-85.1	272	15
2023-09-29T12:00	15991	108	-62.4	-85.2	274	15
2023-09-29T12:00	16010	108	-62.4	-85.5	275	15
2023-09-29T12:00	16040	108	-62.4	-85.7	275	14
2023-09-29T12:00	16064	107	-62.1	-85.6	273	14
2023-09-29T12:00	16087	107	-61.4	-85.3	271	13
2023-09-29T12:00	16111	106	-61.2	-85.2	269	13
2023-09-29T12:00	16131	106	-61.3	-85.5	266	12
2023-09-29T12:00	16152	106	-61.4	-85.5	264	12
2023-09-29T12:00	16175	105	-61.6	-85.9	261	11
2023-09-29T12:00	16201	105	-61.3	-85.7	256	10
2023-09-29T12:00	16228	104	-60.8	-85.6	251	9
2023-09-29T12:00	16251	104	-60.6	-85.4	246	9
2023-09-29T12:00	16280	103	-60.7	-85.5	241	9
2023-09-29T12:00	16306	103	-60.8	-85.6	237	9
2023-09-29T12:00	16329	103	-61.0	-85.7	233	10
2023-09-29T12:00	16353	102	-61.1	-85.6	230	10
2023-09-29T12:00	16377	102	-61.3	-85.7	228	11
2023-09-29T12:00	16398	101	-61.6	-85.9	227	11
2023-09-29T12:00	16420	101	-61.7	-86.0	227	12
2023-09-29T12:00	16443	101	-61.8	-86.1	229	12
2023-09-29T12:00	16465	100	-61.8	-86.1	231	12
2023-09-29T12:00	16486	100	-61.8	-86.4	234	12
2023-09-29T12:00	16511	100	-61.7	-86.3	238	12
2023-09-29T12:00	16532	99	-61.4	-86.3	242	12
2023-09-29T12:00	16554	99	-61.1	-86.4	245	12
2023-09-29T12:00	16577	99	-60.9	-86.2	249	12
2023-09-29T12:00	16598	98	-60.9	-86.5	251	12
2023-09-29T12:00	16619	98	-61.0	-86.6	254	12
2023-09-29T12:00	16641	98	-61.0	-86.6	256	12
2023-09-29T12:00	16665	97	-60.9	-86.5	257	11
2023-09-29T12:00	16686	97	-61.1	-86.6	259	11
2023-09-29T12:00	16708	97	-61.2	-86.7	261	11
2023-09-29T12:00	16727	96	-61.2	-86.7	263	11
2023-09-29T12:00	16751	96	-61.2	-86.7	265	11
2023-09-29T12:00	16771	96	-61.1	-86.6	268	11
2023-09-29T12:00	16794	95	-61.2	-86.7	272	11
2023-09-29T12:00	16814	95	-61.3	-86.8	274	12
2023-09-29T12:00	16835	95	-61.4	-86.9	277	12
2023-09-29T12:00	16856	94	-61.5	-86.7	279	12
2023-09-29T12:00	16877	94	-61.6	-86.7	280	12
2023-09-29T12:00	16899	94	-61.7	-86.8	281	12
2023-09-29T12:00	16920	93	-61.8	-86.9	282	11
2023-09-29T12:00	16941	93	-61.7	-87.1	282	11
2023-09-29T12:00	16965	93	-61.6	-87.0	280	10
2023-09-29T12:00	16989	92	-61.4	-87.2	278	9
2023-09-29T12:00	17013	92	-61.2	-87.0	274	9
2023-09-29T12:00	17036	92	-61.1	-87.0	269	8
2023-09-29T12:00	17064	91	-61.2	-87.0	265	8
2023-09-29T12:00	17088	91	-61.3	-87.1	261	8
2023-09-29T12:00	17108	91	-61.5	-87.3	257	8
2023-09-29T12:00	17131	90	-61.7	-87.1	255	8
2023-09-29T12:00	17151	90	-61.8	-87.2	253	9
2023-09-29T12:00	17175	90	-61.9	-87.3	252	9
2023-09-29T12:00	17196	89	-62.1	-87.4	252	9
2023-09-29T12:00	17218	89	-62.2	-87.5	252	9
2023-09-29T12:00	17238	89	-62.2	-87.5	252	9
2023-09-29T12:00	17261	88	-62.0	-87.6	252	10
2023-09-29T12:00	17281	88	-61.6	-87.7	252	10
2023-09-29T12:00	17304	88	-61.3	-87.4	252	11
2023-09-29T12:00	17327	87	-61.1	-87.6	251	11
2023-09-29T12:00	17346	87	-61.1	-87.6	251	11
2023-09-29T12:00	17368	87	-61.0	-87.5	250	12
2023-09-29T12:00	17388	87	-60.7	-87.7	250	12
2023-09-29T12:00	17412	86	-60.5	-87.5	251	13
2023-09-29T12:00	17435	86	-60.5	-87.5	253	13
2023-09-29T12:00	17457	86	-60.5	-87.5	255	14
2023-09-29T12:00	17477	85	-60.5	-87.5	257	14
2023-09-29T12:00	17499	85	-60.6	-87.6	259	14
2023-09-29T12:00	17520	85	-60.5	-87.5	261	15
2023-09-29T12:00	17542	84	-60.2	-87.3	263	15
2023-09-29T12:00	17564	84	-60.2	-87.3	265	14
2023-09-29T12:00	17586	84	-60.3	-87.8	267	14
2023-09-29T12:00	17608	84	-60.2	-87.7	269	14
2023-09-29T12:00	17631	83	-60.1	-87.6	270	13
2023-09-29T12:00	17652	83	-59.7	-87.7	271	13
2023-09-29T12:00	17672	83	-59.5	-87.6	272	13
2023-09-29T12:00	17694	82	-59.5	-87.6	272	13
2023-09-29T12:00	17717	82	-59.3	-87.4	272	13
2023-09-29T12:00	17740	82	-59.3	-87.4	271	13
2023-09-29T12:00	17765	81	-59.2	-87.3	270	13
2023-09-29T12:00	17788	81	-59.0	-87.6	269	13
2023-09-29T12:00	17815	81	-58.9	-87.6	267	13
2023-09-29T12:00	17835	81	-59.1	-87.3	265	14
2023-09-29T12:00	17857	80	-59.3	-87.4	264	14
2023-09-29T12:00	17880	80	-59.5	-87.6	262	14
2023-09-29T12:00	17902	80	-59.7	-87.7	261	14
2023-09-29T12:00	17924	79	-59.8	-87.8	261	15
2023-09-29T12:00	17944	79	-59.9	-87.9	260	15
2023-09-29T12:00	17968	79	-59.9	-87.9	259	14
2023-09-29T12:00	17991	79	-59.9	-87.9	259	14
2023-09-29T12:00	18014	78	-59.9	-87.9	259	14
2023-09-29T12:00	18037	78	-59.6	-88.1	259	13
2023-09-29T12:00	18060	78	-59.4	-87.9	261	12
2023-09-29T12:00	18082	77	-59.4	-87.9	262	12
2023-09-29T12:00	18105	77	-59.2	-87.8	263	11
2023-09-29T12:00	18127	77	-59.0	-88.1	264	11
2023-09-29T12:00	18150	77	-58.8	-88.0	264	10
2023-09-29T12:00	18172	76	-58.7	-87.9	263	10
2023-09-29T12:00	18194	76	-58.6	-87.8	261	10
2023-09-29T12:00	18220	76	-58.2	-87.5	258	10
2023-09-29T12:00	18243	75	-58.1	-87.4	256	11
2023-09-29T12:00	18268	75	-58.3	-87.6	254	11
2023-09-29T12:00	18291	75	-58.5	-87.7	253	12
2023-09-29T12:00	18315	75	-58.7	-87.9	252	12
2023-09-29T12:00	18338	74	-58.9	-88.0	251	12
2023-09-29T12:00	18361	74	-59.0	-88.1	251	12
2023-09-29T12:00	18383	74	-59.0	-88.1	251	11
2023-09-29T12:00	18406	74	-58.9	-88.0	252	11
2023-09-29T12:00	18429	73	-58.8	-88.0	254	11
2023-09-29T12:00	18452	73	-58.7	-87.9	255	10
2023-09-29T12:00	18475	73	-58.8	-88.0	257	10
2023-09-29T12:00	18498	72	-58.9	-88.0	257	10
2023-09-29T12:00	18521	72	-59.1	-88.2	257	9
2023-09-29T12:00	18545	72	-59.0	-88.1	257	9
2023-09-29T12:00	18568	72	-59.0	-88.1	255	8
2023-09-29T12:00	18589	71	-59.0	-88.1	253	8
2023-09-29T12:00	18611	71	-58.8	-88.0	251	7
2023-09-29T12:00	18631	71	-58.8	-88.0	248	7
2023-09-29T12:00	18655	71	-58.9	-88.0	245	7
2023-09-29T12:00	18677	70	-59.0	-88.1	243	7
2023-09-29T12:00	18701	70	-59.1	-88.2	241	7
2023-09-29T12:00	18725	70	-59.2	-88.3	240	8
2023-09-29T12:00	18746	70	-59.3	-88.3	240	8
2023-09-29T12:00	18770	69	-59.3	-88.3	242	8
2023-09-29T12:00	18794	69	-59.4	-88.4	244	9
2023-09-29T12:00	18814	69	-59.4	-88.4	247	9
2023-09-29T12:00	18840	69	-59.5	-88.5	250	10
2023-09-29T12:00	18860	68	-59.4	-88.4	252	10
2023-09-29T12:00	18882	68	-59.4	-88.4	253	11
2023-09-29T12:00	18905	68	-59.3	-88.3	255	11
2023-09-29T12:00	18928	68	-59.1	-88.2	257	11
2023-09-29T12:00	18950	67	-59.1	-88.7	259	12
2023-09-29T12:00	18973	67	-59.2	-88.8	262	12
2023-09-29T12:00	18993	67	-59.0	-88.7	265	12
2023-09-29T12:00	19013	67	-58.8	-88.5	268	12
2023-09-29T12:00	19037	66	-58.8	-88.5	272	12
2023-09-29T12:00	19061	66	-58.8	-88.5	275	12
2023-09-29T12:00	19085	66	-58.7	-88.4	279	12
2023-09-29T12:00	19106	66	-58.5	-88.9	282	11
2023-09-29T12:00	19125	66	-58.3	-88.7	285	11
2023-09-29T12:00	19149	65	-58.0	-88.5	287	10
2023-09-29T12:00	19175	65	-57.6	-88.9	287	10
2023-09-29T12:00	19196	65	-57.2	-88.6	287	9
2023-09-29T12:00	19220	65	-56.9	-88.3	285	9
2023-09-29T12:00	19242	64	-57.0	-88.4	282	8
2023-09-29T12:00	19264	64	-57.0	-88.4	279	8
2023-09-29T12:00	19290	64	-57.1	-87.8	275	7
2023-09-29T12:00	19315	64	-57.3	-88.0	271	7
2023-09-29T12:00	19340	63	-57.4	-88.1	265	6
2023-09-29T12:00	19366	63	-57.6	-88.2	258	6
2023-09-29T12:00	19390	63	-57.8	-88.3	249	5
2023-09-29T12:00	19413	63	-57.9	-88.4	239	6
2023-09-29T12:00	19437	62	-58.1	-88.0	232	6
2023-09-29T12:00	19461	62	-58.1	-88.0	226	6
2023-09-29T12:00	19487	62	-58.3	-88.1	224	6
2023-09-29T12:00	19510	62	-58.5	-88.3	223	7
2023-09-29T12:00	19534	61	-58.6	-88.4	224	7
2023-09-29T12:00	19558	61	-58.9	-88.6	226	8
2023-09-29T12:00	19579	61	-59.0	-88.7	228	8
2023-09-29T12:00	19602	61	-59.1	-88.7	231	9
2023-09-29T12:00	19629	61	-59.2	-88.8	234	9
2023-09-29T12:00	19653	60	-59.3	-88.9	238	9
2023-09-29T12:00	19678	60	-59.4	-89.0	241	9
2023-09-29T12:00	19699	60	-59.5	-89.0	245	9
2023-09-29T12:00	19724	60	-59.4	-89.0	249	9
2023-09-29T12:00	19747	59	-59.4	-89.0	252	9
2023-09-29T12:00	19772	59	-59.4	-89.0	255	9
2023-09-29T12:00	19795	59	-59.5	-89.0	258	9
2023-09-29T12:00	19819	59	-59.4	-89.0	261	10
2023-09-29T12:00	19843	59	-59.4	-89.0	264	9
2023-09-29T12:00	19867	58	-59.4	-89.0	267	9
2023-09-29T12:00	19891	58	-59.2	-89.4	271	9
2023-09-29T12:00	19915	58	-59.1	-89.3	275	9
2023-09-29T12:00	19938	58	-58.9	-89.2	279	8
2023-09-29T12:00	19960	57	-58.6	-88.9	281	8
2023-09-29T12:00	19982	57	-58.3	-88.7	284	7
2023-09-29T12:00	20009	57	-58.1	-89.2	285	7
2023-09-29T12:00	20031	57	-58.1	-89.2	287	6
2023-09-29T12:00	20054	57	-58.1	-89.2	289	6
2023-09-29T12:00	20080	56	-58.1	-89.2	293	6
2023-09-29T12:00	20102	56	-58.1	-89.2	297	6
2023-09-29T12:00	20123	56	-58.0	-89.1	300	7
2023-09-29T12:00	20145	56	-58.1	-88.6	302	7
2023-09-29T12:00	20173	56	-58.1	-88.6	303	7
2023-09-29T12:00	20194	55	-58.2	-88.6	303	7
2023-09-29T12:00	20216	55	-58.2	-88.6	302	7
2023-09-29T12:00	20241	55	-58.2	-88.6	300	6
2023-09-29T12:00	20266	55	-58.2	-88.6	297	6
2023-09-29T12:00	20288	55	-58.3	-88.7	293	5
2023-09-29T12:00	20312	54	-58.3	-88.7	288	5
2023-09-29T12:00	20334	54	-58.4	-88.8	283	5
2023-09-29T12:00	20356	54	-58.5	-88.9	278	5
2023-09-29T12:00	20377	54	-58.4	-88.8	276	4
2023-09-29T12:00	20401	54	-58.3	-88.7	275	4
2023-09-29T12:00	20428	53	-58.3	-88.7	276	4
2023-09-29T12:00	20449	53	-58.3	-88.7	278	4
2023-09-29T12:00	20473	53	-58.2	-88.6	279	4
2023-09-29T12:00	20500	53	-58.3	-88.7	279	4
2023-09-29T12:00	20526	52	-58.4	-88.8	278	4
2023-09-29T12:00	20550	52	-58.5	-88.9	277	4
2023-09-29T12:00	20574	52	-58.6	-88.9	276	4
2023-09-29T12:00	20598	52	-58.8	-89.1	276	4
2023-09-29T12:00	20620	52	-58.8	-89.1	277	4
2023-09-29T12:00	20647	51	-58.7	-89.0	278	5
2023-09-29T12:00	20668	51	-58.6	-88.9	279	5
2023-09-29T12:00	20693	51	-58.6	-88.9	279	5
2023-09-29T12:00	20721	51	-58.7	-89.0	277	5
2023-09-29T12:00	20742	51	-58.5	-88.9	273	5
2023-09-29T12:00	20771	50	-58.4	-88.8	269	5
2023-09-29T12:00	20797	50	-58.4	-88.8	265	5
2023-09-29T12:00	20818	50	-58.4	-88.8	263	6
2023-09-29T12:00	20841	50	-58.2	-89.3	263	6
2023-09-29T12:00	20868	50	-58.2	-89.3	264	6
2023-09-29T12:00	20888	50	-58.2	-89.3	266	6
2023-09-29T12:00	20913	49	-57.9	-89.1	270	6
2023-09-29T12:00	20937	49	-57.9	-88.4	274	5
2023-09-29T12:00	20964	49	-58.1	-88.6	279	5
2023-09-29T12:00	20987	49	-58.0	-88.5	283	5
2023-09-29T12:00	21014	49	-57.9	-88.4	286	5
2023-09-29T12:00	21039	48	-58.0	-88.5	287	5
2023-09-29T12:00	21064	48	-58.0	-88.5	288	4
2023-09-29T12:00	21086	48	-58.1	-88.6	289	4
2023-09-29T12:00	21113	48	-58.1	-88.6	289	3
2023-09-29T12:00	21137	48	-58.0	-88.5	291	3
2023-09-29T12:00	21163	47	-58.0	-88.5	294	3
2023-09-29T12:00	21189	47	-58.2	-88.6	295	3
2023-09-29T12:00	21211	47	-58.3	-88.7	293	2
2023-09-29T12:00	21234	47	-58.3	-88.7	285	2
2023-09-29T12:00	21261	47	-58.3	-88.7	271	2
2023-09-29T12:00	21285	47	-58.4	-88.8	256	2
2023-09-29T12:00	21309	46	-58.3	-88.7	246	2
2023-09-29T12:00	21334	46	-58.2	-88.6	241	3
2023-09-29T12:00	21358	46	-58.2	-88.6	239	3
2023-09-29T12:00	21383	46	-58.2	-88.6	238	3
2023-09-29T12:00	21409	46	-58.3	-88.7	239	3
2023-09-29T12:00	21431	45	-58.3	-88.7	239	4
2023-09-29T12:00	21461	45	-58.3	-88.7	240	4
2023-09-29T12:00	21484	45	-58.4	-88.8	241	4
2023-09-29T12:00	21506	45	-58.4	-88.8	241	4
2023-09-29T12:00	21531	45	-58.4	-88.8	242	4
2023-09-29T12:00	21561	45	-58.5	-88.9	243	4
2023-09-29T12:00	21582	44	-58.5	-88.9	243	4
2023-09-29T12:00	21607	44	-58.3	-88.7	243	4
2023-09-29T12:00	21627	44	-58.2	-89.3	242	4
2023-09-29T12:00	21655	44	-58.2	-89.3	241	4
2023-09-29T12:00	21679	44	-58.2	-89.3	240	4
2023-09-29T12:00	21700	44	-58.2	-89.3	241	4
2023-09-29T12:00	21729	43	-58.2	-89.3	243	4
2023-09-29T12:00	21749	43	-58.1	-89.2	247	4
2023-09-29T12:00	21779	43	-58.0	-89.1	252	4
2023-09-29T12:00	21801	43	-58.1	-89.2	256	4
2023-09-29T12:00	21827	43	-58.1	-89.2	258	4
2023-09-29T12:00	21854	43	-58.1	-89.2	258	4
2023-09-29T12:00	21878	42	-58.2	-89.3	257	4
2023-09-29T12:00	21898	42	-58.2	-89.3	253	3
2023-09-29T12:00	21924	42	-58.2	-89.3	249	3
2023-09-29T12:00	21949	42	-58.2	-89.3	244	3
2023-09-29T12:00	21970	42	-58.3	-89.4	241	3
2023-09-29T12:00	22000	42	-58.3	-89.4	238	3
2023-09-29T12:00	22022	41	-58.3	-89.4	237	4
2023-09-29T12:00	22047	41	-58.4	-89.4	236	4
2023-09-29T12:00	22073	41	-58.3	-89.4	235	4
2023-09-29T12:00	22098	41	-58.3	-89.4	234	5
2023-09-29T12:00	22119	41	-58.3	-89.4	234	5
2023-09-29T12:00	22144	41	-58.2	-89.3	233	5
2023-09-29T12:00	22172	40	-58.0	-89.1	232	5
2023-09-29T12:00	22196	40	-58.0	-89.1	230	6
2023-09-29T12:00	22220	40	-57.9	-89.1	229	6
2023-09-29T12:00	22246	40	-57.8	-89.0	228	6
2023-09-29T12:00	22275	40	-57.7	-88.9	227	6
2023-09-29T12:00	22296	40	-57.8	-89.0	227	6
2023-09-29T12:00	22322	39	-58.0	-89.1	228	6
2023-09-29T12:00	22348	39	-58.2	-89.3	230	7
2023-09-29T12:00	22380	39	-58.1	-89.2	232	7
2023-09-29T12:00	22402	39	-58.1	-89.2	235	7
2023-09-29T12:00	22426	39	-58.1	-89.2	239	6
2023-09-29T12:00	22455	39	-58.1	-89.2	243	6
2023-09-29T12:00	22476	39	-58.1	-89.2	248	5
2023-09-29T12:00	22503	38	-58.0	-89.9	254	4
2023-09-29T12:00	22524	38	-57.8	-89.7	257	4
2023-09-29T12:00	22552	38	-57.5	-89.5	257	3
2023-09-29T12:00	22578	38	-57.3	-89.4	251	3
2023-09-29T12:00	22605	38	-57.2	-89.3	242	3
2023-09-29T12:00	22632	38	-57.2	-89.3	232	4
2023-09-29T12:00	22655	37	-57.2	-89.3	224	4
2023-09-29T12:00	22681	37	-57.1	-89.2	218	5
2023-09-29T12:00	22707	37	-57.1	-89.2	214	5
2023-09-29T12:00	22729	37	-57.2	-89.3	212	5
2023-09-29T12:00	22754	37	-57.3	-89.4	213	6
2023-09-29T12:00	22783	37	-57.4	-88.7	216	7
2023-09-29T12:00	22807	37	-57.5	-88.8	220	7
2023-09-29T12:00	22836	36	-57.5	-88.8	225	8
2023-09-29T12:00	22860	36	-57.6	-88.9	230	8
2023-09-29T12:00	22885	36	-57.6	-88.9	235	9
2023-09-29T12:00	22907	36	-57.6	-88.9	239	10
2023-09-29T12:00	22935	36	-57.7	-88.9	243	10
2023-09-29T12:00	22957	36	-57.7	-88.9	246	10
2023-09-29T12:00	22983	36	-57.6	-88.9	248	11
2023-09-29T12:00	23010	35	-57.6	-88.9	251	11
2023-09-29T12:00	23034	35	-57.6	-89.6	254	10
2023-09-29T12:00	23062	35	-57.5	-89.5	258	10
2023-09-29T12:00	23087	35	-57.4	-89.4	263	10
2023-09-29T12:00	23113	35	-57.3	-89.4	266	10
2023-09-29T12:00	23136	35	-57.3	-89.4	269	11
2023-09-29T12:00	23165	35	-57.1	-89.2	271	11
2023-09-29T12:00	23187	34	-56.8	-89.0	273	11
2023-09-29T12:00	23214	34	-56.4	-88.7	275	12
2023-09-29T12:00	23236	34	-56.2	-89.4	277	12
2023-09-29T12:00	23262	34	-56.1	-89.4	279	12
2023-09-29T12:00	23286	34	-56.1	-89.4	281	12
2023-09-29T12:00	23314	34	-56.2	-89.4	283	12
2023-09-29T12:00	23337	34	-56.2	-89.4	284	12
2023-09-29T12:00	23364	33	-56.1	-88.5	285	12
2023-09-29T12:00	23389	33	-56.2	-88.6	286	12
2023-09-29T12:00	23417	33	-56.2	-88.6	286	11
2023-09-29T12:00	23444	33	-56.2	-88.6	287	11
2023-09-29T12:00	23463	33	-56.4	-88.7	288	10
2023-09-29T12:00	23494	33	-56.5	-88.8	289	10
2023-09-29T12:00	23520	33	-56.4	-88.7	290	9
2023-09-29T12:00	23547	33	-56.3	-88.6	292	9
2023-09-29T12:00	23576	32	-56.3	-88.6	295	8
2023-09-29T12:00	23598	32	-56.4	-88.7	299	8
2023-09-29T12:00	23622	32	-56.4	-88.7	303	7
2023-09-29T12:00	23645	32	-56.4	-88.7	307	6
2023-09-29T12:00	23675	32	-56.4	-88.7	311	6
2023-09-29T12:00	23699	32	-56.3	-88.6	315	5
2023-09-29T12:00	23721	32	-56.2	-89.4	319	4
2023-09-29T12:00	23746	32	-56.2	-89.4	323	4
2023-09-29T12:00	23778	31	-56.1	-89.4	325	4
2023-09-29T12:00	23804	31	-55.9	-89.2	326	3
2023-09-29T12:00	23827	31	-55.8	-89.1	325	3
2023-09-29T12:00	23851	31	-55.6	-89.0	324	3
2023-09-29T12:00	23884	31	-55.3	-88.8	323	3
2023-09-29T12:00	23908	31	-55.4	-88.9	324	2
2023-09-29T12:00	23934	31	-55.7	-89.1	327	2
2023-09-29T12:00	23959	30	-55.8	-89.1	327	1
2023-09-29T12:00	23987	30	-55.9	-89.2	319	1
2023-09-29T12:00	24018	30	-55.9	-89.2	295	1
2023-09-29T12:00	24044	30	-55.8	-89.1	273	1
2023-09-29T12:00	24072	30	-55.7	-89.1	263	1
2023-09-29T12:00	24097	30	-55.5	-88.9	259	2
2023-09-29T12:00	24125	30	-55.5	-88.9	256	2
2023-09-29T12:00	24154	30	-55.5	-88.9	255	3
2023-09-29T12:00	24176	29	-55.7	-89.1	254	3
2023-09-29T12:00	24210	29	-56.0	-89.3	256	3
2023-09-29T12:00	24234	29	-56.0	-89.3	258	4
2023-09-29T12:00	24259	29	-56.1	-88.5	262	4
2023-09-29T12:00	24278	29	-56.0	-88.4	266	4
2023-09-29T12:00	24310	29	-56.0	-88.4	270	5
2023-09-29T12:00	24335	29	-56.2	-89.4	273	5
2023-09-29T12:00	24362	29	-56.3	-89.5	276	6
2023-09-29T12:00	24391	28	-56.3	-89.5	278	6
2023-09-29T12:00	24416	28	-56.2	-89.4	281	7
2023-09-29T12:00	24443	28	-56.2	-89.4	284	7
2023-09-29T12:00	24466	28	-56.3	-89.5	286	8
2023-09-29T12:00	24497	28	-56.3	-89.5	289	8
2023-09-29T12:00	24523	28	-56.2	-89.4	292	8
2023-09-29T12:00	24545	28	-56.1	-89.4	295	9
2023-09-29T12:00	24573	28	-56.1	-89.4	298	9
2023-09-29T12:00	24596	28	-56.0	-89.3	301	9
2023-09-29T12:00	24623	27	-55.9	-89.2	303	9
2023-09-29T12:00	24647	27	-55.7	-89.1	306	9
2023-09-29T12:00	24674	27	-55.4	-88.9	309	9
2023-09-29T12:00	24701	27	-55.4	-88.9	311	8
2023-09-29T12:00	24725	27	-55.4	-88.9	315	7
2023-09-29T12:00	24748	27	-55.3	-88.8	318	7
2023-09-29T12:00	24776	27	-55.5	-88.9	323	6
2023-09-29T12:00	24803	27	-55.7	-89.1	328	5
2023-09-29T12:00	24830	27	-55.9	-89.2	333	4
2023-09-29T12:00	24855	26	-55.9	-89.2	339	4
2023-09-29T12:00	24877	26	-56.0	-89.3	345	3
2023-09-29T12:00	24903	26	-56.2	-89.4	351	3
2023-09-29T12:00	24933	26	-56.2	-89.4	354	2
2023-09-29T12:00	24957	26	-56.1	-89.4	355	2
2023-09-29T12:00	24981	26	-56.1	-89.4	351	1
2023-09-29T12:00	25012	26	-56.1	-89.4	339	1
2023-09-29T12:00	25034	26	-55.9	-89.2	317	1
2023-09-29T12:00	25059	26	-55.8	-89.1	298	1
2023-09-29T12:00	25089	26	-55.6	-90.0	291	2
2023-09-29T12:00	25110	25	-55.5	-89.9	289	2
2023-09-29T12:00	25140	25	-55.4	-89.9	287	3
2023-09-29T12:00	25163	25	-55.2	-89.7	283	3
2023-09-29T12:00	25193	25	-55.2	-89.7	276	3
2023-09-29T12:00	25219	25	-55.0	-89.6	269	3
2023-09-29T12:00	25241	25	-54.7	-89.4	263	3
2023-09-29T12:00	25271	25	-54.5	-89.2	261	4
2023-09-29T12:00	25300	25	-54.6	-89.3	262	4
2023-09-29T12:00	25328	25	-54.7	-89.4	265	4
2023-09-29T12:00	25358	24	-54.7	-89.4	268	5
2023-09-29T12:00	25383	24	-54.7	-89.4	270	5
2023-09-29T12:00	25406	24	-54.6	-89.3	272	5
2023-09-29T12:00	25437	24	-54.3	-89.1	274	4
2023-09-29T12:00	25465	24	-54.2	-89.0	276	4
2023-09-29T12:00	25492	24	-54.4	-89.1	280	4
2023-09-29T12:00	25518	24	-54.6	-89.3	284	4
2023-09-29T12:00	25543	24	-54.5	-89.2	288	4
2023-09-29T12:00	25572	24	-54.4	-89.1	293	4
2023-09-29T12:00	25600	24	-54.5	-89.2	299	4
2023-09-29T12:00	25625	23	-54.5	-89.2	305	4
2023-09-29T12:00	25651	23	-54.6	-89.3	312	4
2023-09-29T12:00	25683	23	-54.7	-89.4	319	4
2023-09-29T12:00	25715	23	-54.7	-89.4	323	4
2023-09-29T12:00	25737	23	-54.7	-89.4	325	4
2023-09-29T12:00	25756	23	-54.6	-89.3	324	3
2023-09-29T12:00	25788	23	-54.5	-89.2	320	3
2023-09-29T12:00	25815	23	-54.4	-89.1	310	2
2023-09-29T12:00	25843	23	-54.4	-89.1	292	2
2023-09-29T12:00	25872	23	-54.3	-89.1	267	1
2023-09-29T12:00	25894	22	-54.2	-89.0	246	2
2023-09-29T12:00	25925	22	-54.0	-88.9	238	2
2023-09-29T12:00	25950	22	-53.9	-88.8	240	2
2023-09-29T12:00	25981	22	-53.8	-88.7	246	2
2023-09-29T12:00	26012	22	-53.7	-88.7	254	2
2023-09-29T12:00	26034	22	-53.7	-88.7	261	3
2023-09-29T12:00	26062	22	-53.6	-88.6	265	3
2023-09-29T12:00	26088	22	-53.6	-88.6	269	3
2023-09-29T12:00	26111	22	-53.6	-88.6	272	3
2023-09-29T12:00	26143	22	-53.6	-88.6	276	3
2023-09-29T12:00	26169	22	-53.7	-88.7	282	3
2023-09-29T12:00	26197	21	-53.8	-88.7	287	3
2023-09-29T12:00	26228	21	-54.0	-88.9	291	3
2023-09-29T12:00	26251	21	-54.0	-88.9	291	2
2023-09-29T12:00	26275	21	-53.9	-88.8	277	1
2023-09-29T12:00	26301	21	-53.9	-88.8	211	1
2023-09-29T12:00	26341	21	-54.1	-88.9	172	2
2023-09-29T12:00	26357	21	-54.0	-88.9	165	3
2023-09-29T12:00	26391	21	-53.9	-88.8	164	4
2023-09-29T12:00	26411	21	-53.9	-88.8	165	4
2023-09-29T12:00	26446	21	-54.0	-88.9	168	5
2023-09-29T12:00	26469	21	-54.0	-88.9	171	5
2023-09-29T12:00	26492	21	-54.0	-88.9	176	5
2023-09-29T12:00	26528	20	-53.8	-88.7	183	5
2023-09-29T12:00	26550	20	-53.6	-88.6	194	4
2023-09-29T12:00	26585	20	-53.5	-88.5	206	4
2023-09-29T12:00	26610	20	-53.4	-88.4	220	4
2023-09-29T12:00	26640	20	-53.3	-88.4	232	4
2023-09-29T12:00	26661	20	-53.2	-88.3	242	4
2023-09-29T12:00	26693	20	-52.9	-88.1	253	3
2023-09-29T12:00	26726	20	-52.8	-88.0	264	3
2023-09-29T12:00	26744	20	-52.7	-87.9	281	3
2023-09-29T12:00	26780	20	-52.7	-87.9	300	3
2023-09-29T12:00	26806	20	-52.8	-88.0	314	3
2023-09-29T12:00	26837	19	-52.8	-88.0	319	3
2023-09-29T12:00	26861	19	-52.9	-88.1	319	4
2023-09-29T12:00	26892	19	-53.0	-88.2	315	4
2023-09-29T12:00	26921	19	-53.0	-88.2	309	3
2023-09-29T12:00	26948	19	-53.1	-88.2	302	3
2023-09-29T12:00	26972	19	-53.1	-88.2	296	3
2023-09-29T12:00	27003	19	-53.2	-88.3	291	3
2023-09-29T12:00	27030	19	-53.3	-88.4	286	3
2023-09-29T12:00	27058	19	-53.4	-88.4	281	3
2023-09-29T12:00	27085	19	-53.4	-88.4	274	3
2023-09-29T12:00	27121	19	-53.4	-88.4	266	3
2023-09-29T12:00	27143	19	-53.6	-88.6	258	3
2023-09-29T12:00	27171	18	-53.8	-88.7	250	2
2023-09-29T12:00	27198	18	-53.7	-88.7	242	2
2023-09-29T12:00	27226	18	-53.8	-88.7	231	1
2023-09-29T12:00	27248	18	-54.0	-88.9	217	1
2023-09-29T12:00	27278	18	-54.1	-88.9	208	1
2023-09-29T12:00	27307	18	-54.0	-88.9	209	1
2023-09-29T12:00	27337	18	-54.0	-88.9	215	2
2023-09-29T12:00	27369	18	-54.0	-88.9	222	2
2023-09-29T12:00	27393	18	-53.9	-88.8	228	3
2023-09-29T12:00	27421	18	-53.8	-88.7	232	4
2023-09-29T12:00	27440	18	-53.7	-88.7	235	4
2023-09-29T12:00	27468	18	-53.8	-88.7	236	4
2023-09-29T12:00	27496	18	-53.8	-88.7	237	4
2023-09-29T12:00	27519	17	-53.7	-88.7	238	4
2023-09-29T12:00	27549	17	-53.4	-88.4	238	4
2023-09-29T12:00	27568	17	-53.3	-88.4	239	3
2023-09-29T12:00	27603	17	-53.4	-88.4	237	3
2023-09-29T12:00	27628	17	-53.6	-88.6	232	2
2023-09-29T12:00	27657	17	-53.7	-88.7	222	2
2023-09-29T12:00	27674	17	-53.5	-88.5	210	2
2023-09-29T12:00	27704	17	-53.4	-88.4	202	2
2023-09-29T12:00	27733	17	-53.4	-88.4	200	3
2023-09-29T12:00	27760	17	-53.3	-88.4	202	3
2023-09-29T12:00	27791	17	-53.0	-88.2	207	3
2023-09-29T12:00	27821	17	-52.7	-87.9	212	4
2023-09-29T12:00	27852	17	-52.6	-87.9	217	4
2023-09-29T12:00	27876	17	-52.7	-87.9	222	5
2023-09-29T12:00	27898	16	-52.8	-88.0	228	5
2023-09-29T12:00	27923	16	-52.9	-88.1	233	5
2023-09-29T12:00	27957	16	-52.9	-88.1	238	6
2023-09-29T12:00	27982	16	-52.9	-88.1	240	6
2023-09-29T12:00	28010	16	-52.9	-88.1	240	5
2023-09-29T12:00	28036	16	-52.9	-88.1	240	5
2023-09-29T12:00	28064	16	-52.9	-88.1	239	5
2023-09-29T12:00	28095	16	-52.7	-87.9	239	4
2023-09-29T12:00	28123	16	-52.6	-87.9	243	4
2023-09-29T12:00	28148	16	-52.5	-87.8	249	4
2023-09-29T12:00	28185	16	-52.5	-87.8	256	4
2023-09-29T12:00	28215	16	-52.4	-87.7	261	5
2023-09-29T12:00	28231	16	-52.4	-87.7	265	5
2023-09-29T12:00	28270	16	-52.5	-87.8	268	6
2023-09-29T12:00	28298	16	-52.6	-87.9	269	7
2023-09-29T12:00	28318	15	-52.6	-87.9	268	7
2023-09-29T12:00	28350	15	-52.8	-88.0	267	8
2023-09-29T12:00	28375	15	-52.9	-88.1	266	8
2023-09-29T12:00	28412	15	-52.9	-88.1	265	8
2023-09-29T12:00	28440	15	-52.8	-88.0	265	8
2023-09-29T12:00	28470	15	-52.8	-88.0	267	8
2023-09-29T12:00	28499	15	-52.7	-87.9	268	8
2023-09-29T12:00	28531	15	-52.7	-87.9	269	8
2023-09-29T12:00	28552	15	-52.8	-88.0	269	7
2023-09-29T12:00	28577	15	-52.8	-88.0	266	7
2023-09-29T12:00	28618	15	-52.9	-88.1	263	7
2023-09-29T12:00	28644	15	-53.0	-88.2	261	6
2023-09-29T12:00	28671	15	-53.1	-88.2	259	6
2023-09-29T12:00	28705	15	-53.2	-88.3	259	6
2023-09-29T12:00	28731	15	-53.4	-88.4	259	6
2023-09-29T12:00	28763	14	-53.5	-88.5	259	6
2023-09-29T12:00	28795	14	-53.5	-88.5	259	5
2023-09-29T12:00	28817	14	-53.6	-88.6	257	5
2023-09-29T12:00	28847	14	-53.7	-88.7	255	5
2023-09-29T12:00	28868	14	-53.7	-88.7	254	6
2023-09-29T12:00	28902	14	-53.6	-88.6	253	6
2023-09-29T12:00	28927	14	-53.4	-88.4	254	7
2023-09-29T12:00	28963	14	-53.3	-88.4	255	7
2023-09-29T12:00	28982	14	-53.4	-88.4	256	8
2023-09-29T12:00	29013	14	-53.4	-88.4	257	9
2023-09-29T12:00	29039	14	-53.4	-88.4	258	9
2023-09-29T12:00	29057	14	-53.4	-88.4	258	10
2023-09-29T12:00	29096	14	-53.5	-88.5	259	10
2023-09-29T12:00	29110	14	-53.5	-88.5	259	10
2023-09-29T12:00	29139	14	-53.3	-88.4	259	10
2023-09-29T12:00	29173	14	-53.0	-88.2	258	10
2023-09-29T12:00	29195	13	-52.7	-87.9	258	9
2023-09-29T12:00	29221	13	-52.5	-87.8	257	8
2023-09-29T12:00	29255	13	-52.3	-87.7	256	8
2023-09-29T12:00	29280	13	-52.4	-87.7	255	7
2023-09-29T12:00	29311	13	-52.5	-87.8	254	7
2023-09-29T12:00	29333	13	-52.4	-87.7	255	7
2023-09-29T12:00	29362	13	-52.2	-87.6	257	8
2023-09-29T12:00	29383	13	-52.0	-87.4	261	8
2023-09-29T12:00	29404	13	-51.5	-87.1	265	9
2023-09-29T12:00	29441	13	-51.0	-86.7	269	10
2023-09-29T12:00	29467	13	-50.8	-86.6	273	11
2023-09-29T12:00	29489	13	-50.7	-86.5	277	12
2023-09-29T12:00	29521	13	-50.7	-86.5	280	12
2023-09-29T12:00	29552	13	-50.8	-86.6	282	13
2023-09-29T12:00	29571	13	-50.9	-86.7	285	13
2023-09-29T12:00	29604	13	-50.9	-86.7	287	14
2023-09-29T12:00	29637	13	-50.8	-86.6	290	14
2023-09-29T12:00	29663	13	-50.6	-86.5	292	13
2023-09-29T12:00	29695	13	-50.6	-86.5	295	13
2023-09-29T12:00	29715	12	-50.8	-86.6	297	12
2023-09-29T12:00	29760	12	-50.9	-86.7	298	11
2023-09-29T12:00	29786	12	-51.1	-86.8	298	10
2023-09-29T12:00	29821	12	-51.2	-86.9	297	9
2023-09-29T12:00	29847	12	-51.2	-86.9	294	9
2023-09-29T12:00	29880	12	-50.9	-86.7	289	8
2023-09-29T12:00	29902	12	-50.7	-86.5	285	8
2023-09-29T12:00	29932	12	-50.5	-86.4	280	8
2023-09-29T12:00	29961	12	-50.5	-86.4	277	8
2023-09-29T12:00	29992	12	-50.6	-86.5	275	8
2023-09-29T12:00	30028	12	-50.5	-86.4	274	9
2023-09-29T12:00	30049	12	-50.4	-86.3	275	8
2023-09-29T12:00	30084	12	-50.3	-86.2	276	8
2023-09-29T12:00	30107	12	-50.2	-86.2	277	8
2023-09-29T12:00	30134	12	-50.3	-86.2	278	8
2023-09-29T12:00	30161	12	-50.3	-86.2	279	7
2023-09-29T12:00	30202	12	-50.1	-86.1	279	7
2023-09-29T12:00	30218	12	-50.1	-86.1	279	7
2023-09-29T12:00	30250	11	-50.1	-86.1	280	7
2023-09-29T12:00	30283	11	-50.2	-86.2	280	7
2023-09-29T12:00	30324	11	-50.3	-86.2	280	8
2023-09-29T12:00	30341	11	-50.5	-86.4	279	8
2023-09-29T12:00	30376	11	-50.8	-86.6	278	8
2023-09-29T12:00	30410	11	-51.1	-86.8	277	8
2023-09-29T12:00	30428	11	-51.1	-86.8	276	8
2023-09-29T12:00	30463	11	-51.2	-86.9	274	8
2023-09-29T12:00	30491	11	-51.3	-87.0	273	8
2023-09-29T12:00	30521	11	-51.5	-87.1	271	8
2023-09-29T12:00	30543	11	-51.5	-87.1	271	9
2023-09-29T12:00	30568	11	-51.4	-87.0	271	9
2023-09-29T12:00	30607	11	-51.2	-86.9	273	9
2023-09-29T12:00	30636	11	-51.1	-86.8	274	9
2023-09-29T12:00	30651	11	-50.9	-86.7	276	9
2023-09-29T12:00	30677	11	-50.6	-86.5	278	9
2023-09-29T12:00	30723	11	-50.4	-86.3	280	9
2023-09-29T12:00	30742	11	-50.3	-86.2	283	9
2023-09-29T12:00	30777	11	-50.4	-86.3	286	9
2023-09-29T12:00	30798	11	-50.5	-86.4	289	10
2023-09-29T12:00	30831	11	-50.6	-86.5	291	10
2023-09-29T12:00	30853	10	-50.7	-86.5	292	10
2023-09-29T12:00	30875	10	-50.8	-86.6	292	11
2023-09-29T12:00	30903	10	-50.7	-86.5	291	12
2023-09-29T12:00	30941	10	-50.6	-86.5	288	12
2023-09-29T12:00	30970	10	-50.5	-86.4	286	12
2023-09-29T12:00	31006	10	-50.4	-86.3	282	12
2023-09-29T12:00	31019	10	-50.3	-86.2	279	13
2023-09-29T12:00	31051	10	-50.2	-86.2	277	13
2023-09-29T12:00	31070	10	-50.2	-86.2	275	13
2023-09-29T12:00	31098	10	-50.1	-86.1	274	14
2023-09-29T12:00	31136	10	-50.1	-86.1	273	14
2023-09-29T12:00	31157	10	-50.2	-86.2	272	15
2023-09-29T12:00	31177	10	-50.4	-86.3	271	15
2023-09-29T12:00	31219	10	-50.4	-86.3	271	15
2023-09-29T12:00	31239	10	-50.3	-86.2	270	15
2023-09-29T12:00	31273	10	-50.2	-86.2	270	15
2023-09-29T12:00	31300	10	-50.0	-86.0	271	14
2023-09-29T12:00	31326	10	-49.9	-86.0	271	14
2023-09-29T12:00	31344	10	-49.9	-86.0	273	13
2023-09-29T12:00	31400	10	-50.1	-86.1	274	13
2023-09-29T12:00	31416	10	-50.3	-86.2	276	13
2023-09-29T12:00	31449	10	-50.3	-86.2	278	13
2023-09-29T12:00	31475	10	-50.4	-86.3	280	12
2023-09-29T12:00	31493	9	-50.6	-86.5	281	12
2023-09-29T12:00	31519	9	-50.6	-86.5	281	12
2023-09-29T12:00	31545	9	-50.6	-86.5	281	12
2023-09-29T12:00	31572	9	-50.7	-86.5	282	12
2023-09-29T12:00	31607	9	-50.8	-86.6	282	13
2023-09-29T12:00	31638	9	-50.9	-86.7	283	13
2023-09-29T12:00	31655	9	-50.9	-86.7	284	13
2023-09-29T12:00	31695	9	-51.0	-86.7	285	12
2023-09-29T12:00	31719	9	-51.1	-86.8	287	12
2023-09-29T12:00	31744	9	-51.1	-86.8	288	12
2023-09-29T12:00	31762	9	-51.2	-86.9	288	12
2023-09-29T12:00	31799	9	-51.2	-86.9	288	12
2023-09-29T12:00	31826	9	-51.2	-86.9	288	13
2023-09-29T12:00	31841	9	-51.1	-86.8	288	13
2023-09-29T12:00	31870	9	-51.0	-86.7	287	13
2023-09-29T12:00	31902	9	-50.8	-86.6	288	13
2023-09-29T12:00	31941	9	-50.7	-86.5	288	13
2023-09-29T12:00	31962	9	-50.8	-86.6	288	13
2023-09-29T12:00	31990	9	-50.9	-86.7	288	12
2023-09-29T12:00	32019	9	-50.8	-86.6	288	12
2023-09-29T12:00	32062	9	-50.6	-86.5	288	12
2023-09-29T12:00	32080	9	-50.4	-86.3	288	12
2023-09-29T12:00	32101	9	-50.3	-86.2	289	12
2023-09-29T12:00	32118	9	-50.2	-86.2	289	12
2023-09-29T12:00	32157	9	-50.1	-86.1	289	12
2023-09-29T12:00	32200	9	-50.1	-86.1	288	12
2023-09-29T12:00	32215	9	-50.1	-86.1	287	12
2023-09-29T12:00	32245	8	-50.2	-86.2	287	12
2023-09-29T12:00	32281	8	-50.2	-86.2	286	12
2023-09-29T12:00	32311	8	-50.3	-86.2	285	12
2023-09-29T12:00	32333	8	-50.4	-86.3	284	12
2023-09-29T12:00	32357	8	-50.4	-86.3	284	12
2023-09-29T12:00	32387	8	-50.3	-86.2	285	13
2023-09-29T12:00	32429	8	-50.3	-86.2	288	13
2023-09-29T12:00	32437	8	-50.3	-86.2	291	14
2023-09-29T12:00	32473	8	-50.2	-86.2	294	14
2023-09-29T12:00	32492	8	-50.1	-86.1	296	14
2023-09-29T12:00	32533	8	-50.0	-86.0	297	14
2023-09-29T12:00	32554	8	-49.9	-86.0	296	13
2023-09-29T12:00	32575	8	-49.8	-85.9	294	13
2023-09-29T12:00	32599	8	-49.8	-85.9	292	12
2023-09-29T12:00	32633	8	-49.8	-85.9	288	11
2023-09-29T12:00	32662	8	-49.6	-85.8	285	11
2023-09-29T12:00	32681	8	-49.4	-85.6	282	11
2023-09-29T12:00	32721	8	-49.1	-85.4	280	11
2023-09-29T12:00	32751	8	-49.0	-85.3	279	12
2023-09-29T12:00	32785	8	-49.1	-85.4	277	12
2023-09-29T12:00	32790	8	-49.3	-85.5	275	13
2023-09-29T12:00	32829	8	-49.3	-85.5	273	13
2023-09-29T12:00	32849	8	-49.2	-85.5	270	14
2023-09-29T12:00	32890	8	-49.2	-85.5	268	15
2023-09-29T12:00	32898	8	-49.4	-85.6	267	15
2023-09-29T12:00	32921	8	-49.6	-85.8	267	16
2023-09-29T12:00	32964	8	-49.5	-85.7	268	16
2023-09-29T12:00	33000	8	-49.3	-85.5	271	16
2023-09-29T12:00	33012	8	-49.3	-85.5	273	17
2023-09-29T12:00	33064	7	-49.3	-85.5	276	17
2023-09-29T12:00	33088	7	-49.3	-85.5	278	17
2023-09-29T12:00	33114	7	-49.2	-85.5	279	18
2023-09-29T12:00	33144	7	-49.1	-85.4	279	18
2023-09-29T12:00	33170	7	-49.1	-85.4	278	19
2023-09-29T12:00	33194	7	-49.1	-85.4	278	19
2023-09-29T12:00	33220	7	-49.1	-85.4	278	19
2023-09-29T12:00	33237	7	-49.2	-85.5	278	20
2023-09-29T12:00	33269	7	-49.2	-85.5	278	20
2023-09-29T12:00	33295	7	-49.4	-85.6	277	20
2023-09-29T12:00	33322	7	-49.5	-85.7	276	20
2023-09-29T18:00	114	1003	21.9	15.3	156	2
2023-09-29T18:00	142	1000	22.8	14.1	165	4
2023-09-29T18:00	165	997	23.4	13.3	167	5
2023-09-29T18:00	189	994	23.7	12.6	170	6
2023-09-29T18:00	213	991	23.9	12.3	174	6
2023-09-29T18:00	241	988	23.9	12.0	179	7
2023-09-29T18:00	268	985	23.7	11.6	184	7
2023-09-29T18:00	289	983	23.6	11.5	187	7
2023-09-29T18:00	312	980	23.4	11.5	189	7
2023-09-29T18:00	335	978	23.2	11.3	190	7
2023-09-29T18:00	364	974	23.0	11.1	191	7
2023-09-29T18:00	390	971	22.8	10.9	192	7
2023-09-29T18:00	412	969	22.5	10.9	194	6
2023-09-29T18:00	442	966	22.3	10.9	196	6
2023-09-29T18:00	465	963	22.0	10.8	199	6
2023-09-29T18:00	487	961	21.8	10.6	201	6
2023-09-29T18:00	512	958	21.6	10.6	203	7
2023-09-29T18:00	541	955	21.3	10.4	206	7
2023-09-29T18:00	567	952	21.1	10.4	208	8
2023-09-29T18:00	594	949	20.9	10.4	211	8
2023-09-29T18:00	618	946	20.7	10.4	214	9
2023-09-29T18:00	640	944	20.7	9.9	216	9
2023-09-29T18:00	661	942	20.8	9.7	218	10
2023-09-29T18:00	683	939	20.6	9.7	219	10
2023-09-29T18:00	704	937	20.5	9.5	220	10
2023-09-29T18:00	728	934	20.4	9.3	221	11
2023-09-29T18:00	755	931	20.2	9.2	223	11
2023-09-29T18:00	780	929	20.1	8.7	225	12
2023-09-29T18:00	801	927	20.0	8.6	228	12
2023-09-29T18:00	819	924	19.9	8.7	229	13
2023-09-29T18:00	840	922	19.7	8.8	230	13
2023-09-29T18:00	859	920	19.5	8.8	229	13
2023-09-29T18:00	882	918	19.3	8.7	227	13
2023-09-29T18:00	908	915	19.1	8.6	224	13
2023-09-29T18:00	930	913	18.9	8.5	222	13
2023-09-29T18:00	949	910	18.7	8.5	221	13
2023-09-29T18:00	978	908	18.5	8.1	221	13
2023-09-29T18:00	1003	905	18.3	7.7	222	13
2023-09-29T18:00	1028	902	18.1	7.6	224	13
2023-09-29T18:00	1053	900	17.9	7.1	226	13
2023-09-29T18:00	1076	897	17.8	6.9	228	13
2023-09-29T18:00	1105	894	17.5	6.7	229	12
2023-09-29T18:00	1134	891	17.3	6.6	230	12
2023-09-29T18:00	1160	889	17.0	6.6	230	12
2023-09-29T18:00	1186	886	16.8	6.5	230	12
2023-09-29T18:00	1211	884	16.6	6.5	230	12
2023-09-29T18:00	1228	881	16.4	6.4	230	12
2023-09-29T18:00	1253	879	16.1	6.5	230	12
2023-09-29T18:00	1280	876	15.9	6.2	231	12
2023-09-29T18:00	1303	874	15.8	6.4	231	12
2023-09-29T18:00	1327	871	15.5	6.3	231	12
2023-09-29T18:00	1345	869	15.4	6.6	231	12
2023-09-29T18:00	1377	866	15.1	6.4	231	12
2023-09-29T18:00	1405	863	14.8	6.2	231	12
2023-09-29T18:00	1430	861	14.6	6.3	232	12
2023-09-29T18:00	1453	858	14.4	6.2	233	12
2023-09-29T18:00	1472	856	14.2	6.2	234	12
2023-09-29T18:00	1496	854	14.0	6.0	234	12
2023-09-29T18:00	1517	852	13.9	5.5	234	12
2023-09-29T18:00	1544	849	13.7	5.5	234	12
2023-09-29T18:00	1568	847	13.6	4.9	233	12
2023-09-29T18:00	1590	844	13.5	4.9	232	12
2023-09-29T18:00	1616	842	13.2	4.8	231	12
2023-09-29T18:00	1641	839	13.0	5.1	232	12
2023-09-29T18:00	1668	837	12.8	5.2	233	11
2023-09-29T18:00	1694	834	12.5	5.5	234	11
2023-09-29T18:00	1718	832	12.2	5.7	236	11
2023-09-29T18:00	1739	830	12.0	6.0	238	11
2023-09-29T18:00	1766	827	11.8	6.2	241	11
2023-09-29T18:00	1794	824	11.5	6.2	243	11
2023-09-29T18:00	1821	822	11.3	6.2	245	12
2023-09-29T18:00	1847	819	11.0	6.5	247	12
2023-09-29T18:00	1875	816	10.8	6.7	248	12
2023-09-29T18:00	1902	814	10.6	6.5	249	12
2023-09-29T18:00	1931	811	10.4	6.0	250	12
2023-09-29T18:00	1958	808	10.2	5.8	250	11
2023-09-29T18:00	1984	806	10.0	6.2	251	11
2023-09-29T18:00	2014	803	9.7	6.0	252	11
2023-09-29T18:00	2039	800	9.6	6.1	252	12
2023-09-29T18:00	2065	798	9.6	6.0	252	12
2023-09-29T18:00	2089	796	9.4	5.7	252	13
2023-09-29T18:00	2112	793	9.3	5.8	252	13
2023-09-29T18:00	2132	791	9.1	5.8	252	14
2023-09-29T18:00	2157	789	8.9	5.7	252	14
2023-09-29T18:00	2183	787	8.7	5.4	252	14
2023-09-29T18:00	2207	784	8.5	5.5	251	13
2023-09-29T18:00	2237	782	8.3	5.4	249	13
2023-09-29T18:00	2264	779	8.1	5.2	247	13
2023-09-29T18:00	2290	777	7.9	5.0	246	13
2023-09-29T18:00	2315	774	7.7	4.9	246	13
2023-09-29T18:00	2342	772	7.4	4.8	247	13
2023-09-29T18:00	2367	769	7.2	4.8	250	13
2023-09-29T18:00	2388	767	7.0	4.8	252	13
2023-09-29T18:00	2412	765	6.8	5.7	254	13
2023-09-29T18:00	2433	763	6.7	6.2	256	13
2023-09-29T18:00	2457	761	6.5	6.2	256	13
2023-09-29T18:00	2481	759	6.3	6.3	256	13
2023-09-29T18:00	2509	756	6.0	5.9	256	14
2023-09-29T18:00	2533	754	5.9	5.7	255	14
2023-09-29T18:00	2553	752	5.7	5.7	256	14
2023-09-29T18:00	2581	750	5.7	5.7	256	14
2023-09-29T18:00	2604	748	5.6	5.6	257	14
2023-09-29T18:00	2628	745	5.4	5.4	257	14
2023-09-29T18:00	2658	743	5.2	5.2	257	14
2023-09-29T18:00	2686	740	5.0	5.0	256	14
2023-09-29T18:00	2709	738	4.8	4.8	254	14
2023-09-29T18:00	2739	735	4.7	4.7	252	14
2023-09-29T18:00	2768	733	4.6	4.6	249	15
2023-09-29T18:00	2803	730	4.3	4.3	247	15
2023-09-29T18:00	2837	727	4.1	4.1	246	15
2023-09-29T18:00	2865	724	4.0	4.0	246	16
2023-09-29T18:00	2894	721	3.5	3.5	247	16
2023-09-29T18:00	2924	719	3.6	3.6	249	16
2023-09-29T18:00	2955	716	3.5	3.5	251	16
2023-09-29T18:00	2977	714	3.3	3.3	253	16
2023-09-29T18:00	3004	712	2.9	2.9	253	16
2023-09-29T18:00	3026	710	2.8	2.8	254	16
2023-09-29T18:00	3050	708	2.7	2.7	254	16
2023-09-29T18:00	3076	705	2.6	2.6	254	16
2023-09-29T18:00	3103	703	2.5	2.5	254	16
2023-09-29T18:00	3135	700	2.3	2.3	254	16
2023-09-29T18:00	3165	698	2.2	2.2	254	16
2023-09-29T18:00	3196	695	1.9	1.9	254	16
2023-09-29T18:00	3222	693	1.7	1.7	254	16
2023-09-29T18:00	3253	690	1.6	1.6	255	16
2023-09-29T18:00	3284	688	1.4	1.4	255	16
2023-09-29T18:00	3310	685	1.3	1.3	255	16
2023-09-29T18:00	3335	683	1.2	1.2	255	16
2023-09-29T18:00	3363	681	1.0	1.0	255	16
2023-09-29T18:00	3392	678	0.9	0.9	255	16
2023-09-29T18:00	3417	676	0.7	0.7	255	16
2023-09-29T18:00	3445	674	0.6	0.6	256	17
2023-09-29T18:00	3474	671	0.4	0.4	256	17
2023-09-29T18:00	3502	669	0.3	0.3	256	17
2023-09-29T18:00	3530	667	-0.1	-0.1	256	17
2023-09-29T18:00	3555	665	-0.1	-0.1	257	17
2023-09-29T18:00	3580	663	-0.5	-0.5	258	17
2023-09-29T18:00	3606	661	-0.9	-1.0	259	17
2023-09-29T18:00	3630	659	-1.1	-1.4	260	17
2023-09-29T18:00	3651	657	-1.5		261	18
2023-09-29T18:00	3672	655	-2.0	-4.8	262	18
2023-09-29T18:00	3700	653	-2.4	-5.4	262	18
2023-09-29T18:00	3732	650	-2.3	-5.6	262	18
2023-09-29T18:00	3756	648	-2.5	-6.0	261	18
2023-09-29T18:00	3789	646	-2.6	-6.5	259	18
2023-09-29T18:00	3819	643	-2.8	-6.6	258	18
2023-09-29T18:00	3847	641	-2.8	-6.3	256	18
2023-09-29T18:00	3871	639	-2.9	-6.9	256	18
2023-09-29T18:00	3898	637	-3.0	-7.2	255	18
2023-09-29T18:00	3927	634	-3.2	-8.2	256	18
2023-09-29T18:00	3949	633	-3.4	-9.3	256	18
2023-09-29T18:00	3974	631	-3.4	-9.3	257	18
2023-09-29T18:00	4000	629	-3.6	-9.8	258	18
2023-09-29T18:00	4022	627	-3.6	-9.8	258	18
2023-09-29T18:00	4045	625	-3.7	-9.6	258	18
2023-09-29T18:00	4068	623	-3.6	-8.4	258	18
2023-09-29T18:00	4092	621	-3.4	-6.3	257	17
2023-09-29T18:00	4116	619	-3.4	-5.5	256	16
2023-09-29T18:00	4146	617	-3.5	-5.3	255	16
2023-09-29T18:00	4170	615	-3.6	-4.5	254	16
2023-09-29T18:00	4196	613	-3.7	-3.8	254	16
2023-09-29T18:00	4227	611	-3.8	-3.8	254	16
2023-09-29T18:00	4259	608	-3.9	-3.9	254	16
2023-09-29T18:00	4289	606	-4.1	-4.1	254	16
2023-09-29T18:00	4314	604	-4.3	-4.3	253	15
2023-09-29T18:00	4334	603	-4.5	-4.5	252	15
2023-09-29T18:00	4350	601	-4.6	-4.6	251	15
2023-09-29T18:00	4371	600	-4.3	-4.4	250	15
2023-09-29T18:00	4398	598	-4.3	-4.7	248	15
2023-09-29T18:00	4427	595	-4.5	-4.9	247	15
2023-09-29T18:00	4454	593	-4.7	-5.3	246	15
2023-09-29T18:00	4485	591	-4.8	-5.7	245	14
2023-09-29T18:00	4506	589	-4.9	-5.8	245	14
2023-09-29T18:00	4529	588	-5.0	-5.8	245	14
2023-09-29T18:00	4555	586	-5.2	-5.9	246	14
2023-09-29T18:00	4580	584	-5.4	-6.1	246	14
2023-09-29T18:00	4609	582	-5.6	-6.3	247	14
2023-09-29T18:00	4635	580	-5.7	-6.7	247	14
2023-09-29T18:00	4658	578	-5.8	-6.8	248	14
2023-09-29T18:00	4682	576	-6.0	-6.8	249	15
2023-09-29T18:00	4704	575	-6.2	-6.9	250	15
2023-09-29T18:00	4723	573	-6.3	-6.9	251	15
2023-09-29T18:00	4744	572	-6.5	-7.1	251	14
2023-09-29T18:00	4770	570	-6.7	-7.2	250	14
2023-09-29T18:00	4791	568	-6.8	-7.3	249	14
2023-09-29T18:00	4817	567	-7.0	-7.4	247	13
2023-09-29T18:00	4841	565	-7.2	-7.5	245	13
2023-09-29T18:00	4860	563	-7.3	-7.6	243	13
2023-09-29T18:00	4884	562	-7.4	-7.8	241	13
2023-09-29T18:00	4911	560	-7.5	-8.2	238	13
2023-09-29T18:00	4930	558	-7.5	-8.6	235	13
2023-09-29T18:00	4954	557	-7.4	-9.2	233	13
2023-09-29T18:00	4980	555	-7.5	-9.7	232	13
2023-09-29T18:00	4995	554	-7.3	-10.0	232	13
2023-09-29T18:00	5012	553	-7.4	-10.1	233	13
2023-09-29T18:00	5032	551	-7.5	-10.1	234	13
2023-09-29T18:00	5048	550	-7.6	-10.1	235	13
2023-09-29T18:00	5065	549	-7.8	-10.2	235	13
2023-09-29T18:00	5083	548	-7.9	-10.2	235	13
2023-09-29T18:00	5102	546	-8.1	-10.5	235	13
2023-09-29T18:00	5122	545	-8.2	-10.4	235	13
2023-09-29T18:00	5140	544	-8.4	-10.5	236	13
2023-09-29T18:00	5161	542	-8.5	-10.5	236	13
2023-09-29T18:00	5183	541	-8.7	-10.6	237	12
2023-09-29T18:00	5205	539	-8.9	-10.7	237	12
2023-09-29T18:00	5229	537	-9.1	-10.8	237	12
2023-09-29T18:00	5253	536	-9.2	-10.9	236	12
2023-09-29T18:00	5276	534	-9.4	-11.0	235	12
2023-09-29T18:00	5301	532	-9.6	-11.0	236	12
2023-09-29T18:00	5334	530	-9.8	-11.3	237	12
2023-09-29T18:00	5365	528	-10.0	-11.4	239	12
2023-09-29T18:00	5393	526	-10.1	-11.8	242	13
2023-09-29T18:00	5425	524	-10.2	-12.5	245	14
2023-09-29T18:00	5453	522	-10.3	-13.0	247	14
2023-09-29T18:00	5479	520	-10.7	-12.9	249	15
2023-09-29T18:00	5507	518	-10.9	-13.1	249	15
2023-09-29T18:00	5528	517	-10.9	-13.8	250	15
2023-09-29T18:00	5550	516	-11.1	-14.0	252	15
2023-09-29T18:00	5571	514	-11.3	-14.1	253	15
2023-09-29T18:00	5597	512	-11.6	-14.4	255	15
2023-09-29T18:00	5624	510	-11.8	-14.6	257	15
2023-09-29T18:00	5659	508	-12.0	-16.0	258	15
2023-09-29T18:00	5682	507	-12.2	-16.2	258	15
2023-09-29T18:00	5705	505	-12.4	-16.8	257	15
2023-09-29T18:00	5733	503	-12.6	-17.6	256	16
2023-09-29T18:00	5759	502	-12.9	-18.0	255	17
2023-09-29T18:00	5784	500	-12.9	-19.0	254	17
2023-09-29T18:00	5806	499	-12.8	-19.6	253	18
2023-09-29T18:00	5828	497	-12.9	-19.8	253	18
2023-09-29T18:00	5847	496	-13.0	-19.6	253	18
2023-09-29T18:00	5868	494	-13.1	-19.6	252	18
2023-09-29T18:00	5891	493	-13.3	-19.4	252	18
2023-09-29T18:00	5912	492	-13.5	-18.8	252	18
2023-09-29T18:00	5935	490	-13.6	-18.6	251	18
2023-09-29T18:00	5958	489	-13.8	-18.4	251	18
2023-09-29T18:00	5981	487	-14.0	-18.5	250	18
2023-09-29T18:00	6003	486	-14.1	-18.9	250	18
2023-09-29T18:00	6028	484	-14.3	-18.7	251	18
2023-09-29T18:00	6051	483	-14.5	-17.8	251	18
2023-09-29T18:00	6078	481	-14.7	-16.6	251	18
2023-09-29T18:00	6106	479	-14.9	-16.2	251	18
2023-09-29T18:00	6128	478	-15.1	-16.3	251	18
2023-09-29T18:00	6152	476	-15.3	-16.3	251	18
2023-09-29T18:00	6176	475	-15.5	-16.3	250	18
2023-09-29T18:00	6199	473	-15.8	-16.5	249	18
2023-09-29T18:00	6223	472	-15.9	-16.4	248	18
2023-09-29T18:00	6249	470	-16.1	-16.5	247	18
2023-09-29T18:00	6277	469	-16.3	-16.7	246	19
2023-09-29T18:00	6299	467	-16.4	-17.4	245	19
2023-09-29T18:00	6325	466	-16.5	-18.1	244	19
2023-09-29T18:00	6348	464	-16.7	-18.5	242	19
2023-09-29T18:00	6379	462	-16.8	-19.3	241	19
2023-09-29T18:00	6411	460	-17.0	-20.0	239	19
2023-09-29T18:00	6434	459	-17.1	-19.8	238	19
2023-09-29T18:00	6457	457	-17.3	-19.6	237	19
2023-09-29T18:00	6479	456	-17.5	-20.1	236	18
2023-09-29T18:00	6500	455	-17.7	-20.4	237	18
2023-09-29T18:00	6523	453	-17.9	-21.0	237	17
2023-09-29T18:00	6544	452	-18.1	-21.1	237	17
2023-09-29T18:00	6569	451	-18.3	-20.5	236	17
2023-09-29T18:00	6599	449	-18.5	-20.6	235	17
2023-09-29T18:00	6625	447	-18.8	-20.7	235	17
2023-09-29T18:00	6648	446	-19.0	-20.7	235	18
2023-09-29T18:00	6670	445	-19.1	-20.6	234	18
2023-09-29T18:00	6692	443	-19.4	-20.9	235	18
2023-09-29T18:00	6714	442	-19.6	-21.0	235	18
2023-09-29T18:00	6737	441	-19.8	-21.5	234	18
2023-09-29T18:00	6759	439	-20.0	-21.6	234	18
2023-09-29T18:00	6782	438	-20.2	-22.0	233	18
2023-09-29T18:00	6805	437	-20.4	-22.4	233	18
2023-09-29T18:00	6829	435	-20.6	-22.8	232	18
2023-09-29T18:00	6854	434	-20.8	-22.9	232	18
2023-09-29T18:00	6882	432	-21.1	-22.1	231	17
2023-09-29T18:00	6908	430	-21.3		231	17
2023-09-29T18:00	6939	429	-21.6	-22.6	231	17
2023-09-29T18:00	6966	427	-21.8	-23.1	230	17
2023-09-29T18:00	6989	426	-22.1	-23.2	230	17
2023-09-29T18:00	7012	424	-22.3	-23.3	230	17
2023-09-29T18:00	7038	423	-22.5	-23.5	230	17
2023-09-29T18:00	7063	421	-22.7	-23.7	231	16
2023-09-29T18:00	7095	420	-23.0	-25.0	232	16
2023-09-29T18:00	7126	418	-23.2	-26.4	235	16
2023-09-29T18:00	7154	416	-23.4	-27.8	239	16
2023-09-29T18:00	7184	415	-23.6	-29.4	243	16
2023-09-29T18:00	7211	413	-23.6	-32.3	247	16
2023-09-29T18:00	7232	412	-23.6	-35.7	250	17
2023-09-29T18:00	7258	411	-23.3	-45.6	252	17
2023-09-29T18:00	7281	409	-23.1	-49.6	253	18
2023-09-29T18:00	7308	408	-22.9	-48.9	253	18
2023-09-29T18:00	7337	406	-22.9	-47.6	254	18
2023-09-29T18:00	7369	404	-23.2	-47.6	254	18
2023-09-29T18:00	7397	403	-23.4	-47.5	255	18
2023-09-29T18:00	7427	401	-23.7	-47.8	255	18
2023-09-29T18:00	7452	400	-24.0	-48.8	255	19
2023-09-29T18:00	7475	398	-24.2	-48.3	255	19
2023-09-29T18:00	7497	397	-24.4	-48.6	254	19
2023-09-29T18:00	7517	396	-24.4	-48.7	253	19
2023-09-29T18:00	7538	395	-24.4	-48.9	252	19
2023-09-29T18:00	7560	394	-24.5	-48.9	252	19
2023-09-29T18:00	7579	393	-24.6	-50.1	251	20
2023-09-29T18:00	7599	392	-24.7	-50.2	250	20
2023-09-29T18:00	7619	391	-24.8	-49.1	250	20
2023-09-29T18:00	7638	390	-24.9	-50.2	249	20
2023-09-29T18:00	7661	388	-25.1	-50.1	249	20
2023-09-29T18:00	7681	387	-25.2	-50.1	249	20
2023-09-29T18:00	7702	386	-25.4	-50.5	249	20
2023-09-29T18:00	7721	385	-25.5	-50.4	249	20
2023-09-29T18:00	7742	384	-25.5	-51.1	250	20
2023-09-29T18:00	7760	383	-25.5	-48.5	251	20
2023-09-29T18:00	7781	382	-25.7	-47.9	252	20
2023-09-29T18:00	7803	381	-25.9	-48.2	253	20
2023-09-29T18:00	7823	380	-26.1	-48.5	253	20
2023-09-29T18:00	7843	379	-26.2	-47.6	254	20
2023-09-29T18:00	7862	378	-26.3	-46.4	255	20
2023-09-29T18:00	7881	377	-26.3	-45.9	256	20
2023-09-29T18:00	7900	376	-26.5	-46.0	257	20
2023-09-29T18:00	7925	375	-26.7	-46.3	258	21
2023-09-29T18:00	7944	374	-26.8	-45.9	259	21
2023-09-29T18:00	7962	373	-26.9	-44.1	259	21
2023-09-29T18:00	7984	371	-26.9	-43.4	259	21
2023-09-29T18:00	8003	370	-27.0	-43.8	259	21
2023-09-29T18:00	8023	369	-27.1	-43.8	259	22
2023-09-29T18:00	8042	368	-27.3	-43.4	259	22
2023-09-29T18:00	8062	367	-27.4	-43.2	258	22
2023-09-29T18:00	8083	366	-27.6	-43.1	258	22
2023-09-29T18:00	8104	365	-27.7	-43.5	258	22
2023-09-29T18:00	8127	364	-27.9	-43.7	258	23
2023-09-29T18:00	8147	363	-28.1	-43.9	258	23
2023-09-29T18:00	8165	362	-28.2	-43.6	257	23
2023-09-29T18:00	8187	361	-28.4	-43.8	257	23
2023-09-29T18:00	8207	360	-28.6	-43.8	256	23
2023-09-29T18:00	8226	359	-28.7	-43.8	256	23
2023-09-29T18:00	8248	358	-28.8	-44.5	256	24
2023-09-29T18:00	8267	357	-29.0	-44.4	256	24
2023-09-29T18:00	8286	356	-29.1	-44.6	256	24
2023-09-29T18:00	8305	355	-29.3	-44.5	257	24
2023-09-29T18:00	8326	354	-29.4	-43.7	257	24
2023-09-29T18:00	8344	353	-29.6	-44.1	257	24
2023-09-29T18:00	8362	352	-29.7	-43.8	258	24
2023-09-29T18:00	8383	351	-29.9	-43.3	258	24
2023-09-29T18:00	8403	350	-30.1	-42.9	258	24
2023-09-29T18:00	8421	349	-30.2	-41.3	259	24
2023-09-29T18:00	8441	348	-30.4	-40.6	259	25
2023-09-29T18:00	8462	347	-30.6	-40.2	259	25
2023-09-29T18:00	8482	346	-30.8	-39.9	259	25
2023-09-29T18:00	8502	345	-31.0	-40.0	258	25
2023-09-29T18:00	8527	344	-31.3	-39.8	258	25
2023-09-29T18:00	8545	343	-31.4	-39.8	257	25
2023-09-29T18:00	8568	342	-31.6	-39.9	257	25
2023-09-29T18:00	8589	341	-31.8	-40.1	256	25
2023-09-29T18:00	8611	340	-32.0	-40.3	256	25
2023-09-29T18:00	8629	339	-32.2	-40.2	256	25
2023-09-29T18:00	8650	338	-32.4	-40.1	255	26
2023-09-29T18:00	8668	337	-32.5	-40.2	255	26
2023-09-29T18:00	8688	337	-32.7	-40.3	255	26
2023-09-29T18:00	8707	336	-32.8	-40.2	254	26
2023-09-29T18:00	8727	335	-33.0	-39.8	254	26
2023-09-29T18:00	8746	334	-33.1	-39.1	255	26
2023-09-29T18:00	8764	333	-33.3	-39.3	255	25
2023-09-29T18:00	8784	332	-33.5	-39.2	255	25
2023-09-29T18:00	8804	331	-33.7	-39.1	255	25
2023-09-29T18:00	8822	330	-33.9	-39.2	255	25
2023-09-29T18:00	8843	329	-34.1	-39.2	255	26
2023-09-29T18:00	8862	328	-34.3	-39.3	255	26
2023-09-29T18:00	8882	327	-34.5	-39.5	255	26
2023-09-29T18:00	8900	326	-34.6	-40.2	255	26
2023-09-29T18:00	8920	326	-34.7	-41.0	255	26
2023-09-29T18:00	8939	325	-34.8	-41.5	254	26
2023-09-29T18:00	8959	324	-34.9	-41.7	254	26
2023-09-29T18:00	8979	323	-35.1	-42.4	254	25
2023-09-29T18:00	8998	322	-35.2	-43.3	254	25
2023-09-29T18:00	9018	321	-35.4	-44.2	254	25
2023-09-29T18:00	9039	320	-35.5	-44.8	254	25
2023-09-29T18:00	9057	319	-35.7	-45.0	254	25
2023-09-29T18:00	9078	318	-35.9		253	26
2023-09-29T18:00	9098	317	-36.1	-44.7	253	26
2023-09-29T18:00	9115	317	-36.2	-44.6	253	26
2023-09-29T18:00	9134	316	-36.4	-44.7	252	26
2023-09-29T18:00	9153	315	-36.6	-45.0	252	26
2023-09-29T18:00	9175	314	-36.8	-45.4	252	26
2023-09-29T18:00	9193	313	-36.9	-45.9	251	26
2023-09-29T18:00	9212	312	-37.1	-45.8	251	26
2023-09-29T18:00	9230	311	-37.3	-45.5	251	26
2023-09-29T18:00	9249	311	-37.5	-46.1	251	26
2023-09-29T18:00	9268	310	-37.6	-46.5	251	26
2023-09-29T18:00	9288	309	-37.8	-46.6	251	26
2023-09-29T18:00	9305	308	-38.0	-46.8	251	26
2023-09-29T18:00	9324	307	-38.2	-46.8	250	26
2023-09-29T18:00	9345	306	-38.4	-47.1	250	26
2023-09-29T18:00	9364	305	-38.5	-47.3	249	26
2023-09-29T18:00	9385	304	-38.7	-47.7	249	26
2023-09-29T18:00	9406	304	-38.9	-47.9	249	26
2023-09-29T18:00	9425	303	-39.1	-47.9	249	26
2023-09-29T18:00	9444	302	-39.3	-47.8	249	26
2023-09-29T18:00	9461	301	-39.4	-47.7	249	26
2023-09-29T18:00	9479	300	-39.6	-47.5	249	26
2023-09-29T18:00	9500	299	-39.8	-47.7	248	26
2023-09-29T18:00	9520	298	-40.0	-47.8	248	26
2023-09-29T18:00	9538	298	-40.1	-47.4	247	26
2023-09-29T18:00	9558	297	-40.3	-47.2	247	26
2023-09-29T18:00	9579	296	-40.5	-47.5	247	26
2023-09-29T18:00	9604	295	-40.7	-47.9	248	26
2023-09-29T18:00	9624	294	-40.9	-48.8	248	26
2023-09-29T18:00	9647	293	-41.1	-50.0	249	26
2023-09-29T18:00	9669	292	-41.3	-50.0	250	26
2023-09-29T18:00	9688	291	-41.5	-51.3	250	26
2023-09-29T18:00	9712	290	-41.7	-51.5	251	26
2023-09-29T18:00	9734	289	-41.9	-51.8	251	26
2023-09-29T18:00	9751	288	-42.0	-52.6	251	26
2023-09-29T18:00	9770	288	-42.1	-53.4	252	26
2023-09-29T18:00	9789	287	-42.3	-53.4	252	26
2023-09-29T18:00	9804	286	-42.4	-53.6	252	26
2023-09-29T18:00	9825	285	-42.5	-54.2	252	26
2023-09-29T18:00	9845	285	-42.6	-54.5	252	26
2023-09-29T18:00	9863	284	-42.8	-54.7	253	26
2023-09-29T18:00	9881	283	-42.9	-54.3	253	26
2023-09-29T18:00	9899	282	-43.0	-53.6	254	26
2023-09-29T18:00	9915	282	-43.1	-53.4	254	26
2023-09-29T18:00	9934	281	-43.3	-53.2	254	26
2023-09-29T18:00	9952	280	-43.4	-53.0	255	26
2023-09-29T18:00	9968	279	-43.6	-53.2	255	26
2023-09-29T18:00	9984	279	-43.7	-52.9	255	26
2023-09-29T18:00	10003	278	-43.9	-52.3	255	26
2023-09-29T18:00	10022	277	-44.1	-52.0	256	27
2023-09-29T18:00	10041	276	-44.2	-51.9	256	27
2023-09-29T18:00	10059	276	-44.4	-52.0	256	27
2023-09-29T18:00	10077	275	-44.6	-52.0	256	27
2023-09-29T18:00	10094	274	-44.8	-52.0	256	27
2023-09-29T18:00	10111	273	-44.9	-51.8	256	27
2023-09-29T18:00	10131	273	-45.0	-51.8	256	27
2023-09-29T18:00	10148	272	-45.2	-52.3	255	27
2023-09-29T18:00	10168	271	-45.3	-52.7	255	27
2023-09-29T18:00	10189	270	-45.5	-52.6	254	27
2023-09-29T18:00	10209	269	-45.7	-52.4	254	27
2023-09-29T18:00	10229	269	-45.9	-52.5	254	27
2023-09-29T18:00	10251	268	-46.1	-52.6	253	26
2023-09-29T18:00	10273	267	-46.3	-52.6	253	26
2023-09-29T18:00	10291	266	-46.5	-52.8	253	26
2023-09-29T18:00	10308	265	-46.6	-52.8	252	26
2023-09-29T18:00	10327	265	-46.8	-52.6	252	26
2023-09-29T18:00	10346	264	-46.9	-52.5	252	26
2023-09-29T18:00	10363	263	-47.1	-52.7	252	26
2023-09-29T18:00	10379	263	-47.2	-52.8	252	26
2023-09-29T18:00	10398	262	-47.4	-52.9	252	26
2023-09-29T18:00	10416	261	-47.6	-53.1	252	26
2023-09-29T18:00	10434	260	-47.7	-53.2	252	26
2023-09-29T18:00	10451	260	-47.9	-53.2	252	26
2023-09-29T18:00	10469	259	-48.1	-53.4	252	26
2023-09-29T18:00	10486	258	-48.2	-53.4	252	26
2023-09-29T18:00	10503	258	-48.4	-53.5	252	26
2023-09-29T18:00	10520	257	-48.6	-53.5	252	26
2023-09-29T18:00	10539	256	-48.7	-53.7	251	26
2023-09-29T18:00	10556	256	-48.9	-54.1	251	26
2023-09-29T18:00	10576	255	-49.1	-54.4	251	26
2023-09-29T18:00	10594	254	-49.2	-54.5	250	27
2023-09-29T18:00	10613	253	-49.4	-54.7	250	27
2023-09-29T18:00	10634	253	-49.6	-55.1	250	27
2023-09-29T18:00	10654	252	-49.7	-55.8	250	27
2023-09-29T18:00	10674	251	-49.8	-56.6	249	28
2023-09-29T18:00	10696	250	-50.0	-56.7	249	28
2023-09-29T18:00	10714	250	-50.2	-56.6	249	28
2023-09-29T18:00	10735	249	-50.4	-56.5	249	28
2023-09-29T18:00	10757	248	-50.6	-56.6	248	28
2023-09-29T18:00	10776	247	-50.8	-56.8	248	28
2023-09-29T18:00	10794	247	-51.0	-57.0	248	28
2023-09-29T18:00	10813	246	-51.1	-57.1	248	28
2023-09-29T18:00	10835	245	-51.3	-57.2	248	28
2023-09-29T18:00	10856	244	-51.5	-57.3	248	28
2023-09-29T18:00	10877	243	-51.7	-57.4	247	28
2023-09-29T18:00	10895	243	-51.9	-57.6	247	28
2023-09-29T18:00	10918	242	-52.0	-57.8	246	28
2023-09-29T18:00	10938	241	-52.2	-58.1	245	28
2023-09-29T18:00	10961	240	-52.4	-58.5	245	27
2023-09-29T18:00	10983	240	-52.5	-58.8	244	27
2023-09-29T18:00	11002	239	-52.6	-58.9	244	28
2023-09-29T18:00	11025	238	-52.8	-59.0	244	28
2023-09-29T18:00	11045	237	-53.0	-58.9	244	28
2023-09-29T18:00	11065	236	-53.2	-58.9	244	28
2023-09-29T18:00	11085	236	-53.3	-58.9	244	28
2023-09-29T18:00	11104	235	-53.5	-59.1	244	28
2023-09-29T18:00	11125	234	-53.7	-59.3	244	28
2023-09-29T18:00	11147	233	-53.8	-59.4	244	28
2023-09-29T18:00	11170	233	-54.1	-59.7	244	28
2023-09-29T18:00	11193	232	-54.2	-59.8	244	28
2023-09-29T18:00	11225	231	-54.5	-60.2	244	27
2023-09-29T18:00	11252	230	-54.8	-60.3	244	27
2023-09-29T18:00	11286	228	-55.1	-60.4	245	27
2023-09-29T18:00	11315	227	-55.4	-60.4	246	27
2023-09-29T18:00	11333	227	-55.6	-60.5	247	27
2023-09-29T18:00	11361	226	-55.8	-60.7	248	27
2023-09-29T18:00	11393	225	-56.1	-61.0	248	27
2023-09-29T18:00	11414	224	-56.3	-61.1	249	27
2023-09-29T18:00	11433	223	-56.5	-61.3	249	27
2023-09-29T18:00	11453	223	-56.6	-61.4	250	27
2023-09-29T18:00	11471	222	-56.7	-61.5	250	27
2023-09-29T18:00	11492	221	-56.9	-61.6	249	26
2023-09-29T18:00	11513	220	-57.1	-61.7	249	26
2023-09-29T18:00	11533	220	-57.2	-61.7	248	26
2023-09-29T18:00	11553	219	-57.4	-61.9	247	26
2023-09-29T18:00	11574	218	-57.5	-62.0	246	26
2023-09-29T18:00	11600	217	-57.7	-62.2	246	26
2023-09-29T18:00	11624	217	-57.8	-62.4	245	26
2023-09-29T18:00	11645	216	-57.9	-62.7	244	26
2023-09-29T18:00	11666	215	-58.0	-62.9	243	26
2023-09-29T18:00	11685	215	-58.1	-63.1	242	26
2023-09-29T18:00	11704	214	-58.2	-63.3	241	26
2023-09-29T18:00	11722	213	-58.3	-63.7	240	26
2023-09-29T18:00	11742	213	-58.4	-64.1	240	27
2023-09-29T18:00	11761	212	-58.3	-64.4	239	27
2023-09-29T18:00	11779	211	-58.4	-64.8	239	27
2023-09-29T18:00	11801	211	-58.3	-65.0	240	27
2023-09-29T18:00	11822	210	-58.3	-65.3	240	28
2023-09-29T18:00	11841	209	-58.2	-65.6	241	28
2023-09-29T18:00	11859	209	-58.1	-66.1	242	28
2023-09-29T18:00	11878	208	-57.8	-66.3	242	28
2023-09-29T18:00	11898	207	-57.9	-66.6	243	27
2023-09-29T18:00	11918	207	-57.9	-66.6	243	27
2023-09-29T18:00	11936	206	-57.8	-66.5	243	27
2023-09-29T18:00	11955	206	-57.8	-66.6	243	26
2023-09-29T18:00	11974	205	-57.8	-66.9	243	26
2023-09-29T18:00	11992	204	-57.8	-67.2	242	26
2023-09-29T18:00	12011	204	-57.6	-67.5	241	26
2023-09-29T18:00	12032	203	-57.7	-68.0	239	25
2023-09-29T18:00	12053	202	-57.5	-68.2	238	25
2023-09-29T18:00	12073	202	-57.3	-68.4	237	26
2023-09-29T18:00	12092	201	-57.2	-68.7	237	26
2023-09-29T18:00	12110	200	-56.9	-68.6	237	26
2023-09-29T18:00	12129	200	-56.5	-68.1	237	27
2023-09-29T18:00	12148	199	-56.5	-68.0	238	27
2023-09-29T18:00	12167	199	-56.5	-68.0	239	27
2023-09-29T18:00	12188	198	-56.6	-68.1	240	27
2023-09-29T18:00	12208	197	-56.6	-68.1	241	28
2023-09-29T18:00	12229	197	-56.8	-68.3	242	28
2023-09-29T18:00	12250	196	-56.9	-68.5	244	28
2023-09-29T18:00	12271	195	-56.8	-68.7	245	28
2023-09-29T18:00	12292	195	-56.4	-68.7	245	28
2023-09-29T18:00	12313	194	-56.1	-68.9	246	28
2023-09-29T18:00	12334	194	-56.0		246	28
2023-09-29T18:00	12354	193	-56.0	-69.4	247	27
2023-09-29T18:00	12375	192	-56.0	-69.5	247	27
2023-09-29T18:00	12396	192	-56.1	-69.6	247	27
2023-09-29T18:00	12417	191	-56.1	-69.7	247	26
2023-09-29T18:00	12436	190	-56.2	-70.0	247	26
2023-09-29T18:00	12458	190	-56.2	-70.1	247	26
2023-09-29T18:00	12480	189	-56.3	-70.4	247	26
2023-09-29T18:00	12501	189	-56.2	-70.4	247	26
2023-09-29T18:00	12520	188	-56.3	-70.5	247	25
2023-09-29T18:00	12543	187	-56.5	-70.6	248	25
2023-09-29T18:00	12564	187	-56.6	-70.7	249	25
2023-09-29T18:00	12583	186	-56.7	-70.8	249	25
2023-09-29T18:00	12602	186	-56.9	-71.0	250	25
2023-09-29T18:00	12623	185	-57.0	-71.3	250	25
2023-09-29T18:00	12650	184	-56.9	-71.7	250	24
2023-09-29T18:00	12676	183	-56.4	-72.0	249	23
2023-09-29T18:00	12696	183	-56.2	-72.5	248	23
2023-09-29T18:00	12721	182	-56.3	-72.9	247	23
2023-09-29T18:00	12741	182	-56.5	-73.2	247	23
2023-09-29T18:00	12761	181	-56.7	-73.3	246	22
2023-09-29T18:00	12782	180	-56.8	-73.4	245	22
2023-09-29T18:00	12801	180	-56.8	-73.7	245	22
2023-09-29T18:00	12822	179	-56.7	-73.9	245	23
2023-09-29T18:00	12846	179	-56.8	-74.2	245	23
2023-09-29T18:00	12869	178	-56.9	-74.5	245	24
2023-09-29T18:00	12893	177	-57.0	-74.6	246	24
2023-09-29T18:00	12917	177	-56.9	-74.6	247	25
2023-09-29T18:00	12937	176	-57.0	-74.7	249	25
2023-09-29T18:00	12959	175	-57.1	-74.9	250	26
2023-09-29T18:00	12981	175	-57.2	-75.0	251	26
2023-09-29T18:00	13000	174	-57.3	-75.1	252	26
2023-09-29T18:00	13019	174	-57.3	-75.1	253	26
2023-09-29T18:00	13038	173	-57.3	-74.9	254	26
2023-09-29T18:00	13059	173	-57.3	-74.9	255	26
2023-09-29T18:00	13078	172	-57.4	-75.0	256	26
2023-09-29T18:00	13096	172	-57.5	-75.1	257	26
2023-09-29T18:00	13115	171	-57.6	-75.2	258	26
2023-09-29T18:00	13134	171	-57.6	-75.2	258	25
2023-09-29T18:00	13154	170	-57.7	-75.3	258	25
2023-09-29T18:00	13173	170	-57.8	-75.3	258	25
2023-09-29T18:00	13191	169	-57.9	-75.4	258	24
2023-09-29T18:00	13211	169	-58.0	-75.4	258	24
2023-09-29T18:00	13229	168	-58.1	-75.4	258	24
2023-09-29T18:00	13247	168	-58.2	-75.4	258	24
2023-09-29T18:00	13268	167	-58.4	-75.5	258	24
2023-09-29T18:00	13287	167	-58.5	-75.5	259	24
2023-09-29T18:00	13305	166	-58.6	-75.6	259	24
2023-09-29T18:00	13326	165	-58.8	-75.8	259	24
2023-09-29T18:00	13345	165	-58.9	-75.9	259	24
2023-09-29T18:00	13364	164	-58.8	-75.9	259	24
2023-09-29T18:00	13385	164	-58.9	-76.0	258	24
2023-09-29T18:00	13402	163	-59.0	-76.1	257	24
2023-09-29T18:00	13420	163	-59.0	-76.1	257	24
2023-09-29T18:00	13440	162	-59.1	-76.2	256	25
2023-09-29T18:00	13461	162	-59.2	-76.3	256	25
2023-09-29T18:00	13481	161	-59.3	-76.4	257	25
2023-09-29T18:00	13498	161	-59.4	-76.5	257	25
2023-09-29T18:00	13518	160	-59.2	-76.5	257	24
2023-09-29T18:00	13538	160	-59.2	-76.7	257	24
2023-09-29T18:00	13560	159	-59.3	-77.1	256	23
2023-09-29T18:00	13577	159	-59.2	-77.5	256	23
2023-09-29T18:00	13596	159	-58.6	-77.6	255	23
2023-09-29T18:00	13615	158	-58.3	-77.9	254	23
2023-09-29T18:00	13635	158	-58.2		254	23
2023-09-29T18:00	13652	157	-58.3	-78.2	253	23
2023-09-29T18:00	13673	157	-58.4	-78.1	253	24
2023-09-29T18:00	13692	156	-58.6	-78.0	254	24
2023-09-29T18:00	13710	156	-58.7	-78.1	254	24
2023-09-29T18:00	13731	155	-58.8	-78.1	254	25
2023-09-29T18:00	13750	155	-59.0	-78.2	255	25
2023-09-29T18:00	13771	154	-59.1	-78.2	255	25
2023-09-29T18:00	13790	154	-59.3	-78.4	255	26
2023-09-29T18:00	13809	153	-59.4	-78.4	256	26
2023-09-29T18:00	13830	153	-59.5	-78.5	257	27
2023-09-29T18:00	13851	152	-59.6	-78.6	258	27
2023-09-29T18:00	13869	152	-59.4	-78.6	260	27
2023-09-29T18:00	13888	151	-59.2	-78.5	261	27
2023-09-29T18:00	13909	151	-59.1	-78.6	262	27
2023-09-29T18:00	13927	150	-59.0	-78.7	263	27
2023-09-29T18:00	13947	150	-59.0	-78.8	264	27
2023-09-29T18:00	13967	149	-59.0	-78.9	265	27
2023-09-29T18:00	13985	149	-58.9	-79.1	266	27
2023-09-29T18:00	14006	148	-58.6	-78.9	267	27
2023-09-29T18:00	14025	148	-58.6	-79.2	267	26
2023-09-29T18:00	14045	148	-58.7	-79.5	268	26
2023-09-29T18:00	14068	147	-58.4	-79.7	268	25
2023-09-29T18:00	14091	146	-58.1	-79.7	268	24
2023-09-29T18:00	14112	146	-58.0	-79.8	268	23
2023-09-29T18:00	14138	145	-58.1	-79.9	268	22
2023-09-29T18:00	14163	145	-58.2	-79.8	268	21
2023-09-29T18:00	14186	144	-58.4	-80.0	267	21
2023-09-29T18:00	14209	144	-58.5	-80.1	266	20
2023-09-29T18:00	14230	143	-58.7	-80.4	264	19
2023-09-29T18:00	14251	143	-58.8	-80.5	263	19
2023-09-29T18:00	14274	142	-58.9	-80.5	261	19
2023-09-29T18:00	14295	142	-59.0	-80.6	260	19
2023-09-29T18:00	14316	141	-59.1	-80.7	259	19
2023-09-29T18:00	14338	141	-59.1	-80.7	259	19
2023-09-29T18:00	14359	140	-59.1	-80.7	258	19
2023-09-29T18:00	14381	140	-59.1	-80.7	258	19
2023-09-29T18:00	14402	139	-59.2	-80.8	257	19
2023-09-29T18:00	14424	139	-59.1	-80.7	256	19
2023-09-29T18:00	14446	138	-59.1	-80.7	255	19
2023-09-29T18:00	14468	138	-59.1	-80.7	254	19
2023-09-29T18:00	14488	138	-59.2	-80.6	254	20
2023-09-29T18:00	14508	137	-59.3	-80.6	254	20
2023-09-29T18:00	14530	137	-59.5	-80.6	253	20
2023-09-29T18:00	14552	136	-59.6	-80.8	253	20
2023-09-29T18:00	14572	136	-59.8	-81.0	253	21
2023-09-29T18:00	14594	135	-60.0	-81.0	252	21
2023-09-29T18:00	14617	135	-60.2	-81.0	252	21
2023-09-29T18:00	14638	134	-60.4	-81.2	252	21
2023-09-29T18:00	14660	134	-60.5	-81.1	252	22
2023-09-29T18:00	14681	133	-60.6	-81.2	252	22
2023-09-29T18:00	14703	133	-60.8	-81.4	252	23
2023-09-29T18:00	14725	132	-60.9	-81.5	253	23
2023-09-29T18:00	14747	132	-60.9	-81.5	253	24
2023-09-29T18:00	14767	131	-60.8	-81.4	254	24
2023-09-29T18:00	14790	131	-60.8	-81.5	256	24
2023-09-29T18:00	14810	131	-60.8	-81.5	257	25
2023-09-29T18:00	14832	130	-60.7	-81.6	258	25
2023-09-29T18:00	14852	130	-60.5	-81.5	259	25
2023-09-29T18:00	14873	129	-60.5	-81.5	260	25
2023-09-29T18:00	14893	129	-60.4	-81.6	260	25
2023-09-29T18:00	14913	128	-60.1	-81.5	260	25
2023-09-29T18:00	14934	128	-59.8	-81.4	261	24
2023-09-29T18:00	14955	128	-59.8	-81.7	261	24
2023-09-29T18:00	14977	127	-59.8	-81.9	260	23
2023-09-29T18:00	14997	127	-59.8	-82.1	260	23
2023-09-29T18:00	15017	126	-59.4	-81.9	259	22
2023-09-29T18:00	15035	126	-59.4	-81.9	258	22
2023-09-29T18:00	15057	126	-59.4	-81.9	257	22
2023-09-29T18:00	15076	125	-59.3	-81.8	257	22
2023-09-29T18:00	15097	125	-59.4	-81.9	257	22
2023-09-29T18:00	15117	124	-59.4	-81.7	257	21
2023-09-29T18:00	15137	124	-59.5	-81.8	257	21
2023-09-29T18:00	15155	124	-59.6	-81.9	257	21
2023-09-29T18:00	15176	123	-59.6	-81.9	257	21
2023-09-29T18:00	15195	123	-59.7	-81.8	257	21
2023-09-29T18:00	15214	122	-59.8	-81.9	257	20
2023-09-29T18:00	15234	122	-59.9	-81.8	258	20
2023-09-29T18:00	15256	122	-59.9	-81.8	258	20
2023-09-29T18:00	15277	121	-59.5	-81.7	258	19
2023-09-29T18:00	15296	121	-59.1	-81.5	257	19
2023-09-29T18:00	15320	120	-58.9	-81.5	255	19
2023-09-29T18:00	15338	120	-59.0	-81.6	254	19
2023-09-29T18:00	15359	120	-59.1	-81.7	252	19
2023-09-29T18:00	15379	119	-59.2	-81.6	251	20
2023-09-29T18:00	15400	119	-59.3	-81.7	250	20
2023-09-29T18:00	15420	118	-59.5	-81.8	249	20
2023-09-29T18:00	15442	118	-59.6	-81.7	249	20
2023-09-29T18:00	15463	118	-59.7	-81.8	249	21
2023-09-29T18:00	15482	117	-59.9	-82.0	249	21
2023-09-29T18:00	15504	117	-60.0	-81.9	249	21
2023-09-29T18:00	15525	116	-60.2	-82.1	250	22
2023-09-29T18:00	15544	116	-60.2	-82.2	251	22
2023-09-29T18:00	15566	116	-60.2	-82.2	253	22
2023-09-29T18:00	15586	115	-60.1	-82.3	255	22
2023-09-29T18:00	15607	115	-59.9	-82.3	257	22
2023-09-29T18:00	15629	115	-59.9	-82.3	258	21
2023-09-29T18:00	15651	114	-59.7	-82.2	260	21
2023-09-29T18:00	15671	114	-59.9	-82.3	262	20
2023-09-29T18:00	15694	113	-60.0	-82.4	264	20
2023-09-29T18:00	15713	113	-60.0	-82.4	266	20
2023-09-29T18:00	15735	113	-60.0	-82.4	267	19
2023-09-29T18:00	15755	112	-60.0	-82.4	268	19
2023-09-29T18:00	15778	112	-59.9	-82.3	268	19
2023-09-29T18:00	15800	111	-60.0	-82.2	269	19
2023-09-29T18:00	15821	111	-60.1	-82.3	269	19
2023-09-29T18:00	15844	111	-60.2	-82.6	269	19
2023-09-29T18:00	15866	110	-60.2	-82.6	269	18
2023-09-29T18:00	15888	110	-60.1	-82.7	269	18
2023-09-29T18:00	15909	110	-60.1	-82.8	269	17
2023-09-29T18:00	15930	109	-60.0	-82.9	269	16
2023-09-29T18:00	15955	109	-59.8	-82.8	269	16
2023-09-29T18:00	15974	108	-59.9	-83.1	269	15
2023-09-29T18:00	15997	108	-59.9	-83.3	269	15
2023-09-29T18:00	16017	108	-59.8	-83.2	270	15
2023-09-29T18:00	16038	107	-59.9	-83.3	271	15
2023-09-29T18:00	16060	107	-59.8	-83.2	272	15
2023-09-29T18:00	16083	107	-59.7	-83.3	273	15
2023-09-29T18:00	16103	106	-59.8	-83.4	274	16
2023-09-29T18:00	16124	106	-59.8	-83.4	274	16
2023-09-29T18:00	16146	105	-59.8	-83.2	273	16
2023-09-29T18:00	16166	105	-59.9	-83.1	272	16
2023-09-29T18:00	16183	105	-59.7	-82.9	271	16
2023-09-29T18:00	16207	104	-59.6	-82.6	270	15
2023-09-29T18:00	16227	104	-59.8	-82.8	269	15
2023-09-29T18:00	16247	104	-59.6	-82.6	268	15
2023-09-29T18:00	16268	103	-59.7	-82.9	268	15
2023-09-29T18:00	16290	103	-59.7	-82.9	268	15
2023-09-29T18:00	16309	103	-59.9	-83.3	269	15
2023-09-29T18:00	16330	102	-60.1	-83.4	270	15
2023-09-29T18:00	16351	102	-60.2	-83.5	270	15
2023-09-29T18:00	16369	102	-60.3	-83.4	270	15
2023-09-29T18:00	16387	101	-60.5	-83.5	269	15
2023-09-29T18:00	16410	101	-60.7	-83.7	268	16
2023-09-29T18:00	16430	101	-60.8	-83.8	267	16
2023-09-29T18:00	16448	100	-60.9	-83.9	267	16
2023-09-29T18:00	16466	100	-60.8	-83.8	267	16
2023-09-29T18:00	16486	100	-60.7	-83.7	267	16
2023-09-29T18:00	16504	100	-60.9	-83.9	268	16
2023-09-29T18:00	16523	99	-61.0	-83.9	269	16
2023-09-29T18:00	16541	99	-61.0	-83.9	269	16
2023-09-29T18:00	16561	99	-60.9	-83.9	270	15
2023-09-29T18:00	16580	98	-60.9	-83.9	270	15
2023-09-29T18:00	16599	98	-61.0	-84.1	271	15
2023-09-29T18:00	16618	98	-60.8	-84.0	272	14
2023-09-29T18:00	16636	97	-60.6	-84.0	273	14
2023-09-29T18:00	16658	97	-60.6	-84.0	274	13
2023-09-29T18:00	16679	97	-60.7	-84.3	275	13
2023-09-29T18:00	16706	96	-60.6	-84.5	274	12
2023-09-29T18:00	16731	96	-60.3	-84.4	273	11
2023-09-29T18:00	16756	96	-59.2	-83.8	270	10
2023-09-29T18:00	16778	95	-59.0	-83.9	267	9
2023-09-29T18:00	16799	95	-58.7	-83.7	265	9
2023-09-29T18:00	16819	95	-58.7	-83.7	263	8
2023-09-29T18:00	16840	94	-58.7	-83.4	261	8
2023-09-29T18:00	16863	94	-58.9	-83.6	260	8
2023-09-29T18:00	16880	94	-59.1	-83.7	258	8
2023-09-29T18:00	16902	93	-59.2	-83.8	256	8
2023-09-29T18:00	16922	93	-59.4	-84.0	255	8
2023-09-29T18:00	16940	93	-59.5	-83.8	254	9
2023-09-29T18:00	16964	93	-59.7	-84.0	254	9
2023-09-29T18:00	16984	92	-59.8	-84.1	254	9
2023-09-29T18:00	17005	92	-60.0	-84.2	254	9
2023-09-29T18:00	17026	92	-60.2	-84.4	253	10
2023-09-29T18:00	17049	91	-60.3	-84.7	253	10
2023-09-29T18:00	17071	91	-60.4	-84.8	253	11
2023-09-29T18:00	17091	91	-60.5	-85.1	253	12
2023-09-29T18:00	17108	90	-60.4	-85.0	253	12
2023-09-29T18:00	17129	90	-60.3	-84.9	254	13
2023-09-29T18:00	17149	90	-60.3	-84.9	256	13
2023-09-29T18:00	17169	89	-60.1	-85.0	259	13
2023-09-29T18:00	17190	89	-60.1	-85.0	262	13
2023-09-29T18:00	17208	89	-59.8	-85.1	264	13
2023-09-29T18:00	17230	89	-59.9	-85.1	266	13
2023-09-29T18:00	17247	88	-59.8	-85.1	268	13
2023-09-29T18:00	17267	88	-59.6	-84.9	269	13
2023-09-29T18:00	17287	88	-59.7	-85.0	270	13
2023-09-29T18:00	17305	88	-59.6	-85.2	271	13
2023-09-29T18:00	17326	87	-59.3	-85.0	272	13
2023-09-29T18:00	17346	87	-58.8	-84.6	273	13
2023-09-29T18:00	17366	87	-58.7	-84.5	274	12
2023-09-29T18:00	17387	86	-58.6	-84.1	276	12
2023-09-29T18:00	17407	86	-58.6	-84.1	278	12
2023-09-29T18:00	17431	86	-58.8	-84.0	280	12
2023-09-29T18:00	17451	86	-58.9	-84.1	282	12
2023-09-29T18:00	17471	85	-59.1	-84.2	283	12
2023-09-29T18:00	17491	85	-59.1	-84.5	284	12
2023-09-29T18:00	17515	85	-59.1	-84.5	284	11
2023-09-29T18:00	17537	84	-58.9	-84.6	282	11
2023-09-29T18:00	17558	84	-58.8	-84.6	279	11
2023-09-29T18:00	17582	84	-58.9	-84.6	275	10
2023-09-29T18:00	17603	84	-59.0	-85.0	271	10
2023-09-29T18:00	17622	83	-59.1	-84.8	268	10
2023-09-29T18:00	17646	83	-58.9	-84.6	266	10
2023-09-29T18:00	17667	83	-59.0	-84.7	266	10
2023-09-29T18:00	17689	82	-59.2	-84.9	266	10
2023-09-29T18:00	17712	82	-59.4	-85.0	267	10
2023-09-29T18:00	17732	82	-59.4	-85.3	268	10
2023-09-29T18:00	17752	82	-59.4	-85.0	269	10
2023-09-29T18:00	17777	81	-59.2	-84.9	269	10
2023-09-29T18:00	17798	81	-59.2	-84.9	269	10
2023-09-29T18:00	17818	81	-59.3	-84.7	269	10
2023-09-29T18:00	17841	80	-59.3	-85.0	269	10
2023-09-29T18:00	17864	80	-59.2	-84.9	270	10
2023-09-29T18:00	17886	80	-59.1	-85.1	271	10
2023-09-29T18:00	17908	80	-59.0	-85.0	271	10
2023-09-29T18:00	17929	79	-59.0	-85.0	272	10
2023-09-29T18:00	17950	79	-58.8	-84.9	272	10
2023-09-29T18:00	17971	79	-58.7	-84.8	271	10
2023-09-29T18:00	17992	78	-58.8	-85.2	270	10
2023-09-29T18:00	18014	78	-58.9	-85.3	268	10
2023-09-29T18:00	18032	78	-58.7	-85.1	266	10
2023-09-29T18:00	18053	78	-58.7	-85.1	264	10
2023-09-29T18:00	18076	77	-58.7	-85.1	263	10
2023-09-29T18:00	18093	77	-58.7	-85.1	263	10
2023-09-29T18:00	18118	77	-58.8	-85.2	264	11
2023-09-29T18:00	18139	77	-58.9	-85.3	264	11
2023-09-29T18:00	18157	76	-58.9	-85.3	266	11
2023-09-29T18:00	18178	76	-58.7	-85.1	267	11
2023-09-29T18:00	18195	76	-58.7	-85.1	269	11
2023-09-29T18:00	18213	76	-58.7	-85.1	270	11
2023-09-29T18:00	18236	76	-58.8	-85.2	271	11
2023-09-29T18:00	18255	75	-58.8	-85.2	272	11
2023-09-29T18:00	18272	75	-58.8	-85.2	272	11
2023-09-29T18:00	18290	75	-58.9	-85.6	271	10
2023-09-29T18:00	18312	75	-58.8	-85.5	269	10
2023-09-29T18:00	18328	74	-58.7	-85.4	267	9
2023-09-29T18:00	18348	74	-58.7	-85.4	264	9
2023-09-29T18:00	18367	74	-58.3	-85.5	262	9
2023-09-29T18:00	18383	74	-57.5	-84.9	260	8
2023-09-29T18:00	18404	73	-57.5	-85.2	260	8
2023-09-29T18:00	18427	73	-57.5	-85.2	259	8
2023-09-29T18:00	18446	73	-57.6	-85.3	260	7
2023-09-29T18:00	18468	73	-57.6	-85.3	262	7
2023-09-29T18:00	18488	73	-57.5	-85.2	264	7
2023-09-29T18:00	18507	72	-57.3	-84.7	267	7
2023-09-29T18:00	18526	72	-57.3	-84.7	270	6
2023-09-29T18:00	18549	72	-57.5	-84.9	273	6
2023-09-29T18:00	18568	72	-57.6	-84.6	276	6
2023-09-29T18:00	18592	71	-57.8	-84.7	277	6
2023-09-29T18:00	18613	71	-58.0	-84.9	277	6
2023-09-29T18:00	18635	71	-58.1	-85.0	275	6
2023-09-29T18:00	18658	71	-58.3	-84.8	271	5
2023-09-29T18:00	18680	70	-58.3	-84.8	266	5
2023-09-29T18:00	18704	70	-58.2	-84.7	261	5
2023-09-29T18:00	18726	70	-58.2	-84.7	257	5
2023-09-29T18:00	18747	70	-58.3	-84.8	255	5
2023-09-29T18:00	18769	69	-58.5	-84.9	253	6
2023-09-29T18:00	18790	69	-58.6	-85.0	251	6
2023-09-29T18:00	18812	69	-58.8	-85.2	250	7
2023-09-29T18:00	18833	69	-59.0	-85.3	249	8
2023-09-29T18:00	18854	68	-59.0	-85.3	249	8
2023-09-29T18:00	18879	68	-59.2	-85.5	250	9
2023-09-29T18:00	18898	68	-59.2	-85.5	251	9
2023-09-29T18:00	18923	68	-58.9	-85.3	254	9
2023-09-29T18:00	18943	67	-58.8	-85.5	257	10
2023-09-29T18:00	18965	67	-58.9	-85.6	260	10
2023-09-29T18:00	18986	67	-59.0	-86.0	262	10
2023-09-29T18:00	19009	67	-59.1		264	10
2023-09-29T18:00	19030	67	-59.2	-86.2	266	11
2023-09-29T18:00	19049	66	-59.3	-86.2	268	11
2023-09-29T18:00	19071	66	-59.4	-86.3	270	11
2023-09-29T18:00	19095	66	-59.5	-86.4	272	11
2023-09-29T18:00	19115	66	-59.1		274	11
2023-09-29T18:00	19135	65	-58.8	-86.2	276	10
2023-09-29T18:00	19158	65	-58.5	-86.0	277	10
2023-09-29T18:00	19181	65	-58.4	-85.9	278	10
2023-09-29T18:00	19204	65	-58.4	-85.9	280	9
2023-09-29T18:00	19225	64	-58.6	-86.1	282	9
2023-09-29T18:00	19249	64	-58.6	-86.1	283	9
2023-09-29T18:00	19273	64	-58.6	-86.1	284	9
2023-09-29T18:00	19292	64	-58.3	-85.8	284	8
2023-09-29T18:00	19319	64	-58.2	-85.8	282	8
2023-09-29T18:00	19343	63	-58.0	-85.6	279	8
2023-09-29T18:00	19364	63	-58.0	-85.6	274	7
2023-09-29T18:00	19389	63	-58.0	-85.6	269	7
2023-09-29T18:00	19413	63	-58.2	-85.8	264	7
2023-09-29T18:00	19437	62	-58.4	-85.9	259	6
2023-09-29T18:00	19461	62	-58.5	-86.0	255	6
2023-09-29T18:00	19484	62	-58.6	-86.1	251	6
2023-09-29T18:00	19502	62	-58.7	-86.1	249	6
2023-09-29T18:00	19526	61	-58.6	-85.7	249	6
2023-09-29T18:00	19549	61	-58.6	-85.7	249	6
2023-09-29T18:00	19571	61	-58.8	-85.9	249	7
2023-09-29T18:00	19596	61	-58.9	-85.6	250	7
2023-09-29T18:00	19617	61	-59.0	-85.7	249	7
2023-09-29T18:00	19639	60	-59.2	-85.8	250	8
2023-09-29T18:00	19661	60	-59.3	-85.9	250	8
2023-09-29T18:00	19688	60	-59.4	-86.3	252	8
2023-09-29T18:00	19710	60	-59.5	-86.4	254	8
2023-09-29T18:00	19735	59	-59.5	-86.4	256	8
2023-09-29T18:00	19759	59	-59.6	-86.1	258	8
2023-09-29T18:00	19781	59	-59.5	-86.0	260	9
2023-09-29T18:00	19803	59	-59.5	-86.0	262	9
2023-09-29T18:00	19826	59	-59.6	-85.8	264	9
2023-09-29T18:00	19849	58	-59.4	-85.6	266	9
2023-09-29T18:00	19871	58	-59.5	-85.7	268	9
2023-09-29T18:00	19896	58	-59.6	-85.8	271	8
2023-09-29T18:00	19919	58	-59.4	-85.6	275	8
2023-09-29T18:00	19941	58	-59.3	-85.9	278	7
2023-09-29T18:00	19963	57	-59.3	-85.9	280	7
2023-09-29T18:00	19988	57	-59.1		282	7
2023-09-29T18:00	20009	57	-59.1		282	6
2023-09-29T18:00	20034	57	-58.9	-86.3	282	6
2023-09-29T18:00	20053	57	-58.9	-86.3	281	6
2023-09-29T18:00	20077	56	-58.9	-86.7	278	5
2023-09-29T18:00	20100	56	-58.8	-86.2	274	5
2023-09-29T18:00	20123	56	-58.7	-86.1	268	4
2023-09-29T18:00	20146	56	-58.6	-86.1	261	4
2023-09-29T18:00	20169	56	-58.6	-86.1	255	5
2023-09-29T18:00	20190	55	-58.8	-86.2	250	5
2023-09-29T18:00	20214	55	-58.7	-86.1	247	5
2023-09-29T18:00	20235	55	-58.7	-86.1	245	6
2023-09-29T18:00	20261	55	-58.8	-85.9	243	6
2023-09-29T18:00	20283	54	-59.0	-86.0	240	6
2023-09-29T18:00	20307	54	-59.2	-86.2	238	7
2023-09-29T18:00	20329	54	-59.4	-86.3	236	7
2023-09-29T18:00	20356	54	-59.6	-86.5	236	6
2023-09-29T18:00	20377	54	-59.7	-86.5	237	6
2023-09-29T18:00	20401	53	-59.4	-86.7	241	6
2023-09-29T18:00	20423	53	-59.0	-86.4	246	5
2023-09-29T18:00	20445	53	-59.0	-86.8	253	5
2023-09-29T18:00	20466	53	-59.1	-86.8	260	5
2023-09-29T18:00	20491	53	-59.1	-86.8	266	5
2023-09-29T18:00	20513	53	-59.2	-86.9	269	5
2023-09-29T18:00	20537	52	-59.2	-86.9	269	5
2023-09-29T18:00	20558	52	-58.8	-87.0	267	6
2023-09-29T18:00	20581	52	-58.8	-87.0	264	6
2023-09-29T18:00	20600	52	-58.7	-87.0	261	6
2023-09-29T18:00	20627	52	-58.8	-87.0	257	6
2023-09-29T18:00	20651	51	-59.0	-86.8	253	7
2023-09-29T18:00	20673	51	-59.0	-86.8	251	7
2023-09-29T18:00	20699	51	-58.9	-86.7	250	7
2023-09-29T18:00	20719	51	-59.0	-86.8	251	7
2023-09-29T18:00	20742	51	-59.0	-87.2	255	7
2023-09-29T18:00	20765	50	-59.0	-87.2	259	7
2023-09-29T18:00	20787	50	-58.3	-86.7	264	7
2023-09-29T18:00	20811	50	-57.9	-86.8	270	7
2023-09-29T18:00	20836	50	-57.9	-86.8	275	7
2023-09-29T18:00	20854	50	-58.1	-86.5	280	7
2023-09-29T18:00	20878	50	-58.2	-86.6	284	7
2023-09-29T18:00	20904	49	-58.3	-86.7	289	6
2023-09-29T18:00	20926	49	-58.3	-86.7	293	6
2023-09-29T18:00	20944	49	-58.2	-86.6	295	6
2023-09-29T18:00	20972	49	-58.1	-87.0	294	5
2023-09-29T18:00	20993	49	-57.9	-86.8	290	4
2023-09-29T18:00	21014	49	-57.8	-86.3	283	4
2023-09-29T18:00	21036	48	-57.8	-86.3	274	4
2023-09-29T18:00	21059	48	-57.9	-86.4	264	4
2023-09-29T18:00	21084	48	-58.1	-86.5	256	4
2023-09-29T18:00	21106	48	-58.3	-86.7	250	5
2023-09-29T18:00	21126	48	-58.5	-86.4	246	5
2023-09-29T18:00	21147	47	-58.6	-86.5	244	5
2023-09-29T18:00	21170	47	-58.8	-86.6	245	6
2023-09-29T18:00	21195	47	-58.8	-86.2	249	6
2023-09-29T18:00	21218	47	-58.6	-86.5	253	6
2023-09-29T18:00	21236	47	-58.6	-86.5	258	7
2023-09-29T18:00	21264	47	-58.7	-86.5	261	7
2023-09-29T18:00	21286	46	-58.6	-86.9	262	8
2023-09-29T18:00	21309	46	-58.5	-86.8	263	8
2023-09-29T18:00	21331	46	-58.6	-86.9	264	9
2023-09-29T18:00	21355	46	-58.7	-87.0	266	9
2023-09-29T18:00	21378	46	-58.8	-87.0	269	9
2023-09-29T18:00	21400	46	-58.7	-87.0	273	9
2023-09-29T18:00	21424	45	-58.6	-86.9	278	9
2023-09-29T18:00	21449	45	-58.7	-87.0	283	9
2023-09-29T18:00	21469	45	-58.7	-86.5	287	9
2023-09-29T18:00	21495	45	-58.7	-86.5	290	9
2023-09-29T18:00	21516	45	-58.7	-86.1	292	9
2023-09-29T18:00	21540	45	-58.5	-86.0	293	9
2023-09-29T18:00	21566	44	-58.5	-86.4	293	9
2023-09-29T18:00	21584	44	-58.3	-86.2	291	9
2023-09-29T18:00	21611	44	-58.1	-86.5	289	9
2023-09-29T18:00	21634	44	-58.1	-86.5	287	9
2023-09-29T18:00	21651	44	-57.9	-86.8	284	9
2023-09-29T18:00	21679	44	-58.0	-86.9	282	8
2023-09-29T18:00	21703	43	-58.0	-87.4	280	8
2023-09-29T18:00	21726	43	-57.8	-87.2	279	7
2023-09-29T18:00	21751	43	-57.7	-87.2	279	7
2023-09-29T18:00	21772	43	-57.7	-86.7	279	7
2023-09-29T18:00	21796	43	-57.7	-86.7	279	7
2023-09-29T18:00	21819	43	-57.8	-86.7	280	8
2023-09-29T18:00	21842	43	-57.8	-86.7	281	8
2023-09-29T18:00	21866	42	-57.8	-86.3	283	9
2023-09-29T18:00	21888	42	-57.8	-86.3	286	10
2023-09-29T18:00	21913	42	-57.8	-86.3	288	11
2023-09-29T18:00	21937	42	-57.9		291	11
2023-09-29T18:00	21960	42	-57.8	-86.3	293	12
2023-09-29T18:00	21977	42	-57.2	-85.8	294	13
2023-09-29T18:00	22001	41	-57.2	-85.8	295	13
2023-09-29T18:00	22025	41	-57.2	-85.8	295	13
2023-09-29T18:00	22047	41	-57.2	-86.3	295	13
2023-09-29T18:00	22074	41	-57.2	-86.3	296	13
2023-09-29T18:00	22096	41	-57.1	-85.7	296	12
2023-09-29T18:00	22119	41	-56.9	-85.6	298	12
2023-09-29T18:00	22144	41	-56.5	-85.3	300	11
2023-09-29T18:00	22165	40	-56.5	-85.8	303	10
2023-09-29T18:00	22189	40	-56.3	-85.6	306	10
2023-09-29T18:00	22212	40	-56.4	-85.7	309	9
2023-09-29T18:00	22238	40	-56.5	-85.8	312	9
2023-09-29T18:00	22258	40	-56.6	-85.8	314	8
2023-09-29T18:00	22283	40	-56.6	-85.8	316	8
2023-09-29T18:00	22309	40	-56.6	-85.8	317	7
2023-09-29T18:00	22333	39	-56.7	-85.9	318	7
2023-09-29T18:00	22354	39	-56.6	-85.8	319	6
2023-09-29T18:00	22379	39	-56.8	-86.0	320	6
2023-09-29T18:00	22403	39	-56.9	-86.1	321	5
2023-09-29T18:00	22430	39	-57.0	-86.1	321	5
2023-09-29T18:00	22451	39	-57.2	-86.3	322	5
2023-09-29T18:00	22477	38	-57.3	-86.4	321	4
2023-09-29T18:00	22502	38	-57.4	-86.4	320	4
2023-09-29T18:00	22525	38	-57.6	-86.6	317	3
2023-09-29T18:00	22547	38	-57.8	-86.7	311	3
2023-09-29T18:00	22570	38	-57.8	-86.7	302	3
2023-09-29T18:00	22597	38	-57.9	-86.8	293	3
2023-09-29T18:00	22621	38	-58.0	-86.9	287	3
2023-09-29T18:00	22643	37	-58.0	-86.9	284	3
2023-09-29T18:00	22669	37	-58.0	-86.9	284	4
2023-09-29T18:00	22690	37	-58.1	-87.0	286	4
2023-09-29T18:00	22716	37	-58.1	-87.0	289	5
2023-09-29T18:00	22739	37	-58.0	-86.9	292	5
2023-09-29T18:00	22764	37	-58.1	-86.5	296	6
2023-09-29T18:00	22786	37	-58.1	-86.5	299	7
2023-09-29T18:00	22811	37	-58.3	-86.7	303	7
2023-09-29T18:00	22835	36	-58.3	-86.7	306	8
2023-09-29T18:00	22856	36	-58.0	-86.4	310	8
2023-09-29T18:00	22879	36	-57.6	-86.1	314	8
2023-09-29T18:00	22904	36	-57.5	-86.5	318	8
2023-09-29T18:00	22928	36	-57.3	-86.4	322	8
2023-09-29T18:00	22947	36	-57.1	-86.7	325	8
2023-09-29T18:00	22973	36	-56.9	-86.6	328	7
2023-09-29T18:00	22998	35	-56.9	-86.6	330	6
2023-09-29T18:00	23019	35	-56.9	-86.6	332	6
2023-09-29T18:00	23045	35	-57.0	-86.6	334	5
2023-09-29T18:00	23064	35	-57.2	-86.8	335	4
2023-09-29T18:00	23090	35	-57.1	-86.7	334	4
2023-09-29T18:00	23114	35	-57.0	-86.6	331	3
2023-09-29T18:00	23136	35	-56.9	-86.6	327	3
2023-09-29T18:00	23164	35	-57.1	-86.7	323	3
2023-09-29T18:00	23182	34	-57.1	-86.7	320	4
2023-09-29T18:00	23208	34	-57.1	-86.7	317	4
2023-09-29T18:00	23235	34	-57.0	-86.6	314	4
2023-09-29T18:00	23260	34	-56.9	-86.6	310	4
2023-09-29T18:00	23274	34	-56.9	-87.1	305	4
2023-09-29T18:00	23307	34	-56.8	-87.0	299	4
2023-09-29T18:00	23329	34	-57.0	-87.2	295	4
2023-09-29T18:00	23353	33	-57.0	-87.2	293	4
2023-09-29T18:00	23379	33	-57.0	-87.2	293	3
2023-09-29T18:00	23406	33	-56.9	-87.1	294	3
2023-09-29T18:00	23430	33	-56.8	-87.0	297	3
2023-09-29T18:00	23452	33	-56.8	-87.0	300	3
2023-09-29T18:00	23475	33	-56.5	-86.8	301	2
2023-09-29T18:00	23503	33	-56.4		300	2
2023-09-29T18:00	23528	33	-56.3	-86.6	294	2
2023-09-29T18:00	23555	32	-56.4		284	2
2023-09-29T18:00	23578	32	-56.5	-86.8	272	2
2023-09-29T18:00	23602	32	-56.5	-86.8	263	2
2023-09-29T18:00	23630	32	-56.7	-86.9	258	3
2023-09-29T18:00	23658	32	-56.8	-87.0	257	3
2023-09-29T18:00	23681	32	-56.8	-87.0	258	4
2023-09-29T18:00	23705	32	-56.7	-86.9	259	4
2023-09-29T18:00	23727	32	-56.8	-87.0	261	5
2023-09-29T18:00	23757	31	-56.8	-87.0	263	5
2023-09-29T18:00	23781	31	-56.8	-87.0	263	5
2023-09-29T18:00	23807	31	-56.7	-86.9	263	6
2023-09-29T18:00	23829	31	-56.8	-87.0	262	6
2023-09-29T18:00	23856	31	-57.0	-87.2	261	6
2023-09-29T18:00	23885	31	-57.2	-87.3	261	7
2023-09-29T18:00	23909	31	-57.2	-87.3	261	7
2023-09-29T18:00	23934	31	-57.1	-87.2	263	7
2023-09-29T18:00	23957	30	-57.0	-87.2	264	7
2023-09-29T18:00	23982	30	-56.8	-87.0	266	7
2023-09-29T18:00	24013	30	-56.8	-87.0	269	7
2023-09-29T18:00	24037	30	-56.7	-87.5	271	7
2023-09-29T18:00	24062	30	-56.5	-87.4	274	7
2023-09-29T18:00	24085	30	-56.2	-87.2	276	8
2023-09-29T18:00	24115	30	-56.2	-87.2	279	8
2023-09-29T18:00	24139	30	-56.2	-87.2	281	8
2023-09-29T18:00	24171	29	-56.1	-87.1	283	8
2023-09-29T18:00	24189	29	-56.0	-87.0	284	7
2023-09-29T18:00	24219	29	-55.8	-86.9	286	7
2023-09-29T18:00	24248	29	-55.6	-86.7	286	7
2023-09-29T18:00	24267	29	-55.3	-86.5	287	6
2023-09-29T18:00	24302	29	-55.2	-86.4	288	6
2023-09-29T18:00	24324	29	-55.3	-86.5	290	6
2023-09-29T18:00	24342	29	-55.4	-86.6	292	5
2023-09-29T18:00	24380	29	-55.2	-86.4	294	5
2023-09-29T18:00	24398	28	-55.3	-86.5	296	5
2023-09-29T18:00	24433	28	-55.3	-86.5	297	5
2023-09-29T18:00	24456	28	-55.4	-86.6	298	5
2023-09-29T18:00	24479	28	-55.5	-86.7	299	4
2023-09-29T18:00	24507	28	-55.6	-86.7	300	4
2023-09-29T18:00	24530	28	-55.8	-86.3	301	4
2023-09-29T18:00	24558	28	-55.9	-86.3	302	4
2023-09-29T18:00	24586	28	-55.9	-86.3	300	4
2023-09-29T18:00	24611	27	-55.7	-86.2	297	4
2023-09-29T18:00	24636	27	-55.5	-86.7	292	4
2023-09-29T18:00	24660	27	-55.1	-86.4	285	4
2023-09-29T18:00	24685	27	-55.1	-86.4	277	4
2023-09-29T18:00	24709	27	-55.2	-86.4	270	4
2023-09-29T18:00	24735	27	-55.4	-86.6	265	4
2023-09-29T18:00	24761	27	-55.5	-86.7	264	4
2023-09-29T18:00	24791	27	-55.7	-86.8	267	4
2023-09-29T18:00	24809	27	-55.6	-86.7	271	5
2023-09-29T18:00	24844	27	-55.5	-86.7	276	6
2023-09-29T18:00	24861	26	-55.5	-86.7	279	6
2023-09-29T18:00	24891	26	-55.5	-86.7	281	7
2023-09-29T18:00	24910	26	-55.4	-86.6	281	7
2023-09-29T18:00	24935	26	-55.3	-86.5	281	7
2023-09-29T18:00	24961	26	-55.4	-86.6	279	7
2023-09-29T18:00	24984	26	-55.6	-86.7	278	8
2023-09-29T18:00	25010	26	-55.8	-86.9	276	8
2023-09-29T18:00	25034	26	-56.0	-86.4	274	8
2023-09-29T18:00	25059	26	-56.2	-86.6	271	8
2023-09-29T18:00	25086	26	-56.4		269	9
2023-09-29T18:00	25105	25	-56.6	-86.9	269	9
2023-09-29T18:00	25135	25	-56.6	-86.9	270	9
2023-09-29T18:00	25160	25	-56.6	-86.9	272	9
2023-09-29T18:00	25189	25	-56.9	-87.1	276	9
2023-09-29T18:00	25209	25	-57.0	-87.2	280	9
2023-09-29T18:00	25229	25	-57.0	-87.2	285	9
2023-09-29T18:00	25249	25	-56.9	-87.1	289	9
2023-09-29T18:00	25277	25	-56.7	-86.9	293	8
2023-09-29T18:00	25304	25	-56.6	-86.9	297	8
2023-09-29T18:00	25323	25	-56.7	-86.9	300	7
2023-09-29T18:00	25354	24	-56.8	-87.0	303	7
2023-09-29T18:00	25367	24	-57.0	-87.2	306	7
2023-09-29T18:00	25397	24	-56.8	-87.0	309	7
2023-09-29T18:00	25418	24	-56.8	-87.0	312	7
2023-09-29T18:00	25446	24	-56.9	-87.1	316	7
2023-09-29T18:00	25469	24	-57.0	-87.2	320	7
2023-09-29T18:00	25500	24	-57.1	-87.2	325	6
2023-09-29T18:00	25520	24	-56.9	-87.1	331	6
2023-09-29T18:00	25542	24	-57.1	-87.8	335	6
2023-09-29T18:00	25567	24	-57.1	-87.8	338	5
2023-09-29T18:00	25594	24	-57.1	-87.8	337	5
2023-09-29T18:00	25618	23	-56.9	-87.7	333	5
2023-09-29T18:00	25644	23	-56.7	-87.5	326	5
2023-09-29T18:00	25671	23	-56.7	-87.5	318	4
2023-09-29T18:00	25696	23	-56.8	-87.6	310	4
2023-09-29T18:00	25724	23	-56.9	-87.7	303	4
2023-09-29T18:00	25746	23	-57.0	-87.8	297	4
2023-09-29T18:00	25779	23	-56.9	-87.7	291	4
2023-09-29T18:00	25799	23	-56.7	-88.2	286	4
2023-09-29T18:00	25833	23	-56.2	-87.8	283	4
2023-09-29T18:00	25860	23	-56.2	-87.8	282	5
2023-09-29T18:00	25881	22	-55.9	-87.6	283	6
2023-09-29T18:00	25915	22	-55.4	-87.2	285	7
2023-09-29T18:00	25938	22	-55.3	-87.9	288	7
2023-09-29T18:00	25963	22	-55.2	-87.8	291	8
2023-09-29T18:00	25993	22	-55.1	-87.8	294	8
2023-09-29T18:00	26023	22	-55.1	-87.8	297	9
2023-09-29T18:00	26047	22	-54.9	-87.6	300	9
2023-09-29T18:00	26079	22	-54.7	-87.5	303	9
2023-09-29T18:00	26104	22	-54.7	-87.5	305	9
2023-09-29T18:00	26129	22	-54.7	-87.5	307	9
2023-09-29T18:00	26158	22	-54.7	-86.7	308	9
2023-09-29T18:00	26185	21	-54.7	-86.7	308	8
2023-09-29T18:00	26213	21	-54.7	-86.7	308	8
2023-09-29T18:00	26239	21	-54.7	-86.7	307	8
2023-09-29T18:00	26273	21	-54.7	-86.7	307	7
2023-09-29T18:00	26292	21	-54.7	-86.7	306	7
2023-09-29T18:00	26326	21	-54.6	-87.4	305	7
2023-09-29T18:00	26347	21	-54.4	-87.3	303	7
2023-09-29T18:00	26374	21	-54.1	-87.1	302	8
2023-09-29T18:00	26407	21	-53.8	-86.8	301	8
2023-09-29T18:00	26438	21	-53.7	-86.8	301	8
2023-09-29T18:00	26464	21	-53.7	-86.8	301	8
2023-09-29T18:00	26492	20	-53.9	-86.9	301	8
2023-09-29T18:00	26513	20	-53.8	-86.8	302	8
2023-09-29T18:00	26535	20	-53.9	-86.9	303	9
2023-09-29T18:00	26567	20	-53.8	-86.8	304	9
2023-09-29T18:00	26596	20	-53.7	-86.8	305	8
2023-09-29T18:00	26612	20	-53.7	-86.8	306	8
2023-09-29T18:00	26638	20	-53.3	-86.5	307	8
2023-09-29T18:00	26672	20	-53.3	-86.5	308	7
2023-09-29T18:00	26689	20	-53.1	-86.3	309	7
2023-09-29T18:00	26727	20	-53.0	-86.3	309	6
2023-09-29T18:00	26748	20	-52.9	-86.2	307	5
2023-09-29T18:00	26770	20	-52.6		304	4
2023-09-29T18:00	26803	20	-52.6		298	4
2023-09-29T18:00	26833	19	-52.6		291	3
2023-09-29T18:00	26855	19	-52.7	-86.0	286	4
2023-09-29T18:00	26885	19	-52.8	-86.1	284	4
2023-09-29T18:00	26916	19	-52.7	-86.0	284	5
2023-09-29T18:00	26931	19	-52.6		283	5
2023-09-29T18:00	26963	19	-52.5	-86.8	282	6
2023-09-29T18:00	26987	19	-52.3	-86.6	280	6
2023-09-29T18:00	27015	19	-52.3	-86.6	278	7
2023-09-29T18:00	27041	19	-52.3	-86.6	278	7
2023-09-29T18:00	27068	19	-52.2	-86.6	278	8
2023-09-29T18:00	27100	19	-52.0	-86.4	281	8
2023-09-29T18:00	27135	19	-51.8	-86.3	284	9
2023-09-29T18:00	27162	18	-51.8	-86.3	289	9
2023-09-29T18:00	27190	18	-51.8	-86.3	293	9
2023-09-29T18:00	27214	18	-51.9	-86.3	296	10
2023-09-29T18:00	27238	18	-51.8	-86.3	297	10
2023-09-29T18:00	27265	18	-51.7	-86.2	297	11
2023-09-29T18:00	27291	18	-51.5	-86.1	296	11
2023-09-29T18:00	27330	18	-51.4	-86.0	294	11
2023-09-29T18:00	27346	18	-51.4	-86.0	293	11
2023-09-29T18:00	27385	18	-51.5	-86.1	292	11
2023-09-29T18:00	27407	18	-51.4	-86.0	294	11
2023-09-29T18:00	27438	18	-51.4	-86.0	296	11
2023-09-29T18:00	27472	18	-51.5	-86.1	300	12
2023-09-29T18:00	27486	18	-51.5	-86.1	303	12
2023-09-29T18:00	27522	17	-51.7	-86.2	307	12
2023-09-29T18:00	27546	17	-51.8	-86.3	309	12
2023-09-29T18:00	27581	17	-51.9	-86.3	312	13
2023-09-29T18:00	27607	17	-52.1	-86.5	313	13
2023-09-29T18:00	27631	17	-52.2	-85.7	315	12
2023-09-29T18:00	27661	17	-52.3	-85.8	315	12
2023-09-29T18:00	27693	17	-52.5	-85.9	315	12
2023-09-29T18:00	27717	17	-52.7	-86.0	315	11
2023-09-29T18:00	27744	17	-52.9	-86.2	314	11
2023-09-29T18:00	27773	17	-53.0	-86.3	313	10
2023-09-29T18:00	27797	17	-53.0	-86.3	311	10
2023-09-29T18:00	27824	17	-53.1	-86.3	310	10
2023-09-29T18:00	27857	17	-53.0	-86.3	310	10
2023-09-29T18:00	27880	17	-52.8	-87.0	310	9
2023-09-29T18:00	27915	16	-52.8	-87.0	312	9
2023-09-29T18:00	27944	16	-52.8	-87.0	313	9
2023-09-29T18:00	27965	16	-52.6	-86.8	315	9
2023-09-29T18:00	27999	16	-52.3	-86.6	316	8
2023-09-29T18:00	28026	16	-52.0	-86.4	316	8
2023-09-29T18:00	28049	16	-51.8	-86.3	316	8
2023-09-29T18:00	28076	16	-51.7	-86.2	316	7
2023-09-29T18:00	28103	16	-51.5	-86.1	315	7
2023-09-29T18:00	28134	16	-51.5	-86.1	314	7
2023-09-29T18:00	28164	16	-51.6	-86.1	314	7
2023-09-29T18:00	28195	16	-51.6	-86.1	313	7
2023-09-29T18:00	28221	16	-51.7	-86.2	311	7
2023-09-29T18:00	28240	16	-51.8	-86.3	309	7
2023-09-29T18:00	28272	16	-51.8	-86.3	307	8
2023-09-29T18:00	28300	15	-51.6	-86.1	306	8
2023-09-29T18:00	28335	15	-51.4	-86.0	305	9
2023-09-29T18:00	28355	15	-51.3	-85.9	305	9
2023-09-29T18:00	28387	15	-50.8	-85.6	304	9
2023-09-29T18:00	28409	15	-50.5	-86.4	302	10
2023-09-29T18:00	28440	15	-50.5	-86.4	301	10
2023-09-29T18:00	28479	15	-50.6	-86.5	300	10
2023-09-29T18:00	28495	15	-50.5	-85.3	299	10
2023-09-29T18:00	28524	15	-50.5	-85.3	300	10
2023-09-29T18:00	28561	15	-50.5	-85.3	302	10
2023-09-29T18:00	28592	15	-50.5	-85.3	304	10
2023-09-29T18:00	28614	15	-50.4	-85.3	307	11
2023-09-29T18:00	28641	15	-50.5	-85.3	310	11
2023-09-29T18:00	28675	15	-50.5	-85.3	313	11
2023-09-29T18:00	28713	15	-50.5	-85.3	316	11
2023-09-29T18:00	28733	14	-50.5	-85.3	319	12
2023-09-29T18:00	28758	14	-50.7	-85.5	322	12
2023-09-29T18:00	28799	14	-50.9	-85.6	325	13
2023-09-29T18:00	28820	14	-51.2	-85.8	327	13
2023-09-29T18:00	28848	14	-51.4	-86.0	329	13
2023-09-29T18:00	28883	14	-51.5	-86.1	331	13
2023-09-29T18:00	28909	14	-51.3	-85.9	332	13
2023-09-29T18:00	28945	14	-51.3	-85.9	333	12
2023-09-29T18:00	28960	14	-51.3	-85.9	334	11
2023-09-29T18:00	29011	14	-51.4	-86.0	335	11
2023-09-29T18:00	29037	14	-51.4	-86.0	335	10
2023-09-29T18:00	29053	14	-51.5	-86.1	335	9
2023-09-29T18:00	29080	14	-51.7	-86.2	333	9
2023-09-29T18:00	29115	14	-51.4	-86.0	331	9
2023-09-29T18:00	29148	14	-51.0	-85.7	328	8
2023-09-29T18:00	29173	14	-51.0	-86.7	324	8
2023-09-29T18:00	29194	13	-51.0	-86.7	321	8
2023-09-29T18:00	29236	13	-50.9	-86.7	318	8
2023-09-29T18:00	29262	13	-50.7	-86.5	316	8
2023-09-29T18:00	29286	13	-50.6	-86.5	315	7
2023-09-29T18:00	29311	13	-50.4	-86.3	314	7
2023-09-29T18:00	29352	13	-50.1	-86.1	314	7
2023-09-29T18:00	29369	13	-49.8	-85.9	314	7
2023-09-29T18:00	29399	13	-49.8	-85.9	315	7
2023-09-29T18:00	29437	13	-49.8	-85.9	316	8
2023-09-29T18:00	29460	13	-49.9	-86.0	316	8
2023-09-29T18:00	29486	13	-49.9	-86.0	317	9
2023-09-29T18:00	29513	13	-49.8	-85.9	317	10
2023-09-29T18:00	29550	13	-49.7	-85.8	319	10
2023-09-29T18:00	29579	13	-49.6	-85.8	321	10
2023-09-29T18:00	29614	13	-49.4	-85.6	324	10
2023-09-29T18:00	29635	13	-49.4	-85.6	327	9
2023-09-29T18:00	29658	13	-49.3	-85.5	329	9
2023-09-29T18:00	29695	13	-49.4	-85.6	331	9
2023-09-29T18:00	29725	12	-49.5	-85.7	331	8
2023-09-29T18:00	29768	12	-49.7	-85.8	331	8
2023-09-29T18:00	29781	12	-49.8	-85.9	329	8
2023-09-29T18:00	29811	12	-50.0	-86.0	327	8
2023-09-29T18:00	29851	12	-49.9	-86.0	324	8
2023-09-29T18:00	29877	12	-49.8	-85.9	322	8
2023-09-29T18:00	29894	12	-49.7	-85.8	320	8
2023-09-29T18:00	29920	12	-49.7	-85.8	320	8
2023-09-29T18:00	29963	12	-49.7	-85.8	321	8
2023-09-29T18:00	29991	12	-49.6	-85.8	323	8
2023-09-29T18:00	30025	12	-49.4	-85.6	325	8
2023-09-29T18:00	30057	12	-49.3	-85.5	329	7
2023-09-29T18:00	30076	12	-49.5	-85.7	333	7
2023-09-29T18:00	30103	12	-49.5	-85.7	337	7
2023-09-29T18:00	30139	12	-49.5	-85.7	340	7
2023-09-29T18:00	30171	12	-49.7	-85.8	341	7
2023-09-29T18:00	30187	12	-49.8	-85.9	341	7
2023-09-29T18:00	30217	12	-49.7	-85.8	339	6
2023-09-29T18:00	30263	11	-49.8	-85.9	336	6
2023-09-29T18:00	30304	11	-49.9	-86.0	322	5
2023-09-29T18:00	30339	11	-50.0	-86.0	310	4
2023-09-29T18:00	30360	11	-50.0	-86.0	298	5
2023-09-29T18:00	30398	11	-50.0	-86.0	289	5
2023-09-29T18:00	30416	11	-50.1	-86.1	282	5
2023-09-29T18:00	30448	11	-50.1	-86.1	277	6
2023-09-29T18:00	30471	11	-50.1	-86.1	275	6
2023-09-29T18:00	30510	11	-50.2	-86.2	274	6
2023-09-29T18:00	30539	11	-50.0	-86.0	275	6
2023-09-29T18:00	30579	11	-50.0	-86.0	277	5
2023-09-29T18:00	30584	11	-50.0	-86.0	283	5
2023-09-29T18:00	30617	11	-50.1	-86.1	293	5
2023-09-29T18:00	30659	11	-50.0	-86.0	303	5
2023-09-29T18:00	30681	11	-50.0	-86.0	314	6
2023-09-29T18:00	30707	11	-50.2	-86.2	322	6
2023-09-29T18:00	30733	11	-50.3	-86.2	328	7
2023-09-29T18:00	30757	11	-50.3	-86.2	331	8
2023-09-29T18:00	30786	11	-50.5	-86.4	332	8
2023-09-29T18:00	30825	11	-50.6	-86.5	331	8
2023-09-29T18:00	30834	11	-50.6	-86.5	327	8
2023-09-29T18:00	30865	10	-50.3	-86.2	322	7
2023-09-29T18:00	30907	10	-50.1	-86.1	314	7
2023-09-29T18:00	30927	10	-50.1	-86.1	307	7
2023-09-29T18:00	30954	10	-50.2	-86.2	302	7
2023-09-29T18:00	30990	10	-50.1	-86.1	299	8
2023-09-29T18:00	31024	10	-50.0	-86.0	298	9
2023-09-29T18:00	31039	10	-49.9	-86.0	298	9
2023-09-29T18:00	31063	10	-49.9	-86.0	297	10
2023-09-29T18:00	31106	10	-49.9	-86.0	295	11
2023-09-29T18:00	31110	10	-50.1	-86.1	294	11
2023-09-29T18:00	31155	10	-50.1	-86.1	292	12
2023-09-29T18:00	31175	10	-50.2	-86.2	290	13
2023-09-29T18:00	31208	10	-50.1	-86.1	289	13
2023-09-29T18:00	31235	10	-50.1	-86.1	288	14
2023-09-29T18:00	31262	10	-50.1	-86.1	287	15
2023-09-29T18:00	31295	10	-50.0	-86.0	288	15
2023-09-29T18:00	31329	10	-49.8	-85.9	288	15
2023-09-29T18:00	31356	10	-49.3	-85.5	289	15
2023-09-29T18:00	31377	10	-49.2	-85.5	290	14
2023-09-29T18:00	31401	10	-49.3	-85.5	292	14
2023-09-29T18:00	31431	10	-49.5	-85.7	294	14
2023-09-29T18:00	31462	10	-49.7	-85.8	296	13
2023-09-29T18:00	31493	10	-49.8	-85.9	299	13
2023-09-29T18:00	31517	9	-49.9	-86.0	302	13
2023-09-29T18:00	31563	9	-49.9	-86.0	304	13
2023-09-29T18:00	31580	9	-50.0	-86.0	305	12
2023-09-29T18:00	31625	9	-50.1	-86.1	306	12
2023-09-29T18:00	31637	9	-50.1	-86.1	305	12
2023-09-29T18:00	31674	9	-50.1	-86.1	304	12
2023-09-29T18:00	31719	9	-49.9	-86.0	303	11
2023-09-29T18:00	31745	9	-49.6	-85.8	302	11
2023-09-29T18:00	31774	9	-49.4	-85.6	300	11
2023-09-29T18:00	31807	9	-49.3	-85.5	297	11
2023-09-29T18:00	31837	9	-49.0	-85.3	294	10
2023-09-29T18:00	31860	9	-48.8	-85.2	290	11
2023-09-29T18:00	31884	9	-48.6	-85.0	286	11
2023-09-29T18:00	31924	9	-48.4	-84.9	283	12
2023-09-29T18:00	31935	9	-48.3	-84.8	281	12
2023-09-29T18:00	31986	9	-48.2	-84.8	280	13
2023-09-29T18:00	32017	9	-48.0	-84.6	280	13
2023-09-29T18:00	32032	9	-47.7	-84.4	281	13
2023-09-29T18:00	32079	9	-47.7	-84.4	281	13
2023-09-29T18:00	32104	9	-47.7	-84.4	282	12
2023-09-29T18:00	32127	9	-47.7	-84.4	283	12
2023-09-29T18:00	32149	9	-47.8	-84.5	284	11
2023-09-29T18:00	32167	9	-47.9	-84.6	285	11
2023-09-29T18:00	32217	9	-48.0	-84.6	288	10
2023-09-29T18:00	32245	8	-48.1	-84.7	290	10
2023-09-29T18:00	32260	8	-48.1	-84.7	293	9
2023-09-29T18:00	32296	8	-48.3	-84.8	294	9
2023-09-29T18:00	32331	8	-48.3	-84.8	294	9
2023-09-29T18:00	32361	8	-48.2	-84.8	293	9
2023-09-29T18:00	32393	8	-48.4	-84.9	290	9
2023-09-29T18:00	32418	8	-48.3	-84.8	288	10
2023-09-29T18:00	32441	8	-48.4	-84.9	285	11
2023-09-29T18:00	32493	8	-48.3	-84.8	283	11
2023-09-29T18:00	32507	8	-48.4	-84.9	282	12
2023-09-29T18:00	32533	8	-48.5	-85.0	281	12
2023-09-29T18:00	32576	8	-48.6	-85.0	281	13
2023-09-29T18:00	32585	8	-48.7	-85.1	281	14
2023-09-29T18:00	32609	8	-48.8	-85.2	281	14
2023-09-29T18:00	32644	8	-48.7	-85.1	280	15
2023-09-29T18:00	32677	8	-48.7	-85.1	280	15
2023-09-29T18:00	32699	8	-48.8	-85.2	279	16
2023-09-29T18:00	32740	8	-48.9	-85.3	278	16
2023-09-29T18:00	32768	8	-49.1	-85.4	277	17
2023-09-29T18:00	32791	8	-49.2	-85.5	275	17
2023-09-29T18:00	32827	8	-49.1	-85.4	274	17
2023-09-29T18:00	32846	8	-49.1	-85.4	273	18
2023-09-29T18:00	32867	8	-49.1	-85.4	273	18
2023-09-29T18:00	32903	8	-48.9	-85.3	274	18
2023-09-29T18:00	32934	8	-48.9	-85.3	275	19
2023-09-29T18:00	32971	8	-49.0	-85.3	277	19
2023-09-29T18:00	33003	8	-49.0	-85.3	279	19
2023-09-29T18:00	33007	8	-48.8	-85.2	281	19
2023-09-29T18:00	33052	8	-48.8	-85.2	283	19
2023-09-29T18:00	33077	7	-49.0	-85.3	284	19
2023-09-29T18:00	33115	7	-49.0	-85.3	284	19
2023-09-29T18:00	33137	7	-49.0	-85.3	284	18
2023-09-29T18:00	33167	7	-49.3	-85.5	284	18
2023-09-29T18:00	33184	7	-49.2	-85.5	283	17
2023-09-29T18:00	33228	7	-49.1	-85.4	284	17
2023-09-29T18:00	33258	7	-49.0	-85.3	285	16
2023-09-29T18:00	33281	7	-48.7	-85.1	286	16
2023-09-29T18:00	33294	7	-48.4	-84.9	288	16
2023-09-29T18:00	33334	7	-47.9	-84.6	289	16
2023-09-29T18:00	33352	7	-47.4	-84.2	290	17
2023-09-29T18:00	33394	7	-47.1	-84.0	291	17
2023-09-29T18:00	33431	7	-46.8	-83.8	292	18
2023-09-29T18:00	33476	7	-46.7	-83.7	294	18
2023-09-29T18:00	33485	7	-46.6	-83.6	295	18
2023-09-29T18:00	33518	7	-46.6	-83.6	295	19
2023-09-29T18:00	33542	7	-46.6	-83.6	294	19
2023-09-29T18:00	33569	7	-46.7	-83.7	293	19
2023-09-29T18:00	33611	7	-46.6	-83.6	292	19
2023-09-29T18:00	33633	7	-46.6	-83.6	291	19
2023-09-29T18:00	33657	7	-46.7	-83.7	291	19
2023-09-29T18:00	33670	7	-46.8	-83.8	290	19
2023-09-29T18:00	33709	7	-47.0	-83.9	290	19
2023-09-29T18:00	33716	7	-46.8	-83.8	290	18
2023-09-29T18:00	33749	7	-46.7	-83.7	290	18
2023-09-29T18:00	33794	7	-46.7	-83.7	290	18
2023-09-29T18:00	33803	7	-46.7	-83.7	290	17
2023-09-29T18:00	33852	7	-46.6	-83.6	290	17
2023-09-29T18:00	33868	7	-46.5	-83.6	290	18
2023-09-29T18:00	33880	7	-46.6	-83.6	290	18
2023-09-29T18:00	33902	7	-46.5	-83.6	290	19
2023-09-29T18:00	33966	7	-46.5	-83.6	290	19
2023-09-29T18:00	33975	7	-46.6	-83.6	290	20
2023-09-29T18:00	34009	7	-46.8	-83.8	291	21
2023-09-29T18:00	34047	6	-46.9	-83.9	291	22
2023-09-29T18:00	34068	6	-47.0	-83.9	291	22
2023-09-29T18:00	34101	6	-47.1	-84.0	291	23
2023-09-29T18:00	34123	6	-47.2	-84.1	290	24
2023-09-29T18:00	34146	6	-47.2	-84.1	290	24
2023-09-29T18:00	34175	6	-47.3	-84.1	289	25
2023-09-29T18:00	34207	6	-47.4	-84.2	289	25
2023-09-29T18:00	34234	6	-47.4	-84.2	288	25
2023-09-29T18:00	34259	6	-47.2	-84.1	288	25
2023-09-29T18:00	34298	6	-47.0	-83.9	288	24
2023-09-29T18:00	34334	6	-46.7	-83.7	288	24
2023-09-29T18:00	34355	6	-46.4	-83.5	288	23
2023-09-29T18:00	34367	6	-46.2	-83.4	289	22
2023-09-29T18:00	34398	6	-46.3	-83.4	290	22
2023-09-29T18:00	34408	6	-46.4	-83.5	290	21
2023-09-29T18:00	34448	6	-46.5	-83.6	291	21
2023-09-29T18:00	34466	6	-46.5	-83.6	292	21
2023-09-30T00:00	112	1004	20.0	14.8	290	6
2023-09-30T00:00	135	1002	20.1	14.9	289	7
2023-09-30T00:00	161	998	19.9	14.7	289	9
2023-09-30T00:00	189	995	19.9	14.6	289	11
2023-09-30T00:00	209	993	19.8	14.6	289	12
2023-09-30T00:00	232	990	19.5	14.6	290	13
2023-09-30T00:00	259	988	19.2	14.6	291	13
2023-09-30T00:00	276	985	19.1	14.7	292	13
2023-09-30T00:00	299	983	19.0	14.6	291	12
2023-09-30T00:00	327	980	18.7	14.5	290	12
2023-09-30T00:00	356	976	18.5	14.5	289	12
2023-09-30T00:00	383	973	18.2	14.5	288	12
2023-09-30T00:00	410	970	17.9	14.3	288	13
2023-09-30T00:00	436	967	17.7	14.3	288	13
2023-09-30T00:00	459	965	17.5	14.3	288	14
2023-09-30T00:00	484	962	17.2	14.2	289	15
2023-09-30T00:00	506	959	17.1	14.3	289	15
2023-09-30T00:00	531	957	16.8	14.2	290	16
2023-09-30T00:00	550	954	16.6	14.1	292	16
2023-09-30T00:00	574	952	16.4	14.0	294	16
2023-09-30T00:00	605	948	16.2	14.0	296	16
2023-09-30T00:00	629	946	16.1	13.7	297	16
2023-09-30T00:00	654	943	16.0	13.8	298	15
2023-09-30T00:00	680	940	15.9	13.6	299	15
2023-09-30T00:00	702	937	15.8	13.5	299	14
2023-09-30T00:00	732	934	15.6	13.0	298	14
2023-09-30T00:00	760	931	15.8	12.4	297	14
2023-09-30T00:00	782	929	15.7	12.3	296	14
2023-09-30T00:00	805	926	15.6	12.3	295	14
2023-09-30T00:00	829	924	15.5	12.0	294	14
2023-09-30T00:00	853	921	15.4	11.6	293	14
2023-09-30T00:00	880	918	15.4	11.2	292	14
2023-09-30T00:00	906	915	15.3	10.9	292	14
2023-09-30T00:00	931	913	15.2	11.0	292	14
2023-09-30T00:00	959	910	14.9	10.8	292	14
2023-09-30T00:00	985	907	14.7	10.9	291	14
2023-09-30T00:00	1010	904	14.5	10.8	289	13
2023-09-30T00:00	1034	901	14.4	10.5	286	13
2023-09-30T00:00	1063	899	14.4	10.0	282	13
2023-09-30T00:00	1081	896	14.4	9.7	278	13
2023-09-30T00:00	1107	894	14.6	7.9	275	13
2023-09-30T00:00	1127	892	14.6	7.6	273	13
2023-09-30T00:00	1150	889	14.5	7.5	273	13
2023-09-30T00:00	1188	886	14.3	7.4	274	13
2023-09-30T00:00	1213	883	14.1	7.4	275	12
2023-09-30T00:00	1243	880	13.8	7.3	276	12
2023-09-30T00:00	1266	877	13.6	7.3	276	12
2023-09-30T00:00	1296	874	13.6	6.5	275	12
2023-09-30T00:00	1319	872	13.4	6.4	273	13
2023-09-30T00:00	1350	869	13.1	6.5	271	14
2023-09-30T00:00	1375	866	13.0	6.1	270	15
2023-09-30T00:00	1399	863	12.9	5.9	269	15
2023-09-30T00:00	1421	861	12.7	5.8	268	16
2023-09-30T00:00	1443	859	12.5	5.8	268	16
2023-09-30T00:00	1470	856	12.3	6.0	269	16
2023-09-30T00:00	1494	854	12.2	5.8	269	16
2023-09-30T00:00	1513	852	12.1	5.6	268	16
2023-09-30T00:00	1534	849	11.9	5.7	267	16
2023-09-30T00:00	1563	847	11.7	6.1	266	15
2023-09-30T00:00	1584	845	11.5	6.7	263	15
2023-09-30T00:00	1602	843	11.4	6.9	261	15
2023-09-30T00:00	1626	840	11.5	6.6	258	15
2023-09-30T00:00	1649	838	11.5	6.1	256	15
2023-09-30T00:00	1675	835	11.4	6.1	255	15
2023-09-30T00:00	1707	832	11.2	5.9	254	16
2023-09-30T00:00	1735	830	11.0	5.8	253	16
2023-09-30T00:00	1755	828	10.8	5.3	252	16
2023-09-30T00:00	1780	825	10.7	5.7	252	15
2023-09-30T00:00	1807	822	10.5	5.8	253	15
2023-09-30T00:00	1830	820	10.3	5.7	254	15
2023-09-30T00:00	1848	818	10.2	5.8	254	14
2023-09-30T00:00	1870	816	10.1	5.7	254	14
2023-09-30T00:00	1889	814	9.9	5.8	253	14
2023-09-30T00:00	1910	812	9.7	5.7	252	14
2023-09-30T00:00	1932	810	9.5	5.7	251	14
2023-09-30T00:00	1956	808	9.3	5.6	250	14
2023-09-30T00:00	1985	805	9.1	5.3	250	14
2023-09-30T00:00	2009	803	9.0	4.9	249	13
2023-09-30T00:00	2031	800	8.9	4.9	248	13
2023-09-30T00:00	2064	798	8.6	4.7	248	13
2023-09-30T00:00	2090	795	8.4	5.0	249	12
2023-09-30T00:00	2117	792	8.2	4.2	250	12
2023-09-30T00:00	2140	790	8.0	5.0	250	11
2023-09-30T00:00	2167	787	7.8	5.4	251	11
2023-09-30T00:00	2188	785	7.6	5.5	251	11
2023-09-30T00:00	2210	783	7.4	5.4	251	11
2023-09-30T00:00	2231	781	7.2	5.4	252	11
2023-09-30T00:00	2252	779	7.0	5.4	252	11
2023-09-30T00:00	2280	777	6.7	5.3	252	12
2023-09-30T00:00	2303	775	6.5	5.3	251	12
2023-09-30T00:00	2324	773	6.3	5.3	251	13
2023-09-30T00:00	2346	770	6.1	5.1	249	13
2023-09-30T00:00	2366	769	5.9	5.2	248	12
2023-09-30T00:00	2390	767	5.7	5.0	246	11
2023-09-30T00:00	2411	764	5.6	4.9	244	11
2023-09-30T00:00	2436	762	5.4	4.6	242	10
2023-09-30T00:00	2457	760	5.3	4.6	242	10
2023-09-30T00:00	2482	758	5.1	4.3	242	10
2023-09-30T00:00	2505	756	5.0	4.0	243	10
2023-09-30T00:00	2529	753	4.8	3.8	245	11
2023-09-30T00:00	2552	751	4.8	3.6	246	11
2023-09-30T00:00	2574	749	4.7	3.4	248	11
2023-09-30T00:00	2594	747	4.5	3.5	248	11
2023-09-30T00:00	2618	745	4.2	3.3	248	11
2023-09-30T00:00	2639	743	4.0	3.3	247	11
2023-09-30T00:00	2666	741	3.8	3.3	247	11
2023-09-30T00:00	2699	738	3.5	3.5	248	10
2023-09-30T00:00	2734	735	3.2	3.2	250	10
2023-09-30T00:00	2763	732	2.9	2.9	252	10
2023-09-30T00:00	2797	729	2.6	2.5	254	10
2023-09-30T00:00	2821	727	2.7	0.9	255	9
2023-09-30T00:00	2842	725	3.0	1.3	254	9
2023-09-30T00:00	2875	722	2.8	1.5	251	8
2023-09-30T00:00	2904	720	2.5	1.0	247	8
2023-09-30T00:00	2928	717	2.5	0.6	244	8
2023-09-30T00:00	2958	715	2.5	0.5	241	9
2023-09-30T00:00	2992	712	2.9	-3.2	240	10
2023-09-30T00:00	3016	710	3.0		239	10
2023-09-30T00:00	3045	707	2.8	-5.4	239	10
2023-09-30T00:00	3066	705	2.6	-6.1	240	11
2023-09-30T00:00	3092	703	2.4	-6.3	241	11
2023-09-30T00:00	3114	701	2.2	-7.1	242	11
2023-09-30T00:00	3141	699	2.0	-7.3	243	12
2023-09-30T00:00	3164	697	1.8	-8.2	244	12
2023-09-30T00:00	3184	695	1.7	-9.8	244	12
2023-09-30T00:00	3209	693	1.5	-10.4	245	12
2023-09-30T00:00	3241	690	1.2	-10.6	246	13
2023-09-30T00:00	3277	687	0.9	-11.5	248	12
2023-09-30T00:00	3302	685	0.6	-12.1	249	12
2023-09-30T00:00	3322	683	0.5	-12.7	251	12
2023-09-30T00:00	3347	681	0.3	-12.8	253	11
2023-09-30T00:00	3374	679	0.1	-12.8	255	10
2023-09-30T00:00	3402	676	-0.1	-13.5	257	9
2023-09-30T00:00	3426	674	-0.3	-13.7	258	9
2023-09-30T00:00	3448	673	-0.4	-14.0	258	9
2023-09-30T00:00	3468	671	-0.6	-14.7	256	10
2023-09-30T00:00	3488	669	-0.7	-15.6	255	10
2023-09-30T00:00	3510	667	-0.9	-15.9	253	11
2023-09-30T00:00	3541	665	-1.1	-16.9	252	11
2023-09-30T00:00	3559	663	-1.2	-19.0	251	12
2023-09-30T00:00	3576	662	-1.3	-21.6	250	12
2023-09-30T00:00	3599	660	-0.8	-28.2	249	12
2023-09-30T00:00	3625	658	-0.8	-28.6	248	12
2023-09-30T00:00	3655	655	-0.7	-29.3	248	12
2023-09-30T00:00	3680	653	-0.6	-30.7	249	13
2023-09-30T00:00	3702	651	-0.7	-31.2	251	13
2023-09-30T00:00	3729	649	-0.7	-31.2	253	13
2023-09-30T00:00	3758	647	-0.4	-30.2	255	13
2023-09-30T00:00	3780	645	-0.3	-30.1	255	14
2023-09-30T00:00	3803	643	-0.4	-30.8	256	14
2023-09-30T00:00	3827	641	-0.5	-31.1	256	14
2023-09-30T00:00	3850	639	-0.5	-33.1	257	15
2023-09-30T00:00	3877	637	-0.7	-33.0	258	15
2023-09-30T00:00	3901	635	-0.7	-33.6	259	15
2023-09-30T00:00	3930	633	-0.9	-33.8	260	14
2023-09-30T00:00	3956	631	-1.1	-33.1	261	14
2023-09-30T00:00	3978	629	-1.3	-32.0	262	14
2023-09-30T00:00	3996	628	-1.4	-31.3	262	14
2023-09-30T00:00	4022	626	-1.7	-31.4	261	13
2023-09-30T00:00	4054	623	-1.8	-32.6	259	13
2023-09-30T00:00	4079	621	-2.0	-32.6	257	13
2023-09-30T00:00	4105	619	-2.3	-31.9	255	13
2023-09-30T00:00	4132	617	-2.5	-31.7	255	13
2023-09-30T00:00	4149	616	-2.6	-32.1	255	13
2023-09-30T00:00	4167	615	-2.7	-32.2	256	13
2023-09-30T00:00	4184	613	-2.8	-31.4	258	14
2023-09-30T00:00	4206	611	-2.9	-31.0	259	14
2023-09-30T00:00	4238	609	-3.1	-29.0	260	14
2023-09-30T00:00	4257	607	-3.3	-28.7	261	14
2023-09-30T00:00	4281	606	-3.4	-28.3	261	13
2023-09-30T00:00	4302	604	-3.4	-30.0	262	13
2023-09-30T00:00	4326	602	-3.5	-30.5	262	13
2023-09-30T00:00	4352	600	-3.7	-30.6	261	13
2023-09-30T00:00	4379	598	-3.9	-30.8	261	13
2023-09-30T00:00	4401	596	-4.1	-31.0	260	14
2023-09-30T00:00	4425	595	-4.3	-31.3	259	14
2023-09-30T00:00	4454	593	-4.5	-31.8	259	14
2023-09-30T00:00	4471	591	-4.6	-32.3	259	14
2023-09-30T00:00	4489	590	-4.7	-32.2	259	14
2023-09-30T00:00	4505	589	-4.7	-32.5	258	14
2023-09-30T00:00	4526	587	-4.9	-32.8	258	14
2023-09-30T00:00	4554	585	-5.0	-33.6	257	14
2023-09-30T00:00	4582	583	-5.1	-34.7	257	14
2023-09-30T00:00	4601	581	-5.2	-34.3	257	13
2023-09-30T00:00	4630	579	-5.5	-34.4	258	13
2023-09-30T00:00	4662	577	-5.7	-34.9	259	13
2023-09-30T00:00	4676	576	-5.8	-34.5	260	13
2023-09-30T00:00	4695	575	-6.0	-34.4	262	12
2023-09-30T00:00	4716	573	-6.1	-35.8	263	12
2023-09-30T00:00	4747	571	-6.3		266	11
2023-09-30T00:00	4776	569	-6.4	-41.6	269	11
2023-09-30T00:00	4801	567	-6.6	-44.1	272	11
2023-09-30T00:00	4820	566	-6.8	-44.2	274	11
2023-09-30T00:00	4834	564	-6.9	-44.3	275	12
2023-09-30T00:00	4851	563	-7.0	-44.4	276	12
2023-09-30T00:00	4875	561	-7.1	-44.4	276	12
2023-09-30T00:00	4902	560	-7.3	-43.9	276	12
2023-09-30T00:00	4923	558	-7.5	-44.4	275	12
2023-09-30T00:00	4950	556	-7.7	-45.6	272	12
2023-09-30T00:00	4973	554	-7.9	-46.2	269	12
2023-09-30T00:00	5000	553	-8.1	-46.3	266	12
2023-09-30T00:00	5022	551	-8.3	-46.5	264	12
2023-09-30T00:00	5042	550	-8.5	-46.2	265	12
2023-09-30T00:00	5068	548	-8.7	-45.6	266	12
2023-09-30T00:00	5090	546	-8.9	-44.1	269	12
2023-09-30T00:00	5113	544	-9.1	-45.5	270	12
2023-09-30T00:00	5139	543	-9.3	-46.4	270	12
2023-09-30T00:00	5168	541	-9.6	-46.3	269	11
2023-09-30T00:00	5195	539	-9.8	-46.4	268	12
2023-09-30T00:00	5211	538	-9.9	-46.5	267	12
2023-09-30T00:00	5228	536	-10.1	-45.9	266	11
2023-09-30T00:00	5247	535	-10.2	-45.4	266	11
2023-09-30T00:00	5275	533	-10.5	-43.6	266	11
2023-09-30T00:00	5302	531	-10.7	-43.1	265	11
2023-09-30T00:00	5339	529	-10.9	-43.9	264	11
2023-09-30T00:00	5366	527	-11.2		263	11
2023-09-30T00:00	5383	526	-11.4	-44.1	263	11
2023-09-30T00:00	5402	525	-11.6	-44.2	263	11
2023-09-30T00:00	5419	523	-11.7	-44.1	263	11
2023-09-30T00:00	5438	522	-11.9	-44.0	263	11
2023-09-30T00:00	5455	521	-12.1	-43.7	262	11
2023-09-30T00:00	5474	520	-12.2	-43.6	261	11
2023-09-30T00:00	5495	518	-12.4	-43.5	260	11
2023-09-30T00:00	5521	516	-12.6	-43.2	260	11
2023-09-30T00:00	5545	515	-12.7	-42.0	260	11
2023-09-30T00:00	5572	513	-13.0	-41.0	259	11
2023-09-30T00:00	5593	511	-13.2	-41.3	258	11
2023-09-30T00:00	5621	510	-13.4	-41.1	256	12
2023-09-30T00:00	5647	508	-13.7	-41.4	254	12
2023-09-30T00:00	5674	506	-13.9	-41.2	253	13
2023-09-30T00:00	5698	505	-14.1	-41.5	253	13
2023-09-30T00:00	5720	503	-14.2	-41.5	254	13
2023-09-30T00:00	5739	502	-14.4		256	13
2023-09-30T00:00	5759	501	-14.5	-41.0	257	13
2023-09-30T00:00	5779	499	-14.6	-41.2	259	13
2023-09-30T00:00	5805	497	-14.8	-41.7	261	13
2023-09-30T00:00	5834	495	-15.0	-43.3	263	13
2023-09-30T00:00	5872	493	-15.0	-45.7	265	13
2023-09-30T00:00	5900	491	-14.9	-47.0	267	13
2023-09-30T00:00	5925	490	-15.1	-47.4	267	13
2023-09-30T00:00	5943	488	-15.3	-47.6	266	14
2023-09-30T00:00	5965	487	-15.4	-47.6	265	14
2023-09-30T00:00	5992	485	-15.6	-47.8	263	14
2023-09-30T00:00	6020	484	-15.8	-48.2	261	15
2023-09-30T00:00	6047	482	-15.9	-48.5	260	15
2023-09-30T00:00	6079	480	-16.2	-48.5	261	15
2023-09-30T00:00	6110	478	-16.5	-48.7	261	15
2023-09-30T00:00	6135	476	-16.7	-48.9	262	15
2023-09-30T00:00	6167	474	-16.8	-49.2	263	15
2023-09-30T00:00	6203	472	-17.1	-49.7	264	15
2023-09-30T00:00	6229	470	-17.3	-50.1	264	16
2023-09-30T00:00	6248	469	-17.4	-49.7	264	16
2023-09-30T00:00	6272	468	-17.5	-49.2	263	16
2023-09-30T00:00	6299	466	-17.7	-49.2	262	15
2023-09-30T00:00	6328	464	-18.0	-48.5	261	15
2023-09-30T00:00	6357	462	-18.2	-46.5	260	14
2023-09-30T00:00	6387	460	-18.4	-46.5	259	14
2023-09-30T00:00	6415	459	-18.6	-46.4	259	14
2023-09-30T00:00	6443	457	-18.8	-46.7	260	14
2023-09-30T00:00	6472	455	-18.9	-46.9	261	14
2023-09-30T00:00	6502	453	-19.1	-47.6	262	14
2023-09-30T00:00	6530	452	-19.3	-47.9	263	14
2023-09-30T00:00	6559	450	-19.4	-48.8	262	15
2023-09-30T00:00	6590	448	-19.6	-49.1	261	15
2023-09-30T00:00	6623	446	-19.9	-49.5	260	15
2023-09-30T00:00	6646	445	-20.0	-49.8	258	16
2023-09-30T00:00	6664	444	-20.1	-49.5	257	16
2023-09-30T00:00	6682	443	-20.3	-49.5	255	15
2023-09-30T00:00	6699	441	-20.4	-49.3	255	15
2023-09-30T00:00	6717	440	-20.6	-49.5	254	15
2023-09-30T00:00	6736	439	-20.7	-49.6	254	15
2023-09-30T00:00	6755	438	-20.9	-49.5	255	15
2023-09-30T00:00	6775	437	-21.0	-49.4	255	15
2023-09-30T00:00	6793	436	-21.2	-49.6	256	15
2023-09-30T00:00	6812	435	-21.3	-49.3	257	15
2023-09-30T00:00	6838	433	-21.4	-48.7	258	15
2023-09-30T00:00	6864	432	-21.6	-48.9	258	15
2023-09-30T00:00	6896	430	-21.9	-48.7	257	15
2023-09-30T00:00	6922	428	-22.0	-48.3	256	16
2023-09-30T00:00	6950	427	-22.2	-48.6	255	16
2023-09-30T00:00	6983	425	-22.5	-49.1	254	16
2023-09-30T00:00	7007	423	-22.6	-49.2	253	16
2023-09-30T00:00	7035	422	-22.8	-49.1	252	16
2023-09-30T00:00	7066	420	-23.1	-49.0	251	17
2023-09-30T00:00	7095	418	-23.3	-49.1	251	17
2023-09-30T00:00	7130	416	-23.5	-48.6	252	17
2023-09-30T00:00	7162	415	-23.8	-48.6	253	17
2023-09-30T00:00	7181	413	-24.0	-48.2	253	17
2023-09-30T00:00	7199	412	-24.2	-47.9	254	17
2023-09-30T00:00	7219	411	-24.3	-47.6	253	17
2023-09-30T00:00	7236	410	-24.5	-46.7	253	18
2023-09-30T00:00	7258	409	-24.7	-42.7	252	18
2023-09-30T00:00	7276	408	-24.8	-40.3	251	18
2023-09-30T00:00	7295	407	-25.0	-38.3	250	18
2023-09-30T00:00	7316	406	-25.2	-37.1	249	18
2023-09-30T00:00	7338	405	-25.4	-37.0	248	18
2023-09-30T00:00	7361	403	-25.6	-36.7	246	18
2023-09-30T00:00	7386	402	-25.7	-34.7	244	18
2023-09-30T00:00	7414	400	-25.9	-35.7	243	18
2023-09-30T00:00	7440	399	-26.1	-36.2	242	19
2023-09-30T00:00	7468	397	-26.3	-39.8	242	19
2023-09-30T00:00	7494	396	-26.4	-48.3	241	19
2023-09-30T00:00	7524	394	-26.6	-49.0	241	18
2023-09-30T00:00	7555	393	-26.9	-49.8	242	18
2023-09-30T00:00	7585	391	-27.1	-50.2	242	18
2023-09-30T00:00	7613	390	-27.4	-50.9	242	18
2023-09-30T00:00	7642	388	-27.6	-50.9	241	18
2023-09-30T00:00	7666	387	-27.8	-51.0	239	19
2023-09-30T00:00	7694	385	-28.1	-50.9	238	19
2023-09-30T00:00	7722	384	-28.3	-45.6	236	19
2023-09-30T00:00	7756	382	-28.7	-43.0	236	19
2023-09-30T00:00	7778	381	-28.9	-40.1	236	19
2023-09-30T00:00	7797	380	-29.1	-40.1	238	19
2023-09-30T00:00	7815	379	-29.2	-39.1	239	19
2023-09-30T00:00	7835	378	-29.4	-37.8	241	19
2023-09-30T00:00	7855	377	-29.5	-38.1	242	19
2023-09-30T00:00	7872	376	-29.7	-37.8	242	19
2023-09-30T00:00	7891	375	-29.9	-41.1	243	19
2023-09-30T00:00	7912	374	-30.0	-47.1	243	19
2023-09-30T00:00	7929	373	-30.1	-52.2	244	19
2023-09-30T00:00	7950	372	-30.2	-51.8	244	19
2023-09-30T00:00	7970	371	-30.4	-51.8	245	19
2023-09-30T00:00	7991	369	-30.5	-52.2	246	19
2023-09-30T00:00	8014	368	-30.7	-52.6	246	19
2023-09-30T00:00	8035	367	-30.9	-51.8	246	19
2023-09-30T00:00	8060	366	-31.0	-49.7	246	19
2023-09-30T00:00	8086	365	-31.3	-50.5	246	19
2023-09-30T00:00	8108	363	-31.4	-50.3	246	19
2023-09-30T00:00	8129	362	-31.6	-50.5	246	19
2023-09-30T00:00	8147	361	-31.8	-50.6	246	19
2023-09-30T00:00	8167	360	-32.0	-50.4	246	19
2023-09-30T00:00	8187	359	-32.2	-50.6	246	19
2023-09-30T00:00	8211	358	-32.4	-50.5	245	19
2023-09-30T00:00	8237	357	-32.6	-50.8	245	19
2023-09-30T00:00	8261	356	-32.8	-50.9	245	19
2023-09-30T00:00	8286	354	-33.1	-51.0	246	19
2023-09-30T00:00	8310	353	-33.3	-50.9	246	19
2023-09-30T00:00	8334	352	-33.5	-51.3	246	19
2023-09-30T00:00	8355	351	-33.7	-51.4	246	19
2023-09-30T00:00	8380	350	-33.9	-51.4	246	19
2023-09-30T00:00	8404	348	-34.1	-50.7	247	19
2023-09-30T00:00	8428	347	-34.3	-48.1	247	19
2023-09-30T00:00	8451	346	-34.5	-42.5	247	19
2023-09-30T00:00	8468	345	-34.5	-44.6	248	19
2023-09-30T00:00	8487	344	-34.4	-45.1	248	19
2023-09-30T00:00	8508	343	-34.5	-38.2	248	19
2023-09-30T00:00	8536	342	-34.7	-38.7	248	19
2023-09-30T00:00	8558	341	-34.8	-40.3	248	19
2023-09-30T00:00	8580	340	-35.0	-41.2	249	19
2023-09-30T00:00	8604	339	-35.2	-41.5	249	19
2023-09-30T00:00	8634	337	-35.5	-41.8	250	19
2023-09-30T00:00	8660	336	-35.7	-42.3	250	19
2023-09-30T00:00	8683	335	-35.9	-43.4	250	19
2023-09-30T00:00	8714	333	-36.2	-43.2	250	19
2023-09-30T00:00	8743	332	-36.5	-43.2	250	20
2023-09-30T00:00	8766	331	-36.7	-43.2	250	20
2023-09-30T00:00	8794	329	-37.0	-43.2	250	20
2023-09-30T00:00	8821	328	-37.3	-43.4	250	20
2023-09-30T00:00	8856	326	-37.6	-43.4	251	20
2023-09-30T00:00	8893	325	-38.0	-43.6	251	20
2023-09-30T00:00	8912	324	-38.2	-43.6	251	20
2023-09-30T00:00	8933	323	-38.4	-43.5	251	20
2023-09-30T00:00	8951	322	-38.5	-43.6	250	20
2023-09-30T00:00	8969	321	-38.7	-43.6	249	20
2023-09-30T00:00	8989	320	-38.9	-43.7	249	20
2023-09-30T00:00	9009	319	-39.1	-43.7	249	20
2023-09-30T00:00	9030	318	-39.3	-43.9	249	20
2023-09-30T00:00	9050	317	-39.5	-43.8	249	20
2023-09-30T00:00	9073	316	-39.7	-43.9	249	20
2023-09-30T00:00	9096	315	-40.0	-43.9	249	20
2023-09-30T00:00	9117	314	-40.2	-44.1	248	20
2023-09-30T00:00	9137	313	-40.4	-44.2	248	20
2023-09-30T00:00	9158	312	-40.6	-44.2	248	19
2023-09-30T00:00	9178	312	-40.8	-44.2	248	19
2023-09-30T00:00	9198	311	-41.0	-45.4	248	19
2023-09-30T00:00	9219	310	-41.0	-48.3	248	19
2023-09-30T00:00	9243	309	-41.2	-48.1	248	19
2023-09-30T00:00	9262	308	-41.3	-48.9	248	19
2023-09-30T00:00	9283	307	-41.5	-48.9	248	19
2023-09-30T00:00	9301	306	-41.6	-49.2	248	19
2023-09-30T00:00	9320	305	-41.7	-49.9	248	19
2023-09-30T00:00	9338	304	-41.9	-50.1	249	19
2023-09-30T00:00	9356	303	-42.0	-50.1	249	19
2023-09-30T00:00	9374	303	-42.2	-50.2	249	20
2023-09-30T00:00	9395	302	-42.4		249	20
2023-09-30T00:00	9416	301	-42.5	-51.4	248	20
2023-09-30T00:00	9438	300	-42.7	-52.0	247	21
2023-09-30T00:00	9458	299	-42.8	-52.4	246	21
2023-09-30T00:00	9487	298	-43.0	-53.2	245	21
2023-09-30T00:00	9516	296	-43.2	-54.4	244	22
2023-09-30T00:00	9536	295	-43.3	-55.2	244	22
2023-09-30T00:00	9556	295	-43.5	-55.1	244	22
2023-09-30T00:00	9574	294	-43.6	-55.6	245	22
2023-09-30T00:00	9591	293	-43.7	-56.6	246	22
2023-09-30T00:00	9609	292	-43.7	-57.3	246	22
2023-09-30T00:00	9628	291	-43.8	-57.1	246	22
2023-09-30T00:00	9645	291	-44.0	-57.0	246	22
2023-09-30T00:00	9665	290	-44.1	-56.9	246	22
2023-09-30T00:00	9686	289	-44.3	-57.0	246	23
2023-09-30T00:00	9705	288	-44.5	-57.0	246	23
2023-09-30T00:00	9722	287	-44.7	-57.2	246	23
2023-09-30T00:00	9741	287	-44.8	-57.2	245	23
2023-09-30T00:00	9761	286	-45.0	-57.3	245	23
2023-09-30T00:00	9778	285	-45.2		245	23
2023-09-30T00:00	9796	284	-45.4	-57.5	244	23
2023-09-30T00:00	9814	283	-45.5	-57.5	244	23
2023-09-30T00:00	9832	283	-45.7	-57.6	245	23
2023-09-30T00:00	9852	282	-45.9	-57.6	245	23
2023-09-30T00:00	9870	281	-46.0	-57.5	245	23
2023-09-30T00:00	9890	280	-46.2	-57.5	245	23
2023-09-30T00:00	9910	279	-46.3	-57.3	245	23
2023-09-30T00:00	9927	279	-46.5	-57.3	245	23
2023-09-30T00:00	9948	278	-46.7	-57.5	245	23
2023-09-30T00:00	9965	277	-46.9	-57.6	246	23
2023-09-30T00:00	9985	276	-47.0	-57.5	246	23
2023-09-30T00:00	10004	275	-47.2	-57.4	246	23
2023-09-30T00:00	10022	275	-47.4	-57.5	247	23
2023-09-30T00:00	10041	274	-47.6	-57.5	247	22
2023-09-30T00:00	10060	273	-47.7	-57.4	247	22
2023-09-30T00:00	10078	272	-47.9	-57.7	247	22
2023-09-30T00:00	10097	272	-48.0	-58.5	246	21
2023-09-30T00:00	10115	271	-48.1	-59.1	245	21
2023-09-30T00:00	10133	270	-48.2	-59.6	244	21
2023-09-30T00:00	10153	269	-48.3	-60.4	243	21
2023-09-30T00:00	10172	269	-48.4	-61.2	241	21
2023-09-30T00:00	10191	268	-48.5	-61.5	240	22
2023-09-30T00:00	10213	267	-48.6	-62.1	239	22
2023-09-30T00:00	10230	266	-48.7	-63.2	238	22
2023-09-30T00:00	10250	265	-48.8	-64.1	237	22
2023-09-30T00:00	10268	265	-48.7	-64.1	236	22
2023-09-30T00:00	10289	264	-48.8	-63.9	235	23
2023-09-30T00:00	10308	263	-48.9	-63.7	235	23
2023-09-30T00:00	10331	262	-49.0	-63.6	234	24
2023-09-30T00:00	10348	261	-49.1	-63.5	234	24
2023-09-30T00:00	10367	261	-49.3	-63.7	234	24
2023-09-30T00:00	10385	260	-49.4	-64.0	234	24
2023-09-30T00:00	10405	259	-49.5	-64.4	234	24
2023-09-30T00:00	10421	258	-49.6	-64.5	234	24
2023-09-30T00:00	10442	258	-49.6	-64.8	234	24
2023-09-30T00:00	10460	257	-49.6	-65.2	234	24
2023-09-30T00:00	10478	256	-49.8	-65.1	234	24
2023-09-30T00:00	10496	256	-50.0	-65.1	234	24
2023-09-30T00:00	10516	255	-50.1	-65.3	234	24
2023-09-30T00:00	10536	254	-50.3	-65.7	234	24
2023-09-30T00:00	10559	253	-50.3	-66.4	233	24
2023-09-30T00:00	10579	252	-50.4	-66.8	233	24
2023-09-30T00:00	10597	252	-50.6	-66.6	233	24
2023-09-30T00:00	10617	251	-50.8	-66.5	232	24
2023-09-30T00:00	10637	250	-50.9	-66.2	232	24
2023-09-30T00:00	10658	249	-51.1	-66.1	231	24
2023-09-30T00:00	10678	249	-51.3	-66.3	230	24
2023-09-30T00:00	10698	248	-51.4	-66.4	230	24
2023-09-30T00:00	10721	247	-51.5	-66.3	230	23
2023-09-30T00:00	10742	246	-51.6	-66.5	230	23
2023-09-30T00:00	10760	245	-51.8	-66.6	230	23
2023-09-30T00:00	10780	245	-51.8	-66.3	231	23
2023-09-30T00:00	10800	244	-52.0	-66.1	231	23
2023-09-30T00:00	10821	243	-52.2	-65.6	231	22
2023-09-30T00:00	10842	242	-52.3	-65.4	231	22
2023-09-30T00:00	10861	242	-52.4	-65.5	230	22
2023-09-30T00:00	10881	241	-52.6	-65.8	230	22
2023-09-30T00:00	10900	240	-52.6	-65.9	229	22
2023-09-30T00:00	10919	239	-52.8	-66.2	229	22
2023-09-30T00:00	10938	239	-52.9	-66.2	229	22
2023-09-30T00:00	10959	238	-53.1	-66.2	228	22
2023-09-30T00:00	10979	237	-53.2	-66.2	227	22
2023-09-30T00:00	11002	236	-53.2	-66.3	226	23
2023-09-30T00:00	11025	236	-53.2	-66.5	225	23
2023-09-30T00:00	11045	235	-53.3	-66.8	225	23
2023-09-30T00:00	11064	234	-53.4	-66.9	224	24
2023-09-30T00:00	11084	233	-53.6	-66.9	223	24
2023-09-30T00:00	11107	233	-53.8	-66.9	223	24
2023-09-30T00:00	11126	232	-53.9	-66.8	222	24
2023-09-30T00:00	11147	231	-54.0	-66.9	222	24
2023-09-30T00:00	11167	230	-53.9	-66.7	222	25
2023-09-30T00:00	11189	230	-54.1	-66.8	222	25
2023-09-30T00:00	11209	229	-54.1	-66.5	223	25
2023-09-30T00:00	11232	228	-54.2	-66.5	223	25
2023-09-30T00:00	11253	227	-54.4	-66.7	224	25
2023-09-30T00:00	11276	227	-54.4	-66.6	224	25
2023-09-30T00:00	11296	226	-54.7	-66.8	224	25
2023-09-30T00:00	11318	225	-54.8	-66.7	224	25
2023-09-30T00:00	11341	224	-55.0	-66.8	225	25
2023-09-30T00:00	11361	224	-55.2	-66.8	225	26
2023-09-30T00:00	11382	223	-55.3	-66.7	225	26
2023-09-30T00:00	11404	222	-55.5	-66.7	226	26
2023-09-30T00:00	11430	221	-55.6	-66.6	226	26
2023-09-30T00:00	11464	220	-55.6	-66.8	227	26
2023-09-30T00:00	11487	219	-55.6	-67.2	228	26
2023-09-30T00:00	11515	218	-55.8	-67.8	229	26
2023-09-30T00:00	11539	217	-55.9	-68.1	231	25
2023-09-30T00:00	11565	217	-55.9	-68.5	233	25
2023-09-30T00:00	11589	216	-55.8	-68.7	234	26
2023-09-30T00:00	11614	215	-56.0	-69.0	236	26
2023-09-30T00:00	11634	214	-56.2	-69.2	238	26
2023-09-30T00:00	11656	213	-56.2	-69.3	239	26
2023-09-30T00:00	11676	213	-56.2	-69.5	240	26
2023-09-30T00:00	11694	212	-56.0	-69.7	241	26
2023-09-30T00:00	11714	211	-56.1	-70.3	241	26
2023-09-30T00:00	11736	211	-56.1	-70.4	241	26
2023-09-30T00:00	11755	210	-56.2	-70.6	241	26
2023-09-30T00:00	11776	209	-56.2	-70.8	242	26
2023-09-30T00:00	11795	209	-56.2	-71.1	242	26
2023-09-30T00:00	11816	208	-56.1	-71.4	242	25
2023-09-30T00:00	11836	207	-56.1	-71.7	243	25
2023-09-30T00:00	11854	207	-55.9	-71.8	243	25
2023-09-30T00:00	11872	206	-55.9	-71.9	244	25
2023-09-30T00:00	11890	206	-56.0	-72.0	244	24
2023-09-30T00:00	11909	205	-56.0	-72.1	245	24
2023-09-30T00:00	11930	204	-56.1	-72.2	245	24
2023-09-30T00:00	11948	204	-56.2	-72.3	245	24
2023-09-30T00:00	11967	203	-56.2	-72.3	246	23
2023-09-30T00:00	11989	203	-56.3	-72.5	246	23
2023-09-30T00:00	12006	202	-56.3	-72.7	247	22
2023-09-30T00:00	12024	201	-56.2	-73.0	247	22
2023-09-30T00:00	12042	201	-55.8		248	22
2023-09-30T00:00	12063	200	-55.9	-73.5	249	21
2023-09-30T00:00	12083	200	-55.9	-73.6	249	21
2023-09-30T00:00	12102	199	-55.9	-73.8	249	21
2023-09-30T00:00	12122	198	-55.9	-74.0	249	21
2023-09-30T00:00	12141	198	-55.8	-74.1	249	21
2023-09-30T00:00	12157	197	-55.9	-74.3	249	21
2023-09-30T00:00	12177	197	-55.9	-74.4	249	21
2023-09-30T00:00	12194	196	-55.9	-74.5	249	22
2023-09-30T00:00	12215	195	-56.0	-74.6	249	22
2023-09-30T00:00	12233	195	-56.0	-74.7	248	22
2023-09-30T00:00	12254	194	-55.9	-74.8	248	22
2023-09-30T00:00	12275	194	-56.1	-75.2	248	23
2023-09-30T00:00	12293	193	-56.0	-75.4	248	23
2023-09-30T00:00	12313	192	-55.9	-75.8	249	23
2023-09-30T00:00	12334	192	-55.8	-75.9	250	24
2023-09-30T00:00	12356	191	-55.9	-76.1	250	24
2023-09-30T00:00	12375	191	-56.0	-76.2	251	24
2023-09-30T00:00	12397	190	-56.2	-76.4	251	25
2023-09-30T00:00	12417	189	-56.3	-76.4	251	25
2023-09-30T00:00	12437	189	-56.4	-76.6	251	25
2023-09-30T00:00	12460	188	-56.4	-76.8	251	25
2023-09-30T00:00	12478	187	-56.4	-76.9	252	25
2023-09-30T00:00	12499	187	-56.4	-77.0	253	26
2023-09-30T00:00	12520	186	-56.3	-77.2	254	26
2023-09-30T00:00	12541	186	-56.1	-77.3	255	27
2023-09-30T00:00	12563	185	-55.9	-77.4	256	27
2023-09-30T00:00	12581	184	-56.0	-77.5	257	27
2023-09-30T00:00	12603	184	-56.1	-77.5	258	27
2023-09-30T00:00	12624	183	-56.0	-77.5	259	27
2023-09-30T00:00	12644	183	-56.0	-77.5	259	27
2023-09-30T00:00	12664	182	-55.9	-77.7	260	27
2023-09-30T00:00	12687	182	-55.7	-77.6	261	27
2023-09-30T00:00	12705	181	-55.7	-77.8	262	26
2023-09-30T00:00	12725	180	-55.5	-77.9	263	26
2023-09-30T00:00	12743	180	-55.4	-78.0	264	26
2023-09-30T00:00	12762	179	-55.1	-78.0	265	26
2023-09-30T00:00	12781	179	-54.9	-77.8	265	26
2023-09-30T00:00	12801	178	-54.8	-77.7	266	26
2023-09-30T00:00	12823	178	-54.8	-77.9	266	25
2023-09-30T00:00	12841	177	-54.8	-78.1	266	25
2023-09-30T00:00	12861	177	-54.5	-78.0	265	25
2023-09-30T00:00	12878	176	-54.2	-77.9	265	25
2023-09-30T00:00	12897	176	-54.1	-77.9	265	24
2023-09-30T00:00	12917	175	-54.1	-77.9	265	24
2023-09-30T00:00	12935	175	-53.8	-77.8	265	24
2023-09-30T00:00	12951	174	-53.6	-77.7	265	24
2023-09-30T00:00	12969	174	-53.7	-77.7	266	24
2023-09-30T00:00	12987	173	-53.8	-78.0	267	24
2023-09-30T00:00	13006	173	-53.9	-77.9	267	24
2023-09-30T00:00	13024	172	-53.9	-77.9	267	23
2023-09-30T00:00	13042	172	-54.0	-78.0	266	23
2023-09-30T00:00	13062	171	-54.0	-78.0	265	22
2023-09-30T00:00	13081	171	-53.7	-77.9	263	22
2023-09-30T00:00	13102	170	-53.5	-77.8	262	22
2023-09-30T00:00	13120	170	-53.5	-78.0	260	22
2023-09-30T00:00	13139	169	-53.5	-78.2	259	22
2023-09-30T00:00	13159	169	-53.6	-78.5	259	22
2023-09-30T00:00	13180	168	-53.4	-78.3	258	22
2023-09-30T00:00	13200	167	-53.5	-78.4	258	22
2023-09-30T00:00	13222	167	-53.7	-78.6	258	22
2023-09-30T00:00	13240	166	-53.8	-78.4	257	22
2023-09-30T00:00	13262	166	-54.0	-78.6	257	22
2023-09-30T00:00	13282	165	-54.2	-78.5	256	22
2023-09-30T00:00	13303	165	-54.4	-78.7	256	22
2023-09-30T00:00	13326	164	-54.6	-78.6	255	22
2023-09-30T00:00	13348	164	-54.8	-78.8	255	22
2023-09-30T00:00	13369	163	-55.0	-78.8	254	22
2023-09-30T00:00	13394	163	-55.2	-78.9	253	21
2023-09-30T00:00	13414	162	-55.4	-79.1	253	22
2023-09-30T00:00	13433	162	-55.5	-79.2	252	22
2023-09-30T00:00	13453	161	-55.5	-79.4	252	22
2023-09-30T00:00	13477	160	-55.6	-79.4	252	22
2023-09-30T00:00	13499	160	-55.5	-79.4	252	22
2023-09-30T00:00	13521	159	-55.5	-79.6	252	23
2023-09-30T00:00	13543	159	-55.6	-79.6	251	23
2023-09-30T00:00	13568	158	-55.7	-79.7	250	23
2023-09-30T00:00	13591	158	-55.9	-79.9	249	23
2023-09-30T00:00	13615	157	-56.1		249	23
2023-09-30T00:00	13637	156	-56.3	-80.0	249	23
2023-09-30T00:00	13663	156	-56.6	-80.0	250	23
2023-09-30T00:00	13689	155	-56.8	-80.2	251	24
2023-09-30T00:00	13712	155	-57.0	-80.4	252	24
2023-09-30T00:00	13736	154	-57.0	-80.4	253	24
2023-09-30T00:00	13760	153	-57.2	-80.5	253	24
2023-09-30T00:00	13784	153	-57.3	-80.6	254	25
2023-09-30T00:00	13810	152	-57.3	-80.6	253	25
2023-09-30T00:00	13836	152	-57.3	-80.4	253	25
2023-09-30T00:00	13860	151	-57.5	-80.6	253	26
2023-09-30T00:00	13885	150	-57.8	-80.8	253	26
2023-09-30T00:00	13909	150	-58.0	-80.8	254	26
2023-09-30T00:00	13932	149	-58.2	-81.0	255	26
2023-09-30T00:00	13958	149	-58.2	-81.0	256	26
2023-09-30T00:00	13981	148	-58.0	-80.8	257	26
2023-09-30T00:00	14004	148	-58.0	-81.0	257	26
2023-09-30T00:00	14028	147	-58.0	-81.0	258	26
2023-09-30T00:00	14052	146	-58.2	-81.1	259	26
2023-09-30T00:00	14075	146	-58.2	-81.1	260	26
2023-09-30T00:00	14096	145	-58.4	-81.3	261	26
2023-09-30T00:00	14120	145	-58.5	-81.2	262	26
2023-09-30T00:00	14142	144	-58.4	-81.3	262	26
2023-09-30T00:00	14165	144	-58.3	-81.2	263	26
2023-09-30T00:00	14186	143	-58.1	-81.2	263	25
2023-09-30T00:00	14207	143	-58.0	-81.2	263	25
2023-09-30T00:00	14227	142	-58.0	-81.2	263	25
2023-09-30T00:00	14251	142	-58.1	-81.1	263	24
2023-09-30T00:00	14268	142	-58.2	-81.1	264	24
2023-09-30T00:00	14287	141	-58.2	-81.1	264	23
2023-09-30T00:00	14308	141	-58.3	-81.2	264	23
2023-09-30T00:00	14327	140	-58.4	-81.3	264	23
2023-09-30T00:00	14346	140	-58.5	-81.2	264	22
2023-09-30T00:00	14363	139	-58.6	-81.3	264	22
2023-09-30T00:00	14379	139	-58.6	-81.3	263	22
2023-09-30T00:00	14396	139	-58.7	-81.4	262	22
2023-09-30T00:00	14414	138	-58.7	-81.4	262	22
2023-09-30T00:00	14432	138	-58.5	-81.4	261	21
2023-09-30T00:00	14452	137	-58.3	-81.4	260	21
2023-09-30T00:00	14471	137	-58.3	-81.4	259	21
2023-09-30T00:00	14491	137	-58.2	-81.3	258	21
2023-09-30T00:00	14510	136	-58.1	-81.2	257	22
2023-09-30T00:00	14530	136	-57.9	-81.3	257	22
2023-09-30T00:00	14550	135	-58.0	-81.5	257	22
2023-09-30T00:00	14569	135	-58.0	-81.8	257	23
2023-09-30T00:00	14593	134	-58.1	-81.8	258	23
2023-09-30T00:00	14608	134	-58.2	-81.7	258	24
2023-09-30T00:00	14627	134	-58.2	-81.7	259	24
2023-09-30T00:00	14649	133	-58.3	-81.8	260	25
2023-09-30T00:00	14667	133	-58.3	-81.8	261	25
2023-09-30T00:00	14687	132	-58.2		262	25
2023-09-30T00:00	14707	132	-58.2		262	25
2023-09-30T00:00	14728	132	-58.2	-82.1	263	25
2023-09-30T00:00	14747	131	-57.9	-81.9	263	25
2023-09-30T00:00	14767	131	-57.9	-81.9	262	25
2023-09-30T00:00	14787	130	-57.8	-81.8	262	25
2023-09-30T00:00	14808	130	-57.7	-81.7	262	25
2023-09-30T00:00	14828	129	-57.8	-81.8	263	26
2023-09-30T00:00	14851	129	-57.9	-81.9	264	26
2023-09-30T00:00	14873	129	-58.0	-82.0	265	26
2023-09-30T00:00	14895	128	-57.9	-81.9	266	26
2023-09-30T00:00	14918	128	-57.9	-81.9	267	26
2023-09-30T00:00	14941	127	-57.9	-81.9	269	25
2023-09-30T00:00	14963	127	-57.9	-81.9	270	25
2023-09-30T00:00	14989	126	-58.0	-82.2	271	24
2023-09-30T00:00	15012	126	-57.8	-82.0	271	23
2023-09-30T00:00	15033	125	-57.8	-82.0	272	23
2023-09-30T00:00	15056	125	-57.8	-82.0	272	22
2023-09-30T00:00	15080	124	-57.8	-82.2	272	22
2023-09-30T00:00	15105	124	-57.8	-82.2	272	21
2023-09-30T00:00	15125	124	-57.8	-82.2	272	21
2023-09-30T00:00	15148	123	-57.8	-82.2	272	21
2023-09-30T00:00	15171	123	-57.9	-82.3	272	21
2023-09-30T00:00	15195	122	-58.0	-82.4	272	21
2023-09-30T00:00	15216	122	-58.1	-82.5	272	21
2023-09-30T00:00	15240	121	-58.2	-82.3	273	21
2023-09-30T00:00	15262	121	-58.3	-82.4	274	21
2023-09-30T00:00	15285	120	-58.4	-82.5	274	21
2023-09-30T00:00	15306	120	-58.4	-82.5	275	21
2023-09-30T00:00	15327	120	-58.3	-82.6	275	20
2023-09-30T00:00	15350	119	-58.3	-82.6	275	20
2023-09-30T00:00	15372	119	-58.2	-82.6	275	20
2023-09-30T00:00	15394	118	-58.2	-82.8	274	19
2023-09-30T00:00	15419	118	-58.1	-82.7	273	18
2023-09-30T00:00	15445	117	-57.6	-82.6	271	18
2023-09-30T00:00	15473	117	-57.6	-82.8	269	17
2023-09-30T00:00	15493	116	-57.7	-82.9	268	17
2023-09-30T00:00	15515	116	-57.8	-82.7	266	16
2023-09-30T00:00	15535	116	-57.7	-82.6	264	16
2023-09-30T00:00	15557	115	-57.9	-82.8	263	16
2023-09-30T00:00	15578	115	-58.0	-82.9	261	16
2023-09-30T00:00	15600	115	-58.1	-83.0	260	16
2023-09-30T00:00	15617	114	-58.2	-82.8	258	16
2023-09-30T00:00	15639	114	-58.4	-82.9	257	16
2023-09-30T00:00	15656	113	-58.5	-83.0	256	16
2023-09-30T00:00	15680	113	-58.7	-83.2	255	17
2023-09-30T00:00	15698	113	-58.8	-83.0	254	17
2023-09-30T00:00	15718	112	-59.0	-83.2	253	18
2023-09-30T00:00	15739	112	-59.1	-83.3	252	18
2023-09-30T00:00	15759	112	-59.2	-83.1	252	18
2023-09-30T00:00	15778	111	-59.4	-83.3	251	19
2023-09-30T00:00	15800	111	-59.5	-83.4	251	19
2023-09-30T00:00	15818	111	-59.6	-83.4	251	20
2023-09-30T00:00	15837	110	-59.7	-83.3	252	20
2023-09-30T00:00	15860	110	-59.9	-83.5	253	21
2023-09-30T00:00	15878	110	-60.0	-83.5	255	21
2023-09-30T00:00	15899	109	-60.1	-83.6	256	21
2023-09-30T00:00	15922	109	-60.2	-83.9	258	22
2023-09-30T00:00	15943	108	-60.2	-83.9	259	22
2023-09-30T00:00	15963	108	-60.0	-84.0	261	22
2023-09-30T00:00	15983	108	-60.0	-84.0	262	23
2023-09-30T00:00	16004	107	-59.8	-83.8	264	23
2023-09-30T00:00	16022	107	-59.8	-83.8	266	23
2023-09-30T00:00	16044	107	-59.7	-84.0	267	23
2023-09-30T00:00	16064	106	-59.7	-84.0	269	23
2023-09-30T00:00	16087	106	-59.7	-84.0	271	23
2023-09-30T00:00	16105	106	-59.7	-84.0	273	22
2023-09-30T00:00	16128	105	-59.7	-84.2	274	22
2023-09-30T00:00	16151	105	-59.5	-84.1	275	21
2023-09-30T00:00	16173	105	-59.5	-84.1	275	21
2023-09-30T00:00	16196	104	-59.3	-84.1	275	20
2023-09-30T00:00	16221	104	-59.2	-84.1	274	19
2023-09-30T00:00	16244	103	-59.1	-84.0	272	19
2023-09-30T00:00	16265	103	-59.1	-84.0	271	18
2023-09-30T00:00	16293	103	-58.9		270	18
2023-09-30T00:00	16316	102	-59.0	-83.9	269	18
2023-09-30T00:00	16342	102	-59.2	-84.1	268	19
2023-09-30T00:00	16362	101	-59.4	-84.0	268	19
2023-09-30T00:00	16387	101	-59.7	-84.2	269	19
2023-09-30T00:00	16410	101	-59.9	-84.4	270	19
2023-09-30T00:00	16436	100	-60.0	-84.4	271	20
2023-09-30T00:00	16461	100	-59.8	-84.3	272	20
2023-09-30T00:00	16486	99	-59.7	-84.2	273	19
2023-09-30T00:00	16508	99	-59.7	-84.2	273	19
2023-09-30T00:00	16532	99	-59.9	-84.4	274	18
2023-09-30T00:00	16553	98	-59.9	-84.4	274	18
2023-09-30T00:00	16578	98	-59.8	-84.5	273	17
2023-09-30T00:00	16601	98	-59.5	-84.3	272	16
2023-09-30T00:00	16624	97	-59.3	-84.1	270	16
2023-09-30T00:00	16645	97	-59.3	-84.4	267	16
2023-09-30T00:00	16666	97	-59.3	-84.4	264	16
2023-09-30T00:00	16687	96	-59.2	-84.3	262	17
2023-09-30T00:00	16712	96	-59.2	-84.3	259	18
2023-09-30T00:00	16736	96	-59.3	-84.4	257	18
2023-09-30T00:00	16758	95	-59.4	-84.2	255	19
2023-09-30T00:00	16779	95	-59.3	-84.1	254	19
2023-09-30T00:00	16802	95	-59.3	-84.1	253	20
2023-09-30T00:00	16822	94	-59.4	-84.2	252	20
2023-09-30T00:00	16848	94	-59.5	-84.3	253	20
2023-09-30T00:00	16868	94	-59.5	-84.1	253	20
2023-09-30T00:00	16890	93	-59.7	-84.2	254	20
2023-09-30T00:00	16910	93	-59.9	-84.4	255	20
2023-09-30T00:00	16934	93	-60.1	-84.5	256	20
2023-09-30T00:00	16956	92	-60.1	-84.5	258	20
2023-09-30T00:00	16978	92	-60.0	-84.4	259	19
2023-09-30T00:00	17001	92	-60.1	-84.5	261	19
2023-09-30T00:00	17024	91	-60.2	-84.6	263	19
2023-09-30T00:00	17044	91	-60.2	-84.6	265	18
2023-09-30T00:00	17068	91	-60.3	-84.7	267	18
2023-09-30T00:00	17088	90	-60.2	-84.8	269	18
2023-09-30T00:00	17112	90	-60.1	-84.8	272	18
2023-09-30T00:00	17133	90	-60.1	-85.0	275	18
2023-09-30T00:00	17151	89	-60.0	-84.9	277	18
2023-09-30T00:00	17177	89	-59.4	-84.7	280	18
2023-09-30T00:00	17201	89	-59.4	-85.0	282	18
2023-09-30T00:00	17225	88	-59.0	-84.7	284	18
2023-09-30T00:00	17248	88	-59.0	-84.7	286	17
2023-09-30T00:00	17269	88	-59.1	-84.8	288	17
2023-09-30T00:00	17291	87	-59.1	-84.8	289	17
2023-09-30T00:00	17313	87	-59.1	-84.8	290	16
2023-09-30T00:00	17339	87	-58.9	-84.6	290	16
2023-09-30T00:00	17360	86	-58.9	-84.6	290	16
2023-09-30T00:00	17384	86	-59.0	-84.7	290	15
2023-09-30T00:00	17407	86	-59.1	-84.8	290	15
2023-09-30T00:00	17431	85	-59.2	-84.9	289	14
2023-09-30T00:00	17459	85	-59.3	-85.0	289	13
2023-09-30T00:00	17485	85	-59.3	-85.0	288	12
2023-09-30T00:00	17513	84	-59.2	-84.9	285	11
2023-09-30T00:00	17540	84	-59.3	-85.2	282	10
2023-09-30T00:00	17560	84	-59.2	-85.2	279	9
2023-09-30T00:00	17588	83	-58.6	-85.0	274	8
2023-09-30T00:00	17611	83	-58.6	-85.0	268	7
2023-09-30T00:00	17631	83	-58.5	-84.9	262	7
2023-09-30T00:00	17661	82	-58.3	-84.8	257	7
2023-09-30T00:00	17685	82	-58.4	-84.9	252	7
2023-09-30T00:00	17703	82	-58.5	-84.9	247	7
2023-09-30T00:00	17726	82	-58.6	-84.7	243	7
2023-09-30T00:00	17752	81	-58.8	-84.9	240	7
2023-09-30T00:00	17773	81	-58.9	-84.9	238	7
2023-09-30T00:00	17793	81	-59.1	-84.8	236	8
2023-09-30T00:00	17819	80	-59.2	-84.9	234	8
2023-09-30T00:00	17839	80	-59.4	-85.0	234	9
2023-09-30T00:00	17861	80	-59.5	-85.1	235	9
2023-09-30T00:00	17884	80	-59.5	-85.1	236	10
2023-09-30T00:00	17906	79	-59.7	-85.3	238	11
2023-09-30T00:00	17927	79	-59.7	-85.3	240	11
2023-09-30T00:00	17948	79	-59.8	-85.3	242	11
2023-09-30T00:00	17972	78	-59.7	-85.3	244	12
2023-09-30T00:00	17992	78	-59.7	-85.3	247	12
2023-09-30T00:00	18014	78	-59.8	-85.3	250	12
2023-09-30T00:00	18036	78	-59.9	-85.4	253	12
2023-09-30T00:00	18056	77	-60.0	-85.5	256	12
2023-09-30T00:00	18080	77	-60.1	-85.6	259	12
2023-09-30T00:00	18099	77	-60.0	-85.5	260	12
2023-09-30T00:00	18119	77	-59.7	-85.6	261	12
2023-09-30T00:00	18141	76	-59.7	-85.6	262	12
2023-09-30T00:00	18163	76	-59.8	-85.6	262	12
2023-09-30T00:00	18184	76	-59.7	-85.6	262	12
2023-09-30T00:00	18207	76	-59.7	-85.6	262	12
2023-09-30T00:00	18228	75	-59.8	-85.6	263	13
2023-09-30T00:00	18252	75	-59.8	-85.3	264	13
2023-09-30T00:00	18270	75	-60.0	-85.5	265	13
2023-09-30T00:00	18295	74	-59.9	-85.7	266	13
2023-09-30T00:00	18315	74	-59.7	-85.6	266	13
2023-09-30T00:00	18338	74	-59.7	-85.6	267	13
2023-09-30T00:00	18357	74	-59.8	-85.6	267	13
2023-09-30T00:00	18379	73	-59.5	-85.4	268	14
2023-09-30T00:00	18402	73	-59.6	-85.5	268	14
2023-09-30T00:00	18424	73	-59.7	-85.6	269	14
2023-09-30T00:00	18445	73	-59.6	-85.5	270	14
2023-09-30T00:00	18470	72	-59.6	-85.8	270	14
2023-09-30T00:00	18492	72	-59.5	-85.7	271	14
2023-09-30T00:00	18513	72	-59.5	-85.7	271	14
2023-09-30T00:00	18538	72	-59.3	-85.6	272	14
2023-09-30T00:00	18559	71	-59.4	-85.6	272	14
2023-09-30T00:00	18582	71	-59.3	-85.9	272	13
2023-09-30T00:00	18608	71	-59.1	-85.7	272	13
2023-09-30T00:00	18628	71	-58.5	-85.6	271	13
2023-09-30T00:00	18649	70	-58.2	-85.4	270	12
2023-09-30T00:00	18673	70	-58.1	-85.7	270	12
2023-09-30T00:00	18694	70	-57.5	-85.2	269	12
2023-09-30T00:00	18717	70	-57.2	-85.0	268	12
2023-09-30T00:00	18742	69	-57.4	-85.2	268	12
2023-09-30T00:00	18768	69	-57.6	-84.9	267	12
2023-09-30T00:00	18793	69	-57.4	-84.8	266	13
2023-09-30T00:00	18815	69	-57.6	-84.6	266	13
2023-09-30T00:00	18838	68	-57.8	-84.7	266	13
2023-09-30T00:00	18861	68	-58.0	-84.9	266	13
2023-09-30T00:00	18882	68	-58.2	-84.7	266	13
2023-09-30T00:00	18907	68	-58.4	-84.9	267	13
2023-09-30T00:00	18926	67	-58.6	-85.0	267	13
2023-09-30T00:00	18949	67	-58.9	-85.3	268	14
2023-09-30T00:00	18972	67	-59.1	-85.1	268	14
2023-09-30T00:00	18994	67	-59.2	-85.2	269	14
2023-09-30T00:00	19017	66	-59.2	-85.2	271	14
2023-09-30T00:00	19038	66	-59.2	-85.2	272	14
2023-09-30T00:00	19061	66	-59.4	-85.6	274	14
2023-09-30T00:00	19083	66	-59.4	-85.6	275	14
2023-09-30T00:00	19108	65	-59.0	-85.3	276	14
2023-09-30T00:00	19126	65	-58.9	-85.6	277	14
2023-09-30T00:00	19148	65	-58.9	-85.6	277	13
2023-09-30T00:00	19170	65	-58.6	-85.7	278	13
2023-09-30T00:00	19194	65	-58.4	-85.5	279	12
2023-09-30T00:00	19216	64	-58.4	-85.5	280	11
2023-09-30T00:00	19238	64	-58.0	-85.6	282	10
2023-09-30T00:00	19261	64	-57.6	-85.3	282	9
2023-09-30T00:00	19284	64	-57.1	-85.3	282	8
2023-09-30T00:00	19300	63	-56.5	-84.9	280	7
2023-09-30T00:00	19326	63	-56.2	-84.6	277	6
2023-09-30T00:00	19349	63	-55.9	-84.4	273	6
2023-09-30T00:00	19368	63	-55.8	-84.3	268	6
2023-09-30T00:00	19387	63	-55.9	-84.4	265	6
2023-09-30T00:00	19410	62	-56.0	-84.5	263	6
2023-09-30T00:00	19432	62	-56.2	-84.2	262	6
2023-09-30T00:00	19451	62	-56.3	-84.3	263	6
2023-09-30T00:00	19476	62	-56.5	-84.5	266	7
2023-09-30T00:00	19497	62	-56.6	-84.2	268	7
2023-09-30T00:00	19519	61	-56.7	-84.2	270	8
2023-09-30T00:00	19541	61	-56.8	-84.3	273	8
2023-09-30T00:00	19563	61	-56.9	-84.4	274	8
2023-09-30T00:00	19590	61	-57.0	-84.5	276	9
2023-09-30T00:00	19612	60	-57.1	-84.6	277	9
2023-09-30T00:00	19634	60	-57.3	-84.7	278	9
2023-09-30T00:00	19657	60	-57.3	-84.7	279	9
2023-09-30T00:00	19684	60	-57.0	-84.5	280	9
2023-09-30T00:00	19705	60	-57.0	-84.5	281	9
2023-09-30T00:00	19726	59	-56.9	-84.8	282	9
2023-09-30T00:00	19754	59	-56.9	-84.8	283	9
2023-09-30T00:00	19775	59	-56.9	-84.8	283	9
2023-09-30T00:00	19800	59	-56.8	-84.7	284	9
2023-09-30T00:00	19822	58	-56.5	-84.5	284	10
2023-09-30T00:00	19846	58	-56.5	-84.5	285	10
2023-09-30T00:00	19871	58	-56.5	-84.5	286	10
2023-09-30T00:00	19895	58	-56.6	-84.5	287	11
2023-09-30T00:00	19917	58	-56.7	-84.6	288	11
2023-09-30T00:00	19940	57	-56.8	-84.7	290	11
2023-09-30T00:00	19966	57	-56.8	-84.7	291	11
2023-09-30T00:00	19986	57	-56.7	-84.6	294	11
2023-09-30T00:00	20011	57	-56.6	-84.5	296	11
2023-09-30T00:00	20031	57	-56.6	-84.5	298	10
2023-09-30T00:00	20061	56	-56.6	-84.5	300	10
2023-09-30T00:00	20080	56	-56.5	-84.5	301	10
2023-09-30T00:00	20108	56	-56.6	-84.5	303	10
2023-09-30T00:00	20130	56	-56.7	-84.2	304	10
2023-09-30T00:00	20156	55	-56.8	-84.3	306	10
2023-09-30T00:00	20175	55	-56.9	-84.4	307	10
2023-09-30T00:00	20202	55	-57.1	-84.6	308	10
2023-09-30T00:00	20225	55	-57.2	-84.6	309	9
2023-09-30T00:00	20248	55	-57.4	-84.4	309	9
2023-09-30T00:00	20273	54	-57.6	-84.6	310	8
2023-09-30T00:00	20297	54	-57.7	-84.7	310	8
2023-09-30T00:00	20321	54	-57.8	-84.7	309	7
2023-09-30T00:00	20344	54	-57.8	-84.7	308	7
2023-09-30T00:00	20367	54	-57.9	-84.8	305	6
2023-09-30T00:00	20391	53	-58.1	-85.0	301	6
2023-09-30T00:00	20412	53	-58.2	-85.0	296	6
2023-09-30T00:00	20438	53	-58.3	-85.1	292	6
2023-09-30T00:00	20465	53	-58.4	-85.2	288	6
2023-09-30T00:00	20484	53	-58.6	-85.0	286	7
2023-09-30T00:00	20508	52	-58.8	-85.2	284	7
2023-09-30T00:00	20533	52	-58.9	-85.3	283	7
2023-09-30T00:00	20560	52	-59.1	-85.4	282	7
2023-09-30T00:00	20578	52	-59.2	-85.5	280	7
2023-09-30T00:00	20603	52	-59.0	-85.7	279	7
2023-09-30T00:00	20624	51	-59.0	-85.7	278	7
2023-09-30T00:00	20646	51	-58.6	-85.7	278	7
2023-09-30T00:00	20670	51	-58.4	-85.5	279	7
2023-09-30T00:00	20689	51	-58.3	-85.5	281	8
2023-09-30T00:00	20715	51	-58.5	-85.6	283	8
2023-09-30T00:00	20734	51	-58.5	-85.6	285	8
2023-09-30T00:00	20758	50	-58.4	-85.5	287	8
2023-09-30T00:00	20785	50	-58.4	-85.5	288	8
2023-09-30T00:00	20803	50	-58.3	-85.5	289	7
2023-09-30T00:00	20830	50	-58.3	-85.5	288	7
2023-09-30T00:00	20848	50	-58.4	-85.5	287	7
2023-09-30T00:00	20871	49	-58.2	-85.4	284	7
2023-09-30T00:00	20893	49	-58.1	-85.3	282	7
2023-09-30T00:00	20917	49	-58.1	-85.3	278	7
2023-09-30T00:00	20942	49	-58.0	-85.2	275	6
2023-09-30T00:00	20964	49	-58.0	-85.2	270	6
2023-09-30T00:00	20989	49	-58.1	-85.3	266	6
2023-09-30T00:00	21007	48	-58.1	-85.3	260	6
2023-09-30T00:00	21030	48	-57.9	-85.2	256	6
2023-09-30T00:00	21056	48	-58.1	-85.3	252	6
2023-09-30T00:00	21077	48	-58.0	-85.2	250	7
2023-09-30T00:00	21099	48	-58.1	-85.3	250	7
2023-09-30T00:00	21127	48	-58.2	-85.4	251	7
2023-09-30T00:00	21147	47	-58.3	-85.5	253	8
2023-09-30T00:00	21166	47	-58.0	-85.2	256	8
2023-09-30T00:00	21196	47	-58.0	-85.2	260	8
2023-09-30T00:00	21213	47	-58.1	-85.3	265	8
2023-09-30T00:00	21239	47	-58.1	-85.3	270	8
2023-09-30T00:00	21264	47	-58.0	-85.2	276	9
2023-09-30T00:00	21287	46	-58.0	-85.2	281	9
2023-09-30T00:00	21314	46	-57.9	-85.5	287	9
2023-09-30T00:00	21335	46	-57.8	-85.5	292	9
2023-09-30T00:00	21363	46	-57.6	-85.3	297	10
2023-09-30T00:00	21384	46	-57.7	-85.4	301	10
2023-09-30T00:00	21404	45	-57.5	-85.2	304	10
2023-09-30T00:00	21431	45	-57.4	-85.2	306	10
2023-09-30T00:00	21451	45	-57.4	-85.2	308	10
2023-09-30T00:00	21476	45	-57.3	-85.1	310	10
2023-09-30T00:00	21502	45	-57.4	-85.2	312	10
2023-09-30T00:00	21529	45	-57.1	-84.9	314	9
2023-09-30T00:00	21553	44	-57.1	-84.9	316	9
2023-09-30T00:00	21578	44	-57.3	-85.1	318	9
2023-09-30T00:00	21598	44	-57.5	-84.9	318	9
2023-09-30T00:00	21631	44	-57.7	-85.0	318	8
2023-09-30T00:00	21650	44	-57.9	-85.2	318	8
2023-09-30T00:00	21676	44	-58.1	-85.3	318	7
2023-09-30T00:00	21697	43	-58.1	-85.3	318	7
2023-09-30T00:00	21721	43	-58.2	-85.4	318	6
2023-09-30T00:00	21753	43	-58.3	-85.5	318	6
2023-09-30T00:00	21773	43	-58.1	-85.3	319	6
2023-09-30T00:00	21799	43	-58.0	-85.2	319	6
2023-09-30T00:00	21826	43	-57.9	-85.2	318	7
2023-09-30T00:00	21847	42	-58.0	-85.2	318	7
2023-09-30T00:00	21875	42	-58.1	-85.3	318	7
2023-09-30T00:00	21896	42	-58.1	-85.7	318	7
2023-09-30T00:00	21924	42	-58.2	-85.8	320	7
2023-09-30T00:00	21947	42	-57.8	-85.5	321	6
2023-09-30T00:00	21971	42	-57.6	-85.3	323	6
2023-09-30T00:00	21994	41	-57.5	-85.2	324	6
2023-09-30T00:00	22017	41	-57.5	-85.2	323	6
2023-09-30T00:00	22042	41	-57.5	-85.2	321	6
2023-09-30T00:00	22068	41	-57.4	-85.2	318	6
2023-09-30T00:00	22092	41	-57.6	-84.9	315	5
2023-09-30T00:00	22114	41	-57.7	-85.0	313	5
2023-09-30T00:00	22139	40	-57.9	-85.2	310	4
2023-09-30T00:00	22164	40	-58.0	-85.2	309	3
2023-09-30T00:00	22188	40	-58.0	-85.2	305	2
2023-09-30T00:00	22209	40	-58.1	-85.3	294	2
2023-09-30T00:00	22235	40	-58.2	-85.4	270	1
2023-09-30T00:00	22259	40	-58.3	-85.5	243	2
2023-09-30T00:00	22281	40	-58.3	-85.5	227	2
2023-09-30T00:00	22302	39	-58.4	-85.5	219	3
2023-09-30T00:00	22327	39	-58.3	-85.5	215	4
2023-09-30T00:00	22345	39	-58.2	-85.4	214	4
2023-09-30T00:00	22369	39	-58.2	-85.4	216	4
2023-09-30T00:00	22394	39	-58.2	-85.4	219	4
2023-09-30T00:00	22422	39	-58.2	-85.4	225	5
2023-09-30T00:00	22439	39	-58.3	-85.5	232	5
2023-09-30T00:00	22463	38	-58.2	-85.4	239	5
2023-09-30T00:00	22481	38	-58.3	-85.5	246	5
2023-09-30T00:00	22511	38	-58.2	-85.4	253	5
2023-09-30T00:00	22535	38	-58.2	-85.4	259	5
2023-09-30T00:00	22557	38	-58.2	-85.4	263	6
2023-09-30T00:00	22580	38	-58.2	-85.4	267	6
2023-09-30T00:00	22604	38	-58.2	-85.4	270	7
2023-09-30T00:00	22625	37	-58.3	-85.8	273	7
2023-09-30T00:00	22648	37	-58.3	-85.8	276	7
2023-09-30T00:00	22671	37	-58.1	-85.7	280	8
2023-09-30T00:00	22702	37	-57.6	-85.3	283	8
2023-09-30T00:00	22729	37	-57.7	-85.4	286	7
2023-09-30T00:00	22751	37	-57.6	-85.7	289	7
2023-09-30T00:00	22774	37	-57.6	-85.7	290	6
2023-09-30T00:00	22796	36	-57.2	-85.4	290	6
2023-09-30T00:00	22824	36	-57.0	-85.2	288	5
2023-09-30T00:00	22852	36	-56.9	-85.2	283	4
2023-09-30T00:00	22872	36	-56.8	-85.1	276	4
2023-09-30T00:00	22902	36	-56.8	-85.1	268	4
2023-09-30T00:00	22927	36	-56.7	-85.0	261	4
2023-09-30T00:00	22945	36	-56.8	-85.1	256	4
2023-09-30T00:00	22974	35	-56.7	-85.0	252	4
2023-09-30T00:00	22996	35	-56.7	-85.0	248	5
2023-09-30T00:00	23029	35	-56.9	-84.8	246	5
2023-09-30T00:00	23047	35	-57.0	-84.8	245	6
2023-09-30T00:00	23075	35	-57.2	-85.0	245	6
2023-09-30T00:00	23103	35	-57.2	-85.0	246	6
2023-09-30T00:00	23122	35	-57.2	-85.0	248	6
2023-09-30T00:00	23142	35	-57.3	-85.1	250	7
2023-09-30T00:00	23175	34	-57.5	-85.2	253	7
2023-09-30T00:00	23197	34	-57.6	-85.3	256	7
2023-09-30T00:00	23230	34	-57.8	-85.5	259	7
2023-09-30T00:00	23253	34	-57.9	-85.5	262	7
2023-09-30T00:00	23277	34	-57.6	-85.3	263	6
2023-09-30T00:00	23304	34	-57.5	-85.2	263	6
2023-09-30T00:00	23326	34	-57.5	-85.6	263	7
2023-09-30T00:00	23354	33	-57.1	-85.3	263	7
2023-09-30T00:00	23377	33	-56.8	-85.5	263	7
2023-09-30T00:00	23399	33	-56.7	-85.4	265	8
2023-09-30T00:00	23433	33	-56.2	-85.1	267	8
2023-09-30T00:00	23456	33	-55.8	-84.8	270	9
2023-09-30T00:00	23481	33	-55.8	-84.8	273	10
2023-09-30T00:00	23510	33	-55.7	-84.7	276	10
2023-09-30T00:00	23535	32	-55.7	-84.7	279	10
2023-09-30T00:00	23558	32	-55.7	-84.7	282	11
2023-09-30T00:00	23585	32	-55.5	-84.5	284	11
2023-09-30T00:00	23604	32	-55.4	-84.5	286	11
2023-09-30T00:00	23633	32	-55.5	-84.5	288	10
2023-09-30T00:00	23655	32	-55.6	-84.6	290	10
2023-09-30T00:00	23687	32	-55.6	-84.6	291	10
2023-09-30T00:00	23714	32	-55.5	-84.5	292	9
2023-09-30T00:00	23734	31	-55.4	-84.5	292	8
2023-09-30T00:00	23764	31	-55.4	-84.5	294	8
2023-09-30T00:00	23786	31	-55.5	-84.5	296	8
2023-09-30T00:00	23814	31	-55.6	-84.6	299	8
2023-09-30T00:00	23847	31	-55.6	-84.6	302	8
2023-09-30T00:00	23865	31	-55.6	-84.6	304	9
2023-09-30T00:00	23898	31	-55.5	-84.1	305	10
2023-09-30T00:00	23919	31	-55.6	-84.2	305	10
2023-09-30T00:00	23951	30	-55.8	-84.3	305	10
2023-09-30T00:00	23972	30	-55.9	-84.4	305	10
2023-09-30T00:00	23993	30	-56.0	-84.5	306	10
2023-09-30T00:00	24022	30	-55.7	-84.7	306	10
2023-09-30T00:00	24052	30	-55.7	-84.7	306	10
2023-09-30T00:00	24079	30	-55.7	-84.7	307	10
2023-09-30T00:00	24100	30	-55.8	-84.8	308	10
2023-09-30T00:00	24131	30	-55.9	-84.8	309	9
2023-09-30T00:00	24156	29	-55.9	-84.8	311	9
2023-09-30T00:00	24180	29	-55.8	-84.8	313	8
2023-09-30T00:00	24204	29	-55.6	-84.6	315	8
2023-09-30T00:00	24230	29	-55.6	-84.6	316	7
2023-09-30T00:00	24262	29	-55.6	-84.6	316	6
2023-09-30T00:00	24285	29	-55.8	-84.8	315	6
2023-09-30T00:00	24305	29	-55.9	-84.4	314	6
2023-09-30T00:00	24337	29	-56.1	-84.6	311	5
2023-09-30T00:00	24359	29	-56.0	-84.5	308	5
2023-09-30T00:00	24386	28	-56.0	-84.5	305	5
2023-09-30T00:00	24412	28	-56.0	-84.5	302	5
2023-09-30T00:00	24435	28	-56.1	-84.6	301	5
2023-09-30T00:00	24460	28	-56.2	-84.6	302	5
2023-09-30T00:00	24495	28	-56.3	-84.7	303	5
2023-09-30T00:00	24507	28	-56.1	-84.6	305	5
2023-09-30T00:00	24540	28	-56.1	-84.6	306	5
2023-09-30T00:00	24563	28	-56.2	-84.6	307	5
2023-09-30T00:00	24590	28	-56.2	-84.6	307	5
2023-09-30T00:00	24617	27	-56.2	-84.6	306	5
2023-09-30T00:00	24633	27	-56.0	-84.9	304	5
2023-09-30T00:00	24659	27	-56.0	-84.9	301	5
2023-09-30T00:00	24693	27	-56.0	-84.9	298	5
2023-09-30T00:00	24715	27	-55.9	-84.8	294	5
2023-09-30T00:00	24731	27	-55.8	-84.8	292	6
2023-09-30T00:00	24760	27	-55.9	-84.8	290	6
2023-09-30T00:00	24782	27	-56.0	-84.9	289	6
2023-09-30T00:00	24809	27	-56.1	-85.0	288	6
2023-09-30T00:00	24839	26	-56.0	-84.9	289	6
2023-09-30T00:00	24863	26	-55.8	-84.8	291	5
2023-09-30T00:00	24881	26	-55.7	-84.7	293	5
2023-09-30T00:00	24910	26	-55.8	-84.8	295	5
2023-09-30T00:00	24937	26	-55.8	-84.8	296	5
2023-09-30T00:00	24964	26	-55.7	-84.7	295	5
2023-09-30T00:00	24987	26	-55.6	-85.1	293	5
2023-09-30T00:00	25010	26	-55.3	-84.9	293	6
2023-09-30T00:00	25033	26	-54.6	-84.3	293	6
2023-09-30T00:00	25063	26	-54.5	-84.3	293	7
2023-09-30T00:00	25082	25	-54.4	-84.2	295	7
2023-09-30T00:00	25109	25	-54.4	-84.2	296	7
2023-09-30T00:00	25127	25	-54.5	-84.3	296	6
2023-09-30T00:00	25156	25	-54.4	-84.2	296	5
2023-09-30T00:00	25187	25	-54.2	-84.0	293	4
2023-09-30T00:00	25211	25	-54.3	-84.1	288	4
2023-09-30T00:00	25239	25	-54.5	-84.3	282	3
2023-09-30T00:00	25260	25	-54.4	-84.2	276	4
2023-09-30T00:00	25287	25	-54.2	-84.0	272	4
2023-09-30T00:00	25317	25	-54.0	-83.9	273	4
2023-09-30T00:00	25343	24	-54.0	-83.9	275	5
2023-09-30T00:00	25373	24	-54.1	-84.0	278	5
2023-09-30T00:00	25397	24	-54.2	-84.0	281	5
2023-09-30T00:00	25421	24	-54.3	-83.6	284	6
2023-09-30T00:00	25445	24	-54.5	-83.8	285	6
2023-09-30T00:00	25477	24	-54.6	-83.9	285	7
2023-09-30T00:00	25503	24	-54.8	-84.0	286	7
2023-09-30T00:00	25532	24	-54.9	-84.1	286	8
2023-09-30T00:00	25555	24	-55.0	-84.2	287	8
2023-09-30T00:00	25589	24	-54.7	-83.9	289	9
2023-09-30T00:00	25611	23	-54.7	-84.4	292	9
2023-09-30T00:00	25641	23	-54.7	-84.4	296	9
2023-09-30T00:00	25674	23	-54.6	-84.3	300	9
2023-09-30T00:00	25699	23	-54.5	-84.3	305	9
2023-09-30T00:00	25726	23	-54.3	-84.1	308	9
2023-09-30T00:00	25753	23	-54.1	-84.0	312	9
2023-09-30T00:00	25778	23	-54.0	-83.9	315	8
2023-09-30T00:00	25816	23	-54.0	-83.9	318	8
2023-09-30T00:00	25838	23	-54.1	-84.0	321	8
2023-09-30T00:00	25868	23	-54.2	-84.0	324	7
2023-09-30T00:00	25886	22	-54.3	-84.1	327	7
2023-09-30T00:00	25915	22	-54.4	-83.7	330	7
2023-09-30T00:00	25945	22	-54.6	-83.9	332	7
2023-09-30T00:00	25974	22	-54.7	-83.9	333	7
2023-09-30T00:00	26003	22	-54.8	-84.0	333	7
2023-09-30T00:00	26025	22	-54.9	-84.1	333	6
2023-09-30T00:00	26049	22	-55.0	-84.2	332	6
2023-09-30T00:00	26078	22	-55.1	-84.2	331	5
2023-09-30T00:00	26112	22	-55.2	-84.3	330	5
2023-09-30T00:00	26131	22	-55.3	-84.4	330	5
2023-09-30T00:00	26153	22	-55.3	-84.4	331	5
2023-09-30T00:00	26182	21	-55.3	-84.4	332	5
2023-09-30T00:00	26214	21	-55.4	-84.5	333	5
2023-09-30T00:00	26228	21	-55.5	-84.5	334	5
2023-09-30T00:00	26264	21	-55.6	-84.6	334	5
2023-09-30T00:00	26286	21	-55.7	-84.7	334	5
2023-09-30T00:00	26307	21	-55.7	-84.7	332	5
2023-09-30T00:00	26347	21	-55.8	-84.8	329	5
2023-09-30T00:00	26366	21	-55.9	-84.8	325	5
2023-09-30T00:00	26391	21	-56.0	-84.9	320	5
2023-09-30T00:00	26420	21	-56.0	-84.9	311	4
2023-09-30T00:00	26445	21	-56.0	-84.9	301	4
2023-09-30T00:00	26475	20	-56.2	-85.1	290	4
2023-09-30T00:00	26500	20	-56.2	-85.1	281	4
2023-09-30T00:00	26517	20	-56.1	-85.0	276	4
2023-09-30T00:00	26551	20	-56.2	-85.1	275	4
2023-09-30T00:00	26576	20	-56.2	-85.1	276	5
2023-09-30T00:00	26601	20	-56.1	-85.0	277	5
2023-09-30T00:00	26622	20	-56.0	-84.9	279	6
2023-09-30T00:00	26658	20	-56.0	-84.9	281	6
2023-09-30T00:00	26676	20	-56.0	-84.9	284	6
2023-09-30T00:00	26696	20	-56.0	-84.9	287	7
2023-09-30T00:00	26729	20	-56.1	-85.0	289	7
2023-09-30T00:00	26754	20	-56.3	-85.1	293	7
2023-09-30T00:00	26786	20	-56.3	-85.1	296	7
2023-09-30T00:00	26808	19	-56.2	-85.1	301	7
2023-09-30T00:00	26835	19	-56.1	-85.0	307	7
2023-09-30T00:00	26858	19	-56.1	-85.0	313	7
2023-09-30T00:00	26889	19	-56.0		320	7
2023-09-30T00:00	26922	19	-55.8	-85.2	325	7
2023-09-30T00:00	26940	19	-55.4	-84.9	329	7
2023-09-30T00:00	26965	19	-55.2	-84.8	332	6
2023-09-30T00:00	26997	19	-55.0	-85.1	333	6
2023-09-30T00:00	27027	19	-55.0	-85.1	334	5
2023-09-30T00:00	27042	19	-54.7	-84.9	335	5
2023-09-30T00:00	27066	19	-54.6	-84.8	336	5
2023-09-30T00:00	27104	19	-54.6	-84.3	337	4
2023-09-30T00:00	27133	18	-54.6	-84.3	338	4
2023-09-30T00:00	27160	18	-54.8	-84.5	339	3
2023-09-30T00:00	27173	18	-55.0	-84.6	340	3
2023-09-30T00:00	27205	18	-55.1	-84.2	340	3
2023-09-30T00:00	27231	18	-55.2	-84.3	340	2
2023-09-30T00:00	27262	18	-55.2	-84.3	338	2
2023-09-30T00:00	27281	18	-55.3	-84.4	335	3
2023-09-30T00:00	27313	18	-55.2	-84.8	330	3
2023-09-30T00:00	27336	18	-55.0	-84.6	325	3
2023-09-30T00:00	27368	18	-54.9	-84.6	321	4
2023-09-30T00:00	27391	18	-54.9	-84.6	318	4
2023-09-30T00:00	27421	18	-54.9	-84.6	316	4
2023-09-30T00:00	27447	18	-54.8	-84.5	316	5
2023-09-30T00:00	27471	18	-54.7	-84.4	316	5
2023-09-30T00:00	27497	17	-54.6	-84.3	317	5
2023-09-30T00:00	27524	17	-54.6	-84.3	319	5
2023-09-30T00:00	27551	17	-54.5	-84.3	321	5
2023-09-30T00:00	27582	17	-54.4	-84.2	322	4
2023-09-30T00:00	27602	17	-54.2	-84.0	324	4
2023-09-30T00:00	27636	17	-54.3	-84.1	323	4
2023-09-30T00:00	27654	17	-54.4	-84.2	320	4
2023-09-30T00:00	27684	17	-54.4	-84.2	315	4
2023-09-30T00:00	27706	17	-54.2	-84.0	309	4
2023-09-30T00:00	27741	17	-54.1	-84.5	304	5
2023-09-30T00:00	27756	17	-54.1	-84.5	300	6
2023-09-30T00:00	27784	17	-54.1	-84.5	298	7
2023-09-30T00:00	27816	17	-54.1	-84.5	297	8
2023-09-30T00:00	27848	17	-54.0	-84.4	296	8
2023-09-30T00:00	27873	16	-53.8	-84.2	296	8
2023-09-30T00:00	27904	16	-53.3	-84.4	296	8
2023-09-30T00:00	27912	16	-53.0	-84.2	296	8
2023-09-30T00:00	27951	16	-52.8	-84.1	296	8
2023-09-30T00:00	27976	16	-52.5	-83.8	296	7
2023-09-30T00:00	28016	16	-52.4	-83.8	295	7
2023-09-30T00:00	28035	16	-52.3	-83.7	295	6
2023-09-30T00:00	28066	16	-52.4	-83.8	294	6
2023-09-30T00:00	28087	16	-52.6	-83.9	292	6
2023-09-30T00:00	28121	16	-52.6	-83.9	291	6
2023-09-30T00:00	28137	16	-52.5	-83.8	290	7
2023-09-30T00:00	28175	16	-52.2	-83.6	290	7
2023-09-30T00:00	28198	16	-52.0	-83.5	291	7
2023-09-30T00:00	28229	16	-52.0	-83.5	293	7
2023-09-30T00:00	28262	16	-51.9	-83.4	295	7
2023-09-30T00:00	28286	15	-51.8	-83.3	297	6
2023-09-30T00:00	28318	15	-52.0	-82.9	300	5
2023-09-30T00:00	28347	15	-52.1	-83.0	303	5
2023-09-30T00:00	28367	15	-52.3	-83.1	306	4
2023-09-30T00:00	28402	15	-52.4	-83.2	310	3
2023-09-30T00:00	28420	15	-52.6	-83.3	314	3
2023-09-30T00:00	28450	15	-52.8	-83.0	317	3
2023-09-30T00:00	28480	15	-52.9	-83.1	319	2
2023-09-30T00:00	28509	15	-53.1	-83.2	319	1
2023-09-30T00:00	28545	15	-53.2	-83.3	318	1
2023-09-30T00:00	28557	15	-53.3		309	0
2023-09-30T00:00	28591	15	-53.5	-83.5	161	0
2023-09-30T00:00	28626	15	-53.5	-83.5	154	1
2023-09-30T00:00	28658	15	-53.7	-83.7	155	2
2023-09-30T00:00	28677	15	-53.8	-83.7	160	2
2023-09-30T00:00	28701	14	-54.0	-83.9	166	3
2023-09-30T00:00	28725	14	-54.1	-84.0	174	4
2023-09-30T00:00	28766	14	-54.1	-84.0	181	4
2023-09-30T00:00	28786	14	-54.1	-84.5	189	5
2023-09-30T00:00	28817	14	-53.5	-84.0	196	5
2023-09-30T00:00	28847	14	-53.2	-83.8	204	6
2023-09-30T00:00	28876	14	-53.1	-84.3	212	6
2023-09-30T00:00	28902	14	-52.9	-84.1	221	7
2023-09-30T00:00	28940	14	-53.0	-84.2	229	8
2023-09-30T00:00	28974	14	-52.8	-84.1	236	8
2023-09-30T00:00	29001	14	-52.3	-84.3	242	9
2023-09-30T00:00	29017	14	-51.8	-83.9	245	9
2023-09-30T00:00	29048	14	-51.3	-83.6	246	10
2023-09-30T00:00	29066	14	-51.0	-83.3	245	10
2023-09-30T00:00	29102	14	-51.0	-83.3	243	10
2023-09-30T00:00	29126	14	-50.9	-83.3	242	9
2023-09-30T00:00	29161	14	-50.9	-82.7	241	9
2023-09-30T00:00	29179	13	-50.9	-82.7	242	9
2023-09-30T00:00	29197	13	-51.1	-82.8	244	8
2023-09-30T00:00	29241	13	-51.2	-82.9	246	8
2023-09-30T00:00	29263	13	-51.2	-82.9	248	8
2023-09-30T00:00	29312	13	-51.1	-82.8	250	8
2023-09-30T00:00	29323	13	-51.0	-82.7	253	8
2023-09-30T00:00	29361	13	-51.1	-82.8	259	8
2023-09-30T00:00	29382	13	-50.9	-82.7	266	8
2023-09-30T00:00	29428	13	-50.9	-82.7	273	8
2023-09-30T00:00	29441	13	-51.0	-82.7	278	9
2023-09-30T00:00	29478	13	-51.1	-82.8	281	9
2023-09-30T00:00	29505	13	-51.1	-82.8	280	9
2023-09-30T00:00	29532	13	-51.3	-82.9	277	8
2023-09-30T00:00	29566	13	-51.0	-82.7	271	8
2023-09-30T00:00	29597	13	-51.0	-82.7	263	7
2023-09-30T00:00	29623	13	-51.1	-82.8	256	7
2023-09-30T00:00	29659	13	-51.2	-82.9	250	7
2023-09-30T00:00	29685	12	-51.2	-82.9	245	7
2023-09-30T00:00	29710	12	-51.3	-82.9	242	6
2023-09-30T00:00	29751	12	-51.3	-82.9	240	6
2023-09-30T00:00	29784	12	-51.3	-82.9	240	6
2023-09-30T00:00	29794	12	-51.4	-83.0	242	6
2023-09-30T00:00	29829	12	-51.4	-83.0	247	6
2023-09-30T00:00	29864	12	-51.5	-83.1	253	6
2023-09-30T00:00	29889	12	-51.6	-83.2	260	6
2023-09-30T00:00	29915	12	-51.7	-83.2	266	7
2023-09-30T00:00	29956	12	-51.8	-83.3	270	7
2023-09-30T00:00	29975	12	-51.8	-83.3	273	8
2023-09-30T00:00	30013	12	-51.6	-83.2	274	9
2023-09-30T00:00	30027	12	-51.5	-83.1	274	9
2023-09-30T00:00	30078	12	-51.3	-82.9	273	10
2023-09-30T00:00	30098	12	-51.1	-83.4	270	10
2023-09-30T00:00	30121	12	-50.8	-83.2	268	10
2023-09-30T00:00	30152	12	-50.7	-83.1	265	10
2023-09-30T00:00	30170	12	-50.8	-83.2	262	10
2023-09-30T00:00	30212	11	-50.9	-82.7	260	10
2023-09-30T00:00	30228	11	-51.0	-82.7	258	10
2023-09-30T00:00	30259	11	-51.2	-82.9	258	11
2023-09-30T00:00	30289	11	-51.1	-82.8	258	11
2023-09-30T00:00	30308	11	-50.9	-82.7	260	12
2023-09-30T00:00	30336	11	-51.0	-82.7	262	12
2023-09-30T00:00	30360	11	-51.1	-82.8	265	13
2023-09-30T00:00	30401	11	-51.1	-82.8	268	13
2023-09-30T00:00	30433	11	-51.0	-83.3	270	14
2023-09-30T00:00	30461	11	-50.7	-83.1	272	14
2023-09-30T00:00	30470	11	-50.1	-82.7	273	15
2023-09-30T00:00	30503	11	-50.0	-82.6	272	14
2023-09-30T00:00	30523	11	-49.9	-82.5	271	14
2023-09-30T00:00	30550	11	-49.8	-82.5	268	14
2023-09-30T00:00	30579	11	-49.9	-82.5	265	13
2023-09-30T00:00	30627	11	-49.8	-82.5	262	13
2023-09-30T00:00	30636	11	-49.9	-82.5	259	12
2023-09-30T00:00	30656	11	-50.0	-82.6	257	12
2023-09-30T00:00	30695	11	-50.2	-82.8	255	12
2023-09-30T00:00	30724	11	-50.2	-82.8	255	12
2023-09-30T00:00	30752	11	-50.2	-82.8	255	12
2023-09-30T00:00	30769	11	-50.2	-82.8	256	12
2023-09-30T00:00	30798	11	-50.1	-82.7	258	12
2023-09-30T00:00	30835	10	-50.2	-82.8	260	12
2023-09-30T00:00	30852	10	-50.2	-82.8	263	12
2023-09-30T00:00	30884	10	-50.4	-82.3	266	13
2023-09-30T00:00	30902	10	-50.5		270	13
2023-09-30T00:00	30941	10	-50.6	-82.4	273	13
2023-09-30T00:00	30977	10	-50.8	-82.6	277	13
2023-09-30T00:00	30991	10	-50.9	-82.7	280	14
2023-09-30T00:00	31039	10	-50.9	-82.7	282	14
2023-09-30T00:00	31052	10	-51.0	-82.7	285	14
2023-09-30T00:00	31106	10	-51.2	-82.9	286	14
2023-09-30T00:00	31138	10	-51.7	-83.2	290	15
2023-09-30T00:00	31177	10	-51.7	-83.2	291	15
2023-09-30T00:00	31213	10	-51.3	-82.9	293	15
2023-09-30T00:00	31238	10	-51.1	-82.8	296	15
2023-09-30T00:00	31272	10	-51.3	-82.9	298	15
2023-09-30T00:00	31288	10	-51.5	-83.7	300	15
2023-09-30T00:00	31340	10	-51.7	-83.9	302	15
2023-09-30T00:00	31392	10	-50.6	-83.1	305	15
2023-09-30T00:00	31417	10	-50.6	-83.1	306	15
2023-09-30T00:00	31451	10	-50.7	-83.1	306	15
2023-09-30T00:00	31469	9	-50.9	-83.3	305	15
2023-09-30T00:00	31512	9	-50.9	-83.3	304	15
2023-09-30T00:00	31521	9	-50.7	-83.1	303	15
2023-09-30T00:00	31540	9	-50.2	-82.8	301	15
2023-09-30T00:00	31577	9	-49.8	-83.2	300	15
2023-09-30T00:00	31608	9	-49.4	-82.9	299	14
2023-09-30T00:00	31628	9	-49.3	-82.8	298	14
2023-09-30T00:00	31664	9	-49.3	-82.8	297	14
2023-09-30T00:00	31701	9	-49.3	-82.1	296	13
2023-09-30T00:00	31712	9	-49.4	-82.2	295	13
2023-09-30T00:00	31732	9	-49.6	-82.3	293	12
2023-09-30T00:00	31786	9	-49.8	-82.5	291	12
2023-09-30T00:00	31805	9	-49.9	-82.5	288	12
2023-09-30T00:00	31818	9	-50.0	-82.6	284	11
2023-09-30T00:00	31837	9	-50.1	-82.7	280	11
2023-09-30T00:00	31866	9	-50.1	-82.7	276	12
2023-09-30T00:00	31892	9	-50.2	-82.8	274	13
2023-09-30T00:00	31918	9	-50.1	-82.7	273	13
2023-09-30T00:00	31950	9	-49.9	-82.5	274	14
2023-09-30T00:00	31967	9	-49.9	-82.5	274	15
2023-09-30T00:00	31998	9	-49.8	-82.5	275	15
2023-09-30T00:00	32032	9	-49.8	-82.5	275	16
2023-09-30T00:00	32040	9	-49.6	-82.3	274	16
2023-09-30T00:00	32071	9	-49.5	-82.3	272	16
2023-09-30T00:00	32086	9	-49.7	-82.4	270	16
2023-09-30T00:00	32116	9	-49.8	-82.5	268	17
2023-09-30T00:00	32139	9	-49.7	-82.4	267	17
2023-09-30T00:00	32170	9	-49.5	-82.3	266	17
2023-09-30T00:00	32214	8	-49.4	-82.9	266	18
2023-09-30T00:00	32236	8	-49.1	-82.7	267	18
2023-09-30T00:00	32250	8	-48.9	-82.5	268	17
2023-09-30T00:00	32276	8	-48.8	-82.4	269	17
2023-09-30T00:00	32306	8	-48.8	-82.4	271	17
2023-09-30T00:00	32330	8	-48.8	-82.4	273	17
2023-09-30T00:00	32362	8	-48.8	-82.4	276	17
2023-09-30T00:00	32395	8	-48.9	-82.5	277	17
2023-09-30T00:00	32405	8	-48.9	-81.8	279	17
2023-09-30T00:00	32448	8	-49.1	-82.0	280	17
2023-09-30T00:00	32454	8	-49.3	-82.1	281	18
2023-09-30T00:00	32472	8	-49.4	-82.2	283	18
2023-09-30T00:00	32517	8	-49.5	-82.3	284	18
2023-09-30T00:00	32544	8	-49.4	-82.2	286	19
2023-09-30T00:00	32568	8	-49.3	-82.1	287	19
2023-09-30T00:00	32608	8	-49.4	-82.2	289	20
2023-09-30T00:00	32644	8	-49.4	-82.2	290	20
2023-09-30T00:00	32661	8	-49.4	-82.2	291	20
2023-09-30T00:00	32698	8	-49.3	-82.1	293	21
2023-09-30T00:00	32722	8	-49.3	-82.1	293	21
2023-09-30T00:00	32765	8	-49.4	-82.2	294	21
2023-09-30T00:00	32791	8	-49.4	-82.2	295	22
2023-09-30T00:00	32793	8	-49.5	-82.3	295	22
2023-09-30T00:00	32820	8	-49.6	-82.3	296	22
2023-09-30T00:00	32859	8	-49.6	-82.3	296	23
2023-09-30T00:00	32865	8	-49.6	-82.3	296	23
2023-09-30T00:00	32916	8	-49.6	-82.3	296	23
2023-09-30T00:00	32925	8	-49.5	-82.3	296	23
2023-09-30T00:00	32951	8	-49.5	-82.3	297	23
2023-09-30T00:00	32971	8	-49.7	-83.1	297	22
2023-09-30T00:00	32999	8	-49.5	-82.9	298	21
2023-09-30T00:00	33058	7	-49.3	-82.8	299	20
2023-09-30T00:00	33081	7	-48.3	-82.1	299	18
2023-09-30T00:00	33138	7	-47.9	-82.6	298	17
2023-09-30T00:00	33162	7	-47.9	-82.6	293	15
2023-09-30T00:00	33177	7	-47.7	-82.4	292	15
2023-09-30T00:00	33224	7	-47.4	-82.2	291	15
2023-09-30T00:00	33238	7	-47.2	-82.1	290	15
2023-09-30T00:00	33276	7	-47.1	-82.0	290	15
2023-09-30T00:00	33284	7	-47.2	-82.1	289	15
2023-09-30T00:00	33335	7	-47.3	-81.4	289	16
2023-09-30T00:00	33385	7	-47.5	-81.5	289	16
2023-09-30T00:00	33397	7	-47.6	-81.6	289	17
2023-09-30T00:00	33422	7	-47.6	-81.6	288	17
2023-09-30T00:00	33446	7	-47.7	-81.6	288	18
2023-09-30T00:00	33460	7	-47.7	-81.6	288	18
2023-09-30T00:00	33472	7	-47.7	-81.6	288	19
2023-09-30T00:00	33541	7	-47.8	-81.7	288	19
2023-09-30T00:00	33557	7	-47.9	-81.8	288	19
2023-09-30T00:00	33615	7	-47.9	-81.8	289	20
2023-09-30T00:00	33650	7	-47.8	-81.7	291	20
2023-09-30T00:00	33670	7	-47.9	-81.8	293	20
2023-09-30T00:00	33681	7	-47.9	-81.8	295	20
2023-09-30T00:00	33705	7	-47.8	-81.7	297	20
2023-09-30T00:00	33741	7	-47.7	-81.6	298	21
2023-09-30T00:00	33784	7	-47.7	-81.6	299	21
2023-09-30T00:00	33793	7	-47.6	-81.6	299	21
2023-09-30T00:00	33841	7	-47.7	-81.6	299	21
2023-09-30T00:00	33871	7	-48.0	-81.9	299	21
2023-09-30T00:00	33892	7	-48.3	-82.1	299	21
2023-09-30T00:00	33934	7	-48.4	-82.2	299	21
2023-09-30T00:00	33962	7	-48.6	-82.3	299	21
2023-09-30T00:00	33976	6	-48.7	-82.4	299	21
2023-09-30T00:00	34025	6	-48.7	-82.4	299	22
2023-09-30T00:00	34060	6	-48.4	-82.2	300	22
2023-09-30T00:00	34074	6	-47.8	-82.5	301	23
2023-09-30T00:00	34112	6	-47.6	-82.4	303	23
2023-09-30T00:00	34150	6	-47.4	-82.2	304	24
2023-09-30T00:00	34165	6	-47.5	-82.3	305	24
2023-09-30T00:00	34198	6	-47.5	-82.3	305	23
2023-09-30T00:00	34221	6	-47.2	-82.1	305	23
2023-09-30T00:00	34258	6	-47.2	-82.1	305	22
2023-09-30T00:00	34300	6	-47.2	-82.1	305	21
2023-09-30T00:00	34301	6	-47.2	-82.1	303	20
2023-09-30T00:00	34367	6	-47.2	-82.1	302	19
2023-09-30T00:00	34402	6	-47.3	-81.4	300	19
2023-09-30T00:00	34416	6	-47.4	-81.4	296	18
2023-09-30T00:00	34449	6	-47.5	-81.5	295	18
2023-09-30T00:00	34460	6	-47.4	-81.4	293	18
2023-09-30T00:00	34500	6	-47.3	-81.4	291	18
2023-09-30T00:00	34522	6	-47.5	-81.5	289	18
2023-09-30T00:00	34562	6	-47.6	-82.4	284	18
2023-09-30T00:00	34615	6	-47.5	-82.3	281	19
2023-09-30T00:00	34653	6	-47.4	-82.2	275	19
2023-09-30T00:00	34683	6	-47.2	-82.1	273	19
2023-09-30T00:00	34709	6	-47.1	-82.0	272	20
2023-09-30T00:00	34735	6	-47.0	-81.9	271	20
2023-09-30T00:00	34747	6	-46.8	-81.8	272	20
2023-09-30T00:00	34759	6	-46.3	-81.4	273	20
2023-09-30T00:00	34801	6	-46.4	-81.5	275	20
2023-09-30T00:00	34816	6	-46.3	-81.4	276	21
2023-09-30T00:00	34834	6	-46.3	-81.4	277	21
2023-09-30T06:00	-999					
2023-09-30T06:00	128	1008	12.3	11.6	295	4
2023-09-30T06:00	155	1005	12.3	11.0	295	6
2023-09-30T06:00	179	1002	12.2	11.1	296	7
2023-09-30T06:00	205	999	12.0	11.0	297	8
2023-09-30T06:00	224	996	12.0	11.0	298	9
2023-09-30T06:00	256	993	11.8	11.0	298	9
2023-09-30T06:00	283	989	11.6	10.9	298	10
2023-09-30T06:00	307	986	11.5	10.9	299	11
2023-09-30T06:00	328	984	11.4	10.9	301	12
2023-09-30T06:00	350	981	11.5	10.6	303	12
2023-09-30T06:00	375	979	11.4	10.4	306	12
2023-09-30T06:00	397	976	11.4	10.3	310	12
2023-09-30T06:00	421	973	11.3	9.8	314	12
2023-09-30T06:00	441	971	11.2	9.7	318	12
2023-09-30T06:00	457	969	11.2	9.1	321	12
2023-09-30T06:00	475	967	11.2	8.8	322	12
2023-09-30T06:00	495	964	11.1	8.4	323	12
2023-09-30T06:00	519	962	11.0	8.1	323	13
2023-09-30T06:00	540	959	10.9	8.0	322	13
2023-09-30T06:00	564	957	10.7	8.1	321	13
2023-09-30T06:00	585	954	10.5	8.1	321	14
2023-09-30T06:00	608	952	10.3	7.9	321	14
2023-09-30T06:00	630	949	10.1	7.2	320	14
2023-09-30T06:00	654	946	9.9	7.2	321	14
2023-09-30T06:00	675	944	9.7	7.1	321	14
2023-09-30T06:00	693	942	9.6	6.4	322	14
2023-09-30T06:00	719	939	9.4	6.3	323	14
2023-09-30T06:00	751	935	9.3	5.2	324	14
2023-09-30T06:00	778	932	9.2	4.7	325	14
2023-09-30T06:00	803	929	8.9	4.8	325	14
2023-09-30T06:00	830	926	8.6	4.8	324	14
2023-09-30T06:00	855	924	8.4	4.5	324	14
2023-09-30T06:00	882	921	8.3	4.6	324	14
2023-09-30T06:00	907	918	8.0	4.5	323	14
2023-09-30T06:00	934	915	7.8	4.5	322	13
2023-09-30T06:00	959	912	7.5	4.3	321	13
2023-09-30T06:00	985	909	7.4	4.4	319	12
2023-09-30T06:00	1013	906	7.6	1.6	317	12
2023-09-30T06:00	1042	903	8.2	-2.1	316	11
2023-09-30T06:00	1060	901	8.6	-4.0	314	11
2023-09-30T06:00	1081	899	8.7	-4.1	313	10
2023-09-30T06:00	1100	897	9.0	-5.1	312	10
2023-09-30T06:00	1122	894	9.7	-7.3	310	11
2023-09-30T06:00	1140	892	9.9	-6.4	309	11
2023-09-30T06:00	1164	890	10.1	-7.3	308	11
2023-09-30T06:00	1187	887	10.0	-7.5	307	11
2023-09-30T06:00	1209	885	9.8	-7.7	306	11
2023-09-30T06:00	1237	882	9.6	-8.4	304	11
2023-09-30T06:00	1264	879	9.5	-8.9	302	11
2023-09-30T06:00	1290	876	9.5	-10.1	301	11
2023-09-30T06:00	1311	874	9.5	-11.6	300	11
2023-09-30T06:00	1332	872	9.4	-12.3	300	11
2023-09-30T06:00	1353	870	9.3		300	12
2023-09-30T06:00	1375	867	9.3	-12.8	301	12
2023-09-30T06:00	1399	865	9.3	-13.6	301	12
2023-09-30T06:00	1417	863	9.2	-14.1	302	12
2023-09-30T06:00	1443	860	9.1	-14.9	302	12
2023-09-30T06:00	1469	858	9.0	-15.1	301	12
2023-09-30T06:00	1494	855	8.9	-15.2	300	12
2023-09-30T06:00	1514	853	8.8	-15.2	300	12
2023-09-30T06:00	1538	850	8.6	-15.5	299	12
2023-09-30T06:00	1564	848	8.4	-15.6	298	11
2023-09-30T06:00	1587	845	8.2	-15.4	297	11
2023-09-30T06:00	1620	842	7.9	-15.4	295	11
2023-09-30T06:00	1645	839	7.7	-15.4	294	11
2023-09-30T06:00	1677	836	7.4	-16.0	293	11
2023-09-30T06:00	1705	834	7.3	-16.2	293	11
2023-09-30T06:00	1730	831	7.0	-16.2	292	11
2023-09-30T06:00	1758	828	6.8	-16.3	292	11
2023-09-30T06:00	1782	826	6.7	-16.5	293	11
2023-09-30T06:00	1810	823	6.5	-16.4	294	11
2023-09-30T06:00	1833	820	6.3	-16.4	294	11
2023-09-30T06:00	1860	818	6.2	-16.4	295	12
2023-09-30T06:00	1888	815	6.0	-16.5	295	12
2023-09-30T06:00	1912	813	5.9	-17.0	294	12
2023-09-30T06:00	1939	810	5.8	-17.7	293	12
2023-09-30T06:00	1959	808	5.8	-18.0	293	12
2023-09-30T06:00	1980	806	5.7	-18.1	293	12
2023-09-30T06:00	2000	804	5.6	-18.2	293	12
2023-09-30T06:00	2025	801	5.5	-19.4	294	12
2023-09-30T06:00	2046	799	5.5	-19.6	295	12
2023-09-30T06:00	2073	797	5.3	-19.6	295	12
2023-09-30T06:00	2094	795	5.2	-20.5	295	12
2023-09-30T06:00	2118	792	5.1	-20.5	294	12
2023-09-30T06:00	2140	790	4.9	-20.6	293	12
2023-09-30T06:00	2162	788	4.8	-20.4	291	12
2023-09-30T06:00	2185	786	4.7	-20.7	290	12
2023-09-30T06:00	2211	783	4.5	-20.6	289	12
2023-09-30T06:00	2234	781	4.4	-21.0	289	11
2023-09-30T06:00	2261	779	4.2	-22.3	288	11
2023-09-30T06:00	2286	776	4.1	-22.4	287	11
2023-09-30T06:00	2312	774	3.9	-22.0	286	12
2023-09-30T06:00	2339	771	3.7	-22.2	285	12
2023-09-30T06:00	2364	769	3.6	-22.4	284	12
2023-09-30T06:00	2388	766	3.4	-22.4	284	12
2023-09-30T06:00	2422	763	3.2	-22.4	284	12
2023-09-30T06:00	2445	761	3.1	-22.3	284	12
2023-09-30T06:00	2469	759	2.9	-22.6	285	12
2023-09-30T06:00	2493	757	2.7	-22.9	285	12
2023-09-30T06:00	2515	754	2.6	-23.3	285	12
2023-09-30T06:00	2539	752	2.4	-23.7	284	12
2023-09-30T06:00	2563	750	2.3	-24.4	282	12
2023-09-30T06:00	2587	748	2.2	-25.4	282	12
2023-09-30T06:00	2608	746	2.1	-25.6	282	12
2023-09-30T06:00	2640	743	2.0	-26.0	283	12
2023-09-30T06:00	2661	741	2.0	-26.5	283	13
2023-09-30T06:00	2680	739	1.8	-26.2	283	13
2023-09-30T06:00	2705	737	1.7	-26.0	281	13
2023-09-30T06:00	2726	735	1.5	-26.7	280	14
2023-09-30T06:00	2750	733	1.6	-26.8	279	14
2023-09-30T06:00	2778	730	1.5	-27.0	279	15
2023-09-30T06:00	2801	728	1.3	-27.1	280	15
2023-09-30T06:00	2826	726	1.4	-27.5	282	16
2023-09-30T06:00	2855	723	1.2	-27.9	283	16
2023-09-30T06:00	2873	721	1.2	-28.4	282	16
2023-09-30T06:00	2903	719	1.1	-28.8	281	15
2023-09-30T06:00	2928	717	1.0	-29.2	280	15
2023-09-30T06:00	2954	714	1.1	-29.9	279	14
2023-09-30T06:00	2983	712	1.0	-30.3	279	14
2023-09-30T06:00	3009	710	0.8	-30.3	281	13
2023-09-30T06:00	3030	708	0.6	-30.1	284	13
2023-09-30T06:00	3055	706	0.4	-29.9	288	13
2023-09-30T06:00	3083	703	0.1	-29.8	291	13
2023-09-30T06:00	3106	701	-0.1	-30.0	294	13
2023-09-30T06:00	3130	699	-0.1	-30.8	296	13
2023-09-30T06:00	3162	696	0.1	-38.0	296	13
2023-09-30T06:00	3183	694	0.3	-41.7	295	13
2023-09-30T06:00	3213	692	0.2	-41.7	292	12
2023-09-30T06:00	3238	690	0.2	-39.9	290	11
2023-09-30T06:00	3256	688	0.2	-38.7	288	11
2023-09-30T06:00	3279	686	0.1	-31.3	288	11
2023-09-30T06:00	3298	684	-0.1	-26.2	289	11
2023-09-30T06:00	3319	682	-0.3	-28.4	290	12
2023-09-30T06:00	3347	680	-0.5	-30.3	291	12
2023-09-30T06:00	3384	677	-0.7	-33.8	292	13
2023-09-30T06:00	3413	675	-0.9	-36.9	292	14
2023-09-30T06:00	3439	672	-1.0	-38.2	292	15
2023-09-30T06:00	3461	671	-0.9	-40.3	292	15
2023-09-30T06:00	3482	669	-0.8	-42.4	293	16
2023-09-30T06:00	3503	667	-0.8	-41.5	294	16
2023-09-30T06:00	3531	665	-0.8	-40.2	295	16
2023-09-30T06:00	3549	663	-0.7	-39.3	297	15
2023-09-30T06:00	3580	661	-0.8	-39.0	297	15
2023-09-30T06:00	3602	659	-0.8	-38.7	297	15
2023-09-30T06:00	3622	657	-0.9	-37.5	296	14
2023-09-30T06:00	3644	655	-0.9	-37.2	294	14
2023-09-30T06:00	3667	654	-0.9	-36.9	293	14
2023-09-30T06:00	3686	652	-1.0	-36.7	291	14
2023-09-30T06:00	3716	649	-1.1	-36.2	291	14
2023-09-30T06:00	3741	647	-1.3	-36.1	290	14
2023-09-30T06:00	3768	645	-1.5	-36.3	290	14
2023-09-30T06:00	3791	643	-1.7	-36.4	290	13
2023-09-30T06:00	3809	642	-1.8	-36.0	290	13
2023-09-30T06:00	3842	639	-1.8	-32.4	289	13
2023-09-30T06:00	3873	637	-2.0	-26.2	288	13
2023-09-30T06:00	3899	635	-2.1	-26.5	286	13
2023-09-30T06:00	3928	632	-2.3	-27.2	284	13
2023-09-30T06:00	3964	630	-2.4	-29.6	282	14
2023-09-30T06:00	3988	628	-2.5	-29.7	280	14
2023-09-30T06:00	4010	626	-2.6	-31.6	278	14
2023-09-30T06:00	4036	624	-2.6	-32.1	277	14
2023-09-30T06:00	4065	622	-2.6	-26.5	277	14
2023-09-30T06:00	4094	619	-2.9	-24.8	277	13
2023-09-30T06:00	4115	618	-3.1	-24.8	277	13
2023-09-30T06:00	4136	616	-3.3	-24.6	276	13
2023-09-30T06:00	4161	614	-3.4	-23.9	275	13
2023-09-30T06:00	4189	612	-3.6	-23.6	273	13
2023-09-30T06:00	4212	610	-3.8	-23.7	272	14
2023-09-30T06:00	4245	608	-4.1	-24.0	270	14
2023-09-30T06:00	4267	606	-4.3	-24.3	269	14
2023-09-30T06:00	4299	603	-4.6	-24.6	268	14
2023-09-30T06:00	4328	601	-4.8	-25.0	267	13
2023-09-30T06:00	4349	600	-5.0	-26.7	266	13
2023-09-30T06:00	4371	598	-5.1	-30.8	266	13
2023-09-30T06:00	4394	596	-5.3	-30.8	265	13
2023-09-30T06:00	4427	594	-5.6	-29.7	266	13
2023-09-30T06:00	4447	592	-5.8	-29.4	267	13
2023-09-30T06:00	4468	590	-6.0	-29.5	268	13
2023-09-30T06:00	4492	589	-6.2	-28.8	268	14
2023-09-30T06:00	4518	587	-6.5	-28.1	269	14
2023-09-30T06:00	4547	585	-6.8	-27.7	269	14
2023-09-30T06:00	4569	583	-7.0	-27.0	268	14
2023-09-30T06:00	4589	581	-7.1	-25.8	266	14
2023-09-30T06:00	4617	579	-7.4	-25.0	264	14
2023-09-30T06:00	4642	578	-7.5	-24.3	262	14
2023-09-30T06:00	4665	576	-7.8	-24.5	261	14
2023-09-30T06:00	4686	574	-7.9	-24.8	260	14
2023-09-30T06:00	4705	573	-7.5	-27.8	260	14
2023-09-30T06:00	4728	571	-7.4	-29.5	260	14
2023-09-30T06:00	4760	569	-7.5	-29.7	260	15
2023-09-30T06:00	4781	567	-7.7	-30.2	260	15
2023-09-30T06:00	4799	566	-7.8	-30.5	260	15
2023-09-30T06:00	4821	564	-7.9	-30.8	259	15
2023-09-30T06:00	4847	562	-7.9	-32.1	259	14
2023-09-30T06:00	4873	561	-8.1	-32.9	260	14
2023-09-30T06:00	4892	559	-8.2	-33.2	261	14
2023-09-30T06:00	4917	557	-8.4	-33.6	262	13
2023-09-30T06:00	4939	556	-8.6	-34.1	263	13
2023-09-30T06:00	4960	554	-8.8	-34.6	264	13
2023-09-30T06:00	4981	553	-9.0	-34.7	264	13
2023-09-30T06:00	5006	551	-9.2	-35.2	264	14
2023-09-30T06:00	5029	549	-9.4	-35.4	264	14
2023-09-30T06:00	5052	548	-9.6	-35.6	265	14
2023-09-30T06:00	5080	546	-9.9	-36.2	266	14
2023-09-30T06:00	5101	544	-9.9	-37.6	268	14
2023-09-30T06:00	5121	543	-9.9	-38.7	269	14
2023-09-30T06:00	5141	541	-10.0	-39.2	269	14
2023-09-30T06:00	5171	539	-10.2	-39.4	269	14
2023-09-30T06:00	5196	538	-10.4	-39.2	269	14
2023-09-30T06:00	5219	536	-10.6	-39.1	269	14
2023-09-30T06:00	5247	534	-10.8	-38.6	270	14
2023-09-30T06:00	5269	532	-11.0	-38.8	272	14
2023-09-30T06:00	5297	531	-11.2	-38.9	273	14
2023-09-30T06:00	5324	529	-11.4	-39.0	274	13
2023-09-30T06:00	5339	528	-11.5	-39.8	275	13
2023-09-30T06:00	5356	526	-11.6	-40.3	276	13
2023-09-30T06:00	5381	525	-11.8	-40.3	276	13
2023-09-30T06:00	5407	523	-11.9	-40.6	277	13
2023-09-30T06:00	5435	521	-12.1	-40.9	278	13
2023-09-30T06:00	5467	519	-12.2	-41.5	279	14
2023-09-30T06:00	5489	517	-12.4	-42.0	280	14
2023-09-30T06:00	5510	516	-12.5	-42.2	280	14
2023-09-30T06:00	5529	515	-12.6	-42.7	279	13
2023-09-30T06:00	5550	513	-12.6	-42.7	279	13
2023-09-30T06:00	5572	512	-12.7	-42.7	278	13
2023-09-30T06:00	5595	510	-12.8	-43.0	278	13
2023-09-30T06:00	5625	508	-13.0	-43.0	278	13
2023-09-30T06:00	5646	507	-13.1	-43.6	279	13
2023-09-30T06:00	5674	505	-13.3	-44.4	280	12
2023-09-30T06:00	5703	503	-13.5	-41.7	280	12
2023-09-30T06:00	5725	502	-13.7	-36.9	279	11
2023-09-30T06:00	5754	500	-14.0	-35.6	278	11
2023-09-30T06:00	5785	498	-14.3	-36.2	277	11
2023-09-30T06:00	5807	496	-14.5	-36.1	276	11
2023-09-30T06:00	5832	495	-14.7	-36.6	276	11
2023-09-30T06:00	5862	493	-15.0	-37.9	277	11
2023-09-30T06:00	5891	491	-15.2	-36.7	278	10
2023-09-30T06:00	5909	490	-15.3	-36.5	279	10
2023-09-30T06:00	5934	488	-15.5	-37.7	280	11
2023-09-30T06:00	5964	486	-15.7	-38.0	281	11
2023-09-30T06:00	5995	484	-16.0	-38.1	282	11
2023-09-30T06:00	6021	482	-16.2	-38.1	283	11
2023-09-30T06:00	6051	481	-16.5	-38.2	283	11
2023-09-30T06:00	6077	479	-16.7	-38.4	284	11
2023-09-30T06:00	6104	477	-16.9	-38.4	283	11
2023-09-30T06:00	6136	475	-17.1	-38.5	282	11
2023-09-30T06:00	6166	473	-17.4	-38.7	281	11
2023-09-30T06:00	6187	472	-17.6	-38.7	278	11
2023-09-30T06:00	6206	471	-17.7	-38.5	276	12
2023-09-30T06:00	6230	469	-17.9	-38.5	274	12
2023-09-30T06:00	6257	467	-18.2	-38.9	272	12
2023-09-30T06:00	6280	466	-18.4	-39.2	271	13
2023-09-30T06:00	6308	464	-18.5	-39.3	270	13
2023-09-30T06:00	6329	463	-18.7	-39.3	271	13
2023-09-30T06:00	6352	461	-18.8	-39.1	271	13
2023-09-30T06:00	6376	460	-19.0	-39.2	272	13
2023-09-30T06:00	6401	458	-19.3	-39.3	273	13
2023-09-30T06:00	6425	457	-19.5	-39.5	273	13
2023-09-30T06:00	6455	455	-19.7	-39.6	272	13
2023-09-30T06:00	6486	453	-20.0		272	12
2023-09-30T06:00	6512	452	-20.2	-40.3	272	13
2023-09-30T06:00	6547	450	-20.4	-40.4	273	13
2023-09-30T06:00	6572	448	-20.6	-40.5	274	14
2023-09-30T06:00	6604	446	-20.8	-40.9	275	14
2023-09-30T06:00	6637	444	-21.1	-41.3	276	15
2023-09-30T06:00	6665	442	-21.4	-41.4	276	15
2023-09-30T06:00	6698	440	-21.6	-42.0	275	15
2023-09-30T06:00	6732	439	-21.9	-42.2	274	15
2023-09-30T06:00	6757	437	-22.1	-42.5	273	15
2023-09-30T06:00	6781	436	-22.3	-42.6	273	14
2023-09-30T06:00	6805	434	-22.5	-42.8	274	14
2023-09-30T06:00	6832	432	-22.7	-43.0	275	14
2023-09-30T06:00	6865	431	-23.0	-42.9	276	14
2023-09-30T06:00	6897	429	-23.3	-43.1	278	14
2023-09-30T06:00	6924	427	-23.6	-43.2	279	14
2023-09-30T06:00	6956	425	-23.9	-43.2	279	13
2023-09-30T06:00	6988	423	-24.2	-43.3	279	13
2023-09-30T06:00	7021	421	-24.5	-43.4	278	13
2023-09-30T06:00	7055	420	-24.8	-43.5	278	13
2023-09-30T06:00	7084	418	-25.1	-43.4	277	13
2023-09-30T06:00	7114	416	-25.4	-43.8	277	13
2023-09-30T06:00	7142	414	-25.6	-43.8	278	13
2023-09-30T06:00	7170	413	-25.8	-44.0	280	14
2023-09-30T06:00	7197	411	-26.1	-44.3	281	14
2023-09-30T06:00	7225	410	-26.3	-44.4	282	14
2023-09-30T06:00	7260	408	-26.6	-44.8	284	14
2023-09-30T06:00	7293	406	-26.9	-45.3	284	15
2023-09-30T06:00	7324	404	-27.1	-45.2	284	15
2023-09-30T06:00	7354	402	-27.4	-45.4	284	15
2023-09-30T06:00	7383	401	-27.7	-45.6	282	15
2023-09-30T06:00	7416	399	-28.0	-45.7	280	15
2023-09-30T06:00	7450	397	-28.2	-46.0	278	15
2023-09-30T06:00	7489	395	-28.6	-46.5	277	15
2023-09-30T06:00	7512	394	-28.7	-46.8	277	15
2023-09-30T06:00	7533	393	-28.9	-46.9	277	14
2023-09-30T06:00	7554	391	-29.1	-46.9	277	14
2023-09-30T06:00	7575	390	-29.3	-47.2	277	14
2023-09-30T06:00	7597	389	-29.5	-47.3	278	14
2023-09-30T06:00	7622	388	-29.7	-47.8	278	14
2023-09-30T06:00	7651	386	-29.9	-47.9	277	15
2023-09-30T06:00	7681	384	-30.2	-48.1	277	15
2023-09-30T06:00	7717	383	-30.5	-48.5	277	15
2023-09-30T06:00	7744	381	-30.7	-48.9	276	15
2023-09-30T06:00	7768	380	-30.9	-49.3	277	15
2023-09-30T06:00	7790	379	-31.1	-49.5	277	15
2023-09-30T06:00	7815	377	-31.2	-49.3	278	15
2023-09-30T06:00	7840	376	-31.4	-49.8	279	15
2023-09-30T06:00	7862	375	-31.6	-49.9	280	15
2023-09-30T06:00	7888	373	-31.8	-49.6	280	15
2023-09-30T06:00	7918	372	-32.0	-49.4	280	14
2023-09-30T06:00	7948	370	-32.2	-48.8	281	14
2023-09-30T06:00	7982	369	-32.6	-49.0	281	14
2023-09-30T06:00	8012	367	-32.9	-48.9	281	14
2023-09-30T06:00	8041	366	-33.1	-49.0	281	15
2023-09-30T06:00	8060	364	-33.3	-49.1	281	15
2023-09-30T06:00	8081	363	-33.5	-49.0	281	15
2023-09-30T06:00	8106	362	-33.8	-49.1	282	15
2023-09-30T06:00	8129	361	-34.0	-49.3	283	16
2023-09-30T06:00	8156	359	-34.2	-49.8	284	16
2023-09-30T06:00	8188	358	-34.4	-51.7	284	16
2023-09-30T06:00	8218	356	-34.5	-51.8	283	16
2023-09-30T06:00	8246	355	-34.7	-51.8	283	17
2023-09-30T06:00	8275	353	-34.8	-52.6	282	17
2023-09-30T06:00	8300	352	-35.0	-52.9	281	17
2023-09-30T06:00	8325	351	-35.3	-53.1	281	17
2023-09-30T06:00	8350	350	-35.5	-53.6	281	17
2023-09-30T06:00	8375	348	-35.7	-53.9	281	17
2023-09-30T06:00	8405	347	-36.0	-54.4	281	17
2023-09-30T06:00	8436	345	-36.2	-55.7	281	17
2023-09-30T06:00	8468	344	-36.4	-56.2	281	18
2023-09-30T06:00	8499	342	-36.5	-56.3	282	18
2023-09-30T06:00	8528	341	-36.7	-56.8	282	19
2023-09-30T06:00	8557	339	-36.8	-57.3	282	19
2023-09-30T06:00	8586	338	-36.8	-57.7	283	19
2023-09-30T06:00	8610	337	-36.8	-57.8	284	19
2023-09-30T06:00	8633	336	-37.0	-57.8	286	19
2023-09-30T06:00	8657	334	-37.1	-57.8	288	19
2023-09-30T06:00	8680	333	-37.3	-57.9	291	19
2023-09-30T06:00	8701	332	-37.4	-57.9	293	20
2023-09-30T06:00	8732	331	-37.7	-57.8	295	20
2023-09-30T06:00	8761	330	-37.9	-57.8	296	21
2023-09-30T06:00	8782	328	-38.1	-58.0	297	22
2023-09-30T06:00	8803	328	-38.3	-57.9	298	22
2023-09-30T06:00	8821	327	-38.5	-57.8	300	23
2023-09-30T06:00	8847	325	-38.6	-57.8	301	23
2023-09-30T06:00	8868	324	-38.7	-57.6	302	24
2023-09-30T06:00	8890	323	-38.8	-57.6	303	24
2023-09-30T06:00	8912	322	-38.9	-56.5	303	24
2023-09-30T06:00	8937	321	-39.2	-56.8	304	25
2023-09-30T06:00	8961	320	-39.4	-56.8	304	25
2023-09-30T06:00	8988	319	-39.7	-56.1	305	26
2023-09-30T06:00	9008	318	-39.8	-54.6	306	26
2023-09-30T06:00	9026	317	-39.9	-52.5	306	26
2023-09-30T06:00	9044	316	-40.0	-48.9	305	26
2023-09-30T06:00	9064	315	-40.2	-48.7	305	26
2023-09-30T06:00	9084	314	-40.3	-49.7	303	26
2023-09-30T06:00	9106	313	-40.5	-50.1	302	25
2023-09-30T06:00	9127	312	-40.6	-49.6	301	25
2023-09-30T06:00	9149	311	-40.6	-49.8	300	25
2023-09-30T06:00	9169	310	-40.7	-51.1	300	25
2023-09-30T06:00	9189	309	-40.9	-50.8	300	25
2023-09-30T06:00	9209	309	-41.1	-50.8	300	25
2023-09-30T06:00	9230	308	-41.3	-51.0	300	25
2023-09-30T06:00	9246	307	-41.5	-51.0	300	25
2023-09-30T06:00	9265	306	-41.6	-51.2	300	25
2023-09-30T06:00	9284	305	-41.8	-51.3	300	25
2023-09-30T06:00	9303	304	-42.0	-51.3	300	25
2023-09-30T06:00	9320	304	-42.1	-51.2	299	25
2023-09-30T06:00	9339	303	-42.3	-51.2	299	25
2023-09-30T06:00	9357	302	-42.5	-51.2	299	25
2023-09-30T06:00	9375	301	-42.7	-51.3	299	25
2023-09-30T06:00	9393	300	-42.8	-51.4	299	25
2023-09-30T06:00	9413	299	-43.0	-51.4	299	25
2023-09-30T06:00	9430	299	-43.2	-51.5	298	25
2023-09-30T06:00	9450	298	-43.3	-51.5	298	24
2023-09-30T06:00	9468	297	-43.5	-51.7	297	24
2023-09-30T06:00	9487	296	-43.7	-52.1	296	24
2023-09-30T06:00	9505	295	-43.8	-52.3	295	25
2023-09-30T06:00	9525	294	-43.9	-52.7	294	25
2023-09-30T06:00	9545	294	-44.0	-53.5	294	25
2023-09-30T06:00	9566	293	-44.2	-53.6	293	26
2023-09-30T06:00	9585	292	-44.3	-53.4	293	26
2023-09-30T06:00	9607	291	-44.4	-53.7	292	26
2023-09-30T06:00	9628	290	-44.6	-53.9	292	26
2023-09-30T06:00	9648	289	-44.7	-54.4	291	27
2023-09-30T06:00	9682	288	-44.8	-54.5	291	27
2023-09-30T06:00	9707	287	-45.0	-54.8	291	27
2023-09-30T06:00	9728	286	-45.2	-54.8	291	28
2023-09-30T06:00	9749	285	-45.3	-54.8	291	28
2023-09-30T06:00	9770	284	-45.5	-55.6	290	29
2023-09-30T06:00	9791	283	-45.6	-56.5	290	29
2023-09-30T06:00	9812	282	-45.7	-56.9	290	29
2023-09-30T06:00	9837	281	-45.9	-56.4	289	29
2023-09-30T06:00	9859	280	-46.1	-56.3	289	29
2023-09-30T06:00	9880	279	-46.3	-56.4	289	29
2023-09-30T06:00	9901	278	-46.5	-56.6	289	29
2023-09-30T06:00	9921	278	-46.7	-56.7	289	30
2023-09-30T06:00	9942	277	-46.9	-56.6	289	30
2023-09-30T06:00	9962	276	-47.1	-56.6	290	30
2023-09-30T06:00	9985	275	-47.3	-56.6	290	30
2023-09-30T06:00	10008	274	-47.6	-56.7	290	29
2023-09-30T06:00	10027	273	-47.7	-56.9	290	29
2023-09-30T06:00	10047	272	-47.9	-56.9	290	29
2023-09-30T06:00	10068	271	-48.1	-56.8	290	28
2023-09-30T06:00	10088	271	-48.3	-56.8	290	28
2023-09-30T06:00	10107	270	-48.5	-56.8	290	28
2023-09-30T06:00	10126	269	-48.7	-57.1	290	28
2023-09-30T06:00	10144	268	-48.9	-57.3	290	28
2023-09-30T06:00	10163	267	-49.0	-57.5	290	28
2023-09-30T06:00	10185	267	-49.2	-57.9	291	28
2023-09-30T06:00	10205	266	-49.3	-58.3	291	28
2023-09-30T06:00	10228	265	-49.5	-58.7	291	27
2023-09-30T06:00	10250	264	-49.7	-59.1	291	27
2023-09-30T06:00	10269	263	-49.8	-59.5	292	27
2023-09-30T06:00	10291	262	-50.0	-59.6	292	27
2023-09-30T06:00	10311	262	-50.2	-59.5	292	27
2023-09-30T06:00	10330	261	-50.3	-59.6	293	27
2023-09-30T06:00	10352	260	-50.5	-59.9	293	27
2023-09-30T06:00	10370	259	-50.6	-60.7	293	27
2023-09-30T06:00	10391	258	-50.7	-62.2	294	27
2023-09-30T06:00	10412	258	-50.6	-64.0	294	27
2023-09-30T06:00	10432	257	-50.7	-65.6	294	27
2023-09-30T06:00	10453	256	-50.7	-66.4	293	27
2023-09-30T06:00	10473	255	-50.8	-66.5	293	27
2023-09-30T06:00	10496	254	-50.9	-66.1	293	27
2023-09-30T06:00	10516	253	-51.1	-65.7	293	27
2023-09-30T06:00	10538	253	-51.3	-65.6	293	27
2023-09-30T06:00	10558	252	-51.5	-65.6	293	27
2023-09-30T06:00	10580	251	-51.7	-65.5	293	27
2023-09-30T06:00	10602	250	-51.9	-65.4	292	27
2023-09-30T06:00	10623	249	-52.1	-65.4	292	27
2023-09-30T06:00	10644	248	-52.3	-65.4	292	27
2023-09-30T06:00	10667	248	-52.5	-65.5	291	27
2023-09-30T06:00	10685	247	-52.6	-65.6	291	26
2023-09-30T06:00	10709	246	-52.8	-65.9	292	26
2023-09-30T06:00	10731	245	-52.9	-66.2	292	26
2023-09-30T06:00	10752	244	-53.0	-66.4	292	26
2023-09-30T06:00	10772	244	-53.1	-66.6	292	26
2023-09-30T06:00	10795	243	-53.1	-66.6	292	26
2023-09-30T06:00	10816	242	-53.2	-66.7	293	26
2023-09-30T06:00	10838	241	-53.3	-66.7	293	26
2023-09-30T06:00	10860	240	-53.4	-66.6	293	26
2023-09-30T06:00	10883	239	-53.5	-66.3	293	25
2023-09-30T06:00	10903	239	-53.6	-66.3	294	25
2023-09-30T06:00	10924	238	-53.6	-66.6	294	24
2023-09-30T06:00	10946	237	-53.5	-66.8	294	24
2023-09-30T06:00	10967	236	-53.6	-67.0	293	24
2023-09-30T06:00	10989	236	-53.7	-67.1	293	23
2023-09-30T06:00	11011	235	-53.8	-67.1	293	23
2023-09-30T06:00	11034	234	-53.9	-67.2	293	22
2023-09-30T06:00	11056	233	-54.0	-67.3	293	22
2023-09-30T06:00	11079	232	-54.2	-67.4	292	21
2023-09-30T06:00	11100	231	-54.3	-67.4	292	21
2023-09-30T06:00	11122	231	-54.4	-67.5	292	21
2023-09-30T06:00	11143	230	-54.5	-67.4	291	21
2023-09-30T06:00	11165	229	-54.6	-67.5	290	20
2023-09-30T06:00	11187	228	-54.7	-67.6	289	21
2023-09-30T06:00	11209	228	-54.8	-67.9	288	21
2023-09-30T06:00	11233	227	-54.6	-68.2	286	21
2023-09-30T06:00	11255	226	-54.7	-68.7	284	21
2023-09-30T06:00	11275	225	-54.4	-68.7	283	22
2023-09-30T06:00	11295	225	-54.5	-68.9	282	22
2023-09-30T06:00	11317	224	-54.6	-68.8	282	22
2023-09-30T06:00	11338	223	-54.8	-68.9	282	22
2023-09-30T06:00	11360	222	-54.9	-68.9	282	22
2023-09-30T06:00	11382	222	-55.0	-69.0	282	21
2023-09-30T06:00	11404	221	-55.0	-69.1	282	20
2023-09-30T06:00	11425	220	-55.0	-69.3	282	20
2023-09-30T06:00	11446	219	-55.0	-69.5	281	19
2023-09-30T06:00	11465	219	-55.0	-69.8	280	19
2023-09-30T06:00	11487	218	-54.9	-70.0	279	19
2023-09-30T06:00	11509	217	-55.0	-70.2	278	20
2023-09-30T06:00	11529	216	-55.1	-70.1	278	20
2023-09-30T06:00	11547	216	-55.2	-70.2	277	20
2023-09-30T06:00	11570	215	-55.4	-70.2	276	20
2023-09-30T06:00	11590	214	-55.5	-70.2	274	20
2023-09-30T06:00	11611	214	-55.6	-70.4	273	20
2023-09-30T06:00	11633	213	-55.4	-70.4	271	20
2023-09-30T06:00	11655	212	-55.4	-70.6	269	20
2023-09-30T06:00	11675	212	-55.5	-70.8	267	20
2023-09-30T06:00	11698	211	-55.5	-71.0	265	20
2023-09-30T06:00	11720	210	-55.5	-71.4	264	20
2023-09-30T06:00	11741	209	-55.4	-71.8	263	20
2023-09-30T06:00	11760	209	-55.2	-72.0	262	20
2023-09-30T06:00	11781	208	-55.3	-72.3	263	20
2023-09-30T06:00	11803	207	-55.4	-72.5	263	20
2023-09-30T06:00	11826	207	-55.4	-72.6	264	21
2023-09-30T06:00	11849	206	-55.6	-72.8	266	21
2023-09-30T06:00	11868	205	-55.6	-73.0	267	21
2023-09-30T06:00	11892	204	-55.5	-73.2	268	21
2023-09-30T06:00	11914	204	-55.5	-73.4	269	21
2023-09-30T06:00	11935	203	-55.6	-73.5	270	21
2023-09-30T06:00	11955	202	-55.8	-73.5	271	21
2023-09-30T06:00	11976	202	-55.9	-73.5	271	21
2023-09-30T06:00	11996	201	-56.0	-73.6	272	21
2023-09-30T06:00	12016	201	-56.1	-73.9	272	21
2023-09-30T06:00	12037	200	-56.0	-73.9	273	21
2023-09-30T06:00	12058	199	-56.1	-73.9	273	21
2023-09-30T06:00	12079	199	-56.1	-73.8	273	21
2023-09-30T06:00	12100	198	-56.2	-73.9	273	20
2023-09-30T06:00	12120	197	-56.3	-74.0	273	20
2023-09-30T06:00	12139	197	-56.4	-74.1	273	20
2023-09-30T06:00	12162	196	-56.5	-74.1	273	20
2023-09-30T06:00	12184	195	-56.5	-74.1	274	20
2023-09-30T06:00	12205	195	-56.5	-74.2	274	20
2023-09-30T06:00	12225	194	-56.5	-74.4	274	21
2023-09-30T06:00	12245	193	-56.5	-74.6	275	21
2023-09-30T06:00	12265	193	-56.5	-74.7	275	21
2023-09-30T06:00	12284	192	-56.5	-74.9	276	22
2023-09-30T06:00	12305	192	-56.6	-75.1	276	22
2023-09-30T06:00	12325	191	-56.6	-75.1	277	22
2023-09-30T06:00	12345	190	-56.7	-75.2	277	22
2023-09-30T06:00	12367	190	-56.8	-75.2	278	22
2023-09-30T06:00	12387	189	-56.9	-75.2	278	22
2023-09-30T06:00	12407	189	-57.1	-75.3	278	22
2023-09-30T06:00	12427	188	-57.1	-75.4	278	22
2023-09-30T06:00	12448	187	-57.1	-75.6	278	22
2023-09-30T06:00	12469	187	-57.1	-75.7	278	22
2023-09-30T06:00	12489	186	-57.1	-75.9	277	22
2023-09-30T06:00	12510	186	-57.2	-76.0	277	23
2023-09-30T06:00	12532	185	-57.2	-76.1	276	23
2023-09-30T06:00	12554	184	-57.3	-76.3	275	23
2023-09-30T06:00	12574	184	-57.3	-76.5	275	23
2023-09-30T06:00	12596	183	-57.4	-76.7	275	23
2023-09-30T06:00	12618	182	-57.4	-77.1	276	23
2023-09-30T06:00	12640	182	-57.0	-77.1	277	22
2023-09-30T06:00	12662	181	-57.1	-77.5	278	22
2023-09-30T06:00	12683	180	-57.1	-77.6	278	21
2023-09-30T06:00	12705	180	-57.1	-77.7	278	21
2023-09-30T06:00	12725	179	-57.1	-78.0	277	21
2023-09-30T06:00	12747	179	-57.0	-78.1	276	21
2023-09-30T06:00	12767	178	-57.0	-78.3	276	21
2023-09-30T06:00	12789	177	-57.0	-78.4	276	22
2023-09-30T06:00	12811	177	-56.9	-78.3	276	22
2023-09-30T06:00	12835	176	-56.7	-78.3	276	23
2023-09-30T06:00	12855	176	-56.8	-78.4	276	23
2023-09-30T06:00	12875	175	-56.8	-78.4	276	23
2023-09-30T06:00	12900	174	-56.8	-78.4	276	24
2023-09-30T06:00	12921	174	-56.8		276	24
2023-09-30T06:00	12943	173	-56.8	-78.8	276	24
2023-09-30T06:00	12967	173	-56.8	-79.2	276	23
2023-09-30T06:00	12989	172	-56.6	-79.3	275	23
2023-09-30T06:00	13010	171	-56.6	-79.9	275	23
2023-09-30T06:00	13032	171	-56.5	-80.0	275	23
2023-09-30T06:00	13051	170	-56.6	-80.2	276	23
2023-09-30T06:00	13077	170	-56.4	-80.1	277	23
2023-09-30T06:00	13097	169	-56.5	-80.2	278	24
2023-09-30T06:00	13119	168	-56.4	-80.1	279	24
2023-09-30T06:00	13141	168	-56.3	-80.0	280	24
2023-09-30T06:00	13163	167	-56.3	-80.0	280	24
2023-09-30T06:00	13183	167	-56.2	-80.1	281	24
2023-09-30T06:00	13207	166	-56.3	-80.4	282	24
2023-09-30T06:00	13227	166	-56.2	-80.3	282	25
2023-09-30T06:00	13249	165	-56.4	-80.5	283	25
2023-09-30T06:00	13270	164	-56.5	-80.6	283	25
2023-09-30T06:00	13294	164	-56.4	-80.7	284	25
2023-09-30T06:00	13315	163	-56.1	-80.7	284	25
2023-09-30T06:00	13336	163	-56.1	-80.9	283	24
2023-09-30T06:00	13356	162	-56.1	-80.9	283	24
2023-09-30T06:00	13378	162	-56.0	-81.1	283	23
2023-09-30T06:00	13401	161	-55.7	-80.8	283	23
2023-09-30T06:00	13418	161	-55.6	-81.0	283	23
2023-09-30T06:00	13442	160	-55.3	-81.0	284	23
2023-09-30T06:00	13464	160	-55.3	-81.0	284	23
2023-09-30T06:00	13485	159	-55.5	-80.9	284	23
2023-09-30T06:00	13509	158	-55.7	-81.1	284	22
2023-09-30T06:00	13528	158	-55.8	-81.2	283	22
2023-09-30T06:00	13555	157	-55.9	-81.2	283	22
2023-09-30T06:00	13576	157	-55.9	-81.2	282	22
2023-09-30T06:00	13598	156	-56.1	-81.4	282	22
2023-09-30T06:00	13619	156	-55.9	-81.2	282	22
2023-09-30T06:00	13640	155	-55.5	-81.2	282	22
2023-09-30T06:00	13664	155	-55.4	-81.4	282	22
2023-09-30T06:00	13687	154	-55.2	-81.2	281	22
2023-09-30T06:00	13707	154	-55.3	-81.6	280	22
2023-09-30T06:00	13729	153	-55.2	-81.5	279	22
2023-09-30T06:00	13753	153	-55.0	-81.3	278	22
2023-09-30T06:00	13773	152	-55.0	-81.3	277	22
2023-09-30T06:00	13796	151	-55.0	-81.3	277	22
2023-09-30T06:00	13817	151	-55.1	-81.4	277	22
2023-09-30T06:00	13839	150	-55.1	-81.4	277	22
2023-09-30T06:00	13864	150	-55.0	-81.3	278	21
2023-09-30T06:00	13885	149	-54.9	-81.5	278	21
2023-09-30T06:00	13907	149	-55.0	-81.6	278	21
2023-09-30T06:00	13930	148	-55.0	-81.6	278	21
2023-09-30T06:00	13954	148	-55.2	-81.5	277	20
2023-09-30T06:00	13977	147	-55.2	-81.5	276	20
2023-09-30T06:00	13999	147	-55.2	-81.5	274	20
2023-09-30T06:00	14022	146	-55.2	-81.5	272	20
2023-09-30T06:00	14047	146	-55.3	-81.6	271	20
2023-09-30T06:00	14068	145	-55.4	-81.6	271	21
2023-09-30T06:00	14091	145	-55.6	-81.8	270	21
2023-09-30T06:00	14114	144	-55.7	-81.9	270	22
2023-09-30T06:00	14138	144	-55.8	-81.7	271	22
2023-09-30T06:00	14162	143	-55.8	-81.7	271	22
2023-09-30T06:00	14186	143	-55.9	-81.8	272	22
2023-09-30T06:00	14207	142	-56.0	-81.8	273	22
2023-09-30T06:00	14228	142	-56.2	-82.0	274	22
2023-09-30T06:00	14252	141	-56.2	-82.0	274	22
2023-09-30T06:00	14277	141	-56.3	-82.1	274	22
2023-09-30T06:00	14298	140	-56.4	-82.1	274	22
2023-09-30T06:00	14322	139	-56.4	-82.1	273	21
2023-09-30T06:00	14345	139	-56.4	-82.1	272	21
2023-09-30T06:00	14371	138	-56.4	-82.1	271	21
2023-09-30T06:00	14396	138	-56.5	-82.2	269	21
2023-09-30T06:00	14420	137	-56.3	-82.1	268	22
2023-09-30T06:00	14444	137	-56.4	-82.1	267	22
2023-09-30T06:00	14468	136	-56.5	-82.2	267	22
2023-09-30T06:00	14493	136	-56.8	-82.5	267	23
2023-09-30T06:00	14518	135	-57.0	-82.3	267	23
2023-09-30T06:00	14542	135	-57.1	-82.4	268	23
2023-09-30T06:00	14566	134	-57.1	-82.4	268	24
2023-09-30T06:00	14590	134	-57.3	-82.6	269	24
2023-09-30T06:00	14613	133	-57.2	-82.5	270	24
2023-09-30T06:00	14639	133	-57.3	-82.6	270	25
2023-09-30T06:00	14664	132	-57.2	-82.5	271	25
2023-09-30T06:00	14690	132	-57.2	-82.5	271	25
2023-09-30T06:00	14710	131	-57.2	-82.5	272	26
2023-09-30T06:00	14736	131	-57.2	-82.5	272	26
2023-09-30T06:00	14759	130	-57.3	-82.6	273	26
2023-09-30T06:00	14784	130	-57.4	-82.7	273	26
2023-09-30T06:00	14806	129	-57.6	-82.6	273	26
2023-09-30T06:00	14828	129	-57.7	-82.6	274	26
2023-09-30T06:00	14850	128	-57.7	-82.6	274	26
2023-09-30T06:00	14875	128	-57.7	-82.6	275	25
2023-09-30T06:00	14896	127	-57.8	-83.0	275	25
2023-09-30T06:00	14918	127	-57.8	-83.0	275	25
2023-09-30T06:00	14939	127	-57.8	-83.0	276	24
2023-09-30T06:00	14961	126	-57.7	-82.9	276	24
2023-09-30T06:00	14980	126	-57.7	-82.9	277	24
2023-09-30T06:00	15001	125	-57.6	-83.1	278	24
2023-09-30T06:00	15023	125	-57.6	-83.1	279	24
2023-09-30T06:00	15043	124	-57.6	-83.1	280	24
2023-09-30T06:00	15065	124	-57.6	-83.1	282	24
2023-09-30T06:00	15085	124	-57.6	-83.3	283	24
2023-09-30T06:00	15106	123	-57.6	-83.3	284	24
2023-09-30T06:00	15125	123	-57.5	-83.3	284	23
2023-09-30T06:00	15147	122	-57.4	-83.5	283	23
2023-09-30T06:00	15168	122	-57.2	-83.3	282	23
2023-09-30T06:00	15186	122	-57.1	-83.2	281	22
2023-09-30T06:00	15204	121	-57.1	-83.2	280	22
2023-09-30T06:00	15222	121	-57.2	-83.3	279	22
2023-09-30T06:00	15242	121	-57.2	-83.3	278	22
2023-09-30T06:00	15264	120	-57.3	-83.4	278	22
2023-09-30T06:00	15281	120	-57.2	-83.6	278	22
2023-09-30T06:00	15302	119	-57.0	-83.5	278	21
2023-09-30T06:00	15319	119	-56.8	-83.3	279	21
2023-09-30T06:00	15340	119	-56.8	-83.3	279	20
2023-09-30T06:00	15359	118	-56.8	-83.3	280	20
2023-09-30T06:00	15379	118	-56.8	-83.3	280	20
2023-09-30T06:00	15397	118	-57.0	-83.5	280	20
2023-09-30T06:00	15416	117	-56.9	-83.4	280	20
2023-09-30T06:00	15433	117	-56.9	-83.4	280	20
2023-09-30T06:00	15452	117	-57.1	-83.5	280	20
2023-09-30T06:00	15473	116	-57.1	-83.5	280	20
2023-09-30T06:00	15491	116	-57.1	-83.5	279	20
2023-09-30T06:00	15511	116	-57.1	-83.5	279	20
2023-09-30T06:00	15527	115	-57.2	-83.6	278	20
2023-09-30T06:00	15547	115	-57.2	-83.6	278	20
2023-09-30T06:00	15565	115	-57.3	-83.7	278	20
2023-09-30T06:00	15582	114	-57.4	-83.8	277	20
2023-09-30T06:00	15603	114	-57.3	-83.7	277	20
2023-09-30T06:00	15623	114	-57.3	-83.7	276	19
2023-09-30T06:00	15643	113	-57.4	-83.8	276	19
2023-09-30T06:00	15662	113	-57.3	-83.7	275	19
2023-09-30T06:00	15684	112	-57.3	-83.7	274	18
2023-09-30T06:00	15706	112	-57.4	-83.8	274	18
2023-09-30T06:00	15728	112	-57.5	-83.9	273	17
2023-09-30T06:00	15749	111	-57.7	-84.0	272	17
2023-09-30T06:00	15772	111	-57.7	-83.7	271	17
2023-09-30T06:00	15796	111	-57.8	-83.8	271	17
2023-09-30T06:00	15815	110	-58.0	-83.9	271	17
2023-09-30T06:00	15839	110	-58.1	-84.0	271	17
2023-09-30T06:00	15861	109	-58.2	-84.1	271	17
2023-09-30T06:00	15885	109	-58.3	-84.2	271	17
2023-09-30T06:00	15909	109	-58.3	-84.2	270	17
2023-09-30T06:00	15933	108	-58.5	-84.0	269	17
2023-09-30T06:00	15957	108	-58.6	-84.1	268	17
2023-09-30T06:00	15982	107	-58.7	-84.2	267	17
2023-09-30T06:00	16005	107	-58.8	-84.3	267	17
2023-09-30T06:00	16031	106	-59.0	-84.4	266	17
2023-09-30T06:00	16056	106	-59.1	-84.5	266	17
2023-09-30T06:00	16077	106	-59.3	-84.4	266	18
2023-09-30T06:00	16104	105	-59.4	-84.5	266	18
2023-09-30T06:00	16128	105	-59.6	-84.6	267	19
2023-09-30T06:00	16154	104	-59.7	-84.7	267	19
2023-09-30T06:00	16180	104	-59.5	-84.8	269	20
2023-09-30T06:00	16204	104	-59.5	-84.8	270	20
2023-09-30T06:00	16229	103	-59.6	-84.9	272	20
2023-09-30T06:00	16255	103	-59.7	-84.7	274	20
2023-09-30T06:00	16278	102	-59.8	-84.8	276	20
2023-09-30T06:00	16305	102	-59.9	-84.9	278	20
2023-09-30T06:00	16334	101	-60.1	-85.0	280	20
2023-09-30T06:00	16362	101	-60.3	-84.9	282	20
2023-09-30T06:00	16389	100	-60.5	-85.1	284	20
2023-09-30T06:00	16418	100	-60.7	-85.2	286	20
2023-09-30T06:00	16446	100	-60.7	-85.2	288	19
2023-09-30T06:00	16474	99	-60.9	-85.7	290	18
2023-09-30T06:00	16504	99	-60.2	-85.4	291	17
2023-09-30T06:00	16538	98	-59.6	-85.2	293	16
2023-09-30T06:00	16571	98	-59.5	-85.4	293	15
2023-09-30T06:00	16606	97	-59.5	-85.4	293	14
2023-09-30T06:00	16639	97	-59.7	-85.6	291	14
2023-09-30T06:00	16666	96	-59.9	-85.4	288	13
2023-09-30T06:00	16690	96	-60.0	-85.5	285	13
2023-09-30T06:00	16716	95	-60.0	-85.5	282	13
2023-09-30T06:00	16739	95	-59.7	-85.3	280	13
2023-09-30T06:00	16764	95	-59.7	-85.6	280	14
2023-09-30T06:00	16787	94	-59.6	-85.5	281	14
2023-09-30T06:00	16812	94	-59.6	-85.5	282	15
2023-09-30T06:00	16836	94	-59.5	-85.4	283	15
2023-09-30T06:00	16860	93	-59.5	-85.4	283	15
2023-09-30T06:00	16883	93	-59.7	-85.6	283	15
2023-09-30T06:00	16909	92	-59.7	-85.6	282	15
2023-09-30T06:00	16930	92	-59.5	-85.7	281	15
2023-09-30T06:00	16956	92	-59.4	-85.6	280	15
2023-09-30T06:00	16976	91	-59.5	-85.7	279	16
2023-09-30T06:00	17001	91	-59.6	-85.8	279	16
2023-09-30T06:00	17026	91	-59.7	-85.9	279	15
2023-09-30T06:00	17044	90	-59.7	-85.9	279	15
2023-09-30T06:00	17071	90	-59.6	-85.8	279	15
2023-09-30T06:00	17094	90	-59.5	-85.7	278	14
2023-09-30T06:00	17117	89	-59.4	-85.6	277	14
2023-09-30T06:00	17139	89	-59.4	-85.6	275	13
2023-09-30T06:00	17165	89	-59.5	-85.7	273	13
2023-09-30T06:00	17187	88	-59.6	-85.8	271	13
2023-09-30T06:00	17211	88	-59.7	-85.9	269	13
2023-09-30T06:00	17234	88	-59.8	-85.9	267	13
2023-09-30T06:00	17259	87	-59.5	-85.7	266	14
2023-09-30T06:00	17280	87	-59.5	-85.7	265	14
2023-09-30T06:00	17304	87	-59.6	-85.8	265	14
2023-09-30T06:00	17326	86	-59.7	-85.9	266	14
2023-09-30T06:00	17355	86	-59.8	-85.9	268	14
2023-09-30T06:00	17374	86	-59.8	-85.9	269	14
2023-09-30T06:00	17397	86	-59.8	-85.9	269	14
2023-09-30T06:00	17420	85	-59.6	-86.1	269	14
2023-09-30T06:00	17442	85	-59.3	-86.2	269	14
2023-09-30T06:00	17465	85	-58.5	-86.0	269	13
2023-09-30T06:00	17489	84	-58.0	-85.6	270	13
2023-09-30T06:00	17513	84	-57.7	-85.8	271	12
2023-09-30T06:00	17538	84	-57.8	-85.9	272	12
2023-09-30T06:00	17559	83	-57.8	-85.9	273	12
2023-09-30T06:00	17584	83	-57.7	-85.4	274	11
2023-09-30T06:00	17607	83	-57.9	-85.5	274	11
2023-09-30T06:00	17632	82	-58.1	-85.3	274	11
2023-09-30T06:00	17657	82	-58.3	-85.5	273	10
2023-09-30T06:00	17682	82	-58.4	-85.5	271	10
2023-09-30T06:00	17707	81	-58.5	-85.6	267	10
2023-09-30T06:00	17732	81	-58.3	-85.5	264	10
2023-09-30T06:00	17755	81	-58.3	-85.5	260	10
2023-09-30T06:00	17782	80	-58.4	-85.5	258	11
2023-09-30T06:00	17811	80	-58.5	-85.6	256	11
2023-09-30T06:00	17834	80	-58.7	-85.8	255	12
2023-09-30T06:00	17854	80	-58.9	-85.6	255	12
2023-09-30T06:00	17883	79	-59.1	-85.7	255	13
2023-09-30T06:00	17904	79	-59.2	-85.8	257	13
2023-09-30T06:00	17933	79	-59.4	-86.0	259	13
2023-09-30T06:00	17954	78	-59.5	-86.0	261	14
2023-09-30T06:00	17982	78	-59.5	-86.0	264	14
2023-09-30T06:00	18005	78	-59.6	-86.1	266	14
2023-09-30T06:00	18031	77	-59.7	-86.2	268	15
2023-09-30T06:00	18056	77	-59.9	-86.3	271	15
2023-09-30T06:00	18084	77	-59.9	-86.3	273	15
2023-09-30T06:00	18109	76	-59.9	-86.3	275	15
2023-09-30T06:00	18132	76	-59.7	-86.2	277	15
2023-09-30T06:00	18159	76	-59.5	-86.4	280	15
2023-09-30T06:00	18184	75	-59.6	-86.5	282	15
2023-09-30T06:00	18207	75	-59.6	-86.5	283	14
2023-09-30T06:00	18237	75	-59.6	-86.5	283	14
2023-09-30T06:00	18261	75	-59.4	-86.7	282	14
2023-09-30T06:00	18290	74	-59.3	-86.6	280	14
2023-09-30T06:00	18315	74	-59.1	-86.5	277	14
2023-09-30T06:00	18342	74	-58.5	-86.4	275	14
2023-09-30T06:00	18367	73	-58.5	-86.4	272	14
2023-09-30T06:00	18391	73	-58.5	-86.4	271	14
2023-09-30T06:00	18416	73	-58.3	-86.2	271	15
2023-09-30T06:00	18440	72	-58.1		271	15
2023-09-30T06:00	18464	72	-57.9		273	15
2023-09-30T06:00	18487	72	-57.8	-85.9	275	15
2023-09-30T06:00	18511	72	-57.7	-86.2	277	15
2023-09-30T06:00	18536	71	-57.7	-86.2	279	15
2023-09-30T06:00	18556	71	-57.6	-86.1	281	15
2023-09-30T06:00	18581	71	-57.4	-86.0	282	14
2023-09-30T06:00	18603	71	-56.9	-86.1	282	14
2023-09-30T06:00	18621	70	-56.7	-85.9	281	13
2023-09-30T06:00	18645	70	-56.5	-85.8	279	13
2023-09-30T06:00	18669	70	-56.2	-85.5	276	13
2023-09-30T06:00	18690	70	-56.3	-85.6	275	13
2023-09-30T06:00	18712	69	-56.4	-85.2	274	12
2023-09-30T06:00	18733	69	-56.4	-85.2	275	12
2023-09-30T06:00	18755	69	-56.5	-85.3	276	12
2023-09-30T06:00	18779	69	-56.4	-85.2	277	11
2023-09-30T06:00	18801	68	-56.4	-85.2	279	11
2023-09-30T06:00	18827	68	-56.5	-85.3	281	10
2023-09-30T06:00	18847	68	-56.5	-85.3	283	10
2023-09-30T06:00	18871	68	-56.7	-85.0	285	10
2023-09-30T06:00	18894	67	-56.8	-85.1	286	9
2023-09-30T06:00	18916	67	-56.8	-85.1	288	9
2023-09-30T06:00	18937	67	-56.8	-85.1	290	9
2023-09-30T06:00	18961	67	-56.7	-85.4	292	8
2023-09-30T06:00	18984	66	-56.8	-85.5	294	8
2023-09-30T06:00	19003	66	-56.9	-85.6	298	8
2023-09-30T06:00	19026	66	-56.7	-85.4	302	8
2023-09-30T06:00	19049	66	-56.4	-85.2	306	8
2023-09-30T06:00	19076	66	-56.0		310	8
2023-09-30T06:00	19095	65	-56.0		314	8
2023-09-30T06:00	19122	65	-56.2	-85.5	317	9
2023-09-30T06:00	19147	65	-56.2	-85.1	320	9
2023-09-30T06:00	19170	65	-56.2	-85.1	323	9
2023-09-30T06:00	19197	64	-56.3	-85.1	325	10
2023-09-30T06:00	19220	64	-56.4	-85.2	327	9
2023-09-30T06:00	19247	64	-56.4	-85.2	329	9
2023-09-30T06:00	19272	64	-56.4	-85.2	329	9
2023-09-30T06:00	19294	63	-56.6	-85.4	329	8
2023-09-30T06:00	19321	63	-56.7	-85.4	328	8
2023-09-30T06:00	19350	63	-56.7	-85.4	325	7
2023-09-30T06:00	19373	63	-56.8	-85.5	321	7
2023-09-30T06:00	19401	62	-56.7	-85.4	318	7
2023-09-30T06:00	19426	62	-56.6	-85.4	314	6
2023-09-30T06:00	19452	62	-56.7	-85.4	310	6
2023-09-30T06:00	19478	61	-56.8	-85.5	306	6
2023-09-30T06:00	19507	61	-56.7	-85.4	302	6
2023-09-30T06:00	19530	61	-56.7	-85.4	297	6
2023-09-30T06:00	19561	61	-56.9	-85.2	293	6
2023-09-30T06:00	19585	60	-57.1	-85.3	288	6
2023-09-30T06:00	19614	60	-57.3	-85.5	284	6
2023-09-30T06:00	19638	60	-57.5	-85.6	281	6
2023-09-30T06:00	19665	60	-57.8	-85.5	277	6
2023-09-30T06:00	19690	59	-58.0	-85.6	274	6
2023-09-30T06:00	19716	59	-58.2	-85.8	270	7
2023-09-30T06:00	19745	59	-58.5	-85.6	268	7
2023-09-30T06:00	19770	59	-58.6	-85.7	266	7
2023-09-30T06:00	19797	58	-58.9	-85.9	266	8
2023-09-30T06:00	19821	58	-59.1		267	8
2023-09-30T06:00	19846	58	-59.2	-86.2	269	8
2023-09-30T06:00	19871	58	-59.0	-86.4	272	9
2023-09-30T06:00	19892	58	-58.9	-86.3	276	9
2023-09-30T06:00	19920	57	-59.0	-86.4	280	9
2023-09-30T06:00	19948	57	-59.1	-86.5	283	10
2023-09-30T06:00	19969	57	-59.1	-86.5	286	10
2023-09-30T06:00	19994	57	-59.0	-86.4	289	10
2023-09-30T06:00	20016	56	-59.1	-86.5	292	10
2023-09-30T06:00	20041	56	-59.1	-86.5	294	10
2023-09-30T06:00	20063	56	-58.9	-86.7	297	10
2023-09-30T06:00	20088	56	-58.8	-86.6	299	9
2023-09-30T06:00	20118	56	-58.9	-86.7	301	8
2023-09-30T06:00	20136	55	-58.9	-86.7	302	8
2023-09-30T06:00	20166	55	-58.7	-86.5	304	7
2023-09-30T06:00	20191	55	-58.6	-86.5	306	7
2023-09-30T06:00	20216	55	-58.7	-86.5	307	6
2023-09-30T06:00	20240	54	-58.8	-86.6	307	6
2023-09-30T06:00	20269	54	-58.9	-86.7	305	6
2023-09-30T06:00	20286	54	-58.8	-86.6	303	5
2023-09-30T06:00	20312	54	-58.6	-86.5	301	5
2023-09-30T06:00	20337	54	-58.8	-86.2	302	5
2023-09-30T06:00	20362	53	-59.0	-86.4	305	4
2023-09-30T06:00	20392	53	-59.0	-86.4	311	4
2023-09-30T06:00	20416	53	-58.9	-86.7	317	4
2023-09-30T06:00	20438	53	-58.7	-86.5	320	3
2023-09-30T06:00	20465	53	-58.4	-86.3	319	3
2023-09-30T06:00	20492	52	-58.2	-86.2	313	3
2023-09-30T06:00	20516	52	-58.4	-86.3	305	3
2023-09-30T06:00	20543	52	-58.5	-86.4	297	3
2023-09-30T06:00	20569	52	-58.5	-86.4	291	4
2023-09-30T06:00	20596	51	-58.8	-86.2	287	4
2023-09-30T06:00	20621	51	-58.9	-86.3	284	4
2023-09-30T06:00	20650	51	-59.2	-86.2	282	5
2023-09-30T06:00	20678	51	-59.4	-86.3	282	5
2023-09-30T06:00	20703	51	-59.6	-86.5	281	6
2023-09-30T06:00	20730	50	-59.8	-86.3	282	6
2023-09-30T06:00	20759	50	-60.0	-86.4	283	7
2023-09-30T06:00	20786	50	-60.1	-86.8	286	7
2023-09-30T06:00	20817	50	-60.1	-86.8	289	7
2023-09-30T06:00	20842	50	-60.0	-86.8	293	8
2023-09-30T06:00	20865	49	-59.7	-86.9	295	9
2023-09-30T06:00	20897	49	-59.5	-86.8	297	9
2023-09-30T06:00	20920	49	-59.4	-87.1	299	9
2023-09-30T06:00	20951	49	-59.3	-87.0	300	9
2023-09-30T06:00	20977	48	-59.3	-87.0	301	9
2023-09-30T06:00	21005	48	-59.2	-86.9	302	9
2023-09-30T06:00	21027	48	-59.1	-86.8	302	8
2023-09-30T06:00	21047	48	-58.8	-86.6	301	8
2023-09-30T06:00	21077	48	-58.4	-86.3	298	8
2023-09-30T06:00	21104	47	-58.4	-86.3	295	8
2023-09-30T06:00	21126	47	-58.4	-86.3	292	8
2023-09-30T06:00	21153	47	-58.4	-86.3	289	8
2023-09-30T06:00	21180	47	-58.5	-86.4	288	8
2023-09-30T06:00	21202	47	-58.6	-86.5	288	9
2023-09-30T06:00	21230	47	-58.7	-86.5	288	9
2023-09-30T06:00	21251	46	-58.8	-86.6	290	9
2023-09-30T06:00	21276	46	-58.6	-86.5	292	8
2023-09-30T06:00	21304	46	-58.4	-86.3	294	8
2023-09-30T06:00	21325	46	-58.3	-86.2	295	8
2023-09-30T06:00	21348	46	-58.2	-86.2	295	7
2023-09-30T06:00	21372	45	-58.2	-86.2	293	6
2023-09-30T06:00	21405	45	-58.2	-86.2	291	6
2023-09-30T06:00	21425	45	-58.3	-86.7	287	5
2023-09-30T06:00	21447	45	-58.2	-86.6	280	5
2023-09-30T06:00	21476	45	-58.0	-86.4	272	5
2023-09-30T06:00	21506	45	-57.7	-86.2	265	5
2023-09-30T06:00	21527	44	-57.5	-86.1	259	5
2023-09-30T06:00	21555	44	-57.4	-86.0	256	6
2023-09-30T06:00	21579	44	-57.5	-86.1	255	6
2023-09-30T06:00	21606	44	-57.7	-86.2	256	6
2023-09-30T06:00	21637	44	-57.9		257	6
2023-09-30T06:00	21663	43	-58.1		259	7
2023-09-30T06:00	21688	43	-58.3	-86.2	260	7
2023-09-30T06:00	21719	43	-58.3	-86.2	260	8
2023-09-30T06:00	21745	43	-58.2	-86.2	260	8
2023-09-30T06:00	21774	43	-58.3	-86.2	261	9
2023-09-30T06:00	21806	42	-58.4	-86.3	263	9
2023-09-30T06:00	21836	42	-58.5	-86.4	267	8
2023-09-30T06:00	21867	42	-58.6	-86.5	271	8
2023-09-30T06:00	21899	42	-58.5	-86.4	275	8
2023-09-30T06:00	21926	42	-58.3	-86.2	279	7
2023-09-30T06:00	21959	41	-58.3	-86.2	281	7
2023-09-30T06:00	21982	41	-58.5	-86.4	281	6
2023-09-30T06:00	22016	41	-58.6	-86.5	277	6
2023-09-30T06:00	22044	41	-58.5	-86.4	271	5
2023-09-30T06:00	22075	41	-58.4	-86.3	263	5
2023-09-30T06:00	22096	41	-58.5	-86.4	255	5
2023-09-30T06:00	22126	40	-58.7	-86.5	251	5
2023-09-30T06:00	22150	40	-58.8	-86.6	250	6
2023-09-30T06:00	22180	40	-58.9	-86.7	252	6
2023-09-30T06:00	22208	40	-59.1	-86.8	255	7
2023-09-30T06:00	22228	40	-59.0	-86.8	258	7
2023-09-30T06:00	22253	40	-58.8	-86.6	260	8
2023-09-30T06:00	22281	39	-58.7	-86.5	263	8
2023-09-30T06:00	22304	39	-58.8	-86.6	265	9
2023-09-30T06:00	22327	39	-58.9	-86.7	269	9
2023-09-30T06:00	22352	39	-58.8	-86.6	272	10
2023-09-30T06:00	22376	39	-58.8	-86.6	276	10
2023-09-30T06:00	22398	39	-58.7	-86.5	280	11
2023-09-30T06:00	22425	38	-58.6	-86.9	283	12
2023-09-30T06:00	22452	38	-58.5	-86.8	287	12
2023-09-30T06:00	22475	38	-58.3	-86.7	290	12
2023-09-30T06:00	22499	38	-58.0	-86.9	293	12
2023-09-30T06:00	22522	38	-57.7	-86.7	296	12
2023-09-30T06:00	22544	38	-57.5	-86.5	298	11
2023-09-30T06:00	22572	38	-57.1	-86.7	299	10
2023-09-30T06:00	22596	37	-56.7	-86.4	299	9
2023-09-30T06:00	22624	37	-56.3	-86.1	297	8
2023-09-30T06:00	22649	37	-56.1	-86.0	293	8
2023-09-30T06:00	22681	37	-56.0	-85.9	288	8
2023-09-30T06:00	22705	37	-55.9	-85.8	286	8
2023-09-30T06:00	22729	37	-55.6	-85.6	285	7
2023-09-30T06:00	22753	37	-55.4	-85.4	287	7
2023-09-30T06:00	22782	36	-55.4	-85.4	291	7
2023-09-30T06:00	22807	36	-55.3	-85.4	295	7
2023-09-30T06:00	22831	36	-55.3	-85.4	297	7
2023-09-30T06:00	22864	36	-55.2	-85.3	298	7
2023-09-30T06:00	22892	36	-55.0	-85.1	298	7
2023-09-30T06:00	22918	36	-55.0	-85.1	296	7
2023-09-30T06:00	22947	35	-55.3	-84.9	293	7
2023-09-30T06:00	22972	35	-55.5	-85.0	290	8
2023-09-30T06:00	23001	35	-55.7	-85.2	288	8
2023-09-30T06:00	23025	35	-55.8	-85.2	287	8
2023-09-30T06:00	23057	35	-55.9	-85.3	287	9
2023-09-30T06:00	23086	35	-56.1	-85.5	288	9
2023-09-30T06:00	23116	35	-56.3	-85.6	289	10
2023-09-30T06:00	23143	34	-56.4	-85.7	290	10
2023-09-30T06:00	23175	34	-56.5	-85.8	292	11
2023-09-30T06:00	23202	34	-56.4	-85.7	293	11
2023-09-30T06:00	23227	34	-56.4	-85.7	296	11
2023-09-30T06:00	23255	34	-56.4	-85.7	299	11
2023-09-30T06:00	23278	34	-56.2	-86.0	304	11
2023-09-30T06:00	23307	34	-56.1	-86.0	310	10
2023-09-30T06:00	23334	33	-55.9	-85.8	316	10
2023-09-30T06:00	23354	33	-55.6	-86.1	323	9
2023-09-30T06:00	23387	33	-55.2	-85.8	329	9
2023-09-30T06:00	23415	33	-54.8	-85.5	333	8
2023-09-30T06:00	23439	33	-54.7	-85.5	336	8
2023-09-30T06:00	23471	33	-54.6	-85.4	337	8
2023-09-30T06:00	23502	33	-54.7	-85.5	335	7
2023-09-30T06:00	23521	32	-54.7	-85.5	332	7
2023-09-30T06:00	23549	32	-54.6	-85.4	329	6
2023-09-30T06:00	23576	32	-54.5	-85.3	326	6
2023-09-30T06:00	23609	32	-54.5	-85.3	324	6
2023-09-30T06:00	23635	32	-54.5	-85.3	323	6
2023-09-30T06:00	23660	32	-54.4	-85.2	323	6
2023-09-30T06:00	23693	32	-54.4	-84.7	322	6
2023-09-30T06:00	23720	31	-54.3	-84.6	321	5
2023-09-30T06:00	23745	31	-54.4	-84.7	321	5
2023-09-30T06:00	23763	31	-54.6	-84.8	321	5
2023-09-30T06:00	23802	31	-54.7	-84.9	323	5
2023-09-30T06:00	23833	31	-54.7	-84.9	327	5
2023-09-30T06:00	23853	31	-54.9	-85.1	332	5
2023-09-30T06:00	23890	31	-55.1	-85.2	338	5
2023-09-30T06:00	23918	30	-55.1	-85.2	344	6
2023-09-30T06:00	23942	30	-55.0	-85.1	349	6
2023-09-30T06:00	23969	30	-54.8	-85.0	354	6
2023-09-30T06:00	24003	30	-54.9	-85.1	358	6
2023-09-30T06:00	24040	30	-55.0	-85.1	3	6
2023-09-30T06:00	24070	30	-55.1	-85.2	8	6
2023-09-30T06:00	24095	30	-55.1	-85.2	13	6
2023-09-30T06:00	24118	29	-55.0	-85.1	17	6
2023-09-30T06:00	24157	29	-54.9	-85.1	20	6
2023-09-30T06:00	24182	29	-55.1	-85.2	22	5
2023-09-30T06:00	24214	29	-55.3	-84.9	23	4
2023-09-30T06:00	24239	29	-55.5	-85.0	23	4
2023-09-30T06:00	24274	29	-55.7	-85.2	20	3
2023-09-30T06:00	24303	29	-55.8	-85.2	14	2
2023-09-30T06:00	24329	29	-56.1	-85.5	0	2
2023-09-30T06:00	24360	28	-56.2	-85.5	335	2
2023-09-30T06:00	24394	28	-56.3	-85.6	307	2
2023-09-30T06:00	24411	28	-56.5	-85.8	288	2
2023-09-30T06:00	24449	28	-56.6	-85.8	277	3
2023-09-30T06:00	24474	28	-56.7	-85.9	272	4
2023-09-30T06:00	24507	28	-56.6	-85.8	269	5
2023-09-30T06:00	24534	28	-56.6	-85.8	268	6
2023-09-30T06:00	24560	28	-56.6	-85.8	269	7
2023-09-30T06:00	24587	27	-56.6	-85.8	271	7
2023-09-30T06:00	24622	27	-56.5	-86.3	274	8
2023-09-30T06:00	24650	27	-56.2	-86.0	278	8
2023-09-30T06:00	24677	27	-55.9	-85.8	282	8
2023-09-30T06:00	24703	27	-56.0	-85.9	286	9
2023-09-30T06:00	24737	27	-56.1	-86.0	290	9
2023-09-30T06:00	24756	27	-56.1	-86.0	294	9
2023-09-30T06:00	24788	27	-55.9	-85.8	297	9
2023-09-30T06:00	24811	26	-55.8	-85.2	301	9
2023-09-30T06:00	24841	26	-56.0		304	9
2023-09-30T06:00	24877	26	-56.1	-85.5	307	9
2023-09-30T06:00	24902	26	-56.4	-85.7	310	9
2023-09-30T06:00	24924	26	-56.5	-85.8	312	8
2023-09-30T06:00	24952	26	-56.6	-85.8	312	8
2023-09-30T06:00	24985	26	-56.5	-85.8	310	8
2023-09-30T06:00	25020	26	-56.3	-85.6	307	7
2023-09-30T06:00	25052	26	-56.3	-85.6	305	6
2023-09-30T06:00	25075	25	-56.3	-85.6	303	6
2023-09-30T06:00	25091	25	-56.4	-85.7	303	6
2023-09-30T06:00	25130	25	-56.5	-85.8	306	5
2023-09-30T06:00	25153	25	-56.7	-85.9	309	5
2023-09-30T06:00	25183	25	-56.7	-85.9	311	5
2023-09-30T06:00	25213	25	-56.8	-86.0	311	5
2023-09-30T06:00	25239	25	-56.8	-86.0	309	4
2023-09-30T06:00	25264	25	-56.8	-86.0	305	4
2023-09-30T06:00	25296	25	-56.7	-85.9	299	4
2023-09-30T06:00	25315	24	-56.6	-85.8	294	4
2023-09-30T06:00	25348	24	-56.6	-85.8	290	5
2023-09-30T06:00	25373	24	-56.5	-86.3	286	5
2023-09-30T06:00	25399	24	-56.4	-86.2	284	5
2023-09-30T06:00	25421	24	-56.4	-86.2	283	4
2023-09-30T06:00	25451	24	-56.3	-86.1	281	4
2023-09-30T06:00	25475	24	-56.3	-86.1	280	4
2023-09-30T06:00	25497	24	-56.4	-86.2	276	3
2023-09-30T06:00	25532	24	-56.4	-86.2	272	3
2023-09-30T06:00	25552	24	-56.4	-86.2	266	3
2023-09-30T06:00	25568	23	-56.2	-86.0	260	3
2023-09-30T06:00	25605	23	-56.0	-85.9	252	3
2023-09-30T06:00	25637	23	-55.9	-85.8	238	2
2023-09-30T06:00	25652	23	-55.8	-86.3	213	2
2023-09-30T06:00	25687	23	-55.7	-86.2	186	2
2023-09-30T06:00	25713	23	-55.4	-86.0	171	3
2023-09-30T06:00	25739	23	-55.1	-85.8	167	4
2023-09-30T06:00	25767	23	-55.0	-85.7	170	4
2023-09-30T06:00	25795	23	-54.8	-85.5	180	4
2023-09-30T06:00	25818	23	-54.6	-85.4	195	4
2023-09-30T06:00	25852	22	-54.8	-85.5	211	4
2023-09-30T06:00	25882	22	-54.8	-85.5	224	4
2023-09-30T06:00	25909	22	-54.8	-85.5	232	5
2023-09-30T06:00	25938	22	-54.9	-85.6	237	6
2023-09-30T06:00	25967	22	-55.0	-85.7	241	6
2023-09-30T06:00	25993	22	-54.9	-85.6	245	7
2023-09-30T06:00	26022	22	-54.8	-85.5	249	7
2023-09-30T06:00	26049	22	-54.6	-85.4	253	8
2023-09-30T06:00	26074	22	-54.4	-85.2	257	8
2023-09-30T06:00	26114	22	-54.2	-85.7	262	9
2023-09-30T06:00	26139	21	-53.9	-85.5	267	9
2023-09-30T06:00	26170	21	-53.8	-85.4	272	10
2023-09-30T06:00	26202	21	-53.7	-85.3	277	10
2023-09-30T06:00	26228	21	-53.7	-85.3	281	11
2023-09-30T06:00	26254	21	-53.6	-85.3	285	11
2023-09-30T06:00	26283	21	-53.3	-85.0	287	11
2023-09-30T06:00	26311	21	-53.3	-85.0	289	11
2023-09-30T06:00	26333	21	-53.4	-85.1	290	11
2023-09-30T06:00	26375	21	-53.3	-85.0	291	10
2023-09-30T06:00	26406	21	-53.2	-85.0	291	9
2023-09-30T06:00	26426	21	-53.2	-85.0	292	8
2023-09-30T06:00	26464	20	-53.0	-84.8	293	8
2023-09-30T06:00	26495	20	-52.8	-84.7	295	7
2023-09-30T06:00	26529	20	-52.4	-84.4	296	7
2023-09-30T06:00	26563	20	-52.4	-84.4	298	7
2023-09-30T06:00	26579	20	-52.7	-84.6	299	7
2023-09-30T06:00	26618	20	-52.9	-84.1	300	7
2023-09-30T06:00	26646	20	-53.1	-84.3	300	6
2023-09-30T06:00	26670	20	-53.2	-84.4	300	6
2023-09-30T06:00	26707	20	-53.4	-84.5	300	6
2023-09-30T06:00	26734	20	-53.6	-84.6	299	5
2023-09-30T06:00	26773	19	-53.8	-84.8	296	5
2023-09-30T06:00	26794	19	-53.9	-84.9	291	5
2023-09-30T06:00	26828	19	-53.9	-84.9	285	5
2023-09-30T06:00	26851	19	-53.9	-84.9	278	5
2023-09-30T06:00	26891	19	-54.0	-84.9	274	5
2023-09-30T06:00	26904	19	-54.2	-85.1	270	6
2023-09-30T06:00	26946	19	-54.1	-85.0	268	7
2023-09-30T06:00	26980	19	-54.1	-85.0	267	7
2023-09-30T06:00	27009	19	-54.0	-84.9	267	8
2023-09-30T06:00	27039	19	-53.9	-84.9	268	8
2023-09-30T06:00	27068	19	-54.0	-84.9	270	9
2023-09-30T06:00	27102	19	-54.0	-84.9	273	9
2023-09-30T06:00	27122	18	-53.8	-85.4	276	10
2023-09-30T06:00	27171	18	-53.5	-85.2	279	11
2023-09-30T06:00	27198	18	-53.4	-85.1	280	11
2023-09-30T06:00	27227	18	-53.4	-85.1	281	11
2023-09-30T06:00	27243	18	-53.5	-85.2	281	10
2023-09-30T06:00	27277	18	-53.5	-85.2	280	10
2023-09-30T06:00	27316	18	-53.5	-85.2	277	9
2023-09-30T06:00	27341	18	-53.4	-85.1	272	8
2023-09-30T06:00	27376	18	-53.3	-85.0	267	8
2023-09-30T06:00	27398	18	-53.3	-85.0	263	8
2023-09-30T06:00	27426	18	-53.4	-85.1	260	8
2023-09-30T06:00	27467	18	-53.5	-85.2	260	9
2023-09-30T06:00	27488	17	-53.4	-84.5	261	9
2023-09-30T06:00	27519	17	-53.4	-84.5	264	9
2023-09-30T06:00	27548	17	-53.4	-84.5	268	9
2023-09-30T06:00	27577	17	-53.4	-84.5	273	9
2023-09-30T06:00	27612	17	-53.4	-84.5	278	9
2023-09-30T06:00	27632	17	-53.6	-84.6	285	9
2023-09-30T06:00	27666	17	-53.7	-84.7	290	10
2023-09-30T06:00	27695	17	-53.7	-84.7	295	10
2023-09-30T06:00	27729	17	-53.8	-84.8	300	10
2023-09-30T06:00	27767	17	-53.9	-84.9	304	11
2023-09-30T06:00	27783	17	-53.8	-84.8	308	11
2023-09-30T06:00	27807	17	-53.8	-84.8	310	11
2023-09-30T06:00	27850	16	-53.8	-85.4	312	11
2023-09-30T06:00	27877	16	-53.6	-85.3	314	10
2023-09-30T06:00	27910	16	-53.4	-85.1	314	10
2023-09-30T06:00	27936	16	-53.4	-85.1	313	9
2023-09-30T06:00	27979	16	-53.5	-85.2	312	8
2023-09-30T06:00	28005	16	-53.5	-85.2	312	8
2023-09-30T06:00	28042	16	-53.4	-85.1	312	8
2023-09-30T06:00	28058	16	-53.4	-85.1	312	7
2023-09-30T06:00	28092	16	-53.5	-85.2	312	7
2023-09-30T06:00	28127	16	-53.4	-85.1	311	7
2023-09-30T06:00	28155	16	-53.3	-85.0	308	7
2023-09-30T06:00	28181	16	-53.3	-85.0	304	7
2023-09-30T06:00	28224	16	-53.4	-85.1	300	7
2023-09-30T06:00	28252	15	-53.4	-85.1	295	7
2023-09-30T06:00	28281	15	-53.2	-85.0	290	7
2023-09-30T06:00	28321	15	-53.1	-84.9	285	8
2023-09-30T06:00	28348	15	-53.2	-85.0	279	8
2023-09-30T06:00	28378	15	-53.4	-85.1	274	8
2023-09-30T06:00	28412	15	-53.5	-85.2	269	8
2023-09-30T06:00	28437	15	-53.4	-85.1	266	9
2023-09-30T06:00	28465	15	-53.3	-85.0	264	9
2023-09-30T06:00	28511	15	-53.2	-85.0	263	9
2023-09-30T06:00	28540	15	-53.1	-84.9	263	9
2023-09-30T06:00	28571	15	-53.1	-84.9	265	9
2023-09-30T06:00	28596	15	-53.1	-84.9	268	9
2023-09-30T06:00	28631	15	-53.1	-84.9	272	9
2023-09-30T06:00	28663	15	-53.2	-85.0	276	9
2023-09-30T06:00	28698	14	-53.4	-85.1	282	9
2023-09-30T06:00	28724	14	-53.5	-84.6	287	9
2023-09-30T06:00	28762	14	-53.5	-84.6	293	9
2023-09-30T06:00	28785	14	-53.6	-84.6	297	10
2023-09-30T06:00	28814	14	-53.6	-84.6	301	11
2023-09-30T06:00	28847	14	-53.7	-84.7	304	11
2023-09-30T06:00	28878	14	-53.8	-84.8	306	12
2023-09-30T06:00	28913	14	-53.8	-84.8	308	13
2023-09-30T06:00	28944	14	-54.0	-84.9	310	14
2023-09-30T06:00	28965	14	-54.0	-84.9	312	14
2023-09-30T06:00	29007	14	-54.1	-85.0	313	15
2023-09-30T06:00	29039	14	-54.1	-85.0	314	15
2023-09-30T06:00	29058	14	-54.0	-84.9	314	15
2023-09-30T06:00	29092	14	-53.8	-85.4	314	14
2023-09-30T06:00	29118	14	-53.7	-85.3	314	14
2023-09-30T06:00	29153	13	-53.6	-85.3	315	13
2023-09-30T06:00	29189	13	-53.6	-85.3	315	13
2023-09-30T06:00	29219	13	-53.7	-85.3	316	13
2023-09-30T06:00	29247	13	-53.7	-85.3	316	13
2023-09-30T06:00	29285	13	-53.6	-85.3	316	14
2023-09-30T06:00	29311	13	-53.7	-85.3	316	14
2023-09-30T06:00	29342	13	-53.7	-85.3	316	15
2023-09-30T06:00	29372	13	-53.7	-85.3	317	15
2023-09-30T06:00	29411	13	-53.7	-85.3	318	16
2023-09-30T06:00	29434	13	-53.7	-85.3	319	16
2023-09-30T06:00	29470	13	-53.7	-84.7	320	16
2023-09-30T06:00	29492	13	-53.8	-84.8	320	16
2023-09-30T06:00	29532	13	-54.0	-84.9	320	16
2023-09-30T06:00	29566	13	-54.2	-85.1	320	16
2023-09-30T06:00	29590	13	-54.3	-85.2	319	16
2023-09-30T06:00	29641	12	-54.2	-85.1	319	16
2023-09-30T06:00	29662	12	-54.3	-85.2	318	16
2023-09-30T06:00	29692	12	-54.4	-85.2	317	16
2023-09-30T06:00	29729	12	-54.5	-85.3	315	16
2023-09-30T06:00	29761	12	-54.6	-85.4	314	15
2023-09-30T06:00	29795	12	-54.3	-85.8	312	15
2023-09-30T06:00	29825	12	-54.1	-85.6	310	14
2023-09-30T06:00	29841	12	-53.8	-85.4	309	14
2023-09-30T06:00	29884	12	-53.7	-85.3	308	13
2023-09-30T06:00	29917	12	-53.7	-85.3	308	13
2023-09-30T06:00	29944	12	-53.9	-85.5	309	13
2023-09-30T06:00	29981	12	-54.0	-85.5	310	13
2023-09-30T06:00	30011	12	-54.1	-85.6	310	12
2023-09-30T06:00	30037	12	-54.1	-85.6	310	11
2023-09-30T06:00	30071	12	-54.0	-85.5	311	10
2023-09-30T06:00	30101	12	-54.0	-85.5	311	9
2023-09-30T06:00	30139	12	-53.8	-85.4	311	9
2023-09-30T06:00	30160	12	-53.6	-85.3	312	8
2023-09-30T06:00	30206	11	-53.5	-85.2	313	7
2023-09-30T06:00	30226	11	-53.6	-85.3	313	7
2023-09-30T06:00	30263	11	-53.7	-85.3	313	8
2023-09-30T06:00	30288	11	-53.6	-85.3	312	8
2023-09-30T06:00	30324	11	-53.2	-85.0	310	9
2023-09-30T06:00	30344	11	-52.9	-84.7	309	10
2023-09-30T06:00	30392	11	-52.9	-85.4	308	11
2023-09-30T06:00	30421	11	-53.0	-85.5	306	12
2023-09-30T06:00	30460	11	-53.0	-85.5	305	13
2023-09-30T06:00	30486	11	-53.0	-85.5	303	13
2023-09-30T06:00	30528	11	-52.9	-85.4	301	13
2023-09-30T06:00	30544	11	-52.8	-85.3	298	14
2023-09-30T06:00	30574	11	-52.6	-85.2	296	14
2023-09-30T06:00	30614	11	-52.3	-85.0	293	14
2023-09-30T06:00	30641	11	-51.9	-84.7	290	14
2023-09-30T06:00	30671	11	-51.7	-85.3	287	14
2023-09-30T06:00	30712	11	-51.5	-85.2	285	14
2023-09-30T06:00	30735	11	-51.2	-85.0	284	14
2023-09-30T06:00	30783	10	-50.6	-84.5	283	13
2023-09-30T06:00	30792	10	-50.1	-84.2	283	13
2023-09-30T06:00	30820	10	-49.7	-83.9	285	12
2023-09-30T06:00	30859	10	-49.7	-83.9	287	11
2023-09-30T06:00	30869	10	-49.9	-84.0	290	11
2023-09-30T06:00	30908	10	-50.0	-84.1	292	11
2023-09-30T06:00	30955	10	-50.1	-84.2	293	10
2023-09-30T06:00	30981	10	-50.2	-83.5	293	10
2023-09-30T06:00	30999	10	-50.1	-83.4	292	9
2023-09-30T06:00	31051	10	-50.1	-83.4	290	9
2023-09-30T06:00	31078	10	-50.1	-83.4	288	9
2023-09-30T06:00	31113	10	-50.3	-83.5	286	9
2023-09-30T06:00	31129	10	-50.3	-83.5	283	9
2023-09-30T06:00	31156	10	-50.2	-83.5	281	9
2023-09-30T06:00	31204	10	-50.1	-84.2	278	9
2023-09-30T06:00	31235	10	-50.0	-84.1	275	10
2023-09-30T06:00	31257	10	-49.8	-84.0	273	10
2023-09-30T06:00	31278	10	-49.7	-83.9	270	11
2023-09-30T06:00	31299	10	-49.6	-83.8	268	11
2023-09-30T06:00	31341	10	-49.5	-83.7	265	11
2023-09-30T06:00	31353	10	-49.4	-83.7	263	11
2023-09-30T06:00	31389	10	-49.2	-83.5	262	11
2023-09-30T06:00	31436	9	-49.3	-83.6	261	10
2023-09-30T06:00	31459	9	-49.4	-83.7	261	10
2023-09-30T06:00	31477	9	-49.6	-83.8	263	10
2023-09-30T06:00	31520	9	-49.8	-83.2	265	10
2023-09-30T06:00	31557	9	-49.9	-83.2	266	11
2023-09-30T06:00	31573	9	-50.0	-83.3	267	11
2023-09-30T06:00	31609	9	-50.0	-83.3	268	12
2023-09-30T06:00	31639	9	-50.0	-84.1	267	13
2023-09-30T06:00	31671	9	-49.9	-84.0	265	13
2023-09-30T06:00	31690	9	-49.6	-83.8	264	14
2023-09-30T06:00	31734	9	-49.2	-83.5	262	14
2023-09-30T06:00	31776	9	-49.0	-83.4	260	15
2023-09-30T06:00	31819	9	-48.9	-83.3	259	16
2023-09-30T06:00	31832	9	-49.0	-83.4	259	16
2023-09-30T06:00	31867	9	-49.1	-83.4	260	16
2023-09-30T06:00	31902	9	-49.4	-83.7	261	17
2023-09-30T06:00	31937	9	-49.5	-83.7	262	17
2023-09-30T06:00	31971	9	-49.5	-83.7	263	18
2023-09-30T06:00	31989	9	-49.5	-83.7	264	18
2023-09-30T06:00	32021	9	-49.7	-83.9	266	19
2023-09-30T06:00	32048	9	-49.8	-84.0	268	20
2023-09-30T06:00	32080	9	-49.6	-83.8	271	21
2023-09-30T06:00	32121	9	-49.1	-83.4	273	22
2023-09-30T06:00	32153	8	-48.5	-83.9	274	23
2023-09-30T06:00	32188	8	-48.0	-83.6	275	22
2023-09-30T06:00	32219	8	-47.8	-83.4	276	22
2023-09-30T06:00	32228	8	-47.9	-83.5	277	22
2023-09-30T06:00	32280	8	-48.1	-83.6	278	21
2023-09-30T06:00	32316	8	-48.3	-82.9	280	21
2023-09-30T06:00	32317	8	-48.5	-83.0	282	20
2023-09-30T06:00	32367	8	-48.7	-83.2	285	20
2023-09-30T06:00	32404	8	-48.7	-83.2	288	20
2023-09-30T06:00	32422	8	-48.3	-82.9	291	20
2023-09-30T06:00	32462	8	-48.1	-83.6	294	20
2023-09-30T06:00	32482	8	-47.9	-83.5	296	19
2023-09-30T06:00	32521	8	-47.7	-83.4	296	19
2023-09-30T06:00	32537	8	-47.7	-83.4	296	18
2023-09-30T06:00	32597	8	-47.7	-83.4	294	18
2023-09-30T06:00	32617	8	-47.6	-83.3	291	17
2023-09-30T06:00	32655	8	-47.5	-83.2	287	17
2023-09-30T06:00	32684	8	-47.6	-83.3	283	16
2023-09-30T06:00	32764	8	-47.4	-83.1	276	17
2023-09-30T06:00	32800	8	-47.3	-83.1	271	18
2023-09-30T06:00	32828	8	-47.2	-83.0	270	18
2023-09-30T06:00	32841	8	-47.1	-82.9	269	18
2023-09-30T06:00	32873	8	-47.0	-82.9	269	18
2023-09-30T06:00	32918	8	-46.6	-82.6	270	18
2023-09-30T06:00	32952	8	-46.2	-83.4	272	18
2023-09-30T06:00	32955	8	-46.0	-83.2	273	18
2023-09-30T06:00	33031	7	-46.1	-83.3	275	17
2023-09-30T06:00	33057	7	-46.3	-82.4	275	17
2023-09-30T06:00	33089	7	-46.5	-82.5	276	16
2023-09-30T06:00	33106	7	-46.6	-82.6	276	16
2023-09-30T06:00	33146	7	-46.6	-82.6	277	15
2023-09-30T06:00	33152	7	-46.4	-82.4	278	15
2023-09-30T06:00	33167	7	-46.3	-82.4	279	14
2023-09-30T06:00	33215	7	-46.4	-82.4	280	14
2023-09-30T06:00	33242	7	-46.5	-82.5	281	14
2023-09-30T06:00	33279	7	-46.7	-82.6	282	13
2023-09-30T06:00	33313	7	-46.9	-82.8	282	13
2023-09-30T06:00	33330	7	-47.1	-82.9	282	13
2023-09-30T06:00	33379	7	-47.1	-82.9	281	13
2023-09-30T06:00	33409	7	-47.2	-83.0	279	13
2023-09-30T06:00	33434	7	-47.3	-83.1	277	13
2023-09-30T06:00	33465	7	-47.3	-83.1	275	13
2023-09-30T12:00	-999					
2023-09-30T12:00	126	1010	17.5	11.1	303	3
2023-09-30T12:00	158	1007	16.6	10.7	299	3
2023-09-30T12:00	188	1003	16.2	10.4	299	4
2023-09-30T12:00	218	1000	15.6	10.3	300	4
2023-09-30T12:00	246	996	14.9	10.2	302	4
2023-09-30T12:00	275	993	14.5	9.9	304	4
2023-09-30T12:00	308	989	14.4	10.0	305	4
2023-09-30T12:00	345	985	14.0	9.9	304	4
2023-09-30T12:00	379	981	13.5	9.8	302	4
2023-09-30T12:00	411	977	13.2	9.8	298	4
2023-09-30T12:00	441	973	12.8	9.5	294	4
2023-09-30T12:00	473	970	12.6	9.5	291	5
2023-09-30T12:00	502	966	12.4	9.6	289	5
2023-09-30T12:00	538	963	12.2	9.7	289	6
2023-09-30T12:00	556	960	12.0	9.7	290	6
2023-09-30T12:00	582	957	11.5	9.3	291	6
2023-09-30T12:00	606	955	11.3	9.3	292	6
2023-09-30T12:00	629	952	11.1	9.3	293	6
2023-09-30T12:00	657	949	10.8	9.2	294	6
2023-09-30T12:00	681	946	10.6	9.2	294	6
2023-09-30T12:00	707	943	10.3	9.1	295	6
2023-09-30T12:00	737	940	10.1	9.0	297	6
2023-09-30T12:00	767	936	9.7	9.0	299	6
2023-09-30T12:00	798	933	9.5	8.9	302	6
2023-09-30T12:00	827	930	9.2	8.9	303	6
2023-09-30T12:00	850	927	9.0	9.0	303	6
2023-09-30T12:00	881	924	8.8	8.8	300	6
2023-09-30T12:00	907	921	8.7	8.7	297	6
2023-09-30T12:00	931	918	8.3	8.3	294	7
2023-09-30T12:00	956	915	8.3	8.3	292	7
2023-09-30T12:00	978	913	7.6	7.0	291	7
2023-09-30T12:00	995	911	7.4	6.5	292	7
2023-09-30T12:00	1020	908	7.7	4.6	293	7
2023-09-30T12:00	1039	906	7.8	6.1	293	7
2023-09-30T12:00	1056	904	7.7	4.8	294	7
2023-09-30T12:00	1075	902	7.4	5.8	294	7
2023-09-30T12:00	1098	900	6.9	6.8	295	8
2023-09-30T12:00	1119	898	6.8	6.8	296	8
2023-09-30T12:00	1135	895	6.6	6.6	297	9
2023-09-30T12:00	1157	893	6.7	6.7	297	9
2023-09-30T12:00	1176	891	6.8	6.8	296	9
2023-09-30T12:00	1187	890	6.4	6.3	296	9
2023-09-30T12:00	1203	888	6.6	6.6	296	9
2023-09-30T12:00	1217	887	5.5	4.2	296	9
2023-09-30T12:00	1233	885	5.7	5.5	298	9
2023-09-30T12:00	1253	883	5.3	4.3	299	9
2023-09-30T12:00	1269	881	5.2	4.0	299	9
2023-09-30T12:00	1287	879	5.3	5.2	299	9
2023-09-30T12:00	1311	877	5.1	1.8	300	9
2023-09-30T12:00	1329	875	5.6	2.3	300	9
2023-09-30T12:00	1347	873	5.9	2.4	301	10
2023-09-30T12:00	1370	870	5.8	2.8	300	10
2023-09-30T12:00	1390	868	5.7	2.9	300	10
2023-09-30T12:00	1411	866	5.5	2.4	298	10
2023-09-30T12:00	1428	864	5.4	2.3	297	10
2023-09-30T12:00	1445	862	5.3	2.3	295	10
2023-09-30T12:00	1468	860	5.1	2.2	294	11
2023-09-30T12:00	1490	858	5.0	1.8	294	11
2023-09-30T12:00	1511	855	4.9	1.7	295	11
2023-09-30T12:00	1533	853	4.7	0.7	296	11
2023-09-30T12:00	1556	851	4.7	-1.4	298	10
2023-09-30T12:00	1576	849	4.5	-1.4	300	10
2023-09-30T12:00	1596	847	4.3	-1.6	302	10
2023-09-30T12:00	1616	844	4.1	-1.6	305	10
2023-09-30T12:00	1637	842	3.9	-1.8	306	10
2023-09-30T12:00	1663	840	3.7	-2.0	307	10
2023-09-30T12:00	1687	837	3.5	-0.9	307	10
2023-09-30T12:00	1717	834	3.3	-1.3	306	10
2023-09-30T12:00	1743	831	3.2	-3.2	306	10
2023-09-30T12:00	1767	829	3.2	-4.0	306	9
2023-09-30T12:00	1795	826	3.2	-2.7	306	9
2023-09-30T12:00	1820	824	3.5	-4.6	305	9
2023-09-30T12:00	1845	821	3.6	-6.1	303	9
2023-09-30T12:00	1871	818	3.4	-6.4	300	10
2023-09-30T12:00	1899	816	3.3	-7.6	298	10
2023-09-30T12:00	1923	813	3.8	-11.9	296	11
2023-09-30T12:00	1946	811	3.9	-12.7	295	11
2023-09-30T12:00	1967	809	3.9	-13.5	296	11
2023-09-30T12:00	1994	806	3.7	-13.4	297	11
2023-09-30T12:00	2017	804	3.7	-13.2	299	11
2023-09-30T12:00	2039	802	4.0	-15.3	300	11
2023-09-30T12:00	2057	800	4.1	-16.5	301	11
2023-09-30T12:00	2075	798	4.1	-17.0	302	11
2023-09-30T12:00	2096	796	4.0	-17.2	301	11
2023-09-30T12:00	2119	794	4.0	-18.9	300	11
2023-09-30T12:00	2145	791	4.0	-19.1	299	11
2023-09-30T12:00	2167	789	3.9	-19.7	298	11
2023-09-30T12:00	2191	787	3.8	-19.9	295	12
2023-09-30T12:00	2211	785	3.7	-19.9	293	12
2023-09-30T12:00	2232	783	3.6	-19.7	290	12
2023-09-30T12:00	2257	781	3.5	-19.3	287	12
2023-09-30T12:00	2274	779	3.4	-19.3	286	12
2023-09-30T12:00	2294	777	3.4	-19.4	286	12
2023-09-30T12:00	2317	775	3.4	-19.6	287	11
2023-09-30T12:00	2341	772	3.4	-19.4	289	11
2023-09-30T12:00	2366	770	3.2	-19.4	290	11
2023-09-30T12:00	2390	767	3.2	-19.8	290	11
2023-09-30T12:00	2422	765	3.6	-18.9	290	11
2023-09-30T12:00	2451	762	3.8	-16.9	289	11
2023-09-30T12:00	2479	759	3.6	-16.1	288	11
2023-09-30T12:00	2504	757	3.4	-15.5	287	11
2023-09-30T12:00	2527	755	3.2	-15.3	286	11
2023-09-30T12:00	2548	753	3.1	-15.3	287	11
2023-09-30T12:00	2575	750	2.9	-15.6	288	11
2023-09-30T12:00	2598	748	2.7	-15.7	291	11
2023-09-30T12:00	2620	746	2.6	-15.6	293	12
2023-09-30T12:00	2646	744	2.4	-15.9	294	12
2023-09-30T12:00	2672	741	2.2	-16.5	294	12
2023-09-30T12:00	2696	739	2.1	-16.8	294	13
2023-09-30T12:00	2722	737	1.9	-17.0	294	13
2023-09-30T12:00	2752	734	1.8	-17.0	295	13
2023-09-30T12:00	2778	732	1.6	-17.4	296	13
2023-09-30T12:00	2805	729	1.5	-17.9	297	13
2023-09-30T12:00	2830	727	1.4	-18.5	298	13
2023-09-30T12:00	2857	725	1.2	-19.5	299	13
2023-09-30T12:00	2881	722	1.1	-19.6	300	13
2023-09-30T12:00	2908	720	0.9	-19.2	300	13
2023-09-30T12:00	2936	717	0.8	-19.4	301	14
2023-09-30T12:00	2970	714	0.8	-24.0	300	14
2023-09-30T12:00	3001	712	1.0	-23.8	300	14
2023-09-30T12:00	3028	709	1.0	-23.6	300	14
2023-09-30T12:00	3051	707	0.9	-22.0	300	14
2023-09-30T12:00	3076	705	0.8	-21.3	299	14
2023-09-30T12:00	3097	703	0.7	-21.1	298	13
2023-09-30T12:00	3121	701	0.5	-21.0	296	13
2023-09-30T12:00	3142	699	0.3	-21.0	294	13
2023-09-30T12:00	3161	697	0.2	-21.0	293	13
2023-09-30T12:00	3186	695	0.0	-21.0	293	12
2023-09-30T12:00	3212	693	-0.2	-20.9	293	12
2023-09-30T12:00	3231	691	-0.3	-20.7	295	13
2023-09-30T12:00	3252	689	-0.5	-20.7	299	13
2023-09-30T12:00	3282	687	-0.7	-20.7	302	13
2023-09-30T12:00	3302	685	-0.8	-20.4	305	14
2023-09-30T12:00	3324	683	-1.0	-20.0	306	15
2023-09-30T12:00	3349	681	-1.2	-19.4	305	15
2023-09-30T12:00	3366	680	-1.3	-19.2	302	16
2023-09-30T12:00	3384	678	-1.5	-18.8	299	16
2023-09-30T12:00	3413	676	-1.7	-18.2	295	16
2023-09-30T12:00	3436	674	-1.8	-18.1	293	16
2023-09-30T12:00	3456	672	-1.9	-17.8	291	16
2023-09-30T12:00	3478	670	-2.1	-17.5	291	15
2023-09-30T12:00	3503	668	-2.3	-17.4	290	16
2023-09-30T12:00	3522	667	-2.4	-17.4	290	16
2023-09-30T12:00	3545	665	-2.5	-17.3	290	16
2023-09-30T12:00	3572	663	-2.7	-17.1	290	16
2023-09-30T12:00	3591	661	-2.8	-17.4	291	16
2023-09-30T12:00	3611	659	-2.9	-17.6	292	16
2023-09-30T12:00	3638	657	-3.0	-18.5	293	16
2023-09-30T12:00	3662	655	-3.1	-18.6	296	16
2023-09-30T12:00	3687	653	-3.2	-19.1	298	16
2023-09-30T12:00	3708	651	-3.2	-19.1	300	16
2023-09-30T12:00	3731	649	-3.3	-19.8	301	16
2023-09-30T12:00	3748	648	-3.5	-20.0	301	15
2023-09-30T12:00	3769	646	-3.6	-20.3	300	15
2023-09-30T12:00	3796	644	-3.7	-20.6	298	15
2023-09-30T12:00	3816	642	-3.9	-20.7	296	15
2023-09-30T12:00	3839	640	-4.0	-20.7	295	15
2023-09-30T12:00	3862	639	-4.1	-20.2	294	15
2023-09-30T12:00	3885	637	-4.2	-20.3	293	15
2023-09-30T12:00	3912	635	-4.2	-20.6	293	15
2023-09-30T12:00	3936	633	-4.2	-21.2	294	15
2023-09-30T12:00	3959	631	-4.3	-21.1	295	15
2023-09-30T12:00	3986	629	-4.4	-20.9	296	15
2023-09-30T12:00	4012	626	-4.6	-21.1	297	15
2023-09-30T12:00	4042	624	-4.8	-20.9	298	15
2023-09-30T12:00	4069	622	-4.9	-21.5	298	15
2023-09-30T12:00	4088	620	-5.0	-21.8	297	15
2023-09-30T12:00	4113	619	-5.1	-20.9	298	14
2023-09-30T12:00	4140	616	-5.2	-20.2	299	14
2023-09-30T12:00	4167	615	-5.2	-20.8	301	14
2023-09-30T12:00	4184	613	-5.2	-21.2	303	14
2023-09-30T12:00	4206	611	-5.2	-21.8	305	14
2023-09-30T12:00	4234	609	-5.4	-22.3	305	14
2023-09-30T12:00	4255	607	-5.5	-22.4	306	14
2023-09-30T12:00	4285	605	-5.8	-22.6	307	13
2023-09-30T12:00	4314	603	-5.9	-22.8	308	13
2023-09-30T12:00	4331	602	-5.9	-22.3	308	12
2023-09-30T12:00	4355	600	-6.1	-21.8	309	12
2023-09-30T12:00	4386	597	-6.2	-21.2	308	12
2023-09-30T12:00	4414	595	-6.4	-21.3	306	12
2023-09-30T12:00	4439	593	-6.6	-21.2	305	13
2023-09-30T12:00	4459	592	-6.8	-21.0	303	13
2023-09-30T12:00	4480	590	-6.9	-21.6	302	13
2023-09-30T12:00	4502	589	-6.9	-21.7	302	13
2023-09-30T12:00	4530	586	-7.0	-22.2	302	12
2023-09-30T12:00	4559	584	-7.2	-22.2	302	12
2023-09-30T12:00	4580	583	-7.3	-22.2	304	12
2023-09-30T12:00	4603	581	-7.4	-22.7	306	12
2023-09-30T12:00	4630	579	-7.6	-23.2	309	12
2023-09-30T12:00	4647	578	-7.7	-23.4	310	12
2023-09-30T12:00	4672	576	-7.9	-23.4	310	12
2023-09-30T12:00	4708	573	-8.1	-23.5	309	12
2023-09-30T12:00	4729	572	-8.3	-23.8	308	12
2023-09-30T12:00	4753	570	-8.4	-24.2	305	13
2023-09-30T12:00	4779	568	-8.6	-24.1	303	13
2023-09-30T12:00	4798	567	-8.7	-24.1	301	14
2023-09-30T12:00	4825	565	-9.0	-24.3	299	14
2023-09-30T12:00	4849	563	-9.1	-24.3	297	13
2023-09-30T12:00	4873	561	-9.2	-24.5	297	13
2023-09-30T12:00	4897	559	-9.3	-24.9	297	13
2023-09-30T12:00	4918	558	-9.2	-25.5	299	12
2023-09-30T12:00	4946	556	-9.3	-26.1	301	12
2023-09-30T12:00	4969	554	-9.5	-26.2	303	13
2023-09-30T12:00	5001	552	-9.7	-26.6	303	13
2023-09-30T12:00	5031	550	-9.8	-26.6	302	13
2023-09-30T12:00	5058	548	-10.1	-26.0	301	13
2023-09-30T12:00	5090	546	-10.3	-25.5	300	13
2023-09-30T12:00	5111	544	-10.5	-25.4	300	13
2023-09-30T12:00	5133	542	-10.6	-25.1	299	14
2023-09-30T12:00	5160	541	-10.7	-25.4	299	14
2023-09-30T12:00	5194	538	-10.9	-25.6	299	14
2023-09-30T12:00	5221	536	-11.1	-25.8	298	15
2023-09-30T12:00	5249	534	-11.4	-26.0	297	16
2023-09-30T12:00	5272	533	-11.6	-26.1	296	16
2023-09-30T12:00	5294	531	-11.8	-26.1	295	17
2023-09-30T12:00	5324	529	-12.1	-26.3	295	17
2023-09-30T12:00	5344	528	-12.3	-26.4	296	17
2023-09-30T12:00	5367	526	-12.4	-26.6	296	18
2023-09-30T12:00	5386	525	-12.6	-26.7	297	17
2023-09-30T12:00	5407	523	-12.7	-27.0	298	17
2023-09-30T12:00	5440	521	-12.8	-23.4	298	17
2023-09-30T12:00	5463	520	-13.0	-25.0	298	17
2023-09-30T12:00	5487	518	-13.2	-25.2	298	17
2023-09-30T12:00	5511	516	-13.4	-24.8	298	17
2023-09-30T12:00	5538	515	-13.6	-25.2	298	17
2023-09-30T12:00	5558	513	-13.8	-25.4	299	16
2023-09-30T12:00	5584	511	-14.0	-25.4	300	17
2023-09-30T12:00	5612	509	-14.2	-25.6	300	17
2023-09-30T12:00	5645	507	-14.5	-25.7	300	17
2023-09-30T12:00	5670	506	-14.8		300	18
2023-09-30T12:00	5692	504	-15.0	-25.9	298	18
2023-09-30T12:00	5709	503	-15.1	-25.7	297	17
2023-09-30T12:00	5727	502	-15.3	-25.7	296	17
2023-09-30T12:00	5746	500	-15.5	-25.5	296	16
2023-09-30T12:00	5779	498	-15.8	-25.5	295	16
2023-09-30T12:00	5807	497	-16.0	-25.9	295	16
2023-09-30T12:00	5832	495	-16.2	-25.8	296	16
2023-09-30T12:00	5857	493	-16.5	-26.0	296	16
2023-09-30T12:00	5881	492	-16.7	-26.1	297	16
2023-09-30T12:00	5920	489	-17.0	-26.5	299	16
2023-09-30T12:00	5950	487	-17.4	-26.6	300	16
2023-09-30T12:00	5982	485	-17.6	-26.8	302	16
2023-09-30T12:00	6009	483	-17.9	-26.6	303	15
2023-09-30T12:00	6046	481	-18.3	-27.0	305	15
2023-09-30T12:00	6065	480	-18.4	-26.8	305	15
2023-09-30T12:00	6082	479	-18.6	-26.9	305	15
2023-09-30T12:00	6102	477	-18.8	-26.9	304	16
2023-09-30T12:00	6121	476	-18.9	-26.8	302	16
2023-09-30T12:00	6141	475	-19.1	-26.9	300	16
2023-09-30T12:00	6167	473	-19.4	-26.9	299	17
2023-09-30T12:00	6198	471	-19.7	-27.0	299	17
2023-09-30T12:00	6222	470	-19.9	-27.1	300	17
2023-09-30T12:00	6244	468	-20.1	-27.2	302	17
2023-09-30T12:00	6279	466	-20.3	-27.0	305	17
2023-09-30T12:00	6302	465	-20.5	-27.4	307	17
2023-09-30T12:00	6322	463	-20.7	-27.6	308	17
2023-09-30T12:00	6352	462	-20.9	-27.8	308	18
2023-09-30T12:00	6382	460	-21.2	-27.9	308	18
2023-09-30T12:00	6414	458	-21.4	-28.7	307	18
2023-09-30T12:00	6434	456	-21.6	-28.9	307	17
2023-09-30T12:00	6466	455	-21.9	-29.0	306	17
2023-09-30T12:00	6489	453	-22.1	-29.0	305	17
2023-09-30T12:00	6511	452	-22.3	-29.2	304	16
2023-09-30T12:00	6539	450	-22.5	-29.1	302	16
2023-09-30T12:00	6568	448	-22.8	-29.3	301	16
2023-09-30T12:00	6601	446	-23.2	-29.5	300	17
2023-09-30T12:00	6627	445	-23.3	-29.7	300	17
2023-09-30T12:00	6644	444	-23.5	-30.2	300	18
2023-09-30T12:00	6666	442	-23.7	-31.0	301	18
2023-09-30T12:00	6690	441	-23.8	-31.9	301	19
2023-09-30T12:00	6712	439	-23.9	-32.8	301	19
2023-09-30T12:00	6734	438	-24.1	-34.3	301	20
2023-09-30T12:00	6760	436	-24.3	-35.0	301	20
2023-09-30T12:00	6791	435	-24.6	-35.8	301	20
2023-09-30T12:00	6817	433	-24.8	-36.2	301	20
2023-09-30T12:00	6843	432	-25.0	-35.6	302	19
2023-09-30T12:00	6869	430	-25.1	-34.4	302	19
2023-09-30T12:00	6899	428	-25.3	-34.1	302	19
2023-09-30T12:00	6924	427	-25.6	-33.9	302	19
2023-09-30T12:00	6957	425	-25.9	-33.0	301	19
2023-09-30T12:00	6986	423	-26.2	-33.4	301	19
2023-09-30T12:00	7023	421	-26.5	-33.4	300	19
2023-09-30T12:00	7045	420	-26.7	-33.1	299	19
2023-09-30T12:00	7065	419	-26.8	-31.9	298	18
2023-09-30T12:00	7085	417	-26.9	-31.8	298	18
2023-09-30T12:00	7105	416	-27.1	-31.8	298	18
2023-09-30T12:00	7128	415	-27.2	-31.9	297	18
2023-09-30T12:00	7156	413	-27.5	-32.0	297	18
2023-09-30T12:00	7191	411	-27.8	-32.1	297	17
2023-09-30T12:00	7217	410	-28.1	-32.3	297	17
2023-09-30T12:00	7241	409	-28.3	-32.3	297	17
2023-09-30T12:00	7264	407	-28.6	-32.3	298	17
2023-09-30T12:00	7289	406	-28.8	-32.7	299	17
2023-09-30T12:00	7320	404	-29.1	-33.2	299	17
2023-09-30T12:00	7348	402	-29.3	-33.3	299	16
2023-09-30T12:00	7377	401	-29.5	-33.8	299	16
2023-09-30T12:00	7410	399	-29.8	-33.7	298	16
2023-09-30T12:00	7442	397	-29.9	-33.7	296	16
2023-09-30T12:00	7473	395	-30.1	-33.8	296	17
2023-09-30T12:00	7507	394	-30.4	-33.9	297	17
2023-09-30T12:00	7540	392	-30.7	-33.9	298	18
2023-09-30T12:00	7571	390	-30.9	-34.2	300	18
2023-09-30T12:00	7592	389	-31.1	-34.3	301	18
2023-09-30T12:00	7617	387	-31.3	-34.7	302	18
2023-09-30T12:00	7644	386	-31.5	-34.7	302	17
2023-09-30T12:00	7675	384	-31.7	-35.0	302	17
2023-09-30T12:00	7695	383	-31.9	-35.0	302	17
2023-09-30T12:00	7718	382	-32.1	-35.1	301	17
2023-09-30T12:00	7745	381	-32.3	-35.2	301	17
2023-09-30T12:00	7773	379	-32.5	-35.6	299	17
2023-09-30T12:00	7798	378	-32.6	-35.6	297	17
2023-09-30T12:00	7835	376	-32.9	-35.9	295	17
2023-09-30T12:00	7862	374	-33.1	-36.0	292	17
2023-09-30T12:00	7889	373	-33.3	-36.2	290	17
2023-09-30T12:00	7916	371	-33.4	-36.2	288	17
2023-09-30T12:00	7937	370	-33.4	-36.5	287	18
2023-09-30T12:00	7961	369	-33.2	-37.7	288	18
2023-09-30T12:00	7993	367	-32.7	-39.4	289	19
2023-09-30T12:00	8023	366	-32.6	-39.8	291	19
2023-09-30T12:00	8040	365	-32.8	-39.8	292	20
2023-09-30T12:00	8061	364	-32.9	-40.1	293	20
2023-09-30T12:00	8086	363	-33.1	-40.2	293	20
2023-09-30T12:00	8115	361	-33.4	-40.2	293	20
2023-09-30T12:00	8143	360	-33.7	-40.4	292	20
2023-09-30T12:00	8172	358	-34.0	-40.5	292	19
2023-09-30T12:00	8201	357	-34.2	-40.4	291	19
2023-09-30T12:00	8222	356	-34.4	-40.8	291	20
2023-09-30T12:00	8248	354	-34.7	-40.9	291	20
2023-09-30T12:00	8274	353	-34.9	-41.2	291	21
2023-09-30T12:00	8297	352	-35.1	-41.3	291	21
2023-09-30T12:00	8317	351	-35.3	-41.4	291	21
2023-09-30T12:00	8338	350	-35.5	-41.4	291	21
2023-09-30T12:00	8359	349	-35.7	-41.8	292	21
2023-09-30T12:00	8384	347	-35.9	-41.8	292	20
2023-09-30T12:00	8413	346	-36.1	-41.8	292	20
2023-09-30T12:00	8447	344	-36.4	-42.1	292	19
2023-09-30T12:00	8481	343	-36.7	-42.3	292	19
2023-09-30T12:00	8509	341	-37.0	-42.4	292	19
2023-09-30T12:00	8539	340	-37.2	-42.4	290	19
2023-09-30T12:00	8570	338	-37.5	-42.4	289	19
2023-09-30T12:00	8602	337	-37.8	-44.1	289	19
2023-09-30T12:00	8632	335	-37.9	-46.5	289	19
2023-09-30T12:00	8659	334	-38.1	-46.7	289	20
2023-09-30T12:00	8692	332	-38.3	-47.8	290	20
2023-09-30T12:00	8729	331	-38.6	-49.8	291	21
2023-09-30T12:00	8749	329	-38.6	-52.6	292	21
2023-09-30T12:00	8771	328	-38.8	-53.6	292	21
2023-09-30T12:00	8793	327	-38.9	-54.3	292	21
2023-09-30T12:00	8819	326	-39.1	-54.9	292	21
2023-09-30T12:00	8847	325	-39.3	-55.8	292	21
2023-09-30T12:00	8876	323	-39.5	-57.1	293	21
2023-09-30T12:00	8907	322	-39.6	-57.5	295	21
2023-09-30T12:00	8942	320	-39.6	-59.6	296	21
2023-09-30T12:00	8972	319	-39.8	-60.3	298	22
2023-09-30T12:00	8994	318	-39.9	-60.8	299	22
2023-09-30T12:00	9021	317	-40.1	-61.0	300	23
2023-09-30T12:00	9046	316	-40.2	-60.9	300	23
2023-09-30T12:00	9068	314	-40.4	-61.1	300	23
2023-09-30T12:00	9091	313	-40.6	-60.9	300	23
2023-09-30T12:00	9116	312	-40.8	-61.0	300	23
2023-09-30T12:00	9143	311	-40.9	-61.0	300	24
2023-09-30T12:00	9169	310	-41.1	-61.1	300	24
2023-09-30T12:00	9197	309	-41.2	-61.3	300	24
2023-09-30T12:00	9226	307	-41.3	-61.4	300	24
2023-09-30T12:00	9250	306	-41.4	-61.7	300	24
2023-09-30T12:00	9279	305	-41.5	-61.7	300	24
2023-09-30T12:00	9304	304	-41.6	-61.8	300	24
2023-09-30T12:00	9327	303	-41.8	-62.0	301	24
2023-09-30T12:00	9352	302	-41.9	-61.9	301	23
2023-09-30T12:00	9377	300	-42.1	-62.0	302	23
2023-09-30T12:00	9408	299	-42.4	-62.1	303	23
2023-09-30T12:00	9435	298	-42.6	-62.1	304	24
2023-09-30T12:00	9461	297	-42.8	-62.2	304	24
2023-09-30T12:00	9491	295	-43.1	-62.4	305	24
2023-09-30T12:00	9525	294	-43.3	-62.3	306	25
2023-09-30T12:00	9550	293	-43.3	-62.5	306	25
2023-09-30T12:00	9575	292	-43.4	-62.6	306	26
2023-09-30T12:00	9601	291	-43.6	-62.6	306	26
2023-09-30T12:00	9620	290	-43.8		307	26
2023-09-30T12:00	9641	289	-44.0	-62.9	307	27
2023-09-30T12:00	9662	288	-44.1	-62.9	307	27
2023-09-30T12:00	9682	287	-44.3	-63.1	307	27
2023-09-30T12:00	9701	286	-44.4	-63.1	307	27
2023-09-30T12:00	9719	286	-44.6	-63.1	307	27
2023-09-30T12:00	9744	285	-44.7	-63.2	307	27
2023-09-30T12:00	9765	284	-44.8	-63.6	307	28
2023-09-30T12:00	9790	283	-45.1	-63.7	308	28
2023-09-30T12:00	9817	281	-45.3	-63.2	308	28
2023-09-30T12:00	9841	280	-45.3	-62.5	309	28
2023-09-30T12:00	9862	280	-45.5	-62.6	309	29
2023-09-30T12:00	9884	279	-45.7	-62.8	310	29
2023-09-30T12:00	9910	278	-45.8	-62.7	310	29
2023-09-30T12:00	9933	277	-46.0	-62.6	311	29
2023-09-30T12:00	9961	275	-46.2	-62.9	311	29
2023-09-30T12:00	9989	274	-46.4	-63.1	311	29
2023-09-30T12:00	10019	273	-46.7	-63.3	311	30
2023-09-30T12:00	10046	272	-46.9	-63.7	312	30
2023-09-30T12:00	10072	271	-47.0	-64.5	312	30
2023-09-30T12:00	10095	270	-47.2	-64.9	311	30
2023-09-30T12:00	10119	269	-47.3	-64.9	311	30
2023-09-30T12:00	10140	268	-47.5	-65.0	311	30
2023-09-30T12:00	10166	267	-47.7	-65.0	311	30
2023-09-30T12:00	10193	266	-47.8	-65.0	312	30
2023-09-30T12:00	10219	265	-48.0	-65.0	312	30
2023-09-30T12:00	10242	264	-48.2	-65.0	312	30
2023-09-30T12:00	10263	263	-48.4	-65.0	313	30
2023-09-30T12:00	10283	262	-48.7	-64.8	313	30
2023-09-30T12:00	10302	262	-48.7	-64.1	313	29
2023-09-30T12:00	10322	261	-48.8	-63.8	314	29
2023-09-30T12:00	10343	260	-49.0	-63.7	314	29
2023-09-30T12:00	10362	259	-49.1	-63.4	314	29
2023-09-30T12:00	10380	258	-49.2	-63.2	314	29
2023-09-30T12:00	10399	258	-49.4	-63.4	314	29
2023-09-30T12:00	10419	257	-49.4	-63.3	314	29
2023-09-30T12:00	10438	256	-49.6	-63.4	314	28
2023-09-30T12:00	10460	255	-49.8	-63.3	314	28
2023-09-30T12:00	10478	255	-49.9	-63.4	314	28
2023-09-30T12:00	10498	254	-50.0	-63.7	314	28
2023-09-30T12:00	10517	253	-50.1	-63.8	314	28
2023-09-30T12:00	10538	252	-50.2	-63.5	314	27
2023-09-30T12:00	10558	252	-50.3	-63.3	313	27
2023-09-30T12:00	10578	251	-50.4	-63.2	313	27
2023-09-30T12:00	10597	250	-50.5	-63.2	312	27
2023-09-30T12:00	10617	249	-50.6	-63.2	312	27
2023-09-30T12:00	10637	249	-50.6	-63.3	311	27
2023-09-30T12:00	10656	248	-50.7	-63.4	310	28
2023-09-30T12:00	10677	247	-50.8	-63.5	309	28
2023-09-30T12:00	10695	246	-50.9	-63.6	308	28
2023-09-30T12:00	10715	246	-51.0	-63.8	307	28
2023-09-30T12:00	10735	245	-51.1	-64.0	307	28
2023-09-30T12:00	10754	244	-51.0	-64.1	306	29
2023-09-30T12:00	10773	243	-51.0	-64.2	305	29
2023-09-30T12:00	10794	243	-51.0	-64.1	304	29
2023-09-30T12:00	10814	242	-51.1	-64.1	303	29
2023-09-30T12:00	10835	241	-51.2	-64.1	303	29
2023-09-30T12:00	10855	240	-51.4	-64.1	303	28
2023-09-30T12:00	10876	240	-51.6	-64.1	303	28
2023-09-30T12:00	10895	239	-51.7	-64.1	303	28
2023-09-30T12:00	10917	238	-51.9	-64.2	303	29
2023-09-30T12:00	10937	237	-52.0	-64.1	303	29
2023-09-30T12:00	10957	237	-52.1	-64.1	303	29
2023-09-30T12:00	10978	236	-52.3	-64.3	303	29
2023-09-30T12:00	10998	235	-52.3	-64.4	303	29
2023-09-30T12:00	11020	234	-52.4	-64.5	302	29
2023-09-30T12:00	11040	234	-52.6	-64.7	302	29
2023-09-30T12:00	11060	233	-52.7	-64.7	302	30
2023-09-30T12:00	11081	232	-52.8	-64.8	302	30
2023-09-30T12:00	11102	231	-52.9	-64.9	301	30
2023-09-30T12:00	11123	231	-53.1	-65.0	301	30
2023-09-30T12:00	11144	230	-53.3	-65.1	301	30
2023-09-30T12:00	11164	229	-53.4	-65.2	301	31
2023-09-30T12:00	11183	228	-53.6	-65.3	301	31
2023-09-30T12:00	11204	228	-53.7	-65.5	301	31
2023-09-30T12:00	11228	227	-53.7	-65.7	301	31
2023-09-30T12:00	11247	226	-53.8	-65.9	301	31
2023-09-30T12:00	11267	225	-53.9	-66.0	301	31
2023-09-30T12:00	11286	225	-54.0	-66.2	301	31
2023-09-30T12:00	11307	224	-54.1	-66.5	301	31
2023-09-30T12:00	11329	223	-54.0	-66.6	301	31
2023-09-30T12:00	11351	222	-54.0	-66.8	301	31
2023-09-30T12:00	11375	222	-54.1	-67.1	301	31
2023-09-30T12:00	11395	221	-54.2	-67.3	301	32
2023-09-30T12:00	11419	220	-54.3	-67.5	301	32
2023-09-30T12:00	11440	219	-54.3	-67.4	301	32
2023-09-30T12:00	11460	219	-54.5	-67.4	301	32
2023-09-30T12:00	11482	218	-54.7	-67.6	301	33
2023-09-30T12:00	11504	217	-54.8	-67.7	301	33
2023-09-30T12:00	11525	217	-54.9	-67.9	302	33
2023-09-30T12:00	11547	216	-54.8	-67.9	302	33
2023-09-30T12:00	11569	215	-54.9	-68.1	303	33
2023-09-30T12:00	11589	214	-55.0	-68.1	304	33
2023-09-30T12:00	11612	214	-55.1	-68.1	305	33
2023-09-30T12:00	11633	213	-55.3	-68.3	306	33
2023-09-30T12:00	11654	212	-55.4	-68.4	306	33
2023-09-30T12:00	11675	212	-55.5	-68.6	307	33
2023-09-30T12:00	11696	211	-55.5	-68.7	308	34
2023-09-30T12:00	11717	210	-55.6	-69.0	309	34
2023-09-30T12:00	11739	209	-55.5	-69.3	309	35
2023-09-30T12:00	11761	209	-55.4	-69.8	309	35
2023-09-30T12:00	11782	208	-55.0	-70.3	310	35
2023-09-30T12:00	11803	207	-54.5	-71.0	310	36
2023-09-30T12:00	11825	207	-54.1	-71.4	310	36
2023-09-30T12:00	11847	206	-54.1	-71.5	309	36
2023-09-30T12:00	11869	205	-54.3	-71.5	309	36
2023-09-30T12:00	11891	205	-54.4	-71.5	309	37
2023-09-30T12:00	11912	204	-54.5	-71.5	309	37
2023-09-30T12:00	11934	203	-54.5	-71.6	309	37
2023-09-30T12:00	11956	202	-54.5	-71.7	309	37
2023-09-30T12:00	11979	202	-54.6	-71.8	309	37
2023-09-30T12:00	12002	201	-54.7	-72.0	309	37
2023-09-30T12:00	12024	200	-54.7	-72.1	310	37
2023-09-30T12:00	12046	200	-54.8	-72.3	310	38
2023-09-30T12:00	12069	199	-54.8	-72.4	310	38
2023-09-30T12:00	12092	198	-54.8	-72.6	311	38
2023-09-30T12:00	12112	198	-54.9	-72.7	311	38
2023-09-30T12:00	12133	197	-55.0	-72.8	311	38
2023-09-30T12:00	12155	196	-55.1	-72.9	312	38
2023-09-30T12:00	12177	196	-55.2	-72.9	312	38
2023-09-30T12:00	12199	195	-55.3	-72.9	313	38
2023-09-30T12:00	12220	194	-55.5	-73.1	313	38
2023-09-30T12:00	12242	194	-55.6	-73.1	314	38
2023-09-30T12:00	12264	193	-55.8	-73.2	314	37
2023-09-30T12:00	12286	192	-55.9	-73.2	314	37
2023-09-30T12:00	12311	192	-56.1		314	37
2023-09-30T12:00	12330	191	-56.2	-73.4	314	37
2023-09-30T12:00	12350	190	-56.4	-73.5	314	37
2023-09-30T12:00	12373	190	-56.5	-73.5	314	37
2023-09-30T12:00	12397	189	-56.7	-73.6	314	37
2023-09-30T12:00	12419	188	-56.9	-73.7	314	36
2023-09-30T12:00	12441	188	-57.0	-74.0	315	36
2023-09-30T12:00	12466	187	-57.1	-74.6	315	35
2023-09-30T12:00	12495	186	-56.7	-75.3	316	34
2023-09-30T12:00	12527	185	-55.8	-75.6	317	32
2023-09-30T12:00	12562	184	-55.8	-76.3	319	30
2023-09-30T12:00	12590	183	-55.7	-76.3	320	29
2023-09-30T12:00	12616	182	-55.9	-76.5	321	28
2023-09-30T12:00	12644	182	-56.0	-76.6	321	27
2023-09-30T12:00	12670	181	-55.9	-76.4	320	27
2023-09-30T12:00	12697	180	-56.1	-76.6	319	26
2023-09-30T12:00	12721	179	-56.2	-76.7	317	25
2023-09-30T12:00	12753	179	-56.4	-77.1	314	24
2023-09-30T12:00	12786	178	-56.6	-77.7	311	22
2023-09-30T12:00	12814	177	-56.3	-78.0	308	21
2023-09-30T12:00	12841	176	-56.3	-78.8	305	21
2023-09-30T12:00	12874	175	-56.3	-79.3	302	21
2023-09-30T12:00	12903	174	-56.3	-79.8	299	21
2023-09-30T12:00	12927	174	-56.3	-80.0	297	21
2023-09-30T12:00	12954	173	-56.2	-80.3	296	22
2023-09-30T12:00	12975	172	-56.2	-80.8	296	22
2023-09-30T12:00	12995	172	-56.1	-80.9	295	22
2023-09-30T12:00	13015	171	-56.1	-80.9	295	22
2023-09-30T12:00	13036	171	-56.0	-81.1	294	22
2023-09-30T12:00	13055	170	-56.0	-81.1	294	22
2023-09-30T12:00	13074	170	-55.9	-81.0	293	22
2023-09-30T12:00	13095	169	-55.9	-81.2	292	22
2023-09-30T12:00	13117	169	-55.8	-81.2	291	22
2023-09-30T12:00	13136	168	-55.8	-81.2	291	22
2023-09-30T12:00	13155	168	-55.9	-81.2	290	22
2023-09-30T12:00	13175	167	-56.0	-81.3	289	22
2023-09-30T12:00	13195	167	-56.1	-81.1	289	22
2023-09-30T12:00	13215	166	-56.1	-81.1	289	23
2023-09-30T12:00	13236	166	-56.1	-80.9	289	23
2023-09-30T12:00	13258	165	-56.1	-80.9	290	24
2023-09-30T12:00	13279	164	-56.2	-81.0	290	24
2023-09-30T12:00	13303	164	-56.2	-81.0	291	24
2023-09-30T12:00	13321	163	-56.2	-81.2	292	25
2023-09-30T12:00	13341	163	-56.2	-81.2	293	25
2023-09-30T12:00	13360	162	-56.0	-81.3	294	25
2023-09-30T12:00	13381	162	-55.9	-81.5	294	26
2023-09-30T12:00	13402	161	-55.7	-81.6	294	26
2023-09-30T12:00	13424	161	-55.7	-81.6	294	26
2023-09-30T12:00	13442	160	-55.7	-81.6	294	26
2023-09-30T12:00	13463	160	-55.8	-81.7	295	26
2023-09-30T12:00	13483	159	-55.8	-82.0	295	26
2023-09-30T12:00	13504	159	-55.8	-82.0	296	26
2023-09-30T12:00	13526	158	-55.9	-81.8	296	25
2023-09-30T12:00	13546	158	-56.0	-81.8	296	25
2023-09-30T12:00	13567	157	-56.0	-81.6	296	25
2023-09-30T12:00	13590	157	-55.9	-81.5	296	25
2023-09-30T12:00	13611	156	-55.9	-81.5	296	25
2023-09-30T12:00	13631	156	-56.0	-81.3	295	24
2023-09-30T12:00	13655	155	-56.2	-81.5	295	24
2023-09-30T12:00	13676	154	-56.2	-81.5	295	24
2023-09-30T12:00	13698	154	-56.2	-81.5	295	24
2023-09-30T12:00	13717	153	-56.3	-81.5	296	23
2023-09-30T12:00	13737	153	-56.2	-81.7	297	23
2023-09-30T12:00	13761	152	-56.2	-82.0	299	23
2023-09-30T12:00	13781	152	-55.9	-82.0	300	23
2023-09-30T12:00	13801	151	-55.5	-82.0	302	22
2023-09-30T12:00	13824	151	-55.4	-82.2	303	22
2023-09-30T12:00	13843	150	-55.4	-82.2	304	22
2023-09-30T12:00	13865	150	-55.3	-82.5	304	21
2023-09-30T12:00	13887	149	-55.2	-82.4	305	21
2023-09-30T12:00	13910	149	-55.3	-82.5	304	20
2023-09-30T12:00	13932	148	-55.3	-82.8	304	20
2023-09-30T12:00	13955	148	-55.3	-82.8	302	19
2023-09-30T12:00	13979	147	-55.3	-82.8	301	19
2023-09-30T12:00	14001	147	-55.4	-82.9	298	18
2023-09-30T12:00	14021	146	-55.5	-83.0	296	18
2023-09-30T12:00	14043	146	-55.6	-83.1	295	17
2023-09-30T12:00	14067	145	-55.7	-83.1	293	17
2023-09-30T12:00	14088	145	-55.6	-83.1	292	17
2023-09-30T12:00	14110	144	-55.7	-82.8	291	18
2023-09-30T12:00	14132	144	-55.9	-82.9	291	18
2023-09-30T12:00	14152	143	-56.0	-83.0	290	18
2023-09-30T12:00	14177	143	-55.8	-83.2	290	19
2023-09-30T12:00	14196	142	-55.9	-83.3	291	19
2023-09-30T12:00	14217	142	-55.8	-83.2	291	19
2023-09-30T12:00	14241	141	-55.9	-83.3	291	19
2023-09-30T12:00	14264	141	-55.8	-83.6	291	19
2023-09-30T12:00	14284	140	-55.6	-83.4	291	18
2023-09-30T12:00	14308	140	-55.6	-83.4	290	18
2023-09-30T12:00	14331	139	-55.8	-83.6	289	18
2023-09-30T12:00	14353	139	-55.9	-83.6	288	18
2023-09-30T12:00	14375	138	-56.1	-83.8	287	18
2023-09-30T12:00	14396	138	-56.0	-83.7	286	18
2023-09-30T12:00	14415	138	-56.0	-83.7	286	19
2023-09-30T12:00	14437	137	-56.0	-83.7	285	19
2023-09-30T12:00	14460	137	-56.1	-83.8	284	19
2023-09-30T12:00	14482	136	-56.1	-83.8	283	18
2023-09-30T12:00	14505	136	-56.2	-83.9	282	18
2023-09-30T12:00	14526	135	-56.3	-83.9	281	18
2023-09-30T12:00	14550	135	-56.4	-84.0	281	18
2023-09-30T12:00	14571	134	-56.3	-83.9	280	18
2023-09-30T12:00	14594	134	-56.4	-84.0	279	18
2023-09-30T12:00	14615	133	-56.6	-83.8	278	19
2023-09-30T12:00	14638	133	-56.7	-83.9	277	19
2023-09-30T12:00	14659	132	-56.9	-84.0	276	19
2023-09-30T12:00	14680	132	-57.1	-84.2	276	20
2023-09-30T12:00	14703	131	-57.2	-84.3	276	20
2023-09-30T12:00	14724	131	-57.3	-84.0	276	21
2023-09-30T12:00	14746	131	-57.4	-84.1	276	21
2023-09-30T12:00	14769	130	-57.4	-84.1	276	21
2023-09-30T12:00	14788	130	-57.4	-84.1	276	22
2023-09-30T12:00	14812	129	-57.5	-84.2	276	22
2023-09-30T12:00	14834	129	-57.6	-84.3	276	22
2023-09-30T12:00	14857	128	-57.6	-84.3	276	23
2023-09-30T12:00	14876	128	-57.7	-84.3	277	23
2023-09-30T12:00	14902	127	-57.9	-84.5	278	23
2023-09-30T12:00	14922	127	-58.0	-84.6	279	23
2023-09-30T12:00	14942	127	-58.1	-84.6	281	23
2023-09-30T12:00	14966	126	-58.0	-84.6	282	23
2023-09-30T12:00	14992	126	-58.1	-84.6	284	23
2023-09-30T12:00	15013	125	-58.1	-84.6	286	23
2023-09-30T12:00	15033	125	-58.0	-84.9	286	22
2023-09-30T12:00	15053	124	-57.8	-84.7	287	22
2023-09-30T12:00	15074	124	-57.9	-84.8	287	21
2023-09-30T12:00	15096	123	-58.0	-84.9	286	21
2023-09-30T12:00	15117	123	-58.1	-85.0	286	21
2023-09-30T12:00	15139	123	-58.3	-84.8	285	21
2023-09-30T12:00	15161	122	-58.4	-84.9	284	21
2023-09-30T12:00	15184	122	-58.4	-84.9	284	21
2023-09-30T12:00	15205	121	-58.5	-84.9	284	21
2023-09-30T12:00	15226	121	-58.6	-85.0	284	21
2023-09-30T12:00	15249	121	-58.4	-85.2	285	21
2023-09-30T12:00	15271	120	-58.1	-85.0	285	21
2023-09-30T12:00	15291	120	-58.1	-85.0	286	22
2023-09-30T12:00	15312	119	-58.2	-85.0	287	22
2023-09-30T12:00	15335	119	-58.3	-85.1	288	22
2023-09-30T12:00	15353	119	-58.4	-85.2	289	23
2023-09-30T12:00	15374	118	-58.5	-85.3	290	23
2023-09-30T12:00	15396	118	-58.4	-85.2	291	22
2023-09-30T12:00	15417	117	-58.2	-85.4	292	22
2023-09-30T12:00	15438	117	-58.0	-85.2	293	22
2023-09-30T12:00	15459	117	-57.8	-85.5	294	22
2023-09-30T12:00	15478	116	-57.7	-85.4	295	21
2023-09-30T12:00	15502	116	-57.6	-85.3	296	21
2023-09-30T12:00	15525	115	-57.6	-85.7	297	20
2023-09-30T12:00	15549	115	-57.4	-85.6	298	19
2023-09-30T12:00	15577	114	-57.5	-85.6	298	18
2023-09-30T12:00	15598	114	-57.5	-85.6	298	18
2023-09-30T12:00	15620	114	-57.7	-85.8	298	17
2023-09-30T12:00	15641	113	-57.7	-85.4	298	16
2023-09-30T12:00	15665	113	-57.9	-85.5	296	16
2023-09-30T12:00	15690	112	-58.0	-86.0	294	15
2023-09-30T12:00	15718	112	-57.9		291	14
2023-09-30T12:00	15739	112	-57.7	-85.8	287	14
2023-09-30T12:00	15761	111	-57.8	-85.9	283	14
2023-09-30T12:00	15783	111	-57.7	-85.8	281	14
2023-09-30T12:00	15805	110	-57.8	-85.9	279	14
2023-09-30T12:00	15829	110	-57.8	-85.9	277	14
2023-09-30T12:00	15851	110	-57.8	-85.9	276	14
2023-09-30T12:00	15871	109	-57.9		275	14
2023-09-30T12:00	15891	109	-58.0	-86.0	275	14
2023-09-30T12:00	15916	108	-58.0	-86.0	275	15
2023-09-30T12:00	15938	108	-57.9		276	15
2023-09-30T12:00	15959	108	-58.0	-86.0	278	15
2023-09-30T12:00	15980	107	-58.0	-86.0	279	16
2023-09-30T12:00	16002	107	-58.0	-86.0	280	16
2023-09-30T12:00	16023	107	-58.1		281	17
2023-09-30T12:00	16042	106	-58.3	-86.2	281	17
2023-09-30T12:00	16063	106	-58.4	-86.3	282	17
2023-09-30T12:00	16084	106	-58.5	-86.4	282	17
2023-09-30T12:00	16103	105	-58.6	-86.5	282	17
2023-09-30T12:00	16126	105	-58.7	-86.5	282	17
2023-09-30T12:00	16145	105	-58.6	-86.5	282	17
2023-09-30T12:00	16166	104	-58.6	-86.5	281	16
2023-09-30T12:00	16187	104	-58.7	-86.5	279	16
2023-09-30T12:00	16211	103	-58.7	-86.5	277	16
2023-09-30T12:00	16232	103	-58.8	-86.6	275	15
2023-09-30T12:00	16256	103	-58.9	-86.7	274	16
2023-09-30T12:00	16273	102	-59.0	-86.4	273	16
2023-09-30T12:00	16294	102	-59.2	-86.5	273	16
2023-09-30T12:00	16316	102	-59.3	-86.6	275	17
2023-09-30T12:00	16338	101	-59.4	-86.7	277	17
2023-09-30T12:00	16360	101	-59.3	-86.6	279	18
2023-09-30T12:00	16382	101	-59.3	-87.0	281	18
2023-09-30T12:00	16403	100	-59.2	-86.9	283	19
2023-09-30T12:00	16424	100	-59.1	-86.8	285	19
2023-09-30T12:00	16445	100	-59.1	-86.8	287	19
2023-09-30T12:00	16464	99	-59.1	-86.8	288	19
2023-09-30T12:00	16484	99	-59.1	-86.8	290	19
2023-09-30T12:00	16503	99	-59.0	-86.8	290	19
2023-09-30T12:00	16524	98	-59.0	-86.8	290	19
2023-09-30T12:00	16545	98	-59.0	-86.8	290	19
2023-09-30T12:00	16567	98	-58.9	-87.1	289	18
2023-09-30T12:00	16589	97	-58.8	-87.0	287	18
2023-09-30T12:00	16608	97	-58.7	-87.0	286	18
2023-09-30T12:00	16632	97	-58.6	-86.9	285	18
2023-09-30T12:00	16654	96	-58.6	-86.9	284	18
2023-09-30T12:00	16676	96	-58.7	-87.0	284	18
2023-09-30T12:00	16697	96	-58.9	-87.1	285	17
2023-09-30T12:00	16719	95	-58.9	-87.6	285	17
2023-09-30T12:00	16742	95	-58.7	-87.4	286	17
2023-09-30T12:00	16765	95	-58.4	-87.2	287	16
2023-09-30T12:00	16784	94	-58.4	-87.2	287	16
2023-09-30T12:00	16807	94	-58.5	-87.3	287	15
2023-09-30T12:00	16827	94	-58.6	-87.3	286	15
2023-09-30T12:00	16850	93	-58.6	-87.3	285	14
2023-09-30T12:00	16873	93	-58.5	-87.3	283	14
2023-09-30T12:00	16897	93	-58.5	-87.3	281	14
2023-09-30T12:00	16918	92	-58.5	-87.3	279	14
2023-09-30T12:00	16939	92	-58.7	-87.4	277	14
2023-09-30T12:00	16963	92	-58.8	-87.5	275	14
2023-09-30T12:00	16988	91	-59.0	-87.2	273	14
2023-09-30T12:00	17010	91	-59.1	-87.3	272	14
2023-09-30T12:00	17036	91	-59.2	-87.3	271	14
2023-09-30T12:00	17058	90	-59.3	-87.4	270	15
2023-09-30T12:00	17083	90	-59.5	-87.6	269	15
2023-09-30T12:00	17107	90	-59.6	-87.6	269	15
2023-09-30T12:00	17129	89	-59.7	-87.7	269	15
2023-09-30T12:00	17154	89	-59.8	-87.8	268	15
2023-09-30T12:00	17176	89	-59.5	-87.6	268	15
2023-09-30T12:00	17201	88	-59.4	-87.9	268	15
2023-09-30T12:00	17226	88	-59.3	-87.9	267	16
2023-09-30T12:00	17248	88	-59.2	-87.8	267	16
2023-09-30T12:00	17273	87	-59.2	-87.8	268	17
2023-09-30T12:00	17298	87	-59.3	-87.9	269	17
2023-09-30T12:00	17322	87	-59.4	-87.9	270	18
2023-09-30T12:00	17347	86	-59.5	-88.0	272	18
2023-09-30T12:00	17372	86	-59.5	-88.0	273	18
2023-09-30T12:00	17395	86	-59.3	-87.9	275	18
2023-09-30T12:00	17419	85	-59.1	-88.2	277	18
2023-09-30T12:00	17445	85	-58.9	-88.0	279	17
2023-09-30T12:00	17469	85	-58.9	-88.0	281	17
2023-09-30T12:00	17498	84	-58.9	-88.0	283	16
2023-09-30T12:00	17519	84	-58.8	-88.0	286	15
2023-09-30T12:00	17543	84	-58.7	-87.9	288	15
2023-09-30T12:00	17569	83	-58.7	-87.9	291	14
2023-09-30T12:00	17595	83	-58.7	-87.9	294	13
2023-09-30T12:00	17618	83	-58.7	-87.9	296	13
2023-09-30T12:00	17642	82	-58.8	-88.0	299	12
2023-09-30T12:00	17672	82	-59.0	-88.1	301	12
2023-09-30T12:00	17695	82	-59.1	-88.2	302	12
2023-09-30T12:00	17721	81	-59.3	-87.9	301	11
2023-09-30T12:00	17745	81	-59.4	-87.9	299	11
2023-09-30T12:00	17768	81	-59.6	-88.1	296	10
2023-09-30T12:00	17794	80	-59.6	-88.1	293	10
2023-09-30T12:00	17816	80	-59.5	-88.0	289	11
2023-09-30T12:00	17834	80	-59.3	-88.3	287	11
2023-09-30T12:00	17856	80	-59.3	-88.3	285	12
2023-09-30T12:00	17880	79	-59.4	-88.4	284	12
2023-09-30T12:00	17902	79	-59.6	-88.6	284	13
2023-09-30T12:00	17925	79	-59.7	-88.6	285	13
2023-09-30T12:00	17946	78	-59.7	-88.6	286	14
2023-09-30T12:00	17970	78	-59.6	-88.6	287	14
2023-09-30T12:00	17991	78	-59.5	-88.5	288	15
2023-09-30T12:00	18017	78	-59.5	-88.5	288	15
2023-09-30T12:00	18034	77	-59.4	-88.4	289	15
2023-09-30T12:00	18058	77	-59.3	-88.3	289	16
2023-09-30T12:00	18078	77	-59.4	-88.4	289	16
2023-09-30T12:00	18099	77	-59.4	-88.4	289	16
2023-09-30T12:00	18121	76	-59.3	-88.9	288	16
2023-09-30T12:00	18144	76	-59.1	-88.7	288	16
2023-09-30T12:00	18164	76	-58.9	-88.6	288	16
2023-09-30T12:00	18188	75	-58.7	-88.4	288	17
2023-09-30T12:00	18208	75	-58.7	-88.4	289	17
2023-09-30T12:00	18230	75	-58.7	-88.4	291	17
2023-09-30T12:00	18251	75	-58.7	-88.4	292	17
2023-09-30T12:00	18271	74	-58.8	-88.5	294	17
2023-09-30T12:00	18292	74	-58.8	-88.5	295	17
2023-09-30T12:00	18314	74	-58.9	-88.6	297	17
2023-09-30T12:00	18337	74	-58.9	-88.6	298	17
2023-09-30T12:00	18357	73	-58.9	-88.6	300	17
2023-09-30T12:00	18381	73	-59.0	-88.7	301	17
2023-09-30T12:00	18400	73	-59.2	-88.8	302	17
2023-09-30T12:00	18423	73	-59.0	-88.7	303	16
2023-09-30T12:00	18444	72	-59.0	-88.7	304	16
2023-09-30T12:00	18466	72	-58.9	-88.6	304	15
2023-09-30T12:00	18488	72	-58.8	-88.5	303	15
2023-09-30T12:00	18513	72	-58.9	-89.2	303	14
2023-09-30T12:00	18534	71	-58.8	-89.1	302	13
2023-09-30T12:00	18557	71	-58.6	-88.9	301	12
2023-09-30T12:00	18582	71	-58.3	-88.7	299	12
2023-09-30T12:00	18604	71	-58.2	-88.6	297	11
2023-09-30T12:00	18627	70	-58.2	-88.6	294	11
2023-09-30T12:00	18653	70	-58.2	-88.6	291	10
2023-09-30T12:00	18673	70	-58.2	-88.6	287	10
2023-09-30T12:00	18699	70	-58.2	-88.6	283	10
2023-09-30T12:00	18721	69	-58.2	-88.6	280	10
2023-09-30T12:00	18746	69	-58.2	-88.6	279	10
2023-09-30T12:00	18772	69	-58.2	-88.6	277	10
2023-09-30T12:00	18797	69	-58.0	-89.1	277	10
2023-09-30T12:00	18824	68	-57.7	-88.9	276	9
2023-09-30T12:00	18847	68	-57.6	-88.9	275	9
2023-09-30T12:00	18872	68	-57.7	-88.9	274	9
2023-09-30T12:00	18898	67	-57.7	-88.9	273	9
2023-09-30T12:00	18920	67	-57.8	-89.0	272	10
2023-09-30T12:00	18948	67	-57.9	-89.1	271	10
2023-09-30T12:00	18973	67	-57.8	-89.0	271	10
2023-09-30T12:00	18999	66	-57.8	-89.0	270	10
2023-09-30T12:00	19025	66	-57.8	-89.0	269	9
2023-09-30T12:00	19051	66	-57.6	-88.9	268	9
2023-09-30T12:00	19073	66	-57.6	-88.9	266	9
2023-09-30T12:00	19098	65	-57.7	-88.9	265	9
2023-09-30T12:00	19122	65	-57.8	-89.0	262	9
2023-09-30T12:00	19150	65	-57.9	-89.1	260	9
2023-09-30T12:00	19175	65	-57.8	-89.0	258	10
2023-09-30T12:00	19202	64	-57.7	-88.9	257	10
2023-09-30T12:00	19228	64	-57.5	-88.8	257	11
2023-09-30T12:00	19250	64	-57.1	-88.5	258	11
2023-09-30T12:00	19278	63	-57.1	-88.5	261	11
2023-09-30T12:00	19302	63	-57.3	-88.6	264	11
2023-09-30T12:00	19326	63	-57.3	-88.6	266	11
2023-09-30T12:00	19349	63	-57.2	-88.6	268	11
2023-09-30T12:00	19376	63	-57.3	-88.6	268	11
2023-09-30T12:00	19400	62	-57.1	-88.5	268	11
2023-09-30T12:00	19425	62	-57.0	-88.4	268	11
2023-09-30T12:00	19446	62	-57.0	-89.2	269	10
2023-09-30T12:00	19471	62	-56.9	-89.1	269	10
2023-09-30T12:00	19498	61	-57.0	-89.2	268	10
2023-09-30T12:00	19525	61	-57.0	-89.2	267	9
2023-09-30T12:00	19546	61	-56.9	-89.1	265	9
2023-09-30T12:00	19571	61	-56.8	-89.0	263	9
2023-09-30T12:00	19596	60	-56.7	-88.9	260	9
2023-09-30T12:00	19621	60	-56.7	-88.9	259	10
2023-09-30T12:00	19649	60	-56.9	-89.1	258	10
2023-09-30T12:00	19671	60	-56.9	-89.1	258	10
2023-09-30T12:00	19696	59	-56.9	-89.1	258	11
2023-09-30T12:00	19718	59	-57.0	-88.4	259	11
2023-09-30T12:00	19743	59	-57.1	-88.5	260	11
2023-09-30T12:00	19772	59	-57.1	-88.5	262	11
2023-09-30T12:00	19794	59	-57.3	-88.6	263	11
2023-09-30T12:00	19816	58	-57.4	-88.7	263	11
2023-09-30T12:00	19844	58	-57.4	-88.7	264	11
2023-09-30T12:00	19869	58	-57.5	-88.8	265	12
2023-09-30T12:00	19890	58	-57.7	-88.9	266	12
2023-09-30T12:00	19915	57	-57.8	-89.0	269	12
2023-09-30T12:00	19940	57	-57.9	-89.1	272	12
2023-09-30T12:00	19962	57	-57.9	-89.1	274	11
2023-09-30T12:00	19988	57	-57.9	-89.1	277	11
2023-09-30T12:00	20007	57	-57.9	-89.1	279	11
2023-09-30T12:00	20032	56	-57.8	-89.0	280	11
2023-09-30T12:00	20057	56	-57.8	-89.0	281	11
2023-09-30T12:00	20079	56	-57.8	-89.0	282	12
2023-09-30T12:00	20104	56	-57.8	-89.7	283	11
2023-09-30T12:00	20128	55	-57.6	-89.6	283	11
2023-09-30T12:00	20152	55	-57.3	-89.4	284	11
2023-09-30T12:00	20178	55	-56.8	-89.0	284	11
2023-09-30T12:00	20204	55	-56.4	-88.7	285	11
2023-09-30T12:00	20221	55	-56.5	-88.8	286	11
2023-09-30T12:00	20248	54	-56.6	-88.9	288	10
2023-09-30T12:00	20270	54	-56.6	-88.9	290	10
2023-09-30T12:00	20293	54	-56.8	-89.0	294	10
2023-09-30T12:00	20318	54	-57.0	-89.2	298	11
2023-09-30T12:00	20339	54	-57.1	-89.2	301	11
2023-09-30T12:00	20363	53	-57.1	-89.2	304	11
2023-09-30T12:00	20386	53	-57.2	-89.3	307	10
2023-09-30T12:00	20409	53	-57.3	-89.4	310	10
2023-09-30T12:00	20430	53	-57.3	-89.4	313	10
2023-09-30T12:00	20454	53	-57.3	-89.4	317	9
2023-09-30T12:00	20475	53	-57.2	-89.3	320	9
2023-09-30T12:00	20503	52	-57.1	-89.2	322	8
2023-09-30T12:00	20529	52	-57.0	-89.2	323	8
2023-09-30T12:00	20552	52	-56.9	-89.1	322	7
2023-09-30T12:00	20581	52	-56.8	-89.0	319	7
2023-09-30T12:00	20601	51	-56.8	-89.0	316	7
2023-09-30T12:00	20626	51	-57.0	-89.2	312	7
2023-09-30T12:00	20656	51	-57.2	-89.3	309	7
2023-09-30T12:00	20677	51	-57.4	-88.7	307	7
2023-09-30T12:00	20706	51	-57.5	-88.8	305	7
2023-09-30T12:00	20731	50	-57.6	-88.9	302	7
2023-09-30T12:00	20756	50	-57.8	-89.0	300	8
2023-09-30T12:00	20782	50	-58.1	-88.6	298	8
2023-09-30T12:00	20807	50	-58.4	-88.8	295	8
2023-09-30T12:00	20832	50	-58.4	-88.8	294	9
2023-09-30T12:00	20857	49	-58.7	-89.0	293	10
2023-09-30T12:00	20882	49	-58.7	-89.0	293	10
2023-09-30T12:00	20908	49	-58.7	-89.0	294	10
2023-09-30T12:00	20934	49	-58.8	-89.7	294	10
2023-09-30T12:00	20964	49	-58.8	-89.7	296	10
2023-09-30T12:00	20989	48	-58.6	-89.6	297	9
2023-09-30T12:00	21017	48	-58.3	-89.4	299	9
2023-09-30T12:00	21041	48	-58.1	-89.2	300	8
2023-09-30T12:00	21066	48	-58.0	-89.9	299	7
2023-09-30T12:00	21087	48	-58.0	-89.1	297	7
2023-09-30T12:00	21121	47	-58.1	-89.2	293	6
2023-09-30T12:00	21142	47	-58.2	-89.3	287	6
2023-09-30T12:00	21175	47	-58.2	-89.3	281	6
2023-09-30T12:00	21195	47	-58.2	-89.3	275	6
2023-09-30T12:00	21227	47	-58.3	-89.4	271	6
2023-09-30T12:00	21251	46	-58.5	-89.5	270	6
2023-09-30T12:00	21275	46	-58.7	-89.7	272	6
2023-09-30T12:00	21302	46	-58.8	-89.7	275	6
2023-09-30T12:00	21326	46	-58.5	-89.5	281	6
2023-09-30T12:00	21349	46	-58.4	-89.4	285	6
2023-09-30T12:00	21375	46	-58.5	-89.5	289	6
2023-09-30T12:00	21399	45	-58.7	-89.7	290	6
2023-09-30T12:00	21428	45	-58.6	-89.6	291	6
2023-09-30T12:00	21452	45	-58.5	-89.5	290	6
2023-09-30T12:00	21477	45	-58.3	-89.4	288	7
2023-09-30T12:00	21501	45	-58.2	-89.3	285	7
2023-09-30T12:00	21527	44	-58.1	-89.2	281	7
2023-09-30T12:00	21551	44	-58.2	-89.3	278	8
2023-09-30T12:00	21577	44	-58.3	-89.4	275	8
2023-09-30T12:00	21604	44	-58.4	-89.4	274	9
2023-09-30T12:00	21627	44	-58.3	-89.4	274	10
2023-09-30T12:00	21657	44	-58.2	-89.3	275	10
2023-09-30T12:00	21682	43	-58.1	-89.2	276	11
2023-09-30T12:00	21705	43	-58.0	-89.1	278	11
2023-09-30T12:00	21730	43	-58.0	-89.1	280	11
2023-09-30T12:00	21755	43	-58.3	-89.4	282	11
2023-09-30T12:00	21783	43	-58.4	-89.4	284	11
2023-09-30T12:00	21811	43	-58.3	-90.1	286	10
2023-09-30T12:00	21837	42	-57.7	-89.7	289	9
2023-09-30T12:00	21857	42	-57.3	-89.4	290	9
2023-09-30T12:00	21887	42	-57.3	-89.4	291	9
2023-09-30T12:00	21912	42	-57.3	-89.4	292	9
2023-09-30T12:00	21936	42	-57.2	-89.3	291	9
2023-09-30T12:00	21964	41	-56.8	-89.0	291	10
2023-09-30T12:00	21992	41	-56.7	-88.9	290	10
2023-09-30T12:00	22014	41	-56.9	-89.1	288	10
2023-09-30T12:00	22042	41	-57.1	-89.2	287	11
2023-09-30T12:00	22062	41	-57.3	-89.4	286	11
2023-09-30T12:00	22091	41	-57.5	-89.5	286	11
2023-09-30T12:00	22121	40	-57.7	-89.7	287	12
2023-09-30T12:00	22144	40	-57.7	-89.7	289	12
2023-09-30T12:00	22171	40	-57.4	-89.4	291	12
2023-09-30T12:00	22193	40	-57.3	-89.4	293	12
2023-09-30T12:00	22221	40	-57.3	-89.4	296	12
2023-09-30T12:00	22248	40	-57.4	-89.4	298	11
2023-09-30T12:00	22275	40	-57.4	-89.4	301	11
2023-09-30T12:00	22297	39	-57.5	-89.5	304	11
2023-09-30T12:00	22325	39	-57.4	-89.4	306	11
2023-09-30T12:00	22348	39	-57.1	-90.1	309	10
2023-09-30T12:00	22376	39	-56.9	-89.9	311	9
2023-09-30T12:00	22401	39	-56.9	-89.9	312	9
2023-09-30T12:00	22417	39	-56.9	-89.1	314	8
2023-09-30T12:00	22444	38	-57.0	-89.2	317	7
2023-09-30T12:00	22476	38	-57.0	-89.2	320	6
2023-09-30T12:00	22505	38	-56.9	-89.1	323	5
2023-09-30T12:00	22528	38	-57.1	-89.2	326	4
2023-09-30T12:00	22554	38	-57.1	-89.2	327	3
2023-09-30T12:00	22581	38	-57.1	-89.2	326	3
2023-09-30T12:00	22609	37	-57.3	-89.4	324	2
2023-09-30T12:00	22628	37	-57.4	-89.4	322	2
2023-09-30T12:00	22658	37	-57.6	-89.6	321	3
2023-09-30T12:00	22686	37	-57.5	-89.5	321	3
2023-09-30T12:00	22714	37	-57.2	-89.3	321	3
2023-09-30T12:00	22739	37	-57.2	-89.3	320	4
2023-09-30T12:00	22764	37	-57.3	-89.4	319	4
2023-09-30T12:00	22787	36	-57.5	-89.5	317	3
2023-09-30T12:00	22813	36	-57.7	-89.7	314	3
2023-09-30T12:00	22848	36	-57.6	-89.6	310	2
2023-09-30T12:00	22867	36	-57.5	-89.5	304	2
2023-09-30T12:00	22895	36	-57.5	-89.5	296	2
2023-09-30T12:00	22923	36	-57.5	-89.5	287	2
2023-09-30T12:00	22947	35	-57.5	-89.5	281	3
2023-09-30T12:00	22983	35	-57.6	-89.6	277	3
2023-09-30T12:00	23006	35	-57.6	-89.6	276	4
2023-09-30T12:00	23036	35	-57.5	-89.5	276	4
2023-09-30T12:00	23064	35	-57.6	-89.6	276	5
2023-09-30T12:00	23089	35	-57.6	-89.6	276	5
2023-09-30T12:00	23119	35	-57.7	-89.7	273	5
2023-09-30T12:00	23147	34	-57.6	-89.6	270	5
2023-09-30T12:00	23169	34	-57.7	-90.5	267	5
2023-09-30T12:00	23204	34	-57.5	-90.4	266	5
2023-09-30T12:00	23226	34	-57.4	-90.3	268	5
2023-09-30T12:00	23248	34	-57.3	-90.2	273	5
2023-09-30T12:00	23277	34	-57.2	-90.1	279	5
2023-09-30T12:00	23308	34	-56.7	-89.8	284	6
2023-09-30T12:00	23334	33	-56.5	-89.6	289	7
2023-09-30T12:00	23358	33	-56.6	-89.7	292	8
2023-09-30T12:00	23382	33	-56.7	-89.8	294	8
2023-09-30T12:00	23410	33	-56.8	-89.9	295	8
2023-09-30T12:00	23438	33	-56.9	-89.9	295	8
2023-09-30T12:00	23465	33	-56.8	-89.9	293	8
2023-09-30T12:00	23487	33	-56.5	-89.6	290	7
2023-09-30T12:00	23514	32	-56.6	-89.7	286	6
2023-09-30T12:00	23536	32	-56.7	-89.8	279	6
2023-09-30T12:00	23561	32	-56.8	-89.9	271	6
2023-09-30T12:00	23589	32	-56.6	-89.7	264	5
2023-09-30T12:00	23615	32	-56.4	-89.6	258	5
2023-09-30T12:00	23634	32	-56.3	-89.5	255	5
2023-09-30T12:00	23658	32	-56.1	-89.4	254	5
2023-09-30T12:00	23685	32	-56.0	-89.3	255	5
2023-09-30T12:00	23708	31	-56.0	-89.3	257	5
2023-09-30T12:00	23733	31	-56.0	-89.3	260	5
2023-09-30T12:00	23762	31	-56.1	-89.4	263	6
2023-09-30T12:00	23775	31	-56.2	-89.4	266	6
2023-09-30T12:00	23807	31	-56.3	-89.5	269	6
2023-09-30T12:00	23832	31	-56.4	-89.6	271	7
2023-09-30T12:00	23855	31	-56.1	-90.4	272	7
2023-09-30T12:00	23879	31	-55.7	-90.1	272	7
2023-09-30T12:00	23902	31	-55.7	-90.1	271	7
2023-09-30T12:00	23930	30	-55.9	-89.2	270	7
2023-09-30T12:00	23949	30	-56.0	-89.3	269	7
2023-09-30T12:00	23980	30	-56.2	-89.4	269	7
2023-09-30T12:00	24003	30	-56.3	-89.5	269	8
2023-09-30T12:00	24032	30	-56.5	-89.6	269	8
2023-09-30T12:00	24057	30	-56.8	-89.9	269	8
2023-09-30T12:00	24086	30	-56.9	-89.9	268	9
2023-09-30T12:00	24109	30	-57.0	-90.0	266	9
2023-09-30T12:00	24136	29	-56.9	-89.9	264	10
2023-09-30T12:00	24165	29	-57.0	-90.0	262	11
2023-09-30T12:00	24191	29	-57.0	-90.0	260	11
2023-09-30T12:00	24216	29	-56.7	-89.8	260	12
2023-09-30T12:00	24245	29	-56.5	-89.6	261	12
2023-09-30T12:00	24276	29	-56.5	-89.6	263	12
2023-09-30T12:00	24299	29	-56.4	-90.6	267	12
2023-09-30T12:00	24332	29	-56.3	-89.5	270	12
2023-09-30T12:00	24359	28	-56.4	-89.6	274	11
2023-09-30T12:00	24389	28	-56.5	-89.6	278	11
2023-09-30T12:00	24414	28	-56.6	-89.7	281	11
2023-09-30T12:00	24445	28	-56.6	-89.7	285	11
2023-09-30T12:00	24471	28	-56.5	-89.6	288	10
2023-09-30T12:00	24498	28	-56.5	-89.6	291	10
2023-09-30T12:00	24531	28	-56.6	-89.7	294	10
2023-09-30T12:00	24561	28	-56.7	-89.8	296	10
2023-09-30T12:00	24587	27	-56.8	-89.9	298	10
2023-09-30T12:00	24618	27	-56.8	-89.9	299	11
2023-09-30T12:00	24646	27	-56.6	-90.7	300	11
2023-09-30T12:00	24672	27	-56.4	-90.6	301	11
2023-09-30T12:00	24702	27	-56.2	-90.4	303	10
2023-09-30T12:00	24732	27	-55.8	-90.1	305	10
2023-09-30T12:00	24758	27	-55.6	-90.0	307	9
2023-09-30T12:00	24789	27	-55.4	-89.9	309	9
2023-09-30T12:00	24821	26	-55.4	-89.9	312	8
2023-09-30T12:00	24839	26	-55.4	-89.9	315	7
2023-09-30T12:00	24869	26	-55.5	-89.9	319	7
2023-09-30T12:00	24900	26	-55.5	-89.9	323	6
2023-09-30T12:00	24925	26	-55.4	-89.9	327	6
2023-09-30T12:00	24950	26	-55.4	-89.9	330	5
2023-09-30T12:00	24985	26	-55.4	-89.9	330	5
2023-09-30T12:00	25007	26	-55.5	-89.9	329	4
2023-09-30T12:00	25034	26	-55.6	-90.0	324	4
2023-09-30T12:00	25060	25	-55.6	-90.0	318	4
2023-09-30T12:00	25085	25	-55.5	-89.9	310	4
2023-09-30T12:00	25117	25	-55.2	-89.7	304	4
2023-09-30T12:00	25146	25	-55.0	-89.6	299	5
2023-09-30T12:00	25168	25	-55.0	-89.6	295	6
2023-09-30T12:00	25189	25	-55.0	-89.6	292	6
2023-09-30T12:00	25219	25	-55.0	-89.6	290	6
2023-09-30T12:00	25249	25	-55.1	-89.6	288	7
2023-09-30T12:00	25281	25	-55.0	-89.6	288	7
2023-09-30T12:00	25299	25	-55.1	-89.6	288	8
2023-09-30T12:00	25331	24	-55.2	-89.7	289	8
2023-09-30T12:00	25360	24	-55.3	-89.8	291	9
2023-09-30T12:00	25383	24	-55.4	-89.9	292	9
2023-09-30T12:00	25412	24	-55.4	-89.9	292	8
2023-09-30T12:00	25440	24	-55.1	-89.6	292	8
2023-09-30T12:00	25470	24	-54.8	-89.4	290	7
2023-09-30T12:00	25491	24	-54.7	-89.4	287	7
2023-09-30T12:00	25524	24	-54.7	-89.4	283	6
2023-09-30T12:00	25552	24	-54.7	-89.4	278	6
2023-09-30T12:00	25573	23	-54.9	-89.5	274	6
2023-09-30T12:00	25606	23	-54.9	-89.5	272	6
2023-09-30T12:00	25640	23	-54.9	-89.5	270	6
2023-09-30T12:00	25660	23	-54.8	-89.4	270	7
2023-09-30T12:00	25689	23	-54.9	-89.5	270	7
2023-09-30T12:00	25708	23	-55.0	-89.6	270	7
2023-09-30T12:00	25741	23	-55.0	-89.6	271	8
2023-09-30T12:00	25770	23	-54.9	-89.5	273	8
2023-09-30T12:00	25802	23	-54.7	-89.4	276	8
2023-09-30T12:00	25823	23	-54.6	-89.3	281	8
2023-09-30T12:00	25851	22	-54.5	-89.2	285	8
2023-09-30T12:00	25879	22	-54.6	-89.3	290	8
2023-09-30T12:00	25911	22	-54.4	-89.1	295	9
2023-09-30T12:00	25933	22	-54.2	-89.0	299	9
2023-09-30T12:00	25957	22	-54.2	-89.0	303	9
2023-09-30T12:00	25990	22	-54.2	-89.0	306	9
2023-09-30T12:00	26019	22	-54.2	-89.0	309	9
2023-09-30T12:00	26053	22	-54.2	-89.0	312	9
2023-09-30T12:00	26076	22	-54.2	-89.0	315	9
2023-09-30T12:00	26105	22	-54.3	-89.1	318	9
2023-09-30T12:00	26133	22	-54.2	-89.0	321	9
2023-09-30T12:00	26161	21	-54.0	-88.9	324	9
2023-09-30T12:00	26186	21	-54.0	-88.9	327	9
2023-09-30T12:00	26211	21	-54.0	-88.9	328	9
2023-09-30T12:00	26246	21	-54.1	-88.9	329	8
2023-09-30T12:00	26268	21	-54.1	-88.9	328	8
2023-09-30T12:00	26306	21	-54.0	-88.9	325	7
2023-09-30T12:00	26327	21	-53.7	-88.7	322	7
2023-09-30T12:00	26363	21	-53.4	-88.4	316	6
2023-09-30T12:00	26379	21	-53.1	-88.2	309	5
2023-09-30T12:00	26416	21	-53.0	-88.2	301	5
2023-09-30T12:00	26441	21	-52.9	-88.1	290	5
2023-09-30T12:00	26476	20	-52.8	-88.0	281	5
2023-09-30T12:00	26500	20	-52.8	-88.0	273	5
2023-09-30T12:00	26527	20	-52.9	-88.1	268	6
2023-09-30T12:00	26566	20	-53.0	-88.2	264	7
2023-09-30T12:00	26579	20	-53.1	-88.2	263	8
2023-09-30T12:00	26617	20	-53.2	-88.3	263	9
2023-09-30T12:00	26640	20	-53.2	-88.3	265	10
2023-09-30T12:00	26668	20	-53.1	-88.2	267	10
2023-09-30T12:00	26693	20	-53.0	-88.2	270	11
2023-09-30T12:00	26721	20	-53.0	-88.2	272	11
2023-09-30T12:00	26754	20	-53.0	-88.2	274	11
2023-09-30T12:00	26788	19	-53.1	-88.2	275	11
2023-09-30T12:00	26811	19	-53.0	-88.2	276	12
2023-09-30T12:00	26841	19	-52.7	-87.9	277	11
2023-09-30T12:00	26871	19	-52.8	-88.0	278	11
2023-09-30T12:00	26900	19	-53.0	-88.2	279	11
2023-09-30T12:00	26927	19	-53.2	-88.3	280	11
2023-09-30T12:00	26961	19	-53.4	-88.4	280	11
2023-09-30T12:00	26992	19	-53.5	-88.5	281	11
2023-09-30T12:00	27020	19	-53.5	-88.5	282	11
2023-09-30T12:00	27048	19	-53.7	-88.7	283	11
2023-09-30T12:00	27080	19	-53.8	-88.7	285	11
2023-09-30T12:00	27115	18	-53.7	-88.7	287	10
2023-09-30T12:00	27146	18	-53.5	-88.5	290	10
2023-09-30T12:00	27175	18	-53.6	-88.6	293	10
2023-09-30T12:00	27199	18	-53.8	-88.7	297	10
2023-09-30T12:00	27236	18	-53.9	-88.8	299	10
2023-09-30T12:00	27255	18	-53.9	-88.8	301	10
2023-09-30T12:00	27296	18	-53.9	-88.8	302	10
2023-09-30T12:00	27319	18	-53.9	-88.8	301	9
2023-09-30T12:00	27349	18	-53.8	-88.7	298	9
2023-09-30T12:00	27372	18	-53.7	-88.7	295	9
2023-09-30T12:00	27411	18	-53.7	-88.7	290	8
2023-09-30T12:00	27442	18	-53.8	-88.7	286	8
2023-09-30T12:00	27465	18	-53.8	-88.7	280	8
2023-09-30T12:00	27485	17	-53.7	-88.7	276	8
2023-09-30T12:00	27514	17	-53.5	-88.5	272	9
2023-09-30T12:00	27544	17	-53.4	-88.4	269	9
2023-09-30T12:00	27560	17	-53.3	-88.4	268	10
2023-09-30T12:00	27606	17	-53.3	-88.4	268	10
2023-09-30T12:00	27637	17	-53.2	-88.3	270	10
2023-09-30T12:00	27657	17	-53.2	-88.3	271	10
2023-09-30T12:00	27685	17	-53.3	-88.4	272	9
2023-09-30T12:00	27716	17	-53.4	-88.4	272	9
2023-09-30T12:00	27743	17	-53.5	-88.5	272	8
2023-09-30T12:00	27776	17	-53.7	-88.7	272	8
2023-09-30T12:00	27801	17	-53.9	-88.8	273	8
2023-09-30T12:00	27833	17	-54.0	-88.9	274	8
2023-09-30T12:00	27859	16	-54.0	-88.9	276	8
2023-09-30T12:00	27887	16	-54.0	-88.9	277	8
2023-09-30T12:00	27920	16	-54.0	-88.9	278	8
2023-09-30T12:00	27953	16	-53.9	-88.8	278	8
2023-09-30T12:00	27983	16	-54.0	-88.9	277	8
2023-09-30T12:00	28003	16	-54.1	-88.9	276	8
2023-09-30T12:00	28032	16	-54.2	-89.0	275	8
2023-09-30T12:00	28076	16	-54.0	-88.9	274	8
2023-09-30T12:00	28095	16	-53.7	-88.7	275	8
2023-09-30T12:00	28123	16	-53.4	-88.4	276	9
2023-09-30T12:00	28148	16	-53.3	-88.4	278	9
2023-09-30T12:00	28170	16	-53.0	-88.2	281	9
2023-09-30T12:00	28199	16	-52.7	-87.9	284	8
2023-09-30T12:00	28229	16	-52.4	-87.7	286	8
2023-09-30T12:00	28260	15	-52.2	-87.6	288	8
2023-09-30T12:00	28289	15	-52.3	-87.7	288	8
2023-09-30T12:00	28311	15	-52.6	-87.9	286	8
2023-09-30T12:00	28342	15	-52.7	-87.9	284	9
2023-09-30T12:00	28378	15	-52.7	-87.9	281	9
2023-09-30T12:00	28395	15	-52.7	-87.9	279	10
2023-09-30T12:00	28425	15	-52.8	-88.0	278	10
2023-09-30T12:00	28454	15	-52.7	-87.9	277	11
2023-09-30T12:00	28470	15	-52.4	-87.7	277	11
2023-09-30T12:00	28498	15	-52.1	-87.5	277	10
2023-09-30T12:00	28537	15	-51.9	-87.4	279	10
2023-09-30T12:00	28567	15	-51.8	-87.3	281	10
2023-09-30T12:00	28588	15	-51.6	-87.2	284	10
2023-09-30T12:00	28613	15	-51.5	-87.1	286	10
2023-09-30T12:00	28642	15	-51.5	-87.1	287	10
2023-09-30T12:00	28679	15	-51.5	-87.1	287	10
2023-09-30T12:00	28705	14	-51.3	-87.0	286	11
2023-09-30T12:00	28733	14	-50.8	-86.6	284	10
2023-09-30T12:00	28752	14	-50.4	-86.3	282	10
2023-09-30T12:00	28787	14	-50.1	-86.1	280	10
2023-09-30T12:00	28801	14	-50.1	-86.1	277	10
2023-09-30T12:00	28840	14	-50.2	-86.2	274	10
2023-09-30T12:00	28858	14	-50.3	-86.2	271	10
2023-09-30T12:00	28881	14	-50.2	-86.2	268	9
2023-09-30T12:00	28922	14	-50.3	-86.2	265	9
2023-09-30T12:00	28954	14	-50.4	-86.3	262	9
2023-09-30T12:00	28975	14	-50.4	-86.3	259	8
2023-09-30T12:00	29000	14	-50.4	-86.3	256	8
2023-09-30T12:00	29036	14	-50.5	-86.4	254	8
2023-09-30T12:00	29052	14	-50.7	-86.5	253	8
2023-09-30T12:00	29089	14	-50.7	-86.5	253	8
2023-09-30T12:00	29117	14	-50.5	-86.4	255	8
2023-09-30T12:00	29133	14	-50.4	-86.3	258	9
2023-09-30T12:00	29168	13	-50.4	-86.3	263	9
2023-09-30T12:00	29201	13	-50.3	-86.2	267	9
2023-09-30T12:00	29220	13	-50.2	-86.2	272	10
2023-09-30T12:00	29264	13	-50.1	-86.1	276	10
2023-09-30T12:00	29285	13	-50.2	-86.2	279	11
2023-09-30T12:00	29305	13	-50.4	-86.3	282	11
2023-09-30T12:00	29329	13	-50.6	-86.5	284	11
2023-09-30T12:00	29369	13	-50.7	-86.5	285	12
2023-09-30T12:00	29393	13	-50.7	-86.5	285	12
2023-09-30T12:00	29425	13	-50.7	-86.5	285	13
2023-09-30T12:00	29455	13	-50.6	-86.5	284	13
2023-09-30T12:00	29475	13	-50.6	-86.5	283	13
2023-09-30T12:00	29499	13	-50.5	-86.4	281	14
2023-09-30T12:00	29527	13	-50.4	-86.3	279	14
2023-09-30T12:00	29572	13	-50.3	-86.2	278	14
2023-09-30T12:00	29600	13	-50.2	-86.2	277	14
2023-09-30T12:00	29631	13	-50.0	-86.0	277	14
2023-09-30T12:00	29658	12	-49.8	-85.9	277	14
2023-09-30T12:00	29682	12	-49.5	-85.7	277	14
2023-09-30T12:00	29715	12	-49.4	-85.6	277	14
2023-09-30T12:00	29751	12	-49.3	-85.5	277	13
2023-09-30T12:00	29792	12	-49.4	-85.6	277	13
2023-09-30T12:00	29813	12	-49.5	-85.7	277	13
2023-09-30T12:00	29838	12	-49.7	-85.8	276	12
2023-09-30T12:00	29887	12	-49.9	-86.0	276	12
2023-09-30T12:00	29903	12	-50.1	-86.1	275	12
2023-09-30T12:00	29941	12	-50.4	-86.3	274	11
2023-09-30T12:00	29972	12	-50.6	-86.5	274	11
2023-09-30T12:00	29989	12	-50.9	-86.7	273	11
2023-09-30T12:00	30025	12	-51.1	-86.8	272	11
2023-09-30T12:00	30058	12	-51.3	-87.0	271	10
2023-09-30T12:00	30087	12	-51.6	-87.2	270	10
2023-09-30T12:00	30118	12	-51.8	-87.3	267	10
2023-09-30T12:00	30148	12	-51.8	-87.3	265	10
2023-09-30T12:00	30173	12	-51.8	-87.3	263	11
2023-09-30T12:00	30216	11	-51.8	-87.3	262	11
2023-09-30T12:00	30239	11	-51.8	-87.3	260	11
2023-09-30T12:00	30269	11	-51.8	-87.3	259	11
2023-09-30T12:00	30304	11	-51.8	-87.3	259	11
2023-09-30T12:00	30329	11	-51.9	-87.4	259	11
2023-09-30T12:00	30365	11	-52.1	-87.5	259	11
2023-09-30T12:00	30381	11	-52.3	-87.7	260	12
2023-09-30T12:00	30413	11	-52.4	-87.7	261	12
2023-09-30T12:00	30437	11	-52.6	-87.9	262	12
2023-09-30T12:00	30467	11	-52.8	-88.0	265	12
2023-09-30T12:00	30498	11	-52.8	-88.0	267	13
2023-09-30T12:00	30526	11	-52.7	-87.9	269	13
2023-09-30T12:00	30563	11	-52.5	-87.8	271	13
2023-09-30T12:00	30592	11	-52.2	-87.6	272	14
2023-09-30T12:00	30604	11	-52.0	-87.4	273	15
2023-09-30T12:00	30649	11	-51.8	-87.3	274	15
2023-09-30T12:00	30664	11	-51.8	-87.3	275	16
2023-09-30T12:00	30698	11	-51.8	-87.3	275	17
2023-09-30T12:00	30718	11	-51.7	-87.2	275	18
2023-09-30T12:00	30755	11	-51.4	-87.0	275	18
2023-09-30T12:00	30777	11	-51.2	-86.9	275	18
2023-09-30T12:00	30791	10	-51.1	-86.8	275	17
2023-09-30T12:00	30829	10	-51.0	-86.7	274	17
2023-09-30T12:00	30855	10	-51.0	-86.7	275	16
2023-09-30T12:00	30878	10	-51.1	-86.8	275	15
2023-09-30T12:00	30909	10	-51.3	-87.0	276	15
2023-09-30T12:00	30938	10	-51.4	-87.0	277	14
2023-09-30T12:00	30982	10	-51.4	-87.0	277	14
2023-09-30T12:00	30994	10	-51.5	-87.1	277	14
2023-09-30T12:00	31035	10	-51.4	-87.0	275	14
2023-09-30T12:00	31052	10	-51.2	-86.9	274	13
2023-09-30T12:00	31078	10	-51.0	-86.7	272	13
2023-09-30T12:00	31116	10	-50.9	-86.7	270	13
2023-09-30T12:00	31139	10	-51.0	-86.7	268	14
2023-09-30T12:00	31160	10	-51.0	-86.7	266	14
2023-09-30T12:00	31201	10	-51.1	-86.8	264	15
2023-09-30T12:00	31218	10	-51.1	-86.8	263	15
2023-09-30T12:00	31251	10	-51.1	-86.8	261	16
2023-09-30T12:00	31279	10	-51.1	-86.8	260	16
2023-09-30T12:00	31313	10	-51.0	-86.7	259	16
2023-09-30T12:00	31344	10	-50.9	-86.7	259	17
2023-09-30T12:00	31391	10	-51.0	-86.7	259	17
2023-09-30T12:00	31409	10	-51.1	-86.8	259	17
2023-09-30T12:00	31440	10	-51.2	-86.9	260	17
2023-09-30T12:00	31482	9	-51.4	-87.0	261	17
2023-09-30T12:00	31493	9	-51.6	-87.2	262	17
2023-09-30T12:00	31527	9	-51.8	-87.3	263	17
2023-09-30T12:00	31566	9	-51.8	-87.3	264	17
2023-09-30T12:00	31585	9	-51.9	-87.4	265	17
2023-09-30T12:00	31624	9	-52.0	-87.4	265	17
2023-09-30T12:00	31654	9	-52.2	-87.6	265	17
2023-09-30T12:00	31697	9	-52.4	-87.7	264	18
2023-09-30T12:00	31718	9	-52.5	-87.8	264	18
2023-09-30T12:00	31739	9	-52.5	-87.8	263	19
2023-09-30T12:00	31781	9	-52.5	-87.8	263	19
2023-09-30T12:00	31809	9	-52.4	-87.7	263	19
2023-09-30T12:00	31843	9	-52.4	-87.7	263	19
2023-09-30T12:00	31859	9	-52.4	-87.7	264	19
2023-09-30T12:00	31889	9	-52.3	-87.7	266	19
2023-09-30T12:00	31911	9	-52.2	-87.6	268	19
2023-09-30T12:00	31948	9	-52.0	-87.4	271	20
2023-09-30T12:00	31973	9	-51.8	-87.3	273	21
2023-09-30T12:00	31988	9	-51.3	-87.0	276	21
2023-09-30T12:00	32016	9	-50.5	-86.4	278	22
2023-09-30T12:00	32037	9	-49.9	-86.0	281	23
2023-09-30T12:00	32062	9	-49.5	-85.7	283	23
2023-09-30T12:00	32084	9	-49.2	-85.5	286	23
2023-09-30T12:00	32109	9	-49.1	-85.4	289	23
2023-09-30T12:00	32126	9	-49.0	-85.3	291	23
2023-09-30T12:00	32159	9	-48.7	-85.1	294	23
2023-09-30T12:00	32177	8	-48.4	-84.9	295	23
2023-09-30T12:00	32202	8	-48.1	-84.7	297	22
2023-09-30T12:00	32237	8	-48.0	-84.6	299	22
2023-09-30T12:00	32273	8	-48.1	-84.7	300	21
2023-09-30T12:00	32281	8	-48.1	-84.7	301	21
2023-09-30T12:00	32305	8	-48.1	-84.7	302	20
2023-09-30T12:00	32335	8	-48.2	-84.8	302	20
2023-09-30T12:00	32359	8	-48.2	-84.8	303	19
2023-09-30T12:00	32380	8	-48.0	-84.6	303	19
2023-09-30T18:00	112	1012	15.9	8.4	280	2
2023-09-30T18:00	141	1008	16.7	8.4	293	2
2023-09-30T18:00	171	1005	16.7	8.1	293	3
2023-09-30T18:00	196	1002	16.4	8.1	295	4
2023-09-30T18:00	225	998	16.3	7.5	296	5
2023-09-30T18:00	249	995	16.0	7.5	296	6
2023-09-30T18:00	283	992	16.0	6.5	297	7
2023-09-30T18:00	310	988	15.8	6.5	297	7
2023-09-30T18:00	335	985	15.5	6.4	296	8
2023-09-30T18:00	359	983	15.3		295	8
2023-09-30T18:00	384	980	15.1	6.5	294	8
2023-09-30T18:00	410	977	14.9	6.4	292	8
2023-09-30T18:00	433	974	14.6	6.3	291	8
2023-09-30T18:00	454	971	14.5	6.4	291	8
2023-09-30T18:00	482	968	14.2	6.3	292	8
2023-09-30T18:00	506	966	14.0	6.4	292	7
2023-09-30T18:00	530	963	13.7	6.4	292	7
2023-09-30T18:00	553	960	13.5	6.8	292	7
2023-09-30T18:00	580	957	13.2	6.8	291	7
2023-09-30T18:00	604	954	13.0	6.9	290	7
2023-09-30T18:00	632	951	12.7	6.8	288	7
2023-09-30T18:00	662	948	12.4	6.6	288	7
2023-09-30T18:00	690	945	12.2	6.7	288	7
2023-09-30T18:00	715	942	12.0	6.5	289	7
2023-09-30T18:00	739	939	11.7	6.4	289	8
2023-09-30T18:00	766	936	11.5	6.4	290	8
2023-09-30T18:00	790	933	11.2	6.3	290	8
2023-09-30T18:00	817	931	11.0	6.0	289	8
2023-09-30T18:00	841	928	10.8	5.9	288	8
2023-09-30T18:00	864	925	10.6	5.7	286	8
2023-09-30T18:00	889	923	10.4	5.6	285	8
2023-09-30T18:00	914	920	10.2	5.4	286	8
2023-09-30T18:00	943	917	9.9	5.3	286	8
2023-09-30T18:00	970	914	9.7	5.3	288	8
2023-09-30T18:00	998	911	9.4	5.1	289	8
2023-09-30T18:00	1024	908	9.1	5.0	290	8
2023-09-30T18:00	1049	905	8.9	4.8	290	8
2023-09-30T18:00	1073	902	8.7	4.9	290	8
2023-09-30T18:00	1101	899	8.4	4.6	290	8
2023-09-30T18:00	1128	896	8.2	4.4	290	8
2023-09-30T18:00	1157	893	7.9	4.2	290	8
2023-09-30T18:00	1185	890	7.7	4.2	290	9
2023-09-30T18:00	1212	887	7.5	4.0	290	9
2023-09-30T18:00	1240	884	7.2	3.9	289	9
2023-09-30T18:00	1271	881	6.9	3.7	289	9
2023-09-30T18:00	1297	878	6.7	3.6	289	9
2023-09-30T18:00	1324	875	6.5	3.5	289	9
2023-09-30T18:00	1351	872	6.3	3.4	289	9
2023-09-30T18:00	1377	870	6.0	3.3	289	9
2023-09-30T18:00	1402	867	5.8	3.2	289	9
2023-09-30T18:00	1433	864	5.5	3.1	289	9
2023-09-30T18:00	1460	861	5.3	3.0	289	9
2023-09-30T18:00	1490	858	5.1	2.8	289	10
2023-09-30T18:00	1518	855	4.9	2.7	291	10
2023-09-30T18:00	1541	852	4.6	2.4	292	10
2023-09-30T18:00	1571	849	4.4	2.3	294	10
2023-09-30T18:00	1595	847	4.2	2.2	295	10
2023-09-30T18:00	1622	844	4.0	2.1	296	10
2023-09-30T18:00	1650	841	3.8	1.2	296	10
2023-09-30T18:00	1679	838	3.7	0.6	295	10
2023-09-30T18:00	1706	835	3.5	0.4	295	10
2023-09-30T18:00	1728	833	3.3	0.2	294	11
2023-09-30T18:00	1753	831	3.1	0.0	293	10
2023-09-30T18:00	1779	828	2.9	-0.4	292	10
2023-09-30T18:00	1805	825	2.8	-0.7	290	10
2023-09-30T18:00	1828	823	2.8	-1.8	289	10
2023-09-30T18:00	1854	820	2.9	-3.0	288	10
2023-09-30T18:00	1877	818	3.0	-4.9	288	10
2023-09-30T18:00	1905	815	4.0	-9.7	289	10
2023-09-30T18:00	1931	812	4.5	-12.0	289	10
2023-09-30T18:00	1954	810	4.8	-14.4	290	10
2023-09-30T18:00	1982	807	5.1	-15.9	290	10
2023-09-30T18:00	2009	805	5.3	-14.6	291	11
2023-09-30T18:00	2034	802	5.7	-12.7	292	11
2023-09-30T18:00	2061	800	5.5	-12.6	293	11
2023-09-30T18:00	2089	797	5.5	-12.8	294	11
2023-09-30T18:00	2112	794	5.5	-13.2	294	11
2023-09-30T18:00	2138	792	5.7	-14.4	295	11
2023-09-30T18:00	2166	789	5.6	-15.6	296	11
2023-09-30T18:00	2192	787	5.5	-16.0	297	11
2023-09-30T18:00	2217	784	5.5	-16.5	297	10
2023-09-30T18:00	2246	782	5.4	-17.0	297	10
2023-09-30T18:00	2274	779	5.3	-16.8	296	10
2023-09-30T18:00	2302	776	5.2	-16.9	296	9
2023-09-30T18:00	2339	773	5.0	-16.1	296	9
2023-09-30T18:00	2367	770	4.8	-16.6	297	9
2023-09-30T18:00	2396	767	4.6	-17.1	297	9
2023-09-30T18:00	2423	765	4.5	-17.7	298	9
2023-09-30T18:00	2453	762	4.2	-17.8	298	9
2023-09-30T18:00	2481	759	4.0	-18.3	298	9
2023-09-30T18:00	2510	757	4.1	-18.1	299	9
2023-09-30T18:00	2541	754	3.9	-15.0	300	9
2023-09-30T18:00	2567	751	3.6	-14.7	300	9
2023-09-30T18:00	2597	749	3.4	-14.9	300	9
2023-09-30T18:00	2621	746	3.2	-15.0	298	10
2023-09-30T18:00	2653	744	3.0	-14.9	297	10
2023-09-30T18:00	2678	741	2.8	-14.9	295	10
2023-09-30T18:00	2708	738	2.6	-14.8	294	10
2023-09-30T18:00	2741	736	2.4	-14.9	293	10
2023-09-30T18:00	2768	733	2.2	-15.1	292	10
2023-09-30T18:00	2800	730	2.0	-15.8	292	10
2023-09-30T18:00	2827	728	1.8	-15.3	292	11
2023-09-30T18:00	2855	725	1.6	-14.0	292	11
2023-09-30T18:00	2883	723	1.4	-14.5	292	11
2023-09-30T18:00	2910	720	1.2	-14.7	293	11
2023-09-30T18:00	2938	718	1.0	-14.9	294	12
2023-09-30T18:00	2963	715	0.8	-15.9	295	12
2023-09-30T18:00	2991	713	0.6	-16.5	296	12
2023-09-30T18:00	3019	711	0.5	-17.0	297	13
2023-09-30T18:00	3046	708	0.3	-17.3	298	13
2023-09-30T18:00	3075	706	0.2	-16.3	299	13
2023-09-30T18:00	3105	703	0.0	-15.5	299	13
2023-09-30T18:00	3132	700	-0.1	-15.4	299	13
2023-09-30T18:00	3161	698	-0.2	-16.0	298	13
2023-09-30T18:00	3190	695	-0.3	-15.8	298	13
2023-09-30T18:00	3225	692	-0.5	-16.5	297	13
2023-09-30T18:00	3255	690	-0.6	-16.9	297	13
2023-09-30T18:00	3284	687	-0.7	-16.9	296	13
2023-09-30T18:00	3316	685	-0.9	-16.7	296	13
2023-09-30T18:00	3345	682	-1.1	-15.2	297	13
2023-09-30T18:00	3372	680	-1.3	-14.9	297	13
2023-09-30T18:00	3403	677	-1.3	-15.6	298	13
2023-09-30T18:00	3434	674	-1.5	-15.7	298	14
2023-09-30T18:00	3464	672	-1.6	-16.5	299	14
2023-09-30T18:00	3489	670	-1.6	-16.3	299	15
2023-09-30T18:00	3517	668	-1.4	-16.4	300	15
2023-09-30T18:00	3545	665	-1.4	-17.1	301	15
2023-09-30T18:00	3575	663	-1.3	-17.5	301	15
2023-09-30T18:00	3602	660	-1.4	-17.7	303	15
2023-09-30T18:00	3631	658	-1.6	-18.0	304	15
2023-09-30T18:00	3661	656	-1.7	-18.3	305	15
2023-09-30T18:00	3690	653	-1.9	-18.2	305	15
2023-09-30T18:00	3723	651	-2.0	-18.4	305	15
2023-09-30T18:00	3754	648	-2.0	-18.9	304	15
2023-09-30T18:00	3786	645	-2.2	-19.2	303	15
2023-09-30T18:00	3816	643	-2.3	-19.9	302	15
2023-09-30T18:00	3845	641	-2.3	-20.4	301	15
2023-09-30T18:00	3872	638	-2.3	-20.7	300	15
2023-09-30T18:00	3899	636	-2.2	-21.1	301	15
2023-09-30T18:00	3927	634	-2.2	-21.4	302	14
2023-09-30T18:00	3955	632	-2.3	-21.5	304	14
2023-09-30T18:00	3981	630	-2.5	-21.8	306	14
2023-09-30T18:00	4012	627	-2.7	-21.7	306	14
2023-09-30T18:00	4038	625	-2.9	-21.7	306	14
2023-09-30T18:00	4065	623	-3.1	-21.6	306	14
2023-09-30T18:00	4095	621	-3.3	-21.7	305	14
2023-09-30T18:00	4127	618	-3.5	-22.1	304	14
2023-09-30T18:00	4159	616	-3.7	-22.3	304	14
2023-09-30T18:00	4189	613	-3.8	-22.4	305	14
2023-09-30T18:00	4218	611	-4.0	-23.1	305	14
2023-09-30T18:00	4248	609	-4.2	-23.4	304	14
2023-09-30T18:00	4274	607	-4.5	-23.6	303	14
2023-09-30T18:00	4303	604	-4.4	-24.1	302	14
2023-09-30T18:00	4334	602	-4.6	-25.0	302	14
2023-09-30T18:00	4364	600	-4.7	-25.5	302	15
2023-09-30T18:00	4389	598	-4.9	-26.6	303	15
2023-09-30T18:00	4417	596	-5.2	-26.1	303	16
2023-09-30T18:00	4448	594	-5.4	-25.9	303	16
2023-09-30T18:00	4474	591	-5.5	-26.4	303	17
2023-09-30T18:00	4503	589	-5.7	-26.6	303	17
2023-09-30T18:00	4529	587	-5.9	-26.9	302	17
2023-09-30T18:00	4557	585	-6.0	-27.0	302	17
2023-09-30T18:00	4585	583	-6.2	-27.3	302	17
2023-09-30T18:00	4611	581	-6.5	-27.5	303	17
2023-09-30T18:00	4636	579	-6.7	-28.2	302	17
2023-09-30T18:00	4665	577	-6.8	-28.4	302	17
2023-09-30T18:00	4693	575	-7.1	-28.6	302	17
2023-09-30T18:00	4721	573	-7.3	-28.6	301	17
2023-09-30T18:00	4751	571	-7.5	-28.9	302	17
2023-09-30T18:00	4780	569	-7.7	-29.3	302	17
2023-09-30T18:00	4810	567	-7.9	-29.4	302	17
2023-09-30T18:00	4841	564	-8.2	-29.5	302	17
2023-09-30T18:00	4868	562	-8.4	-30.0	303	17
2023-09-30T18:00	4899	560	-8.6	-30.1	303	17
2023-09-30T18:00	4930	558	-8.8	-30.4	303	17
2023-09-30T18:00	4957	556	-9.0	-30.2	302	17
2023-09-30T18:00	4983	554	-9.3	-31.1	302	17
2023-09-30T18:00	5012	552	-9.5	-31.5	302	17
2023-09-30T18:00	5039	550	-9.7	-31.3	302	16
2023-09-30T18:00	5073	548	-10.0	-31.2	301	16
2023-09-30T18:00	5104	545	-10.3	-31.4	301	17
2023-09-30T18:00	5134	543	-10.5	-31.6	300	17
2023-09-30T18:00	5166	541	-10.7	-31.9	299	17
2023-09-30T18:00	5194	539	-10.9	-32.1	298	17
2023-09-30T18:00	5219	537	-11.1	-32.3	298	17
2023-09-30T18:00	5249	535	-11.3	-35.0	297	17
2023-09-30T18:00	5280	533	-11.5	-34.8	297	17
2023-09-30T18:00	5315	531	-11.8	-31.2	298	17
2023-09-30T18:00	5349	528	-12.1	-30.0	298	17
2023-09-30T18:00	5382	526	-12.4	-29.4	298	17
2023-09-30T18:00	5416	524	-12.7	-29.1	298	17
2023-09-30T18:00	5445	522	-13.0	-29.6	297	17
2023-09-30T18:00	5474	520	-13.2	-29.7	297	17
2023-09-30T18:00	5505	517	-13.5	-30.3	296	17
2023-09-30T18:00	5537	515	-13.8	-30.5	296	17
2023-09-30T18:00	5558	514	-13.9	-30.6	297	16
2023-09-30T18:00	5588	512	-14.2	-30.2	298	16
2023-09-30T18:00	5611	510	-14.4	-29.5	300	17
2023-09-30T18:00	5640	508	-14.6	-29.1	301	17
2023-09-30T18:00	5675	506	-14.8	-30.0	302	17
2023-09-30T18:00	5708	504	-15.0	-30.3	302	17
2023-09-30T18:00	5742	502	-15.3	-29.9	302	17
2023-09-30T18:00	5776	499	-15.5	-30.2	302	17
2023-09-30T18:00	5811	497	-15.7	-32.1	302	16
2023-09-30T18:00	5843	495	-15.8	-36.2	303	16
2023-09-30T18:00	5873	493	-16.0	-35.2	304	16
2023-09-30T18:00	5908	491	-16.3	-33.6	304	16
2023-09-30T18:00	5940	489	-16.5	-32.4	304	17
2023-09-30T18:00	5968	487	-16.7	-32.0	303	17
2023-09-30T18:00	5996	485	-16.9	-32.2	302	18
2023-09-30T18:00	6024	483	-17.0	-31.9	302	18
2023-09-30T18:00	6047	482	-17.0	-33.3	301	19
2023-09-30T18:00	6078	480	-17.2	-32.9	301	19
2023-09-30T18:00	6110	478	-17.3	-32.4	302	20
2023-09-30T18:00	6137	476	-17.5	-32.3	302	20
2023-09-30T18:00	6173	474	-17.7	-32.4	302	21
2023-09-30T18:00	6207	471	-17.8	-32.4	302	21
2023-09-30T18:00	6238	469	-17.9	-32.7	302	22
2023-09-30T18:00	6271	467	-18.1	-32.6	301	22
2023-09-30T18:00	6304	465	-18.3	-33.8	301	21
2023-09-30T18:00	6336	464	-18.5	-34.2	302	21
2023-09-30T18:00	6360	462	-18.7	-34.5	302	21
2023-09-30T18:00	6386	460	-18.8	-35.0	303	21
2023-09-30T18:00	6411	459	-18.9	-36.3	303	21
2023-09-30T18:00	6441	457	-19.0	-37.4	304	22
2023-09-30T18:00	6473	455	-19.3	-38.3	305	22
2023-09-30T18:00	6498	453	-19.4	-39.3	306	23
2023-09-30T18:00	6530	451	-19.4	-45.7	308	23
2023-09-30T18:00	6564	450	-19.5	-42.6	310	24
2023-09-30T18:00	6595	448	-19.5	-41.5	311	24
2023-09-30T18:00	6623	446	-19.6	-38.2	313	24
2023-09-30T18:00	6652	444	-19.7	-35.3	314	25
2023-09-30T18:00	6678	443	-19.7	-33.5	315	25
2023-09-30T18:00	6703	441	-19.7	-31.6	315	25
2023-09-30T18:00	6729	440	-19.8	-30.2	316	25
2023-09-30T18:00	6762	438	-20.0	-29.5	316	26
2023-09-30T18:00	6797	436	-20.1	-27.7	316	26
2023-09-30T18:00	6832	434	-20.4	-27.1	316	27
2023-09-30T18:00	6867	431	-20.7	-26.9	316	27
2023-09-30T18:00	6899	430	-21.0	-27.0	316	28
2023-09-30T18:00	6934	428	-21.3	-26.3	315	29
2023-09-30T18:00	6967	426	-21.6		315	29
2023-09-30T18:00	7003	424	-21.9	-26.0	314	29
2023-09-30T18:00	7029	422	-22.1		314	29
2023-09-30T18:00	7054	421	-22.2	-25.8	314	29
2023-09-30T18:00	7086	419	-22.5	-26.1	314	29
2023-09-30T18:00	7121	417	-22.8	-26.4	314	30
2023-09-30T18:00	7155	415	-23.0	-26.6	314	30
2023-09-30T18:00	7184	413	-23.3	-26.8	314	30
2023-09-30T18:00	7205	412	-23.4	-26.9	314	29
2023-09-30T18:00	7230	411	-23.6	-27.3	314	29
2023-09-30T18:00	7257	409	-23.7	-27.6	314	29
2023-09-30T18:00	7283	408	-23.9	-27.9	315	29
2023-09-30T18:00	7318	406	-24.2	-28.0	315	29
2023-09-30T18:00	7341	404	-24.4	-28.0	316	29
2023-09-30T18:00	7369	403	-24.6	-28.1	316	29
2023-09-30T18:00	7400	401	-24.9	-28.4	316	30
2023-09-30T18:00	7433	399	-25.1	-28.8	315	30
2023-09-30T18:00	7461	398	-25.3	-29.5	315	30
2023-09-30T18:00	7483	397	-25.4	-30.1	314	30
2023-09-30T18:00	7507	395	-25.5	-30.8	313	30
2023-09-30T18:00	7535	394	-25.6	-31.4	312	30
2023-09-30T18:00	7565	392	-25.7	-31.7	312	30
2023-09-30T18:00	7595	391	-25.6	-31.8	312	30
2023-09-30T18:00	7625	389	-25.8	-32.0	313	31
2023-09-30T18:00	7649	388	-26.0	-32.1	314	31
2023-09-30T18:00	7676	386	-26.2	-32.4	315	31
2023-09-30T18:00	7700	385	-26.4	-32.7	315	31
2023-09-30T18:00	7723	384	-26.5	-32.6	316	31
2023-09-30T18:00	7749	382	-26.6	-33.5	316	31
2023-09-30T18:00	7774	381	-26.7	-33.8	317	31
2023-09-30T18:00	7802	380	-26.9	-34.0	317	31
2023-09-30T18:00	7825	378	-27.1	-34.3	318	31
2023-09-30T18:00	7848	377	-27.3	-34.5	318	32
2023-09-30T18:00	7871	376	-27.4	-34.8	318	32
2023-09-30T18:00	7897	375	-27.6	-35.0	318	32
2023-09-30T18:00	7922	373	-27.8	-35.0	317	32
2023-09-30T18:00	7948	372	-28.0	-34.7	317	32
2023-09-30T18:00	7980	370	-28.3	-34.3	317	33
2023-09-30T18:00	8003	369	-28.5	-34.2	318	33
2023-09-30T18:00	8032	368	-28.8	-34.2	318	33
2023-09-30T18:00	8062	366	-29.1	-34.2	318	33
2023-09-30T18:00	8088	365	-29.2	-34.1	318	34
2023-09-30T18:00	8112	363	-29.5	-34.0	318	34
2023-09-30T18:00	8145	362	-29.8	-33.8	317	34
2023-09-30T18:00	8184	360	-30.1	-34.0	316	35
2023-09-30T18:00	8212	358	-30.4	-34.0	316	35
2023-09-30T18:00	8237	357	-30.6	-34.1	316	34
2023-09-30T18:00	8266	356	-30.7	-34.0	316	34
2023-09-30T18:00	8292	354	-30.9	-34.1	316	34
2023-09-30T18:00	8320	353	-31.1	-34.3	316	34
2023-09-30T18:00	8344	352	-31.2	-35.2	316	35
2023-09-30T18:00	8371	351	-31.3	-35.4	317	35
2023-09-30T18:00	8393	349	-31.5	-35.5	317	35
2023-09-30T18:00	8415	348	-31.7	-35.5	317	35
2023-09-30T18:00	8442	347	-31.9	-35.7	317	35
2023-09-30T18:00	8477	345	-31.9	-36.9	318	36
2023-09-30T18:00	8510	344	-32.2	-37.3	319	36
2023-09-30T18:00	8540	342	-32.4	-37.5	319	37
2023-09-30T18:00	8569	341	-32.6	-37.6	320	37
2023-09-30T18:00	8604	339	-32.9	-37.9	320	38
2023-09-30T18:00	8636	338	-33.1	-38.2	321	39
2023-09-30T18:00	8671	336	-33.4	-38.3	321	39
2023-09-30T18:00	8704	334	-33.7	-38.6	321	40
2023-09-30T18:00	8725	333	-33.8	-39.0	321	40
2023-09-30T18:00	8750	332	-33.9	-39.9	322	40
2023-09-30T18:00	8776	331	-34.1	-40.1	322	41
2023-09-30T18:00	8799	330	-34.2	-40.3	322	41
2023-09-30T18:00	8829	328	-34.4	-40.4	322	41
2023-09-30T18:00	8852	327	-34.7	-40.9	321	42
2023-09-30T18:00	8876	326	-34.9	-40.7	321	42
2023-09-30T18:00	8903	325	-35.1	-40.7	321	42
2023-09-30T18:00	8930	324	-35.3	-41.1	321	42
2023-09-30T18:00	8952	323	-35.5	-41.5	321	42
2023-09-30T18:00	8973	322	-35.7	-41.7	321	42
2023-09-30T18:00	8999	321	-35.9	-42.5	321	42
2023-09-30T18:00	9023	319	-36.1	-43.0	321	42
2023-09-30T18:00	9047	318	-36.3	-43.4	321	42
2023-09-30T18:00	9071	317	-36.5		320	42
2023-09-30T18:00	9090	316	-36.7	-43.2	320	41
2023-09-30T18:00	9109	315	-36.9	-43.4	320	41
2023-09-30T18:00	9133	314	-37.1	-43.7	320	41
2023-09-30T18:00	9154	313	-37.3	-43.8	320	41
2023-09-30T18:00	9176	312	-37.5	-43.9	320	40
2023-09-30T18:00	9204	311	-37.7	-44.0	320	40
2023-09-30T18:00	9235	310	-38.0	-44.1	320	40
2023-09-30T18:00	9257	309	-38.2	-44.5	320	39
2023-09-30T18:00	9279	308	-38.4	-44.8	320	39
2023-09-30T18:00	9301	307	-38.6	-44.7	320	39
2023-09-30T18:00	9325	306	-38.8	-44.9	320	40
2023-09-30T18:00	9347	305	-39.0	-45.2	320	40
2023-09-30T18:00	9376	303	-39.3	-45.6	320	40
2023-09-30T18:00	9407	302	-39.5	-46.3	321	40
2023-09-30T18:00	9428	301	-39.7	-46.4	321	40
2023-09-30T18:00	9450	300	-39.9	-46.5	322	40
2023-09-30T18:00	9472	299	-40.1	-46.5	322	40
2023-09-30T18:00	9499	298	-40.4	-46.7	322	40
2023-09-30T18:00	9523	297	-40.6	-47.0	322	40
2023-09-30T18:00	9558	296	-40.9	-47.2	322	41
2023-09-30T18:00	9580	294	-41.1	-47.4	322	41
2023-09-30T18:00	9607	293	-41.3	-47.6	322	41
2023-09-30T18:00	9631	292	-41.5	-47.7	323	42
2023-09-30T18:00	9658	291	-41.7	-47.6	323	42
2023-09-30T18:00	9682	290	-41.9	-47.9	324	42
2023-09-30T18:00	9707	289	-42.0	-48.0	324	42
2023-09-30T18:00	9731	288	-42.2	-48.1	324	42
2023-09-30T18:00	9757	287	-42.4	-48.4	324	42
2023-09-30T18:00	9781	286	-42.6	-48.8	324	42
2023-09-30T18:00	9807	285	-42.8	-49.1	324	42
2023-09-30T18:00	9829	284	-43.1	-49.2	324	42
2023-09-30T18:00	9852	283	-43.3	-49.4	324	42
2023-09-30T18:00	9874	282	-43.5	-49.5	324	42
2023-09-30T18:00	9899	281	-43.7	-49.8	324	42
2023-09-30T18:00	9921	280	-43.9	-49.9	324	42
2023-09-30T18:00	9944	279	-44.1	-50.0	325	42
2023-09-30T18:00	9971	278	-44.4	-50.1	325	42
2023-09-30T18:00	9997	277	-44.6	-50.2	325	42
2023-09-30T18:00	10029	276	-44.9	-50.6	326	43
2023-09-30T18:00	10060	274	-45.1	-51.1	326	43
2023-09-30T18:00	10085	273	-45.3	-51.3	327	43
2023-09-30T18:00	10106	272	-45.5	-51.5	327	43
2023-09-30T18:00	10126	272	-45.6	-51.8	327	43
2023-09-30T18:00	10148	271	-45.8	-52.0	328	43
2023-09-30T18:00	10170	270	-46.0	-52.2	328	44
2023-09-30T18:00	10193	269	-46.2	-52.4	328	44
2023-09-30T18:00	10217	268	-46.3	-52.6	328	44
2023-09-30T18:00	10242	267	-46.4	-52.5	328	45
2023-09-30T18:00	10267	266	-46.6	-52.4	328	45
2023-09-30T18:00	10296	265	-46.8	-52.4	328	45
2023-09-30T18:00	10319	264	-46.9	-52.5	328	46
2023-09-30T18:00	10343	263	-47.1	-52.5	327	46
2023-09-30T18:00	10370	262	-47.3	-52.7	327	46
2023-09-30T18:00	10395	261	-47.4	-53.0	327	46
2023-09-30T18:00	10420	260	-47.6	-53.1	327	47
2023-09-30T18:00	10448	259	-47.9	-53.1	326	47
2023-09-30T18:00	10467	258	-48.1	-53.3	326	47
2023-09-30T18:00	10491	257	-48.2	-53.7	326	47
2023-09-30T18:00	10514	256	-48.4	-54.1	326	47
2023-09-30T18:00	10537	255	-48.5	-54.4	326	47
2023-09-30T18:00	10562	254	-48.7	-54.6	326	47
2023-09-30T18:00	10584	253	-49.0	-54.9	326	47
2023-09-30T18:00	10610	252	-49.2	-55.1	326	47
2023-09-30T18:00	10633	251	-49.4	-55.2	327	47
2023-09-30T18:00	10660	250	-49.6	-55.3	326	47
2023-09-30T18:00	10686	249	-49.8	-55.6	326	48
2023-09-30T18:00	10714	248	-50.0	-55.9	326	48
2023-09-30T18:00	10737	248	-50.2	-56.4	327	48
2023-09-30T18:00	10760	247	-50.3	-56.7	327	49
2023-09-30T18:00	10783	246	-50.4	-56.6	327	49
2023-09-30T18:00	10806	245	-50.6	-56.6	327	50
2023-09-30T18:00	10837	244	-50.8	-56.6	327	51
2023-09-30T18:00	10867	243	-51.1	-56.8	327	51
2023-09-30T18:00	10895	242	-51.1	-56.9	327	52
2023-09-30T18:00	10923	241	-51.4	-57.2	327	53
2023-09-30T18:00	10946	240	-51.6	-57.4	327	53
2023-09-30T18:00	10973	239	-51.7	-57.4	328	54
2023-09-30T18:00	10999	238	-52.0	-57.6	328	54
2023-09-30T18:00	11029	237	-52.2	-57.8	328	55
2023-09-30T18:00	11067	235	-52.5	-58.2	328	55
2023-09-30T18:00	11102	234	-52.7	-58.6	328	55
2023-09-30T18:00	11126	233	-52.9	-59.1	328	55
2023-09-30T18:00	11152	232	-53.1	-59.5	328	55
2023-09-30T18:00	11175	231	-53.3	-59.9	328	55
2023-09-30T18:00	11198	231	-53.4	-60.4	328	56
2023-09-30T18:00	11221	230	-53.6	-61.0	328	56
2023-09-30T18:00	11244	229	-53.8	-61.5	328	56
2023-09-30T18:00	11268	228	-54.0	-61.5	328	56
2023-09-30T18:00	11289	227	-54.2	-61.4	328	56
2023-09-30T18:00	11311	226	-54.4	-61.5	328	56
2023-09-30T18:00	11331	226	-54.6	-61.8	328	56
2023-09-30T18:00	11354	225	-54.8	-62.3	328	57
2023-09-30T18:00	11374	224	-54.9	-62.5	327	57
2023-09-30T18:00	11397	223	-55.1	-62.5	327	57
2023-09-30T18:00	11417	223	-55.3	-62.3	327	57
2023-09-30T18:00	11438	222	-55.5	-62.1	327	58
2023-09-30T18:00	11458	221	-55.6	-62.0	327	58
2023-09-30T18:00	11479	221	-55.8	-62.3	327	58
2023-09-30T18:00	11498	220	-56.0	-62.6	327	58
2023-09-30T18:00	11522	219	-56.2	-63.0	327	57
2023-09-30T18:00	11542	218	-56.4	-63.3	327	57
2023-09-30T18:00	11563	218	-56.5	-63.3	327	58
2023-09-30T18:00	11582	217	-56.7	-63.2	327	58
2023-09-30T18:00	11605	216	-56.9	-63.0	326	58
2023-09-30T18:00	11625	216	-57.1	-63.0	326	58
2023-09-30T18:00	11647	215	-57.3	-63.1	326	57
2023-09-30T18:00	11668	214	-57.5	-63.4	326	57
2023-09-30T18:00	11685	214	-57.6	-63.7	326	57
2023-09-30T18:00	11707	213	-57.8	-64.0	326	57
2023-09-30T18:00	11725	212	-57.9	-64.3	326	57
2023-09-30T18:00	11748	211	-57.8	-64.4	325	56
2023-09-30T18:00	11770	211	-58.0	-64.7	325	56
2023-09-30T18:00	11792	210	-58.0	-64.8	325	56
2023-09-30T18:00	11825	209	-58.2	-65.0	325	55
2023-09-30T18:00	11855	208	-58.5	-65.2	325	55
2023-09-30T18:00	11877	207	-58.7	-65.3	324	54
2023-09-30T18:00	11899	206	-58.9	-65.4	324	54
2023-09-30T18:00	11924	206	-59.1	-65.5	324	54
2023-09-30T18:00	11952	205	-59.3	-65.4	324	53
2023-09-30T18:00	11979	204	-59.6	-65.4	323	53
2023-09-30T18:00	12000	203	-59.8	-65.5	323	53
2023-09-30T18:00	12023	202	-59.9	-65.5	322	53
2023-09-30T18:00	12046	202	-60.1	-65.6	322	53
2023-09-30T18:00	12067	201	-60.3	-65.7	321	53
2023-09-30T18:00	12091	200	-60.4	-65.7	321	53
2023-09-30T18:00	12114	199	-60.5	-65.8	321	53
2023-09-30T18:00	12139	199	-60.7	-66.1	321	53
2023-09-30T18:00	12159	198	-60.8	-66.3	322	53
2023-09-30T18:00	12183	197	-60.7	-66.5	322	52
2023-09-30T18:00	12203	197	-60.8	-66.8	322	51
2023-09-30T18:00	12226	196	-61.0	-67.3	322	51
2023-09-30T18:00	12247	195	-60.9	-67.3	322	50
2023-09-30T18:00	12268	195	-61.0	-67.4	322	50
2023-09-30T18:00	12288	194	-61.1	-67.3	322	49
2023-09-30T18:00	12310	193	-61.2	-67.3	322	49
2023-09-30T18:00	12330	193	-61.4	-67.6	322	48
2023-09-30T18:00	12353	192	-61.2	-67.8	322	48
2023-09-30T18:00	12375	191	-60.9	-68.1	322	48
2023-09-30T18:00	12395	191	-60.7	-68.5	322	48
2023-09-30T18:00	12417	190	-60.8	-69.0	323	48
2023-09-30T18:00	12440	189	-60.8	-69.3	323	48
2023-09-30T18:00	12462	189	-60.7	-69.5	324	48
2023-09-30T18:00	12485	188	-60.8	-69.8	324	48
2023-09-30T18:00	12506	187	-60.9	-70.1	325	47
2023-09-30T18:00	12531	187	-60.7	-70.2	325	47
2023-09-30T18:00	12550	186	-60.6	-70.4	325	47
2023-09-30T18:00	12573	185	-60.6	-70.5	326	47
2023-09-30T18:00	12595	185	-60.7	-70.6	326	47
2023-09-30T18:00	12615	184	-60.8	-70.5	326	46
2023-09-30T18:00	12636	183	-61.0	-70.6	326	46
2023-09-30T18:00	12658	183	-61.1	-70.6	327	46
2023-09-30T18:00	12686	182	-61.2	-70.8	327	45
2023-09-30T18:00	12708	181	-61.4	-71.4	328	43
2023-09-30T18:00	12749	180	-60.8	-71.5	328	42
2023-09-30T18:00	12785	179	-60.6	-72.2	329	40
2023-09-30T18:00	12825	178	-60.8	-73.1	329	39
2023-09-30T18:00	12857	177	-60.5	-73.6	329	38
2023-09-30T18:00	12881	176	-60.6	-74.2	329	37
2023-09-30T18:00	12904	176	-60.5	-74.5	329	36
2023-09-30T18:00	12926	175	-60.6	-74.8	329	35
2023-09-30T18:00	12949	174	-60.7	-75.0	329	34
2023-09-30T18:00	12976	174	-60.8	-75.2	328	34
2023-09-30T18:00	13006	173	-61.0	-75.3	327	33
2023-09-30T18:00	13034	172	-61.2	-75.4	326	33
2023-09-30T18:00	13060	171	-61.3	-75.4	325	32
2023-09-30T18:00	13082	171	-61.4	-75.5	323	32
2023-09-30T18:00	13106	170	-61.5	-75.5	322	31
2023-09-30T18:00	13134	169	-61.6	-75.5	322	31
2023-09-30T18:00	13159	169	-61.8	-75.6	321	31
2023-09-30T18:00	13189	168	-62.0	-75.7	319	30
2023-09-30T18:00	13210	167	-62.2	-75.8	318	30
2023-09-30T18:00	13235	167	-62.3	-75.8	317	30
2023-09-30T18:00	13256	166	-62.5	-76.0	315	30
2023-09-30T18:00	13280	165	-62.6	-76.1	314	30
2023-09-30T18:00	13306	165	-62.7	-76.2	313	31
2023-09-30T18:00	13326	164	-62.8	-76.2	312	31
2023-09-30T18:00	13350	163	-62.7	-76.2	312	32
2023-09-30T18:00	13375	163	-62.7	-76.1	311	32
2023-09-30T18:00	13396	162	-62.7	-76.0	311	33
2023-09-30T18:00	13419	162	-62.7	-75.9	311	34
2023-09-30T18:00	13441	161	-62.7	-75.9	311	35
2023-09-30T18:00	13465	160	-62.8	-76.0	312	35
2023-09-30T18:00	13487	160	-62.9	-76.1	313	36
2023-09-30T18:00	13510	159	-62.9	-76.3	314	36
2023-09-30T18:00	13530	159	-62.9	-76.9	316	36
2023-09-30T18:00	13558	158	-62.9	-78.0	318	36
2023-09-30T18:00	13582	157	-61.8	-78.7	320	35
2023-09-30T18:00	13609	157	-59.7	-79.0	322	34
2023-09-30T18:00	13633	156	-59.3	-80.7	324	33
2023-09-30T18:00	13661	155	-59.0	-82.0	325	32
2023-09-30T18:00	13697	155	-59.0	-82.5	326	31
2023-09-30T18:00	13724	154	-58.9	-82.5	326	30
2023-09-30T18:00	13747	153	-58.9	-82.5	326	29
2023-09-30T18:00	13775	153	-59.1	-82.6	326	28
2023-09-30T18:00	13804	152	-59.3	-82.6	325	27
2023-09-30T18:00	13831	151	-59.4	-82.5	324	27
2023-09-30T18:00	13859	151	-59.7	-82.3	322	26
2023-09-30T18:00	13895	150	-59.9	-82.5	320	26
2023-09-30T18:00	13917	149	-60.0	-82.4	318	25
2023-09-30T18:00	13939	149	-60.0	-82.4	316	25
2023-09-30T18:00	13963	148	-59.9	-82.3	314	25
2023-09-30T18:00	13988	148	-59.9	-82.5	313	25
2023-09-30T18:00	14011	147	-59.9	-82.7	311	24
2023-09-30T18:00	14037	146	-59.9	-82.7	309	24
2023-09-30T18:00	14058	146	-59.9	-82.9	308	24
2023-09-30T18:00	14082	145	-59.8	-82.8	306	24
2023-09-30T18:00	14104	145	-59.4	-82.7	305	24
2023-09-30T18:00	14127	144	-59.5	-82.9	304	25
2023-09-30T18:00	14150	144	-59.6	-83.0	302	25
2023-09-30T18:00	14174	143	-59.7	-83.1	301	25
2023-09-30T18:00	14197	143	-59.7	-83.1	300	25
2023-09-30T18:00	14219	142	-59.9	-83.3	299	26
2023-09-30T18:00	14241	142	-59.9	-83.3	298	26
2023-09-30T18:00	14262	141	-59.8	-83.2	297	27
2023-09-30T18:00	14286	141	-59.5	-82.9	297	27
2023-09-30T18:00	14310	140	-59.5	-82.9	296	27
2023-09-30T18:00	14334	140	-59.3	-82.8	296	28
2023-09-30T18:00	14358	139	-59.3	-82.8	297	28
2023-09-30T18:00	14380	139	-59.4	-82.9	297	28
2023-09-30T18:00	14403	138	-59.4	-82.9	298	28
2023-09-30T18:00	14427	138	-59.4	-82.9	298	29
2023-09-30T18:00	14450	137	-59.4	-82.9	299	29
2023-09-30T18:00	14471	136	-59.6	-82.8	299	29
2023-09-30T18:00	14495	136	-59.8	-83.0	300	29
2023-09-30T18:00	14518	136	-59.8	-83.0	302	29
2023-09-30T18:00	14542	135	-59.6	-83.0	303	29
2023-09-30T18:00	14565	135	-59.6	-83.0	305	29
2023-09-30T18:00	14587	134	-59.7	-83.1	306	29
2023-09-30T18:00	14609	134	-59.6	-83.0	306	28
2023-09-30T18:00	14633	133	-59.6	-83.2	307	28
2023-09-30T18:00	14658	133	-59.7	-83.3	307	27
2023-09-30T18:00	14680	132	-59.4		307	26
2023-09-30T18:00	14705	132	-59.2	-83.1	308	26
2023-09-30T18:00	14726	131	-59.2	-83.1	308	25
2023-09-30T18:00	14750	131	-59.3	-83.2	308	25
2023-09-30T18:00	14773	130	-59.4	-83.3	309	25
2023-09-30T18:00	14796	130	-59.4	-83.3	308	25
2023-09-30T18:00	14822	129	-59.5	-83.6	308	25
2023-09-30T18:00	14844	129	-59.3	-83.7	307	24
2023-09-30T18:00	14867	128	-59.1	-83.7	306	24
2023-09-30T18:00	14890	128	-59.2	-83.8	304	24
2023-09-30T18:00	14913	127	-58.9		303	24
2023-09-30T18:00	14934	127	-58.9	-84.1	303	24
2023-09-30T18:00	14958	126	-59.0	-84.2	302	24
2023-09-30T18:00	14978	126	-58.7	-84.2	302	24
2023-09-30T18:00	15004	125	-58.5	-84.3	301	24
2023-09-30T18:00	15027	125	-58.5	-84.3	301	24
2023-09-30T18:00	15047	125	-58.4	-84.3	300	24
2023-09-30T18:00	15071	124	-58.1	-84.3	299	24
2023-09-30T18:00	15094	124	-58.1	-84.3	299	23
2023-09-30T18:00	15119	123	-58.0	-84.2	299	23
2023-09-30T18:00	15144	123	-58.1	-84.3	299	23
2023-09-30T18:00	15165	122	-58.2	-84.4	299	23
2023-09-30T18:00	15186	122	-58.2	-84.4	300	22
2023-09-30T18:00	15213	121	-58.1	-84.3	300	22
2023-09-30T18:00	15236	121	-58.2	-84.4	301	22
2023-09-30T18:00	15261	120	-58.3	-84.5	301	22
2023-09-30T18:00	15285	120	-58.4	-84.6	301	22
2023-09-30T18:00	15308	119	-58.5	-84.6	301	22
2023-09-30T18:00	15335	119	-58.6	-84.4	301	22
2023-09-30T18:00	15353	119	-58.6	-84.4	300	23
2023-09-30T18:00	15377	118	-58.8	-84.6	300	23
2023-09-30T18:00	15398	118	-58.9	-84.6	300	24
2023-09-30T18:00	15424	117	-58.9	-84.9	300	24
2023-09-30T18:00	15448	117	-58.8	-84.9	300	24
2023-09-30T18:00	15473	116	-58.7	-84.8	301	24
2023-09-30T18:00	15496	116	-58.6	-85.0	302	24
2023-09-30T18:00	15521	115	-58.5	-84.9	304	24
2023-09-30T18:00	15546	115	-58.5	-85.3	306	24
2023-09-30T18:00	15572	115	-58.3	-85.1	308	23
2023-09-30T18:00	15601	114	-58.2	-85.0	310	22
2023-09-30T18:00	15633	113	-58.1	-85.0	312	21
2023-09-30T18:00	15662	113	-58.1	-85.3	313	20
2023-09-30T18:00	15695	112	-58.2	-85.0	313	19
2023-09-30T18:00	15727	112	-58.4	-85.2	314	18
2023-09-30T18:00	15755	111	-58.6	-85.4	314	17
2023-09-30T18:00	15784	111	-58.8	-85.2	313	17
2023-09-30T18:00	15815	110	-58.9	-85.3	313	16
2023-09-30T18:00	15840	110	-59.2	-85.5	312	16
2023-09-30T18:00	15864	109	-59.3	-85.2	312	16
2023-09-30T18:00	15889	109	-59.5	-85.4	310	15
2023-09-30T18:00	15914	108	-59.7	-85.6	309	15
2023-09-30T18:00	15940	108	-59.9	-85.4	307	15
2023-09-30T18:00	15962	108	-60.0	-85.5	305	15
2023-09-30T18:00	15985	107	-60.1	-85.6	304	16
2023-09-30T18:00	16009	107	-60.2	-85.7	303	16
2023-09-30T18:00	16035	106	-60.0	-85.5	302	16
2023-09-30T18:00	16059	106	-60.1	-85.6	301	17
2023-09-30T18:00	16081	106	-60.3	-85.7	300	17
2023-09-30T18:00	16107	105	-60.4	-85.8	298	17
2023-09-30T18:00	16132	105	-60.6	-85.7	296	17
2023-09-30T18:00	16154	104	-60.8	-85.8	294	17
2023-09-30T18:00	16176	104	-60.9	-85.9	292	17
2023-09-30T18:00	16203	104	-61.0	-86.0	290	17
2023-09-30T18:00	16224	103	-61.0	-86.0	289	18
2023-09-30T18:00	16250	103	-61.0	-86.3	288	18
2023-09-30T18:00	16271	102	-60.8	-86.1	288	18
2023-09-30T18:00	16293	102	-60.9	-86.2	287	19
2023-09-30T18:00	16315	102	-60.8	-86.1	287	19
2023-09-30T18:00	16341	101	-60.9	-86.5	287	19
2023-09-30T18:00	16361	101	-60.8	-86.4	288	19
2023-09-30T18:00	16384	101	-60.8	-86.4	289	20
2023-09-30T18:00	16408	100	-60.9	-86.5	290	20
2023-09-30T18:00	16434	100	-60.9	-86.5	291	20
2023-09-30T18:00	16452	99	-60.9	-86.5	293	20
2023-09-30T18:00	16476	99	-61.0	-86.6	294	20
2023-09-30T18:00	16500	99	-61.2	-86.7	295	20
2023-09-30T18:00	16521	98	-61.2	-86.7	295	21
2023-09-30T18:00	16545	98	-60.8		296	21
2023-09-30T18:00	16565	98	-60.8		296	21
2023-09-30T18:00	16593	97	-60.8		296	21
2023-09-30T18:00	16612	97	-60.7	-86.6	296	21
2023-09-30T18:00	16636	97	-60.7	-86.6	296	21
2023-09-30T18:00	16657	96	-60.5	-86.8	297	21
2023-09-30T18:00	16677	96	-60.6	-86.9	298	21
2023-09-30T18:00	16699	96	-60.5	-86.8	299	21
2023-09-30T18:00	16722	95	-60.1	-86.8	300	21
2023-09-30T18:00	16744	95	-60.1	-86.8	301	21
2023-09-30T18:00	16765	95	-60.2	-86.9	302	21
2023-09-30T18:00	16788	94	-59.8	-86.6	302	21
2023-09-30T18:00	16812	94	-59.8	-86.6	302	22
2023-09-30T18:00	16834	94	-59.9	-86.7	302	22
2023-09-30T18:00	16858	93	-60.0	-86.8	302	22
2023-09-30T18:00	16882	93	-60.0	-86.8	302	22
2023-09-30T18:00	16907	93	-60.0	-86.8	303	23
2023-09-30T18:00	16931	92	-60.2	-86.9	304	23
2023-09-30T18:00	16955	92	-60.3	-87.0	306	22
2023-09-30T18:00	16979	91	-60.0	-87.1	307	22
2023-09-30T18:00	17004	91	-59.9	-87.1	309	21
2023-09-30T18:00	17028	91	-59.8	-87.0	310	20
2023-09-30T18:00	17051	90	-59.4	-87.1	310	20
2023-09-30T18:00	17078	90	-59.0	-86.8	309	19
2023-09-30T18:00	17105	90	-58.7	-87.0	308	18
2023-09-30T18:00	17134	89	-58.7	-87.0	305	18
2023-09-30T18:00	17156	89	-58.7	-87.0	302	18
2023-09-30T18:00	17183	89	-58.8	-87.0	300	18
2023-09-30T18:00	17207	88	-59.0	-86.8	297	18
2023-09-30T18:00	17233	88	-59.2	-86.9	294	19
2023-09-30T18:00	17258	87	-59.3	-87.0	293	19
2023-09-30T18:00	17283	87	-59.3	-87.0	293	19
2023-09-30T18:00	17309	87	-59.5	-87.1	294	19
2023-09-30T18:00	17330	86	-59.4	-87.5	295	19
2023-09-30T18:00	17354	86	-58.6	-86.9	297	19
2023-09-30T18:00	17374	86	-58.6	-87.3	298	19
2023-09-30T18:00	17398	86	-58.3	-87.1	299	20
2023-09-30T18:00	17419	85	-57.7	-87.2	299	20
2023-09-30T18:00	17442	85	-57.2	-86.8	299	20
2023-09-30T18:00	17463	85	-57.2	-86.8	298	20
2023-09-30T18:00	17488	84	-57.3	-87.4	298	20
2023-09-30T18:00	17513	84	-57.2	-87.3	299	19
2023-09-30T18:00	17532	84	-57.2	-87.3	299	19
2023-09-30T18:00	17556	83	-57.0	-87.2	300	19
2023-09-30T18:00	17583	83	-56.7	-86.9	301	18
2023-09-30T18:00	17607	83	-56.7	-86.9	303	18
2023-09-30T18:00	17629	82	-56.7	-86.9	304	17
2023-09-30T18:00	17652	82	-56.7	-86.9	306	16
2023-09-30T18:00	17679	82	-56.3	-87.2	308	15
2023-09-30T18:00	17706	81	-56.1	-87.1	311	14
2023-09-30T18:00	17726	81	-56.2	-87.2	313	14
2023-09-30T18:00	17750	81	-56.3	-87.2	315	13
2023-09-30T18:00	17775	81	-56.4		316	13
2023-09-30T18:00	17798	80	-56.4		316	13
2023-09-30T18:00	17819	80	-56.3	-86.6	315	14
2023-09-30T18:00	17846	80	-56.2	-87.2	314	14
2023-09-30T18:00	17869	79	-56.3	-87.2	313	15
2023-09-30T18:00	17895	79	-56.3	-87.2	312	15
2023-09-30T18:00	17917	79	-56.4		310	15
2023-09-30T18:00	17943	78	-56.6	-86.9	310	15
2023-09-30T18:00	17969	78	-56.7	-86.9	309	15
2023-09-30T18:00	17996	78	-56.9	-87.1	310	15
2023-09-30T18:00	18025	78	-57.0	-87.2	311	15
2023-09-30T18:00	18049	77	-56.9	-87.1	312	14
2023-09-30T18:00	18073	77	-56.6	-87.5	314	13
2023-09-30T18:00	18097	77	-56.6	-87.5	315	12
2023-09-30T18:00	18124	76	-56.3	-87.2	316	12
2023-09-30T18:00	18151	76	-56.4	-87.3	316	11
2023-09-30T18:00	18179	76	-56.3	-87.2	315	10
2023-09-30T18:00	18203	75	-56.4	-87.3	313	9
2023-09-30T18:00	18231	75	-56.4	-87.3	312	8
2023-09-30T18:00	18255	75	-56.6	-87.5	310	8
2023-09-30T18:00	18285	74	-56.7	-87.5	307	7
2023-09-30T18:00	18309	74	-56.8	-87.0	304	7
2023-09-30T18:00	18331	74	-56.9	-87.1	300	6
2023-09-30T18:00	18358	74	-57.1	-87.2	295	6
2023-09-30T18:00	18380	73	-57.3	-87.4	288	6
2023-09-30T18:00	18403	73	-57.4	-87.5	282	7
2023-09-30T18:00	18429	73	-57.2	-87.9	277	7
2023-09-30T18:00	18455	72	-57.0	-87.8	274	8
2023-09-30T18:00	18479	72	-56.9	-87.7	271	8
2023-09-30T18:00	18504	72	-56.9	-87.7	271	9
2023-09-30T18:00	18527	72	-56.9	-87.7	271	9
2023-09-30T18:00	18551	71	-57.0	-87.8	272	9
2023-09-30T18:00	18574	71	-57.0	-87.8	274	10
2023-09-30T18:00	18598	71	-57.1	-87.8	276	9
2023-09-30T18:00	18621	71	-57.1	-87.8	280	9
2023-09-30T18:00	18645	70	-57.1	-87.8	283	9
2023-09-30T18:00	18669	70	-57.1	-87.8	285	8
2023-09-30T18:00	18697	70	-57.0	-87.8	286	8
2023-09-30T18:00	18718	69	-56.7	-87.5	286	8
2023-09-30T18:00	18746	69	-56.8	-87.6	285	8
2023-09-30T18:00	18771	69	-56.8	-87.6	283	8
2023-09-30T18:00	18798	69	-56.8	-87.6	282	8
2023-09-30T18:00	18820	68	-57.0	-87.8	282	9
2023-09-30T18:00	18845	68	-57.2	-87.9	283	9
2023-09-30T18:00	18873	68	-57.4	-87.5	283	9
2023-09-30T18:00	18898	68	-57.5	-87.5	284	10
2023-09-30T18:00	18922	67	-57.7	-87.7	284	10
2023-09-30T18:00	18948	67	-57.9	-87.8	285	11
2023-09-30T18:00	18974	67	-58.1	-88.0	285	12
2023-09-30T18:00	18999	66	-58.2	-88.1	286	12
2023-09-30T18:00	19024	66	-58.4	-88.2	286	13
2023-09-30T18:00	19050	66	-58.3	-88.1	286	14
2023-09-30T18:00	19075	66	-58.2	-88.1	286	14
2023-09-30T18:00	19101	65	-58.1	-88.0	286	15
2023-09-30T18:00	19131	65	-58.2	-88.1	286	15
2023-09-30T18:00	19158	65	-58.3	-88.1	286	15
2023-09-30T18:00	19185	65	-58.3	-88.1	285	15
2023-09-30T18:00	19206	64	-58.5	-88.3	285	15
2023-09-30T18:00	19232	64	-58.3	-88.1	284	15
2023-09-30T18:00	19260	64	-58.2	-88.6	283	15
2023-09-30T18:00	19282	63	-57.7	-88.3	283	15
2023-09-30T18:00	19308	63	-57.7	-88.3	283	14
2023-09-30T18:00	19333	63	-57.5	-88.1	284	14
2023-09-30T18:00	19357	63	-57.6	-88.2	285	14
2023-09-30T18:00	19379	63	-57.8	-87.8	286	14
2023-09-30T18:00	19406	62	-58.0	-87.9	288	14
2023-09-30T18:00	19432	62	-58.1	-88.0	288	14
2023-09-30T18:00	19452	62	-58.2	-88.1	289	13
2023-09-30T18:00	19478	62	-58.4	-88.2	289	13
2023-09-30T18:00	19501	61	-58.5	-87.7	289	13
2023-09-30T18:00	19527	61	-58.6	-87.8	289	13
2023-09-30T18:00	19550	61	-58.6	-87.8	289	13
2023-09-30T18:00	19576	61	-58.8	-88.0	290	13
2023-09-30T18:00	19599	60	-59.0	-88.1	291	13
2023-09-30T18:00	19626	60	-59.1	-88.2	292	12
2023-09-30T18:00	19648	60	-59.1	-88.2	293	12
2023-09-30T18:00	19670	60	-59.2	-88.8	294	12
2023-09-30T18:00	19694	59	-59.2	-88.8	295	11
2023-09-30T18:00	19719	59	-59.1	-88.7	295	11
2023-09-30T18:00	19748	59	-58.7	-88.4	296	11
2023-09-30T18:00	19769	59	-58.4	-88.8	296	10
2023-09-30T18:00	19793	59	-58.0	-88.5	295	10
2023-09-30T18:00	19822	58	-58.1	-88.6	293	10
2023-09-30T18:00	19847	58	-58.3	-88.1	291	11
2023-09-30T18:00	19872	58	-58.4	-88.2	288	11
2023-09-30T18:00	19898	58	-58.4	-88.8	285	11
2023-09-30T18:00	19926	57	-58.0	-88.5	281	10
2023-09-30T18:00	19952	57	-58.0	-88.5	277	11
2023-09-30T18:00	19976	57	-58.0	-88.5	274	11
2023-09-30T18:00	20003	57	-57.3	-88.0	273	11
2023-09-30T18:00	20025	56	-57.1	-87.8	272	12
2023-09-30T18:00	20052	56	-57.3	-88.0	273	12
2023-09-30T18:00	20083	56	-57.5	-88.1	274	13
2023-09-30T18:00	20103	56	-57.6	-88.2	276	13
2023-09-30T18:00	20128	56	-57.7	-88.3	278	14
2023-09-30T18:00	20156	55	-57.6	-88.2	280	14
2023-09-30T18:00	20181	55	-57.6	-88.2	282	14
2023-09-30T18:00	20204	55	-57.4	-88.1	284	14
2023-09-30T18:00	20235	55	-57.4	-88.1	286	14
2023-09-30T18:00	20260	54	-57.5	-88.1	288	14
2023-09-30T18:00	20285	54	-57.6	-88.2	289	14
2023-09-30T18:00	20309	54	-57.7	-88.3	291	14
2023-09-30T18:00	20335	54	-57.8	-88.3	292	15
2023-09-30T18:00	20362	54	-57.8	-88.3	294	15
2023-09-30T18:00	20388	53	-57.8	-89.0	296	14
2023-09-30T18:00	20413	53	-57.6	-88.9	298	14
2023-09-30T18:00	20436	53	-57.0	-88.4	299	13
2023-09-30T18:00	20468	53	-56.6	-88.1	301	13
2023-09-30T18:00	20494	52	-56.2	-88.6	302	12
2023-09-30T18:00	20518	52	-56.2	-88.6	304	11
2023-09-30T18:00	20539	52	-56.3	-87.9	305	11
2023-09-30T18:00	20564	52	-56.4	-88.0	306	10
2023-09-30T18:00	20591	52	-56.4	-88.0	307	9
2023-09-30T18:00	20614	51	-56.4	-88.0	309	9
2023-09-30T18:00	20638	51	-56.5	-88.1	310	9
2023-09-30T18:00	20664	51	-56.6	-88.1	313	9
2023-09-30T18:00	20692	51	-56.8	-88.3	315	9
2023-09-30T18:00	20715	51	-56.9	-87.7	317	9
2023-09-30T18:00	20739	50	-57.0	-87.8	319	9
2023-09-30T18:00	20766	50	-57.2	-87.9	322	9
2023-09-30T18:00	20789	50	-57.3	-88.0	324	9
2023-09-30T18:00	20817	50	-57.4	-88.1	325	9
2023-09-30T18:00	20836	50	-57.5	-88.1	326	8
2023-09-30T18:00	20866	49	-57.5	-88.1	326	8
2023-09-30T18:00	20895	49	-57.6	-88.2	325	7
2023-09-30T18:00	20919	49	-57.7	-88.3	322	6
2023-09-30T18:00	20950	49	-57.8	-88.3	318	5
2023-09-30T18:00	20974	49	-57.9	-88.4	313	5
2023-09-30T18:00	21001	48	-58.1	-88.6	308	5
2023-09-30T18:00	21025	48	-58.3	-88.1	304	5
2023-09-30T18:00	21049	48	-58.5	-88.3	301	5
2023-09-30T18:00	21074	48	-58.7	-88.4	298	5
2023-09-30T18:00	21101	48	-58.9	-88.6	296	5
2023-09-30T18:00	21130	47	-59.2	-88.8	293	5
2023-09-30T18:00	21159	47	-59.4	-88.4	291	6
2023-09-30T18:00	21183	47	-59.6	-88.6	288	6
2023-09-30T18:00	21212	47	-59.9	-88.8	285	6
2023-09-30T18:00	21236	47	-60.1	-88.9	282	7
2023-09-30T18:00	21260	46	-60.2	-89.0	279	8
2023-09-30T18:00	21285	46	-60.4	-89.2	278	9
2023-09-30T18:00	21315	46	-60.4	-89.2	277	10
2023-09-30T18:00	21342	46	-60.2	-89.5	277	10
2023-09-30T18:00	21364	46	-60.0	-89.4	277	11
2023-09-30T18:00	21393	45	-59.7	-89.2	278	11
2023-09-30T18:00	21420	45	-59.6	-89.7	279	11
2023-09-30T18:00	21446	45	-59.4	-89.5	281	11
2023-09-30T18:00	21475	45	-59.2	-89.4	284	12
2023-09-30T18:00	21496	45	-59.0	-89.2	286	12
2023-09-30T18:00	21527	44	-58.8	-89.1	289	12
2023-09-30T18:00	21551	44	-58.6	-89.6	290	11
2023-09-30T18:00	21575	44	-58.6	-89.6	291	11
2023-09-30T18:00	21601	44	-58.2	-89.3	292	11
2023-09-30T18:00	21629	44	-58.1	-88.6	293	11
2023-09-30T18:00	21653	44	-58.2	-88.6	295	11
2023-09-30T18:00	21678	43	-58.4	-88.8	296	11
2023-09-30T18:00	21707	43	-58.3	-88.7	297	11
2023-09-30T18:00	21733	43	-58.2	-88.6	298	10
2023-09-30T18:00	21761	43	-58.1	-88.6	298	10
2023-09-30T18:00	21785	43	-58.1	-88.6	297	10
2023-09-30T18:00	21814	42	-58.1	-88.6	296	9
2023-09-30T18:00	21835	42	-58.0	-88.5	294	9
2023-09-30T18:00	21866	42	-58.1	-88.6	293	9
2023-09-30T18:00	21887	42	-58.3	-88.7	292	9
2023-09-30T18:00	21917	42	-58.5	-88.9	292	9
2023-09-30T18:00	21945	42	-58.6	-88.9	292	9
2023-09-30T18:00	21972	41	-58.7	-89.0	293	10
2023-09-30T18:00	22001	41	-58.7	-89.0	293	10
2023-09-30T18:00	22024	41	-58.8	-89.1	294	10
2023-09-30T18:00	22050	41	-58.9	-89.2	294	10
2023-09-30T18:00	22078	41	-58.7	-89.0	295	9
2023-09-30T18:00	22103	41	-58.5	-88.9	295	9
2023-09-30T18:00	22128	40	-58.4	-88.8	294	8
2023-09-30T18:00	22157	40	-58.3	-89.4	292	7
2023-09-30T18:00	22183	40	-57.9	-89.1	290	7
2023-09-30T18:00	22206	40	-57.5	-88.8	287	7
2023-09-30T18:00	22229	40	-57.4	-88.7	285	7
2023-09-30T18:00	22258	40	-57.3	-88.6	283	7
2023-09-30T18:00	22286	39	-57.3	-88.6	283	8
2023-09-30T18:00	22311	39	-57.4	-88.7	283	8
2023-09-30T18:00	22343	39	-57.4	-88.7	283	9
2023-09-30T18:00	22365	39	-57.5	-88.8	284	9
2023-09-30T18:00	22389	39	-57.5	-88.8	285	8
2023-09-30T18:00	22413	39	-57.7	-88.9	286	8
2023-09-30T18:00	22442	38	-57.0	-89.2	288	8
2023-09-30T18:00	22463	38	-56.8	-89.0	291	8
2023-09-30T18:00	22497	38	-56.7	-88.9	295	7
2023-09-30T18:00	22521	38	-56.3	-88.6	299	7
2023-09-30T18:00	22545	38	-56.0	-88.4	304	7
2023-09-30T18:00	22576	38	-55.9	-88.4	307	7
2023-09-30T18:00	22594	38	-55.8	-88.3	310	7
2023-09-30T18:00	22624	37	-55.7	-88.2	312	7
2023-09-30T18:00	22656	37	-55.9	-88.4	313	7
2023-09-30T18:00	22680	37	-56.1	-88.5	312	6
2023-09-30T18:00	22702	37	-56.1	-88.5	310	6
2023-09-30T18:00	22732	37	-56.1	-88.5	308	5
2023-09-30T18:00	22755	37	-56.1	-88.5	304	4
2023-09-30T18:00	22784	36	-56.1	-87.8	299	4
2023-09-30T18:00	22810	36	-56.1	-87.8	294	4
2023-09-30T18:00	22835	36	-56.3	-87.9	289	3
2023-09-30T18:00	22863	36	-56.5	-88.1	286	3
2023-09-30T18:00	22890	36	-56.6	-88.1	284	4
2023-09-30T18:00	22917	36	-56.9	-88.3	283	4
2023-09-30T18:00	22942	36	-57.1	-88.5	282	5
2023-09-30T18:00	22966	35	-57.2	-88.6	282	6
2023-09-30T18:00	22994	35	-57.3	-88.6	281	6
2023-09-30T18:00	23025	35	-57.2	-88.6	280	7
2023-09-30T18:00	23044	35	-57.2	-88.6	280	8
2023-09-30T18:00	23073	35	-57.3	-88.6	280	8
2023-09-30T18:00	23093	35	-57.4	-88.7	281	9
2023-09-30T18:00	23120	35	-57.6	-88.9	283	9
2023-09-30T18:00	23143	34	-57.7	-88.9	286	10
2023-09-30T18:00	23172	34	-57.7	-88.9	289	10
2023-09-30T18:00	23193	34	-57.6	-88.9	292	10
2023-09-30T18:00	23217	34	-57.3	-88.6	295	10
2023-09-30T18:00	23249	34	-57.1	-89.2	299	11
2023-09-30T18:00	23273	34	-56.9	-89.1	302	11
2023-09-30T18:00	23303	34	-56.8	-89.0	305	11
2023-09-30T18:00	23326	33	-56.8	-89.0	307	11
2023-09-30T18:00	23349	33	-56.8	-89.0	308	11
2023-09-30T18:00	23377	33	-56.9	-89.1	308	10
2023-09-30T18:00	23403	33	-56.9	-89.1	309	10
2023-09-30T18:00	23430	33	-56.8	-89.0	309	10
2023-09-30T18:00	23458	33	-56.9	-89.1	310	10
2023-09-30T18:00	23490	33	-56.9	-89.1	311	10
2023-09-30T18:00	23516	32	-56.9	-89.1	312	10
2023-09-30T18:00	23548	32	-56.8	-89.0	313	10
2023-09-30T18:00	23571	32	-57.0	-89.2	313	10
2023-09-30T18:00	23604	32	-57.0	-89.2	313	10
2023-09-30T18:00	23631	32	-56.8	-89.0	312	9
2023-09-30T18:00	23660	32	-56.5	-88.8	311	9
2023-09-30T18:00	23687	32	-56.4	-88.7	309	9
2023-09-30T18:00	23721	31	-56.4	-88.7	306	9
2023-09-30T18:00	23743	31	-56.3	-88.6	302	9
2023-09-30T18:00	23777	31	-56.3	-88.6	298	9
2023-09-30T18:00	23796	31	-56.2	-88.6	295	9
2023-09-30T18:00	23833	31	-56.2	-88.6	293	9
2023-09-30T18:00	23860	31	-56.3	-88.6	293	9
2023-09-30T18:00	23891	31	-56.1	-88.5	293	9
2023-09-30T18:00	23920	30	-55.9	-88.4	294	9
2023-09-30T18:00	23952	30	-55.8	-88.3	296	8
2023-09-30T18:00	23978	30	-55.7	-88.2	296	8
2023-09-30T18:00	24004	30	-55.7	-88.2	297	8
2023-09-30T18:00	24037	30	-55.5	-88.1	297	8
2023-09-30T18:00	24062	30	-55.6	-88.1	296	8
2023-09-30T18:00	24086	30	-55.5	-88.1	296	9
2023-09-30T18:00	24116	30	-55.5	-88.1	296	9
2023-09-30T18:00	24144	29	-55.7	-88.2	297	9
2023-09-30T18:00	24167	29	-55.9	-88.4	297	9
2023-09-30T18:00	24192	29	-56.0	-88.4	296	9
2023-09-30T18:00	24221	29	-56.0	-88.4	295	9
2023-09-30T18:00	24245	29	-55.9	-88.4	294	8
2023-09-30T18:00	24272	29	-55.5	-88.1	292	8
2023-09-30T18:00	24305	29	-55.5	-88.9	291	7
2023-09-30T18:00	24327	29	-55.3	-88.8	291	7
2023-09-30T18:00	24358	28	-55.2	-88.7	294	7
2023-09-30T18:00	24381	28	-55.1	-88.6	297	8
2023-09-30T18:00	24414	28	-55.1	-88.6	301	8
2023-09-30T18:00	24435	28	-55.1	-88.6	305	8
2023-09-30T18:00	24461	28	-54.8	-88.4	308	9
2023-09-30T18:00	24490	28	-54.8	-88.4	311	9
2023-09-30T18:00	24509	28	-55.0	-87.7	313	9
2023-09-30T18:00	24537	28	-55.2	-87.8	315	9
2023-09-30T18:00	24565	28	-55.3	-87.9	316	10
2023-09-30T18:00	24593	27	-55.4	-88.0	318	11
2023-09-30T18:00	24620	27	-55.6	-88.1	320	11
2023-09-30T18:00	24644	27	-55.7	-89.1	323	12
2023-09-30T18:00	24670	27	-55.6	-89.0	325	12
2023-09-30T18:00	24698	27	-55.2	-88.7	327	12
2023-09-30T18:00	24722	27	-55.1	-88.6	329	12
2023-09-30T18:00	24743	27	-55.1	-88.6	330	11
2023-09-30T18:00	24772	27	-54.9	-88.5	330	11
2023-09-30T18:00	24798	27	-54.7	-88.4	331	10
2023-09-30T18:00	24818	26	-54.6	-88.3	332	10
2023-09-30T18:00	24841	26	-54.6	-88.3	332	10
2023-09-30T18:00	24865	26	-54.8	-88.4	332	9
2023-09-30T18:00	24897	26	-54.9	-88.5	332	9
2023-09-30T18:00	24925	26	-55.1	-87.8	330	8
2023-09-30T18:00	24953	26	-55.3	-87.9	328	8
2023-09-30T18:00	24980	26	-55.5	-88.1	325	7
2023-09-30T18:00	25010	26	-55.5	-88.1	321	7
2023-09-30T18:00	25041	26	-55.7	-88.2	316	6
2023-09-30T18:00	25070	25	-55.9	-88.4	309	5
2023-09-30T18:00	25094	25	-55.7	-88.2	301	5
2023-09-30T18:00	25120	25	-55.8	-88.3	294	4
2023-09-30T18:00	25149	25	-55.8	-88.3	288	4
2023-09-30T18:00	25173	25	-56.0	-88.4	285	5
2023-09-30T18:00	25206	25	-56.1	-88.5	282	5
2023-09-30T18:00	25228	25	-56.4	-88.7	281	5
2023-09-30T18:00	25260	25	-56.6	-88.1	280	5
2023-09-30T18:00	25282	25	-56.8	-88.3	280	6
2023-09-30T18:00	25314	24	-57.0	-88.4	281	6
2023-09-30T18:00	25341	24	-57.2	-89.3	283	6
2023-09-30T18:00	25376	24	-57.2	-89.3	284	6
2023-09-30T18:00	25396	24	-57.2	-89.3	286	6
2023-09-30T18:00	25419	24	-57.2	-89.3	289	7
2023-09-30T18:00	25457	24	-57.4	-89.4	291	7
2023-09-30T18:00	25489	24	-57.2	-89.3	293	7
2023-09-30T18:00	25519	24	-57.1	-89.2	293	8
2023-09-30T18:00	25541	24	-57.2	-89.3	294	9
2023-09-30T18:00	25571	24	-57.3	-89.4	294	10
2023-09-30T18:00	25595	23	-57.1	-89.2	295	10
2023-09-30T18:00	25620	23	-56.8	-89.9	297	10
2023-09-30T18:00	25654	23	-56.4	-89.6	299	10
2023-09-30T18:00	25682	23	-56.3	-89.5	302	10
2023-09-30T18:00	25702	23	-56.1	-89.4	305	10
2023-09-30T18:00	25735	23	-56.0	-89.3	308	10
2023-09-30T18:00	25765	23	-56.0	-89.3	309	10
2023-09-30T18:00	25801	23	-56.0	-89.3	309	10
2023-09-30T18:00	25822	23	-55.9	-89.2	308	10
2023-09-30T18:00	25842	23	-55.8	-89.1	307	9
2023-09-30T18:00	25870	22	-55.5	-88.9	306	9
2023-09-30T18:00	25909	22	-55.4	-88.9	305	9
2023-09-30T18:00	25933	22	-55.2	-88.7	305	10
2023-09-30T18:00	25955	22	-54.9	-89.5	305	10
2023-09-30T18:00	25995	22	-54.8	-89.4	307	10
2023-09-30T18:00	26018	22	-54.5	-89.2	308	10
2023-09-30T18:00	26045	22	-54.5	-89.2	310	10
2023-09-30T18:00	26073	22	-54.5	-89.2	312	10
2023-09-30T18:00	26105	22	-54.6	-89.3	315	9
2023-09-30T18:00	26133	22	-54.6	-89.3	318	9
2023-09-30T18:00	26162	21	-54.6	-89.3	319	9
2023-09-30T18:00	26201	21	-54.5	-89.2	320	9
2023-09-30T18:00	26228	21	-54.6	-89.3	319	8
2023-09-30T18:00	26258	21	-54.4	-89.1	316	8
2023-09-30T18:00	26284	21	-54.6	-88.3	312	8
2023-09-30T18:00	26319	21	-54.7	-88.4	309	9
2023-09-30T18:00	26348	21	-54.7	-88.4	307	9
2023-09-30T18:00	26385	21	-54.6	-88.3	305	9
2023-09-30T18:00	26415	21	-54.8	-88.4	305	10
2023-09-30T18:00	26443	21	-54.7	-88.4	306	10
2023-09-30T18:00	26478	20	-54.9	-88.5	308	10
2023-09-30T18:00	26510	20	-54.9	-88.5	311	10
2023-09-30T18:00	26531	20	-54.6	-88.3	314	10
2023-09-30T18:00	26560	20	-54.8	-88.4	317	9
2023-09-30T18:00	26588	20	-54.9	-88.5	319	8
2023-09-30T18:00	26620	20	-55.1	-88.6	322	8
2023-09-30T18:00	26649	20	-55.2	-88.7	323	7
2023-09-30T18:00	26680	20	-55.4	-88.9	325	7
2023-09-30T18:00	26704	20	-55.6	-89.0	325	7
2023-09-30T18:00	26745	20	-55.8	-89.1	325	6
2023-09-30T18:00	26770	20	-56.0	-88.4	323	5
2023-09-30T18:00	26795	19	-56.2	-88.6	318	5
2023-09-30T18:00	26827	19	-56.3	-89.5	311	5
2023-09-30T18:00	26873	19	-56.1	-89.4	303	5
2023-09-30T18:00	26886	19	-56.0	-89.3	297	6
2023-09-30T18:00	26924	19	-55.3	-89.8	293	7
2023-09-30T18:00	26956	19	-55.2	-89.7	291	8
2023-09-30T18:00	26982	19	-55.4	-89.9	291	9
2023-09-30T18:00	27031	19	-55.3	-89.8	291	9
2023-09-30T18:00	27056	19	-55.4	-89.9	291	9
2023-09-30T18:00	27089	19	-54.9	-89.5	291	8
2023-09-30T18:00	27122	18	-54.6	-89.3	291	7
2023-09-30T18:00	27149	18	-54.2	-89.0	290	7
2023-09-30T18:00	27175	18	-53.8	-88.7	288	6
2023-09-30T18:00	27203	18	-53.5	-88.5	285	6
2023-09-30T18:00	27244	18	-53.5	-88.5	282	6
2023-09-30T18:00	27265	18	-53.6	-88.6	281	6
2023-09-30T18:00	27292	18	-53.6	-88.6	282	6
2023-09-30T18:00	27326	18	-53.4	-88.4	283	6
2023-09-30T18:00	27362	18	-53.5	-88.5	286	6
2023-09-30T18:00	27387	18	-53.5	-88.5	288	7
2023-09-30T18:00	27417	18	-53.8	-88.7	289	7
2023-09-30T18:00	27456	18	-54.0	-88.9	290	7
2023-09-30T18:00	27478	17	-54.1	-88.9	291	7
2023-09-30T18:00	27506	17	-54.1	-88.9	293	8
2023-09-30T18:00	27539	17	-54.3	-88.1	295	9
2023-09-30T18:00	27574	17	-54.5	-88.2	297	9
2023-09-30T18:00	27606	17	-54.8	-88.4	299	10
2023-09-30T18:00	27633	17	-55.0	-88.6	301	11
2023-09-30T18:00	27649	17	-54.8	-89.4	302	12
2023-09-30T18:00	27688	17	-54.7	-89.4	302	13
2023-09-30T18:00	27728	17	-54.6	-89.3	302	14
2023-09-30T18:00	27751	17	-54.7	-89.4	302	15
2023-09-30T18:00	27772	17	-54.4	-89.1	302	15
2023-09-30T18:00	27803	17	-53.2	-88.3	301	15
2023-09-30T18:00	27838	17	-52.5	-87.8	301	14
2023-09-30T18:00	27863	16	-52.5	-87.8	300	14
2023-09-30T18:00	27887	16	-52.6	-87.9	300	13
2023-09-30T18:00	27917	16	-52.4	-87.7	299	12
2023-09-30T18:00	27941	16	-52.3	-87.7	299	12
2023-09-30T18:00	27968	16	-52.0	-87.4	299	12
2023-09-30T18:00	27987	16	-52.1	-87.5	300	11
2023-09-30T18:00	28025	16	-52.4	-87.7	300	11
2023-09-30T18:00	28044	16	-52.6	-87.9	300	10
2023-09-30T18:00	28074	16	-52.6	-87.9	300	10
2023-09-30T18:00	28098	16	-52.7	-87.9	299	10
2023-09-30T18:00	28129	16	-52.9	-88.1	297	9
2023-09-30T18:00	28163	16	-53.0	-88.2	294	9
2023-09-30T18:00	28187	16	-53.0	-88.2	291	8
2023-09-30T18:00	28209	16	-53.0	-88.2	288	8
2023-09-30T18:00	28223	16	-53.0	-88.2	285	9
2023-09-30T18:00	28258	15	-52.9	-88.1	282	9
2023-09-30T18:00	28293	15	-52.5	-87.8	281	9
2023-09-30T18:00	28321	15	-52.3	-87.7	280	10
2023-09-30T18:00	28347	15	-52.1	-87.5	280	10
2023-09-30T18:00	28368	15	-52.2	-87.6	280	10
2023-09-30T18:00	28387	15	-52.3	-87.7	281	11
2023-09-30T18:00	28417	15	-52.4	-87.7	282	11
2023-09-30T18:00	28452	15	-52.6	-87.9	283	11
2023-09-30T18:00	28470	15	-52.7	-87.9	285	12
2023-09-30T18:00	28498	15	-52.7	-87.9	286	12
2023-09-30T18:00	28514	15	-52.8	-88.0	288	12
2023-09-30T18:00	28549	15	-53.0	-88.2	289	13
2023-09-30T18:00	28582	15	-53.0	-88.2	291	14
2023-09-30T18:00	28608	15	-53.0	-88.2	293	15
2023-09-30T18:00	28651	15	-53.0	-88.2	295	15
2023-09-30T18:00	28672	15	-53.0	-88.2	297	16
2023-09-30T18:00	28699	14	-52.8	-88.0	300	17
2023-09-30T18:00	28731	14	-52.3	-87.7	302	18
2023-09-30T18:00	28754	14	-52.2	-87.6	304	18
2023-09-30T18:00	28778	14	-52.2	-87.6	306	19
2023-09-30T18:00	28814	14	-52.0	-87.4	307	19
2023-09-30T18:00	28838	14	-52.2	-87.6	309	19
2023-09-30T18:00	28866	14	-52.2	-87.6	310	19
2023-09-30T18:00	28909	14	-51.8	-87.3	310	18
2023-09-30T18:00	28926	14	-51.6	-87.2	311	17
2023-09-30T18:00	28950	14	-51.7	-87.2	311	17
2023-09-30T18:00	29000	14	-51.8	-87.3	310	16
2023-09-30T18:00	29033	14	-51.9	-87.4	309	16
2023-09-30T18:00	29054	14	-51.9	-87.4	307	15
2023-09-30T18:00	29086	14	-51.9	-87.4	305	15
2023-09-30T18:00	29114	14	-51.9	-87.4	303	15
2023-09-30T18:00	29136	13	-52.0	-87.4	301	15
2023-09-30T18:00	29173	13	-52.0	-87.4	299	15
2023-09-30T18:00	29205	13	-51.8	-87.3	298	15
2023-09-30T18:00	29230	13	-51.6	-87.2	297	15
2023-09-30T18:00	29267	13	-51.6	-87.2	296	15
2023-09-30T18:00	29294	13	-51.6	-87.2	295	15
2023-09-30T18:00	29314	13	-51.3	-87.0	294	15
2023-09-30T18:00	29349	13	-50.7	-86.5	293	14
2023-09-30T18:00	29401	13	-50.7	-86.5	292	14
2023-09-30T18:00	29415	13	-51.0	-86.7	292	13
2023-09-30T18:00	29445	13	-51.0	-86.7	291	13
2023-09-30T18:00	29470	13	-51.1	-86.8	291	13
2023-09-30T18:00	29506	13	-51.2	-86.9	291	13
2023-09-30T18:00	29525	13	-51.4	-87.0	291	12
2023-09-30T18:00	29551	13	-51.5	-87.1	291	12
2023-09-30T18:00	29589	13	-51.6	-87.2	291	12
2023-09-30T18:00	29626	13	-51.8	-87.3	291	12
2023-09-30T18:00	29650	12	-51.9	-87.4	291	12
2023-09-30T18:00	29685	12	-51.9	-87.4	291	13
2023-09-30T18:00	29728	12	-51.9	-87.4	290	13
2023-09-30T18:00	29764	12	-51.8	-87.3	289	14
2023-09-30T18:00	29769	12	-51.8	-87.3	287	14
2023-09-30T18:00	29821	12	-51.8	-87.3	285	14
2023-09-30T18:00	29843	12	-51.6	-87.2	282	14
2023-09-30T18:00	29871	12	-51.5	-87.1	279	15
2023-09-30T18:00	29920	12	-51.6	-87.2	277	15
2023-09-30T18:00	29942	12	-51.6	-87.2	276	15
2023-09-30T18:00	29972	12	-51.7	-87.2	275	16
2023-09-30T18:00	29992	12	-51.8	-87.3	275	17
2023-09-30T18:00	30040	12	-51.9	-87.4	275	18
2023-09-30T18:00	30078	12	-51.9	-87.4	275	19
2023-09-30T18:00	30097	12	-52.0	-87.4	276	20
2023-09-30T18:00	30130	12	-52.1	-87.5	276	20
2023-09-30T18:00	30162	12	-52.1	-87.5	277	21
2023-09-30T18:00	30197	11	-52.2	-87.6	278	21
2023-09-30T18:00	30227	11	-52.2	-87.6	279	22
2023-09-30T18:00	30259	11	-51.6	-87.2	280	22
2023-09-30T18:00	30275	11	-51.4	-87.0	281	22
2023-09-30T18:00	30316	11	-51.0	-86.7	282	22
2023-09-30T18:00	30354	11	-50.8	-86.6	283	21
2023-09-30T18:00	30379	11	-50.9	-86.7	283	21
2023-09-30T18:00	30404	11	-51.0	-86.7	284	20
2023-09-30T18:00	30445	11	-51.1	-86.8	286	19
2023-09-30T18:00	30466	11	-51.3	-87.0	287	19
2023-09-30T18:00	30487	11	-51.1	-86.8	288	18
2023-09-30T18:00	30525	11	-50.9	-86.7	290	18
2023-09-30T18:00	30549	11	-50.8	-86.6	292	17
2023-09-30T18:00	30578	11	-50.6	-86.5	293	17
2023-09-30T18:00	30603	11	-50.3	-86.2	293	17
2023-09-30T18:00	30668	11	-49.8	-85.9	294	16
2023-09-30T18:00	30685	11	-49.9	-86.0	294	16
2023-09-30T18:00	30741	11	-49.8	-85.9	294	16
2023-09-30T18:00	30754	11	-49.8	-85.9	293	15
2023-09-30T18:00	30767	11	-49.9	-86.0	293	15
2023-09-30T18:00	30819	10	-49.7	-85.8	292	15
2023-09-30T18:00	30830	10	-49.5	-85.7	291	15
2023-09-30T18:00	30865	10	-49.3	-85.5	290	15
2023-09-30T18:00	30893	10	-49.2	-85.5	289	16
2023-09-30T18:00	30925	10	-49.4	-85.6	288	17
2023-09-30T18:00	30943	10	-49.5	-85.7	288	17
2023-09-30T18:00	30981	10	-49.6	-85.8	287	18
2023-09-30T18:00	31005	10	-49.8	-85.9	286	18
2023-09-30T18:00	31031	10	-50.0	-86.0	284	19
2023-09-30T18:00	31079	10	-50.0	-86.0	283	19
2023-09-30T18:00	31087	10	-49.8	-85.9	282	20
2023-09-30T18:00	31103	10	-49.7	-85.8	280	20
2023-09-30T18:00	31148	10	-49.7	-85.8	280	21
2023-09-30T18:00	31157	10	-49.8	-85.9	279	21
2023-09-30T18:00	31190	10	-49.9	-86.0	278	21
2023-09-30T18:00	31223	10	-49.9	-86.0	278	21
2023-09-30T18:00	31245	10	-49.8	-85.9	279	21
2023-09-30T18:00	31286	10	-49.7	-85.8	280	20
2023-09-30T18:00	31314	10	-49.5	-85.7	280	20
2023-09-30T18:00	31341	10	-49.2	-85.5	281	20
2023-09-30T18:00	31380	10	-48.8	-85.2	282	19
2023-09-30T18:00	31387	10	-48.7	-85.1	282	19
2023-09-30T18:00	31409	10	-48.7	-85.1	283	19
2023-09-30T18:00	31435	9	-48.8	-85.2	283	19
2023-09-30T18:00	31466	9	-48.9	-85.3	283	19
2023-09-30T18:00	31515	9	-49.0	-85.3	283	19
2023-09-30T18:00	31551	9	-49.0	-85.3	284	20
2023-09-30T18:00	31552	9	-48.8	-85.2	284	20
2023-09-30T18:00	31597	9	-48.6	-85.0	284	19
2023-09-30T18:00	31633	9	-48.6	-85.0	284	19
2023-09-30T18:00	31652	9	-48.7	-85.1	284	18
2023-09-30T18:00	31694	9	-48.7	-85.1	283	18
2023-09-30T18:00	31747	9	-48.8	-85.2	282	17
2023-09-30T18:00	31755	9	-49.0	-85.3	281	17
2023-09-30T18:00	31785	9	-49.0	-85.3	280	16
2023-09-30T18:00	31814	9	-48.9	-85.3	280	15
2023-09-30T18:00	31840	9	-48.8	-85.2	280	15
2023-09-30T18:00	31897	9	-48.5	-85.0	281	14
2023-09-30T18:00	31930	9	-48.2	-84.8	283	14
2023-09-30T18:00	31971	9	-48.1	-84.7	286	13
2023-09-30T18:00	32002	9	-48.3	-84.8	289	12
2023-09-30T18:00	32048	9	-48.4	-84.9	289	12
2023-09-30T18:00	32080	9	-48.1	-84.7	289	12
2023-09-30T18:00	32111	9	-47.7	-84.4	286	11
2023-09-30T18:00	32144	9	-47.7	-84.4	283	11
2023-09-30T18:00	32175	8	-47.7	-84.4	278	11
2023-09-30T18:00	32216	8	-47.6	-84.3	272	10
2023-09-30T18:00	32231	8	-47.6	-84.3	266	10
2023-09-30T18:00	32277	8	-47.6	-84.3	262	11
2023-09-30T18:00	32321	8	-47.5	-84.3	259	11
2023-09-30T18:00	32346	8	-47.4	-84.2	257	12
2023-09-30T18:00	32374	8	-46.9	-83.9	256	12
2023-09-30T18:00	32412	8	-46.9	-83.9	256	13
2023-09-30T18:00	32446	8	-46.9	-83.9	256	14
2023-09-30T18:00	32480	8	-46.8	-83.8	256	15
2023-09-30T18:00	32515	8	-46.7	-83.7	256	15
2023-09-30T18:00	32568	8	-46.5	-83.6	255	17
2023-09-30T18:00	32620	8	-46.6	-83.6	255	17
2023-09-30T18:00	32622	8	-46.7	-83.7	254	18
2023-09-30T18:00	32672	8	-46.9	-83.9	254	19
2023-09-30T18:00	32688	8	-47.1	-84.0	253	19
2023-09-30T18:00	32716	8	-47.3	-84.1	253	20
2023-09-30T18:00	32767	8	-47.3	-84.1	253	20
2023-09-30T18:00	32786	8	-47.3	-84.1	253	20
2023-09-30T18:00	32825	8	-47.3	-84.1	253	20
2023-09-30T18:00	32860	8	-47.3	-84.1	253	20
2023-09-30T18:00	32890	8	-47.3	-84.1	253	20
2023-09-30T18:00	32926	8	-47.1	-84.0	253	20
2023-09-30T18:00	32952	8	-47.1	-84.0	253	20
2023-09-30T18:00	32978	8	-47.2	-84.1	252	20
2023-09-30T18:00	33039	8	-47.1	-84.0	252	20
2023-09-30T18:00	33048	7	-47.2	-84.1	252	20
2023-09-30T18:00	33062	7	-47.3	-84.1	253	20
2023-09-30T18:00	33097	7	-47.4	-84.2	253	20
2023-09-30T18:00	33137	7	-47.4	-84.2	255	19
2023-09-30T18:00	33183	7	-47.5	-84.3	259	19
2023-09-30T18:00	33237	7	-47.6	-84.3	262	19
2023-09-30T18:00	33247	7	-47.7	-84.4	265	19
2023-09-30T18:00	33272	7	-47.7	-84.4	267	19
2023-09-30T18:00	33308	7	-47.7	-84.4	269	20
2023-09-30T18:00	33334	7	-47.6	-84.3	270	20
2023-09-30T18:00	33344	7	-47.6	-84.3	271	21
2023-09-30T18:00	33397	7	-47.4	-84.2	271	21
2023-09-30T18:00	33398	7	-47.4	-84.2	272	22
2023-09-30T18:00	33419	7	-47.1	-84.0	273	23
2023-09-30T18:00	33463	7	-46.9	-83.9	275	23
2023-09-30T18:00	33493	7	-47.0	-83.9	276	24
2023-09-30T18:00	33500	7	-46.5	-83.6	277	24
2023-09-30T18:00	33556	7	-45.9	-83.2	278	25
2023-09-30T18:00	33580	7	-45.2	-82.7	280	25
2023-09-30T18:00	33607	7	-44.9	-82.5	282	26
2023-09-30T18:00	33641	7	-44.7	-82.3	283	26
2023-09-30T18:00	33661	7	-44.5	-82.2	287	28
2023-09-30T18:00	33708	7	-44.4	-82.1	287	29
2023-09-30T18:00	33742	7	-44.1	-81.9	288	30
2023-09-30T18:00	33747	7	-43.7	-81.6	288	30
2023-09-30T18:00	33776	7	-43.7	-81.6	287	31
2023-09-30T18:00	33804	7	-43.9	-81.8	287	31
2023-09-30T18:00	33820	7	-44.1	-81.9	286	31
2023-09-30T18:00	33865	7	-44.1	-81.9	285	32
2023-09-30T18:00	33888	7	-44.1	-81.9	285	32
2023-09-30T18:00	33917	7	-44.3	-82.0	285	33
2023-09-30T18:00	33964	7	-44.3	-82.0	285	33
2023-09-30T18:00	33990	6	-44.6	-82.2	285	34
2023-09-30T18:00	34002	6	-44.8	-82.4	286	34
2023-09-30T18:00	34033	6	-44.9	-82.5	287	34
2023-09-30T18:00	34082	6	-44.9	-82.5	289	33
2023-09-30T18:00	34125	6	-44.9	-82.5	292	32
2023-09-30T18:00	34159	6	-44.8	-82.4	292	32
2023-09-30T18:00	34194	6	-45.1	-82.6	292	32
